<?xml version="1.0" encoding="UTF-8" standalone="no" ?>
<gpx xmlns="http://www.topografix.com/GPX/1/1" xmlns:xsi="http://www.w3.org/2001/XMLSchema-instance" xsi:schemaLocation="http://www.topografix.com/GPX/1/1 http://www.topografix.com/GPX/1/1/gpx.xsd" version="1.1" creator="VisuGPX - https://www.visugpx.com">
  <metadata>
    <name>Vélosud 2025</name>
  </metadata>
  <trk>
    <name><![CDATA[Rivesaltes Cyclisme]]></name>
    <desc><![CDATA[]]></desc>
    <extensions>
      <line xmlns="http://www.topografix.com/GPX/gpx_style/0/2">
        <color>ff5900</color>
        <opacity>1</opacity>
        <width>3</width>
      </line>
    </extensions>
    <trkseg>
      <trkpt lat="42.7709" lon="2.87343">
        <ele>23.799999237061</ele>
        <time>2025-08-04T06:41:28.000Z</time>
      </trkpt>
      <trkpt lat="42.7709" lon="2.87343">
        <ele>30</ele>
        <time>2025-08-04T06:41:29.000Z</time>
      </trkpt>
      <trkpt lat="42.77106" lon="2.87312">
        <ele>29.60000038147</ele>
        <time>2025-08-04T06:42:47.000Z</time>
      </trkpt>
      <trkpt lat="42.77111" lon="2.87303">
        <ele>29.60000038147</ele>
        <time>2025-08-04T06:42:50.000Z</time>
      </trkpt>
      <trkpt lat="42.77124" lon="2.87282">
        <ele>29.39999961853</ele>
        <time>2025-08-04T06:42:56.000Z</time>
      </trkpt>
      <trkpt lat="42.77131" lon="2.87265">
        <ele>29.60000038147</ele>
        <time>2025-08-04T06:43:01.000Z</time>
      </trkpt>
      <trkpt lat="42.77128" lon="2.87246">
        <ele>29.39999961853</ele>
        <time>2025-08-04T06:43:07.000Z</time>
      </trkpt>
      <trkpt lat="42.77122" lon="2.87226">
        <ele>29.39999961853</ele>
        <time>2025-08-04T06:43:13.000Z</time>
      </trkpt>
      <trkpt lat="42.77114" lon="2.87202">
        <ele>29.60000038147</ele>
        <time>2025-08-04T06:43:20.000Z</time>
      </trkpt>
      <trkpt lat="42.77108" lon="2.87174">
        <ele>30</ele>
        <time>2025-08-04T06:43:27.000Z</time>
      </trkpt>
      <trkpt lat="42.77105" lon="2.87144">
        <ele>30.60000038147</ele>
        <time>2025-08-04T06:43:35.000Z</time>
      </trkpt>
      <trkpt lat="42.77105" lon="2.87135">
        <ele>31</ele>
        <time>2025-08-04T06:43:38.000Z</time>
      </trkpt>
      <trkpt lat="42.77104" lon="2.87124">
        <ele>31.39999961853</ele>
        <time>2025-08-04T06:43:42.000Z</time>
      </trkpt>
      <trkpt lat="42.77093" lon="2.87118">
        <ele>31.799999237061</ele>
        <time>2025-08-04T06:43:46.000Z</time>
      </trkpt>
      <trkpt lat="42.77069" lon="2.87112">
        <ele>31.799999237061</ele>
        <time>2025-08-04T06:43:53.000Z</time>
      </trkpt>
      <trkpt lat="42.77043" lon="2.87109">
        <ele>31.39999961853</ele>
        <time>2025-08-04T06:44:00.000Z</time>
      </trkpt>
      <trkpt lat="42.77031" lon="2.8711">
        <ele>31.39999961853</ele>
        <time>2025-08-04T06:44:04.000Z</time>
      </trkpt>
      <trkpt lat="42.77013" lon="2.87114">
        <ele>31.39999961853</ele>
        <time>2025-08-04T06:44:09.000Z</time>
      </trkpt>
      <trkpt lat="42.76986" lon="2.87115">
        <ele>31.200000762939</ele>
        <time>2025-08-04T06:44:16.000Z</time>
      </trkpt>
      <trkpt lat="42.76951" lon="2.87118">
        <ele>30.60000038147</ele>
        <time>2025-08-04T06:44:25.000Z</time>
      </trkpt>
      <trkpt lat="42.76931" lon="2.87119">
        <ele>30.60000038147</ele>
        <time>2025-08-04T06:44:31.000Z</time>
      </trkpt>
      <trkpt lat="42.76902" lon="2.87117">
        <ele>30.39999961853</ele>
        <time>2025-08-04T06:44:41.000Z</time>
      </trkpt>
      <trkpt lat="42.76901" lon="2.87116">
        <ele>30.39999961853</ele>
        <time>2025-08-04T06:44:43.000Z</time>
      </trkpt>
      <trkpt lat="42.76897" lon="2.87119">
        <ele>30</ele>
        <time>2025-08-04T06:45:38.000Z</time>
      </trkpt>
      <trkpt lat="42.76893" lon="2.87119">
        <ele>30</ele>
        <time>2025-08-04T06:45:43.000Z</time>
      </trkpt>
      <trkpt lat="42.76887" lon="2.87119">
        <ele>30</ele>
        <time>2025-08-04T06:45:47.000Z</time>
      </trkpt>
      <trkpt lat="42.76883" lon="2.87115">
        <ele>30</ele>
        <time>2025-08-04T06:45:50.000Z</time>
      </trkpt>
      <trkpt lat="42.76874" lon="2.87114">
        <ele>30</ele>
        <time>2025-08-04T06:45:54.000Z</time>
      </trkpt>
      <trkpt lat="42.7686" lon="2.87132">
        <ele>30</ele>
        <time>2025-08-04T06:46:01.000Z</time>
      </trkpt>
      <trkpt lat="42.76848" lon="2.87145">
        <ele>30.200000762939</ele>
        <time>2025-08-04T06:46:06.000Z</time>
      </trkpt>
      <trkpt lat="42.76846" lon="2.87146">
        <ele>30.39999961853</ele>
        <time>2025-08-04T06:46:07.000Z</time>
      </trkpt>
      <trkpt lat="42.76835" lon="2.87137">
        <ele>30.60000038147</ele>
        <time>2025-08-04T06:46:11.000Z</time>
      </trkpt>
      <trkpt lat="42.76814" lon="2.8711">
        <ele>30.799999237061</ele>
        <time>2025-08-04T06:46:19.000Z</time>
      </trkpt>
      <trkpt lat="42.76778" lon="2.87069">
        <ele>30.799999237061</ele>
        <time>2025-08-04T06:46:31.000Z</time>
      </trkpt>
      <trkpt lat="42.7675" lon="2.87036">
        <ele>30.799999237061</ele>
        <time>2025-08-04T06:46:41.000Z</time>
      </trkpt>
      <trkpt lat="42.76738" lon="2.87018">
        <ele>31</ele>
        <time>2025-08-04T06:46:45.000Z</time>
      </trkpt>
      <trkpt lat="42.76734" lon="2.87014">
        <ele>31</ele>
        <time>2025-08-04T06:46:46.000Z</time>
      </trkpt>
      <trkpt lat="42.76724" lon="2.87002">
        <ele>31</ele>
        <time>2025-08-04T06:46:49.000Z</time>
      </trkpt>
      <trkpt lat="42.76715" lon="2.86992">
        <ele>31.200000762939</ele>
        <time>2025-08-04T06:46:52.000Z</time>
      </trkpt>
      <trkpt lat="42.76702" lon="2.86978">
        <ele>31.200000762939</ele>
        <time>2025-08-04T06:46:56.000Z</time>
      </trkpt>
      <trkpt lat="42.76694" lon="2.86968">
        <ele>31.200000762939</ele>
        <time>2025-08-04T06:46:59.000Z</time>
      </trkpt>
      <trkpt lat="42.76684" lon="2.86955">
        <ele>31.60000038147</ele>
        <time>2025-08-04T06:47:04.000Z</time>
      </trkpt>
      <trkpt lat="42.76683" lon="2.86939">
        <ele>31.799999237061</ele>
        <time>2025-08-04T06:47:09.000Z</time>
      </trkpt>
      <trkpt lat="42.76677" lon="2.86926">
        <ele>31.799999237061</ele>
        <time>2025-08-04T06:47:14.000Z</time>
      </trkpt>
      <trkpt lat="42.76676" lon="2.86925">
        <ele>31.799999237061</ele>
        <time>2025-08-04T06:47:15.000Z</time>
      </trkpt>
      <trkpt lat="42.76676" lon="2.86924">
        <ele>31.799999237061</ele>
        <time>2025-08-04T06:47:17.000Z</time>
      </trkpt>
      <trkpt lat="42.76667" lon="2.86928">
        <ele>31.60000038147</ele>
        <time>2025-08-04T06:48:05.000Z</time>
      </trkpt>
      <trkpt lat="42.76659" lon="2.86934">
        <ele>31.60000038147</ele>
        <time>2025-08-04T06:48:08.000Z</time>
      </trkpt>
      <trkpt lat="42.76644" lon="2.86937">
        <ele>31.60000038147</ele>
        <time>2025-08-04T06:48:14.000Z</time>
      </trkpt>
      <trkpt lat="42.76615" lon="2.86927">
        <ele>31.60000038147</ele>
        <time>2025-08-04T06:48:22.000Z</time>
      </trkpt>
      <trkpt lat="42.76585" lon="2.86917">
        <ele>31.39999961853</ele>
        <time>2025-08-04T06:48:29.000Z</time>
      </trkpt>
      <trkpt lat="42.7654" lon="2.86901">
        <ele>31.39999961853</ele>
        <time>2025-08-04T06:48:39.000Z</time>
      </trkpt>
      <trkpt lat="42.765" lon="2.86894">
        <ele>31.60000038147</ele>
        <time>2025-08-04T06:48:48.000Z</time>
      </trkpt>
      <trkpt lat="42.76457" lon="2.86894">
        <ele>31.60000038147</ele>
        <time>2025-08-04T06:48:57.000Z</time>
      </trkpt>
      <trkpt lat="42.76413" lon="2.86904">
        <ele>31.39999961853</ele>
        <time>2025-08-04T06:49:06.000Z</time>
      </trkpt>
      <trkpt lat="42.76398" lon="2.8691">
        <ele>31.39999961853</ele>
        <time>2025-08-04T06:49:09.000Z</time>
      </trkpt>
      <trkpt lat="42.76385" lon="2.86917">
        <ele>31.39999961853</ele>
        <time>2025-08-04T06:49:12.000Z</time>
      </trkpt>
      <trkpt lat="42.76366" lon="2.86925">
        <ele>31.39999961853</ele>
        <time>2025-08-04T06:49:16.000Z</time>
      </trkpt>
      <trkpt lat="42.76362" lon="2.86925">
        <ele>31.39999961853</ele>
        <time>2025-08-04T06:49:17.000Z</time>
      </trkpt>
      <trkpt lat="42.76358" lon="2.86925">
        <ele>31.200000762939</ele>
        <time>2025-08-04T06:49:18.000Z</time>
      </trkpt>
      <trkpt lat="42.76346" lon="2.86929">
        <ele>31.200000762939</ele>
        <time>2025-08-04T06:49:21.000Z</time>
      </trkpt>
      <trkpt lat="42.76334" lon="2.86934">
        <ele>31.200000762939</ele>
        <time>2025-08-04T06:49:24.000Z</time>
      </trkpt>
      <trkpt lat="42.76324" lon="2.86938">
        <ele>31</ele>
        <time>2025-08-04T06:49:27.000Z</time>
      </trkpt>
      <trkpt lat="42.76302" lon="2.86948">
        <ele>31</ele>
        <time>2025-08-04T06:49:33.000Z</time>
      </trkpt>
      <trkpt lat="42.7629" lon="2.86953">
        <ele>31</ele>
        <time>2025-08-04T06:49:36.000Z</time>
      </trkpt>
      <trkpt lat="42.76281" lon="2.86955">
        <ele>31.200000762939</ele>
        <time>2025-08-04T06:49:38.000Z</time>
      </trkpt>
      <trkpt lat="42.76278" lon="2.86957">
        <ele>31.200000762939</ele>
        <time>2025-08-04T06:49:39.000Z</time>
      </trkpt>
      <trkpt lat="42.76274" lon="2.86959">
        <ele>31.200000762939</ele>
        <time>2025-08-04T06:49:40.000Z</time>
      </trkpt>
      <trkpt lat="42.76254" lon="2.86968">
        <ele>31.39999961853</ele>
        <time>2025-08-04T06:49:45.000Z</time>
      </trkpt>
      <trkpt lat="42.76234" lon="2.86972">
        <ele>31.60000038147</ele>
        <time>2025-08-04T06:49:50.000Z</time>
      </trkpt>
      <trkpt lat="42.76218" lon="2.8698">
        <ele>31.799999237061</ele>
        <time>2025-08-04T06:49:55.000Z</time>
      </trkpt>
      <trkpt lat="42.76199" lon="2.86989">
        <ele>32.200000762939</ele>
        <time>2025-08-04T06:50:01.000Z</time>
      </trkpt>
      <trkpt lat="42.76187" lon="2.86995">
        <ele>32.200000762939</ele>
        <time>2025-08-04T06:50:06.000Z</time>
      </trkpt>
      <trkpt lat="42.7616" lon="2.87011">
        <ele>32.400001525879</ele>
        <time>2025-08-04T06:50:14.000Z</time>
      </trkpt>
      <trkpt lat="42.76138" lon="2.87022">
        <ele>32.400001525879</ele>
        <time>2025-08-04T06:50:19.000Z</time>
      </trkpt>
      <trkpt lat="42.76125" lon="2.87026">
        <ele>32.400001525879</ele>
        <time>2025-08-04T06:50:22.000Z</time>
      </trkpt>
      <trkpt lat="42.76115" lon="2.87029">
        <ele>32.599998474121</ele>
        <time>2025-08-04T06:50:25.000Z</time>
      </trkpt>
      <trkpt lat="42.76106" lon="2.87035">
        <ele>32.400001525879</ele>
        <time>2025-08-04T06:50:29.000Z</time>
      </trkpt>
      <trkpt lat="42.7609" lon="2.87048">
        <ele>32.200000762939</ele>
        <time>2025-08-04T06:50:35.000Z</time>
      </trkpt>
      <trkpt lat="42.76065" lon="2.87054">
        <ele>32.200000762939</ele>
        <time>2025-08-04T06:50:42.000Z</time>
      </trkpt>
      <trkpt lat="42.76044" lon="2.87061">
        <ele>32.200000762939</ele>
        <time>2025-08-04T06:50:47.000Z</time>
      </trkpt>
      <trkpt lat="42.76016" lon="2.87074">
        <ele>32</ele>
        <time>2025-08-04T06:50:54.000Z</time>
      </trkpt>
      <trkpt lat="42.7599" lon="2.87085">
        <ele>31.799999237061</ele>
        <time>2025-08-04T06:51:01.000Z</time>
      </trkpt>
      <trkpt lat="42.75969" lon="2.87094">
        <ele>32</ele>
        <time>2025-08-04T06:51:07.000Z</time>
      </trkpt>
      <trkpt lat="42.75944" lon="2.87105">
        <ele>32.599998474121</ele>
        <time>2025-08-04T06:51:14.000Z</time>
      </trkpt>
      <trkpt lat="42.75919" lon="2.87115">
        <ele>33</ele>
        <time>2025-08-04T06:51:22.000Z</time>
      </trkpt>
      <trkpt lat="42.75912" lon="2.87112">
        <ele>33.400001525879</ele>
        <time>2025-08-04T06:51:25.000Z</time>
      </trkpt>
      <trkpt lat="42.75911" lon="2.8711">
        <ele>33.400001525879</ele>
        <time>2025-08-04T06:51:26.000Z</time>
      </trkpt>
      <trkpt lat="42.75903" lon="2.8708">
        <ele>34</ele>
        <time>2025-08-04T06:51:34.000Z</time>
      </trkpt>
      <trkpt lat="42.75894" lon="2.87051">
        <ele>34</ele>
        <time>2025-08-04T06:51:41.000Z</time>
      </trkpt>
      <trkpt lat="42.75895" lon="2.87022">
        <ele>34.200000762939</ele>
        <time>2025-08-04T06:51:47.000Z</time>
      </trkpt>
      <trkpt lat="42.75897" lon="2.86988">
        <ele>34.400001525879</ele>
        <time>2025-08-04T06:51:54.000Z</time>
      </trkpt>
      <trkpt lat="42.75892" lon="2.86956">
        <ele>34.400001525879</ele>
        <time>2025-08-04T06:52:01.000Z</time>
      </trkpt>
      <trkpt lat="42.75889" lon="2.86926">
        <ele>34.799999237061</ele>
        <time>2025-08-04T06:52:07.000Z</time>
      </trkpt>
      <trkpt lat="42.75887" lon="2.86916">
        <ele>35</ele>
        <time>2025-08-04T06:52:09.000Z</time>
      </trkpt>
      <trkpt lat="42.75881" lon="2.86873">
        <ele>35.200000762939</ele>
        <time>2025-08-04T06:52:18.000Z</time>
      </trkpt>
      <trkpt lat="42.7587" lon="2.86832">
        <ele>35.599998474121</ele>
        <time>2025-08-04T06:52:27.000Z</time>
      </trkpt>
      <trkpt lat="42.7586" lon="2.86802">
        <ele>35.799999237061</ele>
        <time>2025-08-04T06:52:34.000Z</time>
      </trkpt>
      <trkpt lat="42.75857" lon="2.86789">
        <ele>36.200000762939</ele>
        <time>2025-08-04T06:52:37.000Z</time>
      </trkpt>
      <trkpt lat="42.75853" lon="2.86774">
        <ele>36.599998474121</ele>
        <time>2025-08-04T06:52:41.000Z</time>
      </trkpt>
      <trkpt lat="42.75848" lon="2.86749">
        <ele>37.200000762939</ele>
        <time>2025-08-04T06:52:47.000Z</time>
      </trkpt>
      <trkpt lat="42.75847" lon="2.86745">
        <ele>37.200000762939</ele>
        <time>2025-08-04T06:52:48.000Z</time>
      </trkpt>
      <trkpt lat="42.75846" lon="2.86732">
        <ele>37.400001525879</ele>
        <time>2025-08-04T06:52:51.000Z</time>
      </trkpt>
      <trkpt lat="42.75845" lon="2.86725">
        <ele>37.599998474121</ele>
        <time>2025-08-04T06:52:53.000Z</time>
      </trkpt>
      <trkpt lat="42.7584" lon="2.8669">
        <ele>38</ele>
        <time>2025-08-04T06:53:01.000Z</time>
      </trkpt>
      <trkpt lat="42.75826" lon="2.86672">
        <ele>38</ele>
        <time>2025-08-04T06:53:07.000Z</time>
      </trkpt>
      <trkpt lat="42.75809" lon="2.86655">
        <ele>38</ele>
        <time>2025-08-04T06:53:13.000Z</time>
      </trkpt>
      <trkpt lat="42.75789" lon="2.86632">
        <ele>38.200000762939</ele>
        <time>2025-08-04T06:53:21.000Z</time>
      </trkpt>
      <trkpt lat="42.75784" lon="2.86626">
        <ele>38.200000762939</ele>
        <time>2025-08-04T06:53:23.000Z</time>
      </trkpt>
      <trkpt lat="42.75772" lon="2.86612">
        <ele>38.200000762939</ele>
        <time>2025-08-04T06:53:28.000Z</time>
      </trkpt>
      <trkpt lat="42.75752" lon="2.86589">
        <ele>38</ele>
        <time>2025-08-04T06:53:36.000Z</time>
      </trkpt>
      <trkpt lat="42.75752" lon="2.86586">
        <ele>38</ele>
        <time>2025-08-04T06:53:37.000Z</time>
      </trkpt>
      <trkpt lat="42.75752" lon="2.86578">
        <ele>38</ele>
        <time>2025-08-04T06:53:39.000Z</time>
      </trkpt>
      <trkpt lat="42.75757" lon="2.86559">
        <ele>38</ele>
        <time>2025-08-04T06:53:45.000Z</time>
      </trkpt>
      <trkpt lat="42.75755" lon="2.86544">
        <ele>38.200000762939</ele>
        <time>2025-08-04T06:53:49.000Z</time>
      </trkpt>
      <trkpt lat="42.75743" lon="2.86537">
        <ele>38.400001525879</ele>
        <time>2025-08-04T06:53:53.000Z</time>
      </trkpt>
      <trkpt lat="42.75735" lon="2.86547">
        <ele>38.400001525879</ele>
        <time>2025-08-04T06:53:57.000Z</time>
      </trkpt>
      <trkpt lat="42.75725" lon="2.86567">
        <ele>38.400001525879</ele>
        <time>2025-08-04T06:54:03.000Z</time>
      </trkpt>
      <trkpt lat="42.75718" lon="2.86575">
        <ele>38.200000762939</ele>
        <time>2025-08-04T06:54:09.000Z</time>
      </trkpt>
      <trkpt lat="42.75715" lon="2.86584">
        <ele>37.599998474121</ele>
        <time>2025-08-04T06:55:16.000Z</time>
      </trkpt>
      <trkpt lat="42.75713" lon="2.86589">
        <ele>37.799999237061</ele>
        <time>2025-08-04T06:55:18.000Z</time>
      </trkpt>
      <trkpt lat="42.75699" lon="2.8662">
        <ele>38.200000762939</ele>
        <time>2025-08-04T06:55:27.000Z</time>
      </trkpt>
      <trkpt lat="42.75681" lon="2.8665">
        <ele>38.599998474121</ele>
        <time>2025-08-04T06:55:35.000Z</time>
      </trkpt>
      <trkpt lat="42.75655" lon="2.86688">
        <ele>39.599998474121</ele>
        <time>2025-08-04T06:55:45.000Z</time>
      </trkpt>
      <trkpt lat="42.75653" lon="2.86691">
        <ele>39.799999237061</ele>
        <time>2025-08-04T06:55:46.000Z</time>
      </trkpt>
      <trkpt lat="42.75634" lon="2.86709">
        <ele>40.599998474121</ele>
        <time>2025-08-04T06:55:53.000Z</time>
      </trkpt>
      <trkpt lat="42.75631" lon="2.86711">
        <ele>40.799999237061</ele>
        <time>2025-08-04T06:55:54.000Z</time>
      </trkpt>
      <trkpt lat="42.75615" lon="2.8672">
        <ele>41.799999237061</ele>
        <time>2025-08-04T06:56:00.000Z</time>
      </trkpt>
      <trkpt lat="42.75611" lon="2.86722">
        <ele>42.200000762939</ele>
        <time>2025-08-04T06:56:03.000Z</time>
      </trkpt>
      <trkpt lat="42.7561" lon="2.86721">
        <ele>42.599998474121</ele>
        <time>2025-08-04T06:56:05.000Z</time>
      </trkpt>
      <trkpt lat="42.75609" lon="2.8672">
        <ele>42.799999237061</ele>
        <time>2025-08-04T06:56:07.000Z</time>
      </trkpt>
      <trkpt lat="42.75608" lon="2.8672">
        <ele>43</ele>
        <time>2025-08-04T06:56:11.000Z</time>
      </trkpt>
      <trkpt lat="42.75592" lon="2.86714">
        <ele>42.599998474121</ele>
        <time>2025-08-04T06:56:39.000Z</time>
      </trkpt>
      <trkpt lat="42.75582" lon="2.86712">
        <ele>42.599998474121</ele>
        <time>2025-08-04T06:56:44.000Z</time>
      </trkpt>
      <trkpt lat="42.75563" lon="2.86707">
        <ele>42.799999237061</ele>
        <time>2025-08-04T06:56:51.000Z</time>
      </trkpt>
      <trkpt lat="42.75541" lon="2.86695">
        <ele>43.400001525879</ele>
        <time>2025-08-04T06:56:59.000Z</time>
      </trkpt>
      <trkpt lat="42.75526" lon="2.86684">
        <ele>44.200000762939</ele>
        <time>2025-08-04T06:57:05.000Z</time>
      </trkpt>
      <trkpt lat="42.75516" lon="2.86678">
        <ele>44.799999237061</ele>
        <time>2025-08-04T06:57:09.000Z</time>
      </trkpt>
      <trkpt lat="42.75508" lon="2.86676">
        <ele>45.200000762939</ele>
        <time>2025-08-04T06:57:13.000Z</time>
      </trkpt>
      <trkpt lat="42.75507" lon="2.86677">
        <ele>45.200000762939</ele>
        <time>2025-08-04T06:57:14.000Z</time>
      </trkpt>
      <trkpt lat="42.75504" lon="2.8668">
        <ele>45.799999237061</ele>
        <time>2025-08-04T06:57:16.000Z</time>
      </trkpt>
      <trkpt lat="42.75503" lon="2.86682">
        <ele>45.799999237061</ele>
        <time>2025-08-04T06:57:18.000Z</time>
      </trkpt>
      <trkpt lat="42.75502" lon="2.86682">
        <ele>46</ele>
        <time>2025-08-04T06:57:20.000Z</time>
      </trkpt>
      <trkpt lat="42.75509" lon="2.86678">
        <ele>46.400001525879</ele>
        <time>2025-08-04T06:57:48.000Z</time>
      </trkpt>
      <trkpt lat="42.75512" lon="2.86677">
        <ele>46.400001525879</ele>
        <time>2025-08-04T06:57:49.000Z</time>
      </trkpt>
      <trkpt lat="42.75527" lon="2.86685">
        <ele>46.200000762939</ele>
        <time>2025-08-04T06:57:54.000Z</time>
      </trkpt>
      <trkpt lat="42.75537" lon="2.86693">
        <ele>45.799999237061</ele>
        <time>2025-08-04T06:57:57.000Z</time>
      </trkpt>
      <trkpt lat="42.75546" lon="2.86698">
        <ele>45.400001525879</ele>
        <time>2025-08-04T06:57:59.000Z</time>
      </trkpt>
      <trkpt lat="42.7555" lon="2.86701">
        <ele>45.200000762939</ele>
        <time>2025-08-04T06:58:00.000Z</time>
      </trkpt>
      <trkpt lat="42.75555" lon="2.86704">
        <ele>45</ele>
        <time>2025-08-04T06:58:01.000Z</time>
      </trkpt>
      <trkpt lat="42.75574" lon="2.86711">
        <ele>44.200000762939</ele>
        <time>2025-08-04T06:58:05.000Z</time>
      </trkpt>
      <trkpt lat="42.7559" lon="2.86714">
        <ele>43.599998474121</ele>
        <time>2025-08-04T06:58:10.000Z</time>
      </trkpt>
      <trkpt lat="42.75597" lon="2.86716">
        <ele>43.200000762939</ele>
        <time>2025-08-04T06:58:14.000Z</time>
      </trkpt>
      <trkpt lat="42.75597" lon="2.86716">
        <ele>43</ele>
        <time>2025-08-04T06:58:16.000Z</time>
      </trkpt>
      <trkpt lat="42.75594" lon="2.86726">
        <ele>43.799999237061</ele>
        <time>2025-08-04T06:59:12.000Z</time>
      </trkpt>
      <trkpt lat="42.75589" lon="2.86726">
        <ele>44</ele>
        <time>2025-08-04T06:59:15.000Z</time>
      </trkpt>
      <trkpt lat="42.75578" lon="2.86727">
        <ele>44.200000762939</ele>
        <time>2025-08-04T06:59:20.000Z</time>
      </trkpt>
      <trkpt lat="42.75574" lon="2.86727">
        <ele>44.400001525879</ele>
        <time>2025-08-04T06:59:22.000Z</time>
      </trkpt>
      <trkpt lat="42.75563" lon="2.86726">
        <ele>45.400001525879</ele>
        <time>2025-08-04T06:59:27.000Z</time>
      </trkpt>
      <trkpt lat="42.75561" lon="2.86725">
        <ele>45.599998474121</ele>
        <time>2025-08-04T06:59:28.000Z</time>
      </trkpt>
      <trkpt lat="42.75559" lon="2.86724">
        <ele>45.799999237061</ele>
        <time>2025-08-04T06:59:29.000Z</time>
      </trkpt>
      <trkpt lat="42.75548" lon="2.86721">
        <ele>46.599998474121</ele>
        <time>2025-08-04T06:59:34.000Z</time>
      </trkpt>
      <trkpt lat="42.75546" lon="2.8672">
        <ele>46.799999237061</ele>
        <time>2025-08-04T06:59:35.000Z</time>
      </trkpt>
      <trkpt lat="42.75537" lon="2.86716">
        <ele>47.599998474121</ele>
        <time>2025-08-04T06:59:39.000Z</time>
      </trkpt>
      <trkpt lat="42.75534" lon="2.86714">
        <ele>47.799999237061</ele>
        <time>2025-08-04T06:59:40.000Z</time>
      </trkpt>
      <trkpt lat="42.75519" lon="2.86702">
        <ele>48.799999237061</ele>
        <time>2025-08-04T06:59:47.000Z</time>
      </trkpt>
      <trkpt lat="42.7551" lon="2.86693">
        <ele>49.200000762939</ele>
        <time>2025-08-04T06:59:51.000Z</time>
      </trkpt>
      <trkpt lat="42.75494" lon="2.86678">
        <ele>50</ele>
        <time>2025-08-04T06:59:57.000Z</time>
      </trkpt>
      <trkpt lat="42.75491" lon="2.86675">
        <ele>50</ele>
        <time>2025-08-04T06:59:58.000Z</time>
      </trkpt>
      <trkpt lat="42.75476" lon="2.86648">
        <ele>50.400001525879</ele>
        <time>2025-08-04T07:00:04.000Z</time>
      </trkpt>
      <trkpt lat="42.75474" lon="2.86643">
        <ele>50.400001525879</ele>
        <time>2025-08-04T07:00:05.000Z</time>
      </trkpt>
      <trkpt lat="42.75467" lon="2.86617">
        <ele>50.400001525879</ele>
        <time>2025-08-04T07:00:09.000Z</time>
      </trkpt>
      <trkpt lat="42.75461" lon="2.86575">
        <ele>49.799999237061</ele>
        <time>2025-08-04T07:00:14.000Z</time>
      </trkpt>
      <trkpt lat="42.75461" lon="2.86566">
        <ele>49.799999237061</ele>
        <time>2025-08-04T07:00:15.000Z</time>
      </trkpt>
      <trkpt lat="42.75468" lon="2.86517">
        <ele>49</ele>
        <time>2025-08-04T07:00:20.000Z</time>
      </trkpt>
      <trkpt lat="42.7547" lon="2.86508">
        <ele>48.599998474121</ele>
        <time>2025-08-04T07:00:21.000Z</time>
      </trkpt>
      <trkpt lat="42.7548" lon="2.86475">
        <ele>47</ele>
        <time>2025-08-04T07:00:25.000Z</time>
      </trkpt>
      <trkpt lat="42.75482" lon="2.86466">
        <ele>46.799999237061</ele>
        <time>2025-08-04T07:00:26.000Z</time>
      </trkpt>
      <trkpt lat="42.75487" lon="2.86448">
        <ele>45.400001525879</ele>
        <time>2025-08-04T07:00:28.000Z</time>
      </trkpt>
      <trkpt lat="42.75498" lon="2.86412">
        <ele>44</ele>
        <time>2025-08-04T07:00:32.000Z</time>
      </trkpt>
      <trkpt lat="42.75502" lon="2.86403">
        <ele>43.799999237061</ele>
        <time>2025-08-04T07:00:33.000Z</time>
      </trkpt>
      <trkpt lat="42.75509" lon="2.86386">
        <ele>42.799999237061</ele>
        <time>2025-08-04T07:00:35.000Z</time>
      </trkpt>
      <trkpt lat="42.75525" lon="2.86356">
        <ele>42.200000762939</ele>
        <time>2025-08-04T07:00:39.000Z</time>
      </trkpt>
      <trkpt lat="42.75552" lon="2.86319">
        <ele>42</ele>
        <time>2025-08-04T07:00:45.000Z</time>
      </trkpt>
      <trkpt lat="42.75574" lon="2.86285">
        <ele>42.200000762939</ele>
        <time>2025-08-04T07:00:51.000Z</time>
      </trkpt>
      <trkpt lat="42.75599" lon="2.86239">
        <ele>42.400001525879</ele>
        <time>2025-08-04T07:00:59.000Z</time>
      </trkpt>
      <trkpt lat="42.75615" lon="2.86184">
        <ele>42.200000762939</ele>
        <time>2025-08-04T07:01:07.000Z</time>
      </trkpt>
      <trkpt lat="42.7562" lon="2.86141">
        <ele>42</ele>
        <time>2025-08-04T07:01:13.000Z</time>
      </trkpt>
      <trkpt lat="42.7562" lon="2.86133">
        <ele>42</ele>
        <time>2025-08-04T07:01:14.000Z</time>
      </trkpt>
      <trkpt lat="42.75615" lon="2.86081">
        <ele>42</ele>
        <time>2025-08-04T07:01:21.000Z</time>
      </trkpt>
      <trkpt lat="42.75604" lon="2.86022">
        <ele>41.799999237061</ele>
        <time>2025-08-04T07:01:29.000Z</time>
      </trkpt>
      <trkpt lat="42.75591" lon="2.85963">
        <ele>41.400001525879</ele>
        <time>2025-08-04T07:01:37.000Z</time>
      </trkpt>
      <trkpt lat="42.75579" lon="2.85915">
        <ele>41.200000762939</ele>
        <time>2025-08-04T07:01:44.000Z</time>
      </trkpt>
      <trkpt lat="42.75577" lon="2.85908">
        <ele>41</ele>
        <time>2025-08-04T07:01:45.000Z</time>
      </trkpt>
      <trkpt lat="42.75579" lon="2.85894">
        <ele>41</ele>
        <time>2025-08-04T07:01:47.000Z</time>
      </trkpt>
      <trkpt lat="42.75581" lon="2.85889">
        <ele>41</ele>
        <time>2025-08-04T07:01:48.000Z</time>
      </trkpt>
      <trkpt lat="42.75585" lon="2.85885">
        <ele>41.200000762939</ele>
        <time>2025-08-04T07:01:49.000Z</time>
      </trkpt>
      <trkpt lat="42.75594" lon="2.85882">
        <ele>41.200000762939</ele>
        <time>2025-08-04T07:01:51.000Z</time>
      </trkpt>
      <trkpt lat="42.75598" lon="2.8588">
        <ele>41.200000762939</ele>
        <time>2025-08-04T07:01:52.000Z</time>
      </trkpt>
      <trkpt lat="42.75606" lon="2.85874">
        <ele>41.200000762939</ele>
        <time>2025-08-04T07:01:54.000Z</time>
      </trkpt>
      <trkpt lat="42.75609" lon="2.85869">
        <ele>41.200000762939</ele>
        <time>2025-08-04T07:01:55.000Z</time>
      </trkpt>
      <trkpt lat="42.75611" lon="2.85863">
        <ele>41.400001525879</ele>
        <time>2025-08-04T07:01:56.000Z</time>
      </trkpt>
      <trkpt lat="42.75612" lon="2.85851">
        <ele>41.400001525879</ele>
        <time>2025-08-04T07:01:58.000Z</time>
      </trkpt>
      <trkpt lat="42.75612" lon="2.85844">
        <ele>41.599998474121</ele>
        <time>2025-08-04T07:01:59.000Z</time>
      </trkpt>
      <trkpt lat="42.75611" lon="2.85838">
        <ele>41.599998474121</ele>
        <time>2025-08-04T07:02:00.000Z</time>
      </trkpt>
      <trkpt lat="42.75606" lon="2.85828">
        <ele>41.599998474121</ele>
        <time>2025-08-04T07:02:02.000Z</time>
      </trkpt>
      <trkpt lat="42.75601" lon="2.85825">
        <ele>41.599998474121</ele>
        <time>2025-08-04T07:02:03.000Z</time>
      </trkpt>
      <trkpt lat="42.75586" lon="2.85817">
        <ele>41.599998474121</ele>
        <time>2025-08-04T07:02:06.000Z</time>
      </trkpt>
      <trkpt lat="42.75579" lon="2.85806">
        <ele>41.599998474121</ele>
        <time>2025-08-04T07:02:08.000Z</time>
      </trkpt>
      <trkpt lat="42.75575" lon="2.85785">
        <ele>41.200000762939</ele>
        <time>2025-08-04T07:02:11.000Z</time>
      </trkpt>
      <trkpt lat="42.75572" lon="2.85772">
        <ele>41</ele>
        <time>2025-08-04T07:02:13.000Z</time>
      </trkpt>
      <trkpt lat="42.75564" lon="2.85728">
        <ele>40.799999237061</ele>
        <time>2025-08-04T07:02:20.000Z</time>
      </trkpt>
      <trkpt lat="42.75563" lon="2.85715">
        <ele>40.799999237061</ele>
        <time>2025-08-04T07:02:22.000Z</time>
      </trkpt>
      <trkpt lat="42.75564" lon="2.85697">
        <ele>40.799999237061</ele>
        <time>2025-08-04T07:02:25.000Z</time>
      </trkpt>
      <trkpt lat="42.75559" lon="2.85668">
        <ele>41</ele>
        <time>2025-08-04T07:02:30.000Z</time>
      </trkpt>
      <trkpt lat="42.75553" lon="2.85659">
        <ele>41.200000762939</ele>
        <time>2025-08-04T07:02:32.000Z</time>
      </trkpt>
      <trkpt lat="42.75548" lon="2.8565">
        <ele>41.200000762939</ele>
        <time>2025-08-04T07:02:34.000Z</time>
      </trkpt>
      <trkpt lat="42.75542" lon="2.85633">
        <ele>41.200000762939</ele>
        <time>2025-08-04T07:02:37.000Z</time>
      </trkpt>
      <trkpt lat="42.7554" lon="2.85622">
        <ele>41.200000762939</ele>
        <time>2025-08-04T07:02:39.000Z</time>
      </trkpt>
      <trkpt lat="42.75533" lon="2.85577">
        <ele>41.400001525879</ele>
        <time>2025-08-04T07:02:47.000Z</time>
      </trkpt>
      <trkpt lat="42.75529" lon="2.85565">
        <ele>41.400001525879</ele>
        <time>2025-08-04T07:02:49.000Z</time>
      </trkpt>
      <trkpt lat="42.75527" lon="2.85556">
        <ele>41.599998474121</ele>
        <time>2025-08-04T07:02:51.000Z</time>
      </trkpt>
      <trkpt lat="42.75523" lon="2.85531">
        <ele>41.799999237061</ele>
        <time>2025-08-04T07:02:56.000Z</time>
      </trkpt>
      <trkpt lat="42.7552" lon="2.8552">
        <ele>42.200000762939</ele>
        <time>2025-08-04T07:02:58.000Z</time>
      </trkpt>
      <trkpt lat="42.75517" lon="2.85507">
        <ele>42.200000762939</ele>
        <time>2025-08-04T07:03:00.000Z</time>
      </trkpt>
      <trkpt lat="42.75509" lon="2.85467">
        <ele>42.599998474121</ele>
        <time>2025-08-04T07:03:06.000Z</time>
      </trkpt>
      <trkpt lat="42.75509" lon="2.85462">
        <ele>42.599998474121</ele>
        <time>2025-08-04T07:03:07.000Z</time>
      </trkpt>
      <trkpt lat="42.75501" lon="2.85422">
        <ele>42.799999237061</ele>
        <time>2025-08-04T07:03:13.000Z</time>
      </trkpt>
      <trkpt lat="42.75499" lon="2.85405">
        <ele>42.799999237061</ele>
        <time>2025-08-04T07:03:16.000Z</time>
      </trkpt>
      <trkpt lat="42.75499" lon="2.85386">
        <ele>42.799999237061</ele>
        <time>2025-08-04T07:03:19.000Z</time>
      </trkpt>
      <trkpt lat="42.75499" lon="2.8538">
        <ele>42.799999237061</ele>
        <time>2025-08-04T07:03:20.000Z</time>
      </trkpt>
      <trkpt lat="42.755" lon="2.85376">
        <ele>42.799999237061</ele>
        <time>2025-08-04T07:03:21.000Z</time>
      </trkpt>
      <trkpt lat="42.75504" lon="2.85359">
        <ele>42.799999237061</ele>
        <time>2025-08-04T07:03:24.000Z</time>
      </trkpt>
      <trkpt lat="42.75508" lon="2.85336">
        <ele>42.799999237061</ele>
        <time>2025-08-04T07:03:28.000Z</time>
      </trkpt>
      <trkpt lat="42.75511" lon="2.85299">
        <ele>43</ele>
        <time>2025-08-04T07:03:34.000Z</time>
      </trkpt>
      <trkpt lat="42.75511" lon="2.85287">
        <ele>43</ele>
        <time>2025-08-04T07:03:36.000Z</time>
      </trkpt>
      <trkpt lat="42.75512" lon="2.85246">
        <ele>43.200000762939</ele>
        <time>2025-08-04T07:03:43.000Z</time>
      </trkpt>
      <trkpt lat="42.75513" lon="2.85223">
        <ele>43.400001525879</ele>
        <time>2025-08-04T07:03:47.000Z</time>
      </trkpt>
      <trkpt lat="42.75517" lon="2.85215">
        <ele>43.400001525879</ele>
        <time>2025-08-04T07:03:49.000Z</time>
      </trkpt>
      <trkpt lat="42.75522" lon="2.8521">
        <ele>43.400001525879</ele>
        <time>2025-08-04T07:03:51.000Z</time>
      </trkpt>
      <trkpt lat="42.75525" lon="2.85202">
        <ele>43.400001525879</ele>
        <time>2025-08-04T07:03:53.000Z</time>
      </trkpt>
      <trkpt lat="42.75529" lon="2.85158">
        <ele>43</ele>
        <time>2025-08-04T07:04:02.000Z</time>
      </trkpt>
      <trkpt lat="42.7553" lon="2.85135">
        <ele>42.799999237061</ele>
        <time>2025-08-04T07:04:07.000Z</time>
      </trkpt>
      <trkpt lat="42.75534" lon="2.85108">
        <ele>43</ele>
        <time>2025-08-04T07:04:13.000Z</time>
      </trkpt>
      <trkpt lat="42.75539" lon="2.85079">
        <ele>43.200000762939</ele>
        <time>2025-08-04T07:04:19.000Z</time>
      </trkpt>
      <trkpt lat="42.75534" lon="2.8505">
        <ele>43.200000762939</ele>
        <time>2025-08-04T07:04:25.000Z</time>
      </trkpt>
      <trkpt lat="42.75529" lon="2.8503">
        <ele>43.200000762939</ele>
        <time>2025-08-04T07:04:29.000Z</time>
      </trkpt>
      <trkpt lat="42.75523" lon="2.85">
        <ele>43.200000762939</ele>
        <time>2025-08-04T07:04:35.000Z</time>
      </trkpt>
      <trkpt lat="42.75515" lon="2.84976">
        <ele>43</ele>
        <time>2025-08-04T07:04:41.000Z</time>
      </trkpt>
      <trkpt lat="42.75513" lon="2.84956">
        <ele>43</ele>
        <time>2025-08-04T07:04:46.000Z</time>
      </trkpt>
      <trkpt lat="42.75512" lon="2.84933">
        <ele>43</ele>
        <time>2025-08-04T07:04:51.000Z</time>
      </trkpt>
      <trkpt lat="42.75511" lon="2.8492">
        <ele>43</ele>
        <time>2025-08-04T07:04:54.000Z</time>
      </trkpt>
      <trkpt lat="42.75505" lon="2.84892">
        <ele>43.599998474121</ele>
        <time>2025-08-04T07:05:00.000Z</time>
      </trkpt>
      <trkpt lat="42.75507" lon="2.84855">
        <ele>44</ele>
        <time>2025-08-04T07:05:08.000Z</time>
      </trkpt>
      <trkpt lat="42.7551" lon="2.8483">
        <ele>44</ele>
        <time>2025-08-04T07:05:14.000Z</time>
      </trkpt>
      <trkpt lat="42.75509" lon="2.84823">
        <ele>43.799999237061</ele>
        <time>2025-08-04T07:05:16.000Z</time>
      </trkpt>
      <trkpt lat="42.75505" lon="2.84821">
        <ele>43.799999237061</ele>
        <time>2025-08-04T07:05:18.000Z</time>
      </trkpt>
      <trkpt lat="42.75498" lon="2.84818">
        <ele>43.799999237061</ele>
        <time>2025-08-04T07:05:21.000Z</time>
      </trkpt>
      <trkpt lat="42.75497" lon="2.84814">
        <ele>43.799999237061</ele>
        <time>2025-08-04T07:05:22.000Z</time>
      </trkpt>
      <trkpt lat="42.75494" lon="2.84794">
        <ele>44.200000762939</ele>
        <time>2025-08-04T07:05:27.000Z</time>
      </trkpt>
      <trkpt lat="42.75491" lon="2.84792">
        <ele>44.200000762939</ele>
        <time>2025-08-04T07:05:28.000Z</time>
      </trkpt>
      <trkpt lat="42.75478" lon="2.84796">
        <ele>44.400001525879</ele>
        <time>2025-08-04T07:05:32.000Z</time>
      </trkpt>
      <trkpt lat="42.75472" lon="2.84798">
        <ele>44.400001525879</ele>
        <time>2025-08-04T07:05:35.000Z</time>
      </trkpt>
      <trkpt lat="42.75472" lon="2.84797">
        <ele>44.400001525879</ele>
        <time>2025-08-04T07:05:36.000Z</time>
      </trkpt>
      <trkpt lat="42.75475" lon="2.84795">
        <ele>44.400001525879</ele>
        <time>2025-08-04T07:05:40.000Z</time>
      </trkpt>
      <trkpt lat="42.75477" lon="2.84792">
        <ele>44.400001525879</ele>
        <time>2025-08-04T07:05:42.000Z</time>
      </trkpt>
      <trkpt lat="42.75477" lon="2.84789">
        <ele>44.400001525879</ele>
        <time>2025-08-04T07:05:44.000Z</time>
      </trkpt>
      <trkpt lat="42.75478" lon="2.84779">
        <ele>44.400001525879</ele>
        <time>2025-08-04T07:05:49.000Z</time>
      </trkpt>
      <trkpt lat="42.75479" lon="2.84769">
        <ele>44.599998474121</ele>
        <time>2025-08-04T07:05:52.000Z</time>
      </trkpt>
      <trkpt lat="42.7548" lon="2.8476">
        <ele>44.599998474121</ele>
        <time>2025-08-04T07:05:54.000Z</time>
      </trkpt>
      <trkpt lat="42.75484" lon="2.84732">
        <ele>44.799999237061</ele>
        <time>2025-08-04T07:06:01.000Z</time>
      </trkpt>
      <trkpt lat="42.75491" lon="2.84691">
        <ele>45</ele>
        <time>2025-08-04T07:06:10.000Z</time>
      </trkpt>
      <trkpt lat="42.75495" lon="2.84656">
        <ele>45.200000762939</ele>
        <time>2025-08-04T07:06:17.000Z</time>
      </trkpt>
      <trkpt lat="42.75502" lon="2.84637">
        <ele>45.400001525879</ele>
        <time>2025-08-04T07:06:22.000Z</time>
      </trkpt>
      <trkpt lat="42.75507" lon="2.84626">
        <ele>45.599998474121</ele>
        <time>2025-08-04T07:06:25.000Z</time>
      </trkpt>
      <trkpt lat="42.75511" lon="2.84609">
        <ele>45.599998474121</ele>
        <time>2025-08-04T07:06:29.000Z</time>
      </trkpt>
      <trkpt lat="42.7551" lon="2.84573">
        <ele>46</ele>
        <time>2025-08-04T07:06:37.000Z</time>
      </trkpt>
      <trkpt lat="42.75515" lon="2.84547">
        <ele>46.200000762939</ele>
        <time>2025-08-04T07:06:43.000Z</time>
      </trkpt>
      <trkpt lat="42.75528" lon="2.84527">
        <ele>46</ele>
        <time>2025-08-04T07:06:49.000Z</time>
      </trkpt>
      <trkpt lat="42.75534" lon="2.84504">
        <ele>46.400001525879</ele>
        <time>2025-08-04T07:06:55.000Z</time>
      </trkpt>
      <trkpt lat="42.75534" lon="2.84499">
        <ele>46.599998474121</ele>
        <time>2025-08-04T07:06:56.000Z</time>
      </trkpt>
      <trkpt lat="42.7553" lon="2.84483">
        <ele>46.599998474121</ele>
        <time>2025-08-04T07:07:00.000Z</time>
      </trkpt>
      <trkpt lat="42.75527" lon="2.84463">
        <ele>46.599998474121</ele>
        <time>2025-08-04T07:07:05.000Z</time>
      </trkpt>
      <trkpt lat="42.75533" lon="2.84442">
        <ele>46.400001525879</ele>
        <time>2025-08-04T07:07:11.000Z</time>
      </trkpt>
      <trkpt lat="42.75535" lon="2.8444">
        <ele>46.400001525879</ele>
        <time>2025-08-04T07:07:12.000Z</time>
      </trkpt>
      <trkpt lat="42.75544" lon="2.8444">
        <ele>46.400001525879</ele>
        <time>2025-08-04T07:07:15.000Z</time>
      </trkpt>
      <trkpt lat="42.75555" lon="2.84441">
        <ele>46.400001525879</ele>
        <time>2025-08-04T07:07:20.000Z</time>
      </trkpt>
      <trkpt lat="42.7557" lon="2.84442">
        <ele>46.200000762939</ele>
        <time>2025-08-04T07:07:26.000Z</time>
      </trkpt>
      <trkpt lat="42.75575" lon="2.84438">
        <ele>46</ele>
        <time>2025-08-04T07:07:28.000Z</time>
      </trkpt>
      <trkpt lat="42.75577" lon="2.84429">
        <ele>46</ele>
        <time>2025-08-04T07:07:30.000Z</time>
      </trkpt>
      <trkpt lat="42.75582" lon="2.84398">
        <ele>46.599998474121</ele>
        <time>2025-08-04T07:07:37.000Z</time>
      </trkpt>
      <trkpt lat="42.75588" lon="2.84366">
        <ele>47.200000762939</ele>
        <time>2025-08-04T07:07:44.000Z</time>
      </trkpt>
      <trkpt lat="42.75585" lon="2.84343">
        <ele>47.400001525879</ele>
        <time>2025-08-04T07:07:49.000Z</time>
      </trkpt>
      <trkpt lat="42.75575" lon="2.84314">
        <ele>47.400001525879</ele>
        <time>2025-08-04T07:07:55.000Z</time>
      </trkpt>
      <trkpt lat="42.75573" lon="2.84283">
        <ele>47.599998474121</ele>
        <time>2025-08-04T07:08:01.000Z</time>
      </trkpt>
      <trkpt lat="42.75573" lon="2.84253">
        <ele>47.599998474121</ele>
        <time>2025-08-04T07:08:07.000Z</time>
      </trkpt>
      <trkpt lat="42.75574" lon="2.84234">
        <ele>47.799999237061</ele>
        <time>2025-08-04T07:08:11.000Z</time>
      </trkpt>
      <trkpt lat="42.75575" lon="2.84228">
        <ele>47.799999237061</ele>
        <time>2025-08-04T07:08:12.000Z</time>
      </trkpt>
      <trkpt lat="42.75574" lon="2.84207">
        <ele>48</ele>
        <time>2025-08-04T07:08:16.000Z</time>
      </trkpt>
      <trkpt lat="42.75576" lon="2.84169">
        <ele>48.400001525879</ele>
        <time>2025-08-04T07:08:23.000Z</time>
      </trkpt>
      <trkpt lat="42.75579" lon="2.84149">
        <ele>48.599998474121</ele>
        <time>2025-08-04T07:08:27.000Z</time>
      </trkpt>
      <trkpt lat="42.75583" lon="2.84122">
        <ele>48.799999237061</ele>
        <time>2025-08-04T07:08:33.000Z</time>
      </trkpt>
      <trkpt lat="42.75584" lon="2.84119">
        <ele>48.799999237061</ele>
        <time>2025-08-04T07:08:34.000Z</time>
      </trkpt>
      <trkpt lat="42.75587" lon="2.84103">
        <ele>49</ele>
        <time>2025-08-04T07:08:38.000Z</time>
      </trkpt>
      <trkpt lat="42.75589" lon="2.8408">
        <ele>49.200000762939</ele>
        <time>2025-08-04T07:08:44.000Z</time>
      </trkpt>
      <trkpt lat="42.75592" lon="2.84044">
        <ele>49.599998474121</ele>
        <time>2025-08-04T07:08:51.000Z</time>
      </trkpt>
      <trkpt lat="42.75597" lon="2.83998">
        <ele>49.799999237061</ele>
        <time>2025-08-04T07:09:00.000Z</time>
      </trkpt>
      <trkpt lat="42.75598" lon="2.83988">
        <ele>49.799999237061</ele>
        <time>2025-08-04T07:09:02.000Z</time>
      </trkpt>
      <trkpt lat="42.75603" lon="2.83953">
        <ele>50.200000762939</ele>
        <time>2025-08-04T07:09:09.000Z</time>
      </trkpt>
      <trkpt lat="42.75609" lon="2.83908">
        <ele>50.200000762939</ele>
        <time>2025-08-04T07:09:18.000Z</time>
      </trkpt>
      <trkpt lat="42.75614" lon="2.83858">
        <ele>50.599998474121</ele>
        <time>2025-08-04T07:09:28.000Z</time>
      </trkpt>
      <trkpt lat="42.75618" lon="2.83829">
        <ele>51</ele>
        <time>2025-08-04T07:09:34.000Z</time>
      </trkpt>
      <trkpt lat="42.75621" lon="2.8381">
        <ele>51</ele>
        <time>2025-08-04T07:09:38.000Z</time>
      </trkpt>
      <trkpt lat="42.75626" lon="2.83765">
        <ele>51.400001525879</ele>
        <time>2025-08-04T07:09:48.000Z</time>
      </trkpt>
      <trkpt lat="42.7563" lon="2.83742">
        <ele>51.599998474121</ele>
        <time>2025-08-04T07:09:54.000Z</time>
      </trkpt>
      <trkpt lat="42.75634" lon="2.83721">
        <ele>51.799999237061</ele>
        <time>2025-08-04T07:09:59.000Z</time>
      </trkpt>
      <trkpt lat="42.75639" lon="2.83686">
        <ele>51.799999237061</ele>
        <time>2025-08-04T07:10:06.000Z</time>
      </trkpt>
      <trkpt lat="42.75647" lon="2.83629">
        <ele>51.799999237061</ele>
        <time>2025-08-04T07:10:17.000Z</time>
      </trkpt>
      <trkpt lat="42.75651" lon="2.83594">
        <ele>52</ele>
        <time>2025-08-04T07:10:24.000Z</time>
      </trkpt>
      <trkpt lat="42.75652" lon="2.83584">
        <ele>52</ele>
        <time>2025-08-04T07:10:26.000Z</time>
      </trkpt>
      <trkpt lat="42.75658" lon="2.8354">
        <ele>52.200000762939</ele>
        <time>2025-08-04T07:10:35.000Z</time>
      </trkpt>
      <trkpt lat="42.75664" lon="2.83496">
        <ele>52.400001525879</ele>
        <time>2025-08-04T07:10:44.000Z</time>
      </trkpt>
      <trkpt lat="42.7567" lon="2.83447">
        <ele>52.599998474121</ele>
        <time>2025-08-04T07:10:54.000Z</time>
      </trkpt>
      <trkpt lat="42.75674" lon="2.83412">
        <ele>53</ele>
        <time>2025-08-04T07:11:01.000Z</time>
      </trkpt>
      <trkpt lat="42.75675" lon="2.83403">
        <ele>53</ele>
        <time>2025-08-04T07:11:03.000Z</time>
      </trkpt>
      <trkpt lat="42.75676" lon="2.83391">
        <ele>53.599998474121</ele>
        <time>2025-08-04T07:11:08.000Z</time>
      </trkpt>
      <trkpt lat="42.75676" lon="2.83391">
        <ele>53.599998474121</ele>
        <time>2025-08-04T07:11:09.000Z</time>
      </trkpt>
      <trkpt lat="42.75677" lon="2.83386">
        <ele>53.799999237061</ele>
        <time>2025-08-04T07:11:13.000Z</time>
      </trkpt>
      <trkpt lat="42.75678" lon="2.8338">
        <ele>53.799999237061</ele>
        <time>2025-08-04T07:11:15.000Z</time>
      </trkpt>
      <trkpt lat="42.75677" lon="2.83358">
        <ele>53.799999237061</ele>
        <time>2025-08-04T07:11:21.000Z</time>
      </trkpt>
      <trkpt lat="42.75676" lon="2.83338">
        <ele>54</ele>
        <time>2025-08-04T07:11:26.000Z</time>
      </trkpt>
      <trkpt lat="42.75676" lon="2.83334">
        <ele>54.200000762939</ele>
        <time>2025-08-04T07:11:27.000Z</time>
      </trkpt>
      <trkpt lat="42.75686" lon="2.83307">
        <ele>51.799999237061</ele>
        <time>2025-08-04T07:11:35.000Z</time>
      </trkpt>
      <trkpt lat="42.75697" lon="2.83283">
        <ele>55</ele>
        <time>2025-08-04T07:11:42.000Z</time>
      </trkpt>
      <trkpt lat="42.75714" lon="2.83255">
        <ele>55.400001525879</ele>
        <time>2025-08-04T07:11:51.000Z</time>
      </trkpt>
      <trkpt lat="42.75727" lon="2.83235">
        <ele>55.599998474121</ele>
        <time>2025-08-04T07:11:58.000Z</time>
      </trkpt>
      <trkpt lat="42.75742" lon="2.83217">
        <ele>56</ele>
        <time>2025-08-04T07:12:05.000Z</time>
      </trkpt>
      <trkpt lat="42.75759" lon="2.83197">
        <ele>56.599998474121</ele>
        <time>2025-08-04T07:12:13.000Z</time>
      </trkpt>
      <trkpt lat="42.75774" lon="2.83178">
        <ele>56.799999237061</ele>
        <time>2025-08-04T07:12:21.000Z</time>
      </trkpt>
      <trkpt lat="42.75783" lon="2.83165">
        <ele>57.200000762939</ele>
        <time>2025-08-04T07:12:26.000Z</time>
      </trkpt>
      <trkpt lat="42.75784" lon="2.83162">
        <ele>57.200000762939</ele>
        <time>2025-08-04T07:12:27.000Z</time>
      </trkpt>
      <trkpt lat="42.75796" lon="2.8314">
        <ele>57.599998474121</ele>
        <time>2025-08-04T07:12:34.000Z</time>
      </trkpt>
      <trkpt lat="42.75807" lon="2.83115">
        <ele>58.200000762939</ele>
        <time>2025-08-04T07:12:42.000Z</time>
      </trkpt>
      <trkpt lat="42.75818" lon="2.83089">
        <ele>59</ele>
        <time>2025-08-04T07:12:50.000Z</time>
      </trkpt>
      <trkpt lat="42.75828" lon="2.83065">
        <ele>59.400001525879</ele>
        <time>2025-08-04T07:12:57.000Z</time>
      </trkpt>
      <trkpt lat="42.75843" lon="2.83032">
        <ele>60</ele>
        <time>2025-08-04T07:13:07.000Z</time>
      </trkpt>
      <trkpt lat="42.7585" lon="2.83017">
        <ele>60.400001525879</ele>
        <time>2025-08-04T07:13:12.000Z</time>
      </trkpt>
      <trkpt lat="42.75854" lon="2.83008">
        <ele>60.599998474121</ele>
        <time>2025-08-04T07:13:15.000Z</time>
      </trkpt>
      <trkpt lat="42.75864" lon="2.82984">
        <ele>61.200000762939</ele>
        <time>2025-08-04T07:13:22.000Z</time>
      </trkpt>
      <trkpt lat="42.7587" lon="2.82967">
        <ele>61.400001525879</ele>
        <time>2025-08-04T07:13:27.000Z</time>
      </trkpt>
      <trkpt lat="42.75871" lon="2.82964">
        <ele>61.400001525879</ele>
        <time>2025-08-04T07:13:28.000Z</time>
      </trkpt>
      <trkpt lat="42.7588" lon="2.8294">
        <ele>62.200000762939</ele>
        <time>2025-08-04T07:13:35.000Z</time>
      </trkpt>
      <trkpt lat="42.75886" lon="2.82923">
        <ele>62.599998474121</ele>
        <time>2025-08-04T07:13:40.000Z</time>
      </trkpt>
      <trkpt lat="42.75892" lon="2.82903">
        <ele>62.799999237061</ele>
        <time>2025-08-04T07:13:45.000Z</time>
      </trkpt>
      <trkpt lat="42.75905" lon="2.82867">
        <ele>63.400001525879</ele>
        <time>2025-08-04T07:13:55.000Z</time>
      </trkpt>
      <trkpt lat="42.75912" lon="2.82845">
        <ele>63.599998474121</ele>
        <time>2025-08-04T07:14:01.000Z</time>
      </trkpt>
      <trkpt lat="42.75916" lon="2.82833">
        <ele>64</ele>
        <time>2025-08-04T07:14:05.000Z</time>
      </trkpt>
      <trkpt lat="42.75922" lon="2.82815">
        <ele>64.599998474121</ele>
        <time>2025-08-04T07:14:11.000Z</time>
      </trkpt>
      <trkpt lat="42.75923" lon="2.82811">
        <ele>64.800003051758</ele>
        <time>2025-08-04T07:14:12.000Z</time>
      </trkpt>
      <trkpt lat="42.7593" lon="2.82786">
        <ele>66</ele>
        <time>2025-08-04T07:14:20.000Z</time>
      </trkpt>
      <trkpt lat="42.75939" lon="2.82757">
        <ele>66.800003051758</ele>
        <time>2025-08-04T07:14:29.000Z</time>
      </trkpt>
      <trkpt lat="42.75944" lon="2.8274">
        <ele>67</ele>
        <time>2025-08-04T07:14:34.000Z</time>
      </trkpt>
      <trkpt lat="42.7595" lon="2.82723">
        <ele>67.199996948242</ele>
        <time>2025-08-04T07:14:39.000Z</time>
      </trkpt>
      <trkpt lat="42.7596" lon="2.82701">
        <ele>67.599998474121</ele>
        <time>2025-08-04T07:14:46.000Z</time>
      </trkpt>
      <trkpt lat="42.75972" lon="2.8268">
        <ele>68</ele>
        <time>2025-08-04T07:14:53.000Z</time>
      </trkpt>
      <trkpt lat="42.75977" lon="2.8267">
        <ele>68.199996948242</ele>
        <time>2025-08-04T07:14:56.000Z</time>
      </trkpt>
      <trkpt lat="42.75993" lon="2.82642">
        <ele>68.400001525879</ele>
        <time>2025-08-04T07:15:05.000Z</time>
      </trkpt>
      <trkpt lat="42.76014" lon="2.82609">
        <ele>68.599998474121</ele>
        <time>2025-08-04T07:15:16.000Z</time>
      </trkpt>
      <trkpt lat="42.76037" lon="2.82572">
        <ele>69</ele>
        <time>2025-08-04T07:15:27.000Z</time>
      </trkpt>
      <trkpt lat="42.76042" lon="2.82562">
        <ele>69</ele>
        <time>2025-08-04T07:15:30.000Z</time>
      </trkpt>
      <trkpt lat="42.7606" lon="2.82532">
        <ele>69.400001525879</ele>
        <time>2025-08-04T07:15:39.000Z</time>
      </trkpt>
      <trkpt lat="42.76074" lon="2.82507">
        <ele>69.599998474121</ele>
        <time>2025-08-04T07:15:47.000Z</time>
      </trkpt>
      <trkpt lat="42.76077" lon="2.825">
        <ele>69.400001525879</ele>
        <time>2025-08-04T07:15:49.000Z</time>
      </trkpt>
      <trkpt lat="42.76088" lon="2.82471">
        <ele>69.800003051758</ele>
        <time>2025-08-04T07:15:57.000Z</time>
      </trkpt>
      <trkpt lat="42.76095" lon="2.82444">
        <ele>70.199996948242</ele>
        <time>2025-08-04T07:16:04.000Z</time>
      </trkpt>
      <trkpt lat="42.76095" lon="2.82439">
        <ele>70.199996948242</ele>
        <time>2025-08-04T07:16:05.000Z</time>
      </trkpt>
      <trkpt lat="42.76098" lon="2.82398">
        <ele>71</ele>
        <time>2025-08-04T07:16:15.000Z</time>
      </trkpt>
      <trkpt lat="42.76098" lon="2.82389">
        <ele>71</ele>
        <time>2025-08-04T07:16:17.000Z</time>
      </trkpt>
      <trkpt lat="42.76099" lon="2.82365">
        <ele>71.599998474121</ele>
        <time>2025-08-04T07:16:23.000Z</time>
      </trkpt>
      <trkpt lat="42.76102" lon="2.82324">
        <ele>72</ele>
        <time>2025-08-04T07:16:33.000Z</time>
      </trkpt>
      <trkpt lat="42.76104" lon="2.8231">
        <ele>72.199996948242</ele>
        <time>2025-08-04T07:16:37.000Z</time>
      </trkpt>
      <trkpt lat="42.76107" lon="2.82296">
        <ele>72.400001525879</ele>
        <time>2025-08-04T07:16:41.000Z</time>
      </trkpt>
      <trkpt lat="42.76111" lon="2.82269">
        <ele>73</ele>
        <time>2025-08-04T07:16:49.000Z</time>
      </trkpt>
      <trkpt lat="42.76112" lon="2.82265">
        <ele>73.400001525879</ele>
        <time>2025-08-04T07:16:50.000Z</time>
      </trkpt>
      <trkpt lat="42.76116" lon="2.82243">
        <ele>73.599998474121</ele>
        <time>2025-08-04T07:16:56.000Z</time>
      </trkpt>
      <trkpt lat="42.76121" lon="2.82222">
        <ele>73.800003051758</ele>
        <time>2025-08-04T07:17:02.000Z</time>
      </trkpt>
      <trkpt lat="42.7613" lon="2.82196">
        <ele>74.199996948242</ele>
        <time>2025-08-04T07:17:09.000Z</time>
      </trkpt>
      <trkpt lat="42.76132" lon="2.8219">
        <ele>74.400001525879</ele>
        <time>2025-08-04T07:17:11.000Z</time>
      </trkpt>
      <trkpt lat="42.76145" lon="2.82155">
        <ele>75.199996948242</ele>
        <time>2025-08-04T07:17:22.000Z</time>
      </trkpt>
      <trkpt lat="42.76153" lon="2.82135">
        <ele>75.199996948242</ele>
        <time>2025-08-04T07:17:28.000Z</time>
      </trkpt>
      <trkpt lat="42.76156" lon="2.82128">
        <ele>75.400001525879</ele>
        <time>2025-08-04T07:17:30.000Z</time>
      </trkpt>
      <trkpt lat="42.76167" lon="2.82099">
        <ele>76</ele>
        <time>2025-08-04T07:17:39.000Z</time>
      </trkpt>
      <trkpt lat="42.7617" lon="2.82094">
        <ele>76</ele>
        <time>2025-08-04T07:17:41.000Z</time>
      </trkpt>
      <trkpt lat="42.76175" lon="2.82086">
        <ele>76.199996948242</ele>
        <time>2025-08-04T07:17:44.000Z</time>
      </trkpt>
      <trkpt lat="42.76176" lon="2.82084">
        <ele>76.400001525879</ele>
        <time>2025-08-04T07:17:45.000Z</time>
      </trkpt>
      <trkpt lat="42.76182" lon="2.82072">
        <ele>76.800003051758</ele>
        <time>2025-08-04T07:17:49.000Z</time>
      </trkpt>
      <trkpt lat="42.76195" lon="2.82047">
        <ele>77.199996948242</ele>
        <time>2025-08-04T07:17:57.000Z</time>
      </trkpt>
      <trkpt lat="42.76206" lon="2.82024">
        <ele>77.599998474121</ele>
        <time>2025-08-04T07:18:04.000Z</time>
      </trkpt>
      <trkpt lat="42.76211" lon="2.82013">
        <ele>77.800003051758</ele>
        <time>2025-08-04T07:18:07.000Z</time>
      </trkpt>
      <trkpt lat="42.76225" lon="2.81987">
        <ele>78.599998474121</ele>
        <time>2025-08-04T07:18:15.000Z</time>
      </trkpt>
      <trkpt lat="42.76246" lon="2.81949">
        <ele>79.400001525879</ele>
        <time>2025-08-04T07:18:27.000Z</time>
      </trkpt>
      <trkpt lat="42.76254" lon="2.81937">
        <ele>79.599998474121</ele>
        <time>2025-08-04T07:18:31.000Z</time>
      </trkpt>
      <trkpt lat="42.76265" lon="2.8192">
        <ele>80.199996948242</ele>
        <time>2025-08-04T07:18:37.000Z</time>
      </trkpt>
      <trkpt lat="42.76272" lon="2.81907">
        <ele>80.800003051758</ele>
        <time>2025-08-04T07:18:41.000Z</time>
      </trkpt>
      <trkpt lat="42.76283" lon="2.81892">
        <ele>81</ele>
        <time>2025-08-04T07:18:46.000Z</time>
      </trkpt>
      <trkpt lat="42.76298" lon="2.81871">
        <ele>81.599998474121</ele>
        <time>2025-08-04T07:18:53.000Z</time>
      </trkpt>
      <trkpt lat="42.76301" lon="2.81868">
        <ele>81.800003051758</ele>
        <time>2025-08-04T07:18:54.000Z</time>
      </trkpt>
      <trkpt lat="42.76323" lon="2.8184">
        <ele>82.199996948242</ele>
        <time>2025-08-04T07:19:04.000Z</time>
      </trkpt>
      <trkpt lat="42.76343" lon="2.81813">
        <ele>82.400001525879</ele>
        <time>2025-08-04T07:19:12.000Z</time>
      </trkpt>
      <trkpt lat="42.76363" lon="2.81784">
        <ele>82.400001525879</ele>
        <time>2025-08-04T07:19:20.000Z</time>
      </trkpt>
      <trkpt lat="42.7639" lon="2.81754">
        <ele>82</ele>
        <time>2025-08-04T07:19:29.000Z</time>
      </trkpt>
      <trkpt lat="42.76424" lon="2.81719">
        <ele>82</ele>
        <time>2025-08-04T07:19:40.000Z</time>
      </trkpt>
      <trkpt lat="42.7645" lon="2.81687">
        <ele>82.199996948242</ele>
        <time>2025-08-04T07:19:50.000Z</time>
      </trkpt>
      <trkpt lat="42.76471" lon="2.8166">
        <ele>82.599998474121</ele>
        <time>2025-08-04T07:19:58.000Z</time>
      </trkpt>
      <trkpt lat="42.7648" lon="2.81647">
        <ele>82.800003051758</ele>
        <time>2025-08-04T07:20:02.000Z</time>
      </trkpt>
      <trkpt lat="42.76496" lon="2.81624">
        <ele>83.199996948242</ele>
        <time>2025-08-04T07:20:09.000Z</time>
      </trkpt>
      <trkpt lat="42.76508" lon="2.81604">
        <ele>83.400001525879</ele>
        <time>2025-08-04T07:20:15.000Z</time>
      </trkpt>
      <trkpt lat="42.76514" lon="2.81595">
        <ele>83.599998474121</ele>
        <time>2025-08-04T07:20:18.000Z</time>
      </trkpt>
      <trkpt lat="42.76524" lon="2.81578">
        <ele>84</ele>
        <time>2025-08-04T07:20:23.000Z</time>
      </trkpt>
      <trkpt lat="42.7654" lon="2.81552">
        <ele>84.199996948242</ele>
        <time>2025-08-04T07:20:31.000Z</time>
      </trkpt>
      <trkpt lat="42.76551" lon="2.81533">
        <ele>84.800003051758</ele>
        <time>2025-08-04T07:20:37.000Z</time>
      </trkpt>
      <trkpt lat="42.76554" lon="2.81527">
        <ele>85</ele>
        <time>2025-08-04T07:20:39.000Z</time>
      </trkpt>
      <trkpt lat="42.76568" lon="2.815">
        <ele>85.599998474121</ele>
        <time>2025-08-04T07:20:47.000Z</time>
      </trkpt>
      <trkpt lat="42.76574" lon="2.81485">
        <ele>85.800003051758</ele>
        <time>2025-08-04T07:20:51.000Z</time>
      </trkpt>
      <trkpt lat="42.7658" lon="2.81474">
        <ele>86</ele>
        <time>2025-08-04T07:20:54.000Z</time>
      </trkpt>
      <trkpt lat="42.766" lon="2.81439">
        <ele>86.400001525879</ele>
        <time>2025-08-04T07:21:04.000Z</time>
      </trkpt>
      <trkpt lat="42.76616" lon="2.81411">
        <ele>86.599998474121</ele>
        <time>2025-08-04T07:21:12.000Z</time>
      </trkpt>
      <trkpt lat="42.76622" lon="2.814">
        <ele>86.599998474121</ele>
        <time>2025-08-04T07:21:15.000Z</time>
      </trkpt>
      <trkpt lat="42.76636" lon="2.81377">
        <ele>87</ele>
        <time>2025-08-04T07:21:22.000Z</time>
      </trkpt>
      <trkpt lat="42.76647" lon="2.81353">
        <ele>87.599998474121</ele>
        <time>2025-08-04T07:21:29.000Z</time>
      </trkpt>
      <trkpt lat="42.7665" lon="2.81343">
        <ele>87.599998474121</ele>
        <time>2025-08-04T07:21:32.000Z</time>
      </trkpt>
      <trkpt lat="42.76655" lon="2.81332">
        <ele>87.800003051758</ele>
        <time>2025-08-04T07:21:35.000Z</time>
      </trkpt>
      <trkpt lat="42.76666" lon="2.81303">
        <ele>88.400001525879</ele>
        <time>2025-08-04T07:21:43.000Z</time>
      </trkpt>
      <trkpt lat="42.76669" lon="2.81295">
        <ele>88.599998474121</ele>
        <time>2025-08-04T07:21:45.000Z</time>
      </trkpt>
      <trkpt lat="42.76679" lon="2.81269">
        <ele>89.599998474121</ele>
        <time>2025-08-04T07:21:52.000Z</time>
      </trkpt>
      <trkpt lat="42.76681" lon="2.81261">
        <ele>89.800003051758</ele>
        <time>2025-08-04T07:21:54.000Z</time>
      </trkpt>
      <trkpt lat="42.76686" lon="2.81249">
        <ele>90</ele>
        <time>2025-08-04T07:21:57.000Z</time>
      </trkpt>
      <trkpt lat="42.76696" lon="2.81224">
        <ele>90.199996948242</ele>
        <time>2025-08-04T07:22:03.000Z</time>
      </trkpt>
      <trkpt lat="42.76701" lon="2.81212">
        <ele>90.599998474121</ele>
        <time>2025-08-04T07:22:06.000Z</time>
      </trkpt>
      <trkpt lat="42.76713" lon="2.81186">
        <ele>91.199996948242</ele>
        <time>2025-08-04T07:22:13.000Z</time>
      </trkpt>
      <trkpt lat="42.76719" lon="2.8117">
        <ele>91.599998474121</ele>
        <time>2025-08-04T07:22:17.000Z</time>
      </trkpt>
      <trkpt lat="42.7673" lon="2.81147">
        <ele>92</ele>
        <time>2025-08-04T07:22:23.000Z</time>
      </trkpt>
      <trkpt lat="42.76738" lon="2.81127">
        <ele>92.599998474121</ele>
        <time>2025-08-04T07:22:28.000Z</time>
      </trkpt>
      <trkpt lat="42.76741" lon="2.8112">
        <ele>92.599998474121</ele>
        <time>2025-08-04T07:22:30.000Z</time>
      </trkpt>
      <trkpt lat="42.76758" lon="2.81092">
        <ele>93.199996948242</ele>
        <time>2025-08-04T07:22:38.000Z</time>
      </trkpt>
      <trkpt lat="42.7677" lon="2.81073">
        <ele>93.599998474121</ele>
        <time>2025-08-04T07:22:44.000Z</time>
      </trkpt>
      <trkpt lat="42.76773" lon="2.8107">
        <ele>93.599998474121</ele>
        <time>2025-08-04T07:22:45.000Z</time>
      </trkpt>
      <trkpt lat="42.76789" lon="2.81045">
        <ele>94.400001525879</ele>
        <time>2025-08-04T07:22:53.000Z</time>
      </trkpt>
      <trkpt lat="42.76798" lon="2.81033">
        <ele>94.800003051758</ele>
        <time>2025-08-04T07:22:57.000Z</time>
      </trkpt>
      <trkpt lat="42.76807" lon="2.81017">
        <ele>95.400001525879</ele>
        <time>2025-08-04T07:23:02.000Z</time>
      </trkpt>
      <trkpt lat="42.76815" lon="2.81001">
        <ele>95.599998474121</ele>
        <time>2025-08-04T07:23:07.000Z</time>
      </trkpt>
      <trkpt lat="42.76823" lon="2.80984">
        <ele>96.199996948242</ele>
        <time>2025-08-04T07:23:12.000Z</time>
      </trkpt>
      <trkpt lat="42.76835" lon="2.8096">
        <ele>96.800003051758</ele>
        <time>2025-08-04T07:23:19.000Z</time>
      </trkpt>
      <trkpt lat="42.76838" lon="2.80953">
        <ele>97</ele>
        <time>2025-08-04T07:23:21.000Z</time>
      </trkpt>
      <trkpt lat="42.7685" lon="2.80927">
        <ele>97.400001525879</ele>
        <time>2025-08-04T07:23:29.000Z</time>
      </trkpt>
      <trkpt lat="42.76856" lon="2.80914">
        <ele>97.800003051758</ele>
        <time>2025-08-04T07:23:33.000Z</time>
      </trkpt>
      <trkpt lat="42.76862" lon="2.80902">
        <ele>98</ele>
        <time>2025-08-04T07:23:37.000Z</time>
      </trkpt>
      <trkpt lat="42.76877" lon="2.80878">
        <ele>98.599998474121</ele>
        <time>2025-08-04T07:23:45.000Z</time>
      </trkpt>
      <trkpt lat="42.76882" lon="2.8087">
        <ele>98.800003051758</ele>
        <time>2025-08-04T07:23:48.000Z</time>
      </trkpt>
      <trkpt lat="42.76886" lon="2.80862">
        <ele>99.199996948242</ele>
        <time>2025-08-04T07:23:51.000Z</time>
      </trkpt>
      <trkpt lat="42.76892" lon="2.80847">
        <ele>100</ele>
        <time>2025-08-04T07:23:56.000Z</time>
      </trkpt>
      <trkpt lat="42.76894" lon="2.80841">
        <ele>100.19999694824</ele>
        <time>2025-08-04T07:23:58.000Z</time>
      </trkpt>
      <trkpt lat="42.769" lon="2.80826">
        <ele>101.19999694824</ele>
        <time>2025-08-04T07:24:03.000Z</time>
      </trkpt>
      <trkpt lat="42.76903" lon="2.8082">
        <ele>101.59999847412</ele>
        <time>2025-08-04T07:24:05.000Z</time>
      </trkpt>
      <trkpt lat="42.76907" lon="2.80809">
        <ele>102.19999694824</ele>
        <time>2025-08-04T07:24:09.000Z</time>
      </trkpt>
      <trkpt lat="42.76909" lon="2.80804">
        <ele>102.59999847412</ele>
        <time>2025-08-04T07:24:11.000Z</time>
      </trkpt>
      <trkpt lat="42.76913" lon="2.80792">
        <ele>103.19999694824</ele>
        <time>2025-08-04T07:24:15.000Z</time>
      </trkpt>
      <trkpt lat="42.76918" lon="2.8078">
        <ele>103.59999847412</ele>
        <time>2025-08-04T07:24:19.000Z</time>
      </trkpt>
      <trkpt lat="42.76925" lon="2.80767">
        <ele>104.19999694824</ele>
        <time>2025-08-04T07:24:24.000Z</time>
      </trkpt>
      <trkpt lat="42.76928" lon="2.80759">
        <ele>104.59999847412</ele>
        <time>2025-08-04T07:24:27.000Z</time>
      </trkpt>
      <trkpt lat="42.76937" lon="2.8074">
        <ele>105.19999694824</ele>
        <time>2025-08-04T07:24:34.000Z</time>
      </trkpt>
      <trkpt lat="42.76939" lon="2.80734">
        <ele>105.59999847412</ele>
        <time>2025-08-04T07:24:36.000Z</time>
      </trkpt>
      <trkpt lat="42.76946" lon="2.80718">
        <ele>106.40000152588</ele>
        <time>2025-08-04T07:24:42.000Z</time>
      </trkpt>
      <trkpt lat="42.76949" lon="2.8071">
        <ele>106.59999847412</ele>
        <time>2025-08-04T07:24:45.000Z</time>
      </trkpt>
      <trkpt lat="42.76956" lon="2.80694">
        <ele>107.40000152588</ele>
        <time>2025-08-04T07:24:51.000Z</time>
      </trkpt>
      <trkpt lat="42.76961" lon="2.80685">
        <ele>107.59999847412</ele>
        <time>2025-08-04T07:24:54.000Z</time>
      </trkpt>
      <trkpt lat="42.7697" lon="2.80666">
        <ele>108.40000152588</ele>
        <time>2025-08-04T07:25:01.000Z</time>
      </trkpt>
      <trkpt lat="42.76973" lon="2.80661">
        <ele>108.59999847412</ele>
        <time>2025-08-04T07:25:03.000Z</time>
      </trkpt>
      <trkpt lat="42.76983" lon="2.80642">
        <ele>109.59999847412</ele>
        <time>2025-08-04T07:25:10.000Z</time>
      </trkpt>
      <trkpt lat="42.76994" lon="2.80616">
        <ele>110.59999847412</ele>
        <time>2025-08-04T07:25:19.000Z</time>
      </trkpt>
      <trkpt lat="42.76997" lon="2.8061">
        <ele>110.80000305176</ele>
        <time>2025-08-04T07:25:21.000Z</time>
      </trkpt>
      <trkpt lat="42.77015" lon="2.80579">
        <ele>111.40000152588</ele>
        <time>2025-08-04T07:25:32.000Z</time>
      </trkpt>
      <trkpt lat="42.77025" lon="2.80561">
        <ele>111.59999847412</ele>
        <time>2025-08-04T07:25:38.000Z</time>
      </trkpt>
      <trkpt lat="42.77031" lon="2.8055">
        <ele>111.80000305176</ele>
        <time>2025-08-04T07:25:42.000Z</time>
      </trkpt>
      <trkpt lat="42.77046" lon="2.80525">
        <ele>112.19999694824</ele>
        <time>2025-08-04T07:25:51.000Z</time>
      </trkpt>
      <trkpt lat="42.77055" lon="2.80509">
        <ele>112.80000305176</ele>
        <time>2025-08-04T07:25:57.000Z</time>
      </trkpt>
      <trkpt lat="42.77056" lon="2.80507">
        <ele>112.80000305176</ele>
        <time>2025-08-04T07:25:58.000Z</time>
      </trkpt>
      <trkpt lat="42.77067" lon="2.80484">
        <ele>113.80000305176</ele>
        <time>2025-08-04T07:26:07.000Z</time>
      </trkpt>
      <trkpt lat="42.77075" lon="2.8047">
        <ele>114.80000305176</ele>
        <time>2025-08-04T07:26:13.000Z</time>
      </trkpt>
      <trkpt lat="42.77077" lon="2.80462">
        <ele>115.19999694824</ele>
        <time>2025-08-04T07:26:16.000Z</time>
      </trkpt>
      <trkpt lat="42.77081" lon="2.80453">
        <ele>115.80000305176</ele>
        <time>2025-08-04T07:26:19.000Z</time>
      </trkpt>
      <trkpt lat="42.77086" lon="2.8044">
        <ele>116.80000305176</ele>
        <time>2025-08-04T07:26:24.000Z</time>
      </trkpt>
      <trkpt lat="42.77087" lon="2.80438">
        <ele>116.80000305176</ele>
        <time>2025-08-04T07:26:25.000Z</time>
      </trkpt>
      <trkpt lat="42.77091" lon="2.80424">
        <ele>117.19999694824</ele>
        <time>2025-08-04T07:26:30.000Z</time>
      </trkpt>
      <trkpt lat="42.77096" lon="2.80406">
        <ele>117.19999694824</ele>
        <time>2025-08-04T07:26:38.000Z</time>
      </trkpt>
      <trkpt lat="42.77099" lon="2.80398">
        <ele>117.19999694824</ele>
        <time>2025-08-04T07:26:42.000Z</time>
      </trkpt>
      <trkpt lat="42.771" lon="2.80391">
        <ele>117.19999694824</ele>
        <time>2025-08-04T07:26:44.000Z</time>
      </trkpt>
      <trkpt lat="42.77105" lon="2.80355">
        <ele>116.40000152588</ele>
        <time>2025-08-04T07:26:52.000Z</time>
      </trkpt>
      <trkpt lat="42.77111" lon="2.80324">
        <ele>115.59999847412</ele>
        <time>2025-08-04T07:26:57.000Z</time>
      </trkpt>
      <trkpt lat="42.77112" lon="2.80318">
        <ele>115.19999694824</ele>
        <time>2025-08-04T07:26:58.000Z</time>
      </trkpt>
      <trkpt lat="42.77115" lon="2.80299">
        <ele>114.59999847412</ele>
        <time>2025-08-04T07:27:01.000Z</time>
      </trkpt>
      <trkpt lat="42.77118" lon="2.80271">
        <ele>113.40000152588</ele>
        <time>2025-08-04T07:27:05.000Z</time>
      </trkpt>
      <trkpt lat="42.77119" lon="2.80264">
        <ele>113</ele>
        <time>2025-08-04T07:27:06.000Z</time>
      </trkpt>
      <trkpt lat="42.77123" lon="2.80237">
        <ele>112.40000152588</ele>
        <time>2025-08-04T07:27:10.000Z</time>
      </trkpt>
      <trkpt lat="42.77125" lon="2.80219">
        <ele>111.80000305176</ele>
        <time>2025-08-04T07:27:13.000Z</time>
      </trkpt>
      <trkpt lat="42.77128" lon="2.80188">
        <ele>111</ele>
        <time>2025-08-04T07:27:17.000Z</time>
      </trkpt>
      <trkpt lat="42.7713" lon="2.80164">
        <ele>110.40000152588</ele>
        <time>2025-08-04T07:27:20.000Z</time>
      </trkpt>
      <trkpt lat="42.77132" lon="2.80146">
        <ele>109.80000305176</ele>
        <time>2025-08-04T07:27:22.000Z</time>
      </trkpt>
      <trkpt lat="42.77135" lon="2.80121">
        <ele>108.59999847412</ele>
        <time>2025-08-04T07:27:25.000Z</time>
      </trkpt>
      <trkpt lat="42.77137" lon="2.80094">
        <ele>107.19999694824</ele>
        <time>2025-08-04T07:27:28.000Z</time>
      </trkpt>
      <trkpt lat="42.77142" lon="2.8006">
        <ele>105.80000305176</ele>
        <time>2025-08-04T07:27:32.000Z</time>
      </trkpt>
      <trkpt lat="42.77146" lon="2.80035">
        <ele>104.19999694824</ele>
        <time>2025-08-04T07:27:35.000Z</time>
      </trkpt>
      <trkpt lat="42.77148" lon="2.80015">
        <ele>103.40000152588</ele>
        <time>2025-08-04T07:27:37.000Z</time>
      </trkpt>
      <trkpt lat="42.7715" lon="2.79997">
        <ele>102.80000305176</ele>
        <time>2025-08-04T07:27:39.000Z</time>
      </trkpt>
      <trkpt lat="42.77152" lon="2.79969">
        <ele>101.40000152588</ele>
        <time>2025-08-04T07:27:42.000Z</time>
      </trkpt>
      <trkpt lat="42.77155" lon="2.7995">
        <ele>100.40000152588</ele>
        <time>2025-08-04T07:27:44.000Z</time>
      </trkpt>
      <trkpt lat="42.77158" lon="2.79933">
        <ele>98.800003051758</ele>
        <time>2025-08-04T07:27:46.000Z</time>
      </trkpt>
      <trkpt lat="42.77162" lon="2.79913">
        <ele>97.599998474121</ele>
        <time>2025-08-04T07:27:48.000Z</time>
      </trkpt>
      <trkpt lat="42.77165" lon="2.79903">
        <ele>96.400001525879</ele>
        <time>2025-08-04T07:27:49.000Z</time>
      </trkpt>
      <trkpt lat="42.7717" lon="2.79885">
        <ele>95.199996948242</ele>
        <time>2025-08-04T07:27:51.000Z</time>
      </trkpt>
      <trkpt lat="42.77182" lon="2.79858">
        <ele>94</ele>
        <time>2025-08-04T07:27:54.000Z</time>
      </trkpt>
      <trkpt lat="42.77192" lon="2.79833">
        <ele>92.800003051758</ele>
        <time>2025-08-04T07:27:57.000Z</time>
      </trkpt>
      <trkpt lat="42.77195" lon="2.79825">
        <ele>92.199996948242</ele>
        <time>2025-08-04T07:27:58.000Z</time>
      </trkpt>
      <trkpt lat="42.77203" lon="2.79809">
        <ele>91.599998474121</ele>
        <time>2025-08-04T07:28:00.000Z</time>
      </trkpt>
      <trkpt lat="42.77214" lon="2.79784">
        <ele>90.199996948242</ele>
        <time>2025-08-04T07:28:03.000Z</time>
      </trkpt>
      <trkpt lat="42.77229" lon="2.7975">
        <ele>89</ele>
        <time>2025-08-04T07:28:07.000Z</time>
      </trkpt>
      <trkpt lat="42.77236" lon="2.79735">
        <ele>88.599998474121</ele>
        <time>2025-08-04T07:28:09.000Z</time>
      </trkpt>
      <trkpt lat="42.77243" lon="2.7972">
        <ele>88</ele>
        <time>2025-08-04T07:28:11.000Z</time>
      </trkpt>
      <trkpt lat="42.77245" lon="2.79713">
        <ele>87.800003051758</ele>
        <time>2025-08-04T07:28:12.000Z</time>
      </trkpt>
      <trkpt lat="42.77247" lon="2.79707">
        <ele>87.599998474121</ele>
        <time>2025-08-04T07:28:13.000Z</time>
      </trkpt>
      <trkpt lat="42.7725" lon="2.79701">
        <ele>87.199996948242</ele>
        <time>2025-08-04T07:28:14.000Z</time>
      </trkpt>
      <trkpt lat="42.77253" lon="2.79695">
        <ele>87</ele>
        <time>2025-08-04T07:28:15.000Z</time>
      </trkpt>
      <trkpt lat="42.77259" lon="2.79686">
        <ele>85.800003051758</ele>
        <time>2025-08-04T07:28:17.000Z</time>
      </trkpt>
      <trkpt lat="42.77262" lon="2.7968">
        <ele>85.800003051758</ele>
        <time>2025-08-04T07:28:18.000Z</time>
      </trkpt>
      <trkpt lat="42.77272" lon="2.79662">
        <ele>84.800003051758</ele>
        <time>2025-08-04T07:28:21.000Z</time>
      </trkpt>
      <trkpt lat="42.77285" lon="2.79641">
        <ele>83.800003051758</ele>
        <time>2025-08-04T07:28:25.000Z</time>
      </trkpt>
      <trkpt lat="42.77288" lon="2.79638">
        <ele>83.599998474121</ele>
        <time>2025-08-04T07:28:26.000Z</time>
      </trkpt>
      <trkpt lat="42.77297" lon="2.7963">
        <ele>83</ele>
        <time>2025-08-04T07:28:28.000Z</time>
      </trkpt>
      <trkpt lat="42.77306" lon="2.79624">
        <ele>82.800003051758</ele>
        <time>2025-08-04T07:28:30.000Z</time>
      </trkpt>
      <trkpt lat="42.77316" lon="2.79617">
        <ele>82.400001525879</ele>
        <time>2025-08-04T07:28:32.000Z</time>
      </trkpt>
      <trkpt lat="42.7734" lon="2.79596">
        <ele>81.400001525879</ele>
        <time>2025-08-04T07:28:38.000Z</time>
      </trkpt>
      <trkpt lat="42.77345" lon="2.79592">
        <ele>81.199996948242</ele>
        <time>2025-08-04T07:28:39.000Z</time>
      </trkpt>
      <trkpt lat="42.77365" lon="2.7957">
        <ele>80.400001525879</ele>
        <time>2025-08-04T07:28:44.000Z</time>
      </trkpt>
      <trkpt lat="42.7737" lon="2.79566">
        <ele>80.199996948242</ele>
        <time>2025-08-04T07:28:45.000Z</time>
      </trkpt>
      <trkpt lat="42.77374" lon="2.79562">
        <ele>80</ele>
        <time>2025-08-04T07:28:46.000Z</time>
      </trkpt>
      <trkpt lat="42.774" lon="2.79536">
        <ele>79.199996948242</ele>
        <time>2025-08-04T07:28:52.000Z</time>
      </trkpt>
      <trkpt lat="42.7742" lon="2.79515">
        <ele>78.400001525879</ele>
        <time>2025-08-04T07:28:57.000Z</time>
      </trkpt>
      <trkpt lat="42.77433" lon="2.79502">
        <ele>78</ele>
        <time>2025-08-04T07:29:00.000Z</time>
      </trkpt>
      <trkpt lat="42.77445" lon="2.79491">
        <ele>77.400001525879</ele>
        <time>2025-08-04T07:29:04.000Z</time>
      </trkpt>
      <trkpt lat="42.77451" lon="2.79486">
        <ele>76.800003051758</ele>
        <time>2025-08-04T07:29:07.000Z</time>
      </trkpt>
      <trkpt lat="42.77452" lon="2.79485">
        <ele>76.599998474121</ele>
        <time>2025-08-04T07:29:08.000Z</time>
      </trkpt>
      <trkpt lat="42.77461" lon="2.79476">
        <ele>75.800003051758</ele>
        <time>2025-08-04T07:29:14.000Z</time>
      </trkpt>
      <trkpt lat="42.77463" lon="2.79474">
        <ele>75.599998474121</ele>
        <time>2025-08-04T07:29:15.000Z</time>
      </trkpt>
      <trkpt lat="42.7748" lon="2.79453">
        <ele>75.199996948242</ele>
        <time>2025-08-04T07:29:21.000Z</time>
      </trkpt>
      <trkpt lat="42.77494" lon="2.79434">
        <ele>75</ele>
        <time>2025-08-04T07:29:26.000Z</time>
      </trkpt>
      <trkpt lat="42.77499" lon="2.79424">
        <ele>74.800003051758</ele>
        <time>2025-08-04T07:29:28.000Z</time>
      </trkpt>
      <trkpt lat="42.77508" lon="2.79411">
        <ele>74.599998474121</ele>
        <time>2025-08-04T07:29:31.000Z</time>
      </trkpt>
      <trkpt lat="42.77512" lon="2.79406">
        <ele>74.599998474121</ele>
        <time>2025-08-04T07:29:32.000Z</time>
      </trkpt>
      <trkpt lat="42.77538" lon="2.79368">
        <ele>73.599998474121</ele>
        <time>2025-08-04T07:29:40.000Z</time>
      </trkpt>
      <trkpt lat="42.77546" lon="2.79357">
        <ele>73.400001525879</ele>
        <time>2025-08-04T07:29:42.000Z</time>
      </trkpt>
      <trkpt lat="42.77563" lon="2.79333">
        <ele>72.599998474121</ele>
        <time>2025-08-04T07:29:46.000Z</time>
      </trkpt>
      <trkpt lat="42.77575" lon="2.79316">
        <ele>72</ele>
        <time>2025-08-04T07:29:49.000Z</time>
      </trkpt>
      <trkpt lat="42.77579" lon="2.79309">
        <ele>71.599998474121</ele>
        <time>2025-08-04T07:29:50.000Z</time>
      </trkpt>
      <trkpt lat="42.77591" lon="2.79292">
        <ele>70.400001525879</ele>
        <time>2025-08-04T07:29:53.000Z</time>
      </trkpt>
      <trkpt lat="42.77598" lon="2.7928">
        <ele>69.599998474121</ele>
        <time>2025-08-04T07:29:55.000Z</time>
      </trkpt>
      <trkpt lat="42.77602" lon="2.79274">
        <ele>69.199996948242</ele>
        <time>2025-08-04T07:29:56.000Z</time>
      </trkpt>
      <trkpt lat="42.77616" lon="2.79257">
        <ele>67.800003051758</ele>
        <time>2025-08-04T07:29:59.000Z</time>
      </trkpt>
      <trkpt lat="42.77621" lon="2.79251">
        <ele>67.599998474121</ele>
        <time>2025-08-04T07:30:00.000Z</time>
      </trkpt>
      <trkpt lat="42.77632" lon="2.79237">
        <ele>66.599998474121</ele>
        <time>2025-08-04T07:30:02.000Z</time>
      </trkpt>
      <trkpt lat="42.77644" lon="2.79221">
        <ele>65.599998474121</ele>
        <time>2025-08-04T07:30:04.000Z</time>
      </trkpt>
      <trkpt lat="42.77648" lon="2.79213">
        <ele>65.199996948242</ele>
        <time>2025-08-04T07:30:05.000Z</time>
      </trkpt>
      <trkpt lat="42.77653" lon="2.79206">
        <ele>64.400001525879</ele>
        <time>2025-08-04T07:30:06.000Z</time>
      </trkpt>
      <trkpt lat="42.7767" lon="2.79179">
        <ele>63</ele>
        <time>2025-08-04T07:30:10.000Z</time>
      </trkpt>
      <trkpt lat="42.77683" lon="2.79157">
        <ele>62.200000762939</ele>
        <time>2025-08-04T07:30:14.000Z</time>
      </trkpt>
      <trkpt lat="42.77684" lon="2.79156">
        <ele>61.799999237061</ele>
        <time>2025-08-04T07:30:15.000Z</time>
      </trkpt>
      <trkpt lat="42.77684" lon="2.79156">
        <ele>61.200000762939</ele>
        <time>2025-08-04T07:30:17.000Z</time>
      </trkpt>
      <trkpt lat="42.77687" lon="2.79149">
        <ele>60</ele>
        <time>2025-08-04T07:30:34.000Z</time>
      </trkpt>
      <trkpt lat="42.77689" lon="2.79144">
        <ele>60</ele>
        <time>2025-08-04T07:30:36.000Z</time>
      </trkpt>
      <trkpt lat="42.77699" lon="2.79119">
        <ele>60</ele>
        <time>2025-08-04T07:30:43.000Z</time>
      </trkpt>
      <trkpt lat="42.7771" lon="2.791">
        <ele>59.599998474121</ele>
        <time>2025-08-04T07:30:48.000Z</time>
      </trkpt>
      <trkpt lat="42.77717" lon="2.79093">
        <ele>58.799999237061</ele>
        <time>2025-08-04T07:30:52.000Z</time>
      </trkpt>
      <trkpt lat="42.7772" lon="2.79088">
        <ele>58.599998474121</ele>
        <time>2025-08-04T07:30:54.000Z</time>
      </trkpt>
      <trkpt lat="42.7772" lon="2.7908">
        <ele>58.599998474121</ele>
        <time>2025-08-04T07:30:56.000Z</time>
      </trkpt>
      <trkpt lat="42.77721" lon="2.79059">
        <ele>58.400001525879</ele>
        <time>2025-08-04T07:31:01.000Z</time>
      </trkpt>
      <trkpt lat="42.77731" lon="2.79037">
        <ele>58.599998474121</ele>
        <time>2025-08-04T07:31:07.000Z</time>
      </trkpt>
      <trkpt lat="42.77749" lon="2.79019">
        <ele>58.400001525879</ele>
        <time>2025-08-04T07:31:12.000Z</time>
      </trkpt>
      <trkpt lat="42.77752" lon="2.79014">
        <ele>57.799999237061</ele>
        <time>2025-08-04T07:31:13.000Z</time>
      </trkpt>
      <trkpt lat="42.77753" lon="2.79008">
        <ele>57.599998474121</ele>
        <time>2025-08-04T07:31:14.000Z</time>
      </trkpt>
      <trkpt lat="42.77754" lon="2.79002">
        <ele>56.799999237061</ele>
        <time>2025-08-04T07:31:15.000Z</time>
      </trkpt>
      <trkpt lat="42.77756" lon="2.78994">
        <ele>56</ele>
        <time>2025-08-04T07:31:16.000Z</time>
      </trkpt>
      <trkpt lat="42.77758" lon="2.78981">
        <ele>55</ele>
        <time>2025-08-04T07:31:18.000Z</time>
      </trkpt>
      <trkpt lat="42.77759" lon="2.78975">
        <ele>54.799999237061</ele>
        <time>2025-08-04T07:31:19.000Z</time>
      </trkpt>
      <trkpt lat="42.77761" lon="2.78962">
        <ele>54.400001525879</ele>
        <time>2025-08-04T07:31:21.000Z</time>
      </trkpt>
      <trkpt lat="42.77763" lon="2.78949">
        <ele>53.599998474121</ele>
        <time>2025-08-04T07:31:23.000Z</time>
      </trkpt>
      <trkpt lat="42.77765" lon="2.78938">
        <ele>52.799999237061</ele>
        <time>2025-08-04T07:31:26.000Z</time>
      </trkpt>
      <trkpt lat="42.77766" lon="2.78936">
        <ele>52.599998474121</ele>
        <time>2025-08-04T07:31:27.000Z</time>
      </trkpt>
      <trkpt lat="42.77766" lon="2.78934">
        <ele>52.400001525879</ele>
        <time>2025-08-04T07:31:28.000Z</time>
      </trkpt>
      <trkpt lat="42.77769" lon="2.78934">
        <ele>51.799999237061</ele>
        <time>2025-08-04T07:31:30.000Z</time>
      </trkpt>
      <trkpt lat="42.77776" lon="2.78936">
        <ele>51.400001525879</ele>
        <time>2025-08-04T07:31:32.000Z</time>
      </trkpt>
      <trkpt lat="42.77786" lon="2.78941">
        <ele>50.799999237061</ele>
        <time>2025-08-04T07:31:35.000Z</time>
      </trkpt>
      <trkpt lat="42.77812" lon="2.78952">
        <ele>50.599998474121</ele>
        <time>2025-08-04T07:31:42.000Z</time>
      </trkpt>
      <trkpt lat="42.7784" lon="2.78963">
        <ele>50.799999237061</ele>
        <time>2025-08-04T07:31:49.000Z</time>
      </trkpt>
      <trkpt lat="42.77844" lon="2.78964">
        <ele>50.799999237061</ele>
        <time>2025-08-04T07:31:50.000Z</time>
      </trkpt>
      <trkpt lat="42.77855" lon="2.78968">
        <ele>50.799999237061</ele>
        <time>2025-08-04T07:31:53.000Z</time>
      </trkpt>
      <trkpt lat="42.77861" lon="2.78966">
        <ele>50.599998474121</ele>
        <time>2025-08-04T07:31:55.000Z</time>
      </trkpt>
      <trkpt lat="42.77862" lon="2.78964">
        <ele>50.599998474121</ele>
        <time>2025-08-04T07:31:56.000Z</time>
      </trkpt>
      <trkpt lat="42.77863" lon="2.78944">
        <ele>51</ele>
        <time>2025-08-04T07:32:01.000Z</time>
      </trkpt>
      <trkpt lat="42.77866" lon="2.78915">
        <ele>51.599998474121</ele>
        <time>2025-08-04T07:32:08.000Z</time>
      </trkpt>
      <trkpt lat="42.7787" lon="2.7888">
        <ele>52.599998474121</ele>
        <time>2025-08-04T07:32:15.000Z</time>
      </trkpt>
      <trkpt lat="42.77871" lon="2.78871">
        <ele>52.799999237061</ele>
        <time>2025-08-04T07:32:17.000Z</time>
      </trkpt>
      <trkpt lat="42.77876" lon="2.7883">
        <ele>52.799999237061</ele>
        <time>2025-08-04T07:32:25.000Z</time>
      </trkpt>
      <trkpt lat="42.77877" lon="2.78812">
        <ele>52.799999237061</ele>
        <time>2025-08-04T07:32:29.000Z</time>
      </trkpt>
      <trkpt lat="42.77878" lon="2.78803">
        <ele>52.799999237061</ele>
        <time>2025-08-04T07:32:31.000Z</time>
      </trkpt>
      <trkpt lat="42.77883" lon="2.78768">
        <ele>53</ele>
        <time>2025-08-04T07:32:39.000Z</time>
      </trkpt>
      <trkpt lat="42.77885" lon="2.78748">
        <ele>53.400001525879</ele>
        <time>2025-08-04T07:32:46.000Z</time>
      </trkpt>
      <trkpt lat="42.77885" lon="2.78742">
        <ele>53.599998474121</ele>
        <time>2025-08-04T07:32:48.000Z</time>
      </trkpt>
      <trkpt lat="42.77888" lon="2.78735">
        <ele>54.200000762939</ele>
        <time>2025-08-04T07:32:51.000Z</time>
      </trkpt>
      <trkpt lat="42.77883" lon="2.78727">
        <ele>54.799999237061</ele>
        <time>2025-08-04T07:32:55.000Z</time>
      </trkpt>
      <trkpt lat="42.7788" lon="2.78723">
        <ele>55</ele>
        <time>2025-08-04T07:32:57.000Z</time>
      </trkpt>
      <trkpt lat="42.77877" lon="2.78715">
        <ele>55.200000762939</ele>
        <time>2025-08-04T07:33:00.000Z</time>
      </trkpt>
      <trkpt lat="42.77872" lon="2.7871">
        <ele>55.599998474121</ele>
        <time>2025-08-04T07:33:02.000Z</time>
      </trkpt>
      <trkpt lat="42.77855" lon="2.7869">
        <ele>55.599998474121</ele>
        <time>2025-08-04T07:33:09.000Z</time>
      </trkpt>
      <trkpt lat="42.77844" lon="2.78671">
        <ele>55.799999237061</ele>
        <time>2025-08-04T07:33:16.000Z</time>
      </trkpt>
      <trkpt lat="42.77843" lon="2.78669">
        <ele>55.799999237061</ele>
        <time>2025-08-04T07:33:17.000Z</time>
      </trkpt>
      <trkpt lat="42.77836" lon="2.78658">
        <ele>56.200000762939</ele>
        <time>2025-08-04T07:33:22.000Z</time>
      </trkpt>
      <trkpt lat="42.77823" lon="2.78646">
        <ele>56.799999237061</ele>
        <time>2025-08-04T07:33:28.000Z</time>
      </trkpt>
      <trkpt lat="42.77819" lon="2.78642">
        <ele>57</ele>
        <time>2025-08-04T07:33:30.000Z</time>
      </trkpt>
      <trkpt lat="42.77801" lon="2.78629">
        <ele>57.799999237061</ele>
        <time>2025-08-04T07:33:38.000Z</time>
      </trkpt>
      <trkpt lat="42.77795" lon="2.78626">
        <ele>58</ele>
        <time>2025-08-04T07:33:40.000Z</time>
      </trkpt>
      <trkpt lat="42.77778" lon="2.78617">
        <ele>59</ele>
        <time>2025-08-04T07:33:47.000Z</time>
      </trkpt>
      <trkpt lat="42.77774" lon="2.78615">
        <ele>59.200000762939</ele>
        <time>2025-08-04T07:33:49.000Z</time>
      </trkpt>
      <trkpt lat="42.77763" lon="2.78609">
        <ele>59.400001525879</ele>
        <time>2025-08-04T07:33:54.000Z</time>
      </trkpt>
      <trkpt lat="42.77751" lon="2.78602">
        <ele>60</ele>
        <time>2025-08-04T07:33:59.000Z</time>
      </trkpt>
      <trkpt lat="42.77746" lon="2.786">
        <ele>60.200000762939</ele>
        <time>2025-08-04T07:34:01.000Z</time>
      </trkpt>
      <trkpt lat="42.77735" lon="2.7859">
        <ele>61</ele>
        <time>2025-08-04T07:34:06.000Z</time>
      </trkpt>
      <trkpt lat="42.77732" lon="2.78584">
        <ele>61.200000762939</ele>
        <time>2025-08-04T07:34:08.000Z</time>
      </trkpt>
      <trkpt lat="42.7773" lon="2.78564">
        <ele>61.599998474121</ele>
        <time>2025-08-04T07:34:14.000Z</time>
      </trkpt>
      <trkpt lat="42.77737" lon="2.7855">
        <ele>62.200000762939</ele>
        <time>2025-08-04T07:34:19.000Z</time>
      </trkpt>
      <trkpt lat="42.77738" lon="2.78547">
        <ele>62.200000762939</ele>
        <time>2025-08-04T07:34:20.000Z</time>
      </trkpt>
      <trkpt lat="42.7775" lon="2.78541">
        <ele>63.200000762939</ele>
        <time>2025-08-04T07:34:25.000Z</time>
      </trkpt>
      <trkpt lat="42.77752" lon="2.78541">
        <ele>63.400001525879</ele>
        <time>2025-08-04T07:34:26.000Z</time>
      </trkpt>
      <trkpt lat="42.77765" lon="2.78546">
        <ele>64.199996948242</ele>
        <time>2025-08-04T07:34:31.000Z</time>
      </trkpt>
      <trkpt lat="42.77768" lon="2.78547">
        <ele>64.400001525879</ele>
        <time>2025-08-04T07:34:32.000Z</time>
      </trkpt>
      <trkpt lat="42.77783" lon="2.78551">
        <ele>64.800003051758</ele>
        <time>2025-08-04T07:34:38.000Z</time>
      </trkpt>
      <trkpt lat="42.77792" lon="2.7855">
        <ele>65.199996948242</ele>
        <time>2025-08-04T07:34:42.000Z</time>
      </trkpt>
      <trkpt lat="42.778" lon="2.78548">
        <ele>65.800003051758</ele>
        <time>2025-08-04T07:34:45.000Z</time>
      </trkpt>
      <trkpt lat="42.77807" lon="2.78546">
        <ele>66.400001525879</ele>
        <time>2025-08-04T07:34:48.000Z</time>
      </trkpt>
      <trkpt lat="42.77823" lon="2.78542">
        <ele>66.800003051758</ele>
        <time>2025-08-04T07:34:54.000Z</time>
      </trkpt>
      <trkpt lat="42.77833" lon="2.78541">
        <ele>67.400001525879</ele>
        <time>2025-08-04T07:34:58.000Z</time>
      </trkpt>
      <trkpt lat="42.77843" lon="2.78542">
        <ele>67.800003051758</ele>
        <time>2025-08-04T07:35:02.000Z</time>
      </trkpt>
      <trkpt lat="42.77859" lon="2.78545">
        <ele>68.599998474121</ele>
        <time>2025-08-04T07:35:08.000Z</time>
      </trkpt>
      <trkpt lat="42.77861" lon="2.78546">
        <ele>68.599998474121</ele>
        <time>2025-08-04T07:35:09.000Z</time>
      </trkpt>
      <trkpt lat="42.77879" lon="2.78554">
        <ele>69.400001525879</ele>
        <time>2025-08-04T07:35:16.000Z</time>
      </trkpt>
      <trkpt lat="42.77884" lon="2.78557">
        <ele>69.599998474121</ele>
        <time>2025-08-04T07:35:18.000Z</time>
      </trkpt>
      <trkpt lat="42.779" lon="2.78563">
        <ele>70.400001525879</ele>
        <time>2025-08-04T07:35:24.000Z</time>
      </trkpt>
      <trkpt lat="42.77906" lon="2.78562">
        <ele>70.599998474121</ele>
        <time>2025-08-04T07:35:26.000Z</time>
      </trkpt>
      <trkpt lat="42.77919" lon="2.78558">
        <ele>71</ele>
        <time>2025-08-04T07:35:31.000Z</time>
      </trkpt>
      <trkpt lat="42.77944" lon="2.78545">
        <ele>71.800003051758</ele>
        <time>2025-08-04T07:35:40.000Z</time>
      </trkpt>
      <trkpt lat="42.77947" lon="2.78543">
        <ele>71.800003051758</ele>
        <time>2025-08-04T07:35:41.000Z</time>
      </trkpt>
      <trkpt lat="42.77958" lon="2.78526">
        <ele>72</ele>
        <time>2025-08-04T07:35:46.000Z</time>
      </trkpt>
      <trkpt lat="42.77966" lon="2.78498">
        <ele>72.199996948242</ele>
        <time>2025-08-04T07:35:52.000Z</time>
      </trkpt>
      <trkpt lat="42.77977" lon="2.78465">
        <ele>72</ele>
        <time>2025-08-04T07:35:58.000Z</time>
      </trkpt>
      <trkpt lat="42.77991" lon="2.78424">
        <ele>71.599998474121</ele>
        <time>2025-08-04T07:36:04.000Z</time>
      </trkpt>
      <trkpt lat="42.78007" lon="2.78385">
        <ele>70.800003051758</ele>
        <time>2025-08-04T07:36:09.000Z</time>
      </trkpt>
      <trkpt lat="42.78014" lon="2.78377">
        <ele>70.400001525879</ele>
        <time>2025-08-04T07:36:10.000Z</time>
      </trkpt>
      <trkpt lat="42.78019" lon="2.78373">
        <ele>70.199996948242</ele>
        <time>2025-08-04T07:36:11.000Z</time>
      </trkpt>
      <trkpt lat="42.78034" lon="2.78369">
        <ele>70</ele>
        <time>2025-08-04T07:36:13.000Z</time>
      </trkpt>
      <trkpt lat="42.78042" lon="2.78367">
        <ele>69.800003051758</ele>
        <time>2025-08-04T07:36:14.000Z</time>
      </trkpt>
      <trkpt lat="42.78049" lon="2.78363">
        <ele>69.400001525879</ele>
        <time>2025-08-04T07:36:15.000Z</time>
      </trkpt>
      <trkpt lat="42.78057" lon="2.78357">
        <ele>68.800003051758</ele>
        <time>2025-08-04T07:36:16.000Z</time>
      </trkpt>
      <trkpt lat="42.7806" lon="2.78349">
        <ele>68.199996948242</ele>
        <time>2025-08-04T07:36:17.000Z</time>
      </trkpt>
      <trkpt lat="42.78066" lon="2.78328">
        <ele>67.199996948242</ele>
        <time>2025-08-04T07:36:19.000Z</time>
      </trkpt>
      <trkpt lat="42.78066" lon="2.78288">
        <ele>66.199996948242</ele>
        <time>2025-08-04T07:36:23.000Z</time>
      </trkpt>
      <trkpt lat="42.78066" lon="2.78277">
        <ele>66</ele>
        <time>2025-08-04T07:36:24.000Z</time>
      </trkpt>
      <trkpt lat="42.78066" lon="2.78254">
        <ele>65.599998474121</ele>
        <time>2025-08-04T07:36:26.000Z</time>
      </trkpt>
      <trkpt lat="42.7807" lon="2.78233">
        <ele>65.400001525879</ele>
        <time>2025-08-04T07:36:28.000Z</time>
      </trkpt>
      <trkpt lat="42.78072" lon="2.78224">
        <ele>65.400001525879</ele>
        <time>2025-08-04T07:36:29.000Z</time>
      </trkpt>
      <trkpt lat="42.7808" lon="2.78202">
        <ele>65</ele>
        <time>2025-08-04T07:36:31.000Z</time>
      </trkpt>
      <trkpt lat="42.78087" lon="2.78184">
        <ele>64.400001525879</ele>
        <time>2025-08-04T07:36:33.000Z</time>
      </trkpt>
      <trkpt lat="42.78103" lon="2.78156">
        <ele>63.400001525879</ele>
        <time>2025-08-04T07:36:36.000Z</time>
      </trkpt>
      <trkpt lat="42.78115" lon="2.78137">
        <ele>62.799999237061</ele>
        <time>2025-08-04T07:36:38.000Z</time>
      </trkpt>
      <trkpt lat="42.78127" lon="2.78117">
        <ele>62.200000762939</ele>
        <time>2025-08-04T07:36:40.000Z</time>
      </trkpt>
      <trkpt lat="42.78143" lon="2.78092">
        <ele>61.400001525879</ele>
        <time>2025-08-04T07:36:43.000Z</time>
      </trkpt>
      <trkpt lat="42.78155" lon="2.78075">
        <ele>61</ele>
        <time>2025-08-04T07:36:45.000Z</time>
      </trkpt>
      <trkpt lat="42.78193" lon="2.78024">
        <ele>60.400001525879</ele>
        <time>2025-08-04T07:36:52.000Z</time>
      </trkpt>
      <trkpt lat="42.78198" lon="2.78018">
        <ele>60.200000762939</ele>
        <time>2025-08-04T07:36:53.000Z</time>
      </trkpt>
      <trkpt lat="42.78206" lon="2.78003">
        <ele>60</ele>
        <time>2025-08-04T07:36:55.000Z</time>
      </trkpt>
      <trkpt lat="42.78216" lon="2.7798">
        <ele>59.599998474121</ele>
        <time>2025-08-04T07:36:58.000Z</time>
      </trkpt>
      <trkpt lat="42.78219" lon="2.77973">
        <ele>59.599998474121</ele>
        <time>2025-08-04T07:36:59.000Z</time>
      </trkpt>
      <trkpt lat="42.78228" lon="2.77954">
        <ele>59.200000762939</ele>
        <time>2025-08-04T07:37:02.000Z</time>
      </trkpt>
      <trkpt lat="42.78231" lon="2.77947">
        <ele>59.200000762939</ele>
        <time>2025-08-04T07:37:03.000Z</time>
      </trkpt>
      <trkpt lat="42.78251" lon="2.77909">
        <ele>58.599998474121</ele>
        <time>2025-08-04T07:37:09.000Z</time>
      </trkpt>
      <trkpt lat="42.78272" lon="2.77869">
        <ele>58.400001525879</ele>
        <time>2025-08-04T07:37:16.000Z</time>
      </trkpt>
      <trkpt lat="42.78292" lon="2.77828">
        <ele>58.400001525879</ele>
        <time>2025-08-04T07:37:23.000Z</time>
      </trkpt>
      <trkpt lat="42.78306" lon="2.77801">
        <ele>58.200000762939</ele>
        <time>2025-08-04T07:37:28.000Z</time>
      </trkpt>
      <trkpt lat="42.78315" lon="2.77783">
        <ele>58.200000762939</ele>
        <time>2025-08-04T07:37:31.000Z</time>
      </trkpt>
      <trkpt lat="42.78317" lon="2.77779">
        <ele>58</ele>
        <time>2025-08-04T07:37:32.000Z</time>
      </trkpt>
      <trkpt lat="42.78338" lon="2.77741">
        <ele>58</ele>
        <time>2025-08-04T07:37:39.000Z</time>
      </trkpt>
      <trkpt lat="42.78361" lon="2.77694">
        <ele>57.799999237061</ele>
        <time>2025-08-04T07:37:48.000Z</time>
      </trkpt>
      <trkpt lat="42.78395" lon="2.7763">
        <ele>57.599998474121</ele>
        <time>2025-08-04T07:38:00.000Z</time>
      </trkpt>
      <trkpt lat="42.78407" lon="2.77598">
        <ele>57.799999237061</ele>
        <time>2025-08-04T07:38:06.000Z</time>
      </trkpt>
      <trkpt lat="42.78409" lon="2.77593">
        <ele>57.799999237061</ele>
        <time>2025-08-04T07:38:07.000Z</time>
      </trkpt>
      <trkpt lat="42.78426" lon="2.77541">
        <ele>58</ele>
        <time>2025-08-04T07:38:16.000Z</time>
      </trkpt>
      <trkpt lat="42.78433" lon="2.77521">
        <ele>58</ele>
        <time>2025-08-04T07:38:20.000Z</time>
      </trkpt>
      <trkpt lat="42.78439" lon="2.77505">
        <ele>58</ele>
        <time>2025-08-04T07:38:23.000Z</time>
      </trkpt>
      <trkpt lat="42.78442" lon="2.775">
        <ele>58</ele>
        <time>2025-08-04T07:38:24.000Z</time>
      </trkpt>
      <trkpt lat="42.78449" lon="2.7748">
        <ele>58.200000762939</ele>
        <time>2025-08-04T07:38:28.000Z</time>
      </trkpt>
      <trkpt lat="42.78453" lon="2.77467">
        <ele>58.200000762939</ele>
        <time>2025-08-04T07:38:30.000Z</time>
      </trkpt>
      <trkpt lat="42.78457" lon="2.77457">
        <ele>58.400001525879</ele>
        <time>2025-08-04T07:38:32.000Z</time>
      </trkpt>
      <trkpt lat="42.78459" lon="2.77446">
        <ele>58.200000762939</ele>
        <time>2025-08-04T07:38:34.000Z</time>
      </trkpt>
      <trkpt lat="42.78463" lon="2.77433">
        <ele>58.400001525879</ele>
        <time>2025-08-04T07:38:36.000Z</time>
      </trkpt>
      <trkpt lat="42.78467" lon="2.77424">
        <ele>58.200000762939</ele>
        <time>2025-08-04T07:38:38.000Z</time>
      </trkpt>
      <trkpt lat="42.78472" lon="2.77409">
        <ele>58.400001525879</ele>
        <time>2025-08-04T07:38:41.000Z</time>
      </trkpt>
      <trkpt lat="42.78475" lon="2.774">
        <ele>58.400001525879</ele>
        <time>2025-08-04T07:38:43.000Z</time>
      </trkpt>
      <trkpt lat="42.7848" lon="2.77389">
        <ele>58.400001525879</ele>
        <time>2025-08-04T07:38:45.000Z</time>
      </trkpt>
      <trkpt lat="42.78493" lon="2.77345">
        <ele>58.599998474121</ele>
        <time>2025-08-04T07:38:53.000Z</time>
      </trkpt>
      <trkpt lat="42.78495" lon="2.77339">
        <ele>58.599998474121</ele>
        <time>2025-08-04T07:38:54.000Z</time>
      </trkpt>
      <trkpt lat="42.78498" lon="2.77332">
        <ele>58.599998474121</ele>
        <time>2025-08-04T07:38:55.000Z</time>
      </trkpt>
      <trkpt lat="42.78507" lon="2.7731">
        <ele>58.599998474121</ele>
        <time>2025-08-04T07:38:59.000Z</time>
      </trkpt>
      <trkpt lat="42.78517" lon="2.77284">
        <ele>58.599998474121</ele>
        <time>2025-08-04T07:39:04.000Z</time>
      </trkpt>
      <trkpt lat="42.7852" lon="2.77273">
        <ele>58.400001525879</ele>
        <time>2025-08-04T07:39:06.000Z</time>
      </trkpt>
      <trkpt lat="42.78525" lon="2.77249">
        <ele>58.799999237061</ele>
        <time>2025-08-04T07:39:10.000Z</time>
      </trkpt>
      <trkpt lat="42.78527" lon="2.77229">
        <ele>58.799999237061</ele>
        <time>2025-08-04T07:39:13.000Z</time>
      </trkpt>
      <trkpt lat="42.78528" lon="2.77205">
        <ele>58.799999237061</ele>
        <time>2025-08-04T07:39:17.000Z</time>
      </trkpt>
      <trkpt lat="42.78527" lon="2.77199">
        <ele>58.799999237061</ele>
        <time>2025-08-04T07:39:18.000Z</time>
      </trkpt>
      <trkpt lat="42.78522" lon="2.77167">
        <ele>58.400001525879</ele>
        <time>2025-08-04T07:39:23.000Z</time>
      </trkpt>
      <trkpt lat="42.7852" lon="2.77155">
        <ele>58.400001525879</ele>
        <time>2025-08-04T07:39:25.000Z</time>
      </trkpt>
      <trkpt lat="42.7851" lon="2.77095">
        <ele>57.799999237061</ele>
        <time>2025-08-04T07:39:35.000Z</time>
      </trkpt>
      <trkpt lat="42.78499" lon="2.77055">
        <ele>58.400001525879</ele>
        <time>2025-08-04T07:39:43.000Z</time>
      </trkpt>
      <trkpt lat="42.7849" lon="2.77031">
        <ele>58.599998474121</ele>
        <time>2025-08-04T07:39:49.000Z</time>
      </trkpt>
      <trkpt lat="42.78478" lon="2.76998">
        <ele>59.200000762939</ele>
        <time>2025-08-04T07:39:57.000Z</time>
      </trkpt>
      <trkpt lat="42.78471" lon="2.76978">
        <ele>59.599998474121</ele>
        <time>2025-08-04T07:40:02.000Z</time>
      </trkpt>
      <trkpt lat="42.78466" lon="2.76963">
        <ele>59.799999237061</ele>
        <time>2025-08-04T07:40:06.000Z</time>
      </trkpt>
      <trkpt lat="42.78459" lon="2.76946">
        <ele>60</ele>
        <time>2025-08-04T07:40:11.000Z</time>
      </trkpt>
      <trkpt lat="42.78456" lon="2.76939">
        <ele>60.200000762939</ele>
        <time>2025-08-04T07:40:13.000Z</time>
      </trkpt>
      <trkpt lat="42.78443" lon="2.76902">
        <ele>60.599998474121</ele>
        <time>2025-08-04T07:40:22.000Z</time>
      </trkpt>
      <trkpt lat="42.78434" lon="2.76879">
        <ele>61</ele>
        <time>2025-08-04T07:40:28.000Z</time>
      </trkpt>
      <trkpt lat="42.78427" lon="2.76852">
        <ele>61.599998474121</ele>
        <time>2025-08-04T07:40:35.000Z</time>
      </trkpt>
      <trkpt lat="42.78426" lon="2.76848">
        <ele>61.599998474121</ele>
        <time>2025-08-04T07:40:36.000Z</time>
      </trkpt>
      <trkpt lat="42.78419" lon="2.76822">
        <ele>62</ele>
        <time>2025-08-04T07:40:43.000Z</time>
      </trkpt>
      <trkpt lat="42.78411" lon="2.76796">
        <ele>62.599998474121</ele>
        <time>2025-08-04T07:40:50.000Z</time>
      </trkpt>
      <trkpt lat="42.7841" lon="2.76793">
        <ele>62.799999237061</ele>
        <time>2025-08-04T07:40:51.000Z</time>
      </trkpt>
      <trkpt lat="42.78406" lon="2.76781">
        <ele>63</ele>
        <time>2025-08-04T07:40:54.000Z</time>
      </trkpt>
      <trkpt lat="42.784" lon="2.76766">
        <ele>63.200000762939</ele>
        <time>2025-08-04T07:40:58.000Z</time>
      </trkpt>
      <trkpt lat="42.78395" lon="2.76752">
        <ele>63.400001525879</ele>
        <time>2025-08-04T07:41:02.000Z</time>
      </trkpt>
      <trkpt lat="42.78388" lon="2.76738">
        <ele>63.799999237061</ele>
        <time>2025-08-04T07:41:06.000Z</time>
      </trkpt>
      <trkpt lat="42.78367" lon="2.76706">
        <ele>64.199996948242</ele>
        <time>2025-08-04T07:41:16.000Z</time>
      </trkpt>
      <trkpt lat="42.7835" lon="2.76686">
        <ele>64.599998474121</ele>
        <time>2025-08-04T07:41:23.000Z</time>
      </trkpt>
      <trkpt lat="42.78348" lon="2.76684">
        <ele>64.599998474121</ele>
        <time>2025-08-04T07:41:24.000Z</time>
      </trkpt>
      <trkpt lat="42.78321" lon="2.76667">
        <ele>64.800003051758</ele>
        <time>2025-08-04T07:41:33.000Z</time>
      </trkpt>
      <trkpt lat="42.78312" lon="2.76662">
        <ele>64.800003051758</ele>
        <time>2025-08-04T07:41:36.000Z</time>
      </trkpt>
      <trkpt lat="42.78293" lon="2.76652">
        <ele>65.199996948242</ele>
        <time>2025-08-04T07:41:43.000Z</time>
      </trkpt>
      <trkpt lat="42.78273" lon="2.76642">
        <ele>65.400001525879</ele>
        <time>2025-08-04T07:41:50.000Z</time>
      </trkpt>
      <trkpt lat="42.7827" lon="2.76641">
        <ele>65.599998474121</ele>
        <time>2025-08-04T07:41:51.000Z</time>
      </trkpt>
      <trkpt lat="42.7825" lon="2.7663">
        <ele>66.199996948242</ele>
        <time>2025-08-04T07:41:58.000Z</time>
      </trkpt>
      <trkpt lat="42.78236" lon="2.76621">
        <ele>66.599998474121</ele>
        <time>2025-08-04T07:42:03.000Z</time>
      </trkpt>
      <trkpt lat="42.78231" lon="2.76617">
        <ele>66.800003051758</ele>
        <time>2025-08-04T07:42:05.000Z</time>
      </trkpt>
      <trkpt lat="42.78229" lon="2.76614">
        <ele>66.800003051758</ele>
        <time>2025-08-04T07:42:06.000Z</time>
      </trkpt>
      <trkpt lat="42.7822" lon="2.766">
        <ele>67</ele>
        <time>2025-08-04T07:42:10.000Z</time>
      </trkpt>
      <trkpt lat="42.78199" lon="2.76583">
        <ele>67.599998474121</ele>
        <time>2025-08-04T07:42:18.000Z</time>
      </trkpt>
      <trkpt lat="42.7817" lon="2.76567">
        <ele>68.199996948242</ele>
        <time>2025-08-04T07:42:28.000Z</time>
      </trkpt>
      <trkpt lat="42.78146" lon="2.76554">
        <ele>68.400001525879</ele>
        <time>2025-08-04T07:42:36.000Z</time>
      </trkpt>
      <trkpt lat="42.78143" lon="2.76553">
        <ele>68.400001525879</ele>
        <time>2025-08-04T07:42:37.000Z</time>
      </trkpt>
      <trkpt lat="42.78119" lon="2.76542">
        <ele>68.800003051758</ele>
        <time>2025-08-04T07:42:45.000Z</time>
      </trkpt>
      <trkpt lat="42.781" lon="2.76532">
        <ele>69</ele>
        <time>2025-08-04T07:42:52.000Z</time>
      </trkpt>
      <trkpt lat="42.78074" lon="2.76519">
        <ele>69.400001525879</ele>
        <time>2025-08-04T07:43:01.000Z</time>
      </trkpt>
      <trkpt lat="42.78071" lon="2.76518">
        <ele>69.599998474121</ele>
        <time>2025-08-04T07:43:02.000Z</time>
      </trkpt>
      <trkpt lat="42.78057" lon="2.7651">
        <ele>69.800003051758</ele>
        <time>2025-08-04T07:43:07.000Z</time>
      </trkpt>
      <trkpt lat="42.78036" lon="2.76491">
        <ele>70</ele>
        <time>2025-08-04T07:43:15.000Z</time>
      </trkpt>
      <trkpt lat="42.78021" lon="2.76466">
        <ele>70.400001525879</ele>
        <time>2025-08-04T07:43:23.000Z</time>
      </trkpt>
      <trkpt lat="42.78011" lon="2.76443">
        <ele>70.800003051758</ele>
        <time>2025-08-04T07:43:30.000Z</time>
      </trkpt>
      <trkpt lat="42.78" lon="2.7641">
        <ele>71</ele>
        <time>2025-08-04T07:43:39.000Z</time>
      </trkpt>
      <trkpt lat="42.77995" lon="2.76383">
        <ele>71.400001525879</ele>
        <time>2025-08-04T07:43:46.000Z</time>
      </trkpt>
      <trkpt lat="42.77995" lon="2.7636">
        <ele>71.800003051758</ele>
        <time>2025-08-04T07:43:52.000Z</time>
      </trkpt>
      <trkpt lat="42.77996" lon="2.76353">
        <ele>71.800003051758</ele>
        <time>2025-08-04T07:43:54.000Z</time>
      </trkpt>
      <trkpt lat="42.77998" lon="2.76334">
        <ele>73</ele>
        <time>2025-08-04T07:44:00.000Z</time>
      </trkpt>
      <trkpt lat="42.77999" lon="2.76327">
        <ele>73</ele>
        <time>2025-08-04T07:44:02.000Z</time>
      </trkpt>
      <trkpt lat="42.78004" lon="2.76302">
        <ele>73.800003051758</ele>
        <time>2025-08-04T07:44:09.000Z</time>
      </trkpt>
      <trkpt lat="42.78006" lon="2.76295">
        <ele>74</ele>
        <time>2025-08-04T07:44:11.000Z</time>
      </trkpt>
      <trkpt lat="42.78015" lon="2.76272">
        <ele>75</ele>
        <time>2025-08-04T07:44:18.000Z</time>
      </trkpt>
      <trkpt lat="42.78018" lon="2.76266">
        <ele>75.199996948242</ele>
        <time>2025-08-04T07:44:20.000Z</time>
      </trkpt>
      <trkpt lat="42.78035" lon="2.76239">
        <ele>76</ele>
        <time>2025-08-04T07:44:30.000Z</time>
      </trkpt>
      <trkpt lat="42.78054" lon="2.76213">
        <ele>77</ele>
        <time>2025-08-04T07:44:40.000Z</time>
      </trkpt>
      <trkpt lat="42.78056" lon="2.7621">
        <ele>77.199996948242</ele>
        <time>2025-08-04T07:44:41.000Z</time>
      </trkpt>
      <trkpt lat="42.78072" lon="2.7619">
        <ele>78.199996948242</ele>
        <time>2025-08-04T07:44:49.000Z</time>
      </trkpt>
      <trkpt lat="42.7809" lon="2.76172">
        <ele>79.199996948242</ele>
        <time>2025-08-04T07:44:57.000Z</time>
      </trkpt>
      <trkpt lat="42.78092" lon="2.7617">
        <ele>79.199996948242</ele>
        <time>2025-08-04T07:44:58.000Z</time>
      </trkpt>
      <trkpt lat="42.78108" lon="2.76154">
        <ele>80</ele>
        <time>2025-08-04T07:45:05.000Z</time>
      </trkpt>
      <trkpt lat="42.78115" lon="2.76148">
        <ele>80.400001525879</ele>
        <time>2025-08-04T07:45:08.000Z</time>
      </trkpt>
      <trkpt lat="42.78124" lon="2.76138">
        <ele>80.800003051758</ele>
        <time>2025-08-04T07:45:12.000Z</time>
      </trkpt>
      <trkpt lat="42.78136" lon="2.76128">
        <ele>81.400001525879</ele>
        <time>2025-08-04T07:45:17.000Z</time>
      </trkpt>
      <trkpt lat="42.78141" lon="2.76124">
        <ele>81.800003051758</ele>
        <time>2025-08-04T07:45:19.000Z</time>
      </trkpt>
      <trkpt lat="42.7816" lon="2.76117">
        <ele>82.599998474121</ele>
        <time>2025-08-04T07:45:26.000Z</time>
      </trkpt>
      <trkpt lat="42.78176" lon="2.76109">
        <ele>82.800003051758</ele>
        <time>2025-08-04T07:45:32.000Z</time>
      </trkpt>
      <trkpt lat="42.78186" lon="2.76095">
        <ele>83.400001525879</ele>
        <time>2025-08-04T07:45:37.000Z</time>
      </trkpt>
      <trkpt lat="42.78187" lon="2.76092">
        <ele>83.400001525879</ele>
        <time>2025-08-04T07:45:38.000Z</time>
      </trkpt>
      <trkpt lat="42.7819" lon="2.76067">
        <ele>84.199996948242</ele>
        <time>2025-08-04T07:45:45.000Z</time>
      </trkpt>
      <trkpt lat="42.7819" lon="2.76057">
        <ele>84.400001525879</ele>
        <time>2025-08-04T07:45:48.000Z</time>
      </trkpt>
      <trkpt lat="42.7819" lon="2.76043">
        <ele>85</ele>
        <time>2025-08-04T07:45:53.000Z</time>
      </trkpt>
      <trkpt lat="42.78192" lon="2.7603">
        <ele>85.400001525879</ele>
        <time>2025-08-04T07:45:57.000Z</time>
      </trkpt>
      <trkpt lat="42.78193" lon="2.76017">
        <ele>86</ele>
        <time>2025-08-04T07:46:01.000Z</time>
      </trkpt>
      <trkpt lat="42.78195" lon="2.76006">
        <ele>86.599998474121</ele>
        <time>2025-08-04T07:46:05.000Z</time>
      </trkpt>
      <trkpt lat="42.78196" lon="2.76">
        <ele>86.800003051758</ele>
        <time>2025-08-04T07:46:07.000Z</time>
      </trkpt>
      <trkpt lat="42.78198" lon="2.75988">
        <ele>87.199996948242</ele>
        <time>2025-08-04T07:46:12.000Z</time>
      </trkpt>
      <trkpt lat="42.78199" lon="2.75979">
        <ele>87.599998474121</ele>
        <time>2025-08-04T07:46:15.000Z</time>
      </trkpt>
      <trkpt lat="42.78201" lon="2.7597">
        <ele>87.599998474121</ele>
        <time>2025-08-04T07:46:18.000Z</time>
      </trkpt>
      <trkpt lat="42.78203" lon="2.75947">
        <ele>88.599998474121</ele>
        <time>2025-08-04T07:46:25.000Z</time>
      </trkpt>
      <trkpt lat="42.78203" lon="2.7594">
        <ele>88.800003051758</ele>
        <time>2025-08-04T07:46:27.000Z</time>
      </trkpt>
      <trkpt lat="42.78206" lon="2.75912">
        <ele>89.599998474121</ele>
        <time>2025-08-04T07:46:35.000Z</time>
      </trkpt>
      <trkpt lat="42.78206" lon="2.75901">
        <ele>90</ele>
        <time>2025-08-04T07:46:38.000Z</time>
      </trkpt>
      <trkpt lat="42.78207" lon="2.75876">
        <ele>90.800003051758</ele>
        <time>2025-08-04T07:46:45.000Z</time>
      </trkpt>
      <trkpt lat="42.78207" lon="2.75873">
        <ele>90.800003051758</ele>
        <time>2025-08-04T07:46:46.000Z</time>
      </trkpt>
      <trkpt lat="42.78206" lon="2.7585">
        <ele>91.599998474121</ele>
        <time>2025-08-04T07:46:53.000Z</time>
      </trkpt>
      <trkpt lat="42.78204" lon="2.75818">
        <ele>92.400001525879</ele>
        <time>2025-08-04T07:47:03.000Z</time>
      </trkpt>
      <trkpt lat="42.78204" lon="2.75808">
        <ele>92.800003051758</ele>
        <time>2025-08-04T07:47:06.000Z</time>
      </trkpt>
      <trkpt lat="42.78202" lon="2.75783">
        <ele>93.400001525879</ele>
        <time>2025-08-04T07:47:14.000Z</time>
      </trkpt>
      <trkpt lat="42.78201" lon="2.75773">
        <ele>93.800003051758</ele>
        <time>2025-08-04T07:47:17.000Z</time>
      </trkpt>
      <trkpt lat="42.78201" lon="2.75753">
        <ele>94.400001525879</ele>
        <time>2025-08-04T07:47:23.000Z</time>
      </trkpt>
      <trkpt lat="42.78201" lon="2.75743">
        <ele>94.800003051758</ele>
        <time>2025-08-04T07:47:26.000Z</time>
      </trkpt>
      <trkpt lat="42.78204" lon="2.75724">
        <ele>95.400001525879</ele>
        <time>2025-08-04T07:47:32.000Z</time>
      </trkpt>
      <trkpt lat="42.7821" lon="2.75703">
        <ele>96</ele>
        <time>2025-08-04T07:47:39.000Z</time>
      </trkpt>
      <trkpt lat="42.78218" lon="2.75678">
        <ele>96.800003051758</ele>
        <time>2025-08-04T07:47:47.000Z</time>
      </trkpt>
      <trkpt lat="42.78221" lon="2.75672">
        <ele>97.199996948242</ele>
        <time>2025-08-04T07:47:49.000Z</time>
      </trkpt>
      <trkpt lat="42.78229" lon="2.75659">
        <ele>97.599998474121</ele>
        <time>2025-08-04T07:47:54.000Z</time>
      </trkpt>
      <trkpt lat="42.78231" lon="2.75657">
        <ele>97.800003051758</ele>
        <time>2025-08-04T07:47:55.000Z</time>
      </trkpt>
      <trkpt lat="42.7824" lon="2.75646">
        <ele>98.199996948242</ele>
        <time>2025-08-04T07:48:00.000Z</time>
      </trkpt>
      <trkpt lat="42.78249" lon="2.75637">
        <ele>98.599998474121</ele>
        <time>2025-08-04T07:48:05.000Z</time>
      </trkpt>
      <trkpt lat="42.78258" lon="2.75631">
        <ele>99.199996948242</ele>
        <time>2025-08-04T07:48:09.000Z</time>
      </trkpt>
      <trkpt lat="42.7827" lon="2.75619">
        <ele>100</ele>
        <time>2025-08-04T07:48:15.000Z</time>
      </trkpt>
      <trkpt lat="42.78273" lon="2.75615">
        <ele>100.19999694824</ele>
        <time>2025-08-04T07:48:17.000Z</time>
      </trkpt>
      <trkpt lat="42.78283" lon="2.75598">
        <ele>100.80000305176</ele>
        <time>2025-08-04T07:48:23.000Z</time>
      </trkpt>
      <trkpt lat="42.78291" lon="2.75583">
        <ele>101.19999694824</ele>
        <time>2025-08-04T07:48:28.000Z</time>
      </trkpt>
      <trkpt lat="42.78294" lon="2.75577">
        <ele>101.40000152588</ele>
        <time>2025-08-04T07:48:30.000Z</time>
      </trkpt>
      <trkpt lat="42.78308" lon="2.75555">
        <ele>102.40000152588</ele>
        <time>2025-08-04T07:48:39.000Z</time>
      </trkpt>
      <trkpt lat="42.78321" lon="2.75537">
        <ele>103</ele>
        <time>2025-08-04T07:48:47.000Z</time>
      </trkpt>
      <trkpt lat="42.78326" lon="2.7553">
        <ele>103.40000152588</ele>
        <time>2025-08-04T07:48:50.000Z</time>
      </trkpt>
      <trkpt lat="42.78337" lon="2.75516">
        <ele>104.19999694824</ele>
        <time>2025-08-04T07:48:56.000Z</time>
      </trkpt>
      <trkpt lat="42.7834" lon="2.75512">
        <ele>104.40000152588</ele>
        <time>2025-08-04T07:48:58.000Z</time>
      </trkpt>
      <trkpt lat="42.7835" lon="2.75497">
        <ele>105.19999694824</ele>
        <time>2025-08-04T07:49:04.000Z</time>
      </trkpt>
      <trkpt lat="42.78351" lon="2.75494">
        <ele>105.40000152588</ele>
        <time>2025-08-04T07:49:05.000Z</time>
      </trkpt>
      <trkpt lat="42.78357" lon="2.75472">
        <ele>106.40000152588</ele>
        <time>2025-08-04T07:49:12.000Z</time>
      </trkpt>
      <trkpt lat="42.78362" lon="2.75448">
        <ele>107.40000152588</ele>
        <time>2025-08-04T07:49:19.000Z</time>
      </trkpt>
      <trkpt lat="42.78363" lon="2.75445">
        <ele>107.59999847412</ele>
        <time>2025-08-04T07:49:20.000Z</time>
      </trkpt>
      <trkpt lat="42.78372" lon="2.75429">
        <ele>108.19999694824</ele>
        <time>2025-08-04T07:49:26.000Z</time>
      </trkpt>
      <trkpt lat="42.78381" lon="2.75418">
        <ele>108.59999847412</ele>
        <time>2025-08-04T07:49:31.000Z</time>
      </trkpt>
      <trkpt lat="42.78386" lon="2.75413">
        <ele>109.19999694824</ele>
        <time>2025-08-04T07:49:34.000Z</time>
      </trkpt>
      <trkpt lat="42.78391" lon="2.75407">
        <ele>109.59999847412</ele>
        <time>2025-08-04T07:49:37.000Z</time>
      </trkpt>
      <trkpt lat="42.78396" lon="2.754">
        <ele>110</ele>
        <time>2025-08-04T07:49:41.000Z</time>
      </trkpt>
      <trkpt lat="42.784" lon="2.75392">
        <ele>110.59999847412</ele>
        <time>2025-08-04T07:49:44.000Z</time>
      </trkpt>
      <trkpt lat="42.78409" lon="2.75376">
        <ele>111.40000152588</ele>
        <time>2025-08-04T07:49:50.000Z</time>
      </trkpt>
      <trkpt lat="42.78412" lon="2.75368">
        <ele>111.80000305176</ele>
        <time>2025-08-04T07:49:53.000Z</time>
      </trkpt>
      <trkpt lat="42.78417" lon="2.75351">
        <ele>112.59999847412</ele>
        <time>2025-08-04T07:49:59.000Z</time>
      </trkpt>
      <trkpt lat="42.78421" lon="2.75343">
        <ele>112.80000305176</ele>
        <time>2025-08-04T07:50:02.000Z</time>
      </trkpt>
      <trkpt lat="42.78426" lon="2.75338">
        <ele>113.19999694824</ele>
        <time>2025-08-04T07:50:05.000Z</time>
      </trkpt>
      <trkpt lat="42.78428" lon="2.75337">
        <ele>113.19999694824</ele>
        <time>2025-08-04T07:50:06.000Z</time>
      </trkpt>
      <trkpt lat="42.78439" lon="2.75338">
        <ele>114</ele>
        <time>2025-08-04T07:50:11.000Z</time>
      </trkpt>
      <trkpt lat="42.78444" lon="2.7534">
        <ele>114</ele>
        <time>2025-08-04T07:50:13.000Z</time>
      </trkpt>
      <trkpt lat="42.78461" lon="2.75345">
        <ele>115</ele>
        <time>2025-08-04T07:50:21.000Z</time>
      </trkpt>
      <trkpt lat="42.78479" lon="2.75346">
        <ele>115.80000305176</ele>
        <time>2025-08-04T07:50:30.000Z</time>
      </trkpt>
      <trkpt lat="42.78483" lon="2.75346">
        <ele>116</ele>
        <time>2025-08-04T07:50:32.000Z</time>
      </trkpt>
      <trkpt lat="42.78494" lon="2.75343">
        <ele>116.59999847412</ele>
        <time>2025-08-04T07:50:37.000Z</time>
      </trkpt>
      <trkpt lat="42.785" lon="2.75341">
        <ele>117</ele>
        <time>2025-08-04T07:50:40.000Z</time>
      </trkpt>
      <trkpt lat="42.78508" lon="2.7534">
        <ele>117.59999847412</ele>
        <time>2025-08-04T07:50:44.000Z</time>
      </trkpt>
      <trkpt lat="42.78519" lon="2.75349">
        <ele>118</ele>
        <time>2025-08-04T07:50:50.000Z</time>
      </trkpt>
      <trkpt lat="42.78523" lon="2.75355">
        <ele>118</ele>
        <time>2025-08-04T07:50:53.000Z</time>
      </trkpt>
      <trkpt lat="42.78531" lon="2.75365">
        <ele>118.80000305176</ele>
        <time>2025-08-04T07:50:58.000Z</time>
      </trkpt>
      <trkpt lat="42.78535" lon="2.7537">
        <ele>119.19999694824</ele>
        <time>2025-08-04T07:51:01.000Z</time>
      </trkpt>
      <trkpt lat="42.78544" lon="2.75382">
        <ele>119.80000305176</ele>
        <time>2025-08-04T07:51:07.000Z</time>
      </trkpt>
      <trkpt lat="42.78551" lon="2.75389">
        <ele>120.19999694824</ele>
        <time>2025-08-04T07:51:11.000Z</time>
      </trkpt>
      <trkpt lat="42.78556" lon="2.75398">
        <ele>120.80000305176</ele>
        <time>2025-08-04T07:51:15.000Z</time>
      </trkpt>
      <trkpt lat="42.7856" lon="2.75408">
        <ele>121.40000152588</ele>
        <time>2025-08-04T07:51:19.000Z</time>
      </trkpt>
      <trkpt lat="42.78564" lon="2.75416">
        <ele>121.80000305176</ele>
        <time>2025-08-04T07:51:22.000Z</time>
      </trkpt>
      <trkpt lat="42.7857" lon="2.75427">
        <ele>122.19999694824</ele>
        <time>2025-08-04T07:51:27.000Z</time>
      </trkpt>
      <trkpt lat="42.78576" lon="2.75432">
        <ele>122.59999847412</ele>
        <time>2025-08-04T07:51:30.000Z</time>
      </trkpt>
      <trkpt lat="42.78591" lon="2.75434">
        <ele>123.40000152588</ele>
        <time>2025-08-04T07:51:37.000Z</time>
      </trkpt>
      <trkpt lat="42.78594" lon="2.75435">
        <ele>123.59999847412</ele>
        <time>2025-08-04T07:51:38.000Z</time>
      </trkpt>
      <trkpt lat="42.78597" lon="2.75435">
        <ele>124.40000152588</ele>
        <time>2025-08-04T07:51:43.000Z</time>
      </trkpt>
      <trkpt lat="42.78604" lon="2.75431">
        <ele>125.80000305176</ele>
        <time>2025-08-04T07:55:07.000Z</time>
      </trkpt>
      <trkpt lat="42.78608" lon="2.75429">
        <ele>125.80000305176</ele>
        <time>2025-08-04T07:55:09.000Z</time>
      </trkpt>
      <trkpt lat="42.78621" lon="2.75425">
        <ele>126</ele>
        <time>2025-08-04T07:55:15.000Z</time>
      </trkpt>
      <trkpt lat="42.78631" lon="2.75416">
        <ele>126.59999847412</ele>
        <time>2025-08-04T07:55:20.000Z</time>
      </trkpt>
      <trkpt lat="42.78634" lon="2.75412">
        <ele>126.80000305176</ele>
        <time>2025-08-04T07:55:22.000Z</time>
      </trkpt>
      <trkpt lat="42.78644" lon="2.75394">
        <ele>127.59999847412</ele>
        <time>2025-08-04T07:55:29.000Z</time>
      </trkpt>
      <trkpt lat="42.78652" lon="2.75378">
        <ele>128.39999389648</ele>
        <time>2025-08-04T07:55:36.000Z</time>
      </trkpt>
      <trkpt lat="42.78654" lon="2.75374">
        <ele>128.60000610352</ele>
        <time>2025-08-04T07:55:38.000Z</time>
      </trkpt>
      <trkpt lat="42.78661" lon="2.75361">
        <ele>129.19999694824</ele>
        <time>2025-08-04T07:55:44.000Z</time>
      </trkpt>
      <trkpt lat="42.78668" lon="2.7535">
        <ele>129.80000305176</ele>
        <time>2025-08-04T07:55:50.000Z</time>
      </trkpt>
      <trkpt lat="42.78669" lon="2.75348">
        <ele>129.80000305176</ele>
        <time>2025-08-04T07:55:51.000Z</time>
      </trkpt>
      <trkpt lat="42.78678" lon="2.75333">
        <ele>130.60000610352</ele>
        <time>2025-08-04T07:55:58.000Z</time>
      </trkpt>
      <trkpt lat="42.78681" lon="2.75326">
        <ele>130.80000305176</ele>
        <time>2025-08-04T07:56:01.000Z</time>
      </trkpt>
      <trkpt lat="42.78688" lon="2.75315">
        <ele>131.60000610352</ele>
        <time>2025-08-04T07:56:06.000Z</time>
      </trkpt>
      <trkpt lat="42.78693" lon="2.75303">
        <ele>131.80000305176</ele>
        <time>2025-08-04T07:56:11.000Z</time>
      </trkpt>
      <trkpt lat="42.78696" lon="2.75298">
        <ele>132.19999694824</ele>
        <time>2025-08-04T07:56:13.000Z</time>
      </trkpt>
      <trkpt lat="42.78699" lon="2.7529">
        <ele>132.80000305176</ele>
        <time>2025-08-04T07:56:16.000Z</time>
      </trkpt>
      <trkpt lat="42.78708" lon="2.75273">
        <ele>133.39999389648</ele>
        <time>2025-08-04T07:56:23.000Z</time>
      </trkpt>
      <trkpt lat="42.78716" lon="2.75262">
        <ele>134</ele>
        <time>2025-08-04T07:56:28.000Z</time>
      </trkpt>
      <trkpt lat="42.78726" lon="2.75249">
        <ele>134.39999389648</ele>
        <time>2025-08-04T07:56:34.000Z</time>
      </trkpt>
      <trkpt lat="42.7874" lon="2.75233">
        <ele>135</ele>
        <time>2025-08-04T07:56:42.000Z</time>
      </trkpt>
      <trkpt lat="42.78742" lon="2.75231">
        <ele>135</ele>
        <time>2025-08-04T07:56:43.000Z</time>
      </trkpt>
      <trkpt lat="42.78754" lon="2.7521">
        <ele>136</ele>
        <time>2025-08-04T07:56:52.000Z</time>
      </trkpt>
      <trkpt lat="42.78756" lon="2.75208">
        <ele>136</ele>
        <time>2025-08-04T07:56:53.000Z</time>
      </trkpt>
      <trkpt lat="42.7876" lon="2.7519">
        <ele>136.60000610352</ele>
        <time>2025-08-04T07:56:59.000Z</time>
      </trkpt>
      <trkpt lat="42.78761" lon="2.75178">
        <ele>137.19999694824</ele>
        <time>2025-08-04T07:57:03.000Z</time>
      </trkpt>
      <trkpt lat="42.78759" lon="2.75165">
        <ele>137.60000610352</ele>
        <time>2025-08-04T07:57:07.000Z</time>
      </trkpt>
      <trkpt lat="42.7875" lon="2.75147">
        <ele>138.19999694824</ele>
        <time>2025-08-04T07:57:14.000Z</time>
      </trkpt>
      <trkpt lat="42.78747" lon="2.75143">
        <ele>138.39999389648</ele>
        <time>2025-08-04T07:57:16.000Z</time>
      </trkpt>
      <trkpt lat="42.78735" lon="2.75136">
        <ele>139</ele>
        <time>2025-08-04T07:57:22.000Z</time>
      </trkpt>
      <trkpt lat="42.78722" lon="2.75133">
        <ele>139.19999694824</ele>
        <time>2025-08-04T07:57:28.000Z</time>
      </trkpt>
      <trkpt lat="42.78704" lon="2.75138">
        <ele>139.80000305176</ele>
        <time>2025-08-04T07:57:36.000Z</time>
      </trkpt>
      <trkpt lat="42.78693" lon="2.75143">
        <ele>140.39999389648</ele>
        <time>2025-08-04T07:57:41.000Z</time>
      </trkpt>
      <trkpt lat="42.78691" lon="2.75144">
        <ele>140.60000610352</ele>
        <time>2025-08-04T07:57:42.000Z</time>
      </trkpt>
      <trkpt lat="42.78678" lon="2.75157">
        <ele>141.39999389648</ele>
        <time>2025-08-04T07:57:49.000Z</time>
      </trkpt>
      <trkpt lat="42.78663" lon="2.7517">
        <ele>142.19999694824</ele>
        <time>2025-08-04T07:57:57.000Z</time>
      </trkpt>
      <trkpt lat="42.78659" lon="2.75175">
        <ele>142.39999389648</ele>
        <time>2025-08-04T07:57:59.000Z</time>
      </trkpt>
      <trkpt lat="42.78649" lon="2.75182">
        <ele>142.80000305176</ele>
        <time>2025-08-04T07:58:04.000Z</time>
      </trkpt>
      <trkpt lat="42.78639" lon="2.7519">
        <ele>143.39999389648</ele>
        <time>2025-08-04T07:58:09.000Z</time>
      </trkpt>
      <trkpt lat="42.78631" lon="2.75196">
        <ele>144</ele>
        <time>2025-08-04T07:58:13.000Z</time>
      </trkpt>
      <trkpt lat="42.78617" lon="2.75204">
        <ele>144.60000610352</ele>
        <time>2025-08-04T07:58:20.000Z</time>
      </trkpt>
      <trkpt lat="42.78615" lon="2.75204">
        <ele>144.60000610352</ele>
        <time>2025-08-04T07:58:21.000Z</time>
      </trkpt>
      <trkpt lat="42.78597" lon="2.75201">
        <ele>145.39999389648</ele>
        <time>2025-08-04T07:58:29.000Z</time>
      </trkpt>
      <trkpt lat="42.78591" lon="2.75199">
        <ele>145.60000610352</ele>
        <time>2025-08-04T07:58:32.000Z</time>
      </trkpt>
      <trkpt lat="42.78582" lon="2.75191">
        <ele>146.39999389648</ele>
        <time>2025-08-04T07:58:37.000Z</time>
      </trkpt>
      <trkpt lat="42.78578" lon="2.75187">
        <ele>146.60000610352</ele>
        <time>2025-08-04T07:58:39.000Z</time>
      </trkpt>
      <trkpt lat="42.78572" lon="2.75174">
        <ele>147.19999694824</ele>
        <time>2025-08-04T07:58:44.000Z</time>
      </trkpt>
      <trkpt lat="42.7857" lon="2.75165">
        <ele>147.80000305176</ele>
        <time>2025-08-04T07:58:47.000Z</time>
      </trkpt>
      <trkpt lat="42.78569" lon="2.75156">
        <ele>148.19999694824</ele>
        <time>2025-08-04T07:58:50.000Z</time>
      </trkpt>
      <trkpt lat="42.78575" lon="2.75135">
        <ele>149</ele>
        <time>2025-08-04T07:58:57.000Z</time>
      </trkpt>
      <trkpt lat="42.78586" lon="2.75118">
        <ele>150</ele>
        <time>2025-08-04T07:59:04.000Z</time>
      </trkpt>
      <trkpt lat="42.7859" lon="2.75112">
        <ele>150.39999389648</ele>
        <time>2025-08-04T07:59:06.000Z</time>
      </trkpt>
      <trkpt lat="42.78597" lon="2.75096">
        <ele>151</ele>
        <time>2025-08-04T07:59:12.000Z</time>
      </trkpt>
      <trkpt lat="42.78598" lon="2.75094">
        <ele>151.19999694824</ele>
        <time>2025-08-04T07:59:13.000Z</time>
      </trkpt>
      <trkpt lat="42.78606" lon="2.75075">
        <ele>152</ele>
        <time>2025-08-04T07:59:20.000Z</time>
      </trkpt>
      <trkpt lat="42.78608" lon="2.7507">
        <ele>152.19999694824</ele>
        <time>2025-08-04T07:59:22.000Z</time>
      </trkpt>
      <trkpt lat="42.7861" lon="2.75058">
        <ele>153</ele>
        <time>2025-08-04T07:59:26.000Z</time>
      </trkpt>
      <trkpt lat="42.78611" lon="2.75049">
        <ele>153.19999694824</ele>
        <time>2025-08-04T07:59:29.000Z</time>
      </trkpt>
      <trkpt lat="42.78609" lon="2.75032">
        <ele>153.80000305176</ele>
        <time>2025-08-04T07:59:34.000Z</time>
      </trkpt>
      <trkpt lat="42.78607" lon="2.75015">
        <ele>154.39999389648</ele>
        <time>2025-08-04T07:59:39.000Z</time>
      </trkpt>
      <trkpt lat="42.78603" lon="2.75004">
        <ele>154.60000610352</ele>
        <time>2025-08-04T07:59:43.000Z</time>
      </trkpt>
      <trkpt lat="42.78599" lon="2.74988">
        <ele>155.39999389648</ele>
        <time>2025-08-04T07:59:48.000Z</time>
      </trkpt>
      <trkpt lat="42.78597" lon="2.74961">
        <ele>156.19999694824</ele>
        <time>2025-08-04T07:59:56.000Z</time>
      </trkpt>
      <trkpt lat="42.78597" lon="2.74954">
        <ele>156.39999389648</ele>
        <time>2025-08-04T07:59:58.000Z</time>
      </trkpt>
      <trkpt lat="42.78596" lon="2.74948">
        <ele>156.80000305176</ele>
        <time>2025-08-04T08:00:00.000Z</time>
      </trkpt>
      <trkpt lat="42.78595" lon="2.74931">
        <ele>157.39999389648</ele>
        <time>2025-08-04T08:00:05.000Z</time>
      </trkpt>
      <trkpt lat="42.78594" lon="2.74925">
        <ele>157.60000610352</ele>
        <time>2025-08-04T08:00:07.000Z</time>
      </trkpt>
      <trkpt lat="42.78589" lon="2.74906">
        <ele>158.19999694824</ele>
        <time>2025-08-04T08:00:13.000Z</time>
      </trkpt>
      <trkpt lat="42.78586" lon="2.74893">
        <ele>158.80000305176</ele>
        <time>2025-08-04T08:00:17.000Z</time>
      </trkpt>
      <trkpt lat="42.78586" lon="2.7488">
        <ele>159.19999694824</ele>
        <time>2025-08-04T08:00:21.000Z</time>
      </trkpt>
      <trkpt lat="42.78588" lon="2.74871">
        <ele>159.80000305176</ele>
        <time>2025-08-04T08:00:26.000Z</time>
      </trkpt>
      <trkpt lat="42.78589" lon="2.7487">
        <ele>159.80000305176</ele>
        <time>2025-08-04T08:00:27.000Z</time>
      </trkpt>
      <trkpt lat="42.78591" lon="2.74859">
        <ele>160.60000610352</ele>
        <time>2025-08-04T08:00:32.000Z</time>
      </trkpt>
      <trkpt lat="42.78593" lon="2.74848">
        <ele>161</ele>
        <time>2025-08-04T08:00:36.000Z</time>
      </trkpt>
      <trkpt lat="42.78595" lon="2.74842">
        <ele>161.19999694824</ele>
        <time>2025-08-04T08:00:39.000Z</time>
      </trkpt>
      <trkpt lat="42.78595" lon="2.7484">
        <ele>161.39999389648</ele>
        <time>2025-08-04T08:00:40.000Z</time>
      </trkpt>
      <trkpt lat="42.78592" lon="2.7483">
        <ele>161.80000305176</ele>
        <time>2025-08-04T08:00:44.000Z</time>
      </trkpt>
      <trkpt lat="42.78591" lon="2.74825">
        <ele>162</ele>
        <time>2025-08-04T08:00:46.000Z</time>
      </trkpt>
      <trkpt lat="42.78591" lon="2.74823">
        <ele>162.19999694824</ele>
        <time>2025-08-04T08:00:47.000Z</time>
      </trkpt>
      <trkpt lat="42.78588" lon="2.74805">
        <ele>162.60000610352</ele>
        <time>2025-08-04T08:00:53.000Z</time>
      </trkpt>
      <trkpt lat="42.78589" lon="2.74781">
        <ele>163.19999694824</ele>
        <time>2025-08-04T08:01:00.000Z</time>
      </trkpt>
      <trkpt lat="42.78593" lon="2.74765">
        <ele>164.19999694824</ele>
        <time>2025-08-04T08:01:06.000Z</time>
      </trkpt>
      <trkpt lat="42.78595" lon="2.74757">
        <ele>164.60000610352</ele>
        <time>2025-08-04T08:01:09.000Z</time>
      </trkpt>
      <trkpt lat="42.78602" lon="2.74744">
        <ele>165.19999694824</ele>
        <time>2025-08-04T08:01:14.000Z</time>
      </trkpt>
      <trkpt lat="42.78605" lon="2.74736">
        <ele>165.80000305176</ele>
        <time>2025-08-04T08:01:17.000Z</time>
      </trkpt>
      <trkpt lat="42.78608" lon="2.74728">
        <ele>166.39999389648</ele>
        <time>2025-08-04T08:01:20.000Z</time>
      </trkpt>
      <trkpt lat="42.78611" lon="2.74713">
        <ele>167</ele>
        <time>2025-08-04T08:01:25.000Z</time>
      </trkpt>
      <trkpt lat="42.78612" lon="2.74704">
        <ele>167.39999389648</ele>
        <time>2025-08-04T08:01:28.000Z</time>
      </trkpt>
      <trkpt lat="42.78611" lon="2.74686">
        <ele>168</ele>
        <time>2025-08-04T08:01:34.000Z</time>
      </trkpt>
      <trkpt lat="42.78609" lon="2.74675">
        <ele>168.60000610352</ele>
        <time>2025-08-04T08:01:38.000Z</time>
      </trkpt>
      <trkpt lat="42.78607" lon="2.74663">
        <ele>169</ele>
        <time>2025-08-04T08:01:42.000Z</time>
      </trkpt>
      <trkpt lat="42.78603" lon="2.74645">
        <ele>169.39999389648</ele>
        <time>2025-08-04T08:01:48.000Z</time>
      </trkpt>
      <trkpt lat="42.78598" lon="2.74634">
        <ele>169.60000610352</ele>
        <time>2025-08-04T08:01:53.000Z</time>
      </trkpt>
      <trkpt lat="42.7859" lon="2.74615">
        <ele>170.39999389648</ele>
        <time>2025-08-04T08:02:01.000Z</time>
      </trkpt>
      <trkpt lat="42.78589" lon="2.74613">
        <ele>170.60000610352</ele>
        <time>2025-08-04T08:02:02.000Z</time>
      </trkpt>
      <trkpt lat="42.78578" lon="2.74588">
        <ele>171.39999389648</ele>
        <time>2025-08-04T08:02:12.000Z</time>
      </trkpt>
      <trkpt lat="42.78566" lon="2.74563">
        <ele>172.60000610352</ele>
        <time>2025-08-04T08:02:22.000Z</time>
      </trkpt>
      <trkpt lat="42.78565" lon="2.74561">
        <ele>172.80000305176</ele>
        <time>2025-08-04T08:02:23.000Z</time>
      </trkpt>
      <trkpt lat="42.78562" lon="2.74552">
        <ele>173.19999694824</ele>
        <time>2025-08-04T08:02:27.000Z</time>
      </trkpt>
      <trkpt lat="42.78562" lon="2.74549">
        <ele>173.39999389648</ele>
        <time>2025-08-04T08:02:29.000Z</time>
      </trkpt>
      <trkpt lat="42.78561" lon="2.74547">
        <ele>173.60000610352</ele>
        <time>2025-08-04T08:02:32.000Z</time>
      </trkpt>
      <trkpt lat="42.78562" lon="2.74539">
        <ele>173.19999694824</ele>
        <time>2025-08-04T08:04:31.000Z</time>
      </trkpt>
      <trkpt lat="42.78568" lon="2.74526">
        <ele>173.39999389648</ele>
        <time>2025-08-04T08:04:36.000Z</time>
      </trkpt>
      <trkpt lat="42.78573" lon="2.74519">
        <ele>173.80000305176</ele>
        <time>2025-08-04T08:04:39.000Z</time>
      </trkpt>
      <trkpt lat="42.7858" lon="2.74508">
        <ele>174.39999389648</ele>
        <time>2025-08-04T08:04:44.000Z</time>
      </trkpt>
      <trkpt lat="42.78585" lon="2.74499">
        <ele>175</ele>
        <time>2025-08-04T08:04:48.000Z</time>
      </trkpt>
      <trkpt lat="42.78589" lon="2.74491">
        <ele>175.39999389648</ele>
        <time>2025-08-04T08:04:52.000Z</time>
      </trkpt>
      <trkpt lat="42.78592" lon="2.74485">
        <ele>175.60000610352</ele>
        <time>2025-08-04T08:04:55.000Z</time>
      </trkpt>
      <trkpt lat="42.78603" lon="2.74471">
        <ele>176.39999389648</ele>
        <time>2025-08-04T08:05:03.000Z</time>
      </trkpt>
      <trkpt lat="42.78616" lon="2.74457">
        <ele>177</ele>
        <time>2025-08-04T08:05:11.000Z</time>
      </trkpt>
      <trkpt lat="42.78624" lon="2.74453">
        <ele>177.39999389648</ele>
        <time>2025-08-04T08:05:15.000Z</time>
      </trkpt>
      <trkpt lat="42.78631" lon="2.74448">
        <ele>178</ele>
        <time>2025-08-04T08:05:19.000Z</time>
      </trkpt>
      <trkpt lat="42.78642" lon="2.74442">
        <ele>178.60000610352</ele>
        <time>2025-08-04T08:05:25.000Z</time>
      </trkpt>
      <trkpt lat="42.78646" lon="2.74441">
        <ele>178.80000305176</ele>
        <time>2025-08-04T08:05:27.000Z</time>
      </trkpt>
      <trkpt lat="42.78662" lon="2.74432">
        <ele>179.60000610352</ele>
        <time>2025-08-04T08:05:35.000Z</time>
      </trkpt>
      <trkpt lat="42.78664" lon="2.7443">
        <ele>179.60000610352</ele>
        <time>2025-08-04T08:05:36.000Z</time>
      </trkpt>
      <trkpt lat="42.78678" lon="2.74424">
        <ele>180.39999389648</ele>
        <time>2025-08-04T08:05:43.000Z</time>
      </trkpt>
      <trkpt lat="42.78687" lon="2.74421">
        <ele>180.60000610352</ele>
        <time>2025-08-04T08:05:47.000Z</time>
      </trkpt>
      <trkpt lat="42.78691" lon="2.74419">
        <ele>180.80000305176</ele>
        <time>2025-08-04T08:05:49.000Z</time>
      </trkpt>
      <trkpt lat="42.78706" lon="2.74418">
        <ele>181.60000610352</ele>
        <time>2025-08-04T08:05:56.000Z</time>
      </trkpt>
      <trkpt lat="42.7871" lon="2.74418">
        <ele>181.80000305176</ele>
        <time>2025-08-04T08:05:58.000Z</time>
      </trkpt>
      <trkpt lat="42.78729" lon="2.74418">
        <ele>182.60000610352</ele>
        <time>2025-08-04T08:06:07.000Z</time>
      </trkpt>
      <trkpt lat="42.78733" lon="2.74418">
        <ele>182.80000305176</ele>
        <time>2025-08-04T08:06:09.000Z</time>
      </trkpt>
      <trkpt lat="42.78749" lon="2.74419">
        <ele>183.60000610352</ele>
        <time>2025-08-04T08:06:16.000Z</time>
      </trkpt>
      <trkpt lat="42.78753" lon="2.74419">
        <ele>184</ele>
        <time>2025-08-04T08:06:18.000Z</time>
      </trkpt>
      <trkpt lat="42.78773" lon="2.74421">
        <ele>184.80000305176</ele>
        <time>2025-08-04T08:06:26.000Z</time>
      </trkpt>
      <trkpt lat="42.78789" lon="2.74414">
        <ele>186</ele>
        <time>2025-08-04T08:06:33.000Z</time>
      </trkpt>
      <trkpt lat="42.78791" lon="2.74413">
        <ele>186.19999694824</ele>
        <time>2025-08-04T08:06:34.000Z</time>
      </trkpt>
      <trkpt lat="42.78806" lon="2.74397">
        <ele>186.80000305176</ele>
        <time>2025-08-04T08:06:42.000Z</time>
      </trkpt>
      <trkpt lat="42.78809" lon="2.74392">
        <ele>187.19999694824</ele>
        <time>2025-08-04T08:06:44.000Z</time>
      </trkpt>
      <trkpt lat="42.78818" lon="2.74376">
        <ele>188.39999389648</ele>
        <time>2025-08-04T08:06:51.000Z</time>
      </trkpt>
      <trkpt lat="42.78825" lon="2.7436">
        <ele>189.39999389648</ele>
        <time>2025-08-04T08:06:57.000Z</time>
      </trkpt>
      <trkpt lat="42.78831" lon="2.7435">
        <ele>190</ele>
        <time>2025-08-04T08:07:01.000Z</time>
      </trkpt>
      <trkpt lat="42.78837" lon="2.7434">
        <ele>190.39999389648</ele>
        <time>2025-08-04T08:07:05.000Z</time>
      </trkpt>
      <trkpt lat="42.78846" lon="2.74323">
        <ele>191.39999389648</ele>
        <time>2025-08-04T08:07:12.000Z</time>
      </trkpt>
      <trkpt lat="42.78849" lon="2.74319">
        <ele>191.60000610352</ele>
        <time>2025-08-04T08:07:14.000Z</time>
      </trkpt>
      <trkpt lat="42.78861" lon="2.74299">
        <ele>192.60000610352</ele>
        <time>2025-08-04T08:07:23.000Z</time>
      </trkpt>
      <trkpt lat="42.7887" lon="2.7428">
        <ele>193.60000610352</ele>
        <time>2025-08-04T08:07:31.000Z</time>
      </trkpt>
      <trkpt lat="42.78871" lon="2.74278">
        <ele>193.80000305176</ele>
        <time>2025-08-04T08:07:32.000Z</time>
      </trkpt>
      <trkpt lat="42.7888" lon="2.74262">
        <ele>194.60000610352</ele>
        <time>2025-08-04T08:07:39.000Z</time>
      </trkpt>
      <trkpt lat="42.78881" lon="2.7426">
        <ele>194.80000305176</ele>
        <time>2025-08-04T08:07:40.000Z</time>
      </trkpt>
      <trkpt lat="42.78891" lon="2.7424">
        <ele>195.60000610352</ele>
        <time>2025-08-04T08:07:48.000Z</time>
      </trkpt>
      <trkpt lat="42.78893" lon="2.74236">
        <ele>195.80000305176</ele>
        <time>2025-08-04T08:07:50.000Z</time>
      </trkpt>
      <trkpt lat="42.789" lon="2.74222">
        <ele>196.60000610352</ele>
        <time>2025-08-04T08:07:56.000Z</time>
      </trkpt>
      <trkpt lat="42.78903" lon="2.74214">
        <ele>196.80000305176</ele>
        <time>2025-08-04T08:07:59.000Z</time>
      </trkpt>
      <trkpt lat="42.7891" lon="2.74197">
        <ele>197.60000610352</ele>
        <time>2025-08-04T08:08:06.000Z</time>
      </trkpt>
      <trkpt lat="42.78913" lon="2.74186">
        <ele>198</ele>
        <time>2025-08-04T08:08:10.000Z</time>
      </trkpt>
      <trkpt lat="42.78914" lon="2.74179">
        <ele>198.39999389648</ele>
        <time>2025-08-04T08:08:13.000Z</time>
      </trkpt>
      <trkpt lat="42.7891" lon="2.74173">
        <ele>198.60000610352</ele>
        <time>2025-08-04T08:08:16.000Z</time>
      </trkpt>
      <trkpt lat="42.78911" lon="2.74171">
        <ele>199</ele>
        <time>2025-08-04T08:08:17.000Z</time>
      </trkpt>
      <trkpt lat="42.78912" lon="2.74169">
        <ele>199</ele>
        <time>2025-08-04T08:08:18.000Z</time>
      </trkpt>
      <trkpt lat="42.78911" lon="2.74165">
        <ele>199.19999694824</ele>
        <time>2025-08-04T08:08:20.000Z</time>
      </trkpt>
      <trkpt lat="42.78909" lon="2.74163">
        <ele>199.19999694824</ele>
        <time>2025-08-04T08:08:21.000Z</time>
      </trkpt>
      <trkpt lat="42.78909" lon="2.74161">
        <ele>199.39999389648</ele>
        <time>2025-08-04T08:08:22.000Z</time>
      </trkpt>
      <trkpt lat="42.7891" lon="2.74155">
        <ele>200</ele>
        <time>2025-08-04T08:08:25.000Z</time>
      </trkpt>
      <trkpt lat="42.78909" lon="2.74153">
        <ele>200</ele>
        <time>2025-08-04T08:08:26.000Z</time>
      </trkpt>
      <trkpt lat="42.78907" lon="2.74149">
        <ele>200.39999389648</ele>
        <time>2025-08-04T08:08:28.000Z</time>
      </trkpt>
      <trkpt lat="42.78907" lon="2.74147">
        <ele>200.60000610352</ele>
        <time>2025-08-04T08:08:29.000Z</time>
      </trkpt>
      <trkpt lat="42.78908" lon="2.74142">
        <ele>201</ele>
        <time>2025-08-04T08:08:31.000Z</time>
      </trkpt>
      <trkpt lat="42.78908" lon="2.7414">
        <ele>201.19999694824</ele>
        <time>2025-08-04T08:08:32.000Z</time>
      </trkpt>
      <trkpt lat="42.78908" lon="2.74134">
        <ele>201.80000305176</ele>
        <time>2025-08-04T08:08:35.000Z</time>
      </trkpt>
      <trkpt lat="42.78908" lon="2.74132">
        <ele>202.19999694824</ele>
        <time>2025-08-04T08:08:36.000Z</time>
      </trkpt>
      <trkpt lat="42.78905" lon="2.74123">
        <ele>203.19999694824</ele>
        <time>2025-08-04T08:08:41.000Z</time>
      </trkpt>
      <trkpt lat="42.78902" lon="2.74114">
        <ele>204.39999389648</ele>
        <time>2025-08-04T08:08:46.000Z</time>
      </trkpt>
      <trkpt lat="42.78902" lon="2.74109">
        <ele>204.60000610352</ele>
        <time>2025-08-04T08:08:48.000Z</time>
      </trkpt>
      <trkpt lat="42.78899" lon="2.741">
        <ele>205.39999389648</ele>
        <time>2025-08-04T08:08:52.000Z</time>
      </trkpt>
      <trkpt lat="42.78897" lon="2.7409">
        <ele>206</ele>
        <time>2025-08-04T08:08:56.000Z</time>
      </trkpt>
      <trkpt lat="42.78894" lon="2.74081">
        <ele>206.39999389648</ele>
        <time>2025-08-04T08:08:59.000Z</time>
      </trkpt>
      <trkpt lat="42.78891" lon="2.74065">
        <ele>207</ele>
        <time>2025-08-04T08:09:04.000Z</time>
      </trkpt>
      <trkpt lat="42.78891" lon="2.74062">
        <ele>207.19999694824</ele>
        <time>2025-08-04T08:09:05.000Z</time>
      </trkpt>
      <trkpt lat="42.78891" lon="2.74052">
        <ele>207.39999389648</ele>
        <time>2025-08-04T08:09:08.000Z</time>
      </trkpt>
      <trkpt lat="42.78891" lon="2.74038">
        <ele>207.60000610352</ele>
        <time>2025-08-04T08:09:12.000Z</time>
      </trkpt>
      <trkpt lat="42.78891" lon="2.74014">
        <ele>208</ele>
        <time>2025-08-04T08:09:19.000Z</time>
      </trkpt>
      <trkpt lat="42.78894" lon="2.73989">
        <ele>208.39999389648</ele>
        <time>2025-08-04T08:09:26.000Z</time>
      </trkpt>
      <trkpt lat="42.78897" lon="2.73955">
        <ele>208.39999389648</ele>
        <time>2025-08-04T08:09:34.000Z</time>
      </trkpt>
      <trkpt lat="42.78898" lon="2.73951">
        <ele>208.39999389648</ele>
        <time>2025-08-04T08:09:35.000Z</time>
      </trkpt>
      <trkpt lat="42.78901" lon="2.73921">
        <ele>208.39999389648</ele>
        <time>2025-08-04T08:09:41.000Z</time>
      </trkpt>
      <trkpt lat="42.78907" lon="2.7388">
        <ele>208.19999694824</ele>
        <time>2025-08-04T08:09:49.000Z</time>
      </trkpt>
      <trkpt lat="42.78908" lon="2.73848">
        <ele>208.19999694824</ele>
        <time>2025-08-04T08:09:56.000Z</time>
      </trkpt>
      <trkpt lat="42.7891" lon="2.73822">
        <ele>208</ele>
        <time>2025-08-04T08:10:02.000Z</time>
      </trkpt>
      <trkpt lat="42.78913" lon="2.73783">
        <ele>207.80000305176</ele>
        <time>2025-08-04T08:10:10.000Z</time>
      </trkpt>
      <trkpt lat="42.78917" lon="2.73738">
        <ele>207.80000305176</ele>
        <time>2025-08-04T08:10:20.000Z</time>
      </trkpt>
      <trkpt lat="42.78921" lon="2.73692">
        <ele>207.60000610352</ele>
        <time>2025-08-04T08:10:30.000Z</time>
      </trkpt>
      <trkpt lat="42.78923" lon="2.73656">
        <ele>207.60000610352</ele>
        <time>2025-08-04T08:10:38.000Z</time>
      </trkpt>
      <trkpt lat="42.78927" lon="2.73613">
        <ele>207.39999389648</ele>
        <time>2025-08-04T08:10:47.000Z</time>
      </trkpt>
      <trkpt lat="42.78928" lon="2.73599">
        <ele>207.39999389648</ele>
        <time>2025-08-04T08:10:50.000Z</time>
      </trkpt>
      <trkpt lat="42.78928" lon="2.73571">
        <ele>207.19999694824</ele>
        <time>2025-08-04T08:10:56.000Z</time>
      </trkpt>
      <trkpt lat="42.78924" lon="2.73531">
        <ele>207</ele>
        <time>2025-08-04T08:11:04.000Z</time>
      </trkpt>
      <trkpt lat="42.7892" lon="2.73502">
        <ele>206.80000305176</ele>
        <time>2025-08-04T08:11:09.000Z</time>
      </trkpt>
      <trkpt lat="42.78919" lon="2.73489">
        <ele>206.60000610352</ele>
        <time>2025-08-04T08:11:11.000Z</time>
      </trkpt>
      <trkpt lat="42.7892" lon="2.73483">
        <ele>206.39999389648</ele>
        <time>2025-08-04T08:11:12.000Z</time>
      </trkpt>
      <trkpt lat="42.78926" lon="2.73455">
        <ele>205.80000305176</ele>
        <time>2025-08-04T08:11:16.000Z</time>
      </trkpt>
      <trkpt lat="42.78928" lon="2.73449">
        <ele>205.60000610352</ele>
        <time>2025-08-04T08:11:17.000Z</time>
      </trkpt>
      <trkpt lat="42.78934" lon="2.73438">
        <ele>205.39999389648</ele>
        <time>2025-08-04T08:11:19.000Z</time>
      </trkpt>
      <trkpt lat="42.78937" lon="2.73434">
        <ele>205.19999694824</ele>
        <time>2025-08-04T08:11:20.000Z</time>
      </trkpt>
      <trkpt lat="42.78941" lon="2.73431">
        <ele>205.19999694824</ele>
        <time>2025-08-04T08:11:21.000Z</time>
      </trkpt>
      <trkpt lat="42.78952" lon="2.73427">
        <ele>205</ele>
        <time>2025-08-04T08:11:23.000Z</time>
      </trkpt>
      <trkpt lat="42.78957" lon="2.73427">
        <ele>204.80000305176</ele>
        <time>2025-08-04T08:11:24.000Z</time>
      </trkpt>
      <trkpt lat="42.78975" lon="2.7343">
        <ele>203.80000305176</ele>
        <time>2025-08-04T08:11:27.000Z</time>
      </trkpt>
      <trkpt lat="42.7899" lon="2.73426">
        <ele>203.19999694824</ele>
        <time>2025-08-04T08:11:30.000Z</time>
      </trkpt>
      <trkpt lat="42.79" lon="2.7342">
        <ele>202.80000305176</ele>
        <time>2025-08-04T08:11:32.000Z</time>
      </trkpt>
      <trkpt lat="42.79005" lon="2.73416">
        <ele>202.60000610352</ele>
        <time>2025-08-04T08:11:33.000Z</time>
      </trkpt>
      <trkpt lat="42.79015" lon="2.73407">
        <ele>202.19999694824</ele>
        <time>2025-08-04T08:11:35.000Z</time>
      </trkpt>
      <trkpt lat="42.79019" lon="2.73402">
        <ele>202</ele>
        <time>2025-08-04T08:11:36.000Z</time>
      </trkpt>
      <trkpt lat="42.79026" lon="2.73388">
        <ele>201.60000610352</ele>
        <time>2025-08-04T08:11:38.000Z</time>
      </trkpt>
      <trkpt lat="42.79029" lon="2.7338">
        <ele>201.39999389648</ele>
        <time>2025-08-04T08:11:39.000Z</time>
      </trkpt>
      <trkpt lat="42.79039" lon="2.73346">
        <ele>200.60000610352</ele>
        <time>2025-08-04T08:11:43.000Z</time>
      </trkpt>
      <trkpt lat="42.79046" lon="2.73321">
        <ele>200</ele>
        <time>2025-08-04T08:11:46.000Z</time>
      </trkpt>
      <trkpt lat="42.79053" lon="2.7331">
        <ele>199.39999389648</ele>
        <time>2025-08-04T08:11:48.000Z</time>
      </trkpt>
      <trkpt lat="42.79058" lon="2.73307">
        <ele>199.19999694824</ele>
        <time>2025-08-04T08:11:49.000Z</time>
      </trkpt>
      <trkpt lat="42.79063" lon="2.73307">
        <ele>198.80000305176</ele>
        <time>2025-08-04T08:11:50.000Z</time>
      </trkpt>
      <trkpt lat="42.79068" lon="2.7331">
        <ele>198.60000610352</ele>
        <time>2025-08-04T08:11:51.000Z</time>
      </trkpt>
      <trkpt lat="42.79072" lon="2.73315">
        <ele>198.39999389648</ele>
        <time>2025-08-04T08:11:52.000Z</time>
      </trkpt>
      <trkpt lat="42.79076" lon="2.7332">
        <ele>198</ele>
        <time>2025-08-04T08:11:53.000Z</time>
      </trkpt>
      <trkpt lat="42.79079" lon="2.73327">
        <ele>197.80000305176</ele>
        <time>2025-08-04T08:11:54.000Z</time>
      </trkpt>
      <trkpt lat="42.79092" lon="2.73355">
        <ele>197</ele>
        <time>2025-08-04T08:11:58.000Z</time>
      </trkpt>
      <trkpt lat="42.791" lon="2.73368">
        <ele>196.60000610352</ele>
        <time>2025-08-04T08:12:00.000Z</time>
      </trkpt>
      <trkpt lat="42.79104" lon="2.73376">
        <ele>196.60000610352</ele>
        <time>2025-08-04T08:12:01.000Z</time>
      </trkpt>
      <trkpt lat="42.79114" lon="2.73398">
        <ele>195.80000305176</ele>
        <time>2025-08-04T08:12:04.000Z</time>
      </trkpt>
      <trkpt lat="42.79123" lon="2.73421">
        <ele>195</ele>
        <time>2025-08-04T08:12:07.000Z</time>
      </trkpt>
      <trkpt lat="42.79127" lon="2.73427">
        <ele>194.80000305176</ele>
        <time>2025-08-04T08:12:08.000Z</time>
      </trkpt>
      <trkpt lat="42.79132" lon="2.73431">
        <ele>194.19999694824</ele>
        <time>2025-08-04T08:12:09.000Z</time>
      </trkpt>
      <trkpt lat="42.79143" lon="2.73433">
        <ele>193.60000610352</ele>
        <time>2025-08-04T08:12:11.000Z</time>
      </trkpt>
      <trkpt lat="42.79152" lon="2.73423">
        <ele>193.19999694824</ele>
        <time>2025-08-04T08:12:13.000Z</time>
      </trkpt>
      <trkpt lat="42.79154" lon="2.73416">
        <ele>192.80000305176</ele>
        <time>2025-08-04T08:12:14.000Z</time>
      </trkpt>
      <trkpt lat="42.79154" lon="2.73408">
        <ele>192.39999389648</ele>
        <time>2025-08-04T08:12:15.000Z</time>
      </trkpt>
      <trkpt lat="42.79153" lon="2.73393">
        <ele>192</ele>
        <time>2025-08-04T08:12:17.000Z</time>
      </trkpt>
      <trkpt lat="42.79151" lon="2.73386">
        <ele>191.80000305176</ele>
        <time>2025-08-04T08:12:18.000Z</time>
      </trkpt>
      <trkpt lat="42.79147" lon="2.73365">
        <ele>191.60000610352</ele>
        <time>2025-08-04T08:12:21.000Z</time>
      </trkpt>
      <trkpt lat="42.79139" lon="2.73341">
        <ele>191.19999694824</ele>
        <time>2025-08-04T08:12:25.000Z</time>
      </trkpt>
      <trkpt lat="42.79138" lon="2.73321">
        <ele>191</ele>
        <time>2025-08-04T08:12:28.000Z</time>
      </trkpt>
      <trkpt lat="42.79139" lon="2.73315">
        <ele>191</ele>
        <time>2025-08-04T08:12:29.000Z</time>
      </trkpt>
      <trkpt lat="42.79141" lon="2.73309">
        <ele>190.80000305176</ele>
        <time>2025-08-04T08:12:30.000Z</time>
      </trkpt>
      <trkpt lat="42.79152" lon="2.73289">
        <ele>190.60000610352</ele>
        <time>2025-08-04T08:12:34.000Z</time>
      </trkpt>
      <trkpt lat="42.79156" lon="2.73284">
        <ele>190.39999389648</ele>
        <time>2025-08-04T08:12:35.000Z</time>
      </trkpt>
      <trkpt lat="42.7916" lon="2.7328">
        <ele>190.39999389648</ele>
        <time>2025-08-04T08:12:36.000Z</time>
      </trkpt>
      <trkpt lat="42.79168" lon="2.73275">
        <ele>190.39999389648</ele>
        <time>2025-08-04T08:12:38.000Z</time>
      </trkpt>
      <trkpt lat="42.79172" lon="2.73274">
        <ele>190.19999694824</ele>
        <time>2025-08-04T08:12:39.000Z</time>
      </trkpt>
      <trkpt lat="42.79177" lon="2.73274">
        <ele>190.19999694824</ele>
        <time>2025-08-04T08:12:40.000Z</time>
      </trkpt>
      <trkpt lat="42.79186" lon="2.73279">
        <ele>190.19999694824</ele>
        <time>2025-08-04T08:12:42.000Z</time>
      </trkpt>
      <trkpt lat="42.79189" lon="2.73283">
        <ele>190.19999694824</ele>
        <time>2025-08-04T08:12:43.000Z</time>
      </trkpt>
      <trkpt lat="42.79192" lon="2.73289">
        <ele>190</ele>
        <time>2025-08-04T08:12:44.000Z</time>
      </trkpt>
      <trkpt lat="42.792" lon="2.73306">
        <ele>189.80000305176</ele>
        <time>2025-08-04T08:12:47.000Z</time>
      </trkpt>
      <trkpt lat="42.79203" lon="2.73311">
        <ele>189.60000610352</ele>
        <time>2025-08-04T08:12:48.000Z</time>
      </trkpt>
      <trkpt lat="42.7921" lon="2.7332">
        <ele>189.60000610352</ele>
        <time>2025-08-04T08:12:50.000Z</time>
      </trkpt>
      <trkpt lat="42.79214" lon="2.73323">
        <ele>189.39999389648</ele>
        <time>2025-08-04T08:12:51.000Z</time>
      </trkpt>
      <trkpt lat="42.79219" lon="2.73323">
        <ele>189.39999389648</ele>
        <time>2025-08-04T08:12:52.000Z</time>
      </trkpt>
      <trkpt lat="42.79227" lon="2.73319">
        <ele>189.39999389648</ele>
        <time>2025-08-04T08:12:54.000Z</time>
      </trkpt>
      <trkpt lat="42.79231" lon="2.73314">
        <ele>189.39999389648</ele>
        <time>2025-08-04T08:12:55.000Z</time>
      </trkpt>
      <trkpt lat="42.79233" lon="2.73309">
        <ele>189.39999389648</ele>
        <time>2025-08-04T08:12:56.000Z</time>
      </trkpt>
      <trkpt lat="42.79234" lon="2.73298">
        <ele>189.39999389648</ele>
        <time>2025-08-04T08:12:58.000Z</time>
      </trkpt>
      <trkpt lat="42.79231" lon="2.73261">
        <ele>189.39999389648</ele>
        <time>2025-08-04T08:13:05.000Z</time>
      </trkpt>
      <trkpt lat="42.79228" lon="2.73225">
        <ele>189.60000610352</ele>
        <time>2025-08-04T08:13:12.000Z</time>
      </trkpt>
      <trkpt lat="42.79231" lon="2.73201">
        <ele>189.80000305176</ele>
        <time>2025-08-04T08:13:17.000Z</time>
      </trkpt>
      <trkpt lat="42.79243" lon="2.73191">
        <ele>190.19999694824</ele>
        <time>2025-08-04T08:13:21.000Z</time>
      </trkpt>
      <trkpt lat="42.7926" lon="2.73184">
        <ele>190.60000610352</ele>
        <time>2025-08-04T08:13:26.000Z</time>
      </trkpt>
      <trkpt lat="42.79277" lon="2.73177">
        <ele>190.80000305176</ele>
        <time>2025-08-04T08:13:31.000Z</time>
      </trkpt>
      <trkpt lat="42.793" lon="2.73159">
        <ele>191.60000610352</ele>
        <time>2025-08-04T08:13:39.000Z</time>
      </trkpt>
      <trkpt lat="42.79301" lon="2.73144">
        <ele>191.80000305176</ele>
        <time>2025-08-04T08:13:42.000Z</time>
      </trkpt>
      <trkpt lat="42.79299" lon="2.7314">
        <ele>191.80000305176</ele>
        <time>2025-08-04T08:13:43.000Z</time>
      </trkpt>
      <trkpt lat="42.79292" lon="2.73129">
        <ele>192.19999694824</ele>
        <time>2025-08-04T08:13:47.000Z</time>
      </trkpt>
      <trkpt lat="42.79282" lon="2.7312">
        <ele>192.60000610352</ele>
        <time>2025-08-04T08:13:51.000Z</time>
      </trkpt>
      <trkpt lat="42.79278" lon="2.73114">
        <ele>192.80000305176</ele>
        <time>2025-08-04T08:13:53.000Z</time>
      </trkpt>
      <trkpt lat="42.79269" lon="2.73092">
        <ele>193.39999389648</ele>
        <time>2025-08-04T08:14:00.000Z</time>
      </trkpt>
      <trkpt lat="42.79268" lon="2.73082">
        <ele>193.60000610352</ele>
        <time>2025-08-04T08:14:03.000Z</time>
      </trkpt>
      <trkpt lat="42.79269" lon="2.73065">
        <ele>194</ele>
        <time>2025-08-04T08:14:08.000Z</time>
      </trkpt>
      <trkpt lat="42.79271" lon="2.73042">
        <ele>194.60000610352</ele>
        <time>2025-08-04T08:14:15.000Z</time>
      </trkpt>
      <trkpt lat="42.79271" lon="2.73039">
        <ele>194.80000305176</ele>
        <time>2025-08-04T08:14:16.000Z</time>
      </trkpt>
      <trkpt lat="42.79278" lon="2.7301">
        <ele>195.80000305176</ele>
        <time>2025-08-04T08:14:25.000Z</time>
      </trkpt>
      <trkpt lat="42.7929" lon="2.73">
        <ele>196.39999389648</ele>
        <time>2025-08-04T08:14:31.000Z</time>
      </trkpt>
      <trkpt lat="42.79307" lon="2.72987">
        <ele>196.80000305176</ele>
        <time>2025-08-04T08:14:39.000Z</time>
      </trkpt>
      <trkpt lat="42.79314" lon="2.7296">
        <ele>197.80000305176</ele>
        <time>2025-08-04T08:14:47.000Z</time>
      </trkpt>
      <trkpt lat="42.79316" lon="2.7295">
        <ele>198.19999694824</ele>
        <time>2025-08-04T08:14:50.000Z</time>
      </trkpt>
      <trkpt lat="42.79318" lon="2.72925">
        <ele>198.60000610352</ele>
        <time>2025-08-04T08:14:57.000Z</time>
      </trkpt>
      <trkpt lat="42.79319" lon="2.72907">
        <ele>199.19999694824</ele>
        <time>2025-08-04T08:15:02.000Z</time>
      </trkpt>
      <trkpt lat="42.79318" lon="2.72896">
        <ele>199.19999694824</ele>
        <time>2025-08-04T08:15:05.000Z</time>
      </trkpt>
      <trkpt lat="42.79318" lon="2.72865">
        <ele>199.80000305176</ele>
        <time>2025-08-04T08:15:14.000Z</time>
      </trkpt>
      <trkpt lat="42.79317" lon="2.72851">
        <ele>200</ele>
        <time>2025-08-04T08:15:18.000Z</time>
      </trkpt>
      <trkpt lat="42.79317" lon="2.7284">
        <ele>200.19999694824</ele>
        <time>2025-08-04T08:15:21.000Z</time>
      </trkpt>
      <trkpt lat="42.79317" lon="2.72816">
        <ele>201</ele>
        <time>2025-08-04T08:15:28.000Z</time>
      </trkpt>
      <trkpt lat="42.79317" lon="2.72812">
        <ele>201</ele>
        <time>2025-08-04T08:15:29.000Z</time>
      </trkpt>
      <trkpt lat="42.79316" lon="2.72787">
        <ele>201.80000305176</ele>
        <time>2025-08-04T08:15:36.000Z</time>
      </trkpt>
      <trkpt lat="42.79316" lon="2.72769">
        <ele>202.19999694824</ele>
        <time>2025-08-04T08:15:41.000Z</time>
      </trkpt>
      <trkpt lat="42.79317" lon="2.72762">
        <ele>202.19999694824</ele>
        <time>2025-08-04T08:15:43.000Z</time>
      </trkpt>
      <trkpt lat="42.79322" lon="2.72733">
        <ele>202.60000610352</ele>
        <time>2025-08-04T08:15:51.000Z</time>
      </trkpt>
      <trkpt lat="42.79332" lon="2.72709">
        <ele>202.60000610352</ele>
        <time>2025-08-04T08:15:58.000Z</time>
      </trkpt>
      <trkpt lat="42.79345" lon="2.72697">
        <ele>202.39999389648</ele>
        <time>2025-08-04T08:16:03.000Z</time>
      </trkpt>
      <trkpt lat="42.79366" lon="2.72688">
        <ele>201.80000305176</ele>
        <time>2025-08-04T08:16:10.000Z</time>
      </trkpt>
      <trkpt lat="42.79388" lon="2.72691">
        <ele>201.39999389648</ele>
        <time>2025-08-04T08:16:16.000Z</time>
      </trkpt>
      <trkpt lat="42.79397" lon="2.72685">
        <ele>201.39999389648</ele>
        <time>2025-08-04T08:16:18.000Z</time>
      </trkpt>
      <trkpt lat="42.794" lon="2.72681">
        <ele>201.19999694824</ele>
        <time>2025-08-04T08:16:19.000Z</time>
      </trkpt>
      <trkpt lat="42.79402" lon="2.72675">
        <ele>201</ele>
        <time>2025-08-04T08:16:20.000Z</time>
      </trkpt>
      <trkpt lat="42.79405" lon="2.72663">
        <ele>200.39999389648</ele>
        <time>2025-08-04T08:16:22.000Z</time>
      </trkpt>
      <trkpt lat="42.79405" lon="2.72656">
        <ele>200.60000610352</ele>
        <time>2025-08-04T08:16:23.000Z</time>
      </trkpt>
      <trkpt lat="42.79405" lon="2.7265">
        <ele>200.19999694824</ele>
        <time>2025-08-04T08:16:24.000Z</time>
      </trkpt>
      <trkpt lat="42.79403" lon="2.72638">
        <ele>200.19999694824</ele>
        <time>2025-08-04T08:16:26.000Z</time>
      </trkpt>
      <trkpt lat="42.79401" lon="2.72632">
        <ele>200.19999694824</ele>
        <time>2025-08-04T08:16:27.000Z</time>
      </trkpt>
      <trkpt lat="42.794" lon="2.72626">
        <ele>200</ele>
        <time>2025-08-04T08:16:28.000Z</time>
      </trkpt>
      <trkpt lat="42.79399" lon="2.72619">
        <ele>200</ele>
        <time>2025-08-04T08:16:29.000Z</time>
      </trkpt>
      <trkpt lat="42.79397" lon="2.726">
        <ele>199.39999389648</ele>
        <time>2025-08-04T08:16:32.000Z</time>
      </trkpt>
      <trkpt lat="42.79398" lon="2.72593">
        <ele>199.19999694824</ele>
        <time>2025-08-04T08:16:33.000Z</time>
      </trkpt>
      <trkpt lat="42.79399" lon="2.72586">
        <ele>199</ele>
        <time>2025-08-04T08:16:34.000Z</time>
      </trkpt>
      <trkpt lat="42.79402" lon="2.7258">
        <ele>198.80000305176</ele>
        <time>2025-08-04T08:16:35.000Z</time>
      </trkpt>
      <trkpt lat="42.79405" lon="2.72575">
        <ele>198.80000305176</ele>
        <time>2025-08-04T08:16:36.000Z</time>
      </trkpt>
      <trkpt lat="42.79424" lon="2.72559">
        <ele>197.80000305176</ele>
        <time>2025-08-04T08:16:40.000Z</time>
      </trkpt>
      <trkpt lat="42.79434" lon="2.72551">
        <ele>197.39999389648</ele>
        <time>2025-08-04T08:16:42.000Z</time>
      </trkpt>
      <trkpt lat="42.79451" lon="2.72541">
        <ele>196.60000610352</ele>
        <time>2025-08-04T08:16:45.000Z</time>
      </trkpt>
      <trkpt lat="42.79462" lon="2.72533">
        <ele>196.19999694824</ele>
        <time>2025-08-04T08:16:47.000Z</time>
      </trkpt>
      <trkpt lat="42.79466" lon="2.72528">
        <ele>196</ele>
        <time>2025-08-04T08:16:48.000Z</time>
      </trkpt>
      <trkpt lat="42.79469" lon="2.72521">
        <ele>195.80000305176</ele>
        <time>2025-08-04T08:16:49.000Z</time>
      </trkpt>
      <trkpt lat="42.79469" lon="2.72512">
        <ele>195.60000610352</ele>
        <time>2025-08-04T08:16:50.000Z</time>
      </trkpt>
      <trkpt lat="42.79468" lon="2.72503">
        <ele>195.19999694824</ele>
        <time>2025-08-04T08:16:51.000Z</time>
      </trkpt>
      <trkpt lat="42.79466" lon="2.72486">
        <ele>194.60000610352</ele>
        <time>2025-08-04T08:16:53.000Z</time>
      </trkpt>
      <trkpt lat="42.79465" lon="2.72478">
        <ele>194.39999389648</ele>
        <time>2025-08-04T08:16:54.000Z</time>
      </trkpt>
      <trkpt lat="42.79465" lon="2.7247">
        <ele>194.19999694824</ele>
        <time>2025-08-04T08:16:55.000Z</time>
      </trkpt>
      <trkpt lat="42.79467" lon="2.72462">
        <ele>193.60000610352</ele>
        <time>2025-08-04T08:16:56.000Z</time>
      </trkpt>
      <trkpt lat="42.7947" lon="2.72456">
        <ele>193.39999389648</ele>
        <time>2025-08-04T08:16:57.000Z</time>
      </trkpt>
      <trkpt lat="42.79475" lon="2.7245">
        <ele>193</ele>
        <time>2025-08-04T08:16:58.000Z</time>
      </trkpt>
      <trkpt lat="42.7948" lon="2.72445">
        <ele>192.60000610352</ele>
        <time>2025-08-04T08:16:59.000Z</time>
      </trkpt>
      <trkpt lat="42.79491" lon="2.72438">
        <ele>191.80000305176</ele>
        <time>2025-08-04T08:17:01.000Z</time>
      </trkpt>
      <trkpt lat="42.79496" lon="2.72435">
        <ele>191.60000610352</ele>
        <time>2025-08-04T08:17:02.000Z</time>
      </trkpt>
      <trkpt lat="42.79504" lon="2.72433">
        <ele>190.80000305176</ele>
        <time>2025-08-04T08:17:04.000Z</time>
      </trkpt>
      <trkpt lat="42.79505" lon="2.72433">
        <ele>190.39999389648</ele>
        <time>2025-08-04T08:17:05.000Z</time>
      </trkpt>
      <trkpt lat="42.79506" lon="2.72433">
        <ele>189.80000305176</ele>
        <time>2025-08-04T08:17:06.000Z</time>
      </trkpt>
      <trkpt lat="42.79506" lon="2.72433">
        <ele>189.80000305176</ele>
        <time>2025-08-04T08:17:07.000Z</time>
      </trkpt>
      <trkpt lat="42.79508" lon="2.72432">
        <ele>189</ele>
        <time>2025-08-04T08:17:10.000Z</time>
      </trkpt>
      <trkpt lat="42.79509" lon="2.7243">
        <ele>188.80000305176</ele>
        <time>2025-08-04T08:17:12.000Z</time>
      </trkpt>
      <trkpt lat="42.79509" lon="2.7243">
        <ele>189</ele>
        <time>2025-08-04T08:17:13.000Z</time>
      </trkpt>
      <trkpt lat="42.79509" lon="2.7243">
        <ele>188.80000305176</ele>
        <time>2025-08-04T08:17:14.000Z</time>
      </trkpt>
      <trkpt lat="42.79519" lon="2.72443">
        <ele>188.80000305176</ele>
        <time>2025-08-04T08:26:51.000Z</time>
      </trkpt>
      <trkpt lat="42.79523" lon="2.72452">
        <ele>188.60000610352</ele>
        <time>2025-08-04T08:26:53.000Z</time>
      </trkpt>
      <trkpt lat="42.79534" lon="2.72471">
        <ele>188.19999694824</ele>
        <time>2025-08-04T08:26:57.000Z</time>
      </trkpt>
      <trkpt lat="42.79538" lon="2.72475">
        <ele>188</ele>
        <time>2025-08-04T08:26:58.000Z</time>
      </trkpt>
      <trkpt lat="42.79541" lon="2.72479">
        <ele>188</ele>
        <time>2025-08-04T08:26:59.000Z</time>
      </trkpt>
      <trkpt lat="42.79549" lon="2.72479">
        <ele>187.80000305176</ele>
        <time>2025-08-04T08:27:01.000Z</time>
      </trkpt>
      <trkpt lat="42.79553" lon="2.72477">
        <ele>187.60000610352</ele>
        <time>2025-08-04T08:27:02.000Z</time>
      </trkpt>
      <trkpt lat="42.79557" lon="2.72472">
        <ele>187.39999389648</ele>
        <time>2025-08-04T08:27:03.000Z</time>
      </trkpt>
      <trkpt lat="42.79559" lon="2.72466">
        <ele>187.39999389648</ele>
        <time>2025-08-04T08:27:04.000Z</time>
      </trkpt>
      <trkpt lat="42.79563" lon="2.72455">
        <ele>186.80000305176</ele>
        <time>2025-08-04T08:27:06.000Z</time>
      </trkpt>
      <trkpt lat="42.79566" lon="2.72449">
        <ele>186.60000610352</ele>
        <time>2025-08-04T08:27:07.000Z</time>
      </trkpt>
      <trkpt lat="42.7957" lon="2.72445">
        <ele>186.39999389648</ele>
        <time>2025-08-04T08:27:08.000Z</time>
      </trkpt>
      <trkpt lat="42.79574" lon="2.72442">
        <ele>186.19999694824</ele>
        <time>2025-08-04T08:27:09.000Z</time>
      </trkpt>
      <trkpt lat="42.79593" lon="2.72434">
        <ele>185.80000305176</ele>
        <time>2025-08-04T08:27:13.000Z</time>
      </trkpt>
      <trkpt lat="42.79599" lon="2.72433">
        <ele>185.19999694824</ele>
        <time>2025-08-04T08:27:14.000Z</time>
      </trkpt>
      <trkpt lat="42.79605" lon="2.72432">
        <ele>185</ele>
        <time>2025-08-04T08:27:15.000Z</time>
      </trkpt>
      <trkpt lat="42.79616" lon="2.72437">
        <ele>184.60000610352</ele>
        <time>2025-08-04T08:27:17.000Z</time>
      </trkpt>
      <trkpt lat="42.79619" lon="2.72442">
        <ele>184.39999389648</ele>
        <time>2025-08-04T08:27:18.000Z</time>
      </trkpt>
      <trkpt lat="42.79628" lon="2.72453">
        <ele>184</ele>
        <time>2025-08-04T08:27:20.000Z</time>
      </trkpt>
      <trkpt lat="42.79638" lon="2.72458">
        <ele>183.19999694824</ele>
        <time>2025-08-04T08:27:22.000Z</time>
      </trkpt>
      <trkpt lat="42.79644" lon="2.72457">
        <ele>182.80000305176</ele>
        <time>2025-08-04T08:27:23.000Z</time>
      </trkpt>
      <trkpt lat="42.7965" lon="2.72453">
        <ele>182.60000610352</ele>
        <time>2025-08-04T08:27:24.000Z</time>
      </trkpt>
      <trkpt lat="42.79656" lon="2.72449">
        <ele>182.39999389648</ele>
        <time>2025-08-04T08:27:25.000Z</time>
      </trkpt>
      <trkpt lat="42.79674" lon="2.72437">
        <ele>181.60000610352</ele>
        <time>2025-08-04T08:27:28.000Z</time>
      </trkpt>
      <trkpt lat="42.79684" lon="2.72429">
        <ele>181</ele>
        <time>2025-08-04T08:27:30.000Z</time>
      </trkpt>
      <trkpt lat="42.79689" lon="2.72425">
        <ele>180.39999389648</ele>
        <time>2025-08-04T08:27:31.000Z</time>
      </trkpt>
      <trkpt lat="42.79701" lon="2.72416">
        <ele>179.80000305176</ele>
        <time>2025-08-04T08:27:34.000Z</time>
      </trkpt>
      <trkpt lat="42.79705" lon="2.72415">
        <ele>179.19999694824</ele>
        <time>2025-08-04T08:27:35.000Z</time>
      </trkpt>
      <trkpt lat="42.7971" lon="2.72417">
        <ele>179</ele>
        <time>2025-08-04T08:27:36.000Z</time>
      </trkpt>
      <trkpt lat="42.79716" lon="2.72426">
        <ele>178</ele>
        <time>2025-08-04T08:27:38.000Z</time>
      </trkpt>
      <trkpt lat="42.79718" lon="2.72456">
        <ele>176.60000610352</ele>
        <time>2025-08-04T08:27:42.000Z</time>
      </trkpt>
      <trkpt lat="42.79719" lon="2.72481">
        <ele>175.39999389648</ele>
        <time>2025-08-04T08:27:45.000Z</time>
      </trkpt>
      <trkpt lat="42.79723" lon="2.72488">
        <ele>175.39999389648</ele>
        <time>2025-08-04T08:27:46.000Z</time>
      </trkpt>
      <trkpt lat="42.79727" lon="2.72492">
        <ele>174.80000305176</ele>
        <time>2025-08-04T08:27:47.000Z</time>
      </trkpt>
      <trkpt lat="42.79739" lon="2.72494">
        <ele>174.39999389648</ele>
        <time>2025-08-04T08:27:49.000Z</time>
      </trkpt>
      <trkpt lat="42.79756" lon="2.72493">
        <ele>173.39999389648</ele>
        <time>2025-08-04T08:27:52.000Z</time>
      </trkpt>
      <trkpt lat="42.79761" lon="2.72495">
        <ele>173.19999694824</ele>
        <time>2025-08-04T08:27:53.000Z</time>
      </trkpt>
      <trkpt lat="42.79766" lon="2.72498">
        <ele>172.60000610352</ele>
        <time>2025-08-04T08:27:54.000Z</time>
      </trkpt>
      <trkpt lat="42.7977" lon="2.72503">
        <ele>172.19999694824</ele>
        <time>2025-08-04T08:27:55.000Z</time>
      </trkpt>
      <trkpt lat="42.79779" lon="2.72513">
        <ele>171.39999389648</ele>
        <time>2025-08-04T08:27:57.000Z</time>
      </trkpt>
      <trkpt lat="42.79784" lon="2.72516">
        <ele>171</ele>
        <time>2025-08-04T08:27:58.000Z</time>
      </trkpt>
      <trkpt lat="42.79791" lon="2.72517">
        <ele>170.80000305176</ele>
        <time>2025-08-04T08:27:59.000Z</time>
      </trkpt>
      <trkpt lat="42.79797" lon="2.72517">
        <ele>170.60000610352</ele>
        <time>2025-08-04T08:28:00.000Z</time>
      </trkpt>
      <trkpt lat="42.79804" lon="2.72515">
        <ele>170.39999389648</ele>
        <time>2025-08-04T08:28:01.000Z</time>
      </trkpt>
      <trkpt lat="42.79816" lon="2.72509">
        <ele>169.80000305176</ele>
        <time>2025-08-04T08:28:03.000Z</time>
      </trkpt>
      <trkpt lat="42.79822" lon="2.72504">
        <ele>169.60000610352</ele>
        <time>2025-08-04T08:28:04.000Z</time>
      </trkpt>
      <trkpt lat="42.79828" lon="2.72499">
        <ele>169.39999389648</ele>
        <time>2025-08-04T08:28:05.000Z</time>
      </trkpt>
      <trkpt lat="42.79841" lon="2.72476">
        <ele>168.80000305176</ele>
        <time>2025-08-04T08:28:08.000Z</time>
      </trkpt>
      <trkpt lat="42.79854" lon="2.72451">
        <ele>167.60000610352</ele>
        <time>2025-08-04T08:28:11.000Z</time>
      </trkpt>
      <trkpt lat="42.79862" lon="2.72435">
        <ele>166.80000305176</ele>
        <time>2025-08-04T08:28:13.000Z</time>
      </trkpt>
      <trkpt lat="42.79865" lon="2.72427">
        <ele>166.60000610352</ele>
        <time>2025-08-04T08:28:14.000Z</time>
      </trkpt>
      <trkpt lat="42.79867" lon="2.72418">
        <ele>166.19999694824</ele>
        <time>2025-08-04T08:28:15.000Z</time>
      </trkpt>
      <trkpt lat="42.79868" lon="2.72409">
        <ele>166</ele>
        <time>2025-08-04T08:28:16.000Z</time>
      </trkpt>
      <trkpt lat="42.7987" lon="2.72392">
        <ele>165.19999694824</ele>
        <time>2025-08-04T08:28:18.000Z</time>
      </trkpt>
      <trkpt lat="42.79872" lon="2.72385">
        <ele>165.19999694824</ele>
        <time>2025-08-04T08:28:19.000Z</time>
      </trkpt>
      <trkpt lat="42.79876" lon="2.72379">
        <ele>164.80000305176</ele>
        <time>2025-08-04T08:28:20.000Z</time>
      </trkpt>
      <trkpt lat="42.79885" lon="2.72376">
        <ele>164.39999389648</ele>
        <time>2025-08-04T08:28:22.000Z</time>
      </trkpt>
      <trkpt lat="42.7989" lon="2.72379">
        <ele>164.19999694824</ele>
        <time>2025-08-04T08:28:23.000Z</time>
      </trkpt>
      <trkpt lat="42.79895" lon="2.72383">
        <ele>163.80000305176</ele>
        <time>2025-08-04T08:28:24.000Z</time>
      </trkpt>
      <trkpt lat="42.79899" lon="2.7239">
        <ele>163.19999694824</ele>
        <time>2025-08-04T08:28:25.000Z</time>
      </trkpt>
      <trkpt lat="42.79902" lon="2.72398">
        <ele>162.80000305176</ele>
        <time>2025-08-04T08:28:26.000Z</time>
      </trkpt>
      <trkpt lat="42.79909" lon="2.72424">
        <ele>161.80000305176</ele>
        <time>2025-08-04T08:28:29.000Z</time>
      </trkpt>
      <trkpt lat="42.79911" lon="2.72434">
        <ele>161.60000610352</ele>
        <time>2025-08-04T08:28:30.000Z</time>
      </trkpt>
      <trkpt lat="42.79911" lon="2.72452">
        <ele>160.60000610352</ele>
        <time>2025-08-04T08:28:32.000Z</time>
      </trkpt>
      <trkpt lat="42.7991" lon="2.72461">
        <ele>160.39999389648</ele>
        <time>2025-08-04T08:28:33.000Z</time>
      </trkpt>
      <trkpt lat="42.79908" lon="2.7247">
        <ele>160</ele>
        <time>2025-08-04T08:28:34.000Z</time>
      </trkpt>
      <trkpt lat="42.799" lon="2.72486">
        <ele>159</ele>
        <time>2025-08-04T08:28:36.000Z</time>
      </trkpt>
      <trkpt lat="42.79891" lon="2.72501">
        <ele>158.39999389648</ele>
        <time>2025-08-04T08:28:38.000Z</time>
      </trkpt>
      <trkpt lat="42.79881" lon="2.72518">
        <ele>158</ele>
        <time>2025-08-04T08:28:40.000Z</time>
      </trkpt>
      <trkpt lat="42.79878" lon="2.72526">
        <ele>157.19999694824</ele>
        <time>2025-08-04T08:28:41.000Z</time>
      </trkpt>
      <trkpt lat="42.79874" lon="2.72544">
        <ele>156.19999694824</ele>
        <time>2025-08-04T08:28:43.000Z</time>
      </trkpt>
      <trkpt lat="42.79878" lon="2.72561">
        <ele>155.19999694824</ele>
        <time>2025-08-04T08:28:45.000Z</time>
      </trkpt>
      <trkpt lat="42.79882" lon="2.72567">
        <ele>154.80000305176</ele>
        <time>2025-08-04T08:28:46.000Z</time>
      </trkpt>
      <trkpt lat="42.79888" lon="2.72571">
        <ele>154.80000305176</ele>
        <time>2025-08-04T08:28:47.000Z</time>
      </trkpt>
      <trkpt lat="42.79895" lon="2.72571">
        <ele>154.19999694824</ele>
        <time>2025-08-04T08:28:48.000Z</time>
      </trkpt>
      <trkpt lat="42.79908" lon="2.72568">
        <ele>153.39999389648</ele>
        <time>2025-08-04T08:28:50.000Z</time>
      </trkpt>
      <trkpt lat="42.79929" lon="2.72561">
        <ele>152.60000610352</ele>
        <time>2025-08-04T08:28:53.000Z</time>
      </trkpt>
      <trkpt lat="42.79943" lon="2.72555">
        <ele>152.19999694824</ele>
        <time>2025-08-04T08:28:55.000Z</time>
      </trkpt>
      <trkpt lat="42.79973" lon="2.72544">
        <ele>151.39999389648</ele>
        <time>2025-08-04T08:28:59.000Z</time>
      </trkpt>
      <trkpt lat="42.79978" lon="2.72545">
        <ele>150.80000305176</ele>
        <time>2025-08-04T08:29:00.000Z</time>
      </trkpt>
      <trkpt lat="42.79985" lon="2.72549">
        <ele>150.60000610352</ele>
        <time>2025-08-04T08:29:01.000Z</time>
      </trkpt>
      <trkpt lat="42.79991" lon="2.72553">
        <ele>150.39999389648</ele>
        <time>2025-08-04T08:29:02.000Z</time>
      </trkpt>
      <trkpt lat="42.79995" lon="2.72561">
        <ele>150.19999694824</ele>
        <time>2025-08-04T08:29:03.000Z</time>
      </trkpt>
      <trkpt lat="42.79999" lon="2.72571">
        <ele>149.60000610352</ele>
        <time>2025-08-04T08:29:04.000Z</time>
      </trkpt>
      <trkpt lat="42.8001" lon="2.72599">
        <ele>148</ele>
        <time>2025-08-04T08:29:07.000Z</time>
      </trkpt>
      <trkpt lat="42.8002" lon="2.72626">
        <ele>147</ele>
        <time>2025-08-04T08:29:10.000Z</time>
      </trkpt>
      <trkpt lat="42.80024" lon="2.72644">
        <ele>146</ele>
        <time>2025-08-04T08:29:12.000Z</time>
      </trkpt>
      <trkpt lat="42.80027" lon="2.72673">
        <ele>145.19999694824</ele>
        <time>2025-08-04T08:29:15.000Z</time>
      </trkpt>
      <trkpt lat="42.80028" lon="2.72682">
        <ele>144.19999694824</ele>
        <time>2025-08-04T08:29:16.000Z</time>
      </trkpt>
      <trkpt lat="42.80032" lon="2.72709">
        <ele>142.80000305176</ele>
        <time>2025-08-04T08:29:19.000Z</time>
      </trkpt>
      <trkpt lat="42.80033" lon="2.72718">
        <ele>142.60000610352</ele>
        <time>2025-08-04T08:29:20.000Z</time>
      </trkpt>
      <trkpt lat="42.80033" lon="2.72735">
        <ele>142.19999694824</ele>
        <time>2025-08-04T08:29:22.000Z</time>
      </trkpt>
      <trkpt lat="42.80033" lon="2.72745">
        <ele>141.60000610352</ele>
        <time>2025-08-04T08:29:23.000Z</time>
      </trkpt>
      <trkpt lat="42.80033" lon="2.72755">
        <ele>141.39999389648</ele>
        <time>2025-08-04T08:29:24.000Z</time>
      </trkpt>
      <trkpt lat="42.80037" lon="2.72774">
        <ele>140.39999389648</ele>
        <time>2025-08-04T08:29:26.000Z</time>
      </trkpt>
      <trkpt lat="42.8005" lon="2.72796">
        <ele>139.60000610352</ele>
        <time>2025-08-04T08:29:29.000Z</time>
      </trkpt>
      <trkpt lat="42.80054" lon="2.72804">
        <ele>139.19999694824</ele>
        <time>2025-08-04T08:29:30.000Z</time>
      </trkpt>
      <trkpt lat="42.80057" lon="2.72813">
        <ele>139.19999694824</ele>
        <time>2025-08-04T08:29:31.000Z</time>
      </trkpt>
      <trkpt lat="42.80064" lon="2.72832">
        <ele>138.39999389648</ele>
        <time>2025-08-04T08:29:33.000Z</time>
      </trkpt>
      <trkpt lat="42.80067" lon="2.72841">
        <ele>138</ele>
        <time>2025-08-04T08:29:34.000Z</time>
      </trkpt>
      <trkpt lat="42.80078" lon="2.72868">
        <ele>136.80000305176</ele>
        <time>2025-08-04T08:29:37.000Z</time>
      </trkpt>
      <trkpt lat="42.80081" lon="2.72877">
        <ele>136.60000610352</ele>
        <time>2025-08-04T08:29:38.000Z</time>
      </trkpt>
      <trkpt lat="42.80086" lon="2.72892">
        <ele>135.60000610352</ele>
        <time>2025-08-04T08:29:40.000Z</time>
      </trkpt>
      <trkpt lat="42.80094" lon="2.72905">
        <ele>134.80000305176</ele>
        <time>2025-08-04T08:29:42.000Z</time>
      </trkpt>
      <trkpt lat="42.80097" lon="2.72912">
        <ele>134.60000610352</ele>
        <time>2025-08-04T08:29:43.000Z</time>
      </trkpt>
      <trkpt lat="42.801" lon="2.7292">
        <ele>134.39999389648</ele>
        <time>2025-08-04T08:29:44.000Z</time>
      </trkpt>
      <trkpt lat="42.80105" lon="2.72937">
        <ele>133.60000610352</ele>
        <time>2025-08-04T08:29:46.000Z</time>
      </trkpt>
      <trkpt lat="42.8011" lon="2.72965">
        <ele>132.19999694824</ele>
        <time>2025-08-04T08:29:49.000Z</time>
      </trkpt>
      <trkpt lat="42.80113" lon="2.72985">
        <ele>131.39999389648</ele>
        <time>2025-08-04T08:29:51.000Z</time>
      </trkpt>
      <trkpt lat="42.80116" lon="2.72994">
        <ele>131.19999694824</ele>
        <time>2025-08-04T08:29:52.000Z</time>
      </trkpt>
      <trkpt lat="42.80118" lon="2.73003">
        <ele>131</ele>
        <time>2025-08-04T08:29:53.000Z</time>
      </trkpt>
      <trkpt lat="42.80125" lon="2.73033">
        <ele>129.60000610352</ele>
        <time>2025-08-04T08:29:56.000Z</time>
      </trkpt>
      <trkpt lat="42.80128" lon="2.73043">
        <ele>129.39999389648</ele>
        <time>2025-08-04T08:29:57.000Z</time>
      </trkpt>
      <trkpt lat="42.80131" lon="2.73052">
        <ele>128.39999389648</ele>
        <time>2025-08-04T08:29:58.000Z</time>
      </trkpt>
      <trkpt lat="42.80141" lon="2.73077">
        <ele>127.40000152588</ele>
        <time>2025-08-04T08:30:01.000Z</time>
      </trkpt>
      <trkpt lat="42.80143" lon="2.73085">
        <ele>127.19999694824</ele>
        <time>2025-08-04T08:30:02.000Z</time>
      </trkpt>
      <trkpt lat="42.80146" lon="2.73103">
        <ele>126</ele>
        <time>2025-08-04T08:30:04.000Z</time>
      </trkpt>
      <trkpt lat="42.8015" lon="2.73122">
        <ele>124.80000305176</ele>
        <time>2025-08-04T08:30:06.000Z</time>
      </trkpt>
      <trkpt lat="42.80152" lon="2.73131">
        <ele>124.40000152588</ele>
        <time>2025-08-04T08:30:07.000Z</time>
      </trkpt>
      <trkpt lat="42.80156" lon="2.73149">
        <ele>123.80000305176</ele>
        <time>2025-08-04T08:30:09.000Z</time>
      </trkpt>
      <trkpt lat="42.80163" lon="2.73176">
        <ele>122.59999847412</ele>
        <time>2025-08-04T08:30:12.000Z</time>
      </trkpt>
      <trkpt lat="42.80165" lon="2.73185">
        <ele>122.40000152588</ele>
        <time>2025-08-04T08:30:13.000Z</time>
      </trkpt>
      <trkpt lat="42.80165" lon="2.73195">
        <ele>122</ele>
        <time>2025-08-04T08:30:14.000Z</time>
      </trkpt>
      <trkpt lat="42.80165" lon="2.73204">
        <ele>121.40000152588</ele>
        <time>2025-08-04T08:30:15.000Z</time>
      </trkpt>
      <trkpt lat="42.80164" lon="2.73213">
        <ele>121.19999694824</ele>
        <time>2025-08-04T08:30:16.000Z</time>
      </trkpt>
      <trkpt lat="42.80163" lon="2.73222">
        <ele>120.80000305176</ele>
        <time>2025-08-04T08:30:17.000Z</time>
      </trkpt>
      <trkpt lat="42.80162" lon="2.73237">
        <ele>120.19999694824</ele>
        <time>2025-08-04T08:30:19.000Z</time>
      </trkpt>
      <trkpt lat="42.80165" lon="2.73252">
        <ele>119.40000152588</ele>
        <time>2025-08-04T08:30:21.000Z</time>
      </trkpt>
      <trkpt lat="42.80173" lon="2.73262">
        <ele>119.19999694824</ele>
        <time>2025-08-04T08:30:23.000Z</time>
      </trkpt>
      <trkpt lat="42.80178" lon="2.73265">
        <ele>118.80000305176</ele>
        <time>2025-08-04T08:30:24.000Z</time>
      </trkpt>
      <trkpt lat="42.80183" lon="2.73266">
        <ele>118.59999847412</ele>
        <time>2025-08-04T08:30:25.000Z</time>
      </trkpt>
      <trkpt lat="42.802" lon="2.73267">
        <ele>117.59999847412</ele>
        <time>2025-08-04T08:30:28.000Z</time>
      </trkpt>
      <trkpt lat="42.80211" lon="2.73273">
        <ele>117</ele>
        <time>2025-08-04T08:30:30.000Z</time>
      </trkpt>
      <trkpt lat="42.80217" lon="2.73277">
        <ele>116.80000305176</ele>
        <time>2025-08-04T08:30:31.000Z</time>
      </trkpt>
      <trkpt lat="42.80227" lon="2.73289">
        <ele>116</ele>
        <time>2025-08-04T08:30:33.000Z</time>
      </trkpt>
      <trkpt lat="42.80243" lon="2.73308">
        <ele>115</ele>
        <time>2025-08-04T08:30:36.000Z</time>
      </trkpt>
      <trkpt lat="42.80255" lon="2.7332">
        <ele>114.59999847412</ele>
        <time>2025-08-04T08:30:38.000Z</time>
      </trkpt>
      <trkpt lat="42.80272" lon="2.73337">
        <ele>113.80000305176</ele>
        <time>2025-08-04T08:30:41.000Z</time>
      </trkpt>
      <trkpt lat="42.80284" lon="2.7335">
        <ele>113.19999694824</ele>
        <time>2025-08-04T08:30:43.000Z</time>
      </trkpt>
      <trkpt lat="42.80295" lon="2.73366">
        <ele>112</ele>
        <time>2025-08-04T08:30:45.000Z</time>
      </trkpt>
      <trkpt lat="42.80305" lon="2.73384">
        <ele>111.40000152588</ele>
        <time>2025-08-04T08:30:47.000Z</time>
      </trkpt>
      <trkpt lat="42.8031" lon="2.73393">
        <ele>110.80000305176</ele>
        <time>2025-08-04T08:30:48.000Z</time>
      </trkpt>
      <trkpt lat="42.80328" lon="2.73429">
        <ele>109.59999847412</ele>
        <time>2025-08-04T08:30:52.000Z</time>
      </trkpt>
      <trkpt lat="42.80339" lon="2.73455">
        <ele>108.59999847412</ele>
        <time>2025-08-04T08:30:55.000Z</time>
      </trkpt>
      <trkpt lat="42.80346" lon="2.73471">
        <ele>108.40000152588</ele>
        <time>2025-08-04T08:30:57.000Z</time>
      </trkpt>
      <trkpt lat="42.80349" lon="2.73479">
        <ele>108.19999694824</ele>
        <time>2025-08-04T08:30:58.000Z</time>
      </trkpt>
      <trkpt lat="42.80358" lon="2.73491">
        <ele>107.59999847412</ele>
        <time>2025-08-04T08:31:00.000Z</time>
      </trkpt>
      <trkpt lat="42.80364" lon="2.73496">
        <ele>107.19999694824</ele>
        <time>2025-08-04T08:31:01.000Z</time>
      </trkpt>
      <trkpt lat="42.80389" lon="2.73519">
        <ele>106.19999694824</ele>
        <time>2025-08-04T08:31:06.000Z</time>
      </trkpt>
      <trkpt lat="42.80398" lon="2.73529">
        <ele>106</ele>
        <time>2025-08-04T08:31:08.000Z</time>
      </trkpt>
      <trkpt lat="42.80414" lon="2.73554">
        <ele>105.40000152588</ele>
        <time>2025-08-04T08:31:12.000Z</time>
      </trkpt>
      <trkpt lat="42.80428" lon="2.73579">
        <ele>105</ele>
        <time>2025-08-04T08:31:16.000Z</time>
      </trkpt>
      <trkpt lat="42.80436" lon="2.73597">
        <ele>104.80000305176</ele>
        <time>2025-08-04T08:31:19.000Z</time>
      </trkpt>
      <trkpt lat="42.80439" lon="2.73603">
        <ele>104.80000305176</ele>
        <time>2025-08-04T08:31:20.000Z</time>
      </trkpt>
      <trkpt lat="42.80448" lon="2.73619">
        <ele>104.59999847412</ele>
        <time>2025-08-04T08:31:23.000Z</time>
      </trkpt>
      <trkpt lat="42.80462" lon="2.73638">
        <ele>104.40000152588</ele>
        <time>2025-08-04T08:31:27.000Z</time>
      </trkpt>
      <trkpt lat="42.80467" lon="2.73642">
        <ele>104.40000152588</ele>
        <time>2025-08-04T08:31:28.000Z</time>
      </trkpt>
      <trkpt lat="42.80494" lon="2.7366">
        <ele>104</ele>
        <time>2025-08-04T08:31:34.000Z</time>
      </trkpt>
      <trkpt lat="42.80499" lon="2.73665">
        <ele>103.80000305176</ele>
        <time>2025-08-04T08:31:35.000Z</time>
      </trkpt>
      <trkpt lat="42.80516" lon="2.7369">
        <ele>103.40000152588</ele>
        <time>2025-08-04T08:31:40.000Z</time>
      </trkpt>
      <trkpt lat="42.80518" lon="2.73694">
        <ele>103.19999694824</ele>
        <time>2025-08-04T08:31:41.000Z</time>
      </trkpt>
      <trkpt lat="42.80522" lon="2.73699">
        <ele>103.19999694824</ele>
        <time>2025-08-04T08:31:42.000Z</time>
      </trkpt>
      <trkpt lat="42.80533" lon="2.73719">
        <ele>103</ele>
        <time>2025-08-04T08:31:46.000Z</time>
      </trkpt>
      <trkpt lat="42.80555" lon="2.73755">
        <ele>102.80000305176</ele>
        <time>2025-08-04T08:31:54.000Z</time>
      </trkpt>
      <trkpt lat="42.80568" lon="2.73773">
        <ele>103</ele>
        <time>2025-08-04T08:31:58.000Z</time>
      </trkpt>
      <trkpt lat="42.80577" lon="2.73785">
        <ele>103</ele>
        <time>2025-08-04T08:32:01.000Z</time>
      </trkpt>
      <trkpt lat="42.80591" lon="2.73805">
        <ele>103.40000152588</ele>
        <time>2025-08-04T08:32:07.000Z</time>
      </trkpt>
      <trkpt lat="42.80601" lon="2.73821">
        <ele>104</ele>
        <time>2025-08-04T08:32:12.000Z</time>
      </trkpt>
      <trkpt lat="42.80618" lon="2.73848">
        <ele>104.59999847412</ele>
        <time>2025-08-04T08:32:21.000Z</time>
      </trkpt>
      <trkpt lat="42.8062" lon="2.73851">
        <ele>104.80000305176</ele>
        <time>2025-08-04T08:32:22.000Z</time>
      </trkpt>
      <trkpt lat="42.80628" lon="2.73863">
        <ele>105.40000152588</ele>
        <time>2025-08-04T08:32:27.000Z</time>
      </trkpt>
      <trkpt lat="42.80633" lon="2.7387">
        <ele>105.59999847412</ele>
        <time>2025-08-04T08:32:30.000Z</time>
      </trkpt>
      <trkpt lat="42.80637" lon="2.73874">
        <ele>106</ele>
        <time>2025-08-04T08:32:32.000Z</time>
      </trkpt>
      <trkpt lat="42.80647" lon="2.7389">
        <ele>106.59999847412</ele>
        <time>2025-08-04T08:32:38.000Z</time>
      </trkpt>
      <trkpt lat="42.80651" lon="2.73896">
        <ele>106.80000305176</ele>
        <time>2025-08-04T08:32:40.000Z</time>
      </trkpt>
      <trkpt lat="42.80659" lon="2.73908">
        <ele>107</ele>
        <time>2025-08-04T08:32:45.000Z</time>
      </trkpt>
      <trkpt lat="42.80668" lon="2.73924">
        <ele>107.80000305176</ele>
        <time>2025-08-04T08:32:51.000Z</time>
      </trkpt>
      <trkpt lat="42.80672" lon="2.73932">
        <ele>108</ele>
        <time>2025-08-04T08:32:54.000Z</time>
      </trkpt>
      <trkpt lat="42.80682" lon="2.7395">
        <ele>108.59999847412</ele>
        <time>2025-08-04T08:33:01.000Z</time>
      </trkpt>
      <trkpt lat="42.80693" lon="2.73971">
        <ele>109.19999694824</ele>
        <time>2025-08-04T08:33:09.000Z</time>
      </trkpt>
      <trkpt lat="42.80697" lon="2.73978">
        <ele>109.59999847412</ele>
        <time>2025-08-04T08:33:12.000Z</time>
      </trkpt>
      <trkpt lat="42.80702" lon="2.73994">
        <ele>110.19999694824</ele>
        <time>2025-08-04T08:33:17.000Z</time>
      </trkpt>
      <trkpt lat="42.80708" lon="2.7401">
        <ele>110.80000305176</ele>
        <time>2025-08-04T08:33:22.000Z</time>
      </trkpt>
      <trkpt lat="42.80714" lon="2.74021">
        <ele>111.19999694824</ele>
        <time>2025-08-04T08:33:26.000Z</time>
      </trkpt>
      <trkpt lat="42.80725" lon="2.74045">
        <ele>111.59999847412</ele>
        <time>2025-08-04T08:33:34.000Z</time>
      </trkpt>
      <trkpt lat="42.80728" lon="2.74051">
        <ele>111.59999847412</ele>
        <time>2025-08-04T08:33:36.000Z</time>
      </trkpt>
      <trkpt lat="42.80737" lon="2.7407">
        <ele>112.19999694824</ele>
        <time>2025-08-04T08:33:44.000Z</time>
      </trkpt>
      <trkpt lat="42.80742" lon="2.74082">
        <ele>112.59999847412</ele>
        <time>2025-08-04T08:33:48.000Z</time>
      </trkpt>
      <trkpt lat="42.80744" lon="2.74093">
        <ele>112.80000305176</ele>
        <time>2025-08-04T08:33:51.000Z</time>
      </trkpt>
      <trkpt lat="42.80743" lon="2.74116">
        <ele>112.80000305176</ele>
        <time>2025-08-04T08:33:57.000Z</time>
      </trkpt>
      <trkpt lat="42.80735" lon="2.7414">
        <ele>112.80000305176</ele>
        <time>2025-08-04T08:34:02.000Z</time>
      </trkpt>
      <trkpt lat="42.80719" lon="2.7418">
        <ele>111.80000305176</ele>
        <time>2025-08-04T08:34:09.000Z</time>
      </trkpt>
      <trkpt lat="42.80714" lon="2.74193">
        <ele>111.19999694824</ele>
        <time>2025-08-04T08:34:11.000Z</time>
      </trkpt>
      <trkpt lat="42.80705" lon="2.7423">
        <ele>110.19999694824</ele>
        <time>2025-08-04T08:34:16.000Z</time>
      </trkpt>
      <trkpt lat="42.80702" lon="2.74244">
        <ele>109.80000305176</ele>
        <time>2025-08-04T08:34:18.000Z</time>
      </trkpt>
      <trkpt lat="42.80705" lon="2.74259">
        <ele>109</ele>
        <time>2025-08-04T08:34:20.000Z</time>
      </trkpt>
      <trkpt lat="42.80706" lon="2.74274">
        <ele>108.80000305176</ele>
        <time>2025-08-04T08:34:22.000Z</time>
      </trkpt>
      <trkpt lat="42.80705" lon="2.7429">
        <ele>108.59999847412</ele>
        <time>2025-08-04T08:34:24.000Z</time>
      </trkpt>
      <trkpt lat="42.80704" lon="2.74297">
        <ele>108.19999694824</ele>
        <time>2025-08-04T08:34:25.000Z</time>
      </trkpt>
      <trkpt lat="42.80703" lon="2.74304">
        <ele>108</ele>
        <time>2025-08-04T08:34:26.000Z</time>
      </trkpt>
      <trkpt lat="42.80696" lon="2.74311">
        <ele>107.80000305176</ele>
        <time>2025-08-04T08:34:27.000Z</time>
      </trkpt>
      <trkpt lat="42.80692" lon="2.74324">
        <ele>107.40000152588</ele>
        <time>2025-08-04T08:34:29.000Z</time>
      </trkpt>
      <trkpt lat="42.80695" lon="2.74331">
        <ele>107</ele>
        <time>2025-08-04T08:34:30.000Z</time>
      </trkpt>
      <trkpt lat="42.80697" lon="2.74337">
        <ele>107</ele>
        <time>2025-08-04T08:34:31.000Z</time>
      </trkpt>
      <trkpt lat="42.80697" lon="2.74344">
        <ele>106.80000305176</ele>
        <time>2025-08-04T08:34:32.000Z</time>
      </trkpt>
      <trkpt lat="42.80699" lon="2.74351">
        <ele>106.59999847412</ele>
        <time>2025-08-04T08:34:33.000Z</time>
      </trkpt>
      <trkpt lat="42.80704" lon="2.74358">
        <ele>106.40000152588</ele>
        <time>2025-08-04T08:34:34.000Z</time>
      </trkpt>
      <trkpt lat="42.80706" lon="2.74364">
        <ele>106.19999694824</ele>
        <time>2025-08-04T08:34:35.000Z</time>
      </trkpt>
      <trkpt lat="42.80706" lon="2.74378">
        <ele>105.80000305176</ele>
        <time>2025-08-04T08:34:37.000Z</time>
      </trkpt>
      <trkpt lat="42.80709" lon="2.74385">
        <ele>105.40000152588</ele>
        <time>2025-08-04T08:34:38.000Z</time>
      </trkpt>
      <trkpt lat="42.80709" lon="2.74398">
        <ele>105.19999694824</ele>
        <time>2025-08-04T08:34:40.000Z</time>
      </trkpt>
      <trkpt lat="42.8071" lon="2.74404">
        <ele>105</ele>
        <time>2025-08-04T08:34:41.000Z</time>
      </trkpt>
      <trkpt lat="42.8071" lon="2.74417">
        <ele>104.59999847412</ele>
        <time>2025-08-04T08:34:43.000Z</time>
      </trkpt>
      <trkpt lat="42.80708" lon="2.74423">
        <ele>104.40000152588</ele>
        <time>2025-08-04T08:34:44.000Z</time>
      </trkpt>
      <trkpt lat="42.8071" lon="2.74429">
        <ele>104.40000152588</ele>
        <time>2025-08-04T08:34:45.000Z</time>
      </trkpt>
      <trkpt lat="42.80703" lon="2.74441">
        <ele>104</ele>
        <time>2025-08-04T08:34:47.000Z</time>
      </trkpt>
      <trkpt lat="42.80708" lon="2.74449">
        <ele>103.59999847412</ele>
        <time>2025-08-04T08:34:49.000Z</time>
      </trkpt>
      <trkpt lat="42.80722" lon="2.74463">
        <ele>103.19999694824</ele>
        <time>2025-08-04T08:34:52.000Z</time>
      </trkpt>
      <trkpt lat="42.80726" lon="2.74467">
        <ele>103</ele>
        <time>2025-08-04T08:34:53.000Z</time>
      </trkpt>
      <trkpt lat="42.80736" lon="2.74473">
        <ele>102.80000305176</ele>
        <time>2025-08-04T08:34:55.000Z</time>
      </trkpt>
      <trkpt lat="42.80759" lon="2.74482">
        <ele>102</ele>
        <time>2025-08-04T08:34:59.000Z</time>
      </trkpt>
      <trkpt lat="42.80764" lon="2.74485">
        <ele>101.80000305176</ele>
        <time>2025-08-04T08:35:00.000Z</time>
      </trkpt>
      <trkpt lat="42.80775" lon="2.74491">
        <ele>101.59999847412</ele>
        <time>2025-08-04T08:35:02.000Z</time>
      </trkpt>
      <trkpt lat="42.8079" lon="2.74496">
        <ele>101</ele>
        <time>2025-08-04T08:35:05.000Z</time>
      </trkpt>
      <trkpt lat="42.80808" lon="2.745">
        <ele>100.80000305176</ele>
        <time>2025-08-04T08:35:08.000Z</time>
      </trkpt>
      <trkpt lat="42.80822" lon="2.74499">
        <ele>100.19999694824</ele>
        <time>2025-08-04T08:35:10.000Z</time>
      </trkpt>
      <trkpt lat="42.8085" lon="2.74493">
        <ele>99.599998474121</ele>
        <time>2025-08-04T08:35:14.000Z</time>
      </trkpt>
      <trkpt lat="42.80873" lon="2.74489">
        <ele>99</ele>
        <time>2025-08-04T08:35:18.000Z</time>
      </trkpt>
      <trkpt lat="42.80879" lon="2.74487">
        <ele>99</ele>
        <time>2025-08-04T08:35:19.000Z</time>
      </trkpt>
      <trkpt lat="42.80898" lon="2.74478">
        <ele>98.800003051758</ele>
        <time>2025-08-04T08:35:23.000Z</time>
      </trkpt>
      <trkpt lat="42.8092" lon="2.74468">
        <ele>99.199996948242</ele>
        <time>2025-08-04T08:35:29.000Z</time>
      </trkpt>
      <trkpt lat="42.80942" lon="2.74456">
        <ele>100.19999694824</ele>
        <time>2025-08-04T08:35:36.000Z</time>
      </trkpt>
      <trkpt lat="42.8096" lon="2.74454">
        <ele>100.59999847412</ele>
        <time>2025-08-04T08:35:42.000Z</time>
      </trkpt>
      <trkpt lat="42.8098" lon="2.74459">
        <ele>101.19999694824</ele>
        <time>2025-08-04T08:35:49.000Z</time>
      </trkpt>
      <trkpt lat="42.8099" lon="2.74464">
        <ele>101.80000305176</ele>
        <time>2025-08-04T08:35:53.000Z</time>
      </trkpt>
      <trkpt lat="42.80995" lon="2.74467">
        <ele>102</ele>
        <time>2025-08-04T08:35:56.000Z</time>
      </trkpt>
      <trkpt lat="42.80997" lon="2.74468">
        <ele>102</ele>
        <time>2025-08-04T08:35:57.000Z</time>
      </trkpt>
      <trkpt lat="42.81" lon="2.74468">
        <ele>102.40000152588</ele>
        <time>2025-08-04T08:35:59.000Z</time>
      </trkpt>
      <trkpt lat="42.81001" lon="2.74468">
        <ele>102.40000152588</ele>
        <time>2025-08-04T08:36:00.000Z</time>
      </trkpt>
      <trkpt lat="42.81005" lon="2.74466">
        <ele>102.80000305176</ele>
        <time>2025-08-04T08:36:02.000Z</time>
      </trkpt>
      <trkpt lat="42.81007" lon="2.74465">
        <ele>103.19999694824</ele>
        <time>2025-08-04T08:36:04.000Z</time>
      </trkpt>
      <trkpt lat="42.81009" lon="2.74464">
        <ele>103.40000152588</ele>
        <time>2025-08-04T08:36:05.000Z</time>
      </trkpt>
      <trkpt lat="42.81014" lon="2.74464">
        <ele>103.59999847412</ele>
        <time>2025-08-04T08:36:08.000Z</time>
      </trkpt>
      <trkpt lat="42.81024" lon="2.74459">
        <ele>104.40000152588</ele>
        <time>2025-08-04T08:36:14.000Z</time>
      </trkpt>
      <trkpt lat="42.81028" lon="2.74456">
        <ele>104.59999847412</ele>
        <time>2025-08-04T08:36:16.000Z</time>
      </trkpt>
      <trkpt lat="42.81036" lon="2.74452">
        <ele>105.19999694824</ele>
        <time>2025-08-04T08:36:20.000Z</time>
      </trkpt>
      <trkpt lat="42.8105" lon="2.74449">
        <ele>105.80000305176</ele>
        <time>2025-08-04T08:36:26.000Z</time>
      </trkpt>
      <trkpt lat="42.81052" lon="2.74448">
        <ele>106</ele>
        <time>2025-08-04T08:36:27.000Z</time>
      </trkpt>
      <trkpt lat="42.81071" lon="2.74443">
        <ele>106.59999847412</ele>
        <time>2025-08-04T08:36:35.000Z</time>
      </trkpt>
      <trkpt lat="42.81079" lon="2.74441">
        <ele>106.59999847412</ele>
        <time>2025-08-04T08:36:38.000Z</time>
      </trkpt>
      <trkpt lat="42.81085" lon="2.74439">
        <ele>106.59999847412</ele>
        <time>2025-08-04T08:36:40.000Z</time>
      </trkpt>
      <trkpt lat="42.81091" lon="2.74437">
        <ele>106.59999847412</ele>
        <time>2025-08-04T08:36:42.000Z</time>
      </trkpt>
      <trkpt lat="42.81114" lon="2.74427">
        <ele>106.40000152588</ele>
        <time>2025-08-04T08:36:48.000Z</time>
      </trkpt>
      <trkpt lat="42.81134" lon="2.74427">
        <ele>105.59999847412</ele>
        <time>2025-08-04T08:36:53.000Z</time>
      </trkpt>
      <trkpt lat="42.81141" lon="2.7443">
        <ele>105.40000152588</ele>
        <time>2025-08-04T08:36:55.000Z</time>
      </trkpt>
      <trkpt lat="42.81162" lon="2.74435">
        <ele>105.19999694824</ele>
        <time>2025-08-04T08:37:00.000Z</time>
      </trkpt>
      <trkpt lat="42.81166" lon="2.74436">
        <ele>105.19999694824</ele>
        <time>2025-08-04T08:37:01.000Z</time>
      </trkpt>
      <trkpt lat="42.81174" lon="2.74439">
        <ele>105.19999694824</ele>
        <time>2025-08-04T08:37:03.000Z</time>
      </trkpt>
      <trkpt lat="42.81183" lon="2.74441">
        <ele>105</ele>
        <time>2025-08-04T08:37:05.000Z</time>
      </trkpt>
      <trkpt lat="42.81196" lon="2.74444">
        <ele>105</ele>
        <time>2025-08-04T08:37:08.000Z</time>
      </trkpt>
      <trkpt lat="42.81204" lon="2.74446">
        <ele>104.80000305176</ele>
        <time>2025-08-04T08:37:10.000Z</time>
      </trkpt>
      <trkpt lat="42.81208" lon="2.74447">
        <ele>104.80000305176</ele>
        <time>2025-08-04T08:37:11.000Z</time>
      </trkpt>
      <trkpt lat="42.81212" lon="2.74448">
        <ele>104.80000305176</ele>
        <time>2025-08-04T08:37:12.000Z</time>
      </trkpt>
      <trkpt lat="42.81231" lon="2.74456">
        <ele>104.59999847412</ele>
        <time>2025-08-04T08:37:17.000Z</time>
      </trkpt>
      <trkpt lat="42.81238" lon="2.74457">
        <ele>104.40000152588</ele>
        <time>2025-08-04T08:37:19.000Z</time>
      </trkpt>
      <trkpt lat="42.81259" lon="2.74464">
        <ele>104</ele>
        <time>2025-08-04T08:37:25.000Z</time>
      </trkpt>
      <trkpt lat="42.81277" lon="2.74468">
        <ele>103.80000305176</ele>
        <time>2025-08-04T08:37:30.000Z</time>
      </trkpt>
      <trkpt lat="42.81288" lon="2.7447">
        <ele>103.80000305176</ele>
        <time>2025-08-04T08:37:33.000Z</time>
      </trkpt>
      <trkpt lat="42.81305" lon="2.74476">
        <ele>103.80000305176</ele>
        <time>2025-08-04T08:37:38.000Z</time>
      </trkpt>
      <trkpt lat="42.81325" lon="2.74484">
        <ele>104</ele>
        <time>2025-08-04T08:37:44.000Z</time>
      </trkpt>
      <trkpt lat="42.81345" lon="2.74502">
        <ele>104.40000152588</ele>
        <time>2025-08-04T08:37:51.000Z</time>
      </trkpt>
      <trkpt lat="42.81365" lon="2.74515">
        <ele>104.40000152588</ele>
        <time>2025-08-04T08:37:57.000Z</time>
      </trkpt>
      <trkpt lat="42.81371" lon="2.74525">
        <ele>104.59999847412</ele>
        <time>2025-08-04T08:38:01.000Z</time>
      </trkpt>
      <trkpt lat="42.81378" lon="2.74532">
        <ele>104.59999847412</ele>
        <time>2025-08-04T08:38:07.000Z</time>
      </trkpt>
      <trkpt lat="42.81378" lon="2.74532">
        <ele>104.59999847412</ele>
        <time>2025-08-04T08:38:10.000Z</time>
      </trkpt>
      <trkpt lat="42.81379" lon="2.7454">
        <ele>104.40000152588</ele>
        <time>2025-08-04T08:38:15.000Z</time>
      </trkpt>
      <trkpt lat="42.8138" lon="2.74542">
        <ele>104.40000152588</ele>
        <time>2025-08-04T08:38:16.000Z</time>
      </trkpt>
      <trkpt lat="42.81383" lon="2.74544">
        <ele>104.40000152588</ele>
        <time>2025-08-04T08:38:19.000Z</time>
      </trkpt>
      <trkpt lat="42.81384" lon="2.74545">
        <ele>104.40000152588</ele>
        <time>2025-08-04T08:38:20.000Z</time>
      </trkpt>
      <trkpt lat="42.81389" lon="2.7455">
        <ele>104.40000152588</ele>
        <time>2025-08-04T08:38:25.000Z</time>
      </trkpt>
      <trkpt lat="42.8139" lon="2.74551">
        <ele>104.40000152588</ele>
        <time>2025-08-04T08:38:26.000Z</time>
      </trkpt>
      <trkpt lat="42.81392" lon="2.74552">
        <ele>104.40000152588</ele>
        <time>2025-08-04T08:38:31.000Z</time>
      </trkpt>
      <trkpt lat="42.81412" lon="2.74557">
        <ele>104.59999847412</ele>
        <time>2025-08-04T08:50:17.000Z</time>
      </trkpt>
      <trkpt lat="42.81401" lon="2.7455">
        <ele>104.80000305176</ele>
        <time>2025-08-04T08:50:26.000Z</time>
      </trkpt>
      <trkpt lat="42.81397" lon="2.74551">
        <ele>105</ele>
        <time>2025-08-04T08:50:33.000Z</time>
      </trkpt>
      <trkpt lat="42.81397" lon="2.74551">
        <ele>105</ele>
        <time>2025-08-04T08:50:34.000Z</time>
      </trkpt>
      <trkpt lat="42.81403" lon="2.74556">
        <ele>105.59999847412</ele>
        <time>2025-08-04T08:57:10.000Z</time>
      </trkpt>
      <trkpt lat="42.81406" lon="2.74556">
        <ele>105.59999847412</ele>
        <time>2025-08-04T08:57:12.000Z</time>
      </trkpt>
      <trkpt lat="42.81415" lon="2.74561">
        <ele>105.40000152588</ele>
        <time>2025-08-04T08:57:20.000Z</time>
      </trkpt>
      <trkpt lat="42.81417" lon="2.74564">
        <ele>105.40000152588</ele>
        <time>2025-08-04T08:57:23.000Z</time>
      </trkpt>
      <trkpt lat="42.81418" lon="2.74564">
        <ele>105.40000152588</ele>
        <time>2025-08-04T08:57:25.000Z</time>
      </trkpt>
      <trkpt lat="42.81427" lon="2.74568">
        <ele>105.19999694824</ele>
        <time>2025-08-04T08:57:31.000Z</time>
      </trkpt>
      <trkpt lat="42.8143" lon="2.74569">
        <ele>105.19999694824</ele>
        <time>2025-08-04T08:57:34.000Z</time>
      </trkpt>
      <trkpt lat="42.81429" lon="2.74572">
        <ele>105.19999694824</ele>
        <time>2025-08-04T08:57:36.000Z</time>
      </trkpt>
      <trkpt lat="42.81429" lon="2.74572">
        <ele>105.19999694824</ele>
        <time>2025-08-04T08:57:39.000Z</time>
      </trkpt>
      <trkpt lat="42.81427" lon="2.74567">
        <ele>105.19999694824</ele>
        <time>2025-08-04T08:57:50.000Z</time>
      </trkpt>
      <trkpt lat="42.81425" lon="2.74566">
        <ele>105.19999694824</ele>
        <time>2025-08-04T08:57:51.000Z</time>
      </trkpt>
      <trkpt lat="42.81399" lon="2.74551">
        <ele>105.19999694824</ele>
        <time>2025-08-04T08:58:02.000Z</time>
      </trkpt>
      <trkpt lat="42.81384" lon="2.7454">
        <ele>105.40000152588</ele>
        <time>2025-08-04T08:58:10.000Z</time>
      </trkpt>
      <trkpt lat="42.81381" lon="2.74538">
        <ele>105.40000152588</ele>
        <time>2025-08-04T08:58:12.000Z</time>
      </trkpt>
      <trkpt lat="42.81378" lon="2.74532">
        <ele>105.40000152588</ele>
        <time>2025-08-04T08:58:14.000Z</time>
      </trkpt>
      <trkpt lat="42.81379" lon="2.74529">
        <ele>105.40000152588</ele>
        <time>2025-08-04T08:58:15.000Z</time>
      </trkpt>
      <trkpt lat="42.81388" lon="2.7451">
        <ele>105.19999694824</ele>
        <time>2025-08-04T08:58:20.000Z</time>
      </trkpt>
      <trkpt lat="42.81392" lon="2.74504">
        <ele>105.19999694824</ele>
        <time>2025-08-04T08:58:21.000Z</time>
      </trkpt>
      <trkpt lat="42.81398" lon="2.74494">
        <ele>105</ele>
        <time>2025-08-04T08:58:23.000Z</time>
      </trkpt>
      <trkpt lat="42.81403" lon="2.74486">
        <ele>104.59999847412</ele>
        <time>2025-08-04T08:58:25.000Z</time>
      </trkpt>
      <trkpt lat="42.81411" lon="2.74475">
        <ele>104.19999694824</ele>
        <time>2025-08-04T08:58:28.000Z</time>
      </trkpt>
      <trkpt lat="42.81413" lon="2.74473">
        <ele>104.19999694824</ele>
        <time>2025-08-04T08:58:29.000Z</time>
      </trkpt>
      <trkpt lat="42.81427" lon="2.74448">
        <ele>103.19999694824</ele>
        <time>2025-08-04T08:58:36.000Z</time>
      </trkpt>
      <trkpt lat="42.81429" lon="2.74443">
        <ele>103</ele>
        <time>2025-08-04T08:58:37.000Z</time>
      </trkpt>
      <trkpt lat="42.81442" lon="2.74423">
        <ele>102.59999847412</ele>
        <time>2025-08-04T08:58:42.000Z</time>
      </trkpt>
      <trkpt lat="42.81465" lon="2.7439">
        <ele>102.19999694824</ele>
        <time>2025-08-04T08:58:50.000Z</time>
      </trkpt>
      <trkpt lat="42.81481" lon="2.74362">
        <ele>102.40000152588</ele>
        <time>2025-08-04T08:58:57.000Z</time>
      </trkpt>
      <trkpt lat="42.81491" lon="2.74338">
        <ele>102.59999847412</ele>
        <time>2025-08-04T08:59:04.000Z</time>
      </trkpt>
      <trkpt lat="42.81498" lon="2.74312">
        <ele>103.40000152588</ele>
        <time>2025-08-04T08:59:12.000Z</time>
      </trkpt>
      <trkpt lat="42.81508" lon="2.74272">
        <ele>104</ele>
        <time>2025-08-04T08:59:22.000Z</time>
      </trkpt>
      <trkpt lat="42.81517" lon="2.74236">
        <ele>104.19999694824</ele>
        <time>2025-08-04T08:59:30.000Z</time>
      </trkpt>
      <trkpt lat="42.81522" lon="2.742">
        <ele>104</ele>
        <time>2025-08-04T08:59:37.000Z</time>
      </trkpt>
      <trkpt lat="42.81521" lon="2.74151">
        <ele>103.59999847412</ele>
        <time>2025-08-04T08:59:44.000Z</time>
      </trkpt>
      <trkpt lat="42.81519" lon="2.74101">
        <ele>102.40000152588</ele>
        <time>2025-08-04T08:59:51.000Z</time>
      </trkpt>
      <trkpt lat="42.81512" lon="2.74047">
        <ele>102.40000152588</ele>
        <time>2025-08-04T09:00:00.000Z</time>
      </trkpt>
      <trkpt lat="42.81503" lon="2.73995">
        <ele>103.19999694824</ele>
        <time>2025-08-04T09:00:10.000Z</time>
      </trkpt>
      <trkpt lat="42.81505" lon="2.73972">
        <ele>103.80000305176</ele>
        <time>2025-08-04T09:00:15.000Z</time>
      </trkpt>
      <trkpt lat="42.81514" lon="2.73963">
        <ele>104</ele>
        <time>2025-08-04T09:00:18.000Z</time>
      </trkpt>
      <trkpt lat="42.81517" lon="2.73961">
        <ele>104</ele>
        <time>2025-08-04T09:00:19.000Z</time>
      </trkpt>
      <trkpt lat="42.81522" lon="2.73955">
        <ele>104.19999694824</ele>
        <time>2025-08-04T09:00:21.000Z</time>
      </trkpt>
      <trkpt lat="42.81546" lon="2.73935">
        <ele>105</ele>
        <time>2025-08-04T09:00:29.000Z</time>
      </trkpt>
      <trkpt lat="42.81554" lon="2.73925">
        <ele>105.19999694824</ele>
        <time>2025-08-04T09:00:32.000Z</time>
      </trkpt>
      <trkpt lat="42.81567" lon="2.73904">
        <ele>105.59999847412</ele>
        <time>2025-08-04T09:00:38.000Z</time>
      </trkpt>
      <trkpt lat="42.81582" lon="2.73885">
        <ele>105.80000305176</ele>
        <time>2025-08-04T09:00:44.000Z</time>
      </trkpt>
      <trkpt lat="42.81596" lon="2.73865">
        <ele>106.19999694824</ele>
        <time>2025-08-04T09:00:50.000Z</time>
      </trkpt>
      <trkpt lat="42.81598" lon="2.73861">
        <ele>106.40000152588</ele>
        <time>2025-08-04T09:00:51.000Z</time>
      </trkpt>
      <trkpt lat="42.81621" lon="2.73827">
        <ele>107</ele>
        <time>2025-08-04T09:01:01.000Z</time>
      </trkpt>
      <trkpt lat="42.81637" lon="2.73806">
        <ele>107.40000152588</ele>
        <time>2025-08-04T09:01:08.000Z</time>
      </trkpt>
      <trkpt lat="42.8164" lon="2.73802">
        <ele>107.59999847412</ele>
        <time>2025-08-04T09:01:09.000Z</time>
      </trkpt>
      <trkpt lat="42.81657" lon="2.7378">
        <ele>107.80000305176</ele>
        <time>2025-08-04T09:01:16.000Z</time>
      </trkpt>
      <trkpt lat="42.81673" lon="2.73758">
        <ele>108.19999694824</ele>
        <time>2025-08-04T09:01:23.000Z</time>
      </trkpt>
      <trkpt lat="42.81679" lon="2.73749">
        <ele>108.40000152588</ele>
        <time>2025-08-04T09:01:26.000Z</time>
      </trkpt>
      <trkpt lat="42.81689" lon="2.73732">
        <ele>109.19999694824</ele>
        <time>2025-08-04T09:01:32.000Z</time>
      </trkpt>
      <trkpt lat="42.81694" lon="2.73724">
        <ele>109.59999847412</ele>
        <time>2025-08-04T09:01:35.000Z</time>
      </trkpt>
      <trkpt lat="42.81702" lon="2.73712">
        <ele>109.80000305176</ele>
        <time>2025-08-04T09:01:39.000Z</time>
      </trkpt>
      <trkpt lat="42.81712" lon="2.73695">
        <ele>110.19999694824</ele>
        <time>2025-08-04T09:01:45.000Z</time>
      </trkpt>
      <trkpt lat="42.81718" lon="2.73685">
        <ele>110.59999847412</ele>
        <time>2025-08-04T09:01:48.000Z</time>
      </trkpt>
      <trkpt lat="42.81731" lon="2.73665">
        <ele>111.19999694824</ele>
        <time>2025-08-04T09:01:55.000Z</time>
      </trkpt>
      <trkpt lat="42.81751" lon="2.73637">
        <ele>111.59999847412</ele>
        <time>2025-08-04T09:02:05.000Z</time>
      </trkpt>
      <trkpt lat="42.8177" lon="2.73612">
        <ele>112.19999694824</ele>
        <time>2025-08-04T09:02:14.000Z</time>
      </trkpt>
      <trkpt lat="42.81786" lon="2.73595">
        <ele>112.59999847412</ele>
        <time>2025-08-04T09:02:21.000Z</time>
      </trkpt>
      <trkpt lat="42.81788" lon="2.73593">
        <ele>112.59999847412</ele>
        <time>2025-08-04T09:02:22.000Z</time>
      </trkpt>
      <trkpt lat="42.81809" lon="2.73573">
        <ele>113.19999694824</ele>
        <time>2025-08-04T09:02:31.000Z</time>
      </trkpt>
      <trkpt lat="42.81815" lon="2.73566">
        <ele>113.59999847412</ele>
        <time>2025-08-04T09:02:34.000Z</time>
      </trkpt>
      <trkpt lat="42.81828" lon="2.73554">
        <ele>114</ele>
        <time>2025-08-04T09:02:40.000Z</time>
      </trkpt>
      <trkpt lat="42.81843" lon="2.73536">
        <ele>114.80000305176</ele>
        <time>2025-08-04T09:02:47.000Z</time>
      </trkpt>
      <trkpt lat="42.81847" lon="2.7353">
        <ele>114.80000305176</ele>
        <time>2025-08-04T09:02:49.000Z</time>
      </trkpt>
      <trkpt lat="42.81863" lon="2.73497">
        <ele>115.80000305176</ele>
        <time>2025-08-04T09:02:59.000Z</time>
      </trkpt>
      <trkpt lat="42.81869" lon="2.73484">
        <ele>116</ele>
        <time>2025-08-04T09:03:03.000Z</time>
      </trkpt>
      <trkpt lat="42.81876" lon="2.7347">
        <ele>116.19999694824</ele>
        <time>2025-08-04T09:03:07.000Z</time>
      </trkpt>
      <trkpt lat="42.81891" lon="2.7343">
        <ele>116.80000305176</ele>
        <time>2025-08-04T09:03:18.000Z</time>
      </trkpt>
      <trkpt lat="42.81894" lon="2.73418">
        <ele>117.19999694824</ele>
        <time>2025-08-04T09:03:21.000Z</time>
      </trkpt>
      <trkpt lat="42.819" lon="2.73398">
        <ele>117.19999694824</ele>
        <time>2025-08-04T09:03:26.000Z</time>
      </trkpt>
      <trkpt lat="42.8191" lon="2.73357">
        <ele>117.80000305176</ele>
        <time>2025-08-04T09:03:37.000Z</time>
      </trkpt>
      <trkpt lat="42.81914" lon="2.73339">
        <ele>118.19999694824</ele>
        <time>2025-08-04T09:03:42.000Z</time>
      </trkpt>
      <trkpt lat="42.81918" lon="2.73317">
        <ele>118.59999847412</ele>
        <time>2025-08-04T09:03:48.000Z</time>
      </trkpt>
      <trkpt lat="42.81925" lon="2.73288">
        <ele>119.19999694824</ele>
        <time>2025-08-04T09:03:56.000Z</time>
      </trkpt>
      <trkpt lat="42.81927" lon="2.73281">
        <ele>119.19999694824</ele>
        <time>2025-08-04T09:03:58.000Z</time>
      </trkpt>
      <trkpt lat="42.81933" lon="2.73253">
        <ele>120.19999694824</ele>
        <time>2025-08-04T09:04:06.000Z</time>
      </trkpt>
      <trkpt lat="42.81934" lon="2.73249">
        <ele>120.40000152588</ele>
        <time>2025-08-04T09:04:07.000Z</time>
      </trkpt>
      <trkpt lat="42.81941" lon="2.73224">
        <ele>121.19999694824</ele>
        <time>2025-08-04T09:04:15.000Z</time>
      </trkpt>
      <trkpt lat="42.81942" lon="2.7322">
        <ele>121.40000152588</ele>
        <time>2025-08-04T09:04:17.000Z</time>
      </trkpt>
      <trkpt lat="42.81943" lon="2.73209">
        <ele>121.40000152588</ele>
        <time>2025-08-04T09:04:21.000Z</time>
      </trkpt>
      <trkpt lat="42.81944" lon="2.73206">
        <ele>121.59999847412</ele>
        <time>2025-08-04T09:04:22.000Z</time>
      </trkpt>
      <trkpt lat="42.81951" lon="2.73179">
        <ele>122</ele>
        <time>2025-08-04T09:04:30.000Z</time>
      </trkpt>
      <trkpt lat="42.81958" lon="2.73141">
        <ele>122.40000152588</ele>
        <time>2025-08-04T09:04:39.000Z</time>
      </trkpt>
      <trkpt lat="42.81966" lon="2.73099">
        <ele>122.40000152588</ele>
        <time>2025-08-04T09:04:48.000Z</time>
      </trkpt>
      <trkpt lat="42.81974" lon="2.73057">
        <ele>122.40000152588</ele>
        <time>2025-08-04T09:04:57.000Z</time>
      </trkpt>
      <trkpt lat="42.81975" lon="2.73052">
        <ele>122.40000152588</ele>
        <time>2025-08-04T09:04:58.000Z</time>
      </trkpt>
      <trkpt lat="42.81987" lon="2.73007">
        <ele>122.80000305176</ele>
        <time>2025-08-04T09:05:08.000Z</time>
      </trkpt>
      <trkpt lat="42.82004" lon="2.72964">
        <ele>123</ele>
        <time>2025-08-04T09:05:18.000Z</time>
      </trkpt>
      <trkpt lat="42.82017" lon="2.72921">
        <ele>123.19999694824</ele>
        <time>2025-08-04T09:05:28.000Z</time>
      </trkpt>
      <trkpt lat="42.8202" lon="2.72908">
        <ele>123.40000152588</ele>
        <time>2025-08-04T09:05:31.000Z</time>
      </trkpt>
      <trkpt lat="42.82025" lon="2.72892">
        <ele>123.80000305176</ele>
        <time>2025-08-04T09:05:35.000Z</time>
      </trkpt>
      <trkpt lat="42.82036" lon="2.72863">
        <ele>124.19999694824</ele>
        <time>2025-08-04T09:05:43.000Z</time>
      </trkpt>
      <trkpt lat="42.82044" lon="2.72852">
        <ele>124.59999847412</ele>
        <time>2025-08-04T09:05:47.000Z</time>
      </trkpt>
      <trkpt lat="42.8205" lon="2.72844">
        <ele>124.80000305176</ele>
        <time>2025-08-04T09:05:50.000Z</time>
      </trkpt>
      <trkpt lat="42.82063" lon="2.7283">
        <ele>125.59999847412</ele>
        <time>2025-08-04T09:05:56.000Z</time>
      </trkpt>
      <trkpt lat="42.82067" lon="2.72825">
        <ele>125.80000305176</ele>
        <time>2025-08-04T09:05:58.000Z</time>
      </trkpt>
      <trkpt lat="42.82077" lon="2.72812">
        <ele>126.59999847412</ele>
        <time>2025-08-04T09:06:04.000Z</time>
      </trkpt>
      <trkpt lat="42.82082" lon="2.72806">
        <ele>127</ele>
        <time>2025-08-04T09:06:07.000Z</time>
      </trkpt>
      <trkpt lat="42.82095" lon="2.7279">
        <ele>127.80000305176</ele>
        <time>2025-08-04T09:06:14.000Z</time>
      </trkpt>
      <trkpt lat="42.82098" lon="2.72785">
        <ele>128</ele>
        <time>2025-08-04T09:06:16.000Z</time>
      </trkpt>
      <trkpt lat="42.82108" lon="2.72774">
        <ele>128.80000305176</ele>
        <time>2025-08-04T09:06:22.000Z</time>
      </trkpt>
      <trkpt lat="42.82118" lon="2.72755">
        <ele>129.60000610352</ele>
        <time>2025-08-04T09:06:30.000Z</time>
      </trkpt>
      <trkpt lat="42.82118" lon="2.72755">
        <ele>129.80000305176</ele>
        <time>2025-08-04T09:06:33.000Z</time>
      </trkpt>
      <trkpt lat="42.82118" lon="2.72746">
        <ele>130</ele>
        <time>2025-08-04T09:06:51.000Z</time>
      </trkpt>
      <trkpt lat="42.82119" lon="2.72743">
        <ele>130</ele>
        <time>2025-08-04T09:06:56.000Z</time>
      </trkpt>
      <trkpt lat="42.82119" lon="2.72736">
        <ele>130.39999389648</ele>
        <time>2025-08-04T09:07:17.000Z</time>
      </trkpt>
      <trkpt lat="42.82118" lon="2.72729">
        <ele>130.39999389648</ele>
        <time>2025-08-04T09:07:19.000Z</time>
      </trkpt>
      <trkpt lat="42.82118" lon="2.72706">
        <ele>131</ele>
        <time>2025-08-04T09:07:26.000Z</time>
      </trkpt>
      <trkpt lat="42.82121" lon="2.72676">
        <ele>132</ele>
        <time>2025-08-04T09:07:35.000Z</time>
      </trkpt>
      <trkpt lat="42.82122" lon="2.72672">
        <ele>132.19999694824</ele>
        <time>2025-08-04T09:07:36.000Z</time>
      </trkpt>
      <trkpt lat="42.82125" lon="2.72649">
        <ele>133.19999694824</ele>
        <time>2025-08-04T09:07:43.000Z</time>
      </trkpt>
      <trkpt lat="42.82126" lon="2.72639">
        <ele>133.80000305176</ele>
        <time>2025-08-04T09:07:46.000Z</time>
      </trkpt>
      <trkpt lat="42.82126" lon="2.72628">
        <ele>134.39999389648</ele>
        <time>2025-08-04T09:07:49.000Z</time>
      </trkpt>
      <trkpt lat="42.82124" lon="2.7261">
        <ele>135</ele>
        <time>2025-08-04T09:07:54.000Z</time>
      </trkpt>
      <trkpt lat="42.82122" lon="2.726">
        <ele>135.39999389648</ele>
        <time>2025-08-04T09:07:57.000Z</time>
      </trkpt>
      <trkpt lat="42.82119" lon="2.72577">
        <ele>136</ele>
        <time>2025-08-04T09:08:03.000Z</time>
      </trkpt>
      <trkpt lat="42.82115" lon="2.72556">
        <ele>136.19999694824</ele>
        <time>2025-08-04T09:08:09.000Z</time>
      </trkpt>
      <trkpt lat="42.82112" lon="2.72539">
        <ele>136.39999389648</ele>
        <time>2025-08-04T09:08:14.000Z</time>
      </trkpt>
      <trkpt lat="42.82111" lon="2.72532">
        <ele>136.39999389648</ele>
        <time>2025-08-04T09:08:16.000Z</time>
      </trkpt>
      <trkpt lat="42.82105" lon="2.72493">
        <ele>137</ele>
        <time>2025-08-04T09:08:27.000Z</time>
      </trkpt>
      <trkpt lat="42.82106" lon="2.72465">
        <ele>137.19999694824</ele>
        <time>2025-08-04T09:08:35.000Z</time>
      </trkpt>
      <trkpt lat="42.82106" lon="2.72461">
        <ele>137.19999694824</ele>
        <time>2025-08-04T09:08:36.000Z</time>
      </trkpt>
      <trkpt lat="42.82107" lon="2.7244">
        <ele>137.80000305176</ele>
        <time>2025-08-04T09:08:43.000Z</time>
      </trkpt>
      <trkpt lat="42.82109" lon="2.72423">
        <ele>138.19999694824</ele>
        <time>2025-08-04T09:08:48.000Z</time>
      </trkpt>
      <trkpt lat="42.82111" lon="2.72417">
        <ele>138.39999389648</ele>
        <time>2025-08-04T09:08:50.000Z</time>
      </trkpt>
      <trkpt lat="42.82114" lon="2.7239">
        <ele>139.39999389648</ele>
        <time>2025-08-04T09:08:58.000Z</time>
      </trkpt>
      <trkpt lat="42.82115" lon="2.72384">
        <ele>139.60000610352</ele>
        <time>2025-08-04T09:09:00.000Z</time>
      </trkpt>
      <trkpt lat="42.82117" lon="2.72358">
        <ele>140.19999694824</ele>
        <time>2025-08-04T09:09:08.000Z</time>
      </trkpt>
      <trkpt lat="42.82118" lon="2.72351">
        <ele>140.39999389648</ele>
        <time>2025-08-04T09:09:10.000Z</time>
      </trkpt>
      <trkpt lat="42.8212" lon="2.72329">
        <ele>140.80000305176</ele>
        <time>2025-08-04T09:09:17.000Z</time>
      </trkpt>
      <trkpt lat="42.82121" lon="2.72315">
        <ele>141.39999389648</ele>
        <time>2025-08-04T09:09:21.000Z</time>
      </trkpt>
      <trkpt lat="42.82122" lon="2.72299">
        <ele>141.60000610352</ele>
        <time>2025-08-04T09:09:26.000Z</time>
      </trkpt>
      <trkpt lat="42.82124" lon="2.72277">
        <ele>142.19999694824</ele>
        <time>2025-08-04T09:09:33.000Z</time>
      </trkpt>
      <trkpt lat="42.82124" lon="2.72271">
        <ele>142.39999389648</ele>
        <time>2025-08-04T09:09:35.000Z</time>
      </trkpt>
      <trkpt lat="42.82126" lon="2.72256">
        <ele>143</ele>
        <time>2025-08-04T09:09:40.000Z</time>
      </trkpt>
      <trkpt lat="42.82128" lon="2.72244">
        <ele>143.39999389648</ele>
        <time>2025-08-04T09:09:44.000Z</time>
      </trkpt>
      <trkpt lat="42.82131" lon="2.72225">
        <ele>144.39999389648</ele>
        <time>2025-08-04T09:09:50.000Z</time>
      </trkpt>
      <trkpt lat="42.82132" lon="2.72223">
        <ele>144.60000610352</ele>
        <time>2025-08-04T09:09:51.000Z</time>
      </trkpt>
      <trkpt lat="42.82136" lon="2.72202">
        <ele>145.39999389648</ele>
        <time>2025-08-04T09:09:58.000Z</time>
      </trkpt>
      <trkpt lat="42.82137" lon="2.72197">
        <ele>145.60000610352</ele>
        <time>2025-08-04T09:10:00.000Z</time>
      </trkpt>
      <trkpt lat="42.8214" lon="2.72188">
        <ele>146.19999694824</ele>
        <time>2025-08-04T09:10:04.000Z</time>
      </trkpt>
      <trkpt lat="42.82144" lon="2.72174">
        <ele>146.60000610352</ele>
        <time>2025-08-04T09:10:09.000Z</time>
      </trkpt>
      <trkpt lat="42.82145" lon="2.72171">
        <ele>146.80000305176</ele>
        <time>2025-08-04T09:10:10.000Z</time>
      </trkpt>
      <trkpt lat="42.82149" lon="2.72158">
        <ele>147.80000305176</ele>
        <time>2025-08-04T09:10:15.000Z</time>
      </trkpt>
      <trkpt lat="42.8215" lon="2.72155">
        <ele>148</ele>
        <time>2025-08-04T09:10:16.000Z</time>
      </trkpt>
      <trkpt lat="42.82156" lon="2.72139">
        <ele>148.80000305176</ele>
        <time>2025-08-04T09:10:22.000Z</time>
      </trkpt>
      <trkpt lat="42.82157" lon="2.72136">
        <ele>148.80000305176</ele>
        <time>2025-08-04T09:10:23.000Z</time>
      </trkpt>
      <trkpt lat="42.82165" lon="2.72119">
        <ele>149.80000305176</ele>
        <time>2025-08-04T09:10:30.000Z</time>
      </trkpt>
      <trkpt lat="42.82175" lon="2.72097">
        <ele>150.80000305176</ele>
        <time>2025-08-04T09:10:38.000Z</time>
      </trkpt>
      <trkpt lat="42.82177" lon="2.72091">
        <ele>151</ele>
        <time>2025-08-04T09:10:40.000Z</time>
      </trkpt>
      <trkpt lat="42.82184" lon="2.72076">
        <ele>151.39999389648</ele>
        <time>2025-08-04T09:10:46.000Z</time>
      </trkpt>
      <trkpt lat="42.8219" lon="2.7206">
        <ele>152</ele>
        <time>2025-08-04T09:10:52.000Z</time>
      </trkpt>
      <trkpt lat="42.82191" lon="2.72057">
        <ele>152</ele>
        <time>2025-08-04T09:10:53.000Z</time>
      </trkpt>
      <trkpt lat="42.82198" lon="2.72038">
        <ele>152.39999389648</ele>
        <time>2025-08-04T09:11:00.000Z</time>
      </trkpt>
      <trkpt lat="42.82199" lon="2.72035">
        <ele>152.39999389648</ele>
        <time>2025-08-04T09:11:01.000Z</time>
      </trkpt>
      <trkpt lat="42.82201" lon="2.72028">
        <ele>152.60000610352</ele>
        <time>2025-08-04T09:11:04.000Z</time>
      </trkpt>
      <trkpt lat="42.82204" lon="2.7202">
        <ele>152.80000305176</ele>
        <time>2025-08-04T09:11:07.000Z</time>
      </trkpt>
      <trkpt lat="42.82211" lon="2.72008">
        <ele>153</ele>
        <time>2025-08-04T09:11:12.000Z</time>
      </trkpt>
      <trkpt lat="42.82222" lon="2.71984">
        <ele>153.60000610352</ele>
        <time>2025-08-04T09:11:21.000Z</time>
      </trkpt>
      <trkpt lat="42.82224" lon="2.71979">
        <ele>153.80000305176</ele>
        <time>2025-08-04T09:11:23.000Z</time>
      </trkpt>
      <trkpt lat="42.82231" lon="2.71959">
        <ele>154.39999389648</ele>
        <time>2025-08-04T09:11:30.000Z</time>
      </trkpt>
      <trkpt lat="42.82238" lon="2.71936">
        <ele>155</ele>
        <time>2025-08-04T09:11:38.000Z</time>
      </trkpt>
      <trkpt lat="42.82243" lon="2.71919">
        <ele>155.39999389648</ele>
        <time>2025-08-04T09:11:44.000Z</time>
      </trkpt>
      <trkpt lat="42.8225" lon="2.71898">
        <ele>156</ele>
        <time>2025-08-04T09:11:51.000Z</time>
      </trkpt>
      <trkpt lat="42.82252" lon="2.71892">
        <ele>156.19999694824</ele>
        <time>2025-08-04T09:11:53.000Z</time>
      </trkpt>
      <trkpt lat="42.82259" lon="2.71869">
        <ele>156.80000305176</ele>
        <time>2025-08-04T09:12:01.000Z</time>
      </trkpt>
      <trkpt lat="42.82262" lon="2.71861">
        <ele>157</ele>
        <time>2025-08-04T09:12:04.000Z</time>
      </trkpt>
      <trkpt lat="42.82267" lon="2.71843">
        <ele>157.80000305176</ele>
        <time>2025-08-04T09:12:10.000Z</time>
      </trkpt>
      <trkpt lat="42.82269" lon="2.71833">
        <ele>158.19999694824</ele>
        <time>2025-08-04T09:12:13.000Z</time>
      </trkpt>
      <trkpt lat="42.82272" lon="2.71808">
        <ele>158.80000305176</ele>
        <time>2025-08-04T09:12:20.000Z</time>
      </trkpt>
      <trkpt lat="42.82272" lon="2.71784">
        <ele>159.19999694824</ele>
        <time>2025-08-04T09:12:26.000Z</time>
      </trkpt>
      <trkpt lat="42.82272" lon="2.71768">
        <ele>159.39999389648</ele>
        <time>2025-08-04T09:12:30.000Z</time>
      </trkpt>
      <trkpt lat="42.82267" lon="2.71726">
        <ele>159.60000610352</ele>
        <time>2025-08-04T09:12:41.000Z</time>
      </trkpt>
      <trkpt lat="42.82263" lon="2.71688">
        <ele>159.80000305176</ele>
        <time>2025-08-04T09:12:51.000Z</time>
      </trkpt>
      <trkpt lat="42.82262" lon="2.71676">
        <ele>160</ele>
        <time>2025-08-04T09:12:54.000Z</time>
      </trkpt>
      <trkpt lat="42.82261" lon="2.71652">
        <ele>160.39999389648</ele>
        <time>2025-08-04T09:12:59.000Z</time>
      </trkpt>
      <trkpt lat="42.82265" lon="2.71611">
        <ele>160.39999389648</ele>
        <time>2025-08-04T09:13:07.000Z</time>
      </trkpt>
      <trkpt lat="42.82274" lon="2.71572">
        <ele>160.39999389648</ele>
        <time>2025-08-04T09:13:15.000Z</time>
      </trkpt>
      <trkpt lat="42.82274" lon="2.71533">
        <ele>160</ele>
        <time>2025-08-04T09:13:22.000Z</time>
      </trkpt>
      <trkpt lat="42.82271" lon="2.715">
        <ele>159.80000305176</ele>
        <time>2025-08-04T09:13:27.000Z</time>
      </trkpt>
      <trkpt lat="42.82268" lon="2.71462">
        <ele>158.80000305176</ele>
        <time>2025-08-04T09:13:32.000Z</time>
      </trkpt>
      <trkpt lat="42.82267" lon="2.71446">
        <ele>158.60000610352</ele>
        <time>2025-08-04T09:13:34.000Z</time>
      </trkpt>
      <trkpt lat="42.82266" lon="2.71407">
        <ele>157.60000610352</ele>
        <time>2025-08-04T09:13:39.000Z</time>
      </trkpt>
      <trkpt lat="42.82266" lon="2.71386">
        <ele>157</ele>
        <time>2025-08-04T09:13:42.000Z</time>
      </trkpt>
      <trkpt lat="42.82264" lon="2.71359">
        <ele>156.60000610352</ele>
        <time>2025-08-04T09:13:47.000Z</time>
      </trkpt>
      <trkpt lat="42.82267" lon="2.71332">
        <ele>156.80000305176</ele>
        <time>2025-08-04T09:13:53.000Z</time>
      </trkpt>
      <trkpt lat="42.82277" lon="2.71321">
        <ele>157.39999389648</ele>
        <time>2025-08-04T09:13:58.000Z</time>
      </trkpt>
      <trkpt lat="42.82286" lon="2.71313">
        <ele>158.19999694824</ele>
        <time>2025-08-04T09:14:02.000Z</time>
      </trkpt>
      <trkpt lat="42.82286" lon="2.71311">
        <ele>158.19999694824</ele>
        <time>2025-08-04T09:14:03.000Z</time>
      </trkpt>
      <trkpt lat="42.82283" lon="2.71305">
        <ele>158.60000610352</ele>
        <time>2025-08-04T09:14:05.000Z</time>
      </trkpt>
      <trkpt lat="42.82279" lon="2.71299">
        <ele>159</ele>
        <time>2025-08-04T09:14:07.000Z</time>
      </trkpt>
      <trkpt lat="42.82269" lon="2.71287">
        <ele>159.60000610352</ele>
        <time>2025-08-04T09:14:12.000Z</time>
      </trkpt>
      <trkpt lat="42.82262" lon="2.71281">
        <ele>159.60000610352</ele>
        <time>2025-08-04T09:14:15.000Z</time>
      </trkpt>
      <trkpt lat="42.82249" lon="2.71268">
        <ele>160.19999694824</ele>
        <time>2025-08-04T09:14:21.000Z</time>
      </trkpt>
      <trkpt lat="42.82244" lon="2.71261">
        <ele>160.80000305176</ele>
        <time>2025-08-04T09:14:24.000Z</time>
      </trkpt>
      <trkpt lat="42.82235" lon="2.71249">
        <ele>161.39999389648</ele>
        <time>2025-08-04T09:14:29.000Z</time>
      </trkpt>
      <trkpt lat="42.82228" lon="2.71236">
        <ele>161.80000305176</ele>
        <time>2025-08-04T09:14:33.000Z</time>
      </trkpt>
      <trkpt lat="42.82223" lon="2.71223">
        <ele>162.19999694824</ele>
        <time>2025-08-04T09:14:37.000Z</time>
      </trkpt>
      <trkpt lat="42.82218" lon="2.71196">
        <ele>162.80000305176</ele>
        <time>2025-08-04T09:14:45.000Z</time>
      </trkpt>
      <trkpt lat="42.82218" lon="2.71192">
        <ele>162.80000305176</ele>
        <time>2025-08-04T09:14:46.000Z</time>
      </trkpt>
      <trkpt lat="42.82214" lon="2.71168">
        <ele>163.39999389648</ele>
        <time>2025-08-04T09:14:53.000Z</time>
      </trkpt>
      <trkpt lat="42.82205" lon="2.71139">
        <ele>163.60000610352</ele>
        <time>2025-08-04T09:15:01.000Z</time>
      </trkpt>
      <trkpt lat="42.82189" lon="2.71112">
        <ele>163.80000305176</ele>
        <time>2025-08-04T09:15:06.000Z</time>
      </trkpt>
      <trkpt lat="42.82168" lon="2.71079">
        <ele>162.80000305176</ele>
        <time>2025-08-04T09:15:11.000Z</time>
      </trkpt>
      <trkpt lat="42.82148" lon="2.71054">
        <ele>161.60000610352</ele>
        <time>2025-08-04T09:15:15.000Z</time>
      </trkpt>
      <trkpt lat="42.82137" lon="2.71041">
        <ele>161</ele>
        <time>2025-08-04T09:15:17.000Z</time>
      </trkpt>
      <trkpt lat="42.8213" lon="2.71034">
        <ele>160.39999389648</ele>
        <time>2025-08-04T09:15:18.000Z</time>
      </trkpt>
      <trkpt lat="42.8211" lon="2.71013">
        <ele>159.39999389648</ele>
        <time>2025-08-04T09:15:21.000Z</time>
      </trkpt>
      <trkpt lat="42.82096" lon="2.70999">
        <ele>158.60000610352</ele>
        <time>2025-08-04T09:15:23.000Z</time>
      </trkpt>
      <trkpt lat="42.82088" lon="2.70991">
        <ele>158</ele>
        <time>2025-08-04T09:15:24.000Z</time>
      </trkpt>
      <trkpt lat="42.82066" lon="2.70966">
        <ele>156.80000305176</ele>
        <time>2025-08-04T09:15:27.000Z</time>
      </trkpt>
      <trkpt lat="42.82052" lon="2.70952">
        <ele>155.60000610352</ele>
        <time>2025-08-04T09:15:29.000Z</time>
      </trkpt>
      <trkpt lat="42.82034" lon="2.70934">
        <ele>154.39999389648</ele>
        <time>2025-08-04T09:15:31.000Z</time>
      </trkpt>
      <trkpt lat="42.82011" lon="2.70907">
        <ele>152.80000305176</ele>
        <time>2025-08-04T09:15:34.000Z</time>
      </trkpt>
      <trkpt lat="42.81996" lon="2.70891">
        <ele>151.80000305176</ele>
        <time>2025-08-04T09:15:36.000Z</time>
      </trkpt>
      <trkpt lat="42.81975" lon="2.70867">
        <ele>150.19999694824</ele>
        <time>2025-08-04T09:15:39.000Z</time>
      </trkpt>
      <trkpt lat="42.81968" lon="2.70858">
        <ele>150</ele>
        <time>2025-08-04T09:15:40.000Z</time>
      </trkpt>
      <trkpt lat="42.81963" lon="2.70848">
        <ele>149.19999694824</ele>
        <time>2025-08-04T09:15:41.000Z</time>
      </trkpt>
      <trkpt lat="42.81959" lon="2.70838">
        <ele>149</ele>
        <time>2025-08-04T09:15:42.000Z</time>
      </trkpt>
      <trkpt lat="42.81948" lon="2.70807">
        <ele>148</ele>
        <time>2025-08-04T09:15:45.000Z</time>
      </trkpt>
      <trkpt lat="42.81944" lon="2.70798">
        <ele>147.80000305176</ele>
        <time>2025-08-04T09:15:46.000Z</time>
      </trkpt>
      <trkpt lat="42.81929" lon="2.7075">
        <ele>146.80000305176</ele>
        <time>2025-08-04T09:15:51.000Z</time>
      </trkpt>
      <trkpt lat="42.81923" lon="2.70733">
        <ele>146.80000305176</ele>
        <time>2025-08-04T09:15:53.000Z</time>
      </trkpt>
      <trkpt lat="42.81907" lon="2.70684">
        <ele>145.80000305176</ele>
        <time>2025-08-04T09:15:59.000Z</time>
      </trkpt>
      <trkpt lat="42.81889" lon="2.70633">
        <ele>145.60000610352</ele>
        <time>2025-08-04T09:16:06.000Z</time>
      </trkpt>
      <trkpt lat="42.8187" lon="2.7058">
        <ele>145.60000610352</ele>
        <time>2025-08-04T09:16:14.000Z</time>
      </trkpt>
      <trkpt lat="42.81868" lon="2.70567">
        <ele>145.60000610352</ele>
        <time>2025-08-04T09:16:16.000Z</time>
      </trkpt>
      <trkpt lat="42.8187" lon="2.70554">
        <ele>145.60000610352</ele>
        <time>2025-08-04T09:16:18.000Z</time>
      </trkpt>
      <trkpt lat="42.81872" lon="2.70536">
        <ele>145.60000610352</ele>
        <time>2025-08-04T09:16:21.000Z</time>
      </trkpt>
      <trkpt lat="42.81871" lon="2.70524">
        <ele>145.60000610352</ele>
        <time>2025-08-04T09:16:23.000Z</time>
      </trkpt>
      <trkpt lat="42.81867" lon="2.70489">
        <ele>145.60000610352</ele>
        <time>2025-08-04T09:16:29.000Z</time>
      </trkpt>
      <trkpt lat="42.81865" lon="2.70484">
        <ele>145.80000305176</ele>
        <time>2025-08-04T09:16:30.000Z</time>
      </trkpt>
      <trkpt lat="42.81858" lon="2.70468">
        <ele>146</ele>
        <time>2025-08-04T09:16:33.000Z</time>
      </trkpt>
      <trkpt lat="42.81845" lon="2.70447">
        <ele>146</ele>
        <time>2025-08-04T09:16:37.000Z</time>
      </trkpt>
      <trkpt lat="42.81827" lon="2.70411">
        <ele>145.80000305176</ele>
        <time>2025-08-04T09:16:43.000Z</time>
      </trkpt>
      <trkpt lat="42.81825" lon="2.70404">
        <ele>145.60000610352</ele>
        <time>2025-08-04T09:16:44.000Z</time>
      </trkpt>
      <trkpt lat="42.81816" lon="2.7036">
        <ele>144.80000305176</ele>
        <time>2025-08-04T09:16:50.000Z</time>
      </trkpt>
      <trkpt lat="42.81812" lon="2.70337">
        <ele>144.39999389648</ele>
        <time>2025-08-04T09:16:53.000Z</time>
      </trkpt>
      <trkpt lat="42.81812" lon="2.70331">
        <ele>144.19999694824</ele>
        <time>2025-08-04T09:16:54.000Z</time>
      </trkpt>
      <trkpt lat="42.81811" lon="2.70317">
        <ele>143.80000305176</ele>
        <time>2025-08-04T09:16:56.000Z</time>
      </trkpt>
      <trkpt lat="42.81811" lon="2.70303">
        <ele>143.80000305176</ele>
        <time>2025-08-04T09:16:58.000Z</time>
      </trkpt>
      <trkpt lat="42.81812" lon="2.70277">
        <ele>143.60000610352</ele>
        <time>2025-08-04T09:17:02.000Z</time>
      </trkpt>
      <trkpt lat="42.81814" lon="2.70229">
        <ele>143.39999389648</ele>
        <time>2025-08-04T09:17:10.000Z</time>
      </trkpt>
      <trkpt lat="42.81808" lon="2.70174">
        <ele>143.19999694824</ele>
        <time>2025-08-04T09:17:19.000Z</time>
      </trkpt>
      <trkpt lat="42.81797" lon="2.70126">
        <ele>142.80000305176</ele>
        <time>2025-08-04T09:17:27.000Z</time>
      </trkpt>
      <trkpt lat="42.81795" lon="2.7012">
        <ele>142.80000305176</ele>
        <time>2025-08-04T09:17:28.000Z</time>
      </trkpt>
      <trkpt lat="42.81793" lon="2.70115">
        <ele>142.60000610352</ele>
        <time>2025-08-04T09:17:29.000Z</time>
      </trkpt>
      <trkpt lat="42.81771" lon="2.70074">
        <ele>142</ele>
        <time>2025-08-04T09:17:37.000Z</time>
      </trkpt>
      <trkpt lat="42.8176" lon="2.70057">
        <ele>141.60000610352</ele>
        <time>2025-08-04T09:17:40.000Z</time>
      </trkpt>
      <trkpt lat="42.81752" lon="2.70045">
        <ele>141.39999389648</ele>
        <time>2025-08-04T09:17:42.000Z</time>
      </trkpt>
      <trkpt lat="42.81732" lon="2.70021">
        <ele>140.60000610352</ele>
        <time>2025-08-04T09:17:46.000Z</time>
      </trkpt>
      <trkpt lat="42.81719" lon="2.70004">
        <ele>139.60000610352</ele>
        <time>2025-08-04T09:17:49.000Z</time>
      </trkpt>
      <trkpt lat="42.81715" lon="2.69998">
        <ele>139.39999389648</ele>
        <time>2025-08-04T09:17:50.000Z</time>
      </trkpt>
      <trkpt lat="42.81706" lon="2.6998">
        <ele>138.80000305176</ele>
        <time>2025-08-04T09:17:53.000Z</time>
      </trkpt>
      <trkpt lat="42.81705" lon="2.69974">
        <ele>138.39999389648</ele>
        <time>2025-08-04T09:17:54.000Z</time>
      </trkpt>
      <trkpt lat="42.81701" lon="2.69953">
        <ele>137.39999389648</ele>
        <time>2025-08-04T09:17:57.000Z</time>
      </trkpt>
      <trkpt lat="42.81697" lon="2.69924">
        <ele>136.19999694824</ele>
        <time>2025-08-04T09:18:01.000Z</time>
      </trkpt>
      <trkpt lat="42.81691" lon="2.69881">
        <ele>136</ele>
        <time>2025-08-04T09:18:08.000Z</time>
      </trkpt>
      <trkpt lat="42.81687" lon="2.6986">
        <ele>136.19999694824</ele>
        <time>2025-08-04T09:18:13.000Z</time>
      </trkpt>
      <trkpt lat="42.81684" lon="2.69841">
        <ele>137</ele>
        <time>2025-08-04T09:18:19.000Z</time>
      </trkpt>
      <trkpt lat="42.81683" lon="2.69827">
        <ele>137.60000610352</ele>
        <time>2025-08-04T09:18:23.000Z</time>
      </trkpt>
      <trkpt lat="42.81683" lon="2.69812">
        <ele>138.19999694824</ele>
        <time>2025-08-04T09:18:27.000Z</time>
      </trkpt>
      <trkpt lat="42.81683" lon="2.69805">
        <ele>138.60000610352</ele>
        <time>2025-08-04T09:18:29.000Z</time>
      </trkpt>
      <trkpt lat="42.81681" lon="2.69778">
        <ele>139.19999694824</ele>
        <time>2025-08-04T09:18:36.000Z</time>
      </trkpt>
      <trkpt lat="42.8168" lon="2.69756">
        <ele>139.60000610352</ele>
        <time>2025-08-04T09:18:42.000Z</time>
      </trkpt>
      <trkpt lat="42.81679" lon="2.6974">
        <ele>139.80000305176</ele>
        <time>2025-08-04T09:18:46.000Z</time>
      </trkpt>
      <trkpt lat="42.81681" lon="2.69708">
        <ele>140.19999694824</ele>
        <time>2025-08-04T09:18:54.000Z</time>
      </trkpt>
      <trkpt lat="42.8169" lon="2.69666">
        <ele>140.39999389648</ele>
        <time>2025-08-04T09:19:03.000Z</time>
      </trkpt>
      <trkpt lat="42.81697" lon="2.69637">
        <ele>140</ele>
        <time>2025-08-04T09:19:08.000Z</time>
      </trkpt>
      <trkpt lat="42.8171" lon="2.69587">
        <ele>139.39999389648</ele>
        <time>2025-08-04T09:19:17.000Z</time>
      </trkpt>
      <trkpt lat="42.81722" lon="2.69539">
        <ele>138.80000305176</ele>
        <time>2025-08-04T09:19:26.000Z</time>
      </trkpt>
      <trkpt lat="42.81723" lon="2.69534">
        <ele>138.80000305176</ele>
        <time>2025-08-04T09:19:27.000Z</time>
      </trkpt>
      <trkpt lat="42.81726" lon="2.6952">
        <ele>138.60000610352</ele>
        <time>2025-08-04T09:19:30.000Z</time>
      </trkpt>
      <trkpt lat="42.81733" lon="2.6949">
        <ele>138</ele>
        <time>2025-08-04T09:19:36.000Z</time>
      </trkpt>
      <trkpt lat="42.81737" lon="2.6945">
        <ele>137.80000305176</ele>
        <time>2025-08-04T09:19:44.000Z</time>
      </trkpt>
      <trkpt lat="42.81737" lon="2.69423">
        <ele>137.60000610352</ele>
        <time>2025-08-04T09:19:49.000Z</time>
      </trkpt>
      <trkpt lat="42.81737" lon="2.69412">
        <ele>137.39999389648</ele>
        <time>2025-08-04T09:19:51.000Z</time>
      </trkpt>
      <trkpt lat="42.81733" lon="2.69361">
        <ele>137.19999694824</ele>
        <time>2025-08-04T09:20:00.000Z</time>
      </trkpt>
      <trkpt lat="42.81722" lon="2.69327">
        <ele>136.60000610352</ele>
        <time>2025-08-04T09:20:06.000Z</time>
      </trkpt>
      <trkpt lat="42.81716" lon="2.69315">
        <ele>136.39999389648</ele>
        <time>2025-08-04T09:20:08.000Z</time>
      </trkpt>
      <trkpt lat="42.81704" lon="2.69285">
        <ele>135.39999389648</ele>
        <time>2025-08-04T09:20:13.000Z</time>
      </trkpt>
      <trkpt lat="42.81698" lon="2.69274">
        <ele>135.19999694824</ele>
        <time>2025-08-04T09:20:15.000Z</time>
      </trkpt>
      <trkpt lat="42.81677" lon="2.69221">
        <ele>134.19999694824</ele>
        <time>2025-08-04T09:20:24.000Z</time>
      </trkpt>
      <trkpt lat="42.81669" lon="2.69183">
        <ele>133.60000610352</ele>
        <time>2025-08-04T09:20:31.000Z</time>
      </trkpt>
      <trkpt lat="42.81662" lon="2.69148">
        <ele>134</ele>
        <time>2025-08-04T09:20:39.000Z</time>
      </trkpt>
      <trkpt lat="42.81658" lon="2.69127">
        <ele>134.39999389648</ele>
        <time>2025-08-04T09:20:45.000Z</time>
      </trkpt>
      <trkpt lat="42.81655" lon="2.69112">
        <ele>135</ele>
        <time>2025-08-04T09:20:50.000Z</time>
      </trkpt>
      <trkpt lat="42.81653" lon="2.69099">
        <ele>135.39999389648</ele>
        <time>2025-08-04T09:20:54.000Z</time>
      </trkpt>
      <trkpt lat="42.8165" lon="2.69083">
        <ele>136.19999694824</ele>
        <time>2025-08-04T09:20:59.000Z</time>
      </trkpt>
      <trkpt lat="42.8165" lon="2.6908">
        <ele>136.39999389648</ele>
        <time>2025-08-04T09:21:00.000Z</time>
      </trkpt>
      <trkpt lat="42.81646" lon="2.6906">
        <ele>137.19999694824</ele>
        <time>2025-08-04T09:21:07.000Z</time>
      </trkpt>
      <trkpt lat="42.81645" lon="2.6905">
        <ele>137.39999389648</ele>
        <time>2025-08-04T09:21:10.000Z</time>
      </trkpt>
      <trkpt lat="42.81644" lon="2.69045">
        <ele>137.60000610352</ele>
        <time>2025-08-04T09:21:12.000Z</time>
      </trkpt>
      <trkpt lat="42.81643" lon="2.69036">
        <ele>138</ele>
        <time>2025-08-04T09:21:15.000Z</time>
      </trkpt>
      <trkpt lat="42.81642" lon="2.69028">
        <ele>138.60000610352</ele>
        <time>2025-08-04T09:21:18.000Z</time>
      </trkpt>
      <trkpt lat="42.81641" lon="2.69016">
        <ele>139.19999694824</ele>
        <time>2025-08-04T09:21:22.000Z</time>
      </trkpt>
      <trkpt lat="42.81641" lon="2.69004">
        <ele>139.60000610352</ele>
        <time>2025-08-04T09:21:26.000Z</time>
      </trkpt>
      <trkpt lat="42.81643" lon="2.68984">
        <ele>140</ele>
        <time>2025-08-04T09:21:32.000Z</time>
      </trkpt>
      <trkpt lat="42.81646" lon="2.68961">
        <ele>140.60000610352</ele>
        <time>2025-08-04T09:21:39.000Z</time>
      </trkpt>
      <trkpt lat="42.81648" lon="2.68954">
        <ele>140.80000305176</ele>
        <time>2025-08-04T09:21:41.000Z</time>
      </trkpt>
      <trkpt lat="42.81649" lon="2.68936">
        <ele>140.80000305176</ele>
        <time>2025-08-04T09:21:46.000Z</time>
      </trkpt>
      <trkpt lat="42.81654" lon="2.68892">
        <ele>141</ele>
        <time>2025-08-04T09:21:57.000Z</time>
      </trkpt>
      <trkpt lat="42.81658" lon="2.68855">
        <ele>140.60000610352</ele>
        <time>2025-08-04T09:22:05.000Z</time>
      </trkpt>
      <trkpt lat="42.8166" lon="2.6881">
        <ele>140.39999389648</ele>
        <time>2025-08-04T09:22:15.000Z</time>
      </trkpt>
      <trkpt lat="42.81652" lon="2.68765">
        <ele>140.39999389648</ele>
        <time>2025-08-04T09:22:25.000Z</time>
      </trkpt>
      <trkpt lat="42.81642" lon="2.68728">
        <ele>140.39999389648</ele>
        <time>2025-08-04T09:22:34.000Z</time>
      </trkpt>
      <trkpt lat="42.81633" lon="2.68687">
        <ele>140.60000610352</ele>
        <time>2025-08-04T09:22:44.000Z</time>
      </trkpt>
      <trkpt lat="42.81623" lon="2.68642">
        <ele>141.19999694824</ele>
        <time>2025-08-04T09:22:55.000Z</time>
      </trkpt>
      <trkpt lat="42.81618" lon="2.6861">
        <ele>141.60000610352</ele>
        <time>2025-08-04T09:23:04.000Z</time>
      </trkpt>
      <trkpt lat="42.81613" lon="2.68588">
        <ele>141.60000610352</ele>
        <time>2025-08-04T09:23:09.000Z</time>
      </trkpt>
      <trkpt lat="42.81603" lon="2.6854">
        <ele>140</ele>
        <time>2025-08-04T09:23:18.000Z</time>
      </trkpt>
      <trkpt lat="42.81601" lon="2.68534">
        <ele>139.80000305176</ele>
        <time>2025-08-04T09:23:19.000Z</time>
      </trkpt>
      <trkpt lat="42.81594" lon="2.68504">
        <ele>138.80000305176</ele>
        <time>2025-08-04T09:23:24.000Z</time>
      </trkpt>
      <trkpt lat="42.81589" lon="2.68478">
        <ele>137.80000305176</ele>
        <time>2025-08-04T09:23:28.000Z</time>
      </trkpt>
      <trkpt lat="42.81587" lon="2.68472">
        <ele>137.80000305176</ele>
        <time>2025-08-04T09:23:29.000Z</time>
      </trkpt>
      <trkpt lat="42.81582" lon="2.68447">
        <ele>136</ele>
        <time>2025-08-04T09:23:33.000Z</time>
      </trkpt>
      <trkpt lat="42.8158" lon="2.68435">
        <ele>135.60000610352</ele>
        <time>2025-08-04T09:23:35.000Z</time>
      </trkpt>
      <trkpt lat="42.81576" lon="2.68418">
        <ele>135</ele>
        <time>2025-08-04T09:23:38.000Z</time>
      </trkpt>
      <trkpt lat="42.81573" lon="2.68406">
        <ele>133.80000305176</ele>
        <time>2025-08-04T09:23:40.000Z</time>
      </trkpt>
      <trkpt lat="42.81571" lon="2.684">
        <ele>133.60000610352</ele>
        <time>2025-08-04T09:23:41.000Z</time>
      </trkpt>
      <trkpt lat="42.81566" lon="2.68376">
        <ele>132.80000305176</ele>
        <time>2025-08-04T09:23:45.000Z</time>
      </trkpt>
      <trkpt lat="42.81561" lon="2.68353">
        <ele>131.60000610352</ele>
        <time>2025-08-04T09:23:49.000Z</time>
      </trkpt>
      <trkpt lat="42.81558" lon="2.68341">
        <ele>131.19999694824</ele>
        <time>2025-08-04T09:23:51.000Z</time>
      </trkpt>
      <trkpt lat="42.81552" lon="2.68316">
        <ele>130.39999389648</ele>
        <time>2025-08-04T09:23:55.000Z</time>
      </trkpt>
      <trkpt lat="42.81547" lon="2.6829">
        <ele>129.39999389648</ele>
        <time>2025-08-04T09:23:59.000Z</time>
      </trkpt>
      <trkpt lat="42.81545" lon="2.68284">
        <ele>129.19999694824</ele>
        <time>2025-08-04T09:24:00.000Z</time>
      </trkpt>
      <trkpt lat="42.81541" lon="2.68265">
        <ele>128.19999694824</ele>
        <time>2025-08-04T09:24:03.000Z</time>
      </trkpt>
      <trkpt lat="42.81539" lon="2.68249">
        <ele>127.19999694824</ele>
        <time>2025-08-04T09:24:06.000Z</time>
      </trkpt>
      <trkpt lat="42.81541" lon="2.68243">
        <ele>126.80000305176</ele>
        <time>2025-08-04T09:24:07.000Z</time>
      </trkpt>
      <trkpt lat="42.81543" lon="2.68238">
        <ele>126.59999847412</ele>
        <time>2025-08-04T09:24:08.000Z</time>
      </trkpt>
      <trkpt lat="42.81547" lon="2.68235">
        <ele>126.40000152588</ele>
        <time>2025-08-04T09:24:09.000Z</time>
      </trkpt>
      <trkpt lat="42.81554" lon="2.68231">
        <ele>126</ele>
        <time>2025-08-04T09:24:11.000Z</time>
      </trkpt>
      <trkpt lat="42.81558" lon="2.68231">
        <ele>125.80000305176</ele>
        <time>2025-08-04T09:24:12.000Z</time>
      </trkpt>
      <trkpt lat="42.81562" lon="2.68231">
        <ele>125.80000305176</ele>
        <time>2025-08-04T09:24:13.000Z</time>
      </trkpt>
      <trkpt lat="42.81581" lon="2.68234">
        <ele>125</ele>
        <time>2025-08-04T09:24:19.000Z</time>
      </trkpt>
      <trkpt lat="42.81604" lon="2.68232">
        <ele>125.19999694824</ele>
        <time>2025-08-04T09:24:26.000Z</time>
      </trkpt>
      <trkpt lat="42.81625" lon="2.68229">
        <ele>125.59999847412</ele>
        <time>2025-08-04T09:24:34.000Z</time>
      </trkpt>
      <trkpt lat="42.81643" lon="2.68226">
        <ele>126</ele>
        <time>2025-08-04T09:24:41.000Z</time>
      </trkpt>
      <trkpt lat="42.81655" lon="2.68224">
        <ele>126.40000152588</ele>
        <time>2025-08-04T09:24:46.000Z</time>
      </trkpt>
      <trkpt lat="42.81663" lon="2.68224">
        <ele>126.59999847412</ele>
        <time>2025-08-04T09:24:49.000Z</time>
      </trkpt>
      <trkpt lat="42.81675" lon="2.68216">
        <ele>126.80000305176</ele>
        <time>2025-08-04T09:24:54.000Z</time>
      </trkpt>
      <trkpt lat="42.81679" lon="2.68206">
        <ele>127</ele>
        <time>2025-08-04T09:24:57.000Z</time>
      </trkpt>
      <trkpt lat="42.81679" lon="2.68202">
        <ele>127</ele>
        <time>2025-08-04T09:24:58.000Z</time>
      </trkpt>
      <trkpt lat="42.81667" lon="2.68185">
        <ele>127</ele>
        <time>2025-08-04T09:25:03.000Z</time>
      </trkpt>
      <trkpt lat="42.81642" lon="2.68161">
        <ele>126.59999847412</ele>
        <time>2025-08-04T09:25:12.000Z</time>
      </trkpt>
      <trkpt lat="42.81622" lon="2.68142">
        <ele>127.19999694824</ele>
        <time>2025-08-04T09:25:21.000Z</time>
      </trkpt>
      <trkpt lat="42.81618" lon="2.68138">
        <ele>127.40000152588</ele>
        <time>2025-08-04T09:25:23.000Z</time>
      </trkpt>
      <trkpt lat="42.81606" lon="2.68127">
        <ele>127.80000305176</ele>
        <time>2025-08-04T09:25:29.000Z</time>
      </trkpt>
      <trkpt lat="42.81602" lon="2.68123">
        <ele>128</ele>
        <time>2025-08-04T09:25:31.000Z</time>
      </trkpt>
      <trkpt lat="42.8159" lon="2.68109">
        <ele>128.60000610352</ele>
        <time>2025-08-04T09:25:37.000Z</time>
      </trkpt>
      <trkpt lat="42.81574" lon="2.68093">
        <ele>129</ele>
        <time>2025-08-04T09:25:44.000Z</time>
      </trkpt>
      <trkpt lat="42.81552" lon="2.68067">
        <ele>129.19999694824</ele>
        <time>2025-08-04T09:25:53.000Z</time>
      </trkpt>
      <trkpt lat="42.81529" lon="2.6804">
        <ele>129.19999694824</ele>
        <time>2025-08-04T09:26:01.000Z</time>
      </trkpt>
      <trkpt lat="42.81503" lon="2.68021">
        <ele>129</ele>
        <time>2025-08-04T09:26:09.000Z</time>
      </trkpt>
      <trkpt lat="42.8149" lon="2.68011">
        <ele>129</ele>
        <time>2025-08-04T09:26:13.000Z</time>
      </trkpt>
      <trkpt lat="42.81471" lon="2.67999">
        <ele>129.19999694824</ele>
        <time>2025-08-04T09:26:19.000Z</time>
      </trkpt>
      <trkpt lat="42.81452" lon="2.67976">
        <ele>129.19999694824</ele>
        <time>2025-08-04T09:26:27.000Z</time>
      </trkpt>
      <trkpt lat="42.81452" lon="2.67959">
        <ele>129.39999389648</ele>
        <time>2025-08-04T09:26:31.000Z</time>
      </trkpt>
      <trkpt lat="42.81458" lon="2.67921">
        <ele>130.19999694824</ele>
        <time>2025-08-04T09:26:40.000Z</time>
      </trkpt>
      <trkpt lat="42.81463" lon="2.67892">
        <ele>130.60000610352</ele>
        <time>2025-08-04T09:26:47.000Z</time>
      </trkpt>
      <trkpt lat="42.8147" lon="2.67845">
        <ele>131.19999694824</ele>
        <time>2025-08-04T09:26:58.000Z</time>
      </trkpt>
      <trkpt lat="42.81471" lon="2.67841">
        <ele>131.19999694824</ele>
        <time>2025-08-04T09:26:59.000Z</time>
      </trkpt>
      <trkpt lat="42.81474" lon="2.67816">
        <ele>131.80000305176</ele>
        <time>2025-08-04T09:27:05.000Z</time>
      </trkpt>
      <trkpt lat="42.81478" lon="2.678">
        <ele>132.39999389648</ele>
        <time>2025-08-04T09:27:09.000Z</time>
      </trkpt>
      <trkpt lat="42.81481" lon="2.67778">
        <ele>132.39999389648</ele>
        <time>2025-08-04T09:27:14.000Z</time>
      </trkpt>
      <trkpt lat="42.81486" lon="2.67745">
        <ele>132.80000305176</ele>
        <time>2025-08-04T09:27:22.000Z</time>
      </trkpt>
      <trkpt lat="42.81492" lon="2.67714">
        <ele>133</ele>
        <time>2025-08-04T09:27:30.000Z</time>
      </trkpt>
      <trkpt lat="42.81497" lon="2.67687">
        <ele>133.39999389648</ele>
        <time>2025-08-04T09:27:37.000Z</time>
      </trkpt>
      <trkpt lat="42.81502" lon="2.67656">
        <ele>133.80000305176</ele>
        <time>2025-08-04T09:27:45.000Z</time>
      </trkpt>
      <trkpt lat="42.81507" lon="2.67621">
        <ele>134.19999694824</ele>
        <time>2025-08-04T09:27:53.000Z</time>
      </trkpt>
      <trkpt lat="42.81513" lon="2.67587">
        <ele>134.39999389648</ele>
        <time>2025-08-04T09:28:00.000Z</time>
      </trkpt>
      <trkpt lat="42.81514" lon="2.67582">
        <ele>134.39999389648</ele>
        <time>2025-08-04T09:28:01.000Z</time>
      </trkpt>
      <trkpt lat="42.81519" lon="2.67548">
        <ele>134.19999694824</ele>
        <time>2025-08-04T09:28:08.000Z</time>
      </trkpt>
      <trkpt lat="42.81522" lon="2.67532">
        <ele>134.19999694824</ele>
        <time>2025-08-04T09:28:11.000Z</time>
      </trkpt>
      <trkpt lat="42.8153" lon="2.67481">
        <ele>134</ele>
        <time>2025-08-04T09:28:21.000Z</time>
      </trkpt>
      <trkpt lat="42.8154" lon="2.67427">
        <ele>133.80000305176</ele>
        <time>2025-08-04T09:28:32.000Z</time>
      </trkpt>
      <trkpt lat="42.81543" lon="2.67398">
        <ele>133.80000305176</ele>
        <time>2025-08-04T09:28:38.000Z</time>
      </trkpt>
      <trkpt lat="42.81549" lon="2.67363">
        <ele>133.80000305176</ele>
        <time>2025-08-04T09:28:46.000Z</time>
      </trkpt>
      <trkpt lat="42.81557" lon="2.67307">
        <ele>134.39999389648</ele>
        <time>2025-08-04T09:28:59.000Z</time>
      </trkpt>
      <trkpt lat="42.81563" lon="2.6727">
        <ele>135</ele>
        <time>2025-08-04T09:29:08.000Z</time>
      </trkpt>
      <trkpt lat="42.81566" lon="2.67247">
        <ele>135.60000610352</ele>
        <time>2025-08-04T09:29:14.000Z</time>
      </trkpt>
      <trkpt lat="42.81567" lon="2.67236">
        <ele>135.80000305176</ele>
        <time>2025-08-04T09:29:17.000Z</time>
      </trkpt>
      <trkpt lat="42.8157" lon="2.67218">
        <ele>136.19999694824</ele>
        <time>2025-08-04T09:29:22.000Z</time>
      </trkpt>
      <trkpt lat="42.81571" lon="2.6721">
        <ele>136.19999694824</ele>
        <time>2025-08-04T09:29:24.000Z</time>
      </trkpt>
      <trkpt lat="42.81574" lon="2.67192">
        <ele>136.60000610352</ele>
        <time>2025-08-04T09:29:29.000Z</time>
      </trkpt>
      <trkpt lat="42.81576" lon="2.67182">
        <ele>136.80000305176</ele>
        <time>2025-08-04T09:29:32.000Z</time>
      </trkpt>
      <trkpt lat="42.8158" lon="2.67158">
        <ele>137.80000305176</ele>
        <time>2025-08-04T09:29:39.000Z</time>
      </trkpt>
      <trkpt lat="42.81584" lon="2.67125">
        <ele>138.39999389648</ele>
        <time>2025-08-04T09:29:48.000Z</time>
      </trkpt>
      <trkpt lat="42.81587" lon="2.67107">
        <ele>138.80000305176</ele>
        <time>2025-08-04T09:29:53.000Z</time>
      </trkpt>
      <trkpt lat="42.81589" lon="2.67088">
        <ele>139.19999694824</ele>
        <time>2025-08-04T09:29:58.000Z</time>
      </trkpt>
      <trkpt lat="42.81594" lon="2.67057">
        <ele>139.80000305176</ele>
        <time>2025-08-04T09:30:07.000Z</time>
      </trkpt>
      <trkpt lat="42.81599" lon="2.67035">
        <ele>140.80000305176</ele>
        <time>2025-08-04T09:30:14.000Z</time>
      </trkpt>
      <trkpt lat="42.81603" lon="2.67013">
        <ele>142</ele>
        <time>2025-08-04T09:30:21.000Z</time>
      </trkpt>
      <trkpt lat="42.816" lon="2.66997">
        <ele>142.39999389648</ele>
        <time>2025-08-04T09:30:26.000Z</time>
      </trkpt>
      <trkpt lat="42.81584" lon="2.66977">
        <ele>142.80000305176</ele>
        <time>2025-08-04T09:30:34.000Z</time>
      </trkpt>
      <trkpt lat="42.81556" lon="2.66958">
        <ele>142.39999389648</ele>
        <time>2025-08-04T09:30:43.000Z</time>
      </trkpt>
      <trkpt lat="42.81529" lon="2.66944">
        <ele>141.80000305176</ele>
        <time>2025-08-04T09:30:51.000Z</time>
      </trkpt>
      <trkpt lat="42.81507" lon="2.66936">
        <ele>141.60000610352</ele>
        <time>2025-08-04T09:30:58.000Z</time>
      </trkpt>
      <trkpt lat="42.81487" lon="2.66933">
        <ele>141.60000610352</ele>
        <time>2025-08-04T09:31:05.000Z</time>
      </trkpt>
      <trkpt lat="42.81472" lon="2.66942">
        <ele>142.19999694824</ele>
        <time>2025-08-04T09:31:11.000Z</time>
      </trkpt>
      <trkpt lat="42.81462" lon="2.66968">
        <ele>142.80000305176</ele>
        <time>2025-08-04T09:31:18.000Z</time>
      </trkpt>
      <trkpt lat="42.81447" lon="2.67008">
        <ele>142.39999389648</ele>
        <time>2025-08-04T09:31:28.000Z</time>
      </trkpt>
      <trkpt lat="42.81434" lon="2.6704">
        <ele>142.39999389648</ele>
        <time>2025-08-04T09:31:37.000Z</time>
      </trkpt>
      <trkpt lat="42.81423" lon="2.67063">
        <ele>143</ele>
        <time>2025-08-04T09:31:45.000Z</time>
      </trkpt>
      <trkpt lat="42.81421" lon="2.67064">
        <ele>143.19999694824</ele>
        <time>2025-08-04T09:31:46.000Z</time>
      </trkpt>
      <trkpt lat="42.81411" lon="2.67065">
        <ele>143.39999389648</ele>
        <time>2025-08-04T09:31:51.000Z</time>
      </trkpt>
      <trkpt lat="42.81403" lon="2.67062">
        <ele>144.19999694824</ele>
        <time>2025-08-04T09:31:55.000Z</time>
      </trkpt>
      <trkpt lat="42.81394" lon="2.67057">
        <ele>144.80000305176</ele>
        <time>2025-08-04T09:31:59.000Z</time>
      </trkpt>
      <trkpt lat="42.81385" lon="2.67052">
        <ele>145.19999694824</ele>
        <time>2025-08-04T09:32:03.000Z</time>
      </trkpt>
      <trkpt lat="42.81372" lon="2.67045">
        <ele>145.39999389648</ele>
        <time>2025-08-04T09:32:08.000Z</time>
      </trkpt>
      <trkpt lat="42.81348" lon="2.67028">
        <ele>145.19999694824</ele>
        <time>2025-08-04T09:32:16.000Z</time>
      </trkpt>
      <trkpt lat="42.81334" lon="2.67018">
        <ele>145</ele>
        <time>2025-08-04T09:32:20.000Z</time>
      </trkpt>
      <trkpt lat="42.81322" lon="2.67009">
        <ele>144.19999694824</ele>
        <time>2025-08-04T09:32:23.000Z</time>
      </trkpt>
      <trkpt lat="42.81318" lon="2.67007">
        <ele>144.19999694824</ele>
        <time>2025-08-04T09:32:24.000Z</time>
      </trkpt>
      <trkpt lat="42.81306" lon="2.66998">
        <ele>143.19999694824</ele>
        <time>2025-08-04T09:32:27.000Z</time>
      </trkpt>
      <trkpt lat="42.81292" lon="2.66989">
        <ele>142</ele>
        <time>2025-08-04T09:32:30.000Z</time>
      </trkpt>
      <trkpt lat="42.81287" lon="2.66986">
        <ele>141.80000305176</ele>
        <time>2025-08-04T09:32:31.000Z</time>
      </trkpt>
      <trkpt lat="42.81282" lon="2.66983">
        <ele>140.80000305176</ele>
        <time>2025-08-04T09:32:32.000Z</time>
      </trkpt>
      <trkpt lat="42.81267" lon="2.66975">
        <ele>139.39999389648</ele>
        <time>2025-08-04T09:32:35.000Z</time>
      </trkpt>
      <trkpt lat="42.81259" lon="2.66972">
        <ele>138.60000610352</ele>
        <time>2025-08-04T09:32:37.000Z</time>
      </trkpt>
      <trkpt lat="42.81253" lon="2.66969">
        <ele>138.39999389648</ele>
        <time>2025-08-04T09:32:39.000Z</time>
      </trkpt>
      <trkpt lat="42.81243" lon="2.66966">
        <ele>138.19999694824</ele>
        <time>2025-08-04T09:32:43.000Z</time>
      </trkpt>
      <trkpt lat="42.81232" lon="2.66962">
        <ele>138.60000610352</ele>
        <time>2025-08-04T09:32:48.000Z</time>
      </trkpt>
      <trkpt lat="42.81218" lon="2.66955">
        <ele>139</ele>
        <time>2025-08-04T09:32:54.000Z</time>
      </trkpt>
      <trkpt lat="42.81209" lon="2.6695">
        <ele>139.39999389648</ele>
        <time>2025-08-04T09:32:58.000Z</time>
      </trkpt>
      <trkpt lat="42.81202" lon="2.66946">
        <ele>139.80000305176</ele>
        <time>2025-08-04T09:33:01.000Z</time>
      </trkpt>
      <trkpt lat="42.81187" lon="2.6694">
        <ele>140.39999389648</ele>
        <time>2025-08-04T09:33:08.000Z</time>
      </trkpt>
      <trkpt lat="42.81175" lon="2.66934">
        <ele>141.39999389648</ele>
        <time>2025-08-04T09:33:15.000Z</time>
      </trkpt>
      <trkpt lat="42.81165" lon="2.66929">
        <ele>142.60000610352</ele>
        <time>2025-08-04T09:33:21.000Z</time>
      </trkpt>
      <trkpt lat="42.81164" lon="2.66928">
        <ele>142.80000305176</ele>
        <time>2025-08-04T09:33:22.000Z</time>
      </trkpt>
      <trkpt lat="42.81153" lon="2.66926">
        <ele>143.60000610352</ele>
        <time>2025-08-04T09:33:28.000Z</time>
      </trkpt>
      <trkpt lat="42.8115" lon="2.66924">
        <ele>144</ele>
        <time>2025-08-04T09:33:30.000Z</time>
      </trkpt>
      <trkpt lat="42.81145" lon="2.66919">
        <ele>144.80000305176</ele>
        <time>2025-08-04T09:33:33.000Z</time>
      </trkpt>
      <trkpt lat="42.81137" lon="2.66914">
        <ele>145.19999694824</ele>
        <time>2025-08-04T09:33:37.000Z</time>
      </trkpt>
      <trkpt lat="42.81119" lon="2.66898">
        <ele>145.80000305176</ele>
        <time>2025-08-04T09:33:46.000Z</time>
      </trkpt>
      <trkpt lat="42.81106" lon="2.66885">
        <ele>146</ele>
        <time>2025-08-04T09:33:52.000Z</time>
      </trkpt>
      <trkpt lat="42.81092" lon="2.66872">
        <ele>145.80000305176</ele>
        <time>2025-08-04T09:33:59.000Z</time>
      </trkpt>
      <trkpt lat="42.81092" lon="2.66872">
        <ele>145.80000305176</ele>
        <time>2025-08-04T09:34:01.000Z</time>
      </trkpt>
      <trkpt lat="42.8109" lon="2.66866">
        <ele>145.19999694824</ele>
        <time>2025-08-04T09:34:22.000Z</time>
      </trkpt>
      <trkpt lat="42.81094" lon="2.66854">
        <ele>145.19999694824</ele>
        <time>2025-08-04T09:34:26.000Z</time>
      </trkpt>
      <trkpt lat="42.81107" lon="2.66833">
        <ele>145.39999389648</ele>
        <time>2025-08-04T09:34:33.000Z</time>
      </trkpt>
      <trkpt lat="42.8113" lon="2.66798">
        <ele>146.39999389648</ele>
        <time>2025-08-04T09:34:44.000Z</time>
      </trkpt>
      <trkpt lat="42.81146" lon="2.66777">
        <ele>147</ele>
        <time>2025-08-04T09:34:51.000Z</time>
      </trkpt>
      <trkpt lat="42.81154" lon="2.66763">
        <ele>147.19999694824</ele>
        <time>2025-08-04T09:34:55.000Z</time>
      </trkpt>
      <trkpt lat="42.81158" lon="2.66757">
        <ele>147.60000610352</ele>
        <time>2025-08-04T09:34:57.000Z</time>
      </trkpt>
      <trkpt lat="42.81167" lon="2.66739">
        <ele>148</ele>
        <time>2025-08-04T09:35:02.000Z</time>
      </trkpt>
      <trkpt lat="42.81171" lon="2.66727">
        <ele>148.39999389648</ele>
        <time>2025-08-04T09:35:05.000Z</time>
      </trkpt>
      <trkpt lat="42.8118" lon="2.66693">
        <ele>149</ele>
        <time>2025-08-04T09:35:13.000Z</time>
      </trkpt>
      <trkpt lat="42.81185" lon="2.66676">
        <ele>149.39999389648</ele>
        <time>2025-08-04T09:35:17.000Z</time>
      </trkpt>
      <trkpt lat="42.81191" lon="2.66655">
        <ele>149.60000610352</ele>
        <time>2025-08-04T09:35:22.000Z</time>
      </trkpt>
      <trkpt lat="42.81199" lon="2.66627">
        <ele>150</ele>
        <time>2025-08-04T09:35:29.000Z</time>
      </trkpt>
      <trkpt lat="42.81206" lon="2.66603">
        <ele>150.19999694824</ele>
        <time>2025-08-04T09:35:35.000Z</time>
      </trkpt>
      <trkpt lat="42.81208" lon="2.66594">
        <ele>150.39999389648</ele>
        <time>2025-08-04T09:35:37.000Z</time>
      </trkpt>
      <trkpt lat="42.81219" lon="2.66557">
        <ele>150.80000305176</ele>
        <time>2025-08-04T09:35:46.000Z</time>
      </trkpt>
      <trkpt lat="42.81215" lon="2.66535">
        <ele>151</ele>
        <time>2025-08-04T09:35:51.000Z</time>
      </trkpt>
      <trkpt lat="42.81202" lon="2.66521">
        <ele>151</ele>
        <time>2025-08-04T09:35:56.000Z</time>
      </trkpt>
      <trkpt lat="42.81177" lon="2.66504">
        <ele>150.60000610352</ele>
        <time>2025-08-04T09:36:04.000Z</time>
      </trkpt>
      <trkpt lat="42.81154" lon="2.66487">
        <ele>150.39999389648</ele>
        <time>2025-08-04T09:36:11.000Z</time>
      </trkpt>
      <trkpt lat="42.8113" lon="2.66469">
        <ele>149.80000305176</ele>
        <time>2025-08-04T09:36:18.000Z</time>
      </trkpt>
      <trkpt lat="42.8112" lon="2.66463">
        <ele>149.60000610352</ele>
        <time>2025-08-04T09:36:21.000Z</time>
      </trkpt>
      <trkpt lat="42.81093" lon="2.66442">
        <ele>149.19999694824</ele>
        <time>2025-08-04T09:36:29.000Z</time>
      </trkpt>
      <trkpt lat="42.81089" lon="2.66439">
        <ele>149.19999694824</ele>
        <time>2025-08-04T09:36:30.000Z</time>
      </trkpt>
      <trkpt lat="42.8106" lon="2.66414">
        <ele>149</ele>
        <time>2025-08-04T09:36:39.000Z</time>
      </trkpt>
      <trkpt lat="42.81035" lon="2.66385">
        <ele>149</ele>
        <time>2025-08-04T09:36:47.000Z</time>
      </trkpt>
      <trkpt lat="42.81028" lon="2.66371">
        <ele>149</ele>
        <time>2025-08-04T09:36:50.000Z</time>
      </trkpt>
      <trkpt lat="42.81025" lon="2.6636">
        <ele>148.80000305176</ele>
        <time>2025-08-04T09:36:52.000Z</time>
      </trkpt>
      <trkpt lat="42.81024" lon="2.66348">
        <ele>148.80000305176</ele>
        <time>2025-08-04T09:36:54.000Z</time>
      </trkpt>
      <trkpt lat="42.81027" lon="2.66331">
        <ele>148.60000610352</ele>
        <time>2025-08-04T09:36:57.000Z</time>
      </trkpt>
      <trkpt lat="42.81029" lon="2.66322">
        <ele>148.60000610352</ele>
        <time>2025-08-04T09:36:59.000Z</time>
      </trkpt>
      <trkpt lat="42.81036" lon="2.66305">
        <ele>148.60000610352</ele>
        <time>2025-08-04T09:37:03.000Z</time>
      </trkpt>
      <trkpt lat="42.81051" lon="2.66283">
        <ele>148.80000305176</ele>
        <time>2025-08-04T09:37:09.000Z</time>
      </trkpt>
      <trkpt lat="42.81071" lon="2.66266">
        <ele>148.80000305176</ele>
        <time>2025-08-04T09:37:16.000Z</time>
      </trkpt>
      <trkpt lat="42.81095" lon="2.66256">
        <ele>149</ele>
        <time>2025-08-04T09:37:24.000Z</time>
      </trkpt>
      <trkpt lat="42.8112" lon="2.66248">
        <ele>149.60000610352</ele>
        <time>2025-08-04T09:37:33.000Z</time>
      </trkpt>
      <trkpt lat="42.81142" lon="2.6624">
        <ele>150</ele>
        <time>2025-08-04T09:37:41.000Z</time>
      </trkpt>
      <trkpt lat="42.81156" lon="2.66233">
        <ele>150.39999389648</ele>
        <time>2025-08-04T09:37:46.000Z</time>
      </trkpt>
      <trkpt lat="42.81161" lon="2.66229">
        <ele>150.80000305176</ele>
        <time>2025-08-04T09:37:48.000Z</time>
      </trkpt>
      <trkpt lat="42.81181" lon="2.66213">
        <ele>151.60000610352</ele>
        <time>2025-08-04T09:37:56.000Z</time>
      </trkpt>
      <trkpt lat="42.81204" lon="2.66194">
        <ele>152.39999389648</ele>
        <time>2025-08-04T09:38:05.000Z</time>
      </trkpt>
      <trkpt lat="42.81211" lon="2.66187">
        <ele>152.60000610352</ele>
        <time>2025-08-04T09:38:08.000Z</time>
      </trkpt>
      <trkpt lat="42.81227" lon="2.66175">
        <ele>153.19999694824</ele>
        <time>2025-08-04T09:38:14.000Z</time>
      </trkpt>
      <trkpt lat="42.81245" lon="2.66159">
        <ele>153.60000610352</ele>
        <time>2025-08-04T09:38:22.000Z</time>
      </trkpt>
      <trkpt lat="42.81248" lon="2.66157">
        <ele>153.80000305176</ele>
        <time>2025-08-04T09:38:23.000Z</time>
      </trkpt>
      <trkpt lat="42.81268" lon="2.66141">
        <ele>154.60000610352</ele>
        <time>2025-08-04T09:38:31.000Z</time>
      </trkpt>
      <trkpt lat="42.81276" lon="2.66134">
        <ele>154.80000305176</ele>
        <time>2025-08-04T09:38:34.000Z</time>
      </trkpt>
      <trkpt lat="42.81289" lon="2.66122">
        <ele>155</ele>
        <time>2025-08-04T09:38:39.000Z</time>
      </trkpt>
      <trkpt lat="42.81311" lon="2.66103">
        <ele>155.39999389648</ele>
        <time>2025-08-04T09:38:47.000Z</time>
      </trkpt>
      <trkpt lat="42.81324" lon="2.66093">
        <ele>155.80000305176</ele>
        <time>2025-08-04T09:38:52.000Z</time>
      </trkpt>
      <trkpt lat="42.81329" lon="2.66088">
        <ele>156.39999389648</ele>
        <time>2025-08-04T09:38:54.000Z</time>
      </trkpt>
      <trkpt lat="42.81349" lon="2.66069">
        <ele>157</ele>
        <time>2025-08-04T09:39:02.000Z</time>
      </trkpt>
      <trkpt lat="42.81363" lon="2.66056">
        <ele>157.19999694824</ele>
        <time>2025-08-04T09:39:07.000Z</time>
      </trkpt>
      <trkpt lat="42.81374" lon="2.66046">
        <ele>157.39999389648</ele>
        <time>2025-08-04T09:39:11.000Z</time>
      </trkpt>
      <trkpt lat="42.81404" lon="2.66019">
        <ele>157.39999389648</ele>
        <time>2025-08-04T09:39:21.000Z</time>
      </trkpt>
      <trkpt lat="42.81438" lon="2.65991">
        <ele>157.39999389648</ele>
        <time>2025-08-04T09:39:32.000Z</time>
      </trkpt>
      <trkpt lat="42.81469" lon="2.65966">
        <ele>157.60000610352</ele>
        <time>2025-08-04T09:39:43.000Z</time>
      </trkpt>
      <trkpt lat="42.81486" lon="2.65953">
        <ele>158.19999694824</ele>
        <time>2025-08-04T09:39:50.000Z</time>
      </trkpt>
      <trkpt lat="42.81488" lon="2.65951">
        <ele>158.39999389648</ele>
        <time>2025-08-04T09:39:51.000Z</time>
      </trkpt>
      <trkpt lat="42.81508" lon="2.65938">
        <ele>159.19999694824</ele>
        <time>2025-08-04T09:40:00.000Z</time>
      </trkpt>
      <trkpt lat="42.81512" lon="2.65935">
        <ele>159.60000610352</ele>
        <time>2025-08-04T09:40:02.000Z</time>
      </trkpt>
      <trkpt lat="42.8153" lon="2.65923">
        <ele>160.39999389648</ele>
        <time>2025-08-04T09:40:10.000Z</time>
      </trkpt>
      <trkpt lat="42.81533" lon="2.65921">
        <ele>160.60000610352</ele>
        <time>2025-08-04T09:40:11.000Z</time>
      </trkpt>
      <trkpt lat="42.8155" lon="2.65902">
        <ele>161.19999694824</ele>
        <time>2025-08-04T09:40:20.000Z</time>
      </trkpt>
      <trkpt lat="42.81554" lon="2.65897">
        <ele>161.60000610352</ele>
        <time>2025-08-04T09:40:22.000Z</time>
      </trkpt>
      <trkpt lat="42.81563" lon="2.65883">
        <ele>162</ele>
        <time>2025-08-04T09:40:27.000Z</time>
      </trkpt>
      <trkpt lat="42.81578" lon="2.65859">
        <ele>162.60000610352</ele>
        <time>2025-08-04T09:40:36.000Z</time>
      </trkpt>
      <trkpt lat="42.81594" lon="2.65836">
        <ele>163.60000610352</ele>
        <time>2025-08-04T09:40:46.000Z</time>
      </trkpt>
      <trkpt lat="42.81599" lon="2.65826">
        <ele>164.19999694824</ele>
        <time>2025-08-04T09:40:50.000Z</time>
      </trkpt>
      <trkpt lat="42.81605" lon="2.65817">
        <ele>164.80000305176</ele>
        <time>2025-08-04T09:40:54.000Z</time>
      </trkpt>
      <trkpt lat="42.81607" lon="2.65814">
        <ele>164.80000305176</ele>
        <time>2025-08-04T09:40:55.000Z</time>
      </trkpt>
      <trkpt lat="42.81617" lon="2.65797">
        <ele>165.60000610352</ele>
        <time>2025-08-04T09:41:02.000Z</time>
      </trkpt>
      <trkpt lat="42.81621" lon="2.65793">
        <ele>165.80000305176</ele>
        <time>2025-08-04T09:41:04.000Z</time>
      </trkpt>
      <trkpt lat="42.81628" lon="2.65779">
        <ele>166.19999694824</ele>
        <time>2025-08-04T09:41:09.000Z</time>
      </trkpt>
      <trkpt lat="42.81649" lon="2.65745">
        <ele>166.19999694824</ele>
        <time>2025-08-04T09:41:19.000Z</time>
      </trkpt>
      <trkpt lat="42.81675" lon="2.65707">
        <ele>165.80000305176</ele>
        <time>2025-08-04T09:41:29.000Z</time>
      </trkpt>
      <trkpt lat="42.81701" lon="2.65682">
        <ele>165.80000305176</ele>
        <time>2025-08-04T09:41:37.000Z</time>
      </trkpt>
      <trkpt lat="42.81731" lon="2.65661">
        <ele>166.39999389648</ele>
        <time>2025-08-04T09:41:46.000Z</time>
      </trkpt>
      <trkpt lat="42.81734" lon="2.65659">
        <ele>166.39999389648</ele>
        <time>2025-08-04T09:41:47.000Z</time>
      </trkpt>
      <trkpt lat="42.8176" lon="2.65642">
        <ele>166.39999389648</ele>
        <time>2025-08-04T09:41:55.000Z</time>
      </trkpt>
      <trkpt lat="42.81785" lon="2.65623">
        <ele>167</ele>
        <time>2025-08-04T09:42:03.000Z</time>
      </trkpt>
      <trkpt lat="42.81787" lon="2.65619">
        <ele>167</ele>
        <time>2025-08-04T09:42:04.000Z</time>
      </trkpt>
      <trkpt lat="42.81789" lon="2.65614">
        <ele>167</ele>
        <time>2025-08-04T09:42:05.000Z</time>
      </trkpt>
      <trkpt lat="42.81787" lon="2.65605">
        <ele>167</ele>
        <time>2025-08-04T09:42:07.000Z</time>
      </trkpt>
      <trkpt lat="42.81775" lon="2.656">
        <ele>167</ele>
        <time>2025-08-04T09:42:10.000Z</time>
      </trkpt>
      <trkpt lat="42.81747" lon="2.65593">
        <ele>166.39999389648</ele>
        <time>2025-08-04T09:42:16.000Z</time>
      </trkpt>
      <trkpt lat="42.81724" lon="2.65583">
        <ele>165.80000305176</ele>
        <time>2025-08-04T09:42:20.000Z</time>
      </trkpt>
      <trkpt lat="42.81711" lon="2.65577">
        <ele>165.39999389648</ele>
        <time>2025-08-04T09:42:22.000Z</time>
      </trkpt>
      <trkpt lat="42.81684" lon="2.65562">
        <ele>164.39999389648</ele>
        <time>2025-08-04T09:42:26.000Z</time>
      </trkpt>
      <trkpt lat="42.81664" lon="2.65551">
        <ele>163.19999694824</ele>
        <time>2025-08-04T09:42:29.000Z</time>
      </trkpt>
      <trkpt lat="42.81658" lon="2.65547">
        <ele>163</ele>
        <time>2025-08-04T09:42:30.000Z</time>
      </trkpt>
      <trkpt lat="42.81644" lon="2.6554">
        <ele>161.80000305176</ele>
        <time>2025-08-04T09:42:32.000Z</time>
      </trkpt>
      <trkpt lat="42.81625" lon="2.6553">
        <ele>160.39999389648</ele>
        <time>2025-08-04T09:42:35.000Z</time>
      </trkpt>
      <trkpt lat="42.81605" lon="2.65519">
        <ele>159.19999694824</ele>
        <time>2025-08-04T09:42:38.000Z</time>
      </trkpt>
      <trkpt lat="42.81592" lon="2.65512">
        <ele>158.80000305176</ele>
        <time>2025-08-04T09:42:40.000Z</time>
      </trkpt>
      <trkpt lat="42.8158" lon="2.65506">
        <ele>158</ele>
        <time>2025-08-04T09:42:42.000Z</time>
      </trkpt>
      <trkpt lat="42.81562" lon="2.65496">
        <ele>157</ele>
        <time>2025-08-04T09:42:45.000Z</time>
      </trkpt>
      <trkpt lat="42.81557" lon="2.65493">
        <ele>156.80000305176</ele>
        <time>2025-08-04T09:42:46.000Z</time>
      </trkpt>
      <trkpt lat="42.81552" lon="2.65488">
        <ele>156.39999389648</ele>
        <time>2025-08-04T09:42:47.000Z</time>
      </trkpt>
      <trkpt lat="42.81546" lon="2.65483">
        <ele>155.60000610352</ele>
        <time>2025-08-04T09:42:48.000Z</time>
      </trkpt>
      <trkpt lat="42.8153" lon="2.65463">
        <ele>154.19999694824</ele>
        <time>2025-08-04T09:42:51.000Z</time>
      </trkpt>
      <trkpt lat="42.81512" lon="2.6544">
        <ele>152.80000305176</ele>
        <time>2025-08-04T09:42:54.000Z</time>
      </trkpt>
      <trkpt lat="42.81501" lon="2.65425">
        <ele>151.39999389648</ele>
        <time>2025-08-04T09:42:56.000Z</time>
      </trkpt>
      <trkpt lat="42.81483" lon="2.65403">
        <ele>149.80000305176</ele>
        <time>2025-08-04T09:42:59.000Z</time>
      </trkpt>
      <trkpt lat="42.81466" lon="2.6538">
        <ele>148.39999389648</ele>
        <time>2025-08-04T09:43:02.000Z</time>
      </trkpt>
      <trkpt lat="42.81449" lon="2.65359">
        <ele>147.19999694824</ele>
        <time>2025-08-04T09:43:05.000Z</time>
      </trkpt>
      <trkpt lat="42.81435" lon="2.65341">
        <ele>146.60000610352</ele>
        <time>2025-08-04T09:43:08.000Z</time>
      </trkpt>
      <trkpt lat="42.81418" lon="2.65312">
        <ele>146.60000610352</ele>
        <time>2025-08-04T09:43:13.000Z</time>
      </trkpt>
      <trkpt lat="42.81399" lon="2.65268">
        <ele>147</ele>
        <time>2025-08-04T09:43:20.000Z</time>
      </trkpt>
      <trkpt lat="42.81373" lon="2.6522">
        <ele>147</ele>
        <time>2025-08-04T09:43:28.000Z</time>
      </trkpt>
      <trkpt lat="42.81363" lon="2.65203">
        <ele>146.80000305176</ele>
        <time>2025-08-04T09:43:31.000Z</time>
      </trkpt>
      <trkpt lat="42.81356" lon="2.65186">
        <ele>146.80000305176</ele>
        <time>2025-08-04T09:43:34.000Z</time>
      </trkpt>
      <trkpt lat="42.81349" lon="2.65151">
        <ele>146.19999694824</ele>
        <time>2025-08-04T09:43:40.000Z</time>
      </trkpt>
      <trkpt lat="42.81338" lon="2.65097">
        <ele>146.39999389648</ele>
        <time>2025-08-04T09:43:50.000Z</time>
      </trkpt>
      <trkpt lat="42.81328" lon="2.65054">
        <ele>146.60000610352</ele>
        <time>2025-08-04T09:43:58.000Z</time>
      </trkpt>
      <trkpt lat="42.81324" lon="2.65044">
        <ele>146.60000610352</ele>
        <time>2025-08-04T09:44:00.000Z</time>
      </trkpt>
      <trkpt lat="42.81304" lon="2.65002">
        <ele>146.39999389648</ele>
        <time>2025-08-04T09:44:08.000Z</time>
      </trkpt>
      <trkpt lat="42.81283" lon="2.64953">
        <ele>145.80000305176</ele>
        <time>2025-08-04T09:44:17.000Z</time>
      </trkpt>
      <trkpt lat="42.81282" lon="2.64947">
        <ele>145.80000305176</ele>
        <time>2025-08-04T09:44:18.000Z</time>
      </trkpt>
      <trkpt lat="42.8128" lon="2.64914">
        <ele>145.80000305176</ele>
        <time>2025-08-04T09:44:24.000Z</time>
      </trkpt>
      <trkpt lat="42.8128" lon="2.64871">
        <ele>146.19999694824</ele>
        <time>2025-08-04T09:44:32.000Z</time>
      </trkpt>
      <trkpt lat="42.8128" lon="2.64835">
        <ele>147</ele>
        <time>2025-08-04T09:44:39.000Z</time>
      </trkpt>
      <trkpt lat="42.81281" lon="2.64816">
        <ele>147.39999389648</ele>
        <time>2025-08-04T09:44:43.000Z</time>
      </trkpt>
      <trkpt lat="42.8128" lon="2.6479">
        <ele>148</ele>
        <time>2025-08-04T09:44:48.000Z</time>
      </trkpt>
      <trkpt lat="42.81274" lon="2.64751">
        <ele>148.19999694824</ele>
        <time>2025-08-04T09:44:56.000Z</time>
      </trkpt>
      <trkpt lat="42.8127" lon="2.64726">
        <ele>148.60000610352</ele>
        <time>2025-08-04T09:45:01.000Z</time>
      </trkpt>
      <trkpt lat="42.81268" lon="2.64697">
        <ele>148.80000305176</ele>
        <time>2025-08-04T09:45:07.000Z</time>
      </trkpt>
      <trkpt lat="42.81267" lon="2.64646">
        <ele>149.19999694824</ele>
        <time>2025-08-04T09:45:17.000Z</time>
      </trkpt>
      <trkpt lat="42.81269" lon="2.6459">
        <ele>149</ele>
        <time>2025-08-04T09:45:28.000Z</time>
      </trkpt>
      <trkpt lat="42.81279" lon="2.64543">
        <ele>149.39999389648</ele>
        <time>2025-08-04T09:45:38.000Z</time>
      </trkpt>
      <trkpt lat="42.8128" lon="2.64538">
        <ele>149.60000610352</ele>
        <time>2025-08-04T09:45:39.000Z</time>
      </trkpt>
      <trkpt lat="42.81288" lon="2.64506">
        <ele>149.80000305176</ele>
        <time>2025-08-04T09:45:46.000Z</time>
      </trkpt>
      <trkpt lat="42.81289" lon="2.64473">
        <ele>150.39999389648</ele>
        <time>2025-08-04T09:45:53.000Z</time>
      </trkpt>
      <trkpt lat="42.81287" lon="2.64459">
        <ele>150.60000610352</ele>
        <time>2025-08-04T09:45:56.000Z</time>
      </trkpt>
      <trkpt lat="42.81284" lon="2.64437">
        <ele>150.60000610352</ele>
        <time>2025-08-04T09:46:00.000Z</time>
      </trkpt>
      <trkpt lat="42.81283" lon="2.64419">
        <ele>150.60000610352</ele>
        <time>2025-08-04T09:46:03.000Z</time>
      </trkpt>
      <trkpt lat="42.81282" lon="2.64405">
        <ele>150.60000610352</ele>
        <time>2025-08-04T09:46:05.000Z</time>
      </trkpt>
      <trkpt lat="42.81283" lon="2.64397">
        <ele>150.60000610352</ele>
        <time>2025-08-04T09:46:06.000Z</time>
      </trkpt>
      <trkpt lat="42.81288" lon="2.64363">
        <ele>150</ele>
        <time>2025-08-04T09:46:11.000Z</time>
      </trkpt>
      <trkpt lat="42.81293" lon="2.64339">
        <ele>149.60000610352</ele>
        <time>2025-08-04T09:46:15.000Z</time>
      </trkpt>
      <trkpt lat="42.81298" lon="2.6431">
        <ele>149.19999694824</ele>
        <time>2025-08-04T09:46:20.000Z</time>
      </trkpt>
      <trkpt lat="42.81302" lon="2.64272">
        <ele>149.19999694824</ele>
        <time>2025-08-04T09:46:27.000Z</time>
      </trkpt>
      <trkpt lat="42.81302" lon="2.64262">
        <ele>149.19999694824</ele>
        <time>2025-08-04T09:46:29.000Z</time>
      </trkpt>
      <trkpt lat="42.81299" lon="2.64238">
        <ele>149.60000610352</ele>
        <time>2025-08-04T09:46:34.000Z</time>
      </trkpt>
      <trkpt lat="42.81293" lon="2.64206">
        <ele>149.80000305176</ele>
        <time>2025-08-04T09:46:41.000Z</time>
      </trkpt>
      <trkpt lat="42.81287" lon="2.64177">
        <ele>149.80000305176</ele>
        <time>2025-08-04T09:46:47.000Z</time>
      </trkpt>
      <trkpt lat="42.81275" lon="2.64142">
        <ele>149.80000305176</ele>
        <time>2025-08-04T09:46:53.000Z</time>
      </trkpt>
      <trkpt lat="42.81256" lon="2.64103">
        <ele>148.60000610352</ele>
        <time>2025-08-04T09:47:00.000Z</time>
      </trkpt>
      <trkpt lat="42.81253" lon="2.64099">
        <ele>148.60000610352</ele>
        <time>2025-08-04T09:47:01.000Z</time>
      </trkpt>
      <trkpt lat="42.81245" lon="2.64082">
        <ele>148.39999389648</ele>
        <time>2025-08-04T09:47:05.000Z</time>
      </trkpt>
      <trkpt lat="42.81233" lon="2.64054">
        <ele>148.60000610352</ele>
        <time>2025-08-04T09:47:12.000Z</time>
      </trkpt>
      <trkpt lat="42.81225" lon="2.64023">
        <ele>149</ele>
        <time>2025-08-04T09:47:20.000Z</time>
      </trkpt>
      <trkpt lat="42.8122" lon="2.64002">
        <ele>149.39999389648</ele>
        <time>2025-08-04T09:47:26.000Z</time>
      </trkpt>
      <trkpt lat="42.81219" lon="2.63998">
        <ele>149.60000610352</ele>
        <time>2025-08-04T09:47:27.000Z</time>
      </trkpt>
      <trkpt lat="42.81216" lon="2.63976">
        <ele>150.19999694824</ele>
        <time>2025-08-04T09:47:34.000Z</time>
      </trkpt>
      <trkpt lat="42.81214" lon="2.63969">
        <ele>150.60000610352</ele>
        <time>2025-08-04T09:47:37.000Z</time>
      </trkpt>
      <trkpt lat="42.8121" lon="2.63952">
        <ele>151.80000305176</ele>
        <time>2025-08-04T09:47:43.000Z</time>
      </trkpt>
      <trkpt lat="42.81209" lon="2.63949">
        <ele>151.80000305176</ele>
        <time>2025-08-04T09:47:44.000Z</time>
      </trkpt>
      <trkpt lat="42.81207" lon="2.63931">
        <ele>152.80000305176</ele>
        <time>2025-08-04T09:47:50.000Z</time>
      </trkpt>
      <trkpt lat="42.81206" lon="2.63928">
        <ele>153</ele>
        <time>2025-08-04T09:47:51.000Z</time>
      </trkpt>
      <trkpt lat="42.81203" lon="2.6391">
        <ele>154</ele>
        <time>2025-08-04T09:47:57.000Z</time>
      </trkpt>
      <trkpt lat="42.81202" lon="2.63907">
        <ele>154.19999694824</ele>
        <time>2025-08-04T09:47:58.000Z</time>
      </trkpt>
      <trkpt lat="42.81199" lon="2.63892">
        <ele>155.19999694824</ele>
        <time>2025-08-04T09:48:03.000Z</time>
      </trkpt>
      <trkpt lat="42.81195" lon="2.63874">
        <ele>156.19999694824</ele>
        <time>2025-08-04T09:48:09.000Z</time>
      </trkpt>
      <trkpt lat="42.81194" lon="2.63871">
        <ele>156.19999694824</ele>
        <time>2025-08-04T09:48:10.000Z</time>
      </trkpt>
      <trkpt lat="42.81189" lon="2.63847">
        <ele>157.19999694824</ele>
        <time>2025-08-04T09:48:17.000Z</time>
      </trkpt>
      <trkpt lat="42.81188" lon="2.63843">
        <ele>157.19999694824</ele>
        <time>2025-08-04T09:48:18.000Z</time>
      </trkpt>
      <trkpt lat="42.81188" lon="2.63809">
        <ele>158</ele>
        <time>2025-08-04T09:48:26.000Z</time>
      </trkpt>
      <trkpt lat="42.81192" lon="2.63778">
        <ele>158</ele>
        <time>2025-08-04T09:48:32.000Z</time>
      </trkpt>
      <trkpt lat="42.81196" lon="2.63761">
        <ele>158</ele>
        <time>2025-08-04T09:48:35.000Z</time>
      </trkpt>
      <trkpt lat="42.81199" lon="2.63737">
        <ele>157.80000305176</ele>
        <time>2025-08-04T09:48:39.000Z</time>
      </trkpt>
      <trkpt lat="42.81206" lon="2.63662">
        <ele>158</ele>
        <time>2025-08-04T09:48:51.000Z</time>
      </trkpt>
      <trkpt lat="42.81206" lon="2.63656">
        <ele>158</ele>
        <time>2025-08-04T09:48:52.000Z</time>
      </trkpt>
      <trkpt lat="42.81207" lon="2.63603">
        <ele>157.80000305176</ele>
        <time>2025-08-04T09:49:00.000Z</time>
      </trkpt>
      <trkpt lat="42.81207" lon="2.63561">
        <ele>157.39999389648</ele>
        <time>2025-08-04T09:49:06.000Z</time>
      </trkpt>
      <trkpt lat="42.81208" lon="2.63547">
        <ele>157.39999389648</ele>
        <time>2025-08-04T09:49:08.000Z</time>
      </trkpt>
      <trkpt lat="42.81216" lon="2.63503">
        <ele>157.19999694824</ele>
        <time>2025-08-04T09:49:15.000Z</time>
      </trkpt>
      <trkpt lat="42.81226" lon="2.63461">
        <ele>157.60000610352</ele>
        <time>2025-08-04T09:49:23.000Z</time>
      </trkpt>
      <trkpt lat="42.81232" lon="2.63424">
        <ele>158.39999389648</ele>
        <time>2025-08-04T09:49:31.000Z</time>
      </trkpt>
      <trkpt lat="42.81233" lon="2.63416">
        <ele>158.60000610352</ele>
        <time>2025-08-04T09:49:33.000Z</time>
      </trkpt>
      <trkpt lat="42.81235" lon="2.63403">
        <ele>159.19999694824</ele>
        <time>2025-08-04T09:49:37.000Z</time>
      </trkpt>
      <trkpt lat="42.81236" lon="2.63397">
        <ele>159.60000610352</ele>
        <time>2025-08-04T09:49:39.000Z</time>
      </trkpt>
      <trkpt lat="42.81237" lon="2.63385">
        <ele>160.19999694824</ele>
        <time>2025-08-04T09:49:43.000Z</time>
      </trkpt>
      <trkpt lat="42.81236" lon="2.63377">
        <ele>160.60000610352</ele>
        <time>2025-08-04T09:49:46.000Z</time>
      </trkpt>
      <trkpt lat="42.81237" lon="2.63356">
        <ele>161.39999389648</ele>
        <time>2025-08-04T09:49:53.000Z</time>
      </trkpt>
      <trkpt lat="42.81237" lon="2.63353">
        <ele>161.60000610352</ele>
        <time>2025-08-04T09:49:54.000Z</time>
      </trkpt>
      <trkpt lat="42.81236" lon="2.63332">
        <ele>162.60000610352</ele>
        <time>2025-08-04T09:50:01.000Z</time>
      </trkpt>
      <trkpt lat="42.81236" lon="2.63329">
        <ele>162.80000305176</ele>
        <time>2025-08-04T09:50:02.000Z</time>
      </trkpt>
      <trkpt lat="42.81235" lon="2.63304">
        <ele>163.80000305176</ele>
        <time>2025-08-04T09:50:10.000Z</time>
      </trkpt>
      <trkpt lat="42.81232" lon="2.63277">
        <ele>165</ele>
        <time>2025-08-04T09:50:18.000Z</time>
      </trkpt>
      <trkpt lat="42.81231" lon="2.63271">
        <ele>165.39999389648</ele>
        <time>2025-08-04T09:50:20.000Z</time>
      </trkpt>
      <trkpt lat="42.81229" lon="2.63256">
        <ele>166.19999694824</ele>
        <time>2025-08-04T09:50:25.000Z</time>
      </trkpt>
      <trkpt lat="42.81229" lon="2.63252">
        <ele>166.19999694824</ele>
        <time>2025-08-04T09:50:26.000Z</time>
      </trkpt>
      <trkpt lat="42.81227" lon="2.63232">
        <ele>166.80000305176</ele>
        <time>2025-08-04T09:50:33.000Z</time>
      </trkpt>
      <trkpt lat="42.81227" lon="2.6322">
        <ele>167</ele>
        <time>2025-08-04T09:50:37.000Z</time>
      </trkpt>
      <trkpt lat="42.81226" lon="2.63214">
        <ele>167.19999694824</ele>
        <time>2025-08-04T09:50:39.000Z</time>
      </trkpt>
      <trkpt lat="42.81223" lon="2.6319">
        <ele>168</ele>
        <time>2025-08-04T09:50:47.000Z</time>
      </trkpt>
      <trkpt lat="42.81223" lon="2.63184">
        <ele>168.19999694824</ele>
        <time>2025-08-04T09:50:49.000Z</time>
      </trkpt>
      <trkpt lat="42.8122" lon="2.6316">
        <ele>169</ele>
        <time>2025-08-04T09:50:57.000Z</time>
      </trkpt>
      <trkpt lat="42.8122" lon="2.63157">
        <ele>169.19999694824</ele>
        <time>2025-08-04T09:50:58.000Z</time>
      </trkpt>
      <trkpt lat="42.8122" lon="2.63121">
        <ele>169.80000305176</ele>
        <time>2025-08-04T09:51:09.000Z</time>
      </trkpt>
      <trkpt lat="42.81224" lon="2.63096">
        <ele>169.80000305176</ele>
        <time>2025-08-04T09:51:17.000Z</time>
      </trkpt>
      <trkpt lat="42.81229" lon="2.63078">
        <ele>169.80000305176</ele>
        <time>2025-08-04T09:51:23.000Z</time>
      </trkpt>
      <trkpt lat="42.81237" lon="2.63048">
        <ele>169.80000305176</ele>
        <time>2025-08-04T09:51:31.000Z</time>
      </trkpt>
      <trkpt lat="42.81247" lon="2.63031">
        <ele>170</ele>
        <time>2025-08-04T09:51:36.000Z</time>
      </trkpt>
      <trkpt lat="42.81254" lon="2.63021">
        <ele>170.19999694824</ele>
        <time>2025-08-04T09:51:39.000Z</time>
      </trkpt>
      <trkpt lat="42.81273" lon="2.62988">
        <ele>170.39999389648</ele>
        <time>2025-08-04T09:51:47.000Z</time>
      </trkpt>
      <trkpt lat="42.81271" lon="2.62961">
        <ele>170.39999389648</ele>
        <time>2025-08-04T09:51:52.000Z</time>
      </trkpt>
      <trkpt lat="42.81262" lon="2.62916">
        <ele>170.60000610352</ele>
        <time>2025-08-04T09:52:01.000Z</time>
      </trkpt>
      <trkpt lat="42.81245" lon="2.62859">
        <ele>170.39999389648</ele>
        <time>2025-08-04T09:52:12.000Z</time>
      </trkpt>
      <trkpt lat="42.81232" lon="2.62807">
        <ele>169.39999389648</ele>
        <time>2025-08-04T09:52:20.000Z</time>
      </trkpt>
      <trkpt lat="42.81227" lon="2.62785">
        <ele>168.80000305176</ele>
        <time>2025-08-04T09:52:23.000Z</time>
      </trkpt>
      <trkpt lat="42.81223" lon="2.6276">
        <ele>168</ele>
        <time>2025-08-04T09:52:26.000Z</time>
      </trkpt>
      <trkpt lat="42.81222" lon="2.62752">
        <ele>167.80000305176</ele>
        <time>2025-08-04T09:52:27.000Z</time>
      </trkpt>
      <trkpt lat="42.8122" lon="2.62715">
        <ele>166.60000610352</ele>
        <time>2025-08-04T09:52:31.000Z</time>
      </trkpt>
      <trkpt lat="42.8122" lon="2.62705">
        <ele>166.19999694824</ele>
        <time>2025-08-04T09:52:32.000Z</time>
      </trkpt>
      <trkpt lat="42.81222" lon="2.62685">
        <ele>165.39999389648</ele>
        <time>2025-08-04T09:52:34.000Z</time>
      </trkpt>
      <trkpt lat="42.81225" lon="2.62657">
        <ele>164</ele>
        <time>2025-08-04T09:52:37.000Z</time>
      </trkpt>
      <trkpt lat="42.81226" lon="2.62648">
        <ele>163.80000305176</ele>
        <time>2025-08-04T09:52:38.000Z</time>
      </trkpt>
      <trkpt lat="42.8123" lon="2.62619">
        <ele>163.19999694824</ele>
        <time>2025-08-04T09:52:42.000Z</time>
      </trkpt>
      <trkpt lat="42.81231" lon="2.62614">
        <ele>163.19999694824</ele>
        <time>2025-08-04T09:52:43.000Z</time>
      </trkpt>
      <trkpt lat="42.81233" lon="2.62588">
        <ele>163.80000305176</ele>
        <time>2025-08-04T09:52:49.000Z</time>
      </trkpt>
      <trkpt lat="42.81237" lon="2.62568">
        <ele>164.39999389648</ele>
        <time>2025-08-04T09:52:55.000Z</time>
      </trkpt>
      <trkpt lat="42.81238" lon="2.62555">
        <ele>165.19999694824</ele>
        <time>2025-08-04T09:52:59.000Z</time>
      </trkpt>
      <trkpt lat="42.81239" lon="2.62544">
        <ele>165.60000610352</ele>
        <time>2025-08-04T09:53:02.000Z</time>
      </trkpt>
      <trkpt lat="42.8124" lon="2.62531">
        <ele>166.39999389648</ele>
        <time>2025-08-04T09:53:06.000Z</time>
      </trkpt>
      <trkpt lat="42.81242" lon="2.62516">
        <ele>167.19999694824</ele>
        <time>2025-08-04T09:53:11.000Z</time>
      </trkpt>
      <trkpt lat="42.81243" lon="2.62512">
        <ele>167.60000610352</ele>
        <time>2025-08-04T09:53:12.000Z</time>
      </trkpt>
      <trkpt lat="42.81245" lon="2.62493">
        <ele>168.60000610352</ele>
        <time>2025-08-04T09:53:18.000Z</time>
      </trkpt>
      <trkpt lat="42.81246" lon="2.62486">
        <ele>169</ele>
        <time>2025-08-04T09:53:20.000Z</time>
      </trkpt>
      <trkpt lat="42.81246" lon="2.62479">
        <ele>169.19999694824</ele>
        <time>2025-08-04T09:53:22.000Z</time>
      </trkpt>
      <trkpt lat="42.8125" lon="2.62451">
        <ele>169.60000610352</ele>
        <time>2025-08-04T09:53:30.000Z</time>
      </trkpt>
      <trkpt lat="42.81251" lon="2.62437">
        <ele>169.60000610352</ele>
        <time>2025-08-04T09:53:34.000Z</time>
      </trkpt>
      <trkpt lat="42.81254" lon="2.62414">
        <ele>170</ele>
        <time>2025-08-04T09:53:40.000Z</time>
      </trkpt>
      <trkpt lat="42.81256" lon="2.62387">
        <ele>170.80000305176</ele>
        <time>2025-08-04T09:53:47.000Z</time>
      </trkpt>
      <trkpt lat="42.81257" lon="2.6237">
        <ele>171</ele>
        <time>2025-08-04T09:53:51.000Z</time>
      </trkpt>
      <trkpt lat="42.81258" lon="2.62346">
        <ele>171.39999389648</ele>
        <time>2025-08-04T09:53:57.000Z</time>
      </trkpt>
      <trkpt lat="42.8126" lon="2.6233">
        <ele>171.80000305176</ele>
        <time>2025-08-04T09:54:01.000Z</time>
      </trkpt>
      <trkpt lat="42.8126" lon="2.62326">
        <ele>171.80000305176</ele>
        <time>2025-08-04T09:54:02.000Z</time>
      </trkpt>
      <trkpt lat="42.81261" lon="2.62322">
        <ele>171.80000305176</ele>
        <time>2025-08-04T09:54:03.000Z</time>
      </trkpt>
      <trkpt lat="42.81267" lon="2.6229">
        <ele>172.19999694824</ele>
        <time>2025-08-04T09:54:11.000Z</time>
      </trkpt>
      <trkpt lat="42.81279" lon="2.6225">
        <ele>172.39999389648</ele>
        <time>2025-08-04T09:54:19.000Z</time>
      </trkpt>
      <trkpt lat="42.81286" lon="2.62205">
        <ele>172</ele>
        <time>2025-08-04T09:54:26.000Z</time>
      </trkpt>
      <trkpt lat="42.81286" lon="2.62181">
        <ele>171.60000610352</ele>
        <time>2025-08-04T09:54:29.000Z</time>
      </trkpt>
      <trkpt lat="42.81283" lon="2.62165">
        <ele>171.19999694824</ele>
        <time>2025-08-04T09:54:31.000Z</time>
      </trkpt>
      <trkpt lat="42.81279" lon="2.62139">
        <ele>170.39999389648</ele>
        <time>2025-08-04T09:54:34.000Z</time>
      </trkpt>
      <trkpt lat="42.81273" lon="2.6211">
        <ele>169.60000610352</ele>
        <time>2025-08-04T09:54:37.000Z</time>
      </trkpt>
      <trkpt lat="42.8127" lon="2.62101">
        <ele>169.39999389648</ele>
        <time>2025-08-04T09:54:38.000Z</time>
      </trkpt>
      <trkpt lat="42.81267" lon="2.62091">
        <ele>169</ele>
        <time>2025-08-04T09:54:39.000Z</time>
      </trkpt>
      <trkpt lat="42.81259" lon="2.62072">
        <ele>168.39999389648</ele>
        <time>2025-08-04T09:54:41.000Z</time>
      </trkpt>
      <trkpt lat="42.81254" lon="2.62064">
        <ele>168.39999389648</ele>
        <time>2025-08-04T09:54:42.000Z</time>
      </trkpt>
      <trkpt lat="42.81243" lon="2.62049">
        <ele>167.39999389648</ele>
        <time>2025-08-04T09:54:44.000Z</time>
      </trkpt>
      <trkpt lat="42.81225" lon="2.62028">
        <ele>166.60000610352</ele>
        <time>2025-08-04T09:54:47.000Z</time>
      </trkpt>
      <trkpt lat="42.8122" lon="2.6202">
        <ele>166.19999694824</ele>
        <time>2025-08-04T09:54:48.000Z</time>
      </trkpt>
      <trkpt lat="42.81214" lon="2.62011">
        <ele>165.80000305176</ele>
        <time>2025-08-04T09:54:49.000Z</time>
      </trkpt>
      <trkpt lat="42.81206" lon="2.61991">
        <ele>164.80000305176</ele>
        <time>2025-08-04T09:54:51.000Z</time>
      </trkpt>
      <trkpt lat="42.81202" lon="2.61969">
        <ele>164.19999694824</ele>
        <time>2025-08-04T09:54:53.000Z</time>
      </trkpt>
      <trkpt lat="42.81202" lon="2.61958">
        <ele>163.80000305176</ele>
        <time>2025-08-04T09:54:54.000Z</time>
      </trkpt>
      <trkpt lat="42.81204" lon="2.61935">
        <ele>163</ele>
        <time>2025-08-04T09:54:56.000Z</time>
      </trkpt>
      <trkpt lat="42.81202" lon="2.61923">
        <ele>162.39999389648</ele>
        <time>2025-08-04T09:54:57.000Z</time>
      </trkpt>
      <trkpt lat="42.812" lon="2.61912">
        <ele>161.60000610352</ele>
        <time>2025-08-04T09:54:58.000Z</time>
      </trkpt>
      <trkpt lat="42.81197" lon="2.61901">
        <ele>161.19999694824</ele>
        <time>2025-08-04T09:54:59.000Z</time>
      </trkpt>
      <trkpt lat="42.81192" lon="2.61879">
        <ele>160</ele>
        <time>2025-08-04T09:55:01.000Z</time>
      </trkpt>
      <trkpt lat="42.81187" lon="2.61858">
        <ele>158.60000610352</ele>
        <time>2025-08-04T09:55:03.000Z</time>
      </trkpt>
      <trkpt lat="42.8118" lon="2.61838">
        <ele>157.80000305176</ele>
        <time>2025-08-04T09:55:05.000Z</time>
      </trkpt>
      <trkpt lat="42.81172" lon="2.61819">
        <ele>157.39999389648</ele>
        <time>2025-08-04T09:55:07.000Z</time>
      </trkpt>
      <trkpt lat="42.81162" lon="2.61801">
        <ele>157</ele>
        <time>2025-08-04T09:55:09.000Z</time>
      </trkpt>
      <trkpt lat="42.81155" lon="2.61794">
        <ele>156.80000305176</ele>
        <time>2025-08-04T09:55:10.000Z</time>
      </trkpt>
      <trkpt lat="42.81149" lon="2.61788">
        <ele>156.60000610352</ele>
        <time>2025-08-04T09:55:11.000Z</time>
      </trkpt>
      <trkpt lat="42.81142" lon="2.61783">
        <ele>156.19999694824</ele>
        <time>2025-08-04T09:55:12.000Z</time>
      </trkpt>
      <trkpt lat="42.81136" lon="2.61777">
        <ele>156.19999694824</ele>
        <time>2025-08-04T09:55:13.000Z</time>
      </trkpt>
      <trkpt lat="42.8113" lon="2.6177">
        <ele>156</ele>
        <time>2025-08-04T09:55:14.000Z</time>
      </trkpt>
      <trkpt lat="42.81125" lon="2.61763">
        <ele>155.80000305176</ele>
        <time>2025-08-04T09:55:15.000Z</time>
      </trkpt>
      <trkpt lat="42.81121" lon="2.61755">
        <ele>155</ele>
        <time>2025-08-04T09:55:16.000Z</time>
      </trkpt>
      <trkpt lat="42.81114" lon="2.61736">
        <ele>154</ele>
        <time>2025-08-04T09:55:18.000Z</time>
      </trkpt>
      <trkpt lat="42.8111" lon="2.61727">
        <ele>153.60000610352</ele>
        <time>2025-08-04T09:55:19.000Z</time>
      </trkpt>
      <trkpt lat="42.81101" lon="2.61711">
        <ele>153.19999694824</ele>
        <time>2025-08-04T09:55:21.000Z</time>
      </trkpt>
      <trkpt lat="42.81096" lon="2.61704">
        <ele>153</ele>
        <time>2025-08-04T09:55:22.000Z</time>
      </trkpt>
      <trkpt lat="42.81091" lon="2.61698">
        <ele>152.60000610352</ele>
        <time>2025-08-04T09:55:23.000Z</time>
      </trkpt>
      <trkpt lat="42.81072" lon="2.61682">
        <ele>151.60000610352</ele>
        <time>2025-08-04T09:55:26.000Z</time>
      </trkpt>
      <trkpt lat="42.81067" lon="2.61677">
        <ele>151.39999389648</ele>
        <time>2025-08-04T09:55:27.000Z</time>
      </trkpt>
      <trkpt lat="42.8104" lon="2.61645">
        <ele>150.80000305176</ele>
        <time>2025-08-04T09:55:32.000Z</time>
      </trkpt>
      <trkpt lat="42.81036" lon="2.61638">
        <ele>150.80000305176</ele>
        <time>2025-08-04T09:55:33.000Z</time>
      </trkpt>
      <trkpt lat="42.81032" lon="2.61631">
        <ele>150.60000610352</ele>
        <time>2025-08-04T09:55:34.000Z</time>
      </trkpt>
      <trkpt lat="42.81029" lon="2.61623">
        <ele>150.60000610352</ele>
        <time>2025-08-04T09:55:35.000Z</time>
      </trkpt>
      <trkpt lat="42.81018" lon="2.61601">
        <ele>150.19999694824</ele>
        <time>2025-08-04T09:55:38.000Z</time>
      </trkpt>
      <trkpt lat="42.81013" lon="2.61594">
        <ele>150.19999694824</ele>
        <time>2025-08-04T09:55:39.000Z</time>
      </trkpt>
      <trkpt lat="42.80998" lon="2.61576">
        <ele>149.80000305176</ele>
        <time>2025-08-04T09:55:42.000Z</time>
      </trkpt>
      <trkpt lat="42.80994" lon="2.6157">
        <ele>149.80000305176</ele>
        <time>2025-08-04T09:55:43.000Z</time>
      </trkpt>
      <trkpt lat="42.80989" lon="2.61554">
        <ele>149.60000610352</ele>
        <time>2025-08-04T09:55:45.000Z</time>
      </trkpt>
      <trkpt lat="42.80987" lon="2.61544">
        <ele>149.39999389648</ele>
        <time>2025-08-04T09:55:46.000Z</time>
      </trkpt>
      <trkpt lat="42.80982" lon="2.61512">
        <ele>149</ele>
        <time>2025-08-04T09:55:49.000Z</time>
      </trkpt>
      <trkpt lat="42.80981" lon="2.61502">
        <ele>148.60000610352</ele>
        <time>2025-08-04T09:55:50.000Z</time>
      </trkpt>
      <trkpt lat="42.80985" lon="2.61486">
        <ele>148.39999389648</ele>
        <time>2025-08-04T09:55:52.000Z</time>
      </trkpt>
      <trkpt lat="42.80993" lon="2.61476">
        <ele>148.19999694824</ele>
        <time>2025-08-04T09:55:54.000Z</time>
      </trkpt>
      <trkpt lat="42.81" lon="2.61467">
        <ele>148.19999694824</ele>
        <time>2025-08-04T09:55:56.000Z</time>
      </trkpt>
      <trkpt lat="42.81012" lon="2.61456">
        <ele>148.19999694824</ele>
        <time>2025-08-04T09:56:00.000Z</time>
      </trkpt>
      <trkpt lat="42.81023" lon="2.61442">
        <ele>149.60000610352</ele>
        <time>2025-08-04T09:56:06.000Z</time>
      </trkpt>
      <trkpt lat="42.81025" lon="2.6144">
        <ele>149.80000305176</ele>
        <time>2025-08-04T09:56:07.000Z</time>
      </trkpt>
      <trkpt lat="42.8103" lon="2.61432">
        <ele>150.39999389648</ele>
        <time>2025-08-04T09:56:10.000Z</time>
      </trkpt>
      <trkpt lat="42.81031" lon="2.61429">
        <ele>150.60000610352</ele>
        <time>2025-08-04T09:56:11.000Z</time>
      </trkpt>
      <trkpt lat="42.81036" lon="2.61422">
        <ele>151.19999694824</ele>
        <time>2025-08-04T09:56:14.000Z</time>
      </trkpt>
      <trkpt lat="42.81041" lon="2.61413">
        <ele>151.80000305176</ele>
        <time>2025-08-04T09:56:18.000Z</time>
      </trkpt>
      <trkpt lat="42.81044" lon="2.61408">
        <ele>152</ele>
        <time>2025-08-04T09:56:20.000Z</time>
      </trkpt>
      <trkpt lat="42.81052" lon="2.61393">
        <ele>152.80000305176</ele>
        <time>2025-08-04T09:56:26.000Z</time>
      </trkpt>
      <trkpt lat="42.81053" lon="2.61391">
        <ele>153</ele>
        <time>2025-08-04T09:56:27.000Z</time>
      </trkpt>
      <trkpt lat="42.81063" lon="2.6138">
        <ele>153.80000305176</ele>
        <time>2025-08-04T09:56:34.000Z</time>
      </trkpt>
      <trkpt lat="42.81064" lon="2.61377">
        <ele>154</ele>
        <time>2025-08-04T09:56:35.000Z</time>
      </trkpt>
      <trkpt lat="42.81069" lon="2.61369">
        <ele>154.60000610352</ele>
        <time>2025-08-04T09:56:40.000Z</time>
      </trkpt>
      <trkpt lat="42.81073" lon="2.61367">
        <ele>155.19999694824</ele>
        <time>2025-08-04T09:56:43.000Z</time>
      </trkpt>
      <trkpt lat="42.81078" lon="2.61361">
        <ele>155.60000610352</ele>
        <time>2025-08-04T09:56:46.000Z</time>
      </trkpt>
      <trkpt lat="42.81087" lon="2.61348">
        <ele>156.19999694824</ele>
        <time>2025-08-04T09:56:52.000Z</time>
      </trkpt>
      <trkpt lat="42.81092" lon="2.61339">
        <ele>156.60000610352</ele>
        <time>2025-08-04T09:56:56.000Z</time>
      </trkpt>
      <trkpt lat="42.81097" lon="2.6133">
        <ele>157.19999694824</ele>
        <time>2025-08-04T09:57:00.000Z</time>
      </trkpt>
      <trkpt lat="42.81103" lon="2.61316">
        <ele>158</ele>
        <time>2025-08-04T09:57:05.000Z</time>
      </trkpt>
      <trkpt lat="42.81109" lon="2.61298">
        <ele>158.19999694824</ele>
        <time>2025-08-04T09:57:11.000Z</time>
      </trkpt>
      <trkpt lat="42.8111" lon="2.61295">
        <ele>158.39999389648</ele>
        <time>2025-08-04T09:57:12.000Z</time>
      </trkpt>
      <trkpt lat="42.81114" lon="2.61269">
        <ele>159</ele>
        <time>2025-08-04T09:57:20.000Z</time>
      </trkpt>
      <trkpt lat="42.81117" lon="2.61255">
        <ele>159.19999694824</ele>
        <time>2025-08-04T09:57:24.000Z</time>
      </trkpt>
      <trkpt lat="42.81121" lon="2.61242">
        <ele>159.60000610352</ele>
        <time>2025-08-04T09:57:28.000Z</time>
      </trkpt>
      <trkpt lat="42.81127" lon="2.61217">
        <ele>160</ele>
        <time>2025-08-04T09:57:35.000Z</time>
      </trkpt>
      <trkpt lat="42.81137" lon="2.612">
        <ele>160.39999389648</ele>
        <time>2025-08-04T09:57:40.000Z</time>
      </trkpt>
      <trkpt lat="42.81141" lon="2.61194">
        <ele>160.39999389648</ele>
        <time>2025-08-04T09:57:42.000Z</time>
      </trkpt>
      <trkpt lat="42.81164" lon="2.61164">
        <ele>160.80000305176</ele>
        <time>2025-08-04T09:57:51.000Z</time>
      </trkpt>
      <trkpt lat="42.81196" lon="2.61116">
        <ele>161</ele>
        <time>2025-08-04T09:58:03.000Z</time>
      </trkpt>
      <trkpt lat="42.81219" lon="2.61075">
        <ele>161</ele>
        <time>2025-08-04T09:58:11.000Z</time>
      </trkpt>
      <trkpt lat="42.81248" lon="2.61019">
        <ele>160.80000305176</ele>
        <time>2025-08-04T09:58:22.000Z</time>
      </trkpt>
      <trkpt lat="42.8125" lon="2.61014">
        <ele>160.80000305176</ele>
        <time>2025-08-04T09:58:23.000Z</time>
      </trkpt>
      <trkpt lat="42.81257" lon="2.60991">
        <ele>160.80000305176</ele>
        <time>2025-08-04T09:58:27.000Z</time>
      </trkpt>
      <trkpt lat="42.81264" lon="2.60943">
        <ele>160.80000305176</ele>
        <time>2025-08-04T09:58:35.000Z</time>
      </trkpt>
      <trkpt lat="42.81272" lon="2.60905">
        <ele>161.19999694824</ele>
        <time>2025-08-04T09:58:42.000Z</time>
      </trkpt>
      <trkpt lat="42.81274" lon="2.609">
        <ele>161.39999389648</ele>
        <time>2025-08-04T09:58:43.000Z</time>
      </trkpt>
      <trkpt lat="42.81283" lon="2.60859">
        <ele>162.39999389648</ele>
        <time>2025-08-04T09:58:51.000Z</time>
      </trkpt>
      <trkpt lat="42.81284" lon="2.60854">
        <ele>162.60000610352</ele>
        <time>2025-08-04T09:58:52.000Z</time>
      </trkpt>
      <trkpt lat="42.81291" lon="2.60819">
        <ele>163.60000610352</ele>
        <time>2025-08-04T09:58:59.000Z</time>
      </trkpt>
      <trkpt lat="42.81293" lon="2.60809">
        <ele>163.80000305176</ele>
        <time>2025-08-04T09:59:01.000Z</time>
      </trkpt>
      <trkpt lat="42.81299" lon="2.60775">
        <ele>164.60000610352</ele>
        <time>2025-08-04T09:59:08.000Z</time>
      </trkpt>
      <trkpt lat="42.81299" lon="2.6077">
        <ele>164.80000305176</ele>
        <time>2025-08-04T09:59:09.000Z</time>
      </trkpt>
      <trkpt lat="42.81302" lon="2.60731">
        <ele>165.60000610352</ele>
        <time>2025-08-04T09:59:17.000Z</time>
      </trkpt>
      <trkpt lat="42.81302" lon="2.60726">
        <ele>165.80000305176</ele>
        <time>2025-08-04T09:59:18.000Z</time>
      </trkpt>
      <trkpt lat="42.81306" lon="2.6069">
        <ele>166.39999389648</ele>
        <time>2025-08-04T09:59:26.000Z</time>
      </trkpt>
      <trkpt lat="42.81307" lon="2.60681">
        <ele>166.80000305176</ele>
        <time>2025-08-04T09:59:28.000Z</time>
      </trkpt>
      <trkpt lat="42.81311" lon="2.60652">
        <ele>167.39999389648</ele>
        <time>2025-08-04T09:59:35.000Z</time>
      </trkpt>
      <trkpt lat="42.81312" lon="2.60635">
        <ele>167.80000305176</ele>
        <time>2025-08-04T09:59:39.000Z</time>
      </trkpt>
      <trkpt lat="42.81315" lon="2.60615">
        <ele>168.60000610352</ele>
        <time>2025-08-04T09:59:44.000Z</time>
      </trkpt>
      <trkpt lat="42.81315" lon="2.60611">
        <ele>168.80000305176</ele>
        <time>2025-08-04T09:59:45.000Z</time>
      </trkpt>
      <trkpt lat="42.81319" lon="2.60581">
        <ele>169.80000305176</ele>
        <time>2025-08-04T09:59:52.000Z</time>
      </trkpt>
      <trkpt lat="42.81319" lon="2.60577">
        <ele>170</ele>
        <time>2025-08-04T09:59:53.000Z</time>
      </trkpt>
      <trkpt lat="42.81324" lon="2.60546">
        <ele>171.19999694824</ele>
        <time>2025-08-04T10:00:01.000Z</time>
      </trkpt>
      <trkpt lat="42.81329" lon="2.60515">
        <ele>172.19999694824</ele>
        <time>2025-08-04T10:00:09.000Z</time>
      </trkpt>
      <trkpt lat="42.81329" lon="2.60501">
        <ele>172.80000305176</ele>
        <time>2025-08-04T10:00:13.000Z</time>
      </trkpt>
      <trkpt lat="42.81324" lon="2.6049">
        <ele>173.19999694824</ele>
        <time>2025-08-04T10:00:17.000Z</time>
      </trkpt>
      <trkpt lat="42.81322" lon="2.60488">
        <ele>173.39999389648</ele>
        <time>2025-08-04T10:00:18.000Z</time>
      </trkpt>
      <trkpt lat="42.81315" lon="2.60485">
        <ele>173.39999389648</ele>
        <time>2025-08-04T10:00:21.000Z</time>
      </trkpt>
      <trkpt lat="42.81312" lon="2.60482">
        <ele>173.60000610352</ele>
        <time>2025-08-04T10:00:23.000Z</time>
      </trkpt>
      <trkpt lat="42.81307" lon="2.60479">
        <ele>174</ele>
        <time>2025-08-04T10:00:28.000Z</time>
      </trkpt>
      <trkpt lat="42.81307" lon="2.60479">
        <ele>174.19999694824</ele>
        <time>2025-08-04T10:00:29.000Z</time>
      </trkpt>
      <trkpt lat="42.81254" lon="2.60426">
        <ele>181.80000305176</ele>
        <time>2025-08-04T10:11:33.000Z</time>
      </trkpt>
      <trkpt lat="42.81252" lon="2.60422">
        <ele>181.80000305176</ele>
        <time>2025-08-04T10:11:35.000Z</time>
      </trkpt>
      <trkpt lat="42.81242" lon="2.60404">
        <ele>181.39999389648</ele>
        <time>2025-08-04T10:11:44.000Z</time>
      </trkpt>
      <trkpt lat="42.81233" lon="2.60383">
        <ele>181.19999694824</ele>
        <time>2025-08-04T10:11:49.000Z</time>
      </trkpt>
      <trkpt lat="42.81224" lon="2.6035">
        <ele>180.80000305176</ele>
        <time>2025-08-04T10:11:53.000Z</time>
      </trkpt>
      <trkpt lat="42.81218" lon="2.60332">
        <ele>180.39999389648</ele>
        <time>2025-08-04T10:11:55.000Z</time>
      </trkpt>
      <trkpt lat="42.81213" lon="2.60314">
        <ele>179.19999694824</ele>
        <time>2025-08-04T10:11:57.000Z</time>
      </trkpt>
      <trkpt lat="42.8121" lon="2.60304">
        <ele>178.80000305176</ele>
        <time>2025-08-04T10:11:58.000Z</time>
      </trkpt>
      <trkpt lat="42.81206" lon="2.6027">
        <ele>177.60000610352</ele>
        <time>2025-08-04T10:12:01.000Z</time>
      </trkpt>
      <trkpt lat="42.81205" lon="2.60257">
        <ele>177.39999389648</ele>
        <time>2025-08-04T10:12:02.000Z</time>
      </trkpt>
      <trkpt lat="42.81203" lon="2.60232">
        <ele>176.19999694824</ele>
        <time>2025-08-04T10:12:04.000Z</time>
      </trkpt>
      <trkpt lat="42.81198" lon="2.60194">
        <ele>175.19999694824</ele>
        <time>2025-08-04T10:12:07.000Z</time>
      </trkpt>
      <trkpt lat="42.81196" lon="2.60181">
        <ele>174.80000305176</ele>
        <time>2025-08-04T10:12:08.000Z</time>
      </trkpt>
      <trkpt lat="42.81192" lon="2.60157">
        <ele>173.80000305176</ele>
        <time>2025-08-04T10:12:10.000Z</time>
      </trkpt>
      <trkpt lat="42.81186" lon="2.60134">
        <ele>172.80000305176</ele>
        <time>2025-08-04T10:12:12.000Z</time>
      </trkpt>
      <trkpt lat="42.81183" lon="2.60123">
        <ele>172.19999694824</ele>
        <time>2025-08-04T10:12:13.000Z</time>
      </trkpt>
      <trkpt lat="42.81179" lon="2.60113">
        <ele>171.80000305176</ele>
        <time>2025-08-04T10:12:14.000Z</time>
      </trkpt>
      <trkpt lat="42.8117" lon="2.60089">
        <ele>170.60000610352</ele>
        <time>2025-08-04T10:12:17.000Z</time>
      </trkpt>
      <trkpt lat="42.81165" lon="2.60077">
        <ele>170.19999694824</ele>
        <time>2025-08-04T10:12:19.000Z</time>
      </trkpt>
      <trkpt lat="42.81158" lon="2.60068">
        <ele>169.39999389648</ele>
        <time>2025-08-04T10:12:21.000Z</time>
      </trkpt>
      <trkpt lat="42.81145" lon="2.60046">
        <ele>168.39999389648</ele>
        <time>2025-08-04T10:12:25.000Z</time>
      </trkpt>
      <trkpt lat="42.81135" lon="2.60027">
        <ele>168</ele>
        <time>2025-08-04T10:12:28.000Z</time>
      </trkpt>
      <trkpt lat="42.8112" lon="2.60003">
        <ele>167.19999694824</ele>
        <time>2025-08-04T10:12:32.000Z</time>
      </trkpt>
      <trkpt lat="42.81109" lon="2.59986">
        <ele>166.60000610352</ele>
        <time>2025-08-04T10:12:35.000Z</time>
      </trkpt>
      <trkpt lat="42.811" lon="2.59978">
        <ele>166.39999389648</ele>
        <time>2025-08-04T10:12:37.000Z</time>
      </trkpt>
      <trkpt lat="42.81084" lon="2.59968">
        <ele>166.19999694824</ele>
        <time>2025-08-04T10:12:40.000Z</time>
      </trkpt>
      <trkpt lat="42.81078" lon="2.59965">
        <ele>166.19999694824</ele>
        <time>2025-08-04T10:12:41.000Z</time>
      </trkpt>
      <trkpt lat="42.81066" lon="2.59961">
        <ele>166</ele>
        <time>2025-08-04T10:12:43.000Z</time>
      </trkpt>
      <trkpt lat="42.81061" lon="2.5996">
        <ele>165.60000610352</ele>
        <time>2025-08-04T10:12:44.000Z</time>
      </trkpt>
      <trkpt lat="42.81056" lon="2.59959">
        <ele>165.39999389648</ele>
        <time>2025-08-04T10:12:45.000Z</time>
      </trkpt>
      <trkpt lat="42.81053" lon="2.59956">
        <ele>165.19999694824</ele>
        <time>2025-08-04T10:12:46.000Z</time>
      </trkpt>
      <trkpt lat="42.8105" lon="2.59952">
        <ele>165</ele>
        <time>2025-08-04T10:12:47.000Z</time>
      </trkpt>
      <trkpt lat="42.81049" lon="2.59933">
        <ele>164.80000305176</ele>
        <time>2025-08-04T10:12:51.000Z</time>
      </trkpt>
      <trkpt lat="42.81051" lon="2.59903">
        <ele>164.80000305176</ele>
        <time>2025-08-04T10:12:57.000Z</time>
      </trkpt>
      <trkpt lat="42.81053" lon="2.59879">
        <ele>164.80000305176</ele>
        <time>2025-08-04T10:13:02.000Z</time>
      </trkpt>
      <trkpt lat="42.81054" lon="2.5987">
        <ele>164.60000610352</ele>
        <time>2025-08-04T10:13:04.000Z</time>
      </trkpt>
      <trkpt lat="42.81056" lon="2.59831">
        <ele>164.80000305176</ele>
        <time>2025-08-04T10:13:11.000Z</time>
      </trkpt>
      <trkpt lat="42.81057" lon="2.598">
        <ele>164.60000610352</ele>
        <time>2025-08-04T10:13:15.000Z</time>
      </trkpt>
      <trkpt lat="42.81058" lon="2.59791">
        <ele>164.60000610352</ele>
        <time>2025-08-04T10:13:16.000Z</time>
      </trkpt>
      <trkpt lat="42.8106" lon="2.59764">
        <ele>164</ele>
        <time>2025-08-04T10:13:19.000Z</time>
      </trkpt>
      <trkpt lat="42.81062" lon="2.59736">
        <ele>163</ele>
        <time>2025-08-04T10:13:22.000Z</time>
      </trkpt>
      <trkpt lat="42.81061" lon="2.59719">
        <ele>162.60000610352</ele>
        <time>2025-08-04T10:13:24.000Z</time>
      </trkpt>
      <trkpt lat="42.81058" lon="2.59695">
        <ele>162</ele>
        <time>2025-08-04T10:13:27.000Z</time>
      </trkpt>
      <trkpt lat="42.81057" lon="2.59686">
        <ele>161.80000305176</ele>
        <time>2025-08-04T10:13:28.000Z</time>
      </trkpt>
      <trkpt lat="42.81054" lon="2.59662">
        <ele>161.19999694824</ele>
        <time>2025-08-04T10:13:31.000Z</time>
      </trkpt>
      <trkpt lat="42.81053" lon="2.59647">
        <ele>161</ele>
        <time>2025-08-04T10:13:33.000Z</time>
      </trkpt>
      <trkpt lat="42.81053" lon="2.5964">
        <ele>160.80000305176</ele>
        <time>2025-08-04T10:13:34.000Z</time>
      </trkpt>
      <trkpt lat="42.81053" lon="2.5963">
        <ele>160.60000610352</ele>
        <time>2025-08-04T10:13:36.000Z</time>
      </trkpt>
      <trkpt lat="42.81054" lon="2.59625">
        <ele>160.39999389648</ele>
        <time>2025-08-04T10:13:37.000Z</time>
      </trkpt>
      <trkpt lat="42.81053" lon="2.5961">
        <ele>159.80000305176</ele>
        <time>2025-08-04T10:13:40.000Z</time>
      </trkpt>
      <trkpt lat="42.81053" lon="2.59591">
        <ele>159.19999694824</ele>
        <time>2025-08-04T10:13:44.000Z</time>
      </trkpt>
      <trkpt lat="42.81054" lon="2.5958">
        <ele>158.80000305176</ele>
        <time>2025-08-04T10:13:47.000Z</time>
      </trkpt>
      <trkpt lat="42.81054" lon="2.59578">
        <ele>158.80000305176</ele>
        <time>2025-08-04T10:13:48.000Z</time>
      </trkpt>
      <trkpt lat="42.81055" lon="2.59575">
        <ele>158.80000305176</ele>
        <time>2025-08-04T10:13:49.000Z</time>
      </trkpt>
      <trkpt lat="42.81055" lon="2.59569">
        <ele>158.60000610352</ele>
        <time>2025-08-04T10:13:52.000Z</time>
      </trkpt>
      <trkpt lat="42.81057" lon="2.59567">
        <ele>158.60000610352</ele>
        <time>2025-08-04T10:13:54.000Z</time>
      </trkpt>
      <trkpt lat="42.81059" lon="2.59569">
        <ele>158.60000610352</ele>
        <time>2025-08-04T10:13:56.000Z</time>
      </trkpt>
      <trkpt lat="42.81061" lon="2.59572">
        <ele>158.60000610352</ele>
        <time>2025-08-04T10:13:58.000Z</time>
      </trkpt>
      <trkpt lat="42.81062" lon="2.59575">
        <ele>158.60000610352</ele>
        <time>2025-08-04T10:14:00.000Z</time>
      </trkpt>
      <trkpt lat="42.81067" lon="2.59575">
        <ele>158.60000610352</ele>
        <time>2025-08-04T10:14:03.000Z</time>
      </trkpt>
      <trkpt lat="42.81068" lon="2.59575">
        <ele>158.60000610352</ele>
        <time>2025-08-04T10:14:04.000Z</time>
      </trkpt>
      <trkpt lat="42.81071" lon="2.59574">
        <ele>158.60000610352</ele>
        <time>2025-08-04T10:14:06.000Z</time>
      </trkpt>
      <trkpt lat="42.81077" lon="2.59572">
        <ele>158.60000610352</ele>
        <time>2025-08-04T10:14:10.000Z</time>
      </trkpt>
      <trkpt lat="42.81081" lon="2.59574">
        <ele>158.80000305176</ele>
        <time>2025-08-04T10:14:13.000Z</time>
      </trkpt>
      <trkpt lat="42.81082" lon="2.59576">
        <ele>159</ele>
        <time>2025-08-04T10:14:16.000Z</time>
      </trkpt>
      <trkpt lat="42.81083" lon="2.59579">
        <ele>165.39999389648</ele>
        <time>2025-08-04T11:43:26.000Z</time>
      </trkpt>
      <trkpt lat="42.81083" lon="2.59579">
        <ele>165.39999389648</ele>
        <time>2025-08-04T11:43:27.000Z</time>
      </trkpt>
      <trkpt lat="42.81078" lon="2.59574">
        <ele>165</ele>
        <time>2025-08-04T11:44:34.000Z</time>
      </trkpt>
      <trkpt lat="42.81076" lon="2.59574">
        <ele>165</ele>
        <time>2025-08-04T11:44:36.000Z</time>
      </trkpt>
      <trkpt lat="42.81075" lon="2.59574">
        <ele>165</ele>
        <time>2025-08-04T11:44:37.000Z</time>
      </trkpt>
      <trkpt lat="42.81071" lon="2.59574">
        <ele>164.60000610352</ele>
        <time>2025-08-04T11:44:41.000Z</time>
      </trkpt>
      <trkpt lat="42.8107" lon="2.59574">
        <ele>164.60000610352</ele>
        <time>2025-08-04T11:44:42.000Z</time>
      </trkpt>
      <trkpt lat="42.81068" lon="2.59573">
        <ele>164.39999389648</ele>
        <time>2025-08-04T11:44:44.000Z</time>
      </trkpt>
      <trkpt lat="42.81063" lon="2.59568">
        <ele>164.19999694824</ele>
        <time>2025-08-04T11:44:49.000Z</time>
      </trkpt>
      <trkpt lat="42.8106" lon="2.59564">
        <ele>164.19999694824</ele>
        <time>2025-08-04T11:44:53.000Z</time>
      </trkpt>
      <trkpt lat="42.81057" lon="2.5956">
        <ele>164</ele>
        <time>2025-08-04T11:44:55.000Z</time>
      </trkpt>
      <trkpt lat="42.81042" lon="2.5956">
        <ele>163.80000305176</ele>
        <time>2025-08-04T11:45:00.000Z</time>
      </trkpt>
      <trkpt lat="42.81034" lon="2.5956">
        <ele>163.60000610352</ele>
        <time>2025-08-04T11:45:02.000Z</time>
      </trkpt>
      <trkpt lat="42.81017" lon="2.5956">
        <ele>163.19999694824</ele>
        <time>2025-08-04T11:45:06.000Z</time>
      </trkpt>
      <trkpt lat="42.80999" lon="2.59558">
        <ele>162.60000610352</ele>
        <time>2025-08-04T11:45:11.000Z</time>
      </trkpt>
      <trkpt lat="42.80993" lon="2.59553">
        <ele>162.19999694824</ele>
        <time>2025-08-04T11:45:13.000Z</time>
      </trkpt>
      <trkpt lat="42.80991" lon="2.59538">
        <ele>161.60000610352</ele>
        <time>2025-08-04T11:45:16.000Z</time>
      </trkpt>
      <trkpt lat="42.80992" lon="2.59528">
        <ele>161.39999389648</ele>
        <time>2025-08-04T11:45:18.000Z</time>
      </trkpt>
      <trkpt lat="42.80995" lon="2.59493">
        <ele>161.19999694824</ele>
        <time>2025-08-04T11:45:25.000Z</time>
      </trkpt>
      <trkpt lat="42.80995" lon="2.59483">
        <ele>161.19999694824</ele>
        <time>2025-08-04T11:45:27.000Z</time>
      </trkpt>
      <trkpt lat="42.80995" lon="2.59452">
        <ele>161.39999389648</ele>
        <time>2025-08-04T11:45:33.000Z</time>
      </trkpt>
      <trkpt lat="42.80997" lon="2.59403">
        <ele>161.80000305176</ele>
        <time>2025-08-04T11:45:42.000Z</time>
      </trkpt>
      <trkpt lat="42.80999" lon="2.59356">
        <ele>161.80000305176</ele>
        <time>2025-08-04T11:45:51.000Z</time>
      </trkpt>
      <trkpt lat="42.81001" lon="2.59324">
        <ele>162.19999694824</ele>
        <time>2025-08-04T11:45:57.000Z</time>
      </trkpt>
      <trkpt lat="42.81001" lon="2.59319">
        <ele>162.19999694824</ele>
        <time>2025-08-04T11:45:58.000Z</time>
      </trkpt>
      <trkpt lat="42.81002" lon="2.59308">
        <ele>162.39999389648</ele>
        <time>2025-08-04T11:46:00.000Z</time>
      </trkpt>
      <trkpt lat="42.81003" lon="2.59271">
        <ele>162.80000305176</ele>
        <time>2025-08-04T11:46:06.000Z</time>
      </trkpt>
      <trkpt lat="42.81007" lon="2.59231">
        <ele>163.19999694824</ele>
        <time>2025-08-04T11:46:14.000Z</time>
      </trkpt>
      <trkpt lat="42.81008" lon="2.59213">
        <ele>163.19999694824</ele>
        <time>2025-08-04T11:46:16.000Z</time>
      </trkpt>
      <trkpt lat="42.81009" lon="2.59201">
        <ele>163.19999694824</ele>
        <time>2025-08-04T11:46:18.000Z</time>
      </trkpt>
      <trkpt lat="42.81009" lon="2.59194">
        <ele>163.19999694824</ele>
        <time>2025-08-04T11:46:19.000Z</time>
      </trkpt>
      <trkpt lat="42.81009" lon="2.59157">
        <ele>163</ele>
        <time>2025-08-04T11:46:26.000Z</time>
      </trkpt>
      <trkpt lat="42.81006" lon="2.59133">
        <ele>163</ele>
        <time>2025-08-04T11:46:31.000Z</time>
      </trkpt>
      <trkpt lat="42.81" lon="2.59107">
        <ele>163.19999694824</ele>
        <time>2025-08-04T11:46:36.000Z</time>
      </trkpt>
      <trkpt lat="42.80996" lon="2.59099">
        <ele>163.39999389648</ele>
        <time>2025-08-04T11:46:38.000Z</time>
      </trkpt>
      <trkpt lat="42.8099" lon="2.59097">
        <ele>163.60000610352</ele>
        <time>2025-08-04T11:46:40.000Z</time>
      </trkpt>
      <trkpt lat="42.80987" lon="2.59099">
        <ele>163.60000610352</ele>
        <time>2025-08-04T11:46:41.000Z</time>
      </trkpt>
      <trkpt lat="42.80969" lon="2.59109">
        <ele>164</ele>
        <time>2025-08-04T11:46:46.000Z</time>
      </trkpt>
      <trkpt lat="42.80962" lon="2.59117">
        <ele>164.19999694824</ele>
        <time>2025-08-04T11:46:48.000Z</time>
      </trkpt>
      <trkpt lat="42.8094" lon="2.59142">
        <ele>163.60000610352</ele>
        <time>2025-08-04T11:46:54.000Z</time>
      </trkpt>
      <trkpt lat="42.80929" lon="2.59148">
        <ele>163.39999389648</ele>
        <time>2025-08-04T11:46:57.000Z</time>
      </trkpt>
      <trkpt lat="42.80923" lon="2.59149">
        <ele>163.39999389648</ele>
        <time>2025-08-04T11:46:59.000Z</time>
      </trkpt>
      <trkpt lat="42.80908" lon="2.59155">
        <ele>163.80000305176</ele>
        <time>2025-08-04T11:47:06.000Z</time>
      </trkpt>
      <trkpt lat="42.80898" lon="2.59153">
        <ele>164.80000305176</ele>
        <time>2025-08-04T11:47:11.000Z</time>
      </trkpt>
      <trkpt lat="42.80893" lon="2.59151">
        <ele>165</ele>
        <time>2025-08-04T11:47:14.000Z</time>
      </trkpt>
      <trkpt lat="42.80884" lon="2.59142">
        <ele>166</ele>
        <time>2025-08-04T11:47:20.000Z</time>
      </trkpt>
      <trkpt lat="42.80881" lon="2.59139">
        <ele>166.19999694824</ele>
        <time>2025-08-04T11:47:22.000Z</time>
      </trkpt>
      <trkpt lat="42.80872" lon="2.59124">
        <ele>167</ele>
        <time>2025-08-04T11:47:29.000Z</time>
      </trkpt>
      <trkpt lat="42.80866" lon="2.59106">
        <ele>167.39999389648</ele>
        <time>2025-08-04T11:47:35.000Z</time>
      </trkpt>
      <trkpt lat="42.80858" lon="2.5908">
        <ele>168</ele>
        <time>2025-08-04T11:47:44.000Z</time>
      </trkpt>
      <trkpt lat="42.80858" lon="2.59078">
        <ele>168</ele>
        <time>2025-08-04T11:47:45.000Z</time>
      </trkpt>
      <trkpt lat="42.8085" lon="2.59063">
        <ele>169</ele>
        <time>2025-08-04T11:47:51.000Z</time>
      </trkpt>
      <trkpt lat="42.80848" lon="2.59061">
        <ele>169.19999694824</ele>
        <time>2025-08-04T11:47:52.000Z</time>
      </trkpt>
      <trkpt lat="42.80836" lon="2.59056">
        <ele>170</ele>
        <time>2025-08-04T11:47:58.000Z</time>
      </trkpt>
      <trkpt lat="42.80832" lon="2.59057">
        <ele>170.19999694824</ele>
        <time>2025-08-04T11:48:00.000Z</time>
      </trkpt>
      <trkpt lat="42.80821" lon="2.59058">
        <ele>171</ele>
        <time>2025-08-04T11:48:06.000Z</time>
      </trkpt>
      <trkpt lat="42.8082" lon="2.59058">
        <ele>171.19999694824</ele>
        <time>2025-08-04T11:48:07.000Z</time>
      </trkpt>
      <trkpt lat="42.80809" lon="2.59057">
        <ele>171.80000305176</ele>
        <time>2025-08-04T11:48:13.000Z</time>
      </trkpt>
      <trkpt lat="42.80806" lon="2.59055">
        <ele>172.39999389648</ele>
        <time>2025-08-04T11:48:15.000Z</time>
      </trkpt>
      <trkpt lat="42.80796" lon="2.5905">
        <ele>173.19999694824</ele>
        <time>2025-08-04T11:48:21.000Z</time>
      </trkpt>
      <trkpt lat="42.80795" lon="2.59048">
        <ele>173.39999389648</ele>
        <time>2025-08-04T11:48:22.000Z</time>
      </trkpt>
      <trkpt lat="42.80794" lon="2.59047">
        <ele>173.39999389648</ele>
        <time>2025-08-04T11:48:23.000Z</time>
      </trkpt>
      <trkpt lat="42.80793" lon="2.59039">
        <ele>174</ele>
        <time>2025-08-04T11:48:26.000Z</time>
      </trkpt>
      <trkpt lat="42.80794" lon="2.59031">
        <ele>174.39999389648</ele>
        <time>2025-08-04T11:48:29.000Z</time>
      </trkpt>
      <trkpt lat="42.80796" lon="2.5902">
        <ele>174.60000610352</ele>
        <time>2025-08-04T11:48:34.000Z</time>
      </trkpt>
      <trkpt lat="42.80799" lon="2.59006">
        <ele>175.19999694824</ele>
        <time>2025-08-04T11:48:40.000Z</time>
      </trkpt>
      <trkpt lat="42.808" lon="2.59004">
        <ele>175.39999389648</ele>
        <time>2025-08-04T11:48:41.000Z</time>
      </trkpt>
      <trkpt lat="42.80802" lon="2.58994">
        <ele>176</ele>
        <time>2025-08-04T11:48:45.000Z</time>
      </trkpt>
      <trkpt lat="42.80801" lon="2.58986">
        <ele>176.60000610352</ele>
        <time>2025-08-04T11:48:48.000Z</time>
      </trkpt>
      <trkpt lat="42.80801" lon="2.58983">
        <ele>176.60000610352</ele>
        <time>2025-08-04T11:48:49.000Z</time>
      </trkpt>
      <trkpt lat="42.80801" lon="2.58965">
        <ele>177.60000610352</ele>
        <time>2025-08-04T11:48:56.000Z</time>
      </trkpt>
      <trkpt lat="42.808" lon="2.5896">
        <ele>178</ele>
        <time>2025-08-04T11:48:58.000Z</time>
      </trkpt>
      <trkpt lat="42.80798" lon="2.5895">
        <ele>178.80000305176</ele>
        <time>2025-08-04T11:49:02.000Z</time>
      </trkpt>
      <trkpt lat="42.80797" lon="2.58945">
        <ele>179</ele>
        <time>2025-08-04T11:49:04.000Z</time>
      </trkpt>
      <trkpt lat="42.80796" lon="2.5894">
        <ele>179.39999389648</ele>
        <time>2025-08-04T11:49:06.000Z</time>
      </trkpt>
      <trkpt lat="42.80794" lon="2.58928">
        <ele>179.80000305176</ele>
        <time>2025-08-04T11:49:11.000Z</time>
      </trkpt>
      <trkpt lat="42.80794" lon="2.58925">
        <ele>180</ele>
        <time>2025-08-04T11:49:12.000Z</time>
      </trkpt>
      <trkpt lat="42.8079" lon="2.5891">
        <ele>180.80000305176</ele>
        <time>2025-08-04T11:49:19.000Z</time>
      </trkpt>
      <trkpt lat="42.8079" lon="2.58905">
        <ele>181</ele>
        <time>2025-08-04T11:49:21.000Z</time>
      </trkpt>
      <trkpt lat="42.80787" lon="2.58891">
        <ele>182</ele>
        <time>2025-08-04T11:49:28.000Z</time>
      </trkpt>
      <trkpt lat="42.80787" lon="2.58889">
        <ele>182</ele>
        <time>2025-08-04T11:49:29.000Z</time>
      </trkpt>
      <trkpt lat="42.80787" lon="2.58887">
        <ele>182.19999694824</ele>
        <time>2025-08-04T11:49:30.000Z</time>
      </trkpt>
      <trkpt lat="42.80787" lon="2.58873">
        <ele>182.80000305176</ele>
        <time>2025-08-04T11:49:36.000Z</time>
      </trkpt>
      <trkpt lat="42.80787" lon="2.58868">
        <ele>183</ele>
        <time>2025-08-04T11:49:38.000Z</time>
      </trkpt>
      <trkpt lat="42.80786" lon="2.58854">
        <ele>183.80000305176</ele>
        <time>2025-08-04T11:49:44.000Z</time>
      </trkpt>
      <trkpt lat="42.80786" lon="2.58838">
        <ele>184.19999694824</ele>
        <time>2025-08-04T11:49:50.000Z</time>
      </trkpt>
      <trkpt lat="42.80787" lon="2.58833">
        <ele>184.60000610352</ele>
        <time>2025-08-04T11:49:52.000Z</time>
      </trkpt>
      <trkpt lat="42.80787" lon="2.58828">
        <ele>185</ele>
        <time>2025-08-04T11:49:54.000Z</time>
      </trkpt>
      <trkpt lat="42.80787" lon="2.58821">
        <ele>185.19999694824</ele>
        <time>2025-08-04T11:49:57.000Z</time>
      </trkpt>
      <trkpt lat="42.80788" lon="2.58818">
        <ele>185.39999389648</ele>
        <time>2025-08-04T11:49:58.000Z</time>
      </trkpt>
      <trkpt lat="42.80788" lon="2.58805">
        <ele>186</ele>
        <time>2025-08-04T11:50:03.000Z</time>
      </trkpt>
      <trkpt lat="42.80789" lon="2.58797">
        <ele>186.39999389648</ele>
        <time>2025-08-04T11:50:06.000Z</time>
      </trkpt>
      <trkpt lat="42.80788" lon="2.58778">
        <ele>187.39999389648</ele>
        <time>2025-08-04T11:50:14.000Z</time>
      </trkpt>
      <trkpt lat="42.80788" lon="2.58775">
        <ele>187.60000610352</ele>
        <time>2025-08-04T11:50:15.000Z</time>
      </trkpt>
      <trkpt lat="42.8079" lon="2.58763">
        <ele>188.60000610352</ele>
        <time>2025-08-04T11:50:20.000Z</time>
      </trkpt>
      <trkpt lat="42.8079" lon="2.58758">
        <ele>188.80000305176</ele>
        <time>2025-08-04T11:50:22.000Z</time>
      </trkpt>
      <trkpt lat="42.80789" lon="2.58741">
        <ele>189.80000305176</ele>
        <time>2025-08-04T11:50:29.000Z</time>
      </trkpt>
      <trkpt lat="42.80789" lon="2.58737">
        <ele>190.39999389648</ele>
        <time>2025-08-04T11:50:31.000Z</time>
      </trkpt>
      <trkpt lat="42.80789" lon="2.58727">
        <ele>191</ele>
        <time>2025-08-04T11:50:35.000Z</time>
      </trkpt>
      <trkpt lat="42.80788" lon="2.58722">
        <ele>191.19999694824</ele>
        <time>2025-08-04T11:50:37.000Z</time>
      </trkpt>
      <trkpt lat="42.80786" lon="2.58715">
        <ele>192</ele>
        <time>2025-08-04T11:50:40.000Z</time>
      </trkpt>
      <trkpt lat="42.80782" lon="2.58699">
        <ele>193</ele>
        <time>2025-08-04T11:50:47.000Z</time>
      </trkpt>
      <trkpt lat="42.80781" lon="2.58697">
        <ele>193</ele>
        <time>2025-08-04T11:50:48.000Z</time>
      </trkpt>
      <trkpt lat="42.80777" lon="2.58684">
        <ele>193.80000305176</ele>
        <time>2025-08-04T11:50:54.000Z</time>
      </trkpt>
      <trkpt lat="42.80776" lon="2.58682">
        <ele>194</ele>
        <time>2025-08-04T11:50:55.000Z</time>
      </trkpt>
      <trkpt lat="42.80771" lon="2.58665">
        <ele>194.80000305176</ele>
        <time>2025-08-04T11:51:03.000Z</time>
      </trkpt>
      <trkpt lat="42.80767" lon="2.58652">
        <ele>195.19999694824</ele>
        <time>2025-08-04T11:51:09.000Z</time>
      </trkpt>
      <trkpt lat="42.80767" lon="2.5865">
        <ele>195.39999389648</ele>
        <time>2025-08-04T11:51:10.000Z</time>
      </trkpt>
      <trkpt lat="42.80764" lon="2.58637">
        <ele>196.19999694824</ele>
        <time>2025-08-04T11:51:16.000Z</time>
      </trkpt>
      <trkpt lat="42.80762" lon="2.58629">
        <ele>196.80000305176</ele>
        <time>2025-08-04T11:51:20.000Z</time>
      </trkpt>
      <trkpt lat="42.80761" lon="2.58622">
        <ele>197.19999694824</ele>
        <time>2025-08-04T11:51:23.000Z</time>
      </trkpt>
      <trkpt lat="42.80759" lon="2.58611">
        <ele>197.60000610352</ele>
        <time>2025-08-04T11:51:28.000Z</time>
      </trkpt>
      <trkpt lat="42.80759" lon="2.58609">
        <ele>197.60000610352</ele>
        <time>2025-08-04T11:51:29.000Z</time>
      </trkpt>
      <trkpt lat="42.80757" lon="2.58596">
        <ele>198.19999694824</ele>
        <time>2025-08-04T11:51:35.000Z</time>
      </trkpt>
      <trkpt lat="42.80755" lon="2.58591">
        <ele>198.39999389648</ele>
        <time>2025-08-04T11:51:37.000Z</time>
      </trkpt>
      <trkpt lat="42.80753" lon="2.58579">
        <ele>198.80000305176</ele>
        <time>2025-08-04T11:51:42.000Z</time>
      </trkpt>
      <trkpt lat="42.8075" lon="2.58564">
        <ele>199.39999389648</ele>
        <time>2025-08-04T11:51:48.000Z</time>
      </trkpt>
      <trkpt lat="42.80749" lon="2.58556">
        <ele>199.80000305176</ele>
        <time>2025-08-04T11:51:51.000Z</time>
      </trkpt>
      <trkpt lat="42.80746" lon="2.58545">
        <ele>200.39999389648</ele>
        <time>2025-08-04T11:51:56.000Z</time>
      </trkpt>
      <trkpt lat="42.80745" lon="2.58533">
        <ele>201.39999389648</ele>
        <time>2025-08-04T11:52:01.000Z</time>
      </trkpt>
      <trkpt lat="42.80741" lon="2.58517">
        <ele>202.39999389648</ele>
        <time>2025-08-04T11:52:08.000Z</time>
      </trkpt>
      <trkpt lat="42.8074" lon="2.58513">
        <ele>202.80000305176</ele>
        <time>2025-08-04T11:52:10.000Z</time>
      </trkpt>
      <trkpt lat="42.80737" lon="2.58503">
        <ele>203.60000610352</ele>
        <time>2025-08-04T11:52:14.000Z</time>
      </trkpt>
      <trkpt lat="42.80733" lon="2.58488">
        <ele>204</ele>
        <time>2025-08-04T11:52:20.000Z</time>
      </trkpt>
      <trkpt lat="42.8073" lon="2.58476">
        <ele>204.60000610352</ele>
        <time>2025-08-04T11:52:25.000Z</time>
      </trkpt>
      <trkpt lat="42.80725" lon="2.58463">
        <ele>205.39999389648</ele>
        <time>2025-08-04T11:52:31.000Z</time>
      </trkpt>
      <trkpt lat="42.80724" lon="2.58461">
        <ele>205.60000610352</ele>
        <time>2025-08-04T11:52:32.000Z</time>
      </trkpt>
      <trkpt lat="42.8072" lon="2.58448">
        <ele>206</ele>
        <time>2025-08-04T11:52:38.000Z</time>
      </trkpt>
      <trkpt lat="42.80717" lon="2.58436">
        <ele>206.60000610352</ele>
        <time>2025-08-04T11:52:43.000Z</time>
      </trkpt>
      <trkpt lat="42.80711" lon="2.58413">
        <ele>207.60000610352</ele>
        <time>2025-08-04T11:52:53.000Z</time>
      </trkpt>
      <trkpt lat="42.80711" lon="2.58411">
        <ele>207.60000610352</ele>
        <time>2025-08-04T11:52:54.000Z</time>
      </trkpt>
      <trkpt lat="42.80711" lon="2.58406">
        <ele>208</ele>
        <time>2025-08-04T11:52:56.000Z</time>
      </trkpt>
      <trkpt lat="42.8071" lon="2.58401">
        <ele>209</ele>
        <time>2025-08-04T11:52:58.000Z</time>
      </trkpt>
      <trkpt lat="42.80709" lon="2.58389">
        <ele>210</ele>
        <time>2025-08-04T11:53:03.000Z</time>
      </trkpt>
      <trkpt lat="42.80709" lon="2.58386">
        <ele>210.19999694824</ele>
        <time>2025-08-04T11:53:04.000Z</time>
      </trkpt>
      <trkpt lat="42.80706" lon="2.58372">
        <ele>211</ele>
        <time>2025-08-04T11:53:10.000Z</time>
      </trkpt>
      <trkpt lat="42.80704" lon="2.58364">
        <ele>211.19999694824</ele>
        <time>2025-08-04T11:53:14.000Z</time>
      </trkpt>
      <trkpt lat="42.807" lon="2.58356">
        <ele>211.80000305176</ele>
        <time>2025-08-04T11:53:18.000Z</time>
      </trkpt>
      <trkpt lat="42.80695" lon="2.5835">
        <ele>212.39999389648</ele>
        <time>2025-08-04T11:53:22.000Z</time>
      </trkpt>
      <trkpt lat="42.80689" lon="2.58346">
        <ele>212.80000305176</ele>
        <time>2025-08-04T11:53:26.000Z</time>
      </trkpt>
      <trkpt lat="42.80684" lon="2.58341">
        <ele>213.39999389648</ele>
        <time>2025-08-04T11:53:30.000Z</time>
      </trkpt>
      <trkpt lat="42.80677" lon="2.58333">
        <ele>214</ele>
        <time>2025-08-04T11:53:35.000Z</time>
      </trkpt>
      <trkpt lat="42.80671" lon="2.58326">
        <ele>214.60000610352</ele>
        <time>2025-08-04T11:53:39.000Z</time>
      </trkpt>
      <trkpt lat="42.80667" lon="2.58316">
        <ele>215.19999694824</ele>
        <time>2025-08-04T11:53:44.000Z</time>
      </trkpt>
      <trkpt lat="42.80665" lon="2.58309">
        <ele>215.60000610352</ele>
        <time>2025-08-04T11:53:47.000Z</time>
      </trkpt>
      <trkpt lat="42.80666" lon="2.58303">
        <ele>216</ele>
        <time>2025-08-04T11:53:50.000Z</time>
      </trkpt>
      <trkpt lat="42.80666" lon="2.58298">
        <ele>216.19999694824</ele>
        <time>2025-08-04T11:53:52.000Z</time>
      </trkpt>
      <trkpt lat="42.80668" lon="2.58289">
        <ele>216.80000305176</ele>
        <time>2025-08-04T11:53:56.000Z</time>
      </trkpt>
      <trkpt lat="42.80668" lon="2.58287">
        <ele>217</ele>
        <time>2025-08-04T11:53:57.000Z</time>
      </trkpt>
      <trkpt lat="42.80669" lon="2.58272">
        <ele>217.80000305176</ele>
        <time>2025-08-04T11:54:03.000Z</time>
      </trkpt>
      <trkpt lat="42.80669" lon="2.58269">
        <ele>218</ele>
        <time>2025-08-04T11:54:04.000Z</time>
      </trkpt>
      <trkpt lat="42.80668" lon="2.58255">
        <ele>218.80000305176</ele>
        <time>2025-08-04T11:54:10.000Z</time>
      </trkpt>
      <trkpt lat="42.80666" lon="2.58247">
        <ele>219.19999694824</ele>
        <time>2025-08-04T11:54:13.000Z</time>
      </trkpt>
      <trkpt lat="42.8066" lon="2.58233">
        <ele>220</ele>
        <time>2025-08-04T11:54:20.000Z</time>
      </trkpt>
      <trkpt lat="42.80658" lon="2.58229">
        <ele>220.19999694824</ele>
        <time>2025-08-04T11:54:22.000Z</time>
      </trkpt>
      <trkpt lat="42.80651" lon="2.58222">
        <ele>221</ele>
        <time>2025-08-04T11:54:27.000Z</time>
      </trkpt>
      <trkpt lat="42.80641" lon="2.58209">
        <ele>222</ele>
        <time>2025-08-04T11:54:35.000Z</time>
      </trkpt>
      <trkpt lat="42.80634" lon="2.58193">
        <ele>223.19999694824</ele>
        <time>2025-08-04T11:54:42.000Z</time>
      </trkpt>
      <trkpt lat="42.80632" lon="2.5819">
        <ele>223.39999389648</ele>
        <time>2025-08-04T11:54:44.000Z</time>
      </trkpt>
      <trkpt lat="42.80628" lon="2.58178">
        <ele>224.19999694824</ele>
        <time>2025-08-04T11:54:50.000Z</time>
      </trkpt>
      <trkpt lat="42.80628" lon="2.58176">
        <ele>224.39999389648</ele>
        <time>2025-08-04T11:54:51.000Z</time>
      </trkpt>
      <trkpt lat="42.80623" lon="2.58167">
        <ele>225.19999694824</ele>
        <time>2025-08-04T11:54:57.000Z</time>
      </trkpt>
      <trkpt lat="42.80619" lon="2.58157">
        <ele>226.19999694824</ele>
        <time>2025-08-04T11:55:02.000Z</time>
      </trkpt>
      <trkpt lat="42.80619" lon="2.58155">
        <ele>226.39999389648</ele>
        <time>2025-08-04T11:55:03.000Z</time>
      </trkpt>
      <trkpt lat="42.80616" lon="2.58134">
        <ele>227.39999389648</ele>
        <time>2025-08-04T11:55:12.000Z</time>
      </trkpt>
      <trkpt lat="42.80615" lon="2.58132">
        <ele>227.39999389648</ele>
        <time>2025-08-04T11:55:13.000Z</time>
      </trkpt>
      <trkpt lat="42.80608" lon="2.58121">
        <ele>228.39999389648</ele>
        <time>2025-08-04T11:55:19.000Z</time>
      </trkpt>
      <trkpt lat="42.80605" lon="2.58118">
        <ele>228.80000305176</ele>
        <time>2025-08-04T11:55:21.000Z</time>
      </trkpt>
      <trkpt lat="42.806" lon="2.58117">
        <ele>229.60000610352</ele>
        <time>2025-08-04T11:55:24.000Z</time>
      </trkpt>
      <trkpt lat="42.80595" lon="2.58115">
        <ele>230</ele>
        <time>2025-08-04T11:55:27.000Z</time>
      </trkpt>
      <trkpt lat="42.80587" lon="2.58112">
        <ele>230.60000610352</ele>
        <time>2025-08-04T11:55:32.000Z</time>
      </trkpt>
      <trkpt lat="42.80585" lon="2.58111">
        <ele>230.60000610352</ele>
        <time>2025-08-04T11:55:33.000Z</time>
      </trkpt>
      <trkpt lat="42.8058" lon="2.58104">
        <ele>231.60000610352</ele>
        <time>2025-08-04T11:55:37.000Z</time>
      </trkpt>
      <trkpt lat="42.80578" lon="2.58098">
        <ele>232.60000610352</ele>
        <time>2025-08-04T11:55:40.000Z</time>
      </trkpt>
      <trkpt lat="42.80577" lon="2.58097">
        <ele>233</ele>
        <time>2025-08-04T11:55:41.000Z</time>
      </trkpt>
      <trkpt lat="42.80575" lon="2.58095">
        <ele>233</ele>
        <time>2025-08-04T11:55:42.000Z</time>
      </trkpt>
      <trkpt lat="42.80572" lon="2.58087">
        <ele>233.60000610352</ele>
        <time>2025-08-04T11:55:46.000Z</time>
      </trkpt>
      <trkpt lat="42.80568" lon="2.58079">
        <ele>234</ele>
        <time>2025-08-04T11:55:50.000Z</time>
      </trkpt>
      <trkpt lat="42.80565" lon="2.58068">
        <ele>234.39999389648</ele>
        <time>2025-08-04T11:55:55.000Z</time>
      </trkpt>
      <trkpt lat="42.80566" lon="2.58057">
        <ele>235.19999694824</ele>
        <time>2025-08-04T11:56:00.000Z</time>
      </trkpt>
      <trkpt lat="42.80567" lon="2.58053">
        <ele>235.60000610352</ele>
        <time>2025-08-04T11:56:02.000Z</time>
      </trkpt>
      <trkpt lat="42.80567" lon="2.58051">
        <ele>235.60000610352</ele>
        <time>2025-08-04T11:56:03.000Z</time>
      </trkpt>
      <trkpt lat="42.80567" lon="2.58047">
        <ele>236</ele>
        <time>2025-08-04T11:56:05.000Z</time>
      </trkpt>
      <trkpt lat="42.80567" lon="2.58045">
        <ele>236.39999389648</ele>
        <time>2025-08-04T11:56:06.000Z</time>
      </trkpt>
      <trkpt lat="42.80568" lon="2.58043">
        <ele>236.80000305176</ele>
        <time>2025-08-04T11:56:07.000Z</time>
      </trkpt>
      <trkpt lat="42.80573" lon="2.5803">
        <ele>237.60000610352</ele>
        <time>2025-08-04T11:56:13.000Z</time>
      </trkpt>
      <trkpt lat="42.80573" lon="2.58023">
        <ele>237.80000305176</ele>
        <time>2025-08-04T11:56:16.000Z</time>
      </trkpt>
      <trkpt lat="42.80574" lon="2.5802">
        <ele>238.19999694824</ele>
        <time>2025-08-04T11:56:18.000Z</time>
      </trkpt>
      <trkpt lat="42.80574" lon="2.58015">
        <ele>238.80000305176</ele>
        <time>2025-08-04T11:56:21.000Z</time>
      </trkpt>
      <trkpt lat="42.80574" lon="2.58008">
        <ele>239.39999389648</ele>
        <time>2025-08-04T11:56:25.000Z</time>
      </trkpt>
      <trkpt lat="42.80574" lon="2.58006">
        <ele>239.39999389648</ele>
        <time>2025-08-04T11:56:26.000Z</time>
      </trkpt>
      <trkpt lat="42.80571" lon="2.57996">
        <ele>239.80000305176</ele>
        <time>2025-08-04T11:56:31.000Z</time>
      </trkpt>
      <trkpt lat="42.8057" lon="2.57994">
        <ele>239.80000305176</ele>
        <time>2025-08-04T11:56:32.000Z</time>
      </trkpt>
      <trkpt lat="42.80565" lon="2.57979">
        <ele>240.39999389648</ele>
        <time>2025-08-04T11:56:39.000Z</time>
      </trkpt>
      <trkpt lat="42.80562" lon="2.57969">
        <ele>241</ele>
        <time>2025-08-04T11:56:44.000Z</time>
      </trkpt>
      <trkpt lat="42.80561" lon="2.57965">
        <ele>241.19999694824</ele>
        <time>2025-08-04T11:56:46.000Z</time>
      </trkpt>
      <trkpt lat="42.80561" lon="2.57963">
        <ele>241.19999694824</ele>
        <time>2025-08-04T11:56:47.000Z</time>
      </trkpt>
      <trkpt lat="42.80559" lon="2.57946">
        <ele>242</ele>
        <time>2025-08-04T11:56:55.000Z</time>
      </trkpt>
      <trkpt lat="42.80556" lon="2.5793">
        <ele>243.19999694824</ele>
        <time>2025-08-04T11:57:02.000Z</time>
      </trkpt>
      <trkpt lat="42.80551" lon="2.57915">
        <ele>244.60000610352</ele>
        <time>2025-08-04T11:57:10.000Z</time>
      </trkpt>
      <trkpt lat="42.8055" lon="2.57914">
        <ele>244.80000305176</ele>
        <time>2025-08-04T11:57:11.000Z</time>
      </trkpt>
      <trkpt lat="42.80545" lon="2.57914">
        <ele>245.19999694824</ele>
        <time>2025-08-04T11:57:14.000Z</time>
      </trkpt>
      <trkpt lat="42.80544" lon="2.5791">
        <ele>245.80000305176</ele>
        <time>2025-08-04T11:57:17.000Z</time>
      </trkpt>
      <trkpt lat="42.80543" lon="2.5791">
        <ele>246</ele>
        <time>2025-08-04T11:57:18.000Z</time>
      </trkpt>
      <trkpt lat="42.80534" lon="2.57905">
        <ele>246.80000305176</ele>
        <time>2025-08-04T11:57:25.000Z</time>
      </trkpt>
      <trkpt lat="42.80521" lon="2.57901">
        <ele>247.39999389648</ele>
        <time>2025-08-04T11:57:33.000Z</time>
      </trkpt>
      <trkpt lat="42.80512" lon="2.57895">
        <ele>248</ele>
        <time>2025-08-04T11:57:39.000Z</time>
      </trkpt>
      <trkpt lat="42.80509" lon="2.57892">
        <ele>248.19999694824</ele>
        <time>2025-08-04T11:57:41.000Z</time>
      </trkpt>
      <trkpt lat="42.80502" lon="2.57883">
        <ele>249</ele>
        <time>2025-08-04T11:57:47.000Z</time>
      </trkpt>
      <trkpt lat="42.805" lon="2.57881">
        <ele>249.19999694824</ele>
        <time>2025-08-04T11:57:48.000Z</time>
      </trkpt>
      <trkpt lat="42.80491" lon="2.57874">
        <ele>249.80000305176</ele>
        <time>2025-08-04T11:57:54.000Z</time>
      </trkpt>
      <trkpt lat="42.8048" lon="2.57868">
        <ele>250.19999694824</ele>
        <time>2025-08-04T11:58:01.000Z</time>
      </trkpt>
      <trkpt lat="42.80477" lon="2.57865">
        <ele>250.39999389648</ele>
        <time>2025-08-04T11:58:03.000Z</time>
      </trkpt>
      <trkpt lat="42.80466" lon="2.57859">
        <ele>251.19999694824</ele>
        <time>2025-08-04T11:58:10.000Z</time>
      </trkpt>
      <trkpt lat="42.80465" lon="2.57858">
        <ele>251.19999694824</ele>
        <time>2025-08-04T11:58:11.000Z</time>
      </trkpt>
      <trkpt lat="42.80455" lon="2.57849">
        <ele>252</ele>
        <time>2025-08-04T11:58:18.000Z</time>
      </trkpt>
      <trkpt lat="42.80451" lon="2.57844">
        <ele>252.39999389648</ele>
        <time>2025-08-04T11:58:21.000Z</time>
      </trkpt>
      <trkpt lat="42.80449" lon="2.5784">
        <ele>252.60000610352</ele>
        <time>2025-08-04T11:58:23.000Z</time>
      </trkpt>
      <trkpt lat="42.80445" lon="2.57821">
        <ele>253.19999694824</ele>
        <time>2025-08-04T11:58:31.000Z</time>
      </trkpt>
      <trkpt lat="42.80445" lon="2.57819">
        <ele>253.19999694824</ele>
        <time>2025-08-04T11:58:32.000Z</time>
      </trkpt>
      <trkpt lat="42.80449" lon="2.57809">
        <ele>253.60000610352</ele>
        <time>2025-08-04T11:58:36.000Z</time>
      </trkpt>
      <trkpt lat="42.8045" lon="2.57808">
        <ele>253.60000610352</ele>
        <time>2025-08-04T11:58:37.000Z</time>
      </trkpt>
      <trkpt lat="42.80451" lon="2.57807">
        <ele>253.80000305176</ele>
        <time>2025-08-04T11:58:38.000Z</time>
      </trkpt>
      <trkpt lat="42.80458" lon="2.57807">
        <ele>254.19999694824</ele>
        <time>2025-08-04T11:58:42.000Z</time>
      </trkpt>
      <trkpt lat="42.80467" lon="2.57802">
        <ele>255.19999694824</ele>
        <time>2025-08-04T11:58:49.000Z</time>
      </trkpt>
      <trkpt lat="42.80477" lon="2.57799">
        <ele>256</ele>
        <time>2025-08-04T11:58:56.000Z</time>
      </trkpt>
      <trkpt lat="42.80481" lon="2.57796">
        <ele>256.39999389648</ele>
        <time>2025-08-04T11:58:59.000Z</time>
      </trkpt>
      <trkpt lat="42.80487" lon="2.57792">
        <ele>256.79998779297</ele>
        <time>2025-08-04T11:59:03.000Z</time>
      </trkpt>
      <trkpt lat="42.80494" lon="2.57785">
        <ele>257.39999389648</ele>
        <time>2025-08-04T11:59:08.000Z</time>
      </trkpt>
      <trkpt lat="42.80498" lon="2.5778">
        <ele>258</ele>
        <time>2025-08-04T11:59:11.000Z</time>
      </trkpt>
      <trkpt lat="42.80502" lon="2.57773">
        <ele>258.39999389648</ele>
        <time>2025-08-04T11:59:15.000Z</time>
      </trkpt>
      <trkpt lat="42.80505" lon="2.57767">
        <ele>258.60000610352</ele>
        <time>2025-08-04T11:59:18.000Z</time>
      </trkpt>
      <trkpt lat="42.80507" lon="2.57754">
        <ele>259.39999389648</ele>
        <time>2025-08-04T11:59:24.000Z</time>
      </trkpt>
      <trkpt lat="42.80508" lon="2.57752">
        <ele>259.60000610352</ele>
        <time>2025-08-04T11:59:25.000Z</time>
      </trkpt>
      <trkpt lat="42.80508" lon="2.57738">
        <ele>260.20001220703</ele>
        <time>2025-08-04T11:59:31.000Z</time>
      </trkpt>
      <trkpt lat="42.8051" lon="2.57728">
        <ele>260.60000610352</ele>
        <time>2025-08-04T11:59:35.000Z</time>
      </trkpt>
      <trkpt lat="42.80512" lon="2.57716">
        <ele>261.39999389648</ele>
        <time>2025-08-04T11:59:40.000Z</time>
      </trkpt>
      <trkpt lat="42.80513" lon="2.57712">
        <ele>261.79998779297</ele>
        <time>2025-08-04T11:59:42.000Z</time>
      </trkpt>
      <trkpt lat="42.80513" lon="2.57703">
        <ele>262.20001220703</ele>
        <time>2025-08-04T11:59:46.000Z</time>
      </trkpt>
      <trkpt lat="42.80514" lon="2.57692">
        <ele>263</ele>
        <time>2025-08-04T11:59:51.000Z</time>
      </trkpt>
      <trkpt lat="42.80515" lon="2.57688">
        <ele>263.20001220703</ele>
        <time>2025-08-04T11:59:53.000Z</time>
      </trkpt>
      <trkpt lat="42.80515" lon="2.57684">
        <ele>263.60000610352</ele>
        <time>2025-08-04T11:59:55.000Z</time>
      </trkpt>
      <trkpt lat="42.80514" lon="2.57676">
        <ele>264</ele>
        <time>2025-08-04T11:59:59.000Z</time>
      </trkpt>
      <trkpt lat="42.80514" lon="2.57671">
        <ele>264.20001220703</ele>
        <time>2025-08-04T12:00:02.000Z</time>
      </trkpt>
      <trkpt lat="42.80513" lon="2.57668">
        <ele>264.39999389648</ele>
        <time>2025-08-04T12:00:04.000Z</time>
      </trkpt>
      <trkpt lat="42.80512" lon="2.5766">
        <ele>265</ele>
        <time>2025-08-04T12:00:08.000Z</time>
      </trkpt>
      <trkpt lat="42.80512" lon="2.57657">
        <ele>265</ele>
        <time>2025-08-04T12:00:09.000Z</time>
      </trkpt>
      <trkpt lat="42.80511" lon="2.57644">
        <ele>266</ele>
        <time>2025-08-04T12:00:15.000Z</time>
      </trkpt>
      <trkpt lat="42.8051" lon="2.57642">
        <ele>266</ele>
        <time>2025-08-04T12:00:16.000Z</time>
      </trkpt>
      <trkpt lat="42.80505" lon="2.57624">
        <ele>267</ele>
        <time>2025-08-04T12:00:25.000Z</time>
      </trkpt>
      <trkpt lat="42.80505" lon="2.57622">
        <ele>267.20001220703</ele>
        <time>2025-08-04T12:00:26.000Z</time>
      </trkpt>
      <trkpt lat="42.80501" lon="2.57607">
        <ele>267.79998779297</ele>
        <time>2025-08-04T12:00:33.000Z</time>
      </trkpt>
      <trkpt lat="42.80499" lon="2.57602">
        <ele>268.20001220703</ele>
        <time>2025-08-04T12:00:36.000Z</time>
      </trkpt>
      <trkpt lat="42.80499" lon="2.57593">
        <ele>268.60000610352</ele>
        <time>2025-08-04T12:00:40.000Z</time>
      </trkpt>
      <trkpt lat="42.80498" lon="2.57589">
        <ele>268.79998779297</ele>
        <time>2025-08-04T12:00:42.000Z</time>
      </trkpt>
      <trkpt lat="42.80496" lon="2.57581">
        <ele>269</ele>
        <time>2025-08-04T12:00:46.000Z</time>
      </trkpt>
      <trkpt lat="42.80495" lon="2.57574">
        <ele>269.20001220703</ele>
        <time>2025-08-04T12:00:49.000Z</time>
      </trkpt>
      <trkpt lat="42.80493" lon="2.57564">
        <ele>270</ele>
        <time>2025-08-04T12:00:54.000Z</time>
      </trkpt>
      <trkpt lat="42.80493" lon="2.57562">
        <ele>270.20001220703</ele>
        <time>2025-08-04T12:00:55.000Z</time>
      </trkpt>
      <trkpt lat="42.80492" lon="2.57558">
        <ele>270.20001220703</ele>
        <time>2025-08-04T12:00:57.000Z</time>
      </trkpt>
      <trkpt lat="42.8049" lon="2.57549">
        <ele>270.60000610352</ele>
        <time>2025-08-04T12:01:01.000Z</time>
      </trkpt>
      <trkpt lat="42.80488" lon="2.57535">
        <ele>271.39999389648</ele>
        <time>2025-08-04T12:01:07.000Z</time>
      </trkpt>
      <trkpt lat="42.80487" lon="2.57531">
        <ele>271.60000610352</ele>
        <time>2025-08-04T12:01:09.000Z</time>
      </trkpt>
      <trkpt lat="42.80484" lon="2.57513">
        <ele>272.39999389648</ele>
        <time>2025-08-04T12:01:17.000Z</time>
      </trkpt>
      <trkpt lat="42.80479" lon="2.57499">
        <ele>273.60000610352</ele>
        <time>2025-08-04T12:01:24.000Z</time>
      </trkpt>
      <trkpt lat="42.80478" lon="2.57498">
        <ele>273.79998779297</ele>
        <time>2025-08-04T12:01:25.000Z</time>
      </trkpt>
      <trkpt lat="42.80477" lon="2.57496">
        <ele>274</ele>
        <time>2025-08-04T12:01:26.000Z</time>
      </trkpt>
      <trkpt lat="42.80474" lon="2.57486">
        <ele>274.39999389648</ele>
        <time>2025-08-04T12:01:31.000Z</time>
      </trkpt>
      <trkpt lat="42.80471" lon="2.57478">
        <ele>274.60000610352</ele>
        <time>2025-08-04T12:01:35.000Z</time>
      </trkpt>
      <trkpt lat="42.80467" lon="2.57473">
        <ele>275</ele>
        <time>2025-08-04T12:01:38.000Z</time>
      </trkpt>
      <trkpt lat="42.80465" lon="2.57462">
        <ele>275.79998779297</ele>
        <time>2025-08-04T12:01:43.000Z</time>
      </trkpt>
      <trkpt lat="42.80464" lon="2.5746">
        <ele>276.20001220703</ele>
        <time>2025-08-04T12:01:44.000Z</time>
      </trkpt>
      <trkpt lat="42.8046" lon="2.5745">
        <ele>276.79998779297</ele>
        <time>2025-08-04T12:01:49.000Z</time>
      </trkpt>
      <trkpt lat="42.80459" lon="2.57448">
        <ele>276.79998779297</ele>
        <time>2025-08-04T12:01:50.000Z</time>
      </trkpt>
      <trkpt lat="42.80458" lon="2.57442">
        <ele>277.20001220703</ele>
        <time>2025-08-04T12:01:53.000Z</time>
      </trkpt>
      <trkpt lat="42.80459" lon="2.57431">
        <ele>277.79998779297</ele>
        <time>2025-08-04T12:01:58.000Z</time>
      </trkpt>
      <trkpt lat="42.80465" lon="2.5742">
        <ele>278.20001220703</ele>
        <time>2025-08-04T12:02:04.000Z</time>
      </trkpt>
      <trkpt lat="42.80472" lon="2.5741">
        <ele>278.39999389648</ele>
        <time>2025-08-04T12:02:11.000Z</time>
      </trkpt>
      <trkpt lat="42.80474" lon="2.57409">
        <ele>278.60000610352</ele>
        <time>2025-08-04T12:02:12.000Z</time>
      </trkpt>
      <trkpt lat="42.80475" lon="2.57406">
        <ele>278.79998779297</ele>
        <time>2025-08-04T12:02:14.000Z</time>
      </trkpt>
      <trkpt lat="42.80476" lon="2.57404">
        <ele>279</ele>
        <time>2025-08-04T12:02:15.000Z</time>
      </trkpt>
      <trkpt lat="42.80477" lon="2.57402">
        <ele>278.79998779297</ele>
        <time>2025-08-04T12:02:16.000Z</time>
      </trkpt>
      <trkpt lat="42.80488" lon="2.57394">
        <ele>279.20001220703</ele>
        <time>2025-08-04T12:02:23.000Z</time>
      </trkpt>
      <trkpt lat="42.80492" lon="2.57387">
        <ele>279.60000610352</ele>
        <time>2025-08-04T12:02:27.000Z</time>
      </trkpt>
      <trkpt lat="42.80498" lon="2.57374">
        <ele>280.20001220703</ele>
        <time>2025-08-04T12:02:33.000Z</time>
      </trkpt>
      <trkpt lat="42.805" lon="2.57365">
        <ele>280.79998779297</ele>
        <time>2025-08-04T12:02:37.000Z</time>
      </trkpt>
      <trkpt lat="42.80502" lon="2.57356">
        <ele>281.20001220703</ele>
        <time>2025-08-04T12:02:41.000Z</time>
      </trkpt>
      <trkpt lat="42.80501" lon="2.57344">
        <ele>281.79998779297</ele>
        <time>2025-08-04T12:02:46.000Z</time>
      </trkpt>
      <trkpt lat="42.80502" lon="2.57339">
        <ele>282</ele>
        <time>2025-08-04T12:02:48.000Z</time>
      </trkpt>
      <trkpt lat="42.80499" lon="2.57322">
        <ele>282.79998779297</ele>
        <time>2025-08-04T12:02:55.000Z</time>
      </trkpt>
      <trkpt lat="42.80499" lon="2.57319">
        <ele>283</ele>
        <time>2025-08-04T12:02:56.000Z</time>
      </trkpt>
      <trkpt lat="42.80495" lon="2.57301">
        <ele>284</ele>
        <time>2025-08-04T12:03:04.000Z</time>
      </trkpt>
      <trkpt lat="42.80495" lon="2.57299">
        <ele>284.20001220703</ele>
        <time>2025-08-04T12:03:05.000Z</time>
      </trkpt>
      <trkpt lat="42.80493" lon="2.57286">
        <ele>285.20001220703</ele>
        <time>2025-08-04T12:03:11.000Z</time>
      </trkpt>
      <trkpt lat="42.80493" lon="2.57284">
        <ele>285.39999389648</ele>
        <time>2025-08-04T12:03:12.000Z</time>
      </trkpt>
      <trkpt lat="42.80492" lon="2.57267">
        <ele>286.39999389648</ele>
        <time>2025-08-04T12:03:19.000Z</time>
      </trkpt>
      <trkpt lat="42.80493" lon="2.57262">
        <ele>286.39999389648</ele>
        <time>2025-08-04T12:03:21.000Z</time>
      </trkpt>
      <trkpt lat="42.80493" lon="2.57248">
        <ele>286.79998779297</ele>
        <time>2025-08-04T12:03:27.000Z</time>
      </trkpt>
      <trkpt lat="42.80491" lon="2.57229">
        <ele>287.39999389648</ele>
        <time>2025-08-04T12:03:35.000Z</time>
      </trkpt>
      <trkpt lat="42.80488" lon="2.57207">
        <ele>288.20001220703</ele>
        <time>2025-08-04T12:03:44.000Z</time>
      </trkpt>
      <trkpt lat="42.80488" lon="2.57205">
        <ele>288.39999389648</ele>
        <time>2025-08-04T12:03:45.000Z</time>
      </trkpt>
      <trkpt lat="42.80488" lon="2.57195">
        <ele>289</ele>
        <time>2025-08-04T12:03:50.000Z</time>
      </trkpt>
      <trkpt lat="42.80489" lon="2.57191">
        <ele>289.39999389648</ele>
        <time>2025-08-04T12:03:52.000Z</time>
      </trkpt>
      <trkpt lat="42.80489" lon="2.57189">
        <ele>289.39999389648</ele>
        <time>2025-08-04T12:03:53.000Z</time>
      </trkpt>
      <trkpt lat="42.80491" lon="2.57174">
        <ele>290.39999389648</ele>
        <time>2025-08-04T12:03:59.000Z</time>
      </trkpt>
      <trkpt lat="42.80491" lon="2.57172">
        <ele>290.60000610352</ele>
        <time>2025-08-04T12:04:00.000Z</time>
      </trkpt>
      <trkpt lat="42.80491" lon="2.57167">
        <ele>290.79998779297</ele>
        <time>2025-08-04T12:04:02.000Z</time>
      </trkpt>
      <trkpt lat="42.80491" lon="2.57156">
        <ele>291.60000610352</ele>
        <time>2025-08-04T12:04:07.000Z</time>
      </trkpt>
      <trkpt lat="42.80492" lon="2.57154">
        <ele>291.79998779297</ele>
        <time>2025-08-04T12:04:08.000Z</time>
      </trkpt>
      <trkpt lat="42.80492" lon="2.57139">
        <ele>292.60000610352</ele>
        <time>2025-08-04T12:04:14.000Z</time>
      </trkpt>
      <trkpt lat="42.80492" lon="2.57133">
        <ele>293.20001220703</ele>
        <time>2025-08-04T12:04:17.000Z</time>
      </trkpt>
      <trkpt lat="42.80491" lon="2.57121">
        <ele>293.79998779297</ele>
        <time>2025-08-04T12:04:22.000Z</time>
      </trkpt>
      <trkpt lat="42.80491" lon="2.57117">
        <ele>294</ele>
        <time>2025-08-04T12:04:24.000Z</time>
      </trkpt>
      <trkpt lat="42.8049" lon="2.57108">
        <ele>294.79998779297</ele>
        <time>2025-08-04T12:04:28.000Z</time>
      </trkpt>
      <trkpt lat="42.80489" lon="2.57101">
        <ele>295.39999389648</ele>
        <time>2025-08-04T12:04:31.000Z</time>
      </trkpt>
      <trkpt lat="42.80486" lon="2.57093">
        <ele>296</ele>
        <time>2025-08-04T12:04:35.000Z</time>
      </trkpt>
      <trkpt lat="42.80484" lon="2.57081">
        <ele>296.60000610352</ele>
        <time>2025-08-04T12:04:40.000Z</time>
      </trkpt>
      <trkpt lat="42.80483" lon="2.57073">
        <ele>297.20001220703</ele>
        <time>2025-08-04T12:04:44.000Z</time>
      </trkpt>
      <trkpt lat="42.80481" lon="2.57064">
        <ele>297.60000610352</ele>
        <time>2025-08-04T12:04:48.000Z</time>
      </trkpt>
      <trkpt lat="42.80475" lon="2.57047">
        <ele>298.20001220703</ele>
        <time>2025-08-04T12:04:56.000Z</time>
      </trkpt>
      <trkpt lat="42.80473" lon="2.57029">
        <ele>299</ele>
        <time>2025-08-04T12:05:03.000Z</time>
      </trkpt>
      <trkpt lat="42.80473" lon="2.57025">
        <ele>299.39999389648</ele>
        <time>2025-08-04T12:05:05.000Z</time>
      </trkpt>
      <trkpt lat="42.80471" lon="2.57016">
        <ele>300</ele>
        <time>2025-08-04T12:05:09.000Z</time>
      </trkpt>
      <trkpt lat="42.80467" lon="2.57004">
        <ele>300.39999389648</ele>
        <time>2025-08-04T12:05:14.000Z</time>
      </trkpt>
      <trkpt lat="42.80467" lon="2.57001">
        <ele>300.39999389648</ele>
        <time>2025-08-04T12:05:15.000Z</time>
      </trkpt>
      <trkpt lat="42.80468" lon="2.56999">
        <ele>300.60000610352</ele>
        <time>2025-08-04T12:05:16.000Z</time>
      </trkpt>
      <trkpt lat="42.80469" lon="2.56984">
        <ele>301.39999389648</ele>
        <time>2025-08-04T12:05:22.000Z</time>
      </trkpt>
      <trkpt lat="42.8047" lon="2.56973">
        <ele>302</ele>
        <time>2025-08-04T12:05:27.000Z</time>
      </trkpt>
      <trkpt lat="42.80471" lon="2.56964">
        <ele>302.39999389648</ele>
        <time>2025-08-04T12:05:31.000Z</time>
      </trkpt>
      <trkpt lat="42.8047" lon="2.56955">
        <ele>303</ele>
        <time>2025-08-04T12:05:35.000Z</time>
      </trkpt>
      <trkpt lat="42.80469" lon="2.56951">
        <ele>303.60000610352</ele>
        <time>2025-08-04T12:05:37.000Z</time>
      </trkpt>
      <trkpt lat="42.80468" lon="2.56949">
        <ele>304.20001220703</ele>
        <time>2025-08-04T12:05:39.000Z</time>
      </trkpt>
      <trkpt lat="42.80469" lon="2.56946">
        <ele>304.39999389648</ele>
        <time>2025-08-04T12:05:41.000Z</time>
      </trkpt>
      <trkpt lat="42.80468" lon="2.56943">
        <ele>304.60000610352</ele>
        <time>2025-08-04T12:05:44.000Z</time>
      </trkpt>
      <trkpt lat="42.80468" lon="2.56943">
        <ele>304.79998779297</ele>
        <time>2025-08-04T12:05:45.000Z</time>
      </trkpt>
      <trkpt lat="42.80465" lon="2.56935">
        <ele>305.79998779297</ele>
        <time>2025-08-04T12:06:08.000Z</time>
      </trkpt>
      <trkpt lat="42.80462" lon="2.56926">
        <ele>305.60000610352</ele>
        <time>2025-08-04T12:06:14.000Z</time>
      </trkpt>
      <trkpt lat="42.80459" lon="2.56914">
        <ele>305.79998779297</ele>
        <time>2025-08-04T12:06:20.000Z</time>
      </trkpt>
      <trkpt lat="42.80458" lon="2.56912">
        <ele>306</ele>
        <time>2025-08-04T12:06:21.000Z</time>
      </trkpt>
      <trkpt lat="42.80453" lon="2.56899">
        <ele>306.60000610352</ele>
        <time>2025-08-04T12:06:28.000Z</time>
      </trkpt>
      <trkpt lat="42.80452" lon="2.56894">
        <ele>306.79998779297</ele>
        <time>2025-08-04T12:06:30.000Z</time>
      </trkpt>
      <trkpt lat="42.8045" lon="2.56883">
        <ele>307.39999389648</ele>
        <time>2025-08-04T12:06:35.000Z</time>
      </trkpt>
      <trkpt lat="42.80449" lon="2.56879">
        <ele>307.60000610352</ele>
        <time>2025-08-04T12:06:37.000Z</time>
      </trkpt>
      <trkpt lat="42.80449" lon="2.56873">
        <ele>308</ele>
        <time>2025-08-04T12:06:39.000Z</time>
      </trkpt>
      <trkpt lat="42.80449" lon="2.56871">
        <ele>308.20001220703</ele>
        <time>2025-08-04T12:06:40.000Z</time>
      </trkpt>
      <trkpt lat="42.80447" lon="2.56853">
        <ele>308.79998779297</ele>
        <time>2025-08-04T12:06:48.000Z</time>
      </trkpt>
      <trkpt lat="42.80448" lon="2.56849">
        <ele>309</ele>
        <time>2025-08-04T12:06:49.000Z</time>
      </trkpt>
      <trkpt lat="42.80449" lon="2.56837">
        <ele>309.39999389648</ele>
        <time>2025-08-04T12:06:53.000Z</time>
      </trkpt>
      <trkpt lat="42.80447" lon="2.56826">
        <ele>310</ele>
        <time>2025-08-04T12:06:57.000Z</time>
      </trkpt>
      <trkpt lat="42.80447" lon="2.56813">
        <ele>310.79998779297</ele>
        <time>2025-08-04T12:07:02.000Z</time>
      </trkpt>
      <trkpt lat="42.80447" lon="2.56808">
        <ele>311.20001220703</ele>
        <time>2025-08-04T12:07:04.000Z</time>
      </trkpt>
      <trkpt lat="42.80446" lon="2.56798">
        <ele>311.39999389648</ele>
        <time>2025-08-04T12:07:08.000Z</time>
      </trkpt>
      <trkpt lat="42.80444" lon="2.56782">
        <ele>312.20001220703</ele>
        <time>2025-08-04T12:07:15.000Z</time>
      </trkpt>
      <trkpt lat="42.80443" lon="2.5678">
        <ele>312.20001220703</ele>
        <time>2025-08-04T12:07:16.000Z</time>
      </trkpt>
      <trkpt lat="42.8044" lon="2.56754">
        <ele>313.20001220703</ele>
        <time>2025-08-04T12:07:27.000Z</time>
      </trkpt>
      <trkpt lat="42.80438" lon="2.56737">
        <ele>313.79998779297</ele>
        <time>2025-08-04T12:07:34.000Z</time>
      </trkpt>
      <trkpt lat="42.80438" lon="2.56729">
        <ele>314.39999389648</ele>
        <time>2025-08-04T12:07:37.000Z</time>
      </trkpt>
      <trkpt lat="42.80439" lon="2.56714">
        <ele>315.20001220703</ele>
        <time>2025-08-04T12:07:43.000Z</time>
      </trkpt>
      <trkpt lat="42.80438" lon="2.56712">
        <ele>315.39999389648</ele>
        <time>2025-08-04T12:07:44.000Z</time>
      </trkpt>
      <trkpt lat="42.80438" lon="2.56698">
        <ele>316</ele>
        <time>2025-08-04T12:07:50.000Z</time>
      </trkpt>
      <trkpt lat="42.80438" lon="2.56688">
        <ele>316.60000610352</ele>
        <time>2025-08-04T12:07:54.000Z</time>
      </trkpt>
      <trkpt lat="42.80434" lon="2.56675">
        <ele>317.39999389648</ele>
        <time>2025-08-04T12:08:00.000Z</time>
      </trkpt>
      <trkpt lat="42.80434" lon="2.56673">
        <ele>317.60000610352</ele>
        <time>2025-08-04T12:08:01.000Z</time>
      </trkpt>
      <trkpt lat="42.80429" lon="2.56659">
        <ele>318.60000610352</ele>
        <time>2025-08-04T12:08:08.000Z</time>
      </trkpt>
      <trkpt lat="42.80427" lon="2.56657">
        <ele>318.79998779297</ele>
        <time>2025-08-04T12:08:09.000Z</time>
      </trkpt>
      <trkpt lat="42.80419" lon="2.56648">
        <ele>319.79998779297</ele>
        <time>2025-08-04T12:08:15.000Z</time>
      </trkpt>
      <trkpt lat="42.80415" lon="2.56645">
        <ele>320.20001220703</ele>
        <time>2025-08-04T12:08:18.000Z</time>
      </trkpt>
      <trkpt lat="42.8041" lon="2.56641">
        <ele>320.79998779297</ele>
        <time>2025-08-04T12:08:21.000Z</time>
      </trkpt>
      <trkpt lat="42.80403" lon="2.56634">
        <ele>322</ele>
        <time>2025-08-04T12:08:26.000Z</time>
      </trkpt>
      <trkpt lat="42.80398" lon="2.5663">
        <ele>322.60000610352</ele>
        <time>2025-08-04T12:08:29.000Z</time>
      </trkpt>
      <trkpt lat="42.80394" lon="2.56626">
        <ele>323</ele>
        <time>2025-08-04T12:08:32.000Z</time>
      </trkpt>
      <trkpt lat="42.80393" lon="2.56625">
        <ele>323.20001220703</ele>
        <time>2025-08-04T12:08:33.000Z</time>
      </trkpt>
      <trkpt lat="42.80389" lon="2.56619">
        <ele>323.79998779297</ele>
        <time>2025-08-04T12:08:36.000Z</time>
      </trkpt>
      <trkpt lat="42.80387" lon="2.56615">
        <ele>324.20001220703</ele>
        <time>2025-08-04T12:08:38.000Z</time>
      </trkpt>
      <trkpt lat="42.80385" lon="2.56602">
        <ele>324.60000610352</ele>
        <time>2025-08-04T12:08:44.000Z</time>
      </trkpt>
      <trkpt lat="42.80383" lon="2.56583">
        <ele>325</ele>
        <time>2025-08-04T12:08:52.000Z</time>
      </trkpt>
      <trkpt lat="42.80378" lon="2.56566">
        <ele>326</ele>
        <time>2025-08-04T12:09:00.000Z</time>
      </trkpt>
      <trkpt lat="42.80372" lon="2.56547">
        <ele>326.60000610352</ele>
        <time>2025-08-04T12:09:09.000Z</time>
      </trkpt>
      <trkpt lat="42.80367" lon="2.56538">
        <ele>327</ele>
        <time>2025-08-04T12:09:14.000Z</time>
      </trkpt>
      <trkpt lat="42.80366" lon="2.56535">
        <ele>327.20001220703</ele>
        <time>2025-08-04T12:09:16.000Z</time>
      </trkpt>
      <trkpt lat="42.80358" lon="2.56519">
        <ele>328.20001220703</ele>
        <time>2025-08-04T12:09:25.000Z</time>
      </trkpt>
      <trkpt lat="42.80349" lon="2.565">
        <ele>329.20001220703</ele>
        <time>2025-08-04T12:09:36.000Z</time>
      </trkpt>
      <trkpt lat="42.80348" lon="2.56497">
        <ele>329.60000610352</ele>
        <time>2025-08-04T12:09:38.000Z</time>
      </trkpt>
      <trkpt lat="42.80341" lon="2.56483">
        <ele>330.39999389648</ele>
        <time>2025-08-04T12:09:46.000Z</time>
      </trkpt>
      <trkpt lat="42.80335" lon="2.56469">
        <ele>331.39999389648</ele>
        <time>2025-08-04T12:09:53.000Z</time>
      </trkpt>
      <trkpt lat="42.80334" lon="2.56467">
        <ele>331.60000610352</ele>
        <time>2025-08-04T12:09:54.000Z</time>
      </trkpt>
      <trkpt lat="42.80328" lon="2.56453">
        <ele>332.39999389648</ele>
        <time>2025-08-04T12:10:02.000Z</time>
      </trkpt>
      <trkpt lat="42.80327" lon="2.56452">
        <ele>332.60000610352</ele>
        <time>2025-08-04T12:10:03.000Z</time>
      </trkpt>
      <trkpt lat="42.8032" lon="2.56438">
        <ele>333.60000610352</ele>
        <time>2025-08-04T12:10:11.000Z</time>
      </trkpt>
      <trkpt lat="42.80312" lon="2.56429">
        <ele>334</ele>
        <time>2025-08-04T12:10:17.000Z</time>
      </trkpt>
      <trkpt lat="42.80298" lon="2.56421">
        <ele>334.60000610352</ele>
        <time>2025-08-04T12:10:25.000Z</time>
      </trkpt>
      <trkpt lat="42.80284" lon="2.56415">
        <ele>335.79998779297</ele>
        <time>2025-08-04T12:10:34.000Z</time>
      </trkpt>
      <trkpt lat="42.8027" lon="2.56413">
        <ele>336.79998779297</ele>
        <time>2025-08-04T12:10:42.000Z</time>
      </trkpt>
      <trkpt lat="42.80258" lon="2.56414">
        <ele>337.79998779297</ele>
        <time>2025-08-04T12:10:49.000Z</time>
      </trkpt>
      <trkpt lat="42.80253" lon="2.56415">
        <ele>338.39999389648</ele>
        <time>2025-08-04T12:10:52.000Z</time>
      </trkpt>
      <trkpt lat="42.80249" lon="2.56417">
        <ele>339</ele>
        <time>2025-08-04T12:10:55.000Z</time>
      </trkpt>
      <trkpt lat="42.80248" lon="2.56417">
        <ele>339.20001220703</ele>
        <time>2025-08-04T12:10:56.000Z</time>
      </trkpt>
      <trkpt lat="42.80247" lon="2.56417">
        <ele>339.39999389648</ele>
        <time>2025-08-04T12:10:57.000Z</time>
      </trkpt>
      <trkpt lat="42.80244" lon="2.56416">
        <ele>339.60000610352</ele>
        <time>2025-08-04T12:10:59.000Z</time>
      </trkpt>
      <trkpt lat="42.80239" lon="2.5642">
        <ele>340</ele>
        <time>2025-08-04T12:11:02.000Z</time>
      </trkpt>
      <trkpt lat="42.80238" lon="2.56421">
        <ele>340</ele>
        <time>2025-08-04T12:11:03.000Z</time>
      </trkpt>
      <trkpt lat="42.80232" lon="2.56422">
        <ele>340.20001220703</ele>
        <time>2025-08-04T12:11:07.000Z</time>
      </trkpt>
      <trkpt lat="42.80229" lon="2.56425">
        <ele>340.39999389648</ele>
        <time>2025-08-04T12:11:09.000Z</time>
      </trkpt>
      <trkpt lat="42.80218" lon="2.56436">
        <ele>341.20001220703</ele>
        <time>2025-08-04T12:11:17.000Z</time>
      </trkpt>
      <trkpt lat="42.80216" lon="2.56438">
        <ele>341.20001220703</ele>
        <time>2025-08-04T12:11:18.000Z</time>
      </trkpt>
      <trkpt lat="42.80207" lon="2.5645">
        <ele>341.60000610352</ele>
        <time>2025-08-04T12:11:25.000Z</time>
      </trkpt>
      <trkpt lat="42.80196" lon="2.56457">
        <ele>341.60000610352</ele>
        <time>2025-08-04T12:11:32.000Z</time>
      </trkpt>
      <trkpt lat="42.80183" lon="2.56452">
        <ele>341.60000610352</ele>
        <time>2025-08-04T12:11:39.000Z</time>
      </trkpt>
      <trkpt lat="42.80177" lon="2.56445">
        <ele>342</ele>
        <time>2025-08-04T12:11:43.000Z</time>
      </trkpt>
      <trkpt lat="42.80168" lon="2.56431">
        <ele>342.20001220703</ele>
        <time>2025-08-04T12:11:50.000Z</time>
      </trkpt>
      <trkpt lat="42.80159" lon="2.5642">
        <ele>342.60000610352</ele>
        <time>2025-08-04T12:11:56.000Z</time>
      </trkpt>
      <trkpt lat="42.80152" lon="2.5641">
        <ele>343.20001220703</ele>
        <time>2025-08-04T12:12:01.000Z</time>
      </trkpt>
      <trkpt lat="42.80149" lon="2.56406">
        <ele>343.39999389648</ele>
        <time>2025-08-04T12:12:03.000Z</time>
      </trkpt>
      <trkpt lat="42.80131" lon="2.56387">
        <ele>344.20001220703</ele>
        <time>2025-08-04T12:12:15.000Z</time>
      </trkpt>
      <trkpt lat="42.80129" lon="2.56385">
        <ele>344.20001220703</ele>
        <time>2025-08-04T12:12:16.000Z</time>
      </trkpt>
      <trkpt lat="42.80116" lon="2.56379">
        <ele>345</ele>
        <time>2025-08-04T12:12:23.000Z</time>
      </trkpt>
      <trkpt lat="42.80105" lon="2.56377">
        <ele>345.20001220703</ele>
        <time>2025-08-04T12:12:28.000Z</time>
      </trkpt>
      <trkpt lat="42.80097" lon="2.56376">
        <ele>345.60000610352</ele>
        <time>2025-08-04T12:12:32.000Z</time>
      </trkpt>
      <trkpt lat="42.80079" lon="2.56372">
        <ele>346.39999389648</ele>
        <time>2025-08-04T12:12:40.000Z</time>
      </trkpt>
      <trkpt lat="42.80075" lon="2.56369">
        <ele>346.39999389648</ele>
        <time>2025-08-04T12:12:42.000Z</time>
      </trkpt>
      <trkpt lat="42.80062" lon="2.56351">
        <ele>347.20001220703</ele>
        <time>2025-08-04T12:12:51.000Z</time>
      </trkpt>
      <trkpt lat="42.8006" lon="2.56346">
        <ele>347.39999389648</ele>
        <time>2025-08-04T12:12:53.000Z</time>
      </trkpt>
      <trkpt lat="42.80055" lon="2.56328">
        <ele>347.79998779297</ele>
        <time>2025-08-04T12:13:00.000Z</time>
      </trkpt>
      <trkpt lat="42.80052" lon="2.56317">
        <ele>348.39999389648</ele>
        <time>2025-08-04T12:13:04.000Z</time>
      </trkpt>
      <trkpt lat="42.80052" lon="2.5631">
        <ele>348.79998779297</ele>
        <time>2025-08-04T12:13:07.000Z</time>
      </trkpt>
      <trkpt lat="42.80053" lon="2.563">
        <ele>349.20001220703</ele>
        <time>2025-08-04T12:13:11.000Z</time>
      </trkpt>
      <trkpt lat="42.80054" lon="2.56292">
        <ele>349.60000610352</ele>
        <time>2025-08-04T12:13:14.000Z</time>
      </trkpt>
      <trkpt lat="42.80057" lon="2.56278">
        <ele>350.20001220703</ele>
        <time>2025-08-04T12:13:20.000Z</time>
      </trkpt>
      <trkpt lat="42.80058" lon="2.56275">
        <ele>350.39999389648</ele>
        <time>2025-08-04T12:13:21.000Z</time>
      </trkpt>
      <trkpt lat="42.80062" lon="2.56264">
        <ele>350.60000610352</ele>
        <time>2025-08-04T12:13:25.000Z</time>
      </trkpt>
      <trkpt lat="42.80065" lon="2.56257">
        <ele>351</ele>
        <time>2025-08-04T12:13:28.000Z</time>
      </trkpt>
      <trkpt lat="42.80069" lon="2.56244">
        <ele>351.39999389648</ele>
        <time>2025-08-04T12:13:33.000Z</time>
      </trkpt>
      <trkpt lat="42.8007" lon="2.56241">
        <ele>351.39999389648</ele>
        <time>2025-08-04T12:13:34.000Z</time>
      </trkpt>
      <trkpt lat="42.8007" lon="2.56217">
        <ele>351.79998779297</ele>
        <time>2025-08-04T12:13:42.000Z</time>
      </trkpt>
      <trkpt lat="42.8007" lon="2.56196">
        <ele>352.39999389648</ele>
        <time>2025-08-04T12:13:49.000Z</time>
      </trkpt>
      <trkpt lat="42.80069" lon="2.56176">
        <ele>353.20001220703</ele>
        <time>2025-08-04T12:13:56.000Z</time>
      </trkpt>
      <trkpt lat="42.80067" lon="2.56164">
        <ele>353.39999389648</ele>
        <time>2025-08-04T12:14:00.000Z</time>
      </trkpt>
      <trkpt lat="42.80063" lon="2.56151">
        <ele>354</ele>
        <time>2025-08-04T12:14:05.000Z</time>
      </trkpt>
      <trkpt lat="42.80057" lon="2.56141">
        <ele>354.39999389648</ele>
        <time>2025-08-04T12:14:09.000Z</time>
      </trkpt>
      <trkpt lat="42.80052" lon="2.56129">
        <ele>355</ele>
        <time>2025-08-04T12:14:14.000Z</time>
      </trkpt>
      <trkpt lat="42.8005" lon="2.56114">
        <ele>355.20001220703</ele>
        <time>2025-08-04T12:14:20.000Z</time>
      </trkpt>
      <trkpt lat="42.8005" lon="2.56099">
        <ele>355.60000610352</ele>
        <time>2025-08-04T12:14:26.000Z</time>
      </trkpt>
      <trkpt lat="42.8005" lon="2.56096">
        <ele>355.60000610352</ele>
        <time>2025-08-04T12:14:27.000Z</time>
      </trkpt>
      <trkpt lat="42.80059" lon="2.56068">
        <ele>356.20001220703</ele>
        <time>2025-08-04T12:14:38.000Z</time>
      </trkpt>
      <trkpt lat="42.8006" lon="2.56061">
        <ele>356.39999389648</ele>
        <time>2025-08-04T12:14:41.000Z</time>
      </trkpt>
      <trkpt lat="42.80066" lon="2.56039">
        <ele>357</ele>
        <time>2025-08-04T12:14:50.000Z</time>
      </trkpt>
      <trkpt lat="42.80067" lon="2.56024">
        <ele>357.39999389648</ele>
        <time>2025-08-04T12:14:56.000Z</time>
      </trkpt>
      <trkpt lat="42.80067" lon="2.56016">
        <ele>357.79998779297</ele>
        <time>2025-08-04T12:14:59.000Z</time>
      </trkpt>
      <trkpt lat="42.80066" lon="2.55993">
        <ele>358.20001220703</ele>
        <time>2025-08-04T12:15:08.000Z</time>
      </trkpt>
      <trkpt lat="42.80064" lon="2.5598">
        <ele>358.60000610352</ele>
        <time>2025-08-04T12:15:13.000Z</time>
      </trkpt>
      <trkpt lat="42.80062" lon="2.55969">
        <ele>359</ele>
        <time>2025-08-04T12:15:17.000Z</time>
      </trkpt>
      <trkpt lat="42.80062" lon="2.55962">
        <ele>359.39999389648</ele>
        <time>2025-08-04T12:15:20.000Z</time>
      </trkpt>
      <trkpt lat="42.80062" lon="2.55956">
        <ele>359.60000610352</ele>
        <time>2025-08-04T12:15:22.000Z</time>
      </trkpt>
      <trkpt lat="42.80062" lon="2.55953">
        <ele>359.60000610352</ele>
        <time>2025-08-04T12:15:23.000Z</time>
      </trkpt>
      <trkpt lat="42.80063" lon="2.55928">
        <ele>360.39999389648</ele>
        <time>2025-08-04T12:15:33.000Z</time>
      </trkpt>
      <trkpt lat="42.80062" lon="2.55922">
        <ele>360.60000610352</ele>
        <time>2025-08-04T12:15:35.000Z</time>
      </trkpt>
      <trkpt lat="42.8006" lon="2.55902">
        <ele>361.39999389648</ele>
        <time>2025-08-04T12:15:43.000Z</time>
      </trkpt>
      <trkpt lat="42.80058" lon="2.5589">
        <ele>361.60000610352</ele>
        <time>2025-08-04T12:15:48.000Z</time>
      </trkpt>
      <trkpt lat="42.80053" lon="2.55879">
        <ele>362</ele>
        <time>2025-08-04T12:15:54.000Z</time>
      </trkpt>
      <trkpt lat="42.80045" lon="2.55865">
        <ele>362.20001220703</ele>
        <time>2025-08-04T12:16:01.000Z</time>
      </trkpt>
      <trkpt lat="42.80034" lon="2.55849">
        <ele>362.79998779297</ele>
        <time>2025-08-04T12:16:09.000Z</time>
      </trkpt>
      <trkpt lat="42.80033" lon="2.55847">
        <ele>362.79998779297</ele>
        <time>2025-08-04T12:16:10.000Z</time>
      </trkpt>
      <trkpt lat="42.80024" lon="2.55837">
        <ele>363.20001220703</ele>
        <time>2025-08-04T12:16:16.000Z</time>
      </trkpt>
      <trkpt lat="42.80015" lon="2.55829">
        <ele>363.60000610352</ele>
        <time>2025-08-04T12:16:21.000Z</time>
      </trkpt>
      <trkpt lat="42.80004" lon="2.55813">
        <ele>363.79998779297</ele>
        <time>2025-08-04T12:16:30.000Z</time>
      </trkpt>
      <trkpt lat="42.8" lon="2.55804">
        <ele>364</ele>
        <time>2025-08-04T12:16:34.000Z</time>
      </trkpt>
      <trkpt lat="42.79997" lon="2.55798">
        <ele>364</ele>
        <time>2025-08-04T12:16:37.000Z</time>
      </trkpt>
      <trkpt lat="42.79996" lon="2.55797">
        <ele>364</ele>
        <time>2025-08-04T12:16:38.000Z</time>
      </trkpt>
      <trkpt lat="42.79993" lon="2.55783">
        <ele>364.20001220703</ele>
        <time>2025-08-04T12:16:44.000Z</time>
      </trkpt>
      <trkpt lat="42.79992" lon="2.55777">
        <ele>364.60000610352</ele>
        <time>2025-08-04T12:16:50.000Z</time>
      </trkpt>
      <trkpt lat="42.79992" lon="2.55767">
        <ele>365.39999389648</ele>
        <time>2025-08-04T12:25:51.000Z</time>
      </trkpt>
      <trkpt lat="42.79991" lon="2.55762">
        <ele>365.39999389648</ele>
        <time>2025-08-04T12:25:53.000Z</time>
      </trkpt>
      <trkpt lat="42.7999" lon="2.55739">
        <ele>365</ele>
        <time>2025-08-04T12:26:01.000Z</time>
      </trkpt>
      <trkpt lat="42.79989" lon="2.55716">
        <ele>364.60000610352</ele>
        <time>2025-08-04T12:26:09.000Z</time>
      </trkpt>
      <trkpt lat="42.79987" lon="2.55701">
        <ele>364.39999389648</ele>
        <time>2025-08-04T12:26:15.000Z</time>
      </trkpt>
      <trkpt lat="42.79986" lon="2.55679">
        <ele>364.39999389648</ele>
        <time>2025-08-04T12:26:22.000Z</time>
      </trkpt>
      <trkpt lat="42.79983" lon="2.55648">
        <ele>364.39999389648</ele>
        <time>2025-08-04T12:26:31.000Z</time>
      </trkpt>
      <trkpt lat="42.79981" lon="2.55606">
        <ele>364.60000610352</ele>
        <time>2025-08-04T12:26:42.000Z</time>
      </trkpt>
      <trkpt lat="42.79984" lon="2.55583">
        <ele>364.60000610352</ele>
        <time>2025-08-04T12:26:49.000Z</time>
      </trkpt>
      <trkpt lat="42.79987" lon="2.55556">
        <ele>364.39999389648</ele>
        <time>2025-08-04T12:26:56.000Z</time>
      </trkpt>
      <trkpt lat="42.79988" lon="2.55531">
        <ele>364.20001220703</ele>
        <time>2025-08-04T12:27:03.000Z</time>
      </trkpt>
      <trkpt lat="42.79989" lon="2.55527">
        <ele>364.20001220703</ele>
        <time>2025-08-04T12:27:04.000Z</time>
      </trkpt>
      <trkpt lat="42.79992" lon="2.55497">
        <ele>364.20001220703</ele>
        <time>2025-08-04T12:27:13.000Z</time>
      </trkpt>
      <trkpt lat="42.79991" lon="2.55456">
        <ele>364.20001220703</ele>
        <time>2025-08-04T12:27:24.000Z</time>
      </trkpt>
      <trkpt lat="42.79989" lon="2.55437">
        <ele>364.20001220703</ele>
        <time>2025-08-04T12:27:29.000Z</time>
      </trkpt>
      <trkpt lat="42.79987" lon="2.55425">
        <ele>364.39999389648</ele>
        <time>2025-08-04T12:27:33.000Z</time>
      </trkpt>
      <trkpt lat="42.79985" lon="2.55397">
        <ele>364.60000610352</ele>
        <time>2025-08-04T12:27:41.000Z</time>
      </trkpt>
      <trkpt lat="42.7998" lon="2.5536">
        <ele>365</ele>
        <time>2025-08-04T12:27:52.000Z</time>
      </trkpt>
      <trkpt lat="42.7998" lon="2.55343">
        <ele>365.39999389648</ele>
        <time>2025-08-04T12:27:57.000Z</time>
      </trkpt>
      <trkpt lat="42.79979" lon="2.55329">
        <ele>366.20001220703</ele>
        <time>2025-08-04T12:28:01.000Z</time>
      </trkpt>
      <trkpt lat="42.79979" lon="2.55323">
        <ele>366.60000610352</ele>
        <time>2025-08-04T12:28:03.000Z</time>
      </trkpt>
      <trkpt lat="42.7998" lon="2.55299">
        <ele>367</ele>
        <time>2025-08-04T12:28:10.000Z</time>
      </trkpt>
      <trkpt lat="42.79986" lon="2.55263">
        <ele>367.39999389648</ele>
        <time>2025-08-04T12:28:20.000Z</time>
      </trkpt>
      <trkpt lat="42.79991" lon="2.5523">
        <ele>367.39999389648</ele>
        <time>2025-08-04T12:28:28.000Z</time>
      </trkpt>
      <trkpt lat="42.79998" lon="2.552">
        <ele>367.39999389648</ele>
        <time>2025-08-04T12:28:35.000Z</time>
      </trkpt>
      <trkpt lat="42.80004" lon="2.55164">
        <ele>367</ele>
        <time>2025-08-04T12:28:44.000Z</time>
      </trkpt>
      <trkpt lat="42.80012" lon="2.55128">
        <ele>366.60000610352</ele>
        <time>2025-08-04T12:28:52.000Z</time>
      </trkpt>
      <trkpt lat="42.8002" lon="2.55085">
        <ele>366.39999389648</ele>
        <time>2025-08-04T12:29:00.000Z</time>
      </trkpt>
      <trkpt lat="42.80022" lon="2.55079">
        <ele>366.60000610352</ele>
        <time>2025-08-04T12:29:01.000Z</time>
      </trkpt>
      <trkpt lat="42.80028" lon="2.55044">
        <ele>366.20001220703</ele>
        <time>2025-08-04T12:29:06.000Z</time>
      </trkpt>
      <trkpt lat="42.80027" lon="2.55012">
        <ele>365.60000610352</ele>
        <time>2025-08-04T12:29:10.000Z</time>
      </trkpt>
      <trkpt lat="42.80027" lon="2.55005">
        <ele>365.39999389648</ele>
        <time>2025-08-04T12:29:11.000Z</time>
      </trkpt>
      <trkpt lat="42.80023" lon="2.54961">
        <ele>365.20001220703</ele>
        <time>2025-08-04T12:29:18.000Z</time>
      </trkpt>
      <trkpt lat="42.8002" lon="2.54939">
        <ele>365.20001220703</ele>
        <time>2025-08-04T12:29:22.000Z</time>
      </trkpt>
      <trkpt lat="42.80019" lon="2.54924">
        <ele>365.39999389648</ele>
        <time>2025-08-04T12:29:25.000Z</time>
      </trkpt>
      <trkpt lat="42.80021" lon="2.5488">
        <ele>365.39999389648</ele>
        <time>2025-08-04T12:29:34.000Z</time>
      </trkpt>
      <trkpt lat="42.80022" lon="2.54871">
        <ele>365.39999389648</ele>
        <time>2025-08-04T12:29:36.000Z</time>
      </trkpt>
      <trkpt lat="42.80025" lon="2.54852">
        <ele>365.20001220703</ele>
        <time>2025-08-04T12:29:40.000Z</time>
      </trkpt>
      <trkpt lat="42.80039" lon="2.54811">
        <ele>365</ele>
        <time>2025-08-04T12:29:49.000Z</time>
      </trkpt>
      <trkpt lat="42.80064" lon="2.54758">
        <ele>364.60000610352</ele>
        <time>2025-08-04T12:30:00.000Z</time>
      </trkpt>
      <trkpt lat="42.80078" lon="2.54711">
        <ele>364.39999389648</ele>
        <time>2025-08-04T12:30:09.000Z</time>
      </trkpt>
      <trkpt lat="42.80079" lon="2.54705">
        <ele>364.39999389648</ele>
        <time>2025-08-04T12:30:10.000Z</time>
      </trkpt>
      <trkpt lat="42.80081" lon="2.54676">
        <ele>364.79998779297</ele>
        <time>2025-08-04T12:30:16.000Z</time>
      </trkpt>
      <trkpt lat="42.80081" lon="2.54649">
        <ele>365.79998779297</ele>
        <time>2025-08-04T12:30:22.000Z</time>
      </trkpt>
      <trkpt lat="42.8008" lon="2.54632">
        <ele>366.60000610352</ele>
        <time>2025-08-04T12:30:26.000Z</time>
      </trkpt>
      <trkpt lat="42.80082" lon="2.54598">
        <ele>366.60000610352</ele>
        <time>2025-08-04T12:30:34.000Z</time>
      </trkpt>
      <trkpt lat="42.80082" lon="2.54594">
        <ele>367</ele>
        <time>2025-08-04T12:30:35.000Z</time>
      </trkpt>
      <trkpt lat="42.80084" lon="2.54565">
        <ele>367.39999389648</ele>
        <time>2025-08-04T12:30:42.000Z</time>
      </trkpt>
      <trkpt lat="42.80081" lon="2.54534">
        <ele>367.60000610352</ele>
        <time>2025-08-04T12:30:49.000Z</time>
      </trkpt>
      <trkpt lat="42.8008" lon="2.5453">
        <ele>367.79998779297</ele>
        <time>2025-08-04T12:30:50.000Z</time>
      </trkpt>
      <trkpt lat="42.80078" lon="2.54512">
        <ele>368.20001220703</ele>
        <time>2025-08-04T12:30:54.000Z</time>
      </trkpt>
      <trkpt lat="42.80078" lon="2.54494">
        <ele>368.60000610352</ele>
        <time>2025-08-04T12:30:58.000Z</time>
      </trkpt>
      <trkpt lat="42.80078" lon="2.54489">
        <ele>368.60000610352</ele>
        <time>2025-08-04T12:30:59.000Z</time>
      </trkpt>
      <trkpt lat="42.80082" lon="2.54467">
        <ele>369.20001220703</ele>
        <time>2025-08-04T12:31:05.000Z</time>
      </trkpt>
      <trkpt lat="42.80084" lon="2.54456">
        <ele>369.79998779297</ele>
        <time>2025-08-04T12:31:08.000Z</time>
      </trkpt>
      <trkpt lat="42.80085" lon="2.54445">
        <ele>370.20001220703</ele>
        <time>2025-08-04T12:31:11.000Z</time>
      </trkpt>
      <trkpt lat="42.80087" lon="2.54422">
        <ele>370.79998779297</ele>
        <time>2025-08-04T12:31:17.000Z</time>
      </trkpt>
      <trkpt lat="42.80088" lon="2.54419">
        <ele>371.20001220703</ele>
        <time>2025-08-04T12:31:18.000Z</time>
      </trkpt>
      <trkpt lat="42.80088" lon="2.54403">
        <ele>372</ele>
        <time>2025-08-04T12:31:22.000Z</time>
      </trkpt>
      <trkpt lat="42.80089" lon="2.54383">
        <ele>372.60000610352</ele>
        <time>2025-08-04T12:31:28.000Z</time>
      </trkpt>
      <trkpt lat="42.8009" lon="2.5437">
        <ele>373</ele>
        <time>2025-08-04T12:31:32.000Z</time>
      </trkpt>
      <trkpt lat="42.80092" lon="2.54359">
        <ele>373.39999389648</ele>
        <time>2025-08-04T12:31:35.000Z</time>
      </trkpt>
      <trkpt lat="42.80093" lon="2.54329">
        <ele>374</ele>
        <time>2025-08-04T12:31:43.000Z</time>
      </trkpt>
      <trkpt lat="42.80093" lon="2.54326">
        <ele>374</ele>
        <time>2025-08-04T12:31:44.000Z</time>
      </trkpt>
      <trkpt lat="42.80095" lon="2.54298">
        <ele>374.39999389648</ele>
        <time>2025-08-04T12:31:51.000Z</time>
      </trkpt>
      <trkpt lat="42.80095" lon="2.54294">
        <ele>374.39999389648</ele>
        <time>2025-08-04T12:31:52.000Z</time>
      </trkpt>
      <trkpt lat="42.80098" lon="2.54253">
        <ele>375</ele>
        <time>2025-08-04T12:32:02.000Z</time>
      </trkpt>
      <trkpt lat="42.801" lon="2.54241">
        <ele>375</ele>
        <time>2025-08-04T12:32:05.000Z</time>
      </trkpt>
      <trkpt lat="42.801" lon="2.54228">
        <ele>375.20001220703</ele>
        <time>2025-08-04T12:32:08.000Z</time>
      </trkpt>
      <trkpt lat="42.80103" lon="2.54188">
        <ele>375.39999389648</ele>
        <time>2025-08-04T12:32:17.000Z</time>
      </trkpt>
      <trkpt lat="42.80112" lon="2.54162">
        <ele>375.39999389648</ele>
        <time>2025-08-04T12:32:23.000Z</time>
      </trkpt>
      <trkpt lat="42.80124" lon="2.5414">
        <ele>375.60000610352</ele>
        <time>2025-08-04T12:32:28.000Z</time>
      </trkpt>
      <trkpt lat="42.80129" lon="2.54132">
        <ele>375.60000610352</ele>
        <time>2025-08-04T12:32:30.000Z</time>
      </trkpt>
      <trkpt lat="42.80151" lon="2.54101">
        <ele>376</ele>
        <time>2025-08-04T12:32:38.000Z</time>
      </trkpt>
      <trkpt lat="42.80173" lon="2.54064">
        <ele>375.79998779297</ele>
        <time>2025-08-04T12:32:47.000Z</time>
      </trkpt>
      <trkpt lat="42.80191" lon="2.54026">
        <ele>375.60000610352</ele>
        <time>2025-08-04T12:32:55.000Z</time>
      </trkpt>
      <trkpt lat="42.80196" lon="2.54016">
        <ele>375.60000610352</ele>
        <time>2025-08-04T12:32:57.000Z</time>
      </trkpt>
      <trkpt lat="42.80207" lon="2.54004">
        <ele>375.39999389648</ele>
        <time>2025-08-04T12:33:00.000Z</time>
      </trkpt>
      <trkpt lat="42.80211" lon="2.54001">
        <ele>375.39999389648</ele>
        <time>2025-08-04T12:33:01.000Z</time>
      </trkpt>
      <trkpt lat="42.80223" lon="2.53991">
        <ele>375.20001220703</ele>
        <time>2025-08-04T12:33:04.000Z</time>
      </trkpt>
      <trkpt lat="42.8023" lon="2.53983">
        <ele>375.20001220703</ele>
        <time>2025-08-04T12:33:06.000Z</time>
      </trkpt>
      <trkpt lat="42.80233" lon="2.53978">
        <ele>375</ele>
        <time>2025-08-04T12:33:07.000Z</time>
      </trkpt>
      <trkpt lat="42.80235" lon="2.53972">
        <ele>375</ele>
        <time>2025-08-04T12:33:08.000Z</time>
      </trkpt>
      <trkpt lat="42.80238" lon="2.5396">
        <ele>375</ele>
        <time>2025-08-04T12:33:10.000Z</time>
      </trkpt>
      <trkpt lat="42.80237" lon="2.53954">
        <ele>375</ele>
        <time>2025-08-04T12:33:11.000Z</time>
      </trkpt>
      <trkpt lat="42.80235" lon="2.53947">
        <ele>375</ele>
        <time>2025-08-04T12:33:12.000Z</time>
      </trkpt>
      <trkpt lat="42.80231" lon="2.53936">
        <ele>375</ele>
        <time>2025-08-04T12:33:14.000Z</time>
      </trkpt>
      <trkpt lat="42.80226" lon="2.53924">
        <ele>375</ele>
        <time>2025-08-04T12:33:16.000Z</time>
      </trkpt>
      <trkpt lat="42.80223" lon="2.53909">
        <ele>374.79998779297</ele>
        <time>2025-08-04T12:33:18.000Z</time>
      </trkpt>
      <trkpt lat="42.80222" lon="2.53893">
        <ele>374.79998779297</ele>
        <time>2025-08-04T12:33:20.000Z</time>
      </trkpt>
      <trkpt lat="42.80222" lon="2.53877">
        <ele>374.39999389648</ele>
        <time>2025-08-04T12:33:22.000Z</time>
      </trkpt>
      <trkpt lat="42.80227" lon="2.53854">
        <ele>373.79998779297</ele>
        <time>2025-08-04T12:33:25.000Z</time>
      </trkpt>
      <trkpt lat="42.80236" lon="2.53825">
        <ele>373</ele>
        <time>2025-08-04T12:33:29.000Z</time>
      </trkpt>
      <trkpt lat="42.80239" lon="2.53816">
        <ele>372.60000610352</ele>
        <time>2025-08-04T12:33:30.000Z</time>
      </trkpt>
      <trkpt lat="42.80241" lon="2.53808">
        <ele>372.39999389648</ele>
        <time>2025-08-04T12:33:31.000Z</time>
      </trkpt>
      <trkpt lat="42.80243" lon="2.53791">
        <ele>371.60000610352</ele>
        <time>2025-08-04T12:33:33.000Z</time>
      </trkpt>
      <trkpt lat="42.8024" lon="2.53773">
        <ele>370.79998779297</ele>
        <time>2025-08-04T12:33:35.000Z</time>
      </trkpt>
      <trkpt lat="42.80231" lon="2.53748">
        <ele>370</ele>
        <time>2025-08-04T12:33:38.000Z</time>
      </trkpt>
      <trkpt lat="42.80229" lon="2.53739">
        <ele>369.60000610352</ele>
        <time>2025-08-04T12:33:39.000Z</time>
      </trkpt>
      <trkpt lat="42.80229" lon="2.53729">
        <ele>369.20001220703</ele>
        <time>2025-08-04T12:33:40.000Z</time>
      </trkpt>
      <trkpt lat="42.80228" lon="2.53691">
        <ele>368.39999389648</ele>
        <time>2025-08-04T12:33:44.000Z</time>
      </trkpt>
      <trkpt lat="42.80231" lon="2.53643">
        <ele>367</ele>
        <time>2025-08-04T12:33:49.000Z</time>
      </trkpt>
      <trkpt lat="42.80231" lon="2.53624">
        <ele>366.60000610352</ele>
        <time>2025-08-04T12:33:51.000Z</time>
      </trkpt>
      <trkpt lat="42.8023" lon="2.53615">
        <ele>366.20001220703</ele>
        <time>2025-08-04T12:33:52.000Z</time>
      </trkpt>
      <trkpt lat="42.80228" lon="2.53604">
        <ele>366</ele>
        <time>2025-08-04T12:33:53.000Z</time>
      </trkpt>
      <trkpt lat="42.80224" lon="2.53584">
        <ele>365.20001220703</ele>
        <time>2025-08-04T12:33:55.000Z</time>
      </trkpt>
      <trkpt lat="42.80223" lon="2.53575">
        <ele>365</ele>
        <time>2025-08-04T12:33:56.000Z</time>
      </trkpt>
      <trkpt lat="42.80222" lon="2.53556">
        <ele>364.60000610352</ele>
        <time>2025-08-04T12:33:58.000Z</time>
      </trkpt>
      <trkpt lat="42.80223" lon="2.53547">
        <ele>364.20001220703</ele>
        <time>2025-08-04T12:33:59.000Z</time>
      </trkpt>
      <trkpt lat="42.80225" lon="2.53528">
        <ele>363.79998779297</ele>
        <time>2025-08-04T12:34:01.000Z</time>
      </trkpt>
      <trkpt lat="42.80232" lon="2.53494">
        <ele>362.79998779297</ele>
        <time>2025-08-04T12:34:05.000Z</time>
      </trkpt>
      <trkpt lat="42.80234" lon="2.53485">
        <ele>362.60000610352</ele>
        <time>2025-08-04T12:34:06.000Z</time>
      </trkpt>
      <trkpt lat="42.80239" lon="2.53441">
        <ele>361.60000610352</ele>
        <time>2025-08-04T12:34:11.000Z</time>
      </trkpt>
      <trkpt lat="42.80238" lon="2.53434">
        <ele>361.60000610352</ele>
        <time>2025-08-04T12:34:12.000Z</time>
      </trkpt>
      <trkpt lat="42.80234" lon="2.53425">
        <ele>361.20001220703</ele>
        <time>2025-08-04T12:34:13.000Z</time>
      </trkpt>
      <trkpt lat="42.8023" lon="2.5342">
        <ele>361</ele>
        <time>2025-08-04T12:34:14.000Z</time>
      </trkpt>
      <trkpt lat="42.8022" lon="2.5341">
        <ele>360.39999389648</ele>
        <time>2025-08-04T12:34:16.000Z</time>
      </trkpt>
      <trkpt lat="42.80214" lon="2.53406">
        <ele>360.20001220703</ele>
        <time>2025-08-04T12:34:17.000Z</time>
      </trkpt>
      <trkpt lat="42.80209" lon="2.53401">
        <ele>360</ele>
        <time>2025-08-04T12:34:18.000Z</time>
      </trkpt>
      <trkpt lat="42.80194" lon="2.53371">
        <ele>358.79998779297</ele>
        <time>2025-08-04T12:34:22.000Z</time>
      </trkpt>
      <trkpt lat="42.80191" lon="2.53362">
        <ele>358.60000610352</ele>
        <time>2025-08-04T12:34:23.000Z</time>
      </trkpt>
      <trkpt lat="42.80187" lon="2.53344">
        <ele>358.20001220703</ele>
        <time>2025-08-04T12:34:25.000Z</time>
      </trkpt>
      <trkpt lat="42.80187" lon="2.53326">
        <ele>357.60000610352</ele>
        <time>2025-08-04T12:34:27.000Z</time>
      </trkpt>
      <trkpt lat="42.80198" lon="2.53289">
        <ele>356.60000610352</ele>
        <time>2025-08-04T12:34:31.000Z</time>
      </trkpt>
      <trkpt lat="42.80201" lon="2.5328">
        <ele>356.39999389648</ele>
        <time>2025-08-04T12:34:32.000Z</time>
      </trkpt>
      <trkpt lat="42.80209" lon="2.53254">
        <ele>355.60000610352</ele>
        <time>2025-08-04T12:34:35.000Z</time>
      </trkpt>
      <trkpt lat="42.80214" lon="2.53246">
        <ele>355.20001220703</ele>
        <time>2025-08-04T12:34:36.000Z</time>
      </trkpt>
      <trkpt lat="42.80219" lon="2.5324">
        <ele>355.20001220703</ele>
        <time>2025-08-04T12:34:37.000Z</time>
      </trkpt>
      <trkpt lat="42.8023" lon="2.53229">
        <ele>354.79998779297</ele>
        <time>2025-08-04T12:34:39.000Z</time>
      </trkpt>
      <trkpt lat="42.80241" lon="2.53218">
        <ele>354.39999389648</ele>
        <time>2025-08-04T12:34:41.000Z</time>
      </trkpt>
      <trkpt lat="42.80245" lon="2.53211">
        <ele>354.39999389648</ele>
        <time>2025-08-04T12:34:42.000Z</time>
      </trkpt>
      <trkpt lat="42.80246" lon="2.53202">
        <ele>354.20001220703</ele>
        <time>2025-08-04T12:34:43.000Z</time>
      </trkpt>
      <trkpt lat="42.80245" lon="2.53187">
        <ele>354</ele>
        <time>2025-08-04T12:34:45.000Z</time>
      </trkpt>
      <trkpt lat="42.80241" lon="2.53166">
        <ele>353.60000610352</ele>
        <time>2025-08-04T12:34:48.000Z</time>
      </trkpt>
      <trkpt lat="42.80235" lon="2.53157">
        <ele>353.60000610352</ele>
        <time>2025-08-04T12:34:50.000Z</time>
      </trkpt>
      <trkpt lat="42.80221" lon="2.53151">
        <ele>353.60000610352</ele>
        <time>2025-08-04T12:34:54.000Z</time>
      </trkpt>
      <trkpt lat="42.80202" lon="2.53155">
        <ele>354</ele>
        <time>2025-08-04T12:35:00.000Z</time>
      </trkpt>
      <trkpt lat="42.8019" lon="2.53148">
        <ele>354.20001220703</ele>
        <time>2025-08-04T12:35:05.000Z</time>
      </trkpt>
      <trkpt lat="42.80171" lon="2.53128">
        <ele>355</ele>
        <time>2025-08-04T12:35:14.000Z</time>
      </trkpt>
      <trkpt lat="42.80165" lon="2.53121">
        <ele>355.20001220703</ele>
        <time>2025-08-04T12:35:17.000Z</time>
      </trkpt>
      <trkpt lat="42.80154" lon="2.53114">
        <ele>355.39999389648</ele>
        <time>2025-08-04T12:35:21.000Z</time>
      </trkpt>
      <trkpt lat="42.80152" lon="2.53107">
        <ele>355.39999389648</ele>
        <time>2025-08-04T12:35:23.000Z</time>
      </trkpt>
      <trkpt lat="42.80151" lon="2.531">
        <ele>355.39999389648</ele>
        <time>2025-08-04T12:35:25.000Z</time>
      </trkpt>
      <trkpt lat="42.80135" lon="2.53081">
        <ele>356</ele>
        <time>2025-08-04T12:35:34.000Z</time>
      </trkpt>
      <trkpt lat="42.80128" lon="2.53072">
        <ele>356.20001220703</ele>
        <time>2025-08-04T12:35:38.000Z</time>
      </trkpt>
      <trkpt lat="42.80122" lon="2.53065">
        <ele>356.39999389648</ele>
        <time>2025-08-04T12:35:41.000Z</time>
      </trkpt>
      <trkpt lat="42.80107" lon="2.53045">
        <ele>357.20001220703</ele>
        <time>2025-08-04T12:35:49.000Z</time>
      </trkpt>
      <trkpt lat="42.80106" lon="2.53042">
        <ele>357.20001220703</ele>
        <time>2025-08-04T12:35:50.000Z</time>
      </trkpt>
      <trkpt lat="42.80095" lon="2.53027">
        <ele>357.60000610352</ele>
        <time>2025-08-04T12:35:56.000Z</time>
      </trkpt>
      <trkpt lat="42.80081" lon="2.53012">
        <ele>358</ele>
        <time>2025-08-04T12:36:03.000Z</time>
      </trkpt>
      <trkpt lat="42.80077" lon="2.53007">
        <ele>358.20001220703</ele>
        <time>2025-08-04T12:36:05.000Z</time>
      </trkpt>
      <trkpt lat="42.80067" lon="2.52997">
        <ele>359</ele>
        <time>2025-08-04T12:36:11.000Z</time>
      </trkpt>
      <trkpt lat="42.80062" lon="2.52995">
        <ele>359.20001220703</ele>
        <time>2025-08-04T12:36:13.000Z</time>
      </trkpt>
      <trkpt lat="42.80058" lon="2.52994">
        <ele>359.39999389648</ele>
        <time>2025-08-04T12:36:15.000Z</time>
      </trkpt>
      <trkpt lat="42.80056" lon="2.52993">
        <ele>359.60000610352</ele>
        <time>2025-08-04T12:36:16.000Z</time>
      </trkpt>
      <trkpt lat="42.80045" lon="2.52986">
        <ele>360.20001220703</ele>
        <time>2025-08-04T12:36:21.000Z</time>
      </trkpt>
      <trkpt lat="42.80037" lon="2.52984">
        <ele>360.60000610352</ele>
        <time>2025-08-04T12:36:24.000Z</time>
      </trkpt>
      <trkpt lat="42.80019" lon="2.52979">
        <ele>361</ele>
        <time>2025-08-04T12:36:31.000Z</time>
      </trkpt>
      <trkpt lat="42.80002" lon="2.52981">
        <ele>361.39999389648</ele>
        <time>2025-08-04T12:36:38.000Z</time>
      </trkpt>
      <trkpt lat="42.79996" lon="2.52981">
        <ele>361.79998779297</ele>
        <time>2025-08-04T12:36:40.000Z</time>
      </trkpt>
      <trkpt lat="42.79981" lon="2.52983">
        <ele>362.39999389648</ele>
        <time>2025-08-04T12:36:46.000Z</time>
      </trkpt>
      <trkpt lat="42.79967" lon="2.52985">
        <ele>362.39999389648</ele>
        <time>2025-08-04T12:36:50.000Z</time>
      </trkpt>
      <trkpt lat="42.79963" lon="2.52986">
        <ele>362.39999389648</ele>
        <time>2025-08-04T12:36:51.000Z</time>
      </trkpt>
      <trkpt lat="42.79953" lon="2.52988">
        <ele>362.20001220703</ele>
        <time>2025-08-04T12:36:53.000Z</time>
      </trkpt>
      <trkpt lat="42.79937" lon="2.5299">
        <ele>361.60000610352</ele>
        <time>2025-08-04T12:36:56.000Z</time>
      </trkpt>
      <trkpt lat="42.79932" lon="2.52989">
        <ele>361.39999389648</ele>
        <time>2025-08-04T12:36:57.000Z</time>
      </trkpt>
      <trkpt lat="42.79928" lon="2.52987">
        <ele>360.79998779297</ele>
        <time>2025-08-04T12:36:58.000Z</time>
      </trkpt>
      <trkpt lat="42.79913" lon="2.52981">
        <ele>359.79998779297</ele>
        <time>2025-08-04T12:37:01.000Z</time>
      </trkpt>
      <trkpt lat="42.79908" lon="2.52978">
        <ele>359.60000610352</ele>
        <time>2025-08-04T12:37:02.000Z</time>
      </trkpt>
      <trkpt lat="42.79895" lon="2.52967">
        <ele>358.39999389648</ele>
        <time>2025-08-04T12:37:05.000Z</time>
      </trkpt>
      <trkpt lat="42.79891" lon="2.52962">
        <ele>358.20001220703</ele>
        <time>2025-08-04T12:37:06.000Z</time>
      </trkpt>
      <trkpt lat="42.79887" lon="2.52956">
        <ele>357.79998779297</ele>
        <time>2025-08-04T12:37:07.000Z</time>
      </trkpt>
      <trkpt lat="42.79882" lon="2.5294">
        <ele>357.20001220703</ele>
        <time>2025-08-04T12:37:09.000Z</time>
      </trkpt>
      <trkpt lat="42.7988" lon="2.52924">
        <ele>356.79998779297</ele>
        <time>2025-08-04T12:37:11.000Z</time>
      </trkpt>
      <trkpt lat="42.7988" lon="2.52906">
        <ele>356.20001220703</ele>
        <time>2025-08-04T12:37:13.000Z</time>
      </trkpt>
      <trkpt lat="42.79881" lon="2.52896">
        <ele>355.60000610352</ele>
        <time>2025-08-04T12:37:14.000Z</time>
      </trkpt>
      <trkpt lat="42.79882" lon="2.52887">
        <ele>355.20001220703</ele>
        <time>2025-08-04T12:37:15.000Z</time>
      </trkpt>
      <trkpt lat="42.79887" lon="2.52864">
        <ele>354.39999389648</ele>
        <time>2025-08-04T12:37:17.000Z</time>
      </trkpt>
      <trkpt lat="42.7989" lon="2.52854">
        <ele>354.20001220703</ele>
        <time>2025-08-04T12:37:18.000Z</time>
      </trkpt>
      <trkpt lat="42.79894" lon="2.52845">
        <ele>353.60000610352</ele>
        <time>2025-08-04T12:37:19.000Z</time>
      </trkpt>
      <trkpt lat="42.79905" lon="2.5283">
        <ele>353.20001220703</ele>
        <time>2025-08-04T12:37:21.000Z</time>
      </trkpt>
      <trkpt lat="42.79931" lon="2.52804">
        <ele>352</ele>
        <time>2025-08-04T12:37:25.000Z</time>
      </trkpt>
      <trkpt lat="42.79938" lon="2.52798">
        <ele>351.39999389648</ele>
        <time>2025-08-04T12:37:26.000Z</time>
      </trkpt>
      <trkpt lat="42.79944" lon="2.5279">
        <ele>350.79998779297</ele>
        <time>2025-08-04T12:37:27.000Z</time>
      </trkpt>
      <trkpt lat="42.79951" lon="2.52772">
        <ele>350.20001220703</ele>
        <time>2025-08-04T12:37:29.000Z</time>
      </trkpt>
      <trkpt lat="42.79955" lon="2.52751">
        <ele>349.39999389648</ele>
        <time>2025-08-04T12:37:31.000Z</time>
      </trkpt>
      <trkpt lat="42.79955" lon="2.52741">
        <ele>349</ele>
        <time>2025-08-04T12:37:32.000Z</time>
      </trkpt>
      <trkpt lat="42.79952" lon="2.52718">
        <ele>348</ele>
        <time>2025-08-04T12:37:34.000Z</time>
      </trkpt>
      <trkpt lat="42.79945" lon="2.52674">
        <ele>346.60000610352</ele>
        <time>2025-08-04T12:37:38.000Z</time>
      </trkpt>
      <trkpt lat="42.79944" lon="2.52664">
        <ele>346.60000610352</ele>
        <time>2025-08-04T12:37:39.000Z</time>
      </trkpt>
      <trkpt lat="42.7994" lon="2.52633">
        <ele>345.39999389648</ele>
        <time>2025-08-04T12:37:42.000Z</time>
      </trkpt>
      <trkpt lat="42.79939" lon="2.52623">
        <ele>344.79998779297</ele>
        <time>2025-08-04T12:37:43.000Z</time>
      </trkpt>
      <trkpt lat="42.7994" lon="2.52602">
        <ele>344.39999389648</ele>
        <time>2025-08-04T12:37:45.000Z</time>
      </trkpt>
      <trkpt lat="42.79944" lon="2.52582">
        <ele>343.79998779297</ele>
        <time>2025-08-04T12:37:47.000Z</time>
      </trkpt>
      <trkpt lat="42.79951" lon="2.52563">
        <ele>343.20001220703</ele>
        <time>2025-08-04T12:37:49.000Z</time>
      </trkpt>
      <trkpt lat="42.79953" lon="2.52553">
        <ele>342.79998779297</ele>
        <time>2025-08-04T12:37:50.000Z</time>
      </trkpt>
      <trkpt lat="42.79953" lon="2.52534">
        <ele>342</ele>
        <time>2025-08-04T12:37:52.000Z</time>
      </trkpt>
      <trkpt lat="42.79943" lon="2.52522">
        <ele>341.20001220703</ele>
        <time>2025-08-04T12:37:54.000Z</time>
      </trkpt>
      <trkpt lat="42.79937" lon="2.52518">
        <ele>340.60000610352</ele>
        <time>2025-08-04T12:37:55.000Z</time>
      </trkpt>
      <trkpt lat="42.79931" lon="2.52515">
        <ele>340.39999389648</ele>
        <time>2025-08-04T12:37:56.000Z</time>
      </trkpt>
      <trkpt lat="42.79914" lon="2.52511">
        <ele>339.79998779297</ele>
        <time>2025-08-04T12:37:58.000Z</time>
      </trkpt>
      <trkpt lat="42.79907" lon="2.5251">
        <ele>339.20001220703</ele>
        <time>2025-08-04T12:37:59.000Z</time>
      </trkpt>
      <trkpt lat="42.79875" lon="2.52501">
        <ele>338.20001220703</ele>
        <time>2025-08-04T12:38:03.000Z</time>
      </trkpt>
      <trkpt lat="42.79866" lon="2.52485">
        <ele>337.60000610352</ele>
        <time>2025-08-04T12:38:05.000Z</time>
      </trkpt>
      <trkpt lat="42.79864" lon="2.52475">
        <ele>337.20001220703</ele>
        <time>2025-08-04T12:38:06.000Z</time>
      </trkpt>
      <trkpt lat="42.79865" lon="2.52464">
        <ele>336.79998779297</ele>
        <time>2025-08-04T12:38:07.000Z</time>
      </trkpt>
      <trkpt lat="42.79866" lon="2.52454">
        <ele>336.60000610352</ele>
        <time>2025-08-04T12:38:08.000Z</time>
      </trkpt>
      <trkpt lat="42.79871" lon="2.52434">
        <ele>336</ele>
        <time>2025-08-04T12:38:10.000Z</time>
      </trkpt>
      <trkpt lat="42.7988" lon="2.52393">
        <ele>335</ele>
        <time>2025-08-04T12:38:14.000Z</time>
      </trkpt>
      <trkpt lat="42.79884" lon="2.52374">
        <ele>334.79998779297</ele>
        <time>2025-08-04T12:38:16.000Z</time>
      </trkpt>
      <trkpt lat="42.79881" lon="2.52354">
        <ele>334.39999389648</ele>
        <time>2025-08-04T12:38:18.000Z</time>
      </trkpt>
      <trkpt lat="42.79874" lon="2.52337">
        <ele>333.79998779297</ele>
        <time>2025-08-04T12:38:20.000Z</time>
      </trkpt>
      <trkpt lat="42.79869" lon="2.52329">
        <ele>333.60000610352</ele>
        <time>2025-08-04T12:38:21.000Z</time>
      </trkpt>
      <trkpt lat="42.79865" lon="2.52319">
        <ele>333.39999389648</ele>
        <time>2025-08-04T12:38:22.000Z</time>
      </trkpt>
      <trkpt lat="42.79859" lon="2.52299">
        <ele>332.79998779297</ele>
        <time>2025-08-04T12:38:24.000Z</time>
      </trkpt>
      <trkpt lat="42.79854" lon="2.52278">
        <ele>331.79998779297</ele>
        <time>2025-08-04T12:38:26.000Z</time>
      </trkpt>
      <trkpt lat="42.7985" lon="2.52268">
        <ele>331.39999389648</ele>
        <time>2025-08-04T12:38:28.000Z</time>
      </trkpt>
      <trkpt lat="42.79845" lon="2.52258">
        <ele>331</ele>
        <time>2025-08-04T12:38:29.000Z</time>
      </trkpt>
      <trkpt lat="42.7984" lon="2.52249">
        <ele>330.60000610352</ele>
        <time>2025-08-04T12:38:30.000Z</time>
      </trkpt>
      <trkpt lat="42.79822" lon="2.52209">
        <ele>329.60000610352</ele>
        <time>2025-08-04T12:38:34.000Z</time>
      </trkpt>
      <trkpt lat="42.79804" lon="2.52187">
        <ele>329</ele>
        <time>2025-08-04T12:38:37.000Z</time>
      </trkpt>
      <trkpt lat="42.798" lon="2.52178">
        <ele>328.79998779297</ele>
        <time>2025-08-04T12:38:38.000Z</time>
      </trkpt>
      <trkpt lat="42.79792" lon="2.52159">
        <ele>328.39999389648</ele>
        <time>2025-08-04T12:38:40.000Z</time>
      </trkpt>
      <trkpt lat="42.79779" lon="2.5212">
        <ele>327.39999389648</ele>
        <time>2025-08-04T12:38:44.000Z</time>
      </trkpt>
      <trkpt lat="42.79776" lon="2.5211">
        <ele>327</ele>
        <time>2025-08-04T12:38:45.000Z</time>
      </trkpt>
      <trkpt lat="42.79761" lon="2.52073">
        <ele>326</ele>
        <time>2025-08-04T12:38:49.000Z</time>
      </trkpt>
      <trkpt lat="42.79743" lon="2.52039">
        <ele>324.79998779297</ele>
        <time>2025-08-04T12:38:53.000Z</time>
      </trkpt>
      <trkpt lat="42.7973" lon="2.52026">
        <ele>324.20001220703</ele>
        <time>2025-08-04T12:38:55.000Z</time>
      </trkpt>
      <trkpt lat="42.79716" lon="2.52016">
        <ele>323.39999389648</ele>
        <time>2025-08-04T12:38:57.000Z</time>
      </trkpt>
      <trkpt lat="42.79704" lon="2.52001">
        <ele>322.79998779297</ele>
        <time>2025-08-04T12:38:59.000Z</time>
      </trkpt>
      <trkpt lat="42.797" lon="2.51992">
        <ele>322.39999389648</ele>
        <time>2025-08-04T12:39:00.000Z</time>
      </trkpt>
      <trkpt lat="42.79696" lon="2.51982">
        <ele>322.39999389648</ele>
        <time>2025-08-04T12:39:01.000Z</time>
      </trkpt>
      <trkpt lat="42.79693" lon="2.51972">
        <ele>321.60000610352</ele>
        <time>2025-08-04T12:39:02.000Z</time>
      </trkpt>
      <trkpt lat="42.79692" lon="2.51961">
        <ele>321.20001220703</ele>
        <time>2025-08-04T12:39:03.000Z</time>
      </trkpt>
      <trkpt lat="42.79691" lon="2.51928">
        <ele>320</ele>
        <time>2025-08-04T12:39:06.000Z</time>
      </trkpt>
      <trkpt lat="42.79694" lon="2.51895">
        <ele>318.79998779297</ele>
        <time>2025-08-04T12:39:09.000Z</time>
      </trkpt>
      <trkpt lat="42.79699" lon="2.51862">
        <ele>318.39999389648</ele>
        <time>2025-08-04T12:39:12.000Z</time>
      </trkpt>
      <trkpt lat="42.79704" lon="2.5184">
        <ele>317.79998779297</ele>
        <time>2025-08-04T12:39:14.000Z</time>
      </trkpt>
      <trkpt lat="42.79705" lon="2.5183">
        <ele>317.60000610352</ele>
        <time>2025-08-04T12:39:15.000Z</time>
      </trkpt>
      <trkpt lat="42.79706" lon="2.51807">
        <ele>317.39999389648</ele>
        <time>2025-08-04T12:39:17.000Z</time>
      </trkpt>
      <trkpt lat="42.79705" lon="2.51796">
        <ele>317</ele>
        <time>2025-08-04T12:39:18.000Z</time>
      </trkpt>
      <trkpt lat="42.79702" lon="2.51786">
        <ele>316.79998779297</ele>
        <time>2025-08-04T12:39:19.000Z</time>
      </trkpt>
      <trkpt lat="42.79699" lon="2.51776">
        <ele>316.60000610352</ele>
        <time>2025-08-04T12:39:20.000Z</time>
      </trkpt>
      <trkpt lat="42.79694" lon="2.51766">
        <ele>316.20001220703</ele>
        <time>2025-08-04T12:39:21.000Z</time>
      </trkpt>
      <trkpt lat="42.79685" lon="2.51748">
        <ele>315.79998779297</ele>
        <time>2025-08-04T12:39:23.000Z</time>
      </trkpt>
      <trkpt lat="42.79679" lon="2.51727">
        <ele>315</ele>
        <time>2025-08-04T12:39:25.000Z</time>
      </trkpt>
      <trkpt lat="42.79675" lon="2.51706">
        <ele>314.39999389648</ele>
        <time>2025-08-04T12:39:27.000Z</time>
      </trkpt>
      <trkpt lat="42.79674" lon="2.51683">
        <ele>314</ele>
        <time>2025-08-04T12:39:29.000Z</time>
      </trkpt>
      <trkpt lat="42.79674" lon="2.51672">
        <ele>313.60000610352</ele>
        <time>2025-08-04T12:39:30.000Z</time>
      </trkpt>
      <trkpt lat="42.79677" lon="2.51628">
        <ele>312.79998779297</ele>
        <time>2025-08-04T12:39:34.000Z</time>
      </trkpt>
      <trkpt lat="42.79678" lon="2.51618">
        <ele>312.60000610352</ele>
        <time>2025-08-04T12:39:35.000Z</time>
      </trkpt>
      <trkpt lat="42.79677" lon="2.51609">
        <ele>312.20001220703</ele>
        <time>2025-08-04T12:39:36.000Z</time>
      </trkpt>
      <trkpt lat="42.79675" lon="2.51599">
        <ele>311.79998779297</ele>
        <time>2025-08-04T12:39:37.000Z</time>
      </trkpt>
      <trkpt lat="42.79671" lon="2.51591">
        <ele>311.60000610352</ele>
        <time>2025-08-04T12:39:38.000Z</time>
      </trkpt>
      <trkpt lat="42.79666" lon="2.51584">
        <ele>311.39999389648</ele>
        <time>2025-08-04T12:39:39.000Z</time>
      </trkpt>
      <trkpt lat="42.79661" lon="2.51578">
        <ele>311.20001220703</ele>
        <time>2025-08-04T12:39:40.000Z</time>
      </trkpt>
      <trkpt lat="42.79656" lon="2.5157">
        <ele>311</ele>
        <time>2025-08-04T12:39:41.000Z</time>
      </trkpt>
      <trkpt lat="42.79651" lon="2.51552">
        <ele>310.39999389648</ele>
        <time>2025-08-04T12:39:43.000Z</time>
      </trkpt>
      <trkpt lat="42.79648" lon="2.51543">
        <ele>310</ele>
        <time>2025-08-04T12:39:44.000Z</time>
      </trkpt>
      <trkpt lat="42.79646" lon="2.51533">
        <ele>309.79998779297</ele>
        <time>2025-08-04T12:39:45.000Z</time>
      </trkpt>
      <trkpt lat="42.79646" lon="2.51512">
        <ele>309.20001220703</ele>
        <time>2025-08-04T12:39:47.000Z</time>
      </trkpt>
      <trkpt lat="42.79649" lon="2.51492">
        <ele>309</ele>
        <time>2025-08-04T12:39:49.000Z</time>
      </trkpt>
      <trkpt lat="42.79649" lon="2.51482">
        <ele>308.79998779297</ele>
        <time>2025-08-04T12:39:50.000Z</time>
      </trkpt>
      <trkpt lat="42.79647" lon="2.51472">
        <ele>308.60000610352</ele>
        <time>2025-08-04T12:39:51.000Z</time>
      </trkpt>
      <trkpt lat="42.79644" lon="2.51464">
        <ele>308.39999389648</ele>
        <time>2025-08-04T12:39:52.000Z</time>
      </trkpt>
      <trkpt lat="42.79633" lon="2.51452">
        <ele>307.79998779297</ele>
        <time>2025-08-04T12:39:54.000Z</time>
      </trkpt>
      <trkpt lat="42.79602" lon="2.51428">
        <ele>306.39999389648</ele>
        <time>2025-08-04T12:39:59.000Z</time>
      </trkpt>
      <trkpt lat="42.79591" lon="2.51416">
        <ele>306</ele>
        <time>2025-08-04T12:40:01.000Z</time>
      </trkpt>
      <trkpt lat="42.79588" lon="2.51408">
        <ele>306</ele>
        <time>2025-08-04T12:40:02.000Z</time>
      </trkpt>
      <trkpt lat="42.79583" lon="2.51381">
        <ele>305.39999389648</ele>
        <time>2025-08-04T12:40:05.000Z</time>
      </trkpt>
      <trkpt lat="42.79582" lon="2.51372">
        <ele>305</ele>
        <time>2025-08-04T12:40:06.000Z</time>
      </trkpt>
      <trkpt lat="42.79584" lon="2.51364">
        <ele>305</ele>
        <time>2025-08-04T12:40:07.000Z</time>
      </trkpt>
      <trkpt lat="42.79587" lon="2.51355">
        <ele>305</ele>
        <time>2025-08-04T12:40:08.000Z</time>
      </trkpt>
      <trkpt lat="42.79598" lon="2.51346">
        <ele>304.60000610352</ele>
        <time>2025-08-04T12:40:10.000Z</time>
      </trkpt>
      <trkpt lat="42.79605" lon="2.51346">
        <ele>304.39999389648</ele>
        <time>2025-08-04T12:40:11.000Z</time>
      </trkpt>
      <trkpt lat="42.79612" lon="2.51347">
        <ele>304.20001220703</ele>
        <time>2025-08-04T12:40:12.000Z</time>
      </trkpt>
      <trkpt lat="42.79619" lon="2.51349">
        <ele>303.79998779297</ele>
        <time>2025-08-04T12:40:13.000Z</time>
      </trkpt>
      <trkpt lat="42.79633" lon="2.51354">
        <ele>303.39999389648</ele>
        <time>2025-08-04T12:40:15.000Z</time>
      </trkpt>
      <trkpt lat="42.7964" lon="2.51355">
        <ele>303.20001220703</ele>
        <time>2025-08-04T12:40:16.000Z</time>
      </trkpt>
      <trkpt lat="42.79647" lon="2.51354">
        <ele>303</ele>
        <time>2025-08-04T12:40:17.000Z</time>
      </trkpt>
      <trkpt lat="42.79654" lon="2.51353">
        <ele>303</ele>
        <time>2025-08-04T12:40:18.000Z</time>
      </trkpt>
      <trkpt lat="42.79673" lon="2.51348">
        <ele>302.39999389648</ele>
        <time>2025-08-04T12:40:21.000Z</time>
      </trkpt>
      <trkpt lat="42.79677" lon="2.51345">
        <ele>302.20001220703</ele>
        <time>2025-08-04T12:40:22.000Z</time>
      </trkpt>
      <trkpt lat="42.7968" lon="2.51339">
        <ele>302</ele>
        <time>2025-08-04T12:40:23.000Z</time>
      </trkpt>
      <trkpt lat="42.79681" lon="2.51326">
        <ele>301.39999389648</ele>
        <time>2025-08-04T12:40:25.000Z</time>
      </trkpt>
      <trkpt lat="42.79678" lon="2.51317">
        <ele>301</ele>
        <time>2025-08-04T12:40:27.000Z</time>
      </trkpt>
      <trkpt lat="42.79675" lon="2.51313">
        <ele>301</ele>
        <time>2025-08-04T12:40:28.000Z</time>
      </trkpt>
      <trkpt lat="42.79663" lon="2.51305">
        <ele>300.20001220703</ele>
        <time>2025-08-04T12:40:31.000Z</time>
      </trkpt>
      <trkpt lat="42.79659" lon="2.51301">
        <ele>300</ele>
        <time>2025-08-04T12:40:32.000Z</time>
      </trkpt>
      <trkpt lat="42.79656" lon="2.51296">
        <ele>300</ele>
        <time>2025-08-04T12:40:33.000Z</time>
      </trkpt>
      <trkpt lat="42.7965" lon="2.51284">
        <ele>299.60000610352</ele>
        <time>2025-08-04T12:40:35.000Z</time>
      </trkpt>
      <trkpt lat="42.79645" lon="2.51271">
        <ele>299</ele>
        <time>2025-08-04T12:40:37.000Z</time>
      </trkpt>
      <trkpt lat="42.79642" lon="2.51266">
        <ele>298.79998779297</ele>
        <time>2025-08-04T12:40:38.000Z</time>
      </trkpt>
      <trkpt lat="42.79621" lon="2.51247">
        <ele>298.20001220703</ele>
        <time>2025-08-04T12:40:42.000Z</time>
      </trkpt>
      <trkpt lat="42.79617" lon="2.51243">
        <ele>297.79998779297</ele>
        <time>2025-08-04T12:40:43.000Z</time>
      </trkpt>
      <trkpt lat="42.79601" lon="2.51225">
        <ele>297.39999389648</ele>
        <time>2025-08-04T12:40:46.000Z</time>
      </trkpt>
      <trkpt lat="42.79596" lon="2.51216">
        <ele>297.20001220703</ele>
        <time>2025-08-04T12:40:47.000Z</time>
      </trkpt>
      <trkpt lat="42.79589" lon="2.51199">
        <ele>296.79998779297</ele>
        <time>2025-08-04T12:40:49.000Z</time>
      </trkpt>
      <trkpt lat="42.79586" lon="2.51189">
        <ele>296.39999389648</ele>
        <time>2025-08-04T12:40:50.000Z</time>
      </trkpt>
      <trkpt lat="42.79583" lon="2.5117">
        <ele>296</ele>
        <time>2025-08-04T12:40:52.000Z</time>
      </trkpt>
      <trkpt lat="42.79582" lon="2.51149">
        <ele>295.39999389648</ele>
        <time>2025-08-04T12:40:54.000Z</time>
      </trkpt>
      <trkpt lat="42.79584" lon="2.51128">
        <ele>295</ele>
        <time>2025-08-04T12:40:56.000Z</time>
      </trkpt>
      <trkpt lat="42.79588" lon="2.51108">
        <ele>294.39999389648</ele>
        <time>2025-08-04T12:40:58.000Z</time>
      </trkpt>
      <trkpt lat="42.79593" lon="2.51088">
        <ele>293.79998779297</ele>
        <time>2025-08-04T12:41:00.000Z</time>
      </trkpt>
      <trkpt lat="42.79602" lon="2.51072">
        <ele>293.39999389648</ele>
        <time>2025-08-04T12:41:02.000Z</time>
      </trkpt>
      <trkpt lat="42.79609" lon="2.51066">
        <ele>293.39999389648</ele>
        <time>2025-08-04T12:41:03.000Z</time>
      </trkpt>
      <trkpt lat="42.79616" lon="2.51065">
        <ele>293.20001220703</ele>
        <time>2025-08-04T12:41:04.000Z</time>
      </trkpt>
      <trkpt lat="42.7963" lon="2.51066">
        <ele>292.79998779297</ele>
        <time>2025-08-04T12:41:06.000Z</time>
      </trkpt>
      <trkpt lat="42.79644" lon="2.5107">
        <ele>292.60000610352</ele>
        <time>2025-08-04T12:41:08.000Z</time>
      </trkpt>
      <trkpt lat="42.79656" lon="2.51074">
        <ele>292.20001220703</ele>
        <time>2025-08-04T12:41:10.000Z</time>
      </trkpt>
      <trkpt lat="42.79669" lon="2.51077">
        <ele>292</ele>
        <time>2025-08-04T12:41:12.000Z</time>
      </trkpt>
      <trkpt lat="42.79675" lon="2.51075">
        <ele>291.79998779297</ele>
        <time>2025-08-04T12:41:13.000Z</time>
      </trkpt>
      <trkpt lat="42.7968" lon="2.51072">
        <ele>291.79998779297</ele>
        <time>2025-08-04T12:41:14.000Z</time>
      </trkpt>
      <trkpt lat="42.79687" lon="2.5106">
        <ele>291.60000610352</ele>
        <time>2025-08-04T12:41:16.000Z</time>
      </trkpt>
      <trkpt lat="42.79687" lon="2.51045">
        <ele>291.39999389648</ele>
        <time>2025-08-04T12:41:18.000Z</time>
      </trkpt>
      <trkpt lat="42.79686" lon="2.51038">
        <ele>291.39999389648</ele>
        <time>2025-08-04T12:41:19.000Z</time>
      </trkpt>
      <trkpt lat="42.7968" lon="2.51027">
        <ele>291.20001220703</ele>
        <time>2025-08-04T12:41:21.000Z</time>
      </trkpt>
      <trkpt lat="42.79668" lon="2.5101">
        <ele>291</ele>
        <time>2025-08-04T12:41:24.000Z</time>
      </trkpt>
      <trkpt lat="42.79656" lon="2.50994">
        <ele>290.79998779297</ele>
        <time>2025-08-04T12:41:27.000Z</time>
      </trkpt>
      <trkpt lat="42.7965" lon="2.5098">
        <ele>290.79998779297</ele>
        <time>2025-08-04T12:41:29.000Z</time>
      </trkpt>
      <trkpt lat="42.79647" lon="2.50965">
        <ele>290.60000610352</ele>
        <time>2025-08-04T12:41:31.000Z</time>
      </trkpt>
      <trkpt lat="42.79647" lon="2.50949">
        <ele>290.39999389648</ele>
        <time>2025-08-04T12:41:33.000Z</time>
      </trkpt>
      <trkpt lat="42.79646" lon="2.50933">
        <ele>290</ele>
        <time>2025-08-04T12:41:35.000Z</time>
      </trkpt>
      <trkpt lat="42.79643" lon="2.50891">
        <ele>289.39999389648</ele>
        <time>2025-08-04T12:41:40.000Z</time>
      </trkpt>
      <trkpt lat="42.79642" lon="2.50865">
        <ele>289</ele>
        <time>2025-08-04T12:41:43.000Z</time>
      </trkpt>
      <trkpt lat="42.79641" lon="2.50823">
        <ele>288.20001220703</ele>
        <time>2025-08-04T12:41:48.000Z</time>
      </trkpt>
      <trkpt lat="42.79642" lon="2.50806">
        <ele>287.79998779297</ele>
        <time>2025-08-04T12:41:50.000Z</time>
      </trkpt>
      <trkpt lat="42.79646" lon="2.50789">
        <ele>287.79998779297</ele>
        <time>2025-08-04T12:41:52.000Z</time>
      </trkpt>
      <trkpt lat="42.79654" lon="2.50776">
        <ele>287.60000610352</ele>
        <time>2025-08-04T12:41:54.000Z</time>
      </trkpt>
      <trkpt lat="42.79663" lon="2.50764">
        <ele>287.39999389648</ele>
        <time>2025-08-04T12:41:56.000Z</time>
      </trkpt>
      <trkpt lat="42.79666" lon="2.50757">
        <ele>287.39999389648</ele>
        <time>2025-08-04T12:41:57.000Z</time>
      </trkpt>
      <trkpt lat="42.79669" lon="2.5074">
        <ele>287.20001220703</ele>
        <time>2025-08-04T12:41:59.000Z</time>
      </trkpt>
      <trkpt lat="42.79666" lon="2.50724">
        <ele>286.79998779297</ele>
        <time>2025-08-04T12:42:01.000Z</time>
      </trkpt>
      <trkpt lat="42.79663" lon="2.50716">
        <ele>286.60000610352</ele>
        <time>2025-08-04T12:42:02.000Z</time>
      </trkpt>
      <trkpt lat="42.79651" lon="2.50686">
        <ele>285.79998779297</ele>
        <time>2025-08-04T12:42:06.000Z</time>
      </trkpt>
      <trkpt lat="42.79648" lon="2.50678">
        <ele>285.79998779297</ele>
        <time>2025-08-04T12:42:07.000Z</time>
      </trkpt>
      <trkpt lat="42.79645" lon="2.50669">
        <ele>285.60000610352</ele>
        <time>2025-08-04T12:42:08.000Z</time>
      </trkpt>
      <trkpt lat="42.79619" lon="2.50611">
        <ele>284.79998779297</ele>
        <time>2025-08-04T12:42:15.000Z</time>
      </trkpt>
      <trkpt lat="42.79617" lon="2.50602">
        <ele>284.39999389648</ele>
        <time>2025-08-04T12:42:16.000Z</time>
      </trkpt>
      <trkpt lat="42.79614" lon="2.50583">
        <ele>284.20001220703</ele>
        <time>2025-08-04T12:42:18.000Z</time>
      </trkpt>
      <trkpt lat="42.79615" lon="2.50573">
        <ele>284</ele>
        <time>2025-08-04T12:42:19.000Z</time>
      </trkpt>
      <trkpt lat="42.79616" lon="2.50564">
        <ele>283.79998779297</ele>
        <time>2025-08-04T12:42:20.000Z</time>
      </trkpt>
      <trkpt lat="42.79621" lon="2.50545">
        <ele>283.60000610352</ele>
        <time>2025-08-04T12:42:22.000Z</time>
      </trkpt>
      <trkpt lat="42.79625" lon="2.50537">
        <ele>283.39999389648</ele>
        <time>2025-08-04T12:42:23.000Z</time>
      </trkpt>
      <trkpt lat="42.7963" lon="2.50529">
        <ele>283.20001220703</ele>
        <time>2025-08-04T12:42:24.000Z</time>
      </trkpt>
      <trkpt lat="42.7964" lon="2.50515">
        <ele>282.79998779297</ele>
        <time>2025-08-04T12:42:26.000Z</time>
      </trkpt>
      <trkpt lat="42.79652" lon="2.50503">
        <ele>282.60000610352</ele>
        <time>2025-08-04T12:42:28.000Z</time>
      </trkpt>
      <trkpt lat="42.79662" lon="2.5049">
        <ele>282.39999389648</ele>
        <time>2025-08-04T12:42:30.000Z</time>
      </trkpt>
      <trkpt lat="42.79668" lon="2.50473">
        <ele>282.20001220703</ele>
        <time>2025-08-04T12:42:32.000Z</time>
      </trkpt>
      <trkpt lat="42.79666" lon="2.50457">
        <ele>282</ele>
        <time>2025-08-04T12:42:34.000Z</time>
      </trkpt>
      <trkpt lat="42.79663" lon="2.50448">
        <ele>281.79998779297</ele>
        <time>2025-08-04T12:42:35.000Z</time>
      </trkpt>
      <trkpt lat="42.79656" lon="2.50432">
        <ele>281.20001220703</ele>
        <time>2025-08-04T12:42:37.000Z</time>
      </trkpt>
      <trkpt lat="42.79638" lon="2.5039">
        <ele>280.20001220703</ele>
        <time>2025-08-04T12:42:42.000Z</time>
      </trkpt>
      <trkpt lat="42.79635" lon="2.50381">
        <ele>280</ele>
        <time>2025-08-04T12:42:43.000Z</time>
      </trkpt>
      <trkpt lat="42.79633" lon="2.50362">
        <ele>279.79998779297</ele>
        <time>2025-08-04T12:42:45.000Z</time>
      </trkpt>
      <trkpt lat="42.79632" lon="2.50352">
        <ele>279.79998779297</ele>
        <time>2025-08-04T12:42:46.000Z</time>
      </trkpt>
      <trkpt lat="42.79627" lon="2.50292">
        <ele>279.20001220703</ele>
        <time>2025-08-04T12:42:52.000Z</time>
      </trkpt>
      <trkpt lat="42.79628" lon="2.50281">
        <ele>279.20001220703</ele>
        <time>2025-08-04T12:42:53.000Z</time>
      </trkpt>
      <trkpt lat="42.7964" lon="2.50223">
        <ele>278.20001220703</ele>
        <time>2025-08-04T12:42:59.000Z</time>
      </trkpt>
      <trkpt lat="42.79643" lon="2.50214">
        <ele>277.79998779297</ele>
        <time>2025-08-04T12:43:00.000Z</time>
      </trkpt>
      <trkpt lat="42.79655" lon="2.50188">
        <ele>277</ele>
        <time>2025-08-04T12:43:03.000Z</time>
      </trkpt>
      <trkpt lat="42.79658" lon="2.50179">
        <ele>276.79998779297</ele>
        <time>2025-08-04T12:43:04.000Z</time>
      </trkpt>
      <trkpt lat="42.79659" lon="2.50169">
        <ele>276.39999389648</ele>
        <time>2025-08-04T12:43:05.000Z</time>
      </trkpt>
      <trkpt lat="42.79659" lon="2.5016">
        <ele>276.20001220703</ele>
        <time>2025-08-04T12:43:06.000Z</time>
      </trkpt>
      <trkpt lat="42.79653" lon="2.50122">
        <ele>275.60000610352</ele>
        <time>2025-08-04T12:43:10.000Z</time>
      </trkpt>
      <trkpt lat="42.79653" lon="2.50112">
        <ele>275.39999389648</ele>
        <time>2025-08-04T12:43:11.000Z</time>
      </trkpt>
      <trkpt lat="42.79655" lon="2.50094">
        <ele>274.79998779297</ele>
        <time>2025-08-04T12:43:13.000Z</time>
      </trkpt>
      <trkpt lat="42.79663" lon="2.50077">
        <ele>274.60000610352</ele>
        <time>2025-08-04T12:43:15.000Z</time>
      </trkpt>
      <trkpt lat="42.79668" lon="2.50069">
        <ele>274.60000610352</ele>
        <time>2025-08-04T12:43:16.000Z</time>
      </trkpt>
      <trkpt lat="42.79673" lon="2.50061">
        <ele>274.39999389648</ele>
        <time>2025-08-04T12:43:17.000Z</time>
      </trkpt>
      <trkpt lat="42.79683" lon="2.50045">
        <ele>274.20001220703</ele>
        <time>2025-08-04T12:43:19.000Z</time>
      </trkpt>
      <trkpt lat="42.79687" lon="2.50036">
        <ele>273.79998779297</ele>
        <time>2025-08-04T12:43:20.000Z</time>
      </trkpt>
      <trkpt lat="42.79695" lon="2.50018">
        <ele>272.79998779297</ele>
        <time>2025-08-04T12:43:22.000Z</time>
      </trkpt>
      <trkpt lat="42.79709" lon="2.49994">
        <ele>271.60000610352</ele>
        <time>2025-08-04T12:43:25.000Z</time>
      </trkpt>
      <trkpt lat="42.79713" lon="2.49986">
        <ele>271.20001220703</ele>
        <time>2025-08-04T12:43:26.000Z</time>
      </trkpt>
      <trkpt lat="42.79723" lon="2.49959">
        <ele>270</ele>
        <time>2025-08-04T12:43:29.000Z</time>
      </trkpt>
      <trkpt lat="42.7973" lon="2.49941">
        <ele>269.39999389648</ele>
        <time>2025-08-04T12:43:31.000Z</time>
      </trkpt>
      <trkpt lat="42.7974" lon="2.49927">
        <ele>269</ele>
        <time>2025-08-04T12:43:33.000Z</time>
      </trkpt>
      <trkpt lat="42.79767" lon="2.49903">
        <ele>267.79998779297</ele>
        <time>2025-08-04T12:43:37.000Z</time>
      </trkpt>
      <trkpt lat="42.79796" lon="2.49881">
        <ele>266.39999389648</ele>
        <time>2025-08-04T12:43:41.000Z</time>
      </trkpt>
      <trkpt lat="42.79822" lon="2.49866">
        <ele>265.39999389648</ele>
        <time>2025-08-04T12:43:45.000Z</time>
      </trkpt>
      <trkpt lat="42.79828" lon="2.49862">
        <ele>265.20001220703</ele>
        <time>2025-08-04T12:43:46.000Z</time>
      </trkpt>
      <trkpt lat="42.79838" lon="2.49855">
        <ele>264.39999389648</ele>
        <time>2025-08-04T12:43:48.000Z</time>
      </trkpt>
      <trkpt lat="42.79845" lon="2.49851">
        <ele>264</ele>
        <time>2025-08-04T12:43:50.000Z</time>
      </trkpt>
      <trkpt lat="42.79856" lon="2.49839">
        <ele>263.39999389648</ele>
        <time>2025-08-04T12:43:53.000Z</time>
      </trkpt>
      <trkpt lat="42.79864" lon="2.4983">
        <ele>262.39999389648</ele>
        <time>2025-08-04T12:43:55.000Z</time>
      </trkpt>
      <trkpt lat="42.79868" lon="2.49825">
        <ele>262.20001220703</ele>
        <time>2025-08-04T12:43:56.000Z</time>
      </trkpt>
      <trkpt lat="42.79892" lon="2.49799">
        <ele>261.39999389648</ele>
        <time>2025-08-04T12:44:01.000Z</time>
      </trkpt>
      <trkpt lat="42.79897" lon="2.49795">
        <ele>261.20001220703</ele>
        <time>2025-08-04T12:44:02.000Z</time>
      </trkpt>
      <trkpt lat="42.79918" lon="2.49779">
        <ele>260.20001220703</ele>
        <time>2025-08-04T12:44:06.000Z</time>
      </trkpt>
      <trkpt lat="42.79924" lon="2.49775">
        <ele>260</ele>
        <time>2025-08-04T12:44:07.000Z</time>
      </trkpt>
      <trkpt lat="42.79934" lon="2.49767">
        <ele>259.20001220703</ele>
        <time>2025-08-04T12:44:09.000Z</time>
      </trkpt>
      <trkpt lat="42.79945" lon="2.49759">
        <ele>258.60000610352</ele>
        <time>2025-08-04T12:44:11.000Z</time>
      </trkpt>
      <trkpt lat="42.79957" lon="2.49755">
        <ele>258.39999389648</ele>
        <time>2025-08-04T12:44:13.000Z</time>
      </trkpt>
      <trkpt lat="42.7997" lon="2.49756">
        <ele>258</ele>
        <time>2025-08-04T12:44:15.000Z</time>
      </trkpt>
      <trkpt lat="42.79982" lon="2.49759">
        <ele>257.39999389648</ele>
        <time>2025-08-04T12:44:17.000Z</time>
      </trkpt>
      <trkpt lat="42.79988" lon="2.49762">
        <ele>257.39999389648</ele>
        <time>2025-08-04T12:44:18.000Z</time>
      </trkpt>
      <trkpt lat="42.79993" lon="2.49766">
        <ele>257.20001220703</ele>
        <time>2025-08-04T12:44:19.000Z</time>
      </trkpt>
      <trkpt lat="42.80007" lon="2.49774">
        <ele>257.20001220703</ele>
        <time>2025-08-04T12:44:22.000Z</time>
      </trkpt>
      <trkpt lat="42.80034" lon="2.4979">
        <ele>258.20001220703</ele>
        <time>2025-08-04T12:44:29.000Z</time>
      </trkpt>
      <trkpt lat="42.80048" lon="2.49795">
        <ele>258.60000610352</ele>
        <time>2025-08-04T12:44:33.000Z</time>
      </trkpt>
      <trkpt lat="42.80052" lon="2.49795">
        <ele>258.79998779297</ele>
        <time>2025-08-04T12:44:34.000Z</time>
      </trkpt>
      <trkpt lat="42.80065" lon="2.49791">
        <ele>259.20001220703</ele>
        <time>2025-08-04T12:44:38.000Z</time>
      </trkpt>
      <trkpt lat="42.8008" lon="2.49786">
        <ele>259.60000610352</ele>
        <time>2025-08-04T12:44:42.000Z</time>
      </trkpt>
      <trkpt lat="42.80084" lon="2.49784">
        <ele>259.60000610352</ele>
        <time>2025-08-04T12:44:43.000Z</time>
      </trkpt>
      <trkpt lat="42.80122" lon="2.49786">
        <ele>260.39999389648</ele>
        <time>2025-08-04T12:44:51.000Z</time>
      </trkpt>
      <trkpt lat="42.80155" lon="2.4979">
        <ele>260.39999389648</ele>
        <time>2025-08-04T12:44:58.000Z</time>
      </trkpt>
      <trkpt lat="42.80169" lon="2.49794">
        <ele>260.39999389648</ele>
        <time>2025-08-04T12:45:01.000Z</time>
      </trkpt>
      <trkpt lat="42.80188" lon="2.49801">
        <ele>260</ele>
        <time>2025-08-04T12:45:05.000Z</time>
      </trkpt>
      <trkpt lat="42.80206" lon="2.4981">
        <ele>260</ele>
        <time>2025-08-04T12:45:09.000Z</time>
      </trkpt>
      <trkpt lat="42.8021" lon="2.49812">
        <ele>260</ele>
        <time>2025-08-04T12:45:10.000Z</time>
      </trkpt>
      <trkpt lat="42.80214" lon="2.49814">
        <ele>260</ele>
        <time>2025-08-04T12:45:11.000Z</time>
      </trkpt>
      <trkpt lat="42.80223" lon="2.49818">
        <ele>260.20001220703</ele>
        <time>2025-08-04T12:45:13.000Z</time>
      </trkpt>
      <trkpt lat="42.80231" lon="2.49823">
        <ele>260.20001220703</ele>
        <time>2025-08-04T12:45:15.000Z</time>
      </trkpt>
      <trkpt lat="42.80236" lon="2.49826">
        <ele>260.20001220703</ele>
        <time>2025-08-04T12:45:16.000Z</time>
      </trkpt>
      <trkpt lat="42.80239" lon="2.49829">
        <ele>260.39999389648</ele>
        <time>2025-08-04T12:45:17.000Z</time>
      </trkpt>
      <trkpt lat="42.80254" lon="2.49843">
        <ele>261.39999389648</ele>
        <time>2025-08-04T12:45:22.000Z</time>
      </trkpt>
      <trkpt lat="42.80273" lon="2.49858">
        <ele>262.60000610352</ele>
        <time>2025-08-04T12:45:28.000Z</time>
      </trkpt>
      <trkpt lat="42.80278" lon="2.49863">
        <ele>263</ele>
        <time>2025-08-04T12:45:30.000Z</time>
      </trkpt>
      <trkpt lat="42.80289" lon="2.49873">
        <ele>263.60000610352</ele>
        <time>2025-08-04T12:45:35.000Z</time>
      </trkpt>
      <trkpt lat="42.80298" lon="2.4988">
        <ele>265</ele>
        <time>2025-08-04T12:45:39.000Z</time>
      </trkpt>
      <trkpt lat="42.80301" lon="2.49882">
        <ele>265</ele>
        <time>2025-08-04T12:45:40.000Z</time>
      </trkpt>
      <trkpt lat="42.80316" lon="2.49895">
        <ele>266</ele>
        <time>2025-08-04T12:45:47.000Z</time>
      </trkpt>
      <trkpt lat="42.80318" lon="2.49897">
        <ele>266.20001220703</ele>
        <time>2025-08-04T12:45:48.000Z</time>
      </trkpt>
      <trkpt lat="42.80328" lon="2.49907">
        <ele>267</ele>
        <time>2025-08-04T12:45:53.000Z</time>
      </trkpt>
      <trkpt lat="42.8033" lon="2.49909">
        <ele>267</ele>
        <time>2025-08-04T12:45:54.000Z</time>
      </trkpt>
      <trkpt lat="42.80333" lon="2.49914">
        <ele>267.20001220703</ele>
        <time>2025-08-04T12:45:56.000Z</time>
      </trkpt>
      <trkpt lat="42.80342" lon="2.49928">
        <ele>268.60000610352</ele>
        <time>2025-08-04T12:46:01.000Z</time>
      </trkpt>
      <trkpt lat="42.80344" lon="2.49931">
        <ele>268.79998779297</ele>
        <time>2025-08-04T12:46:02.000Z</time>
      </trkpt>
      <trkpt lat="42.80351" lon="2.49947">
        <ele>269.60000610352</ele>
        <time>2025-08-04T12:46:07.000Z</time>
      </trkpt>
      <trkpt lat="42.80361" lon="2.49969">
        <ele>270.20001220703</ele>
        <time>2025-08-04T12:46:14.000Z</time>
      </trkpt>
      <trkpt lat="42.80368" lon="2.49983">
        <ele>270.79998779297</ele>
        <time>2025-08-04T12:46:19.000Z</time>
      </trkpt>
      <trkpt lat="42.80372" lon="2.49992">
        <ele>271</ele>
        <time>2025-08-04T12:46:22.000Z</time>
      </trkpt>
      <trkpt lat="42.8038" lon="2.50014">
        <ele>271.39999389648</ele>
        <time>2025-08-04T12:46:29.000Z</time>
      </trkpt>
      <trkpt lat="42.80385" lon="2.50028">
        <ele>271.39999389648</ele>
        <time>2025-08-04T12:46:33.000Z</time>
      </trkpt>
      <trkpt lat="42.80389" lon="2.50042">
        <ele>271.60000610352</ele>
        <time>2025-08-04T12:46:37.000Z</time>
      </trkpt>
      <trkpt lat="42.80395" lon="2.50059">
        <ele>271.79998779297</ele>
        <time>2025-08-04T12:46:42.000Z</time>
      </trkpt>
      <trkpt lat="42.80399" lon="2.50069">
        <ele>272.20001220703</ele>
        <time>2025-08-04T12:46:45.000Z</time>
      </trkpt>
      <trkpt lat="42.80409" lon="2.50099">
        <ele>272.60000610352</ele>
        <time>2025-08-04T12:46:54.000Z</time>
      </trkpt>
      <trkpt lat="42.80423" lon="2.50137">
        <ele>272.39999389648</ele>
        <time>2025-08-04T12:47:04.000Z</time>
      </trkpt>
      <trkpt lat="42.80432" lon="2.50157">
        <ele>272.79998779297</ele>
        <time>2025-08-04T12:47:10.000Z</time>
      </trkpt>
      <trkpt lat="42.80436" lon="2.50164">
        <ele>272.79998779297</ele>
        <time>2025-08-04T12:47:12.000Z</time>
      </trkpt>
      <trkpt lat="42.80441" lon="2.50171">
        <ele>273</ele>
        <time>2025-08-04T12:47:14.000Z</time>
      </trkpt>
      <trkpt lat="42.80445" lon="2.50178">
        <ele>273.39999389648</ele>
        <time>2025-08-04T12:47:16.000Z</time>
      </trkpt>
      <trkpt lat="42.80459" lon="2.50195">
        <ele>273.60000610352</ele>
        <time>2025-08-04T12:47:22.000Z</time>
      </trkpt>
      <trkpt lat="42.80484" lon="2.50209">
        <ele>273.20001220703</ele>
        <time>2025-08-04T12:47:29.000Z</time>
      </trkpt>
      <trkpt lat="42.80518" lon="2.50223">
        <ele>271.60000610352</ele>
        <time>2025-08-04T12:47:36.000Z</time>
      </trkpt>
      <trkpt lat="42.80552" lon="2.50238">
        <ele>270.60000610352</ele>
        <time>2025-08-04T12:47:43.000Z</time>
      </trkpt>
      <trkpt lat="42.80557" lon="2.5024">
        <ele>270.20001220703</ele>
        <time>2025-08-04T12:47:44.000Z</time>
      </trkpt>
      <trkpt lat="42.80577" lon="2.50249">
        <ele>269.39999389648</ele>
        <time>2025-08-04T12:47:49.000Z</time>
      </trkpt>
      <trkpt lat="42.80584" lon="2.50252">
        <ele>269.20001220703</ele>
        <time>2025-08-04T12:47:51.000Z</time>
      </trkpt>
      <trkpt lat="42.80592" lon="2.50256">
        <ele>269</ele>
        <time>2025-08-04T12:47:54.000Z</time>
      </trkpt>
      <trkpt lat="42.80605" lon="2.50262">
        <ele>268.79998779297</ele>
        <time>2025-08-04T12:47:59.000Z</time>
      </trkpt>
      <trkpt lat="42.80623" lon="2.50262">
        <ele>268.39999389648</ele>
        <time>2025-08-04T12:48:06.000Z</time>
      </trkpt>
      <trkpt lat="42.80626" lon="2.50262">
        <ele>268.39999389648</ele>
        <time>2025-08-04T12:48:07.000Z</time>
      </trkpt>
      <trkpt lat="42.80655" lon="2.50255">
        <ele>267.39999389648</ele>
        <time>2025-08-04T12:48:16.000Z</time>
      </trkpt>
      <trkpt lat="42.80658" lon="2.50253">
        <ele>267.20001220703</ele>
        <time>2025-08-04T12:48:17.000Z</time>
      </trkpt>
      <trkpt lat="42.80681" lon="2.50247">
        <ele>266.79998779297</ele>
        <time>2025-08-04T12:48:22.000Z</time>
      </trkpt>
      <trkpt lat="42.8069" lon="2.50244">
        <ele>266.39999389648</ele>
        <time>2025-08-04T12:48:24.000Z</time>
      </trkpt>
      <trkpt lat="42.80695" lon="2.50244">
        <ele>266.39999389648</ele>
        <time>2025-08-04T12:48:25.000Z</time>
      </trkpt>
      <trkpt lat="42.80705" lon="2.50244">
        <ele>266</ele>
        <time>2025-08-04T12:48:27.000Z</time>
      </trkpt>
      <trkpt lat="42.80714" lon="2.50244">
        <ele>265.39999389648</ele>
        <time>2025-08-04T12:48:29.000Z</time>
      </trkpt>
      <trkpt lat="42.80727" lon="2.50243">
        <ele>265</ele>
        <time>2025-08-04T12:48:32.000Z</time>
      </trkpt>
      <trkpt lat="42.80749" lon="2.50242">
        <ele>265</ele>
        <time>2025-08-04T12:48:38.000Z</time>
      </trkpt>
      <trkpt lat="42.80763" lon="2.50241">
        <ele>265.20001220703</ele>
        <time>2025-08-04T12:48:43.000Z</time>
      </trkpt>
      <trkpt lat="42.80781" lon="2.50241">
        <ele>265.20001220703</ele>
        <time>2025-08-04T12:48:50.000Z</time>
      </trkpt>
      <trkpt lat="42.80807" lon="2.5024">
        <ele>265.39999389648</ele>
        <time>2025-08-04T12:48:59.000Z</time>
      </trkpt>
      <trkpt lat="42.80829" lon="2.50238">
        <ele>265.39999389648</ele>
        <time>2025-08-04T12:49:06.000Z</time>
      </trkpt>
      <trkpt lat="42.80856" lon="2.50236">
        <ele>265.60000610352</ele>
        <time>2025-08-04T12:49:15.000Z</time>
      </trkpt>
      <trkpt lat="42.80872" lon="2.50239">
        <ele>265.79998779297</ele>
        <time>2025-08-04T12:49:21.000Z</time>
      </trkpt>
      <trkpt lat="42.80872" lon="2.50239">
        <ele>265.79998779297</ele>
        <time>2025-08-04T12:49:23.000Z</time>
      </trkpt>
      <trkpt lat="42.80878" lon="2.50239">
        <ele>265.79998779297</ele>
        <time>2025-08-04T12:49:34.000Z</time>
      </trkpt>
      <trkpt lat="42.80895" lon="2.50237">
        <ele>265.39999389648</ele>
        <time>2025-08-04T12:49:42.000Z</time>
      </trkpt>
      <trkpt lat="42.80897" lon="2.50236">
        <ele>265.20001220703</ele>
        <time>2025-08-04T12:49:47.000Z</time>
      </trkpt>
      <trkpt lat="42.80905" lon="2.50244">
        <ele>265.60000610352</ele>
        <time>2025-08-04T12:54:43.000Z</time>
      </trkpt>
      <trkpt lat="42.80915" lon="2.50249">
        <ele>265.60000610352</ele>
        <time>2025-08-04T12:54:48.000Z</time>
      </trkpt>
      <trkpt lat="42.80929" lon="2.50259">
        <ele>265.39999389648</ele>
        <time>2025-08-04T12:54:54.000Z</time>
      </trkpt>
      <trkpt lat="42.80932" lon="2.5026">
        <ele>265.20001220703</ele>
        <time>2025-08-04T12:54:55.000Z</time>
      </trkpt>
      <trkpt lat="42.80938" lon="2.50261">
        <ele>265</ele>
        <time>2025-08-04T12:54:57.000Z</time>
      </trkpt>
      <trkpt lat="42.80947" lon="2.50258">
        <ele>264.60000610352</ele>
        <time>2025-08-04T12:54:59.000Z</time>
      </trkpt>
      <trkpt lat="42.80973" lon="2.5025">
        <ele>264.20001220703</ele>
        <time>2025-08-04T12:55:05.000Z</time>
      </trkpt>
      <trkpt lat="42.80976" lon="2.50248">
        <ele>264.20001220703</ele>
        <time>2025-08-04T12:55:06.000Z</time>
      </trkpt>
      <trkpt lat="42.81001" lon="2.50241">
        <ele>264</ele>
        <time>2025-08-04T12:55:12.000Z</time>
      </trkpt>
      <trkpt lat="42.81016" lon="2.50241">
        <ele>264.20001220703</ele>
        <time>2025-08-04T12:55:17.000Z</time>
      </trkpt>
      <trkpt lat="42.81031" lon="2.50232">
        <ele>264.79998779297</ele>
        <time>2025-08-04T12:55:23.000Z</time>
      </trkpt>
      <trkpt lat="42.81046" lon="2.50217">
        <ele>265</ele>
        <time>2025-08-04T12:55:27.000Z</time>
      </trkpt>
      <trkpt lat="42.8105" lon="2.50213">
        <ele>265</ele>
        <time>2025-08-04T12:55:28.000Z</time>
      </trkpt>
      <trkpt lat="42.81058" lon="2.50207">
        <ele>264.39999389648</ele>
        <time>2025-08-04T12:55:30.000Z</time>
      </trkpt>
      <trkpt lat="42.81069" lon="2.50198">
        <ele>263.79998779297</ele>
        <time>2025-08-04T12:55:33.000Z</time>
      </trkpt>
      <trkpt lat="42.81087" lon="2.50188">
        <ele>263.79998779297</ele>
        <time>2025-08-04T12:55:39.000Z</time>
      </trkpt>
      <trkpt lat="42.81105" lon="2.50177">
        <ele>264.20001220703</ele>
        <time>2025-08-04T12:55:46.000Z</time>
      </trkpt>
      <trkpt lat="42.81114" lon="2.50177">
        <ele>264.79998779297</ele>
        <time>2025-08-04T12:55:50.000Z</time>
      </trkpt>
      <trkpt lat="42.81115" lon="2.50178">
        <ele>265</ele>
        <time>2025-08-04T12:55:51.000Z</time>
      </trkpt>
      <trkpt lat="42.81116" lon="2.5018">
        <ele>265.20001220703</ele>
        <time>2025-08-04T12:55:52.000Z</time>
      </trkpt>
      <trkpt lat="42.81117" lon="2.50182">
        <ele>265.20001220703</ele>
        <time>2025-08-04T12:55:53.000Z</time>
      </trkpt>
      <trkpt lat="42.81119" lon="2.50184">
        <ele>265.39999389648</ele>
        <time>2025-08-04T12:55:54.000Z</time>
      </trkpt>
      <trkpt lat="42.8112" lon="2.50187">
        <ele>265.60000610352</ele>
        <time>2025-08-04T12:55:55.000Z</time>
      </trkpt>
      <trkpt lat="42.81135" lon="2.50202">
        <ele>266</ele>
        <time>2025-08-04T12:56:02.000Z</time>
      </trkpt>
      <trkpt lat="42.81145" lon="2.50209">
        <ele>266.20001220703</ele>
        <time>2025-08-04T12:56:07.000Z</time>
      </trkpt>
      <trkpt lat="42.81147" lon="2.50211">
        <ele>266.39999389648</ele>
        <time>2025-08-04T12:56:08.000Z</time>
      </trkpt>
      <trkpt lat="42.81156" lon="2.50219">
        <ele>266.60000610352</ele>
        <time>2025-08-04T12:56:12.000Z</time>
      </trkpt>
      <trkpt lat="42.81164" lon="2.5023">
        <ele>266.79998779297</ele>
        <time>2025-08-04T12:56:16.000Z</time>
      </trkpt>
      <trkpt lat="42.81164" lon="2.50251">
        <ele>267</ele>
        <time>2025-08-04T12:56:22.000Z</time>
      </trkpt>
      <trkpt lat="42.81162" lon="2.50275">
        <ele>267.60000610352</ele>
        <time>2025-08-04T12:56:29.000Z</time>
      </trkpt>
      <trkpt lat="42.81164" lon="2.50281">
        <ele>267.79998779297</ele>
        <time>2025-08-04T12:56:31.000Z</time>
      </trkpt>
      <trkpt lat="42.81163" lon="2.50283">
        <ele>267.79998779297</ele>
        <time>2025-08-04T12:56:32.000Z</time>
      </trkpt>
      <trkpt lat="42.81154" lon="2.50306">
        <ele>267.79998779297</ele>
        <time>2025-08-04T12:56:40.000Z</time>
      </trkpt>
      <trkpt lat="42.81152" lon="2.50314">
        <ele>267.79998779297</ele>
        <time>2025-08-04T12:56:42.000Z</time>
      </trkpt>
      <trkpt lat="42.81153" lon="2.50319">
        <ele>267.79998779297</ele>
        <time>2025-08-04T12:56:44.000Z</time>
      </trkpt>
      <trkpt lat="42.81155" lon="2.50327">
        <ele>268.20001220703</ele>
        <time>2025-08-04T12:56:47.000Z</time>
      </trkpt>
      <trkpt lat="42.81156" lon="2.5033">
        <ele>268.60000610352</ele>
        <time>2025-08-04T12:56:49.000Z</time>
      </trkpt>
      <trkpt lat="42.81156" lon="2.50336">
        <ele>269.60000610352</ele>
        <time>2025-08-04T12:56:53.000Z</time>
      </trkpt>
      <trkpt lat="42.81156" lon="2.50338">
        <ele>269.79998779297</ele>
        <time>2025-08-04T12:56:54.000Z</time>
      </trkpt>
      <trkpt lat="42.81151" lon="2.50346">
        <ele>270.20001220703</ele>
        <time>2025-08-04T12:56:58.000Z</time>
      </trkpt>
      <trkpt lat="42.81149" lon="2.50345">
        <ele>270.39999389648</ele>
        <time>2025-08-04T12:56:59.000Z</time>
      </trkpt>
      <trkpt lat="42.81149" lon="2.50344">
        <ele>270.39999389648</ele>
        <time>2025-08-04T12:57:03.000Z</time>
      </trkpt>
      <trkpt lat="42.81147" lon="2.50343">
        <ele>273.20001220703</ele>
        <time>2025-08-04T14:12:37.000Z</time>
      </trkpt>
      <trkpt lat="42.81147" lon="2.50343">
        <ele>273.20001220703</ele>
        <time>2025-08-04T14:12:38.000Z</time>
      </trkpt>
      <trkpt lat="42.81139" lon="2.50356">
        <ele>273.39999389648</ele>
        <time>2025-08-04T14:13:06.000Z</time>
      </trkpt>
      <trkpt lat="42.81133" lon="2.50362">
        <ele>273.39999389648</ele>
        <time>2025-08-04T14:13:09.000Z</time>
      </trkpt>
      <trkpt lat="42.81131" lon="2.50365">
        <ele>273.39999389648</ele>
        <time>2025-08-04T14:13:12.000Z</time>
      </trkpt>
      <trkpt lat="42.81132" lon="2.50368">
        <ele>273.39999389648</ele>
        <time>2025-08-04T14:13:13.000Z</time>
      </trkpt>
      <trkpt lat="42.81134" lon="2.50382">
        <ele>273.60000610352</ele>
        <time>2025-08-04T14:13:19.000Z</time>
      </trkpt>
      <trkpt lat="42.81134" lon="2.50384">
        <ele>273.79998779297</ele>
        <time>2025-08-04T14:13:20.000Z</time>
      </trkpt>
      <trkpt lat="42.81136" lon="2.50401">
        <ele>274.20001220703</ele>
        <time>2025-08-04T14:13:25.000Z</time>
      </trkpt>
      <trkpt lat="42.81139" lon="2.50423">
        <ele>274.60000610352</ele>
        <time>2025-08-04T14:13:30.000Z</time>
      </trkpt>
      <trkpt lat="42.81139" lon="2.50427">
        <ele>274.79998779297</ele>
        <time>2025-08-04T14:13:31.000Z</time>
      </trkpt>
      <trkpt lat="42.81141" lon="2.50444">
        <ele>275</ele>
        <time>2025-08-04T14:13:35.000Z</time>
      </trkpt>
      <trkpt lat="42.81146" lon="2.50474">
        <ele>275.20001220703</ele>
        <time>2025-08-04T14:13:44.000Z</time>
      </trkpt>
      <trkpt lat="42.81147" lon="2.50478">
        <ele>275.20001220703</ele>
        <time>2025-08-04T14:13:50.000Z</time>
      </trkpt>
      <trkpt lat="42.81146" lon="2.50472">
        <ele>274.20001220703</ele>
        <time>2025-08-04T14:17:01.000Z</time>
      </trkpt>
      <trkpt lat="42.81146" lon="2.50468">
        <ele>274</ele>
        <time>2025-08-04T14:17:03.000Z</time>
      </trkpt>
      <trkpt lat="42.81142" lon="2.50452">
        <ele>274</ele>
        <time>2025-08-04T14:17:11.000Z</time>
      </trkpt>
      <trkpt lat="42.8114" lon="2.50437">
        <ele>274</ele>
        <time>2025-08-04T14:17:16.000Z</time>
      </trkpt>
      <trkpt lat="42.81137" lon="2.50416">
        <ele>274</ele>
        <time>2025-08-04T14:17:22.000Z</time>
      </trkpt>
      <trkpt lat="42.81132" lon="2.50391">
        <ele>273.79998779297</ele>
        <time>2025-08-04T14:17:28.000Z</time>
      </trkpt>
      <trkpt lat="42.81131" lon="2.50383">
        <ele>273.79998779297</ele>
        <time>2025-08-04T14:17:30.000Z</time>
      </trkpt>
      <trkpt lat="42.81129" lon="2.50372">
        <ele>273.79998779297</ele>
        <time>2025-08-04T14:17:33.000Z</time>
      </trkpt>
      <trkpt lat="42.81129" lon="2.50366">
        <ele>273.60000610352</ele>
        <time>2025-08-04T14:17:35.000Z</time>
      </trkpt>
      <trkpt lat="42.81129" lon="2.50363">
        <ele>273.60000610352</ele>
        <time>2025-08-04T14:17:39.000Z</time>
      </trkpt>
      <trkpt lat="42.81132" lon="2.5035">
        <ele>274.60000610352</ele>
        <time>2025-08-04T14:19:17.000Z</time>
      </trkpt>
      <trkpt lat="42.81136" lon="2.50342">
        <ele>274.39999389648</ele>
        <time>2025-08-04T14:19:20.000Z</time>
      </trkpt>
      <trkpt lat="42.8115" lon="2.50321">
        <ele>273.79998779297</ele>
        <time>2025-08-04T14:19:26.000Z</time>
      </trkpt>
      <trkpt lat="42.81161" lon="2.50317">
        <ele>273.60000610352</ele>
        <time>2025-08-04T14:19:31.000Z</time>
      </trkpt>
      <trkpt lat="42.81175" lon="2.50316">
        <ele>273.39999389648</ele>
        <time>2025-08-04T14:19:37.000Z</time>
      </trkpt>
      <trkpt lat="42.81196" lon="2.50316">
        <ele>273.60000610352</ele>
        <time>2025-08-04T14:19:44.000Z</time>
      </trkpt>
      <trkpt lat="42.8122" lon="2.50315">
        <ele>274</ele>
        <time>2025-08-04T14:19:51.000Z</time>
      </trkpt>
      <trkpt lat="42.81222" lon="2.50312">
        <ele>274</ele>
        <time>2025-08-04T14:19:52.000Z</time>
      </trkpt>
      <trkpt lat="42.81226" lon="2.50305">
        <ele>274.20001220703</ele>
        <time>2025-08-04T14:19:54.000Z</time>
      </trkpt>
      <trkpt lat="42.81232" lon="2.5029">
        <ele>275</ele>
        <time>2025-08-04T14:19:58.000Z</time>
      </trkpt>
      <trkpt lat="42.81241" lon="2.50264">
        <ele>275</ele>
        <time>2025-08-04T14:20:04.000Z</time>
      </trkpt>
      <trkpt lat="42.81244" lon="2.50256">
        <ele>274.79998779297</ele>
        <time>2025-08-04T14:20:07.000Z</time>
      </trkpt>
      <trkpt lat="42.81245" lon="2.50252">
        <ele>274.79998779297</ele>
        <time>2025-08-04T14:20:08.000Z</time>
      </trkpt>
      <trkpt lat="42.81253" lon="2.5023">
        <ele>275</ele>
        <time>2025-08-04T14:20:14.000Z</time>
      </trkpt>
      <trkpt lat="42.81266" lon="2.50221">
        <ele>275</ele>
        <time>2025-08-04T14:20:19.000Z</time>
      </trkpt>
      <trkpt lat="42.81288" lon="2.5023">
        <ele>275.39999389648</ele>
        <time>2025-08-04T14:20:26.000Z</time>
      </trkpt>
      <trkpt lat="42.81305" lon="2.50241">
        <ele>276</ele>
        <time>2025-08-04T14:20:33.000Z</time>
      </trkpt>
      <trkpt lat="42.81308" lon="2.50242">
        <ele>276</ele>
        <time>2025-08-04T14:20:34.000Z</time>
      </trkpt>
      <trkpt lat="42.81321" lon="2.50241">
        <ele>276.39999389648</ele>
        <time>2025-08-04T14:20:39.000Z</time>
      </trkpt>
      <trkpt lat="42.81332" lon="2.50232">
        <ele>276.60000610352</ele>
        <time>2025-08-04T14:20:44.000Z</time>
      </trkpt>
      <trkpt lat="42.81342" lon="2.50217">
        <ele>276.79998779297</ele>
        <time>2025-08-04T14:20:50.000Z</time>
      </trkpt>
      <trkpt lat="42.81346" lon="2.50212">
        <ele>277</ele>
        <time>2025-08-04T14:20:52.000Z</time>
      </trkpt>
      <trkpt lat="42.81357" lon="2.50199">
        <ele>277.39999389648</ele>
        <time>2025-08-04T14:20:58.000Z</time>
      </trkpt>
      <trkpt lat="42.81373" lon="2.50195">
        <ele>277.60000610352</ele>
        <time>2025-08-04T14:21:05.000Z</time>
      </trkpt>
      <trkpt lat="42.81391" lon="2.50188">
        <ele>278</ele>
        <time>2025-08-04T14:21:12.000Z</time>
      </trkpt>
      <trkpt lat="42.81404" lon="2.50165">
        <ele>277.60000610352</ele>
        <time>2025-08-04T14:21:17.000Z</time>
      </trkpt>
      <trkpt lat="42.81408" lon="2.50161">
        <ele>277.79998779297</ele>
        <time>2025-08-04T14:21:18.000Z</time>
      </trkpt>
      <trkpt lat="42.81434" lon="2.50138">
        <ele>277</ele>
        <time>2025-08-04T14:21:24.000Z</time>
      </trkpt>
      <trkpt lat="42.81471" lon="2.50114">
        <ele>276.39999389648</ele>
        <time>2025-08-04T14:21:32.000Z</time>
      </trkpt>
      <trkpt lat="42.81505" lon="2.50093">
        <ele>276.39999389648</ele>
        <time>2025-08-04T14:21:40.000Z</time>
      </trkpt>
      <trkpt lat="42.81536" lon="2.50071">
        <ele>276.39999389648</ele>
        <time>2025-08-04T14:21:48.000Z</time>
      </trkpt>
      <trkpt lat="42.81573" lon="2.50043">
        <ele>276.60000610352</ele>
        <time>2025-08-04T14:21:57.000Z</time>
      </trkpt>
      <trkpt lat="42.81603" lon="2.50027">
        <ele>276.39999389648</ele>
        <time>2025-08-04T14:22:04.000Z</time>
      </trkpt>
      <trkpt lat="42.81639" lon="2.50008">
        <ele>276.60000610352</ele>
        <time>2025-08-04T14:22:13.000Z</time>
      </trkpt>
      <trkpt lat="42.81668" lon="2.49984">
        <ele>276.79998779297</ele>
        <time>2025-08-04T14:22:21.000Z</time>
      </trkpt>
      <trkpt lat="42.81699" lon="2.49957">
        <ele>277</ele>
        <time>2025-08-04T14:22:30.000Z</time>
      </trkpt>
      <trkpt lat="42.81725" lon="2.49934">
        <ele>277.39999389648</ele>
        <time>2025-08-04T14:22:39.000Z</time>
      </trkpt>
      <trkpt lat="42.81747" lon="2.49912">
        <ele>278.20001220703</ele>
        <time>2025-08-04T14:22:47.000Z</time>
      </trkpt>
      <trkpt lat="42.81767" lon="2.49891">
        <ele>278.39999389648</ele>
        <time>2025-08-04T14:22:55.000Z</time>
      </trkpt>
      <trkpt lat="42.81779" lon="2.49878">
        <ele>278.39999389648</ele>
        <time>2025-08-04T14:23:00.000Z</time>
      </trkpt>
      <trkpt lat="42.81789" lon="2.4987">
        <ele>278.79998779297</ele>
        <time>2025-08-04T14:23:04.000Z</time>
      </trkpt>
      <trkpt lat="42.81809" lon="2.49851">
        <ele>279.20001220703</ele>
        <time>2025-08-04T14:23:13.000Z</time>
      </trkpt>
      <trkpt lat="42.81813" lon="2.49847">
        <ele>279.39999389648</ele>
        <time>2025-08-04T14:23:15.000Z</time>
      </trkpt>
      <trkpt lat="42.81827" lon="2.49837">
        <ele>279.79998779297</ele>
        <time>2025-08-04T14:23:21.000Z</time>
      </trkpt>
      <trkpt lat="42.81838" lon="2.4983">
        <ele>280.39999389648</ele>
        <time>2025-08-04T14:23:26.000Z</time>
      </trkpt>
      <trkpt lat="42.8184" lon="2.49829">
        <ele>280.60000610352</ele>
        <time>2025-08-04T14:23:27.000Z</time>
      </trkpt>
      <trkpt lat="42.81854" lon="2.49822">
        <ele>281</ele>
        <time>2025-08-04T14:23:33.000Z</time>
      </trkpt>
      <trkpt lat="42.8187" lon="2.49814">
        <ele>281.60000610352</ele>
        <time>2025-08-04T14:23:40.000Z</time>
      </trkpt>
      <trkpt lat="42.81875" lon="2.49812">
        <ele>281.79998779297</ele>
        <time>2025-08-04T14:23:42.000Z</time>
      </trkpt>
      <trkpt lat="42.81886" lon="2.49807">
        <ele>282.79998779297</ele>
        <time>2025-08-04T14:23:47.000Z</time>
      </trkpt>
      <trkpt lat="42.8189" lon="2.49805">
        <ele>283</ele>
        <time>2025-08-04T14:23:49.000Z</time>
      </trkpt>
      <trkpt lat="42.81897" lon="2.49801">
        <ele>283.20001220703</ele>
        <time>2025-08-04T14:23:53.000Z</time>
      </trkpt>
      <trkpt lat="42.81899" lon="2.498">
        <ele>283.39999389648</ele>
        <time>2025-08-04T14:23:54.000Z</time>
      </trkpt>
      <trkpt lat="42.81901" lon="2.49798">
        <ele>283.39999389648</ele>
        <time>2025-08-04T14:23:55.000Z</time>
      </trkpt>
      <trkpt lat="42.81908" lon="2.49796">
        <ele>283.79998779297</ele>
        <time>2025-08-04T14:23:59.000Z</time>
      </trkpt>
      <trkpt lat="42.81921" lon="2.49789">
        <ele>285</ele>
        <time>2025-08-04T14:24:07.000Z</time>
      </trkpt>
      <trkpt lat="42.81924" lon="2.49788">
        <ele>285.20001220703</ele>
        <time>2025-08-04T14:24:09.000Z</time>
      </trkpt>
      <trkpt lat="42.81927" lon="2.49789">
        <ele>285.39999389648</ele>
        <time>2025-08-04T14:24:11.000Z</time>
      </trkpt>
      <trkpt lat="42.81929" lon="2.49788">
        <ele>285.39999389648</ele>
        <time>2025-08-04T14:24:12.000Z</time>
      </trkpt>
      <trkpt lat="42.81933" lon="2.49784">
        <ele>285.79998779297</ele>
        <time>2025-08-04T14:24:15.000Z</time>
      </trkpt>
      <trkpt lat="42.81936" lon="2.49783">
        <ele>286</ele>
        <time>2025-08-04T14:24:17.000Z</time>
      </trkpt>
      <trkpt lat="42.81938" lon="2.49782">
        <ele>286</ele>
        <time>2025-08-04T14:24:18.000Z</time>
      </trkpt>
      <trkpt lat="42.81947" lon="2.4978">
        <ele>286.39999389648</ele>
        <time>2025-08-04T14:24:23.000Z</time>
      </trkpt>
      <trkpt lat="42.81951" lon="2.49779">
        <ele>286.39999389648</ele>
        <time>2025-08-04T14:24:25.000Z</time>
      </trkpt>
      <trkpt lat="42.81959" lon="2.49773">
        <ele>286.60000610352</ele>
        <time>2025-08-04T14:24:30.000Z</time>
      </trkpt>
      <trkpt lat="42.81969" lon="2.4977">
        <ele>287.39999389648</ele>
        <time>2025-08-04T14:24:35.000Z</time>
      </trkpt>
      <trkpt lat="42.81973" lon="2.49769">
        <ele>287.60000610352</ele>
        <time>2025-08-04T14:24:37.000Z</time>
      </trkpt>
      <trkpt lat="42.81985" lon="2.49764">
        <ele>288.39999389648</ele>
        <time>2025-08-04T14:24:44.000Z</time>
      </trkpt>
      <trkpt lat="42.81987" lon="2.49764">
        <ele>288.60000610352</ele>
        <time>2025-08-04T14:24:45.000Z</time>
      </trkpt>
      <trkpt lat="42.82008" lon="2.49761">
        <ele>289.20001220703</ele>
        <time>2025-08-04T14:24:56.000Z</time>
      </trkpt>
      <trkpt lat="42.82018" lon="2.49762">
        <ele>289.60000610352</ele>
        <time>2025-08-04T14:25:01.000Z</time>
      </trkpt>
      <trkpt lat="42.82024" lon="2.49762">
        <ele>289.79998779297</ele>
        <time>2025-08-04T14:25:04.000Z</time>
      </trkpt>
      <trkpt lat="42.82043" lon="2.49762">
        <ele>290</ele>
        <time>2025-08-04T14:25:14.000Z</time>
      </trkpt>
      <trkpt lat="42.82056" lon="2.49765">
        <ele>290.60000610352</ele>
        <time>2025-08-04T14:25:20.000Z</time>
      </trkpt>
      <trkpt lat="42.82062" lon="2.49766">
        <ele>291</ele>
        <time>2025-08-04T14:25:23.000Z</time>
      </trkpt>
      <trkpt lat="42.82064" lon="2.49767">
        <ele>291</ele>
        <time>2025-08-04T14:25:24.000Z</time>
      </trkpt>
      <trkpt lat="42.82073" lon="2.49772">
        <ele>291.60000610352</ele>
        <time>2025-08-04T14:25:28.000Z</time>
      </trkpt>
      <trkpt lat="42.8208" lon="2.49776">
        <ele>292</ele>
        <time>2025-08-04T14:25:31.000Z</time>
      </trkpt>
      <trkpt lat="42.82087" lon="2.4978">
        <ele>292.60000610352</ele>
        <time>2025-08-04T14:25:34.000Z</time>
      </trkpt>
      <trkpt lat="42.82104" lon="2.4979">
        <ele>293.60000610352</ele>
        <time>2025-08-04T14:25:41.000Z</time>
      </trkpt>
      <trkpt lat="42.82109" lon="2.49793">
        <ele>293.79998779297</ele>
        <time>2025-08-04T14:25:43.000Z</time>
      </trkpt>
      <trkpt lat="42.82134" lon="2.49803">
        <ele>294.60000610352</ele>
        <time>2025-08-04T14:25:53.000Z</time>
      </trkpt>
      <trkpt lat="42.82136" lon="2.49804">
        <ele>294.79998779297</ele>
        <time>2025-08-04T14:25:54.000Z</time>
      </trkpt>
      <trkpt lat="42.82157" lon="2.49811">
        <ele>295.39999389648</ele>
        <time>2025-08-04T14:26:02.000Z</time>
      </trkpt>
      <trkpt lat="42.82168" lon="2.49811">
        <ele>295.79998779297</ele>
        <time>2025-08-04T14:26:06.000Z</time>
      </trkpt>
      <trkpt lat="42.82182" lon="2.49812">
        <ele>296.20001220703</ele>
        <time>2025-08-04T14:26:11.000Z</time>
      </trkpt>
      <trkpt lat="42.82203" lon="2.49812">
        <ele>296.79998779297</ele>
        <time>2025-08-04T14:26:18.000Z</time>
      </trkpt>
      <trkpt lat="42.82217" lon="2.49812">
        <ele>297.20001220703</ele>
        <time>2025-08-04T14:26:22.000Z</time>
      </trkpt>
      <trkpt lat="42.82243" lon="2.49813">
        <ele>298.20001220703</ele>
        <time>2025-08-04T14:26:30.000Z</time>
      </trkpt>
      <trkpt lat="42.82246" lon="2.49813">
        <ele>298.20001220703</ele>
        <time>2025-08-04T14:26:31.000Z</time>
      </trkpt>
      <trkpt lat="42.82285" lon="2.49812">
        <ele>299</ele>
        <time>2025-08-04T14:26:43.000Z</time>
      </trkpt>
      <trkpt lat="42.82298" lon="2.49812">
        <ele>299.20001220703</ele>
        <time>2025-08-04T14:26:47.000Z</time>
      </trkpt>
      <trkpt lat="42.8231" lon="2.49808">
        <ele>299.20001220703</ele>
        <time>2025-08-04T14:26:51.000Z</time>
      </trkpt>
      <trkpt lat="42.82343" lon="2.49791">
        <ele>299.79998779297</ele>
        <time>2025-08-04T14:27:02.000Z</time>
      </trkpt>
      <trkpt lat="42.82365" lon="2.49779">
        <ele>299.79998779297</ele>
        <time>2025-08-04T14:27:09.000Z</time>
      </trkpt>
      <trkpt lat="42.82384" lon="2.49768">
        <ele>299.60000610352</ele>
        <time>2025-08-04T14:27:15.000Z</time>
      </trkpt>
      <trkpt lat="42.82404" lon="2.49752">
        <ele>299.79998779297</ele>
        <time>2025-08-04T14:27:22.000Z</time>
      </trkpt>
      <trkpt lat="42.82416" lon="2.49745">
        <ele>300.20001220703</ele>
        <time>2025-08-04T14:27:28.000Z</time>
      </trkpt>
      <trkpt lat="42.8242" lon="2.49744">
        <ele>300.39999389648</ele>
        <time>2025-08-04T14:27:30.000Z</time>
      </trkpt>
      <trkpt lat="42.82427" lon="2.49742">
        <ele>300.60000610352</ele>
        <time>2025-08-04T14:27:35.000Z</time>
      </trkpt>
      <trkpt lat="42.82435" lon="2.49741">
        <ele>300.79998779297</ele>
        <time>2025-08-04T14:27:40.000Z</time>
      </trkpt>
      <trkpt lat="42.82439" lon="2.49743">
        <ele>300.79998779297</ele>
        <time>2025-08-04T14:27:42.000Z</time>
      </trkpt>
      <trkpt lat="42.82455" lon="2.49747">
        <ele>301</ele>
        <time>2025-08-04T14:27:48.000Z</time>
      </trkpt>
      <trkpt lat="42.82467" lon="2.49752">
        <ele>301.39999389648</ele>
        <time>2025-08-04T14:27:52.000Z</time>
      </trkpt>
      <trkpt lat="42.82484" lon="2.49754">
        <ele>301.79998779297</ele>
        <time>2025-08-04T14:27:57.000Z</time>
      </trkpt>
      <trkpt lat="42.82502" lon="2.49746">
        <ele>302</ele>
        <time>2025-08-04T14:28:03.000Z</time>
      </trkpt>
      <trkpt lat="42.82524" lon="2.49723">
        <ele>302.20001220703</ele>
        <time>2025-08-04T14:28:11.000Z</time>
      </trkpt>
      <trkpt lat="42.82545" lon="2.49709">
        <ele>302.39999389648</ele>
        <time>2025-08-04T14:28:18.000Z</time>
      </trkpt>
      <trkpt lat="42.82547" lon="2.49708">
        <ele>302.60000610352</ele>
        <time>2025-08-04T14:28:19.000Z</time>
      </trkpt>
      <trkpt lat="42.82566" lon="2.49699">
        <ele>303.39999389648</ele>
        <time>2025-08-04T14:28:26.000Z</time>
      </trkpt>
      <trkpt lat="42.82571" lon="2.49696">
        <ele>303.60000610352</ele>
        <time>2025-08-04T14:28:28.000Z</time>
      </trkpt>
      <trkpt lat="42.82589" lon="2.49685">
        <ele>304.60000610352</ele>
        <time>2025-08-04T14:28:35.000Z</time>
      </trkpt>
      <trkpt lat="42.82595" lon="2.49682">
        <ele>304.79998779297</ele>
        <time>2025-08-04T14:28:37.000Z</time>
      </trkpt>
      <trkpt lat="42.82615" lon="2.49672">
        <ele>305.60000610352</ele>
        <time>2025-08-04T14:28:45.000Z</time>
      </trkpt>
      <trkpt lat="42.82625" lon="2.49666">
        <ele>306</ele>
        <time>2025-08-04T14:28:49.000Z</time>
      </trkpt>
      <trkpt lat="42.82639" lon="2.49659">
        <ele>306.39999389648</ele>
        <time>2025-08-04T14:28:54.000Z</time>
      </trkpt>
      <trkpt lat="42.82656" lon="2.49654">
        <ele>307</ele>
        <time>2025-08-04T14:29:01.000Z</time>
      </trkpt>
      <trkpt lat="42.82672" lon="2.49643">
        <ele>307.60000610352</ele>
        <time>2025-08-04T14:29:08.000Z</time>
      </trkpt>
      <trkpt lat="42.82675" lon="2.49639">
        <ele>307.60000610352</ele>
        <time>2025-08-04T14:29:10.000Z</time>
      </trkpt>
      <trkpt lat="42.8268" lon="2.49631">
        <ele>307.79998779297</ele>
        <time>2025-08-04T14:29:13.000Z</time>
      </trkpt>
      <trkpt lat="42.82683" lon="2.49627">
        <ele>308</ele>
        <time>2025-08-04T14:29:15.000Z</time>
      </trkpt>
      <trkpt lat="42.82694" lon="2.49617">
        <ele>308.39999389648</ele>
        <time>2025-08-04T14:29:20.000Z</time>
      </trkpt>
      <trkpt lat="42.82704" lon="2.49608">
        <ele>309</ele>
        <time>2025-08-04T14:29:25.000Z</time>
      </trkpt>
      <trkpt lat="42.82712" lon="2.49602">
        <ele>309.39999389648</ele>
        <time>2025-08-04T14:29:29.000Z</time>
      </trkpt>
      <trkpt lat="42.82726" lon="2.49595">
        <ele>310.20001220703</ele>
        <time>2025-08-04T14:29:36.000Z</time>
      </trkpt>
      <trkpt lat="42.82739" lon="2.49586">
        <ele>311.20001220703</ele>
        <time>2025-08-04T14:29:43.000Z</time>
      </trkpt>
      <trkpt lat="42.82745" lon="2.49584">
        <ele>311.60000610352</ele>
        <time>2025-08-04T14:29:46.000Z</time>
      </trkpt>
      <trkpt lat="42.82754" lon="2.49584">
        <ele>312.39999389648</ele>
        <time>2025-08-04T14:29:50.000Z</time>
      </trkpt>
      <trkpt lat="42.82765" lon="2.49587">
        <ele>312.60000610352</ele>
        <time>2025-08-04T14:29:55.000Z</time>
      </trkpt>
      <trkpt lat="42.82775" lon="2.4959">
        <ele>313.20001220703</ele>
        <time>2025-08-04T14:30:00.000Z</time>
      </trkpt>
      <trkpt lat="42.82786" lon="2.49594">
        <ele>314</ele>
        <time>2025-08-04T14:30:05.000Z</time>
      </trkpt>
      <trkpt lat="42.8279" lon="2.49597">
        <ele>314.39999389648</ele>
        <time>2025-08-04T14:30:07.000Z</time>
      </trkpt>
      <trkpt lat="42.82803" lon="2.49607">
        <ele>315.20001220703</ele>
        <time>2025-08-04T14:30:14.000Z</time>
      </trkpt>
      <trkpt lat="42.82807" lon="2.4961">
        <ele>315.39999389648</ele>
        <time>2025-08-04T14:30:16.000Z</time>
      </trkpt>
      <trkpt lat="42.82822" lon="2.49627">
        <ele>316.60000610352</ele>
        <time>2025-08-04T14:30:25.000Z</time>
      </trkpt>
      <trkpt lat="42.82837" lon="2.4965">
        <ele>317.60000610352</ele>
        <time>2025-08-04T14:30:35.000Z</time>
      </trkpt>
      <trkpt lat="42.82838" lon="2.49652">
        <ele>317.60000610352</ele>
        <time>2025-08-04T14:30:36.000Z</time>
      </trkpt>
      <trkpt lat="42.82846" lon="2.49666">
        <ele>318.39999389648</ele>
        <time>2025-08-04T14:30:42.000Z</time>
      </trkpt>
      <trkpt lat="42.82848" lon="2.49668">
        <ele>318.60000610352</ele>
        <time>2025-08-04T14:30:43.000Z</time>
      </trkpt>
      <trkpt lat="42.82861" lon="2.49684">
        <ele>319.20001220703</ele>
        <time>2025-08-04T14:30:51.000Z</time>
      </trkpt>
      <trkpt lat="42.82873" lon="2.49693">
        <ele>319.60000610352</ele>
        <time>2025-08-04T14:30:57.000Z</time>
      </trkpt>
      <trkpt lat="42.82875" lon="2.49694">
        <ele>319.60000610352</ele>
        <time>2025-08-04T14:30:58.000Z</time>
      </trkpt>
      <trkpt lat="42.82895" lon="2.49704">
        <ele>320.60000610352</ele>
        <time>2025-08-04T14:31:07.000Z</time>
      </trkpt>
      <trkpt lat="42.82897" lon="2.49705">
        <ele>320.60000610352</ele>
        <time>2025-08-04T14:31:08.000Z</time>
      </trkpt>
      <trkpt lat="42.82899" lon="2.497">
        <ele>320.79998779297</ele>
        <time>2025-08-04T14:31:11.000Z</time>
      </trkpt>
      <trkpt lat="42.82902" lon="2.49699">
        <ele>321.20001220703</ele>
        <time>2025-08-04T14:31:17.000Z</time>
      </trkpt>
      <trkpt lat="42.82905" lon="2.49706">
        <ele>321.79998779297</ele>
        <time>2025-08-04T14:36:28.000Z</time>
      </trkpt>
      <trkpt lat="42.82909" lon="2.49708">
        <ele>321.79998779297</ele>
        <time>2025-08-04T14:36:30.000Z</time>
      </trkpt>
      <trkpt lat="42.82926" lon="2.49718">
        <ele>322.20001220703</ele>
        <time>2025-08-04T14:36:37.000Z</time>
      </trkpt>
      <trkpt lat="42.82941" lon="2.49724">
        <ele>323</ele>
        <time>2025-08-04T14:36:43.000Z</time>
      </trkpt>
      <trkpt lat="42.82946" lon="2.49726">
        <ele>323.20001220703</ele>
        <time>2025-08-04T14:36:45.000Z</time>
      </trkpt>
      <trkpt lat="42.82962" lon="2.4973">
        <ele>323.79998779297</ele>
        <time>2025-08-04T14:36:52.000Z</time>
      </trkpt>
      <trkpt lat="42.8297" lon="2.4973">
        <ele>324</ele>
        <time>2025-08-04T14:36:55.000Z</time>
      </trkpt>
      <trkpt lat="42.82981" lon="2.49734">
        <ele>324.39999389648</ele>
        <time>2025-08-04T14:37:00.000Z</time>
      </trkpt>
      <trkpt lat="42.82992" lon="2.4974">
        <ele>325</ele>
        <time>2025-08-04T14:37:05.000Z</time>
      </trkpt>
      <trkpt lat="42.83" lon="2.49749">
        <ele>325.79998779297</ele>
        <time>2025-08-04T14:37:09.000Z</time>
      </trkpt>
      <trkpt lat="42.83003" lon="2.49753">
        <ele>326.20001220703</ele>
        <time>2025-08-04T14:37:11.000Z</time>
      </trkpt>
      <trkpt lat="42.83013" lon="2.49763">
        <ele>327.20001220703</ele>
        <time>2025-08-04T14:37:16.000Z</time>
      </trkpt>
      <trkpt lat="42.83025" lon="2.49765">
        <ele>328</ele>
        <time>2025-08-04T14:37:21.000Z</time>
      </trkpt>
      <trkpt lat="42.83031" lon="2.49766">
        <ele>328.20001220703</ele>
        <time>2025-08-04T14:37:24.000Z</time>
      </trkpt>
      <trkpt lat="42.83041" lon="2.49766">
        <ele>328.39999389648</ele>
        <time>2025-08-04T14:37:28.000Z</time>
      </trkpt>
      <trkpt lat="42.83058" lon="2.49761">
        <ele>329.39999389648</ele>
        <time>2025-08-04T14:37:35.000Z</time>
      </trkpt>
      <trkpt lat="42.83066" lon="2.49759">
        <ele>329.60000610352</ele>
        <time>2025-08-04T14:37:38.000Z</time>
      </trkpt>
      <trkpt lat="42.83076" lon="2.49756">
        <ele>330.20001220703</ele>
        <time>2025-08-04T14:37:42.000Z</time>
      </trkpt>
      <trkpt lat="42.83082" lon="2.49753">
        <ele>330.79998779297</ele>
        <time>2025-08-04T14:37:45.000Z</time>
      </trkpt>
      <trkpt lat="42.83097" lon="2.49745">
        <ele>331.39999389648</ele>
        <time>2025-08-04T14:37:52.000Z</time>
      </trkpt>
      <trkpt lat="42.83099" lon="2.49743">
        <ele>331.39999389648</ele>
        <time>2025-08-04T14:37:53.000Z</time>
      </trkpt>
      <trkpt lat="42.83117" lon="2.4973">
        <ele>332.20001220703</ele>
        <time>2025-08-04T14:38:01.000Z</time>
      </trkpt>
      <trkpt lat="42.8312" lon="2.49728">
        <ele>332.39999389648</ele>
        <time>2025-08-04T14:38:03.000Z</time>
      </trkpt>
      <trkpt lat="42.83125" lon="2.49728">
        <ele>332.79998779297</ele>
        <time>2025-08-04T14:38:07.000Z</time>
      </trkpt>
      <trkpt lat="42.83127" lon="2.49727">
        <ele>333.20001220703</ele>
        <time>2025-08-04T14:38:09.000Z</time>
      </trkpt>
      <trkpt lat="42.83128" lon="2.49727">
        <ele>333.20001220703</ele>
        <time>2025-08-04T14:38:10.000Z</time>
      </trkpt>
      <trkpt lat="42.83131" lon="2.49729">
        <ele>333.39999389648</ele>
        <time>2025-08-04T14:38:12.000Z</time>
      </trkpt>
      <trkpt lat="42.83133" lon="2.4973">
        <ele>333.60000610352</ele>
        <time>2025-08-04T14:38:13.000Z</time>
      </trkpt>
      <trkpt lat="42.83146" lon="2.49735">
        <ele>334.20001220703</ele>
        <time>2025-08-04T14:38:20.000Z</time>
      </trkpt>
      <trkpt lat="42.83151" lon="2.49737">
        <ele>334.60000610352</ele>
        <time>2025-08-04T14:38:23.000Z</time>
      </trkpt>
      <trkpt lat="42.83162" lon="2.4974">
        <ele>335.39999389648</ele>
        <time>2025-08-04T14:38:29.000Z</time>
      </trkpt>
      <trkpt lat="42.83167" lon="2.49741">
        <ele>335.79998779297</ele>
        <time>2025-08-04T14:38:32.000Z</time>
      </trkpt>
      <trkpt lat="42.83175" lon="2.49739">
        <ele>336</ele>
        <time>2025-08-04T14:38:36.000Z</time>
      </trkpt>
      <trkpt lat="42.83189" lon="2.49726">
        <ele>336.79998779297</ele>
        <time>2025-08-04T14:38:44.000Z</time>
      </trkpt>
      <trkpt lat="42.83193" lon="2.49711">
        <ele>337.39999389648</ele>
        <time>2025-08-04T14:38:50.000Z</time>
      </trkpt>
      <trkpt lat="42.83192" lon="2.49704">
        <ele>337.79998779297</ele>
        <time>2025-08-04T14:38:53.000Z</time>
      </trkpt>
      <trkpt lat="42.8319" lon="2.49693">
        <ele>338.20001220703</ele>
        <time>2025-08-04T14:38:57.000Z</time>
      </trkpt>
      <trkpt lat="42.83185" lon="2.4968">
        <ele>339</ele>
        <time>2025-08-04T14:39:03.000Z</time>
      </trkpt>
      <trkpt lat="42.83182" lon="2.49673">
        <ele>339</ele>
        <time>2025-08-04T14:39:06.000Z</time>
      </trkpt>
      <trkpt lat="42.83184" lon="2.49664">
        <ele>339.39999389648</ele>
        <time>2025-08-04T14:39:10.000Z</time>
      </trkpt>
      <trkpt lat="42.83186" lon="2.4966">
        <ele>339.60000610352</ele>
        <time>2025-08-04T14:39:12.000Z</time>
      </trkpt>
      <trkpt lat="42.83191" lon="2.49653">
        <ele>340.20001220703</ele>
        <time>2025-08-04T14:39:16.000Z</time>
      </trkpt>
      <trkpt lat="42.83196" lon="2.4965">
        <ele>340.60000610352</ele>
        <time>2025-08-04T14:39:19.000Z</time>
      </trkpt>
      <trkpt lat="42.83202" lon="2.49646">
        <ele>341.20001220703</ele>
        <time>2025-08-04T14:39:22.000Z</time>
      </trkpt>
      <trkpt lat="42.83211" lon="2.49639">
        <ele>342.39999389648</ele>
        <time>2025-08-04T14:39:28.000Z</time>
      </trkpt>
      <trkpt lat="42.83221" lon="2.49626">
        <ele>343.20001220703</ele>
        <time>2025-08-04T14:39:35.000Z</time>
      </trkpt>
      <trkpt lat="42.83224" lon="2.49621">
        <ele>343.39999389648</ele>
        <time>2025-08-04T14:39:37.000Z</time>
      </trkpt>
      <trkpt lat="42.83231" lon="2.49605">
        <ele>343.79998779297</ele>
        <time>2025-08-04T14:39:44.000Z</time>
      </trkpt>
      <trkpt lat="42.83236" lon="2.4959">
        <ele>344.39999389648</ele>
        <time>2025-08-04T14:39:51.000Z</time>
      </trkpt>
      <trkpt lat="42.8324" lon="2.49583">
        <ele>345</ele>
        <time>2025-08-04T14:39:54.000Z</time>
      </trkpt>
      <trkpt lat="42.83242" lon="2.49579">
        <ele>345.39999389648</ele>
        <time>2025-08-04T14:39:56.000Z</time>
      </trkpt>
      <trkpt lat="42.83243" lon="2.49575">
        <ele>345.60000610352</ele>
        <time>2025-08-04T14:39:58.000Z</time>
      </trkpt>
      <trkpt lat="42.83244" lon="2.49573">
        <ele>345.79998779297</ele>
        <time>2025-08-04T14:39:59.000Z</time>
      </trkpt>
      <trkpt lat="42.83251" lon="2.49559">
        <ele>346.60000610352</ele>
        <time>2025-08-04T14:40:06.000Z</time>
      </trkpt>
      <trkpt lat="42.83252" lon="2.49557">
        <ele>346.60000610352</ele>
        <time>2025-08-04T14:40:07.000Z</time>
      </trkpt>
      <trkpt lat="42.83257" lon="2.49543">
        <ele>347.20001220703</ele>
        <time>2025-08-04T14:40:13.000Z</time>
      </trkpt>
      <trkpt lat="42.83264" lon="2.49533">
        <ele>347.60000610352</ele>
        <time>2025-08-04T14:40:18.000Z</time>
      </trkpt>
      <trkpt lat="42.83265" lon="2.49531">
        <ele>347.79998779297</ele>
        <time>2025-08-04T14:40:19.000Z</time>
      </trkpt>
      <trkpt lat="42.83265" lon="2.49529">
        <ele>348</ele>
        <time>2025-08-04T14:40:20.000Z</time>
      </trkpt>
      <trkpt lat="42.83266" lon="2.49527">
        <ele>348.20001220703</ele>
        <time>2025-08-04T14:40:21.000Z</time>
      </trkpt>
      <trkpt lat="42.83271" lon="2.49523">
        <ele>348.60000610352</ele>
        <time>2025-08-04T14:40:24.000Z</time>
      </trkpt>
      <trkpt lat="42.83272" lon="2.49521">
        <ele>348.79998779297</ele>
        <time>2025-08-04T14:40:25.000Z</time>
      </trkpt>
      <trkpt lat="42.83277" lon="2.49514">
        <ele>349.20001220703</ele>
        <time>2025-08-04T14:40:29.000Z</time>
      </trkpt>
      <trkpt lat="42.83282" lon="2.49508">
        <ele>349.60000610352</ele>
        <time>2025-08-04T14:40:33.000Z</time>
      </trkpt>
      <trkpt lat="42.83285" lon="2.49505">
        <ele>349.79998779297</ele>
        <time>2025-08-04T14:40:35.000Z</time>
      </trkpt>
      <trkpt lat="42.83291" lon="2.49498">
        <ele>350.20001220703</ele>
        <time>2025-08-04T14:40:39.000Z</time>
      </trkpt>
      <trkpt lat="42.833" lon="2.49485">
        <ele>351</ele>
        <time>2025-08-04T14:40:46.000Z</time>
      </trkpt>
      <trkpt lat="42.83303" lon="2.49479">
        <ele>351.39999389648</ele>
        <time>2025-08-04T14:40:49.000Z</time>
      </trkpt>
      <trkpt lat="42.83308" lon="2.49469">
        <ele>352</ele>
        <time>2025-08-04T14:40:54.000Z</time>
      </trkpt>
      <trkpt lat="42.83312" lon="2.49464">
        <ele>352.39999389648</ele>
        <time>2025-08-04T14:40:57.000Z</time>
      </trkpt>
      <trkpt lat="42.83316" lon="2.49456">
        <ele>353.20001220703</ele>
        <time>2025-08-04T14:41:01.000Z</time>
      </trkpt>
      <trkpt lat="42.83317" lon="2.49452">
        <ele>353.39999389648</ele>
        <time>2025-08-04T14:41:03.000Z</time>
      </trkpt>
      <trkpt lat="42.83317" lon="2.49451">
        <ele>353.39999389648</ele>
        <time>2025-08-04T14:41:04.000Z</time>
      </trkpt>
      <trkpt lat="42.83319" lon="2.4945">
        <ele>353.60000610352</ele>
        <time>2025-08-04T14:41:05.000Z</time>
      </trkpt>
      <trkpt lat="42.83323" lon="2.49449">
        <ele>354.20001220703</ele>
        <time>2025-08-04T14:41:08.000Z</time>
      </trkpt>
      <trkpt lat="42.83324" lon="2.49448">
        <ele>354.39999389648</ele>
        <time>2025-08-04T14:41:09.000Z</time>
      </trkpt>
      <trkpt lat="42.83331" lon="2.49441">
        <ele>354.79998779297</ele>
        <time>2025-08-04T14:41:14.000Z</time>
      </trkpt>
      <trkpt lat="42.83335" lon="2.4944">
        <ele>354.79998779297</ele>
        <time>2025-08-04T14:41:16.000Z</time>
      </trkpt>
      <trkpt lat="42.83336" lon="2.4944">
        <ele>355</ele>
        <time>2025-08-04T14:41:17.000Z</time>
      </trkpt>
      <trkpt lat="42.8334" lon="2.49439">
        <ele>355.39999389648</ele>
        <time>2025-08-04T14:41:19.000Z</time>
      </trkpt>
      <trkpt lat="42.83343" lon="2.49437">
        <ele>355.79998779297</ele>
        <time>2025-08-04T14:41:21.000Z</time>
      </trkpt>
      <trkpt lat="42.83351" lon="2.49429">
        <ele>356.39999389648</ele>
        <time>2025-08-04T14:41:27.000Z</time>
      </trkpt>
      <trkpt lat="42.83353" lon="2.49414">
        <ele>357.60000610352</ele>
        <time>2025-08-04T14:41:33.000Z</time>
      </trkpt>
      <trkpt lat="42.83354" lon="2.49404">
        <ele>358.39999389648</ele>
        <time>2025-08-04T14:41:37.000Z</time>
      </trkpt>
      <trkpt lat="42.83354" lon="2.49399">
        <ele>358.60000610352</ele>
        <time>2025-08-04T14:41:39.000Z</time>
      </trkpt>
      <trkpt lat="42.83357" lon="2.49388">
        <ele>359.39999389648</ele>
        <time>2025-08-04T14:41:44.000Z</time>
      </trkpt>
      <trkpt lat="42.83358" lon="2.4938">
        <ele>359.79998779297</ele>
        <time>2025-08-04T14:41:47.000Z</time>
      </trkpt>
      <trkpt lat="42.8336" lon="2.49369">
        <ele>360.20001220703</ele>
        <time>2025-08-04T14:41:51.000Z</time>
      </trkpt>
      <trkpt lat="42.83363" lon="2.49362">
        <ele>360.79998779297</ele>
        <time>2025-08-04T14:41:54.000Z</time>
      </trkpt>
      <trkpt lat="42.8337" lon="2.49344">
        <ele>362</ele>
        <time>2025-08-04T14:42:02.000Z</time>
      </trkpt>
      <trkpt lat="42.83371" lon="2.49342">
        <ele>362</ele>
        <time>2025-08-04T14:42:03.000Z</time>
      </trkpt>
      <trkpt lat="42.83379" lon="2.49339">
        <ele>363</ele>
        <time>2025-08-04T14:42:08.000Z</time>
      </trkpt>
      <trkpt lat="42.8338" lon="2.49338">
        <ele>363.20001220703</ele>
        <time>2025-08-04T14:42:09.000Z</time>
      </trkpt>
      <trkpt lat="42.83382" lon="2.49337">
        <ele>363.20001220703</ele>
        <time>2025-08-04T14:42:10.000Z</time>
      </trkpt>
      <trkpt lat="42.83388" lon="2.49331">
        <ele>363.60000610352</ele>
        <time>2025-08-04T14:42:14.000Z</time>
      </trkpt>
      <trkpt lat="42.83397" lon="2.49322">
        <ele>364.20001220703</ele>
        <time>2025-08-04T14:42:20.000Z</time>
      </trkpt>
      <trkpt lat="42.83398" lon="2.49317">
        <ele>364.39999389648</ele>
        <time>2025-08-04T14:42:22.000Z</time>
      </trkpt>
      <trkpt lat="42.83401" lon="2.49304">
        <ele>365.20001220703</ele>
        <time>2025-08-04T14:42:28.000Z</time>
      </trkpt>
      <trkpt lat="42.83402" lon="2.49302">
        <ele>365.20001220703</ele>
        <time>2025-08-04T14:42:29.000Z</time>
      </trkpt>
      <trkpt lat="42.83405" lon="2.4928">
        <ele>366.20001220703</ele>
        <time>2025-08-04T14:42:38.000Z</time>
      </trkpt>
      <trkpt lat="42.83405" lon="2.49278">
        <ele>366.39999389648</ele>
        <time>2025-08-04T14:42:39.000Z</time>
      </trkpt>
      <trkpt lat="42.83408" lon="2.49266">
        <ele>367</ele>
        <time>2025-08-04T14:42:44.000Z</time>
      </trkpt>
      <trkpt lat="42.83411" lon="2.49259">
        <ele>367.20001220703</ele>
        <time>2025-08-04T14:42:47.000Z</time>
      </trkpt>
      <trkpt lat="42.83416" lon="2.49245">
        <ele>368</ele>
        <time>2025-08-04T14:42:53.000Z</time>
      </trkpt>
      <trkpt lat="42.8342" lon="2.49239">
        <ele>368.39999389648</ele>
        <time>2025-08-04T14:42:56.000Z</time>
      </trkpt>
      <trkpt lat="42.83428" lon="2.49229">
        <ele>369.39999389648</ele>
        <time>2025-08-04T14:43:02.000Z</time>
      </trkpt>
      <trkpt lat="42.8343" lon="2.49227">
        <ele>369.60000610352</ele>
        <time>2025-08-04T14:43:03.000Z</time>
      </trkpt>
      <trkpt lat="42.83438" lon="2.49218">
        <ele>370.60000610352</ele>
        <time>2025-08-04T14:43:09.000Z</time>
      </trkpt>
      <trkpt lat="42.8344" lon="2.49217">
        <ele>370.79998779297</ele>
        <time>2025-08-04T14:43:10.000Z</time>
      </trkpt>
      <trkpt lat="42.83449" lon="2.49209">
        <ele>371.60000610352</ele>
        <time>2025-08-04T14:43:16.000Z</time>
      </trkpt>
      <trkpt lat="42.83456" lon="2.49203">
        <ele>372.39999389648</ele>
        <time>2025-08-04T14:43:20.000Z</time>
      </trkpt>
      <trkpt lat="42.83459" lon="2.49202">
        <ele>372.60000610352</ele>
        <time>2025-08-04T14:43:22.000Z</time>
      </trkpt>
      <trkpt lat="42.83469" lon="2.49197">
        <ele>373.39999389648</ele>
        <time>2025-08-04T14:43:27.000Z</time>
      </trkpt>
      <trkpt lat="42.83474" lon="2.49195">
        <ele>373.79998779297</ele>
        <time>2025-08-04T14:43:30.000Z</time>
      </trkpt>
      <trkpt lat="42.83481" lon="2.49194">
        <ele>374.20001220703</ele>
        <time>2025-08-04T14:43:34.000Z</time>
      </trkpt>
      <trkpt lat="42.83488" lon="2.49194">
        <ele>374.79998779297</ele>
        <time>2025-08-04T14:43:38.000Z</time>
      </trkpt>
      <trkpt lat="42.83493" lon="2.49196">
        <ele>375.39999389648</ele>
        <time>2025-08-04T14:43:41.000Z</time>
      </trkpt>
      <trkpt lat="42.83498" lon="2.49197">
        <ele>375.79998779297</ele>
        <time>2025-08-04T14:43:44.000Z</time>
      </trkpt>
      <trkpt lat="42.83505" lon="2.49196">
        <ele>376.60000610352</ele>
        <time>2025-08-04T14:43:48.000Z</time>
      </trkpt>
      <trkpt lat="42.83509" lon="2.49195">
        <ele>377.20001220703</ele>
        <time>2025-08-04T14:43:50.000Z</time>
      </trkpt>
      <trkpt lat="42.83512" lon="2.49197">
        <ele>377.60000610352</ele>
        <time>2025-08-04T14:43:53.000Z</time>
      </trkpt>
      <trkpt lat="42.83515" lon="2.492">
        <ele>378.20001220703</ele>
        <time>2025-08-04T14:43:58.000Z</time>
      </trkpt>
      <trkpt lat="42.83516" lon="2.49201">
        <ele>378.20001220703</ele>
        <time>2025-08-04T14:44:00.000Z</time>
      </trkpt>
      <trkpt lat="42.8352" lon="2.49203">
        <ele>378.20001220703</ele>
        <time>2025-08-04T14:44:03.000Z</time>
      </trkpt>
      <trkpt lat="42.83522" lon="2.49203">
        <ele>378.20001220703</ele>
        <time>2025-08-04T14:44:05.000Z</time>
      </trkpt>
      <trkpt lat="42.83523" lon="2.49204">
        <ele>378.20001220703</ele>
        <time>2025-08-04T14:44:06.000Z</time>
      </trkpt>
      <trkpt lat="42.83531" lon="2.4921">
        <ele>378.60000610352</ele>
        <time>2025-08-04T14:44:13.000Z</time>
      </trkpt>
      <trkpt lat="42.83532" lon="2.4921">
        <ele>378.79998779297</ele>
        <time>2025-08-04T14:44:14.000Z</time>
      </trkpt>
      <trkpt lat="42.83533" lon="2.4921">
        <ele>378.79998779297</ele>
        <time>2025-08-04T14:44:15.000Z</time>
      </trkpt>
      <trkpt lat="42.83537" lon="2.49216">
        <ele>379</ele>
        <time>2025-08-04T14:44:19.000Z</time>
      </trkpt>
      <trkpt lat="42.8354" lon="2.49218">
        <ele>379.20001220703</ele>
        <time>2025-08-04T14:44:22.000Z</time>
      </trkpt>
      <trkpt lat="42.83543" lon="2.49223">
        <ele>379.39999389648</ele>
        <time>2025-08-04T14:44:25.000Z</time>
      </trkpt>
      <trkpt lat="42.83554" lon="2.49234">
        <ele>380</ele>
        <time>2025-08-04T14:44:32.000Z</time>
      </trkpt>
      <trkpt lat="42.83561" lon="2.49239">
        <ele>380.39999389648</ele>
        <time>2025-08-04T14:44:36.000Z</time>
      </trkpt>
      <trkpt lat="42.83574" lon="2.49243">
        <ele>381</ele>
        <time>2025-08-04T14:44:43.000Z</time>
      </trkpt>
      <trkpt lat="42.8359" lon="2.4924">
        <ele>381.60000610352</ele>
        <time>2025-08-04T14:44:51.000Z</time>
      </trkpt>
      <trkpt lat="42.836" lon="2.49229">
        <ele>382</ele>
        <time>2025-08-04T14:44:58.000Z</time>
      </trkpt>
      <trkpt lat="42.83606" lon="2.49214">
        <ele>382.20001220703</ele>
        <time>2025-08-04T14:45:05.000Z</time>
      </trkpt>
      <trkpt lat="42.83609" lon="2.49197">
        <ele>382.79998779297</ele>
        <time>2025-08-04T14:45:13.000Z</time>
      </trkpt>
      <trkpt lat="42.83609" lon="2.49194">
        <ele>383</ele>
        <time>2025-08-04T14:45:14.000Z</time>
      </trkpt>
      <trkpt lat="42.83611" lon="2.49181">
        <ele>383.79998779297</ele>
        <time>2025-08-04T14:45:20.000Z</time>
      </trkpt>
      <trkpt lat="42.83611" lon="2.49165">
        <ele>384</ele>
        <time>2025-08-04T14:45:27.000Z</time>
      </trkpt>
      <trkpt lat="42.83609" lon="2.49158">
        <ele>384</ele>
        <time>2025-08-04T14:45:30.000Z</time>
      </trkpt>
      <trkpt lat="42.83608" lon="2.49149">
        <ele>384.39999389648</ele>
        <time>2025-08-04T14:45:34.000Z</time>
      </trkpt>
      <trkpt lat="42.83608" lon="2.49147">
        <ele>384.20001220703</ele>
        <time>2025-08-04T14:45:35.000Z</time>
      </trkpt>
      <trkpt lat="42.83606" lon="2.49143">
        <ele>384.79998779297</ele>
        <time>2025-08-04T14:45:37.000Z</time>
      </trkpt>
      <trkpt lat="42.83604" lon="2.49137">
        <ele>385</ele>
        <time>2025-08-04T14:45:40.000Z</time>
      </trkpt>
      <trkpt lat="42.83598" lon="2.49125">
        <ele>385.20001220703</ele>
        <time>2025-08-04T14:45:46.000Z</time>
      </trkpt>
      <trkpt lat="42.8359" lon="2.49111">
        <ele>386.60000610352</ele>
        <time>2025-08-04T14:45:53.000Z</time>
      </trkpt>
      <trkpt lat="42.83589" lon="2.49108">
        <ele>387</ele>
        <time>2025-08-04T14:45:54.000Z</time>
      </trkpt>
      <trkpt lat="42.83587" lon="2.49103">
        <ele>388</ele>
        <time>2025-08-04T14:45:56.000Z</time>
      </trkpt>
      <trkpt lat="42.83581" lon="2.49084">
        <ele>388.39999389648</ele>
        <time>2025-08-04T14:46:03.000Z</time>
      </trkpt>
      <trkpt lat="42.83581" lon="2.49057">
        <ele>389</ele>
        <time>2025-08-04T14:46:12.000Z</time>
      </trkpt>
      <trkpt lat="42.83587" lon="2.49039">
        <ele>389.20001220703</ele>
        <time>2025-08-04T14:46:19.000Z</time>
      </trkpt>
      <trkpt lat="42.83598" lon="2.49019">
        <ele>389.20001220703</ele>
        <time>2025-08-04T14:46:27.000Z</time>
      </trkpt>
      <trkpt lat="42.83608" lon="2.48992">
        <ele>389.60000610352</ele>
        <time>2025-08-04T14:46:36.000Z</time>
      </trkpt>
      <trkpt lat="42.83614" lon="2.48969">
        <ele>389.60000610352</ele>
        <time>2025-08-04T14:46:43.000Z</time>
      </trkpt>
      <trkpt lat="42.83617" lon="2.48943">
        <ele>389.79998779297</ele>
        <time>2025-08-04T14:46:50.000Z</time>
      </trkpt>
      <trkpt lat="42.83617" lon="2.48935">
        <ele>390</ele>
        <time>2025-08-04T14:46:52.000Z</time>
      </trkpt>
      <trkpt lat="42.83617" lon="2.48899">
        <ele>390.60000610352</ele>
        <time>2025-08-04T14:47:01.000Z</time>
      </trkpt>
      <trkpt lat="42.83616" lon="2.48867">
        <ele>390.79998779297</ele>
        <time>2025-08-04T14:47:09.000Z</time>
      </trkpt>
      <trkpt lat="42.83615" lon="2.48857">
        <ele>391</ele>
        <time>2025-08-04T14:47:12.000Z</time>
      </trkpt>
      <trkpt lat="42.83609" lon="2.48839">
        <ele>391.20001220703</ele>
        <time>2025-08-04T14:47:17.000Z</time>
      </trkpt>
      <trkpt lat="42.83599" lon="2.48806">
        <ele>391.20001220703</ele>
        <time>2025-08-04T14:47:26.000Z</time>
      </trkpt>
      <trkpt lat="42.83594" lon="2.48774">
        <ele>391.60000610352</ele>
        <time>2025-08-04T14:47:34.000Z</time>
      </trkpt>
      <trkpt lat="42.83593" lon="2.4877">
        <ele>391.79998779297</ele>
        <time>2025-08-04T14:47:35.000Z</time>
      </trkpt>
      <trkpt lat="42.83586" lon="2.48744">
        <ele>392.20001220703</ele>
        <time>2025-08-04T14:47:42.000Z</time>
      </trkpt>
      <trkpt lat="42.83575" lon="2.48718">
        <ele>392.20001220703</ele>
        <time>2025-08-04T14:47:49.000Z</time>
      </trkpt>
      <trkpt lat="42.83561" lon="2.48689">
        <ele>392.60000610352</ele>
        <time>2025-08-04T14:47:57.000Z</time>
      </trkpt>
      <trkpt lat="42.83558" lon="2.48682">
        <ele>392.79998779297</ele>
        <time>2025-08-04T14:47:59.000Z</time>
      </trkpt>
      <trkpt lat="42.83543" lon="2.48652">
        <ele>393</ele>
        <time>2025-08-04T14:48:07.000Z</time>
      </trkpt>
      <trkpt lat="42.83527" lon="2.48617">
        <ele>393</ele>
        <time>2025-08-04T14:48:16.000Z</time>
      </trkpt>
      <trkpt lat="42.83518" lon="2.48585">
        <ele>393</ele>
        <time>2025-08-04T14:48:24.000Z</time>
      </trkpt>
      <trkpt lat="42.83519" lon="2.48563">
        <ele>393.20001220703</ele>
        <time>2025-08-04T14:48:30.000Z</time>
      </trkpt>
      <trkpt lat="42.83524" lon="2.48549">
        <ele>393.39999389648</ele>
        <time>2025-08-04T14:48:34.000Z</time>
      </trkpt>
      <trkpt lat="42.83532" lon="2.48527">
        <ele>393.39999389648</ele>
        <time>2025-08-04T14:48:41.000Z</time>
      </trkpt>
      <trkpt lat="42.83532" lon="2.48502">
        <ele>393.79998779297</ele>
        <time>2025-08-04T14:48:48.000Z</time>
      </trkpt>
      <trkpt lat="42.83529" lon="2.48492">
        <ele>394</ele>
        <time>2025-08-04T14:48:51.000Z</time>
      </trkpt>
      <trkpt lat="42.83521" lon="2.48467">
        <ele>394.60000610352</ele>
        <time>2025-08-04T14:48:58.000Z</time>
      </trkpt>
      <trkpt lat="42.83514" lon="2.48454">
        <ele>395</ele>
        <time>2025-08-04T14:49:02.000Z</time>
      </trkpt>
      <trkpt lat="42.83506" lon="2.48442">
        <ele>395.39999389648</ele>
        <time>2025-08-04T14:49:06.000Z</time>
      </trkpt>
      <trkpt lat="42.83488" lon="2.48422">
        <ele>396</ele>
        <time>2025-08-04T14:49:14.000Z</time>
      </trkpt>
      <trkpt lat="42.83485" lon="2.48419">
        <ele>396</ele>
        <time>2025-08-04T14:49:15.000Z</time>
      </trkpt>
      <trkpt lat="42.83467" lon="2.48401">
        <ele>396.60000610352</ele>
        <time>2025-08-04T14:49:23.000Z</time>
      </trkpt>
      <trkpt lat="42.83451" lon="2.48385">
        <ele>397</ele>
        <time>2025-08-04T14:49:30.000Z</time>
      </trkpt>
      <trkpt lat="42.83447" lon="2.4838">
        <ele>397</ele>
        <time>2025-08-04T14:49:32.000Z</time>
      </trkpt>
      <trkpt lat="42.8343" lon="2.48357">
        <ele>397.20001220703</ele>
        <time>2025-08-04T14:49:41.000Z</time>
      </trkpt>
      <trkpt lat="42.83417" lon="2.48332">
        <ele>397.20001220703</ele>
        <time>2025-08-04T14:49:49.000Z</time>
      </trkpt>
      <trkpt lat="42.83406" lon="2.48305">
        <ele>396.79998779297</ele>
        <time>2025-08-04T14:49:57.000Z</time>
      </trkpt>
      <trkpt lat="42.83398" lon="2.48276">
        <ele>396.60000610352</ele>
        <time>2025-08-04T14:50:05.000Z</time>
      </trkpt>
      <trkpt lat="42.83395" lon="2.48244">
        <ele>396.79998779297</ele>
        <time>2025-08-04T14:50:12.000Z</time>
      </trkpt>
      <trkpt lat="42.83396" lon="2.48208">
        <ele>396.79998779297</ele>
        <time>2025-08-04T14:50:20.000Z</time>
      </trkpt>
      <trkpt lat="42.83395" lon="2.48161">
        <ele>397.39999389648</ele>
        <time>2025-08-04T14:50:30.000Z</time>
      </trkpt>
      <trkpt lat="42.83401" lon="2.48135">
        <ele>397.60000610352</ele>
        <time>2025-08-04T14:50:36.000Z</time>
      </trkpt>
      <trkpt lat="42.83408" lon="2.48109">
        <ele>397.79998779297</ele>
        <time>2025-08-04T14:50:42.000Z</time>
      </trkpt>
      <trkpt lat="42.8341" lon="2.481">
        <ele>398</ele>
        <time>2025-08-04T14:50:44.000Z</time>
      </trkpt>
      <trkpt lat="42.83416" lon="2.48088">
        <ele>398.20001220703</ele>
        <time>2025-08-04T14:50:48.000Z</time>
      </trkpt>
      <trkpt lat="42.83418" lon="2.48086">
        <ele>398.39999389648</ele>
        <time>2025-08-04T14:50:49.000Z</time>
      </trkpt>
      <trkpt lat="42.83427" lon="2.48083">
        <ele>398.60000610352</ele>
        <time>2025-08-04T14:50:52.000Z</time>
      </trkpt>
      <trkpt lat="42.83441" lon="2.48089">
        <ele>399.39999389648</ele>
        <time>2025-08-04T14:50:56.000Z</time>
      </trkpt>
      <trkpt lat="42.83444" lon="2.48092">
        <ele>399.60000610352</ele>
        <time>2025-08-04T14:50:57.000Z</time>
      </trkpt>
      <trkpt lat="42.83462" lon="2.48106">
        <ele>400</ele>
        <time>2025-08-04T14:51:02.000Z</time>
      </trkpt>
      <trkpt lat="42.8347" lon="2.48109">
        <ele>400.39999389648</ele>
        <time>2025-08-04T14:51:04.000Z</time>
      </trkpt>
      <trkpt lat="42.83478" lon="2.48109">
        <ele>400.39999389648</ele>
        <time>2025-08-04T14:51:06.000Z</time>
      </trkpt>
      <trkpt lat="42.83486" lon="2.48107">
        <ele>400.39999389648</ele>
        <time>2025-08-04T14:51:08.000Z</time>
      </trkpt>
      <trkpt lat="42.83508" lon="2.48093">
        <ele>400.20001220703</ele>
        <time>2025-08-04T14:51:14.000Z</time>
      </trkpt>
      <trkpt lat="42.83526" lon="2.48071">
        <ele>400.60000610352</ele>
        <time>2025-08-04T14:51:21.000Z</time>
      </trkpt>
      <trkpt lat="42.83529" lon="2.48067">
        <ele>400.79998779297</ele>
        <time>2025-08-04T14:51:22.000Z</time>
      </trkpt>
      <trkpt lat="42.83548" lon="2.48051">
        <ele>401.39999389648</ele>
        <time>2025-08-04T14:51:29.000Z</time>
      </trkpt>
      <trkpt lat="42.83563" lon="2.48048">
        <ele>401.39999389648</ele>
        <time>2025-08-04T14:51:34.000Z</time>
      </trkpt>
      <trkpt lat="42.83578" lon="2.48058">
        <ele>401.79998779297</ele>
        <time>2025-08-04T14:51:40.000Z</time>
      </trkpt>
      <trkpt lat="42.8358" lon="2.48061">
        <ele>401.79998779297</ele>
        <time>2025-08-04T14:51:41.000Z</time>
      </trkpt>
      <trkpt lat="42.83591" lon="2.48083">
        <ele>401.79998779297</ele>
        <time>2025-08-04T14:51:47.000Z</time>
      </trkpt>
      <trkpt lat="42.83601" lon="2.48112">
        <ele>401.60000610352</ele>
        <time>2025-08-04T14:51:55.000Z</time>
      </trkpt>
      <trkpt lat="42.83606" lon="2.48119">
        <ele>401.20001220703</ele>
        <time>2025-08-04T14:52:00.000Z</time>
      </trkpt>
      <trkpt lat="42.83612" lon="2.48128">
        <ele>401</ele>
        <time>2025-08-04T14:52:05.000Z</time>
      </trkpt>
      <trkpt lat="42.83612" lon="2.48128">
        <ele>401</ele>
        <time>2025-08-04T14:52:06.000Z</time>
      </trkpt>
      <trkpt lat="42.83614" lon="2.48129">
        <ele>401</ele>
        <time>2025-08-04T14:52:11.000Z</time>
      </trkpt>
      <trkpt lat="42.83618" lon="2.4814">
        <ele>399.60000610352</ele>
        <time>2025-08-04T14:54:19.000Z</time>
      </trkpt>
      <trkpt lat="42.83632" lon="2.48158">
        <ele>399.79998779297</ele>
        <time>2025-08-04T14:54:26.000Z</time>
      </trkpt>
      <trkpt lat="42.8365" lon="2.48172">
        <ele>399.79998779297</ele>
        <time>2025-08-04T14:54:34.000Z</time>
      </trkpt>
      <trkpt lat="42.83664" lon="2.48179">
        <ele>399.60000610352</ele>
        <time>2025-08-04T14:54:42.000Z</time>
      </trkpt>
      <trkpt lat="42.83668" lon="2.48182">
        <ele>399.60000610352</ele>
        <time>2025-08-04T14:54:47.000Z</time>
      </trkpt>
      <trkpt lat="42.83673" lon="2.48185">
        <ele>399.79998779297</ele>
        <time>2025-08-04T14:55:06.000Z</time>
      </trkpt>
      <trkpt lat="42.83679" lon="2.48188">
        <ele>399.60000610352</ele>
        <time>2025-08-04T14:55:08.000Z</time>
      </trkpt>
      <trkpt lat="42.83694" lon="2.48191">
        <ele>400</ele>
        <time>2025-08-04T14:55:13.000Z</time>
      </trkpt>
      <trkpt lat="42.83704" lon="2.48189">
        <ele>400.20001220703</ele>
        <time>2025-08-04T14:55:16.000Z</time>
      </trkpt>
      <trkpt lat="42.83717" lon="2.48182">
        <ele>400.39999389648</ele>
        <time>2025-08-04T14:55:20.000Z</time>
      </trkpt>
      <trkpt lat="42.83729" lon="2.48175">
        <ele>400.39999389648</ele>
        <time>2025-08-04T14:55:24.000Z</time>
      </trkpt>
      <trkpt lat="42.83733" lon="2.48174">
        <ele>400.60000610352</ele>
        <time>2025-08-04T14:55:25.000Z</time>
      </trkpt>
      <trkpt lat="42.83745" lon="2.48173">
        <ele>400.60000610352</ele>
        <time>2025-08-04T14:55:29.000Z</time>
      </trkpt>
      <trkpt lat="42.83747" lon="2.48172">
        <ele>400.60000610352</ele>
        <time>2025-08-04T14:55:30.000Z</time>
      </trkpt>
      <trkpt lat="42.8375" lon="2.48171">
        <ele>400.60000610352</ele>
        <time>2025-08-04T14:55:31.000Z</time>
      </trkpt>
      <trkpt lat="42.83755" lon="2.48169">
        <ele>400.60000610352</ele>
        <time>2025-08-04T14:55:33.000Z</time>
      </trkpt>
      <trkpt lat="42.83758" lon="2.4817">
        <ele>400.79998779297</ele>
        <time>2025-08-04T14:55:35.000Z</time>
      </trkpt>
      <trkpt lat="42.8376" lon="2.48171">
        <ele>400.79998779297</ele>
        <time>2025-08-04T14:55:36.000Z</time>
      </trkpt>
      <trkpt lat="42.83806" lon="2.48157">
        <ele>401.39999389648</ele>
        <time>2025-08-04T14:55:47.000Z</time>
      </trkpt>
      <trkpt lat="42.83811" lon="2.48154">
        <ele>401.39999389648</ele>
        <time>2025-08-04T14:55:49.000Z</time>
      </trkpt>
      <trkpt lat="42.83813" lon="2.48154">
        <ele>401.39999389648</ele>
        <time>2025-08-04T14:55:52.000Z</time>
      </trkpt>
      <trkpt lat="42.83819" lon="2.48148">
        <ele>401.20001220703</ele>
        <time>2025-08-04T14:56:07.000Z</time>
      </trkpt>
      <trkpt lat="42.83823" lon="2.48144">
        <ele>401.20001220703</ele>
        <time>2025-08-04T14:56:10.000Z</time>
      </trkpt>
      <trkpt lat="42.83829" lon="2.48134">
        <ele>400.79998779297</ele>
        <time>2025-08-04T14:56:16.000Z</time>
      </trkpt>
      <trkpt lat="42.8383" lon="2.48132">
        <ele>400.79998779297</ele>
        <time>2025-08-04T14:56:20.000Z</time>
      </trkpt>
      <trkpt lat="42.83831" lon="2.48123">
        <ele>400.20001220703</ele>
        <time>2025-08-04T14:57:15.000Z</time>
      </trkpt>
      <trkpt lat="42.83838" lon="2.48116">
        <ele>400.39999389648</ele>
        <time>2025-08-04T14:57:20.000Z</time>
      </trkpt>
      <trkpt lat="42.83844" lon="2.481">
        <ele>400.39999389648</ele>
        <time>2025-08-04T14:57:25.000Z</time>
      </trkpt>
      <trkpt lat="42.83844" lon="2.4808">
        <ele>400.20001220703</ele>
        <time>2025-08-04T14:57:30.000Z</time>
      </trkpt>
      <trkpt lat="42.8384" lon="2.48061">
        <ele>400</ele>
        <time>2025-08-04T14:57:35.000Z</time>
      </trkpt>
      <trkpt lat="42.83836" lon="2.48029">
        <ele>400</ele>
        <time>2025-08-04T14:57:43.000Z</time>
      </trkpt>
      <trkpt lat="42.8384" lon="2.48005">
        <ele>400</ele>
        <time>2025-08-04T14:57:49.000Z</time>
      </trkpt>
      <trkpt lat="42.8385" lon="2.47988">
        <ele>399.79998779297</ele>
        <time>2025-08-04T14:57:54.000Z</time>
      </trkpt>
      <trkpt lat="42.83866" lon="2.47986">
        <ele>399.79998779297</ele>
        <time>2025-08-04T14:57:59.000Z</time>
      </trkpt>
      <trkpt lat="42.83882" lon="2.47985">
        <ele>399.79998779297</ele>
        <time>2025-08-04T14:58:04.000Z</time>
      </trkpt>
      <trkpt lat="42.83894" lon="2.47981">
        <ele>399.79998779297</ele>
        <time>2025-08-04T14:58:08.000Z</time>
      </trkpt>
      <trkpt lat="42.83898" lon="2.47982">
        <ele>399.79998779297</ele>
        <time>2025-08-04T14:58:10.000Z</time>
      </trkpt>
      <trkpt lat="42.83902" lon="2.47989">
        <ele>399.39999389648</ele>
        <time>2025-08-04T14:58:15.000Z</time>
      </trkpt>
      <trkpt lat="42.83902" lon="2.47989">
        <ele>399.39999389648</ele>
        <time>2025-08-04T14:58:16.000Z</time>
      </trkpt>
      <trkpt lat="42.83906" lon="2.47995">
        <ele>399</ele>
        <time>2025-08-04T14:58:47.000Z</time>
      </trkpt>
      <trkpt lat="42.83909" lon="2.47996">
        <ele>399.20001220703</ele>
        <time>2025-08-04T14:58:49.000Z</time>
      </trkpt>
      <trkpt lat="42.83915" lon="2.47995">
        <ele>399</ele>
        <time>2025-08-04T14:58:52.000Z</time>
      </trkpt>
      <trkpt lat="42.83919" lon="2.47993">
        <ele>399</ele>
        <time>2025-08-04T14:58:54.000Z</time>
      </trkpt>
      <trkpt lat="42.83933" lon="2.47986">
        <ele>398.79998779297</ele>
        <time>2025-08-04T14:59:01.000Z</time>
      </trkpt>
      <trkpt lat="42.83947" lon="2.47976">
        <ele>398.20001220703</ele>
        <time>2025-08-04T14:59:07.000Z</time>
      </trkpt>
      <trkpt lat="42.83954" lon="2.4797">
        <ele>398.20001220703</ele>
        <time>2025-08-04T14:59:10.000Z</time>
      </trkpt>
      <trkpt lat="42.83957" lon="2.47969">
        <ele>398.20001220703</ele>
        <time>2025-08-04T14:59:11.000Z</time>
      </trkpt>
      <trkpt lat="42.83977" lon="2.47965">
        <ele>397.79998779297</ele>
        <time>2025-08-04T14:59:19.000Z</time>
      </trkpt>
      <trkpt lat="42.83988" lon="2.4796">
        <ele>398</ele>
        <time>2025-08-04T14:59:23.000Z</time>
      </trkpt>
      <trkpt lat="42.83991" lon="2.47958">
        <ele>397.79998779297</ele>
        <time>2025-08-04T14:59:24.000Z</time>
      </trkpt>
      <trkpt lat="42.83998" lon="2.47955">
        <ele>397.60000610352</ele>
        <time>2025-08-04T14:59:29.000Z</time>
      </trkpt>
      <trkpt lat="42.83999" lon="2.47955">
        <ele>397.60000610352</ele>
        <time>2025-08-04T14:59:30.000Z</time>
      </trkpt>
      <trkpt lat="42.83999" lon="2.47955">
        <ele>397.60000610352</ele>
        <time>2025-08-04T14:59:35.000Z</time>
      </trkpt>
      <trkpt lat="42.84015" lon="2.47951">
        <ele>396.60000610352</ele>
        <time>2025-08-04T15:00:33.000Z</time>
      </trkpt>
      <trkpt lat="42.84025" lon="2.47949">
        <ele>396.79998779297</ele>
        <time>2025-08-04T15:00:37.000Z</time>
      </trkpt>
      <trkpt lat="42.84037" lon="2.47948">
        <ele>396.60000610352</ele>
        <time>2025-08-04T15:00:41.000Z</time>
      </trkpt>
      <trkpt lat="42.84039" lon="2.47945">
        <ele>396.60000610352</ele>
        <time>2025-08-04T15:00:42.000Z</time>
      </trkpt>
      <trkpt lat="42.84044" lon="2.47937">
        <ele>396.60000610352</ele>
        <time>2025-08-04T15:00:44.000Z</time>
      </trkpt>
      <trkpt lat="42.84049" lon="2.47936">
        <ele>396.79998779297</ele>
        <time>2025-08-04T15:00:46.000Z</time>
      </trkpt>
      <trkpt lat="42.84054" lon="2.47938">
        <ele>397</ele>
        <time>2025-08-04T15:00:48.000Z</time>
      </trkpt>
      <trkpt lat="42.84066" lon="2.47942">
        <ele>397.79998779297</ele>
        <time>2025-08-04T15:00:52.000Z</time>
      </trkpt>
      <trkpt lat="42.84069" lon="2.47942">
        <ele>398</ele>
        <time>2025-08-04T15:00:53.000Z</time>
      </trkpt>
      <trkpt lat="42.84092" lon="2.47948">
        <ele>398.20001220703</ele>
        <time>2025-08-04T15:01:00.000Z</time>
      </trkpt>
      <trkpt lat="42.84104" lon="2.47949">
        <ele>398</ele>
        <time>2025-08-04T15:01:05.000Z</time>
      </trkpt>
      <trkpt lat="42.84108" lon="2.47951">
        <ele>398</ele>
        <time>2025-08-04T15:01:07.000Z</time>
      </trkpt>
      <trkpt lat="42.84113" lon="2.47955">
        <ele>398</ele>
        <time>2025-08-04T15:01:09.000Z</time>
      </trkpt>
      <trkpt lat="42.84123" lon="2.47957">
        <ele>397.60000610352</ele>
        <time>2025-08-04T15:01:13.000Z</time>
      </trkpt>
      <trkpt lat="42.84147" lon="2.47956">
        <ele>397.39999389648</ele>
        <time>2025-08-04T15:01:20.000Z</time>
      </trkpt>
      <trkpt lat="42.84193" lon="2.47936">
        <ele>397.39999389648</ele>
        <time>2025-08-04T15:01:29.000Z</time>
      </trkpt>
      <trkpt lat="42.842" lon="2.47938">
        <ele>397</ele>
        <time>2025-08-04T15:01:32.000Z</time>
      </trkpt>
      <trkpt lat="42.84205" lon="2.47949">
        <ele>396.39999389648</ele>
        <time>2025-08-04T15:01:34.000Z</time>
      </trkpt>
      <trkpt lat="42.84207" lon="2.47955">
        <ele>396.20001220703</ele>
        <time>2025-08-04T15:01:35.000Z</time>
      </trkpt>
      <trkpt lat="42.8422" lon="2.47958">
        <ele>395.60000610352</ele>
        <time>2025-08-04T15:01:38.000Z</time>
      </trkpt>
      <trkpt lat="42.84237" lon="2.47956">
        <ele>394.79998779297</ele>
        <time>2025-08-04T15:01:42.000Z</time>
      </trkpt>
      <trkpt lat="42.84239" lon="2.47957">
        <ele>394.60000610352</ele>
        <time>2025-08-04T15:01:43.000Z</time>
      </trkpt>
      <trkpt lat="42.8424" lon="2.4796">
        <ele>393.79998779297</ele>
        <time>2025-08-04T15:01:45.000Z</time>
      </trkpt>
      <trkpt lat="42.8424" lon="2.4796">
        <ele>393.60000610352</ele>
        <time>2025-08-04T15:01:47.000Z</time>
      </trkpt>
      <trkpt lat="42.8424" lon="2.4796">
        <ele>393.39999389648</ele>
        <time>2025-08-04T15:01:48.000Z</time>
      </trkpt>
      <trkpt lat="42.8424" lon="2.4796">
        <ele>393.39999389648</ele>
        <time>2025-08-04T15:01:49.000Z</time>
      </trkpt>
      <trkpt lat="42.84242" lon="2.47966">
        <ele>392</ele>
        <time>2025-08-04T15:04:32.000Z</time>
      </trkpt>
      <trkpt lat="42.84247" lon="2.47972">
        <ele>392</ele>
        <time>2025-08-04T15:04:34.000Z</time>
      </trkpt>
      <trkpt lat="42.8426" lon="2.4798">
        <ele>391.79998779297</ele>
        <time>2025-08-04T15:04:39.000Z</time>
      </trkpt>
      <trkpt lat="42.84269" lon="2.47976">
        <ele>391.20001220703</ele>
        <time>2025-08-04T15:04:43.000Z</time>
      </trkpt>
      <trkpt lat="42.84275" lon="2.47973">
        <ele>390.79998779297</ele>
        <time>2025-08-04T15:04:47.000Z</time>
      </trkpt>
      <trkpt lat="42.84292" lon="2.47978">
        <ele>390.60000610352</ele>
        <time>2025-08-04T15:04:53.000Z</time>
      </trkpt>
      <trkpt lat="42.84299" lon="2.4798">
        <ele>390.60000610352</ele>
        <time>2025-08-04T15:04:55.000Z</time>
      </trkpt>
      <trkpt lat="42.84309" lon="2.47979">
        <ele>390.39999389648</ele>
        <time>2025-08-04T15:04:58.000Z</time>
      </trkpt>
      <trkpt lat="42.84322" lon="2.47977">
        <ele>390.20001220703</ele>
        <time>2025-08-04T15:05:02.000Z</time>
      </trkpt>
      <trkpt lat="42.8434" lon="2.47973">
        <ele>390</ele>
        <time>2025-08-04T15:05:07.000Z</time>
      </trkpt>
      <trkpt lat="42.84351" lon="2.47958">
        <ele>389.60000610352</ele>
        <time>2025-08-04T15:05:11.000Z</time>
      </trkpt>
      <trkpt lat="42.84368" lon="2.47925">
        <ele>388.39999389648</ele>
        <time>2025-08-04T15:05:18.000Z</time>
      </trkpt>
      <trkpt lat="42.84371" lon="2.47922">
        <ele>388.39999389648</ele>
        <time>2025-08-04T15:05:19.000Z</time>
      </trkpt>
      <trkpt lat="42.84374" lon="2.47918">
        <ele>388.39999389648</ele>
        <time>2025-08-04T15:05:20.000Z</time>
      </trkpt>
      <trkpt lat="42.84382" lon="2.47912">
        <ele>388.20001220703</ele>
        <time>2025-08-04T15:05:22.000Z</time>
      </trkpt>
      <trkpt lat="42.84387" lon="2.47909">
        <ele>388.20001220703</ele>
        <time>2025-08-04T15:05:23.000Z</time>
      </trkpt>
      <trkpt lat="42.8439" lon="2.47905">
        <ele>388</ele>
        <time>2025-08-04T15:05:24.000Z</time>
      </trkpt>
      <trkpt lat="42.84399" lon="2.47891">
        <ele>388</ele>
        <time>2025-08-04T15:05:27.000Z</time>
      </trkpt>
      <trkpt lat="42.84407" lon="2.47883">
        <ele>387.79998779297</ele>
        <time>2025-08-04T15:05:29.000Z</time>
      </trkpt>
      <trkpt lat="42.84414" lon="2.47876">
        <ele>387.39999389648</ele>
        <time>2025-08-04T15:05:31.000Z</time>
      </trkpt>
      <trkpt lat="42.84421" lon="2.47865">
        <ele>387</ele>
        <time>2025-08-04T15:05:33.000Z</time>
      </trkpt>
      <trkpt lat="42.8443" lon="2.47852">
        <ele>386.79998779297</ele>
        <time>2025-08-04T15:05:36.000Z</time>
      </trkpt>
      <trkpt lat="42.84433" lon="2.47849">
        <ele>386.79998779297</ele>
        <time>2025-08-04T15:05:37.000Z</time>
      </trkpt>
      <trkpt lat="42.84443" lon="2.47848">
        <ele>386.60000610352</ele>
        <time>2025-08-04T15:05:40.000Z</time>
      </trkpt>
      <trkpt lat="42.84465" lon="2.47854">
        <ele>386.39999389648</ele>
        <time>2025-08-04T15:05:46.000Z</time>
      </trkpt>
      <trkpt lat="42.84477" lon="2.47858">
        <ele>386.20001220703</ele>
        <time>2025-08-04T15:05:49.000Z</time>
      </trkpt>
      <trkpt lat="42.84491" lon="2.47856">
        <ele>386</ele>
        <time>2025-08-04T15:05:52.000Z</time>
      </trkpt>
      <trkpt lat="42.84495" lon="2.47855">
        <ele>386</ele>
        <time>2025-08-04T15:05:53.000Z</time>
      </trkpt>
      <trkpt lat="42.84506" lon="2.47845">
        <ele>386</ele>
        <time>2025-08-04T15:05:56.000Z</time>
      </trkpt>
      <trkpt lat="42.84515" lon="2.47833">
        <ele>386</ele>
        <time>2025-08-04T15:05:59.000Z</time>
      </trkpt>
      <trkpt lat="42.8452" lon="2.47825">
        <ele>386</ele>
        <time>2025-08-04T15:06:01.000Z</time>
      </trkpt>
      <trkpt lat="42.84536" lon="2.47819">
        <ele>385.60000610352</ele>
        <time>2025-08-04T15:06:05.000Z</time>
      </trkpt>
      <trkpt lat="42.8454" lon="2.4782">
        <ele>385.39999389648</ele>
        <time>2025-08-04T15:06:06.000Z</time>
      </trkpt>
      <trkpt lat="42.84552" lon="2.47818">
        <ele>385.20001220703</ele>
        <time>2025-08-04T15:06:09.000Z</time>
      </trkpt>
      <trkpt lat="42.84574" lon="2.47797">
        <ele>385</ele>
        <time>2025-08-04T15:06:15.000Z</time>
      </trkpt>
      <trkpt lat="42.84584" lon="2.47785">
        <ele>384.20001220703</ele>
        <time>2025-08-04T15:06:18.000Z</time>
      </trkpt>
      <trkpt lat="42.84587" lon="2.4778">
        <ele>384</ele>
        <time>2025-08-04T15:06:19.000Z</time>
      </trkpt>
      <trkpt lat="42.84595" lon="2.47768">
        <ele>383.79998779297</ele>
        <time>2025-08-04T15:06:22.000Z</time>
      </trkpt>
      <trkpt lat="42.84604" lon="2.47753">
        <ele>383</ele>
        <time>2025-08-04T15:06:26.000Z</time>
      </trkpt>
      <trkpt lat="42.84615" lon="2.47726">
        <ele>382.39999389648</ele>
        <time>2025-08-04T15:06:32.000Z</time>
      </trkpt>
      <trkpt lat="42.8462" lon="2.47707">
        <ele>382.20001220703</ele>
        <time>2025-08-04T15:06:37.000Z</time>
      </trkpt>
      <trkpt lat="42.84623" lon="2.47698">
        <ele>382.20001220703</ele>
        <time>2025-08-04T15:06:41.000Z</time>
      </trkpt>
      <trkpt lat="42.84629" lon="2.47682">
        <ele>382.39999389648</ele>
        <time>2025-08-04T15:06:47.000Z</time>
      </trkpt>
      <trkpt lat="42.84633" lon="2.47664">
        <ele>382.60000610352</ele>
        <time>2025-08-04T15:06:52.000Z</time>
      </trkpt>
      <trkpt lat="42.84634" lon="2.47643">
        <ele>383.39999389648</ele>
        <time>2025-08-04T15:06:58.000Z</time>
      </trkpt>
      <trkpt lat="42.84632" lon="2.47621">
        <ele>383.79998779297</ele>
        <time>2025-08-04T15:07:05.000Z</time>
      </trkpt>
      <trkpt lat="42.84632" lon="2.47615">
        <ele>384</ele>
        <time>2025-08-04T15:07:07.000Z</time>
      </trkpt>
      <trkpt lat="42.84632" lon="2.47607">
        <ele>384.39999389648</ele>
        <time>2025-08-04T15:07:10.000Z</time>
      </trkpt>
      <trkpt lat="42.84631" lon="2.47592">
        <ele>384.60000610352</ele>
        <time>2025-08-04T15:07:16.000Z</time>
      </trkpt>
      <trkpt lat="42.84631" lon="2.47576">
        <ele>384.79998779297</ele>
        <time>2025-08-04T15:07:23.000Z</time>
      </trkpt>
      <trkpt lat="42.84632" lon="2.47565">
        <ele>385</ele>
        <time>2025-08-04T15:07:27.000Z</time>
      </trkpt>
      <trkpt lat="42.84633" lon="2.4756">
        <ele>385.20001220703</ele>
        <time>2025-08-04T15:07:29.000Z</time>
      </trkpt>
      <trkpt lat="42.84643" lon="2.47534">
        <ele>385.60000610352</ele>
        <time>2025-08-04T15:07:38.000Z</time>
      </trkpt>
      <trkpt lat="42.84646" lon="2.47531">
        <ele>385.79998779297</ele>
        <time>2025-08-04T15:07:40.000Z</time>
      </trkpt>
      <trkpt lat="42.84649" lon="2.47526">
        <ele>386.20001220703</ele>
        <time>2025-08-04T15:07:44.000Z</time>
      </trkpt>
      <trkpt lat="42.84657" lon="2.47517">
        <ele>386.39999389648</ele>
        <time>2025-08-04T15:07:49.000Z</time>
      </trkpt>
      <trkpt lat="42.84659" lon="2.47517">
        <ele>386.39999389648</ele>
        <time>2025-08-04T15:07:50.000Z</time>
      </trkpt>
      <trkpt lat="42.84661" lon="2.47513">
        <ele>386.60000610352</ele>
        <time>2025-08-04T15:07:52.000Z</time>
      </trkpt>
      <trkpt lat="42.84667" lon="2.47504">
        <ele>386.79998779297</ele>
        <time>2025-08-04T15:07:56.000Z</time>
      </trkpt>
      <trkpt lat="42.84669" lon="2.475">
        <ele>386.79998779297</ele>
        <time>2025-08-04T15:07:58.000Z</time>
      </trkpt>
      <trkpt lat="42.84673" lon="2.47493">
        <ele>387</ele>
        <time>2025-08-04T15:08:01.000Z</time>
      </trkpt>
      <trkpt lat="42.84674" lon="2.47492">
        <ele>387.20001220703</ele>
        <time>2025-08-04T15:08:02.000Z</time>
      </trkpt>
      <trkpt lat="42.84681" lon="2.47483">
        <ele>387.39999389648</ele>
        <time>2025-08-04T15:08:07.000Z</time>
      </trkpt>
      <trkpt lat="42.84685" lon="2.47475">
        <ele>387.60000610352</ele>
        <time>2025-08-04T15:08:11.000Z</time>
      </trkpt>
      <trkpt lat="42.84685" lon="2.47471">
        <ele>387.79998779297</ele>
        <time>2025-08-04T15:08:13.000Z</time>
      </trkpt>
      <trkpt lat="42.84686" lon="2.47462">
        <ele>387.79998779297</ele>
        <time>2025-08-04T15:08:16.000Z</time>
      </trkpt>
      <trkpt lat="42.84686" lon="2.47451">
        <ele>388</ele>
        <time>2025-08-04T15:08:20.000Z</time>
      </trkpt>
      <trkpt lat="42.84687" lon="2.47426">
        <ele>388</ele>
        <time>2025-08-04T15:08:30.000Z</time>
      </trkpt>
      <trkpt lat="42.84686" lon="2.47414">
        <ele>388.20001220703</ele>
        <time>2025-08-04T15:08:34.000Z</time>
      </trkpt>
      <trkpt lat="42.84687" lon="2.47408">
        <ele>388.39999389648</ele>
        <time>2025-08-04T15:08:36.000Z</time>
      </trkpt>
      <trkpt lat="42.84687" lon="2.47393">
        <ele>388.60000610352</ele>
        <time>2025-08-04T15:08:41.000Z</time>
      </trkpt>
      <trkpt lat="42.84688" lon="2.47388">
        <ele>388.79998779297</ele>
        <time>2025-08-04T15:08:45.000Z</time>
      </trkpt>
      <trkpt lat="42.84688" lon="2.47388">
        <ele>389</ele>
        <time>2025-08-04T15:08:46.000Z</time>
      </trkpt>
      <trkpt lat="42.84714" lon="2.47332">
        <ele>389.39999389648</ele>
        <time>2025-08-04T15:50:53.000Z</time>
      </trkpt>
      <trkpt lat="42.84697" lon="2.47391">
        <ele>388.39999389648</ele>
        <time>2025-08-04T15:50:58.000Z</time>
      </trkpt>
      <trkpt lat="42.84688" lon="2.47389">
        <ele>388.79998779297</ele>
        <time>2025-08-04T15:52:26.000Z</time>
      </trkpt>
      <trkpt lat="42.84688" lon="2.47386">
        <ele>388.79998779297</ele>
        <time>2025-08-04T15:52:27.000Z</time>
      </trkpt>
      <trkpt lat="42.84688" lon="2.4738">
        <ele>388.79998779297</ele>
        <time>2025-08-04T15:52:29.000Z</time>
      </trkpt>
      <trkpt lat="42.84687" lon="2.47372">
        <ele>388.79998779297</ele>
        <time>2025-08-04T15:52:32.000Z</time>
      </trkpt>
      <trkpt lat="42.84687" lon="2.47353">
        <ele>389.20001220703</ele>
        <time>2025-08-04T15:52:39.000Z</time>
      </trkpt>
      <trkpt lat="42.84686" lon="2.47338">
        <ele>389.39999389648</ele>
        <time>2025-08-04T15:52:44.000Z</time>
      </trkpt>
      <trkpt lat="42.84685" lon="2.47319">
        <ele>389.39999389648</ele>
        <time>2025-08-04T15:52:51.000Z</time>
      </trkpt>
      <trkpt lat="42.84684" lon="2.4731">
        <ele>389.39999389648</ele>
        <time>2025-08-04T15:52:54.000Z</time>
      </trkpt>
      <trkpt lat="42.84684" lon="2.47301">
        <ele>389.60000610352</ele>
        <time>2025-08-04T15:52:57.000Z</time>
      </trkpt>
      <trkpt lat="42.84681" lon="2.47289">
        <ele>389.79998779297</ele>
        <time>2025-08-04T15:53:01.000Z</time>
      </trkpt>
      <trkpt lat="42.8468" lon="2.47284">
        <ele>390</ele>
        <time>2025-08-04T15:53:03.000Z</time>
      </trkpt>
      <trkpt lat="42.84675" lon="2.47268">
        <ele>390.60000610352</ele>
        <time>2025-08-04T15:53:08.000Z</time>
      </trkpt>
      <trkpt lat="42.84672" lon="2.47256">
        <ele>391.20001220703</ele>
        <time>2025-08-04T15:53:12.000Z</time>
      </trkpt>
      <trkpt lat="42.8467" lon="2.47252">
        <ele>391.39999389648</ele>
        <time>2025-08-04T15:53:14.000Z</time>
      </trkpt>
      <trkpt lat="42.84668" lon="2.47232">
        <ele>392.20001220703</ele>
        <time>2025-08-04T15:53:21.000Z</time>
      </trkpt>
      <trkpt lat="42.84667" lon="2.47229">
        <ele>392.20001220703</ele>
        <time>2025-08-04T15:53:22.000Z</time>
      </trkpt>
      <trkpt lat="42.84655" lon="2.47214">
        <ele>392.79998779297</ele>
        <time>2025-08-04T15:53:28.000Z</time>
      </trkpt>
      <trkpt lat="42.84647" lon="2.47208">
        <ele>393.20001220703</ele>
        <time>2025-08-04T15:53:32.000Z</time>
      </trkpt>
      <trkpt lat="42.84645" lon="2.47206">
        <ele>393.39999389648</ele>
        <time>2025-08-04T15:53:33.000Z</time>
      </trkpt>
      <trkpt lat="42.84634" lon="2.47191">
        <ele>394</ele>
        <time>2025-08-04T15:53:39.000Z</time>
      </trkpt>
      <trkpt lat="42.84626" lon="2.47178">
        <ele>394.20001220703</ele>
        <time>2025-08-04T15:53:44.000Z</time>
      </trkpt>
      <trkpt lat="42.84624" lon="2.47172">
        <ele>394.39999389648</ele>
        <time>2025-08-04T15:53:46.000Z</time>
      </trkpt>
      <trkpt lat="42.8462" lon="2.47149">
        <ele>395</ele>
        <time>2025-08-04T15:53:52.000Z</time>
      </trkpt>
      <trkpt lat="42.84613" lon="2.47133">
        <ele>395.39999389648</ele>
        <time>2025-08-04T15:53:57.000Z</time>
      </trkpt>
      <trkpt lat="42.8461" lon="2.4713">
        <ele>395.60000610352</ele>
        <time>2025-08-04T15:53:58.000Z</time>
      </trkpt>
      <trkpt lat="42.846" lon="2.47123">
        <ele>395.79998779297</ele>
        <time>2025-08-04T15:54:01.000Z</time>
      </trkpt>
      <trkpt lat="42.84596" lon="2.47121">
        <ele>395.79998779297</ele>
        <time>2025-08-04T15:54:02.000Z</time>
      </trkpt>
      <trkpt lat="42.84591" lon="2.47113">
        <ele>396</ele>
        <time>2025-08-04T15:54:05.000Z</time>
      </trkpt>
      <trkpt lat="42.84597" lon="2.47094">
        <ele>396.39999389648</ele>
        <time>2025-08-04T15:54:10.000Z</time>
      </trkpt>
      <trkpt lat="42.84597" lon="2.4709">
        <ele>396.39999389648</ele>
        <time>2025-08-04T15:54:11.000Z</time>
      </trkpt>
      <trkpt lat="42.84595" lon="2.47081">
        <ele>396.39999389648</ele>
        <time>2025-08-04T15:54:14.000Z</time>
      </trkpt>
      <trkpt lat="42.84594" lon="2.47075">
        <ele>396.60000610352</ele>
        <time>2025-08-04T15:54:16.000Z</time>
      </trkpt>
      <trkpt lat="42.8461" lon="2.47054">
        <ele>397</ele>
        <time>2025-08-04T15:54:22.000Z</time>
      </trkpt>
      <trkpt lat="42.8461" lon="2.4705">
        <ele>397</ele>
        <time>2025-08-04T15:54:23.000Z</time>
      </trkpt>
      <trkpt lat="42.84608" lon="2.47036">
        <ele>397.39999389648</ele>
        <time>2025-08-04T15:54:27.000Z</time>
      </trkpt>
      <trkpt lat="42.84609" lon="2.47019">
        <ele>398</ele>
        <time>2025-08-04T15:54:32.000Z</time>
      </trkpt>
      <trkpt lat="42.84617" lon="2.46999">
        <ele>398.20001220703</ele>
        <time>2025-08-04T15:54:38.000Z</time>
      </trkpt>
      <trkpt lat="42.84623" lon="2.46991">
        <ele>398.60000610352</ele>
        <time>2025-08-04T15:54:41.000Z</time>
      </trkpt>
      <trkpt lat="42.84634" lon="2.46979">
        <ele>399.20001220703</ele>
        <time>2025-08-04T15:54:46.000Z</time>
      </trkpt>
      <trkpt lat="42.84642" lon="2.46973">
        <ele>399.60000610352</ele>
        <time>2025-08-04T15:54:49.000Z</time>
      </trkpt>
      <trkpt lat="42.84645" lon="2.4697">
        <ele>399.60000610352</ele>
        <time>2025-08-04T15:54:51.000Z</time>
      </trkpt>
      <trkpt lat="42.84649" lon="2.46967">
        <ele>399.60000610352</ele>
        <time>2025-08-04T15:54:53.000Z</time>
      </trkpt>
      <trkpt lat="42.84654" lon="2.46963">
        <ele>400</ele>
        <time>2025-08-04T15:54:56.000Z</time>
      </trkpt>
      <trkpt lat="42.84662" lon="2.46957">
        <ele>400.60000610352</ele>
        <time>2025-08-04T15:55:00.000Z</time>
      </trkpt>
      <trkpt lat="42.84665" lon="2.46954">
        <ele>400.79998779297</ele>
        <time>2025-08-04T15:55:02.000Z</time>
      </trkpt>
      <trkpt lat="42.84677" lon="2.46941">
        <ele>401</ele>
        <time>2025-08-04T15:55:09.000Z</time>
      </trkpt>
      <trkpt lat="42.84689" lon="2.46929">
        <ele>401.60000610352</ele>
        <time>2025-08-04T15:55:16.000Z</time>
      </trkpt>
      <trkpt lat="42.84703" lon="2.46908">
        <ele>402.20001220703</ele>
        <time>2025-08-04T15:55:25.000Z</time>
      </trkpt>
      <trkpt lat="42.84712" lon="2.46892">
        <ele>402.60000610352</ele>
        <time>2025-08-04T15:55:33.000Z</time>
      </trkpt>
      <trkpt lat="42.84713" lon="2.4689">
        <ele>402.79998779297</ele>
        <time>2025-08-04T15:55:34.000Z</time>
      </trkpt>
      <trkpt lat="42.84722" lon="2.46873">
        <ele>403.20001220703</ele>
        <time>2025-08-04T15:55:41.000Z</time>
      </trkpt>
      <trkpt lat="42.84728" lon="2.46859">
        <ele>403.60000610352</ele>
        <time>2025-08-04T15:55:47.000Z</time>
      </trkpt>
      <trkpt lat="42.8473" lon="2.46855">
        <ele>403.79998779297</ele>
        <time>2025-08-04T15:55:49.000Z</time>
      </trkpt>
      <trkpt lat="42.84734" lon="2.46837">
        <ele>404.39999389648</ele>
        <time>2025-08-04T15:55:57.000Z</time>
      </trkpt>
      <trkpt lat="42.84738" lon="2.46826">
        <ele>404.79998779297</ele>
        <time>2025-08-04T15:56:01.000Z</time>
      </trkpt>
      <trkpt lat="42.84743" lon="2.46815">
        <ele>405</ele>
        <time>2025-08-04T15:56:05.000Z</time>
      </trkpt>
      <trkpt lat="42.84757" lon="2.46801">
        <ele>406</ele>
        <time>2025-08-04T15:56:13.000Z</time>
      </trkpt>
      <trkpt lat="42.84769" lon="2.46807">
        <ele>406.39999389648</ele>
        <time>2025-08-04T15:56:18.000Z</time>
      </trkpt>
      <trkpt lat="42.84781" lon="2.46829">
        <ele>407</ele>
        <time>2025-08-04T15:56:26.000Z</time>
      </trkpt>
      <trkpt lat="42.84784" lon="2.46837">
        <ele>407.39999389648</ele>
        <time>2025-08-04T15:56:29.000Z</time>
      </trkpt>
      <trkpt lat="42.8479" lon="2.46847">
        <ele>407.79998779297</ele>
        <time>2025-08-04T15:56:33.000Z</time>
      </trkpt>
      <trkpt lat="42.84802" lon="2.46859">
        <ele>408.20001220703</ele>
        <time>2025-08-04T15:56:39.000Z</time>
      </trkpt>
      <trkpt lat="42.84805" lon="2.46864">
        <ele>408.39999389648</ele>
        <time>2025-08-04T15:56:41.000Z</time>
      </trkpt>
      <trkpt lat="42.8481" lon="2.46874">
        <ele>408.60000610352</ele>
        <time>2025-08-04T15:56:46.000Z</time>
      </trkpt>
      <trkpt lat="42.84811" lon="2.46876">
        <ele>408.60000610352</ele>
        <time>2025-08-04T15:56:47.000Z</time>
      </trkpt>
      <trkpt lat="42.84819" lon="2.46896">
        <ele>408.60000610352</ele>
        <time>2025-08-04T15:56:54.000Z</time>
      </trkpt>
      <trkpt lat="42.8482" lon="2.46918">
        <ele>409</ele>
        <time>2025-08-04T15:57:01.000Z</time>
      </trkpt>
      <trkpt lat="42.84819" lon="2.46929">
        <ele>409.20001220703</ele>
        <time>2025-08-04T15:57:04.000Z</time>
      </trkpt>
      <trkpt lat="42.84816" lon="2.46952">
        <ele>409.79998779297</ele>
        <time>2025-08-04T15:57:11.000Z</time>
      </trkpt>
      <trkpt lat="42.84812" lon="2.4697">
        <ele>410.20001220703</ele>
        <time>2025-08-04T15:57:17.000Z</time>
      </trkpt>
      <trkpt lat="42.84809" lon="2.4698">
        <ele>410.60000610352</ele>
        <time>2025-08-04T15:57:21.000Z</time>
      </trkpt>
      <trkpt lat="42.84808" lon="2.46984">
        <ele>410.79998779297</ele>
        <time>2025-08-04T15:57:22.000Z</time>
      </trkpt>
      <trkpt lat="42.84806" lon="2.46993">
        <ele>411.20001220703</ele>
        <time>2025-08-04T15:57:25.000Z</time>
      </trkpt>
      <trkpt lat="42.84804" lon="2.47009">
        <ele>412</ele>
        <time>2025-08-04T15:57:30.000Z</time>
      </trkpt>
      <trkpt lat="42.84804" lon="2.47016">
        <ele>412.39999389648</ele>
        <time>2025-08-04T15:57:32.000Z</time>
      </trkpt>
      <trkpt lat="42.84804" lon="2.4703">
        <ele>412.79998779297</ele>
        <time>2025-08-04T15:57:36.000Z</time>
      </trkpt>
      <trkpt lat="42.84804" lon="2.47049">
        <ele>413.20001220703</ele>
        <time>2025-08-04T15:57:42.000Z</time>
      </trkpt>
      <trkpt lat="42.84806" lon="2.47058">
        <ele>413.39999389648</ele>
        <time>2025-08-04T15:57:45.000Z</time>
      </trkpt>
      <trkpt lat="42.84809" lon="2.47067">
        <ele>413.60000610352</ele>
        <time>2025-08-04T15:57:48.000Z</time>
      </trkpt>
      <trkpt lat="42.84818" lon="2.47087">
        <ele>413.79998779297</ele>
        <time>2025-08-04T15:57:56.000Z</time>
      </trkpt>
      <trkpt lat="42.84835" lon="2.47099">
        <ele>414.39999389648</ele>
        <time>2025-08-04T15:58:04.000Z</time>
      </trkpt>
      <trkpt lat="42.8485" lon="2.47108">
        <ele>415.20001220703</ele>
        <time>2025-08-04T15:58:11.000Z</time>
      </trkpt>
      <trkpt lat="42.8486" lon="2.47111">
        <ele>415.60000610352</ele>
        <time>2025-08-04T15:58:15.000Z</time>
      </trkpt>
      <trkpt lat="42.8487" lon="2.47118">
        <ele>415.60000610352</ele>
        <time>2025-08-04T15:58:20.000Z</time>
      </trkpt>
      <trkpt lat="42.84891" lon="2.47129">
        <ele>415.79998779297</ele>
        <time>2025-08-04T15:58:29.000Z</time>
      </trkpt>
      <trkpt lat="42.84907" lon="2.47137">
        <ele>416.20001220703</ele>
        <time>2025-08-04T15:58:36.000Z</time>
      </trkpt>
      <trkpt lat="42.84922" lon="2.47136">
        <ele>416.60000610352</ele>
        <time>2025-08-04T15:58:43.000Z</time>
      </trkpt>
      <trkpt lat="42.84924" lon="2.47135">
        <ele>416.60000610352</ele>
        <time>2025-08-04T15:58:44.000Z</time>
      </trkpt>
      <trkpt lat="42.84938" lon="2.47125">
        <ele>416.79998779297</ele>
        <time>2025-08-04T15:58:51.000Z</time>
      </trkpt>
      <trkpt lat="42.84952" lon="2.47108">
        <ele>417.60000610352</ele>
        <time>2025-08-04T15:58:59.000Z</time>
      </trkpt>
      <trkpt lat="42.84964" lon="2.47096">
        <ele>418</ele>
        <time>2025-08-04T15:59:05.000Z</time>
      </trkpt>
      <trkpt lat="42.8498" lon="2.47072">
        <ele>418.39999389648</ele>
        <time>2025-08-04T15:59:14.000Z</time>
      </trkpt>
      <trkpt lat="42.84994" lon="2.47056">
        <ele>418.79998779297</ele>
        <time>2025-08-04T15:59:21.000Z</time>
      </trkpt>
      <trkpt lat="42.84996" lon="2.47055">
        <ele>418.79998779297</ele>
        <time>2025-08-04T15:59:22.000Z</time>
      </trkpt>
      <trkpt lat="42.85019" lon="2.47038">
        <ele>419.39999389648</ele>
        <time>2025-08-04T15:59:32.000Z</time>
      </trkpt>
      <trkpt lat="42.85036" lon="2.47027">
        <ele>419.60000610352</ele>
        <time>2025-08-04T15:59:39.000Z</time>
      </trkpt>
      <trkpt lat="42.85055" lon="2.47016">
        <ele>419.79998779297</ele>
        <time>2025-08-04T15:59:46.000Z</time>
      </trkpt>
      <trkpt lat="42.85071" lon="2.47016">
        <ele>420.60000610352</ele>
        <time>2025-08-04T15:59:53.000Z</time>
      </trkpt>
      <trkpt lat="42.85076" lon="2.4702">
        <ele>421</ele>
        <time>2025-08-04T15:59:55.000Z</time>
      </trkpt>
      <trkpt lat="42.85089" lon="2.4703">
        <ele>422</ele>
        <time>2025-08-04T16:00:01.000Z</time>
      </trkpt>
      <trkpt lat="42.85094" lon="2.47034">
        <ele>422.20001220703</ele>
        <time>2025-08-04T16:00:03.000Z</time>
      </trkpt>
      <trkpt lat="42.85113" lon="2.47043">
        <ele>422.60000610352</ele>
        <time>2025-08-04T16:00:10.000Z</time>
      </trkpt>
      <trkpt lat="42.85136" lon="2.47043">
        <ele>422.60000610352</ele>
        <time>2025-08-04T16:00:18.000Z</time>
      </trkpt>
      <trkpt lat="42.8515" lon="2.47039">
        <ele>422.60000610352</ele>
        <time>2025-08-04T16:00:24.000Z</time>
      </trkpt>
      <trkpt lat="42.85169" lon="2.47037">
        <ele>423.20001220703</ele>
        <time>2025-08-04T16:00:31.000Z</time>
      </trkpt>
      <trkpt lat="42.85171" lon="2.47037">
        <ele>423.20001220703</ele>
        <time>2025-08-04T16:00:32.000Z</time>
      </trkpt>
      <trkpt lat="42.85197" lon="2.47038">
        <ele>424</ele>
        <time>2025-08-04T16:00:41.000Z</time>
      </trkpt>
      <trkpt lat="42.85217" lon="2.47034">
        <ele>424.39999389648</ele>
        <time>2025-08-04T16:00:49.000Z</time>
      </trkpt>
      <trkpt lat="42.85229" lon="2.47025">
        <ele>424.60000610352</ele>
        <time>2025-08-04T16:00:54.000Z</time>
      </trkpt>
      <trkpt lat="42.85243" lon="2.47012">
        <ele>425</ele>
        <time>2025-08-04T16:01:00.000Z</time>
      </trkpt>
      <trkpt lat="42.85246" lon="2.47006">
        <ele>425.20001220703</ele>
        <time>2025-08-04T16:01:04.000Z</time>
      </trkpt>
      <trkpt lat="42.85246" lon="2.47006">
        <ele>425.20001220703</ele>
        <time>2025-08-04T16:01:05.000Z</time>
      </trkpt>
      <trkpt lat="42.85248" lon="2.46998">
        <ele>425.20001220703</ele>
        <time>2025-08-04T16:01:10.000Z</time>
      </trkpt>
      <trkpt lat="42.85249" lon="2.46991">
        <ele>425.39999389648</ele>
        <time>2025-08-04T16:01:12.000Z</time>
      </trkpt>
      <trkpt lat="42.85255" lon="2.46966">
        <ele>425</ele>
        <time>2025-08-04T16:01:19.000Z</time>
      </trkpt>
      <trkpt lat="42.85259" lon="2.46947">
        <ele>425</ele>
        <time>2025-08-04T16:01:25.000Z</time>
      </trkpt>
      <trkpt lat="42.85258" lon="2.46943">
        <ele>425</ele>
        <time>2025-08-04T16:01:26.000Z</time>
      </trkpt>
      <trkpt lat="42.85254" lon="2.46941">
        <ele>425.20001220703</ele>
        <time>2025-08-04T16:01:28.000Z</time>
      </trkpt>
      <trkpt lat="42.85251" lon="2.46946">
        <ele>425.20001220703</ele>
        <time>2025-08-04T16:01:30.000Z</time>
      </trkpt>
      <trkpt lat="42.85249" lon="2.46953">
        <ele>425.20001220703</ele>
        <time>2025-08-04T16:01:32.000Z</time>
      </trkpt>
      <trkpt lat="42.85243" lon="2.46968">
        <ele>424.39999389648</ele>
        <time>2025-08-04T16:01:37.000Z</time>
      </trkpt>
      <trkpt lat="42.85236" lon="2.46964">
        <ele>423.79998779297</ele>
        <time>2025-08-04T16:01:40.000Z</time>
      </trkpt>
      <trkpt lat="42.85234" lon="2.46963">
        <ele>423.39999389648</ele>
        <time>2025-08-04T16:01:41.000Z</time>
      </trkpt>
      <trkpt lat="42.85231" lon="2.46961">
        <ele>422.79998779297</ele>
        <time>2025-08-04T16:01:43.000Z</time>
      </trkpt>
      <trkpt lat="42.85228" lon="2.4696">
        <ele>422</ele>
        <time>2025-08-04T16:01:46.000Z</time>
      </trkpt>
      <trkpt lat="42.85226" lon="2.46958">
        <ele>421.60000610352</ele>
        <time>2025-08-04T16:01:48.000Z</time>
      </trkpt>
      <trkpt lat="42.85221" lon="2.46955">
        <ele>421</ele>
        <time>2025-08-04T16:01:52.000Z</time>
      </trkpt>
      <trkpt lat="42.85221" lon="2.46956">
        <ele>420.79998779297</ele>
        <time>2025-08-04T16:01:53.000Z</time>
      </trkpt>
      <trkpt lat="42.8522" lon="2.4696">
        <ele>420.60000610352</ele>
        <time>2025-08-04T16:01:56.000Z</time>
      </trkpt>
      <trkpt lat="42.8522" lon="2.46963">
        <ele>420.79998779297</ele>
        <time>2025-08-04T16:01:58.000Z</time>
      </trkpt>
      <trkpt lat="42.85218" lon="2.46966">
        <ele>420.60000610352</ele>
        <time>2025-08-04T16:02:03.000Z</time>
      </trkpt>
      <trkpt lat="42.85217" lon="2.46966">
        <ele>420.60000610352</ele>
        <time>2025-08-04T16:02:05.000Z</time>
        <extensions>
          <visugpx:TrkExtension xmlns:visugpx="https://www.visugpx.com/editgpx/">
            <visugpx:node>1</visugpx:node>
            </visugpx:TrkExtension>
        </extensions>
      </trkpt>
      <trkpt lat="42.85255" lon="2.4694">
        <ele>423.39999389648</ele>
        <time>2025-08-05T08:47:06.000Z</time>
      </trkpt>
      <trkpt lat="42.85259" lon="2.46936">
        <ele>419.39999389648</ele>
        <time>2025-08-05T08:47:13.000Z</time>
      </trkpt>
      <trkpt lat="42.85258" lon="2.46932">
        <ele>419.39999389648</ele>
        <time>2025-08-05T08:47:17.000Z</time>
      </trkpt>
      <trkpt lat="42.85259" lon="2.46928">
        <ele>419.39999389648</ele>
        <time>2025-08-05T08:47:19.000Z</time>
      </trkpt>
      <trkpt lat="42.85261" lon="2.46916">
        <ele>419.60000610352</ele>
        <time>2025-08-05T08:47:24.000Z</time>
      </trkpt>
      <trkpt lat="42.85262" lon="2.46902">
        <ele>420</ele>
        <time>2025-08-05T08:47:29.000Z</time>
      </trkpt>
      <trkpt lat="42.85264" lon="2.46895">
        <ele>420.39999389648</ele>
        <time>2025-08-05T08:47:32.000Z</time>
      </trkpt>
      <trkpt lat="42.85269" lon="2.46867">
        <ele>421</ele>
        <time>2025-08-05T08:47:41.000Z</time>
      </trkpt>
      <trkpt lat="42.85275" lon="2.46843">
        <ele>421.39999389648</ele>
        <time>2025-08-05T08:47:49.000Z</time>
      </trkpt>
      <trkpt lat="42.85281" lon="2.46816">
        <ele>422</ele>
        <time>2025-08-05T08:47:57.000Z</time>
      </trkpt>
      <trkpt lat="42.85282" lon="2.46806">
        <ele>422.20001220703</ele>
        <time>2025-08-05T08:48:00.000Z</time>
      </trkpt>
      <trkpt lat="42.85285" lon="2.46791">
        <ele>422.60000610352</ele>
        <time>2025-08-05T08:48:05.000Z</time>
      </trkpt>
      <trkpt lat="42.8529" lon="2.4677">
        <ele>423.20001220703</ele>
        <time>2025-08-05T08:48:12.000Z</time>
      </trkpt>
      <trkpt lat="42.85291" lon="2.46763">
        <ele>423</ele>
        <time>2025-08-05T08:48:14.000Z</time>
      </trkpt>
      <trkpt lat="42.85297" lon="2.46735">
        <ele>423.39999389648</ele>
        <time>2025-08-05T08:48:23.000Z</time>
      </trkpt>
      <trkpt lat="42.853" lon="2.46723">
        <ele>424</ele>
        <time>2025-08-05T08:48:27.000Z</time>
      </trkpt>
      <trkpt lat="42.85302" lon="2.46709">
        <ele>424.39999389648</ele>
        <time>2025-08-05T08:48:31.000Z</time>
      </trkpt>
      <trkpt lat="42.85308" lon="2.46689">
        <ele>425</ele>
        <time>2025-08-05T08:48:38.000Z</time>
      </trkpt>
      <trkpt lat="42.85309" lon="2.46686">
        <ele>425</ele>
        <time>2025-08-05T08:48:39.000Z</time>
      </trkpt>
      <trkpt lat="42.85313" lon="2.46673">
        <ele>425.20001220703</ele>
        <time>2025-08-05T08:48:43.000Z</time>
      </trkpt>
      <trkpt lat="42.85328" lon="2.46651">
        <ele>426</ele>
        <time>2025-08-05T08:48:51.000Z</time>
      </trkpt>
      <trkpt lat="42.85333" lon="2.46648">
        <ele>426</ele>
        <time>2025-08-05T08:48:53.000Z</time>
      </trkpt>
      <trkpt lat="42.8534" lon="2.46646">
        <ele>426</ele>
        <time>2025-08-05T08:48:56.000Z</time>
      </trkpt>
      <trkpt lat="42.85369" lon="2.46644">
        <ele>425.79998779297</ele>
        <time>2025-08-05T08:49:07.000Z</time>
      </trkpt>
      <trkpt lat="42.85387" lon="2.46632">
        <ele>426</ele>
        <time>2025-08-05T08:49:15.000Z</time>
      </trkpt>
      <trkpt lat="42.85403" lon="2.46616">
        <ele>426.60000610352</ele>
        <time>2025-08-05T08:49:22.000Z</time>
      </trkpt>
      <trkpt lat="42.85419" lon="2.46599">
        <ele>427.20001220703</ele>
        <time>2025-08-05T08:49:30.000Z</time>
      </trkpt>
      <trkpt lat="42.85421" lon="2.46597">
        <ele>427.20001220703</ele>
        <time>2025-08-05T08:49:31.000Z</time>
      </trkpt>
      <trkpt lat="42.85438" lon="2.46578">
        <ele>428</ele>
        <time>2025-08-05T08:49:39.000Z</time>
      </trkpt>
      <trkpt lat="42.8544" lon="2.46576">
        <ele>428.20001220703</ele>
        <time>2025-08-05T08:49:40.000Z</time>
      </trkpt>
      <trkpt lat="42.85468" lon="2.46543">
        <ele>429.20001220703</ele>
        <time>2025-08-05T08:49:54.000Z</time>
      </trkpt>
      <trkpt lat="42.85491" lon="2.46515">
        <ele>430.20001220703</ele>
        <time>2025-08-05T08:50:05.000Z</time>
      </trkpt>
      <trkpt lat="42.85516" lon="2.46492">
        <ele>431</ele>
        <time>2025-08-05T08:50:17.000Z</time>
      </trkpt>
      <trkpt lat="42.85525" lon="2.46484">
        <ele>431.20001220703</ele>
        <time>2025-08-05T08:50:21.000Z</time>
      </trkpt>
      <trkpt lat="42.85536" lon="2.46474">
        <ele>431.60000610352</ele>
        <time>2025-08-05T08:50:26.000Z</time>
      </trkpt>
      <trkpt lat="42.85558" lon="2.46461">
        <ele>432.20001220703</ele>
        <time>2025-08-05T08:50:35.000Z</time>
      </trkpt>
      <trkpt lat="42.85563" lon="2.4646">
        <ele>432.39999389648</ele>
        <time>2025-08-05T08:50:37.000Z</time>
      </trkpt>
      <trkpt lat="42.85573" lon="2.4646">
        <ele>432.20001220703</ele>
        <time>2025-08-05T08:50:41.000Z</time>
      </trkpt>
      <trkpt lat="42.8559" lon="2.4645">
        <ele>432.20001220703</ele>
        <time>2025-08-05T08:50:48.000Z</time>
      </trkpt>
      <trkpt lat="42.85609" lon="2.46428">
        <ele>433.39999389648</ele>
        <time>2025-08-05T08:50:57.000Z</time>
      </trkpt>
      <trkpt lat="42.8561" lon="2.46426">
        <ele>433.60000610352</ele>
        <time>2025-08-05T08:50:58.000Z</time>
      </trkpt>
      <trkpt lat="42.85625" lon="2.46399">
        <ele>434.20001220703</ele>
        <time>2025-08-05T08:51:07.000Z</time>
      </trkpt>
      <trkpt lat="42.85632" lon="2.46386">
        <ele>434.39999389648</ele>
        <time>2025-08-05T08:51:11.000Z</time>
      </trkpt>
      <trkpt lat="42.85641" lon="2.46367">
        <ele>434.60000610352</ele>
        <time>2025-08-05T08:51:17.000Z</time>
      </trkpt>
      <trkpt lat="42.85653" lon="2.46342">
        <ele>435.20001220703</ele>
        <time>2025-08-05T08:51:25.000Z</time>
      </trkpt>
      <trkpt lat="42.85658" lon="2.46333">
        <ele>435.60000610352</ele>
        <time>2025-08-05T08:51:28.000Z</time>
      </trkpt>
      <trkpt lat="42.85662" lon="2.46326">
        <ele>435.60000610352</ele>
        <time>2025-08-05T08:51:30.000Z</time>
      </trkpt>
      <trkpt lat="42.85665" lon="2.46321">
        <ele>435.79998779297</ele>
        <time>2025-08-05T08:51:32.000Z</time>
      </trkpt>
      <trkpt lat="42.85679" lon="2.46294">
        <ele>436.39999389648</ele>
        <time>2025-08-05T08:51:41.000Z</time>
      </trkpt>
      <trkpt lat="42.85687" lon="2.46278">
        <ele>436.39999389648</ele>
        <time>2025-08-05T08:51:46.000Z</time>
      </trkpt>
      <trkpt lat="42.85696" lon="2.46261">
        <ele>437</ele>
        <time>2025-08-05T08:51:51.000Z</time>
      </trkpt>
      <trkpt lat="42.85701" lon="2.46252">
        <ele>437.39999389648</ele>
        <time>2025-08-05T08:51:54.000Z</time>
      </trkpt>
      <trkpt lat="42.8571" lon="2.46239">
        <ele>437.79998779297</ele>
        <time>2025-08-05T08:51:59.000Z</time>
      </trkpt>
      <trkpt lat="42.8572" lon="2.46229">
        <ele>438.20001220703</ele>
        <time>2025-08-05T08:52:04.000Z</time>
      </trkpt>
      <trkpt lat="42.85728" lon="2.46221">
        <ele>438.60000610352</ele>
        <time>2025-08-05T08:52:08.000Z</time>
      </trkpt>
      <trkpt lat="42.85736" lon="2.46213">
        <ele>439.20001220703</ele>
        <time>2025-08-05T08:52:12.000Z</time>
      </trkpt>
      <trkpt lat="42.85748" lon="2.46207">
        <ele>439.60000610352</ele>
        <time>2025-08-05T08:52:17.000Z</time>
      </trkpt>
      <trkpt lat="42.85751" lon="2.46206">
        <ele>439.60000610352</ele>
        <time>2025-08-05T08:52:18.000Z</time>
      </trkpt>
      <trkpt lat="42.85765" lon="2.462">
        <ele>439.39999389648</ele>
        <time>2025-08-05T08:52:24.000Z</time>
      </trkpt>
      <trkpt lat="42.85782" lon="2.46194">
        <ele>439.20001220703</ele>
        <time>2025-08-05T08:52:31.000Z</time>
      </trkpt>
      <trkpt lat="42.85801" lon="2.46189">
        <ele>439.20001220703</ele>
        <time>2025-08-05T08:52:39.000Z</time>
      </trkpt>
      <trkpt lat="42.85821" lon="2.46181">
        <ele>440.20001220703</ele>
        <time>2025-08-05T08:52:47.000Z</time>
      </trkpt>
      <trkpt lat="42.8584" lon="2.46172">
        <ele>440.20001220703</ele>
        <time>2025-08-05T08:52:54.000Z</time>
      </trkpt>
      <trkpt lat="42.85853" lon="2.46163">
        <ele>440.60000610352</ele>
        <time>2025-08-05T08:52:59.000Z</time>
      </trkpt>
      <trkpt lat="42.85864" lon="2.46153">
        <ele>441</ele>
        <time>2025-08-05T08:53:04.000Z</time>
      </trkpt>
      <trkpt lat="42.85881" lon="2.46137">
        <ele>441.39999389648</ele>
        <time>2025-08-05T08:53:11.000Z</time>
      </trkpt>
      <trkpt lat="42.85885" lon="2.46133">
        <ele>441.79998779297</ele>
        <time>2025-08-05T08:53:13.000Z</time>
      </trkpt>
      <trkpt lat="42.85899" lon="2.4612">
        <ele>442.79998779297</ele>
        <time>2025-08-05T08:53:19.000Z</time>
      </trkpt>
      <trkpt lat="42.85905" lon="2.46114">
        <ele>443</ele>
        <time>2025-08-05T08:53:22.000Z</time>
      </trkpt>
      <trkpt lat="42.85915" lon="2.46105">
        <ele>443.79998779297</ele>
        <time>2025-08-05T08:53:27.000Z</time>
      </trkpt>
      <trkpt lat="42.85934" lon="2.46093">
        <ele>444.20001220703</ele>
        <time>2025-08-05T08:53:35.000Z</time>
      </trkpt>
      <trkpt lat="42.85953" lon="2.46085">
        <ele>444.60000610352</ele>
        <time>2025-08-05T08:53:43.000Z</time>
      </trkpt>
      <trkpt lat="42.8596" lon="2.46082">
        <ele>444.79998779297</ele>
        <time>2025-08-05T08:53:46.000Z</time>
      </trkpt>
      <trkpt lat="42.85975" lon="2.46076">
        <ele>445</ele>
        <time>2025-08-05T08:53:52.000Z</time>
      </trkpt>
      <trkpt lat="42.85998" lon="2.4607">
        <ele>445</ele>
        <time>2025-08-05T08:54:00.000Z</time>
      </trkpt>
      <trkpt lat="42.86022" lon="2.46064">
        <ele>445.39999389648</ele>
        <time>2025-08-05T08:54:09.000Z</time>
      </trkpt>
      <trkpt lat="42.86043" lon="2.46057">
        <ele>445.79998779297</ele>
        <time>2025-08-05T08:54:17.000Z</time>
      </trkpt>
      <trkpt lat="42.86045" lon="2.46055">
        <ele>445.79998779297</ele>
        <time>2025-08-05T08:54:18.000Z</time>
      </trkpt>
      <trkpt lat="42.86054" lon="2.46039">
        <ele>446.60000610352</ele>
        <time>2025-08-05T08:54:23.000Z</time>
      </trkpt>
      <trkpt lat="42.86069" lon="2.46022">
        <ele>446.79998779297</ele>
        <time>2025-08-05T08:54:29.000Z</time>
      </trkpt>
      <trkpt lat="42.86084" lon="2.46021">
        <ele>446.79998779297</ele>
        <time>2025-08-05T08:54:34.000Z</time>
      </trkpt>
      <trkpt lat="42.86101" lon="2.46024">
        <ele>446.79998779297</ele>
        <time>2025-08-05T08:54:40.000Z</time>
      </trkpt>
      <trkpt lat="42.86117" lon="2.46022">
        <ele>447.60000610352</ele>
        <time>2025-08-05T08:54:46.000Z</time>
      </trkpt>
      <trkpt lat="42.86121" lon="2.46022">
        <ele>447.79998779297</ele>
        <time>2025-08-05T08:54:47.000Z</time>
      </trkpt>
      <trkpt lat="42.86144" lon="2.46021">
        <ele>448.79998779297</ele>
        <time>2025-08-05T08:54:56.000Z</time>
      </trkpt>
      <trkpt lat="42.86151" lon="2.46019">
        <ele>449</ele>
        <time>2025-08-05T08:54:58.000Z</time>
      </trkpt>
      <trkpt lat="42.86168" lon="2.46013">
        <ele>449</ele>
        <time>2025-08-05T08:55:03.000Z</time>
      </trkpt>
      <trkpt lat="42.86184" lon="2.46008">
        <ele>449</ele>
        <time>2025-08-05T08:55:09.000Z</time>
      </trkpt>
      <trkpt lat="42.86187" lon="2.46005">
        <ele>449.20001220703</ele>
        <time>2025-08-05T08:55:11.000Z</time>
      </trkpt>
      <trkpt lat="42.8619" lon="2.45999">
        <ele>449.39999389648</ele>
        <time>2025-08-05T08:55:14.000Z</time>
      </trkpt>
      <trkpt lat="42.8619" lon="2.45994">
        <ele>449.79998779297</ele>
        <time>2025-08-05T08:55:17.000Z</time>
      </trkpt>
      <trkpt lat="42.8619" lon="2.45994">
        <ele>450</ele>
        <time>2025-08-05T08:55:19.000Z</time>
      </trkpt>
      <trkpt lat="42.86189" lon="2.45985">
        <ele>450</ele>
        <time>2025-08-05T08:55:33.000Z</time>
      </trkpt>
      <trkpt lat="42.86188" lon="2.45981">
        <ele>450</ele>
        <time>2025-08-05T08:55:34.000Z</time>
      </trkpt>
      <trkpt lat="42.86185" lon="2.45966">
        <ele>450</ele>
        <time>2025-08-05T08:55:39.000Z</time>
      </trkpt>
      <trkpt lat="42.86184" lon="2.45956">
        <ele>449.60000610352</ele>
        <time>2025-08-05T08:55:43.000Z</time>
      </trkpt>
      <trkpt lat="42.86183" lon="2.45954">
        <ele>449.60000610352</ele>
        <time>2025-08-05T08:55:44.000Z</time>
      </trkpt>
      <trkpt lat="42.86183" lon="2.45953">
        <ele>449.60000610352</ele>
        <time>2025-08-05T08:55:47.000Z</time>
      </trkpt>
      <trkpt lat="42.86184" lon="2.45954">
        <ele>449.39999389648</ele>
        <time>2025-08-05T08:55:55.000Z</time>
      </trkpt>
      <trkpt lat="42.86185" lon="2.45971">
        <ele>449.20001220703</ele>
        <time>2025-08-05T08:56:00.000Z</time>
      </trkpt>
      <trkpt lat="42.8619" lon="2.45993">
        <ele>449</ele>
        <time>2025-08-05T08:56:07.000Z</time>
      </trkpt>
      <trkpt lat="42.86189" lon="2.45998">
        <ele>449</ele>
        <time>2025-08-05T08:56:09.000Z</time>
      </trkpt>
      <trkpt lat="42.8619" lon="2.46">
        <ele>449.20001220703</ele>
        <time>2025-08-05T08:56:11.000Z</time>
      </trkpt>
      <trkpt lat="42.8619" lon="2.45994">
        <ele>449.39999389648</ele>
        <time>2025-08-05T08:56:15.000Z</time>
      </trkpt>
      <trkpt lat="42.86189" lon="2.45992">
        <ele>449.39999389648</ele>
        <time>2025-08-05T08:56:16.000Z</time>
      </trkpt>
      <trkpt lat="42.86185" lon="2.45972">
        <ele>449.20001220703</ele>
        <time>2025-08-05T08:56:22.000Z</time>
      </trkpt>
      <trkpt lat="42.8618" lon="2.45946">
        <ele>449.20001220703</ele>
        <time>2025-08-05T08:56:28.000Z</time>
      </trkpt>
      <trkpt lat="42.86172" lon="2.45919">
        <ele>449</ele>
        <time>2025-08-05T08:56:34.000Z</time>
      </trkpt>
      <trkpt lat="42.86172" lon="2.45894">
        <ele>449</ele>
        <time>2025-08-05T08:56:40.000Z</time>
      </trkpt>
      <trkpt lat="42.86171" lon="2.45862">
        <ele>449.39999389648</ele>
        <time>2025-08-05T08:56:49.000Z</time>
      </trkpt>
      <trkpt lat="42.86174" lon="2.45836">
        <ele>450.60000610352</ele>
        <time>2025-08-05T08:56:57.000Z</time>
      </trkpt>
      <trkpt lat="42.86176" lon="2.45827">
        <ele>451</ele>
        <time>2025-08-05T08:57:00.000Z</time>
      </trkpt>
      <trkpt lat="42.86183" lon="2.45809">
        <ele>451.60000610352</ele>
        <time>2025-08-05T08:57:07.000Z</time>
      </trkpt>
      <trkpt lat="42.86185" lon="2.45804">
        <ele>452.20001220703</ele>
        <time>2025-08-05T08:57:09.000Z</time>
      </trkpt>
      <trkpt lat="42.86192" lon="2.45785">
        <ele>453</ele>
        <time>2025-08-05T08:57:16.000Z</time>
      </trkpt>
      <trkpt lat="42.86193" lon="2.45782">
        <ele>453.20001220703</ele>
        <time>2025-08-05T08:57:17.000Z</time>
      </trkpt>
      <trkpt lat="42.86198" lon="2.45766">
        <ele>454</ele>
        <time>2025-08-05T08:57:23.000Z</time>
      </trkpt>
      <trkpt lat="42.862" lon="2.4576">
        <ele>454.39999389648</ele>
        <time>2025-08-05T08:57:25.000Z</time>
      </trkpt>
      <trkpt lat="42.86207" lon="2.45742">
        <ele>455.20001220703</ele>
        <time>2025-08-05T08:57:32.000Z</time>
      </trkpt>
      <trkpt lat="42.86211" lon="2.4573">
        <ele>455.39999389648</ele>
        <time>2025-08-05T08:57:36.000Z</time>
      </trkpt>
      <trkpt lat="42.86219" lon="2.45712">
        <ele>456</ele>
        <time>2025-08-05T08:57:43.000Z</time>
      </trkpt>
      <trkpt lat="42.86225" lon="2.45696">
        <ele>456.60000610352</ele>
        <time>2025-08-05T08:57:49.000Z</time>
      </trkpt>
      <trkpt lat="42.86227" lon="2.45688">
        <ele>457</ele>
        <time>2025-08-05T08:57:52.000Z</time>
      </trkpt>
      <trkpt lat="42.8623" lon="2.45675">
        <ele>457.79998779297</ele>
        <time>2025-08-05T08:57:57.000Z</time>
      </trkpt>
      <trkpt lat="42.86235" lon="2.45659">
        <ele>458.39999389648</ele>
        <time>2025-08-05T08:58:03.000Z</time>
      </trkpt>
      <trkpt lat="42.86238" lon="2.45642">
        <ele>458.79998779297</ele>
        <time>2025-08-05T08:58:09.000Z</time>
      </trkpt>
      <trkpt lat="42.86238" lon="2.45639">
        <ele>459.39999389648</ele>
        <time>2025-08-05T08:58:10.000Z</time>
      </trkpt>
      <trkpt lat="42.86239" lon="2.45634">
        <ele>459.79998779297</ele>
        <time>2025-08-05T08:58:12.000Z</time>
      </trkpt>
      <trkpt lat="42.86239" lon="2.45617">
        <ele>460.20001220703</ele>
        <time>2025-08-05T08:58:18.000Z</time>
      </trkpt>
      <trkpt lat="42.8624" lon="2.4561">
        <ele>460.60000610352</ele>
        <time>2025-08-05T08:58:21.000Z</time>
      </trkpt>
      <trkpt lat="42.86239" lon="2.456">
        <ele>461.20001220703</ele>
        <time>2025-08-05T08:58:25.000Z</time>
      </trkpt>
      <trkpt lat="42.86238" lon="2.45593">
        <ele>461.79998779297</ele>
        <time>2025-08-05T08:58:28.000Z</time>
      </trkpt>
      <trkpt lat="42.86237" lon="2.45586">
        <ele>462</ele>
        <time>2025-08-05T08:58:31.000Z</time>
      </trkpt>
      <trkpt lat="42.86236" lon="2.45581">
        <ele>462.20001220703</ele>
        <time>2025-08-05T08:58:33.000Z</time>
      </trkpt>
      <trkpt lat="42.86234" lon="2.45571">
        <ele>462.60000610352</ele>
        <time>2025-08-05T08:58:37.000Z</time>
      </trkpt>
      <trkpt lat="42.86232" lon="2.45565">
        <ele>462.79998779297</ele>
        <time>2025-08-05T08:58:40.000Z</time>
      </trkpt>
      <trkpt lat="42.86229" lon="2.45558">
        <ele>463.20001220703</ele>
        <time>2025-08-05T08:58:43.000Z</time>
      </trkpt>
      <trkpt lat="42.86227" lon="2.4555">
        <ele>464</ele>
        <time>2025-08-05T08:58:47.000Z</time>
      </trkpt>
      <trkpt lat="42.86226" lon="2.45539">
        <ele>464.20001220703</ele>
        <time>2025-08-05T08:58:51.000Z</time>
      </trkpt>
      <trkpt lat="42.86224" lon="2.45518">
        <ele>464.79998779297</ele>
        <time>2025-08-05T08:58:59.000Z</time>
      </trkpt>
      <trkpt lat="42.86225" lon="2.45509">
        <ele>465</ele>
        <time>2025-08-05T08:59:02.000Z</time>
      </trkpt>
      <trkpt lat="42.86226" lon="2.45493">
        <ele>466</ele>
        <time>2025-08-05T08:59:08.000Z</time>
      </trkpt>
      <trkpt lat="42.86226" lon="2.4549">
        <ele>466</ele>
        <time>2025-08-05T08:59:09.000Z</time>
      </trkpt>
      <trkpt lat="42.86223" lon="2.45477">
        <ele>467</ele>
        <time>2025-08-05T08:59:15.000Z</time>
      </trkpt>
      <trkpt lat="42.86221" lon="2.45472">
        <ele>467.20001220703</ele>
        <time>2025-08-05T08:59:17.000Z</time>
      </trkpt>
      <trkpt lat="42.86216" lon="2.45456">
        <ele>468</ele>
        <time>2025-08-05T08:59:24.000Z</time>
      </trkpt>
      <trkpt lat="42.86214" lon="2.45449">
        <ele>468.39999389648</ele>
        <time>2025-08-05T08:59:27.000Z</time>
      </trkpt>
      <trkpt lat="42.86211" lon="2.45439">
        <ele>468.79998779297</ele>
        <time>2025-08-05T08:59:31.000Z</time>
      </trkpt>
      <trkpt lat="42.8621" lon="2.45432">
        <ele>469.39999389648</ele>
        <time>2025-08-05T08:59:34.000Z</time>
      </trkpt>
      <trkpt lat="42.86209" lon="2.45422">
        <ele>470</ele>
        <time>2025-08-05T08:59:38.000Z</time>
      </trkpt>
      <trkpt lat="42.86209" lon="2.45415">
        <ele>470.79998779297</ele>
        <time>2025-08-05T08:59:41.000Z</time>
      </trkpt>
      <trkpt lat="42.86209" lon="2.45407">
        <ele>471.20001220703</ele>
        <time>2025-08-05T08:59:44.000Z</time>
      </trkpt>
      <trkpt lat="42.86209" lon="2.45404">
        <ele>471.20001220703</ele>
        <time>2025-08-05T08:59:45.000Z</time>
      </trkpt>
      <trkpt lat="42.86209" lon="2.45388">
        <ele>471.60000610352</ele>
        <time>2025-08-05T08:59:52.000Z</time>
      </trkpt>
      <trkpt lat="42.8621" lon="2.45382">
        <ele>471.79998779297</ele>
        <time>2025-08-05T08:59:55.000Z</time>
      </trkpt>
      <trkpt lat="42.8621" lon="2.45376">
        <ele>472</ele>
        <time>2025-08-05T08:59:58.000Z</time>
      </trkpt>
      <trkpt lat="42.8621" lon="2.45371">
        <ele>472.20001220703</ele>
        <time>2025-08-05T09:00:00.000Z</time>
      </trkpt>
      <trkpt lat="42.86213" lon="2.4536">
        <ele>472.60000610352</ele>
        <time>2025-08-05T09:00:06.000Z</time>
      </trkpt>
      <trkpt lat="42.86213" lon="2.45354">
        <ele>473.39999389648</ele>
        <time>2025-08-05T09:00:09.000Z</time>
      </trkpt>
      <trkpt lat="42.86213" lon="2.45347">
        <ele>473.79998779297</ele>
        <time>2025-08-05T09:00:12.000Z</time>
      </trkpt>
      <trkpt lat="42.86214" lon="2.45333">
        <ele>474.60000610352</ele>
        <time>2025-08-05T09:00:18.000Z</time>
      </trkpt>
      <trkpt lat="42.86214" lon="2.45329">
        <ele>474.79998779297</ele>
        <time>2025-08-05T09:00:20.000Z</time>
      </trkpt>
      <trkpt lat="42.86214" lon="2.45319">
        <ele>475.20001220703</ele>
        <time>2025-08-05T09:00:25.000Z</time>
      </trkpt>
      <trkpt lat="42.86214" lon="2.45314">
        <ele>475.20001220703</ele>
        <time>2025-08-05T09:00:27.000Z</time>
      </trkpt>
      <trkpt lat="42.86213" lon="2.45307">
        <ele>475.60000610352</ele>
        <time>2025-08-05T09:00:30.000Z</time>
      </trkpt>
      <trkpt lat="42.86211" lon="2.45303">
        <ele>475.79998779297</ele>
        <time>2025-08-05T09:00:32.000Z</time>
      </trkpt>
      <trkpt lat="42.86208" lon="2.45289">
        <ele>477</ele>
        <time>2025-08-05T09:00:39.000Z</time>
      </trkpt>
      <trkpt lat="42.86207" lon="2.45287">
        <ele>477</ele>
        <time>2025-08-05T09:00:40.000Z</time>
      </trkpt>
      <trkpt lat="42.86202" lon="2.45269">
        <ele>478</ele>
        <time>2025-08-05T09:00:49.000Z</time>
      </trkpt>
      <trkpt lat="42.862" lon="2.45257">
        <ele>478.39999389648</ele>
        <time>2025-08-05T09:00:55.000Z</time>
      </trkpt>
      <trkpt lat="42.86201" lon="2.45243">
        <ele>479.20001220703</ele>
        <time>2025-08-05T09:01:01.000Z</time>
      </trkpt>
      <trkpt lat="42.86202" lon="2.45239">
        <ele>479.39999389648</ele>
        <time>2025-08-05T09:01:03.000Z</time>
      </trkpt>
      <trkpt lat="42.86204" lon="2.45227">
        <ele>480.20001220703</ele>
        <time>2025-08-05T09:01:08.000Z</time>
      </trkpt>
      <trkpt lat="42.86208" lon="2.45215">
        <ele>481</ele>
        <time>2025-08-05T09:01:13.000Z</time>
      </trkpt>
      <trkpt lat="42.86208" lon="2.45213">
        <ele>481.39999389648</ele>
        <time>2025-08-05T09:01:14.000Z</time>
      </trkpt>
      <trkpt lat="42.86216" lon="2.45201">
        <ele>482.39999389648</ele>
        <time>2025-08-05T09:01:20.000Z</time>
      </trkpt>
      <trkpt lat="42.86217" lon="2.45199">
        <ele>482.39999389648</ele>
        <time>2025-08-05T09:01:21.000Z</time>
      </trkpt>
      <trkpt lat="42.86223" lon="2.45188">
        <ele>483.60000610352</ele>
        <time>2025-08-05T09:01:27.000Z</time>
      </trkpt>
      <trkpt lat="42.86224" lon="2.45186">
        <ele>483.79998779297</ele>
        <time>2025-08-05T09:01:28.000Z</time>
      </trkpt>
      <trkpt lat="42.86232" lon="2.45175">
        <ele>484.60000610352</ele>
        <time>2025-08-05T09:01:34.000Z</time>
      </trkpt>
      <trkpt lat="42.86234" lon="2.45171">
        <ele>485.20001220703</ele>
        <time>2025-08-05T09:01:36.000Z</time>
      </trkpt>
      <trkpt lat="42.86238" lon="2.45166">
        <ele>485.60000610352</ele>
        <time>2025-08-05T09:01:39.000Z</time>
      </trkpt>
      <trkpt lat="42.86245" lon="2.45155">
        <ele>486.79998779297</ele>
        <time>2025-08-05T09:01:45.000Z</time>
      </trkpt>
      <trkpt lat="42.86255" lon="2.45142">
        <ele>487.79998779297</ele>
        <time>2025-08-05T09:01:53.000Z</time>
      </trkpt>
      <trkpt lat="42.86258" lon="2.45138">
        <ele>488</ele>
        <time>2025-08-05T09:01:55.000Z</time>
      </trkpt>
      <trkpt lat="42.86262" lon="2.45134">
        <ele>488.20001220703</ele>
        <time>2025-08-05T09:01:58.000Z</time>
      </trkpt>
      <trkpt lat="42.86268" lon="2.45125">
        <ele>488.39999389648</ele>
        <time>2025-08-05T09:02:03.000Z</time>
      </trkpt>
      <trkpt lat="42.86272" lon="2.4512">
        <ele>489</ele>
        <time>2025-08-05T09:02:06.000Z</time>
      </trkpt>
      <trkpt lat="42.86278" lon="2.45113">
        <ele>489.60000610352</ele>
        <time>2025-08-05T09:02:10.000Z</time>
      </trkpt>
      <trkpt lat="42.86281" lon="2.45108">
        <ele>490</ele>
        <time>2025-08-05T09:02:13.000Z</time>
      </trkpt>
      <trkpt lat="42.86286" lon="2.45101">
        <ele>490.60000610352</ele>
        <time>2025-08-05T09:02:17.000Z</time>
      </trkpt>
      <trkpt lat="42.86288" lon="2.451">
        <ele>490.79998779297</ele>
        <time>2025-08-05T09:02:18.000Z</time>
      </trkpt>
      <trkpt lat="42.86289" lon="2.45098">
        <ele>490.79998779297</ele>
        <time>2025-08-05T09:02:19.000Z</time>
      </trkpt>
      <trkpt lat="42.86291" lon="2.45095">
        <ele>491.20001220703</ele>
        <time>2025-08-05T09:02:21.000Z</time>
      </trkpt>
      <trkpt lat="42.86293" lon="2.45091">
        <ele>491.39999389648</ele>
        <time>2025-08-05T09:02:23.000Z</time>
      </trkpt>
      <trkpt lat="42.86301" lon="2.45081">
        <ele>492.39999389648</ele>
        <time>2025-08-05T09:02:29.000Z</time>
      </trkpt>
      <trkpt lat="42.86302" lon="2.45079">
        <ele>492.60000610352</ele>
        <time>2025-08-05T09:02:30.000Z</time>
      </trkpt>
      <trkpt lat="42.86303" lon="2.45077">
        <ele>492.60000610352</ele>
        <time>2025-08-05T09:02:31.000Z</time>
      </trkpt>
      <trkpt lat="42.86307" lon="2.45069">
        <ele>493.20001220703</ele>
        <time>2025-08-05T09:02:35.000Z</time>
      </trkpt>
      <trkpt lat="42.8631" lon="2.45066">
        <ele>493.39999389648</ele>
        <time>2025-08-05T09:02:37.000Z</time>
      </trkpt>
      <trkpt lat="42.86311" lon="2.45065">
        <ele>493.60000610352</ele>
        <time>2025-08-05T09:02:38.000Z</time>
      </trkpt>
      <trkpt lat="42.86315" lon="2.45059">
        <ele>493.79998779297</ele>
        <time>2025-08-05T09:02:41.000Z</time>
      </trkpt>
      <trkpt lat="42.86319" lon="2.45051">
        <ele>494</ele>
        <time>2025-08-05T09:02:45.000Z</time>
      </trkpt>
      <trkpt lat="42.86319" lon="2.45049">
        <ele>494</ele>
        <time>2025-08-05T09:02:46.000Z</time>
      </trkpt>
      <trkpt lat="42.86322" lon="2.45034">
        <ele>494.60000610352</ele>
        <time>2025-08-05T09:02:52.000Z</time>
      </trkpt>
      <trkpt lat="42.86322" lon="2.45026">
        <ele>495.20001220703</ele>
        <time>2025-08-05T09:02:55.000Z</time>
      </trkpt>
      <trkpt lat="42.86322" lon="2.45024">
        <ele>495.79998779297</ele>
        <time>2025-08-05T09:02:56.000Z</time>
      </trkpt>
      <trkpt lat="42.86322" lon="2.45011">
        <ele>496.39999389648</ele>
        <time>2025-08-05T09:03:02.000Z</time>
      </trkpt>
      <trkpt lat="42.86322" lon="2.44997">
        <ele>496.79998779297</ele>
        <time>2025-08-05T09:03:07.000Z</time>
      </trkpt>
      <trkpt lat="42.86322" lon="2.44993">
        <ele>496.79998779297</ele>
        <time>2025-08-05T09:03:09.000Z</time>
      </trkpt>
      <trkpt lat="42.86323" lon="2.44991">
        <ele>496.79998779297</ele>
        <time>2025-08-05T09:03:10.000Z</time>
      </trkpt>
      <trkpt lat="42.86322" lon="2.44988">
        <ele>497</ele>
        <time>2025-08-05T09:03:13.000Z</time>
      </trkpt>
      <trkpt lat="42.86321" lon="2.4498">
        <ele>497</ele>
        <time>2025-08-05T09:03:18.000Z</time>
      </trkpt>
      <trkpt lat="42.86322" lon="2.44978">
        <ele>496.79998779297</ele>
        <time>2025-08-05T09:03:19.000Z</time>
      </trkpt>
      <trkpt lat="42.8632" lon="2.44958">
        <ele>496.39999389648</ele>
        <time>2025-08-05T09:03:25.000Z</time>
      </trkpt>
      <trkpt lat="42.86319" lon="2.44943">
        <ele>495.39999389648</ele>
        <time>2025-08-05T09:03:28.000Z</time>
      </trkpt>
      <trkpt lat="42.86319" lon="2.44926">
        <ele>494.60000610352</ele>
        <time>2025-08-05T09:03:31.000Z</time>
      </trkpt>
      <trkpt lat="42.86318" lon="2.4492">
        <ele>494.39999389648</ele>
        <time>2025-08-05T09:03:32.000Z</time>
      </trkpt>
      <trkpt lat="42.86315" lon="2.44889">
        <ele>493.39999389648</ele>
        <time>2025-08-05T09:03:36.000Z</time>
      </trkpt>
      <trkpt lat="42.86311" lon="2.44853">
        <ele>492.20001220703</ele>
        <time>2025-08-05T09:03:40.000Z</time>
      </trkpt>
      <trkpt lat="42.86308" lon="2.44834">
        <ele>491.79998779297</ele>
        <time>2025-08-05T09:03:42.000Z</time>
      </trkpt>
      <trkpt lat="42.86305" lon="2.44813">
        <ele>491</ele>
        <time>2025-08-05T09:03:44.000Z</time>
      </trkpt>
      <trkpt lat="42.86298" lon="2.44778">
        <ele>490</ele>
        <time>2025-08-05T09:03:47.000Z</time>
      </trkpt>
      <trkpt lat="42.86296" lon="2.44766">
        <ele>489.79998779297</ele>
        <time>2025-08-05T09:03:48.000Z</time>
      </trkpt>
      <trkpt lat="42.86286" lon="2.4473">
        <ele>488.60000610352</ele>
        <time>2025-08-05T09:03:51.000Z</time>
      </trkpt>
      <trkpt lat="42.86276" lon="2.44713">
        <ele>487.79998779297</ele>
        <time>2025-08-05T09:03:53.000Z</time>
      </trkpt>
      <trkpt lat="42.86269" lon="2.44705">
        <ele>487.39999389648</ele>
        <time>2025-08-05T09:03:54.000Z</time>
      </trkpt>
      <trkpt lat="42.86242" lon="2.44674">
        <ele>486</ele>
        <time>2025-08-05T09:03:58.000Z</time>
      </trkpt>
      <trkpt lat="42.86223" lon="2.44654">
        <ele>485</ele>
        <time>2025-08-05T09:04:01.000Z</time>
      </trkpt>
      <trkpt lat="42.86216" lon="2.44646">
        <ele>484.79998779297</ele>
        <time>2025-08-05T09:04:02.000Z</time>
      </trkpt>
      <trkpt lat="42.86191" lon="2.44617">
        <ele>483.39999389648</ele>
        <time>2025-08-05T09:04:06.000Z</time>
      </trkpt>
      <trkpt lat="42.86174" lon="2.44598">
        <ele>483</ele>
        <time>2025-08-05T09:04:09.000Z</time>
      </trkpt>
      <trkpt lat="42.8617" lon="2.4459">
        <ele>482.79998779297</ele>
        <time>2025-08-05T09:04:10.000Z</time>
      </trkpt>
      <trkpt lat="42.86166" lon="2.44582">
        <ele>482.79998779297</ele>
        <time>2025-08-05T09:04:11.000Z</time>
      </trkpt>
      <trkpt lat="42.86165" lon="2.44562">
        <ele>482.60000610352</ele>
        <time>2025-08-05T09:04:13.000Z</time>
      </trkpt>
      <trkpt lat="42.86174" lon="2.44542">
        <ele>482.39999389648</ele>
        <time>2025-08-05T09:04:15.000Z</time>
      </trkpt>
      <trkpt lat="42.8618" lon="2.44534">
        <ele>482</ele>
        <time>2025-08-05T09:04:16.000Z</time>
      </trkpt>
      <trkpt lat="42.86193" lon="2.44518">
        <ele>481.20001220703</ele>
        <time>2025-08-05T09:04:18.000Z</time>
      </trkpt>
      <trkpt lat="42.86214" lon="2.44495">
        <ele>480</ele>
        <time>2025-08-05T09:04:21.000Z</time>
      </trkpt>
      <trkpt lat="42.86227" lon="2.44481">
        <ele>479.20001220703</ele>
        <time>2025-08-05T09:04:23.000Z</time>
      </trkpt>
      <trkpt lat="42.86235" lon="2.44475">
        <ele>478.60000610352</ele>
        <time>2025-08-05T09:04:24.000Z</time>
      </trkpt>
      <trkpt lat="42.86241" lon="2.44468">
        <ele>478.39999389648</ele>
        <time>2025-08-05T09:04:25.000Z</time>
      </trkpt>
      <trkpt lat="42.86246" lon="2.4446">
        <ele>477.79998779297</ele>
        <time>2025-08-05T09:04:26.000Z</time>
      </trkpt>
      <trkpt lat="42.8625" lon="2.44451">
        <ele>477.20001220703</ele>
        <time>2025-08-05T09:04:27.000Z</time>
      </trkpt>
      <trkpt lat="42.86251" lon="2.44442">
        <ele>476.60000610352</ele>
        <time>2025-08-05T09:04:28.000Z</time>
      </trkpt>
      <trkpt lat="42.8625" lon="2.44433">
        <ele>476</ele>
        <time>2025-08-05T09:04:29.000Z</time>
      </trkpt>
      <trkpt lat="42.86243" lon="2.44418">
        <ele>475</ele>
        <time>2025-08-05T09:04:31.000Z</time>
      </trkpt>
      <trkpt lat="42.86237" lon="2.44414">
        <ele>474.79998779297</ele>
        <time>2025-08-05T09:04:32.000Z</time>
      </trkpt>
      <trkpt lat="42.8623" lon="2.44412">
        <ele>474.39999389648</ele>
        <time>2025-08-05T09:04:33.000Z</time>
      </trkpt>
      <trkpt lat="42.86212" lon="2.44413">
        <ele>473.79998779297</ele>
        <time>2025-08-05T09:04:35.000Z</time>
      </trkpt>
      <trkpt lat="42.86188" lon="2.44418">
        <ele>473.20001220703</ele>
        <time>2025-08-05T09:04:38.000Z</time>
      </trkpt>
      <trkpt lat="42.8618" lon="2.44421">
        <ele>473</ele>
        <time>2025-08-05T09:04:39.000Z</time>
      </trkpt>
      <trkpt lat="42.86165" lon="2.44417">
        <ele>472.39999389648</ele>
        <time>2025-08-05T09:04:41.000Z</time>
      </trkpt>
      <trkpt lat="42.86154" lon="2.44402">
        <ele>472</ele>
        <time>2025-08-05T09:04:43.000Z</time>
      </trkpt>
      <trkpt lat="42.86149" lon="2.44381">
        <ele>471.60000610352</ele>
        <time>2025-08-05T09:04:45.000Z</time>
      </trkpt>
      <trkpt lat="42.8615" lon="2.4437">
        <ele>471.39999389648</ele>
        <time>2025-08-05T09:04:46.000Z</time>
      </trkpt>
      <trkpt lat="42.86156" lon="2.44331">
        <ele>470.20001220703</ele>
        <time>2025-08-05T09:04:50.000Z</time>
      </trkpt>
      <trkpt lat="42.86158" lon="2.44323">
        <ele>470</ele>
        <time>2025-08-05T09:04:51.000Z</time>
      </trkpt>
      <trkpt lat="42.86165" lon="2.44291">
        <ele>469.60000610352</ele>
        <time>2025-08-05T09:04:55.000Z</time>
      </trkpt>
      <trkpt lat="42.8617" lon="2.44254">
        <ele>469.39999389648</ele>
        <time>2025-08-05T09:05:00.000Z</time>
      </trkpt>
      <trkpt lat="42.86169" lon="2.44216">
        <ele>469.20001220703</ele>
        <time>2025-08-05T09:05:06.000Z</time>
      </trkpt>
      <trkpt lat="42.86169" lon="2.44204">
        <ele>469</ele>
        <time>2025-08-05T09:05:08.000Z</time>
      </trkpt>
      <trkpt lat="42.8617" lon="2.44181">
        <ele>468.79998779297</ele>
        <time>2025-08-05T09:05:12.000Z</time>
      </trkpt>
      <trkpt lat="42.8617" lon="2.44171">
        <ele>468.60000610352</ele>
        <time>2025-08-05T09:05:14.000Z</time>
      </trkpt>
      <trkpt lat="42.86172" lon="2.4415">
        <ele>468.60000610352</ele>
        <time>2025-08-05T09:05:18.000Z</time>
      </trkpt>
      <trkpt lat="42.86175" lon="2.44102">
        <ele>468.79998779297</ele>
        <time>2025-08-05T09:05:27.000Z</time>
      </trkpt>
      <trkpt lat="42.86185" lon="2.44075">
        <ele>469.20001220703</ele>
        <time>2025-08-05T09:05:33.000Z</time>
      </trkpt>
      <trkpt lat="42.862" lon="2.44047">
        <ele>469.79998779297</ele>
        <time>2025-08-05T09:05:41.000Z</time>
      </trkpt>
      <trkpt lat="42.86215" lon="2.44025">
        <ele>470</ele>
        <time>2025-08-05T09:05:48.000Z</time>
      </trkpt>
      <trkpt lat="42.86224" lon="2.44008">
        <ele>470</ele>
        <time>2025-08-05T09:05:53.000Z</time>
      </trkpt>
      <trkpt lat="42.86224" lon="2.44003">
        <ele>470</ele>
        <time>2025-08-05T09:05:54.000Z</time>
      </trkpt>
      <trkpt lat="42.86223" lon="2.43995">
        <ele>470.39999389648</ele>
        <time>2025-08-05T09:05:56.000Z</time>
      </trkpt>
      <trkpt lat="42.86219" lon="2.43979">
        <ele>470.60000610352</ele>
        <time>2025-08-05T09:06:00.000Z</time>
      </trkpt>
      <trkpt lat="42.86212" lon="2.4395">
        <ele>470.20001220703</ele>
        <time>2025-08-05T09:06:07.000Z</time>
      </trkpt>
      <trkpt lat="42.86203" lon="2.43919">
        <ele>471</ele>
        <time>2025-08-05T09:06:15.000Z</time>
      </trkpt>
      <trkpt lat="42.86199" lon="2.43887">
        <ele>471.39999389648</ele>
        <time>2025-08-05T09:06:22.000Z</time>
      </trkpt>
      <trkpt lat="42.86195" lon="2.43832">
        <ele>471.39999389648</ele>
        <time>2025-08-05T09:06:33.000Z</time>
      </trkpt>
      <trkpt lat="42.86194" lon="2.43785">
        <ele>471</ele>
        <time>2025-08-05T09:06:43.000Z</time>
      </trkpt>
      <trkpt lat="42.86195" lon="2.43758">
        <ele>471.20001220703</ele>
        <time>2025-08-05T09:06:49.000Z</time>
      </trkpt>
      <trkpt lat="42.86196" lon="2.43747">
        <ele>471.39999389648</ele>
        <time>2025-08-05T09:06:52.000Z</time>
      </trkpt>
      <trkpt lat="42.86198" lon="2.43722">
        <ele>472.20001220703</ele>
        <time>2025-08-05T09:07:00.000Z</time>
      </trkpt>
      <trkpt lat="42.86198" lon="2.43719">
        <ele>472.39999389648</ele>
        <time>2025-08-05T09:07:01.000Z</time>
      </trkpt>
      <trkpt lat="42.86202" lon="2.43697">
        <ele>473.20001220703</ele>
        <time>2025-08-05T09:07:08.000Z</time>
      </trkpt>
      <trkpt lat="42.86204" lon="2.43687">
        <ele>473.60000610352</ele>
        <time>2025-08-05T09:07:11.000Z</time>
      </trkpt>
      <trkpt lat="42.86209" lon="2.43667">
        <ele>474.60000610352</ele>
        <time>2025-08-05T09:07:18.000Z</time>
      </trkpt>
      <trkpt lat="42.86209" lon="2.43663">
        <ele>474.60000610352</ele>
        <time>2025-08-05T09:07:19.000Z</time>
      </trkpt>
      <trkpt lat="42.86212" lon="2.43641">
        <ele>475.60000610352</ele>
        <time>2025-08-05T09:07:26.000Z</time>
      </trkpt>
      <trkpt lat="42.86214" lon="2.43625">
        <ele>476.20001220703</ele>
        <time>2025-08-05T09:07:31.000Z</time>
      </trkpt>
      <trkpt lat="42.86217" lon="2.43609">
        <ele>476.79998779297</ele>
        <time>2025-08-05T09:07:36.000Z</time>
      </trkpt>
      <trkpt lat="42.86218" lon="2.43604">
        <ele>476.79998779297</ele>
        <time>2025-08-05T09:07:38.000Z</time>
      </trkpt>
      <trkpt lat="42.86228" lon="2.43569">
        <ele>477.60000610352</ele>
        <time>2025-08-05T09:07:48.000Z</time>
      </trkpt>
      <trkpt lat="42.8623" lon="2.43565">
        <ele>477.79998779297</ele>
        <time>2025-08-05T09:07:49.000Z</time>
      </trkpt>
      <trkpt lat="42.86238" lon="2.43536">
        <ele>478.20001220703</ele>
        <time>2025-08-05T09:07:56.000Z</time>
      </trkpt>
      <trkpt lat="42.86248" lon="2.43499">
        <ele>478.60000610352</ele>
        <time>2025-08-05T09:08:05.000Z</time>
      </trkpt>
      <trkpt lat="42.86254" lon="2.43472">
        <ele>478.79998779297</ele>
        <time>2025-08-05T09:08:11.000Z</time>
      </trkpt>
      <trkpt lat="42.86255" lon="2.43458">
        <ele>478.79998779297</ele>
        <time>2025-08-05T09:08:14.000Z</time>
      </trkpt>
      <trkpt lat="42.86256" lon="2.43423">
        <ele>478.60000610352</ele>
        <time>2025-08-05T09:08:22.000Z</time>
      </trkpt>
      <trkpt lat="42.86258" lon="2.43387">
        <ele>478.60000610352</ele>
        <time>2025-08-05T09:08:29.000Z</time>
      </trkpt>
      <trkpt lat="42.86259" lon="2.43337">
        <ele>478.79998779297</ele>
        <time>2025-08-05T09:08:39.000Z</time>
      </trkpt>
      <trkpt lat="42.86257" lon="2.43298">
        <ele>478.79998779297</ele>
        <time>2025-08-05T09:08:47.000Z</time>
      </trkpt>
      <trkpt lat="42.86256" lon="2.4326">
        <ele>479</ele>
        <time>2025-08-05T09:08:55.000Z</time>
      </trkpt>
      <trkpt lat="42.86256" lon="2.43229">
        <ele>479.20001220703</ele>
        <time>2025-08-05T09:09:02.000Z</time>
      </trkpt>
      <trkpt lat="42.86257" lon="2.43201">
        <ele>479.39999389648</ele>
        <time>2025-08-05T09:09:08.000Z</time>
      </trkpt>
      <trkpt lat="42.86255" lon="2.43184">
        <ele>479.60000610352</ele>
        <time>2025-08-05T09:09:12.000Z</time>
      </trkpt>
      <trkpt lat="42.86253" lon="2.4317">
        <ele>479.79998779297</ele>
        <time>2025-08-05T09:09:15.000Z</time>
      </trkpt>
      <trkpt lat="42.86251" lon="2.43152">
        <ele>480</ele>
        <time>2025-08-05T09:09:19.000Z</time>
      </trkpt>
      <trkpt lat="42.86252" lon="2.43142">
        <ele>480</ele>
        <time>2025-08-05T09:09:21.000Z</time>
      </trkpt>
      <trkpt lat="42.86255" lon="2.43117">
        <ele>480</ele>
        <time>2025-08-05T09:09:26.000Z</time>
      </trkpt>
      <trkpt lat="42.86259" lon="2.43071">
        <ele>479.79998779297</ele>
        <time>2025-08-05T09:09:35.000Z</time>
      </trkpt>
      <trkpt lat="42.8626" lon="2.4302">
        <ele>479.20001220703</ele>
        <time>2025-08-05T09:09:44.000Z</time>
      </trkpt>
      <trkpt lat="42.86263" lon="2.42971">
        <ele>479.20001220703</ele>
        <time>2025-08-05T09:09:53.000Z</time>
      </trkpt>
      <trkpt lat="42.86269" lon="2.42941">
        <ele>479.79998779297</ele>
        <time>2025-08-05T09:10:00.000Z</time>
      </trkpt>
      <trkpt lat="42.86276" lon="2.42919">
        <ele>480.39999389648</ele>
        <time>2025-08-05T09:10:06.000Z</time>
      </trkpt>
      <trkpt lat="42.86277" lon="2.42916">
        <ele>480.60000610352</ele>
        <time>2025-08-05T09:10:07.000Z</time>
      </trkpt>
      <trkpt lat="42.86289" lon="2.42897">
        <ele>481</ele>
        <time>2025-08-05T09:10:13.000Z</time>
      </trkpt>
      <trkpt lat="42.86304" lon="2.42881">
        <ele>481.39999389648</ele>
        <time>2025-08-05T09:10:20.000Z</time>
      </trkpt>
      <trkpt lat="42.86308" lon="2.42877">
        <ele>481.60000610352</ele>
        <time>2025-08-05T09:10:22.000Z</time>
      </trkpt>
      <trkpt lat="42.86322" lon="2.42865">
        <ele>482</ele>
        <time>2025-08-05T09:10:28.000Z</time>
      </trkpt>
      <trkpt lat="42.86331" lon="2.42858">
        <ele>482.20001220703</ele>
        <time>2025-08-05T09:10:32.000Z</time>
      </trkpt>
      <trkpt lat="42.86336" lon="2.42856">
        <ele>482.39999389648</ele>
        <time>2025-08-05T09:10:34.000Z</time>
      </trkpt>
      <trkpt lat="42.86346" lon="2.42852">
        <ele>482.60000610352</ele>
        <time>2025-08-05T09:10:38.000Z</time>
      </trkpt>
      <trkpt lat="42.86352" lon="2.4285">
        <ele>482.79998779297</ele>
        <time>2025-08-05T09:10:40.000Z</time>
      </trkpt>
      <trkpt lat="42.86367" lon="2.4284">
        <ele>483.60000610352</ele>
        <time>2025-08-05T09:10:46.000Z</time>
      </trkpt>
      <trkpt lat="42.86369" lon="2.42837">
        <ele>483.79998779297</ele>
        <time>2025-08-05T09:10:47.000Z</time>
      </trkpt>
      <trkpt lat="42.86376" lon="2.42822">
        <ele>484.60000610352</ele>
        <time>2025-08-05T09:10:52.000Z</time>
      </trkpt>
      <trkpt lat="42.86377" lon="2.42818">
        <ele>484.60000610352</ele>
        <time>2025-08-05T09:10:53.000Z</time>
      </trkpt>
      <trkpt lat="42.86377" lon="2.42807">
        <ele>484.60000610352</ele>
        <time>2025-08-05T09:10:56.000Z</time>
      </trkpt>
      <trkpt lat="42.86374" lon="2.42797">
        <ele>485</ele>
        <time>2025-08-05T09:11:00.000Z</time>
      </trkpt>
      <trkpt lat="42.86364" lon="2.42784">
        <ele>485.39999389648</ele>
        <time>2025-08-05T09:11:07.000Z</time>
      </trkpt>
      <trkpt lat="42.86358" lon="2.4278">
        <ele>485.60000610352</ele>
        <time>2025-08-05T09:11:10.000Z</time>
      </trkpt>
      <trkpt lat="42.86352" lon="2.4278">
        <ele>486</ele>
        <time>2025-08-05T09:11:13.000Z</time>
      </trkpt>
      <trkpt lat="42.8634" lon="2.42779">
        <ele>486.60000610352</ele>
        <time>2025-08-05T09:11:20.000Z</time>
      </trkpt>
      <trkpt lat="42.86338" lon="2.42779">
        <ele>486.79998779297</ele>
        <time>2025-08-05T09:11:22.000Z</time>
      </trkpt>
      <trkpt lat="42.86331" lon="2.42774">
        <ele>487.39999389648</ele>
        <time>2025-08-05T09:11:26.000Z</time>
      </trkpt>
      <trkpt lat="42.8633" lon="2.42773">
        <ele>487.60000610352</ele>
        <time>2025-08-05T09:11:27.000Z</time>
      </trkpt>
      <trkpt lat="42.86323" lon="2.4276">
        <ele>489</ele>
        <time>2025-08-05T09:11:33.000Z</time>
      </trkpt>
      <trkpt lat="42.8632" lon="2.42743">
        <ele>490</ele>
        <time>2025-08-05T09:11:39.000Z</time>
      </trkpt>
      <trkpt lat="42.86321" lon="2.42738">
        <ele>490.20001220703</ele>
        <time>2025-08-05T09:11:41.000Z</time>
      </trkpt>
      <trkpt lat="42.8632" lon="2.42735">
        <ele>490.20001220703</ele>
        <time>2025-08-05T09:11:42.000Z</time>
      </trkpt>
      <trkpt lat="42.86322" lon="2.42718">
        <ele>490.79998779297</ele>
        <time>2025-08-05T09:11:48.000Z</time>
      </trkpt>
      <trkpt lat="42.86322" lon="2.42716">
        <ele>491</ele>
        <time>2025-08-05T09:11:49.000Z</time>
      </trkpt>
      <trkpt lat="42.86323" lon="2.42705">
        <ele>491.60000610352</ele>
        <time>2025-08-05T09:11:54.000Z</time>
      </trkpt>
      <trkpt lat="42.86326" lon="2.42692">
        <ele>492</ele>
        <time>2025-08-05T09:12:00.000Z</time>
      </trkpt>
      <trkpt lat="42.86328" lon="2.42687">
        <ele>492.20001220703</ele>
        <time>2025-08-05T09:12:02.000Z</time>
      </trkpt>
      <trkpt lat="42.86335" lon="2.42668">
        <ele>492.79998779297</ele>
        <time>2025-08-05T09:12:10.000Z</time>
      </trkpt>
      <trkpt lat="42.86338" lon="2.42662">
        <ele>493.20001220703</ele>
        <time>2025-08-05T09:12:13.000Z</time>
      </trkpt>
      <trkpt lat="42.86344" lon="2.42655">
        <ele>493.79998779297</ele>
        <time>2025-08-05T09:12:18.000Z</time>
      </trkpt>
      <trkpt lat="42.86349" lon="2.42649">
        <ele>494.39999389648</ele>
        <time>2025-08-05T09:12:22.000Z</time>
      </trkpt>
      <trkpt lat="42.86352" lon="2.42646">
        <ele>495</ele>
        <time>2025-08-05T09:12:24.000Z</time>
      </trkpt>
      <trkpt lat="42.8636" lon="2.42637">
        <ele>495.60000610352</ele>
        <time>2025-08-05T09:12:30.000Z</time>
      </trkpt>
      <trkpt lat="42.86361" lon="2.42635">
        <ele>495.60000610352</ele>
        <time>2025-08-05T09:12:31.000Z</time>
      </trkpt>
      <trkpt lat="42.86367" lon="2.42629">
        <ele>496</ele>
        <time>2025-08-05T09:12:35.000Z</time>
      </trkpt>
      <trkpt lat="42.8637" lon="2.42626">
        <ele>496.39999389648</ele>
        <time>2025-08-05T09:12:37.000Z</time>
      </trkpt>
      <trkpt lat="42.86373" lon="2.42623">
        <ele>496.60000610352</ele>
        <time>2025-08-05T09:12:39.000Z</time>
      </trkpt>
      <trkpt lat="42.86381" lon="2.42615">
        <ele>497</ele>
        <time>2025-08-05T09:12:44.000Z</time>
      </trkpt>
      <trkpt lat="42.86391" lon="2.42602">
        <ele>497.60000610352</ele>
        <time>2025-08-05T09:12:51.000Z</time>
      </trkpt>
      <trkpt lat="42.86402" lon="2.42587">
        <ele>498.60000610352</ele>
        <time>2025-08-05T09:13:00.000Z</time>
      </trkpt>
      <trkpt lat="42.86404" lon="2.42585">
        <ele>498.60000610352</ele>
        <time>2025-08-05T09:13:01.000Z</time>
      </trkpt>
      <trkpt lat="42.86411" lon="2.42574">
        <ele>499</ele>
        <time>2025-08-05T09:13:07.000Z</time>
      </trkpt>
      <trkpt lat="42.86422" lon="2.42554">
        <ele>499.79998779297</ele>
        <time>2025-08-05T09:13:16.000Z</time>
      </trkpt>
      <trkpt lat="42.86435" lon="2.42533">
        <ele>500.20001220703</ele>
        <time>2025-08-05T09:13:27.000Z</time>
      </trkpt>
      <trkpt lat="42.86441" lon="2.42526">
        <ele>501</ele>
        <time>2025-08-05T09:13:31.000Z</time>
      </trkpt>
      <trkpt lat="42.86444" lon="2.42523">
        <ele>502.39999389648</ele>
        <time>2025-08-05T09:13:33.000Z</time>
      </trkpt>
      <trkpt lat="42.86448" lon="2.42519">
        <ele>503</ele>
        <time>2025-08-05T09:13:35.000Z</time>
      </trkpt>
      <trkpt lat="42.86458" lon="2.42505">
        <ele>503</ele>
        <time>2025-08-05T09:13:42.000Z</time>
      </trkpt>
      <trkpt lat="42.86463" lon="2.42491">
        <ele>503</ele>
        <time>2025-08-05T09:13:48.000Z</time>
      </trkpt>
      <trkpt lat="42.86465" lon="2.42487">
        <ele>503.20001220703</ele>
        <time>2025-08-05T09:13:50.000Z</time>
      </trkpt>
      <trkpt lat="42.86467" lon="2.42482">
        <ele>503.60000610352</ele>
        <time>2025-08-05T09:13:52.000Z</time>
      </trkpt>
      <trkpt lat="42.86467" lon="2.42477">
        <ele>503.79998779297</ele>
        <time>2025-08-05T09:13:54.000Z</time>
      </trkpt>
      <trkpt lat="42.86471" lon="2.42456">
        <ele>504.60000610352</ele>
        <time>2025-08-05T09:14:02.000Z</time>
      </trkpt>
      <trkpt lat="42.86472" lon="2.42454">
        <ele>504.60000610352</ele>
        <time>2025-08-05T09:14:03.000Z</time>
      </trkpt>
      <trkpt lat="42.86481" lon="2.42434">
        <ele>505</ele>
        <time>2025-08-05T09:14:12.000Z</time>
      </trkpt>
      <trkpt lat="42.86484" lon="2.42429">
        <ele>505.79998779297</ele>
        <time>2025-08-05T09:14:15.000Z</time>
      </trkpt>
      <trkpt lat="42.86489" lon="2.4242">
        <ele>506.60000610352</ele>
        <time>2025-08-05T09:14:19.000Z</time>
      </trkpt>
      <trkpt lat="42.86492" lon="2.42417">
        <ele>506.79998779297</ele>
        <time>2025-08-05T09:14:21.000Z</time>
      </trkpt>
      <trkpt lat="42.865" lon="2.42406">
        <ele>507</ele>
        <time>2025-08-05T09:14:27.000Z</time>
      </trkpt>
      <trkpt lat="42.86507" lon="2.42396">
        <ele>507.79998779297</ele>
        <time>2025-08-05T09:14:33.000Z</time>
      </trkpt>
      <trkpt lat="42.86511" lon="2.4239">
        <ele>508</ele>
        <time>2025-08-05T09:14:36.000Z</time>
      </trkpt>
      <trkpt lat="42.86524" lon="2.42377">
        <ele>508.79998779297</ele>
        <time>2025-08-05T09:14:44.000Z</time>
      </trkpt>
      <trkpt lat="42.86527" lon="2.42373">
        <ele>509</ele>
        <time>2025-08-05T09:14:46.000Z</time>
      </trkpt>
      <trkpt lat="42.86536" lon="2.4236">
        <ele>509.60000610352</ele>
        <time>2025-08-05T09:14:53.000Z</time>
      </trkpt>
      <trkpt lat="42.8654" lon="2.42355">
        <ele>510</ele>
        <time>2025-08-05T09:14:56.000Z</time>
      </trkpt>
      <trkpt lat="42.86546" lon="2.42349">
        <ele>510.60000610352</ele>
        <time>2025-08-05T09:15:00.000Z</time>
      </trkpt>
      <trkpt lat="42.86551" lon="2.42344">
        <ele>511</ele>
        <time>2025-08-05T09:15:03.000Z</time>
      </trkpt>
      <trkpt lat="42.86556" lon="2.42337">
        <ele>511.20001220703</ele>
        <time>2025-08-05T09:15:07.000Z</time>
      </trkpt>
      <trkpt lat="42.86563" lon="2.42329">
        <ele>511.60000610352</ele>
        <time>2025-08-05T09:15:12.000Z</time>
      </trkpt>
      <trkpt lat="42.86567" lon="2.42324">
        <ele>512</ele>
        <time>2025-08-05T09:15:15.000Z</time>
      </trkpt>
      <trkpt lat="42.86571" lon="2.42318">
        <ele>512.59997558594</ele>
        <time>2025-08-05T09:15:19.000Z</time>
      </trkpt>
      <trkpt lat="42.86573" lon="2.42318">
        <ele>512.59997558594</ele>
        <time>2025-08-05T09:15:20.000Z</time>
      </trkpt>
      <trkpt lat="42.86574" lon="2.42316">
        <ele>512.59997558594</ele>
        <time>2025-08-05T09:15:21.000Z</time>
      </trkpt>
      <trkpt lat="42.86578" lon="2.4231">
        <ele>513</ele>
        <time>2025-08-05T09:15:25.000Z</time>
      </trkpt>
      <trkpt lat="42.86579" lon="2.42309">
        <ele>513</ele>
        <time>2025-08-05T09:15:26.000Z</time>
      </trkpt>
      <trkpt lat="42.86581" lon="2.42307">
        <ele>513.40002441406</ele>
        <time>2025-08-05T09:15:28.000Z</time>
      </trkpt>
      <trkpt lat="42.86584" lon="2.42301">
        <ele>513.59997558594</ele>
        <time>2025-08-05T09:15:31.000Z</time>
      </trkpt>
      <trkpt lat="42.86595" lon="2.4229">
        <ele>514.20001220703</ele>
        <time>2025-08-05T09:15:38.000Z</time>
      </trkpt>
      <trkpt lat="42.86597" lon="2.42287">
        <ele>514.40002441406</ele>
        <time>2025-08-05T09:15:40.000Z</time>
      </trkpt>
      <trkpt lat="42.86603" lon="2.4228">
        <ele>514.79998779297</ele>
        <time>2025-08-05T09:15:44.000Z</time>
      </trkpt>
      <trkpt lat="42.86608" lon="2.42276">
        <ele>515.20001220703</ele>
        <time>2025-08-05T09:15:47.000Z</time>
      </trkpt>
      <trkpt lat="42.8661" lon="2.42274">
        <ele>515.20001220703</ele>
        <time>2025-08-05T09:15:48.000Z</time>
      </trkpt>
      <trkpt lat="42.86623" lon="2.4226">
        <ele>515.79998779297</ele>
        <time>2025-08-05T09:15:56.000Z</time>
      </trkpt>
      <trkpt lat="42.8663" lon="2.42254">
        <ele>516.20001220703</ele>
        <time>2025-08-05T09:16:00.000Z</time>
      </trkpt>
      <trkpt lat="42.86638" lon="2.42246">
        <ele>516.79998779297</ele>
        <time>2025-08-05T09:16:05.000Z</time>
      </trkpt>
      <trkpt lat="42.86644" lon="2.4224">
        <ele>517.20001220703</ele>
        <time>2025-08-05T09:16:09.000Z</time>
      </trkpt>
      <trkpt lat="42.86654" lon="2.42229">
        <ele>518.20001220703</ele>
        <time>2025-08-05T09:16:16.000Z</time>
      </trkpt>
      <trkpt lat="42.86656" lon="2.42228">
        <ele>518.40002441406</ele>
        <time>2025-08-05T09:16:17.000Z</time>
      </trkpt>
      <trkpt lat="42.86666" lon="2.42222">
        <ele>518.40002441406</ele>
        <time>2025-08-05T09:16:23.000Z</time>
      </trkpt>
      <trkpt lat="42.8667" lon="2.42217">
        <ele>518.59997558594</ele>
        <time>2025-08-05T09:16:26.000Z</time>
      </trkpt>
      <trkpt lat="42.86674" lon="2.42213">
        <ele>519</ele>
        <time>2025-08-05T09:16:29.000Z</time>
      </trkpt>
      <trkpt lat="42.86676" lon="2.42211">
        <ele>519.40002441406</ele>
        <time>2025-08-05T09:16:30.000Z</time>
      </trkpt>
      <trkpt lat="42.86686" lon="2.422">
        <ele>520.20001220703</ele>
        <time>2025-08-05T09:16:37.000Z</time>
      </trkpt>
      <trkpt lat="42.86689" lon="2.42197">
        <ele>520.40002441406</ele>
        <time>2025-08-05T09:16:39.000Z</time>
      </trkpt>
      <trkpt lat="42.86689" lon="2.42195">
        <ele>520.40002441406</ele>
        <time>2025-08-05T09:16:40.000Z</time>
      </trkpt>
      <trkpt lat="42.86694" lon="2.42188">
        <ele>520.79998779297</ele>
        <time>2025-08-05T09:16:44.000Z</time>
      </trkpt>
      <trkpt lat="42.86702" lon="2.42176">
        <ele>521.20001220703</ele>
        <time>2025-08-05T09:16:51.000Z</time>
      </trkpt>
      <trkpt lat="42.86704" lon="2.42172">
        <ele>521.59997558594</ele>
        <time>2025-08-05T09:16:53.000Z</time>
      </trkpt>
      <trkpt lat="42.86709" lon="2.4216">
        <ele>522.20001220703</ele>
        <time>2025-08-05T09:16:59.000Z</time>
      </trkpt>
      <trkpt lat="42.86712" lon="2.42153">
        <ele>522.59997558594</ele>
        <time>2025-08-05T09:17:02.000Z</time>
      </trkpt>
      <trkpt lat="42.86718" lon="2.42143">
        <ele>526</ele>
        <time>2025-08-05T09:17:07.000Z</time>
      </trkpt>
      <trkpt lat="42.8672" lon="2.42142">
        <ele>524</ele>
        <time>2025-08-05T09:17:08.000Z</time>
      </trkpt>
      <trkpt lat="42.86731" lon="2.42129">
        <ele>524.40002441406</ele>
        <time>2025-08-05T09:17:16.000Z</time>
      </trkpt>
      <trkpt lat="42.86741" lon="2.42117">
        <ele>524.79998779297</ele>
        <time>2025-08-05T09:17:23.000Z</time>
      </trkpt>
      <trkpt lat="42.86746" lon="2.42112">
        <ele>525.20001220703</ele>
        <time>2025-08-05T09:17:26.000Z</time>
      </trkpt>
      <trkpt lat="42.86754" lon="2.42106">
        <ele>525.79998779297</ele>
        <time>2025-08-05T09:17:31.000Z</time>
      </trkpt>
      <trkpt lat="42.86757" lon="2.42103">
        <ele>526.20001220703</ele>
        <time>2025-08-05T09:17:33.000Z</time>
      </trkpt>
      <trkpt lat="42.86769" lon="2.42092">
        <ele>527</ele>
        <time>2025-08-05T09:17:40.000Z</time>
      </trkpt>
      <trkpt lat="42.86771" lon="2.42089">
        <ele>527</ele>
        <time>2025-08-05T09:17:42.000Z</time>
      </trkpt>
      <trkpt lat="42.86784" lon="2.42075">
        <ele>527.79998779297</ele>
        <time>2025-08-05T09:17:50.000Z</time>
      </trkpt>
      <trkpt lat="42.86786" lon="2.42072">
        <ele>528</ele>
        <time>2025-08-05T09:17:52.000Z</time>
      </trkpt>
      <trkpt lat="42.86791" lon="2.42063">
        <ele>528.59997558594</ele>
        <time>2025-08-05T09:17:57.000Z</time>
      </trkpt>
      <trkpt lat="42.86794" lon="2.42055">
        <ele>529.20001220703</ele>
        <time>2025-08-05T09:18:01.000Z</time>
      </trkpt>
      <trkpt lat="42.86796" lon="2.42049">
        <ele>529.59997558594</ele>
        <time>2025-08-05T09:18:04.000Z</time>
      </trkpt>
      <trkpt lat="42.86801" lon="2.4203">
        <ele>530.20001220703</ele>
        <time>2025-08-05T09:18:12.000Z</time>
      </trkpt>
      <trkpt lat="42.86802" lon="2.42028">
        <ele>530.40002441406</ele>
        <time>2025-08-05T09:18:13.000Z</time>
      </trkpt>
      <trkpt lat="42.86806" lon="2.42014">
        <ele>531</ele>
        <time>2025-08-05T09:18:20.000Z</time>
      </trkpt>
      <trkpt lat="42.86807" lon="2.42012">
        <ele>531.20001220703</ele>
        <time>2025-08-05T09:18:21.000Z</time>
      </trkpt>
      <trkpt lat="42.86814" lon="2.41988">
        <ele>531.59997558594</ele>
        <time>2025-08-05T09:18:31.000Z</time>
      </trkpt>
      <trkpt lat="42.86817" lon="2.4198">
        <ele>532</ele>
        <time>2025-08-05T09:18:35.000Z</time>
      </trkpt>
      <trkpt lat="42.86821" lon="2.41971">
        <ele>532.40002441406</ele>
        <time>2025-08-05T09:18:40.000Z</time>
      </trkpt>
      <trkpt lat="42.86827" lon="2.41956">
        <ele>533</ele>
        <time>2025-08-05T09:18:47.000Z</time>
      </trkpt>
      <trkpt lat="42.86827" lon="2.41954">
        <ele>533.20001220703</ele>
        <time>2025-08-05T09:18:48.000Z</time>
      </trkpt>
      <trkpt lat="42.86834" lon="2.41941">
        <ele>533.79998779297</ele>
        <time>2025-08-05T09:18:54.000Z</time>
      </trkpt>
      <trkpt lat="42.86836" lon="2.41934">
        <ele>534.20001220703</ele>
        <time>2025-08-05T09:18:57.000Z</time>
      </trkpt>
      <trkpt lat="42.8684" lon="2.41923">
        <ele>534.79998779297</ele>
        <time>2025-08-05T09:19:02.000Z</time>
      </trkpt>
      <trkpt lat="42.86846" lon="2.41904">
        <ele>535.20001220703</ele>
        <time>2025-08-05T09:19:10.000Z</time>
      </trkpt>
      <trkpt lat="42.86846" lon="2.41893">
        <ele>535.79998779297</ele>
        <time>2025-08-05T09:19:15.000Z</time>
      </trkpt>
      <trkpt lat="42.86846" lon="2.41886">
        <ele>536.20001220703</ele>
        <time>2025-08-05T09:19:18.000Z</time>
      </trkpt>
      <trkpt lat="42.86847" lon="2.41869">
        <ele>537</ele>
        <time>2025-08-05T09:19:25.000Z</time>
      </trkpt>
      <trkpt lat="42.86847" lon="2.41862">
        <ele>537.20001220703</ele>
        <time>2025-08-05T09:19:28.000Z</time>
      </trkpt>
      <trkpt lat="42.86848" lon="2.41858">
        <ele>537.40002441406</ele>
        <time>2025-08-05T09:19:30.000Z</time>
      </trkpt>
      <trkpt lat="42.8685" lon="2.41853">
        <ele>537.59997558594</ele>
        <time>2025-08-05T09:19:32.000Z</time>
      </trkpt>
      <trkpt lat="42.86855" lon="2.41839">
        <ele>538.40002441406</ele>
        <time>2025-08-05T09:19:38.000Z</time>
      </trkpt>
      <trkpt lat="42.86857" lon="2.41836">
        <ele>538.40002441406</ele>
        <time>2025-08-05T09:19:39.000Z</time>
      </trkpt>
      <trkpt lat="42.86861" lon="2.41827">
        <ele>538.79998779297</ele>
        <time>2025-08-05T09:19:43.000Z</time>
      </trkpt>
      <trkpt lat="42.86866" lon="2.41823">
        <ele>539</ele>
        <time>2025-08-05T09:19:46.000Z</time>
      </trkpt>
      <trkpt lat="42.86873" lon="2.41818">
        <ele>539.20001220703</ele>
        <time>2025-08-05T09:19:50.000Z</time>
      </trkpt>
      <trkpt lat="42.86875" lon="2.41814">
        <ele>539.79998779297</ele>
        <time>2025-08-05T09:19:52.000Z</time>
      </trkpt>
      <trkpt lat="42.86877" lon="2.41812">
        <ele>539.79998779297</ele>
        <time>2025-08-05T09:19:53.000Z</time>
      </trkpt>
      <trkpt lat="42.86883" lon="2.41804">
        <ele>540.79998779297</ele>
        <time>2025-08-05T09:19:58.000Z</time>
      </trkpt>
      <trkpt lat="42.86886" lon="2.41797">
        <ele>541.20001220703</ele>
        <time>2025-08-05T09:20:01.000Z</time>
      </trkpt>
      <trkpt lat="42.86886" lon="2.41775">
        <ele>541.79998779297</ele>
        <time>2025-08-05T09:20:10.000Z</time>
      </trkpt>
      <trkpt lat="42.86886" lon="2.41773">
        <ele>541.79998779297</ele>
        <time>2025-08-05T09:20:11.000Z</time>
      </trkpt>
      <trkpt lat="42.86882" lon="2.4176">
        <ele>542.20001220703</ele>
        <time>2025-08-05T09:20:16.000Z</time>
      </trkpt>
      <trkpt lat="42.86883" lon="2.41753">
        <ele>542.59997558594</ele>
        <time>2025-08-05T09:20:19.000Z</time>
      </trkpt>
      <trkpt lat="42.86882" lon="2.4175">
        <ele>542.79998779297</ele>
        <time>2025-08-05T09:20:20.000Z</time>
      </trkpt>
      <trkpt lat="42.86883" lon="2.41742">
        <ele>543</ele>
        <time>2025-08-05T09:20:23.000Z</time>
      </trkpt>
      <trkpt lat="42.86885" lon="2.41736">
        <ele>543.20001220703</ele>
        <time>2025-08-05T09:20:26.000Z</time>
      </trkpt>
      <trkpt lat="42.86888" lon="2.41725">
        <ele>544</ele>
        <time>2025-08-05T09:20:31.000Z</time>
      </trkpt>
      <trkpt lat="42.86891" lon="2.41718">
        <ele>544.20001220703</ele>
        <time>2025-08-05T09:20:34.000Z</time>
      </trkpt>
      <trkpt lat="42.86891" lon="2.41715">
        <ele>544.40002441406</ele>
        <time>2025-08-05T09:20:35.000Z</time>
      </trkpt>
      <trkpt lat="42.86893" lon="2.41704">
        <ele>544.59997558594</ele>
        <time>2025-08-05T09:20:39.000Z</time>
      </trkpt>
      <trkpt lat="42.86896" lon="2.41698">
        <ele>545</ele>
        <time>2025-08-05T09:20:42.000Z</time>
      </trkpt>
      <trkpt lat="42.869" lon="2.41682">
        <ele>545.20001220703</ele>
        <time>2025-08-05T09:20:48.000Z</time>
      </trkpt>
      <trkpt lat="42.86904" lon="2.41674">
        <ele>545.79998779297</ele>
        <time>2025-08-05T09:20:52.000Z</time>
      </trkpt>
      <trkpt lat="42.86907" lon="2.41668">
        <ele>546.20001220703</ele>
        <time>2025-08-05T09:20:55.000Z</time>
      </trkpt>
      <trkpt lat="42.86918" lon="2.41653">
        <ele>546.79998779297</ele>
        <time>2025-08-05T09:21:03.000Z</time>
      </trkpt>
      <trkpt lat="42.86927" lon="2.41644">
        <ele>547.59997558594</ele>
        <time>2025-08-05T09:21:09.000Z</time>
      </trkpt>
      <trkpt lat="42.8693" lon="2.4164">
        <ele>547.79998779297</ele>
        <time>2025-08-05T09:21:11.000Z</time>
      </trkpt>
      <trkpt lat="42.86938" lon="2.41634">
        <ele>548.59997558594</ele>
        <time>2025-08-05T09:21:16.000Z</time>
      </trkpt>
      <trkpt lat="42.86939" lon="2.41632">
        <ele>548.59997558594</ele>
        <time>2025-08-05T09:21:17.000Z</time>
      </trkpt>
      <trkpt lat="42.86941" lon="2.41631">
        <ele>548.79998779297</ele>
        <time>2025-08-05T09:21:18.000Z</time>
      </trkpt>
      <trkpt lat="42.86945" lon="2.41627">
        <ele>548.79998779297</ele>
        <time>2025-08-05T09:21:21.000Z</time>
      </trkpt>
      <trkpt lat="42.86947" lon="2.41626">
        <ele>549</ele>
        <time>2025-08-05T09:21:22.000Z</time>
      </trkpt>
      <trkpt lat="42.86961" lon="2.41614">
        <ele>549.79998779297</ele>
        <time>2025-08-05T09:21:31.000Z</time>
      </trkpt>
      <trkpt lat="42.86964" lon="2.41612">
        <ele>550</ele>
        <time>2025-08-05T09:21:33.000Z</time>
      </trkpt>
      <trkpt lat="42.86973" lon="2.41606">
        <ele>550.59997558594</ele>
        <time>2025-08-05T09:21:39.000Z</time>
      </trkpt>
      <trkpt lat="42.86977" lon="2.41604">
        <ele>551</ele>
        <time>2025-08-05T09:21:41.000Z</time>
      </trkpt>
      <trkpt lat="42.86983" lon="2.41599">
        <ele>551.40002441406</ele>
        <time>2025-08-05T09:21:45.000Z</time>
      </trkpt>
      <trkpt lat="42.86995" lon="2.41588">
        <ele>552</ele>
        <time>2025-08-05T09:21:53.000Z</time>
      </trkpt>
      <trkpt lat="42.86997" lon="2.41587">
        <ele>552</ele>
        <time>2025-08-05T09:21:54.000Z</time>
      </trkpt>
      <trkpt lat="42.87007" lon="2.41577">
        <ele>553.20001220703</ele>
        <time>2025-08-05T09:22:01.000Z</time>
      </trkpt>
      <trkpt lat="42.87009" lon="2.41576">
        <ele>553.20001220703</ele>
        <time>2025-08-05T09:22:02.000Z</time>
      </trkpt>
      <trkpt lat="42.87021" lon="2.41564">
        <ele>553.79998779297</ele>
        <time>2025-08-05T09:22:10.000Z</time>
      </trkpt>
      <trkpt lat="42.87027" lon="2.41557">
        <ele>554.20001220703</ele>
        <time>2025-08-05T09:22:14.000Z</time>
      </trkpt>
      <trkpt lat="42.87029" lon="2.41554">
        <ele>554.59997558594</ele>
        <time>2025-08-05T09:22:16.000Z</time>
      </trkpt>
      <trkpt lat="42.87034" lon="2.41551">
        <ele>554.59997558594</ele>
        <time>2025-08-05T09:22:19.000Z</time>
      </trkpt>
      <trkpt lat="42.87036" lon="2.41546">
        <ele>554.79998779297</ele>
        <time>2025-08-05T09:22:21.000Z</time>
      </trkpt>
      <trkpt lat="42.87041" lon="2.41531">
        <ele>555.20001220703</ele>
        <time>2025-08-05T09:22:28.000Z</time>
      </trkpt>
      <trkpt lat="42.87042" lon="2.41529">
        <ele>555.20001220703</ele>
        <time>2025-08-05T09:22:29.000Z</time>
      </trkpt>
      <trkpt lat="42.87047" lon="2.41515">
        <ele>555.59997558594</ele>
        <time>2025-08-05T09:22:36.000Z</time>
      </trkpt>
      <trkpt lat="42.87051" lon="2.41508">
        <ele>556</ele>
        <time>2025-08-05T09:22:40.000Z</time>
      </trkpt>
      <trkpt lat="42.87055" lon="2.41499">
        <ele>556.79998779297</ele>
        <time>2025-08-05T09:22:44.000Z</time>
      </trkpt>
      <trkpt lat="42.87057" lon="2.41495">
        <ele>557.20001220703</ele>
        <time>2025-08-05T09:22:46.000Z</time>
      </trkpt>
      <trkpt lat="42.87062" lon="2.41483">
        <ele>558.20001220703</ele>
        <time>2025-08-05T09:22:52.000Z</time>
      </trkpt>
      <trkpt lat="42.87071" lon="2.41468">
        <ele>559.20001220703</ele>
        <time>2025-08-05T09:22:59.000Z</time>
      </trkpt>
      <trkpt lat="42.87076" lon="2.41462">
        <ele>559.40002441406</ele>
        <time>2025-08-05T09:23:02.000Z</time>
      </trkpt>
      <trkpt lat="42.87078" lon="2.41459">
        <ele>559.59997558594</ele>
        <time>2025-08-05T09:23:04.000Z</time>
      </trkpt>
      <trkpt lat="42.87082" lon="2.41456">
        <ele>559.59997558594</ele>
        <time>2025-08-05T09:23:07.000Z</time>
      </trkpt>
      <trkpt lat="42.87088" lon="2.41451">
        <ele>559.79998779297</ele>
        <time>2025-08-05T09:23:11.000Z</time>
      </trkpt>
      <trkpt lat="42.87091" lon="2.41451">
        <ele>560</ele>
        <time>2025-08-05T09:23:14.000Z</time>
      </trkpt>
      <trkpt lat="42.87094" lon="2.41449">
        <ele>560.20001220703</ele>
        <time>2025-08-05T09:23:16.000Z</time>
      </trkpt>
      <trkpt lat="42.87096" lon="2.41449">
        <ele>560.40002441406</ele>
        <time>2025-08-05T09:23:17.000Z</time>
      </trkpt>
      <trkpt lat="42.87101" lon="2.41449">
        <ele>560.59997558594</ele>
        <time>2025-08-05T09:23:20.000Z</time>
      </trkpt>
      <trkpt lat="42.87106" lon="2.41448">
        <ele>561.20001220703</ele>
        <time>2025-08-05T09:23:23.000Z</time>
      </trkpt>
      <trkpt lat="42.87112" lon="2.41449">
        <ele>561.59997558594</ele>
        <time>2025-08-05T09:23:26.000Z</time>
      </trkpt>
      <trkpt lat="42.8712" lon="2.41448">
        <ele>562.20001220703</ele>
        <time>2025-08-05T09:23:30.000Z</time>
      </trkpt>
      <trkpt lat="42.87124" lon="2.41446">
        <ele>562.40002441406</ele>
        <time>2025-08-05T09:23:32.000Z</time>
      </trkpt>
      <trkpt lat="42.87135" lon="2.41434">
        <ele>562.79998779297</ele>
        <time>2025-08-05T09:23:39.000Z</time>
      </trkpt>
      <trkpt lat="42.87134" lon="2.41428">
        <ele>563</ele>
        <time>2025-08-05T09:23:42.000Z</time>
      </trkpt>
      <trkpt lat="42.87132" lon="2.41423">
        <ele>563</ele>
        <time>2025-08-05T09:23:44.000Z</time>
      </trkpt>
      <trkpt lat="42.8713" lon="2.41418">
        <ele>563</ele>
        <time>2025-08-05T09:23:46.000Z</time>
      </trkpt>
      <trkpt lat="42.87126" lon="2.41412">
        <ele>563.20001220703</ele>
        <time>2025-08-05T09:23:49.000Z</time>
      </trkpt>
      <trkpt lat="42.87125" lon="2.41406">
        <ele>563.59997558594</ele>
        <time>2025-08-05T09:23:51.000Z</time>
      </trkpt>
      <trkpt lat="42.87123" lon="2.41402">
        <ele>564</ele>
        <time>2025-08-05T09:23:53.000Z</time>
      </trkpt>
      <trkpt lat="42.87123" lon="2.41399">
        <ele>564.20001220703</ele>
        <time>2025-08-05T09:23:54.000Z</time>
      </trkpt>
      <trkpt lat="42.87118" lon="2.4139">
        <ele>565.20001220703</ele>
        <time>2025-08-05T09:23:58.000Z</time>
      </trkpt>
      <trkpt lat="42.87116" lon="2.41385">
        <ele>565.40002441406</ele>
        <time>2025-08-05T09:24:00.000Z</time>
      </trkpt>
      <trkpt lat="42.87114" lon="2.41376">
        <ele>565.59997558594</ele>
        <time>2025-08-05T09:24:03.000Z</time>
      </trkpt>
      <trkpt lat="42.87121" lon="2.41359">
        <ele>566</ele>
        <time>2025-08-05T09:24:09.000Z</time>
      </trkpt>
      <trkpt lat="42.87131" lon="2.41348">
        <ele>566</ele>
        <time>2025-08-05T09:24:14.000Z</time>
      </trkpt>
      <trkpt lat="42.87137" lon="2.4134">
        <ele>566.40002441406</ele>
        <time>2025-08-05T09:24:17.000Z</time>
      </trkpt>
      <trkpt lat="42.87143" lon="2.41332">
        <ele>567.20001220703</ele>
        <time>2025-08-05T09:24:21.000Z</time>
      </trkpt>
      <trkpt lat="42.87144" lon="2.4133">
        <ele>567.40002441406</ele>
        <time>2025-08-05T09:24:22.000Z</time>
      </trkpt>
      <trkpt lat="42.87145" lon="2.41328">
        <ele>567.79998779297</ele>
        <time>2025-08-05T09:24:23.000Z</time>
      </trkpt>
      <trkpt lat="42.87149" lon="2.41323">
        <ele>568.40002441406</ele>
        <time>2025-08-05T09:24:26.000Z</time>
      </trkpt>
      <trkpt lat="42.87151" lon="2.41319">
        <ele>568.79998779297</ele>
        <time>2025-08-05T09:24:28.000Z</time>
      </trkpt>
      <trkpt lat="42.87156" lon="2.4131">
        <ele>569.40002441406</ele>
        <time>2025-08-05T09:24:33.000Z</time>
      </trkpt>
      <trkpt lat="42.87155" lon="2.41309">
        <ele>569.40002441406</ele>
        <time>2025-08-05T09:24:34.000Z</time>
      </trkpt>
      <trkpt lat="42.87154" lon="2.41303">
        <ele>569.59997558594</ele>
        <time>2025-08-05T09:24:37.000Z</time>
      </trkpt>
      <trkpt lat="42.87154" lon="2.41297">
        <ele>569.79998779297</ele>
        <time>2025-08-05T09:24:40.000Z</time>
      </trkpt>
      <trkpt lat="42.87153" lon="2.41291">
        <ele>569.79998779297</ele>
        <time>2025-08-05T09:24:43.000Z</time>
      </trkpt>
      <trkpt lat="42.87153" lon="2.41282">
        <ele>570.20001220703</ele>
        <time>2025-08-05T09:24:46.000Z</time>
      </trkpt>
      <trkpt lat="42.87153" lon="2.41266">
        <ele>571</ele>
        <time>2025-08-05T09:24:53.000Z</time>
      </trkpt>
      <trkpt lat="42.87153" lon="2.41264">
        <ele>571.40002441406</ele>
        <time>2025-08-05T09:24:54.000Z</time>
      </trkpt>
      <trkpt lat="42.87154" lon="2.41259">
        <ele>571.40002441406</ele>
        <time>2025-08-05T09:24:56.000Z</time>
      </trkpt>
      <trkpt lat="42.87155" lon="2.41255">
        <ele>572</ele>
        <time>2025-08-05T09:24:58.000Z</time>
      </trkpt>
      <trkpt lat="42.87156" lon="2.41253">
        <ele>572</ele>
        <time>2025-08-05T09:24:59.000Z</time>
      </trkpt>
      <trkpt lat="42.87158" lon="2.41249">
        <ele>572</ele>
        <time>2025-08-05T09:25:01.000Z</time>
      </trkpt>
      <trkpt lat="42.87159" lon="2.41244">
        <ele>572.20001220703</ele>
        <time>2025-08-05T09:25:03.000Z</time>
      </trkpt>
      <trkpt lat="42.87159" lon="2.41242">
        <ele>572.20001220703</ele>
        <time>2025-08-05T09:25:04.000Z</time>
      </trkpt>
      <trkpt lat="42.87159" lon="2.41242">
        <ele>572.20001220703</ele>
        <time>2025-08-05T09:25:05.000Z</time>
      </trkpt>
      <trkpt lat="42.87159" lon="2.41242">
        <ele>572.40002441406</ele>
        <time>2025-08-05T09:25:08.000Z</time>
      </trkpt>
      <trkpt lat="42.87159" lon="2.41234">
        <ele>572.59997558594</ele>
        <time>2025-08-05T09:28:59.000Z</time>
      </trkpt>
      <trkpt lat="42.87159" lon="2.41232">
        <ele>572.59997558594</ele>
        <time>2025-08-05T09:29:00.000Z</time>
      </trkpt>
      <trkpt lat="42.8716" lon="2.41227">
        <ele>572.59997558594</ele>
        <time>2025-08-05T09:29:03.000Z</time>
      </trkpt>
      <trkpt lat="42.87161" lon="2.41224">
        <ele>572.59997558594</ele>
        <time>2025-08-05T09:29:04.000Z</time>
      </trkpt>
      <trkpt lat="42.87165" lon="2.41209">
        <ele>573.40002441406</ele>
        <time>2025-08-05T09:29:11.000Z</time>
      </trkpt>
      <trkpt lat="42.87166" lon="2.41207">
        <ele>573.40002441406</ele>
        <time>2025-08-05T09:29:12.000Z</time>
      </trkpt>
      <trkpt lat="42.87165" lon="2.41197">
        <ele>573.79998779297</ele>
        <time>2025-08-05T09:29:16.000Z</time>
      </trkpt>
      <trkpt lat="42.87167" lon="2.41193">
        <ele>574.59997558594</ele>
        <time>2025-08-05T09:29:21.000Z</time>
      </trkpt>
      <trkpt lat="42.87168" lon="2.41188">
        <ele>574.79998779297</ele>
        <time>2025-08-05T09:29:23.000Z</time>
      </trkpt>
      <trkpt lat="42.87166" lon="2.41173">
        <ele>575.59997558594</ele>
        <time>2025-08-05T09:29:28.000Z</time>
      </trkpt>
      <trkpt lat="42.87165" lon="2.41168">
        <ele>575.79998779297</ele>
        <time>2025-08-05T09:29:30.000Z</time>
      </trkpt>
      <trkpt lat="42.87164" lon="2.41147">
        <ele>577</ele>
        <time>2025-08-05T09:29:37.000Z</time>
      </trkpt>
      <trkpt lat="42.87165" lon="2.41119">
        <ele>577.79998779297</ele>
        <time>2025-08-05T09:29:45.000Z</time>
      </trkpt>
      <trkpt lat="42.87166" lon="2.41109">
        <ele>578.20001220703</ele>
        <time>2025-08-05T09:29:49.000Z</time>
      </trkpt>
      <trkpt lat="42.87167" lon="2.41107">
        <ele>578.40002441406</ele>
        <time>2025-08-05T09:29:50.000Z</time>
      </trkpt>
      <trkpt lat="42.87172" lon="2.41103">
        <ele>578.59997558594</ele>
        <time>2025-08-05T09:29:52.000Z</time>
      </trkpt>
      <trkpt lat="42.87173" lon="2.41097">
        <ele>578.79998779297</ele>
        <time>2025-08-05T09:29:54.000Z</time>
      </trkpt>
      <trkpt lat="42.87173" lon="2.41094">
        <ele>579</ele>
        <time>2025-08-05T09:29:55.000Z</time>
      </trkpt>
      <trkpt lat="42.87174" lon="2.41078">
        <ele>579.59997558594</ele>
        <time>2025-08-05T09:30:03.000Z</time>
      </trkpt>
      <trkpt lat="42.87176" lon="2.4107">
        <ele>579.79998779297</ele>
        <time>2025-08-05T09:30:07.000Z</time>
      </trkpt>
      <trkpt lat="42.87177" lon="2.41068">
        <ele>580</ele>
        <time>2025-08-05T09:30:08.000Z</time>
      </trkpt>
      <trkpt lat="42.87178" lon="2.41066">
        <ele>580</ele>
        <time>2025-08-05T09:30:09.000Z</time>
      </trkpt>
      <trkpt lat="42.87181" lon="2.41061">
        <ele>580.20001220703</ele>
        <time>2025-08-05T09:30:12.000Z</time>
      </trkpt>
      <trkpt lat="42.87184" lon="2.41055">
        <ele>580.40002441406</ele>
        <time>2025-08-05T09:30:15.000Z</time>
      </trkpt>
      <trkpt lat="42.87186" lon="2.41051">
        <ele>580.79998779297</ele>
        <time>2025-08-05T09:30:17.000Z</time>
      </trkpt>
      <trkpt lat="42.87187" lon="2.41047">
        <ele>581</ele>
        <time>2025-08-05T09:30:19.000Z</time>
      </trkpt>
      <trkpt lat="42.87189" lon="2.41042">
        <ele>581.20001220703</ele>
        <time>2025-08-05T09:30:21.000Z</time>
      </trkpt>
      <trkpt lat="42.8719" lon="2.41038">
        <ele>581.20001220703</ele>
        <time>2025-08-05T09:30:23.000Z</time>
      </trkpt>
      <trkpt lat="42.87189" lon="2.41034">
        <ele>581.20001220703</ele>
        <time>2025-08-05T09:30:25.000Z</time>
      </trkpt>
      <trkpt lat="42.8719" lon="2.41033">
        <ele>581.40002441406</ele>
        <time>2025-08-05T09:30:26.000Z</time>
      </trkpt>
      <trkpt lat="42.8719" lon="2.41022">
        <ele>581.79998779297</ele>
        <time>2025-08-05T09:30:31.000Z</time>
      </trkpt>
      <trkpt lat="42.87192" lon="2.41015">
        <ele>582</ele>
        <time>2025-08-05T09:30:34.000Z</time>
      </trkpt>
      <trkpt lat="42.87196" lon="2.41001">
        <ele>582.59997558594</ele>
        <time>2025-08-05T09:30:41.000Z</time>
      </trkpt>
      <trkpt lat="42.87198" lon="2.40997">
        <ele>582.79998779297</ele>
        <time>2025-08-05T09:30:43.000Z</time>
      </trkpt>
      <trkpt lat="42.87203" lon="2.40984">
        <ele>583.59997558594</ele>
        <time>2025-08-05T09:30:49.000Z</time>
      </trkpt>
      <trkpt lat="42.87205" lon="2.40983">
        <ele>583.79998779297</ele>
        <time>2025-08-05T09:30:50.000Z</time>
      </trkpt>
      <trkpt lat="42.87207" lon="2.40981">
        <ele>584</ele>
        <time>2025-08-05T09:30:51.000Z</time>
      </trkpt>
      <trkpt lat="42.87212" lon="2.40974">
        <ele>584.20001220703</ele>
        <time>2025-08-05T09:30:54.000Z</time>
      </trkpt>
      <trkpt lat="42.87214" lon="2.40973">
        <ele>584.40002441406</ele>
        <time>2025-08-05T09:30:55.000Z</time>
      </trkpt>
      <trkpt lat="42.87222" lon="2.40965">
        <ele>585</ele>
        <time>2025-08-05T09:30:59.000Z</time>
      </trkpt>
      <trkpt lat="42.87223" lon="2.40963">
        <ele>585.20001220703</ele>
        <time>2025-08-05T09:31:00.000Z</time>
      </trkpt>
      <trkpt lat="42.87224" lon="2.40962">
        <ele>585.20001220703</ele>
        <time>2025-08-05T09:31:01.000Z</time>
      </trkpt>
      <trkpt lat="42.87233" lon="2.40952">
        <ele>585.59997558594</ele>
        <time>2025-08-05T09:31:07.000Z</time>
      </trkpt>
      <trkpt lat="42.87233" lon="2.40949">
        <ele>585.59997558594</ele>
        <time>2025-08-05T09:31:08.000Z</time>
      </trkpt>
      <trkpt lat="42.87239" lon="2.40941">
        <ele>585.79998779297</ele>
        <time>2025-08-05T09:31:13.000Z</time>
      </trkpt>
      <trkpt lat="42.87247" lon="2.40928">
        <ele>587</ele>
        <time>2025-08-05T09:31:21.000Z</time>
      </trkpt>
      <trkpt lat="42.87249" lon="2.40926">
        <ele>587</ele>
        <time>2025-08-05T09:31:22.000Z</time>
      </trkpt>
      <trkpt lat="42.8725" lon="2.40925">
        <ele>587.20001220703</ele>
        <time>2025-08-05T09:31:23.000Z</time>
      </trkpt>
      <trkpt lat="42.87252" lon="2.4092">
        <ele>587.40002441406</ele>
        <time>2025-08-05T09:31:27.000Z</time>
      </trkpt>
      <trkpt lat="42.87253" lon="2.40919">
        <ele>587.59997558594</ele>
        <time>2025-08-05T09:31:28.000Z</time>
      </trkpt>
      <trkpt lat="42.87253" lon="2.40917">
        <ele>587.79998779297</ele>
        <time>2025-08-05T09:31:30.000Z</time>
      </trkpt>
      <trkpt lat="42.87251" lon="2.40908">
        <ele>588.40002441406</ele>
        <time>2025-08-05T09:31:35.000Z</time>
      </trkpt>
      <trkpt lat="42.8725" lon="2.40903">
        <ele>588.79998779297</ele>
        <time>2025-08-05T09:31:37.000Z</time>
      </trkpt>
      <trkpt lat="42.87249" lon="2.40901">
        <ele>588.79998779297</ele>
        <time>2025-08-05T09:31:38.000Z</time>
      </trkpt>
      <trkpt lat="42.87244" lon="2.40887">
        <ele>589.79998779297</ele>
        <time>2025-08-05T09:31:45.000Z</time>
      </trkpt>
      <trkpt lat="42.87243" lon="2.40885">
        <ele>589.79998779297</ele>
        <time>2025-08-05T09:31:46.000Z</time>
      </trkpt>
      <trkpt lat="42.87238" lon="2.40874">
        <ele>590.20001220703</ele>
        <time>2025-08-05T09:31:51.000Z</time>
      </trkpt>
      <trkpt lat="42.87236" lon="2.40871">
        <ele>590.40002441406</ele>
        <time>2025-08-05T09:31:53.000Z</time>
      </trkpt>
      <trkpt lat="42.87236" lon="2.40871">
        <ele>590.59997558594</ele>
        <time>2025-08-05T09:31:54.000Z</time>
      </trkpt>
      <trkpt lat="42.87233" lon="2.40865">
        <ele>590.79998779297</ele>
        <time>2025-08-05T09:31:57.000Z</time>
      </trkpt>
      <trkpt lat="42.87231" lon="2.4086">
        <ele>591</ele>
        <time>2025-08-05T09:31:59.000Z</time>
      </trkpt>
      <trkpt lat="42.87225" lon="2.40847">
        <ele>591.59997558594</ele>
        <time>2025-08-05T09:32:05.000Z</time>
      </trkpt>
      <trkpt lat="42.87223" lon="2.40841">
        <ele>591.79998779297</ele>
        <time>2025-08-05T09:32:08.000Z</time>
      </trkpt>
      <trkpt lat="42.8722" lon="2.40836">
        <ele>592.20001220703</ele>
        <time>2025-08-05T09:32:11.000Z</time>
      </trkpt>
      <trkpt lat="42.87219" lon="2.40834">
        <ele>592.20001220703</ele>
        <time>2025-08-05T09:32:12.000Z</time>
      </trkpt>
      <trkpt lat="42.87218" lon="2.40828">
        <ele>592.40002441406</ele>
        <time>2025-08-05T09:32:15.000Z</time>
      </trkpt>
      <trkpt lat="42.87219" lon="2.40823">
        <ele>592.79998779297</ele>
        <time>2025-08-05T09:32:17.000Z</time>
      </trkpt>
      <trkpt lat="42.87219" lon="2.40821">
        <ele>592.79998779297</ele>
        <time>2025-08-05T09:32:18.000Z</time>
      </trkpt>
      <trkpt lat="42.87219" lon="2.40815">
        <ele>593</ele>
        <time>2025-08-05T09:32:20.000Z</time>
      </trkpt>
      <trkpt lat="42.87218" lon="2.40807">
        <ele>593.20001220703</ele>
        <time>2025-08-05T09:32:23.000Z</time>
      </trkpt>
      <trkpt lat="42.8722" lon="2.40804">
        <ele>593.40002441406</ele>
        <time>2025-08-05T09:32:25.000Z</time>
      </trkpt>
      <trkpt lat="42.87219" lon="2.40795">
        <ele>593.79998779297</ele>
        <time>2025-08-05T09:32:29.000Z</time>
      </trkpt>
      <trkpt lat="42.87216" lon="2.40788">
        <ele>594.20001220703</ele>
        <time>2025-08-05T09:32:32.000Z</time>
      </trkpt>
      <trkpt lat="42.87215" lon="2.40778">
        <ele>594.59997558594</ele>
        <time>2025-08-05T09:32:36.000Z</time>
      </trkpt>
      <trkpt lat="42.87214" lon="2.40772">
        <ele>595</ele>
        <time>2025-08-05T09:32:38.000Z</time>
      </trkpt>
      <trkpt lat="42.87213" lon="2.4077">
        <ele>595</ele>
        <time>2025-08-05T09:32:39.000Z</time>
      </trkpt>
      <trkpt lat="42.87207" lon="2.40755">
        <ele>595.40002441406</ele>
        <time>2025-08-05T09:32:46.000Z</time>
      </trkpt>
      <trkpt lat="42.87204" lon="2.40741">
        <ele>596</ele>
        <time>2025-08-05T09:32:52.000Z</time>
      </trkpt>
      <trkpt lat="42.87204" lon="2.40734">
        <ele>596</ele>
        <time>2025-08-05T09:32:55.000Z</time>
      </trkpt>
      <trkpt lat="42.87205" lon="2.40729">
        <ele>596</ele>
        <time>2025-08-05T09:32:57.000Z</time>
      </trkpt>
      <trkpt lat="42.87207" lon="2.40719">
        <ele>596.40002441406</ele>
        <time>2025-08-05T09:33:01.000Z</time>
      </trkpt>
      <trkpt lat="42.87212" lon="2.40716">
        <ele>596.59997558594</ele>
        <time>2025-08-05T09:33:03.000Z</time>
      </trkpt>
      <trkpt lat="42.87216" lon="2.40711">
        <ele>596.79998779297</ele>
        <time>2025-08-05T09:33:05.000Z</time>
      </trkpt>
      <trkpt lat="42.87219" lon="2.40706">
        <ele>597</ele>
        <time>2025-08-05T09:33:07.000Z</time>
      </trkpt>
      <trkpt lat="42.87225" lon="2.40697">
        <ele>597.40002441406</ele>
        <time>2025-08-05T09:33:11.000Z</time>
      </trkpt>
      <trkpt lat="42.87227" lon="2.40695">
        <ele>597.40002441406</ele>
        <time>2025-08-05T09:33:12.000Z</time>
      </trkpt>
      <trkpt lat="42.87233" lon="2.4069">
        <ele>597.79998779297</ele>
        <time>2025-08-05T09:33:15.000Z</time>
      </trkpt>
      <trkpt lat="42.87235" lon="2.40689">
        <ele>598</ele>
        <time>2025-08-05T09:33:16.000Z</time>
      </trkpt>
      <trkpt lat="42.87236" lon="2.40687">
        <ele>598.20001220703</ele>
        <time>2025-08-05T09:33:17.000Z</time>
      </trkpt>
      <trkpt lat="42.87242" lon="2.40683">
        <ele>598.40002441406</ele>
        <time>2025-08-05T09:33:21.000Z</time>
      </trkpt>
      <trkpt lat="42.87246" lon="2.40677">
        <ele>598.59997558594</ele>
        <time>2025-08-05T09:33:24.000Z</time>
      </trkpt>
      <trkpt lat="42.87249" lon="2.40674">
        <ele>598.79998779297</ele>
        <time>2025-08-05T09:33:27.000Z</time>
      </trkpt>
      <trkpt lat="42.87254" lon="2.40672">
        <ele>599</ele>
        <time>2025-08-05T09:33:29.000Z</time>
      </trkpt>
      <trkpt lat="42.87259" lon="2.40668">
        <ele>599.40002441406</ele>
        <time>2025-08-05T09:33:33.000Z</time>
      </trkpt>
      <trkpt lat="42.87264" lon="2.40666">
        <ele>599.79998779297</ele>
        <time>2025-08-05T09:33:36.000Z</time>
      </trkpt>
      <trkpt lat="42.87265" lon="2.40666">
        <ele>599.79998779297</ele>
        <time>2025-08-05T09:33:37.000Z</time>
      </trkpt>
      <trkpt lat="42.87266" lon="2.40665">
        <ele>600</ele>
        <time>2025-08-05T09:33:38.000Z</time>
      </trkpt>
      <trkpt lat="42.87267" lon="2.40665">
        <ele>600.20001220703</ele>
        <time>2025-08-05T09:33:39.000Z</time>
      </trkpt>
      <trkpt lat="42.87268" lon="2.40664">
        <ele>600.20001220703</ele>
        <time>2025-08-05T09:33:41.000Z</time>
      </trkpt>
      <trkpt lat="42.87278" lon="2.40659">
        <ele>600.59997558594</ele>
        <time>2025-08-05T09:33:46.000Z</time>
      </trkpt>
      <trkpt lat="42.87286" lon="2.40657">
        <ele>600.79998779297</ele>
        <time>2025-08-05T09:33:50.000Z</time>
      </trkpt>
      <trkpt lat="42.87291" lon="2.40652">
        <ele>601.40002441406</ele>
        <time>2025-08-05T09:33:53.000Z</time>
      </trkpt>
      <trkpt lat="42.87294" lon="2.40649">
        <ele>601.79998779297</ele>
        <time>2025-08-05T09:33:55.000Z</time>
      </trkpt>
      <trkpt lat="42.87295" lon="2.40648">
        <ele>601.79998779297</ele>
        <time>2025-08-05T09:33:56.000Z</time>
      </trkpt>
      <trkpt lat="42.87296" lon="2.40644">
        <ele>602</ele>
        <time>2025-08-05T09:33:57.000Z</time>
      </trkpt>
      <trkpt lat="42.87297" lon="2.40643">
        <ele>602.20001220703</ele>
        <time>2025-08-05T09:33:58.000Z</time>
      </trkpt>
      <trkpt lat="42.87298" lon="2.40642">
        <ele>602.20001220703</ele>
        <time>2025-08-05T09:33:59.000Z</time>
      </trkpt>
      <trkpt lat="42.87302" lon="2.40632">
        <ele>602.59997558594</ele>
        <time>2025-08-05T09:34:03.000Z</time>
      </trkpt>
      <trkpt lat="42.87308" lon="2.40625">
        <ele>602.79998779297</ele>
        <time>2025-08-05T09:34:06.000Z</time>
      </trkpt>
      <trkpt lat="42.87309" lon="2.4062">
        <ele>602.79998779297</ele>
        <time>2025-08-05T09:34:08.000Z</time>
      </trkpt>
      <trkpt lat="42.87312" lon="2.40615">
        <ele>603.20001220703</ele>
        <time>2025-08-05T09:34:10.000Z</time>
      </trkpt>
      <trkpt lat="42.87318" lon="2.40608">
        <ele>603.79998779297</ele>
        <time>2025-08-05T09:34:14.000Z</time>
      </trkpt>
      <trkpt lat="42.87322" lon="2.406">
        <ele>604</ele>
        <time>2025-08-05T09:34:18.000Z</time>
      </trkpt>
      <trkpt lat="42.87331" lon="2.40585">
        <ele>604.59997558594</ele>
        <time>2025-08-05T09:34:25.000Z</time>
      </trkpt>
      <trkpt lat="42.87338" lon="2.40569">
        <ele>604.79998779297</ele>
        <time>2025-08-05T09:34:32.000Z</time>
      </trkpt>
      <trkpt lat="42.87338" lon="2.40567">
        <ele>604.79998779297</ele>
        <time>2025-08-05T09:34:33.000Z</time>
      </trkpt>
      <trkpt lat="42.87346" lon="2.40549">
        <ele>605.20001220703</ele>
        <time>2025-08-05T09:34:41.000Z</time>
      </trkpt>
      <trkpt lat="42.87348" lon="2.40541">
        <ele>605.79998779297</ele>
        <time>2025-08-05T09:34:44.000Z</time>
      </trkpt>
      <trkpt lat="42.87352" lon="2.40534">
        <ele>606.20001220703</ele>
        <time>2025-08-05T09:34:47.000Z</time>
      </trkpt>
      <trkpt lat="42.87359" lon="2.40524">
        <ele>606.79998779297</ele>
        <time>2025-08-05T09:34:53.000Z</time>
      </trkpt>
      <trkpt lat="42.87364" lon="2.40521">
        <ele>607</ele>
        <time>2025-08-05T09:34:56.000Z</time>
      </trkpt>
      <trkpt lat="42.87375" lon="2.40513">
        <ele>607.79998779297</ele>
        <time>2025-08-05T09:35:03.000Z</time>
      </trkpt>
      <trkpt lat="42.87379" lon="2.40511">
        <ele>607.79998779297</ele>
        <time>2025-08-05T09:35:05.000Z</time>
      </trkpt>
      <trkpt lat="42.87389" lon="2.40503">
        <ele>609</ele>
        <time>2025-08-05T09:35:12.000Z</time>
      </trkpt>
      <trkpt lat="42.87399" lon="2.40488">
        <ele>610.20001220703</ele>
        <time>2025-08-05T09:35:20.000Z</time>
      </trkpt>
      <trkpt lat="42.87401" lon="2.40486">
        <ele>610.20001220703</ele>
        <time>2025-08-05T09:35:21.000Z</time>
      </trkpt>
      <trkpt lat="42.87402" lon="2.40484">
        <ele>610.40002441406</ele>
        <time>2025-08-05T09:35:22.000Z</time>
      </trkpt>
      <trkpt lat="42.87405" lon="2.40475">
        <ele>610.59997558594</ele>
        <time>2025-08-05T09:35:26.000Z</time>
      </trkpt>
      <trkpt lat="42.87407" lon="2.40471">
        <ele>610.79998779297</ele>
        <time>2025-08-05T09:35:28.000Z</time>
      </trkpt>
      <trkpt lat="42.87408" lon="2.4047">
        <ele>611</ele>
        <time>2025-08-05T09:35:29.000Z</time>
      </trkpt>
      <trkpt lat="42.87409" lon="2.40468">
        <ele>611</ele>
        <time>2025-08-05T09:35:30.000Z</time>
      </trkpt>
      <trkpt lat="42.87412" lon="2.40462">
        <ele>611.40002441406</ele>
        <time>2025-08-05T09:35:33.000Z</time>
      </trkpt>
      <trkpt lat="42.87417" lon="2.40448">
        <ele>612</ele>
        <time>2025-08-05T09:35:40.000Z</time>
      </trkpt>
      <trkpt lat="42.87418" lon="2.40446">
        <ele>612</ele>
        <time>2025-08-05T09:35:41.000Z</time>
      </trkpt>
      <trkpt lat="42.8742" lon="2.40444">
        <ele>612.20001220703</ele>
        <time>2025-08-05T09:35:42.000Z</time>
      </trkpt>
      <trkpt lat="42.87421" lon="2.40438">
        <ele>612.40002441406</ele>
        <time>2025-08-05T09:35:45.000Z</time>
      </trkpt>
      <trkpt lat="42.87421" lon="2.40423">
        <ele>612.79998779297</ele>
        <time>2025-08-05T09:35:51.000Z</time>
      </trkpt>
      <trkpt lat="42.87422" lon="2.40421">
        <ele>613</ele>
        <time>2025-08-05T09:35:52.000Z</time>
      </trkpt>
      <trkpt lat="42.87422" lon="2.40419">
        <ele>613.20001220703</ele>
        <time>2025-08-05T09:35:53.000Z</time>
      </trkpt>
      <trkpt lat="42.87422" lon="2.40406">
        <ele>613.79998779297</ele>
        <time>2025-08-05T09:35:59.000Z</time>
      </trkpt>
      <trkpt lat="42.87422" lon="2.40401">
        <ele>614</ele>
        <time>2025-08-05T09:36:01.000Z</time>
      </trkpt>
      <trkpt lat="42.87422" lon="2.40397">
        <ele>614.20001220703</ele>
        <time>2025-08-05T09:36:03.000Z</time>
      </trkpt>
      <trkpt lat="42.87421" lon="2.40392">
        <ele>614.40002441406</ele>
        <time>2025-08-05T09:36:05.000Z</time>
      </trkpt>
      <trkpt lat="42.87423" lon="2.40378">
        <ele>615</ele>
        <time>2025-08-05T09:36:11.000Z</time>
      </trkpt>
      <trkpt lat="42.87423" lon="2.40374">
        <ele>615.20001220703</ele>
        <time>2025-08-05T09:36:13.000Z</time>
      </trkpt>
      <trkpt lat="42.87423" lon="2.40359">
        <ele>615.40002441406</ele>
        <time>2025-08-05T09:36:19.000Z</time>
      </trkpt>
      <trkpt lat="42.87423" lon="2.40344">
        <ele>615.79998779297</ele>
        <time>2025-08-05T09:36:25.000Z</time>
      </trkpt>
      <trkpt lat="42.87423" lon="2.40339">
        <ele>615.79998779297</ele>
        <time>2025-08-05T09:36:27.000Z</time>
      </trkpt>
      <trkpt lat="42.87422" lon="2.40332">
        <ele>616.40002441406</ele>
        <time>2025-08-05T09:36:31.000Z</time>
      </trkpt>
      <trkpt lat="42.87421" lon="2.40323">
        <ele>617</ele>
        <time>2025-08-05T09:36:35.000Z</time>
      </trkpt>
      <trkpt lat="42.87418" lon="2.40314">
        <ele>617.20001220703</ele>
        <time>2025-08-05T09:36:39.000Z</time>
      </trkpt>
      <trkpt lat="42.87416" lon="2.40303">
        <ele>617.79998779297</ele>
        <time>2025-08-05T09:36:44.000Z</time>
      </trkpt>
      <trkpt lat="42.87415" lon="2.40301">
        <ele>618</ele>
        <time>2025-08-05T09:36:45.000Z</time>
      </trkpt>
      <trkpt lat="42.87415" lon="2.40287">
        <ele>618.79998779297</ele>
        <time>2025-08-05T09:36:51.000Z</time>
      </trkpt>
      <trkpt lat="42.87414" lon="2.40282">
        <ele>619.20001220703</ele>
        <time>2025-08-05T09:36:53.000Z</time>
      </trkpt>
      <trkpt lat="42.87416" lon="2.40269">
        <ele>619.59997558594</ele>
        <time>2025-08-05T09:36:58.000Z</time>
      </trkpt>
      <trkpt lat="42.87418" lon="2.40257">
        <ele>620</ele>
        <time>2025-08-05T09:37:03.000Z</time>
      </trkpt>
      <trkpt lat="42.87419" lon="2.4025">
        <ele>620.40002441406</ele>
        <time>2025-08-05T09:37:06.000Z</time>
      </trkpt>
      <trkpt lat="42.87422" lon="2.40237">
        <ele>621.20001220703</ele>
        <time>2025-08-05T09:37:12.000Z</time>
      </trkpt>
      <trkpt lat="42.87422" lon="2.40228">
        <ele>621.40002441406</ele>
        <time>2025-08-05T09:37:16.000Z</time>
      </trkpt>
      <trkpt lat="42.87422" lon="2.40212">
        <ele>621.59997558594</ele>
        <time>2025-08-05T09:37:23.000Z</time>
      </trkpt>
      <trkpt lat="42.87421" lon="2.40205">
        <ele>622</ele>
        <time>2025-08-05T09:37:26.000Z</time>
      </trkpt>
      <trkpt lat="42.87421" lon="2.40203">
        <ele>622</ele>
        <time>2025-08-05T09:37:27.000Z</time>
      </trkpt>
      <trkpt lat="42.8742" lon="2.402">
        <ele>622.20001220703</ele>
        <time>2025-08-05T09:37:28.000Z</time>
      </trkpt>
      <trkpt lat="42.87417" lon="2.40181">
        <ele>623</ele>
        <time>2025-08-05T09:37:35.000Z</time>
      </trkpt>
      <trkpt lat="42.87417" lon="2.40179">
        <ele>623.20001220703</ele>
        <time>2025-08-05T09:37:36.000Z</time>
      </trkpt>
      <trkpt lat="42.87414" lon="2.40166">
        <ele>624</ele>
        <time>2025-08-05T09:37:41.000Z</time>
      </trkpt>
      <trkpt lat="42.87413" lon="2.40161">
        <ele>624.40002441406</ele>
        <time>2025-08-05T09:37:43.000Z</time>
      </trkpt>
      <trkpt lat="42.87408" lon="2.40144">
        <ele>625</ele>
        <time>2025-08-05T09:37:50.000Z</time>
      </trkpt>
      <trkpt lat="42.87407" lon="2.40139">
        <ele>625</ele>
        <time>2025-08-05T09:37:52.000Z</time>
      </trkpt>
      <trkpt lat="42.87405" lon="2.40131">
        <ele>625.20001220703</ele>
        <time>2025-08-05T09:37:55.000Z</time>
      </trkpt>
      <trkpt lat="42.87401" lon="2.40116">
        <ele>625.59997558594</ele>
        <time>2025-08-05T09:38:00.000Z</time>
      </trkpt>
      <trkpt lat="42.874" lon="2.40106">
        <ele>626</ele>
        <time>2025-08-05T09:38:04.000Z</time>
      </trkpt>
      <trkpt lat="42.87401" lon="2.40101">
        <ele>626.20001220703</ele>
        <time>2025-08-05T09:38:06.000Z</time>
      </trkpt>
      <trkpt lat="42.87403" lon="2.40091">
        <ele>627</ele>
        <time>2025-08-05T09:38:10.000Z</time>
      </trkpt>
      <trkpt lat="42.87406" lon="2.40082">
        <ele>627.59997558594</ele>
        <time>2025-08-05T09:38:14.000Z</time>
      </trkpt>
      <trkpt lat="42.87409" lon="2.40073">
        <ele>627.79998779297</ele>
        <time>2025-08-05T09:38:17.000Z</time>
      </trkpt>
      <trkpt lat="42.87414" lon="2.4006">
        <ele>628.40002441406</ele>
        <time>2025-08-05T09:38:22.000Z</time>
      </trkpt>
      <trkpt lat="42.87418" lon="2.40053">
        <ele>628.79998779297</ele>
        <time>2025-08-05T09:38:25.000Z</time>
      </trkpt>
      <trkpt lat="42.87423" lon="2.40041">
        <ele>629.40002441406</ele>
        <time>2025-08-05T09:38:30.000Z</time>
      </trkpt>
      <trkpt lat="42.87427" lon="2.40032">
        <ele>630</ele>
        <time>2025-08-05T09:38:34.000Z</time>
      </trkpt>
      <trkpt lat="42.87433" lon="2.4002">
        <ele>630.59997558594</ele>
        <time>2025-08-05T09:38:40.000Z</time>
      </trkpt>
      <trkpt lat="42.87435" lon="2.40016">
        <ele>631.20001220703</ele>
        <time>2025-08-05T09:38:43.000Z</time>
      </trkpt>
      <trkpt lat="42.87437" lon="2.40013">
        <ele>631.59997558594</ele>
        <time>2025-08-05T09:38:46.000Z</time>
      </trkpt>
      <trkpt lat="42.87441" lon="2.40004">
        <ele>632.20001220703</ele>
        <time>2025-08-05T09:38:53.000Z</time>
      </trkpt>
      <trkpt lat="42.87442" lon="2.40003">
        <ele>632.20001220703</ele>
        <time>2025-08-05T09:38:54.000Z</time>
      </trkpt>
      <trkpt lat="42.87449" lon="2.39993">
        <ele>632.40002441406</ele>
        <time>2025-08-05T09:39:02.000Z</time>
      </trkpt>
      <trkpt lat="42.87456" lon="2.39983">
        <ele>632.79998779297</ele>
        <time>2025-08-05T09:39:09.000Z</time>
      </trkpt>
      <trkpt lat="42.8746" lon="2.39976">
        <ele>633</ele>
        <time>2025-08-05T09:39:13.000Z</time>
      </trkpt>
      <trkpt lat="42.87466" lon="2.39966">
        <ele>633.40002441406</ele>
        <time>2025-08-05T09:39:18.000Z</time>
      </trkpt>
      <trkpt lat="42.87474" lon="2.39957">
        <ele>634</ele>
        <time>2025-08-05T09:39:23.000Z</time>
      </trkpt>
      <trkpt lat="42.87478" lon="2.39951">
        <ele>634.40002441406</ele>
        <time>2025-08-05T09:39:26.000Z</time>
      </trkpt>
      <trkpt lat="42.87486" lon="2.39939">
        <ele>635</ele>
        <time>2025-08-05T09:39:32.000Z</time>
      </trkpt>
      <trkpt lat="42.8749" lon="2.39935">
        <ele>635.40002441406</ele>
        <time>2025-08-05T09:39:34.000Z</time>
      </trkpt>
      <trkpt lat="42.87501" lon="2.39919">
        <ele>636.20001220703</ele>
        <time>2025-08-05T09:39:42.000Z</time>
      </trkpt>
      <trkpt lat="42.87513" lon="2.39906">
        <ele>636.40002441406</ele>
        <time>2025-08-05T09:39:50.000Z</time>
      </trkpt>
      <trkpt lat="42.87522" lon="2.39898">
        <ele>637</ele>
        <time>2025-08-05T09:39:55.000Z</time>
      </trkpt>
      <trkpt lat="42.87528" lon="2.39892">
        <ele>637</ele>
        <time>2025-08-05T09:39:59.000Z</time>
      </trkpt>
      <trkpt lat="42.8753" lon="2.39891">
        <ele>636.79998779297</ele>
        <time>2025-08-05T09:40:00.000Z</time>
      </trkpt>
      <trkpt lat="42.87544" lon="2.39883">
        <ele>637</ele>
        <time>2025-08-05T09:40:07.000Z</time>
      </trkpt>
      <trkpt lat="42.87562" lon="2.39866">
        <ele>637.20001220703</ele>
        <time>2025-08-05T09:40:16.000Z</time>
      </trkpt>
      <trkpt lat="42.87564" lon="2.39864">
        <ele>637.40002441406</ele>
        <time>2025-08-05T09:40:17.000Z</time>
      </trkpt>
      <trkpt lat="42.87576" lon="2.39852">
        <ele>637.79998779297</ele>
        <time>2025-08-05T09:40:23.000Z</time>
      </trkpt>
      <trkpt lat="42.87578" lon="2.39849">
        <ele>637.79998779297</ele>
        <time>2025-08-05T09:40:24.000Z</time>
      </trkpt>
      <trkpt lat="42.87593" lon="2.39829">
        <ele>638.59997558594</ele>
        <time>2025-08-05T09:40:33.000Z</time>
      </trkpt>
      <trkpt lat="42.87596" lon="2.39826">
        <ele>638.79998779297</ele>
        <time>2025-08-05T09:40:35.000Z</time>
      </trkpt>
      <trkpt lat="42.87608" lon="2.39814">
        <ele>638.79998779297</ele>
        <time>2025-08-05T09:40:41.000Z</time>
      </trkpt>
      <trkpt lat="42.87624" lon="2.39802">
        <ele>638.40002441406</ele>
        <time>2025-08-05T09:40:48.000Z</time>
      </trkpt>
      <trkpt lat="42.87641" lon="2.39793">
        <ele>638.40002441406</ele>
        <time>2025-08-05T09:40:55.000Z</time>
      </trkpt>
      <trkpt lat="42.87655" lon="2.39786">
        <ele>638.59997558594</ele>
        <time>2025-08-05T09:41:01.000Z</time>
      </trkpt>
      <trkpt lat="42.87672" lon="2.39779">
        <ele>638.59997558594</ele>
        <time>2025-08-05T09:41:08.000Z</time>
      </trkpt>
      <trkpt lat="42.87684" lon="2.39774">
        <ele>638.79998779297</ele>
        <time>2025-08-05T09:41:13.000Z</time>
      </trkpt>
      <trkpt lat="42.87695" lon="2.39772">
        <ele>639.20001220703</ele>
        <time>2025-08-05T09:41:17.000Z</time>
      </trkpt>
      <trkpt lat="42.87713" lon="2.39775">
        <ele>639.40002441406</ele>
        <time>2025-08-05T09:41:24.000Z</time>
      </trkpt>
      <trkpt lat="42.87736" lon="2.39786">
        <ele>639.20001220703</ele>
        <time>2025-08-05T09:41:33.000Z</time>
      </trkpt>
      <trkpt lat="42.87748" lon="2.39796">
        <ele>639.20001220703</ele>
        <time>2025-08-05T09:41:39.000Z</time>
      </trkpt>
      <trkpt lat="42.8775" lon="2.39798">
        <ele>639.20001220703</ele>
        <time>2025-08-05T09:41:40.000Z</time>
      </trkpt>
      <trkpt lat="42.87758" lon="2.39801">
        <ele>639.20001220703</ele>
        <time>2025-08-05T09:41:43.000Z</time>
      </trkpt>
      <trkpt lat="42.8778" lon="2.39809">
        <ele>639</ele>
        <time>2025-08-05T09:41:51.000Z</time>
      </trkpt>
      <trkpt lat="42.87804" lon="2.39809">
        <ele>638.79998779297</ele>
        <time>2025-08-05T09:41:59.000Z</time>
      </trkpt>
      <trkpt lat="42.87819" lon="2.39805">
        <ele>639.20001220703</ele>
        <time>2025-08-05T09:42:04.000Z</time>
      </trkpt>
      <trkpt lat="42.87824" lon="2.39802">
        <ele>639.59997558594</ele>
        <time>2025-08-05T09:42:06.000Z</time>
      </trkpt>
      <trkpt lat="42.8783" lon="2.39799">
        <ele>640</ele>
        <time>2025-08-05T09:42:07.000Z</time>
      </trkpt>
      <trkpt lat="42.87835" lon="2.39794">
        <ele>640.20001220703</ele>
        <time>2025-08-05T09:42:09.000Z</time>
      </trkpt>
      <trkpt lat="42.87838" lon="2.39791">
        <ele>640.40002441406</ele>
        <time>2025-08-05T09:42:10.000Z</time>
      </trkpt>
      <trkpt lat="42.87847" lon="2.39772">
        <ele>641</ele>
        <time>2025-08-05T09:42:15.000Z</time>
      </trkpt>
      <trkpt lat="42.8785" lon="2.39754">
        <ele>641.20001220703</ele>
        <time>2025-08-05T09:42:19.000Z</time>
      </trkpt>
      <trkpt lat="42.8785" lon="2.39741">
        <ele>641.40002441406</ele>
        <time>2025-08-05T09:42:22.000Z</time>
      </trkpt>
      <trkpt lat="42.87843" lon="2.3971">
        <ele>641.79998779297</ele>
        <time>2025-08-05T09:42:30.000Z</time>
      </trkpt>
      <trkpt lat="42.87835" lon="2.39692">
        <ele>641.79998779297</ele>
        <time>2025-08-05T09:42:35.000Z</time>
      </trkpt>
      <trkpt lat="42.87828" lon="2.39663">
        <ele>642.20001220703</ele>
        <time>2025-08-05T09:42:41.000Z</time>
      </trkpt>
      <trkpt lat="42.87827" lon="2.39658">
        <ele>642.20001220703</ele>
        <time>2025-08-05T09:42:42.000Z</time>
      </trkpt>
      <trkpt lat="42.87831" lon="2.3964">
        <ele>642.59997558594</ele>
        <time>2025-08-05T09:42:46.000Z</time>
      </trkpt>
      <trkpt lat="42.87842" lon="2.39606">
        <ele>643</ele>
        <time>2025-08-05T09:42:54.000Z</time>
      </trkpt>
      <trkpt lat="42.87842" lon="2.39587">
        <ele>643.40002441406</ele>
        <time>2025-08-05T09:42:58.000Z</time>
      </trkpt>
      <trkpt lat="42.87841" lon="2.39577">
        <ele>643.40002441406</ele>
        <time>2025-08-05T09:43:00.000Z</time>
      </trkpt>
      <trkpt lat="42.87839" lon="2.39536">
        <ele>643.79998779297</ele>
        <time>2025-08-05T09:43:09.000Z</time>
      </trkpt>
      <trkpt lat="42.87843" lon="2.39501">
        <ele>644.40002441406</ele>
        <time>2025-08-05T09:43:17.000Z</time>
      </trkpt>
      <trkpt lat="42.87844" lon="2.39497">
        <ele>644.59997558594</ele>
        <time>2025-08-05T09:43:18.000Z</time>
      </trkpt>
      <trkpt lat="42.87849" lon="2.39469">
        <ele>645</ele>
        <time>2025-08-05T09:43:25.000Z</time>
      </trkpt>
      <trkpt lat="42.87849" lon="2.39435">
        <ele>645.59997558594</ele>
        <time>2025-08-05T09:43:33.000Z</time>
      </trkpt>
      <trkpt lat="42.87843" lon="2.39399">
        <ele>645.79998779297</ele>
        <time>2025-08-05T09:43:42.000Z</time>
      </trkpt>
      <trkpt lat="42.87836" lon="2.39372">
        <ele>645.59997558594</ele>
        <time>2025-08-05T09:43:49.000Z</time>
      </trkpt>
      <trkpt lat="42.87833" lon="2.39343">
        <ele>645.40002441406</ele>
        <time>2025-08-05T09:43:56.000Z</time>
      </trkpt>
      <trkpt lat="42.87828" lon="2.3931">
        <ele>645.40002441406</ele>
        <time>2025-08-05T09:44:04.000Z</time>
      </trkpt>
      <trkpt lat="42.87824" lon="2.39278">
        <ele>645.59997558594</ele>
        <time>2025-08-05T09:44:12.000Z</time>
      </trkpt>
      <trkpt lat="42.87823" lon="2.39234">
        <ele>646.20001220703</ele>
        <time>2025-08-05T09:44:23.000Z</time>
      </trkpt>
      <trkpt lat="42.87823" lon="2.39222">
        <ele>646.59997558594</ele>
        <time>2025-08-05T09:44:26.000Z</time>
      </trkpt>
      <trkpt lat="42.87822" lon="2.39197">
        <ele>647.20001220703</ele>
        <time>2025-08-05T09:44:32.000Z</time>
      </trkpt>
      <trkpt lat="42.87822" lon="2.39189">
        <ele>647.40002441406</ele>
        <time>2025-08-05T09:44:34.000Z</time>
      </trkpt>
      <trkpt lat="42.87822" lon="2.39185">
        <ele>647.40002441406</ele>
        <time>2025-08-05T09:44:35.000Z</time>
      </trkpt>
      <trkpt lat="42.87821" lon="2.39154">
        <ele>648</ele>
        <time>2025-08-05T09:44:42.000Z</time>
      </trkpt>
      <trkpt lat="42.8782" lon="2.39129">
        <ele>648.59997558594</ele>
        <time>2025-08-05T09:44:48.000Z</time>
      </trkpt>
      <trkpt lat="42.8782" lon="2.39096">
        <ele>649.20001220703</ele>
        <time>2025-08-05T09:44:56.000Z</time>
      </trkpt>
      <trkpt lat="42.8782" lon="2.39079">
        <ele>649.59997558594</ele>
        <time>2025-08-05T09:45:00.000Z</time>
      </trkpt>
      <trkpt lat="42.8782" lon="2.39059">
        <ele>650</ele>
        <time>2025-08-05T09:45:05.000Z</time>
      </trkpt>
      <trkpt lat="42.87819" lon="2.39054">
        <ele>650</ele>
        <time>2025-08-05T09:45:06.000Z</time>
      </trkpt>
      <trkpt lat="42.87824" lon="2.39021">
        <ele>650.59997558594</ele>
        <time>2025-08-05T09:45:14.000Z</time>
      </trkpt>
      <trkpt lat="42.87827" lon="2.39013">
        <ele>650.79998779297</ele>
        <time>2025-08-05T09:45:16.000Z</time>
      </trkpt>
      <trkpt lat="42.87838" lon="2.38994">
        <ele>651.40002441406</ele>
        <time>2025-08-05T09:45:22.000Z</time>
      </trkpt>
      <trkpt lat="42.8785" lon="2.38982">
        <ele>651.79998779297</ele>
        <time>2025-08-05T09:45:27.000Z</time>
      </trkpt>
      <trkpt lat="42.87859" lon="2.38976">
        <ele>652.20001220703</ele>
        <time>2025-08-05T09:45:30.000Z</time>
      </trkpt>
      <trkpt lat="42.87881" lon="2.38967">
        <ele>652.40002441406</ele>
        <time>2025-08-05T09:45:38.000Z</time>
      </trkpt>
      <trkpt lat="42.87895" lon="2.38956">
        <ele>652.59997558594</ele>
        <time>2025-08-05T09:45:44.000Z</time>
      </trkpt>
      <trkpt lat="42.87902" lon="2.38947">
        <ele>653</ele>
        <time>2025-08-05T09:45:47.000Z</time>
      </trkpt>
      <trkpt lat="42.87907" lon="2.38936">
        <ele>653</ele>
        <time>2025-08-05T09:45:50.000Z</time>
      </trkpt>
      <trkpt lat="42.87907" lon="2.38932">
        <ele>653.20001220703</ele>
        <time>2025-08-05T09:45:51.000Z</time>
      </trkpt>
      <trkpt lat="42.87909" lon="2.38898">
        <ele>653.40002441406</ele>
        <time>2025-08-05T09:45:59.000Z</time>
      </trkpt>
      <trkpt lat="42.87906" lon="2.38876">
        <ele>653.40002441406</ele>
        <time>2025-08-05T09:46:04.000Z</time>
      </trkpt>
      <trkpt lat="42.87902" lon="2.38845">
        <ele>653.59997558594</ele>
        <time>2025-08-05T09:46:11.000Z</time>
      </trkpt>
      <trkpt lat="42.879" lon="2.38836">
        <ele>653.79998779297</ele>
        <time>2025-08-05T09:46:13.000Z</time>
      </trkpt>
      <trkpt lat="42.87898" lon="2.38814">
        <ele>654</ele>
        <time>2025-08-05T09:46:18.000Z</time>
      </trkpt>
      <trkpt lat="42.87895" lon="2.38769">
        <ele>654.40002441406</ele>
        <time>2025-08-05T09:46:28.000Z</time>
      </trkpt>
      <trkpt lat="42.87897" lon="2.38736">
        <ele>654.79998779297</ele>
        <time>2025-08-05T09:46:36.000Z</time>
      </trkpt>
      <trkpt lat="42.87898" lon="2.38732">
        <ele>654.79998779297</ele>
        <time>2025-08-05T09:46:37.000Z</time>
      </trkpt>
      <trkpt lat="42.87904" lon="2.38703">
        <ele>655.79998779297</ele>
        <time>2025-08-05T09:46:45.000Z</time>
      </trkpt>
      <trkpt lat="42.87909" lon="2.38669">
        <ele>656.20001220703</ele>
        <time>2025-08-05T09:46:53.000Z</time>
      </trkpt>
      <trkpt lat="42.87906" lon="2.38635">
        <ele>656.20001220703</ele>
        <time>2025-08-05T09:47:01.000Z</time>
      </trkpt>
      <trkpt lat="42.87898" lon="2.38603">
        <ele>656.79998779297</ele>
        <time>2025-08-05T09:47:09.000Z</time>
      </trkpt>
      <trkpt lat="42.87895" lon="2.38587">
        <ele>657</ele>
        <time>2025-08-05T09:47:13.000Z</time>
      </trkpt>
      <trkpt lat="42.87888" lon="2.38559">
        <ele>657</ele>
        <time>2025-08-05T09:47:20.000Z</time>
      </trkpt>
      <trkpt lat="42.87882" lon="2.38531">
        <ele>657.79998779297</ele>
        <time>2025-08-05T09:47:27.000Z</time>
      </trkpt>
      <trkpt lat="42.87881" lon="2.38526">
        <ele>657.79998779297</ele>
        <time>2025-08-05T09:47:28.000Z</time>
      </trkpt>
      <trkpt lat="42.8787" lon="2.38479">
        <ele>657.79998779297</ele>
        <time>2025-08-05T09:47:37.000Z</time>
      </trkpt>
      <trkpt lat="42.87868" lon="2.38459">
        <ele>657.79998779297</ele>
        <time>2025-08-05T09:47:40.000Z</time>
      </trkpt>
      <trkpt lat="42.87871" lon="2.38445">
        <ele>657.59997558594</ele>
        <time>2025-08-05T09:47:42.000Z</time>
      </trkpt>
      <trkpt lat="42.8788" lon="2.38434">
        <ele>657.40002441406</ele>
        <time>2025-08-05T09:47:44.000Z</time>
      </trkpt>
      <trkpt lat="42.87886" lon="2.38432">
        <ele>657.20001220703</ele>
        <time>2025-08-05T09:47:45.000Z</time>
      </trkpt>
      <trkpt lat="42.87893" lon="2.38431">
        <ele>656.59997558594</ele>
        <time>2025-08-05T09:47:46.000Z</time>
      </trkpt>
      <trkpt lat="42.87907" lon="2.38428">
        <ele>655.79998779297</ele>
        <time>2025-08-05T09:47:48.000Z</time>
      </trkpt>
      <trkpt lat="42.87919" lon="2.3842">
        <ele>655</ele>
        <time>2025-08-05T09:47:50.000Z</time>
      </trkpt>
      <trkpt lat="42.87925" lon="2.38403">
        <ele>654</ele>
        <time>2025-08-05T09:47:52.000Z</time>
      </trkpt>
      <trkpt lat="42.87924" lon="2.38393">
        <ele>653.40002441406</ele>
        <time>2025-08-05T09:47:53.000Z</time>
      </trkpt>
      <trkpt lat="42.87922" lon="2.38383">
        <ele>653.20001220703</ele>
        <time>2025-08-05T09:47:54.000Z</time>
      </trkpt>
      <trkpt lat="42.8792" lon="2.38373">
        <ele>653</ele>
        <time>2025-08-05T09:47:55.000Z</time>
      </trkpt>
      <trkpt lat="42.87915" lon="2.38352">
        <ele>652.40002441406</ele>
        <time>2025-08-05T09:47:57.000Z</time>
      </trkpt>
      <trkpt lat="42.87905" lon="2.3831">
        <ele>651.20001220703</ele>
        <time>2025-08-05T09:48:01.000Z</time>
      </trkpt>
      <trkpt lat="42.879" lon="2.38289">
        <ele>650.40002441406</ele>
        <time>2025-08-05T09:48:03.000Z</time>
      </trkpt>
      <trkpt lat="42.87895" lon="2.38267">
        <ele>649.79998779297</ele>
        <time>2025-08-05T09:48:05.000Z</time>
      </trkpt>
      <trkpt lat="42.87889" lon="2.38233">
        <ele>648.59997558594</ele>
        <time>2025-08-05T09:48:08.000Z</time>
      </trkpt>
      <trkpt lat="42.87883" lon="2.382">
        <ele>647.40002441406</ele>
        <time>2025-08-05T09:48:11.000Z</time>
      </trkpt>
      <trkpt lat="42.87877" lon="2.38166">
        <ele>646.40002441406</ele>
        <time>2025-08-05T09:48:14.000Z</time>
      </trkpt>
      <trkpt lat="42.87872" lon="2.38132">
        <ele>645.20001220703</ele>
        <time>2025-08-05T09:48:17.000Z</time>
      </trkpt>
      <trkpt lat="42.87873" lon="2.38122">
        <ele>645</ele>
        <time>2025-08-05T09:48:18.000Z</time>
      </trkpt>
      <trkpt lat="42.8788" lon="2.38107">
        <ele>644.40002441406</ele>
        <time>2025-08-05T09:48:20.000Z</time>
      </trkpt>
      <trkpt lat="42.87886" lon="2.38103">
        <ele>643.79998779297</ele>
        <time>2025-08-05T09:48:21.000Z</time>
      </trkpt>
      <trkpt lat="42.87892" lon="2.38101">
        <ele>643.59997558594</ele>
        <time>2025-08-05T09:48:22.000Z</time>
      </trkpt>
      <trkpt lat="42.87898" lon="2.381">
        <ele>642.79998779297</ele>
        <time>2025-08-05T09:48:23.000Z</time>
      </trkpt>
      <trkpt lat="42.87904" lon="2.38098">
        <ele>642.20001220703</ele>
        <time>2025-08-05T09:48:24.000Z</time>
      </trkpt>
      <trkpt lat="42.87912" lon="2.38087">
        <ele>641.59997558594</ele>
        <time>2025-08-05T09:48:26.000Z</time>
      </trkpt>
      <trkpt lat="42.87918" lon="2.38051">
        <ele>640.20001220703</ele>
        <time>2025-08-05T09:48:30.000Z</time>
      </trkpt>
      <trkpt lat="42.87927" lon="2.38037">
        <ele>639.40002441406</ele>
        <time>2025-08-05T09:48:32.000Z</time>
      </trkpt>
      <trkpt lat="42.87933" lon="2.3803">
        <ele>639</ele>
        <time>2025-08-05T09:48:33.000Z</time>
      </trkpt>
      <trkpt lat="42.87938" lon="2.38023">
        <ele>639</ele>
        <time>2025-08-05T09:48:34.000Z</time>
      </trkpt>
      <trkpt lat="42.87944" lon="2.38007">
        <ele>638.20001220703</ele>
        <time>2025-08-05T09:48:36.000Z</time>
      </trkpt>
      <trkpt lat="42.87945" lon="2.37997">
        <ele>637.59997558594</ele>
        <time>2025-08-05T09:48:37.000Z</time>
      </trkpt>
      <trkpt lat="42.87943" lon="2.37987">
        <ele>637.40002441406</ele>
        <time>2025-08-05T09:48:38.000Z</time>
      </trkpt>
      <trkpt lat="42.87939" lon="2.37966">
        <ele>636.79998779297</ele>
        <time>2025-08-05T09:48:40.000Z</time>
      </trkpt>
      <trkpt lat="42.87937" lon="2.37956">
        <ele>636.40002441406</ele>
        <time>2025-08-05T09:48:41.000Z</time>
      </trkpt>
      <trkpt lat="42.87931" lon="2.37923">
        <ele>635.40002441406</ele>
        <time>2025-08-05T09:48:44.000Z</time>
      </trkpt>
      <trkpt lat="42.87923" lon="2.3789">
        <ele>634.20001220703</ele>
        <time>2025-08-05T09:48:47.000Z</time>
      </trkpt>
      <trkpt lat="42.8791" lon="2.3785">
        <ele>632.59997558594</ele>
        <time>2025-08-05T09:48:51.000Z</time>
      </trkpt>
      <trkpt lat="42.879" lon="2.37822">
        <ele>631.20001220703</ele>
        <time>2025-08-05T09:48:54.000Z</time>
      </trkpt>
      <trkpt lat="42.87891" lon="2.37784">
        <ele>629.20001220703</ele>
        <time>2025-08-05T09:48:58.000Z</time>
      </trkpt>
      <trkpt lat="42.87887" lon="2.37764">
        <ele>628</ele>
        <time>2025-08-05T09:49:00.000Z</time>
      </trkpt>
      <trkpt lat="42.87881" lon="2.37712">
        <ele>626.79998779297</ele>
        <time>2025-08-05T09:49:05.000Z</time>
      </trkpt>
      <trkpt lat="42.87876" lon="2.3766">
        <ele>625.59997558594</ele>
        <time>2025-08-05T09:49:10.000Z</time>
      </trkpt>
      <trkpt lat="42.87872" lon="2.3763">
        <ele>624.40002441406</ele>
        <time>2025-08-05T09:49:13.000Z</time>
      </trkpt>
      <trkpt lat="42.87864" lon="2.37592">
        <ele>623.20001220703</ele>
        <time>2025-08-05T09:49:17.000Z</time>
      </trkpt>
      <trkpt lat="42.87859" lon="2.37567">
        <ele>622</ele>
        <time>2025-08-05T09:49:20.000Z</time>
      </trkpt>
      <trkpt lat="42.87856" lon="2.37534">
        <ele>621.20001220703</ele>
        <time>2025-08-05T09:49:24.000Z</time>
      </trkpt>
      <trkpt lat="42.87856" lon="2.37525">
        <ele>621</ele>
        <time>2025-08-05T09:49:25.000Z</time>
      </trkpt>
      <trkpt lat="42.87857" lon="2.37507">
        <ele>620.20001220703</ele>
        <time>2025-08-05T09:49:27.000Z</time>
      </trkpt>
      <trkpt lat="42.87858" lon="2.37498">
        <ele>620</ele>
        <time>2025-08-05T09:49:28.000Z</time>
      </trkpt>
      <trkpt lat="42.87861" lon="2.3749">
        <ele>619.40002441406</ele>
        <time>2025-08-05T09:49:29.000Z</time>
      </trkpt>
      <trkpt lat="42.87869" lon="2.37475">
        <ele>618.79998779297</ele>
        <time>2025-08-05T09:49:31.000Z</time>
      </trkpt>
      <trkpt lat="42.87878" lon="2.3746">
        <ele>618.40002441406</ele>
        <time>2025-08-05T09:49:33.000Z</time>
      </trkpt>
      <trkpt lat="42.87881" lon="2.37442">
        <ele>618</ele>
        <time>2025-08-05T09:49:35.000Z</time>
      </trkpt>
      <trkpt lat="42.8788" lon="2.37432">
        <ele>617.59997558594</ele>
        <time>2025-08-05T09:49:36.000Z</time>
      </trkpt>
      <trkpt lat="42.87874" lon="2.37401">
        <ele>616.20001220703</ele>
        <time>2025-08-05T09:49:39.000Z</time>
      </trkpt>
      <trkpt lat="42.87871" lon="2.3738">
        <ele>615.79998779297</ele>
        <time>2025-08-05T09:49:41.000Z</time>
      </trkpt>
      <trkpt lat="42.87868" lon="2.37357">
        <ele>615.20001220703</ele>
        <time>2025-08-05T09:49:43.000Z</time>
      </trkpt>
      <trkpt lat="42.87867" lon="2.37324">
        <ele>614.59997558594</ele>
        <time>2025-08-05T09:49:46.000Z</time>
      </trkpt>
      <trkpt lat="42.87868" lon="2.37302">
        <ele>613.79998779297</ele>
        <time>2025-08-05T09:49:48.000Z</time>
      </trkpt>
      <trkpt lat="42.87869" lon="2.37256">
        <ele>612.40002441406</ele>
        <time>2025-08-05T09:49:52.000Z</time>
      </trkpt>
      <trkpt lat="42.87868" lon="2.37244">
        <ele>612</ele>
        <time>2025-08-05T09:49:53.000Z</time>
      </trkpt>
      <trkpt lat="42.87868" lon="2.37221">
        <ele>611</ele>
        <time>2025-08-05T09:49:55.000Z</time>
      </trkpt>
      <trkpt lat="42.87866" lon="2.37187">
        <ele>609.79998779297</ele>
        <time>2025-08-05T09:49:58.000Z</time>
      </trkpt>
      <trkpt lat="42.87866" lon="2.37164">
        <ele>608.20001220703</ele>
        <time>2025-08-05T09:50:00.000Z</time>
      </trkpt>
      <trkpt lat="42.87865" lon="2.37153">
        <ele>608.20001220703</ele>
        <time>2025-08-05T09:50:01.000Z</time>
      </trkpt>
      <trkpt lat="42.87863" lon="2.37143">
        <ele>607.79998779297</ele>
        <time>2025-08-05T09:50:02.000Z</time>
      </trkpt>
      <trkpt lat="42.87856" lon="2.37124">
        <ele>607.20001220703</ele>
        <time>2025-08-05T09:50:04.000Z</time>
      </trkpt>
      <trkpt lat="42.87846" lon="2.37108">
        <ele>606.59997558594</ele>
        <time>2025-08-05T09:50:06.000Z</time>
      </trkpt>
      <trkpt lat="42.87842" lon="2.37099">
        <ele>606.20001220703</ele>
        <time>2025-08-05T09:50:07.000Z</time>
      </trkpt>
      <trkpt lat="42.8784" lon="2.37088">
        <ele>605.59997558594</ele>
        <time>2025-08-05T09:50:08.000Z</time>
      </trkpt>
      <trkpt lat="42.87841" lon="2.37078">
        <ele>604.79998779297</ele>
        <time>2025-08-05T09:50:09.000Z</time>
      </trkpt>
      <trkpt lat="42.87844" lon="2.37069">
        <ele>604.59997558594</ele>
        <time>2025-08-05T09:50:10.000Z</time>
      </trkpt>
      <trkpt lat="42.87859" lon="2.37044">
        <ele>603.59997558594</ele>
        <time>2025-08-05T09:50:13.000Z</time>
      </trkpt>
      <trkpt lat="42.87866" lon="2.37025">
        <ele>603.20001220703</ele>
        <time>2025-08-05T09:50:15.000Z</time>
      </trkpt>
      <trkpt lat="42.87868" lon="2.37015">
        <ele>602.59997558594</ele>
        <time>2025-08-05T09:50:16.000Z</time>
      </trkpt>
      <trkpt lat="42.8787" lon="2.37005">
        <ele>602.40002441406</ele>
        <time>2025-08-05T09:50:17.000Z</time>
      </trkpt>
      <trkpt lat="42.87872" lon="2.36977">
        <ele>601.20001220703</ele>
        <time>2025-08-05T09:50:20.000Z</time>
      </trkpt>
      <trkpt lat="42.87873" lon="2.36967">
        <ele>600.79998779297</ele>
        <time>2025-08-05T09:50:21.000Z</time>
      </trkpt>
      <trkpt lat="42.87878" lon="2.36936">
        <ele>600</ele>
        <time>2025-08-05T09:50:24.000Z</time>
      </trkpt>
      <trkpt lat="42.87881" lon="2.36915">
        <ele>598.79998779297</ele>
        <time>2025-08-05T09:50:26.000Z</time>
      </trkpt>
      <trkpt lat="42.87883" lon="2.36905">
        <ele>598.20001220703</ele>
        <time>2025-08-05T09:50:27.000Z</time>
      </trkpt>
      <trkpt lat="42.87885" lon="2.36895">
        <ele>597.59997558594</ele>
        <time>2025-08-05T09:50:28.000Z</time>
      </trkpt>
      <trkpt lat="42.87893" lon="2.36867">
        <ele>596.59997558594</ele>
        <time>2025-08-05T09:50:31.000Z</time>
      </trkpt>
      <trkpt lat="42.87895" lon="2.36857">
        <ele>596</ele>
        <time>2025-08-05T09:50:32.000Z</time>
      </trkpt>
      <trkpt lat="42.87897" lon="2.36848">
        <ele>595.59997558594</ele>
        <time>2025-08-05T09:50:33.000Z</time>
      </trkpt>
      <trkpt lat="42.87898" lon="2.36839">
        <ele>595.20001220703</ele>
        <time>2025-08-05T09:50:34.000Z</time>
      </trkpt>
      <trkpt lat="42.87897" lon="2.3683">
        <ele>594.59997558594</ele>
        <time>2025-08-05T09:50:35.000Z</time>
      </trkpt>
      <trkpt lat="42.87888" lon="2.36817">
        <ele>594</ele>
        <time>2025-08-05T09:50:37.000Z</time>
      </trkpt>
      <trkpt lat="42.87874" lon="2.36807">
        <ele>592.79998779297</ele>
        <time>2025-08-05T09:50:39.000Z</time>
      </trkpt>
      <trkpt lat="42.87867" lon="2.36804">
        <ele>592.40002441406</ele>
        <time>2025-08-05T09:50:40.000Z</time>
      </trkpt>
      <trkpt lat="42.87859" lon="2.36802">
        <ele>591.79998779297</ele>
        <time>2025-08-05T09:50:41.000Z</time>
      </trkpt>
      <trkpt lat="42.87844" lon="2.36799">
        <ele>590.40002441406</ele>
        <time>2025-08-05T09:50:43.000Z</time>
      </trkpt>
      <trkpt lat="42.87837" lon="2.36802">
        <ele>589.79998779297</ele>
        <time>2025-08-05T09:50:44.000Z</time>
      </trkpt>
      <trkpt lat="42.87831" lon="2.36808">
        <ele>589.59997558594</ele>
        <time>2025-08-05T09:50:45.000Z</time>
      </trkpt>
      <trkpt lat="42.87826" lon="2.36816">
        <ele>588.79998779297</ele>
        <time>2025-08-05T09:50:46.000Z</time>
      </trkpt>
      <trkpt lat="42.87815" lon="2.36829">
        <ele>587.79998779297</ele>
        <time>2025-08-05T09:50:48.000Z</time>
      </trkpt>
      <trkpt lat="42.87808" lon="2.3683">
        <ele>587.20001220703</ele>
        <time>2025-08-05T09:50:49.000Z</time>
      </trkpt>
      <trkpt lat="42.87801" lon="2.36827">
        <ele>587</ele>
        <time>2025-08-05T09:50:50.000Z</time>
      </trkpt>
      <trkpt lat="42.87797" lon="2.36819">
        <ele>586.40002441406</ele>
        <time>2025-08-05T09:50:51.000Z</time>
      </trkpt>
      <trkpt lat="42.87794" lon="2.36797">
        <ele>585.59997558594</ele>
        <time>2025-08-05T09:50:53.000Z</time>
      </trkpt>
      <trkpt lat="42.87794" lon="2.36786">
        <ele>585.40002441406</ele>
        <time>2025-08-05T09:50:54.000Z</time>
      </trkpt>
      <trkpt lat="42.87796" lon="2.36762">
        <ele>584.40002441406</ele>
        <time>2025-08-05T09:50:56.000Z</time>
      </trkpt>
      <trkpt lat="42.87796" lon="2.3675">
        <ele>584</ele>
        <time>2025-08-05T09:50:57.000Z</time>
      </trkpt>
      <trkpt lat="42.87796" lon="2.36738">
        <ele>583.59997558594</ele>
        <time>2025-08-05T09:50:58.000Z</time>
      </trkpt>
      <trkpt lat="42.87795" lon="2.36726">
        <ele>583.20001220703</ele>
        <time>2025-08-05T09:50:59.000Z</time>
      </trkpt>
      <trkpt lat="42.87793" lon="2.36701">
        <ele>582.20001220703</ele>
        <time>2025-08-05T09:51:01.000Z</time>
      </trkpt>
      <trkpt lat="42.87788" lon="2.36665">
        <ele>581</ele>
        <time>2025-08-05T09:51:04.000Z</time>
      </trkpt>
      <trkpt lat="42.87785" lon="2.36653">
        <ele>580.59997558594</ele>
        <time>2025-08-05T09:51:05.000Z</time>
      </trkpt>
      <trkpt lat="42.8778" lon="2.36629">
        <ele>579.79998779297</ele>
        <time>2025-08-05T09:51:07.000Z</time>
      </trkpt>
      <trkpt lat="42.87771" lon="2.36594">
        <ele>578.40002441406</ele>
        <time>2025-08-05T09:51:10.000Z</time>
      </trkpt>
      <trkpt lat="42.87767" lon="2.36582">
        <ele>578</ele>
        <time>2025-08-05T09:51:11.000Z</time>
      </trkpt>
      <trkpt lat="42.87761" lon="2.36558">
        <ele>577.20001220703</ele>
        <time>2025-08-05T09:51:13.000Z</time>
      </trkpt>
      <trkpt lat="42.87755" lon="2.36535">
        <ele>576.20001220703</ele>
        <time>2025-08-05T09:51:15.000Z</time>
      </trkpt>
      <trkpt lat="42.87748" lon="2.36515">
        <ele>574.79998779297</ele>
        <time>2025-08-05T09:51:17.000Z</time>
      </trkpt>
      <trkpt lat="42.87745" lon="2.36506">
        <ele>574.59997558594</ele>
        <time>2025-08-05T09:51:18.000Z</time>
      </trkpt>
      <trkpt lat="42.87734" lon="2.36492">
        <ele>573.59997558594</ele>
        <time>2025-08-05T09:51:20.000Z</time>
      </trkpt>
      <trkpt lat="42.8772" lon="2.36481">
        <ele>572.79998779297</ele>
        <time>2025-08-05T09:51:22.000Z</time>
      </trkpt>
      <trkpt lat="42.87713" lon="2.36479">
        <ele>572</ele>
        <time>2025-08-05T09:51:23.000Z</time>
      </trkpt>
      <trkpt lat="42.87705" lon="2.36478">
        <ele>571.20001220703</ele>
        <time>2025-08-05T09:51:24.000Z</time>
      </trkpt>
      <trkpt lat="42.87697" lon="2.3648">
        <ele>570.79998779297</ele>
        <time>2025-08-05T09:51:25.000Z</time>
      </trkpt>
      <trkpt lat="42.8769" lon="2.36482">
        <ele>570</ele>
        <time>2025-08-05T09:51:26.000Z</time>
      </trkpt>
      <trkpt lat="42.87684" lon="2.36485">
        <ele>569.59997558594</ele>
        <time>2025-08-05T09:51:27.000Z</time>
      </trkpt>
      <trkpt lat="42.87677" lon="2.36485">
        <ele>569</ele>
        <time>2025-08-05T09:51:28.000Z</time>
      </trkpt>
      <trkpt lat="42.87671" lon="2.36483">
        <ele>568.59997558594</ele>
        <time>2025-08-05T09:51:29.000Z</time>
      </trkpt>
      <trkpt lat="42.87666" lon="2.36479">
        <ele>567.79998779297</ele>
        <time>2025-08-05T09:51:30.000Z</time>
      </trkpt>
      <trkpt lat="42.87663" lon="2.36472">
        <ele>567.40002441406</ele>
        <time>2025-08-05T09:51:31.000Z</time>
      </trkpt>
      <trkpt lat="42.87662" lon="2.36464">
        <ele>567.20001220703</ele>
        <time>2025-08-05T09:51:32.000Z</time>
      </trkpt>
      <trkpt lat="42.87665" lon="2.36458">
        <ele>566.79998779297</ele>
        <time>2025-08-05T09:51:33.000Z</time>
      </trkpt>
      <trkpt lat="42.87677" lon="2.36451">
        <ele>566.20001220703</ele>
        <time>2025-08-05T09:51:35.000Z</time>
      </trkpt>
      <trkpt lat="42.87683" lon="2.36449">
        <ele>566</ele>
        <time>2025-08-05T09:51:36.000Z</time>
      </trkpt>
      <trkpt lat="42.87696" lon="2.36445">
        <ele>565</ele>
        <time>2025-08-05T09:51:38.000Z</time>
      </trkpt>
      <trkpt lat="42.8771" lon="2.36442">
        <ele>564.20001220703</ele>
        <time>2025-08-05T09:51:40.000Z</time>
      </trkpt>
      <trkpt lat="42.87724" lon="2.36436">
        <ele>563.79998779297</ele>
        <time>2025-08-05T09:51:42.000Z</time>
      </trkpt>
      <trkpt lat="42.87747" lon="2.36411">
        <ele>562.59997558594</ele>
        <time>2025-08-05T09:51:46.000Z</time>
      </trkpt>
      <trkpt lat="42.87752" lon="2.36403">
        <ele>562.20001220703</ele>
        <time>2025-08-05T09:51:47.000Z</time>
      </trkpt>
      <trkpt lat="42.8776" lon="2.36384">
        <ele>561.79998779297</ele>
        <time>2025-08-05T09:51:49.000Z</time>
      </trkpt>
      <trkpt lat="42.87762" lon="2.36374">
        <ele>561.20001220703</ele>
        <time>2025-08-05T09:51:50.000Z</time>
      </trkpt>
      <trkpt lat="42.87766" lon="2.36353">
        <ele>560.20001220703</ele>
        <time>2025-08-05T09:51:52.000Z</time>
      </trkpt>
      <trkpt lat="42.87769" lon="2.36322">
        <ele>559</ele>
        <time>2025-08-05T09:51:55.000Z</time>
      </trkpt>
      <trkpt lat="42.8777" lon="2.36312">
        <ele>558.59997558594</ele>
        <time>2025-08-05T09:51:56.000Z</time>
      </trkpt>
      <trkpt lat="42.87771" lon="2.36293">
        <ele>558</ele>
        <time>2025-08-05T09:51:58.000Z</time>
      </trkpt>
      <trkpt lat="42.87771" lon="2.36263">
        <ele>556.59997558594</ele>
        <time>2025-08-05T09:52:01.000Z</time>
      </trkpt>
      <trkpt lat="42.87769" lon="2.36255">
        <ele>556.40002441406</ele>
        <time>2025-08-05T09:52:02.000Z</time>
      </trkpt>
      <trkpt lat="42.87766" lon="2.36248">
        <ele>555.79998779297</ele>
        <time>2025-08-05T09:52:03.000Z</time>
      </trkpt>
      <trkpt lat="42.8776" lon="2.36244">
        <ele>555.59997558594</ele>
        <time>2025-08-05T09:52:04.000Z</time>
      </trkpt>
      <trkpt lat="42.87754" lon="2.36243">
        <ele>554.79998779297</ele>
        <time>2025-08-05T09:52:05.000Z</time>
      </trkpt>
      <trkpt lat="42.87746" lon="2.36244">
        <ele>554</ele>
        <time>2025-08-05T09:52:06.000Z</time>
      </trkpt>
      <trkpt lat="42.87733" lon="2.36251">
        <ele>553</ele>
        <time>2025-08-05T09:52:08.000Z</time>
      </trkpt>
      <trkpt lat="42.87711" lon="2.36261">
        <ele>551.79998779297</ele>
        <time>2025-08-05T09:52:11.000Z</time>
      </trkpt>
      <trkpt lat="42.87703" lon="2.36261">
        <ele>551.40002441406</ele>
        <time>2025-08-05T09:52:12.000Z</time>
      </trkpt>
      <trkpt lat="42.87696" lon="2.36258">
        <ele>551</ele>
        <time>2025-08-05T09:52:13.000Z</time>
      </trkpt>
      <trkpt lat="42.87689" lon="2.36254">
        <ele>550.59997558594</ele>
        <time>2025-08-05T09:52:14.000Z</time>
      </trkpt>
      <trkpt lat="42.87683" lon="2.36249">
        <ele>550.20001220703</ele>
        <time>2025-08-05T09:52:15.000Z</time>
      </trkpt>
      <trkpt lat="42.87669" lon="2.3624">
        <ele>549.40002441406</ele>
        <time>2025-08-05T09:52:17.000Z</time>
      </trkpt>
      <trkpt lat="42.87657" lon="2.36233">
        <ele>548.59997558594</ele>
        <time>2025-08-05T09:52:19.000Z</time>
      </trkpt>
      <trkpt lat="42.87653" lon="2.36227">
        <ele>548</ele>
        <time>2025-08-05T09:52:20.000Z</time>
      </trkpt>
      <trkpt lat="42.8765" lon="2.3622">
        <ele>547.59997558594</ele>
        <time>2025-08-05T09:52:21.000Z</time>
      </trkpt>
      <trkpt lat="42.87651" lon="2.36203">
        <ele>546.59997558594</ele>
        <time>2025-08-05T09:52:23.000Z</time>
      </trkpt>
      <trkpt lat="42.8766" lon="2.36195">
        <ele>545.79998779297</ele>
        <time>2025-08-05T09:52:25.000Z</time>
      </trkpt>
      <trkpt lat="42.87667" lon="2.36195">
        <ele>545.40002441406</ele>
        <time>2025-08-05T09:52:26.000Z</time>
      </trkpt>
      <trkpt lat="42.87675" lon="2.36198">
        <ele>545</ele>
        <time>2025-08-05T09:52:27.000Z</time>
      </trkpt>
      <trkpt lat="42.87682" lon="2.36201">
        <ele>544.79998779297</ele>
        <time>2025-08-05T09:52:28.000Z</time>
      </trkpt>
      <trkpt lat="42.87689" lon="2.36202">
        <ele>544.20001220703</ele>
        <time>2025-08-05T09:52:29.000Z</time>
      </trkpt>
      <trkpt lat="42.87702" lon="2.36196">
        <ele>543.59997558594</ele>
        <time>2025-08-05T09:52:31.000Z</time>
      </trkpt>
      <trkpt lat="42.87708" lon="2.36191">
        <ele>543</ele>
        <time>2025-08-05T09:52:32.000Z</time>
      </trkpt>
      <trkpt lat="42.87712" lon="2.36183">
        <ele>542.79998779297</ele>
        <time>2025-08-05T09:52:33.000Z</time>
      </trkpt>
      <trkpt lat="42.87716" lon="2.36175">
        <ele>542.20001220703</ele>
        <time>2025-08-05T09:52:34.000Z</time>
      </trkpt>
      <trkpt lat="42.8772" lon="2.36167">
        <ele>542</ele>
        <time>2025-08-05T09:52:35.000Z</time>
      </trkpt>
      <trkpt lat="42.87733" lon="2.36142">
        <ele>541</ele>
        <time>2025-08-05T09:52:38.000Z</time>
      </trkpt>
      <trkpt lat="42.87738" lon="2.36134">
        <ele>540.59997558594</ele>
        <time>2025-08-05T09:52:39.000Z</time>
      </trkpt>
      <trkpt lat="42.87743" lon="2.36126">
        <ele>540.40002441406</ele>
        <time>2025-08-05T09:52:40.000Z</time>
      </trkpt>
      <trkpt lat="42.87759" lon="2.36105">
        <ele>539</ele>
        <time>2025-08-05T09:52:43.000Z</time>
      </trkpt>
      <trkpt lat="42.87774" lon="2.36084">
        <ele>538.20001220703</ele>
        <time>2025-08-05T09:52:46.000Z</time>
      </trkpt>
      <trkpt lat="42.87779" lon="2.36077">
        <ele>537.79998779297</ele>
        <time>2025-08-05T09:52:47.000Z</time>
      </trkpt>
      <trkpt lat="42.87788" lon="2.36061">
        <ele>537</ele>
        <time>2025-08-05T09:52:49.000Z</time>
      </trkpt>
      <trkpt lat="42.87792" lon="2.36054">
        <ele>536.40002441406</ele>
        <time>2025-08-05T09:52:50.000Z</time>
      </trkpt>
      <trkpt lat="42.87804" lon="2.36045">
        <ele>535.79998779297</ele>
        <time>2025-08-05T09:52:52.000Z</time>
      </trkpt>
      <trkpt lat="42.87816" lon="2.36044">
        <ele>535.40002441406</ele>
        <time>2025-08-05T09:52:54.000Z</time>
      </trkpt>
      <trkpt lat="42.87823" lon="2.36047">
        <ele>535</ele>
        <time>2025-08-05T09:52:55.000Z</time>
      </trkpt>
      <trkpt lat="42.87842" lon="2.36061">
        <ele>534.40002441406</ele>
        <time>2025-08-05T09:52:58.000Z</time>
      </trkpt>
      <trkpt lat="42.87856" lon="2.36071">
        <ele>533.20001220703</ele>
        <time>2025-08-05T09:53:00.000Z</time>
      </trkpt>
      <trkpt lat="42.87869" lon="2.36082">
        <ele>531.59997558594</ele>
        <time>2025-08-05T09:53:02.000Z</time>
      </trkpt>
      <trkpt lat="42.87884" lon="2.36102">
        <ele>530.79998779297</ele>
        <time>2025-08-05T09:53:05.000Z</time>
      </trkpt>
      <trkpt lat="42.87889" lon="2.36107">
        <ele>530.59997558594</ele>
        <time>2025-08-05T09:53:06.000Z</time>
      </trkpt>
      <trkpt lat="42.87896" lon="2.36109">
        <ele>529.59997558594</ele>
        <time>2025-08-05T09:53:07.000Z</time>
      </trkpt>
      <trkpt lat="42.87902" lon="2.36108">
        <ele>529.20001220703</ele>
        <time>2025-08-05T09:53:08.000Z</time>
      </trkpt>
      <trkpt lat="42.87907" lon="2.36104">
        <ele>528.40002441406</ele>
        <time>2025-08-05T09:53:09.000Z</time>
      </trkpt>
      <trkpt lat="42.8791" lon="2.36096">
        <ele>528.20001220703</ele>
        <time>2025-08-05T09:53:10.000Z</time>
      </trkpt>
      <trkpt lat="42.87912" lon="2.36077">
        <ele>527.59997558594</ele>
        <time>2025-08-05T09:53:12.000Z</time>
      </trkpt>
      <trkpt lat="42.87912" lon="2.36067">
        <ele>527.20001220703</ele>
        <time>2025-08-05T09:53:13.000Z</time>
      </trkpt>
      <trkpt lat="42.87912" lon="2.36057">
        <ele>526.59997558594</ele>
        <time>2025-08-05T09:53:14.000Z</time>
      </trkpt>
      <trkpt lat="42.87916" lon="2.36036">
        <ele>525.79998779297</ele>
        <time>2025-08-05T09:53:16.000Z</time>
      </trkpt>
      <trkpt lat="42.8792" lon="2.36027">
        <ele>525.59997558594</ele>
        <time>2025-08-05T09:53:17.000Z</time>
      </trkpt>
      <trkpt lat="42.8793" lon="2.36011">
        <ele>524.59997558594</ele>
        <time>2025-08-05T09:53:19.000Z</time>
      </trkpt>
      <trkpt lat="42.87938" lon="2.35998">
        <ele>523.79998779297</ele>
        <time>2025-08-05T09:53:21.000Z</time>
      </trkpt>
      <trkpt lat="42.8794" lon="2.35991">
        <ele>523.59997558594</ele>
        <time>2025-08-05T09:53:22.000Z</time>
      </trkpt>
      <trkpt lat="42.87939" lon="2.35977">
        <ele>523</ele>
        <time>2025-08-05T09:53:24.000Z</time>
      </trkpt>
      <trkpt lat="42.87934" lon="2.35972">
        <ele>522.40002441406</ele>
        <time>2025-08-05T09:53:25.000Z</time>
      </trkpt>
      <trkpt lat="42.87928" lon="2.3597">
        <ele>522</ele>
        <time>2025-08-05T09:53:26.000Z</time>
      </trkpt>
      <trkpt lat="42.87922" lon="2.35971">
        <ele>521.79998779297</ele>
        <time>2025-08-05T09:53:27.000Z</time>
      </trkpt>
      <trkpt lat="42.87916" lon="2.35977">
        <ele>521.40002441406</ele>
        <time>2025-08-05T09:53:28.000Z</time>
      </trkpt>
      <trkpt lat="42.8791" lon="2.35984">
        <ele>521.20001220703</ele>
        <time>2025-08-05T09:53:29.000Z</time>
      </trkpt>
      <trkpt lat="42.87904" lon="2.35991">
        <ele>520.40002441406</ele>
        <time>2025-08-05T09:53:30.000Z</time>
      </trkpt>
      <trkpt lat="42.87897" lon="2.35996">
        <ele>520</ele>
        <time>2025-08-05T09:53:31.000Z</time>
      </trkpt>
      <trkpt lat="42.8789" lon="2.35999">
        <ele>519.40002441406</ele>
        <time>2025-08-05T09:53:32.000Z</time>
      </trkpt>
      <trkpt lat="42.87876" lon="2.35996">
        <ele>518.59997558594</ele>
        <time>2025-08-05T09:53:34.000Z</time>
      </trkpt>
      <trkpt lat="42.8787" lon="2.35989">
        <ele>518</ele>
        <time>2025-08-05T09:53:35.000Z</time>
      </trkpt>
      <trkpt lat="42.87865" lon="2.3598">
        <ele>517.59997558594</ele>
        <time>2025-08-05T09:53:36.000Z</time>
      </trkpt>
      <trkpt lat="42.87862" lon="2.35969">
        <ele>517</ele>
        <time>2025-08-05T09:53:37.000Z</time>
      </trkpt>
      <trkpt lat="42.8786" lon="2.35957">
        <ele>516.79998779297</ele>
        <time>2025-08-05T09:53:38.000Z</time>
      </trkpt>
      <trkpt lat="42.87855" lon="2.35933">
        <ele>515.59997558594</ele>
        <time>2025-08-05T09:53:40.000Z</time>
      </trkpt>
      <trkpt lat="42.87852" lon="2.35921">
        <ele>515.20001220703</ele>
        <time>2025-08-05T09:53:41.000Z</time>
      </trkpt>
      <trkpt lat="42.87849" lon="2.35909">
        <ele>514.40002441406</ele>
        <time>2025-08-05T09:53:42.000Z</time>
      </trkpt>
      <trkpt lat="42.87845" lon="2.35899">
        <ele>514</ele>
        <time>2025-08-05T09:53:43.000Z</time>
      </trkpt>
      <trkpt lat="42.87836" lon="2.35881">
        <ele>513.40002441406</ele>
        <time>2025-08-05T09:53:45.000Z</time>
      </trkpt>
      <trkpt lat="42.87831" lon="2.35875">
        <ele>513</ele>
        <time>2025-08-05T09:53:46.000Z</time>
      </trkpt>
      <trkpt lat="42.87825" lon="2.35871">
        <ele>512.79998779297</ele>
        <time>2025-08-05T09:53:47.000Z</time>
      </trkpt>
      <trkpt lat="42.87811" lon="2.35869">
        <ele>511.60000610352</ele>
        <time>2025-08-05T09:53:49.000Z</time>
      </trkpt>
      <trkpt lat="42.87796" lon="2.35877">
        <ele>510.60000610352</ele>
        <time>2025-08-05T09:53:52.000Z</time>
      </trkpt>
      <trkpt lat="42.87787" lon="2.35886">
        <ele>508.79998779297</ele>
        <time>2025-08-05T09:53:55.000Z</time>
      </trkpt>
      <trkpt lat="42.8778" lon="2.35892">
        <ele>508.20001220703</ele>
        <time>2025-08-05T09:53:57.000Z</time>
      </trkpt>
      <trkpt lat="42.87776" lon="2.35895">
        <ele>507.39999389648</ele>
        <time>2025-08-05T09:53:58.000Z</time>
      </trkpt>
      <trkpt lat="42.87765" lon="2.35898">
        <ele>506.79998779297</ele>
        <time>2025-08-05T09:54:00.000Z</time>
      </trkpt>
      <trkpt lat="42.87759" lon="2.35897">
        <ele>506.79998779297</ele>
        <time>2025-08-05T09:54:01.000Z</time>
      </trkpt>
      <trkpt lat="42.87753" lon="2.35895">
        <ele>506.20001220703</ele>
        <time>2025-08-05T09:54:02.000Z</time>
      </trkpt>
      <trkpt lat="42.87736" lon="2.3589">
        <ele>505.20001220703</ele>
        <time>2025-08-05T09:54:05.000Z</time>
      </trkpt>
      <trkpt lat="42.87723" lon="2.35891">
        <ele>504.79998779297</ele>
        <time>2025-08-05T09:54:07.000Z</time>
      </trkpt>
      <trkpt lat="42.87704" lon="2.35896">
        <ele>504</ele>
        <time>2025-08-05T09:54:10.000Z</time>
      </trkpt>
      <trkpt lat="42.87691" lon="2.35893">
        <ele>503.60000610352</ele>
        <time>2025-08-05T09:54:12.000Z</time>
      </trkpt>
      <trkpt lat="42.87681" lon="2.35882">
        <ele>503.20001220703</ele>
        <time>2025-08-05T09:54:14.000Z</time>
      </trkpt>
      <trkpt lat="42.87677" lon="2.35874">
        <ele>502.60000610352</ele>
        <time>2025-08-05T09:54:15.000Z</time>
      </trkpt>
      <trkpt lat="42.87658" lon="2.35841">
        <ele>501.20001220703</ele>
        <time>2025-08-05T09:54:19.000Z</time>
      </trkpt>
      <trkpt lat="42.87653" lon="2.35833">
        <ele>501</ele>
        <time>2025-08-05T09:54:20.000Z</time>
      </trkpt>
      <trkpt lat="42.87648" lon="2.35824">
        <ele>500.60000610352</ele>
        <time>2025-08-05T09:54:21.000Z</time>
      </trkpt>
      <trkpt lat="42.87641" lon="2.35803">
        <ele>500</ele>
        <time>2025-08-05T09:54:23.000Z</time>
      </trkpt>
      <trkpt lat="42.87639" lon="2.35792">
        <ele>499.60000610352</ele>
        <time>2025-08-05T09:54:24.000Z</time>
      </trkpt>
      <trkpt lat="42.87634" lon="2.35758">
        <ele>498.79998779297</ele>
        <time>2025-08-05T09:54:27.000Z</time>
      </trkpt>
      <trkpt lat="42.87629" lon="2.35728">
        <ele>497.60000610352</ele>
        <time>2025-08-05T09:54:30.000Z</time>
      </trkpt>
      <trkpt lat="42.87625" lon="2.35698">
        <ele>496.20001220703</ele>
        <time>2025-08-05T09:54:33.000Z</time>
      </trkpt>
      <trkpt lat="42.8762" lon="2.35666">
        <ele>495</ele>
        <time>2025-08-05T09:54:36.000Z</time>
      </trkpt>
      <trkpt lat="42.87618" lon="2.35655">
        <ele>494.60000610352</ele>
        <time>2025-08-05T09:54:37.000Z</time>
      </trkpt>
      <trkpt lat="42.87615" lon="2.35633">
        <ele>493.60000610352</ele>
        <time>2025-08-05T09:54:39.000Z</time>
      </trkpt>
      <trkpt lat="42.87609" lon="2.356">
        <ele>492.39999389648</ele>
        <time>2025-08-05T09:54:42.000Z</time>
      </trkpt>
      <trkpt lat="42.87607" lon="2.35578">
        <ele>491.60000610352</ele>
        <time>2025-08-05T09:54:44.000Z</time>
      </trkpt>
      <trkpt lat="42.87607" lon="2.35566">
        <ele>491.20001220703</ele>
        <time>2025-08-05T09:54:45.000Z</time>
      </trkpt>
      <trkpt lat="42.87608" lon="2.35555">
        <ele>491</ele>
        <time>2025-08-05T09:54:46.000Z</time>
      </trkpt>
      <trkpt lat="42.8761" lon="2.35535">
        <ele>490</ele>
        <time>2025-08-05T09:54:48.000Z</time>
      </trkpt>
      <trkpt lat="42.87611" lon="2.35516">
        <ele>489</ele>
        <time>2025-08-05T09:54:50.000Z</time>
      </trkpt>
      <trkpt lat="42.87612" lon="2.35507">
        <ele>488.60000610352</ele>
        <time>2025-08-05T09:54:51.000Z</time>
      </trkpt>
      <trkpt lat="42.87608" lon="2.35489">
        <ele>487.60000610352</ele>
        <time>2025-08-05T09:54:53.000Z</time>
      </trkpt>
      <trkpt lat="42.87597" lon="2.35469">
        <ele>486.39999389648</ele>
        <time>2025-08-05T09:54:56.000Z</time>
      </trkpt>
      <trkpt lat="42.87593" lon="2.35463">
        <ele>485.79998779297</ele>
        <time>2025-08-05T09:54:57.000Z</time>
      </trkpt>
      <trkpt lat="42.87585" lon="2.35451">
        <ele>484.79998779297</ele>
        <time>2025-08-05T09:54:59.000Z</time>
      </trkpt>
      <trkpt lat="42.87577" lon="2.35441">
        <ele>484</ele>
        <time>2025-08-05T09:55:01.000Z</time>
      </trkpt>
      <trkpt lat="42.87572" lon="2.35436">
        <ele>483.79998779297</ele>
        <time>2025-08-05T09:55:02.000Z</time>
      </trkpt>
      <trkpt lat="42.87567" lon="2.35432">
        <ele>483</ele>
        <time>2025-08-05T09:55:03.000Z</time>
      </trkpt>
      <trkpt lat="42.87562" lon="2.35428">
        <ele>482.60000610352</ele>
        <time>2025-08-05T09:55:04.000Z</time>
      </trkpt>
      <trkpt lat="42.87547" lon="2.35418">
        <ele>481.60000610352</ele>
        <time>2025-08-05T09:55:07.000Z</time>
      </trkpt>
      <trkpt lat="42.87532" lon="2.35407">
        <ele>480.79998779297</ele>
        <time>2025-08-05T09:55:10.000Z</time>
      </trkpt>
      <trkpt lat="42.87528" lon="2.35403">
        <ele>480.39999389648</ele>
        <time>2025-08-05T09:55:11.000Z</time>
      </trkpt>
      <trkpt lat="42.87525" lon="2.35399">
        <ele>480.20001220703</ele>
        <time>2025-08-05T09:55:12.000Z</time>
      </trkpt>
      <trkpt lat="42.8752" lon="2.35388">
        <ele>479.60000610352</ele>
        <time>2025-08-05T09:55:14.000Z</time>
      </trkpt>
      <trkpt lat="42.87517" lon="2.35382">
        <ele>479</ele>
        <time>2025-08-05T09:55:15.000Z</time>
      </trkpt>
      <trkpt lat="42.87512" lon="2.35364">
        <ele>477.79998779297</ele>
        <time>2025-08-05T09:55:18.000Z</time>
      </trkpt>
      <trkpt lat="42.8751" lon="2.35359">
        <ele>477.60000610352</ele>
        <time>2025-08-05T09:55:19.000Z</time>
      </trkpt>
      <trkpt lat="42.875" lon="2.35342">
        <ele>477.20001220703</ele>
        <time>2025-08-05T09:55:22.000Z</time>
      </trkpt>
      <trkpt lat="42.87495" lon="2.35338">
        <ele>476.60000610352</ele>
        <time>2025-08-05T09:55:23.000Z</time>
      </trkpt>
      <trkpt lat="42.8749" lon="2.35335">
        <ele>476.39999389648</ele>
        <time>2025-08-05T09:55:24.000Z</time>
      </trkpt>
      <trkpt lat="42.8747" lon="2.35333">
        <ele>475.60000610352</ele>
        <time>2025-08-05T09:55:27.000Z</time>
      </trkpt>
      <trkpt lat="42.87464" lon="2.35333">
        <ele>475.20001220703</ele>
        <time>2025-08-05T09:55:28.000Z</time>
      </trkpt>
      <trkpt lat="42.87445" lon="2.35334">
        <ele>474.60000610352</ele>
        <time>2025-08-05T09:55:31.000Z</time>
      </trkpt>
      <trkpt lat="42.87436" lon="2.35329">
        <ele>474.20001220703</ele>
        <time>2025-08-05T09:55:33.000Z</time>
      </trkpt>
      <trkpt lat="42.87431" lon="2.35322">
        <ele>473.60000610352</ele>
        <time>2025-08-05T09:55:34.000Z</time>
      </trkpt>
      <trkpt lat="42.8743" lon="2.35315">
        <ele>473.20001220703</ele>
        <time>2025-08-05T09:55:35.000Z</time>
      </trkpt>
      <trkpt lat="42.87432" lon="2.35309">
        <ele>472.60000610352</ele>
        <time>2025-08-05T09:55:36.000Z</time>
      </trkpt>
      <trkpt lat="42.87436" lon="2.35302">
        <ele>472.39999389648</ele>
        <time>2025-08-05T09:55:37.000Z</time>
      </trkpt>
      <trkpt lat="42.8744" lon="2.35296">
        <ele>472.20001220703</ele>
        <time>2025-08-05T09:55:38.000Z</time>
      </trkpt>
      <trkpt lat="42.87451" lon="2.3528">
        <ele>471.20001220703</ele>
        <time>2025-08-05T09:55:41.000Z</time>
      </trkpt>
      <trkpt lat="42.87468" lon="2.35259">
        <ele>470</ele>
        <time>2025-08-05T09:55:45.000Z</time>
      </trkpt>
      <trkpt lat="42.87481" lon="2.35241">
        <ele>469.20001220703</ele>
        <time>2025-08-05T09:55:48.000Z</time>
      </trkpt>
      <trkpt lat="42.87485" lon="2.35235">
        <ele>469</ele>
        <time>2025-08-05T09:55:49.000Z</time>
      </trkpt>
      <trkpt lat="42.87492" lon="2.35225">
        <ele>468.20001220703</ele>
        <time>2025-08-05T09:55:51.000Z</time>
      </trkpt>
      <trkpt lat="42.87501" lon="2.3521">
        <ele>467.60000610352</ele>
        <time>2025-08-05T09:55:54.000Z</time>
      </trkpt>
      <trkpt lat="42.87511" lon="2.35194">
        <ele>466.60000610352</ele>
        <time>2025-08-05T09:55:57.000Z</time>
      </trkpt>
      <trkpt lat="42.87521" lon="2.3518">
        <ele>465.79998779297</ele>
        <time>2025-08-05T09:56:00.000Z</time>
      </trkpt>
      <trkpt lat="42.87524" lon="2.35175">
        <ele>465.60000610352</ele>
        <time>2025-08-05T09:56:01.000Z</time>
      </trkpt>
      <trkpt lat="42.8753" lon="2.35166">
        <ele>464.79998779297</ele>
        <time>2025-08-05T09:56:03.000Z</time>
      </trkpt>
      <trkpt lat="42.87535" lon="2.35157">
        <ele>464.39999389648</ele>
        <time>2025-08-05T09:56:05.000Z</time>
      </trkpt>
      <trkpt lat="42.87538" lon="2.35153">
        <ele>464.39999389648</ele>
        <time>2025-08-05T09:56:06.000Z</time>
      </trkpt>
      <trkpt lat="42.87549" lon="2.35136">
        <ele>463.39999389648</ele>
        <time>2025-08-05T09:56:10.000Z</time>
      </trkpt>
      <trkpt lat="42.87557" lon="2.35122">
        <ele>462.79998779297</ele>
        <time>2025-08-05T09:56:13.000Z</time>
      </trkpt>
      <trkpt lat="42.87566" lon="2.35109">
        <ele>462.20001220703</ele>
        <time>2025-08-05T09:56:16.000Z</time>
      </trkpt>
      <trkpt lat="42.87585" lon="2.35084">
        <ele>461</ele>
        <time>2025-08-05T09:56:23.000Z</time>
      </trkpt>
      <trkpt lat="42.87597" lon="2.35068">
        <ele>460.79998779297</ele>
        <time>2025-08-05T09:56:27.000Z</time>
      </trkpt>
      <trkpt lat="42.87601" lon="2.35062">
        <ele>460.20001220703</ele>
        <time>2025-08-05T09:56:29.000Z</time>
      </trkpt>
      <trkpt lat="42.87605" lon="2.35056">
        <ele>459.79998779297</ele>
        <time>2025-08-05T09:56:31.000Z</time>
      </trkpt>
      <trkpt lat="42.87619" lon="2.35037">
        <ele>459</ele>
        <time>2025-08-05T09:56:37.000Z</time>
      </trkpt>
      <trkpt lat="42.87622" lon="2.35034">
        <ele>458.79998779297</ele>
        <time>2025-08-05T09:56:38.000Z</time>
      </trkpt>
      <trkpt lat="42.87637" lon="2.35021">
        <ele>458.39999389648</ele>
        <time>2025-08-05T09:56:43.000Z</time>
      </trkpt>
      <trkpt lat="42.87653" lon="2.35009">
        <ele>457.79998779297</ele>
        <time>2025-08-05T09:56:48.000Z</time>
      </trkpt>
      <trkpt lat="42.87656" lon="2.35007">
        <ele>457.60000610352</ele>
        <time>2025-08-05T09:56:50.000Z</time>
      </trkpt>
      <trkpt lat="42.87667" lon="2.34999">
        <ele>456.79998779297</ele>
        <time>2025-08-05T09:56:55.000Z</time>
      </trkpt>
      <trkpt lat="42.8767" lon="2.34997">
        <ele>456.39999389648</ele>
        <time>2025-08-05T09:56:56.000Z</time>
      </trkpt>
      <trkpt lat="42.87689" lon="2.34985">
        <ele>456</ele>
        <time>2025-08-05T09:57:02.000Z</time>
      </trkpt>
      <trkpt lat="42.87701" lon="2.34975">
        <ele>455.60000610352</ele>
        <time>2025-08-05T09:57:06.000Z</time>
      </trkpt>
      <trkpt lat="42.87711" lon="2.34968">
        <ele>455.39999389648</ele>
        <time>2025-08-05T09:57:10.000Z</time>
      </trkpt>
      <trkpt lat="42.87712" lon="2.34967">
        <ele>455.39999389648</ele>
        <time>2025-08-05T09:57:11.000Z</time>
      </trkpt>
      <trkpt lat="42.87714" lon="2.34967">
        <ele>455.20001220703</ele>
        <time>2025-08-05T09:57:13.000Z</time>
      </trkpt>
      <trkpt lat="42.87715" lon="2.34967">
        <ele>455</ele>
        <time>2025-08-05T09:57:14.000Z</time>
      </trkpt>
      <trkpt lat="42.87715" lon="2.34967">
        <ele>455</ele>
        <time>2025-08-05T09:57:16.000Z</time>
      </trkpt>
      <trkpt lat="42.87717" lon="2.34962">
        <ele>453.79998779297</ele>
        <time>2025-08-05T10:06:50.000Z</time>
      </trkpt>
      <trkpt lat="42.87719" lon="2.3496">
        <ele>453.60000610352</ele>
        <time>2025-08-05T10:06:51.000Z</time>
      </trkpt>
      <trkpt lat="42.87732" lon="2.3495">
        <ele>453.60000610352</ele>
        <time>2025-08-05T10:06:56.000Z</time>
      </trkpt>
      <trkpt lat="42.87755" lon="2.34934">
        <ele>453.39999389648</ele>
        <time>2025-08-05T10:07:03.000Z</time>
      </trkpt>
      <trkpt lat="42.87776" lon="2.34918">
        <ele>453.20001220703</ele>
        <time>2025-08-05T10:07:09.000Z</time>
      </trkpt>
      <trkpt lat="42.878" lon="2.349">
        <ele>452.60000610352</ele>
        <time>2025-08-05T10:07:15.000Z</time>
      </trkpt>
      <trkpt lat="42.87812" lon="2.34893">
        <ele>452.39999389648</ele>
        <time>2025-08-05T10:07:18.000Z</time>
      </trkpt>
      <trkpt lat="42.8782" lon="2.34886">
        <ele>452.39999389648</ele>
        <time>2025-08-05T10:07:20.000Z</time>
      </trkpt>
      <trkpt lat="42.87826" lon="2.34877">
        <ele>452.20001220703</ele>
        <time>2025-08-05T10:07:22.000Z</time>
      </trkpt>
      <trkpt lat="42.87828" lon="2.34871">
        <ele>452.20001220703</ele>
        <time>2025-08-05T10:07:23.000Z</time>
      </trkpt>
      <trkpt lat="42.87843" lon="2.34837">
        <ele>451.60000610352</ele>
        <time>2025-08-05T10:07:29.000Z</time>
      </trkpt>
      <trkpt lat="42.87852" lon="2.34808">
        <ele>451</ele>
        <time>2025-08-05T10:07:34.000Z</time>
      </trkpt>
      <trkpt lat="42.87853" lon="2.34801">
        <ele>451</ele>
        <time>2025-08-05T10:07:35.000Z</time>
      </trkpt>
      <trkpt lat="42.87853" lon="2.34787">
        <ele>450.79998779297</ele>
        <time>2025-08-05T10:07:37.000Z</time>
      </trkpt>
      <trkpt lat="42.87852" lon="2.3478">
        <ele>450.60000610352</ele>
        <time>2025-08-05T10:07:38.000Z</time>
      </trkpt>
      <trkpt lat="42.87849" lon="2.34773">
        <ele>450.60000610352</ele>
        <time>2025-08-05T10:07:39.000Z</time>
      </trkpt>
      <trkpt lat="42.87842" lon="2.34761">
        <ele>450.20001220703</ele>
        <time>2025-08-05T10:07:41.000Z</time>
      </trkpt>
      <trkpt lat="42.87839" lon="2.34756">
        <ele>450</ele>
        <time>2025-08-05T10:07:42.000Z</time>
      </trkpt>
      <trkpt lat="42.87822" lon="2.34739">
        <ele>449.39999389648</ele>
        <time>2025-08-05T10:07:46.000Z</time>
      </trkpt>
      <trkpt lat="42.87818" lon="2.34736">
        <ele>449.20001220703</ele>
        <time>2025-08-05T10:07:47.000Z</time>
      </trkpt>
      <trkpt lat="42.87815" lon="2.34733">
        <ele>449.20001220703</ele>
        <time>2025-08-05T10:07:48.000Z</time>
      </trkpt>
      <trkpt lat="42.87783" lon="2.34707">
        <ele>448.60000610352</ele>
        <time>2025-08-05T10:07:56.000Z</time>
      </trkpt>
      <trkpt lat="42.87772" lon="2.34697">
        <ele>448.60000610352</ele>
        <time>2025-08-05T10:07:59.000Z</time>
      </trkpt>
      <trkpt lat="42.87763" lon="2.34688">
        <ele>448.39999389648</ele>
        <time>2025-08-05T10:08:02.000Z</time>
      </trkpt>
      <trkpt lat="42.87758" lon="2.3468">
        <ele>448.39999389648</ele>
        <time>2025-08-05T10:08:04.000Z</time>
      </trkpt>
      <trkpt lat="42.87749" lon="2.34665">
        <ele>448.39999389648</ele>
        <time>2025-08-05T10:08:09.000Z</time>
      </trkpt>
      <trkpt lat="42.87739" lon="2.34643">
        <ele>448.39999389648</ele>
        <time>2025-08-05T10:08:16.000Z</time>
      </trkpt>
      <trkpt lat="42.87734" lon="2.34618">
        <ele>448.39999389648</ele>
        <time>2025-08-05T10:08:23.000Z</time>
      </trkpt>
      <trkpt lat="42.87736" lon="2.34582">
        <ele>449</ele>
        <time>2025-08-05T10:08:32.000Z</time>
      </trkpt>
      <trkpt lat="42.87737" lon="2.3457">
        <ele>449.20001220703</ele>
        <time>2025-08-05T10:08:35.000Z</time>
      </trkpt>
      <trkpt lat="42.87741" lon="2.34547">
        <ele>449.39999389648</ele>
        <time>2025-08-05T10:08:40.000Z</time>
      </trkpt>
      <trkpt lat="42.87744" lon="2.34529">
        <ele>449.60000610352</ele>
        <time>2025-08-05T10:08:44.000Z</time>
      </trkpt>
      <trkpt lat="42.87746" lon="2.34511">
        <ele>449.60000610352</ele>
        <time>2025-08-05T10:08:48.000Z</time>
      </trkpt>
      <trkpt lat="42.87746" lon="2.34461">
        <ele>448.79998779297</ele>
        <time>2025-08-05T10:08:57.000Z</time>
      </trkpt>
      <trkpt lat="42.87744" lon="2.34432">
        <ele>448.39999389648</ele>
        <time>2025-08-05T10:09:02.000Z</time>
      </trkpt>
      <trkpt lat="42.87741" lon="2.3441">
        <ele>448.39999389648</ele>
        <time>2025-08-05T10:09:06.000Z</time>
      </trkpt>
      <trkpt lat="42.87737" lon="2.34388">
        <ele>448</ele>
        <time>2025-08-05T10:09:11.000Z</time>
      </trkpt>
      <trkpt lat="42.87735" lon="2.34368">
        <ele>447.79998779297</ele>
        <time>2025-08-05T10:09:17.000Z</time>
      </trkpt>
      <trkpt lat="42.8773" lon="2.34339">
        <ele>448.20001220703</ele>
        <time>2025-08-05T10:09:25.000Z</time>
      </trkpt>
      <trkpt lat="42.87724" lon="2.3431">
        <ele>448.60000610352</ele>
        <time>2025-08-05T10:09:33.000Z</time>
      </trkpt>
      <trkpt lat="42.87721" lon="2.34284">
        <ele>449.79998779297</ele>
        <time>2025-08-05T10:09:41.000Z</time>
      </trkpt>
      <trkpt lat="42.87719" lon="2.34277">
        <ele>450.20001220703</ele>
        <time>2025-08-05T10:09:43.000Z</time>
      </trkpt>
      <trkpt lat="42.87718" lon="2.34268">
        <ele>450.79998779297</ele>
        <time>2025-08-05T10:09:46.000Z</time>
      </trkpt>
      <trkpt lat="42.87714" lon="2.34246">
        <ele>451.60000610352</ele>
        <time>2025-08-05T10:09:52.000Z</time>
      </trkpt>
      <trkpt lat="42.87714" lon="2.34242">
        <ele>451.79998779297</ele>
        <time>2025-08-05T10:09:53.000Z</time>
      </trkpt>
      <trkpt lat="42.87713" lon="2.34239">
        <ele>451.79998779297</ele>
        <time>2025-08-05T10:09:54.000Z</time>
      </trkpt>
      <trkpt lat="42.87709" lon="2.34215">
        <ele>452.60000610352</ele>
        <time>2025-08-05T10:10:01.000Z</time>
      </trkpt>
      <trkpt lat="42.87706" lon="2.34198">
        <ele>453</ele>
        <time>2025-08-05T10:10:06.000Z</time>
      </trkpt>
      <trkpt lat="42.87703" lon="2.34189">
        <ele>453.39999389648</ele>
        <time>2025-08-05T10:10:09.000Z</time>
      </trkpt>
      <trkpt lat="42.87701" lon="2.34169">
        <ele>454</ele>
        <time>2025-08-05T10:10:15.000Z</time>
      </trkpt>
      <trkpt lat="42.877" lon="2.34162">
        <ele>454.20001220703</ele>
        <time>2025-08-05T10:10:17.000Z</time>
      </trkpt>
      <trkpt lat="42.87695" lon="2.34137">
        <ele>455</ele>
        <time>2025-08-05T10:10:25.000Z</time>
      </trkpt>
      <trkpt lat="42.87695" lon="2.34131">
        <ele>455</ele>
        <time>2025-08-05T10:10:27.000Z</time>
      </trkpt>
      <trkpt lat="42.87697" lon="2.34114">
        <ele>455.39999389648</ele>
        <time>2025-08-05T10:10:32.000Z</time>
      </trkpt>
      <trkpt lat="42.87699" lon="2.34107">
        <ele>455.39999389648</ele>
        <time>2025-08-05T10:10:34.000Z</time>
      </trkpt>
      <trkpt lat="42.87711" lon="2.34094">
        <ele>455.39999389648</ele>
        <time>2025-08-05T10:10:40.000Z</time>
      </trkpt>
      <trkpt lat="42.87724" lon="2.34084">
        <ele>455.79998779297</ele>
        <time>2025-08-05T10:10:45.000Z</time>
      </trkpt>
      <trkpt lat="42.87737" lon="2.34062">
        <ele>455.60000610352</ele>
        <time>2025-08-05T10:10:51.000Z</time>
      </trkpt>
      <trkpt lat="42.87736" lon="2.34032">
        <ele>455.20001220703</ele>
        <time>2025-08-05T10:10:57.000Z</time>
      </trkpt>
      <trkpt lat="42.87732" lon="2.34">
        <ele>454.20001220703</ele>
        <time>2025-08-05T10:11:03.000Z</time>
      </trkpt>
      <trkpt lat="42.87732" lon="2.33994">
        <ele>453.79998779297</ele>
        <time>2025-08-05T10:11:04.000Z</time>
      </trkpt>
      <trkpt lat="42.87728" lon="2.33971">
        <ele>453.20001220703</ele>
        <time>2025-08-05T10:11:08.000Z</time>
      </trkpt>
      <trkpt lat="42.87723" lon="2.33958">
        <ele>453</ele>
        <time>2025-08-05T10:11:10.000Z</time>
      </trkpt>
      <trkpt lat="42.87718" lon="2.33948">
        <ele>452.60000610352</ele>
        <time>2025-08-05T10:11:12.000Z</time>
      </trkpt>
      <trkpt lat="42.87704" lon="2.33927">
        <ele>452</ele>
        <time>2025-08-05T10:11:16.000Z</time>
      </trkpt>
      <trkpt lat="42.87696" lon="2.33915">
        <ele>451.60000610352</ele>
        <time>2025-08-05T10:11:18.000Z</time>
      </trkpt>
      <trkpt lat="42.87677" lon="2.33885">
        <ele>450.60000610352</ele>
        <time>2025-08-05T10:11:23.000Z</time>
      </trkpt>
      <trkpt lat="42.87672" lon="2.33878">
        <ele>450.20001220703</ele>
        <time>2025-08-05T10:11:24.000Z</time>
      </trkpt>
      <trkpt lat="42.87662" lon="2.3386">
        <ele>449.20001220703</ele>
        <time>2025-08-05T10:11:27.000Z</time>
      </trkpt>
      <trkpt lat="42.87659" lon="2.33854">
        <ele>448.79998779297</ele>
        <time>2025-08-05T10:11:28.000Z</time>
      </trkpt>
      <trkpt lat="42.87656" lon="2.33847">
        <ele>448.79998779297</ele>
        <time>2025-08-05T10:11:29.000Z</time>
      </trkpt>
      <trkpt lat="42.87654" lon="2.33836">
        <ele>448.39999389648</ele>
        <time>2025-08-05T10:11:30.000Z</time>
      </trkpt>
      <trkpt lat="42.87653" lon="2.33819">
        <ele>448</ele>
        <time>2025-08-05T10:11:32.000Z</time>
      </trkpt>
      <trkpt lat="42.87653" lon="2.33811">
        <ele>447.79998779297</ele>
        <time>2025-08-05T10:11:33.000Z</time>
      </trkpt>
      <trkpt lat="42.87654" lon="2.33805">
        <ele>447.79998779297</ele>
        <time>2025-08-05T10:11:34.000Z</time>
      </trkpt>
      <trkpt lat="42.87656" lon="2.33774">
        <ele>447</ele>
        <time>2025-08-05T10:11:38.000Z</time>
      </trkpt>
      <trkpt lat="42.87657" lon="2.33766">
        <ele>446.79998779297</ele>
        <time>2025-08-05T10:11:39.000Z</time>
      </trkpt>
      <trkpt lat="42.87664" lon="2.33731">
        <ele>446</ele>
        <time>2025-08-05T10:11:45.000Z</time>
      </trkpt>
      <trkpt lat="42.8767" lon="2.33698">
        <ele>446.79998779297</ele>
        <time>2025-08-05T10:11:52.000Z</time>
      </trkpt>
      <trkpt lat="42.87679" lon="2.33663">
        <ele>447.79998779297</ele>
        <time>2025-08-05T10:12:00.000Z</time>
      </trkpt>
      <trkpt lat="42.87682" lon="2.33631">
        <ele>448.20001220703</ele>
        <time>2025-08-05T10:12:07.000Z</time>
      </trkpt>
      <trkpt lat="42.87681" lon="2.33623">
        <ele>448.39999389648</ele>
        <time>2025-08-05T10:12:09.000Z</time>
      </trkpt>
      <trkpt lat="42.87674" lon="2.33587">
        <ele>448.60000610352</ele>
        <time>2025-08-05T10:12:18.000Z</time>
      </trkpt>
      <trkpt lat="42.87674" lon="2.33563">
        <ele>448.79998779297</ele>
        <time>2025-08-05T10:12:24.000Z</time>
      </trkpt>
      <trkpt lat="42.87681" lon="2.33534">
        <ele>448.79998779297</ele>
        <time>2025-08-05T10:12:32.000Z</time>
      </trkpt>
      <trkpt lat="42.87692" lon="2.33513">
        <ele>449.20001220703</ele>
        <time>2025-08-05T10:12:38.000Z</time>
      </trkpt>
      <trkpt lat="42.87698" lon="2.33505">
        <ele>449.20001220703</ele>
        <time>2025-08-05T10:12:41.000Z</time>
      </trkpt>
      <trkpt lat="42.87711" lon="2.33486">
        <ele>449.60000610352</ele>
        <time>2025-08-05T10:12:47.000Z</time>
      </trkpt>
      <trkpt lat="42.87723" lon="2.33469">
        <ele>450.20001220703</ele>
        <time>2025-08-05T10:12:53.000Z</time>
      </trkpt>
      <trkpt lat="42.87729" lon="2.33461">
        <ele>450.39999389648</ele>
        <time>2025-08-05T10:12:56.000Z</time>
      </trkpt>
      <trkpt lat="42.87744" lon="2.33433">
        <ele>450.79998779297</ele>
        <time>2025-08-05T10:13:05.000Z</time>
      </trkpt>
      <trkpt lat="42.87751" lon="2.33419">
        <ele>451.39999389648</ele>
        <time>2025-08-05T10:13:09.000Z</time>
      </trkpt>
      <trkpt lat="42.87756" lon="2.33411">
        <ele>451.60000610352</ele>
        <time>2025-08-05T10:13:12.000Z</time>
      </trkpt>
      <trkpt lat="42.87762" lon="2.334">
        <ele>452.39999389648</ele>
        <time>2025-08-05T10:13:16.000Z</time>
      </trkpt>
      <trkpt lat="42.87768" lon="2.33391">
        <ele>452.60000610352</ele>
        <time>2025-08-05T10:13:19.000Z</time>
      </trkpt>
      <trkpt lat="42.87782" lon="2.33366">
        <ele>453</ele>
        <time>2025-08-05T10:13:28.000Z</time>
      </trkpt>
      <trkpt lat="42.87787" lon="2.33354">
        <ele>453.39999389648</ele>
        <time>2025-08-05T10:13:32.000Z</time>
      </trkpt>
      <trkpt lat="42.87795" lon="2.33335">
        <ele>454</ele>
        <time>2025-08-05T10:13:38.000Z</time>
      </trkpt>
      <trkpt lat="42.87801" lon="2.33318">
        <ele>454.39999389648</ele>
        <time>2025-08-05T10:13:43.000Z</time>
      </trkpt>
      <trkpt lat="42.87809" lon="2.33297">
        <ele>455.20001220703</ele>
        <time>2025-08-05T10:13:49.000Z</time>
      </trkpt>
      <trkpt lat="42.87813" lon="2.33283">
        <ele>455.39999389648</ele>
        <time>2025-08-05T10:13:53.000Z</time>
      </trkpt>
      <trkpt lat="42.87817" lon="2.33266">
        <ele>456.20001220703</ele>
        <time>2025-08-05T10:13:58.000Z</time>
      </trkpt>
      <trkpt lat="42.8782" lon="2.33247">
        <ele>456.60000610352</ele>
        <time>2025-08-05T10:14:03.000Z</time>
      </trkpt>
      <trkpt lat="42.87822" lon="2.33235">
        <ele>456.79998779297</ele>
        <time>2025-08-05T10:14:07.000Z</time>
      </trkpt>
      <trkpt lat="42.87825" lon="2.33211">
        <ele>457.20001220703</ele>
        <time>2025-08-05T10:14:14.000Z</time>
      </trkpt>
      <trkpt lat="42.87826" lon="2.33199">
        <ele>457.39999389648</ele>
        <time>2025-08-05T10:14:18.000Z</time>
      </trkpt>
      <trkpt lat="42.87826" lon="2.33195">
        <ele>457.39999389648</ele>
        <time>2025-08-05T10:14:19.000Z</time>
      </trkpt>
      <trkpt lat="42.87827" lon="2.33179">
        <ele>457.60000610352</ele>
        <time>2025-08-05T10:14:24.000Z</time>
      </trkpt>
      <trkpt lat="42.8783" lon="2.33161">
        <ele>457.60000610352</ele>
        <time>2025-08-05T10:14:30.000Z</time>
      </trkpt>
      <trkpt lat="42.87833" lon="2.33137">
        <ele>458</ele>
        <time>2025-08-05T10:14:38.000Z</time>
      </trkpt>
      <trkpt lat="42.87837" lon="2.3311">
        <ele>458.60000610352</ele>
        <time>2025-08-05T10:14:47.000Z</time>
      </trkpt>
      <trkpt lat="42.87838" lon="2.33107">
        <ele>458.60000610352</ele>
        <time>2025-08-05T10:14:48.000Z</time>
      </trkpt>
      <trkpt lat="42.87839" lon="2.33098">
        <ele>459</ele>
        <time>2025-08-05T10:14:51.000Z</time>
      </trkpt>
      <trkpt lat="42.87841" lon="2.33093">
        <ele>459</ele>
        <time>2025-08-05T10:14:53.000Z</time>
      </trkpt>
      <trkpt lat="42.87842" lon="2.33085">
        <ele>459.60000610352</ele>
        <time>2025-08-05T10:14:56.000Z</time>
      </trkpt>
      <trkpt lat="42.87845" lon="2.33077">
        <ele>460</ele>
        <time>2025-08-05T10:14:59.000Z</time>
      </trkpt>
      <trkpt lat="42.87848" lon="2.33065">
        <ele>460.79998779297</ele>
        <time>2025-08-05T10:15:04.000Z</time>
      </trkpt>
      <trkpt lat="42.87852" lon="2.33055">
        <ele>461.79998779297</ele>
        <time>2025-08-05T10:15:08.000Z</time>
      </trkpt>
      <trkpt lat="42.87852" lon="2.33052">
        <ele>462</ele>
        <time>2025-08-05T10:15:09.000Z</time>
      </trkpt>
      <trkpt lat="42.87857" lon="2.33038">
        <ele>462.39999389648</ele>
        <time>2025-08-05T10:15:15.000Z</time>
      </trkpt>
      <trkpt lat="42.87863" lon="2.33024">
        <ele>463</ele>
        <time>2025-08-05T10:15:21.000Z</time>
      </trkpt>
      <trkpt lat="42.87865" lon="2.33017">
        <ele>463.60000610352</ele>
        <time>2025-08-05T10:15:24.000Z</time>
      </trkpt>
      <trkpt lat="42.87867" lon="2.33009">
        <ele>464.20001220703</ele>
        <time>2025-08-05T10:15:27.000Z</time>
      </trkpt>
      <trkpt lat="42.87872" lon="2.32995">
        <ele>464.60000610352</ele>
        <time>2025-08-05T10:15:33.000Z</time>
      </trkpt>
      <trkpt lat="42.87875" lon="2.32982">
        <ele>465.20001220703</ele>
        <time>2025-08-05T10:15:38.000Z</time>
      </trkpt>
      <trkpt lat="42.87879" lon="2.32972">
        <ele>465.60000610352</ele>
        <time>2025-08-05T10:15:42.000Z</time>
      </trkpt>
      <trkpt lat="42.87883" lon="2.3296">
        <ele>466.20001220703</ele>
        <time>2025-08-05T10:15:47.000Z</time>
      </trkpt>
      <trkpt lat="42.87887" lon="2.32947">
        <ele>467</ele>
        <time>2025-08-05T10:15:52.000Z</time>
      </trkpt>
      <trkpt lat="42.8789" lon="2.3294">
        <ele>467.20001220703</ele>
        <time>2025-08-05T10:15:55.000Z</time>
      </trkpt>
      <trkpt lat="42.87894" lon="2.32932">
        <ele>467.79998779297</ele>
        <time>2025-08-05T10:15:59.000Z</time>
      </trkpt>
      <trkpt lat="42.87898" lon="2.32923">
        <ele>468.60000610352</ele>
        <time>2025-08-05T10:16:03.000Z</time>
      </trkpt>
      <trkpt lat="42.87903" lon="2.32915">
        <ele>469.39999389648</ele>
        <time>2025-08-05T10:16:07.000Z</time>
      </trkpt>
      <trkpt lat="42.87905" lon="2.32914">
        <ele>469.79998779297</ele>
        <time>2025-08-05T10:16:08.000Z</time>
      </trkpt>
      <trkpt lat="42.87913" lon="2.32904">
        <ele>470.39999389648</ele>
        <time>2025-08-05T10:16:13.000Z</time>
      </trkpt>
      <trkpt lat="42.87921" lon="2.32897">
        <ele>470.79998779297</ele>
        <time>2025-08-05T10:16:18.000Z</time>
      </trkpt>
      <trkpt lat="42.87926" lon="2.32892">
        <ele>470.79998779297</ele>
        <time>2025-08-05T10:16:21.000Z</time>
      </trkpt>
      <trkpt lat="42.8794" lon="2.32881">
        <ele>470.60000610352</ele>
        <time>2025-08-05T10:16:28.000Z</time>
      </trkpt>
      <trkpt lat="42.87956" lon="2.32863">
        <ele>469.79998779297</ele>
        <time>2025-08-05T10:16:34.000Z</time>
      </trkpt>
      <trkpt lat="42.87961" lon="2.32853">
        <ele>469.39999389648</ele>
        <time>2025-08-05T10:16:36.000Z</time>
      </trkpt>
      <trkpt lat="42.8797" lon="2.32833">
        <ele>469</ele>
        <time>2025-08-05T10:16:39.000Z</time>
      </trkpt>
      <trkpt lat="42.87975" lon="2.32818">
        <ele>468.60000610352</ele>
        <time>2025-08-05T10:16:41.000Z</time>
      </trkpt>
      <trkpt lat="42.87984" lon="2.32787">
        <ele>467.60000610352</ele>
        <time>2025-08-05T10:16:45.000Z</time>
      </trkpt>
      <trkpt lat="42.87988" lon="2.32751">
        <ele>466.20001220703</ele>
        <time>2025-08-05T10:16:49.000Z</time>
      </trkpt>
      <trkpt lat="42.87988" lon="2.32743">
        <ele>465.79998779297</ele>
        <time>2025-08-05T10:16:50.000Z</time>
      </trkpt>
      <trkpt lat="42.87987" lon="2.32731">
        <ele>465.60000610352</ele>
        <time>2025-08-05T10:16:51.000Z</time>
      </trkpt>
      <trkpt lat="42.87985" lon="2.32722">
        <ele>464.79998779297</ele>
        <time>2025-08-05T10:16:52.000Z</time>
      </trkpt>
      <trkpt lat="42.87983" lon="2.32714">
        <ele>464.60000610352</ele>
        <time>2025-08-05T10:16:53.000Z</time>
      </trkpt>
      <trkpt lat="42.8798" lon="2.32705">
        <ele>464.20001220703</ele>
        <time>2025-08-05T10:16:54.000Z</time>
      </trkpt>
      <trkpt lat="42.87975" lon="2.32696">
        <ele>463.60000610352</ele>
        <time>2025-08-05T10:16:55.000Z</time>
      </trkpt>
      <trkpt lat="42.8796" lon="2.32671">
        <ele>462.20001220703</ele>
        <time>2025-08-05T10:16:58.000Z</time>
      </trkpt>
      <trkpt lat="42.87955" lon="2.32664">
        <ele>461.39999389648</ele>
        <time>2025-08-05T10:16:59.000Z</time>
      </trkpt>
      <trkpt lat="42.8795" lon="2.32656">
        <ele>461.20001220703</ele>
        <time>2025-08-05T10:17:00.000Z</time>
      </trkpt>
      <trkpt lat="42.8794" lon="2.3264">
        <ele>459</ele>
        <time>2025-08-05T10:17:02.000Z</time>
      </trkpt>
      <trkpt lat="42.87937" lon="2.32631">
        <ele>458.60000610352</ele>
        <time>2025-08-05T10:17:03.000Z</time>
      </trkpt>
      <trkpt lat="42.87935" lon="2.32623">
        <ele>458</ele>
        <time>2025-08-05T10:17:04.000Z</time>
      </trkpt>
      <trkpt lat="42.87934" lon="2.32612">
        <ele>457.60000610352</ele>
        <time>2025-08-05T10:17:05.000Z</time>
      </trkpt>
      <trkpt lat="42.87935" lon="2.32602">
        <ele>456.79998779297</ele>
        <time>2025-08-05T10:17:06.000Z</time>
      </trkpt>
      <trkpt lat="42.87938" lon="2.32592">
        <ele>456.60000610352</ele>
        <time>2025-08-05T10:17:07.000Z</time>
      </trkpt>
      <trkpt lat="42.87942" lon="2.32582">
        <ele>455.79998779297</ele>
        <time>2025-08-05T10:17:08.000Z</time>
      </trkpt>
      <trkpt lat="42.87949" lon="2.32556">
        <ele>454.20001220703</ele>
        <time>2025-08-05T10:17:11.000Z</time>
      </trkpt>
      <trkpt lat="42.87949" lon="2.32546">
        <ele>454</ele>
        <time>2025-08-05T10:17:12.000Z</time>
      </trkpt>
      <trkpt lat="42.87948" lon="2.32537">
        <ele>453.60000610352</ele>
        <time>2025-08-05T10:17:13.000Z</time>
      </trkpt>
      <trkpt lat="42.87946" lon="2.3253">
        <ele>453.20001220703</ele>
        <time>2025-08-05T10:17:14.000Z</time>
      </trkpt>
      <trkpt lat="42.87942" lon="2.32522">
        <ele>453</ele>
        <time>2025-08-05T10:17:15.000Z</time>
      </trkpt>
      <trkpt lat="42.87931" lon="2.32508">
        <ele>452</ele>
        <time>2025-08-05T10:17:17.000Z</time>
      </trkpt>
      <trkpt lat="42.8792" lon="2.32496">
        <ele>450.79998779297</ele>
        <time>2025-08-05T10:17:19.000Z</time>
      </trkpt>
      <trkpt lat="42.87909" lon="2.32483">
        <ele>449.20001220703</ele>
        <time>2025-08-05T10:17:21.000Z</time>
      </trkpt>
      <trkpt lat="42.87897" lon="2.32465">
        <ele>448</ele>
        <time>2025-08-05T10:17:23.000Z</time>
      </trkpt>
      <trkpt lat="42.87894" lon="2.32456">
        <ele>447.79998779297</ele>
        <time>2025-08-05T10:17:24.000Z</time>
      </trkpt>
      <trkpt lat="42.87891" lon="2.32446">
        <ele>447.20001220703</ele>
        <time>2025-08-05T10:17:25.000Z</time>
      </trkpt>
      <trkpt lat="42.87889" lon="2.32435">
        <ele>446.79998779297</ele>
        <time>2025-08-05T10:17:26.000Z</time>
      </trkpt>
      <trkpt lat="42.87888" lon="2.32424">
        <ele>446.39999389648</ele>
        <time>2025-08-05T10:17:27.000Z</time>
      </trkpt>
      <trkpt lat="42.87888" lon="2.32413">
        <ele>445.79998779297</ele>
        <time>2025-08-05T10:17:28.000Z</time>
      </trkpt>
      <trkpt lat="42.87889" lon="2.32402">
        <ele>445.39999389648</ele>
        <time>2025-08-05T10:17:29.000Z</time>
      </trkpt>
      <trkpt lat="42.87894" lon="2.32369">
        <ele>444.20001220703</ele>
        <time>2025-08-05T10:17:32.000Z</time>
      </trkpt>
      <trkpt lat="42.87897" lon="2.32357">
        <ele>444</ele>
        <time>2025-08-05T10:17:33.000Z</time>
      </trkpt>
      <trkpt lat="42.87899" lon="2.32333">
        <ele>443.20001220703</ele>
        <time>2025-08-05T10:17:35.000Z</time>
      </trkpt>
      <trkpt lat="42.87897" lon="2.32309">
        <ele>441.79998779297</ele>
        <time>2025-08-05T10:17:37.000Z</time>
      </trkpt>
      <trkpt lat="42.8789" lon="2.32287">
        <ele>440.60000610352</ele>
        <time>2025-08-05T10:17:39.000Z</time>
      </trkpt>
      <trkpt lat="42.87887" lon="2.32276">
        <ele>440.20001220703</ele>
        <time>2025-08-05T10:17:40.000Z</time>
      </trkpt>
      <trkpt lat="42.87885" lon="2.32265">
        <ele>439.60000610352</ele>
        <time>2025-08-05T10:17:41.000Z</time>
      </trkpt>
      <trkpt lat="42.87885" lon="2.32251">
        <ele>439</ele>
        <time>2025-08-05T10:17:42.000Z</time>
      </trkpt>
      <trkpt lat="42.87889" lon="2.32233">
        <ele>437.79998779297</ele>
        <time>2025-08-05T10:17:44.000Z</time>
      </trkpt>
      <trkpt lat="42.87897" lon="2.32214">
        <ele>436.60000610352</ele>
        <time>2025-08-05T10:17:46.000Z</time>
      </trkpt>
      <trkpt lat="42.87907" lon="2.32199">
        <ele>436</ele>
        <time>2025-08-05T10:17:48.000Z</time>
      </trkpt>
      <trkpt lat="42.87912" lon="2.32192">
        <ele>435.39999389648</ele>
        <time>2025-08-05T10:17:49.000Z</time>
      </trkpt>
      <trkpt lat="42.87927" lon="2.32178">
        <ele>434.60000610352</ele>
        <time>2025-08-05T10:17:52.000Z</time>
      </trkpt>
      <trkpt lat="42.87933" lon="2.32176">
        <ele>434.39999389648</ele>
        <time>2025-08-05T10:17:53.000Z</time>
      </trkpt>
      <trkpt lat="42.87949" lon="2.32173">
        <ele>434.20001220703</ele>
        <time>2025-08-05T10:17:56.000Z</time>
      </trkpt>
      <trkpt lat="42.87984" lon="2.32171">
        <ele>433.79998779297</ele>
        <time>2025-08-05T10:18:03.000Z</time>
      </trkpt>
      <trkpt lat="42.88016" lon="2.32171">
        <ele>434</ele>
        <time>2025-08-05T10:18:10.000Z</time>
      </trkpt>
      <trkpt lat="42.88043" lon="2.32171">
        <ele>434.20001220703</ele>
        <time>2025-08-05T10:18:16.000Z</time>
      </trkpt>
      <trkpt lat="42.88052" lon="2.32173">
        <ele>434.20001220703</ele>
        <time>2025-08-05T10:18:18.000Z</time>
      </trkpt>
      <trkpt lat="42.88076" lon="2.32185">
        <ele>434.60000610352</ele>
        <time>2025-08-05T10:18:24.000Z</time>
      </trkpt>
      <trkpt lat="42.88101" lon="2.32205">
        <ele>434.79998779297</ele>
        <time>2025-08-05T10:18:32.000Z</time>
      </trkpt>
      <trkpt lat="42.88117" lon="2.32215">
        <ele>435</ele>
        <time>2025-08-05T10:18:38.000Z</time>
      </trkpt>
      <trkpt lat="42.88131" lon="2.32218">
        <ele>435.60000610352</ele>
        <time>2025-08-05T10:18:44.000Z</time>
      </trkpt>
      <trkpt lat="42.88133" lon="2.32218">
        <ele>435.79998779297</ele>
        <time>2025-08-05T10:18:45.000Z</time>
      </trkpt>
      <trkpt lat="42.88148" lon="2.32214">
        <ele>436.60000610352</ele>
        <time>2025-08-05T10:18:51.000Z</time>
      </trkpt>
      <trkpt lat="42.88151" lon="2.32213">
        <ele>437</ele>
        <time>2025-08-05T10:18:52.000Z</time>
      </trkpt>
      <trkpt lat="42.88161" lon="2.32207">
        <ele>438</ele>
        <time>2025-08-05T10:18:56.000Z</time>
      </trkpt>
      <trkpt lat="42.88168" lon="2.32205">
        <ele>438.39999389648</ele>
        <time>2025-08-05T10:18:59.000Z</time>
      </trkpt>
      <trkpt lat="42.8818" lon="2.32198">
        <ele>439</ele>
        <time>2025-08-05T10:19:04.000Z</time>
      </trkpt>
      <trkpt lat="42.88188" lon="2.32195">
        <ele>439.39999389648</ele>
        <time>2025-08-05T10:19:07.000Z</time>
      </trkpt>
      <trkpt lat="42.88213" lon="2.32181">
        <ele>440</ele>
        <time>2025-08-05T10:19:16.000Z</time>
      </trkpt>
      <trkpt lat="42.88218" lon="2.32177">
        <ele>440.20001220703</ele>
        <time>2025-08-05T10:19:18.000Z</time>
      </trkpt>
      <trkpt lat="42.88237" lon="2.32154">
        <ele>440.20001220703</ele>
        <time>2025-08-05T10:19:25.000Z</time>
      </trkpt>
      <trkpt lat="42.88258" lon="2.32128">
        <ele>440</ele>
        <time>2025-08-05T10:19:31.000Z</time>
      </trkpt>
      <trkpt lat="42.88277" lon="2.32114">
        <ele>439</ele>
        <time>2025-08-05T10:19:35.000Z</time>
      </trkpt>
      <trkpt lat="42.88282" lon="2.32112">
        <ele>438.79998779297</ele>
        <time>2025-08-05T10:19:36.000Z</time>
      </trkpt>
      <trkpt lat="42.88308" lon="2.32095">
        <ele>437.60000610352</ele>
        <time>2025-08-05T10:19:41.000Z</time>
      </trkpt>
      <trkpt lat="42.88319" lon="2.32087">
        <ele>437.20001220703</ele>
        <time>2025-08-05T10:19:43.000Z</time>
      </trkpt>
      <trkpt lat="42.88339" lon="2.32067">
        <ele>436.39999389648</ele>
        <time>2025-08-05T10:19:47.000Z</time>
      </trkpt>
      <trkpt lat="42.88351" lon="2.32057">
        <ele>436</ele>
        <time>2025-08-05T10:19:49.000Z</time>
      </trkpt>
      <trkpt lat="42.88364" lon="2.32048">
        <ele>435.60000610352</ele>
        <time>2025-08-05T10:19:51.000Z</time>
      </trkpt>
      <trkpt lat="42.88377" lon="2.32042">
        <ele>435.20001220703</ele>
        <time>2025-08-05T10:19:53.000Z</time>
      </trkpt>
      <trkpt lat="42.88391" lon="2.32035">
        <ele>434.20001220703</ele>
        <time>2025-08-05T10:19:55.000Z</time>
      </trkpt>
      <trkpt lat="42.88403" lon="2.32024">
        <ele>433.60000610352</ele>
        <time>2025-08-05T10:19:57.000Z</time>
      </trkpt>
      <trkpt lat="42.88408" lon="2.32018">
        <ele>433</ele>
        <time>2025-08-05T10:19:58.000Z</time>
      </trkpt>
      <trkpt lat="42.88433" lon="2.31995">
        <ele>431.79998779297</ele>
        <time>2025-08-05T10:20:02.000Z</time>
      </trkpt>
      <trkpt lat="42.88446" lon="2.31986">
        <ele>431.39999389648</ele>
        <time>2025-08-05T10:20:04.000Z</time>
      </trkpt>
      <trkpt lat="42.88466" lon="2.31974">
        <ele>430.20001220703</ele>
        <time>2025-08-05T10:20:07.000Z</time>
      </trkpt>
      <trkpt lat="42.88484" lon="2.31959">
        <ele>428.60000610352</ele>
        <time>2025-08-05T10:20:10.000Z</time>
      </trkpt>
      <trkpt lat="42.885" lon="2.31942">
        <ele>427.60000610352</ele>
        <time>2025-08-05T10:20:13.000Z</time>
      </trkpt>
      <trkpt lat="42.88505" lon="2.31936">
        <ele>427.39999389648</ele>
        <time>2025-08-05T10:20:14.000Z</time>
      </trkpt>
      <trkpt lat="42.88509" lon="2.31929">
        <ele>427</ele>
        <time>2025-08-05T10:20:15.000Z</time>
      </trkpt>
      <trkpt lat="42.8852" lon="2.31906">
        <ele>426.39999389648</ele>
        <time>2025-08-05T10:20:18.000Z</time>
      </trkpt>
      <trkpt lat="42.8853" lon="2.3188">
        <ele>425.20001220703</ele>
        <time>2025-08-05T10:20:21.000Z</time>
      </trkpt>
      <trkpt lat="42.88541" lon="2.31856">
        <ele>424.39999389648</ele>
        <time>2025-08-05T10:20:24.000Z</time>
      </trkpt>
      <trkpt lat="42.88546" lon="2.31849">
        <ele>424.20001220703</ele>
        <time>2025-08-05T10:20:25.000Z</time>
      </trkpt>
      <trkpt lat="42.88552" lon="2.31843">
        <ele>423.79998779297</ele>
        <time>2025-08-05T10:20:26.000Z</time>
      </trkpt>
      <trkpt lat="42.88565" lon="2.31837">
        <ele>423.20001220703</ele>
        <time>2025-08-05T10:20:28.000Z</time>
      </trkpt>
      <trkpt lat="42.88573" lon="2.31836">
        <ele>422.79998779297</ele>
        <time>2025-08-05T10:20:29.000Z</time>
      </trkpt>
      <trkpt lat="42.88604" lon="2.31838">
        <ele>421.39999389648</ele>
        <time>2025-08-05T10:20:33.000Z</time>
      </trkpt>
      <trkpt lat="42.88628" lon="2.31839">
        <ele>420</ele>
        <time>2025-08-05T10:20:36.000Z</time>
      </trkpt>
      <trkpt lat="42.88651" lon="2.31837">
        <ele>419.39999389648</ele>
        <time>2025-08-05T10:20:39.000Z</time>
      </trkpt>
      <trkpt lat="42.88659" lon="2.31835">
        <ele>418.79998779297</ele>
        <time>2025-08-05T10:20:40.000Z</time>
      </trkpt>
      <trkpt lat="42.88673" lon="2.31826">
        <ele>418.20001220703</ele>
        <time>2025-08-05T10:20:42.000Z</time>
      </trkpt>
      <trkpt lat="42.88679" lon="2.31821">
        <ele>418</ele>
        <time>2025-08-05T10:20:43.000Z</time>
      </trkpt>
      <trkpt lat="42.88692" lon="2.31808">
        <ele>417.39999389648</ele>
        <time>2025-08-05T10:20:45.000Z</time>
      </trkpt>
      <trkpt lat="42.88702" lon="2.31792">
        <ele>416.60000610352</ele>
        <time>2025-08-05T10:20:47.000Z</time>
      </trkpt>
      <trkpt lat="42.88706" lon="2.31784">
        <ele>416</ele>
        <time>2025-08-05T10:20:48.000Z</time>
      </trkpt>
      <trkpt lat="42.88714" lon="2.31767">
        <ele>414.79998779297</ele>
        <time>2025-08-05T10:20:50.000Z</time>
      </trkpt>
      <trkpt lat="42.88721" lon="2.3175">
        <ele>414.39999389648</ele>
        <time>2025-08-05T10:20:52.000Z</time>
      </trkpt>
      <trkpt lat="42.88728" lon="2.31734">
        <ele>414</ele>
        <time>2025-08-05T10:20:54.000Z</time>
      </trkpt>
      <trkpt lat="42.88732" lon="2.31726">
        <ele>413.60000610352</ele>
        <time>2025-08-05T10:20:55.000Z</time>
      </trkpt>
      <trkpt lat="42.88738" lon="2.3172">
        <ele>413.20001220703</ele>
        <time>2025-08-05T10:20:56.000Z</time>
      </trkpt>
      <trkpt lat="42.88752" lon="2.31714">
        <ele>412.39999389648</ele>
        <time>2025-08-05T10:20:58.000Z</time>
      </trkpt>
      <trkpt lat="42.88759" lon="2.31713">
        <ele>411.79998779297</ele>
        <time>2025-08-05T10:20:59.000Z</time>
      </trkpt>
      <trkpt lat="42.88782" lon="2.31713">
        <ele>411</ele>
        <time>2025-08-05T10:21:02.000Z</time>
      </trkpt>
      <trkpt lat="42.88797" lon="2.31721">
        <ele>410.20001220703</ele>
        <time>2025-08-05T10:21:04.000Z</time>
      </trkpt>
      <trkpt lat="42.88808" lon="2.31738">
        <ele>409.60000610352</ele>
        <time>2025-08-05T10:21:06.000Z</time>
      </trkpt>
      <trkpt lat="42.88817" lon="2.31755">
        <ele>409.20001220703</ele>
        <time>2025-08-05T10:21:08.000Z</time>
      </trkpt>
      <trkpt lat="42.8883" lon="2.31767">
        <ele>408.39999389648</ele>
        <time>2025-08-05T10:21:10.000Z</time>
      </trkpt>
      <trkpt lat="42.88846" lon="2.31769">
        <ele>407.39999389648</ele>
        <time>2025-08-05T10:21:12.000Z</time>
      </trkpt>
      <trkpt lat="42.88854" lon="2.31768">
        <ele>407</ele>
        <time>2025-08-05T10:21:13.000Z</time>
      </trkpt>
      <trkpt lat="42.88877" lon="2.3176">
        <ele>406</ele>
        <time>2025-08-05T10:21:16.000Z</time>
      </trkpt>
      <trkpt lat="42.88891" lon="2.31754">
        <ele>405.39999389648</ele>
        <time>2025-08-05T10:21:18.000Z</time>
      </trkpt>
      <trkpt lat="42.88898" lon="2.31749">
        <ele>405.20001220703</ele>
        <time>2025-08-05T10:21:19.000Z</time>
      </trkpt>
      <trkpt lat="42.8891" lon="2.31738">
        <ele>405</ele>
        <time>2025-08-05T10:21:21.000Z</time>
      </trkpt>
      <trkpt lat="42.88927" lon="2.31719">
        <ele>404.20001220703</ele>
        <time>2025-08-05T10:21:24.000Z</time>
      </trkpt>
      <trkpt lat="42.88932" lon="2.31712">
        <ele>403.79998779297</ele>
        <time>2025-08-05T10:21:25.000Z</time>
      </trkpt>
      <trkpt lat="42.88942" lon="2.31701">
        <ele>403.20001220703</ele>
        <time>2025-08-05T10:21:27.000Z</time>
      </trkpt>
      <trkpt lat="42.88955" lon="2.31694">
        <ele>402.60000610352</ele>
        <time>2025-08-05T10:21:29.000Z</time>
      </trkpt>
      <trkpt lat="42.88977" lon="2.31684">
        <ele>402.20001220703</ele>
        <time>2025-08-05T10:21:32.000Z</time>
      </trkpt>
      <trkpt lat="42.88987" lon="2.31671">
        <ele>401.79998779297</ele>
        <time>2025-08-05T10:21:34.000Z</time>
      </trkpt>
      <trkpt lat="42.8899" lon="2.31663">
        <ele>401.60000610352</ele>
        <time>2025-08-05T10:21:35.000Z</time>
      </trkpt>
      <trkpt lat="42.88996" lon="2.31647">
        <ele>401.20001220703</ele>
        <time>2025-08-05T10:21:37.000Z</time>
      </trkpt>
      <trkpt lat="42.88998" lon="2.31639">
        <ele>401.20001220703</ele>
        <time>2025-08-05T10:21:38.000Z</time>
      </trkpt>
      <trkpt lat="42.89002" lon="2.31622">
        <ele>400.60000610352</ele>
        <time>2025-08-05T10:21:40.000Z</time>
      </trkpt>
      <trkpt lat="42.89005" lon="2.31614">
        <ele>400.20001220703</ele>
        <time>2025-08-05T10:21:41.000Z</time>
      </trkpt>
      <trkpt lat="42.89009" lon="2.31606">
        <ele>400</ele>
        <time>2025-08-05T10:21:42.000Z</time>
      </trkpt>
      <trkpt lat="42.89017" lon="2.31594">
        <ele>399.60000610352</ele>
        <time>2025-08-05T10:21:44.000Z</time>
      </trkpt>
      <trkpt lat="42.89027" lon="2.31585">
        <ele>398.79998779297</ele>
        <time>2025-08-05T10:21:46.000Z</time>
      </trkpt>
      <trkpt lat="42.89067" lon="2.31547">
        <ele>398</ele>
        <time>2025-08-05T10:21:54.000Z</time>
      </trkpt>
      <trkpt lat="42.89072" lon="2.31543">
        <ele>397.79998779297</ele>
        <time>2025-08-05T10:21:55.000Z</time>
      </trkpt>
      <trkpt lat="42.89088" lon="2.31531">
        <ele>396.79998779297</ele>
        <time>2025-08-05T10:21:58.000Z</time>
      </trkpt>
      <trkpt lat="42.89094" lon="2.31528">
        <ele>396.60000610352</ele>
        <time>2025-08-05T10:21:59.000Z</time>
      </trkpt>
      <trkpt lat="42.89107" lon="2.31522">
        <ele>396.20001220703</ele>
        <time>2025-08-05T10:22:01.000Z</time>
      </trkpt>
      <trkpt lat="42.89127" lon="2.31515">
        <ele>395.60000610352</ele>
        <time>2025-08-05T10:22:04.000Z</time>
      </trkpt>
      <trkpt lat="42.89147" lon="2.31505">
        <ele>394.79998779297</ele>
        <time>2025-08-05T10:22:07.000Z</time>
      </trkpt>
      <trkpt lat="42.89153" lon="2.31501">
        <ele>394.60000610352</ele>
        <time>2025-08-05T10:22:08.000Z</time>
      </trkpt>
      <trkpt lat="42.89158" lon="2.31495">
        <ele>394</ele>
        <time>2025-08-05T10:22:09.000Z</time>
      </trkpt>
      <trkpt lat="42.89163" lon="2.31489">
        <ele>393.79998779297</ele>
        <time>2025-08-05T10:22:10.000Z</time>
      </trkpt>
      <trkpt lat="42.89172" lon="2.31474">
        <ele>393.39999389648</ele>
        <time>2025-08-05T10:22:12.000Z</time>
      </trkpt>
      <trkpt lat="42.8919" lon="2.31443">
        <ele>392.60000610352</ele>
        <time>2025-08-05T10:22:16.000Z</time>
      </trkpt>
      <trkpt lat="42.89195" lon="2.31436">
        <ele>392.39999389648</ele>
        <time>2025-08-05T10:22:17.000Z</time>
      </trkpt>
      <trkpt lat="42.89206" lon="2.31423">
        <ele>391.60000610352</ele>
        <time>2025-08-05T10:22:19.000Z</time>
      </trkpt>
      <trkpt lat="42.89218" lon="2.31413">
        <ele>391.20001220703</ele>
        <time>2025-08-05T10:22:21.000Z</time>
      </trkpt>
      <trkpt lat="42.89224" lon="2.31407">
        <ele>390.79998779297</ele>
        <time>2025-08-05T10:22:22.000Z</time>
      </trkpt>
      <trkpt lat="42.89232" lon="2.31391">
        <ele>390.20001220703</ele>
        <time>2025-08-05T10:22:24.000Z</time>
      </trkpt>
      <trkpt lat="42.89235" lon="2.31383">
        <ele>390</ele>
        <time>2025-08-05T10:22:25.000Z</time>
      </trkpt>
      <trkpt lat="42.89241" lon="2.31357">
        <ele>389</ele>
        <time>2025-08-05T10:22:28.000Z</time>
      </trkpt>
      <trkpt lat="42.89243" lon="2.31349">
        <ele>388.60000610352</ele>
        <time>2025-08-05T10:22:29.000Z</time>
      </trkpt>
      <trkpt lat="42.89251" lon="2.31336">
        <ele>388</ele>
        <time>2025-08-05T10:22:31.000Z</time>
      </trkpt>
      <trkpt lat="42.89257" lon="2.31333">
        <ele>388</ele>
        <time>2025-08-05T10:22:32.000Z</time>
      </trkpt>
      <trkpt lat="42.89262" lon="2.31333">
        <ele>387.79998779297</ele>
        <time>2025-08-05T10:22:33.000Z</time>
      </trkpt>
      <trkpt lat="42.89268" lon="2.31336">
        <ele>387.60000610352</ele>
        <time>2025-08-05T10:22:34.000Z</time>
      </trkpt>
      <trkpt lat="42.89272" lon="2.31343">
        <ele>387.39999389648</ele>
        <time>2025-08-05T10:22:35.000Z</time>
      </trkpt>
      <trkpt lat="42.89278" lon="2.31359">
        <ele>387</ele>
        <time>2025-08-05T10:22:37.000Z</time>
      </trkpt>
      <trkpt lat="42.89289" lon="2.31383">
        <ele>385.39999389648</ele>
        <time>2025-08-05T10:22:40.000Z</time>
      </trkpt>
      <trkpt lat="42.89307" lon="2.31415">
        <ele>384.60000610352</ele>
        <time>2025-08-05T10:22:44.000Z</time>
      </trkpt>
      <trkpt lat="42.89311" lon="2.31423">
        <ele>384.20001220703</ele>
        <time>2025-08-05T10:22:45.000Z</time>
      </trkpt>
      <trkpt lat="42.89326" lon="2.31447">
        <ele>383</ele>
        <time>2025-08-05T10:22:48.000Z</time>
      </trkpt>
      <trkpt lat="42.89333" lon="2.31465">
        <ele>382.39999389648</ele>
        <time>2025-08-05T10:22:50.000Z</time>
      </trkpt>
      <trkpt lat="42.89337" lon="2.31473">
        <ele>382.39999389648</ele>
        <time>2025-08-05T10:22:51.000Z</time>
      </trkpt>
      <trkpt lat="42.89345" lon="2.31499">
        <ele>381.79998779297</ele>
        <time>2025-08-05T10:22:54.000Z</time>
      </trkpt>
      <trkpt lat="42.89352" lon="2.31513">
        <ele>381.60000610352</ele>
        <time>2025-08-05T10:22:56.000Z</time>
      </trkpt>
      <trkpt lat="42.89361" lon="2.31525">
        <ele>381</ele>
        <time>2025-08-05T10:22:58.000Z</time>
      </trkpt>
      <trkpt lat="42.89365" lon="2.31528">
        <ele>380.79998779297</ele>
        <time>2025-08-05T10:22:59.000Z</time>
      </trkpt>
      <trkpt lat="42.89377" lon="2.31537">
        <ele>380.20001220703</ele>
        <time>2025-08-05T10:23:01.000Z</time>
      </trkpt>
      <trkpt lat="42.8939" lon="2.31542">
        <ele>379.79998779297</ele>
        <time>2025-08-05T10:23:03.000Z</time>
      </trkpt>
      <trkpt lat="42.89397" lon="2.31543">
        <ele>379.60000610352</ele>
        <time>2025-08-05T10:23:04.000Z</time>
      </trkpt>
      <trkpt lat="42.89408" lon="2.31542">
        <ele>379.39999389648</ele>
        <time>2025-08-05T10:23:06.000Z</time>
      </trkpt>
      <trkpt lat="42.89423" lon="2.31537">
        <ele>378.60000610352</ele>
        <time>2025-08-05T10:23:09.000Z</time>
      </trkpt>
      <trkpt lat="42.89427" lon="2.31534">
        <ele>378.39999389648</ele>
        <time>2025-08-05T10:23:10.000Z</time>
      </trkpt>
      <trkpt lat="42.89441" lon="2.31526">
        <ele>377.60000610352</ele>
        <time>2025-08-05T10:23:13.000Z</time>
      </trkpt>
      <trkpt lat="42.89452" lon="2.31519">
        <ele>377.20001220703</ele>
        <time>2025-08-05T10:23:15.000Z</time>
      </trkpt>
      <trkpt lat="42.89463" lon="2.31508">
        <ele>376.79998779297</ele>
        <time>2025-08-05T10:23:17.000Z</time>
      </trkpt>
      <trkpt lat="42.89474" lon="2.31498">
        <ele>376.39999389648</ele>
        <time>2025-08-05T10:23:19.000Z</time>
      </trkpt>
      <trkpt lat="42.89487" lon="2.3149">
        <ele>375.79998779297</ele>
        <time>2025-08-05T10:23:21.000Z</time>
      </trkpt>
      <trkpt lat="42.89494" lon="2.31487">
        <ele>375.20001220703</ele>
        <time>2025-08-05T10:23:22.000Z</time>
      </trkpt>
      <trkpt lat="42.89502" lon="2.31485">
        <ele>374.79998779297</ele>
        <time>2025-08-05T10:23:23.000Z</time>
      </trkpt>
      <trkpt lat="42.89518" lon="2.31482">
        <ele>373.60000610352</ele>
        <time>2025-08-05T10:23:25.000Z</time>
      </trkpt>
      <trkpt lat="42.89533" lon="2.31478">
        <ele>373</ele>
        <time>2025-08-05T10:23:27.000Z</time>
      </trkpt>
      <trkpt lat="42.89548" lon="2.31472">
        <ele>372.39999389648</ele>
        <time>2025-08-05T10:23:29.000Z</time>
      </trkpt>
      <trkpt lat="42.89553" lon="2.31465">
        <ele>371.79998779297</ele>
        <time>2025-08-05T10:23:30.000Z</time>
      </trkpt>
      <trkpt lat="42.89559" lon="2.31459">
        <ele>371.39999389648</ele>
        <time>2025-08-05T10:23:31.000Z</time>
      </trkpt>
      <trkpt lat="42.89565" lon="2.31453">
        <ele>370.60000610352</ele>
        <time>2025-08-05T10:23:32.000Z</time>
      </trkpt>
      <trkpt lat="42.89571" lon="2.31449">
        <ele>370.20001220703</ele>
        <time>2025-08-05T10:23:33.000Z</time>
      </trkpt>
      <trkpt lat="42.89578" lon="2.31447">
        <ele>369.39999389648</ele>
        <time>2025-08-05T10:23:34.000Z</time>
      </trkpt>
      <trkpt lat="42.89585" lon="2.31446">
        <ele>369</ele>
        <time>2025-08-05T10:23:35.000Z</time>
      </trkpt>
      <trkpt lat="42.89599" lon="2.31443">
        <ele>367.20001220703</ele>
        <time>2025-08-05T10:23:37.000Z</time>
      </trkpt>
      <trkpt lat="42.8961" lon="2.31433">
        <ele>366.60000610352</ele>
        <time>2025-08-05T10:23:39.000Z</time>
      </trkpt>
      <trkpt lat="42.89617" lon="2.31416">
        <ele>365.60000610352</ele>
        <time>2025-08-05T10:23:41.000Z</time>
      </trkpt>
      <trkpt lat="42.89619" lon="2.31407">
        <ele>364.79998779297</ele>
        <time>2025-08-05T10:23:42.000Z</time>
      </trkpt>
      <trkpt lat="42.89621" lon="2.31397">
        <ele>364.39999389648</ele>
        <time>2025-08-05T10:23:43.000Z</time>
      </trkpt>
      <trkpt lat="42.8962" lon="2.31376">
        <ele>363.39999389648</ele>
        <time>2025-08-05T10:23:45.000Z</time>
      </trkpt>
      <trkpt lat="42.89618" lon="2.31366">
        <ele>363</ele>
        <time>2025-08-05T10:23:46.000Z</time>
      </trkpt>
      <trkpt lat="42.89609" lon="2.31333">
        <ele>361.60000610352</ele>
        <time>2025-08-05T10:23:49.000Z</time>
      </trkpt>
      <trkpt lat="42.89601" lon="2.313">
        <ele>360.39999389648</ele>
        <time>2025-08-05T10:23:52.000Z</time>
      </trkpt>
      <trkpt lat="42.89599" lon="2.31289">
        <ele>359.79998779297</ele>
        <time>2025-08-05T10:23:53.000Z</time>
      </trkpt>
      <trkpt lat="42.89597" lon="2.31269">
        <ele>359.20001220703</ele>
        <time>2025-08-05T10:23:55.000Z</time>
      </trkpt>
      <trkpt lat="42.89599" lon="2.31251">
        <ele>358.39999389648</ele>
        <time>2025-08-05T10:23:57.000Z</time>
      </trkpt>
      <trkpt lat="42.89602" lon="2.31245">
        <ele>357.79998779297</ele>
        <time>2025-08-05T10:23:58.000Z</time>
      </trkpt>
      <trkpt lat="42.89607" lon="2.3124">
        <ele>357.39999389648</ele>
        <time>2025-08-05T10:23:59.000Z</time>
      </trkpt>
      <trkpt lat="42.89617" lon="2.31238">
        <ele>356.79998779297</ele>
        <time>2025-08-05T10:24:01.000Z</time>
      </trkpt>
      <trkpt lat="42.89627" lon="2.31244">
        <ele>355.20001220703</ele>
        <time>2025-08-05T10:24:03.000Z</time>
      </trkpt>
      <trkpt lat="42.89631" lon="2.31249">
        <ele>354.79998779297</ele>
        <time>2025-08-05T10:24:04.000Z</time>
      </trkpt>
      <trkpt lat="42.89634" lon="2.31255">
        <ele>354</ele>
        <time>2025-08-05T10:24:05.000Z</time>
      </trkpt>
      <trkpt lat="42.89639" lon="2.31275">
        <ele>352.79998779297</ele>
        <time>2025-08-05T10:24:08.000Z</time>
      </trkpt>
      <trkpt lat="42.89645" lon="2.31294">
        <ele>352.39999389648</ele>
        <time>2025-08-05T10:24:11.000Z</time>
      </trkpt>
      <trkpt lat="42.89654" lon="2.3131">
        <ele>352.39999389648</ele>
        <time>2025-08-05T10:24:14.000Z</time>
      </trkpt>
      <trkpt lat="42.89673" lon="2.31336">
        <ele>352.20001220703</ele>
        <time>2025-08-05T10:24:20.000Z</time>
      </trkpt>
      <trkpt lat="42.89681" lon="2.31353">
        <ele>351.60000610352</ele>
        <time>2025-08-05T10:24:24.000Z</time>
      </trkpt>
      <trkpt lat="42.89684" lon="2.31362">
        <ele>351.20001220703</ele>
        <time>2025-08-05T10:24:26.000Z</time>
      </trkpt>
      <trkpt lat="42.8969" lon="2.31387">
        <ele>350.60000610352</ele>
        <time>2025-08-05T10:24:31.000Z</time>
      </trkpt>
      <trkpt lat="42.8969" lon="2.31397">
        <ele>350.39999389648</ele>
        <time>2025-08-05T10:24:33.000Z</time>
      </trkpt>
      <trkpt lat="42.89694" lon="2.31431">
        <ele>349.79998779297</ele>
        <time>2025-08-05T10:24:40.000Z</time>
      </trkpt>
      <trkpt lat="42.89702" lon="2.31453">
        <ele>349.79998779297</ele>
        <time>2025-08-05T10:24:45.000Z</time>
      </trkpt>
      <trkpt lat="42.89716" lon="2.31471">
        <ele>349.79998779297</ele>
        <time>2025-08-05T10:24:50.000Z</time>
      </trkpt>
      <trkpt lat="42.89738" lon="2.31489">
        <ele>350</ele>
        <time>2025-08-05T10:24:57.000Z</time>
      </trkpt>
      <trkpt lat="42.89762" lon="2.31512">
        <ele>350.39999389648</ele>
        <time>2025-08-05T10:25:05.000Z</time>
      </trkpt>
      <trkpt lat="42.89785" lon="2.31531">
        <ele>350.39999389648</ele>
        <time>2025-08-05T10:25:12.000Z</time>
      </trkpt>
      <trkpt lat="42.89802" lon="2.31531">
        <ele>350.39999389648</ele>
        <time>2025-08-05T10:25:17.000Z</time>
      </trkpt>
      <trkpt lat="42.89813" lon="2.3151">
        <ele>350.60000610352</ele>
        <time>2025-08-05T10:25:22.000Z</time>
      </trkpt>
      <trkpt lat="42.89817" lon="2.31485">
        <ele>350.60000610352</ele>
        <time>2025-08-05T10:25:27.000Z</time>
      </trkpt>
      <trkpt lat="42.89819" lon="2.3147">
        <ele>350.60000610352</ele>
        <time>2025-08-05T10:25:30.000Z</time>
      </trkpt>
      <trkpt lat="42.8982" lon="2.31441">
        <ele>350.39999389648</ele>
        <time>2025-08-05T10:25:36.000Z</time>
      </trkpt>
      <trkpt lat="42.89819" lon="2.31396">
        <ele>350.39999389648</ele>
        <time>2025-08-05T10:25:45.000Z</time>
      </trkpt>
      <trkpt lat="42.89822" lon="2.31358">
        <ele>350.39999389648</ele>
        <time>2025-08-05T10:25:52.000Z</time>
      </trkpt>
      <trkpt lat="42.89832" lon="2.31335">
        <ele>350.39999389648</ele>
        <time>2025-08-05T10:25:57.000Z</time>
      </trkpt>
      <trkpt lat="42.89836" lon="2.31325">
        <ele>350.20001220703</ele>
        <time>2025-08-05T10:25:59.000Z</time>
      </trkpt>
      <trkpt lat="42.89848" lon="2.31294">
        <ele>349.79998779297</ele>
        <time>2025-08-05T10:26:05.000Z</time>
      </trkpt>
      <trkpt lat="42.89854" lon="2.31286">
        <ele>349.79998779297</ele>
        <time>2025-08-05T10:26:07.000Z</time>
      </trkpt>
      <trkpt lat="42.89862" lon="2.3128">
        <ele>349.79998779297</ele>
        <time>2025-08-05T10:26:09.000Z</time>
      </trkpt>
      <trkpt lat="42.89867" lon="2.31278">
        <ele>349.79998779297</ele>
        <time>2025-08-05T10:26:10.000Z</time>
      </trkpt>
      <trkpt lat="42.89874" lon="2.31278">
        <ele>349.79998779297</ele>
        <time>2025-08-05T10:26:11.000Z</time>
      </trkpt>
      <trkpt lat="42.89898" lon="2.31281">
        <ele>349.79998779297</ele>
        <time>2025-08-05T10:26:15.000Z</time>
      </trkpt>
      <trkpt lat="42.89904" lon="2.31281">
        <ele>349.79998779297</ele>
        <time>2025-08-05T10:26:16.000Z</time>
      </trkpt>
      <trkpt lat="42.89909" lon="2.3128">
        <ele>349.79998779297</ele>
        <time>2025-08-05T10:26:17.000Z</time>
      </trkpt>
      <trkpt lat="42.89915" lon="2.31277">
        <ele>349.79998779297</ele>
        <time>2025-08-05T10:26:18.000Z</time>
      </trkpt>
      <trkpt lat="42.8992" lon="2.31275">
        <ele>349.79998779297</ele>
        <time>2025-08-05T10:26:19.000Z</time>
      </trkpt>
      <trkpt lat="42.89926" lon="2.31272">
        <ele>349.79998779297</ele>
        <time>2025-08-05T10:26:20.000Z</time>
      </trkpt>
      <trkpt lat="42.89938" lon="2.31272">
        <ele>349.79998779297</ele>
        <time>2025-08-05T10:26:22.000Z</time>
      </trkpt>
      <trkpt lat="42.89944" lon="2.31273">
        <ele>349.79998779297</ele>
        <time>2025-08-05T10:26:23.000Z</time>
      </trkpt>
      <trkpt lat="42.8995" lon="2.31274">
        <ele>349.79998779297</ele>
        <time>2025-08-05T10:26:24.000Z</time>
      </trkpt>
      <trkpt lat="42.89961" lon="2.31274">
        <ele>350</ele>
        <time>2025-08-05T10:26:26.000Z</time>
      </trkpt>
      <trkpt lat="42.89974" lon="2.31274">
        <ele>350</ele>
        <time>2025-08-05T10:26:28.000Z</time>
      </trkpt>
      <trkpt lat="42.90017" lon="2.31274">
        <ele>349.20001220703</ele>
        <time>2025-08-05T10:26:35.000Z</time>
      </trkpt>
      <trkpt lat="42.90038" lon="2.31274">
        <ele>348.79998779297</ele>
        <time>2025-08-05T10:26:39.000Z</time>
      </trkpt>
      <trkpt lat="42.90048" lon="2.31276">
        <ele>348.60000610352</ele>
        <time>2025-08-05T10:26:41.000Z</time>
      </trkpt>
      <trkpt lat="42.90061" lon="2.31284">
        <ele>348.39999389648</ele>
        <time>2025-08-05T10:26:44.000Z</time>
      </trkpt>
      <trkpt lat="42.90069" lon="2.31291">
        <ele>348.20001220703</ele>
        <time>2025-08-05T10:26:46.000Z</time>
      </trkpt>
      <trkpt lat="42.90074" lon="2.31297">
        <ele>348</ele>
        <time>2025-08-05T10:26:47.000Z</time>
      </trkpt>
      <trkpt lat="42.90089" lon="2.3132">
        <ele>347.60000610352</ele>
        <time>2025-08-05T10:26:51.000Z</time>
      </trkpt>
      <trkpt lat="42.90096" lon="2.31329">
        <ele>347.39999389648</ele>
        <time>2025-08-05T10:26:53.000Z</time>
      </trkpt>
      <trkpt lat="42.90101" lon="2.31331">
        <ele>346.79998779297</ele>
        <time>2025-08-05T10:26:54.000Z</time>
      </trkpt>
      <trkpt lat="42.90106" lon="2.31331">
        <ele>346.79998779297</ele>
        <time>2025-08-05T10:26:55.000Z</time>
      </trkpt>
      <trkpt lat="42.90117" lon="2.31328">
        <ele>346.39999389648</ele>
        <time>2025-08-05T10:26:57.000Z</time>
      </trkpt>
      <trkpt lat="42.90123" lon="2.31324">
        <ele>346.39999389648</ele>
        <time>2025-08-05T10:26:58.000Z</time>
      </trkpt>
      <trkpt lat="42.90134" lon="2.31317">
        <ele>345.79998779297</ele>
        <time>2025-08-05T10:27:00.000Z</time>
      </trkpt>
      <trkpt lat="42.9014" lon="2.31314">
        <ele>345.20001220703</ele>
        <time>2025-08-05T10:27:01.000Z</time>
      </trkpt>
      <trkpt lat="42.90145" lon="2.31313">
        <ele>345</ele>
        <time>2025-08-05T10:27:02.000Z</time>
      </trkpt>
      <trkpt lat="42.90151" lon="2.31313">
        <ele>344.60000610352</ele>
        <time>2025-08-05T10:27:03.000Z</time>
      </trkpt>
      <trkpt lat="42.90167" lon="2.31318">
        <ele>344</ele>
        <time>2025-08-05T10:27:06.000Z</time>
      </trkpt>
      <trkpt lat="42.90183" lon="2.31325">
        <ele>343.39999389648</ele>
        <time>2025-08-05T10:27:09.000Z</time>
      </trkpt>
      <trkpt lat="42.90189" lon="2.31326">
        <ele>342.79998779297</ele>
        <time>2025-08-05T10:27:10.000Z</time>
      </trkpt>
      <trkpt lat="42.90204" lon="2.31329">
        <ele>341.79998779297</ele>
        <time>2025-08-05T10:27:13.000Z</time>
      </trkpt>
      <trkpt lat="42.90214" lon="2.31329">
        <ele>341.39999389648</ele>
        <time>2025-08-05T10:27:15.000Z</time>
      </trkpt>
      <trkpt lat="42.90247" lon="2.31323">
        <ele>340.79998779297</ele>
        <time>2025-08-05T10:27:21.000Z</time>
      </trkpt>
      <trkpt lat="42.90252" lon="2.31323">
        <ele>340.60000610352</ele>
        <time>2025-08-05T10:27:22.000Z</time>
      </trkpt>
      <trkpt lat="42.90263" lon="2.3133">
        <ele>340.39999389648</ele>
        <time>2025-08-05T10:27:24.000Z</time>
      </trkpt>
      <trkpt lat="42.90268" lon="2.31335">
        <ele>340</ele>
        <time>2025-08-05T10:27:25.000Z</time>
      </trkpt>
      <trkpt lat="42.90276" lon="2.31346">
        <ele>339.60000610352</ele>
        <time>2025-08-05T10:27:27.000Z</time>
      </trkpt>
      <trkpt lat="42.90288" lon="2.31362">
        <ele>339</ele>
        <time>2025-08-05T10:27:30.000Z</time>
      </trkpt>
      <trkpt lat="42.90293" lon="2.31366">
        <ele>339</ele>
        <time>2025-08-05T10:27:31.000Z</time>
      </trkpt>
      <trkpt lat="42.90297" lon="2.3137">
        <ele>338.79998779297</ele>
        <time>2025-08-05T10:27:32.000Z</time>
      </trkpt>
      <trkpt lat="42.90312" lon="2.31378">
        <ele>338.60000610352</ele>
        <time>2025-08-05T10:27:35.000Z</time>
      </trkpt>
      <trkpt lat="42.90318" lon="2.31381">
        <ele>338.39999389648</ele>
        <time>2025-08-05T10:27:36.000Z</time>
      </trkpt>
      <trkpt lat="42.90357" lon="2.31398">
        <ele>337.79998779297</ele>
        <time>2025-08-05T10:27:43.000Z</time>
      </trkpt>
      <trkpt lat="42.9037" lon="2.31399">
        <ele>337.60000610352</ele>
        <time>2025-08-05T10:27:45.000Z</time>
      </trkpt>
      <trkpt lat="42.90383" lon="2.31398">
        <ele>337.39999389648</ele>
        <time>2025-08-05T10:27:47.000Z</time>
      </trkpt>
      <trkpt lat="42.90397" lon="2.31397">
        <ele>337.20001220703</ele>
        <time>2025-08-05T10:27:49.000Z</time>
      </trkpt>
      <trkpt lat="42.90403" lon="2.31399">
        <ele>337.20001220703</ele>
        <time>2025-08-05T10:27:50.000Z</time>
      </trkpt>
      <trkpt lat="42.90409" lon="2.31404">
        <ele>337</ele>
        <time>2025-08-05T10:27:51.000Z</time>
      </trkpt>
      <trkpt lat="42.9042" lon="2.31417">
        <ele>336.79998779297</ele>
        <time>2025-08-05T10:27:53.000Z</time>
      </trkpt>
      <trkpt lat="42.90431" lon="2.3144">
        <ele>336.20001220703</ele>
        <time>2025-08-05T10:27:56.000Z</time>
      </trkpt>
      <trkpt lat="42.9044" lon="2.31453">
        <ele>336</ele>
        <time>2025-08-05T10:27:58.000Z</time>
      </trkpt>
      <trkpt lat="42.90461" lon="2.31481">
        <ele>335.20001220703</ele>
        <time>2025-08-05T10:28:04.000Z</time>
      </trkpt>
      <trkpt lat="42.90463" lon="2.31486">
        <ele>335.20001220703</ele>
        <time>2025-08-05T10:28:05.000Z</time>
      </trkpt>
      <trkpt lat="42.90467" lon="2.315">
        <ele>335</ele>
        <time>2025-08-05T10:28:07.000Z</time>
      </trkpt>
      <trkpt lat="42.90468" lon="2.31507">
        <ele>335</ele>
        <time>2025-08-05T10:28:08.000Z</time>
      </trkpt>
      <trkpt lat="42.90469" lon="2.31515">
        <ele>335</ele>
        <time>2025-08-05T10:28:09.000Z</time>
      </trkpt>
      <trkpt lat="42.90471" lon="2.3154">
        <ele>334.79998779297</ele>
        <time>2025-08-05T10:28:12.000Z</time>
      </trkpt>
      <trkpt lat="42.90472" lon="2.31549">
        <ele>334.60000610352</ele>
        <time>2025-08-05T10:28:13.000Z</time>
      </trkpt>
      <trkpt lat="42.90474" lon="2.31558">
        <ele>334.39999389648</ele>
        <time>2025-08-05T10:28:14.000Z</time>
      </trkpt>
      <trkpt lat="42.90478" lon="2.31566">
        <ele>334</ele>
        <time>2025-08-05T10:28:15.000Z</time>
      </trkpt>
      <trkpt lat="42.90482" lon="2.31573">
        <ele>333.60000610352</ele>
        <time>2025-08-05T10:28:16.000Z</time>
      </trkpt>
      <trkpt lat="42.90486" lon="2.3158">
        <ele>333.39999389648</ele>
        <time>2025-08-05T10:28:17.000Z</time>
      </trkpt>
      <trkpt lat="42.90495" lon="2.31593">
        <ele>332.60000610352</ele>
        <time>2025-08-05T10:28:19.000Z</time>
      </trkpt>
      <trkpt lat="42.90505" lon="2.31605">
        <ele>332.20001220703</ele>
        <time>2025-08-05T10:28:21.000Z</time>
      </trkpt>
      <trkpt lat="42.90516" lon="2.31614">
        <ele>332</ele>
        <time>2025-08-05T10:28:23.000Z</time>
      </trkpt>
      <trkpt lat="42.90522" lon="2.31616">
        <ele>331.79998779297</ele>
        <time>2025-08-05T10:28:24.000Z</time>
      </trkpt>
      <trkpt lat="42.90534" lon="2.31618">
        <ele>331.79998779297</ele>
        <time>2025-08-05T10:28:26.000Z</time>
      </trkpt>
      <trkpt lat="42.9054" lon="2.31617">
        <ele>331.79998779297</ele>
        <time>2025-08-05T10:28:27.000Z</time>
      </trkpt>
      <trkpt lat="42.90545" lon="2.31616">
        <ele>331.60000610352</ele>
        <time>2025-08-05T10:28:28.000Z</time>
      </trkpt>
      <trkpt lat="42.90556" lon="2.31612">
        <ele>331.60000610352</ele>
        <time>2025-08-05T10:28:30.000Z</time>
      </trkpt>
      <trkpt lat="42.90567" lon="2.31606">
        <ele>331.60000610352</ele>
        <time>2025-08-05T10:28:32.000Z</time>
      </trkpt>
      <trkpt lat="42.90595" lon="2.31592">
        <ele>331.20001220703</ele>
        <time>2025-08-05T10:28:37.000Z</time>
      </trkpt>
      <trkpt lat="42.90607" lon="2.31588">
        <ele>331</ele>
        <time>2025-08-05T10:28:39.000Z</time>
      </trkpt>
      <trkpt lat="42.90632" lon="2.31581">
        <ele>330.39999389648</ele>
        <time>2025-08-05T10:28:43.000Z</time>
      </trkpt>
      <trkpt lat="42.90639" lon="2.31581">
        <ele>330.39999389648</ele>
        <time>2025-08-05T10:28:44.000Z</time>
      </trkpt>
      <trkpt lat="42.90646" lon="2.31582">
        <ele>330.20001220703</ele>
        <time>2025-08-05T10:28:45.000Z</time>
      </trkpt>
      <trkpt lat="42.90666" lon="2.31589">
        <ele>329.60000610352</ele>
        <time>2025-08-05T10:28:49.000Z</time>
      </trkpt>
      <trkpt lat="42.9067" lon="2.31592">
        <ele>329.39999389648</ele>
        <time>2025-08-05T10:28:50.000Z</time>
      </trkpt>
      <trkpt lat="42.90675" lon="2.31595">
        <ele>329.39999389648</ele>
        <time>2025-08-05T10:28:51.000Z</time>
      </trkpt>
      <trkpt lat="42.90684" lon="2.31601">
        <ele>329.20001220703</ele>
        <time>2025-08-05T10:28:53.000Z</time>
      </trkpt>
      <trkpt lat="42.90693" lon="2.3161">
        <ele>329</ele>
        <time>2025-08-05T10:28:55.000Z</time>
      </trkpt>
      <trkpt lat="42.90697" lon="2.31615">
        <ele>328.79998779297</ele>
        <time>2025-08-05T10:28:56.000Z</time>
      </trkpt>
      <trkpt lat="42.90701" lon="2.31623">
        <ele>328.39999389648</ele>
        <time>2025-08-05T10:28:57.000Z</time>
      </trkpt>
      <trkpt lat="42.90706" lon="2.31636">
        <ele>327.79998779297</ele>
        <time>2025-08-05T10:28:59.000Z</time>
      </trkpt>
      <trkpt lat="42.90706" lon="2.31644">
        <ele>327.79998779297</ele>
        <time>2025-08-05T10:29:00.000Z</time>
      </trkpt>
      <trkpt lat="42.90706" lon="2.31651">
        <ele>327.60000610352</ele>
        <time>2025-08-05T10:29:01.000Z</time>
      </trkpt>
      <trkpt lat="42.90702" lon="2.31673">
        <ele>327.20001220703</ele>
        <time>2025-08-05T10:29:04.000Z</time>
      </trkpt>
      <trkpt lat="42.90701" lon="2.31679">
        <ele>327</ele>
        <time>2025-08-05T10:29:05.000Z</time>
      </trkpt>
      <trkpt lat="42.90692" lon="2.31707">
        <ele>327</ele>
        <time>2025-08-05T10:29:10.000Z</time>
      </trkpt>
      <trkpt lat="42.90682" lon="2.3174">
        <ele>327</ele>
        <time>2025-08-05T10:29:17.000Z</time>
      </trkpt>
      <trkpt lat="42.90682" lon="2.31767">
        <ele>326.79998779297</ele>
        <time>2025-08-05T10:29:22.000Z</time>
      </trkpt>
      <trkpt lat="42.90687" lon="2.31799">
        <ele>327.39999389648</ele>
        <time>2025-08-05T10:29:29.000Z</time>
      </trkpt>
      <trkpt lat="42.90695" lon="2.31825">
        <ele>328</ele>
        <time>2025-08-05T10:29:35.000Z</time>
      </trkpt>
      <trkpt lat="42.90697" lon="2.31831">
        <ele>328</ele>
        <time>2025-08-05T10:29:36.000Z</time>
      </trkpt>
      <trkpt lat="42.90702" lon="2.31846">
        <ele>328</ele>
        <time>2025-08-05T10:29:39.000Z</time>
      </trkpt>
      <trkpt lat="42.90707" lon="2.31864">
        <ele>328.20001220703</ele>
        <time>2025-08-05T10:29:43.000Z</time>
      </trkpt>
      <trkpt lat="42.90718" lon="2.31886">
        <ele>328.20001220703</ele>
        <time>2025-08-05T10:29:48.000Z</time>
      </trkpt>
      <trkpt lat="42.90733" lon="2.31902">
        <ele>328.60000610352</ele>
        <time>2025-08-05T10:29:53.000Z</time>
      </trkpt>
      <trkpt lat="42.9074" lon="2.31907">
        <ele>329</ele>
        <time>2025-08-05T10:29:55.000Z</time>
      </trkpt>
      <trkpt lat="42.90758" lon="2.31912">
        <ele>330</ele>
        <time>2025-08-05T10:30:00.000Z</time>
      </trkpt>
      <trkpt lat="42.90763" lon="2.31913">
        <ele>330</ele>
        <time>2025-08-05T10:30:01.000Z</time>
      </trkpt>
      <trkpt lat="42.90791" lon="2.31919">
        <ele>330</ele>
        <time>2025-08-05T10:30:07.000Z</time>
      </trkpt>
      <trkpt lat="42.90811" lon="2.31923">
        <ele>329.60000610352</ele>
        <time>2025-08-05T10:30:11.000Z</time>
      </trkpt>
      <trkpt lat="42.90822" lon="2.31927">
        <ele>329.20001220703</ele>
        <time>2025-08-05T10:30:13.000Z</time>
      </trkpt>
      <trkpt lat="42.90833" lon="2.3193">
        <ele>328.79998779297</ele>
        <time>2025-08-05T10:30:15.000Z</time>
      </trkpt>
      <trkpt lat="42.90861" lon="2.31939">
        <ele>328.20001220703</ele>
        <time>2025-08-05T10:30:20.000Z</time>
      </trkpt>
      <trkpt lat="42.90897" lon="2.31955">
        <ele>327.60000610352</ele>
        <time>2025-08-05T10:30:26.000Z</time>
      </trkpt>
      <trkpt lat="42.90903" lon="2.31956">
        <ele>327.60000610352</ele>
        <time>2025-08-05T10:30:27.000Z</time>
      </trkpt>
      <trkpt lat="42.90913" lon="2.31957">
        <ele>327.39999389648</ele>
        <time>2025-08-05T10:30:29.000Z</time>
      </trkpt>
      <trkpt lat="42.9093" lon="2.31952">
        <ele>327</ele>
        <time>2025-08-05T10:30:32.000Z</time>
      </trkpt>
      <trkpt lat="42.90952" lon="2.31945">
        <ele>326.60000610352</ele>
        <time>2025-08-05T10:30:36.000Z</time>
      </trkpt>
      <trkpt lat="42.90961" lon="2.31939">
        <ele>326.39999389648</ele>
        <time>2025-08-05T10:30:38.000Z</time>
      </trkpt>
      <trkpt lat="42.90966" lon="2.31936">
        <ele>326.39999389648</ele>
        <time>2025-08-05T10:30:39.000Z</time>
      </trkpt>
      <trkpt lat="42.90992" lon="2.31912">
        <ele>325.79998779297</ele>
        <time>2025-08-05T10:30:45.000Z</time>
      </trkpt>
      <trkpt lat="42.9101" lon="2.31898">
        <ele>325.39999389648</ele>
        <time>2025-08-05T10:30:49.000Z</time>
      </trkpt>
      <trkpt lat="42.91014" lon="2.31894">
        <ele>325.39999389648</ele>
        <time>2025-08-05T10:30:50.000Z</time>
      </trkpt>
      <trkpt lat="42.91019" lon="2.31889">
        <ele>325.20001220703</ele>
        <time>2025-08-05T10:30:51.000Z</time>
      </trkpt>
      <trkpt lat="42.91035" lon="2.31876">
        <ele>325</ele>
        <time>2025-08-05T10:30:54.000Z</time>
      </trkpt>
      <trkpt lat="42.91052" lon="2.31857">
        <ele>324.39999389648</ele>
        <time>2025-08-05T10:30:58.000Z</time>
      </trkpt>
      <trkpt lat="42.91082" lon="2.31808">
        <ele>323.39999389648</ele>
        <time>2025-08-05T10:31:06.000Z</time>
      </trkpt>
      <trkpt lat="42.9109" lon="2.31797">
        <ele>323</ele>
        <time>2025-08-05T10:31:08.000Z</time>
      </trkpt>
      <trkpt lat="42.91095" lon="2.31791">
        <ele>322.79998779297</ele>
        <time>2025-08-05T10:31:09.000Z</time>
      </trkpt>
      <trkpt lat="42.91109" lon="2.31775">
        <ele>322.60000610352</ele>
        <time>2025-08-05T10:31:12.000Z</time>
      </trkpt>
      <trkpt lat="42.91125" lon="2.3176">
        <ele>322</ele>
        <time>2025-08-05T10:31:15.000Z</time>
      </trkpt>
      <trkpt lat="42.9113" lon="2.31756">
        <ele>321.79998779297</ele>
        <time>2025-08-05T10:31:16.000Z</time>
      </trkpt>
      <trkpt lat="42.91142" lon="2.31748">
        <ele>321.60000610352</ele>
        <time>2025-08-05T10:31:18.000Z</time>
      </trkpt>
      <trkpt lat="42.91173" lon="2.31729">
        <ele>321</ele>
        <time>2025-08-05T10:31:23.000Z</time>
      </trkpt>
      <trkpt lat="42.91179" lon="2.31726">
        <ele>320.79998779297</ele>
        <time>2025-08-05T10:31:24.000Z</time>
      </trkpt>
      <trkpt lat="42.91197" lon="2.31719">
        <ele>319.79998779297</ele>
        <time>2025-08-05T10:31:27.000Z</time>
      </trkpt>
      <trkpt lat="42.9121" lon="2.31716">
        <ele>319.39999389648</ele>
        <time>2025-08-05T10:31:29.000Z</time>
      </trkpt>
      <trkpt lat="42.91222" lon="2.31715">
        <ele>318.79998779297</ele>
        <time>2025-08-05T10:31:31.000Z</time>
      </trkpt>
      <trkpt lat="42.91228" lon="2.31716">
        <ele>318.79998779297</ele>
        <time>2025-08-05T10:31:32.000Z</time>
      </trkpt>
      <trkpt lat="42.91233" lon="2.31717">
        <ele>318.60000610352</ele>
        <time>2025-08-05T10:31:33.000Z</time>
      </trkpt>
      <trkpt lat="42.91239" lon="2.3172">
        <ele>318.39999389648</ele>
        <time>2025-08-05T10:31:34.000Z</time>
      </trkpt>
      <trkpt lat="42.91273" lon="2.31739">
        <ele>317.39999389648</ele>
        <time>2025-08-05T10:31:39.000Z</time>
      </trkpt>
      <trkpt lat="42.9129" lon="2.3175">
        <ele>316.39999389648</ele>
        <time>2025-08-05T10:31:42.000Z</time>
      </trkpt>
      <trkpt lat="42.91305" lon="2.31757">
        <ele>316.20001220703</ele>
        <time>2025-08-05T10:31:45.000Z</time>
      </trkpt>
      <trkpt lat="42.91326" lon="2.31768">
        <ele>316.20001220703</ele>
        <time>2025-08-05T10:31:50.000Z</time>
      </trkpt>
      <trkpt lat="42.91347" lon="2.31789">
        <ele>316.39999389648</ele>
        <time>2025-08-05T10:31:56.000Z</time>
      </trkpt>
      <trkpt lat="42.91372" lon="2.31815">
        <ele>316.20001220703</ele>
        <time>2025-08-05T10:32:03.000Z</time>
      </trkpt>
      <trkpt lat="42.914" lon="2.31838">
        <ele>315.79998779297</ele>
        <time>2025-08-05T10:32:11.000Z</time>
      </trkpt>
      <trkpt lat="42.91419" lon="2.31844">
        <ele>315.60000610352</ele>
        <time>2025-08-05T10:32:17.000Z</time>
      </trkpt>
      <trkpt lat="42.91436" lon="2.31837">
        <ele>315.60000610352</ele>
        <time>2025-08-05T10:32:22.000Z</time>
      </trkpt>
      <trkpt lat="42.91454" lon="2.31824">
        <ele>315.79998779297</ele>
        <time>2025-08-05T10:32:28.000Z</time>
      </trkpt>
      <trkpt lat="42.91463" lon="2.31817">
        <ele>315.79998779297</ele>
        <time>2025-08-05T10:32:31.000Z</time>
      </trkpt>
      <trkpt lat="42.9147" lon="2.31814">
        <ele>315.79998779297</ele>
        <time>2025-08-05T10:32:34.000Z</time>
      </trkpt>
      <trkpt lat="42.91471" lon="2.31813">
        <ele>315.79998779297</ele>
        <time>2025-08-05T10:32:35.000Z</time>
      </trkpt>
      <trkpt lat="42.91472" lon="2.31813">
        <ele>315.79998779297</ele>
        <time>2025-08-05T10:32:37.000Z</time>
      </trkpt>
      <trkpt lat="42.91476" lon="2.31808">
        <ele>315</ele>
        <time>2025-08-05T10:36:29.000Z</time>
      </trkpt>
      <trkpt lat="42.91482" lon="2.31805">
        <ele>315</ele>
        <time>2025-08-05T10:36:32.000Z</time>
      </trkpt>
      <trkpt lat="42.91498" lon="2.31794">
        <ele>314.60000610352</ele>
        <time>2025-08-05T10:36:38.000Z</time>
      </trkpt>
      <trkpt lat="42.9152" lon="2.31781">
        <ele>314.60000610352</ele>
        <time>2025-08-05T10:36:46.000Z</time>
      </trkpt>
      <trkpt lat="42.91539" lon="2.31776">
        <ele>314.79998779297</ele>
        <time>2025-08-05T10:36:52.000Z</time>
      </trkpt>
      <trkpt lat="42.9157" lon="2.31768">
        <ele>314.79998779297</ele>
        <time>2025-08-05T10:37:01.000Z</time>
      </trkpt>
      <trkpt lat="42.91593" lon="2.31761">
        <ele>314.60000610352</ele>
        <time>2025-08-05T10:37:08.000Z</time>
      </trkpt>
      <trkpt lat="42.91614" lon="2.31756">
        <ele>314.60000610352</ele>
        <time>2025-08-05T10:37:14.000Z</time>
      </trkpt>
      <trkpt lat="42.91636" lon="2.31759">
        <ele>314.60000610352</ele>
        <time>2025-08-05T10:37:20.000Z</time>
      </trkpt>
      <trkpt lat="42.91651" lon="2.31775">
        <ele>314.39999389648</ele>
        <time>2025-08-05T10:37:25.000Z</time>
      </trkpt>
      <trkpt lat="42.91668" lon="2.31804">
        <ele>314.39999389648</ele>
        <time>2025-08-05T10:37:32.000Z</time>
      </trkpt>
      <trkpt lat="42.91685" lon="2.31824">
        <ele>314.39999389648</ele>
        <time>2025-08-05T10:37:38.000Z</time>
      </trkpt>
      <trkpt lat="42.91708" lon="2.31835">
        <ele>314.60000610352</ele>
        <time>2025-08-05T10:37:45.000Z</time>
      </trkpt>
      <trkpt lat="42.91731" lon="2.31848">
        <ele>314.79998779297</ele>
        <time>2025-08-05T10:37:52.000Z</time>
      </trkpt>
      <trkpt lat="42.91743" lon="2.31856">
        <ele>314.60000610352</ele>
        <time>2025-08-05T10:37:57.000Z</time>
      </trkpt>
      <trkpt lat="42.91748" lon="2.31856">
        <ele>314.39999389648</ele>
        <time>2025-08-05T10:38:01.000Z</time>
      </trkpt>
      <trkpt lat="42.91748" lon="2.31857">
        <ele>314.39999389648</ele>
        <time>2025-08-05T10:38:02.000Z</time>
      </trkpt>
      <trkpt lat="42.91748" lon="2.31857">
        <ele>314.20001220703</ele>
        <time>2025-08-05T10:38:04.000Z</time>
      </trkpt>
      <trkpt lat="42.91754" lon="2.3187">
        <ele>312.39999389648</ele>
        <time>2025-08-05T10:39:10.000Z</time>
      </trkpt>
      <trkpt lat="42.91756" lon="2.31871">
        <ele>312.60000610352</ele>
        <time>2025-08-05T10:39:11.000Z</time>
      </trkpt>
      <trkpt lat="42.91768" lon="2.31881">
        <ele>312.79998779297</ele>
        <time>2025-08-05T10:39:18.000Z</time>
      </trkpt>
      <trkpt lat="42.91784" lon="2.3189">
        <ele>312.79998779297</ele>
        <time>2025-08-05T10:39:24.000Z</time>
      </trkpt>
      <trkpt lat="42.9181" lon="2.31901">
        <ele>312.60000610352</ele>
        <time>2025-08-05T10:39:32.000Z</time>
      </trkpt>
      <trkpt lat="42.91821" lon="2.31905">
        <ele>312.60000610352</ele>
        <time>2025-08-05T10:39:35.000Z</time>
      </trkpt>
      <trkpt lat="42.91838" lon="2.31913">
        <ele>312.39999389648</ele>
        <time>2025-08-05T10:39:40.000Z</time>
      </trkpt>
      <trkpt lat="42.91867" lon="2.31927">
        <ele>311.60000610352</ele>
        <time>2025-08-05T10:39:48.000Z</time>
      </trkpt>
      <trkpt lat="42.9187" lon="2.31928">
        <ele>311.39999389648</ele>
        <time>2025-08-05T10:39:49.000Z</time>
      </trkpt>
      <trkpt lat="42.9189" lon="2.31937">
        <ele>311.20001220703</ele>
        <time>2025-08-05T10:39:55.000Z</time>
      </trkpt>
      <trkpt lat="42.919" lon="2.31941">
        <ele>310.60000610352</ele>
        <time>2025-08-05T10:40:00.000Z</time>
      </trkpt>
      <trkpt lat="42.91905" lon="2.31944">
        <ele>310.39999389648</ele>
        <time>2025-08-05T10:40:02.000Z</time>
      </trkpt>
      <trkpt lat="42.91918" lon="2.31949">
        <ele>309.79998779297</ele>
        <time>2025-08-05T10:40:07.000Z</time>
      </trkpt>
      <trkpt lat="42.91925" lon="2.31954">
        <ele>309.39999389648</ele>
        <time>2025-08-05T10:40:10.000Z</time>
      </trkpt>
      <trkpt lat="42.91927" lon="2.31955">
        <ele>309.20001220703</ele>
        <time>2025-08-05T10:40:12.000Z</time>
      </trkpt>
      <trkpt lat="42.91927" lon="2.31955">
        <ele>308.79998779297</ele>
        <time>2025-08-05T10:40:16.000Z</time>
      </trkpt>
      <trkpt lat="42.91923" lon="2.31953">
        <ele>309</ele>
        <time>2025-08-05T10:40:25.000Z</time>
      </trkpt>
      <trkpt lat="42.91908" lon="2.31946">
        <ele>309</ele>
        <time>2025-08-05T10:40:32.000Z</time>
      </trkpt>
      <trkpt lat="42.91897" lon="2.31945">
        <ele>309.39999389648</ele>
        <time>2025-08-05T10:40:38.000Z</time>
      </trkpt>
      <trkpt lat="42.91896" lon="2.31947">
        <ele>309.39999389648</ele>
        <time>2025-08-05T10:40:39.000Z</time>
      </trkpt>
      <trkpt lat="42.91894" lon="2.3195">
        <ele>309.60000610352</ele>
        <time>2025-08-05T10:40:41.000Z</time>
      </trkpt>
      <trkpt lat="42.91889" lon="2.31957">
        <ele>309.60000610352</ele>
        <time>2025-08-05T10:40:44.000Z</time>
      </trkpt>
      <trkpt lat="42.91886" lon="2.31959">
        <ele>309.60000610352</ele>
        <time>2025-08-05T10:40:46.000Z</time>
      </trkpt>
      <trkpt lat="42.91886" lon="2.31959">
        <ele>309.60000610352</ele>
        <time>2025-08-05T10:40:49.000Z</time>
      </trkpt>
      <trkpt lat="42.91886" lon="2.31959">
        <ele>313.39999389648</ele>
        <time>2025-08-05T12:23:00.000Z</time>
      </trkpt>
      <trkpt lat="42.91886" lon="2.31959">
        <ele>313.39999389648</ele>
        <time>2025-08-05T12:23:01.000Z</time>
      </trkpt>
      <trkpt lat="42.9189" lon="2.31957">
        <ele>313.79998779297</ele>
        <time>2025-08-05T12:23:43.000Z</time>
      </trkpt>
      <trkpt lat="42.91892" lon="2.31953">
        <ele>313.79998779297</ele>
        <time>2025-08-05T12:23:46.000Z</time>
      </trkpt>
      <trkpt lat="42.91895" lon="2.31948">
        <ele>313.60000610352</ele>
        <time>2025-08-05T12:23:50.000Z</time>
      </trkpt>
      <trkpt lat="42.91899" lon="2.31945">
        <ele>313.39999389648</ele>
        <time>2025-08-05T12:23:54.000Z</time>
      </trkpt>
      <trkpt lat="42.91903" lon="2.31944">
        <ele>313.39999389648</ele>
        <time>2025-08-05T12:23:56.000Z</time>
      </trkpt>
      <trkpt lat="42.91907" lon="2.31947">
        <ele>313.39999389648</ele>
        <time>2025-08-05T12:23:58.000Z</time>
      </trkpt>
      <trkpt lat="42.91922" lon="2.31952">
        <ele>313.39999389648</ele>
        <time>2025-08-05T12:24:03.000Z</time>
      </trkpt>
      <trkpt lat="42.91936" lon="2.3196">
        <ele>313</ele>
        <time>2025-08-05T12:24:07.000Z</time>
      </trkpt>
      <trkpt lat="42.91944" lon="2.31964">
        <ele>313</ele>
        <time>2025-08-05T12:24:09.000Z</time>
      </trkpt>
      <trkpt lat="42.91965" lon="2.31974">
        <ele>312.79998779297</ele>
        <time>2025-08-05T12:24:15.000Z</time>
      </trkpt>
      <trkpt lat="42.91984" lon="2.31983">
        <ele>313</ele>
        <time>2025-08-05T12:24:21.000Z</time>
      </trkpt>
      <trkpt lat="42.92007" lon="2.31995">
        <ele>313.39999389648</ele>
        <time>2025-08-05T12:24:29.000Z</time>
      </trkpt>
      <trkpt lat="42.92013" lon="2.32">
        <ele>313.39999389648</ele>
        <time>2025-08-05T12:24:31.000Z</time>
      </trkpt>
      <trkpt lat="42.92018" lon="2.32005">
        <ele>313.39999389648</ele>
        <time>2025-08-05T12:24:33.000Z</time>
      </trkpt>
      <trkpt lat="42.9203" lon="2.32015">
        <ele>313.60000610352</ele>
        <time>2025-08-05T12:24:38.000Z</time>
      </trkpt>
      <trkpt lat="42.92042" lon="2.32027">
        <ele>313.79998779297</ele>
        <time>2025-08-05T12:24:43.000Z</time>
      </trkpt>
      <trkpt lat="42.92058" lon="2.32038">
        <ele>313.79998779297</ele>
        <time>2025-08-05T12:24:50.000Z</time>
      </trkpt>
      <trkpt lat="42.92075" lon="2.32044">
        <ele>314.20001220703</ele>
        <time>2025-08-05T12:24:56.000Z</time>
      </trkpt>
      <trkpt lat="42.92097" lon="2.32055">
        <ele>314.79998779297</ele>
        <time>2025-08-05T12:25:03.000Z</time>
      </trkpt>
      <trkpt lat="42.92115" lon="2.32065">
        <ele>315</ele>
        <time>2025-08-05T12:25:09.000Z</time>
      </trkpt>
      <trkpt lat="42.92124" lon="2.32071">
        <ele>315</ele>
        <time>2025-08-05T12:25:12.000Z</time>
      </trkpt>
      <trkpt lat="42.92134" lon="2.32077">
        <ele>315.20001220703</ele>
        <time>2025-08-05T12:25:15.000Z</time>
      </trkpt>
      <trkpt lat="42.92139" lon="2.32081">
        <ele>315.20001220703</ele>
        <time>2025-08-05T12:25:17.000Z</time>
      </trkpt>
      <trkpt lat="42.92159" lon="2.32085">
        <ele>315.20001220703</ele>
        <time>2025-08-05T12:25:23.000Z</time>
      </trkpt>
      <trkpt lat="42.92177" lon="2.32074">
        <ele>314.79998779297</ele>
        <time>2025-08-05T12:25:29.000Z</time>
      </trkpt>
      <trkpt lat="42.92182" lon="2.32055">
        <ele>314.39999389648</ele>
        <time>2025-08-05T12:25:33.000Z</time>
      </trkpt>
      <trkpt lat="42.92183" lon="2.32046">
        <ele>314.20001220703</ele>
        <time>2025-08-05T12:25:35.000Z</time>
      </trkpt>
      <trkpt lat="42.92182" lon="2.32031">
        <ele>313.79998779297</ele>
        <time>2025-08-05T12:25:39.000Z</time>
      </trkpt>
      <trkpt lat="42.92177" lon="2.32002">
        <ele>313.60000610352</ele>
        <time>2025-08-05T12:25:46.000Z</time>
      </trkpt>
      <trkpt lat="42.92172" lon="2.31965">
        <ele>313</ele>
        <time>2025-08-05T12:25:54.000Z</time>
      </trkpt>
      <trkpt lat="42.92171" lon="2.31959">
        <ele>313</ele>
        <time>2025-08-05T12:25:55.000Z</time>
      </trkpt>
      <trkpt lat="42.92168" lon="2.31939">
        <ele>312.20001220703</ele>
        <time>2025-08-05T12:25:59.000Z</time>
      </trkpt>
      <trkpt lat="42.92167" lon="2.31934">
        <ele>311.79998779297</ele>
        <time>2025-08-05T12:26:00.000Z</time>
      </trkpt>
      <trkpt lat="42.92164" lon="2.31913">
        <ele>311</ele>
        <time>2025-08-05T12:26:04.000Z</time>
      </trkpt>
      <trkpt lat="42.92163" lon="2.319">
        <ele>310.79998779297</ele>
        <time>2025-08-05T12:26:06.000Z</time>
      </trkpt>
      <trkpt lat="42.92162" lon="2.31893">
        <ele>310.79998779297</ele>
        <time>2025-08-05T12:26:07.000Z</time>
      </trkpt>
      <trkpt lat="42.92159" lon="2.31872">
        <ele>310.79998779297</ele>
        <time>2025-08-05T12:26:10.000Z</time>
      </trkpt>
      <trkpt lat="42.92158" lon="2.31857">
        <ele>310.79998779297</ele>
        <time>2025-08-05T12:26:12.000Z</time>
      </trkpt>
      <trkpt lat="42.9216" lon="2.31816">
        <ele>310.20001220703</ele>
        <time>2025-08-05T12:26:17.000Z</time>
      </trkpt>
      <trkpt lat="42.92161" lon="2.31808">
        <ele>309.79998779297</ele>
        <time>2025-08-05T12:26:18.000Z</time>
      </trkpt>
      <trkpt lat="42.92164" lon="2.31799">
        <ele>309.39999389648</ele>
        <time>2025-08-05T12:26:19.000Z</time>
      </trkpt>
      <trkpt lat="42.9217" lon="2.31782">
        <ele>308.60000610352</ele>
        <time>2025-08-05T12:26:21.000Z</time>
      </trkpt>
      <trkpt lat="42.92174" lon="2.31776">
        <ele>308.39999389648</ele>
        <time>2025-08-05T12:26:22.000Z</time>
      </trkpt>
      <trkpt lat="42.92179" lon="2.31771">
        <ele>307.60000610352</ele>
        <time>2025-08-05T12:26:23.000Z</time>
      </trkpt>
      <trkpt lat="42.92184" lon="2.31768">
        <ele>307.39999389648</ele>
        <time>2025-08-05T12:26:24.000Z</time>
      </trkpt>
      <trkpt lat="42.92195" lon="2.31764">
        <ele>306.60000610352</ele>
        <time>2025-08-05T12:26:26.000Z</time>
      </trkpt>
      <trkpt lat="42.922" lon="2.31762">
        <ele>306</ele>
        <time>2025-08-05T12:26:27.000Z</time>
      </trkpt>
      <trkpt lat="42.92211" lon="2.31758">
        <ele>305</ele>
        <time>2025-08-05T12:26:29.000Z</time>
      </trkpt>
      <trkpt lat="42.92216" lon="2.31756">
        <ele>304.60000610352</ele>
        <time>2025-08-05T12:26:30.000Z</time>
      </trkpt>
      <trkpt lat="42.92226" lon="2.31753">
        <ele>303.79998779297</ele>
        <time>2025-08-05T12:26:32.000Z</time>
      </trkpt>
      <trkpt lat="42.9225" lon="2.3175">
        <ele>303.60000610352</ele>
        <time>2025-08-05T12:26:37.000Z</time>
      </trkpt>
      <trkpt lat="42.92254" lon="2.31751">
        <ele>303.60000610352</ele>
        <time>2025-08-05T12:26:38.000Z</time>
      </trkpt>
      <trkpt lat="42.92274" lon="2.31756">
        <ele>303.60000610352</ele>
        <time>2025-08-05T12:26:43.000Z</time>
      </trkpt>
      <trkpt lat="42.92301" lon="2.31764">
        <ele>303.60000610352</ele>
        <time>2025-08-05T12:26:50.000Z</time>
      </trkpt>
      <trkpt lat="42.92339" lon="2.31776">
        <ele>304.20001220703</ele>
        <time>2025-08-05T12:27:01.000Z</time>
      </trkpt>
      <trkpt lat="42.92363" lon="2.31782">
        <ele>304</ele>
        <time>2025-08-05T12:27:06.000Z</time>
      </trkpt>
      <trkpt lat="42.92379" lon="2.31782">
        <ele>303.79998779297</ele>
        <time>2025-08-05T12:27:09.000Z</time>
      </trkpt>
      <trkpt lat="42.9239" lon="2.31778">
        <ele>303.79998779297</ele>
        <time>2025-08-05T12:27:11.000Z</time>
      </trkpt>
      <trkpt lat="42.9242" lon="2.31761">
        <ele>302.60000610352</ele>
        <time>2025-08-05T12:27:16.000Z</time>
      </trkpt>
      <trkpt lat="42.92426" lon="2.31756">
        <ele>302.39999389648</ele>
        <time>2025-08-05T12:27:17.000Z</time>
      </trkpt>
      <trkpt lat="42.92437" lon="2.31746">
        <ele>302.20001220703</ele>
        <time>2025-08-05T12:27:19.000Z</time>
      </trkpt>
      <trkpt lat="42.92446" lon="2.31732">
        <ele>301.79998779297</ele>
        <time>2025-08-05T12:27:21.000Z</time>
      </trkpt>
      <trkpt lat="42.92454" lon="2.31716">
        <ele>301.39999389648</ele>
        <time>2025-08-05T12:27:23.000Z</time>
      </trkpt>
      <trkpt lat="42.92458" lon="2.31708">
        <ele>301</ele>
        <time>2025-08-05T12:27:24.000Z</time>
      </trkpt>
      <trkpt lat="42.92464" lon="2.31691">
        <ele>300.60000610352</ele>
        <time>2025-08-05T12:27:26.000Z</time>
      </trkpt>
      <trkpt lat="42.92467" lon="2.31673">
        <ele>300.20001220703</ele>
        <time>2025-08-05T12:27:28.000Z</time>
      </trkpt>
      <trkpt lat="42.92468" lon="2.31663">
        <ele>300</ele>
        <time>2025-08-05T12:27:29.000Z</time>
      </trkpt>
      <trkpt lat="42.92468" lon="2.31643">
        <ele>299.60000610352</ele>
        <time>2025-08-05T12:27:31.000Z</time>
      </trkpt>
      <trkpt lat="42.92471" lon="2.31624">
        <ele>298.79998779297</ele>
        <time>2025-08-05T12:27:33.000Z</time>
      </trkpt>
      <trkpt lat="42.92476" lon="2.31591">
        <ele>297.60000610352</ele>
        <time>2025-08-05T12:27:36.000Z</time>
      </trkpt>
      <trkpt lat="42.92485" lon="2.31546">
        <ele>296</ele>
        <time>2025-08-05T12:27:40.000Z</time>
      </trkpt>
      <trkpt lat="42.92489" lon="2.31535">
        <ele>295.60000610352</ele>
        <time>2025-08-05T12:27:41.000Z</time>
      </trkpt>
      <trkpt lat="42.92498" lon="2.31516">
        <ele>294.79998779297</ele>
        <time>2025-08-05T12:27:43.000Z</time>
      </trkpt>
      <trkpt lat="42.92513" lon="2.31488">
        <ele>294.20001220703</ele>
        <time>2025-08-05T12:27:46.000Z</time>
      </trkpt>
      <trkpt lat="42.92524" lon="2.31474">
        <ele>293.60000610352</ele>
        <time>2025-08-05T12:27:48.000Z</time>
      </trkpt>
      <trkpt lat="42.92534" lon="2.31464">
        <ele>293</ele>
        <time>2025-08-05T12:27:50.000Z</time>
      </trkpt>
      <trkpt lat="42.92546" lon="2.31457">
        <ele>292.79998779297</ele>
        <time>2025-08-05T12:27:52.000Z</time>
      </trkpt>
      <trkpt lat="42.92557" lon="2.31454">
        <ele>292.60000610352</ele>
        <time>2025-08-05T12:27:54.000Z</time>
      </trkpt>
      <trkpt lat="42.92562" lon="2.31453">
        <ele>292.60000610352</ele>
        <time>2025-08-05T12:27:55.000Z</time>
      </trkpt>
      <trkpt lat="42.92572" lon="2.31454">
        <ele>292.60000610352</ele>
        <time>2025-08-05T12:27:57.000Z</time>
      </trkpt>
      <trkpt lat="42.92577" lon="2.31455">
        <ele>292.60000610352</ele>
        <time>2025-08-05T12:27:58.000Z</time>
      </trkpt>
      <trkpt lat="42.92586" lon="2.31456">
        <ele>292.39999389648</ele>
        <time>2025-08-05T12:28:00.000Z</time>
      </trkpt>
      <trkpt lat="42.92609" lon="2.31463">
        <ele>292.20001220703</ele>
        <time>2025-08-05T12:28:05.000Z</time>
      </trkpt>
      <trkpt lat="42.92635" lon="2.31474">
        <ele>291.39999389648</ele>
        <time>2025-08-05T12:28:10.000Z</time>
      </trkpt>
      <trkpt lat="42.92644" lon="2.3148">
        <ele>291</ele>
        <time>2025-08-05T12:28:12.000Z</time>
      </trkpt>
      <trkpt lat="42.9267" lon="2.31502">
        <ele>290.39999389648</ele>
        <time>2025-08-05T12:28:18.000Z</time>
      </trkpt>
      <trkpt lat="42.92674" lon="2.31506">
        <ele>290.39999389648</ele>
        <time>2025-08-05T12:28:19.000Z</time>
      </trkpt>
      <trkpt lat="42.92689" lon="2.31528">
        <ele>289.60000610352</ele>
        <time>2025-08-05T12:28:24.000Z</time>
      </trkpt>
      <trkpt lat="42.92698" lon="2.3154">
        <ele>289</ele>
        <time>2025-08-05T12:28:27.000Z</time>
      </trkpt>
      <trkpt lat="42.92708" lon="2.31557">
        <ele>288.79998779297</ele>
        <time>2025-08-05T12:28:31.000Z</time>
      </trkpt>
      <trkpt lat="42.92711" lon="2.31562">
        <ele>288.60000610352</ele>
        <time>2025-08-05T12:28:32.000Z</time>
      </trkpt>
      <trkpt lat="42.92716" lon="2.31569">
        <ele>288.39999389648</ele>
        <time>2025-08-05T12:28:34.000Z</time>
      </trkpt>
      <trkpt lat="42.92721" lon="2.31578">
        <ele>288.20001220703</ele>
        <time>2025-08-05T12:28:36.000Z</time>
      </trkpt>
      <trkpt lat="42.92735" lon="2.31599">
        <ele>288</ele>
        <time>2025-08-05T12:28:41.000Z</time>
      </trkpt>
      <trkpt lat="42.92749" lon="2.31613">
        <ele>288</ele>
        <time>2025-08-05T12:28:45.000Z</time>
      </trkpt>
      <trkpt lat="42.92753" lon="2.31615">
        <ele>288</ele>
        <time>2025-08-05T12:28:46.000Z</time>
      </trkpt>
      <trkpt lat="42.92765" lon="2.31621">
        <ele>288</ele>
        <time>2025-08-05T12:28:49.000Z</time>
      </trkpt>
      <trkpt lat="42.92778" lon="2.31621">
        <ele>288.20001220703</ele>
        <time>2025-08-05T12:28:52.000Z</time>
      </trkpt>
      <trkpt lat="42.92787" lon="2.3162">
        <ele>288.20001220703</ele>
        <time>2025-08-05T12:28:54.000Z</time>
      </trkpt>
      <trkpt lat="42.92805" lon="2.31615">
        <ele>288.20001220703</ele>
        <time>2025-08-05T12:28:59.000Z</time>
      </trkpt>
      <trkpt lat="42.92831" lon="2.31608">
        <ele>288.20001220703</ele>
        <time>2025-08-05T12:29:06.000Z</time>
      </trkpt>
      <trkpt lat="42.92858" lon="2.31607">
        <ele>287.60000610352</ele>
        <time>2025-08-05T12:29:12.000Z</time>
      </trkpt>
      <trkpt lat="42.92891" lon="2.31604">
        <ele>287.39999389648</ele>
        <time>2025-08-05T12:29:20.000Z</time>
      </trkpt>
      <trkpt lat="42.92918" lon="2.31603">
        <ele>287.79998779297</ele>
        <time>2025-08-05T12:29:27.000Z</time>
      </trkpt>
      <trkpt lat="42.9295" lon="2.31603">
        <ele>288.20001220703</ele>
        <time>2025-08-05T12:29:35.000Z</time>
      </trkpt>
      <trkpt lat="42.92976" lon="2.316">
        <ele>288.79998779297</ele>
        <time>2025-08-05T12:29:42.000Z</time>
      </trkpt>
      <trkpt lat="42.93002" lon="2.31597">
        <ele>289</ele>
        <time>2025-08-05T12:29:49.000Z</time>
      </trkpt>
      <trkpt lat="42.93024" lon="2.31595">
        <ele>289.20001220703</ele>
        <time>2025-08-05T12:29:55.000Z</time>
      </trkpt>
      <trkpt lat="42.93052" lon="2.31592">
        <ele>289.60000610352</ele>
        <time>2025-08-05T12:30:02.000Z</time>
      </trkpt>
      <trkpt lat="42.93082" lon="2.31589">
        <ele>289.79998779297</ele>
        <time>2025-08-05T12:30:10.000Z</time>
      </trkpt>
      <trkpt lat="42.93102" lon="2.31586">
        <ele>290</ele>
        <time>2025-08-05T12:30:16.000Z</time>
      </trkpt>
      <trkpt lat="42.93105" lon="2.31587">
        <ele>290</ele>
        <time>2025-08-05T12:30:17.000Z</time>
      </trkpt>
      <trkpt lat="42.93127" lon="2.31584">
        <ele>290.20001220703</ele>
        <time>2025-08-05T12:30:23.000Z</time>
      </trkpt>
      <trkpt lat="42.93163" lon="2.3158">
        <ele>290.39999389648</ele>
        <time>2025-08-05T12:30:34.000Z</time>
      </trkpt>
      <trkpt lat="42.93181" lon="2.31579">
        <ele>290.79998779297</ele>
        <time>2025-08-05T12:30:40.000Z</time>
      </trkpt>
      <trkpt lat="42.93187" lon="2.31578">
        <ele>291.20001220703</ele>
        <time>2025-08-05T12:30:42.000Z</time>
      </trkpt>
      <trkpt lat="42.93189" lon="2.31578">
        <ele>291.39999389648</ele>
        <time>2025-08-05T12:30:43.000Z</time>
      </trkpt>
      <trkpt lat="42.93204" lon="2.31579">
        <ele>292.39999389648</ele>
        <time>2025-08-05T12:30:50.000Z</time>
      </trkpt>
      <trkpt lat="42.93207" lon="2.3158">
        <ele>292.39999389648</ele>
        <time>2025-08-05T12:30:51.000Z</time>
      </trkpt>
      <trkpt lat="42.93218" lon="2.31583">
        <ele>293.20001220703</ele>
        <time>2025-08-05T12:30:56.000Z</time>
      </trkpt>
      <trkpt lat="42.93226" lon="2.31586">
        <ele>293.39999389648</ele>
        <time>2025-08-05T12:30:59.000Z</time>
      </trkpt>
      <trkpt lat="42.93238" lon="2.31591">
        <ele>293.79998779297</ele>
        <time>2025-08-05T12:31:04.000Z</time>
      </trkpt>
      <trkpt lat="42.93248" lon="2.31593">
        <ele>294.39999389648</ele>
        <time>2025-08-05T12:31:08.000Z</time>
      </trkpt>
      <trkpt lat="42.93259" lon="2.31595">
        <ele>294.60000610352</ele>
        <time>2025-08-05T12:31:12.000Z</time>
      </trkpt>
      <trkpt lat="42.93277" lon="2.31597">
        <ele>295</ele>
        <time>2025-08-05T12:31:19.000Z</time>
      </trkpt>
      <trkpt lat="42.93292" lon="2.31597">
        <ele>295.39999389648</ele>
        <time>2025-08-05T12:31:24.000Z</time>
      </trkpt>
      <trkpt lat="42.93322" lon="2.31602">
        <ele>295.20001220703</ele>
        <time>2025-08-05T12:31:31.000Z</time>
      </trkpt>
      <trkpt lat="42.93354" lon="2.31605">
        <ele>294.60000610352</ele>
        <time>2025-08-05T12:31:37.000Z</time>
      </trkpt>
      <trkpt lat="42.93394" lon="2.31604">
        <ele>293.60000610352</ele>
        <time>2025-08-05T12:31:44.000Z</time>
      </trkpt>
      <trkpt lat="42.9343" lon="2.316">
        <ele>292.60000610352</ele>
        <time>2025-08-05T12:31:49.000Z</time>
      </trkpt>
      <trkpt lat="42.93451" lon="2.31598">
        <ele>291.60000610352</ele>
        <time>2025-08-05T12:31:52.000Z</time>
      </trkpt>
      <trkpt lat="42.93474" lon="2.31594">
        <ele>290.39999389648</ele>
        <time>2025-08-05T12:31:55.000Z</time>
      </trkpt>
      <trkpt lat="42.93498" lon="2.31588">
        <ele>289.39999389648</ele>
        <time>2025-08-05T12:31:58.000Z</time>
      </trkpt>
      <trkpt lat="42.93521" lon="2.31587">
        <ele>287.79998779297</ele>
        <time>2025-08-05T12:32:01.000Z</time>
      </trkpt>
      <trkpt lat="42.93536" lon="2.31587">
        <ele>286.79998779297</ele>
        <time>2025-08-05T12:32:03.000Z</time>
      </trkpt>
      <trkpt lat="42.93543" lon="2.31588">
        <ele>286.20001220703</ele>
        <time>2025-08-05T12:32:04.000Z</time>
      </trkpt>
      <trkpt lat="42.93563" lon="2.31589">
        <ele>285</ele>
        <time>2025-08-05T12:32:07.000Z</time>
      </trkpt>
      <trkpt lat="42.93569" lon="2.31588">
        <ele>284.60000610352</ele>
        <time>2025-08-05T12:32:08.000Z</time>
      </trkpt>
      <trkpt lat="42.93575" lon="2.31586">
        <ele>284.39999389648</ele>
        <time>2025-08-05T12:32:09.000Z</time>
      </trkpt>
      <trkpt lat="42.93591" lon="2.31579">
        <ele>284.20001220703</ele>
        <time>2025-08-05T12:32:12.000Z</time>
      </trkpt>
      <trkpt lat="42.93602" lon="2.31573">
        <ele>284</ele>
        <time>2025-08-05T12:32:14.000Z</time>
      </trkpt>
      <trkpt lat="42.93608" lon="2.31571">
        <ele>283.79998779297</ele>
        <time>2025-08-05T12:32:15.000Z</time>
      </trkpt>
      <trkpt lat="42.93619" lon="2.31569">
        <ele>283.60000610352</ele>
        <time>2025-08-05T12:32:17.000Z</time>
      </trkpt>
      <trkpt lat="42.93638" lon="2.31568">
        <ele>283.20001220703</ele>
        <time>2025-08-05T12:32:20.000Z</time>
      </trkpt>
      <trkpt lat="42.93651" lon="2.3157">
        <ele>283</ele>
        <time>2025-08-05T12:32:22.000Z</time>
      </trkpt>
      <trkpt lat="42.93657" lon="2.31572">
        <ele>282.79998779297</ele>
        <time>2025-08-05T12:32:23.000Z</time>
      </trkpt>
      <trkpt lat="42.93697" lon="2.31589">
        <ele>282.20001220703</ele>
        <time>2025-08-05T12:32:30.000Z</time>
      </trkpt>
      <trkpt lat="42.93702" lon="2.31593">
        <ele>282</ele>
        <time>2025-08-05T12:32:31.000Z</time>
      </trkpt>
      <trkpt lat="42.9373" lon="2.31607">
        <ele>281.20001220703</ele>
        <time>2025-08-05T12:32:36.000Z</time>
      </trkpt>
      <trkpt lat="42.93736" lon="2.3161">
        <ele>281</ele>
        <time>2025-08-05T12:32:37.000Z</time>
      </trkpt>
      <trkpt lat="42.93747" lon="2.31615">
        <ele>280.79998779297</ele>
        <time>2025-08-05T12:32:39.000Z</time>
      </trkpt>
      <trkpt lat="42.93765" lon="2.31623">
        <ele>280.60000610352</ele>
        <time>2025-08-05T12:32:42.000Z</time>
      </trkpt>
      <trkpt lat="42.93794" lon="2.31634">
        <ele>280</ele>
        <time>2025-08-05T12:32:47.000Z</time>
      </trkpt>
      <trkpt lat="42.938" lon="2.31637">
        <ele>279.79998779297</ele>
        <time>2025-08-05T12:32:48.000Z</time>
      </trkpt>
      <trkpt lat="42.93818" lon="2.31644">
        <ele>279.39999389648</ele>
        <time>2025-08-05T12:32:51.000Z</time>
      </trkpt>
      <trkpt lat="42.93831" lon="2.31645">
        <ele>279</ele>
        <time>2025-08-05T12:32:53.000Z</time>
      </trkpt>
      <trkpt lat="42.93874" lon="2.31637">
        <ele>278.20001220703</ele>
        <time>2025-08-05T12:33:00.000Z</time>
      </trkpt>
      <trkpt lat="42.93892" lon="2.31633">
        <ele>278</ele>
        <time>2025-08-05T12:33:03.000Z</time>
      </trkpt>
      <trkpt lat="42.93921" lon="2.31626">
        <ele>277.20001220703</ele>
        <time>2025-08-05T12:33:08.000Z</time>
      </trkpt>
      <trkpt lat="42.93932" lon="2.31625">
        <ele>276.79998779297</ele>
        <time>2025-08-05T12:33:10.000Z</time>
      </trkpt>
      <trkpt lat="42.93955" lon="2.31619">
        <ele>276.20001220703</ele>
        <time>2025-08-05T12:33:14.000Z</time>
      </trkpt>
      <trkpt lat="42.93972" lon="2.31616">
        <ele>275.79998779297</ele>
        <time>2025-08-05T12:33:17.000Z</time>
      </trkpt>
      <trkpt lat="42.93977" lon="2.31614">
        <ele>275.60000610352</ele>
        <time>2025-08-05T12:33:18.000Z</time>
      </trkpt>
      <trkpt lat="42.94019" lon="2.31598">
        <ele>274.79998779297</ele>
        <time>2025-08-05T12:33:26.000Z</time>
      </trkpt>
      <trkpt lat="42.94059" lon="2.31568">
        <ele>273.79998779297</ele>
        <time>2025-08-05T12:33:35.000Z</time>
      </trkpt>
      <trkpt lat="42.94075" lon="2.3155">
        <ele>273.60000610352</ele>
        <time>2025-08-05T12:33:39.000Z</time>
      </trkpt>
      <trkpt lat="42.94085" lon="2.31534">
        <ele>273</ele>
        <time>2025-08-05T12:33:42.000Z</time>
      </trkpt>
      <trkpt lat="42.94095" lon="2.31518">
        <ele>272.79998779297</ele>
        <time>2025-08-05T12:33:45.000Z</time>
      </trkpt>
      <trkpt lat="42.94099" lon="2.31514">
        <ele>272.60000610352</ele>
        <time>2025-08-05T12:33:46.000Z</time>
      </trkpt>
      <trkpt lat="42.94108" lon="2.31508">
        <ele>272.39999389648</ele>
        <time>2025-08-05T12:33:48.000Z</time>
      </trkpt>
      <trkpt lat="42.94123" lon="2.315">
        <ele>271.79998779297</ele>
        <time>2025-08-05T12:33:52.000Z</time>
      </trkpt>
      <trkpt lat="42.94127" lon="2.31499">
        <ele>271.79998779297</ele>
        <time>2025-08-05T12:33:53.000Z</time>
      </trkpt>
      <trkpt lat="42.94134" lon="2.31497">
        <ele>271.60000610352</ele>
        <time>2025-08-05T12:33:55.000Z</time>
      </trkpt>
      <trkpt lat="42.94152" lon="2.31494">
        <ele>271.60000610352</ele>
        <time>2025-08-05T12:34:00.000Z</time>
      </trkpt>
      <trkpt lat="42.94154" lon="2.31492">
        <ele>271.39999389648</ele>
        <time>2025-08-05T12:34:01.000Z</time>
      </trkpt>
      <trkpt lat="42.94158" lon="2.31483">
        <ele>271.39999389648</ele>
        <time>2025-08-05T12:34:03.000Z</time>
      </trkpt>
      <trkpt lat="42.9416" lon="2.31455">
        <ele>271</ele>
        <time>2025-08-05T12:34:08.000Z</time>
      </trkpt>
      <trkpt lat="42.94161" lon="2.31448">
        <ele>270.79998779297</ele>
        <time>2025-08-05T12:34:09.000Z</time>
      </trkpt>
      <trkpt lat="42.94165" lon="2.31436">
        <ele>270.79998779297</ele>
        <time>2025-08-05T12:34:11.000Z</time>
      </trkpt>
      <trkpt lat="42.94169" lon="2.31424">
        <ele>270.39999389648</ele>
        <time>2025-08-05T12:34:13.000Z</time>
      </trkpt>
      <trkpt lat="42.94177" lon="2.31408">
        <ele>270</ele>
        <time>2025-08-05T12:34:16.000Z</time>
      </trkpt>
      <trkpt lat="42.94185" lon="2.31397">
        <ele>269.79998779297</ele>
        <time>2025-08-05T12:34:18.000Z</time>
      </trkpt>
      <trkpt lat="42.94188" lon="2.31391">
        <ele>269.79998779297</ele>
        <time>2025-08-05T12:34:19.000Z</time>
      </trkpt>
      <trkpt lat="42.94221" lon="2.31343">
        <ele>268.79998779297</ele>
        <time>2025-08-05T12:34:28.000Z</time>
      </trkpt>
      <trkpt lat="42.94225" lon="2.31338">
        <ele>268.79998779297</ele>
        <time>2025-08-05T12:34:29.000Z</time>
      </trkpt>
      <trkpt lat="42.94248" lon="2.31296">
        <ele>267.79998779297</ele>
        <time>2025-08-05T12:34:36.000Z</time>
      </trkpt>
      <trkpt lat="42.94251" lon="2.31289">
        <ele>267.60000610352</ele>
        <time>2025-08-05T12:34:37.000Z</time>
      </trkpt>
      <trkpt lat="42.9426" lon="2.31252">
        <ele>266.79998779297</ele>
        <time>2025-08-05T12:34:42.000Z</time>
      </trkpt>
      <trkpt lat="42.94262" lon="2.31221">
        <ele>266.60000610352</ele>
        <time>2025-08-05T12:34:46.000Z</time>
      </trkpt>
      <trkpt lat="42.9426" lon="2.31206">
        <ele>266.39999389648</ele>
        <time>2025-08-05T12:34:48.000Z</time>
      </trkpt>
      <trkpt lat="42.9425" lon="2.31172">
        <ele>265.79998779297</ele>
        <time>2025-08-05T12:34:53.000Z</time>
      </trkpt>
      <trkpt lat="42.94244" lon="2.3116">
        <ele>265.60000610352</ele>
        <time>2025-08-05T12:34:55.000Z</time>
      </trkpt>
      <trkpt lat="42.94227" lon="2.31133">
        <ele>265.20001220703</ele>
        <time>2025-08-05T12:35:00.000Z</time>
      </trkpt>
      <trkpt lat="42.94193" lon="2.31098">
        <ele>264.60000610352</ele>
        <time>2025-08-05T12:35:08.000Z</time>
      </trkpt>
      <trkpt lat="42.94189" lon="2.31095">
        <ele>264.60000610352</ele>
        <time>2025-08-05T12:35:09.000Z</time>
      </trkpt>
      <trkpt lat="42.94166" lon="2.31072">
        <ele>264.20001220703</ele>
        <time>2025-08-05T12:35:15.000Z</time>
      </trkpt>
      <trkpt lat="42.94161" lon="2.31062">
        <ele>264.20001220703</ele>
        <time>2025-08-05T12:35:17.000Z</time>
      </trkpt>
      <trkpt lat="42.94156" lon="2.31047">
        <ele>264.39999389648</ele>
        <time>2025-08-05T12:35:20.000Z</time>
      </trkpt>
      <trkpt lat="42.94153" lon="2.31037">
        <ele>264.60000610352</ele>
        <time>2025-08-05T12:35:22.000Z</time>
      </trkpt>
      <trkpt lat="42.94152" lon="2.31026">
        <ele>264.60000610352</ele>
        <time>2025-08-05T12:35:24.000Z</time>
      </trkpt>
      <trkpt lat="42.94152" lon="2.31021">
        <ele>264.60000610352</ele>
        <time>2025-08-05T12:35:25.000Z</time>
      </trkpt>
      <trkpt lat="42.94151" lon="2.31009">
        <ele>264.60000610352</ele>
        <time>2025-08-05T12:35:27.000Z</time>
      </trkpt>
      <trkpt lat="42.94153" lon="2.30996">
        <ele>264.79998779297</ele>
        <time>2025-08-05T12:35:29.000Z</time>
      </trkpt>
      <trkpt lat="42.94154" lon="2.30985">
        <ele>264.79998779297</ele>
        <time>2025-08-05T12:35:31.000Z</time>
      </trkpt>
      <trkpt lat="42.94162" lon="2.30928">
        <ele>265</ele>
        <time>2025-08-05T12:35:41.000Z</time>
      </trkpt>
      <trkpt lat="42.94163" lon="2.30899">
        <ele>264.60000610352</ele>
        <time>2025-08-05T12:35:46.000Z</time>
      </trkpt>
      <trkpt lat="42.94162" lon="2.30887">
        <ele>264.39999389648</ele>
        <time>2025-08-05T12:35:48.000Z</time>
      </trkpt>
      <trkpt lat="42.94156" lon="2.30857">
        <ele>264</ele>
        <time>2025-08-05T12:35:53.000Z</time>
      </trkpt>
      <trkpt lat="42.94155" lon="2.30852">
        <ele>263.79998779297</ele>
        <time>2025-08-05T12:35:54.000Z</time>
      </trkpt>
      <trkpt lat="42.94153" lon="2.3084">
        <ele>263.79998779297</ele>
        <time>2025-08-05T12:35:56.000Z</time>
      </trkpt>
      <trkpt lat="42.94149" lon="2.308">
        <ele>264</ele>
        <time>2025-08-05T12:36:03.000Z</time>
      </trkpt>
      <trkpt lat="42.94146" lon="2.30742">
        <ele>263.79998779297</ele>
        <time>2025-08-05T12:36:13.000Z</time>
      </trkpt>
      <trkpt lat="42.94146" lon="2.30724">
        <ele>263.60000610352</ele>
        <time>2025-08-05T12:36:16.000Z</time>
      </trkpt>
      <trkpt lat="42.94143" lon="2.30687">
        <ele>263.60000610352</ele>
        <time>2025-08-05T12:36:22.000Z</time>
      </trkpt>
      <trkpt lat="42.94142" lon="2.30622">
        <ele>263.39999389648</ele>
        <time>2025-08-05T12:36:33.000Z</time>
      </trkpt>
      <trkpt lat="42.94144" lon="2.30565">
        <ele>263.20001220703</ele>
        <time>2025-08-05T12:36:42.000Z</time>
      </trkpt>
      <trkpt lat="42.94143" lon="2.30509">
        <ele>263.20001220703</ele>
        <time>2025-08-05T12:36:51.000Z</time>
      </trkpt>
      <trkpt lat="42.94132" lon="2.30467">
        <ele>263.20001220703</ele>
        <time>2025-08-05T12:36:58.000Z</time>
      </trkpt>
      <trkpt lat="42.94124" lon="2.30451">
        <ele>262.79998779297</ele>
        <time>2025-08-05T12:37:01.000Z</time>
      </trkpt>
      <trkpt lat="42.94116" lon="2.30436">
        <ele>262.79998779297</ele>
        <time>2025-08-05T12:37:04.000Z</time>
      </trkpt>
      <trkpt lat="42.94107" lon="2.30423">
        <ele>263</ele>
        <time>2025-08-05T12:37:07.000Z</time>
      </trkpt>
      <trkpt lat="42.94091" lon="2.30394">
        <ele>263.20001220703</ele>
        <time>2025-08-05T12:37:13.000Z</time>
      </trkpt>
      <trkpt lat="42.94086" lon="2.30384">
        <ele>263.20001220703</ele>
        <time>2025-08-05T12:37:15.000Z</time>
      </trkpt>
      <trkpt lat="42.94066" lon="2.30335">
        <ele>262.60000610352</ele>
        <time>2025-08-05T12:37:24.000Z</time>
      </trkpt>
      <trkpt lat="42.94041" lon="2.30271">
        <ele>262.20001220703</ele>
        <time>2025-08-05T12:37:36.000Z</time>
      </trkpt>
      <trkpt lat="42.94027" lon="2.30215">
        <ele>262.39999389648</ele>
        <time>2025-08-05T12:37:46.000Z</time>
      </trkpt>
      <trkpt lat="42.94016" lon="2.30174">
        <ele>262</ele>
        <time>2025-08-05T12:37:53.000Z</time>
      </trkpt>
      <trkpt lat="42.9401" lon="2.30152">
        <ele>262</ele>
        <time>2025-08-05T12:37:57.000Z</time>
      </trkpt>
      <trkpt lat="42.94008" lon="2.30146">
        <ele>262</ele>
        <time>2025-08-05T12:37:58.000Z</time>
      </trkpt>
      <trkpt lat="42.94005" lon="2.30134">
        <ele>262</ele>
        <time>2025-08-05T12:38:00.000Z</time>
      </trkpt>
      <trkpt lat="42.93997" lon="2.30106">
        <ele>261.60000610352</ele>
        <time>2025-08-05T12:38:05.000Z</time>
      </trkpt>
      <trkpt lat="42.93991" lon="2.30089">
        <ele>261.60000610352</ele>
        <time>2025-08-05T12:38:08.000Z</time>
      </trkpt>
      <trkpt lat="42.9397" lon="2.30026">
        <ele>261.20001220703</ele>
        <time>2025-08-05T12:38:19.000Z</time>
      </trkpt>
      <trkpt lat="42.93958" lon="2.29968">
        <ele>261.39999389648</ele>
        <time>2025-08-05T12:38:29.000Z</time>
      </trkpt>
      <trkpt lat="42.93948" lon="2.29917">
        <ele>260.79998779297</ele>
        <time>2025-08-05T12:38:38.000Z</time>
      </trkpt>
      <trkpt lat="42.93942" lon="2.29895">
        <ele>260.60000610352</ele>
        <time>2025-08-05T12:38:42.000Z</time>
      </trkpt>
      <trkpt lat="42.93926" lon="2.29848">
        <ele>260.39999389648</ele>
        <time>2025-08-05T12:38:51.000Z</time>
      </trkpt>
      <trkpt lat="42.93912" lon="2.29809">
        <ele>260</ele>
        <time>2025-08-05T12:38:58.000Z</time>
      </trkpt>
      <trkpt lat="42.93911" lon="2.29803">
        <ele>260</ele>
        <time>2025-08-05T12:38:59.000Z</time>
      </trkpt>
      <trkpt lat="42.93907" lon="2.29784">
        <ele>259.79998779297</ele>
        <time>2025-08-05T12:39:02.000Z</time>
      </trkpt>
      <trkpt lat="42.93905" lon="2.29746">
        <ele>259.39999389648</ele>
        <time>2025-08-05T12:39:08.000Z</time>
      </trkpt>
      <trkpt lat="42.939" lon="2.29715">
        <ele>259.39999389648</ele>
        <time>2025-08-05T12:39:13.000Z</time>
      </trkpt>
      <trkpt lat="42.93896" lon="2.29698">
        <ele>259.39999389648</ele>
        <time>2025-08-05T12:39:16.000Z</time>
      </trkpt>
      <trkpt lat="42.93882" lon="2.29654">
        <ele>259</ele>
        <time>2025-08-05T12:39:24.000Z</time>
      </trkpt>
      <trkpt lat="42.9388" lon="2.29649">
        <ele>258.79998779297</ele>
        <time>2025-08-05T12:39:25.000Z</time>
      </trkpt>
      <trkpt lat="42.93869" lon="2.29609">
        <ele>258.60000610352</ele>
        <time>2025-08-05T12:39:32.000Z</time>
      </trkpt>
      <trkpt lat="42.93868" lon="2.29603">
        <ele>258.39999389648</ele>
        <time>2025-08-05T12:39:33.000Z</time>
      </trkpt>
      <trkpt lat="42.93867" lon="2.29578">
        <ele>258.20001220703</ele>
        <time>2025-08-05T12:39:37.000Z</time>
      </trkpt>
      <trkpt lat="42.93869" lon="2.29564">
        <ele>258.20001220703</ele>
        <time>2025-08-05T12:39:39.000Z</time>
      </trkpt>
      <trkpt lat="42.93875" lon="2.29541">
        <ele>258</ele>
        <time>2025-08-05T12:39:43.000Z</time>
      </trkpt>
      <trkpt lat="42.93887" lon="2.29505">
        <ele>257.79998779297</ele>
        <time>2025-08-05T12:39:49.000Z</time>
      </trkpt>
      <trkpt lat="42.93898" lon="2.29474">
        <ele>257.20001220703</ele>
        <time>2025-08-05T12:39:54.000Z</time>
      </trkpt>
      <trkpt lat="42.93912" lon="2.29417">
        <ele>257.20001220703</ele>
        <time>2025-08-05T12:40:03.000Z</time>
      </trkpt>
      <trkpt lat="42.93915" lon="2.2939">
        <ele>257.39999389648</ele>
        <time>2025-08-05T12:40:07.000Z</time>
      </trkpt>
      <trkpt lat="42.93917" lon="2.29363">
        <ele>257.39999389648</ele>
        <time>2025-08-05T12:40:11.000Z</time>
      </trkpt>
      <trkpt lat="42.9393" lon="2.29317">
        <ele>257.39999389648</ele>
        <time>2025-08-05T12:40:18.000Z</time>
      </trkpt>
      <trkpt lat="42.93958" lon="2.29255">
        <ele>257.20001220703</ele>
        <time>2025-08-05T12:40:28.000Z</time>
      </trkpt>
      <trkpt lat="42.93961" lon="2.29249">
        <ele>257.20001220703</ele>
        <time>2025-08-05T12:40:29.000Z</time>
      </trkpt>
      <trkpt lat="42.93977" lon="2.29193">
        <ele>257.20001220703</ele>
        <time>2025-08-05T12:40:37.000Z</time>
      </trkpt>
      <trkpt lat="42.93984" lon="2.29114">
        <ele>256.79998779297</ele>
        <time>2025-08-05T12:40:48.000Z</time>
      </trkpt>
      <trkpt lat="42.93985" lon="2.29107">
        <ele>256.79998779297</ele>
        <time>2025-08-05T12:40:49.000Z</time>
      </trkpt>
      <trkpt lat="42.93987" lon="2.2906">
        <ele>256.79998779297</ele>
        <time>2025-08-05T12:40:56.000Z</time>
      </trkpt>
      <trkpt lat="42.93986" lon="2.29033">
        <ele>256.60000610352</ele>
        <time>2025-08-05T12:41:00.000Z</time>
      </trkpt>
      <trkpt lat="42.93985" lon="2.29027">
        <ele>256.60000610352</ele>
        <time>2025-08-05T12:41:01.000Z</time>
      </trkpt>
      <trkpt lat="42.93983" lon="2.29021">
        <ele>256.60000610352</ele>
        <time>2025-08-05T12:41:02.000Z</time>
      </trkpt>
      <trkpt lat="42.93972" lon="2.28995">
        <ele>256.60000610352</ele>
        <time>2025-08-05T12:41:07.000Z</time>
      </trkpt>
      <trkpt lat="42.9397" lon="2.28991">
        <ele>256.60000610352</ele>
        <time>2025-08-05T12:41:08.000Z</time>
      </trkpt>
      <trkpt lat="42.93967" lon="2.28987">
        <ele>256.60000610352</ele>
        <time>2025-08-05T12:41:09.000Z</time>
      </trkpt>
      <trkpt lat="42.9396" lon="2.28974">
        <ele>257</ele>
        <time>2025-08-05T12:41:12.000Z</time>
      </trkpt>
      <trkpt lat="42.93944" lon="2.28935">
        <ele>256.79998779297</ele>
        <time>2025-08-05T12:41:20.000Z</time>
      </trkpt>
      <trkpt lat="42.93944" lon="2.28931">
        <ele>256.60000610352</ele>
        <time>2025-08-05T12:41:21.000Z</time>
      </trkpt>
      <trkpt lat="42.93941" lon="2.28904">
        <ele>256.20001220703</ele>
        <time>2025-08-05T12:41:26.000Z</time>
      </trkpt>
      <trkpt lat="42.9394" lon="2.28876">
        <ele>255.80000305176</ele>
        <time>2025-08-05T12:41:31.000Z</time>
      </trkpt>
      <trkpt lat="42.9394" lon="2.28839">
        <ele>255</ele>
        <time>2025-08-05T12:41:38.000Z</time>
      </trkpt>
      <trkpt lat="42.9394" lon="2.28786">
        <ele>255</ele>
        <time>2025-08-05T12:41:48.000Z</time>
      </trkpt>
      <trkpt lat="42.93941" lon="2.28772">
        <ele>254.80000305176</ele>
        <time>2025-08-05T12:41:51.000Z</time>
      </trkpt>
      <trkpt lat="42.93941" lon="2.28744">
        <ele>254.60000610352</ele>
        <time>2025-08-05T12:41:56.000Z</time>
      </trkpt>
      <trkpt lat="42.93943" lon="2.28701">
        <ele>254.60000610352</ele>
        <time>2025-08-05T12:42:04.000Z</time>
      </trkpt>
      <trkpt lat="42.93948" lon="2.28662">
        <ele>254.39999389648</ele>
        <time>2025-08-05T12:42:11.000Z</time>
      </trkpt>
      <trkpt lat="42.93954" lon="2.28637">
        <ele>254</ele>
        <time>2025-08-05T12:42:16.000Z</time>
      </trkpt>
      <trkpt lat="42.93956" lon="2.28625">
        <ele>254</ele>
        <time>2025-08-05T12:42:18.000Z</time>
      </trkpt>
      <trkpt lat="42.93957" lon="2.2862">
        <ele>254</ele>
        <time>2025-08-05T12:42:19.000Z</time>
      </trkpt>
      <trkpt lat="42.93959" lon="2.28614">
        <ele>254</ele>
        <time>2025-08-05T12:42:20.000Z</time>
      </trkpt>
      <trkpt lat="42.93966" lon="2.2858">
        <ele>253.80000305176</ele>
        <time>2025-08-05T12:42:26.000Z</time>
      </trkpt>
      <trkpt lat="42.93968" lon="2.28566">
        <ele>253.80000305176</ele>
        <time>2025-08-05T12:42:28.000Z</time>
      </trkpt>
      <trkpt lat="42.93976" lon="2.28528">
        <ele>253.80000305176</ele>
        <time>2025-08-05T12:42:34.000Z</time>
      </trkpt>
      <trkpt lat="42.93984" lon="2.28485">
        <ele>253.60000610352</ele>
        <time>2025-08-05T12:42:41.000Z</time>
      </trkpt>
      <trkpt lat="42.93987" lon="2.28453">
        <ele>253.60000610352</ele>
        <time>2025-08-05T12:42:46.000Z</time>
      </trkpt>
      <trkpt lat="42.93986" lon="2.2844">
        <ele>253.39999389648</ele>
        <time>2025-08-05T12:42:48.000Z</time>
      </trkpt>
      <trkpt lat="42.93978" lon="2.28399">
        <ele>253.19999694824</ele>
        <time>2025-08-05T12:42:55.000Z</time>
      </trkpt>
      <trkpt lat="42.93965" lon="2.28333">
        <ele>253.19999694824</ele>
        <time>2025-08-05T12:43:05.000Z</time>
      </trkpt>
      <trkpt lat="42.93957" lon="2.283">
        <ele>253</ele>
        <time>2025-08-05T12:43:10.000Z</time>
      </trkpt>
      <trkpt lat="42.93952" lon="2.28282">
        <ele>252.60000610352</ele>
        <time>2025-08-05T12:43:13.000Z</time>
      </trkpt>
      <trkpt lat="42.93931" lon="2.28224">
        <ele>251.80000305176</ele>
        <time>2025-08-05T12:43:22.000Z</time>
      </trkpt>
      <trkpt lat="42.93926" lon="2.28212">
        <ele>251.80000305176</ele>
        <time>2025-08-05T12:43:24.000Z</time>
      </trkpt>
      <trkpt lat="42.93898" lon="2.28149">
        <ele>251.39999389648</ele>
        <time>2025-08-05T12:43:35.000Z</time>
      </trkpt>
      <trkpt lat="42.93882" lon="2.281">
        <ele>251</ele>
        <time>2025-08-05T12:43:43.000Z</time>
      </trkpt>
      <trkpt lat="42.93881" lon="2.28093">
        <ele>250.80000305176</ele>
        <time>2025-08-05T12:43:44.000Z</time>
      </trkpt>
      <trkpt lat="42.93876" lon="2.28068">
        <ele>250.80000305176</ele>
        <time>2025-08-05T12:43:48.000Z</time>
      </trkpt>
      <trkpt lat="42.93875" lon="2.28056">
        <ele>250.80000305176</ele>
        <time>2025-08-05T12:43:50.000Z</time>
      </trkpt>
      <trkpt lat="42.93876" lon="2.27998">
        <ele>250.60000610352</ele>
        <time>2025-08-05T12:43:59.000Z</time>
      </trkpt>
      <trkpt lat="42.93876" lon="2.27954">
        <ele>250</ele>
        <time>2025-08-05T12:44:06.000Z</time>
      </trkpt>
      <trkpt lat="42.93874" lon="2.27934">
        <ele>249.80000305176</ele>
        <time>2025-08-05T12:44:09.000Z</time>
      </trkpt>
      <trkpt lat="42.93863" lon="2.27894">
        <ele>249.39999389648</ele>
        <time>2025-08-05T12:44:16.000Z</time>
      </trkpt>
      <trkpt lat="42.93853" lon="2.2786">
        <ele>249.39999389648</ele>
        <time>2025-08-05T12:44:22.000Z</time>
      </trkpt>
      <trkpt lat="42.93851" lon="2.27848">
        <ele>249.39999389648</ele>
        <time>2025-08-05T12:44:24.000Z</time>
      </trkpt>
      <trkpt lat="42.93842" lon="2.2779">
        <ele>249.39999389648</ele>
        <time>2025-08-05T12:44:34.000Z</time>
      </trkpt>
      <trkpt lat="42.93837" lon="2.27763">
        <ele>249.60000610352</ele>
        <time>2025-08-05T12:44:39.000Z</time>
      </trkpt>
      <trkpt lat="42.93834" lon="2.27747">
        <ele>249.80000305176</ele>
        <time>2025-08-05T12:44:42.000Z</time>
      </trkpt>
      <trkpt lat="42.93822" lon="2.2771">
        <ele>250.19999694824</ele>
        <time>2025-08-05T12:44:50.000Z</time>
      </trkpt>
      <trkpt lat="42.93813" lon="2.27674">
        <ele>250</ele>
        <time>2025-08-05T12:44:57.000Z</time>
      </trkpt>
      <trkpt lat="42.93814" lon="2.27661">
        <ele>250</ele>
        <time>2025-08-05T12:44:59.000Z</time>
      </trkpt>
      <trkpt lat="42.93816" lon="2.27648">
        <ele>250</ele>
        <time>2025-08-05T12:45:01.000Z</time>
      </trkpt>
      <trkpt lat="42.93818" lon="2.27642">
        <ele>249.80000305176</ele>
        <time>2025-08-05T12:45:02.000Z</time>
      </trkpt>
      <trkpt lat="42.93829" lon="2.2761">
        <ele>249.19999694824</ele>
        <time>2025-08-05T12:45:07.000Z</time>
      </trkpt>
      <trkpt lat="42.93833" lon="2.27597">
        <ele>248.80000305176</ele>
        <time>2025-08-05T12:45:09.000Z</time>
      </trkpt>
      <trkpt lat="42.93835" lon="2.27591">
        <ele>248.80000305176</ele>
        <time>2025-08-05T12:45:10.000Z</time>
      </trkpt>
      <trkpt lat="42.93842" lon="2.27574">
        <ele>248.60000610352</ele>
        <time>2025-08-05T12:45:13.000Z</time>
      </trkpt>
      <trkpt lat="42.93853" lon="2.27541">
        <ele>248.60000610352</ele>
        <time>2025-08-05T12:45:19.000Z</time>
      </trkpt>
      <trkpt lat="42.9387" lon="2.27497">
        <ele>248.39999389648</ele>
        <time>2025-08-05T12:45:27.000Z</time>
      </trkpt>
      <trkpt lat="42.93892" lon="2.27454">
        <ele>248.39999389648</ele>
        <time>2025-08-05T12:45:35.000Z</time>
      </trkpt>
      <trkpt lat="42.93901" lon="2.27432">
        <ele>248.19999694824</ele>
        <time>2025-08-05T12:45:39.000Z</time>
      </trkpt>
      <trkpt lat="42.93904" lon="2.27427">
        <ele>248</ele>
        <time>2025-08-05T12:45:40.000Z</time>
      </trkpt>
      <trkpt lat="42.9391" lon="2.27418">
        <ele>248</ele>
        <time>2025-08-05T12:45:42.000Z</time>
      </trkpt>
      <trkpt lat="42.93928" lon="2.27389">
        <ele>247.39999389648</ele>
        <time>2025-08-05T12:45:48.000Z</time>
      </trkpt>
      <trkpt lat="42.93964" lon="2.27343">
        <ele>247.39999389648</ele>
        <time>2025-08-05T12:45:59.000Z</time>
      </trkpt>
      <trkpt lat="42.93995" lon="2.27297">
        <ele>247.19999694824</ele>
        <time>2025-08-05T12:46:09.000Z</time>
      </trkpt>
      <trkpt lat="42.94013" lon="2.27245">
        <ele>247</ele>
        <time>2025-08-05T12:46:18.000Z</time>
      </trkpt>
      <trkpt lat="42.94014" lon="2.2724">
        <ele>247</ele>
        <time>2025-08-05T12:46:19.000Z</time>
      </trkpt>
      <trkpt lat="42.94024" lon="2.27193">
        <ele>246.39999389648</ele>
        <time>2025-08-05T12:46:27.000Z</time>
      </trkpt>
      <trkpt lat="42.94027" lon="2.27176">
        <ele>246.19999694824</ele>
        <time>2025-08-05T12:46:30.000Z</time>
      </trkpt>
      <trkpt lat="42.94027" lon="2.27155">
        <ele>246.19999694824</ele>
        <time>2025-08-05T12:46:33.000Z</time>
      </trkpt>
      <trkpt lat="42.94024" lon="2.27123">
        <ele>246.19999694824</ele>
        <time>2025-08-05T12:46:38.000Z</time>
      </trkpt>
      <trkpt lat="42.94021" lon="2.27111">
        <ele>246.19999694824</ele>
        <time>2025-08-05T12:46:40.000Z</time>
      </trkpt>
      <trkpt lat="42.94011" lon="2.27074">
        <ele>246.19999694824</ele>
        <time>2025-08-05T12:46:46.000Z</time>
      </trkpt>
      <trkpt lat="42.9401" lon="2.27067">
        <ele>246.19999694824</ele>
        <time>2025-08-05T12:46:47.000Z</time>
      </trkpt>
      <trkpt lat="42.94006" lon="2.27033">
        <ele>245.80000305176</ele>
        <time>2025-08-05T12:46:52.000Z</time>
      </trkpt>
      <trkpt lat="42.94006" lon="2.2702">
        <ele>245.80000305176</ele>
        <time>2025-08-05T12:46:54.000Z</time>
      </trkpt>
      <trkpt lat="42.94008" lon="2.26954">
        <ele>245.19999694824</ele>
        <time>2025-08-05T12:47:04.000Z</time>
      </trkpt>
      <trkpt lat="42.94011" lon="2.26894">
        <ele>245</ele>
        <time>2025-08-05T12:47:13.000Z</time>
      </trkpt>
      <trkpt lat="42.94011" lon="2.26881">
        <ele>245</ele>
        <time>2025-08-05T12:47:15.000Z</time>
      </trkpt>
      <trkpt lat="42.94014" lon="2.26835">
        <ele>244.80000305176</ele>
        <time>2025-08-05T12:47:22.000Z</time>
      </trkpt>
      <trkpt lat="42.94022" lon="2.26789">
        <ele>244.80000305176</ele>
        <time>2025-08-05T12:47:29.000Z</time>
      </trkpt>
      <trkpt lat="42.94038" lon="2.26719">
        <ele>244.60000610352</ele>
        <time>2025-08-05T12:47:40.000Z</time>
      </trkpt>
      <trkpt lat="42.94049" lon="2.26684">
        <ele>244.39999389648</ele>
        <time>2025-08-05T12:47:46.000Z</time>
      </trkpt>
      <trkpt lat="42.94054" lon="2.26673">
        <ele>244.39999389648</ele>
        <time>2025-08-05T12:47:48.000Z</time>
      </trkpt>
      <trkpt lat="42.94066" lon="2.26652">
        <ele>244</ele>
        <time>2025-08-05T12:47:52.000Z</time>
      </trkpt>
      <trkpt lat="42.94078" lon="2.2663">
        <ele>244</ele>
        <time>2025-08-05T12:47:56.000Z</time>
      </trkpt>
      <trkpt lat="42.94111" lon="2.26579">
        <ele>243.80000305176</ele>
        <time>2025-08-05T12:48:06.000Z</time>
      </trkpt>
      <trkpt lat="42.94142" lon="2.26526">
        <ele>243.19999694824</ele>
        <time>2025-08-05T12:48:16.000Z</time>
      </trkpt>
      <trkpt lat="42.94147" lon="2.26514">
        <ele>243.19999694824</ele>
        <time>2025-08-05T12:48:18.000Z</time>
      </trkpt>
      <trkpt lat="42.94154" lon="2.26488">
        <ele>243</ele>
        <time>2025-08-05T12:48:22.000Z</time>
      </trkpt>
      <trkpt lat="42.94168" lon="2.26412">
        <ele>243.19999694824</ele>
        <time>2025-08-05T12:48:33.000Z</time>
      </trkpt>
      <trkpt lat="42.94168" lon="2.26399">
        <ele>243.19999694824</ele>
        <time>2025-08-05T12:48:35.000Z</time>
      </trkpt>
      <trkpt lat="42.94165" lon="2.26377">
        <ele>243.19999694824</ele>
        <time>2025-08-05T12:48:38.000Z</time>
      </trkpt>
      <trkpt lat="42.94151" lon="2.26338">
        <ele>242.80000305176</ele>
        <time>2025-08-05T12:48:44.000Z</time>
      </trkpt>
      <trkpt lat="42.9414" lon="2.26313">
        <ele>243</ele>
        <time>2025-08-05T12:48:48.000Z</time>
      </trkpt>
      <trkpt lat="42.94137" lon="2.26299">
        <ele>243.19999694824</ele>
        <time>2025-08-05T12:48:50.000Z</time>
      </trkpt>
      <trkpt lat="42.94134" lon="2.26285">
        <ele>243.19999694824</ele>
        <time>2025-08-05T12:48:52.000Z</time>
      </trkpt>
      <trkpt lat="42.94133" lon="2.26263">
        <ele>243</ele>
        <time>2025-08-05T12:48:55.000Z</time>
      </trkpt>
      <trkpt lat="42.94133" lon="2.26249">
        <ele>243.19999694824</ele>
        <time>2025-08-05T12:48:57.000Z</time>
      </trkpt>
      <trkpt lat="42.94133" lon="2.26227">
        <ele>242.80000305176</ele>
        <time>2025-08-05T12:49:00.000Z</time>
      </trkpt>
      <trkpt lat="42.94133" lon="2.2617">
        <ele>242.39999389648</ele>
        <time>2025-08-05T12:49:08.000Z</time>
      </trkpt>
      <trkpt lat="42.94133" lon="2.26164">
        <ele>242.19999694824</ele>
        <time>2025-08-05T12:49:09.000Z</time>
      </trkpt>
      <trkpt lat="42.94133" lon="2.26157">
        <ele>242.19999694824</ele>
        <time>2025-08-05T12:49:10.000Z</time>
      </trkpt>
      <trkpt lat="42.94132" lon="2.26136">
        <ele>241.80000305176</ele>
        <time>2025-08-05T12:49:13.000Z</time>
      </trkpt>
      <trkpt lat="42.94132" lon="2.26122">
        <ele>241.60000610352</ele>
        <time>2025-08-05T12:49:15.000Z</time>
      </trkpt>
      <trkpt lat="42.94131" lon="2.261">
        <ele>241.39999389648</ele>
        <time>2025-08-05T12:49:18.000Z</time>
      </trkpt>
      <trkpt lat="42.94131" lon="2.26086">
        <ele>241.19999694824</ele>
        <time>2025-08-05T12:49:20.000Z</time>
      </trkpt>
      <trkpt lat="42.94131" lon="2.26056">
        <ele>240.60000610352</ele>
        <time>2025-08-05T12:49:24.000Z</time>
      </trkpt>
      <trkpt lat="42.94133" lon="2.26035">
        <ele>240.39999389648</ele>
        <time>2025-08-05T12:49:27.000Z</time>
      </trkpt>
      <trkpt lat="42.94134" lon="2.26028">
        <ele>240</ele>
        <time>2025-08-05T12:49:28.000Z</time>
      </trkpt>
      <trkpt lat="42.94136" lon="2.26021">
        <ele>240</ele>
        <time>2025-08-05T12:49:29.000Z</time>
      </trkpt>
      <trkpt lat="42.94149" lon="2.25986">
        <ele>239.19999694824</ele>
        <time>2025-08-05T12:49:35.000Z</time>
      </trkpt>
      <trkpt lat="42.94163" lon="2.25945">
        <ele>238.39999389648</ele>
        <time>2025-08-05T12:49:42.000Z</time>
      </trkpt>
      <trkpt lat="42.94168" lon="2.25928">
        <ele>238.19999694824</ele>
        <time>2025-08-05T12:49:45.000Z</time>
      </trkpt>
      <trkpt lat="42.94176" lon="2.25905">
        <ele>238</ele>
        <time>2025-08-05T12:49:49.000Z</time>
      </trkpt>
      <trkpt lat="42.94189" lon="2.25868">
        <ele>237.60000610352</ele>
        <time>2025-08-05T12:49:55.000Z</time>
      </trkpt>
      <trkpt lat="42.94192" lon="2.25863">
        <ele>237.60000610352</ele>
        <time>2025-08-05T12:49:56.000Z</time>
      </trkpt>
      <trkpt lat="42.94205" lon="2.2582">
        <ele>237</ele>
        <time>2025-08-05T12:50:03.000Z</time>
      </trkpt>
      <trkpt lat="42.94207" lon="2.25815">
        <ele>237</ele>
        <time>2025-08-05T12:50:04.000Z</time>
      </trkpt>
      <trkpt lat="42.94227" lon="2.2576">
        <ele>236</ele>
        <time>2025-08-05T12:50:14.000Z</time>
      </trkpt>
      <trkpt lat="42.94229" lon="2.25755">
        <ele>236</ele>
        <time>2025-08-05T12:50:15.000Z</time>
      </trkpt>
      <trkpt lat="42.94235" lon="2.25737">
        <ele>236.39999389648</ele>
        <time>2025-08-05T12:50:18.000Z</time>
      </trkpt>
      <trkpt lat="42.94245" lon="2.25711">
        <ele>236.60000610352</ele>
        <time>2025-08-05T12:50:23.000Z</time>
      </trkpt>
      <trkpt lat="42.94249" lon="2.257">
        <ele>236.60000610352</ele>
        <time>2025-08-05T12:50:25.000Z</time>
      </trkpt>
      <trkpt lat="42.94253" lon="2.25689">
        <ele>236.80000305176</ele>
        <time>2025-08-05T12:50:27.000Z</time>
      </trkpt>
      <trkpt lat="42.94257" lon="2.25673">
        <ele>236.80000305176</ele>
        <time>2025-08-05T12:50:30.000Z</time>
      </trkpt>
      <trkpt lat="42.94268" lon="2.25646">
        <ele>236.80000305176</ele>
        <time>2025-08-05T12:50:35.000Z</time>
      </trkpt>
      <trkpt lat="42.94273" lon="2.25629">
        <ele>236.60000610352</ele>
        <time>2025-08-05T12:50:38.000Z</time>
      </trkpt>
      <trkpt lat="42.94275" lon="2.25624">
        <ele>236.60000610352</ele>
        <time>2025-08-05T12:50:39.000Z</time>
      </trkpt>
      <trkpt lat="42.94281" lon="2.25604">
        <ele>236.39999389648</ele>
        <time>2025-08-05T12:50:43.000Z</time>
      </trkpt>
      <trkpt lat="42.9429" lon="2.2558">
        <ele>236.39999389648</ele>
        <time>2025-08-05T12:50:49.000Z</time>
      </trkpt>
      <trkpt lat="42.94294" lon="2.25568">
        <ele>236.19999694824</ele>
        <time>2025-08-05T12:50:54.000Z</time>
      </trkpt>
      <trkpt lat="42.94294" lon="2.25568">
        <ele>236</ele>
        <time>2025-08-05T12:50:56.000Z</time>
      </trkpt>
      <trkpt lat="42.94295" lon="2.25562">
        <ele>234.80000305176</ele>
        <time>2025-08-05T12:51:26.000Z</time>
      </trkpt>
      <trkpt lat="42.94296" lon="2.25559">
        <ele>234.80000305176</ele>
        <time>2025-08-05T12:51:27.000Z</time>
      </trkpt>
      <trkpt lat="42.94297" lon="2.25548">
        <ele>234.80000305176</ele>
        <time>2025-08-05T12:51:30.000Z</time>
      </trkpt>
      <trkpt lat="42.94295" lon="2.25544">
        <ele>235</ele>
        <time>2025-08-05T12:51:31.000Z</time>
      </trkpt>
      <trkpt lat="42.9428" lon="2.25526">
        <ele>234.80000305176</ele>
        <time>2025-08-05T12:51:36.000Z</time>
      </trkpt>
      <trkpt lat="42.9426" lon="2.25505">
        <ele>235.19999694824</ele>
        <time>2025-08-05T12:51:42.000Z</time>
      </trkpt>
      <trkpt lat="42.94255" lon="2.25498">
        <ele>235.19999694824</ele>
        <time>2025-08-05T12:51:44.000Z</time>
      </trkpt>
      <trkpt lat="42.94249" lon="2.25489">
        <ele>235.39999389648</ele>
        <time>2025-08-05T12:51:46.000Z</time>
      </trkpt>
      <trkpt lat="42.9423" lon="2.25461">
        <ele>235.80000305176</ele>
        <time>2025-08-05T12:51:54.000Z</time>
      </trkpt>
      <trkpt lat="42.94205" lon="2.25428">
        <ele>235.80000305176</ele>
        <time>2025-08-05T12:52:03.000Z</time>
      </trkpt>
      <trkpt lat="42.9419" lon="2.25406">
        <ele>235.39999389648</ele>
        <time>2025-08-05T12:52:09.000Z</time>
      </trkpt>
      <trkpt lat="42.9417" lon="2.25383">
        <ele>235</ele>
        <time>2025-08-05T12:52:15.000Z</time>
      </trkpt>
      <trkpt lat="42.94165" lon="2.25375">
        <ele>234.80000305176</ele>
        <time>2025-08-05T12:52:17.000Z</time>
      </trkpt>
      <trkpt lat="42.94159" lon="2.25366">
        <ele>235</ele>
        <time>2025-08-05T12:52:19.000Z</time>
      </trkpt>
      <trkpt lat="42.94156" lon="2.2536">
        <ele>234.80000305176</ele>
        <time>2025-08-05T12:52:20.000Z</time>
      </trkpt>
      <trkpt lat="42.94128" lon="2.25323">
        <ele>234.80000305176</ele>
        <time>2025-08-05T12:52:29.000Z</time>
      </trkpt>
      <trkpt lat="42.94111" lon="2.25301">
        <ele>234.80000305176</ele>
        <time>2025-08-05T12:52:35.000Z</time>
      </trkpt>
      <trkpt lat="42.94082" lon="2.25262">
        <ele>235.19999694824</ele>
        <time>2025-08-05T12:52:45.000Z</time>
      </trkpt>
      <trkpt lat="42.94063" lon="2.25227">
        <ele>236</ele>
        <time>2025-08-05T12:52:53.000Z</time>
      </trkpt>
      <trkpt lat="42.9405" lon="2.25195">
        <ele>236.39999389648</ele>
        <time>2025-08-05T12:53:00.000Z</time>
      </trkpt>
      <trkpt lat="42.94041" lon="2.25162">
        <ele>236.80000305176</ele>
        <time>2025-08-05T12:53:07.000Z</time>
      </trkpt>
      <trkpt lat="42.94037" lon="2.25139">
        <ele>236.80000305176</ele>
        <time>2025-08-05T12:53:11.000Z</time>
      </trkpt>
      <trkpt lat="42.94032" lon="2.25119">
        <ele>236.80000305176</ele>
        <time>2025-08-05T12:53:15.000Z</time>
      </trkpt>
      <trkpt lat="42.94025" lon="2.25081">
        <ele>236.80000305176</ele>
        <time>2025-08-05T12:53:22.000Z</time>
      </trkpt>
      <trkpt lat="42.94017" lon="2.25028">
        <ele>237</ele>
        <time>2025-08-05T12:53:31.000Z</time>
      </trkpt>
      <trkpt lat="42.94009" lon="2.24983">
        <ele>236.80000305176</ele>
        <time>2025-08-05T12:53:39.000Z</time>
      </trkpt>
      <trkpt lat="42.94002" lon="2.24943">
        <ele>236.60000610352</ele>
        <time>2025-08-05T12:53:46.000Z</time>
      </trkpt>
      <trkpt lat="42.93998" lon="2.24914">
        <ele>236.60000610352</ele>
        <time>2025-08-05T12:53:51.000Z</time>
      </trkpt>
      <trkpt lat="42.93999" lon="2.24903">
        <ele>236.60000610352</ele>
        <time>2025-08-05T12:53:53.000Z</time>
      </trkpt>
      <trkpt lat="42.94003" lon="2.24894">
        <ele>236.80000305176</ele>
        <time>2025-08-05T12:53:55.000Z</time>
      </trkpt>
      <trkpt lat="42.94006" lon="2.24891">
        <ele>236.80000305176</ele>
        <time>2025-08-05T12:53:56.000Z</time>
      </trkpt>
      <trkpt lat="42.94029" lon="2.24872">
        <ele>237.39999389648</ele>
        <time>2025-08-05T12:54:03.000Z</time>
      </trkpt>
      <trkpt lat="42.94032" lon="2.24869">
        <ele>237.60000610352</ele>
        <time>2025-08-05T12:54:04.000Z</time>
      </trkpt>
      <trkpt lat="42.94045" lon="2.24859">
        <ele>238.19999694824</ele>
        <time>2025-08-05T12:54:09.000Z</time>
      </trkpt>
      <trkpt lat="42.94055" lon="2.24852">
        <ele>238.39999389648</ele>
        <time>2025-08-05T12:54:14.000Z</time>
      </trkpt>
      <trkpt lat="42.94061" lon="2.24849">
        <ele>239</ele>
        <time>2025-08-05T12:54:19.000Z</time>
      </trkpt>
      <trkpt lat="42.94065" lon="2.24847">
        <ele>239.60000610352</ele>
        <time>2025-08-05T12:54:25.000Z</time>
      </trkpt>
      <trkpt lat="42.94066" lon="2.24846">
        <ele>239.80000305176</ele>
        <time>2025-08-05T12:54:27.000Z</time>
      </trkpt>
      <trkpt lat="42.94066" lon="2.24846">
        <ele>239.60000610352</ele>
        <time>2025-08-05T12:54:29.000Z</time>
      </trkpt>
      <trkpt lat="42.94078" lon="2.24833">
        <ele>238.39999389648</ele>
        <time>2025-08-05T12:57:36.000Z</time>
      </trkpt>
      <trkpt lat="42.9408" lon="2.24832">
        <ele>238.39999389648</ele>
        <time>2025-08-05T12:57:37.000Z</time>
      </trkpt>
      <trkpt lat="42.9409" lon="2.24823">
        <ele>238.39999389648</ele>
        <time>2025-08-05T12:57:43.000Z</time>
      </trkpt>
      <trkpt lat="42.94106" lon="2.24809">
        <ele>238.80000305176</ele>
        <time>2025-08-05T12:57:49.000Z</time>
      </trkpt>
      <trkpt lat="42.94124" lon="2.24794">
        <ele>239</ele>
        <time>2025-08-05T12:57:55.000Z</time>
      </trkpt>
      <trkpt lat="42.9415" lon="2.24773">
        <ele>238.39999389648</ele>
        <time>2025-08-05T12:58:02.000Z</time>
      </trkpt>
      <trkpt lat="42.94158" lon="2.24767">
        <ele>238</ele>
        <time>2025-08-05T12:58:04.000Z</time>
      </trkpt>
      <trkpt lat="42.94161" lon="2.2476">
        <ele>237.60000610352</ele>
        <time>2025-08-05T12:58:06.000Z</time>
      </trkpt>
      <trkpt lat="42.94159" lon="2.24742">
        <ele>237</ele>
        <time>2025-08-05T12:58:10.000Z</time>
      </trkpt>
      <trkpt lat="42.9415" lon="2.24714">
        <ele>236.60000610352</ele>
        <time>2025-08-05T12:58:16.000Z</time>
      </trkpt>
      <trkpt lat="42.94148" lon="2.2471">
        <ele>236.39999389648</ele>
        <time>2025-08-05T12:58:17.000Z</time>
      </trkpt>
      <trkpt lat="42.94137" lon="2.24682">
        <ele>236.39999389648</ele>
        <time>2025-08-05T12:58:23.000Z</time>
      </trkpt>
      <trkpt lat="42.94126" lon="2.24652">
        <ele>236.80000305176</ele>
        <time>2025-08-05T12:58:30.000Z</time>
      </trkpt>
      <trkpt lat="42.94109" lon="2.24608">
        <ele>236.80000305176</ele>
        <time>2025-08-05T12:58:40.000Z</time>
      </trkpt>
      <trkpt lat="42.94097" lon="2.24567">
        <ele>237</ele>
        <time>2025-08-05T12:58:48.000Z</time>
      </trkpt>
      <trkpt lat="42.94081" lon="2.24517">
        <ele>236.80000305176</ele>
        <time>2025-08-05T12:58:58.000Z</time>
      </trkpt>
      <trkpt lat="42.94067" lon="2.24473">
        <ele>236.39999389648</ele>
        <time>2025-08-05T12:59:07.000Z</time>
      </trkpt>
      <trkpt lat="42.94053" lon="2.24426">
        <ele>236</ele>
        <time>2025-08-05T12:59:16.000Z</time>
      </trkpt>
      <trkpt lat="42.94043" lon="2.2437">
        <ele>236.19999694824</ele>
        <time>2025-08-05T12:59:26.000Z</time>
      </trkpt>
      <trkpt lat="42.94038" lon="2.24329">
        <ele>236.19999694824</ele>
        <time>2025-08-05T12:59:33.000Z</time>
      </trkpt>
      <trkpt lat="42.94037" lon="2.24277">
        <ele>236.39999389648</ele>
        <time>2025-08-05T12:59:42.000Z</time>
      </trkpt>
      <trkpt lat="42.94038" lon="2.24266">
        <ele>236.60000610352</ele>
        <time>2025-08-05T12:59:44.000Z</time>
      </trkpt>
      <trkpt lat="42.94041" lon="2.24239">
        <ele>236.80000305176</ele>
        <time>2025-08-05T12:59:49.000Z</time>
      </trkpt>
      <trkpt lat="42.94052" lon="2.24185">
        <ele>237</ele>
        <time>2025-08-05T12:59:59.000Z</time>
      </trkpt>
      <trkpt lat="42.94067" lon="2.2414">
        <ele>237.60000610352</ele>
        <time>2025-08-05T13:00:08.000Z</time>
      </trkpt>
      <trkpt lat="42.94085" lon="2.24099">
        <ele>237.80000305176</ele>
        <time>2025-08-05T13:00:17.000Z</time>
      </trkpt>
      <trkpt lat="42.94086" lon="2.24095">
        <ele>238</ele>
        <time>2025-08-05T13:00:18.000Z</time>
      </trkpt>
      <trkpt lat="42.941" lon="2.24062">
        <ele>238.80000305176</ele>
        <time>2025-08-05T13:00:26.000Z</time>
      </trkpt>
      <trkpt lat="42.94103" lon="2.24053">
        <ele>239</ele>
        <time>2025-08-05T13:00:28.000Z</time>
      </trkpt>
      <trkpt lat="42.94114" lon="2.24028">
        <ele>239.60000610352</ele>
        <time>2025-08-05T13:00:34.000Z</time>
      </trkpt>
      <trkpt lat="42.94131" lon="2.23987">
        <ele>240</ele>
        <time>2025-08-05T13:00:43.000Z</time>
      </trkpt>
      <trkpt lat="42.94139" lon="2.23969">
        <ele>240</ele>
        <time>2025-08-05T13:00:47.000Z</time>
      </trkpt>
      <trkpt lat="42.94156" lon="2.23938">
        <ele>240.39999389648</ele>
        <time>2025-08-05T13:00:54.000Z</time>
      </trkpt>
      <trkpt lat="42.94182" lon="2.23898">
        <ele>241</ele>
        <time>2025-08-05T13:01:05.000Z</time>
      </trkpt>
      <trkpt lat="42.94188" lon="2.23887">
        <ele>241.19999694824</ele>
        <time>2025-08-05T13:01:08.000Z</time>
      </trkpt>
      <trkpt lat="42.94195" lon="2.23871">
        <ele>241.60000610352</ele>
        <time>2025-08-05T13:01:12.000Z</time>
      </trkpt>
      <trkpt lat="42.9421" lon="2.23835">
        <ele>242</ele>
        <time>2025-08-05T13:01:20.000Z</time>
      </trkpt>
      <trkpt lat="42.9422" lon="2.23802">
        <ele>241.60000610352</ele>
        <time>2025-08-05T13:01:26.000Z</time>
      </trkpt>
      <trkpt lat="42.94239" lon="2.23746">
        <ele>241.39999389648</ele>
        <time>2025-08-05T13:01:37.000Z</time>
      </trkpt>
      <trkpt lat="42.94243" lon="2.23709">
        <ele>241.80000305176</ele>
        <time>2025-08-05T13:01:44.000Z</time>
      </trkpt>
      <trkpt lat="42.94242" lon="2.23665">
        <ele>242.60000610352</ele>
        <time>2025-08-05T13:01:52.000Z</time>
      </trkpt>
      <trkpt lat="42.94241" lon="2.23649">
        <ele>242.60000610352</ele>
        <time>2025-08-05T13:01:55.000Z</time>
      </trkpt>
      <trkpt lat="42.94234" lon="2.2362">
        <ele>242.80000305176</ele>
        <time>2025-08-05T13:02:00.000Z</time>
      </trkpt>
      <trkpt lat="42.9423" lon="2.2361">
        <ele>242.80000305176</ele>
        <time>2025-08-05T13:02:02.000Z</time>
      </trkpt>
      <trkpt lat="42.94217" lon="2.23592">
        <ele>242.60000610352</ele>
        <time>2025-08-05T13:02:06.000Z</time>
      </trkpt>
      <trkpt lat="42.94213" lon="2.23588">
        <ele>242.60000610352</ele>
        <time>2025-08-05T13:02:07.000Z</time>
      </trkpt>
      <trkpt lat="42.9419" lon="2.23569">
        <ele>242.39999389648</ele>
        <time>2025-08-05T13:02:13.000Z</time>
      </trkpt>
      <trkpt lat="42.94168" lon="2.23552">
        <ele>242</ele>
        <time>2025-08-05T13:02:19.000Z</time>
      </trkpt>
      <trkpt lat="42.94132" lon="2.23523">
        <ele>241.60000610352</ele>
        <time>2025-08-05T13:02:29.000Z</time>
      </trkpt>
      <trkpt lat="42.94128" lon="2.2352">
        <ele>241.60000610352</ele>
        <time>2025-08-05T13:02:30.000Z</time>
      </trkpt>
      <trkpt lat="42.94121" lon="2.23514">
        <ele>241.39999389648</ele>
        <time>2025-08-05T13:02:32.000Z</time>
      </trkpt>
      <trkpt lat="42.94107" lon="2.23503">
        <ele>241.39999389648</ele>
        <time>2025-08-05T13:02:36.000Z</time>
      </trkpt>
      <trkpt lat="42.94104" lon="2.235">
        <ele>241.39999389648</ele>
        <time>2025-08-05T13:02:37.000Z</time>
      </trkpt>
      <trkpt lat="42.94073" lon="2.23474">
        <ele>241.39999389648</ele>
        <time>2025-08-05T13:02:46.000Z</time>
      </trkpt>
      <trkpt lat="42.94042" lon="2.2345">
        <ele>241.19999694824</ele>
        <time>2025-08-05T13:02:55.000Z</time>
      </trkpt>
      <trkpt lat="42.94021" lon="2.23433">
        <ele>241.19999694824</ele>
        <time>2025-08-05T13:03:02.000Z</time>
      </trkpt>
      <trkpt lat="42.93996" lon="2.23412">
        <ele>241.60000610352</ele>
        <time>2025-08-05T13:03:10.000Z</time>
      </trkpt>
      <trkpt lat="42.93973" lon="2.23394">
        <ele>241.80000305176</ele>
        <time>2025-08-05T13:03:16.000Z</time>
      </trkpt>
      <trkpt lat="42.9397" lon="2.23392">
        <ele>241.80000305176</ele>
        <time>2025-08-05T13:03:17.000Z</time>
      </trkpt>
      <trkpt lat="42.93936" lon="2.23365">
        <ele>242.19999694824</ele>
        <time>2025-08-05T13:03:27.000Z</time>
      </trkpt>
      <trkpt lat="42.93904" lon="2.2334">
        <ele>242.60000610352</ele>
        <time>2025-08-05T13:03:37.000Z</time>
      </trkpt>
      <trkpt lat="42.93893" lon="2.23331">
        <ele>242.80000305176</ele>
        <time>2025-08-05T13:03:41.000Z</time>
      </trkpt>
      <trkpt lat="42.93883" lon="2.23322">
        <ele>243</ele>
        <time>2025-08-05T13:03:45.000Z</time>
      </trkpt>
      <trkpt lat="42.93862" lon="2.23306">
        <ele>243.60000610352</ele>
        <time>2025-08-05T13:03:53.000Z</time>
      </trkpt>
      <trkpt lat="42.93845" lon="2.23294">
        <ele>243.80000305176</ele>
        <time>2025-08-05T13:03:59.000Z</time>
      </trkpt>
      <trkpt lat="42.93819" lon="2.23272">
        <ele>244</ele>
        <time>2025-08-05T13:04:08.000Z</time>
      </trkpt>
      <trkpt lat="42.93791" lon="2.2325">
        <ele>244.39999389648</ele>
        <time>2025-08-05T13:04:17.000Z</time>
      </trkpt>
      <trkpt lat="42.93775" lon="2.23237">
        <ele>244.80000305176</ele>
        <time>2025-08-05T13:04:22.000Z</time>
      </trkpt>
      <trkpt lat="42.9376" lon="2.23225">
        <ele>245</ele>
        <time>2025-08-05T13:04:27.000Z</time>
      </trkpt>
      <trkpt lat="42.93733" lon="2.23203">
        <ele>245</ele>
        <time>2025-08-05T13:04:36.000Z</time>
      </trkpt>
      <trkpt lat="42.93711" lon="2.23186">
        <ele>244.80000305176</ele>
        <time>2025-08-05T13:04:43.000Z</time>
      </trkpt>
      <trkpt lat="42.93688" lon="2.23167">
        <ele>244.19999694824</ele>
        <time>2025-08-05T13:04:51.000Z</time>
      </trkpt>
      <trkpt lat="42.93658" lon="2.23143">
        <ele>243.80000305176</ele>
        <time>2025-08-05T13:05:01.000Z</time>
      </trkpt>
      <trkpt lat="42.93655" lon="2.23141">
        <ele>243.80000305176</ele>
        <time>2025-08-05T13:05:02.000Z</time>
      </trkpt>
      <trkpt lat="42.93636" lon="2.23123">
        <ele>243.80000305176</ele>
        <time>2025-08-05T13:05:08.000Z</time>
      </trkpt>
      <trkpt lat="42.93607" lon="2.231">
        <ele>244.80000305176</ele>
        <time>2025-08-05T13:05:16.000Z</time>
      </trkpt>
      <trkpt lat="42.93604" lon="2.23097">
        <ele>244.80000305176</ele>
        <time>2025-08-05T13:05:17.000Z</time>
      </trkpt>
      <trkpt lat="42.93587" lon="2.23084">
        <ele>244.80000305176</ele>
        <time>2025-08-05T13:05:21.000Z</time>
      </trkpt>
      <trkpt lat="42.93575" lon="2.23073">
        <ele>244.60000610352</ele>
        <time>2025-08-05T13:05:24.000Z</time>
      </trkpt>
      <trkpt lat="42.93541" lon="2.2303">
        <ele>244.39999389648</ele>
        <time>2025-08-05T13:05:34.000Z</time>
      </trkpt>
      <trkpt lat="42.93528" lon="2.23004">
        <ele>244.39999389648</ele>
        <time>2025-08-05T13:05:39.000Z</time>
      </trkpt>
      <trkpt lat="42.93524" lon="2.22993">
        <ele>244.19999694824</ele>
        <time>2025-08-05T13:05:41.000Z</time>
      </trkpt>
      <trkpt lat="42.93517" lon="2.22966">
        <ele>244.19999694824</ele>
        <time>2025-08-05T13:05:46.000Z</time>
      </trkpt>
      <trkpt lat="42.93515" lon="2.22962">
        <ele>244.19999694824</ele>
        <time>2025-08-05T13:05:47.000Z</time>
      </trkpt>
      <trkpt lat="42.93513" lon="2.22957">
        <ele>244.39999389648</ele>
        <time>2025-08-05T13:05:48.000Z</time>
      </trkpt>
      <trkpt lat="42.93509" lon="2.22937">
        <ele>244.39999389648</ele>
        <time>2025-08-05T13:05:52.000Z</time>
      </trkpt>
      <trkpt lat="42.93498" lon="2.22895">
        <ele>244.19999694824</ele>
        <time>2025-08-05T13:06:01.000Z</time>
      </trkpt>
      <trkpt lat="42.93491" lon="2.22865">
        <ele>244.80000305176</ele>
        <time>2025-08-05T13:06:08.000Z</time>
      </trkpt>
      <trkpt lat="42.93485" lon="2.22836">
        <ele>245.19999694824</ele>
        <time>2025-08-05T13:06:15.000Z</time>
      </trkpt>
      <trkpt lat="42.93479" lon="2.22806">
        <ele>245.39999389648</ele>
        <time>2025-08-05T13:06:22.000Z</time>
      </trkpt>
      <trkpt lat="42.9347" lon="2.22777">
        <ele>245.80000305176</ele>
        <time>2025-08-05T13:06:29.000Z</time>
      </trkpt>
      <trkpt lat="42.93464" lon="2.22743">
        <ele>246</ele>
        <time>2025-08-05T13:06:36.000Z</time>
      </trkpt>
      <trkpt lat="42.93462" lon="2.22729">
        <ele>246</ele>
        <time>2025-08-05T13:06:39.000Z</time>
      </trkpt>
      <trkpt lat="42.93461" lon="2.22713">
        <ele>246.19999694824</ele>
        <time>2025-08-05T13:06:42.000Z</time>
      </trkpt>
      <trkpt lat="42.93452" lon="2.22681">
        <ele>246.39999389648</ele>
        <time>2025-08-05T13:06:49.000Z</time>
      </trkpt>
      <trkpt lat="42.93443" lon="2.22648">
        <ele>246.19999694824</ele>
        <time>2025-08-05T13:06:56.000Z</time>
      </trkpt>
      <trkpt lat="42.93434" lon="2.22611">
        <ele>246.19999694824</ele>
        <time>2025-08-05T13:07:04.000Z</time>
      </trkpt>
      <trkpt lat="42.93425" lon="2.22572">
        <ele>246.60000610352</ele>
        <time>2025-08-05T13:07:12.000Z</time>
      </trkpt>
      <trkpt lat="42.9342" lon="2.22537">
        <ele>246.60000610352</ele>
        <time>2025-08-05T13:07:19.000Z</time>
      </trkpt>
      <trkpt lat="42.93424" lon="2.22506">
        <ele>246.80000305176</ele>
        <time>2025-08-05T13:07:25.000Z</time>
      </trkpt>
      <trkpt lat="42.93432" lon="2.22465">
        <ele>246.60000610352</ele>
        <time>2025-08-05T13:07:33.000Z</time>
      </trkpt>
      <trkpt lat="42.93439" lon="2.22427">
        <ele>246.39999389648</ele>
        <time>2025-08-05T13:07:41.000Z</time>
      </trkpt>
      <trkpt lat="42.93445" lon="2.22392">
        <ele>247.19999694824</ele>
        <time>2025-08-05T13:07:49.000Z</time>
      </trkpt>
      <trkpt lat="42.93446" lon="2.22383">
        <ele>247.39999389648</ele>
        <time>2025-08-05T13:07:51.000Z</time>
      </trkpt>
      <trkpt lat="42.93447" lon="2.22366">
        <ele>247.60000610352</ele>
        <time>2025-08-05T13:07:55.000Z</time>
      </trkpt>
      <trkpt lat="42.93457" lon="2.22326">
        <ele>247.80000305176</ele>
        <time>2025-08-05T13:08:04.000Z</time>
      </trkpt>
      <trkpt lat="42.93464" lon="2.22293">
        <ele>247.80000305176</ele>
        <time>2025-08-05T13:08:10.000Z</time>
      </trkpt>
      <trkpt lat="42.93472" lon="2.22253">
        <ele>247.80000305176</ele>
        <time>2025-08-05T13:08:17.000Z</time>
      </trkpt>
      <trkpt lat="42.93474" lon="2.22232">
        <ele>247.60000610352</ele>
        <time>2025-08-05T13:08:21.000Z</time>
      </trkpt>
      <trkpt lat="42.93474" lon="2.22221">
        <ele>247.60000610352</ele>
        <time>2025-08-05T13:08:23.000Z</time>
      </trkpt>
      <trkpt lat="42.9348" lon="2.22182">
        <ele>247.60000610352</ele>
        <time>2025-08-05T13:08:30.000Z</time>
      </trkpt>
      <trkpt lat="42.9349" lon="2.22137">
        <ele>247.39999389648</ele>
        <time>2025-08-05T13:08:38.000Z</time>
      </trkpt>
      <trkpt lat="42.93497" lon="2.22108">
        <ele>247</ele>
        <time>2025-08-05T13:08:44.000Z</time>
      </trkpt>
      <trkpt lat="42.93505" lon="2.22079">
        <ele>247</ele>
        <time>2025-08-05T13:08:50.000Z</time>
      </trkpt>
      <trkpt lat="42.93508" lon="2.22059">
        <ele>247.60000610352</ele>
        <time>2025-08-05T13:08:54.000Z</time>
      </trkpt>
      <trkpt lat="42.9351" lon="2.22043">
        <ele>247.60000610352</ele>
        <time>2025-08-05T13:08:57.000Z</time>
      </trkpt>
      <trkpt lat="42.93511" lon="2.22032">
        <ele>247.80000305176</ele>
        <time>2025-08-05T13:08:59.000Z</time>
      </trkpt>
      <trkpt lat="42.93512" lon="2.22026">
        <ele>247.80000305176</ele>
        <time>2025-08-05T13:09:00.000Z</time>
      </trkpt>
      <trkpt lat="42.93511" lon="2.22016">
        <ele>247.80000305176</ele>
        <time>2025-08-05T13:09:02.000Z</time>
      </trkpt>
      <trkpt lat="42.93512" lon="2.22012">
        <ele>247.60000610352</ele>
        <time>2025-08-05T13:09:03.000Z</time>
      </trkpt>
      <trkpt lat="42.93514" lon="2.21987">
        <ele>247.60000610352</ele>
        <time>2025-08-05T13:09:08.000Z</time>
      </trkpt>
      <trkpt lat="42.93515" lon="2.21963">
        <ele>247.39999389648</ele>
        <time>2025-08-05T13:09:13.000Z</time>
      </trkpt>
      <trkpt lat="42.93519" lon="2.21929">
        <ele>247.39999389648</ele>
        <time>2025-08-05T13:09:20.000Z</time>
      </trkpt>
      <trkpt lat="42.93523" lon="2.21892">
        <ele>247.60000610352</ele>
        <time>2025-08-05T13:09:28.000Z</time>
      </trkpt>
      <trkpt lat="42.93523" lon="2.2188">
        <ele>248.39999389648</ele>
        <time>2025-08-05T13:09:31.000Z</time>
      </trkpt>
      <trkpt lat="42.93526" lon="2.21867">
        <ele>249.19999694824</ele>
        <time>2025-08-05T13:09:34.000Z</time>
      </trkpt>
      <trkpt lat="42.93527" lon="2.21855">
        <ele>249.39999389648</ele>
        <time>2025-08-05T13:09:37.000Z</time>
      </trkpt>
      <trkpt lat="42.93526" lon="2.21839">
        <ele>249.60000610352</ele>
        <time>2025-08-05T13:09:41.000Z</time>
      </trkpt>
      <trkpt lat="42.93524" lon="2.21804">
        <ele>249.60000610352</ele>
        <time>2025-08-05T13:09:48.000Z</time>
      </trkpt>
      <trkpt lat="42.9352" lon="2.21766">
        <ele>249</ele>
        <time>2025-08-05T13:09:55.000Z</time>
      </trkpt>
      <trkpt lat="42.93519" lon="2.21732">
        <ele>248.60000610352</ele>
        <time>2025-08-05T13:10:02.000Z</time>
      </trkpt>
      <trkpt lat="42.93516" lon="2.21699">
        <ele>248.60000610352</ele>
        <time>2025-08-05T13:10:09.000Z</time>
      </trkpt>
      <trkpt lat="42.93515" lon="2.21676">
        <ele>248.80000305176</ele>
        <time>2025-08-05T13:10:13.000Z</time>
      </trkpt>
      <trkpt lat="42.93515" lon="2.21638">
        <ele>249</ele>
        <time>2025-08-05T13:10:20.000Z</time>
      </trkpt>
      <trkpt lat="42.93512" lon="2.21601">
        <ele>249.39999389648</ele>
        <time>2025-08-05T13:10:27.000Z</time>
      </trkpt>
      <trkpt lat="42.93509" lon="2.21549">
        <ele>249.39999389648</ele>
        <time>2025-08-05T13:10:37.000Z</time>
      </trkpt>
      <trkpt lat="42.93505" lon="2.21502">
        <ele>249.19999694824</ele>
        <time>2025-08-05T13:10:45.000Z</time>
      </trkpt>
      <trkpt lat="42.93504" lon="2.2148">
        <ele>249.19999694824</ele>
        <time>2025-08-05T13:10:49.000Z</time>
      </trkpt>
      <trkpt lat="42.93502" lon="2.21469">
        <ele>249.19999694824</ele>
        <time>2025-08-05T13:10:51.000Z</time>
      </trkpt>
      <trkpt lat="42.93502" lon="2.21464">
        <ele>249.19999694824</ele>
        <time>2025-08-05T13:10:52.000Z</time>
      </trkpt>
      <trkpt lat="42.93498" lon="2.21431">
        <ele>249.39999389648</ele>
        <time>2025-08-05T13:10:58.000Z</time>
      </trkpt>
      <trkpt lat="42.93491" lon="2.21401">
        <ele>249.60000610352</ele>
        <time>2025-08-05T13:11:04.000Z</time>
      </trkpt>
      <trkpt lat="42.93489" lon="2.21392">
        <ele>250</ele>
        <time>2025-08-05T13:11:06.000Z</time>
      </trkpt>
      <trkpt lat="42.93486" lon="2.21379">
        <ele>250.60000610352</ele>
        <time>2025-08-05T13:11:09.000Z</time>
      </trkpt>
      <trkpt lat="42.93483" lon="2.21371">
        <ele>251.19999694824</ele>
        <time>2025-08-05T13:11:11.000Z</time>
      </trkpt>
      <trkpt lat="42.93478" lon="2.21345">
        <ele>251.39999389648</ele>
        <time>2025-08-05T13:11:18.000Z</time>
      </trkpt>
      <trkpt lat="42.93472" lon="2.21323">
        <ele>252</ele>
        <time>2025-08-05T13:11:25.000Z</time>
      </trkpt>
      <trkpt lat="42.93467" lon="2.21307">
        <ele>252.19999694824</ele>
        <time>2025-08-05T13:11:30.000Z</time>
      </trkpt>
      <trkpt lat="42.93458" lon="2.2129">
        <ele>252.39999389648</ele>
        <time>2025-08-05T13:11:36.000Z</time>
      </trkpt>
      <trkpt lat="42.93444" lon="2.21269">
        <ele>253</ele>
        <time>2025-08-05T13:11:43.000Z</time>
      </trkpt>
      <trkpt lat="42.93429" lon="2.21252">
        <ele>253</ele>
        <time>2025-08-05T13:11:50.000Z</time>
      </trkpt>
      <trkpt lat="42.93413" lon="2.21226">
        <ele>252.80000305176</ele>
        <time>2025-08-05T13:11:58.000Z</time>
      </trkpt>
      <trkpt lat="42.9341" lon="2.21201">
        <ele>252.80000305176</ele>
        <time>2025-08-05T13:12:04.000Z</time>
      </trkpt>
      <trkpt lat="42.9341" lon="2.21182">
        <ele>252.80000305176</ele>
        <time>2025-08-05T13:12:09.000Z</time>
      </trkpt>
      <trkpt lat="42.93411" lon="2.2115">
        <ele>252.60000610352</ele>
        <time>2025-08-05T13:12:17.000Z</time>
      </trkpt>
      <trkpt lat="42.93411" lon="2.21124">
        <ele>252.60000610352</ele>
        <time>2025-08-05T13:12:24.000Z</time>
      </trkpt>
      <trkpt lat="42.93411" lon="2.21101">
        <ele>253.39999389648</ele>
        <time>2025-08-05T13:12:31.000Z</time>
      </trkpt>
      <trkpt lat="42.93411" lon="2.21098">
        <ele>253.39999389648</ele>
        <time>2025-08-05T13:12:32.000Z</time>
      </trkpt>
      <trkpt lat="42.93411" lon="2.21081">
        <ele>254.19999694824</ele>
        <time>2025-08-05T13:12:37.000Z</time>
      </trkpt>
      <trkpt lat="42.93411" lon="2.21075">
        <ele>254.39999389648</ele>
        <time>2025-08-05T13:12:39.000Z</time>
      </trkpt>
      <trkpt lat="42.93408" lon="2.21056">
        <ele>255.60000610352</ele>
        <time>2025-08-05T13:12:45.000Z</time>
      </trkpt>
      <trkpt lat="42.93403" lon="2.21034">
        <ele>256</ele>
        <time>2025-08-05T13:12:52.000Z</time>
      </trkpt>
      <trkpt lat="42.93398" lon="2.21013">
        <ele>256.39999389648</ele>
        <time>2025-08-05T13:12:58.000Z</time>
      </trkpt>
      <trkpt lat="42.93395" lon="2.21003">
        <ele>256.60000610352</ele>
        <time>2025-08-05T13:13:01.000Z</time>
      </trkpt>
      <trkpt lat="42.93395" lon="2.20996">
        <ele>256.60000610352</ele>
        <time>2025-08-05T13:13:03.000Z</time>
      </trkpt>
      <trkpt lat="42.93393" lon="2.20963">
        <ele>257</ele>
        <time>2025-08-05T13:13:12.000Z</time>
      </trkpt>
      <trkpt lat="42.9339" lon="2.20929">
        <ele>257.39999389648</ele>
        <time>2025-08-05T13:13:20.000Z</time>
      </trkpt>
      <trkpt lat="42.93388" lon="2.20891">
        <ele>257.39999389648</ele>
        <time>2025-08-05T13:13:28.000Z</time>
      </trkpt>
      <trkpt lat="42.93384" lon="2.20842">
        <ele>257.20001220703</ele>
        <time>2025-08-05T13:13:38.000Z</time>
      </trkpt>
      <trkpt lat="42.93381" lon="2.20799">
        <ele>256.79998779297</ele>
        <time>2025-08-05T13:13:47.000Z</time>
      </trkpt>
      <trkpt lat="42.93378" lon="2.20771">
        <ele>257</ele>
        <time>2025-08-05T13:13:53.000Z</time>
      </trkpt>
      <trkpt lat="42.93376" lon="2.20757">
        <ele>257.20001220703</ele>
        <time>2025-08-05T13:13:56.000Z</time>
      </trkpt>
      <trkpt lat="42.93372" lon="2.20734">
        <ele>257.60000610352</ele>
        <time>2025-08-05T13:14:01.000Z</time>
      </trkpt>
      <trkpt lat="42.9337" lon="2.20725">
        <ele>257.79998779297</ele>
        <time>2025-08-05T13:14:03.000Z</time>
      </trkpt>
      <trkpt lat="42.93368" lon="2.20687">
        <ele>258.20001220703</ele>
        <time>2025-08-05T13:14:10.000Z</time>
      </trkpt>
      <trkpt lat="42.9337" lon="2.20657">
        <ele>258.39999389648</ele>
        <time>2025-08-05T13:14:17.000Z</time>
      </trkpt>
      <trkpt lat="42.93377" lon="2.20626">
        <ele>258</ele>
        <time>2025-08-05T13:14:24.000Z</time>
      </trkpt>
      <trkpt lat="42.93389" lon="2.20587">
        <ele>258.20001220703</ele>
        <time>2025-08-05T13:14:33.000Z</time>
      </trkpt>
      <trkpt lat="42.93396" lon="2.20557">
        <ele>258.39999389648</ele>
        <time>2025-08-05T13:14:40.000Z</time>
      </trkpt>
      <trkpt lat="42.93403" lon="2.20527">
        <ele>258.79998779297</ele>
        <time>2025-08-05T13:14:48.000Z</time>
      </trkpt>
      <trkpt lat="42.93406" lon="2.20519">
        <ele>259.20001220703</ele>
        <time>2025-08-05T13:14:50.000Z</time>
      </trkpt>
      <trkpt lat="42.93412" lon="2.20489">
        <ele>260</ele>
        <time>2025-08-05T13:14:58.000Z</time>
      </trkpt>
      <trkpt lat="42.93414" lon="2.20482">
        <ele>260</ele>
        <time>2025-08-05T13:15:00.000Z</time>
      </trkpt>
      <trkpt lat="42.93419" lon="2.20457">
        <ele>261.20001220703</ele>
        <time>2025-08-05T13:15:07.000Z</time>
      </trkpt>
      <trkpt lat="42.93424" lon="2.20436">
        <ele>262.20001220703</ele>
        <time>2025-08-05T13:15:13.000Z</time>
      </trkpt>
      <trkpt lat="42.93425" lon="2.20429">
        <ele>262.39999389648</ele>
        <time>2025-08-05T13:15:15.000Z</time>
      </trkpt>
      <trkpt lat="42.93428" lon="2.204">
        <ele>263.39999389648</ele>
        <time>2025-08-05T13:15:23.000Z</time>
      </trkpt>
      <trkpt lat="42.9343" lon="2.20388">
        <ele>263.60000610352</ele>
        <time>2025-08-05T13:15:26.000Z</time>
      </trkpt>
      <trkpt lat="42.93433" lon="2.20358">
        <ele>264</ele>
        <time>2025-08-05T13:15:34.000Z</time>
      </trkpt>
      <trkpt lat="42.93434" lon="2.2035">
        <ele>264.39999389648</ele>
        <time>2025-08-05T13:15:36.000Z</time>
      </trkpt>
      <trkpt lat="42.93435" lon="2.20336">
        <ele>265.60000610352</ele>
        <time>2025-08-05T13:15:40.000Z</time>
      </trkpt>
      <trkpt lat="42.93436" lon="2.20328">
        <ele>266</ele>
        <time>2025-08-05T13:15:43.000Z</time>
      </trkpt>
      <trkpt lat="42.93439" lon="2.20307">
        <ele>266.79998779297</ele>
        <time>2025-08-05T13:15:49.000Z</time>
      </trkpt>
      <trkpt lat="42.93441" lon="2.20289">
        <ele>267.39999389648</ele>
        <time>2025-08-05T13:15:54.000Z</time>
      </trkpt>
      <trkpt lat="42.93444" lon="2.20271">
        <ele>267.79998779297</ele>
        <time>2025-08-05T13:15:59.000Z</time>
      </trkpt>
      <trkpt lat="42.93446" lon="2.20262">
        <ele>268.39999389648</ele>
        <time>2025-08-05T13:16:02.000Z</time>
      </trkpt>
      <trkpt lat="42.93448" lon="2.20253">
        <ele>268.79998779297</ele>
        <time>2025-08-05T13:16:05.000Z</time>
      </trkpt>
      <trkpt lat="42.93451" lon="2.20246">
        <ele>269.20001220703</ele>
        <time>2025-08-05T13:16:08.000Z</time>
      </trkpt>
      <trkpt lat="42.93455" lon="2.2023">
        <ele>269.39999389648</ele>
        <time>2025-08-05T13:16:14.000Z</time>
      </trkpt>
      <trkpt lat="42.93457" lon="2.20225">
        <ele>269.39999389648</ele>
        <time>2025-08-05T13:16:16.000Z</time>
      </trkpt>
      <trkpt lat="42.93461" lon="2.20217">
        <ele>269.20001220703</ele>
        <time>2025-08-05T13:16:19.000Z</time>
      </trkpt>
      <trkpt lat="42.9347" lon="2.20198">
        <ele>269</ele>
        <time>2025-08-05T13:16:25.000Z</time>
      </trkpt>
      <trkpt lat="42.93481" lon="2.20178">
        <ele>268.39999389648</ele>
        <time>2025-08-05T13:16:30.000Z</time>
      </trkpt>
      <trkpt lat="42.9349" lon="2.20154">
        <ele>267.79998779297</ele>
        <time>2025-08-05T13:16:35.000Z</time>
      </trkpt>
      <trkpt lat="42.93502" lon="2.20117">
        <ele>266.60000610352</ele>
        <time>2025-08-05T13:16:42.000Z</time>
      </trkpt>
      <trkpt lat="42.93507" lon="2.20105">
        <ele>266.39999389648</ele>
        <time>2025-08-05T13:16:44.000Z</time>
      </trkpt>
      <trkpt lat="42.93515" lon="2.20081">
        <ele>265.60000610352</ele>
        <time>2025-08-05T13:16:48.000Z</time>
      </trkpt>
      <trkpt lat="42.93523" lon="2.20056">
        <ele>264.79998779297</ele>
        <time>2025-08-05T13:16:52.000Z</time>
      </trkpt>
      <trkpt lat="42.93528" lon="2.20038">
        <ele>264.60000610352</ele>
        <time>2025-08-05T13:16:55.000Z</time>
      </trkpt>
      <trkpt lat="42.93533" lon="2.2002">
        <ele>264.20001220703</ele>
        <time>2025-08-05T13:16:58.000Z</time>
      </trkpt>
      <trkpt lat="42.93536" lon="2.20008">
        <ele>263.79998779297</ele>
        <time>2025-08-05T13:17:00.000Z</time>
      </trkpt>
      <trkpt lat="42.93538" lon="2.19998">
        <ele>263.79998779297</ele>
        <time>2025-08-05T13:17:02.000Z</time>
      </trkpt>
      <trkpt lat="42.93543" lon="2.19977">
        <ele>263.60000610352</ele>
        <time>2025-08-05T13:17:06.000Z</time>
      </trkpt>
      <trkpt lat="42.93553" lon="2.19937">
        <ele>263.60000610352</ele>
        <time>2025-08-05T13:17:14.000Z</time>
      </trkpt>
      <trkpt lat="42.93569" lon="2.19901">
        <ele>263.79998779297</ele>
        <time>2025-08-05T13:17:23.000Z</time>
      </trkpt>
      <trkpt lat="42.93578" lon="2.19881">
        <ele>263.79998779297</ele>
        <time>2025-08-05T13:17:28.000Z</time>
      </trkpt>
      <trkpt lat="42.93588" lon="2.19858">
        <ele>263.79998779297</ele>
        <time>2025-08-05T13:17:34.000Z</time>
      </trkpt>
      <trkpt lat="42.93597" lon="2.19837">
        <ele>264.20001220703</ele>
        <time>2025-08-05T13:17:40.000Z</time>
      </trkpt>
      <trkpt lat="42.93614" lon="2.19797">
        <ele>264.60000610352</ele>
        <time>2025-08-05T13:17:50.000Z</time>
      </trkpt>
      <trkpt lat="42.93628" lon="2.19767">
        <ele>264.60000610352</ele>
        <time>2025-08-05T13:17:58.000Z</time>
      </trkpt>
      <trkpt lat="42.93643" lon="2.19733">
        <ele>264.60000610352</ele>
        <time>2025-08-05T13:18:07.000Z</time>
      </trkpt>
      <trkpt lat="42.93652" lon="2.19714">
        <ele>264.60000610352</ele>
        <time>2025-08-05T13:18:12.000Z</time>
      </trkpt>
      <trkpt lat="42.93658" lon="2.19703">
        <ele>265</ele>
        <time>2025-08-05T13:18:15.000Z</time>
      </trkpt>
      <trkpt lat="42.93669" lon="2.1968">
        <ele>265.79998779297</ele>
        <time>2025-08-05T13:18:21.000Z</time>
      </trkpt>
      <trkpt lat="42.93671" lon="2.19676">
        <ele>266</ele>
        <time>2025-08-05T13:18:22.000Z</time>
      </trkpt>
      <trkpt lat="42.93685" lon="2.19645">
        <ele>267.20001220703</ele>
        <time>2025-08-05T13:18:31.000Z</time>
      </trkpt>
      <trkpt lat="42.93694" lon="2.19626">
        <ele>267.60000610352</ele>
        <time>2025-08-05T13:18:38.000Z</time>
      </trkpt>
      <trkpt lat="42.937" lon="2.19613">
        <ele>268.20001220703</ele>
        <time>2025-08-05T13:18:42.000Z</time>
      </trkpt>
      <trkpt lat="42.93703" lon="2.19607">
        <ele>268.60000610352</ele>
        <time>2025-08-05T13:18:44.000Z</time>
      </trkpt>
      <trkpt lat="42.93711" lon="2.19588">
        <ele>269.20001220703</ele>
        <time>2025-08-05T13:18:50.000Z</time>
      </trkpt>
      <trkpt lat="42.93714" lon="2.19583">
        <ele>269.39999389648</ele>
        <time>2025-08-05T13:18:52.000Z</time>
      </trkpt>
      <trkpt lat="42.93726" lon="2.1956">
        <ele>270.20001220703</ele>
        <time>2025-08-05T13:19:00.000Z</time>
      </trkpt>
      <trkpt lat="42.93729" lon="2.19554">
        <ele>270.60000610352</ele>
        <time>2025-08-05T13:19:02.000Z</time>
      </trkpt>
      <trkpt lat="42.93739" lon="2.19536">
        <ele>271.60000610352</ele>
        <time>2025-08-05T13:19:08.000Z</time>
      </trkpt>
      <trkpt lat="42.93742" lon="2.1953">
        <ele>272</ele>
        <time>2025-08-05T13:19:10.000Z</time>
      </trkpt>
      <trkpt lat="42.93752" lon="2.19516">
        <ele>272.79998779297</ele>
        <time>2025-08-05T13:19:16.000Z</time>
      </trkpt>
      <trkpt lat="42.93755" lon="2.19511">
        <ele>273</ele>
        <time>2025-08-05T13:19:18.000Z</time>
      </trkpt>
      <trkpt lat="42.93769" lon="2.19489">
        <ele>273.79998779297</ele>
        <time>2025-08-05T13:19:26.000Z</time>
      </trkpt>
      <trkpt lat="42.93771" lon="2.19486">
        <ele>273.79998779297</ele>
        <time>2025-08-05T13:19:27.000Z</time>
      </trkpt>
      <trkpt lat="42.93779" lon="2.19472">
        <ele>274</ele>
        <time>2025-08-05T13:19:31.000Z</time>
      </trkpt>
      <trkpt lat="42.9379" lon="2.19454">
        <ele>273.79998779297</ele>
        <time>2025-08-05T13:19:36.000Z</time>
      </trkpt>
      <trkpt lat="42.93808" lon="2.19427">
        <ele>273.79998779297</ele>
        <time>2025-08-05T13:19:44.000Z</time>
      </trkpt>
      <trkpt lat="42.9382" lon="2.19406">
        <ele>273.79998779297</ele>
        <time>2025-08-05T13:19:50.000Z</time>
      </trkpt>
      <trkpt lat="42.9384" lon="2.19377">
        <ele>273.79998779297</ele>
        <time>2025-08-05T13:19:59.000Z</time>
      </trkpt>
      <trkpt lat="42.93848" lon="2.19354">
        <ele>273.79998779297</ele>
        <time>2025-08-05T13:20:05.000Z</time>
      </trkpt>
      <trkpt lat="42.93851" lon="2.19339">
        <ele>273.60000610352</ele>
        <time>2025-08-05T13:20:08.000Z</time>
      </trkpt>
      <trkpt lat="42.9385" lon="2.19333">
        <ele>273.60000610352</ele>
        <time>2025-08-05T13:20:09.000Z</time>
      </trkpt>
      <trkpt lat="42.93848" lon="2.19308">
        <ele>272.79998779297</ele>
        <time>2025-08-05T13:20:13.000Z</time>
      </trkpt>
      <trkpt lat="42.93845" lon="2.19287">
        <ele>272.39999389648</ele>
        <time>2025-08-05T13:20:16.000Z</time>
      </trkpt>
      <trkpt lat="42.9384" lon="2.19251">
        <ele>271.79998779297</ele>
        <time>2025-08-05T13:20:21.000Z</time>
      </trkpt>
      <trkpt lat="42.9384" lon="2.19243">
        <ele>271.39999389648</ele>
        <time>2025-08-05T13:20:22.000Z</time>
      </trkpt>
      <trkpt lat="42.9384" lon="2.19204">
        <ele>270.60000610352</ele>
        <time>2025-08-05T13:20:27.000Z</time>
      </trkpt>
      <trkpt lat="42.9384" lon="2.19197">
        <ele>270.39999389648</ele>
        <time>2025-08-05T13:20:28.000Z</time>
      </trkpt>
      <trkpt lat="42.9384" lon="2.19185">
        <ele>270.20001220703</ele>
        <time>2025-08-05T13:20:30.000Z</time>
      </trkpt>
      <trkpt lat="42.93844" lon="2.19177">
        <ele>269.79998779297</ele>
        <time>2025-08-05T13:20:32.000Z</time>
      </trkpt>
      <trkpt lat="42.93848" lon="2.1917">
        <ele>269.79998779297</ele>
        <time>2025-08-05T13:20:35.000Z</time>
      </trkpt>
      <trkpt lat="42.93849" lon="2.19166">
        <ele>269.60000610352</ele>
        <time>2025-08-05T13:20:37.000Z</time>
      </trkpt>
      <trkpt lat="42.93849" lon="2.19166">
        <ele>269.60000610352</ele>
        <time>2025-08-05T13:20:39.000Z</time>
      </trkpt>
      <trkpt lat="42.93853" lon="2.19162">
        <ele>268.79998779297</ele>
        <time>2025-08-05T13:20:56.000Z</time>
      </trkpt>
      <trkpt lat="42.93854" lon="2.19159">
        <ele>268.79998779297</ele>
        <time>2025-08-05T13:20:57.000Z</time>
      </trkpt>
      <trkpt lat="42.93856" lon="2.19149">
        <ele>268.79998779297</ele>
        <time>2025-08-05T13:21:01.000Z</time>
      </trkpt>
      <trkpt lat="42.93857" lon="2.19148">
        <ele>268.79998779297</ele>
        <time>2025-08-05T13:21:02.000Z</time>
      </trkpt>
      <trkpt lat="42.93859" lon="2.19146">
        <ele>269</ele>
        <time>2025-08-05T13:21:06.000Z</time>
      </trkpt>
      <trkpt lat="42.93864" lon="2.19144">
        <ele>270.79998779297</ele>
        <time>2025-08-05T13:25:24.000Z</time>
      </trkpt>
      <trkpt lat="42.9387" lon="2.19131">
        <ele>270.60000610352</ele>
        <time>2025-08-05T13:25:29.000Z</time>
      </trkpt>
      <trkpt lat="42.93882" lon="2.19114">
        <ele>270.39999389648</ele>
        <time>2025-08-05T13:25:36.000Z</time>
      </trkpt>
      <trkpt lat="42.93895" lon="2.19093">
        <ele>270.79998779297</ele>
        <time>2025-08-05T13:25:44.000Z</time>
      </trkpt>
      <trkpt lat="42.93896" lon="2.1909">
        <ele>270.79998779297</ele>
        <time>2025-08-05T13:25:45.000Z</time>
      </trkpt>
      <trkpt lat="42.93902" lon="2.1908">
        <ele>271.20001220703</ele>
        <time>2025-08-05T13:25:50.000Z</time>
      </trkpt>
      <trkpt lat="42.93911" lon="2.19066">
        <ele>271.60000610352</ele>
        <time>2025-08-05T13:25:56.000Z</time>
      </trkpt>
      <trkpt lat="42.93916" lon="2.19056">
        <ele>272</ele>
        <time>2025-08-05T13:26:00.000Z</time>
      </trkpt>
      <trkpt lat="42.9392" lon="2.19048">
        <ele>272.39999389648</ele>
        <time>2025-08-05T13:26:03.000Z</time>
      </trkpt>
      <trkpt lat="42.93926" lon="2.19026">
        <ele>273</ele>
        <time>2025-08-05T13:26:11.000Z</time>
      </trkpt>
      <trkpt lat="42.9393" lon="2.1901">
        <ele>273.60000610352</ele>
        <time>2025-08-05T13:26:17.000Z</time>
      </trkpt>
      <trkpt lat="42.93932" lon="2.18999">
        <ele>274</ele>
        <time>2025-08-05T13:26:21.000Z</time>
      </trkpt>
      <trkpt lat="42.93933" lon="2.18993">
        <ele>274.20001220703</ele>
        <time>2025-08-05T13:26:23.000Z</time>
      </trkpt>
      <trkpt lat="42.93939" lon="2.18976">
        <ele>274.60000610352</ele>
        <time>2025-08-05T13:26:29.000Z</time>
      </trkpt>
      <trkpt lat="42.93946" lon="2.18952">
        <ele>274.79998779297</ele>
        <time>2025-08-05T13:26:38.000Z</time>
      </trkpt>
      <trkpt lat="42.9395" lon="2.18945">
        <ele>275</ele>
        <time>2025-08-05T13:26:41.000Z</time>
      </trkpt>
      <trkpt lat="42.93956" lon="2.18935">
        <ele>275.39999389648</ele>
        <time>2025-08-05T13:26:45.000Z</time>
      </trkpt>
      <trkpt lat="42.93965" lon="2.18921">
        <ele>276</ele>
        <time>2025-08-05T13:26:51.000Z</time>
      </trkpt>
      <trkpt lat="42.93968" lon="2.18916">
        <ele>276.20001220703</ele>
        <time>2025-08-05T13:26:53.000Z</time>
      </trkpt>
      <trkpt lat="42.93979" lon="2.18904">
        <ele>276.60000610352</ele>
        <time>2025-08-05T13:26:59.000Z</time>
      </trkpt>
      <trkpt lat="42.93994" lon="2.18892">
        <ele>277</ele>
        <time>2025-08-05T13:27:06.000Z</time>
      </trkpt>
      <trkpt lat="42.94004" lon="2.18887">
        <ele>277</ele>
        <time>2025-08-05T13:27:11.000Z</time>
      </trkpt>
      <trkpt lat="42.94008" lon="2.18885">
        <ele>277.20001220703</ele>
        <time>2025-08-05T13:27:13.000Z</time>
      </trkpt>
      <trkpt lat="42.9402" lon="2.18879">
        <ele>277.79998779297</ele>
        <time>2025-08-05T13:27:19.000Z</time>
      </trkpt>
      <trkpt lat="42.94026" lon="2.18876">
        <ele>278</ele>
        <time>2025-08-05T13:27:22.000Z</time>
      </trkpt>
      <trkpt lat="42.9403" lon="2.18875">
        <ele>278</ele>
        <time>2025-08-05T13:27:24.000Z</time>
      </trkpt>
      <trkpt lat="42.94041" lon="2.18868">
        <ele>278.20001220703</ele>
        <time>2025-08-05T13:27:29.000Z</time>
      </trkpt>
      <trkpt lat="42.94054" lon="2.18857">
        <ele>278.20001220703</ele>
        <time>2025-08-05T13:27:34.000Z</time>
      </trkpt>
      <trkpt lat="42.94068" lon="2.18835">
        <ele>277.39999389648</ele>
        <time>2025-08-05T13:27:40.000Z</time>
      </trkpt>
      <trkpt lat="42.94073" lon="2.18825">
        <ele>277</ele>
        <time>2025-08-05T13:27:43.000Z</time>
      </trkpt>
      <trkpt lat="42.94079" lon="2.18811">
        <ele>276.79998779297</ele>
        <time>2025-08-05T13:27:47.000Z</time>
      </trkpt>
      <trkpt lat="42.94087" lon="2.18784">
        <ele>277.20001220703</ele>
        <time>2025-08-05T13:27:54.000Z</time>
      </trkpt>
      <trkpt lat="42.94094" lon="2.18759">
        <ele>278</ele>
        <time>2025-08-05T13:28:02.000Z</time>
      </trkpt>
      <trkpt lat="42.94097" lon="2.1875">
        <ele>278.39999389648</ele>
        <time>2025-08-05T13:28:05.000Z</time>
      </trkpt>
      <trkpt lat="42.94102" lon="2.18731">
        <ele>279</ele>
        <time>2025-08-05T13:28:12.000Z</time>
      </trkpt>
      <trkpt lat="42.94106" lon="2.18716">
        <ele>279.39999389648</ele>
        <time>2025-08-05T13:28:17.000Z</time>
      </trkpt>
      <trkpt lat="42.94108" lon="2.18708">
        <ele>279.60000610352</ele>
        <time>2025-08-05T13:28:20.000Z</time>
      </trkpt>
      <trkpt lat="42.94114" lon="2.18691">
        <ele>279.79998779297</ele>
        <time>2025-08-05T13:28:26.000Z</time>
      </trkpt>
      <trkpt lat="42.94122" lon="2.18665">
        <ele>279.79998779297</ele>
        <time>2025-08-05T13:28:34.000Z</time>
      </trkpt>
      <trkpt lat="42.94127" lon="2.1865">
        <ele>280</ele>
        <time>2025-08-05T13:28:38.000Z</time>
      </trkpt>
      <trkpt lat="42.94132" lon="2.18631">
        <ele>280.20001220703</ele>
        <time>2025-08-05T13:28:43.000Z</time>
      </trkpt>
      <trkpt lat="42.94138" lon="2.18613">
        <ele>280.60000610352</ele>
        <time>2025-08-05T13:28:48.000Z</time>
      </trkpt>
      <trkpt lat="42.94141" lon="2.18599">
        <ele>280.79998779297</ele>
        <time>2025-08-05T13:28:52.000Z</time>
      </trkpt>
      <trkpt lat="42.94152" lon="2.18565">
        <ele>281.20001220703</ele>
        <time>2025-08-05T13:29:02.000Z</time>
      </trkpt>
      <trkpt lat="42.94153" lon="2.18559">
        <ele>281.39999389648</ele>
        <time>2025-08-05T13:29:06.000Z</time>
      </trkpt>
      <trkpt lat="42.94156" lon="2.18548">
        <ele>282</ele>
        <time>2025-08-05T13:29:16.000Z</time>
      </trkpt>
      <trkpt lat="42.94158" lon="2.18543">
        <ele>282</ele>
        <time>2025-08-05T13:29:19.000Z</time>
      </trkpt>
      <trkpt lat="42.94162" lon="2.18529">
        <ele>282.20001220703</ele>
        <time>2025-08-05T13:29:27.000Z</time>
      </trkpt>
      <trkpt lat="42.94164" lon="2.18521">
        <ele>282.39999389648</ele>
        <time>2025-08-05T13:29:30.000Z</time>
      </trkpt>
      <trkpt lat="42.94166" lon="2.18515">
        <ele>282.39999389648</ele>
        <time>2025-08-05T13:29:32.000Z</time>
      </trkpt>
      <trkpt lat="42.9417" lon="2.18501">
        <ele>283</ele>
        <time>2025-08-05T13:29:37.000Z</time>
      </trkpt>
      <trkpt lat="42.94172" lon="2.18495">
        <ele>283.20001220703</ele>
        <time>2025-08-05T13:29:39.000Z</time>
      </trkpt>
      <trkpt lat="42.94178" lon="2.18478">
        <ele>283.39999389648</ele>
        <time>2025-08-05T13:29:45.000Z</time>
      </trkpt>
      <trkpt lat="42.94183" lon="2.18462">
        <ele>283.79998779297</ele>
        <time>2025-08-05T13:29:51.000Z</time>
      </trkpt>
      <trkpt lat="42.94186" lon="2.18457">
        <ele>284</ele>
        <time>2025-08-05T13:29:53.000Z</time>
      </trkpt>
      <trkpt lat="42.94196" lon="2.18439">
        <ele>284.60000610352</ele>
        <time>2025-08-05T13:30:00.000Z</time>
      </trkpt>
      <trkpt lat="42.94204" lon="2.18424">
        <ele>284.79998779297</ele>
        <time>2025-08-05T13:30:06.000Z</time>
      </trkpt>
      <trkpt lat="42.94214" lon="2.18401">
        <ele>285</ele>
        <time>2025-08-05T13:30:14.000Z</time>
      </trkpt>
      <trkpt lat="42.94217" lon="2.18391">
        <ele>284.79998779297</ele>
        <time>2025-08-05T13:30:17.000Z</time>
      </trkpt>
      <trkpt lat="42.9422" lon="2.18376">
        <ele>285.20001220703</ele>
        <time>2025-08-05T13:30:21.000Z</time>
      </trkpt>
      <trkpt lat="42.94228" lon="2.18333">
        <ele>285.39999389648</ele>
        <time>2025-08-05T13:30:31.000Z</time>
      </trkpt>
      <trkpt lat="42.94232" lon="2.18305">
        <ele>285</ele>
        <time>2025-08-05T13:30:38.000Z</time>
      </trkpt>
      <trkpt lat="42.94242" lon="2.18253">
        <ele>284.39999389648</ele>
        <time>2025-08-05T13:30:49.000Z</time>
      </trkpt>
      <trkpt lat="42.94249" lon="2.18217">
        <ele>284.60000610352</ele>
        <time>2025-08-05T13:30:57.000Z</time>
      </trkpt>
      <trkpt lat="42.94254" lon="2.1819">
        <ele>284.60000610352</ele>
        <time>2025-08-05T13:31:04.000Z</time>
      </trkpt>
      <trkpt lat="42.94259" lon="2.18168">
        <ele>284.79998779297</ele>
        <time>2025-08-05T13:31:11.000Z</time>
      </trkpt>
      <trkpt lat="42.94265" lon="2.18131">
        <ele>285.39999389648</ele>
        <time>2025-08-05T13:31:22.000Z</time>
      </trkpt>
      <trkpt lat="42.94271" lon="2.18104">
        <ele>285.39999389648</ele>
        <time>2025-08-05T13:31:30.000Z</time>
      </trkpt>
      <trkpt lat="42.94276" lon="2.18074">
        <ele>286</ele>
        <time>2025-08-05T13:31:39.000Z</time>
      </trkpt>
      <trkpt lat="42.94281" lon="2.18052">
        <ele>286.79998779297</ele>
        <time>2025-08-05T13:31:47.000Z</time>
      </trkpt>
      <trkpt lat="42.94283" lon="2.18044">
        <ele>287.20001220703</ele>
        <time>2025-08-05T13:31:50.000Z</time>
      </trkpt>
      <trkpt lat="42.94285" lon="2.18034">
        <ele>287.60000610352</ele>
        <time>2025-08-05T13:31:54.000Z</time>
      </trkpt>
      <trkpt lat="42.94288" lon="2.18022">
        <ele>288.20001220703</ele>
        <time>2025-08-05T13:31:58.000Z</time>
      </trkpt>
      <trkpt lat="42.94293" lon="2.18003">
        <ele>288.39999389648</ele>
        <time>2025-08-05T13:32:03.000Z</time>
      </trkpt>
      <trkpt lat="42.94299" lon="2.17965">
        <ele>287.79998779297</ele>
        <time>2025-08-05T13:32:12.000Z</time>
      </trkpt>
      <trkpt lat="42.94297" lon="2.17925">
        <ele>287.79998779297</ele>
        <time>2025-08-05T13:32:20.000Z</time>
      </trkpt>
      <trkpt lat="42.94292" lon="2.17889">
        <ele>287.39999389648</ele>
        <time>2025-08-05T13:32:27.000Z</time>
      </trkpt>
      <trkpt lat="42.94291" lon="2.17856">
        <ele>287.20001220703</ele>
        <time>2025-08-05T13:32:33.000Z</time>
      </trkpt>
      <trkpt lat="42.9429" lon="2.17844">
        <ele>287.20001220703</ele>
        <time>2025-08-05T13:32:35.000Z</time>
      </trkpt>
      <trkpt lat="42.94287" lon="2.17805">
        <ele>286.39999389648</ele>
        <time>2025-08-05T13:32:42.000Z</time>
      </trkpt>
      <trkpt lat="42.94287" lon="2.17799">
        <ele>286.39999389648</ele>
        <time>2025-08-05T13:32:43.000Z</time>
      </trkpt>
      <trkpt lat="42.94285" lon="2.17771">
        <ele>286.20001220703</ele>
        <time>2025-08-05T13:32:48.000Z</time>
      </trkpt>
      <trkpt lat="42.94284" lon="2.1775">
        <ele>286</ele>
        <time>2025-08-05T13:32:52.000Z</time>
      </trkpt>
      <trkpt lat="42.94279" lon="2.17707">
        <ele>286.20001220703</ele>
        <time>2025-08-05T13:33:01.000Z</time>
      </trkpt>
      <trkpt lat="42.94278" lon="2.17692">
        <ele>286.60000610352</ele>
        <time>2025-08-05T13:33:05.000Z</time>
      </trkpt>
      <trkpt lat="42.94277" lon="2.17674">
        <ele>287.39999389648</ele>
        <time>2025-08-05T13:33:10.000Z</time>
      </trkpt>
      <trkpt lat="42.94276" lon="2.17667">
        <ele>287.60000610352</ele>
        <time>2025-08-05T13:33:12.000Z</time>
      </trkpt>
      <trkpt lat="42.94274" lon="2.1763">
        <ele>288.39999389648</ele>
        <time>2025-08-05T13:33:22.000Z</time>
      </trkpt>
      <trkpt lat="42.94271" lon="2.17608">
        <ele>289</ele>
        <time>2025-08-05T13:33:29.000Z</time>
      </trkpt>
      <trkpt lat="42.94271" lon="2.17602">
        <ele>289.60000610352</ele>
        <time>2025-08-05T13:33:31.000Z</time>
      </trkpt>
      <trkpt lat="42.94271" lon="2.17589">
        <ele>289.79998779297</ele>
        <time>2025-08-05T13:33:35.000Z</time>
      </trkpt>
      <trkpt lat="42.94268" lon="2.17559">
        <ele>290.39999389648</ele>
        <time>2025-08-05T13:33:44.000Z</time>
      </trkpt>
      <trkpt lat="42.94268" lon="2.17555">
        <ele>290.60000610352</ele>
        <time>2025-08-05T13:33:45.000Z</time>
      </trkpt>
      <trkpt lat="42.94266" lon="2.17525">
        <ele>290.79998779297</ele>
        <time>2025-08-05T13:33:52.000Z</time>
      </trkpt>
      <trkpt lat="42.94263" lon="2.17481">
        <ele>290.79998779297</ele>
        <time>2025-08-05T13:34:01.000Z</time>
      </trkpt>
      <trkpt lat="42.94257" lon="2.17432">
        <ele>290.79998779297</ele>
        <time>2025-08-05T13:34:11.000Z</time>
      </trkpt>
      <trkpt lat="42.94254" lon="2.17401">
        <ele>291.60000610352</ele>
        <time>2025-08-05T13:34:18.000Z</time>
      </trkpt>
      <trkpt lat="42.94252" lon="2.17389">
        <ele>291.79998779297</ele>
        <time>2025-08-05T13:34:21.000Z</time>
      </trkpt>
      <trkpt lat="42.9425" lon="2.17363">
        <ele>292.20001220703</ele>
        <time>2025-08-05T13:34:27.000Z</time>
      </trkpt>
      <trkpt lat="42.94248" lon="2.17344">
        <ele>292.60000610352</ele>
        <time>2025-08-05T13:34:32.000Z</time>
      </trkpt>
      <trkpt lat="42.94248" lon="2.17332">
        <ele>293.20001220703</ele>
        <time>2025-08-05T13:34:35.000Z</time>
      </trkpt>
      <trkpt lat="42.94245" lon="2.17302">
        <ele>293.60000610352</ele>
        <time>2025-08-05T13:34:43.000Z</time>
      </trkpt>
      <trkpt lat="42.94244" lon="2.17299">
        <ele>293.79998779297</ele>
        <time>2025-08-05T13:34:44.000Z</time>
      </trkpt>
      <trkpt lat="42.94242" lon="2.17268">
        <ele>294.39999389648</ele>
        <time>2025-08-05T13:34:52.000Z</time>
      </trkpt>
      <trkpt lat="42.94242" lon="2.17229">
        <ele>294.60000610352</ele>
        <time>2025-08-05T13:35:01.000Z</time>
      </trkpt>
      <trkpt lat="42.94244" lon="2.17183">
        <ele>294.60000610352</ele>
        <time>2025-08-05T13:35:10.000Z</time>
      </trkpt>
      <trkpt lat="42.94246" lon="2.17141">
        <ele>294.39999389648</ele>
        <time>2025-08-05T13:35:18.000Z</time>
      </trkpt>
      <trkpt lat="42.94249" lon="2.17099">
        <ele>294.39999389648</ele>
        <time>2025-08-05T13:35:26.000Z</time>
      </trkpt>
      <trkpt lat="42.94249" lon="2.17048">
        <ele>294.60000610352</ele>
        <time>2025-08-05T13:35:34.000Z</time>
      </trkpt>
      <trkpt lat="42.94248" lon="2.16996">
        <ele>294.20001220703</ele>
        <time>2025-08-05T13:35:42.000Z</time>
      </trkpt>
      <trkpt lat="42.94246" lon="2.16961">
        <ele>294.39999389648</ele>
        <time>2025-08-05T13:35:48.000Z</time>
      </trkpt>
      <trkpt lat="42.94245" lon="2.16955">
        <ele>294.39999389648</ele>
        <time>2025-08-05T13:35:49.000Z</time>
      </trkpt>
      <trkpt lat="42.94245" lon="2.1695">
        <ele>294.39999389648</ele>
        <time>2025-08-05T13:35:50.000Z</time>
      </trkpt>
      <trkpt lat="42.94244" lon="2.16936">
        <ele>294.79998779297</ele>
        <time>2025-08-05T13:35:53.000Z</time>
      </trkpt>
      <trkpt lat="42.94244" lon="2.16932">
        <ele>294.79998779297</ele>
        <time>2025-08-05T13:35:54.000Z</time>
      </trkpt>
      <trkpt lat="42.94242" lon="2.16891">
        <ele>295.20001220703</ele>
        <time>2025-08-05T13:36:02.000Z</time>
      </trkpt>
      <trkpt lat="42.94241" lon="2.1685">
        <ele>295.79998779297</ele>
        <time>2025-08-05T13:36:11.000Z</time>
      </trkpt>
      <trkpt lat="42.94241" lon="2.1682">
        <ele>296.20001220703</ele>
        <time>2025-08-05T13:36:18.000Z</time>
      </trkpt>
      <trkpt lat="42.94239" lon="2.16784">
        <ele>296.20001220703</ele>
        <time>2025-08-05T13:36:28.000Z</time>
      </trkpt>
      <trkpt lat="42.94238" lon="2.16745">
        <ele>296.39999389648</ele>
        <time>2025-08-05T13:36:38.000Z</time>
      </trkpt>
      <trkpt lat="42.94237" lon="2.16722">
        <ele>296.79998779297</ele>
        <time>2025-08-05T13:36:43.000Z</time>
      </trkpt>
      <trkpt lat="42.94236" lon="2.167">
        <ele>297.20001220703</ele>
        <time>2025-08-05T13:36:48.000Z</time>
      </trkpt>
      <trkpt lat="42.94234" lon="2.16642">
        <ele>297.39999389648</ele>
        <time>2025-08-05T13:37:01.000Z</time>
      </trkpt>
      <trkpt lat="42.94234" lon="2.16625">
        <ele>297.60000610352</ele>
        <time>2025-08-05T13:37:05.000Z</time>
      </trkpt>
      <trkpt lat="42.94233" lon="2.16596">
        <ele>298</ele>
        <time>2025-08-05T13:37:12.000Z</time>
      </trkpt>
      <trkpt lat="42.94231" lon="2.16555">
        <ele>298</ele>
        <time>2025-08-05T13:37:22.000Z</time>
      </trkpt>
      <trkpt lat="42.94229" lon="2.16519">
        <ele>298.20001220703</ele>
        <time>2025-08-05T13:37:31.000Z</time>
      </trkpt>
      <trkpt lat="42.94229" lon="2.165">
        <ele>298.60000610352</ele>
        <time>2025-08-05T13:37:36.000Z</time>
      </trkpt>
      <trkpt lat="42.94229" lon="2.16487">
        <ele>298.79998779297</ele>
        <time>2025-08-05T13:37:40.000Z</time>
      </trkpt>
      <trkpt lat="42.94228" lon="2.16463">
        <ele>299.20001220703</ele>
        <time>2025-08-05T13:37:47.000Z</time>
      </trkpt>
      <trkpt lat="42.94227" lon="2.16448">
        <ele>299.60000610352</ele>
        <time>2025-08-05T13:37:52.000Z</time>
      </trkpt>
      <trkpt lat="42.94226" lon="2.16445">
        <ele>299.79998779297</ele>
        <time>2025-08-05T13:37:53.000Z</time>
      </trkpt>
      <trkpt lat="42.94224" lon="2.16411">
        <ele>300.60000610352</ele>
        <time>2025-08-05T13:38:03.000Z</time>
      </trkpt>
      <trkpt lat="42.94223" lon="2.16408">
        <ele>300.79998779297</ele>
        <time>2025-08-05T13:38:04.000Z</time>
      </trkpt>
      <trkpt lat="42.94223" lon="2.16404">
        <ele>301</ele>
        <time>2025-08-05T13:38:05.000Z</time>
      </trkpt>
      <trkpt lat="42.94218" lon="2.16376">
        <ele>301.39999389648</ele>
        <time>2025-08-05T13:38:13.000Z</time>
      </trkpt>
      <trkpt lat="42.94215" lon="2.16343">
        <ele>301.60000610352</ele>
        <time>2025-08-05T13:38:21.000Z</time>
      </trkpt>
      <trkpt lat="42.94212" lon="2.16317">
        <ele>301.20001220703</ele>
        <time>2025-08-05T13:38:27.000Z</time>
      </trkpt>
      <trkpt lat="42.9421" lon="2.16279">
        <ele>300.39999389648</ele>
        <time>2025-08-05T13:38:35.000Z</time>
      </trkpt>
      <trkpt lat="42.94207" lon="2.16232">
        <ele>300</ele>
        <time>2025-08-05T13:38:43.000Z</time>
      </trkpt>
      <trkpt lat="42.94202" lon="2.16166">
        <ele>300.20001220703</ele>
        <time>2025-08-05T13:38:55.000Z</time>
      </trkpt>
      <trkpt lat="42.94199" lon="2.16135">
        <ele>300.60000610352</ele>
        <time>2025-08-05T13:39:02.000Z</time>
      </trkpt>
      <trkpt lat="42.94195" lon="2.16111">
        <ele>301</ele>
        <time>2025-08-05T13:39:08.000Z</time>
      </trkpt>
      <trkpt lat="42.94191" lon="2.16078">
        <ele>301.60000610352</ele>
        <time>2025-08-05T13:39:17.000Z</time>
      </trkpt>
      <trkpt lat="42.94191" lon="2.16071">
        <ele>301.79998779297</ele>
        <time>2025-08-05T13:39:19.000Z</time>
      </trkpt>
      <trkpt lat="42.9419" lon="2.16057">
        <ele>302.39999389648</ele>
        <time>2025-08-05T13:39:23.000Z</time>
      </trkpt>
      <trkpt lat="42.94186" lon="2.16035">
        <ele>303</ele>
        <time>2025-08-05T13:39:30.000Z</time>
      </trkpt>
      <trkpt lat="42.94187" lon="2.16019">
        <ele>303.60000610352</ele>
        <time>2025-08-05T13:39:36.000Z</time>
      </trkpt>
      <trkpt lat="42.94184" lon="2.15994">
        <ele>304</ele>
        <time>2025-08-05T13:39:44.000Z</time>
      </trkpt>
      <trkpt lat="42.94184" lon="2.15991">
        <ele>304</ele>
        <time>2025-08-05T13:39:45.000Z</time>
      </trkpt>
      <trkpt lat="42.94179" lon="2.15969">
        <ele>304.79998779297</ele>
        <time>2025-08-05T13:39:52.000Z</time>
      </trkpt>
      <trkpt lat="42.94176" lon="2.15958">
        <ele>305</ele>
        <time>2025-08-05T13:39:56.000Z</time>
      </trkpt>
      <trkpt lat="42.94173" lon="2.15947">
        <ele>305.60000610352</ele>
        <time>2025-08-05T13:40:00.000Z</time>
      </trkpt>
      <trkpt lat="42.94167" lon="2.15931">
        <ele>306</ele>
        <time>2025-08-05T13:40:06.000Z</time>
      </trkpt>
      <trkpt lat="42.94164" lon="2.15922">
        <ele>306.20001220703</ele>
        <time>2025-08-05T13:40:09.000Z</time>
      </trkpt>
      <trkpt lat="42.94158" lon="2.15904">
        <ele>306.39999389648</ele>
        <time>2025-08-05T13:40:17.000Z</time>
      </trkpt>
      <trkpt lat="42.94145" lon="2.15869">
        <ele>306.79998779297</ele>
        <time>2025-08-05T13:40:28.000Z</time>
      </trkpt>
      <trkpt lat="42.94142" lon="2.15862">
        <ele>307.20001220703</ele>
        <time>2025-08-05T13:40:30.000Z</time>
      </trkpt>
      <trkpt lat="42.9413" lon="2.15835">
        <ele>307.39999389648</ele>
        <time>2025-08-05T13:40:37.000Z</time>
      </trkpt>
      <trkpt lat="42.94115" lon="2.15815">
        <ele>307.39999389648</ele>
        <time>2025-08-05T13:40:42.000Z</time>
      </trkpt>
      <trkpt lat="42.94086" lon="2.15785">
        <ele>306.60000610352</ele>
        <time>2025-08-05T13:40:49.000Z</time>
      </trkpt>
      <trkpt lat="42.94056" lon="2.15748">
        <ele>306</ele>
        <time>2025-08-05T13:40:57.000Z</time>
      </trkpt>
      <trkpt lat="42.94051" lon="2.15738">
        <ele>306</ele>
        <time>2025-08-05T13:40:59.000Z</time>
      </trkpt>
      <trkpt lat="42.94043" lon="2.15715">
        <ele>306</ele>
        <time>2025-08-05T13:41:04.000Z</time>
      </trkpt>
      <trkpt lat="42.94037" lon="2.15688">
        <ele>306.20001220703</ele>
        <time>2025-08-05T13:41:11.000Z</time>
      </trkpt>
      <trkpt lat="42.94031" lon="2.1566">
        <ele>307</ele>
        <time>2025-08-05T13:41:19.000Z</time>
      </trkpt>
      <trkpt lat="42.94024" lon="2.15634">
        <ele>307.79998779297</ele>
        <time>2025-08-05T13:41:27.000Z</time>
      </trkpt>
      <trkpt lat="42.94022" lon="2.15623">
        <ele>308.20001220703</ele>
        <time>2025-08-05T13:41:30.000Z</time>
      </trkpt>
      <trkpt lat="42.94017" lon="2.15604">
        <ele>308.79998779297</ele>
        <time>2025-08-05T13:41:35.000Z</time>
      </trkpt>
      <trkpt lat="42.94009" lon="2.15575">
        <ele>309.20001220703</ele>
        <time>2025-08-05T13:41:42.000Z</time>
      </trkpt>
      <trkpt lat="42.94005" lon="2.15563">
        <ele>309.60000610352</ele>
        <time>2025-08-05T13:41:45.000Z</time>
      </trkpt>
      <trkpt lat="42.93994" lon="2.15518">
        <ele>309.39999389648</ele>
        <time>2025-08-05T13:41:54.000Z</time>
      </trkpt>
      <trkpt lat="42.93982" lon="2.15466">
        <ele>308.60000610352</ele>
        <time>2025-08-05T13:42:02.000Z</time>
      </trkpt>
      <trkpt lat="42.93967" lon="2.15404">
        <ele>308.60000610352</ele>
        <time>2025-08-05T13:42:12.000Z</time>
      </trkpt>
      <trkpt lat="42.93954" lon="2.15358">
        <ele>309.60000610352</ele>
        <time>2025-08-05T13:42:21.000Z</time>
      </trkpt>
      <trkpt lat="42.93948" lon="2.15329">
        <ele>310.20001220703</ele>
        <time>2025-08-05T13:42:27.000Z</time>
      </trkpt>
      <trkpt lat="42.93945" lon="2.1532">
        <ele>310.20001220703</ele>
        <time>2025-08-05T13:42:29.000Z</time>
      </trkpt>
      <trkpt lat="42.93931" lon="2.15271">
        <ele>310.60000610352</ele>
        <time>2025-08-05T13:42:39.000Z</time>
      </trkpt>
      <trkpt lat="42.93926" lon="2.15235">
        <ele>310.79998779297</ele>
        <time>2025-08-05T13:42:46.000Z</time>
      </trkpt>
      <trkpt lat="42.93924" lon="2.15211">
        <ele>311.20001220703</ele>
        <time>2025-08-05T13:42:51.000Z</time>
      </trkpt>
      <trkpt lat="42.93924" lon="2.15198">
        <ele>311.39999389648</ele>
        <time>2025-08-05T13:42:54.000Z</time>
      </trkpt>
      <trkpt lat="42.93923" lon="2.15165">
        <ele>312</ele>
        <time>2025-08-05T13:43:03.000Z</time>
      </trkpt>
      <trkpt lat="42.93922" lon="2.15158">
        <ele>312.39999389648</ele>
        <time>2025-08-05T13:43:05.000Z</time>
      </trkpt>
      <trkpt lat="42.93922" lon="2.1514">
        <ele>313</ele>
        <time>2025-08-05T13:43:10.000Z</time>
      </trkpt>
      <trkpt lat="42.93921" lon="2.15125">
        <ele>313.39999389648</ele>
        <time>2025-08-05T13:43:14.000Z</time>
      </trkpt>
      <trkpt lat="42.9392" lon="2.15111">
        <ele>313.60000610352</ele>
        <time>2025-08-05T13:43:18.000Z</time>
      </trkpt>
      <trkpt lat="42.9392" lon="2.15087">
        <ele>314.39999389648</ele>
        <time>2025-08-05T13:43:24.000Z</time>
      </trkpt>
      <trkpt lat="42.9392" lon="2.15083">
        <ele>314.60000610352</ele>
        <time>2025-08-05T13:43:25.000Z</time>
      </trkpt>
      <trkpt lat="42.93919" lon="2.15054">
        <ele>315.20001220703</ele>
        <time>2025-08-05T13:43:32.000Z</time>
      </trkpt>
      <trkpt lat="42.93918" lon="2.15039">
        <ele>315.60000610352</ele>
        <time>2025-08-05T13:43:36.000Z</time>
      </trkpt>
      <trkpt lat="42.93919" lon="2.15021">
        <ele>316.39999389648</ele>
        <time>2025-08-05T13:43:41.000Z</time>
      </trkpt>
      <trkpt lat="42.93918" lon="2.15011">
        <ele>316.60000610352</ele>
        <time>2025-08-05T13:43:44.000Z</time>
      </trkpt>
      <trkpt lat="42.93917" lon="2.15001">
        <ele>317</ele>
        <time>2025-08-05T13:43:47.000Z</time>
      </trkpt>
      <trkpt lat="42.93915" lon="2.14994">
        <ele>317.20001220703</ele>
        <time>2025-08-05T13:43:49.000Z</time>
      </trkpt>
      <trkpt lat="42.9391" lon="2.14979">
        <ele>317.39999389648</ele>
        <time>2025-08-05T13:43:54.000Z</time>
      </trkpt>
      <trkpt lat="42.939" lon="2.14949">
        <ele>317.20001220703</ele>
        <time>2025-08-05T13:44:02.000Z</time>
      </trkpt>
      <trkpt lat="42.93892" lon="2.14921">
        <ele>316</ele>
        <time>2025-08-05T13:44:09.000Z</time>
      </trkpt>
      <trkpt lat="42.93891" lon="2.14917">
        <ele>316</ele>
        <time>2025-08-05T13:44:10.000Z</time>
      </trkpt>
      <trkpt lat="42.93886" lon="2.14897">
        <ele>316</ele>
        <time>2025-08-05T13:44:16.000Z</time>
      </trkpt>
      <trkpt lat="42.93873" lon="2.14866">
        <ele>315.60000610352</ele>
        <time>2025-08-05T13:44:24.000Z</time>
      </trkpt>
      <trkpt lat="42.9387" lon="2.14854">
        <ele>315.39999389648</ele>
        <time>2025-08-05T13:44:27.000Z</time>
      </trkpt>
      <trkpt lat="42.93858" lon="2.14831">
        <ele>315.60000610352</ele>
        <time>2025-08-05T13:44:34.000Z</time>
      </trkpt>
      <trkpt lat="42.93848" lon="2.14813">
        <ele>315.60000610352</ele>
        <time>2025-08-05T13:44:39.000Z</time>
      </trkpt>
      <trkpt lat="42.93841" lon="2.14799">
        <ele>315.60000610352</ele>
        <time>2025-08-05T13:44:43.000Z</time>
      </trkpt>
      <trkpt lat="42.93831" lon="2.14776">
        <ele>315.20001220703</ele>
        <time>2025-08-05T13:44:50.000Z</time>
      </trkpt>
      <trkpt lat="42.9382" lon="2.14755">
        <ele>315.20001220703</ele>
        <time>2025-08-05T13:44:57.000Z</time>
      </trkpt>
      <trkpt lat="42.93807" lon="2.1473">
        <ele>315.39999389648</ele>
        <time>2025-08-05T13:45:05.000Z</time>
      </trkpt>
      <trkpt lat="42.93791" lon="2.147">
        <ele>315.39999389648</ele>
        <time>2025-08-05T13:45:14.000Z</time>
      </trkpt>
      <trkpt lat="42.9378" lon="2.1468">
        <ele>315.39999389648</ele>
        <time>2025-08-05T13:45:20.000Z</time>
      </trkpt>
      <trkpt lat="42.93768" lon="2.14655">
        <ele>315.20001220703</ele>
        <time>2025-08-05T13:45:27.000Z</time>
      </trkpt>
      <trkpt lat="42.93753" lon="2.14626">
        <ele>314.79998779297</ele>
        <time>2025-08-05T13:45:36.000Z</time>
      </trkpt>
      <trkpt lat="42.93749" lon="2.14619">
        <ele>314.60000610352</ele>
        <time>2025-08-05T13:45:38.000Z</time>
      </trkpt>
      <trkpt lat="42.93739" lon="2.14598">
        <ele>313.60000610352</ele>
        <time>2025-08-05T13:45:44.000Z</time>
      </trkpt>
      <trkpt lat="42.93736" lon="2.1459">
        <ele>313.39999389648</ele>
        <time>2025-08-05T13:45:46.000Z</time>
      </trkpt>
      <trkpt lat="42.9373" lon="2.14564">
        <ele>313.60000610352</ele>
        <time>2025-08-05T13:45:53.000Z</time>
      </trkpt>
      <trkpt lat="42.93727" lon="2.14541">
        <ele>313.39999389648</ele>
        <time>2025-08-05T13:46:01.000Z</time>
      </trkpt>
      <trkpt lat="42.93724" lon="2.14524">
        <ele>313.39999389648</ele>
        <time>2025-08-05T13:46:09.000Z</time>
      </trkpt>
      <trkpt lat="42.93723" lon="2.14506">
        <ele>313.39999389648</ele>
        <time>2025-08-05T13:46:16.000Z</time>
      </trkpt>
      <trkpt lat="42.93721" lon="2.14486">
        <ele>314.39999389648</ele>
        <time>2025-08-05T13:46:23.000Z</time>
      </trkpt>
      <trkpt lat="42.93718" lon="2.14465">
        <ele>315.39999389648</ele>
        <time>2025-08-05T13:46:30.000Z</time>
      </trkpt>
      <trkpt lat="42.93718" lon="2.14462">
        <ele>315.39999389648</ele>
        <time>2025-08-05T13:46:31.000Z</time>
      </trkpt>
      <trkpt lat="42.93715" lon="2.1445">
        <ele>316.20001220703</ele>
        <time>2025-08-05T13:46:36.000Z</time>
      </trkpt>
      <trkpt lat="42.93715" lon="2.14445">
        <ele>316.60000610352</ele>
        <time>2025-08-05T13:46:38.000Z</time>
      </trkpt>
      <trkpt lat="42.93715" lon="2.14444">
        <ele>316.79998779297</ele>
        <time>2025-08-05T13:46:41.000Z</time>
      </trkpt>
      <trkpt lat="42.9371" lon="2.14424">
        <ele>317.79998779297</ele>
        <time>2025-08-05T13:55:23.000Z</time>
      </trkpt>
      <trkpt lat="42.93709" lon="2.14417">
        <ele>317.79998779297</ele>
        <time>2025-08-05T13:55:26.000Z</time>
      </trkpt>
      <trkpt lat="42.93709" lon="2.14402">
        <ele>318</ele>
        <time>2025-08-05T13:55:30.000Z</time>
      </trkpt>
      <trkpt lat="42.93708" lon="2.14377">
        <ele>318.39999389648</ele>
        <time>2025-08-05T13:55:37.000Z</time>
      </trkpt>
      <trkpt lat="42.93709" lon="2.14363">
        <ele>318.79998779297</ele>
        <time>2025-08-05T13:55:41.000Z</time>
      </trkpt>
      <trkpt lat="42.93711" lon="2.14346">
        <ele>319.39999389648</ele>
        <time>2025-08-05T13:55:46.000Z</time>
      </trkpt>
      <trkpt lat="42.93713" lon="2.14336">
        <ele>319.79998779297</ele>
        <time>2025-08-05T13:55:50.000Z</time>
      </trkpt>
      <trkpt lat="42.93714" lon="2.14327">
        <ele>320</ele>
        <time>2025-08-05T13:55:53.000Z</time>
      </trkpt>
      <trkpt lat="42.93717" lon="2.14297">
        <ele>320.79998779297</ele>
        <time>2025-08-05T13:56:03.000Z</time>
      </trkpt>
      <trkpt lat="42.93715" lon="2.14266">
        <ele>321.39999389648</ele>
        <time>2025-08-05T13:56:12.000Z</time>
      </trkpt>
      <trkpt lat="42.93713" lon="2.1425">
        <ele>321.79998779297</ele>
        <time>2025-08-05T13:56:17.000Z</time>
      </trkpt>
      <trkpt lat="42.93712" lon="2.14231">
        <ele>322.20001220703</ele>
        <time>2025-08-05T13:56:22.000Z</time>
      </trkpt>
      <trkpt lat="42.93708" lon="2.14199">
        <ele>322.79998779297</ele>
        <time>2025-08-05T13:56:31.000Z</time>
      </trkpt>
      <trkpt lat="42.93707" lon="2.14196">
        <ele>323</ele>
        <time>2025-08-05T13:56:32.000Z</time>
      </trkpt>
      <trkpt lat="42.93705" lon="2.14168">
        <ele>324</ele>
        <time>2025-08-05T13:56:40.000Z</time>
      </trkpt>
      <trkpt lat="42.93704" lon="2.14161">
        <ele>324</ele>
        <time>2025-08-05T13:56:42.000Z</time>
      </trkpt>
      <trkpt lat="42.937" lon="2.14129">
        <ele>324.39999389648</ele>
        <time>2025-08-05T13:56:51.000Z</time>
      </trkpt>
      <trkpt lat="42.93698" lon="2.14111">
        <ele>325.20001220703</ele>
        <time>2025-08-05T13:56:57.000Z</time>
      </trkpt>
      <trkpt lat="42.93697" lon="2.141">
        <ele>325.39999389648</ele>
        <time>2025-08-05T13:57:00.000Z</time>
      </trkpt>
      <trkpt lat="42.93695" lon="2.14069">
        <ele>325.60000610352</ele>
        <time>2025-08-05T13:57:09.000Z</time>
      </trkpt>
      <trkpt lat="42.93693" lon="2.14051">
        <ele>326.20001220703</ele>
        <time>2025-08-05T13:57:15.000Z</time>
      </trkpt>
      <trkpt lat="42.93692" lon="2.14042">
        <ele>326.60000610352</ele>
        <time>2025-08-05T13:57:18.000Z</time>
      </trkpt>
      <trkpt lat="42.9369" lon="2.14025">
        <ele>327.39999389648</ele>
        <time>2025-08-05T13:57:24.000Z</time>
      </trkpt>
      <trkpt lat="42.9369" lon="2.14019">
        <ele>327.60000610352</ele>
        <time>2025-08-05T13:57:26.000Z</time>
      </trkpt>
      <trkpt lat="42.93691" lon="2.14004">
        <ele>328.60000610352</ele>
        <time>2025-08-05T13:57:31.000Z</time>
      </trkpt>
      <trkpt lat="42.9369" lon="2.13998">
        <ele>328.79998779297</ele>
        <time>2025-08-05T13:57:33.000Z</time>
      </trkpt>
      <trkpt lat="42.93694" lon="2.13971">
        <ele>329.60000610352</ele>
        <time>2025-08-05T13:57:43.000Z</time>
      </trkpt>
      <trkpt lat="42.93695" lon="2.13968">
        <ele>329.60000610352</ele>
        <time>2025-08-05T13:57:44.000Z</time>
      </trkpt>
      <trkpt lat="42.93704" lon="2.13936">
        <ele>330.39999389648</ele>
        <time>2025-08-05T13:57:56.000Z</time>
      </trkpt>
      <trkpt lat="42.93708" lon="2.13926">
        <ele>330.60000610352</ele>
        <time>2025-08-05T13:58:00.000Z</time>
      </trkpt>
      <trkpt lat="42.93713" lon="2.13916">
        <ele>331</ele>
        <time>2025-08-05T13:58:04.000Z</time>
      </trkpt>
      <trkpt lat="42.93722" lon="2.13897">
        <ele>331.60000610352</ele>
        <time>2025-08-05T13:58:12.000Z</time>
      </trkpt>
      <trkpt lat="42.93723" lon="2.13895">
        <ele>331.79998779297</ele>
        <time>2025-08-05T13:58:13.000Z</time>
      </trkpt>
      <trkpt lat="42.93731" lon="2.13879">
        <ele>332.20001220703</ele>
        <time>2025-08-05T13:58:20.000Z</time>
      </trkpt>
      <trkpt lat="42.93741" lon="2.1386">
        <ele>333</ele>
        <time>2025-08-05T13:58:29.000Z</time>
      </trkpt>
      <trkpt lat="42.93742" lon="2.13858">
        <ele>333</ele>
        <time>2025-08-05T13:58:30.000Z</time>
      </trkpt>
      <trkpt lat="42.93747" lon="2.13849">
        <ele>333.60000610352</ele>
        <time>2025-08-05T13:58:34.000Z</time>
      </trkpt>
      <trkpt lat="42.93751" lon="2.1384">
        <ele>334</ele>
        <time>2025-08-05T13:58:38.000Z</time>
      </trkpt>
      <trkpt lat="42.93753" lon="2.13832">
        <ele>334.20001220703</ele>
        <time>2025-08-05T13:58:41.000Z</time>
      </trkpt>
      <trkpt lat="42.93756" lon="2.1382">
        <ele>335</ele>
        <time>2025-08-05T13:58:46.000Z</time>
      </trkpt>
      <trkpt lat="42.93758" lon="2.13807">
        <ele>336</ele>
        <time>2025-08-05T13:58:51.000Z</time>
      </trkpt>
      <trkpt lat="42.93759" lon="2.138">
        <ele>336.20001220703</ele>
        <time>2025-08-05T13:58:54.000Z</time>
      </trkpt>
      <trkpt lat="42.93762" lon="2.13779">
        <ele>336.79998779297</ele>
        <time>2025-08-05T13:59:02.000Z</time>
      </trkpt>
      <trkpt lat="42.93761" lon="2.1377">
        <ele>337</ele>
        <time>2025-08-05T13:59:05.000Z</time>
      </trkpt>
      <trkpt lat="42.93763" lon="2.13765">
        <ele>337</ele>
        <time>2025-08-05T13:59:07.000Z</time>
      </trkpt>
      <trkpt lat="42.93764" lon="2.1376">
        <ele>337.20001220703</ele>
        <time>2025-08-05T13:59:09.000Z</time>
      </trkpt>
      <trkpt lat="42.93767" lon="2.13743">
        <ele>337.39999389648</ele>
        <time>2025-08-05T13:59:16.000Z</time>
      </trkpt>
      <trkpt lat="42.93768" lon="2.13724">
        <ele>338</ele>
        <time>2025-08-05T13:59:24.000Z</time>
      </trkpt>
      <trkpt lat="42.93768" lon="2.13722">
        <ele>338.20001220703</ele>
        <time>2025-08-05T13:59:25.000Z</time>
      </trkpt>
      <trkpt lat="42.9377" lon="2.1371">
        <ele>338.79998779297</ele>
        <time>2025-08-05T13:59:30.000Z</time>
      </trkpt>
      <trkpt lat="42.9377" lon="2.13707">
        <ele>338.79998779297</ele>
        <time>2025-08-05T13:59:31.000Z</time>
      </trkpt>
      <trkpt lat="42.93769" lon="2.137">
        <ele>339.20001220703</ele>
        <time>2025-08-05T13:59:34.000Z</time>
      </trkpt>
      <trkpt lat="42.9377" lon="2.13688">
        <ele>339.60000610352</ele>
        <time>2025-08-05T13:59:40.000Z</time>
      </trkpt>
      <trkpt lat="42.9377" lon="2.13676">
        <ele>340.20001220703</ele>
        <time>2025-08-05T13:59:45.000Z</time>
      </trkpt>
      <trkpt lat="42.9377" lon="2.13674">
        <ele>340.39999389648</ele>
        <time>2025-08-05T13:59:46.000Z</time>
      </trkpt>
      <trkpt lat="42.93768" lon="2.1366">
        <ele>341</ele>
        <time>2025-08-05T13:59:52.000Z</time>
      </trkpt>
      <trkpt lat="42.93767" lon="2.13651">
        <ele>341.39999389648</ele>
        <time>2025-08-05T13:59:56.000Z</time>
      </trkpt>
      <trkpt lat="42.93765" lon="2.13639">
        <ele>342.39999389648</ele>
        <time>2025-08-05T14:00:01.000Z</time>
      </trkpt>
      <trkpt lat="42.93765" lon="2.13637">
        <ele>342.60000610352</ele>
        <time>2025-08-05T14:00:02.000Z</time>
      </trkpt>
      <trkpt lat="42.93763" lon="2.13629">
        <ele>343</ele>
        <time>2025-08-05T14:00:05.000Z</time>
      </trkpt>
      <trkpt lat="42.93762" lon="2.13626">
        <ele>343</ele>
        <time>2025-08-05T14:00:06.000Z</time>
      </trkpt>
      <trkpt lat="42.93761" lon="2.13624">
        <ele>343</ele>
        <time>2025-08-05T14:00:07.000Z</time>
      </trkpt>
      <trkpt lat="42.93757" lon="2.13606">
        <ele>343.39999389648</ele>
        <time>2025-08-05T14:00:14.000Z</time>
      </trkpt>
      <trkpt lat="42.93756" lon="2.13602">
        <ele>343.60000610352</ele>
        <time>2025-08-05T14:00:16.000Z</time>
      </trkpt>
      <trkpt lat="42.93752" lon="2.13587">
        <ele>344.60000610352</ele>
        <time>2025-08-05T14:00:22.000Z</time>
      </trkpt>
      <trkpt lat="42.93753" lon="2.1357">
        <ele>345.60000610352</ele>
        <time>2025-08-05T14:00:29.000Z</time>
      </trkpt>
      <trkpt lat="42.93753" lon="2.13567">
        <ele>345.79998779297</ele>
        <time>2025-08-05T14:00:30.000Z</time>
      </trkpt>
      <trkpt lat="42.93755" lon="2.1355">
        <ele>346.20001220703</ele>
        <time>2025-08-05T14:00:37.000Z</time>
      </trkpt>
      <trkpt lat="42.9376" lon="2.13529">
        <ele>346.60000610352</ele>
        <time>2025-08-05T14:00:45.000Z</time>
      </trkpt>
      <trkpt lat="42.93761" lon="2.13524">
        <ele>346.60000610352</ele>
        <time>2025-08-05T14:00:47.000Z</time>
      </trkpt>
      <trkpt lat="42.93761" lon="2.13522">
        <ele>346.79998779297</ele>
        <time>2025-08-05T14:00:48.000Z</time>
      </trkpt>
      <trkpt lat="42.93761" lon="2.13516">
        <ele>347</ele>
        <time>2025-08-05T14:00:50.000Z</time>
      </trkpt>
      <trkpt lat="42.93763" lon="2.13498">
        <ele>348</ele>
        <time>2025-08-05T14:00:57.000Z</time>
      </trkpt>
      <trkpt lat="42.93764" lon="2.1348">
        <ele>349.39999389648</ele>
        <time>2025-08-05T14:01:04.000Z</time>
      </trkpt>
      <trkpt lat="42.93766" lon="2.13475">
        <ele>349.60000610352</ele>
        <time>2025-08-05T14:01:06.000Z</time>
      </trkpt>
      <trkpt lat="42.93766" lon="2.13459">
        <ele>350.20001220703</ele>
        <time>2025-08-05T14:01:12.000Z</time>
      </trkpt>
      <trkpt lat="42.93768" lon="2.13438">
        <ele>350.39999389648</ele>
        <time>2025-08-05T14:01:20.000Z</time>
      </trkpt>
      <trkpt lat="42.93769" lon="2.13427">
        <ele>350.39999389648</ele>
        <time>2025-08-05T14:01:24.000Z</time>
      </trkpt>
      <trkpt lat="42.93769" lon="2.13416">
        <ele>350.39999389648</ele>
        <time>2025-08-05T14:01:28.000Z</time>
      </trkpt>
      <trkpt lat="42.93769" lon="2.13394">
        <ele>351</ele>
        <time>2025-08-05T14:01:36.000Z</time>
      </trkpt>
      <trkpt lat="42.93769" lon="2.13391">
        <ele>351.39999389648</ele>
        <time>2025-08-05T14:01:37.000Z</time>
      </trkpt>
      <trkpt lat="42.93764" lon="2.13365">
        <ele>352.20001220703</ele>
        <time>2025-08-05T14:01:47.000Z</time>
      </trkpt>
      <trkpt lat="42.93761" lon="2.13357">
        <ele>352.39999389648</ele>
        <time>2025-08-05T14:01:50.000Z</time>
      </trkpt>
      <trkpt lat="42.93758" lon="2.13345">
        <ele>352.60000610352</ele>
        <time>2025-08-05T14:01:55.000Z</time>
      </trkpt>
      <trkpt lat="42.93753" lon="2.13332">
        <ele>353.39999389648</ele>
        <time>2025-08-05T14:02:01.000Z</time>
      </trkpt>
      <trkpt lat="42.93751" lon="2.13326">
        <ele>353.79998779297</ele>
        <time>2025-08-05T14:02:03.000Z</time>
      </trkpt>
      <trkpt lat="42.93743" lon="2.13305">
        <ele>354.39999389648</ele>
        <time>2025-08-05T14:02:11.000Z</time>
      </trkpt>
      <trkpt lat="42.93742" lon="2.133">
        <ele>354.79998779297</ele>
        <time>2025-08-05T14:02:13.000Z</time>
      </trkpt>
      <trkpt lat="42.93735" lon="2.1328">
        <ele>355.39999389648</ele>
        <time>2025-08-05T14:02:21.000Z</time>
      </trkpt>
      <trkpt lat="42.93734" lon="2.13277">
        <ele>355.79998779297</ele>
        <time>2025-08-05T14:02:22.000Z</time>
      </trkpt>
      <trkpt lat="42.93731" lon="2.13263">
        <ele>356.39999389648</ele>
        <time>2025-08-05T14:02:27.000Z</time>
      </trkpt>
      <trkpt lat="42.93731" lon="2.1326">
        <ele>356.60000610352</ele>
        <time>2025-08-05T14:02:28.000Z</time>
      </trkpt>
      <trkpt lat="42.93731" lon="2.13257">
        <ele>356.79998779297</ele>
        <time>2025-08-05T14:02:29.000Z</time>
      </trkpt>
      <trkpt lat="42.9373" lon="2.13237">
        <ele>357.39999389648</ele>
        <time>2025-08-05T14:02:36.000Z</time>
      </trkpt>
      <trkpt lat="42.93729" lon="2.13229">
        <ele>357.60000610352</ele>
        <time>2025-08-05T14:02:39.000Z</time>
      </trkpt>
      <trkpt lat="42.93728" lon="2.13219">
        <ele>358</ele>
        <time>2025-08-05T14:02:43.000Z</time>
      </trkpt>
      <trkpt lat="42.93729" lon="2.13203">
        <ele>358.60000610352</ele>
        <time>2025-08-05T14:02:49.000Z</time>
      </trkpt>
      <trkpt lat="42.93729" lon="2.132">
        <ele>358.79998779297</ele>
        <time>2025-08-05T14:02:50.000Z</time>
      </trkpt>
      <trkpt lat="42.93728" lon="2.13176">
        <ele>359.20001220703</ele>
        <time>2025-08-05T14:02:59.000Z</time>
      </trkpt>
      <trkpt lat="42.93728" lon="2.13163">
        <ele>359.79998779297</ele>
        <time>2025-08-05T14:03:04.000Z</time>
      </trkpt>
      <trkpt lat="42.93727" lon="2.13157">
        <ele>360.20001220703</ele>
        <time>2025-08-05T14:03:07.000Z</time>
      </trkpt>
      <trkpt lat="42.93726" lon="2.1315">
        <ele>360.79998779297</ele>
        <time>2025-08-05T14:03:11.000Z</time>
      </trkpt>
      <trkpt lat="42.93724" lon="2.13146">
        <ele>360.79998779297</ele>
        <time>2025-08-05T14:03:13.000Z</time>
      </trkpt>
      <trkpt lat="42.93726" lon="2.13139">
        <ele>361</ele>
        <time>2025-08-05T14:03:17.000Z</time>
      </trkpt>
      <trkpt lat="42.93725" lon="2.13126">
        <ele>361.39999389648</ele>
        <time>2025-08-05T14:03:23.000Z</time>
      </trkpt>
      <trkpt lat="42.93725" lon="2.13119">
        <ele>361.60000610352</ele>
        <time>2025-08-05T14:03:26.000Z</time>
      </trkpt>
      <trkpt lat="42.93724" lon="2.13114">
        <ele>361.79998779297</ele>
        <time>2025-08-05T14:03:28.000Z</time>
      </trkpt>
      <trkpt lat="42.93722" lon="2.13103">
        <ele>362.39999389648</ele>
        <time>2025-08-05T14:03:32.000Z</time>
      </trkpt>
      <trkpt lat="42.93719" lon="2.13081">
        <ele>363.20001220703</ele>
        <time>2025-08-05T14:03:40.000Z</time>
      </trkpt>
      <trkpt lat="42.93717" lon="2.1307">
        <ele>363.39999389648</ele>
        <time>2025-08-05T14:03:44.000Z</time>
      </trkpt>
      <trkpt lat="42.93715" lon="2.13043">
        <ele>364.20001220703</ele>
        <time>2025-08-05T14:03:53.000Z</time>
      </trkpt>
      <trkpt lat="42.93715" lon="2.1304">
        <ele>364.39999389648</ele>
        <time>2025-08-05T14:03:54.000Z</time>
      </trkpt>
      <trkpt lat="42.93715" lon="2.13022">
        <ele>364.79998779297</ele>
        <time>2025-08-05T14:04:01.000Z</time>
      </trkpt>
      <trkpt lat="42.93716" lon="2.13015">
        <ele>365.20001220703</ele>
        <time>2025-08-05T14:04:04.000Z</time>
      </trkpt>
      <trkpt lat="42.93715" lon="2.13004">
        <ele>365.60000610352</ele>
        <time>2025-08-05T14:04:08.000Z</time>
      </trkpt>
      <trkpt lat="42.93715" lon="2.12985">
        <ele>366</ele>
        <time>2025-08-05T14:04:15.000Z</time>
      </trkpt>
      <trkpt lat="42.93716" lon="2.12979">
        <ele>366.20001220703</ele>
        <time>2025-08-05T14:04:17.000Z</time>
      </trkpt>
      <trkpt lat="42.93715" lon="2.12965">
        <ele>366.79998779297</ele>
        <time>2025-08-05T14:04:22.000Z</time>
      </trkpt>
      <trkpt lat="42.93716" lon="2.12951">
        <ele>367.20001220703</ele>
        <time>2025-08-05T14:04:27.000Z</time>
      </trkpt>
      <trkpt lat="42.93716" lon="2.12937">
        <ele>367.39999389648</ele>
        <time>2025-08-05T14:04:32.000Z</time>
      </trkpt>
      <trkpt lat="42.93717" lon="2.12927">
        <ele>367.79998779297</ele>
        <time>2025-08-05T14:04:36.000Z</time>
      </trkpt>
      <trkpt lat="42.93716" lon="2.12926">
        <ele>367.79998779297</ele>
        <time>2025-08-05T14:04:37.000Z</time>
      </trkpt>
      <trkpt lat="42.93715" lon="2.12924">
        <ele>367.79998779297</ele>
        <time>2025-08-05T14:04:38.000Z</time>
      </trkpt>
      <trkpt lat="42.93718" lon="2.12919">
        <ele>368.20001220703</ele>
        <time>2025-08-05T14:04:41.000Z</time>
      </trkpt>
      <trkpt lat="42.93719" lon="2.12912">
        <ele>368.20001220703</ele>
        <time>2025-08-05T14:04:44.000Z</time>
      </trkpt>
      <trkpt lat="42.9372" lon="2.12897">
        <ele>368.39999389648</ele>
        <time>2025-08-05T14:04:49.000Z</time>
      </trkpt>
      <trkpt lat="42.9372" lon="2.12882">
        <ele>369.20001220703</ele>
        <time>2025-08-05T14:04:54.000Z</time>
      </trkpt>
      <trkpt lat="42.9372" lon="2.12877">
        <ele>369.20001220703</ele>
        <time>2025-08-05T14:04:56.000Z</time>
      </trkpt>
      <trkpt lat="42.93714" lon="2.12852">
        <ele>370.20001220703</ele>
        <time>2025-08-05T14:05:05.000Z</time>
      </trkpt>
      <trkpt lat="42.93713" lon="2.12847">
        <ele>370.39999389648</ele>
        <time>2025-08-05T14:05:07.000Z</time>
      </trkpt>
      <trkpt lat="42.93704" lon="2.1283">
        <ele>371.20001220703</ele>
        <time>2025-08-05T14:05:14.000Z</time>
      </trkpt>
      <trkpt lat="42.93703" lon="2.12828">
        <ele>371.39999389648</ele>
        <time>2025-08-05T14:05:15.000Z</time>
      </trkpt>
      <trkpt lat="42.93698" lon="2.12816">
        <ele>372.39999389648</ele>
        <time>2025-08-05T14:05:20.000Z</time>
      </trkpt>
      <trkpt lat="42.93694" lon="2.12805">
        <ele>373.20001220703</ele>
        <time>2025-08-05T14:05:24.000Z</time>
      </trkpt>
      <trkpt lat="42.93685" lon="2.12784">
        <ele>373.39999389648</ele>
        <time>2025-08-05T14:05:32.000Z</time>
      </trkpt>
      <trkpt lat="42.93684" lon="2.12782">
        <ele>373.39999389648</ele>
        <time>2025-08-05T14:05:33.000Z</time>
      </trkpt>
      <trkpt lat="42.93677" lon="2.12752">
        <ele>374</ele>
        <time>2025-08-05T14:05:44.000Z</time>
      </trkpt>
      <trkpt lat="42.93677" lon="2.12735">
        <ele>374.39999389648</ele>
        <time>2025-08-05T14:05:50.000Z</time>
      </trkpt>
      <trkpt lat="42.93677" lon="2.12732">
        <ele>374.60000610352</ele>
        <time>2025-08-05T14:05:51.000Z</time>
      </trkpt>
      <trkpt lat="42.93679" lon="2.12709">
        <ele>375.20001220703</ele>
        <time>2025-08-05T14:05:59.000Z</time>
      </trkpt>
      <trkpt lat="42.93682" lon="2.12695">
        <ele>375.60000610352</ele>
        <time>2025-08-05T14:06:04.000Z</time>
      </trkpt>
      <trkpt lat="42.93684" lon="2.12684">
        <ele>375.79998779297</ele>
        <time>2025-08-05T14:06:08.000Z</time>
      </trkpt>
      <trkpt lat="42.93692" lon="2.12657">
        <ele>376.39999389648</ele>
        <time>2025-08-05T14:06:18.000Z</time>
      </trkpt>
      <trkpt lat="42.93693" lon="2.12652">
        <ele>376.60000610352</ele>
        <time>2025-08-05T14:06:20.000Z</time>
      </trkpt>
      <trkpt lat="42.93699" lon="2.12638">
        <ele>377.20001220703</ele>
        <time>2025-08-05T14:06:26.000Z</time>
      </trkpt>
      <trkpt lat="42.937" lon="2.12636">
        <ele>377.39999389648</ele>
        <time>2025-08-05T14:06:27.000Z</time>
      </trkpt>
      <trkpt lat="42.93703" lon="2.12623">
        <ele>377.60000610352</ele>
        <time>2025-08-05T14:06:32.000Z</time>
      </trkpt>
      <trkpt lat="42.93704" lon="2.12621">
        <ele>377.60000610352</ele>
        <time>2025-08-05T14:06:33.000Z</time>
      </trkpt>
      <trkpt lat="42.93709" lon="2.12604">
        <ele>378.39999389648</ele>
        <time>2025-08-05T14:06:40.000Z</time>
      </trkpt>
      <trkpt lat="42.9371" lon="2.12602">
        <ele>378.60000610352</ele>
        <time>2025-08-05T14:06:41.000Z</time>
      </trkpt>
      <trkpt lat="42.93716" lon="2.12584">
        <ele>379.60000610352</ele>
        <time>2025-08-05T14:06:49.000Z</time>
      </trkpt>
      <trkpt lat="42.93717" lon="2.12581">
        <ele>379.60000610352</ele>
        <time>2025-08-05T14:06:50.000Z</time>
      </trkpt>
      <trkpt lat="42.93721" lon="2.1257">
        <ele>379.79998779297</ele>
        <time>2025-08-05T14:06:55.000Z</time>
      </trkpt>
      <trkpt lat="42.93727" lon="2.12547">
        <ele>380.60000610352</ele>
        <time>2025-08-05T14:07:04.000Z</time>
      </trkpt>
      <trkpt lat="42.93728" lon="2.12543">
        <ele>380.60000610352</ele>
        <time>2025-08-05T14:07:06.000Z</time>
      </trkpt>
      <trkpt lat="42.93729" lon="2.1254">
        <ele>380.79998779297</ele>
        <time>2025-08-05T14:07:07.000Z</time>
      </trkpt>
      <trkpt lat="42.9373" lon="2.12535">
        <ele>380.79998779297</ele>
        <time>2025-08-05T14:07:09.000Z</time>
      </trkpt>
      <trkpt lat="42.93731" lon="2.12533">
        <ele>381</ele>
        <time>2025-08-05T14:07:10.000Z</time>
      </trkpt>
      <trkpt lat="42.93736" lon="2.12514">
        <ele>381.39999389648</ele>
        <time>2025-08-05T14:07:17.000Z</time>
      </trkpt>
      <trkpt lat="42.93739" lon="2.125">
        <ele>381.79998779297</ele>
        <time>2025-08-05T14:07:22.000Z</time>
      </trkpt>
      <trkpt lat="42.93742" lon="2.12489">
        <ele>382.20001220703</ele>
        <time>2025-08-05T14:07:26.000Z</time>
      </trkpt>
      <trkpt lat="42.93745" lon="2.12479">
        <ele>382.79998779297</ele>
        <time>2025-08-05T14:07:30.000Z</time>
      </trkpt>
      <trkpt lat="42.93747" lon="2.12471">
        <ele>383.20001220703</ele>
        <time>2025-08-05T14:07:33.000Z</time>
      </trkpt>
      <trkpt lat="42.93753" lon="2.12449">
        <ele>383.79998779297</ele>
        <time>2025-08-05T14:07:41.000Z</time>
      </trkpt>
      <trkpt lat="42.93753" lon="2.12447">
        <ele>383.79998779297</ele>
        <time>2025-08-05T14:07:42.000Z</time>
      </trkpt>
      <trkpt lat="42.93759" lon="2.12426">
        <ele>384.79998779297</ele>
        <time>2025-08-05T14:07:50.000Z</time>
      </trkpt>
      <trkpt lat="42.93759" lon="2.12424">
        <ele>384.79998779297</ele>
        <time>2025-08-05T14:07:51.000Z</time>
      </trkpt>
      <trkpt lat="42.9376" lon="2.12414">
        <ele>385.20001220703</ele>
        <time>2025-08-05T14:07:55.000Z</time>
      </trkpt>
      <trkpt lat="42.93761" lon="2.12412">
        <ele>385.39999389648</ele>
        <time>2025-08-05T14:07:56.000Z</time>
      </trkpt>
      <trkpt lat="42.93766" lon="2.12399">
        <ele>385.60000610352</ele>
        <time>2025-08-05T14:08:01.000Z</time>
      </trkpt>
      <trkpt lat="42.93768" lon="2.12392">
        <ele>385.79998779297</ele>
        <time>2025-08-05T14:08:04.000Z</time>
      </trkpt>
      <trkpt lat="42.93772" lon="2.12373">
        <ele>386.20001220703</ele>
        <time>2025-08-05T14:08:11.000Z</time>
      </trkpt>
      <trkpt lat="42.93776" lon="2.12353">
        <ele>386.79998779297</ele>
        <time>2025-08-05T14:08:18.000Z</time>
      </trkpt>
      <trkpt lat="42.93778" lon="2.12348">
        <ele>386.79998779297</ele>
        <time>2025-08-05T14:08:20.000Z</time>
      </trkpt>
      <trkpt lat="42.93781" lon="2.12327">
        <ele>387.79998779297</ele>
        <time>2025-08-05T14:08:28.000Z</time>
      </trkpt>
      <trkpt lat="42.93781" lon="2.12325">
        <ele>387.79998779297</ele>
        <time>2025-08-05T14:08:29.000Z</time>
      </trkpt>
      <trkpt lat="42.93778" lon="2.12295">
        <ele>388.60000610352</ele>
        <time>2025-08-05T14:08:40.000Z</time>
      </trkpt>
      <trkpt lat="42.93776" lon="2.12289">
        <ele>389</ele>
        <time>2025-08-05T14:08:42.000Z</time>
      </trkpt>
      <trkpt lat="42.93767" lon="2.12273">
        <ele>389.79998779297</ele>
        <time>2025-08-05T14:08:49.000Z</time>
      </trkpt>
      <trkpt lat="42.93766" lon="2.12271">
        <ele>389.79998779297</ele>
        <time>2025-08-05T14:08:50.000Z</time>
      </trkpt>
      <trkpt lat="42.93763" lon="2.12267">
        <ele>390</ele>
        <time>2025-08-05T14:08:52.000Z</time>
      </trkpt>
      <trkpt lat="42.9375" lon="2.12252">
        <ele>390.79998779297</ele>
        <time>2025-08-05T14:09:00.000Z</time>
      </trkpt>
      <trkpt lat="42.93746" lon="2.12246">
        <ele>391</ele>
        <time>2025-08-05T14:09:03.000Z</time>
      </trkpt>
      <trkpt lat="42.93736" lon="2.12231">
        <ele>391.60000610352</ele>
        <time>2025-08-05T14:09:10.000Z</time>
      </trkpt>
      <trkpt lat="42.93732" lon="2.12211">
        <ele>392</ele>
        <time>2025-08-05T14:09:18.000Z</time>
      </trkpt>
      <trkpt lat="42.93732" lon="2.12208">
        <ele>392.20001220703</ele>
        <time>2025-08-05T14:09:19.000Z</time>
      </trkpt>
      <trkpt lat="42.93735" lon="2.12186">
        <ele>393.20001220703</ele>
        <time>2025-08-05T14:09:27.000Z</time>
      </trkpt>
      <trkpt lat="42.93736" lon="2.1218">
        <ele>393.39999389648</ele>
        <time>2025-08-05T14:09:29.000Z</time>
      </trkpt>
      <trkpt lat="42.93742" lon="2.12152">
        <ele>394.20001220703</ele>
        <time>2025-08-05T14:09:39.000Z</time>
      </trkpt>
      <trkpt lat="42.93747" lon="2.12129">
        <ele>394.79998779297</ele>
        <time>2025-08-05T14:09:48.000Z</time>
      </trkpt>
      <trkpt lat="42.93751" lon="2.12119">
        <ele>395.39999389648</ele>
        <time>2025-08-05T14:09:52.000Z</time>
      </trkpt>
      <trkpt lat="42.93753" lon="2.12106">
        <ele>396</ele>
        <time>2025-08-05T14:09:57.000Z</time>
      </trkpt>
      <trkpt lat="42.93754" lon="2.12099">
        <ele>396.39999389648</ele>
        <time>2025-08-05T14:10:00.000Z</time>
      </trkpt>
      <trkpt lat="42.93755" lon="2.12084">
        <ele>397</ele>
        <time>2025-08-05T14:10:05.000Z</time>
      </trkpt>
      <trkpt lat="42.93754" lon="2.12073">
        <ele>397.79998779297</ele>
        <time>2025-08-05T14:10:09.000Z</time>
      </trkpt>
      <trkpt lat="42.93754" lon="2.12062">
        <ele>398.20001220703</ele>
        <time>2025-08-05T14:10:13.000Z</time>
      </trkpt>
      <trkpt lat="42.93754" lon="2.12047">
        <ele>398.60000610352</ele>
        <time>2025-08-05T14:10:18.000Z</time>
      </trkpt>
      <trkpt lat="42.93754" lon="2.1204">
        <ele>399</ele>
        <time>2025-08-05T14:10:21.000Z</time>
      </trkpt>
      <trkpt lat="42.93752" lon="2.12023">
        <ele>399.20001220703</ele>
        <time>2025-08-05T14:10:28.000Z</time>
      </trkpt>
      <trkpt lat="42.93752" lon="2.12">
        <ele>399.39999389648</ele>
        <time>2025-08-05T14:10:36.000Z</time>
      </trkpt>
      <trkpt lat="42.93752" lon="2.11994">
        <ele>399.60000610352</ele>
        <time>2025-08-05T14:10:38.000Z</time>
      </trkpt>
      <trkpt lat="42.93756" lon="2.11969">
        <ele>400.79998779297</ele>
        <time>2025-08-05T14:10:47.000Z</time>
      </trkpt>
      <trkpt lat="42.93756" lon="2.11966">
        <ele>400.79998779297</ele>
        <time>2025-08-05T14:10:48.000Z</time>
      </trkpt>
      <trkpt lat="42.93759" lon="2.11951">
        <ele>401.39999389648</ele>
        <time>2025-08-05T14:10:54.000Z</time>
      </trkpt>
      <trkpt lat="42.93758" lon="2.11942">
        <ele>401.79998779297</ele>
        <time>2025-08-05T14:10:57.000Z</time>
      </trkpt>
      <trkpt lat="42.93756" lon="2.11932">
        <ele>402</ele>
        <time>2025-08-05T14:11:01.000Z</time>
      </trkpt>
      <trkpt lat="42.93754" lon="2.11928">
        <ele>402.39999389648</ele>
        <time>2025-08-05T14:11:03.000Z</time>
      </trkpt>
      <trkpt lat="42.93749" lon="2.11921">
        <ele>402.60000610352</ele>
        <time>2025-08-05T14:11:07.000Z</time>
      </trkpt>
      <trkpt lat="42.93744" lon="2.11914">
        <ele>402.79998779297</ele>
        <time>2025-08-05T14:11:11.000Z</time>
      </trkpt>
      <trkpt lat="42.93736" lon="2.11904">
        <ele>403.39999389648</ele>
        <time>2025-08-05T14:11:16.000Z</time>
      </trkpt>
      <trkpt lat="42.9373" lon="2.11896">
        <ele>404</ele>
        <time>2025-08-05T14:11:20.000Z</time>
      </trkpt>
      <trkpt lat="42.93722" lon="2.11888">
        <ele>404.39999389648</ele>
        <time>2025-08-05T14:11:25.000Z</time>
      </trkpt>
      <trkpt lat="42.93716" lon="2.11875">
        <ele>404.79998779297</ele>
        <time>2025-08-05T14:11:31.000Z</time>
      </trkpt>
      <trkpt lat="42.93715" lon="2.11873">
        <ele>404.79998779297</ele>
        <time>2025-08-05T14:11:32.000Z</time>
      </trkpt>
      <trkpt lat="42.93706" lon="2.11855">
        <ele>405.39999389648</ele>
        <time>2025-08-05T14:11:40.000Z</time>
      </trkpt>
      <trkpt lat="42.93696" lon="2.11839">
        <ele>405.79998779297</ele>
        <time>2025-08-05T14:11:48.000Z</time>
      </trkpt>
      <trkpt lat="42.93691" lon="2.11828">
        <ele>405.60000610352</ele>
        <time>2025-08-05T14:11:54.000Z</time>
      </trkpt>
      <trkpt lat="42.93681" lon="2.11813">
        <ele>405.60000610352</ele>
        <time>2025-08-05T14:12:02.000Z</time>
      </trkpt>
      <trkpt lat="42.93679" lon="2.1181">
        <ele>405.79998779297</ele>
        <time>2025-08-05T14:12:03.000Z</time>
      </trkpt>
      <trkpt lat="42.93671" lon="2.11797">
        <ele>406.79998779297</ele>
        <time>2025-08-05T14:12:10.000Z</time>
      </trkpt>
      <trkpt lat="42.93668" lon="2.11794">
        <ele>407</ele>
        <time>2025-08-05T14:12:12.000Z</time>
      </trkpt>
      <trkpt lat="42.93656" lon="2.11779">
        <ele>407.60000610352</ele>
        <time>2025-08-05T14:12:20.000Z</time>
      </trkpt>
      <trkpt lat="42.93648" lon="2.1177">
        <ele>408</ele>
        <time>2025-08-05T14:12:25.000Z</time>
      </trkpt>
      <trkpt lat="42.93641" lon="2.11759">
        <ele>408.60000610352</ele>
        <time>2025-08-05T14:12:30.000Z</time>
      </trkpt>
      <trkpt lat="42.93635" lon="2.11747">
        <ele>409.20001220703</ele>
        <time>2025-08-05T14:12:36.000Z</time>
      </trkpt>
      <trkpt lat="42.93634" lon="2.11744">
        <ele>409.20001220703</ele>
        <time>2025-08-05T14:12:37.000Z</time>
      </trkpt>
      <trkpt lat="42.93629" lon="2.11723">
        <ele>409.79998779297</ele>
        <time>2025-08-05T14:12:45.000Z</time>
      </trkpt>
      <trkpt lat="42.93628" lon="2.11707">
        <ele>410.20001220703</ele>
        <time>2025-08-05T14:12:51.000Z</time>
      </trkpt>
      <trkpt lat="42.93627" lon="2.11698">
        <ele>410.39999389648</ele>
        <time>2025-08-05T14:12:54.000Z</time>
      </trkpt>
      <trkpt lat="42.93628" lon="2.11682">
        <ele>411.20001220703</ele>
        <time>2025-08-05T14:13:00.000Z</time>
      </trkpt>
      <trkpt lat="42.93631" lon="2.11668">
        <ele>411.60000610352</ele>
        <time>2025-08-05T14:13:05.000Z</time>
      </trkpt>
      <trkpt lat="42.93638" lon="2.11644">
        <ele>412</ele>
        <time>2025-08-05T14:13:14.000Z</time>
      </trkpt>
      <trkpt lat="42.93642" lon="2.11634">
        <ele>412.39999389648</ele>
        <time>2025-08-05T14:13:18.000Z</time>
      </trkpt>
      <trkpt lat="42.93646" lon="2.11621">
        <ele>413.20001220703</ele>
        <time>2025-08-05T14:13:23.000Z</time>
      </trkpt>
      <trkpt lat="42.93648" lon="2.11614">
        <ele>413.79998779297</ele>
        <time>2025-08-05T14:13:26.000Z</time>
      </trkpt>
      <trkpt lat="42.93649" lon="2.11613">
        <ele>414.20001220703</ele>
        <time>2025-08-05T14:13:29.000Z</time>
      </trkpt>
      <trkpt lat="42.93648" lon="2.11606">
        <ele>415</ele>
        <time>2025-08-05T14:14:01.000Z</time>
      </trkpt>
      <trkpt lat="42.93647" lon="2.11601">
        <ele>415.20001220703</ele>
        <time>2025-08-05T14:14:04.000Z</time>
      </trkpt>
      <trkpt lat="42.93646" lon="2.11596">
        <ele>415.39999389648</ele>
        <time>2025-08-05T14:14:11.000Z</time>
      </trkpt>
      <trkpt lat="42.93653" lon="2.1158">
        <ele>416.20001220703</ele>
        <time>2025-08-05T14:17:05.000Z</time>
      </trkpt>
      <trkpt lat="42.93655" lon="2.11564">
        <ele>416</ele>
        <time>2025-08-05T14:17:11.000Z</time>
      </trkpt>
      <trkpt lat="42.93657" lon="2.11549">
        <ele>416.39999389648</ele>
        <time>2025-08-05T14:17:17.000Z</time>
      </trkpt>
      <trkpt lat="42.93659" lon="2.11531">
        <ele>417.20001220703</ele>
        <time>2025-08-05T14:17:23.000Z</time>
      </trkpt>
      <trkpt lat="42.9366" lon="2.11525">
        <ele>417.39999389648</ele>
        <time>2025-08-05T14:17:25.000Z</time>
      </trkpt>
      <trkpt lat="42.93665" lon="2.11502">
        <ele>418.20001220703</ele>
        <time>2025-08-05T14:17:33.000Z</time>
      </trkpt>
      <trkpt lat="42.93666" lon="2.11499">
        <ele>418.39999389648</ele>
        <time>2025-08-05T14:17:34.000Z</time>
      </trkpt>
      <trkpt lat="42.93671" lon="2.11479">
        <ele>419.39999389648</ele>
        <time>2025-08-05T14:17:41.000Z</time>
      </trkpt>
      <trkpt lat="42.93672" lon="2.11474">
        <ele>419.39999389648</ele>
        <time>2025-08-05T14:17:43.000Z</time>
      </trkpt>
      <trkpt lat="42.93683" lon="2.11446">
        <ele>420.20001220703</ele>
        <time>2025-08-05T14:17:55.000Z</time>
      </trkpt>
      <trkpt lat="42.93688" lon="2.11436">
        <ele>420.39999389648</ele>
        <time>2025-08-05T14:18:00.000Z</time>
      </trkpt>
      <trkpt lat="42.93692" lon="2.11427">
        <ele>420.60000610352</ele>
        <time>2025-08-05T14:18:04.000Z</time>
      </trkpt>
      <trkpt lat="42.93701" lon="2.1141">
        <ele>421</ele>
        <time>2025-08-05T14:18:12.000Z</time>
      </trkpt>
      <trkpt lat="42.93703" lon="2.11407">
        <ele>421.20001220703</ele>
        <time>2025-08-05T14:18:14.000Z</time>
      </trkpt>
      <trkpt lat="42.93709" lon="2.11397">
        <ele>421.39999389648</ele>
        <time>2025-08-05T14:18:19.000Z</time>
      </trkpt>
      <trkpt lat="42.93719" lon="2.11385">
        <ele>422.20001220703</ele>
        <time>2025-08-05T14:18:26.000Z</time>
      </trkpt>
      <trkpt lat="42.9372" lon="2.11383">
        <ele>422.39999389648</ele>
        <time>2025-08-05T14:18:27.000Z</time>
      </trkpt>
      <trkpt lat="42.93721" lon="2.11382">
        <ele>422.39999389648</ele>
        <time>2025-08-05T14:18:28.000Z</time>
      </trkpt>
      <trkpt lat="42.93729" lon="2.11373">
        <ele>423.20001220703</ele>
        <time>2025-08-05T14:18:34.000Z</time>
      </trkpt>
      <trkpt lat="42.9373" lon="2.11372">
        <ele>423.20001220703</ele>
        <time>2025-08-05T14:18:35.000Z</time>
      </trkpt>
      <trkpt lat="42.93733" lon="2.1136">
        <ele>424</ele>
        <time>2025-08-05T14:18:40.000Z</time>
      </trkpt>
      <trkpt lat="42.93733" lon="2.11344">
        <ele>424</ele>
        <time>2025-08-05T14:18:46.000Z</time>
      </trkpt>
      <trkpt lat="42.93733" lon="2.11335">
        <ele>424.39999389648</ele>
        <time>2025-08-05T14:18:49.000Z</time>
      </trkpt>
      <trkpt lat="42.93728" lon="2.11321">
        <ele>425.20001220703</ele>
        <time>2025-08-05T14:18:55.000Z</time>
      </trkpt>
      <trkpt lat="42.93728" lon="2.11318">
        <ele>425.39999389648</ele>
        <time>2025-08-05T14:18:56.000Z</time>
      </trkpt>
      <trkpt lat="42.9372" lon="2.11308">
        <ele>426.20001220703</ele>
        <time>2025-08-05T14:19:02.000Z</time>
      </trkpt>
      <trkpt lat="42.93717" lon="2.11305">
        <ele>426.39999389648</ele>
        <time>2025-08-05T14:19:04.000Z</time>
      </trkpt>
      <trkpt lat="42.93706" lon="2.11301">
        <ele>426.79998779297</ele>
        <time>2025-08-05T14:19:10.000Z</time>
      </trkpt>
      <trkpt lat="42.93693" lon="2.11297">
        <ele>427.20001220703</ele>
        <time>2025-08-05T14:19:18.000Z</time>
      </trkpt>
      <trkpt lat="42.93684" lon="2.11296">
        <ele>427.39999389648</ele>
        <time>2025-08-05T14:19:24.000Z</time>
      </trkpt>
      <trkpt lat="42.93682" lon="2.11295">
        <ele>427.60000610352</ele>
        <time>2025-08-05T14:19:25.000Z</time>
      </trkpt>
      <trkpt lat="42.93681" lon="2.11295">
        <ele>427.79998779297</ele>
        <time>2025-08-05T14:19:26.000Z</time>
      </trkpt>
      <trkpt lat="42.93667" lon="2.11293">
        <ele>428.39999389648</ele>
        <time>2025-08-05T14:19:34.000Z</time>
      </trkpt>
      <trkpt lat="42.93661" lon="2.11292">
        <ele>428.60000610352</ele>
        <time>2025-08-05T14:19:37.000Z</time>
      </trkpt>
      <trkpt lat="42.93648" lon="2.11293">
        <ele>429</ele>
        <time>2025-08-05T14:19:44.000Z</time>
      </trkpt>
      <trkpt lat="42.93637" lon="2.11291">
        <ele>429.39999389648</ele>
        <time>2025-08-05T14:19:50.000Z</time>
      </trkpt>
      <trkpt lat="42.93631" lon="2.11291">
        <ele>429.39999389648</ele>
        <time>2025-08-05T14:19:53.000Z</time>
      </trkpt>
      <trkpt lat="42.9362" lon="2.11285">
        <ele>429.79998779297</ele>
        <time>2025-08-05T14:19:59.000Z</time>
      </trkpt>
      <trkpt lat="42.9361" lon="2.11273">
        <ele>430.20001220703</ele>
        <time>2025-08-05T14:20:06.000Z</time>
      </trkpt>
      <trkpt lat="42.93605" lon="2.1126">
        <ele>430.60000610352</ele>
        <time>2025-08-05T14:20:12.000Z</time>
      </trkpt>
      <trkpt lat="42.93604" lon="2.11257">
        <ele>430.60000610352</ele>
        <time>2025-08-05T14:20:13.000Z</time>
      </trkpt>
      <trkpt lat="42.93602" lon="2.11246">
        <ele>431.20001220703</ele>
        <time>2025-08-05T14:20:18.000Z</time>
      </trkpt>
      <trkpt lat="42.936" lon="2.11237">
        <ele>431.60000610352</ele>
        <time>2025-08-05T14:20:23.000Z</time>
      </trkpt>
      <trkpt lat="42.93598" lon="2.11222">
        <ele>432.79998779297</ele>
        <time>2025-08-05T14:20:31.000Z</time>
      </trkpt>
      <trkpt lat="42.93598" lon="2.1122">
        <ele>432.79998779297</ele>
        <time>2025-08-05T14:20:32.000Z</time>
      </trkpt>
      <trkpt lat="42.93593" lon="2.11206">
        <ele>433.39999389648</ele>
        <time>2025-08-05T14:20:39.000Z</time>
      </trkpt>
      <trkpt lat="42.93591" lon="2.11201">
        <ele>433.79998779297</ele>
        <time>2025-08-05T14:20:42.000Z</time>
      </trkpt>
      <trkpt lat="42.9359" lon="2.11198">
        <ele>434</ele>
        <time>2025-08-05T14:20:44.000Z</time>
      </trkpt>
      <trkpt lat="42.93589" lon="2.11197">
        <ele>434</ele>
        <time>2025-08-05T14:20:45.000Z</time>
      </trkpt>
      <trkpt lat="42.93587" lon="2.11193">
        <ele>434</ele>
        <time>2025-08-05T14:20:47.000Z</time>
      </trkpt>
      <trkpt lat="42.93586" lon="2.11189">
        <ele>434.20001220703</ele>
        <time>2025-08-05T14:20:49.000Z</time>
      </trkpt>
      <trkpt lat="42.93581" lon="2.11181">
        <ele>434.39999389648</ele>
        <time>2025-08-05T14:20:54.000Z</time>
      </trkpt>
      <trkpt lat="42.93573" lon="2.11163">
        <ele>434.39999389648</ele>
        <time>2025-08-05T14:21:03.000Z</time>
      </trkpt>
      <trkpt lat="42.93571" lon="2.11157">
        <ele>434.60000610352</ele>
        <time>2025-08-05T14:21:06.000Z</time>
      </trkpt>
      <trkpt lat="42.93567" lon="2.11147">
        <ele>435.20001220703</ele>
        <time>2025-08-05T14:21:11.000Z</time>
      </trkpt>
      <trkpt lat="42.93562" lon="2.11132">
        <ele>435.39999389648</ele>
        <time>2025-08-05T14:21:18.000Z</time>
      </trkpt>
      <trkpt lat="42.93559" lon="2.11125">
        <ele>435.79998779297</ele>
        <time>2025-08-05T14:21:21.000Z</time>
      </trkpt>
      <trkpt lat="42.93556" lon="2.11121">
        <ele>436</ele>
        <time>2025-08-05T14:21:23.000Z</time>
      </trkpt>
      <trkpt lat="42.93554" lon="2.11113">
        <ele>436.20001220703</ele>
        <time>2025-08-05T14:21:26.000Z</time>
      </trkpt>
      <trkpt lat="42.93549" lon="2.11101">
        <ele>436.79998779297</ele>
        <time>2025-08-05T14:21:32.000Z</time>
      </trkpt>
      <trkpt lat="42.93545" lon="2.11093">
        <ele>437</ele>
        <time>2025-08-05T14:21:36.000Z</time>
      </trkpt>
      <trkpt lat="42.9354" lon="2.11082">
        <ele>437.79998779297</ele>
        <time>2025-08-05T14:21:42.000Z</time>
      </trkpt>
      <trkpt lat="42.93537" lon="2.11078">
        <ele>438</ele>
        <time>2025-08-05T14:21:44.000Z</time>
      </trkpt>
      <trkpt lat="42.9353" lon="2.11067">
        <ele>438.60000610352</ele>
        <time>2025-08-05T14:21:50.000Z</time>
      </trkpt>
      <trkpt lat="42.93528" lon="2.11066">
        <ele>438.79998779297</ele>
        <time>2025-08-05T14:21:51.000Z</time>
      </trkpt>
      <trkpt lat="42.93521" lon="2.1106">
        <ele>439.60000610352</ele>
        <time>2025-08-05T14:21:56.000Z</time>
      </trkpt>
      <trkpt lat="42.93518" lon="2.11058">
        <ele>439.79998779297</ele>
        <time>2025-08-05T14:21:58.000Z</time>
      </trkpt>
      <trkpt lat="42.93515" lon="2.11054">
        <ele>440</ele>
        <time>2025-08-05T14:22:00.000Z</time>
      </trkpt>
      <trkpt lat="42.93514" lon="2.11053">
        <ele>440</ele>
        <time>2025-08-05T14:22:01.000Z</time>
      </trkpt>
      <trkpt lat="42.93501" lon="2.11043">
        <ele>440.39999389648</ele>
        <time>2025-08-05T14:22:08.000Z</time>
      </trkpt>
      <trkpt lat="42.93494" lon="2.11038">
        <ele>441.20001220703</ele>
        <time>2025-08-05T14:22:12.000Z</time>
      </trkpt>
      <trkpt lat="42.93489" lon="2.11033">
        <ele>441.60000610352</ele>
        <time>2025-08-05T14:22:15.000Z</time>
      </trkpt>
      <trkpt lat="42.93476" lon="2.11021">
        <ele>441.79998779297</ele>
        <time>2025-08-05T14:22:23.000Z</time>
      </trkpt>
      <trkpt lat="42.93466" lon="2.11009">
        <ele>442</ele>
        <time>2025-08-05T14:22:30.000Z</time>
      </trkpt>
      <trkpt lat="42.93455" lon="2.11">
        <ele>442</ele>
        <time>2025-08-05T14:22:36.000Z</time>
      </trkpt>
      <trkpt lat="42.93452" lon="2.10996">
        <ele>442</ele>
        <time>2025-08-05T14:22:38.000Z</time>
      </trkpt>
      <trkpt lat="42.93444" lon="2.10985">
        <ele>442.39999389648</ele>
        <time>2025-08-05T14:22:45.000Z</time>
      </trkpt>
      <trkpt lat="42.93435" lon="2.10975">
        <ele>443</ele>
        <time>2025-08-05T14:22:52.000Z</time>
      </trkpt>
      <trkpt lat="42.93434" lon="2.10974">
        <ele>443.20001220703</ele>
        <time>2025-08-05T14:22:53.000Z</time>
      </trkpt>
      <trkpt lat="42.93426" lon="2.10965">
        <ele>443.79998779297</ele>
        <time>2025-08-05T14:23:00.000Z</time>
      </trkpt>
      <trkpt lat="42.93418" lon="2.10956">
        <ele>444</ele>
        <time>2025-08-05T14:23:07.000Z</time>
      </trkpt>
      <trkpt lat="42.93417" lon="2.10954">
        <ele>444</ele>
        <time>2025-08-05T14:23:08.000Z</time>
      </trkpt>
      <trkpt lat="42.93413" lon="2.1094">
        <ele>444.39999389648</ele>
        <time>2025-08-05T14:23:14.000Z</time>
      </trkpt>
      <trkpt lat="42.93412" lon="2.10929">
        <ele>445.20001220703</ele>
        <time>2025-08-05T14:23:19.000Z</time>
      </trkpt>
      <trkpt lat="42.93412" lon="2.10925">
        <ele>445.39999389648</ele>
        <time>2025-08-05T14:23:21.000Z</time>
      </trkpt>
      <trkpt lat="42.93418" lon="2.10898">
        <ele>445.60000610352</ele>
        <time>2025-08-05T14:23:31.000Z</time>
      </trkpt>
      <trkpt lat="42.93423" lon="2.10878">
        <ele>445.79998779297</ele>
        <time>2025-08-05T14:23:38.000Z</time>
      </trkpt>
      <trkpt lat="42.93423" lon="2.10875">
        <ele>446</ele>
        <time>2025-08-05T14:23:39.000Z</time>
      </trkpt>
      <trkpt lat="42.9343" lon="2.10852">
        <ele>446.20001220703</ele>
        <time>2025-08-05T14:23:47.000Z</time>
      </trkpt>
      <trkpt lat="42.93435" lon="2.10829">
        <ele>446.20001220703</ele>
        <time>2025-08-05T14:23:55.000Z</time>
      </trkpt>
      <trkpt lat="42.93439" lon="2.10812">
        <ele>447</ele>
        <time>2025-08-05T14:24:01.000Z</time>
      </trkpt>
      <trkpt lat="42.93441" lon="2.10807">
        <ele>447.20001220703</ele>
        <time>2025-08-05T14:24:03.000Z</time>
      </trkpt>
      <trkpt lat="42.93444" lon="2.1079">
        <ele>447.39999389648</ele>
        <time>2025-08-05T14:24:09.000Z</time>
      </trkpt>
      <trkpt lat="42.93447" lon="2.10774">
        <ele>446.79998779297</ele>
        <time>2025-08-05T14:24:14.000Z</time>
      </trkpt>
      <trkpt lat="42.93448" lon="2.10768">
        <ele>446.79998779297</ele>
        <time>2025-08-05T14:24:16.000Z</time>
      </trkpt>
      <trkpt lat="42.9345" lon="2.1076">
        <ele>446.60000610352</ele>
        <time>2025-08-05T14:24:19.000Z</time>
      </trkpt>
      <trkpt lat="42.9345" lon="2.10757">
        <ele>446.60000610352</ele>
        <time>2025-08-05T14:24:20.000Z</time>
      </trkpt>
      <trkpt lat="42.93454" lon="2.10751">
        <ele>447</ele>
        <time>2025-08-05T14:24:23.000Z</time>
      </trkpt>
      <trkpt lat="42.9346" lon="2.10727">
        <ele>446.79998779297</ele>
        <time>2025-08-05T14:24:32.000Z</time>
      </trkpt>
      <trkpt lat="42.93466" lon="2.10698">
        <ele>446.39999389648</ele>
        <time>2025-08-05T14:24:42.000Z</time>
      </trkpt>
      <trkpt lat="42.93472" lon="2.10678">
        <ele>446.39999389648</ele>
        <time>2025-08-05T14:24:50.000Z</time>
      </trkpt>
      <trkpt lat="42.93478" lon="2.10654">
        <ele>446.60000610352</ele>
        <time>2025-08-05T14:24:58.000Z</time>
      </trkpt>
      <trkpt lat="42.93479" lon="2.10652">
        <ele>446.60000610352</ele>
        <time>2025-08-05T14:24:59.000Z</time>
      </trkpt>
      <trkpt lat="42.93485" lon="2.10638">
        <ele>446.39999389648</ele>
        <time>2025-08-05T14:25:04.000Z</time>
      </trkpt>
      <trkpt lat="42.93497" lon="2.10612">
        <ele>446.20001220703</ele>
        <time>2025-08-05T14:25:14.000Z</time>
      </trkpt>
      <trkpt lat="42.93505" lon="2.106">
        <ele>446.60000610352</ele>
        <time>2025-08-05T14:25:20.000Z</time>
      </trkpt>
      <trkpt lat="42.93514" lon="2.10587">
        <ele>447.20001220703</ele>
        <time>2025-08-05T14:25:27.000Z</time>
      </trkpt>
      <trkpt lat="42.93518" lon="2.10583">
        <ele>447.60000610352</ele>
        <time>2025-08-05T14:25:30.000Z</time>
      </trkpt>
      <trkpt lat="42.93523" lon="2.10579">
        <ele>448</ele>
        <time>2025-08-05T14:25:33.000Z</time>
      </trkpt>
      <trkpt lat="42.93532" lon="2.10569">
        <ele>448.60000610352</ele>
        <time>2025-08-05T14:25:39.000Z</time>
      </trkpt>
      <trkpt lat="42.93534" lon="2.10568">
        <ele>448.60000610352</ele>
        <time>2025-08-05T14:25:40.000Z</time>
      </trkpt>
      <trkpt lat="42.93541" lon="2.10557">
        <ele>448.60000610352</ele>
        <time>2025-08-05T14:25:46.000Z</time>
      </trkpt>
      <trkpt lat="42.93544" lon="2.10554">
        <ele>448.60000610352</ele>
        <time>2025-08-05T14:25:48.000Z</time>
      </trkpt>
      <trkpt lat="42.93547" lon="2.10549">
        <ele>448.60000610352</ele>
        <time>2025-08-05T14:25:51.000Z</time>
      </trkpt>
      <trkpt lat="42.93554" lon="2.10528">
        <ele>449</ele>
        <time>2025-08-05T14:25:59.000Z</time>
      </trkpt>
      <trkpt lat="42.93554" lon="2.10522">
        <ele>449</ele>
        <time>2025-08-05T14:26:01.000Z</time>
      </trkpt>
      <trkpt lat="42.93557" lon="2.10507">
        <ele>449</ele>
        <time>2025-08-05T14:26:06.000Z</time>
      </trkpt>
      <trkpt lat="42.93563" lon="2.10484">
        <ele>449.20001220703</ele>
        <time>2025-08-05T14:26:14.000Z</time>
      </trkpt>
      <trkpt lat="42.9357" lon="2.10466">
        <ele>449.39999389648</ele>
        <time>2025-08-05T14:26:22.000Z</time>
      </trkpt>
      <trkpt lat="42.93576" lon="2.10456">
        <ele>450</ele>
        <time>2025-08-05T14:26:27.000Z</time>
      </trkpt>
      <trkpt lat="42.93578" lon="2.10451">
        <ele>450.20001220703</ele>
        <time>2025-08-05T14:26:29.000Z</time>
      </trkpt>
      <trkpt lat="42.9358" lon="2.10449">
        <ele>450.20001220703</ele>
        <time>2025-08-05T14:26:30.000Z</time>
      </trkpt>
      <trkpt lat="42.93594" lon="2.1044">
        <ele>451</ele>
        <time>2025-08-05T14:26:37.000Z</time>
      </trkpt>
      <trkpt lat="42.93598" lon="2.10438">
        <ele>451</ele>
        <time>2025-08-05T14:26:39.000Z</time>
      </trkpt>
      <trkpt lat="42.93611" lon="2.10434">
        <ele>452.20001220703</ele>
        <time>2025-08-05T14:26:46.000Z</time>
      </trkpt>
      <trkpt lat="42.93622" lon="2.10431">
        <ele>452.79998779297</ele>
        <time>2025-08-05T14:26:52.000Z</time>
      </trkpt>
      <trkpt lat="42.93634" lon="2.10426">
        <ele>453</ele>
        <time>2025-08-05T14:26:59.000Z</time>
      </trkpt>
      <trkpt lat="42.93643" lon="2.10417">
        <ele>453.20001220703</ele>
        <time>2025-08-05T14:27:05.000Z</time>
      </trkpt>
      <trkpt lat="42.93649" lon="2.1041">
        <ele>453.39999389648</ele>
        <time>2025-08-05T14:27:09.000Z</time>
      </trkpt>
      <trkpt lat="42.93661" lon="2.10399">
        <ele>454</ele>
        <time>2025-08-05T14:27:17.000Z</time>
      </trkpt>
      <trkpt lat="42.93669" lon="2.10392">
        <ele>454.20001220703</ele>
        <time>2025-08-05T14:27:23.000Z</time>
      </trkpt>
      <trkpt lat="42.93672" lon="2.1039">
        <ele>454.20001220703</ele>
        <time>2025-08-05T14:27:25.000Z</time>
      </trkpt>
      <trkpt lat="42.93678" lon="2.10384">
        <ele>454.39999389648</ele>
        <time>2025-08-05T14:27:29.000Z</time>
      </trkpt>
      <trkpt lat="42.93684" lon="2.10381">
        <ele>454.60000610352</ele>
        <time>2025-08-05T14:27:33.000Z</time>
      </trkpt>
      <trkpt lat="42.93686" lon="2.10378">
        <ele>455</ele>
        <time>2025-08-05T14:27:35.000Z</time>
      </trkpt>
      <trkpt lat="42.93693" lon="2.10374">
        <ele>455.20001220703</ele>
        <time>2025-08-05T14:27:40.000Z</time>
      </trkpt>
      <trkpt lat="42.93695" lon="2.10374">
        <ele>455.39999389648</ele>
        <time>2025-08-05T14:27:41.000Z</time>
      </trkpt>
      <trkpt lat="42.93705" lon="2.10364">
        <ele>455.60000610352</ele>
        <time>2025-08-05T14:27:48.000Z</time>
      </trkpt>
      <trkpt lat="42.93718" lon="2.10348">
        <ele>456.20001220703</ele>
        <time>2025-08-05T14:27:58.000Z</time>
      </trkpt>
      <trkpt lat="42.93726" lon="2.10338">
        <ele>456.39999389648</ele>
        <time>2025-08-05T14:28:04.000Z</time>
      </trkpt>
      <trkpt lat="42.93736" lon="2.10322">
        <ele>457</ele>
        <time>2025-08-05T14:28:12.000Z</time>
      </trkpt>
      <trkpt lat="42.93739" lon="2.10318">
        <ele>457.20001220703</ele>
        <time>2025-08-05T14:28:14.000Z</time>
      </trkpt>
      <trkpt lat="42.93747" lon="2.10307">
        <ele>457.60000610352</ele>
        <time>2025-08-05T14:28:21.000Z</time>
      </trkpt>
      <trkpt lat="42.93756" lon="2.10291">
        <ele>458.20001220703</ele>
        <time>2025-08-05T14:28:29.000Z</time>
      </trkpt>
      <trkpt lat="42.93757" lon="2.10289">
        <ele>458.39999389648</ele>
        <time>2025-08-05T14:28:30.000Z</time>
      </trkpt>
      <trkpt lat="42.93768" lon="2.10272">
        <ele>458.60000610352</ele>
        <time>2025-08-05T14:28:38.000Z</time>
      </trkpt>
      <trkpt lat="42.93773" lon="2.10264">
        <ele>459</ele>
        <time>2025-08-05T14:28:42.000Z</time>
      </trkpt>
      <trkpt lat="42.93777" lon="2.10258">
        <ele>459</ele>
        <time>2025-08-05T14:28:45.000Z</time>
      </trkpt>
      <trkpt lat="42.93789" lon="2.10244">
        <ele>459.39999389648</ele>
        <time>2025-08-05T14:28:53.000Z</time>
      </trkpt>
      <trkpt lat="42.93801" lon="2.10236">
        <ele>460</ele>
        <time>2025-08-05T14:29:00.000Z</time>
      </trkpt>
      <trkpt lat="42.93803" lon="2.10235">
        <ele>460</ele>
        <time>2025-08-05T14:29:01.000Z</time>
      </trkpt>
      <trkpt lat="42.93815" lon="2.10229">
        <ele>460.39999389648</ele>
        <time>2025-08-05T14:29:08.000Z</time>
      </trkpt>
      <trkpt lat="42.93826" lon="2.10222">
        <ele>460.60000610352</ele>
        <time>2025-08-05T14:29:15.000Z</time>
      </trkpt>
      <trkpt lat="42.93827" lon="2.10222">
        <ele>460.60000610352</ele>
        <time>2025-08-05T14:29:16.000Z</time>
      </trkpt>
      <trkpt lat="42.93845" lon="2.10213">
        <ele>460.79998779297</ele>
        <time>2025-08-05T14:29:26.000Z</time>
      </trkpt>
      <trkpt lat="42.93853" lon="2.10209">
        <ele>461</ele>
        <time>2025-08-05T14:29:31.000Z</time>
      </trkpt>
      <trkpt lat="42.93855" lon="2.10208">
        <ele>461.20001220703</ele>
        <time>2025-08-05T14:29:32.000Z</time>
      </trkpt>
      <trkpt lat="42.93865" lon="2.10202">
        <ele>461.60000610352</ele>
        <time>2025-08-05T14:29:38.000Z</time>
      </trkpt>
      <trkpt lat="42.93871" lon="2.102">
        <ele>462</ele>
        <time>2025-08-05T14:29:41.000Z</time>
      </trkpt>
      <trkpt lat="42.9388" lon="2.10196">
        <ele>462.60000610352</ele>
        <time>2025-08-05T14:29:46.000Z</time>
      </trkpt>
      <trkpt lat="42.93889" lon="2.10194">
        <ele>463.20001220703</ele>
        <time>2025-08-05T14:29:51.000Z</time>
      </trkpt>
      <trkpt lat="42.93896" lon="2.10195">
        <ele>463.60000610352</ele>
        <time>2025-08-05T14:29:55.000Z</time>
      </trkpt>
      <trkpt lat="42.93909" lon="2.10203">
        <ele>464</ele>
        <time>2025-08-05T14:30:03.000Z</time>
      </trkpt>
      <trkpt lat="42.9391" lon="2.10204">
        <ele>464</ele>
        <time>2025-08-05T14:30:04.000Z</time>
      </trkpt>
      <trkpt lat="42.9392" lon="2.10211">
        <ele>464.60000610352</ele>
        <time>2025-08-05T14:30:10.000Z</time>
      </trkpt>
      <trkpt lat="42.93925" lon="2.10213">
        <ele>464.60000610352</ele>
        <time>2025-08-05T14:30:13.000Z</time>
      </trkpt>
      <trkpt lat="42.93929" lon="2.10214">
        <ele>464.79998779297</ele>
        <time>2025-08-05T14:30:15.000Z</time>
      </trkpt>
      <trkpt lat="42.93934" lon="2.10215">
        <ele>465</ele>
        <time>2025-08-05T14:30:17.000Z</time>
      </trkpt>
      <trkpt lat="42.93938" lon="2.10216">
        <ele>465</ele>
        <time>2025-08-05T14:30:19.000Z</time>
      </trkpt>
      <trkpt lat="42.9394" lon="2.10216">
        <ele>465</ele>
        <time>2025-08-05T14:30:20.000Z</time>
      </trkpt>
      <trkpt lat="42.93951" lon="2.10207">
        <ele>465.60000610352</ele>
        <time>2025-08-05T14:30:26.000Z</time>
      </trkpt>
      <trkpt lat="42.93954" lon="2.10199">
        <ele>465.60000610352</ele>
        <time>2025-08-05T14:30:29.000Z</time>
      </trkpt>
      <trkpt lat="42.93955" lon="2.10191">
        <ele>465.60000610352</ele>
        <time>2025-08-05T14:30:32.000Z</time>
      </trkpt>
      <trkpt lat="42.93953" lon="2.10183">
        <ele>465.60000610352</ele>
        <time>2025-08-05T14:30:35.000Z</time>
      </trkpt>
      <trkpt lat="42.93951" lon="2.10176">
        <ele>466</ele>
        <time>2025-08-05T14:30:38.000Z</time>
      </trkpt>
      <trkpt lat="42.93948" lon="2.10172">
        <ele>466.20001220703</ele>
        <time>2025-08-05T14:30:40.000Z</time>
      </trkpt>
      <trkpt lat="42.9394" lon="2.10165">
        <ele>466.60000610352</ele>
        <time>2025-08-05T14:30:44.000Z</time>
      </trkpt>
      <trkpt lat="42.93935" lon="2.10162">
        <ele>467.20001220703</ele>
        <time>2025-08-05T14:30:47.000Z</time>
      </trkpt>
      <trkpt lat="42.93931" lon="2.10158">
        <ele>467.39999389648</ele>
        <time>2025-08-05T14:30:49.000Z</time>
      </trkpt>
      <trkpt lat="42.93917" lon="2.10143">
        <ele>468</ele>
        <time>2025-08-05T14:30:58.000Z</time>
      </trkpt>
      <trkpt lat="42.93905" lon="2.1013">
        <ele>468.39999389648</ele>
        <time>2025-08-05T14:31:05.000Z</time>
      </trkpt>
      <trkpt lat="42.93898" lon="2.10124">
        <ele>469</ele>
        <time>2025-08-05T14:31:09.000Z</time>
      </trkpt>
      <trkpt lat="42.9389" lon="2.1012">
        <ele>469.60000610352</ele>
        <time>2025-08-05T14:31:13.000Z</time>
      </trkpt>
      <trkpt lat="42.9388" lon="2.10115">
        <ele>470</ele>
        <time>2025-08-05T14:31:18.000Z</time>
      </trkpt>
      <trkpt lat="42.93876" lon="2.10114">
        <ele>470.20001220703</ele>
        <time>2025-08-05T14:31:20.000Z</time>
      </trkpt>
      <trkpt lat="42.93858" lon="2.1011">
        <ele>470.79998779297</ele>
        <time>2025-08-05T14:31:28.000Z</time>
      </trkpt>
      <trkpt lat="42.93854" lon="2.10108">
        <ele>471</ele>
        <time>2025-08-05T14:31:30.000Z</time>
      </trkpt>
      <trkpt lat="42.93849" lon="2.10107">
        <ele>471.20001220703</ele>
        <time>2025-08-05T14:31:34.000Z</time>
      </trkpt>
      <trkpt lat="42.93847" lon="2.10105">
        <ele>471.39999389648</ele>
        <time>2025-08-05T14:31:36.000Z</time>
      </trkpt>
      <trkpt lat="42.93845" lon="2.10103">
        <ele>471.39999389648</ele>
        <time>2025-08-05T14:31:38.000Z</time>
      </trkpt>
      <trkpt lat="42.9383" lon="2.101">
        <ele>471.60000610352</ele>
        <time>2025-08-05T14:31:46.000Z</time>
      </trkpt>
      <trkpt lat="42.93827" lon="2.10098">
        <ele>471.79998779297</ele>
        <time>2025-08-05T14:31:48.000Z</time>
      </trkpt>
      <trkpt lat="42.93821" lon="2.10098">
        <ele>471.79998779297</ele>
        <time>2025-08-05T14:31:52.000Z</time>
      </trkpt>
      <trkpt lat="42.93805" lon="2.10101">
        <ele>472.20001220703</ele>
        <time>2025-08-05T14:31:59.000Z</time>
      </trkpt>
      <trkpt lat="42.93803" lon="2.10101">
        <ele>472.20001220703</ele>
        <time>2025-08-05T14:32:00.000Z</time>
      </trkpt>
      <trkpt lat="42.93791" lon="2.10098">
        <ele>472.39999389648</ele>
        <time>2025-08-05T14:32:06.000Z</time>
      </trkpt>
      <trkpt lat="42.93789" lon="2.10097">
        <ele>472.60000610352</ele>
        <time>2025-08-05T14:32:07.000Z</time>
      </trkpt>
      <trkpt lat="42.93784" lon="2.10093">
        <ele>472.79998779297</ele>
        <time>2025-08-05T14:32:10.000Z</time>
      </trkpt>
      <trkpt lat="42.93775" lon="2.10089">
        <ele>472.79998779297</ele>
        <time>2025-08-05T14:32:14.000Z</time>
      </trkpt>
      <trkpt lat="42.93757" lon="2.10083">
        <ele>473.39999389648</ele>
        <time>2025-08-05T14:32:23.000Z</time>
      </trkpt>
      <trkpt lat="42.93743" lon="2.10081">
        <ele>473.79998779297</ele>
        <time>2025-08-05T14:32:29.000Z</time>
      </trkpt>
      <trkpt lat="42.9374" lon="2.10078">
        <ele>473.79998779297</ele>
        <time>2025-08-05T14:32:31.000Z</time>
      </trkpt>
      <trkpt lat="42.93735" lon="2.10077">
        <ele>474</ele>
        <time>2025-08-05T14:32:34.000Z</time>
      </trkpt>
      <trkpt lat="42.93734" lon="2.10076">
        <ele>474.20001220703</ele>
        <time>2025-08-05T14:32:35.000Z</time>
      </trkpt>
      <trkpt lat="42.9372" lon="2.10068">
        <ele>474.60000610352</ele>
        <time>2025-08-05T14:32:43.000Z</time>
      </trkpt>
      <trkpt lat="42.93718" lon="2.10067">
        <ele>474.60000610352</ele>
        <time>2025-08-05T14:32:44.000Z</time>
      </trkpt>
      <trkpt lat="42.93707" lon="2.10062">
        <ele>475</ele>
        <time>2025-08-05T14:32:50.000Z</time>
      </trkpt>
      <trkpt lat="42.9369" lon="2.10066">
        <ele>475.79998779297</ele>
        <time>2025-08-05T14:32:59.000Z</time>
      </trkpt>
      <trkpt lat="42.93687" lon="2.10069">
        <ele>475.79998779297</ele>
        <time>2025-08-05T14:33:01.000Z</time>
      </trkpt>
      <trkpt lat="42.93683" lon="2.10076">
        <ele>476</ele>
        <time>2025-08-05T14:33:05.000Z</time>
      </trkpt>
      <trkpt lat="42.9368" lon="2.10084">
        <ele>476.60000610352</ele>
        <time>2025-08-05T14:33:08.000Z</time>
      </trkpt>
      <trkpt lat="42.93679" lon="2.10086">
        <ele>476.79998779297</ele>
        <time>2025-08-05T14:33:09.000Z</time>
      </trkpt>
      <trkpt lat="42.93676" lon="2.1009">
        <ele>476.79998779297</ele>
        <time>2025-08-05T14:33:11.000Z</time>
      </trkpt>
      <trkpt lat="42.93676" lon="2.10093">
        <ele>476.79998779297</ele>
        <time>2025-08-05T14:33:12.000Z</time>
      </trkpt>
      <trkpt lat="42.93672" lon="2.10106">
        <ele>477.20001220703</ele>
        <time>2025-08-05T14:33:17.000Z</time>
      </trkpt>
      <trkpt lat="42.93665" lon="2.10125">
        <ele>477.60000610352</ele>
        <time>2025-08-05T14:33:24.000Z</time>
      </trkpt>
      <trkpt lat="42.93658" lon="2.10138">
        <ele>478</ele>
        <time>2025-08-05T14:33:29.000Z</time>
      </trkpt>
      <trkpt lat="42.93656" lon="2.10141">
        <ele>478</ele>
        <time>2025-08-05T14:33:30.000Z</time>
      </trkpt>
      <trkpt lat="42.93645" lon="2.10154">
        <ele>478.39999389648</ele>
        <time>2025-08-05T14:33:36.000Z</time>
      </trkpt>
      <trkpt lat="42.93641" lon="2.10157">
        <ele>478.60000610352</ele>
        <time>2025-08-05T14:33:39.000Z</time>
      </trkpt>
      <trkpt lat="42.93637" lon="2.10158">
        <ele>478.60000610352</ele>
        <time>2025-08-05T14:33:41.000Z</time>
      </trkpt>
      <trkpt lat="42.93635" lon="2.10159">
        <ele>478.79998779297</ele>
        <time>2025-08-05T14:33:42.000Z</time>
      </trkpt>
      <trkpt lat="42.93618" lon="2.10158">
        <ele>479</ele>
        <time>2025-08-05T14:33:50.000Z</time>
      </trkpt>
      <trkpt lat="42.93603" lon="2.10154">
        <ele>479.39999389648</ele>
        <time>2025-08-05T14:33:57.000Z</time>
      </trkpt>
      <trkpt lat="42.93597" lon="2.10147">
        <ele>479.60000610352</ele>
        <time>2025-08-05T14:34:01.000Z</time>
      </trkpt>
      <trkpt lat="42.93594" lon="2.10143">
        <ele>479.79998779297</ele>
        <time>2025-08-05T14:34:03.000Z</time>
      </trkpt>
      <trkpt lat="42.93592" lon="2.10137">
        <ele>479.79998779297</ele>
        <time>2025-08-05T14:34:05.000Z</time>
      </trkpt>
      <trkpt lat="42.93586" lon="2.10115">
        <ele>480</ele>
        <time>2025-08-05T14:34:13.000Z</time>
      </trkpt>
      <trkpt lat="42.93581" lon="2.10096">
        <ele>480</ele>
        <time>2025-08-05T14:34:20.000Z</time>
      </trkpt>
      <trkpt lat="42.93574" lon="2.10066">
        <ele>480.79998779297</ele>
        <time>2025-08-05T14:34:31.000Z</time>
      </trkpt>
      <trkpt lat="42.93569" lon="2.10049">
        <ele>481.39999389648</ele>
        <time>2025-08-05T14:34:38.000Z</time>
      </trkpt>
      <trkpt lat="42.93565" lon="2.10032">
        <ele>481.79998779297</ele>
        <time>2025-08-05T14:34:44.000Z</time>
      </trkpt>
      <trkpt lat="42.93564" lon="2.10029">
        <ele>482</ele>
        <time>2025-08-05T14:34:45.000Z</time>
      </trkpt>
      <trkpt lat="42.93559" lon="2.1001">
        <ele>482.39999389648</ele>
        <time>2025-08-05T14:34:52.000Z</time>
      </trkpt>
      <trkpt lat="42.93555" lon="2.09989">
        <ele>482.60000610352</ele>
        <time>2025-08-05T14:34:59.000Z</time>
      </trkpt>
      <trkpt lat="42.93552" lon="2.09966">
        <ele>482.79998779297</ele>
        <time>2025-08-05T14:35:07.000Z</time>
      </trkpt>
      <trkpt lat="42.93549" lon="2.09938">
        <ele>483.39999389648</ele>
        <time>2025-08-05T14:35:16.000Z</time>
      </trkpt>
      <trkpt lat="42.93549" lon="2.09914">
        <ele>483.79998779297</ele>
        <time>2025-08-05T14:35:24.000Z</time>
      </trkpt>
      <trkpt lat="42.93549" lon="2.09912">
        <ele>484</ele>
        <time>2025-08-05T14:35:25.000Z</time>
      </trkpt>
      <trkpt lat="42.93551" lon="2.09899">
        <ele>484.60000610352</ele>
        <time>2025-08-05T14:35:30.000Z</time>
      </trkpt>
      <trkpt lat="42.93557" lon="2.09889">
        <ele>485</ele>
        <time>2025-08-05T14:35:35.000Z</time>
      </trkpt>
      <trkpt lat="42.93558" lon="2.09887">
        <ele>485.20001220703</ele>
        <time>2025-08-05T14:35:36.000Z</time>
      </trkpt>
      <trkpt lat="42.9356" lon="2.09883">
        <ele>485.39999389648</ele>
        <time>2025-08-05T14:35:38.000Z</time>
      </trkpt>
      <trkpt lat="42.93562" lon="2.0988">
        <ele>485.39999389648</ele>
        <time>2025-08-05T14:35:39.000Z</time>
      </trkpt>
      <trkpt lat="42.93563" lon="2.09875">
        <ele>485.60000610352</ele>
        <time>2025-08-05T14:35:41.000Z</time>
      </trkpt>
      <trkpt lat="42.93565" lon="2.09871">
        <ele>485.60000610352</ele>
        <time>2025-08-05T14:35:43.000Z</time>
      </trkpt>
      <trkpt lat="42.93574" lon="2.09859">
        <ele>485.79998779297</ele>
        <time>2025-08-05T14:35:50.000Z</time>
      </trkpt>
      <trkpt lat="42.9358" lon="2.09849">
        <ele>486</ele>
        <time>2025-08-05T14:35:54.000Z</time>
      </trkpt>
      <trkpt lat="42.93585" lon="2.0984">
        <ele>486.20001220703</ele>
        <time>2025-08-05T14:35:58.000Z</time>
      </trkpt>
      <trkpt lat="42.93595" lon="2.09824">
        <ele>487</ele>
        <time>2025-08-05T14:36:05.000Z</time>
      </trkpt>
      <trkpt lat="42.93596" lon="2.09822">
        <ele>487.20001220703</ele>
        <time>2025-08-05T14:36:06.000Z</time>
      </trkpt>
      <trkpt lat="42.93606" lon="2.09801">
        <ele>487.79998779297</ele>
        <time>2025-08-05T14:36:14.000Z</time>
      </trkpt>
      <trkpt lat="42.93609" lon="2.09796">
        <ele>488</ele>
        <time>2025-08-05T14:36:16.000Z</time>
      </trkpt>
      <trkpt lat="42.93615" lon="2.09787">
        <ele>488.20001220703</ele>
        <time>2025-08-05T14:36:20.000Z</time>
      </trkpt>
      <trkpt lat="42.9362" lon="2.09778">
        <ele>488.39999389648</ele>
        <time>2025-08-05T14:36:24.000Z</time>
      </trkpt>
      <trkpt lat="42.9363" lon="2.09755">
        <ele>489.20001220703</ele>
        <time>2025-08-05T14:36:33.000Z</time>
      </trkpt>
      <trkpt lat="42.93631" lon="2.09748">
        <ele>489.20001220703</ele>
        <time>2025-08-05T14:36:35.000Z</time>
      </trkpt>
      <trkpt lat="42.9363" lon="2.09732">
        <ele>490</ele>
        <time>2025-08-05T14:36:40.000Z</time>
      </trkpt>
      <trkpt lat="42.9363" lon="2.09726">
        <ele>490.20001220703</ele>
        <time>2025-08-05T14:36:42.000Z</time>
      </trkpt>
      <trkpt lat="42.93627" lon="2.09706">
        <ele>491</ele>
        <time>2025-08-05T14:36:49.000Z</time>
      </trkpt>
      <trkpt lat="42.93623" lon="2.09686">
        <ele>491.20001220703</ele>
        <time>2025-08-05T14:36:57.000Z</time>
      </trkpt>
      <trkpt lat="42.93622" lon="2.09684">
        <ele>491.39999389648</ele>
        <time>2025-08-05T14:36:58.000Z</time>
      </trkpt>
      <trkpt lat="42.93621" lon="2.0967">
        <ele>491.39999389648</ele>
        <time>2025-08-05T14:37:04.000Z</time>
      </trkpt>
      <trkpt lat="42.93619" lon="2.09655">
        <ele>491.60000610352</ele>
        <time>2025-08-05T14:37:10.000Z</time>
      </trkpt>
      <trkpt lat="42.93618" lon="2.09641">
        <ele>492.20001220703</ele>
        <time>2025-08-05T14:37:15.000Z</time>
      </trkpt>
      <trkpt lat="42.93619" lon="2.09632">
        <ele>492.39999389648</ele>
        <time>2025-08-05T14:37:18.000Z</time>
      </trkpt>
      <trkpt lat="42.93618" lon="2.09617">
        <ele>492.79998779297</ele>
        <time>2025-08-05T14:37:24.000Z</time>
      </trkpt>
      <trkpt lat="42.93615" lon="2.096">
        <ele>493.20001220703</ele>
        <time>2025-08-05T14:37:30.000Z</time>
      </trkpt>
      <trkpt lat="42.93615" lon="2.09595">
        <ele>493.39999389648</ele>
        <time>2025-08-05T14:37:32.000Z</time>
      </trkpt>
      <trkpt lat="42.93611" lon="2.09577">
        <ele>493.79998779297</ele>
        <time>2025-08-05T14:37:38.000Z</time>
      </trkpt>
      <trkpt lat="42.93608" lon="2.09552">
        <ele>494.20001220703</ele>
        <time>2025-08-05T14:37:46.000Z</time>
      </trkpt>
      <trkpt lat="42.93608" lon="2.09546">
        <ele>494.39999389648</ele>
        <time>2025-08-05T14:37:48.000Z</time>
      </trkpt>
      <trkpt lat="42.93608" lon="2.09524">
        <ele>495</ele>
        <time>2025-08-05T14:37:56.000Z</time>
      </trkpt>
      <trkpt lat="42.93607" lon="2.09522">
        <ele>495.20001220703</ele>
        <time>2025-08-05T14:37:58.000Z</time>
      </trkpt>
      <trkpt lat="42.93606" lon="2.09516">
        <ele>495.39999389648</ele>
        <time>2025-08-05T14:38:00.000Z</time>
      </trkpt>
      <trkpt lat="42.93605" lon="2.09514">
        <ele>495.39999389648</ele>
        <time>2025-08-05T14:38:02.000Z</time>
      </trkpt>
      <trkpt lat="42.93605" lon="2.09514">
        <ele>495.79998779297</ele>
        <time>2025-08-05T14:38:04.000Z</time>
      </trkpt>
      <trkpt lat="42.93607" lon="2.09507">
        <ele>497</ele>
        <time>2025-08-05T14:38:39.000Z</time>
      </trkpt>
      <trkpt lat="42.93608" lon="2.09503">
        <ele>497.20001220703</ele>
        <time>2025-08-05T14:38:41.000Z</time>
      </trkpt>
      <trkpt lat="42.93609" lon="2.09501">
        <ele>497.20001220703</ele>
        <time>2025-08-05T14:38:42.000Z</time>
      </trkpt>
      <trkpt lat="42.93612" lon="2.0949">
        <ele>497.39999389648</ele>
        <time>2025-08-05T14:38:47.000Z</time>
      </trkpt>
      <trkpt lat="42.93612" lon="2.09472">
        <ele>497.39999389648</ele>
        <time>2025-08-05T14:38:52.000Z</time>
      </trkpt>
      <trkpt lat="42.93611" lon="2.09453">
        <ele>497.39999389648</ele>
        <time>2025-08-05T14:38:58.000Z</time>
      </trkpt>
      <trkpt lat="42.93606" lon="2.09429">
        <ele>498</ele>
        <time>2025-08-05T14:39:06.000Z</time>
      </trkpt>
      <trkpt lat="42.936" lon="2.09404">
        <ele>498.39999389648</ele>
        <time>2025-08-05T14:39:15.000Z</time>
      </trkpt>
      <trkpt lat="42.93596" lon="2.0938">
        <ele>498.79998779297</ele>
        <time>2025-08-05T14:39:24.000Z</time>
      </trkpt>
      <trkpt lat="42.93595" lon="2.09375">
        <ele>499</ele>
        <time>2025-08-05T14:39:26.000Z</time>
      </trkpt>
      <trkpt lat="42.93594" lon="2.09361">
        <ele>499.39999389648</ele>
        <time>2025-08-05T14:39:32.000Z</time>
      </trkpt>
      <trkpt lat="42.93592" lon="2.09336">
        <ele>500</ele>
        <time>2025-08-05T14:39:41.000Z</time>
      </trkpt>
      <trkpt lat="42.93592" lon="2.09333">
        <ele>500.20001220703</ele>
        <time>2025-08-05T14:39:42.000Z</time>
      </trkpt>
      <trkpt lat="42.9359" lon="2.09293">
        <ele>500.79998779297</ele>
        <time>2025-08-05T14:39:56.000Z</time>
      </trkpt>
      <trkpt lat="42.9359" lon="2.0929">
        <ele>500.79998779297</ele>
        <time>2025-08-05T14:39:57.000Z</time>
      </trkpt>
      <trkpt lat="42.93592" lon="2.09271">
        <ele>501</ele>
        <time>2025-08-05T14:40:04.000Z</time>
      </trkpt>
      <trkpt lat="42.93597" lon="2.09247">
        <ele>501.79998779297</ele>
        <time>2025-08-05T14:40:13.000Z</time>
      </trkpt>
      <trkpt lat="42.93604" lon="2.0923">
        <ele>502.39999389648</ele>
        <time>2025-08-05T14:40:20.000Z</time>
      </trkpt>
      <trkpt lat="42.9361" lon="2.09217">
        <ele>503</ele>
        <time>2025-08-05T14:40:25.000Z</time>
      </trkpt>
      <trkpt lat="42.93612" lon="2.09212">
        <ele>503</ele>
        <time>2025-08-05T14:40:27.000Z</time>
      </trkpt>
      <trkpt lat="42.93619" lon="2.09194">
        <ele>503.39999389648</ele>
        <time>2025-08-05T14:40:34.000Z</time>
      </trkpt>
      <trkpt lat="42.93621" lon="2.09176">
        <ele>504</ele>
        <time>2025-08-05T14:40:41.000Z</time>
      </trkpt>
      <trkpt lat="42.93621" lon="2.09174">
        <ele>504</ele>
        <time>2025-08-05T14:40:42.000Z</time>
      </trkpt>
      <trkpt lat="42.93621" lon="2.09163">
        <ele>504.39999389648</ele>
        <time>2025-08-05T14:40:46.000Z</time>
      </trkpt>
      <trkpt lat="42.93622" lon="2.09145">
        <ele>504.79998779297</ele>
        <time>2025-08-05T14:40:53.000Z</time>
      </trkpt>
      <trkpt lat="42.93622" lon="2.09135">
        <ele>505</ele>
        <time>2025-08-05T14:40:57.000Z</time>
      </trkpt>
      <trkpt lat="42.93621" lon="2.0913">
        <ele>504.79998779297</ele>
        <time>2025-08-05T14:40:59.000Z</time>
      </trkpt>
      <trkpt lat="42.93621" lon="2.09127">
        <ele>504.79998779297</ele>
        <time>2025-08-05T14:41:00.000Z</time>
      </trkpt>
      <trkpt lat="42.93618" lon="2.09106">
        <ele>505.60000610352</ele>
        <time>2025-08-05T14:41:08.000Z</time>
      </trkpt>
      <trkpt lat="42.93616" lon="2.09096">
        <ele>506</ele>
        <time>2025-08-05T14:41:12.000Z</time>
      </trkpt>
      <trkpt lat="42.93615" lon="2.09089">
        <ele>506.20001220703</ele>
        <time>2025-08-05T14:41:15.000Z</time>
      </trkpt>
      <trkpt lat="42.93613" lon="2.09078">
        <ele>506.39999389648</ele>
        <time>2025-08-05T14:41:19.000Z</time>
      </trkpt>
      <trkpt lat="42.93611" lon="2.09074">
        <ele>506.39999389648</ele>
        <time>2025-08-05T14:41:21.000Z</time>
      </trkpt>
      <trkpt lat="42.93607" lon="2.0906">
        <ele>507</ele>
        <time>2025-08-05T14:41:27.000Z</time>
      </trkpt>
      <trkpt lat="42.93606" lon="2.09058">
        <ele>507</ele>
        <time>2025-08-05T14:41:28.000Z</time>
      </trkpt>
      <trkpt lat="42.93596" lon="2.0904">
        <ele>507.20001220703</ele>
        <time>2025-08-05T14:41:36.000Z</time>
      </trkpt>
      <trkpt lat="42.93595" lon="2.09038">
        <ele>507.20001220703</ele>
        <time>2025-08-05T14:41:37.000Z</time>
      </trkpt>
      <trkpt lat="42.93587" lon="2.09024">
        <ele>507.79998779297</ele>
        <time>2025-08-05T14:41:44.000Z</time>
      </trkpt>
      <trkpt lat="42.93585" lon="2.09022">
        <ele>507.79998779297</ele>
        <time>2025-08-05T14:41:45.000Z</time>
      </trkpt>
      <trkpt lat="42.93576" lon="2.09008">
        <ele>508.39999389648</ele>
        <time>2025-08-05T14:41:52.000Z</time>
      </trkpt>
      <trkpt lat="42.93568" lon="2.08996">
        <ele>508.79998779297</ele>
        <time>2025-08-05T14:41:58.000Z</time>
      </trkpt>
      <trkpt lat="42.93567" lon="2.08994">
        <ele>509</ele>
        <time>2025-08-05T14:41:59.000Z</time>
      </trkpt>
      <trkpt lat="42.93555" lon="2.08973">
        <ele>509.60000610352</ele>
        <time>2025-08-05T14:42:07.000Z</time>
      </trkpt>
      <trkpt lat="42.93546" lon="2.08958">
        <ele>510</ele>
        <time>2025-08-05T14:42:13.000Z</time>
      </trkpt>
      <trkpt lat="42.93544" lon="2.08954">
        <ele>510</ele>
        <time>2025-08-05T14:42:15.000Z</time>
      </trkpt>
      <trkpt lat="42.93544" lon="2.08953">
        <ele>510</ele>
        <time>2025-08-05T14:42:17.000Z</time>
      </trkpt>
      <trkpt lat="42.9354" lon="2.08948">
        <ele>509.79998779297</ele>
        <time>2025-08-05T14:42:30.000Z</time>
      </trkpt>
      <trkpt lat="42.93531" lon="2.08933">
        <ele>510</ele>
        <time>2025-08-05T14:42:36.000Z</time>
      </trkpt>
      <trkpt lat="42.93515" lon="2.08907">
        <ele>511</ele>
        <time>2025-08-05T14:42:46.000Z</time>
      </trkpt>
      <trkpt lat="42.93513" lon="2.08904">
        <ele>511</ele>
        <time>2025-08-05T14:42:47.000Z</time>
      </trkpt>
      <trkpt lat="42.93498" lon="2.08879">
        <ele>511.79998779297</ele>
        <time>2025-08-05T14:42:56.000Z</time>
      </trkpt>
      <trkpt lat="42.93495" lon="2.08874">
        <ele>511.79998779297</ele>
        <time>2025-08-05T14:42:58.000Z</time>
      </trkpt>
      <trkpt lat="42.93489" lon="2.08868">
        <ele>512</ele>
        <time>2025-08-05T14:43:01.000Z</time>
      </trkpt>
      <trkpt lat="42.93486" lon="2.08862">
        <ele>512</ele>
        <time>2025-08-05T14:43:03.000Z</time>
      </trkpt>
      <trkpt lat="42.93484" lon="2.08856">
        <ele>512.40002441406</ele>
        <time>2025-08-05T14:43:05.000Z</time>
      </trkpt>
      <trkpt lat="42.9348" lon="2.08849">
        <ele>512.59997558594</ele>
        <time>2025-08-05T14:43:08.000Z</time>
      </trkpt>
      <trkpt lat="42.93473" lon="2.08832">
        <ele>513.20001220703</ele>
        <time>2025-08-05T14:43:14.000Z</time>
      </trkpt>
      <trkpt lat="42.9347" lon="2.08822">
        <ele>513.20001220703</ele>
        <time>2025-08-05T14:43:17.000Z</time>
      </trkpt>
      <trkpt lat="42.93468" lon="2.08797">
        <ele>513.40002441406</ele>
        <time>2025-08-05T14:43:24.000Z</time>
      </trkpt>
      <trkpt lat="42.93467" lon="2.0877">
        <ele>514</ele>
        <time>2025-08-05T14:43:32.000Z</time>
      </trkpt>
      <trkpt lat="42.93467" lon="2.08741">
        <ele>514.79998779297</ele>
        <time>2025-08-05T14:43:41.000Z</time>
      </trkpt>
      <trkpt lat="42.93465" lon="2.08731">
        <ele>515.20001220703</ele>
        <time>2025-08-05T14:43:44.000Z</time>
      </trkpt>
      <trkpt lat="42.93465" lon="2.08717">
        <ele>515.59997558594</ele>
        <time>2025-08-05T14:43:48.000Z</time>
      </trkpt>
      <trkpt lat="42.93463" lon="2.08694">
        <ele>516.40002441406</ele>
        <time>2025-08-05T14:43:55.000Z</time>
      </trkpt>
      <trkpt lat="42.93462" lon="2.08688">
        <ele>516.59997558594</ele>
        <time>2025-08-05T14:43:57.000Z</time>
      </trkpt>
      <trkpt lat="42.93457" lon="2.08663">
        <ele>516.79998779297</ele>
        <time>2025-08-05T14:44:05.000Z</time>
      </trkpt>
      <trkpt lat="42.93451" lon="2.08639">
        <ele>517.40002441406</ele>
        <time>2025-08-05T14:44:13.000Z</time>
      </trkpt>
      <trkpt lat="42.93443" lon="2.08612">
        <ele>518.20001220703</ele>
        <time>2025-08-05T14:44:22.000Z</time>
      </trkpt>
      <trkpt lat="42.93438" lon="2.08595">
        <ele>518.59997558594</ele>
        <time>2025-08-05T14:44:28.000Z</time>
      </trkpt>
      <trkpt lat="42.93436" lon="2.08584">
        <ele>519.20001220703</ele>
        <time>2025-08-05T14:44:32.000Z</time>
      </trkpt>
      <trkpt lat="42.93433" lon="2.08576">
        <ele>519.59997558594</ele>
        <time>2025-08-05T14:44:35.000Z</time>
      </trkpt>
      <trkpt lat="42.93429" lon="2.08562">
        <ele>520.40002441406</ele>
        <time>2025-08-05T14:44:40.000Z</time>
      </trkpt>
      <trkpt lat="42.93428" lon="2.08556">
        <ele>520.59997558594</ele>
        <time>2025-08-05T14:44:42.000Z</time>
      </trkpt>
      <trkpt lat="42.93422" lon="2.08537">
        <ele>520.79998779297</ele>
        <time>2025-08-05T14:44:49.000Z</time>
      </trkpt>
      <trkpt lat="42.93418" lon="2.08522">
        <ele>521.40002441406</ele>
        <time>2025-08-05T14:44:54.000Z</time>
      </trkpt>
      <trkpt lat="42.93418" lon="2.08518">
        <ele>521.59997558594</ele>
        <time>2025-08-05T14:44:55.000Z</time>
      </trkpt>
      <trkpt lat="42.93417" lon="2.08493">
        <ele>522</ele>
        <time>2025-08-05T14:45:03.000Z</time>
      </trkpt>
      <trkpt lat="42.93421" lon="2.08467">
        <ele>522.20001220703</ele>
        <time>2025-08-05T14:45:12.000Z</time>
      </trkpt>
      <trkpt lat="42.93434" lon="2.08443">
        <ele>522.59997558594</ele>
        <time>2025-08-05T14:45:21.000Z</time>
      </trkpt>
      <trkpt lat="42.93442" lon="2.08425">
        <ele>523.79998779297</ele>
        <time>2025-08-05T14:45:28.000Z</time>
      </trkpt>
      <trkpt lat="42.93449" lon="2.08406">
        <ele>524</ele>
        <time>2025-08-05T14:45:35.000Z</time>
      </trkpt>
      <trkpt lat="42.93454" lon="2.08378">
        <ele>524.59997558594</ele>
        <time>2025-08-05T14:45:44.000Z</time>
      </trkpt>
      <trkpt lat="42.93456" lon="2.08361">
        <ele>524.79998779297</ele>
        <time>2025-08-05T14:45:49.000Z</time>
      </trkpt>
      <trkpt lat="42.93458" lon="2.08345">
        <ele>525.20001220703</ele>
        <time>2025-08-05T14:45:54.000Z</time>
      </trkpt>
      <trkpt lat="42.93461" lon="2.08313">
        <ele>525.59997558594</ele>
        <time>2025-08-05T14:46:04.000Z</time>
      </trkpt>
      <trkpt lat="42.93462" lon="2.08304">
        <ele>525.79998779297</ele>
        <time>2025-08-05T14:46:07.000Z</time>
      </trkpt>
      <trkpt lat="42.93464" lon="2.08293">
        <ele>526.40002441406</ele>
        <time>2025-08-05T14:46:11.000Z</time>
      </trkpt>
      <trkpt lat="42.93465" lon="2.08284">
        <ele>526.79998779297</ele>
        <time>2025-08-05T14:46:14.000Z</time>
      </trkpt>
      <trkpt lat="42.9347" lon="2.08275">
        <ele>527.20001220703</ele>
        <time>2025-08-05T14:46:18.000Z</time>
      </trkpt>
      <trkpt lat="42.93483" lon="2.08262">
        <ele>527.79998779297</ele>
        <time>2025-08-05T14:46:25.000Z</time>
      </trkpt>
      <trkpt lat="42.93487" lon="2.08261">
        <ele>527.79998779297</ele>
        <time>2025-08-05T14:46:27.000Z</time>
      </trkpt>
      <trkpt lat="42.93503" lon="2.08255">
        <ele>528.40002441406</ele>
        <time>2025-08-05T14:46:34.000Z</time>
      </trkpt>
      <trkpt lat="42.93513" lon="2.08249">
        <ele>528.79998779297</ele>
        <time>2025-08-05T14:46:39.000Z</time>
      </trkpt>
      <trkpt lat="42.93517" lon="2.08245">
        <ele>529</ele>
        <time>2025-08-05T14:46:41.000Z</time>
      </trkpt>
      <trkpt lat="42.93527" lon="2.08229">
        <ele>529.59997558594</ele>
        <time>2025-08-05T14:46:48.000Z</time>
      </trkpt>
      <trkpt lat="42.93532" lon="2.08214">
        <ele>530</ele>
        <time>2025-08-05T14:46:53.000Z</time>
      </trkpt>
      <trkpt lat="42.93534" lon="2.08208">
        <ele>530.20001220703</ele>
        <time>2025-08-05T14:46:55.000Z</time>
      </trkpt>
      <trkpt lat="42.93541" lon="2.08187">
        <ele>530.40002441406</ele>
        <time>2025-08-05T14:47:02.000Z</time>
      </trkpt>
      <trkpt lat="42.93553" lon="2.08162">
        <ele>531</ele>
        <time>2025-08-05T14:47:11.000Z</time>
      </trkpt>
      <trkpt lat="42.93559" lon="2.08156">
        <ele>531.20001220703</ele>
        <time>2025-08-05T14:47:14.000Z</time>
      </trkpt>
      <trkpt lat="42.93569" lon="2.08145">
        <ele>532.20001220703</ele>
        <time>2025-08-05T14:47:19.000Z</time>
      </trkpt>
      <trkpt lat="42.93571" lon="2.08143">
        <ele>532.40002441406</ele>
        <time>2025-08-05T14:47:20.000Z</time>
      </trkpt>
      <trkpt lat="42.93581" lon="2.08131">
        <ele>533.40002441406</ele>
        <time>2025-08-05T14:47:26.000Z</time>
      </trkpt>
      <trkpt lat="42.93583" lon="2.08128">
        <ele>533.40002441406</ele>
        <time>2025-08-05T14:47:27.000Z</time>
      </trkpt>
      <trkpt lat="42.93595" lon="2.08114">
        <ele>534.40002441406</ele>
        <time>2025-08-05T14:47:35.000Z</time>
      </trkpt>
      <trkpt lat="42.93596" lon="2.08112">
        <ele>534.40002441406</ele>
        <time>2025-08-05T14:47:37.000Z</time>
      </trkpt>
      <trkpt lat="42.93598" lon="2.08107">
        <ele>534.79998779297</ele>
        <time>2025-08-05T14:47:40.000Z</time>
      </trkpt>
      <trkpt lat="42.93605" lon="2.08094">
        <ele>535.40002441406</ele>
        <time>2025-08-05T14:47:48.000Z</time>
      </trkpt>
      <trkpt lat="42.93606" lon="2.08091">
        <ele>535.40002441406</ele>
        <time>2025-08-05T14:47:49.000Z</time>
      </trkpt>
      <trkpt lat="42.93607" lon="2.08079">
        <ele>535.79998779297</ele>
        <time>2025-08-05T14:47:54.000Z</time>
      </trkpt>
      <trkpt lat="42.93605" lon="2.08067">
        <ele>536.20001220703</ele>
        <time>2025-08-05T14:47:59.000Z</time>
      </trkpt>
      <trkpt lat="42.93604" lon="2.08066">
        <ele>536.20001220703</ele>
        <time>2025-08-05T14:48:00.000Z</time>
      </trkpt>
      <trkpt lat="42.93602" lon="2.08064">
        <ele>536.40002441406</ele>
        <time>2025-08-05T14:48:01.000Z</time>
      </trkpt>
      <trkpt lat="42.93594" lon="2.0806">
        <ele>537</ele>
        <time>2025-08-05T14:48:05.000Z</time>
      </trkpt>
      <trkpt lat="42.9359" lon="2.08059">
        <ele>537.20001220703</ele>
        <time>2025-08-05T14:48:07.000Z</time>
      </trkpt>
      <trkpt lat="42.93588" lon="2.08058">
        <ele>537.40002441406</ele>
        <time>2025-08-05T14:48:08.000Z</time>
      </trkpt>
      <trkpt lat="42.93575" lon="2.08052">
        <ele>538.20001220703</ele>
        <time>2025-08-05T14:48:14.000Z</time>
      </trkpt>
      <trkpt lat="42.93567" lon="2.08051">
        <ele>538.59997558594</ele>
        <time>2025-08-05T14:48:18.000Z</time>
      </trkpt>
      <trkpt lat="42.93565" lon="2.0805">
        <ele>538.59997558594</ele>
        <time>2025-08-05T14:48:19.000Z</time>
      </trkpt>
      <trkpt lat="42.93552" lon="2.08048">
        <ele>538.79998779297</ele>
        <time>2025-08-05T14:48:25.000Z</time>
      </trkpt>
      <trkpt lat="42.93534" lon="2.08044">
        <ele>539.20001220703</ele>
        <time>2025-08-05T14:48:33.000Z</time>
      </trkpt>
      <trkpt lat="42.93518" lon="2.0804">
        <ele>539</ele>
        <time>2025-08-05T14:48:40.000Z</time>
      </trkpt>
      <trkpt lat="42.93503" lon="2.08037">
        <ele>539.20001220703</ele>
        <time>2025-08-05T14:48:46.000Z</time>
      </trkpt>
      <trkpt lat="42.93501" lon="2.08036">
        <ele>539.20001220703</ele>
        <time>2025-08-05T14:48:47.000Z</time>
      </trkpt>
      <trkpt lat="42.93492" lon="2.08031">
        <ele>539.40002441406</ele>
        <time>2025-08-05T14:48:51.000Z</time>
      </trkpt>
      <trkpt lat="42.93483" lon="2.08029">
        <ele>539.59997558594</ele>
        <time>2025-08-05T14:48:55.000Z</time>
      </trkpt>
      <trkpt lat="42.93469" lon="2.0802">
        <ele>539.79998779297</ele>
        <time>2025-08-05T14:49:01.000Z</time>
      </trkpt>
      <trkpt lat="42.93456" lon="2.08013">
        <ele>539.79998779297</ele>
        <time>2025-08-05T14:49:07.000Z</time>
      </trkpt>
      <trkpt lat="42.93437" lon="2.07997">
        <ele>540.20001220703</ele>
        <time>2025-08-05T14:49:16.000Z</time>
      </trkpt>
      <trkpt lat="42.93432" lon="2.07991">
        <ele>540.40002441406</ele>
        <time>2025-08-05T14:49:19.000Z</time>
      </trkpt>
      <trkpt lat="42.93422" lon="2.07977">
        <ele>540.79998779297</ele>
        <time>2025-08-05T14:49:25.000Z</time>
      </trkpt>
      <trkpt lat="42.9342" lon="2.07972">
        <ele>540.79998779297</ele>
        <time>2025-08-05T14:49:27.000Z</time>
      </trkpt>
      <trkpt lat="42.93413" lon="2.07958">
        <ele>541.40002441406</ele>
        <time>2025-08-05T14:49:32.000Z</time>
      </trkpt>
      <trkpt lat="42.93411" lon="2.07955">
        <ele>541.59997558594</ele>
        <time>2025-08-05T14:49:33.000Z</time>
      </trkpt>
      <trkpt lat="42.93402" lon="2.07924">
        <ele>542</ele>
        <time>2025-08-05T14:49:43.000Z</time>
      </trkpt>
      <trkpt lat="42.93396" lon="2.07906">
        <ele>542.40002441406</ele>
        <time>2025-08-05T14:49:49.000Z</time>
      </trkpt>
      <trkpt lat="42.93393" lon="2.07901">
        <ele>542.59997558594</ele>
        <time>2025-08-05T14:49:51.000Z</time>
      </trkpt>
      <trkpt lat="42.93383" lon="2.07878">
        <ele>543</ele>
        <time>2025-08-05T14:49:59.000Z</time>
      </trkpt>
      <trkpt lat="42.9337" lon="2.07856">
        <ele>543.59997558594</ele>
        <time>2025-08-05T14:50:08.000Z</time>
      </trkpt>
      <trkpt lat="42.93363" lon="2.07837">
        <ele>544.20001220703</ele>
        <time>2025-08-05T14:50:15.000Z</time>
      </trkpt>
      <trkpt lat="42.93359" lon="2.07826">
        <ele>544.59997558594</ele>
        <time>2025-08-05T14:50:19.000Z</time>
      </trkpt>
      <trkpt lat="42.93355" lon="2.07814">
        <ele>544.79998779297</ele>
        <time>2025-08-05T14:50:23.000Z</time>
      </trkpt>
      <trkpt lat="42.93349" lon="2.07797">
        <ele>545.20001220703</ele>
        <time>2025-08-05T14:50:29.000Z</time>
      </trkpt>
      <trkpt lat="42.93346" lon="2.07788">
        <ele>545.59997558594</ele>
        <time>2025-08-05T14:50:32.000Z</time>
      </trkpt>
      <trkpt lat="42.93342" lon="2.07776">
        <ele>546</ele>
        <time>2025-08-05T14:50:36.000Z</time>
      </trkpt>
      <trkpt lat="42.93333" lon="2.07749">
        <ele>546.40002441406</ele>
        <time>2025-08-05T14:50:45.000Z</time>
      </trkpt>
      <trkpt lat="42.93331" lon="2.07743">
        <ele>546.59997558594</ele>
        <time>2025-08-05T14:50:47.000Z</time>
      </trkpt>
      <trkpt lat="42.93325" lon="2.07723">
        <ele>547.20001220703</ele>
        <time>2025-08-05T14:50:54.000Z</time>
      </trkpt>
      <trkpt lat="42.93323" lon="2.07718">
        <ele>547.59997558594</ele>
        <time>2025-08-05T14:50:56.000Z</time>
      </trkpt>
      <trkpt lat="42.93319" lon="2.07694">
        <ele>548.20001220703</ele>
        <time>2025-08-05T14:51:04.000Z</time>
      </trkpt>
      <trkpt lat="42.93316" lon="2.0768">
        <ele>548.59997558594</ele>
        <time>2025-08-05T14:51:09.000Z</time>
      </trkpt>
      <trkpt lat="42.93314" lon="2.07659">
        <ele>549.20001220703</ele>
        <time>2025-08-05T14:51:16.000Z</time>
      </trkpt>
      <trkpt lat="42.93308" lon="2.07634">
        <ele>549.59997558594</ele>
        <time>2025-08-05T14:51:25.000Z</time>
      </trkpt>
      <trkpt lat="42.93308" lon="2.07631">
        <ele>549.79998779297</ele>
        <time>2025-08-05T14:51:26.000Z</time>
      </trkpt>
      <trkpt lat="42.93302" lon="2.0761">
        <ele>550.59997558594</ele>
        <time>2025-08-05T14:51:34.000Z</time>
      </trkpt>
      <trkpt lat="42.93301" lon="2.07607">
        <ele>550.79998779297</ele>
        <time>2025-08-05T14:51:35.000Z</time>
      </trkpt>
      <trkpt lat="42.93289" lon="2.07586">
        <ele>551.59997558594</ele>
        <time>2025-08-05T14:51:44.000Z</time>
      </trkpt>
      <trkpt lat="42.93288" lon="2.07584">
        <ele>551.59997558594</ele>
        <time>2025-08-05T14:51:45.000Z</time>
      </trkpt>
      <trkpt lat="42.93284" lon="2.07579">
        <ele>551.79998779297</ele>
        <time>2025-08-05T14:51:49.000Z</time>
      </trkpt>
      <trkpt lat="42.9327" lon="2.07563">
        <ele>552.40002441406</ele>
        <time>2025-08-05T14:51:57.000Z</time>
      </trkpt>
      <trkpt lat="42.93267" lon="2.07559">
        <ele>552.40002441406</ele>
        <time>2025-08-05T14:51:59.000Z</time>
      </trkpt>
      <trkpt lat="42.93255" lon="2.07546">
        <ele>552.79998779297</ele>
        <time>2025-08-05T14:52:06.000Z</time>
      </trkpt>
      <trkpt lat="42.93241" lon="2.07528">
        <ele>553.40002441406</ele>
        <time>2025-08-05T14:52:15.000Z</time>
      </trkpt>
      <trkpt lat="42.93239" lon="2.07526">
        <ele>553.59997558594</ele>
        <time>2025-08-05T14:52:16.000Z</time>
      </trkpt>
      <trkpt lat="42.93229" lon="2.07515">
        <ele>553.79998779297</ele>
        <time>2025-08-05T14:52:22.000Z</time>
      </trkpt>
      <trkpt lat="42.93226" lon="2.07512">
        <ele>553.79998779297</ele>
        <time>2025-08-05T14:52:24.000Z</time>
      </trkpt>
      <trkpt lat="42.93225" lon="2.07506">
        <ele>553.79998779297</ele>
        <time>2025-08-05T14:52:26.000Z</time>
      </trkpt>
      <trkpt lat="42.93224" lon="2.07504">
        <ele>553.79998779297</ele>
        <time>2025-08-05T14:52:27.000Z</time>
      </trkpt>
      <trkpt lat="42.9322" lon="2.07501">
        <ele>553.79998779297</ele>
        <time>2025-08-05T14:52:30.000Z</time>
      </trkpt>
      <trkpt lat="42.9322" lon="2.07501">
        <ele>553.79998779297</ele>
        <time>2025-08-05T14:52:32.000Z</time>
      </trkpt>
      <trkpt lat="42.93214" lon="2.075">
        <ele>552.40002441406</ele>
        <time>2025-08-05T14:54:12.000Z</time>
      </trkpt>
      <trkpt lat="42.93209" lon="2.07496">
        <ele>552.40002441406</ele>
        <time>2025-08-05T14:54:15.000Z</time>
      </trkpt>
      <trkpt lat="42.93206" lon="2.07491">
        <ele>552.40002441406</ele>
        <time>2025-08-05T14:54:17.000Z</time>
      </trkpt>
      <trkpt lat="42.93198" lon="2.07479">
        <ele>552.59997558594</ele>
        <time>2025-08-05T14:54:22.000Z</time>
      </trkpt>
      <trkpt lat="42.93194" lon="2.07471">
        <ele>552.59997558594</ele>
        <time>2025-08-05T14:54:25.000Z</time>
      </trkpt>
      <trkpt lat="42.93184" lon="2.07441">
        <ele>552.40002441406</ele>
        <time>2025-08-05T14:54:34.000Z</time>
      </trkpt>
      <trkpt lat="42.93175" lon="2.07411">
        <ele>552.40002441406</ele>
        <time>2025-08-05T14:54:42.000Z</time>
      </trkpt>
      <trkpt lat="42.93169" lon="2.07383">
        <ele>552.20001220703</ele>
        <time>2025-08-05T14:54:49.000Z</time>
      </trkpt>
      <trkpt lat="42.9317" lon="2.07353">
        <ele>551.79998779297</ele>
        <time>2025-08-05T14:54:56.000Z</time>
      </trkpt>
      <trkpt lat="42.93183" lon="2.07313">
        <ele>552.59997558594</ele>
        <time>2025-08-05T14:55:05.000Z</time>
      </trkpt>
      <trkpt lat="42.93197" lon="2.07269">
        <ele>551.79998779297</ele>
        <time>2025-08-05T14:55:15.000Z</time>
      </trkpt>
      <trkpt lat="42.93196" lon="2.07245">
        <ele>551.40002441406</ele>
        <time>2025-08-05T14:55:20.000Z</time>
      </trkpt>
      <trkpt lat="42.93194" lon="2.07241">
        <ele>551.40002441406</ele>
        <time>2025-08-05T14:55:21.000Z</time>
      </trkpt>
      <trkpt lat="42.93182" lon="2.07223">
        <ele>551.20001220703</ele>
        <time>2025-08-05T14:55:26.000Z</time>
      </trkpt>
      <trkpt lat="42.93162" lon="2.07212">
        <ele>550.79998779297</ele>
        <time>2025-08-05T14:55:32.000Z</time>
      </trkpt>
      <trkpt lat="42.93155" lon="2.0721">
        <ele>550.40002441406</ele>
        <time>2025-08-05T14:55:34.000Z</time>
      </trkpt>
      <trkpt lat="42.93128" lon="2.07197">
        <ele>549.20001220703</ele>
        <time>2025-08-05T14:55:41.000Z</time>
      </trkpt>
      <trkpt lat="42.93118" lon="2.07186">
        <ele>548.79998779297</ele>
        <time>2025-08-05T14:55:44.000Z</time>
      </trkpt>
      <trkpt lat="42.93113" lon="2.07177">
        <ele>548.59997558594</ele>
        <time>2025-08-05T14:55:46.000Z</time>
      </trkpt>
      <trkpt lat="42.93111" lon="2.07172">
        <ele>548.59997558594</ele>
        <time>2025-08-05T14:55:47.000Z</time>
      </trkpt>
      <trkpt lat="42.93103" lon="2.07141">
        <ele>548.59997558594</ele>
        <time>2025-08-05T14:55:53.000Z</time>
      </trkpt>
      <trkpt lat="42.93096" lon="2.07094">
        <ele>548.59997558594</ele>
        <time>2025-08-05T14:56:01.000Z</time>
      </trkpt>
      <trkpt lat="42.93093" lon="2.0705">
        <ele>548</ele>
        <time>2025-08-05T14:56:09.000Z</time>
      </trkpt>
      <trkpt lat="42.93094" lon="2.07029">
        <ele>548</ele>
        <time>2025-08-05T14:56:14.000Z</time>
      </trkpt>
      <trkpt lat="42.93098" lon="2.07006">
        <ele>548</ele>
        <time>2025-08-05T14:56:20.000Z</time>
      </trkpt>
      <trkpt lat="42.93099" lon="2.06987">
        <ele>548</ele>
        <time>2025-08-05T14:56:25.000Z</time>
      </trkpt>
      <trkpt lat="42.93101" lon="2.06953">
        <ele>547.79998779297</ele>
        <time>2025-08-05T14:56:31.000Z</time>
      </trkpt>
      <trkpt lat="42.93102" lon="2.06943">
        <ele>547.59997558594</ele>
        <time>2025-08-05T14:56:33.000Z</time>
      </trkpt>
      <trkpt lat="42.93101" lon="2.06932">
        <ele>547.59997558594</ele>
        <time>2025-08-05T14:56:35.000Z</time>
      </trkpt>
      <trkpt lat="42.93103" lon="2.06921">
        <ele>547.59997558594</ele>
        <time>2025-08-05T14:56:37.000Z</time>
      </trkpt>
      <trkpt lat="42.93104" lon="2.0691">
        <ele>547.59997558594</ele>
        <time>2025-08-05T14:56:39.000Z</time>
      </trkpt>
      <trkpt lat="42.93105" lon="2.06877">
        <ele>547.40002441406</ele>
        <time>2025-08-05T14:56:44.000Z</time>
      </trkpt>
      <trkpt lat="42.9311" lon="2.06842">
        <ele>546.79998779297</ele>
        <time>2025-08-05T14:56:50.000Z</time>
      </trkpt>
      <trkpt lat="42.93111" lon="2.06836">
        <ele>546.79998779297</ele>
        <time>2025-08-05T14:56:51.000Z</time>
      </trkpt>
      <trkpt lat="42.93114" lon="2.06811">
        <ele>546.79998779297</ele>
        <time>2025-08-05T14:56:56.000Z</time>
      </trkpt>
      <trkpt lat="42.93114" lon="2.0679">
        <ele>546.79998779297</ele>
        <time>2025-08-05T14:57:00.000Z</time>
      </trkpt>
      <trkpt lat="42.93115" lon="2.06768">
        <ele>546.40002441406</ele>
        <time>2025-08-05T14:57:04.000Z</time>
      </trkpt>
      <trkpt lat="42.93115" lon="2.06728">
        <ele>546</ele>
        <time>2025-08-05T14:57:11.000Z</time>
      </trkpt>
      <trkpt lat="42.93114" lon="2.06691">
        <ele>545.79998779297</ele>
        <time>2025-08-05T14:57:18.000Z</time>
      </trkpt>
      <trkpt lat="42.93117" lon="2.06667">
        <ele>545.40002441406</ele>
        <time>2025-08-05T14:57:23.000Z</time>
      </trkpt>
      <trkpt lat="42.9312" lon="2.06645">
        <ele>545.40002441406</ele>
        <time>2025-08-05T14:57:28.000Z</time>
      </trkpt>
      <trkpt lat="42.93121" lon="2.06642">
        <ele>545.40002441406</ele>
        <time>2025-08-05T14:57:29.000Z</time>
      </trkpt>
      <trkpt lat="42.93122" lon="2.06628">
        <ele>545.40002441406</ele>
        <time>2025-08-05T14:57:32.000Z</time>
      </trkpt>
      <trkpt lat="42.93122" lon="2.06624">
        <ele>545.40002441406</ele>
        <time>2025-08-05T14:57:33.000Z</time>
      </trkpt>
      <trkpt lat="42.93123" lon="2.06616">
        <ele>545.40002441406</ele>
        <time>2025-08-05T14:57:35.000Z</time>
      </trkpt>
      <trkpt lat="42.93123" lon="2.06611">
        <ele>545.40002441406</ele>
        <time>2025-08-05T14:57:36.000Z</time>
      </trkpt>
      <trkpt lat="42.93124" lon="2.06576">
        <ele>544.79998779297</ele>
        <time>2025-08-05T14:57:43.000Z</time>
      </trkpt>
      <trkpt lat="42.93124" lon="2.06556">
        <ele>544.59997558594</ele>
        <time>2025-08-05T14:57:48.000Z</time>
      </trkpt>
      <trkpt lat="42.93122" lon="2.0654">
        <ele>544.79998779297</ele>
        <time>2025-08-05T14:57:52.000Z</time>
      </trkpt>
      <trkpt lat="42.93122" lon="2.06528">
        <ele>544.59997558594</ele>
        <time>2025-08-05T14:57:55.000Z</time>
      </trkpt>
      <trkpt lat="42.93123" lon="2.06492">
        <ele>544.20001220703</ele>
        <time>2025-08-05T14:58:01.000Z</time>
      </trkpt>
      <trkpt lat="42.93125" lon="2.06457">
        <ele>543.40002441406</ele>
        <time>2025-08-05T14:58:06.000Z</time>
      </trkpt>
      <trkpt lat="42.93126" lon="2.06452">
        <ele>543.20001220703</ele>
        <time>2025-08-05T14:58:07.000Z</time>
      </trkpt>
      <trkpt lat="42.93126" lon="2.06448">
        <ele>543</ele>
        <time>2025-08-05T14:58:08.000Z</time>
      </trkpt>
      <trkpt lat="42.93127" lon="2.06428">
        <ele>542.79998779297</ele>
        <time>2025-08-05T14:58:12.000Z</time>
      </trkpt>
      <trkpt lat="42.93127" lon="2.06423">
        <ele>542.79998779297</ele>
        <time>2025-08-05T14:58:13.000Z</time>
      </trkpt>
      <trkpt lat="42.93128" lon="2.06406">
        <ele>542.79998779297</ele>
        <time>2025-08-05T14:58:16.000Z</time>
      </trkpt>
      <trkpt lat="42.93129" lon="2.06396">
        <ele>543</ele>
        <time>2025-08-05T14:58:18.000Z</time>
      </trkpt>
      <trkpt lat="42.93129" lon="2.06383">
        <ele>543.40002441406</ele>
        <time>2025-08-05T14:58:20.000Z</time>
      </trkpt>
      <trkpt lat="42.93128" lon="2.06349">
        <ele>543.40002441406</ele>
        <time>2025-08-05T14:58:25.000Z</time>
      </trkpt>
      <trkpt lat="42.93129" lon="2.06324">
        <ele>543.20001220703</ele>
        <time>2025-08-05T14:58:29.000Z</time>
      </trkpt>
      <trkpt lat="42.93129" lon="2.06312">
        <ele>542.79998779297</ele>
        <time>2025-08-05T14:58:31.000Z</time>
      </trkpt>
      <trkpt lat="42.9313" lon="2.06308">
        <ele>542.79998779297</ele>
        <time>2025-08-05T14:58:32.000Z</time>
      </trkpt>
      <trkpt lat="42.9313" lon="2.06289">
        <ele>542.40002441406</ele>
        <time>2025-08-05T14:58:36.000Z</time>
      </trkpt>
      <trkpt lat="42.9313" lon="2.06263">
        <ele>542</ele>
        <time>2025-08-05T14:58:41.000Z</time>
      </trkpt>
      <trkpt lat="42.9313" lon="2.06247">
        <ele>541.79998779297</ele>
        <time>2025-08-05T14:58:44.000Z</time>
      </trkpt>
      <trkpt lat="42.93131" lon="2.06211">
        <ele>541</ele>
        <time>2025-08-05T14:58:51.000Z</time>
      </trkpt>
      <trkpt lat="42.93132" lon="2.06189">
        <ele>540.59997558594</ele>
        <time>2025-08-05T14:58:55.000Z</time>
      </trkpt>
      <trkpt lat="42.93133" lon="2.06146">
        <ele>540.20001220703</ele>
        <time>2025-08-05T14:59:03.000Z</time>
      </trkpt>
      <trkpt lat="42.93137" lon="2.06119">
        <ele>540.20001220703</ele>
        <time>2025-08-05T14:59:08.000Z</time>
      </trkpt>
      <trkpt lat="42.93138" lon="2.06101">
        <ele>540.20001220703</ele>
        <time>2025-08-05T14:59:11.000Z</time>
      </trkpt>
      <trkpt lat="42.93142" lon="2.06061">
        <ele>540.20001220703</ele>
        <time>2025-08-05T14:59:18.000Z</time>
      </trkpt>
      <trkpt lat="42.93144" lon="2.06045">
        <ele>540</ele>
        <time>2025-08-05T14:59:21.000Z</time>
      </trkpt>
      <trkpt lat="42.93144" lon="2.06033">
        <ele>539.79998779297</ele>
        <time>2025-08-05T14:59:23.000Z</time>
      </trkpt>
      <trkpt lat="42.93149" lon="2.05986">
        <ele>539.40002441406</ele>
        <time>2025-08-05T14:59:32.000Z</time>
      </trkpt>
      <trkpt lat="42.93153" lon="2.0594">
        <ele>539.20001220703</ele>
        <time>2025-08-05T14:59:40.000Z</time>
      </trkpt>
      <trkpt lat="42.93156" lon="2.059">
        <ele>538.79998779297</ele>
        <time>2025-08-05T14:59:47.000Z</time>
      </trkpt>
      <trkpt lat="42.93157" lon="2.05883">
        <ele>538.79998779297</ele>
        <time>2025-08-05T14:59:50.000Z</time>
      </trkpt>
      <trkpt lat="42.93162" lon="2.0584">
        <ele>538.79998779297</ele>
        <time>2025-08-05T14:59:58.000Z</time>
      </trkpt>
      <trkpt lat="42.93163" lon="2.05804">
        <ele>538.79998779297</ele>
        <time>2025-08-05T15:00:05.000Z</time>
      </trkpt>
      <trkpt lat="42.93165" lon="2.05764">
        <ele>538.79998779297</ele>
        <time>2025-08-05T15:00:13.000Z</time>
      </trkpt>
      <trkpt lat="42.93166" lon="2.05758">
        <ele>538.79998779297</ele>
        <time>2025-08-05T15:00:14.000Z</time>
      </trkpt>
      <trkpt lat="42.93169" lon="2.05725">
        <ele>538.79998779297</ele>
        <time>2025-08-05T15:00:20.000Z</time>
      </trkpt>
      <trkpt lat="42.93171" lon="2.05693">
        <ele>538.59997558594</ele>
        <time>2025-08-05T15:00:26.000Z</time>
      </trkpt>
      <trkpt lat="42.93175" lon="2.05647">
        <ele>538.40002441406</ele>
        <time>2025-08-05T15:00:35.000Z</time>
      </trkpt>
      <trkpt lat="42.93176" lon="2.05643">
        <ele>538.40002441406</ele>
        <time>2025-08-05T15:00:36.000Z</time>
      </trkpt>
      <trkpt lat="42.93176" lon="2.05604">
        <ele>538.20001220703</ele>
        <time>2025-08-05T15:00:43.000Z</time>
      </trkpt>
      <trkpt lat="42.93171" lon="2.05569">
        <ele>537.79998779297</ele>
        <time>2025-08-05T15:00:49.000Z</time>
      </trkpt>
      <trkpt lat="42.9317" lon="2.05558">
        <ele>537.79998779297</ele>
        <time>2025-08-05T15:00:51.000Z</time>
      </trkpt>
      <trkpt lat="42.93168" lon="2.05536">
        <ele>537.59997558594</ele>
        <time>2025-08-05T15:00:56.000Z</time>
      </trkpt>
      <trkpt lat="42.93169" lon="2.05501">
        <ele>537.59997558594</ele>
        <time>2025-08-05T15:01:04.000Z</time>
      </trkpt>
      <trkpt lat="42.93168" lon="2.05469">
        <ele>537.40002441406</ele>
        <time>2025-08-05T15:01:10.000Z</time>
      </trkpt>
      <trkpt lat="42.93163" lon="2.0543">
        <ele>536.59997558594</ele>
        <time>2025-08-05T15:01:17.000Z</time>
      </trkpt>
      <trkpt lat="42.93162" lon="2.05419">
        <ele>536.40002441406</ele>
        <time>2025-08-05T15:01:19.000Z</time>
      </trkpt>
      <trkpt lat="42.93152" lon="2.05383">
        <ele>536</ele>
        <time>2025-08-05T15:01:26.000Z</time>
      </trkpt>
      <trkpt lat="42.93139" lon="2.05341">
        <ele>535.59997558594</ele>
        <time>2025-08-05T15:01:34.000Z</time>
      </trkpt>
      <trkpt lat="42.93135" lon="2.05326">
        <ele>535.59997558594</ele>
        <time>2025-08-05T15:01:37.000Z</time>
      </trkpt>
      <trkpt lat="42.93133" lon="2.05311">
        <ele>535.59997558594</ele>
        <time>2025-08-05T15:01:40.000Z</time>
      </trkpt>
      <trkpt lat="42.93132" lon="2.05306">
        <ele>535.40002441406</ele>
        <time>2025-08-05T15:01:41.000Z</time>
      </trkpt>
      <trkpt lat="42.93125" lon="2.05271">
        <ele>535</ele>
        <time>2025-08-05T15:01:48.000Z</time>
      </trkpt>
      <trkpt lat="42.93113" lon="2.05259">
        <ele>534.79998779297</ele>
        <time>2025-08-05T15:01:52.000Z</time>
      </trkpt>
      <trkpt lat="42.93097" lon="2.05261">
        <ele>534.59997558594</ele>
        <time>2025-08-05T15:01:56.000Z</time>
      </trkpt>
      <trkpt lat="42.93093" lon="2.05263">
        <ele>534.59997558594</ele>
        <time>2025-08-05T15:01:57.000Z</time>
      </trkpt>
      <trkpt lat="42.9307" lon="2.05273">
        <ele>534.40002441406</ele>
        <time>2025-08-05T15:02:03.000Z</time>
      </trkpt>
      <trkpt lat="42.93048" lon="2.05276">
        <ele>534.20001220703</ele>
        <time>2025-08-05T15:02:09.000Z</time>
      </trkpt>
      <trkpt lat="42.93023" lon="2.0528">
        <ele>534</ele>
        <time>2025-08-05T15:02:16.000Z</time>
      </trkpt>
      <trkpt lat="42.92998" lon="2.05302">
        <ele>533.79998779297</ele>
        <time>2025-08-05T15:02:24.000Z</time>
      </trkpt>
      <trkpt lat="42.92988" lon="2.05315">
        <ele>533.79998779297</ele>
        <time>2025-08-05T15:02:28.000Z</time>
      </trkpt>
      <trkpt lat="42.92981" lon="2.05326">
        <ele>533.79998779297</ele>
        <time>2025-08-05T15:02:32.000Z</time>
      </trkpt>
      <trkpt lat="42.92966" lon="2.05346">
        <ele>533.79998779297</ele>
        <time>2025-08-05T15:02:39.000Z</time>
      </trkpt>
      <trkpt lat="42.92963" lon="2.0535">
        <ele>533.59997558594</ele>
        <time>2025-08-05T15:02:40.000Z</time>
      </trkpt>
      <trkpt lat="42.92961" lon="2.05353">
        <ele>533.59997558594</ele>
        <time>2025-08-05T15:02:41.000Z</time>
      </trkpt>
      <trkpt lat="42.92941" lon="2.05375">
        <ele>533.40002441406</ele>
        <time>2025-08-05T15:02:48.000Z</time>
      </trkpt>
      <trkpt lat="42.9291" lon="2.05404">
        <ele>533</ele>
        <time>2025-08-05T15:02:57.000Z</time>
      </trkpt>
      <trkpt lat="42.92902" lon="2.0541">
        <ele>533</ele>
        <time>2025-08-05T15:02:59.000Z</time>
      </trkpt>
      <trkpt lat="42.92893" lon="2.05413">
        <ele>533</ele>
        <time>2025-08-05T15:03:01.000Z</time>
      </trkpt>
      <trkpt lat="42.92884" lon="2.05414">
        <ele>532.79998779297</ele>
        <time>2025-08-05T15:03:03.000Z</time>
      </trkpt>
      <trkpt lat="42.92875" lon="2.05412">
        <ele>532.79998779297</ele>
        <time>2025-08-05T15:03:05.000Z</time>
      </trkpt>
      <trkpt lat="42.92866" lon="2.05406">
        <ele>532.59997558594</ele>
        <time>2025-08-05T15:03:07.000Z</time>
      </trkpt>
      <trkpt lat="42.92854" lon="2.05398">
        <ele>532.40002441406</ele>
        <time>2025-08-05T15:03:10.000Z</time>
      </trkpt>
      <trkpt lat="42.92846" lon="2.05395">
        <ele>532.40002441406</ele>
        <time>2025-08-05T15:03:12.000Z</time>
      </trkpt>
      <trkpt lat="42.92842" lon="2.05394">
        <ele>532.40002441406</ele>
        <time>2025-08-05T15:03:13.000Z</time>
      </trkpt>
      <trkpt lat="42.92834" lon="2.05391">
        <ele>532.40002441406</ele>
        <time>2025-08-05T15:03:15.000Z</time>
      </trkpt>
      <trkpt lat="42.92817" lon="2.05388">
        <ele>532.20001220703</ele>
        <time>2025-08-05T15:03:19.000Z</time>
      </trkpt>
      <trkpt lat="42.92813" lon="2.05388">
        <ele>532.20001220703</ele>
        <time>2025-08-05T15:03:20.000Z</time>
      </trkpt>
      <trkpt lat="42.92808" lon="2.05386">
        <ele>532</ele>
        <time>2025-08-05T15:03:21.000Z</time>
      </trkpt>
      <trkpt lat="42.92797" lon="2.05377">
        <ele>532</ele>
        <time>2025-08-05T15:03:24.000Z</time>
      </trkpt>
      <trkpt lat="42.92793" lon="2.05373">
        <ele>532</ele>
        <time>2025-08-05T15:03:25.000Z</time>
      </trkpt>
      <trkpt lat="42.92787" lon="2.05357">
        <ele>531.79998779297</ele>
        <time>2025-08-05T15:03:28.000Z</time>
      </trkpt>
      <trkpt lat="42.9278" lon="2.05338">
        <ele>531.79998779297</ele>
        <time>2025-08-05T15:03:32.000Z</time>
      </trkpt>
      <trkpt lat="42.92774" lon="2.05318">
        <ele>532</ele>
        <time>2025-08-05T15:03:36.000Z</time>
      </trkpt>
      <trkpt lat="42.92767" lon="2.05294">
        <ele>532.79998779297</ele>
        <time>2025-08-05T15:03:42.000Z</time>
      </trkpt>
      <trkpt lat="42.92755" lon="2.05262">
        <ele>533</ele>
        <time>2025-08-05T15:03:50.000Z</time>
      </trkpt>
      <trkpt lat="42.92737" lon="2.05238">
        <ele>532.59997558594</ele>
        <time>2025-08-05T15:03:58.000Z</time>
      </trkpt>
      <trkpt lat="42.92731" lon="2.05232">
        <ele>532.40002441406</ele>
        <time>2025-08-05T15:04:00.000Z</time>
      </trkpt>
      <trkpt lat="42.92716" lon="2.05215">
        <ele>532</ele>
        <time>2025-08-05T15:04:06.000Z</time>
      </trkpt>
      <trkpt lat="42.92704" lon="2.05191">
        <ele>532</ele>
        <time>2025-08-05T15:04:13.000Z</time>
      </trkpt>
      <trkpt lat="42.92701" lon="2.05171">
        <ele>531.59997558594</ele>
        <time>2025-08-05T15:04:19.000Z</time>
      </trkpt>
      <trkpt lat="42.927" lon="2.05168">
        <ele>531.59997558594</ele>
        <time>2025-08-05T15:04:20.000Z</time>
      </trkpt>
      <trkpt lat="42.927" lon="2.05156">
        <ele>531.40002441406</ele>
        <time>2025-08-05T15:04:24.000Z</time>
      </trkpt>
      <trkpt lat="42.92697" lon="2.05137">
        <ele>531.20001220703</ele>
        <time>2025-08-05T15:04:30.000Z</time>
      </trkpt>
      <trkpt lat="42.92683" lon="2.05117">
        <ele>530.59997558594</ele>
        <time>2025-08-05T15:04:37.000Z</time>
      </trkpt>
      <trkpt lat="42.92679" lon="2.05113">
        <ele>530.40002441406</ele>
        <time>2025-08-05T15:04:39.000Z</time>
      </trkpt>
      <trkpt lat="42.9267" lon="2.05105">
        <ele>530.40002441406</ele>
        <time>2025-08-05T15:04:43.000Z</time>
      </trkpt>
      <trkpt lat="42.92654" lon="2.05092">
        <ele>530</ele>
        <time>2025-08-05T15:04:50.000Z</time>
      </trkpt>
      <trkpt lat="42.92644" lon="2.05081">
        <ele>529.79998779297</ele>
        <time>2025-08-05T15:04:55.000Z</time>
      </trkpt>
      <trkpt lat="42.92631" lon="2.05068">
        <ele>530</ele>
        <time>2025-08-05T15:05:01.000Z</time>
      </trkpt>
      <trkpt lat="42.92616" lon="2.0506">
        <ele>530</ele>
        <time>2025-08-05T15:05:07.000Z</time>
      </trkpt>
      <trkpt lat="42.92596" lon="2.05055">
        <ele>529.40002441406</ele>
        <time>2025-08-05T15:05:13.000Z</time>
      </trkpt>
      <trkpt lat="42.92571" lon="2.05055">
        <ele>529</ele>
        <time>2025-08-05T15:05:19.000Z</time>
      </trkpt>
      <trkpt lat="42.92561" lon="2.05055">
        <ele>528.59997558594</ele>
        <time>2025-08-05T15:05:21.000Z</time>
      </trkpt>
      <trkpt lat="42.92544" lon="2.05057">
        <ele>528</ele>
        <time>2025-08-05T15:05:24.000Z</time>
      </trkpt>
      <trkpt lat="42.92539" lon="2.05059">
        <ele>528</ele>
        <time>2025-08-05T15:05:25.000Z</time>
      </trkpt>
      <trkpt lat="42.92533" lon="2.05062">
        <ele>527.59997558594</ele>
        <time>2025-08-05T15:05:26.000Z</time>
      </trkpt>
      <trkpt lat="42.92527" lon="2.05066">
        <ele>527.59997558594</ele>
        <time>2025-08-05T15:05:27.000Z</time>
      </trkpt>
      <trkpt lat="42.92514" lon="2.05076">
        <ele>526.79998779297</ele>
        <time>2025-08-05T15:05:29.000Z</time>
      </trkpt>
      <trkpt lat="42.925" lon="2.05087">
        <ele>526.40002441406</ele>
        <time>2025-08-05T15:05:31.000Z</time>
      </trkpt>
      <trkpt lat="42.92479" lon="2.05105">
        <ele>525</ele>
        <time>2025-08-05T15:05:34.000Z</time>
      </trkpt>
      <trkpt lat="42.92472" lon="2.05113">
        <ele>524.79998779297</ele>
        <time>2025-08-05T15:05:35.000Z</time>
      </trkpt>
      <trkpt lat="42.92454" lon="2.05135">
        <ele>523.79998779297</ele>
        <time>2025-08-05T15:05:38.000Z</time>
      </trkpt>
      <trkpt lat="42.92449" lon="2.05142">
        <ele>523.40002441406</ele>
        <time>2025-08-05T15:05:39.000Z</time>
      </trkpt>
      <trkpt lat="42.9244" lon="2.05156">
        <ele>522.40002441406</ele>
        <time>2025-08-05T15:05:41.000Z</time>
      </trkpt>
      <trkpt lat="42.92434" lon="2.05162">
        <ele>522.20001220703</ele>
        <time>2025-08-05T15:05:42.000Z</time>
      </trkpt>
      <trkpt lat="42.92429" lon="2.05167">
        <ele>521.79998779297</ele>
        <time>2025-08-05T15:05:43.000Z</time>
      </trkpt>
      <trkpt lat="42.92422" lon="2.05168">
        <ele>521.59997558594</ele>
        <time>2025-08-05T15:05:44.000Z</time>
      </trkpt>
      <trkpt lat="42.92417" lon="2.05166">
        <ele>521</ele>
        <time>2025-08-05T15:05:45.000Z</time>
      </trkpt>
      <trkpt lat="42.92411" lon="2.05162">
        <ele>520.79998779297</ele>
        <time>2025-08-05T15:05:46.000Z</time>
      </trkpt>
      <trkpt lat="42.92406" lon="2.05147">
        <ele>519.59997558594</ele>
        <time>2025-08-05T15:05:48.000Z</time>
      </trkpt>
      <trkpt lat="42.92406" lon="2.05128">
        <ele>518.59997558594</ele>
        <time>2025-08-05T15:05:50.000Z</time>
      </trkpt>
      <trkpt lat="42.92406" lon="2.05108">
        <ele>517.79998779297</ele>
        <time>2025-08-05T15:05:52.000Z</time>
      </trkpt>
      <trkpt lat="42.92406" lon="2.05098">
        <ele>517.59997558594</ele>
        <time>2025-08-05T15:05:53.000Z</time>
      </trkpt>
      <trkpt lat="42.92405" lon="2.05057">
        <ele>516.40002441406</ele>
        <time>2025-08-05T15:05:57.000Z</time>
      </trkpt>
      <trkpt lat="42.92405" lon="2.05048">
        <ele>516.20001220703</ele>
        <time>2025-08-05T15:05:58.000Z</time>
      </trkpt>
      <trkpt lat="42.92406" lon="2.05019">
        <ele>515</ele>
        <time>2025-08-05T15:06:01.000Z</time>
      </trkpt>
      <trkpt lat="42.92409" lon="2.05009">
        <ele>514.40002441406</ele>
        <time>2025-08-05T15:06:02.000Z</time>
      </trkpt>
      <trkpt lat="42.92412" lon="2.04999">
        <ele>514.20001220703</ele>
        <time>2025-08-05T15:06:03.000Z</time>
      </trkpt>
      <trkpt lat="42.92416" lon="2.0499">
        <ele>513.79998779297</ele>
        <time>2025-08-05T15:06:04.000Z</time>
      </trkpt>
      <trkpt lat="42.92423" lon="2.04973">
        <ele>513.20001220703</ele>
        <time>2025-08-05T15:06:06.000Z</time>
      </trkpt>
      <trkpt lat="42.92424" lon="2.04957">
        <ele>512.79998779297</ele>
        <time>2025-08-05T15:06:08.000Z</time>
      </trkpt>
      <trkpt lat="42.92422" lon="2.04949">
        <ele>512.40002441406</ele>
        <time>2025-08-05T15:06:09.000Z</time>
      </trkpt>
      <trkpt lat="42.92418" lon="2.04943">
        <ele>512.20001220703</ele>
        <time>2025-08-05T15:06:10.000Z</time>
      </trkpt>
      <trkpt lat="42.92406" lon="2.04936">
        <ele>511.39999389648</ele>
        <time>2025-08-05T15:06:12.000Z</time>
      </trkpt>
      <trkpt lat="42.92391" lon="2.04939">
        <ele>510.60000610352</ele>
        <time>2025-08-05T15:06:14.000Z</time>
      </trkpt>
      <trkpt lat="42.92384" lon="2.04942">
        <ele>510.39999389648</ele>
        <time>2025-08-05T15:06:15.000Z</time>
      </trkpt>
      <trkpt lat="42.92377" lon="2.04945">
        <ele>509.79998779297</ele>
        <time>2025-08-05T15:06:16.000Z</time>
      </trkpt>
      <trkpt lat="42.92362" lon="2.04943">
        <ele>508.79998779297</ele>
        <time>2025-08-05T15:06:18.000Z</time>
      </trkpt>
      <trkpt lat="42.92355" lon="2.0494">
        <ele>508.60000610352</ele>
        <time>2025-08-05T15:06:19.000Z</time>
      </trkpt>
      <trkpt lat="42.9234" lon="2.04934">
        <ele>507.20001220703</ele>
        <time>2025-08-05T15:06:21.000Z</time>
      </trkpt>
      <trkpt lat="42.92327" lon="2.0493">
        <ele>506.39999389648</ele>
        <time>2025-08-05T15:06:23.000Z</time>
      </trkpt>
      <trkpt lat="42.9232" lon="2.0493">
        <ele>506.20001220703</ele>
        <time>2025-08-05T15:06:24.000Z</time>
      </trkpt>
      <trkpt lat="42.92315" lon="2.04931">
        <ele>505.79998779297</ele>
        <time>2025-08-05T15:06:25.000Z</time>
      </trkpt>
      <trkpt lat="42.92304" lon="2.04939">
        <ele>505</ele>
        <time>2025-08-05T15:06:27.000Z</time>
      </trkpt>
      <trkpt lat="42.92289" lon="2.04955">
        <ele>503.79998779297</ele>
        <time>2025-08-05T15:06:30.000Z</time>
      </trkpt>
      <trkpt lat="42.92278" lon="2.04959">
        <ele>503</ele>
        <time>2025-08-05T15:06:32.000Z</time>
      </trkpt>
      <trkpt lat="42.92267" lon="2.04956">
        <ele>502.60000610352</ele>
        <time>2025-08-05T15:06:34.000Z</time>
      </trkpt>
      <trkpt lat="42.92257" lon="2.04949">
        <ele>502</ele>
        <time>2025-08-05T15:06:36.000Z</time>
      </trkpt>
      <trkpt lat="42.92253" lon="2.04944">
        <ele>501.39999389648</ele>
        <time>2025-08-05T15:06:37.000Z</time>
      </trkpt>
      <trkpt lat="42.92243" lon="2.04932">
        <ele>500.39999389648</ele>
        <time>2025-08-05T15:06:39.000Z</time>
      </trkpt>
      <trkpt lat="42.92238" lon="2.04927">
        <ele>499.79998779297</ele>
        <time>2025-08-05T15:06:40.000Z</time>
      </trkpt>
      <trkpt lat="42.92232" lon="2.04922">
        <ele>499.60000610352</ele>
        <time>2025-08-05T15:06:41.000Z</time>
      </trkpt>
      <trkpt lat="42.92226" lon="2.04918">
        <ele>499.20001220703</ele>
        <time>2025-08-05T15:06:42.000Z</time>
      </trkpt>
      <trkpt lat="42.92209" lon="2.04906">
        <ele>498.39999389648</ele>
        <time>2025-08-05T15:06:45.000Z</time>
      </trkpt>
      <trkpt lat="42.92205" lon="2.049">
        <ele>497.79998779297</ele>
        <time>2025-08-05T15:06:46.000Z</time>
      </trkpt>
      <trkpt lat="42.92202" lon="2.04895">
        <ele>497.39999389648</ele>
        <time>2025-08-05T15:06:47.000Z</time>
      </trkpt>
      <trkpt lat="42.92197" lon="2.04884">
        <ele>496.79998779297</ele>
        <time>2025-08-05T15:06:49.000Z</time>
      </trkpt>
      <trkpt lat="42.92196" lon="2.0488">
        <ele>496.60000610352</ele>
        <time>2025-08-05T15:06:50.000Z</time>
      </trkpt>
      <trkpt lat="42.92194" lon="2.04868">
        <ele>495.60000610352</ele>
        <time>2025-08-05T15:06:53.000Z</time>
      </trkpt>
      <trkpt lat="42.92193" lon="2.04861">
        <ele>495</ele>
        <time>2025-08-05T15:06:55.000Z</time>
      </trkpt>
      <trkpt lat="42.92191" lon="2.04852">
        <ele>494.60000610352</ele>
        <time>2025-08-05T15:06:57.000Z</time>
      </trkpt>
      <trkpt lat="42.92189" lon="2.04836">
        <ele>493.79998779297</ele>
        <time>2025-08-05T15:07:00.000Z</time>
      </trkpt>
      <trkpt lat="42.92185" lon="2.04824">
        <ele>493.39999389648</ele>
        <time>2025-08-05T15:07:02.000Z</time>
      </trkpt>
      <trkpt lat="42.92176" lon="2.0481">
        <ele>492.60000610352</ele>
        <time>2025-08-05T15:07:05.000Z</time>
      </trkpt>
      <trkpt lat="42.9217" lon="2.04802">
        <ele>492.39999389648</ele>
        <time>2025-08-05T15:07:07.000Z</time>
      </trkpt>
      <trkpt lat="42.92159" lon="2.0479">
        <ele>491.20001220703</ele>
        <time>2025-08-05T15:07:11.000Z</time>
      </trkpt>
      <trkpt lat="42.92156" lon="2.04788">
        <ele>490.60000610352</ele>
        <time>2025-08-05T15:07:12.000Z</time>
      </trkpt>
      <trkpt lat="42.92145" lon="2.04776">
        <ele>490</ele>
        <time>2025-08-05T15:07:16.000Z</time>
      </trkpt>
      <trkpt lat="42.92142" lon="2.04774">
        <ele>489.79998779297</ele>
        <time>2025-08-05T15:07:17.000Z</time>
      </trkpt>
      <trkpt lat="42.92128" lon="2.04762">
        <ele>489.60000610352</ele>
        <time>2025-08-05T15:07:21.000Z</time>
      </trkpt>
      <trkpt lat="42.92119" lon="2.04757">
        <ele>489.39999389648</ele>
        <time>2025-08-05T15:07:23.000Z</time>
      </trkpt>
      <trkpt lat="42.9211" lon="2.04756">
        <ele>489</ele>
        <time>2025-08-05T15:07:26.000Z</time>
      </trkpt>
      <trkpt lat="42.92106" lon="2.04757">
        <ele>488.39999389648</ele>
        <time>2025-08-05T15:07:28.000Z</time>
      </trkpt>
      <trkpt lat="42.92097" lon="2.04764">
        <ele>487.79998779297</ele>
        <time>2025-08-05T15:07:31.000Z</time>
      </trkpt>
      <trkpt lat="42.92089" lon="2.04771">
        <ele>487.39999389648</ele>
        <time>2025-08-05T15:07:34.000Z</time>
      </trkpt>
      <trkpt lat="42.92078" lon="2.04781">
        <ele>487</ele>
        <time>2025-08-05T15:07:38.000Z</time>
      </trkpt>
      <trkpt lat="42.92063" lon="2.04793">
        <ele>485.60000610352</ele>
        <time>2025-08-05T15:07:43.000Z</time>
      </trkpt>
      <trkpt lat="42.92055" lon="2.04799">
        <ele>484.39999389648</ele>
        <time>2025-08-05T15:07:47.000Z</time>
      </trkpt>
      <trkpt lat="42.92053" lon="2.04799">
        <ele>484</ele>
        <time>2025-08-05T15:07:48.000Z</time>
      </trkpt>
      <trkpt lat="42.92052" lon="2.04798">
        <ele>483.79998779297</ele>
        <time>2025-08-05T15:07:49.000Z</time>
      </trkpt>
      <trkpt lat="42.92052" lon="2.04797">
        <ele>483.39999389648</ele>
        <time>2025-08-05T15:07:51.000Z</time>
      </trkpt>
      <trkpt lat="42.92049" lon="2.04797">
        <ele>482.79998779297</ele>
        <time>2025-08-05T15:07:53.000Z</time>
      </trkpt>
      <trkpt lat="42.92047" lon="2.04793">
        <ele>482.39999389648</ele>
        <time>2025-08-05T15:07:55.000Z</time>
      </trkpt>
      <trkpt lat="42.92045" lon="2.04789">
        <ele>482</ele>
        <time>2025-08-05T15:07:59.000Z</time>
      </trkpt>
      <trkpt lat="42.92051" lon="2.04782">
        <ele>482.60000610352</ele>
        <time>2025-08-05T15:10:49.000Z</time>
      </trkpt>
      <trkpt lat="42.92053" lon="2.04776">
        <ele>482.60000610352</ele>
        <time>2025-08-05T15:10:51.000Z</time>
      </trkpt>
      <trkpt lat="42.92056" lon="2.04768">
        <ele>482.20001220703</ele>
        <time>2025-08-05T15:10:54.000Z</time>
      </trkpt>
      <trkpt lat="42.92057" lon="2.04761">
        <ele>482</ele>
        <time>2025-08-05T15:10:57.000Z</time>
      </trkpt>
      <trkpt lat="42.92061" lon="2.04744">
        <ele>481.60000610352</ele>
        <time>2025-08-05T15:11:05.000Z</time>
      </trkpt>
      <trkpt lat="42.92063" lon="2.04733">
        <ele>481.20001220703</ele>
        <time>2025-08-05T15:11:10.000Z</time>
      </trkpt>
      <trkpt lat="42.92061" lon="2.04731">
        <ele>481</ele>
        <time>2025-08-05T15:11:11.000Z</time>
      </trkpt>
      <trkpt lat="42.92051" lon="2.04718">
        <ele>480.39999389648</ele>
        <time>2025-08-05T15:11:17.000Z</time>
      </trkpt>
      <trkpt lat="42.92049" lon="2.04716">
        <ele>480.20001220703</ele>
        <time>2025-08-05T15:11:18.000Z</time>
      </trkpt>
      <trkpt lat="42.92038" lon="2.0471">
        <ele>479</ele>
        <time>2025-08-05T15:11:23.000Z</time>
      </trkpt>
      <trkpt lat="42.92037" lon="2.04709">
        <ele>478.60000610352</ele>
        <time>2025-08-05T15:11:24.000Z</time>
      </trkpt>
      <trkpt lat="42.92037" lon="2.04706">
        <ele>477.79998779297</ele>
        <time>2025-08-05T15:11:27.000Z</time>
      </trkpt>
      <trkpt lat="42.92037" lon="2.04706">
        <ele>477.79998779297</ele>
        <time>2025-08-05T15:11:28.000Z</time>
      </trkpt>
      <trkpt lat="42.92034" lon="2.04703">
        <ele>476.79998779297</ele>
        <time>2025-08-05T15:11:36.000Z</time>
      </trkpt>
      <trkpt lat="42.9203" lon="2.04699">
        <ele>476.79998779297</ele>
        <time>2025-08-05T15:11:38.000Z</time>
      </trkpt>
      <trkpt lat="42.92028" lon="2.04697">
        <ele>476.79998779297</ele>
        <time>2025-08-05T15:11:39.000Z</time>
      </trkpt>
      <trkpt lat="42.92027" lon="2.04695">
        <ele>476.79998779297</ele>
        <time>2025-08-05T15:11:40.000Z</time>
      </trkpt>
      <trkpt lat="42.92024" lon="2.04686">
        <ele>476.60000610352</ele>
        <time>2025-08-05T15:11:43.000Z</time>
      </trkpt>
      <trkpt lat="42.92019" lon="2.0468">
        <ele>476.39999389648</ele>
        <time>2025-08-05T15:11:46.000Z</time>
      </trkpt>
      <trkpt lat="42.92013" lon="2.04676">
        <ele>476.20001220703</ele>
        <time>2025-08-05T15:11:48.000Z</time>
      </trkpt>
      <trkpt lat="42.91999" lon="2.04663">
        <ele>476.60000610352</ele>
        <time>2025-08-05T15:11:56.000Z</time>
      </trkpt>
      <trkpt lat="42.91995" lon="2.0466">
        <ele>476.79998779297</ele>
        <time>2025-08-05T15:11:59.000Z</time>
      </trkpt>
      <trkpt lat="42.91993" lon="2.04662">
        <ele>476.79998779297</ele>
        <time>2025-08-05T15:12:01.000Z</time>
      </trkpt>
      <trkpt lat="42.91993" lon="2.04662">
        <ele>476.79998779297</ele>
        <time>2025-08-05T15:12:02.000Z</time>
      </trkpt>
      <trkpt lat="42.91993" lon="2.0466">
        <ele>476.79998779297</ele>
        <time>2025-08-05T15:12:04.000Z</time>
      </trkpt>
      <trkpt lat="42.91994" lon="2.0466">
        <ele>476.79998779297</ele>
        <time>2025-08-05T15:12:05.000Z</time>
      </trkpt>
      <trkpt lat="42.92" lon="2.04662">
        <ele>476.79998779297</ele>
        <time>2025-08-05T15:12:08.000Z</time>
      </trkpt>
      <trkpt lat="42.92004" lon="2.04668">
        <ele>476.79998779297</ele>
        <time>2025-08-05T15:12:13.000Z</time>
      </trkpt>
      <trkpt lat="42.92004" lon="2.04669">
        <ele>477</ele>
        <time>2025-08-05T15:12:16.000Z</time>
      </trkpt>
      <trkpt lat="42.91999" lon="2.04663">
        <ele>477.39999389648</ele>
        <time>2025-08-05T15:13:26.000Z</time>
      </trkpt>
      <trkpt lat="42.91996" lon="2.04659">
        <ele>477.20001220703</ele>
        <time>2025-08-05T15:13:28.000Z</time>
      </trkpt>
      <trkpt lat="42.91995" lon="2.04654">
        <ele>477</ele>
        <time>2025-08-05T15:13:30.000Z</time>
      </trkpt>
      <trkpt lat="42.9199" lon="2.04642">
        <ele>477</ele>
        <time>2025-08-05T15:13:35.000Z</time>
      </trkpt>
      <trkpt lat="42.91977" lon="2.04631">
        <ele>477.39999389648</ele>
        <time>2025-08-05T15:13:42.000Z</time>
      </trkpt>
      <trkpt lat="42.9197" lon="2.04629">
        <ele>477.39999389648</ele>
        <time>2025-08-05T15:13:46.000Z</time>
      </trkpt>
      <trkpt lat="42.91968" lon="2.04627">
        <ele>477.60000610352</ele>
        <time>2025-08-05T15:13:47.000Z</time>
      </trkpt>
      <trkpt lat="42.91953" lon="2.04612">
        <ele>477.39999389648</ele>
        <time>2025-08-05T15:13:52.000Z</time>
      </trkpt>
      <trkpt lat="42.91932" lon="2.04582">
        <ele>476</ele>
        <time>2025-08-05T15:13:59.000Z</time>
      </trkpt>
      <trkpt lat="42.9193" lon="2.04577">
        <ele>475.60000610352</ele>
        <time>2025-08-05T15:14:00.000Z</time>
      </trkpt>
      <trkpt lat="42.91923" lon="2.04556">
        <ele>474.39999389648</ele>
        <time>2025-08-05T15:14:04.000Z</time>
      </trkpt>
      <trkpt lat="42.91921" lon="2.04552">
        <ele>474.20001220703</ele>
        <time>2025-08-05T15:14:05.000Z</time>
      </trkpt>
      <trkpt lat="42.919" lon="2.04532">
        <ele>474</ele>
        <time>2025-08-05T15:14:11.000Z</time>
      </trkpt>
      <trkpt lat="42.91892" lon="2.04526">
        <ele>474.39999389648</ele>
        <time>2025-08-05T15:14:13.000Z</time>
      </trkpt>
      <trkpt lat="42.91883" lon="2.04522">
        <ele>474.39999389648</ele>
        <time>2025-08-05T15:14:15.000Z</time>
      </trkpt>
      <trkpt lat="42.91878" lon="2.04519">
        <ele>474.39999389648</ele>
        <time>2025-08-05T15:14:16.000Z</time>
      </trkpt>
      <trkpt lat="42.9186" lon="2.04511">
        <ele>474.39999389648</ele>
        <time>2025-08-05T15:14:20.000Z</time>
      </trkpt>
      <trkpt lat="42.91846" lon="2.04508">
        <ele>474.20001220703</ele>
        <time>2025-08-05T15:14:23.000Z</time>
      </trkpt>
      <trkpt lat="42.91814" lon="2.04504">
        <ele>473.39999389648</ele>
        <time>2025-08-05T15:14:30.000Z</time>
      </trkpt>
      <trkpt lat="42.91806" lon="2.04504">
        <ele>473.39999389648</ele>
        <time>2025-08-05T15:14:32.000Z</time>
      </trkpt>
      <trkpt lat="42.91802" lon="2.04504">
        <ele>473.39999389648</ele>
        <time>2025-08-05T15:14:33.000Z</time>
      </trkpt>
      <trkpt lat="42.9179" lon="2.04506">
        <ele>473.60000610352</ele>
        <time>2025-08-05T15:14:37.000Z</time>
      </trkpt>
      <trkpt lat="42.91779" lon="2.04508">
        <ele>474</ele>
        <time>2025-08-05T15:14:42.000Z</time>
      </trkpt>
      <trkpt lat="42.91776" lon="2.04508">
        <ele>474.39999389648</ele>
        <time>2025-08-05T15:14:44.000Z</time>
      </trkpt>
      <trkpt lat="42.9177" lon="2.04504">
        <ele>475.20001220703</ele>
        <time>2025-08-05T15:14:49.000Z</time>
      </trkpt>
      <trkpt lat="42.91764" lon="2.04493">
        <ele>475.39999389648</ele>
        <time>2025-08-05T15:14:53.000Z</time>
      </trkpt>
      <trkpt lat="42.91762" lon="2.04491">
        <ele>475.39999389648</ele>
        <time>2025-08-05T15:14:54.000Z</time>
      </trkpt>
      <trkpt lat="42.91756" lon="2.04489">
        <ele>475.39999389648</ele>
        <time>2025-08-05T15:14:56.000Z</time>
      </trkpt>
      <trkpt lat="42.91747" lon="2.04487">
        <ele>475.60000610352</ele>
        <time>2025-08-05T15:14:59.000Z</time>
      </trkpt>
      <trkpt lat="42.91716" lon="2.04474">
        <ele>476.20001220703</ele>
        <time>2025-08-05T15:15:09.000Z</time>
      </trkpt>
      <trkpt lat="42.91705" lon="2.04466">
        <ele>476.60000610352</ele>
        <time>2025-08-05T15:15:13.000Z</time>
      </trkpt>
      <trkpt lat="42.91696" lon="2.04458">
        <ele>477</ele>
        <time>2025-08-05T15:15:17.000Z</time>
      </trkpt>
      <trkpt lat="42.91677" lon="2.04435">
        <ele>477.79998779297</ele>
        <time>2025-08-05T15:15:26.000Z</time>
      </trkpt>
      <trkpt lat="42.91666" lon="2.04418">
        <ele>478</ele>
        <time>2025-08-05T15:15:33.000Z</time>
      </trkpt>
      <trkpt lat="42.91652" lon="2.04412">
        <ele>478</ele>
        <time>2025-08-05T15:15:39.000Z</time>
      </trkpt>
      <trkpt lat="42.91637" lon="2.04411">
        <ele>477.79998779297</ele>
        <time>2025-08-05T15:15:45.000Z</time>
      </trkpt>
      <trkpt lat="42.91629" lon="2.0441">
        <ele>477.60000610352</ele>
        <time>2025-08-05T15:15:48.000Z</time>
      </trkpt>
      <trkpt lat="42.91609" lon="2.04412">
        <ele>477.39999389648</ele>
        <time>2025-08-05T15:15:55.000Z</time>
      </trkpt>
      <trkpt lat="42.91592" lon="2.04413">
        <ele>477</ele>
        <time>2025-08-05T15:16:01.000Z</time>
      </trkpt>
      <trkpt lat="42.91576" lon="2.04417">
        <ele>476.60000610352</ele>
        <time>2025-08-05T15:16:08.000Z</time>
      </trkpt>
      <trkpt lat="42.91572" lon="2.04421">
        <ele>476.60000610352</ele>
        <time>2025-08-05T15:16:11.000Z</time>
      </trkpt>
      <trkpt lat="42.91572" lon="2.04423">
        <ele>476.60000610352</ele>
        <time>2025-08-05T15:16:13.000Z</time>
      </trkpt>
      <trkpt lat="42.91572" lon="2.04425">
        <ele>476.39999389648</ele>
        <time>2025-08-05T15:16:17.000Z</time>
      </trkpt>
      <trkpt lat="42.91954" lon="2.04609">
        <ele>476.60000610352</ele>
        <time>2025-08-06T07:06:06.000Z</time>
      </trkpt>
      <trkpt lat="42.91956" lon="2.04611">
        <ele>481</ele>
        <time>2025-08-06T07:06:07.000Z</time>
      </trkpt>
      <trkpt lat="42.91959" lon="2.04615">
        <ele>482.20001220703</ele>
        <time>2025-08-06T07:06:09.000Z</time>
      </trkpt>
      <trkpt lat="42.91966" lon="2.04623">
        <ele>482.60000610352</ele>
        <time>2025-08-06T07:06:13.000Z</time>
      </trkpt>
      <trkpt lat="42.91978" lon="2.04632">
        <ele>483</ele>
        <time>2025-08-06T07:06:18.000Z</time>
      </trkpt>
      <trkpt lat="42.91991" lon="2.04641">
        <ele>483.20001220703</ele>
        <time>2025-08-06T07:06:24.000Z</time>
      </trkpt>
      <trkpt lat="42.91993" lon="2.04643">
        <ele>483.20001220703</ele>
        <time>2025-08-06T07:06:25.000Z</time>
      </trkpt>
      <trkpt lat="42.91995" lon="2.04651">
        <ele>483.20001220703</ele>
        <time>2025-08-06T07:06:28.000Z</time>
      </trkpt>
      <trkpt lat="42.91995" lon="2.04656">
        <ele>483.20001220703</ele>
        <time>2025-08-06T07:06:30.000Z</time>
      </trkpt>
      <trkpt lat="42.91998" lon="2.0466">
        <ele>483.20001220703</ele>
        <time>2025-08-06T07:06:32.000Z</time>
      </trkpt>
      <trkpt lat="42.92011" lon="2.04671">
        <ele>483</ele>
        <time>2025-08-06T07:06:39.000Z</time>
      </trkpt>
      <trkpt lat="42.92014" lon="2.04673">
        <ele>483</ele>
        <time>2025-08-06T07:06:40.000Z</time>
      </trkpt>
      <trkpt lat="42.92025" lon="2.0469">
        <ele>483</ele>
        <time>2025-08-06T07:06:44.000Z</time>
      </trkpt>
      <trkpt lat="42.92037" lon="2.04706">
        <ele>482.79998779297</ele>
        <time>2025-08-06T07:06:50.000Z</time>
      </trkpt>
      <trkpt lat="42.92046" lon="2.04714">
        <ele>482.79998779297</ele>
        <time>2025-08-06T07:06:55.000Z</time>
      </trkpt>
      <trkpt lat="42.92054" lon="2.04722">
        <ele>483.20001220703</ele>
        <time>2025-08-06T07:07:00.000Z</time>
      </trkpt>
      <trkpt lat="42.92058" lon="2.04729">
        <ele>483.79998779297</ele>
        <time>2025-08-06T07:07:04.000Z</time>
      </trkpt>
      <trkpt lat="42.92058" lon="2.04734">
        <ele>484.20001220703</ele>
        <time>2025-08-06T07:07:06.000Z</time>
      </trkpt>
      <trkpt lat="42.92058" lon="2.04737">
        <ele>484.20001220703</ele>
        <time>2025-08-06T07:07:07.000Z</time>
      </trkpt>
      <trkpt lat="42.92055" lon="2.04746">
        <ele>485</ele>
        <time>2025-08-06T07:07:11.000Z</time>
      </trkpt>
      <trkpt lat="42.92056" lon="2.04747">
        <ele>485.39999389648</ele>
        <time>2025-08-06T07:07:12.000Z</time>
      </trkpt>
      <trkpt lat="42.92057" lon="2.04749">
        <ele>485.79998779297</ele>
        <time>2025-08-06T07:07:14.000Z</time>
      </trkpt>
      <trkpt lat="42.92057" lon="2.0475">
        <ele>486.20001220703</ele>
        <time>2025-08-06T07:07:16.000Z</time>
      </trkpt>
      <trkpt lat="42.92059" lon="2.04749">
        <ele>486.39999389648</ele>
        <time>2025-08-06T07:07:18.000Z</time>
      </trkpt>
      <trkpt lat="42.9206" lon="2.04748">
        <ele>486.39999389648</ele>
        <time>2025-08-06T07:07:19.000Z</time>
      </trkpt>
      <trkpt lat="42.92061" lon="2.04746">
        <ele>486.39999389648</ele>
        <time>2025-08-06T07:07:20.000Z</time>
      </trkpt>
      <trkpt lat="42.92068" lon="2.04725">
        <ele>486.79998779297</ele>
        <time>2025-08-06T07:07:27.000Z</time>
      </trkpt>
      <trkpt lat="42.92073" lon="2.0471">
        <ele>487</ele>
        <time>2025-08-06T07:07:33.000Z</time>
      </trkpt>
      <trkpt lat="42.92073" lon="2.04706">
        <ele>487</ele>
        <time>2025-08-06T07:07:39.000Z</time>
      </trkpt>
      <trkpt lat="42.92075" lon="2.04694">
        <ele>487.39999389648</ele>
        <time>2025-08-06T07:10:02.000Z</time>
      </trkpt>
      <trkpt lat="42.92074" lon="2.04701">
        <ele>487.39999389648</ele>
        <time>2025-08-06T07:10:05.000Z</time>
      </trkpt>
      <trkpt lat="42.92073" lon="2.04708">
        <ele>487.39999389648</ele>
        <time>2025-08-06T07:10:07.000Z</time>
      </trkpt>
      <trkpt lat="42.92077" lon="2.04714">
        <ele>487.39999389648</ele>
        <time>2025-08-06T07:10:09.000Z</time>
      </trkpt>
      <trkpt lat="42.92095" lon="2.04718">
        <ele>487</ele>
        <time>2025-08-06T07:10:14.000Z</time>
      </trkpt>
      <trkpt lat="42.92123" lon="2.04726">
        <ele>486.39999389648</ele>
        <time>2025-08-06T07:10:21.000Z</time>
      </trkpt>
      <trkpt lat="42.92128" lon="2.04726">
        <ele>486.39999389648</ele>
        <time>2025-08-06T07:10:22.000Z</time>
      </trkpt>
      <trkpt lat="42.92139" lon="2.04725">
        <ele>486</ele>
        <time>2025-08-06T07:10:24.000Z</time>
      </trkpt>
      <trkpt lat="42.92144" lon="2.04727">
        <ele>485.79998779297</ele>
        <time>2025-08-06T07:10:25.000Z</time>
      </trkpt>
      <trkpt lat="42.92163" lon="2.04735">
        <ele>485.20001220703</ele>
        <time>2025-08-06T07:10:28.000Z</time>
      </trkpt>
      <trkpt lat="42.92176" lon="2.04743">
        <ele>484.60000610352</ele>
        <time>2025-08-06T07:10:30.000Z</time>
      </trkpt>
      <trkpt lat="42.92189" lon="2.0475">
        <ele>484.20001220703</ele>
        <time>2025-08-06T07:10:32.000Z</time>
      </trkpt>
      <trkpt lat="42.92204" lon="2.04754">
        <ele>483.79998779297</ele>
        <time>2025-08-06T07:10:34.000Z</time>
      </trkpt>
      <trkpt lat="42.92212" lon="2.04753">
        <ele>483.39999389648</ele>
        <time>2025-08-06T07:10:35.000Z</time>
      </trkpt>
      <trkpt lat="42.92219" lon="2.04751">
        <ele>483.20001220703</ele>
        <time>2025-08-06T07:10:36.000Z</time>
      </trkpt>
      <trkpt lat="42.92226" lon="2.04747">
        <ele>482.79998779297</ele>
        <time>2025-08-06T07:10:37.000Z</time>
      </trkpt>
      <trkpt lat="42.92233" lon="2.04743">
        <ele>482.60000610352</ele>
        <time>2025-08-06T07:10:38.000Z</time>
      </trkpt>
      <trkpt lat="42.92239" lon="2.04737">
        <ele>482.39999389648</ele>
        <time>2025-08-06T07:10:39.000Z</time>
      </trkpt>
      <trkpt lat="42.92252" lon="2.04724">
        <ele>482</ele>
        <time>2025-08-06T07:10:41.000Z</time>
      </trkpt>
      <trkpt lat="42.92271" lon="2.04704">
        <ele>481.20001220703</ele>
        <time>2025-08-06T07:10:44.000Z</time>
      </trkpt>
      <trkpt lat="42.92285" lon="2.04697">
        <ele>480.79998779297</ele>
        <time>2025-08-06T07:10:46.000Z</time>
      </trkpt>
      <trkpt lat="42.92301" lon="2.04695">
        <ele>480</ele>
        <time>2025-08-06T07:10:48.000Z</time>
      </trkpt>
      <trkpt lat="42.92309" lon="2.04696">
        <ele>479.39999389648</ele>
        <time>2025-08-06T07:10:49.000Z</time>
      </trkpt>
      <trkpt lat="42.92323" lon="2.04703">
        <ele>479</ele>
        <time>2025-08-06T07:10:51.000Z</time>
      </trkpt>
      <trkpt lat="42.92329" lon="2.04707">
        <ele>478.79998779297</ele>
        <time>2025-08-06T07:10:52.000Z</time>
      </trkpt>
      <trkpt lat="42.92336" lon="2.04711">
        <ele>478.20001220703</ele>
        <time>2025-08-06T07:10:53.000Z</time>
      </trkpt>
      <trkpt lat="42.92347" lon="2.0472">
        <ele>477.39999389648</ele>
        <time>2025-08-06T07:10:55.000Z</time>
      </trkpt>
      <trkpt lat="42.92361" lon="2.04729">
        <ele>476</ele>
        <time>2025-08-06T07:10:58.000Z</time>
      </trkpt>
      <trkpt lat="42.92368" lon="2.04734">
        <ele>474.79998779297</ele>
        <time>2025-08-06T07:11:00.000Z</time>
      </trkpt>
      <trkpt lat="42.9237" lon="2.04735">
        <ele>474.20001220703</ele>
        <time>2025-08-06T07:11:02.000Z</time>
      </trkpt>
      <trkpt lat="42.9237" lon="2.04735">
        <ele>473.60000610352</ele>
        <time>2025-08-06T07:11:04.000Z</time>
      </trkpt>
      <trkpt lat="42.92381" lon="2.04734">
        <ele>471.79998779297</ele>
        <time>2025-08-06T07:14:08.000Z</time>
      </trkpt>
      <trkpt lat="42.92384" lon="2.04734">
        <ele>471.79998779297</ele>
        <time>2025-08-06T07:14:09.000Z</time>
      </trkpt>
      <trkpt lat="42.92391" lon="2.04734">
        <ele>471.79998779297</ele>
        <time>2025-08-06T07:14:11.000Z</time>
      </trkpt>
      <trkpt lat="42.92407" lon="2.04729">
        <ele>471.39999389648</ele>
        <time>2025-08-06T07:14:15.000Z</time>
      </trkpt>
      <trkpt lat="42.92421" lon="2.04725">
        <ele>471</ele>
        <time>2025-08-06T07:14:18.000Z</time>
      </trkpt>
      <trkpt lat="42.9243" lon="2.04719">
        <ele>470.79998779297</ele>
        <time>2025-08-06T07:14:20.000Z</time>
      </trkpt>
      <trkpt lat="42.92441" lon="2.04711">
        <ele>470.39999389648</ele>
        <time>2025-08-06T07:14:22.000Z</time>
      </trkpt>
      <trkpt lat="42.92462" lon="2.04696">
        <ele>469.60000610352</ele>
        <time>2025-08-06T07:14:26.000Z</time>
      </trkpt>
      <trkpt lat="42.92473" lon="2.04692">
        <ele>469.39999389648</ele>
        <time>2025-08-06T07:14:28.000Z</time>
      </trkpt>
      <trkpt lat="42.92484" lon="2.04688">
        <ele>469</ele>
        <time>2025-08-06T07:14:30.000Z</time>
      </trkpt>
      <trkpt lat="42.92498" lon="2.04686">
        <ele>468.39999389648</ele>
        <time>2025-08-06T07:14:32.000Z</time>
      </trkpt>
      <trkpt lat="42.92505" lon="2.04687">
        <ele>468.20001220703</ele>
        <time>2025-08-06T07:14:33.000Z</time>
      </trkpt>
      <trkpt lat="42.92511" lon="2.04687">
        <ele>467.60000610352</ele>
        <time>2025-08-06T07:14:34.000Z</time>
      </trkpt>
      <trkpt lat="42.92524" lon="2.04688">
        <ele>467</ele>
        <time>2025-08-06T07:14:36.000Z</time>
      </trkpt>
      <trkpt lat="42.9253" lon="2.0469">
        <ele>466.79998779297</ele>
        <time>2025-08-06T07:14:37.000Z</time>
      </trkpt>
      <trkpt lat="42.92556" lon="2.04702">
        <ele>465.79998779297</ele>
        <time>2025-08-06T07:14:41.000Z</time>
      </trkpt>
      <trkpt lat="42.92569" lon="2.04707">
        <ele>465.39999389648</ele>
        <time>2025-08-06T07:14:43.000Z</time>
      </trkpt>
      <trkpt lat="42.92588" lon="2.04711">
        <ele>464.60000610352</ele>
        <time>2025-08-06T07:14:46.000Z</time>
      </trkpt>
      <trkpt lat="42.92607" lon="2.04714">
        <ele>463.39999389648</ele>
        <time>2025-08-06T07:14:49.000Z</time>
      </trkpt>
      <trkpt lat="42.92621" lon="2.04715">
        <ele>463</ele>
        <time>2025-08-06T07:14:51.000Z</time>
      </trkpt>
      <trkpt lat="42.92629" lon="2.04715">
        <ele>462.20001220703</ele>
        <time>2025-08-06T07:14:52.000Z</time>
      </trkpt>
      <trkpt lat="42.9266" lon="2.04713">
        <ele>461.39999389648</ele>
        <time>2025-08-06T07:14:56.000Z</time>
      </trkpt>
      <trkpt lat="42.92668" lon="2.0471">
        <ele>460.79998779297</ele>
        <time>2025-08-06T07:14:57.000Z</time>
      </trkpt>
      <trkpt lat="42.92684" lon="2.04704">
        <ele>459.79998779297</ele>
        <time>2025-08-06T07:14:59.000Z</time>
      </trkpt>
      <trkpt lat="42.92709" lon="2.04695">
        <ele>458.39999389648</ele>
        <time>2025-08-06T07:15:02.000Z</time>
      </trkpt>
      <trkpt lat="42.92734" lon="2.04687">
        <ele>457.39999389648</ele>
        <time>2025-08-06T07:15:05.000Z</time>
      </trkpt>
      <trkpt lat="42.92758" lon="2.04679">
        <ele>456</ele>
        <time>2025-08-06T07:15:08.000Z</time>
      </trkpt>
      <trkpt lat="42.92783" lon="2.04672">
        <ele>455</ele>
        <time>2025-08-06T07:15:11.000Z</time>
      </trkpt>
      <trkpt lat="42.92791" lon="2.04669">
        <ele>454.79998779297</ele>
        <time>2025-08-06T07:15:12.000Z</time>
      </trkpt>
      <trkpt lat="42.92799" lon="2.04667">
        <ele>454.39999389648</ele>
        <time>2025-08-06T07:15:13.000Z</time>
      </trkpt>
      <trkpt lat="42.92815" lon="2.04662">
        <ele>453.39999389648</ele>
        <time>2025-08-06T07:15:15.000Z</time>
      </trkpt>
      <trkpt lat="42.92829" lon="2.04656">
        <ele>452.39999389648</ele>
        <time>2025-08-06T07:15:17.000Z</time>
      </trkpt>
      <trkpt lat="42.92846" lon="2.04648">
        <ele>451.39999389648</ele>
        <time>2025-08-06T07:15:19.000Z</time>
      </trkpt>
      <trkpt lat="42.92854" lon="2.04643">
        <ele>451</ele>
        <time>2025-08-06T07:15:20.000Z</time>
      </trkpt>
      <trkpt lat="42.92862" lon="2.0464">
        <ele>450.79998779297</ele>
        <time>2025-08-06T07:15:21.000Z</time>
      </trkpt>
      <trkpt lat="42.92876" lon="2.04637">
        <ele>449.60000610352</ele>
        <time>2025-08-06T07:15:23.000Z</time>
      </trkpt>
      <trkpt lat="42.92902" lon="2.0464">
        <ele>448.60000610352</ele>
        <time>2025-08-06T07:15:26.000Z</time>
      </trkpt>
      <trkpt lat="42.92911" lon="2.04641">
        <ele>447.79998779297</ele>
        <time>2025-08-06T07:15:27.000Z</time>
      </trkpt>
      <trkpt lat="42.9292" lon="2.04642">
        <ele>447.39999389648</ele>
        <time>2025-08-06T07:15:28.000Z</time>
      </trkpt>
      <trkpt lat="42.92937" lon="2.0464">
        <ele>446.39999389648</ele>
        <time>2025-08-06T07:15:30.000Z</time>
      </trkpt>
      <trkpt lat="42.92954" lon="2.04636">
        <ele>445.79998779297</ele>
        <time>2025-08-06T07:15:32.000Z</time>
      </trkpt>
      <trkpt lat="42.92973" lon="2.04629">
        <ele>445.20001220703</ele>
        <time>2025-08-06T07:15:34.000Z</time>
      </trkpt>
      <trkpt lat="42.92997" lon="2.0462">
        <ele>443.20001220703</ele>
        <time>2025-08-06T07:15:37.000Z</time>
      </trkpt>
      <trkpt lat="42.93014" lon="2.04614">
        <ele>442.39999389648</ele>
        <time>2025-08-06T07:15:39.000Z</time>
      </trkpt>
      <trkpt lat="42.93023" lon="2.04611">
        <ele>442</ele>
        <time>2025-08-06T07:15:40.000Z</time>
      </trkpt>
      <trkpt lat="42.93046" lon="2.04603">
        <ele>440.79998779297</ele>
        <time>2025-08-06T07:15:43.000Z</time>
      </trkpt>
      <trkpt lat="42.9306" lon="2.04597">
        <ele>440.20001220703</ele>
        <time>2025-08-06T07:15:45.000Z</time>
      </trkpt>
      <trkpt lat="42.93067" lon="2.04594">
        <ele>439.60000610352</ele>
        <time>2025-08-06T07:15:46.000Z</time>
      </trkpt>
      <trkpt lat="42.93086" lon="2.0459">
        <ele>438.39999389648</ele>
        <time>2025-08-06T07:15:49.000Z</time>
      </trkpt>
      <trkpt lat="42.93093" lon="2.0459">
        <ele>437.79998779297</ele>
        <time>2025-08-06T07:15:50.000Z</time>
      </trkpt>
      <trkpt lat="42.93098" lon="2.0459">
        <ele>437.20001220703</ele>
        <time>2025-08-06T07:15:51.000Z</time>
      </trkpt>
      <trkpt lat="42.93112" lon="2.04596">
        <ele>436.39999389648</ele>
        <time>2025-08-06T07:15:53.000Z</time>
      </trkpt>
      <trkpt lat="42.93117" lon="2.046">
        <ele>436</ele>
        <time>2025-08-06T07:15:54.000Z</time>
      </trkpt>
      <trkpt lat="42.93123" lon="2.04606">
        <ele>435.60000610352</ele>
        <time>2025-08-06T07:15:55.000Z</time>
      </trkpt>
      <trkpt lat="42.93138" lon="2.04625">
        <ele>434.79998779297</ele>
        <time>2025-08-06T07:15:58.000Z</time>
      </trkpt>
      <trkpt lat="42.93149" lon="2.04637">
        <ele>434.60000610352</ele>
        <time>2025-08-06T07:16:00.000Z</time>
      </trkpt>
      <trkpt lat="42.93163" lon="2.04645">
        <ele>434.20001220703</ele>
        <time>2025-08-06T07:16:02.000Z</time>
      </trkpt>
      <trkpt lat="42.93176" lon="2.04646">
        <ele>433.79998779297</ele>
        <time>2025-08-06T07:16:04.000Z</time>
      </trkpt>
      <trkpt lat="42.93182" lon="2.04645">
        <ele>433.39999389648</ele>
        <time>2025-08-06T07:16:05.000Z</time>
      </trkpt>
      <trkpt lat="42.93197" lon="2.04638">
        <ele>433.20001220703</ele>
        <time>2025-08-06T07:16:07.000Z</time>
      </trkpt>
      <trkpt lat="42.93221" lon="2.0462">
        <ele>432.79998779297</ele>
        <time>2025-08-06T07:16:11.000Z</time>
      </trkpt>
      <trkpt lat="42.93239" lon="2.04608">
        <ele>432.60000610352</ele>
        <time>2025-08-06T07:16:14.000Z</time>
      </trkpt>
      <trkpt lat="42.93256" lon="2.04595">
        <ele>432.39999389648</ele>
        <time>2025-08-06T07:16:17.000Z</time>
      </trkpt>
      <trkpt lat="42.93294" lon="2.04567">
        <ele>431.79998779297</ele>
        <time>2025-08-06T07:16:24.000Z</time>
      </trkpt>
      <trkpt lat="42.933" lon="2.04564">
        <ele>431.79998779297</ele>
        <time>2025-08-06T07:16:25.000Z</time>
      </trkpt>
      <trkpt lat="42.93311" lon="2.04558">
        <ele>431.60000610352</ele>
        <time>2025-08-06T07:16:27.000Z</time>
      </trkpt>
      <trkpt lat="42.93339" lon="2.04538">
        <ele>431.20001220703</ele>
        <time>2025-08-06T07:16:33.000Z</time>
      </trkpt>
      <trkpt lat="42.93367" lon="2.04516">
        <ele>431</ele>
        <time>2025-08-06T07:16:40.000Z</time>
      </trkpt>
      <trkpt lat="42.93404" lon="2.04489">
        <ele>430.79998779297</ele>
        <time>2025-08-06T07:16:48.000Z</time>
      </trkpt>
      <trkpt lat="42.93438" lon="2.04469">
        <ele>430.60000610352</ele>
        <time>2025-08-06T07:16:55.000Z</time>
      </trkpt>
      <trkpt lat="42.93452" lon="2.0446">
        <ele>430.60000610352</ele>
        <time>2025-08-06T07:16:58.000Z</time>
      </trkpt>
      <trkpt lat="42.93464" lon="2.04448">
        <ele>430.60000610352</ele>
        <time>2025-08-06T07:17:01.000Z</time>
      </trkpt>
      <trkpt lat="42.93467" lon="2.04443">
        <ele>430.60000610352</ele>
        <time>2025-08-06T07:17:02.000Z</time>
      </trkpt>
      <trkpt lat="42.93474" lon="2.04427">
        <ele>430.60000610352</ele>
        <time>2025-08-06T07:17:05.000Z</time>
      </trkpt>
      <trkpt lat="42.93481" lon="2.04402">
        <ele>430.20001220703</ele>
        <time>2025-08-06T07:17:09.000Z</time>
      </trkpt>
      <trkpt lat="42.93482" lon="2.04394">
        <ele>430.20001220703</ele>
        <time>2025-08-06T07:17:10.000Z</time>
      </trkpt>
      <trkpt lat="42.93483" lon="2.04387">
        <ele>430.20001220703</ele>
        <time>2025-08-06T07:17:11.000Z</time>
      </trkpt>
      <trkpt lat="42.93485" lon="2.04367">
        <ele>430</ele>
        <time>2025-08-06T07:17:14.000Z</time>
      </trkpt>
      <trkpt lat="42.93485" lon="2.04346">
        <ele>429.79998779297</ele>
        <time>2025-08-06T07:17:17.000Z</time>
      </trkpt>
      <trkpt lat="42.93483" lon="2.04304">
        <ele>429.39999389648</ele>
        <time>2025-08-06T07:17:23.000Z</time>
      </trkpt>
      <trkpt lat="42.93484" lon="2.04296">
        <ele>429.39999389648</ele>
        <time>2025-08-06T07:17:24.000Z</time>
      </trkpt>
      <trkpt lat="42.93485" lon="2.04283">
        <ele>429.20001220703</ele>
        <time>2025-08-06T07:17:26.000Z</time>
      </trkpt>
      <trkpt lat="42.93488" lon="2.04267">
        <ele>429.20001220703</ele>
        <time>2025-08-06T07:17:28.000Z</time>
      </trkpt>
      <trkpt lat="42.9349" lon="2.04255">
        <ele>429.20001220703</ele>
        <time>2025-08-06T07:17:30.000Z</time>
      </trkpt>
      <trkpt lat="42.93492" lon="2.04247">
        <ele>429.20001220703</ele>
        <time>2025-08-06T07:17:31.000Z</time>
      </trkpt>
      <trkpt lat="42.93497" lon="2.04234">
        <ele>429.20001220703</ele>
        <time>2025-08-06T07:17:33.000Z</time>
      </trkpt>
      <trkpt lat="42.93499" lon="2.04229">
        <ele>429.20001220703</ele>
        <time>2025-08-06T07:17:34.000Z</time>
      </trkpt>
      <trkpt lat="42.93501" lon="2.04223">
        <ele>429.20001220703</ele>
        <time>2025-08-06T07:17:35.000Z</time>
      </trkpt>
      <trkpt lat="42.93516" lon="2.0418">
        <ele>428.79998779297</ele>
        <time>2025-08-06T07:17:42.000Z</time>
      </trkpt>
      <trkpt lat="42.93528" lon="2.04141">
        <ele>428.79998779297</ele>
        <time>2025-08-06T07:17:48.000Z</time>
      </trkpt>
      <trkpt lat="42.93532" lon="2.04129">
        <ele>428.79998779297</ele>
        <time>2025-08-06T07:17:50.000Z</time>
      </trkpt>
      <trkpt lat="42.93536" lon="2.04116">
        <ele>428.79998779297</ele>
        <time>2025-08-06T07:17:52.000Z</time>
      </trkpt>
      <trkpt lat="42.93538" lon="2.04109">
        <ele>428.79998779297</ele>
        <time>2025-08-06T07:17:53.000Z</time>
      </trkpt>
      <trkpt lat="42.93546" lon="2.04083">
        <ele>428.79998779297</ele>
        <time>2025-08-06T07:17:57.000Z</time>
      </trkpt>
      <trkpt lat="42.93552" lon="2.04071">
        <ele>428.79998779297</ele>
        <time>2025-08-06T07:17:59.000Z</time>
      </trkpt>
      <trkpt lat="42.93566" lon="2.04043">
        <ele>428.79998779297</ele>
        <time>2025-08-06T07:18:04.000Z</time>
      </trkpt>
      <trkpt lat="42.93574" lon="2.04033">
        <ele>428.79998779297</ele>
        <time>2025-08-06T07:18:06.000Z</time>
      </trkpt>
      <trkpt lat="42.93603" lon="2.04013">
        <ele>429</ele>
        <time>2025-08-06T07:18:13.000Z</time>
      </trkpt>
      <trkpt lat="42.93638" lon="2.03991">
        <ele>429.20001220703</ele>
        <time>2025-08-06T07:18:21.000Z</time>
      </trkpt>
      <trkpt lat="42.93672" lon="2.03972">
        <ele>429.20001220703</ele>
        <time>2025-08-06T07:18:29.000Z</time>
      </trkpt>
      <trkpt lat="42.93695" lon="2.03964">
        <ele>429.20001220703</ele>
        <time>2025-08-06T07:18:34.000Z</time>
      </trkpt>
      <trkpt lat="42.9371" lon="2.03961">
        <ele>429.20001220703</ele>
        <time>2025-08-06T07:18:37.000Z</time>
      </trkpt>
      <trkpt lat="42.93753" lon="2.03949">
        <ele>429.20001220703</ele>
        <time>2025-08-06T07:18:46.000Z</time>
      </trkpt>
      <trkpt lat="42.93778" lon="2.03938">
        <ele>429</ele>
        <time>2025-08-06T07:18:52.000Z</time>
      </trkpt>
      <trkpt lat="42.93782" lon="2.03936">
        <ele>429</ele>
        <time>2025-08-06T07:18:53.000Z</time>
      </trkpt>
      <trkpt lat="42.93812" lon="2.03923">
        <ele>428.39999389648</ele>
        <time>2025-08-06T07:19:00.000Z</time>
      </trkpt>
      <trkpt lat="42.93837" lon="2.03913">
        <ele>428</ele>
        <time>2025-08-06T07:19:06.000Z</time>
      </trkpt>
      <trkpt lat="42.93849" lon="2.03908">
        <ele>427.79998779297</ele>
        <time>2025-08-06T07:19:09.000Z</time>
      </trkpt>
      <trkpt lat="42.93887" lon="2.0389">
        <ele>427.39999389648</ele>
        <time>2025-08-06T07:19:18.000Z</time>
      </trkpt>
      <trkpt lat="42.93895" lon="2.03885">
        <ele>427.20001220703</ele>
        <time>2025-08-06T07:19:20.000Z</time>
      </trkpt>
      <trkpt lat="42.93911" lon="2.03873">
        <ele>427</ele>
        <time>2025-08-06T07:19:24.000Z</time>
      </trkpt>
      <trkpt lat="42.93915" lon="2.0387">
        <ele>427</ele>
        <time>2025-08-06T07:19:25.000Z</time>
      </trkpt>
      <trkpt lat="42.93919" lon="2.03867">
        <ele>427</ele>
        <time>2025-08-06T07:19:26.000Z</time>
      </trkpt>
      <trkpt lat="42.93926" lon="2.03859">
        <ele>427</ele>
        <time>2025-08-06T07:19:28.000Z</time>
      </trkpt>
      <trkpt lat="42.93942" lon="2.03844">
        <ele>427</ele>
        <time>2025-08-06T07:19:32.000Z</time>
      </trkpt>
      <trkpt lat="42.93978" lon="2.03809">
        <ele>426.60000610352</ele>
        <time>2025-08-06T07:19:41.000Z</time>
      </trkpt>
      <trkpt lat="42.94008" lon="2.03791">
        <ele>426.20001220703</ele>
        <time>2025-08-06T07:19:48.000Z</time>
      </trkpt>
      <trkpt lat="42.94041" lon="2.03789">
        <ele>425.60000610352</ele>
        <time>2025-08-06T07:19:55.000Z</time>
      </trkpt>
      <trkpt lat="42.94069" lon="2.03797">
        <ele>425.39999389648</ele>
        <time>2025-08-06T07:20:02.000Z</time>
      </trkpt>
      <trkpt lat="42.94078" lon="2.03799">
        <ele>425.39999389648</ele>
        <time>2025-08-06T07:20:04.000Z</time>
      </trkpt>
      <trkpt lat="42.94104" lon="2.03802">
        <ele>425.60000610352</ele>
        <time>2025-08-06T07:20:10.000Z</time>
      </trkpt>
      <trkpt lat="42.94116" lon="2.038">
        <ele>425.60000610352</ele>
        <time>2025-08-06T07:20:13.000Z</time>
      </trkpt>
      <trkpt lat="42.94124" lon="2.03798">
        <ele>425.60000610352</ele>
        <time>2025-08-06T07:20:15.000Z</time>
      </trkpt>
      <trkpt lat="42.94133" lon="2.03796">
        <ele>425.60000610352</ele>
        <time>2025-08-06T07:20:17.000Z</time>
      </trkpt>
      <trkpt lat="42.94142" lon="2.03794">
        <ele>425.39999389648</ele>
        <time>2025-08-06T07:20:19.000Z</time>
      </trkpt>
      <trkpt lat="42.94146" lon="2.03791">
        <ele>425.39999389648</ele>
        <time>2025-08-06T07:20:20.000Z</time>
      </trkpt>
      <trkpt lat="42.94155" lon="2.03787">
        <ele>425.39999389648</ele>
        <time>2025-08-06T07:20:22.000Z</time>
      </trkpt>
      <trkpt lat="42.94167" lon="2.0378">
        <ele>425.20001220703</ele>
        <time>2025-08-06T07:20:25.000Z</time>
      </trkpt>
      <trkpt lat="42.94171" lon="2.03778">
        <ele>425</ele>
        <time>2025-08-06T07:20:26.000Z</time>
      </trkpt>
      <trkpt lat="42.94189" lon="2.03769">
        <ele>425</ele>
        <time>2025-08-06T07:20:30.000Z</time>
      </trkpt>
      <trkpt lat="42.94206" lon="2.03758">
        <ele>425</ele>
        <time>2025-08-06T07:20:34.000Z</time>
      </trkpt>
      <trkpt lat="42.94238" lon="2.03728">
        <ele>424.60000610352</ele>
        <time>2025-08-06T07:20:42.000Z</time>
      </trkpt>
      <trkpt lat="42.94256" lon="2.03717">
        <ele>424.39999389648</ele>
        <time>2025-08-06T07:20:46.000Z</time>
      </trkpt>
      <trkpt lat="42.94265" lon="2.03715">
        <ele>424.39999389648</ele>
        <time>2025-08-06T07:20:48.000Z</time>
      </trkpt>
      <trkpt lat="42.94286" lon="2.03716">
        <ele>424</ele>
        <time>2025-08-06T07:20:52.000Z</time>
      </trkpt>
      <trkpt lat="42.94296" lon="2.03717">
        <ele>423.79998779297</ele>
        <time>2025-08-06T07:20:54.000Z</time>
      </trkpt>
      <trkpt lat="42.94334" lon="2.0372">
        <ele>423.39999389648</ele>
        <time>2025-08-06T07:21:02.000Z</time>
      </trkpt>
      <trkpt lat="42.94373" lon="2.0371">
        <ele>423</ele>
        <time>2025-08-06T07:21:10.000Z</time>
      </trkpt>
      <trkpt lat="42.94407" lon="2.03698">
        <ele>422.79998779297</ele>
        <time>2025-08-06T07:21:17.000Z</time>
      </trkpt>
      <trkpt lat="42.94411" lon="2.03696">
        <ele>422.60000610352</ele>
        <time>2025-08-06T07:21:18.000Z</time>
      </trkpt>
      <trkpt lat="42.94447" lon="2.03676">
        <ele>422</ele>
        <time>2025-08-06T07:21:26.000Z</time>
      </trkpt>
      <trkpt lat="42.94452" lon="2.03673">
        <ele>422</ele>
        <time>2025-08-06T07:21:27.000Z</time>
      </trkpt>
      <trkpt lat="42.94482" lon="2.03658">
        <ele>421.20001220703</ele>
        <time>2025-08-06T07:21:33.000Z</time>
      </trkpt>
      <trkpt lat="42.94488" lon="2.03657">
        <ele>421</ele>
        <time>2025-08-06T07:21:34.000Z</time>
      </trkpt>
      <trkpt lat="42.94527" lon="2.0365">
        <ele>420.20001220703</ele>
        <time>2025-08-06T07:21:41.000Z</time>
      </trkpt>
      <trkpt lat="42.94539" lon="2.03649">
        <ele>419.79998779297</ele>
        <time>2025-08-06T07:21:43.000Z</time>
      </trkpt>
      <trkpt lat="42.94566" lon="2.03644">
        <ele>418.79998779297</ele>
        <time>2025-08-06T07:21:48.000Z</time>
      </trkpt>
      <trkpt lat="42.946" lon="2.0364">
        <ele>418.39999389648</ele>
        <time>2025-08-06T07:21:55.000Z</time>
      </trkpt>
      <trkpt lat="42.94631" lon="2.0363">
        <ele>418.79998779297</ele>
        <time>2025-08-06T07:22:03.000Z</time>
      </trkpt>
      <trkpt lat="42.94668" lon="2.03621">
        <ele>419</ele>
        <time>2025-08-06T07:22:11.000Z</time>
      </trkpt>
      <trkpt lat="42.94682" lon="2.03619">
        <ele>419</ele>
        <time>2025-08-06T07:22:14.000Z</time>
      </trkpt>
      <trkpt lat="42.94711" lon="2.03616">
        <ele>418.79998779297</ele>
        <time>2025-08-06T07:22:20.000Z</time>
      </trkpt>
      <trkpt lat="42.9476" lon="2.03617">
        <ele>418.79998779297</ele>
        <time>2025-08-06T07:22:30.000Z</time>
      </trkpt>
      <trkpt lat="42.94774" lon="2.03617">
        <ele>418.60000610352</ele>
        <time>2025-08-06T07:22:33.000Z</time>
      </trkpt>
      <trkpt lat="42.94784" lon="2.03617">
        <ele>418.39999389648</ele>
        <time>2025-08-06T07:22:35.000Z</time>
      </trkpt>
      <trkpt lat="42.94815" lon="2.03614">
        <ele>418</ele>
        <time>2025-08-06T07:22:42.000Z</time>
      </trkpt>
      <trkpt lat="42.94825" lon="2.03612">
        <ele>418</ele>
        <time>2025-08-06T07:22:44.000Z</time>
      </trkpt>
      <trkpt lat="42.94852" lon="2.03605">
        <ele>417.79998779297</ele>
        <time>2025-08-06T07:22:50.000Z</time>
      </trkpt>
      <trkpt lat="42.94888" lon="2.03593">
        <ele>417.60000610352</ele>
        <time>2025-08-06T07:22:58.000Z</time>
      </trkpt>
      <trkpt lat="42.94892" lon="2.03591">
        <ele>417.60000610352</ele>
        <time>2025-08-06T07:22:59.000Z</time>
      </trkpt>
      <trkpt lat="42.94929" lon="2.03574">
        <ele>417.39999389648</ele>
        <time>2025-08-06T07:23:07.000Z</time>
      </trkpt>
      <trkpt lat="42.94978" lon="2.03537">
        <ele>417</ele>
        <time>2025-08-06T07:23:19.000Z</time>
      </trkpt>
      <trkpt lat="42.94994" lon="2.03523">
        <ele>417</ele>
        <time>2025-08-06T07:23:23.000Z</time>
      </trkpt>
      <trkpt lat="42.9501" lon="2.03509">
        <ele>416.79998779297</ele>
        <time>2025-08-06T07:23:27.000Z</time>
      </trkpt>
      <trkpt lat="42.95037" lon="2.03485">
        <ele>416.39999389648</ele>
        <time>2025-08-06T07:23:34.000Z</time>
      </trkpt>
      <trkpt lat="42.95066" lon="2.03462">
        <ele>416</ele>
        <time>2025-08-06T07:23:41.000Z</time>
      </trkpt>
      <trkpt lat="42.95071" lon="2.03458">
        <ele>416</ele>
        <time>2025-08-06T07:23:42.000Z</time>
      </trkpt>
      <trkpt lat="42.95091" lon="2.03439">
        <ele>415.79998779297</ele>
        <time>2025-08-06T07:23:47.000Z</time>
      </trkpt>
      <trkpt lat="42.95121" lon="2.03399">
        <ele>415.39999389648</ele>
        <time>2025-08-06T07:23:56.000Z</time>
      </trkpt>
      <trkpt lat="42.95143" lon="2.03359">
        <ele>415</ele>
        <time>2025-08-06T07:24:04.000Z</time>
      </trkpt>
      <trkpt lat="42.95149" lon="2.03347">
        <ele>415</ele>
        <time>2025-08-06T07:24:06.000Z</time>
      </trkpt>
      <trkpt lat="42.95175" lon="2.03308">
        <ele>414.60000610352</ele>
        <time>2025-08-06T07:24:14.000Z</time>
      </trkpt>
      <trkpt lat="42.95199" lon="2.03272">
        <ele>414.39999389648</ele>
        <time>2025-08-06T07:24:22.000Z</time>
      </trkpt>
      <trkpt lat="42.95208" lon="2.03259">
        <ele>414.39999389648</ele>
        <time>2025-08-06T07:24:25.000Z</time>
      </trkpt>
      <trkpt lat="42.95221" lon="2.03239">
        <ele>414.20001220703</ele>
        <time>2025-08-06T07:24:29.000Z</time>
      </trkpt>
      <trkpt lat="42.9525" lon="2.03196">
        <ele>413.79998779297</ele>
        <time>2025-08-06T07:24:37.000Z</time>
      </trkpt>
      <trkpt lat="42.95254" lon="2.03192">
        <ele>413.79998779297</ele>
        <time>2025-08-06T07:24:38.000Z</time>
      </trkpt>
      <trkpt lat="42.95283" lon="2.0316">
        <ele>413.60000610352</ele>
        <time>2025-08-06T07:24:45.000Z</time>
      </trkpt>
      <trkpt lat="42.95316" lon="2.03139">
        <ele>413.20001220703</ele>
        <time>2025-08-06T07:24:52.000Z</time>
      </trkpt>
      <trkpt lat="42.9534" lon="2.03129">
        <ele>413</ele>
        <time>2025-08-06T07:24:57.000Z</time>
      </trkpt>
      <trkpt lat="42.95348" lon="2.03127">
        <ele>413</ele>
        <time>2025-08-06T07:24:59.000Z</time>
      </trkpt>
      <trkpt lat="42.95355" lon="2.03125">
        <ele>412.79998779297</ele>
        <time>2025-08-06T07:25:01.000Z</time>
      </trkpt>
      <trkpt lat="42.95366" lon="2.03121">
        <ele>412.79998779297</ele>
        <time>2025-08-06T07:25:04.000Z</time>
      </trkpt>
      <trkpt lat="42.95371" lon="2.03121">
        <ele>412.60000610352</ele>
        <time>2025-08-06T07:25:05.000Z</time>
      </trkpt>
      <trkpt lat="42.95403" lon="2.03115">
        <ele>412.20001220703</ele>
        <time>2025-08-06T07:25:12.000Z</time>
      </trkpt>
      <trkpt lat="42.95408" lon="2.03115">
        <ele>412.20001220703</ele>
        <time>2025-08-06T07:25:13.000Z</time>
      </trkpt>
      <trkpt lat="42.95417" lon="2.03115">
        <ele>412.20001220703</ele>
        <time>2025-08-06T07:25:15.000Z</time>
      </trkpt>
      <trkpt lat="42.95438" lon="2.0312">
        <ele>412</ele>
        <time>2025-08-06T07:25:19.000Z</time>
      </trkpt>
      <trkpt lat="42.95482" lon="2.03136">
        <ele>411.79998779297</ele>
        <time>2025-08-06T07:25:28.000Z</time>
      </trkpt>
      <trkpt lat="42.95523" lon="2.0314">
        <ele>411.39999389648</ele>
        <time>2025-08-06T07:25:36.000Z</time>
      </trkpt>
      <trkpt lat="42.95553" lon="2.03136">
        <ele>411</ele>
        <time>2025-08-06T07:25:42.000Z</time>
      </trkpt>
      <trkpt lat="42.95571" lon="2.03134">
        <ele>410.79998779297</ele>
        <time>2025-08-06T07:25:46.000Z</time>
      </trkpt>
      <trkpt lat="42.956" lon="2.03128">
        <ele>410.60000610352</ele>
        <time>2025-08-06T07:25:52.000Z</time>
      </trkpt>
      <trkpt lat="42.95605" lon="2.03127">
        <ele>410.60000610352</ele>
        <time>2025-08-06T07:25:53.000Z</time>
      </trkpt>
      <trkpt lat="42.95647" lon="2.03118">
        <ele>410.60000610352</ele>
        <time>2025-08-06T07:26:02.000Z</time>
      </trkpt>
      <trkpt lat="42.95688" lon="2.03111">
        <ele>410.60000610352</ele>
        <time>2025-08-06T07:26:11.000Z</time>
      </trkpt>
      <trkpt lat="42.95735" lon="2.03102">
        <ele>410.79998779297</ele>
        <time>2025-08-06T07:26:21.000Z</time>
      </trkpt>
      <trkpt lat="42.95775" lon="2.03094">
        <ele>411</ele>
        <time>2025-08-06T07:26:29.000Z</time>
      </trkpt>
      <trkpt lat="42.95779" lon="2.03093">
        <ele>411</ele>
        <time>2025-08-06T07:26:30.000Z</time>
      </trkpt>
      <trkpt lat="42.95831" lon="2.03085">
        <ele>410.79998779297</ele>
        <time>2025-08-06T07:26:40.000Z</time>
      </trkpt>
      <trkpt lat="42.95862" lon="2.03079">
        <ele>410.20001220703</ele>
        <time>2025-08-06T07:26:46.000Z</time>
      </trkpt>
      <trkpt lat="42.95899" lon="2.03073">
        <ele>409.60000610352</ele>
        <time>2025-08-06T07:26:53.000Z</time>
      </trkpt>
      <trkpt lat="42.95928" lon="2.03067">
        <ele>409.39999389648</ele>
        <time>2025-08-06T07:26:59.000Z</time>
      </trkpt>
      <trkpt lat="42.95943" lon="2.03062">
        <ele>409.20001220703</ele>
        <time>2025-08-06T07:27:02.000Z</time>
      </trkpt>
      <trkpt lat="42.95979" lon="2.03048">
        <ele>408.79998779297</ele>
        <time>2025-08-06T07:27:10.000Z</time>
      </trkpt>
      <trkpt lat="42.96016" lon="2.03037">
        <ele>408.60000610352</ele>
        <time>2025-08-06T07:27:18.000Z</time>
      </trkpt>
      <trkpt lat="42.96034" lon="2.03036">
        <ele>408.39999389648</ele>
        <time>2025-08-06T07:27:22.000Z</time>
      </trkpt>
      <trkpt lat="42.96047" lon="2.03037">
        <ele>408.39999389648</ele>
        <time>2025-08-06T07:27:25.000Z</time>
      </trkpt>
      <trkpt lat="42.9605" lon="2.03038">
        <ele>408.39999389648</ele>
        <time>2025-08-06T07:27:26.000Z</time>
      </trkpt>
      <trkpt lat="42.96078" lon="2.0305">
        <ele>408.39999389648</ele>
        <time>2025-08-06T07:27:32.000Z</time>
      </trkpt>
      <trkpt lat="42.96083" lon="2.03051">
        <ele>408.20001220703</ele>
        <time>2025-08-06T07:27:33.000Z</time>
      </trkpt>
      <trkpt lat="42.96102" lon="2.03051">
        <ele>408.20001220703</ele>
        <time>2025-08-06T07:27:37.000Z</time>
      </trkpt>
      <trkpt lat="42.96107" lon="2.0305">
        <ele>408.20001220703</ele>
        <time>2025-08-06T07:27:38.000Z</time>
      </trkpt>
      <trkpt lat="42.96112" lon="2.0305">
        <ele>408.20001220703</ele>
        <time>2025-08-06T07:27:39.000Z</time>
      </trkpt>
      <trkpt lat="42.96131" lon="2.03041">
        <ele>408</ele>
        <time>2025-08-06T07:27:43.000Z</time>
      </trkpt>
      <trkpt lat="42.96158" lon="2.03035">
        <ele>407.79998779297</ele>
        <time>2025-08-06T07:27:48.000Z</time>
      </trkpt>
      <trkpt lat="42.96167" lon="2.03035">
        <ele>407.60000610352</ele>
        <time>2025-08-06T07:27:50.000Z</time>
      </trkpt>
      <trkpt lat="42.96203" lon="2.03042">
        <ele>407.39999389648</ele>
        <time>2025-08-06T07:27:57.000Z</time>
      </trkpt>
      <trkpt lat="42.96218" lon="2.03046">
        <ele>407.39999389648</ele>
        <time>2025-08-06T07:28:00.000Z</time>
      </trkpt>
      <trkpt lat="42.96244" lon="2.03049">
        <ele>407.39999389648</ele>
        <time>2025-08-06T07:28:05.000Z</time>
      </trkpt>
      <trkpt lat="42.96281" lon="2.03046">
        <ele>407</ele>
        <time>2025-08-06T07:28:12.000Z</time>
      </trkpt>
      <trkpt lat="42.96286" lon="2.03044">
        <ele>407</ele>
        <time>2025-08-06T07:28:13.000Z</time>
      </trkpt>
      <trkpt lat="42.96316" lon="2.03033">
        <ele>407</ele>
        <time>2025-08-06T07:28:19.000Z</time>
      </trkpt>
      <trkpt lat="42.96353" lon="2.03006">
        <ele>406.79998779297</ele>
        <time>2025-08-06T07:28:27.000Z</time>
      </trkpt>
      <trkpt lat="42.96389" lon="2.02987">
        <ele>406.39999389648</ele>
        <time>2025-08-06T07:28:34.000Z</time>
      </trkpt>
      <trkpt lat="42.96394" lon="2.02985">
        <ele>406.39999389648</ele>
        <time>2025-08-06T07:28:35.000Z</time>
      </trkpt>
      <trkpt lat="42.96428" lon="2.02965">
        <ele>406</ele>
        <time>2025-08-06T07:28:42.000Z</time>
      </trkpt>
      <trkpt lat="42.96469" lon="2.02934">
        <ele>405.79998779297</ele>
        <time>2025-08-06T07:28:50.000Z</time>
      </trkpt>
      <trkpt lat="42.96509" lon="2.02905">
        <ele>405.79998779297</ele>
        <time>2025-08-06T07:28:59.000Z</time>
      </trkpt>
      <trkpt lat="42.96532" lon="2.02888">
        <ele>405.79998779297</ele>
        <time>2025-08-06T07:29:04.000Z</time>
      </trkpt>
      <trkpt lat="42.96545" lon="2.02876">
        <ele>405.60000610352</ele>
        <time>2025-08-06T07:29:07.000Z</time>
      </trkpt>
      <trkpt lat="42.96554" lon="2.02868">
        <ele>405.60000610352</ele>
        <time>2025-08-06T07:29:09.000Z</time>
      </trkpt>
      <trkpt lat="42.9657" lon="2.02851">
        <ele>405.60000610352</ele>
        <time>2025-08-06T07:29:13.000Z</time>
      </trkpt>
      <trkpt lat="42.96578" lon="2.02842">
        <ele>405.39999389648</ele>
        <time>2025-08-06T07:29:15.000Z</time>
      </trkpt>
      <trkpt lat="42.96586" lon="2.02834">
        <ele>405</ele>
        <time>2025-08-06T07:29:17.000Z</time>
      </trkpt>
      <trkpt lat="42.96599" lon="2.0282">
        <ele>404.79998779297</ele>
        <time>2025-08-06T07:29:20.000Z</time>
      </trkpt>
      <trkpt lat="42.96607" lon="2.02811">
        <ele>404.79998779297</ele>
        <time>2025-08-06T07:29:22.000Z</time>
      </trkpt>
      <trkpt lat="42.96623" lon="2.02793">
        <ele>404.60000610352</ele>
        <time>2025-08-06T07:29:26.000Z</time>
      </trkpt>
      <trkpt lat="42.96639" lon="2.02774">
        <ele>404.20001220703</ele>
        <time>2025-08-06T07:29:30.000Z</time>
      </trkpt>
      <trkpt lat="42.96656" lon="2.02754">
        <ele>404.20001220703</ele>
        <time>2025-08-06T07:29:35.000Z</time>
      </trkpt>
      <trkpt lat="42.96696" lon="2.0271">
        <ele>403.79998779297</ele>
        <time>2025-08-06T07:29:43.000Z</time>
      </trkpt>
      <trkpt lat="42.96735" lon="2.02676">
        <ele>403.60000610352</ele>
        <time>2025-08-06T07:29:51.000Z</time>
      </trkpt>
      <trkpt lat="42.9674" lon="2.02674">
        <ele>403.39999389648</ele>
        <time>2025-08-06T07:29:52.000Z</time>
      </trkpt>
      <trkpt lat="42.96746" lon="2.02672">
        <ele>403.39999389648</ele>
        <time>2025-08-06T07:29:53.000Z</time>
      </trkpt>
      <trkpt lat="42.96759" lon="2.02672">
        <ele>403.39999389648</ele>
        <time>2025-08-06T07:29:55.000Z</time>
      </trkpt>
      <trkpt lat="42.96765" lon="2.02674">
        <ele>403.20001220703</ele>
        <time>2025-08-06T07:29:56.000Z</time>
      </trkpt>
      <trkpt lat="42.9679" lon="2.02689">
        <ele>402.60000610352</ele>
        <time>2025-08-06T07:30:01.000Z</time>
      </trkpt>
      <trkpt lat="42.96825" lon="2.02727">
        <ele>402.39999389648</ele>
        <time>2025-08-06T07:30:09.000Z</time>
      </trkpt>
      <trkpt lat="42.9683" lon="2.02731">
        <ele>402.39999389648</ele>
        <time>2025-08-06T07:30:10.000Z</time>
      </trkpt>
      <trkpt lat="42.96854" lon="2.02748">
        <ele>402.20001220703</ele>
        <time>2025-08-06T07:30:15.000Z</time>
      </trkpt>
      <trkpt lat="42.96865" lon="2.02751">
        <ele>402.20001220703</ele>
        <time>2025-08-06T07:30:17.000Z</time>
      </trkpt>
      <trkpt lat="42.96886" lon="2.02752">
        <ele>402.20001220703</ele>
        <time>2025-08-06T07:30:21.000Z</time>
      </trkpt>
      <trkpt lat="42.96929" lon="2.02745">
        <ele>402</ele>
        <time>2025-08-06T07:30:29.000Z</time>
      </trkpt>
      <trkpt lat="42.96983" lon="2.02736">
        <ele>401.60000610352</ele>
        <time>2025-08-06T07:30:39.000Z</time>
      </trkpt>
      <trkpt lat="42.97" lon="2.02734">
        <ele>401.39999389648</ele>
        <time>2025-08-06T07:30:42.000Z</time>
      </trkpt>
      <trkpt lat="42.97033" lon="2.02726">
        <ele>401.20001220703</ele>
        <time>2025-08-06T07:30:48.000Z</time>
      </trkpt>
      <trkpt lat="42.97074" lon="2.02706">
        <ele>401</ele>
        <time>2025-08-06T07:30:56.000Z</time>
      </trkpt>
      <trkpt lat="42.97084" lon="2.027">
        <ele>400.79998779297</ele>
        <time>2025-08-06T07:30:58.000Z</time>
      </trkpt>
      <trkpt lat="42.97106" lon="2.02678">
        <ele>400.79998779297</ele>
        <time>2025-08-06T07:31:03.000Z</time>
      </trkpt>
      <trkpt lat="42.97134" lon="2.02643">
        <ele>400.60000610352</ele>
        <time>2025-08-06T07:31:10.000Z</time>
      </trkpt>
      <trkpt lat="42.97148" lon="2.02621">
        <ele>400.39999389648</ele>
        <time>2025-08-06T07:31:14.000Z</time>
      </trkpt>
      <trkpt lat="42.97158" lon="2.02604">
        <ele>400.20001220703</ele>
        <time>2025-08-06T07:31:17.000Z</time>
      </trkpt>
      <trkpt lat="42.97181" lon="2.02573">
        <ele>400</ele>
        <time>2025-08-06T07:31:23.000Z</time>
      </trkpt>
      <trkpt lat="42.97186" lon="2.02569">
        <ele>400</ele>
        <time>2025-08-06T07:31:24.000Z</time>
      </trkpt>
      <trkpt lat="42.9723" lon="2.02538">
        <ele>399.60000610352</ele>
        <time>2025-08-06T07:31:33.000Z</time>
      </trkpt>
      <trkpt lat="42.97249" lon="2.02527">
        <ele>399.39999389648</ele>
        <time>2025-08-06T07:31:37.000Z</time>
      </trkpt>
      <trkpt lat="42.97285" lon="2.02505">
        <ele>399.39999389648</ele>
        <time>2025-08-06T07:31:44.000Z</time>
      </trkpt>
      <trkpt lat="42.97327" lon="2.02469">
        <ele>399.20001220703</ele>
        <time>2025-08-06T07:31:53.000Z</time>
      </trkpt>
      <trkpt lat="42.97349" lon="2.02436">
        <ele>399.20001220703</ele>
        <time>2025-08-06T07:31:59.000Z</time>
      </trkpt>
      <trkpt lat="42.97375" lon="2.02386">
        <ele>398.60000610352</ele>
        <time>2025-08-06T07:32:07.000Z</time>
      </trkpt>
      <trkpt lat="42.97381" lon="2.02374">
        <ele>398.39999389648</ele>
        <time>2025-08-06T07:32:09.000Z</time>
      </trkpt>
      <trkpt lat="42.97411" lon="2.02313">
        <ele>397.79998779297</ele>
        <time>2025-08-06T07:32:19.000Z</time>
      </trkpt>
      <trkpt lat="42.97433" lon="2.02278">
        <ele>397.39999389648</ele>
        <time>2025-08-06T07:32:25.000Z</time>
      </trkpt>
      <trkpt lat="42.9744" lon="2.02266">
        <ele>397.39999389648</ele>
        <time>2025-08-06T07:32:27.000Z</time>
      </trkpt>
      <trkpt lat="42.97452" lon="2.02247">
        <ele>397</ele>
        <time>2025-08-06T07:32:30.000Z</time>
      </trkpt>
      <trkpt lat="42.97462" lon="2.0223">
        <ele>396.79998779297</ele>
        <time>2025-08-06T07:32:33.000Z</time>
      </trkpt>
      <trkpt lat="42.9748" lon="2.02202">
        <ele>396.39999389648</ele>
        <time>2025-08-06T07:32:38.000Z</time>
      </trkpt>
      <trkpt lat="42.97491" lon="2.02184">
        <ele>396.20001220703</ele>
        <time>2025-08-06T07:32:41.000Z</time>
      </trkpt>
      <trkpt lat="42.97495" lon="2.02178">
        <ele>396</ele>
        <time>2025-08-06T07:32:42.000Z</time>
      </trkpt>
      <trkpt lat="42.97523" lon="2.02134">
        <ele>395.39999389648</ele>
        <time>2025-08-06T07:32:50.000Z</time>
      </trkpt>
      <trkpt lat="42.97527" lon="2.02128">
        <ele>395.20001220703</ele>
        <time>2025-08-06T07:32:51.000Z</time>
      </trkpt>
      <trkpt lat="42.97552" lon="2.02085">
        <ele>395</ele>
        <time>2025-08-06T07:32:59.000Z</time>
      </trkpt>
      <trkpt lat="42.97572" lon="2.02035">
        <ele>395</ele>
        <time>2025-08-06T07:33:07.000Z</time>
      </trkpt>
      <trkpt lat="42.97573" lon="2.02028">
        <ele>395</ele>
        <time>2025-08-06T07:33:08.000Z</time>
      </trkpt>
      <trkpt lat="42.97583" lon="2.01993">
        <ele>395</ele>
        <time>2025-08-06T07:33:13.000Z</time>
      </trkpt>
      <trkpt lat="42.97596" lon="2.01942">
        <ele>394.60000610352</ele>
        <time>2025-08-06T07:33:20.000Z</time>
      </trkpt>
      <trkpt lat="42.97608" lon="2.01903">
        <ele>394.20001220703</ele>
        <time>2025-08-06T07:33:26.000Z</time>
      </trkpt>
      <trkpt lat="42.97612" lon="2.01889">
        <ele>394.20001220703</ele>
        <time>2025-08-06T07:33:28.000Z</time>
      </trkpt>
      <trkpt lat="42.97616" lon="2.01876">
        <ele>394.39999389648</ele>
        <time>2025-08-06T07:33:30.000Z</time>
      </trkpt>
      <trkpt lat="42.97635" lon="2.01834">
        <ele>394.20001220703</ele>
        <time>2025-08-06T07:33:37.000Z</time>
      </trkpt>
      <trkpt lat="42.97659" lon="2.01795">
        <ele>393.79998779297</ele>
        <time>2025-08-06T07:33:44.000Z</time>
      </trkpt>
      <trkpt lat="42.97695" lon="2.01746">
        <ele>393.39999389648</ele>
        <time>2025-08-06T07:33:53.000Z</time>
      </trkpt>
      <trkpt lat="42.97724" lon="2.01704">
        <ele>392.79998779297</ele>
        <time>2025-08-06T07:34:01.000Z</time>
      </trkpt>
      <trkpt lat="42.97766" lon="2.01647">
        <ele>392.39999389648</ele>
        <time>2025-08-06T07:34:12.000Z</time>
      </trkpt>
      <trkpt lat="42.97769" lon="2.01642">
        <ele>392.39999389648</ele>
        <time>2025-08-06T07:34:13.000Z</time>
      </trkpt>
      <trkpt lat="42.97797" lon="2.016">
        <ele>392</ele>
        <time>2025-08-06T07:34:21.000Z</time>
      </trkpt>
      <trkpt lat="42.97827" lon="2.01558">
        <ele>391.79998779297</ele>
        <time>2025-08-06T07:34:29.000Z</time>
      </trkpt>
      <trkpt lat="42.97851" lon="2.01524">
        <ele>391.60000610352</ele>
        <time>2025-08-06T07:34:36.000Z</time>
      </trkpt>
      <trkpt lat="42.97871" lon="2.01492">
        <ele>391.60000610352</ele>
        <time>2025-08-06T07:34:42.000Z</time>
      </trkpt>
      <trkpt lat="42.97888" lon="2.0146">
        <ele>391.39999389648</ele>
        <time>2025-08-06T07:34:48.000Z</time>
      </trkpt>
      <trkpt lat="42.97891" lon="2.01454">
        <ele>391.39999389648</ele>
        <time>2025-08-06T07:34:49.000Z</time>
      </trkpt>
      <trkpt lat="42.97909" lon="2.01413">
        <ele>391.20001220703</ele>
        <time>2025-08-06T07:34:56.000Z</time>
      </trkpt>
      <trkpt lat="42.97915" lon="2.01403">
        <ele>391</ele>
        <time>2025-08-06T07:34:58.000Z</time>
      </trkpt>
      <trkpt lat="42.9793" lon="2.0138">
        <ele>390.79998779297</ele>
        <time>2025-08-06T07:35:03.000Z</time>
      </trkpt>
      <trkpt lat="42.97933" lon="2.01376">
        <ele>390.79998779297</ele>
        <time>2025-08-06T07:35:04.000Z</time>
      </trkpt>
      <trkpt lat="42.97935" lon="2.01372">
        <ele>391</ele>
        <time>2025-08-06T07:35:05.000Z</time>
      </trkpt>
      <trkpt lat="42.97946" lon="2.01357">
        <ele>390.79998779297</ele>
        <time>2025-08-06T07:35:11.000Z</time>
      </trkpt>
      <trkpt lat="42.97947" lon="2.01356">
        <ele>390.79998779297</ele>
        <time>2025-08-06T07:35:15.000Z</time>
      </trkpt>
      <trkpt lat="42.97954" lon="2.01349">
        <ele>391</ele>
        <time>2025-08-06T07:36:05.000Z</time>
      </trkpt>
      <trkpt lat="42.97967" lon="2.01338">
        <ele>389.60000610352</ele>
        <time>2025-08-06T07:36:10.000Z</time>
      </trkpt>
      <trkpt lat="42.97987" lon="2.01328">
        <ele>390.79998779297</ele>
        <time>2025-08-06T07:36:16.000Z</time>
      </trkpt>
      <trkpt lat="42.98006" lon="2.01328">
        <ele>390.60000610352</ele>
        <time>2025-08-06T07:36:22.000Z</time>
      </trkpt>
      <trkpt lat="42.98011" lon="2.01329">
        <ele>390.60000610352</ele>
        <time>2025-08-06T07:36:27.000Z</time>
      </trkpt>
      <trkpt lat="42.98018" lon="2.01331">
        <ele>390.79998779297</ele>
        <time>2025-08-06T07:37:06.000Z</time>
      </trkpt>
      <trkpt lat="42.98022" lon="2.01332">
        <ele>390.79998779297</ele>
        <time>2025-08-06T07:37:07.000Z</time>
      </trkpt>
      <trkpt lat="42.98034" lon="2.01333">
        <ele>391</ele>
        <time>2025-08-06T07:37:11.000Z</time>
      </trkpt>
      <trkpt lat="42.98054" lon="2.01332">
        <ele>391</ele>
        <time>2025-08-06T07:37:16.000Z</time>
      </trkpt>
      <trkpt lat="42.98083" lon="2.01318">
        <ele>390.79998779297</ele>
        <time>2025-08-06T07:37:23.000Z</time>
      </trkpt>
      <trkpt lat="42.98107" lon="2.01297">
        <ele>390.79998779297</ele>
        <time>2025-08-06T07:37:29.000Z</time>
      </trkpt>
      <trkpt lat="42.98133" lon="2.01275">
        <ele>390.60000610352</ele>
        <time>2025-08-06T07:37:35.000Z</time>
      </trkpt>
      <trkpt lat="42.98153" lon="2.01255">
        <ele>390.39999389648</ele>
        <time>2025-08-06T07:37:41.000Z</time>
      </trkpt>
      <trkpt lat="42.98172" lon="2.01229">
        <ele>390.60000610352</ele>
        <time>2025-08-06T07:37:47.000Z</time>
      </trkpt>
      <trkpt lat="42.98186" lon="2.01205">
        <ele>390.60000610352</ele>
        <time>2025-08-06T07:37:52.000Z</time>
      </trkpt>
      <trkpt lat="42.98205" lon="2.01175">
        <ele>390.60000610352</ele>
        <time>2025-08-06T07:37:58.000Z</time>
      </trkpt>
      <trkpt lat="42.98224" lon="2.01142">
        <ele>390</ele>
        <time>2025-08-06T07:38:05.000Z</time>
      </trkpt>
      <trkpt lat="42.98227" lon="2.01137">
        <ele>390</ele>
        <time>2025-08-06T07:38:06.000Z</time>
      </trkpt>
      <trkpt lat="42.98232" lon="2.01127">
        <ele>389.79998779297</ele>
        <time>2025-08-06T07:38:08.000Z</time>
      </trkpt>
      <trkpt lat="42.98237" lon="2.01116">
        <ele>389.79998779297</ele>
        <time>2025-08-06T07:38:10.000Z</time>
      </trkpt>
      <trkpt lat="42.98239" lon="2.0111">
        <ele>389.79998779297</ele>
        <time>2025-08-06T07:38:11.000Z</time>
      </trkpt>
      <trkpt lat="42.9824" lon="2.01104">
        <ele>389.60000610352</ele>
        <time>2025-08-06T07:38:12.000Z</time>
      </trkpt>
      <trkpt lat="42.98248" lon="2.01074">
        <ele>389.60000610352</ele>
        <time>2025-08-06T07:38:17.000Z</time>
      </trkpt>
      <trkpt lat="42.98249" lon="2.01068">
        <ele>389.60000610352</ele>
        <time>2025-08-06T07:38:18.000Z</time>
      </trkpt>
      <trkpt lat="42.98251" lon="2.01055">
        <ele>389.39999389648</ele>
        <time>2025-08-06T07:38:20.000Z</time>
      </trkpt>
      <trkpt lat="42.98253" lon="2.01049">
        <ele>389.39999389648</ele>
        <time>2025-08-06T07:38:21.000Z</time>
      </trkpt>
      <trkpt lat="42.98254" lon="2.01043">
        <ele>389.39999389648</ele>
        <time>2025-08-06T07:38:22.000Z</time>
      </trkpt>
      <trkpt lat="42.9826" lon="2.01013">
        <ele>389</ele>
        <time>2025-08-06T07:38:27.000Z</time>
      </trkpt>
      <trkpt lat="42.9826" lon="2.01006">
        <ele>389</ele>
        <time>2025-08-06T07:38:28.000Z</time>
      </trkpt>
      <trkpt lat="42.98261" lon="2.00982">
        <ele>389</ele>
        <time>2025-08-06T07:38:32.000Z</time>
      </trkpt>
      <trkpt lat="42.9826" lon="2.00964">
        <ele>389</ele>
        <time>2025-08-06T07:38:35.000Z</time>
      </trkpt>
      <trkpt lat="42.98255" lon="2.00942">
        <ele>388.79998779297</ele>
        <time>2025-08-06T07:38:38.000Z</time>
      </trkpt>
      <trkpt lat="42.98254" lon="2.00934">
        <ele>388.39999389648</ele>
        <time>2025-08-06T07:38:39.000Z</time>
      </trkpt>
      <trkpt lat="42.98248" lon="2.00901">
        <ele>387</ele>
        <time>2025-08-06T07:38:44.000Z</time>
      </trkpt>
      <trkpt lat="42.98246" lon="2.0089">
        <ele>386.60000610352</ele>
        <time>2025-08-06T07:38:46.000Z</time>
      </trkpt>
      <trkpt lat="42.98245" lon="2.00876">
        <ele>386.20001220703</ele>
        <time>2025-08-06T07:38:49.000Z</time>
      </trkpt>
      <trkpt lat="42.98243" lon="2.00869">
        <ele>386</ele>
        <time>2025-08-06T07:38:51.000Z</time>
      </trkpt>
      <trkpt lat="42.98242" lon="2.00857">
        <ele>386</ele>
        <time>2025-08-06T07:38:55.000Z</time>
      </trkpt>
      <trkpt lat="42.9824" lon="2.00832">
        <ele>385.60000610352</ele>
        <time>2025-08-06T07:39:00.000Z</time>
      </trkpt>
      <trkpt lat="42.98246" lon="2.00808">
        <ele>385.60000610352</ele>
        <time>2025-08-06T07:39:06.000Z</time>
      </trkpt>
      <trkpt lat="42.98256" lon="2.00789">
        <ele>386</ele>
        <time>2025-08-06T07:39:12.000Z</time>
      </trkpt>
      <trkpt lat="42.98264" lon="2.00772">
        <ele>386.20001220703</ele>
        <time>2025-08-06T07:39:18.000Z</time>
      </trkpt>
      <trkpt lat="42.98272" lon="2.00757">
        <ele>386.39999389648</ele>
        <time>2025-08-06T07:39:24.000Z</time>
      </trkpt>
      <trkpt lat="42.98278" lon="2.00748">
        <ele>386.60000610352</ele>
        <time>2025-08-06T07:39:29.000Z</time>
      </trkpt>
      <trkpt lat="42.98281" lon="2.00742">
        <ele>386.60000610352</ele>
        <time>2025-08-06T07:39:32.000Z</time>
      </trkpt>
      <trkpt lat="42.98283" lon="2.00735">
        <ele>386.60000610352</ele>
        <time>2025-08-06T07:39:35.000Z</time>
      </trkpt>
      <trkpt lat="42.98282" lon="2.00732">
        <ele>386.60000610352</ele>
        <time>2025-08-06T07:39:39.000Z</time>
      </trkpt>
      <trkpt lat="42.98285" lon="2.00724">
        <ele>387</ele>
        <time>2025-08-06T07:40:10.000Z</time>
      </trkpt>
      <trkpt lat="42.98287" lon="2.00723">
        <ele>387</ele>
        <time>2025-08-06T07:40:14.000Z</time>
      </trkpt>
      <trkpt lat="42.98284" lon="2.00725">
        <ele>387.20001220703</ele>
        <time>2025-08-06T07:44:36.000Z</time>
      </trkpt>
      <trkpt lat="42.98274" lon="2.00719">
        <ele>387.20001220703</ele>
        <time>2025-08-06T07:44:40.000Z</time>
      </trkpt>
      <trkpt lat="42.98268" lon="2.00715">
        <ele>386.79998779297</ele>
        <time>2025-08-06T07:44:44.000Z</time>
      </trkpt>
      <trkpt lat="42.98273" lon="2.00707">
        <ele>386.60000610352</ele>
        <time>2025-08-06T07:45:30.000Z</time>
      </trkpt>
      <trkpt lat="42.98274" lon="2.00701">
        <ele>386.60000610352</ele>
        <time>2025-08-06T07:45:32.000Z</time>
      </trkpt>
      <trkpt lat="42.98279" lon="2.00682">
        <ele>386.60000610352</ele>
        <time>2025-08-06T07:45:38.000Z</time>
      </trkpt>
      <trkpt lat="42.98284" lon="2.00669">
        <ele>386.60000610352</ele>
        <time>2025-08-06T07:45:42.000Z</time>
      </trkpt>
      <trkpt lat="42.98288" lon="2.00655">
        <ele>386.39999389648</ele>
        <time>2025-08-06T07:45:47.000Z</time>
      </trkpt>
      <trkpt lat="42.9829" lon="2.00653">
        <ele>386.39999389648</ele>
        <time>2025-08-06T07:45:50.000Z</time>
      </trkpt>
      <trkpt lat="42.98293" lon="2.00648">
        <ele>386.20001220703</ele>
        <time>2025-08-06T07:46:31.000Z</time>
      </trkpt>
      <trkpt lat="42.98296" lon="2.00643">
        <ele>386.20001220703</ele>
        <time>2025-08-06T07:46:34.000Z</time>
      </trkpt>
      <trkpt lat="42.98297" lon="2.00637">
        <ele>386.20001220703</ele>
        <time>2025-08-06T07:46:37.000Z</time>
      </trkpt>
      <trkpt lat="42.98297" lon="2.00635">
        <ele>386.20001220703</ele>
        <time>2025-08-06T07:46:38.000Z</time>
      </trkpt>
      <trkpt lat="42.98297" lon="2.00633">
        <ele>386.20001220703</ele>
        <time>2025-08-06T07:46:39.000Z</time>
      </trkpt>
      <trkpt lat="42.983" lon="2.00624">
        <ele>386</ele>
        <time>2025-08-06T07:46:43.000Z</time>
      </trkpt>
      <trkpt lat="42.98301" lon="2.00619">
        <ele>386</ele>
        <time>2025-08-06T07:46:45.000Z</time>
      </trkpt>
      <trkpt lat="42.983" lon="2.00617">
        <ele>385.79998779297</ele>
        <time>2025-08-06T07:46:46.000Z</time>
      </trkpt>
      <trkpt lat="42.98301" lon="2.00615">
        <ele>385.79998779297</ele>
        <time>2025-08-06T07:46:47.000Z</time>
      </trkpt>
      <trkpt lat="42.98301" lon="2.00613">
        <ele>385.79998779297</ele>
        <time>2025-08-06T07:46:48.000Z</time>
      </trkpt>
      <trkpt lat="42.98304" lon="2.0061">
        <ele>385.60000610352</ele>
        <time>2025-08-06T07:46:54.000Z</time>
      </trkpt>
      <trkpt lat="42.98304" lon="2.00608">
        <ele>385.39999389648</ele>
        <time>2025-08-06T07:47:00.000Z</time>
      </trkpt>
      <trkpt lat="42.98306" lon="2.00601">
        <ele>385.39999389648</ele>
        <time>2025-08-06T07:47:06.000Z</time>
      </trkpt>
      <trkpt lat="42.98306" lon="2.00598">
        <ele>385.20001220703</ele>
        <time>2025-08-06T07:47:07.000Z</time>
      </trkpt>
      <trkpt lat="42.98308" lon="2.00587">
        <ele>385.39999389648</ele>
        <time>2025-08-06T07:47:12.000Z</time>
      </trkpt>
      <trkpt lat="42.98309" lon="2.00585">
        <ele>385.20001220703</ele>
        <time>2025-08-06T07:47:16.000Z</time>
      </trkpt>
      <trkpt lat="42.98302" lon="2.00575">
        <ele>384.79998779297</ele>
        <time>2025-08-06T07:47:28.000Z</time>
      </trkpt>
      <trkpt lat="42.98298" lon="2.00571">
        <ele>384.79998779297</ele>
        <time>2025-08-06T07:47:33.000Z</time>
      </trkpt>
      <trkpt lat="42.98298" lon="2.00571">
        <ele>384.79998779297</ele>
        <time>2025-08-06T07:47:34.000Z</time>
      </trkpt>
      <trkpt lat="42.98207" lon="2.00411">
        <ele>384</ele>
        <time>2025-08-06T08:24:38.000Z</time>
      </trkpt>
      <trkpt lat="42.98207" lon="2.00403">
        <ele>384</ele>
        <time>2025-08-06T08:24:40.000Z</time>
      </trkpt>
      <trkpt lat="42.98208" lon="2.00365">
        <ele>383.79998779297</ele>
        <time>2025-08-06T08:24:49.000Z</time>
      </trkpt>
      <trkpt lat="42.98207" lon="2.00333">
        <ele>384</ele>
        <time>2025-08-06T08:24:57.000Z</time>
      </trkpt>
      <trkpt lat="42.98207" lon="2.00316">
        <ele>384.39999389648</ele>
        <time>2025-08-06T08:25:02.000Z</time>
      </trkpt>
      <trkpt lat="42.98209" lon="2.00293">
        <ele>384.79998779297</ele>
        <time>2025-08-06T08:25:08.000Z</time>
      </trkpt>
      <trkpt lat="42.98209" lon="2.0027">
        <ele>385.39999389648</ele>
        <time>2025-08-06T08:25:14.000Z</time>
      </trkpt>
      <trkpt lat="42.98209" lon="2.00266">
        <ele>385.60000610352</ele>
        <time>2025-08-06T08:25:15.000Z</time>
      </trkpt>
      <trkpt lat="42.98211" lon="2.00232">
        <ele>385.79998779297</ele>
        <time>2025-08-06T08:25:23.000Z</time>
      </trkpt>
      <trkpt lat="42.98219" lon="2.00217">
        <ele>386</ele>
        <time>2025-08-06T08:25:28.000Z</time>
      </trkpt>
      <trkpt lat="42.98221" lon="2.00216">
        <ele>386</ele>
        <time>2025-08-06T08:25:29.000Z</time>
      </trkpt>
      <trkpt lat="42.9823" lon="2.00216">
        <ele>386.39999389648</ele>
        <time>2025-08-06T08:25:34.000Z</time>
      </trkpt>
      <trkpt lat="42.98231" lon="2.00216">
        <ele>386.39999389648</ele>
        <time>2025-08-06T08:25:35.000Z</time>
      </trkpt>
      <trkpt lat="42.98234" lon="2.00216">
        <ele>386.39999389648</ele>
        <time>2025-08-06T08:25:37.000Z</time>
      </trkpt>
      <trkpt lat="42.98236" lon="2.00218">
        <ele>386.39999389648</ele>
        <time>2025-08-06T08:25:40.000Z</time>
      </trkpt>
      <trkpt lat="42.98236" lon="2.00218">
        <ele>386.39999389648</ele>
        <time>2025-08-06T08:25:43.000Z</time>
      </trkpt>
      <trkpt lat="42.98241" lon="2.00219">
        <ele>386.20001220703</ele>
        <time>2025-08-06T08:25:57.000Z</time>
      </trkpt>
      <trkpt lat="42.9825" lon="2.00222">
        <ele>386.20001220703</ele>
        <time>2025-08-06T08:26:03.000Z</time>
      </trkpt>
      <trkpt lat="42.98255" lon="2.00224">
        <ele>386.20001220703</ele>
        <time>2025-08-06T08:26:09.000Z</time>
      </trkpt>
      <trkpt lat="42.98266" lon="2.0023">
        <ele>386</ele>
        <time>2025-08-06T08:26:16.000Z</time>
      </trkpt>
      <trkpt lat="42.98273" lon="2.00234">
        <ele>385.79998779297</ele>
        <time>2025-08-06T08:26:20.000Z</time>
      </trkpt>
      <trkpt lat="42.98279" lon="2.00235">
        <ele>385.79998779297</ele>
        <time>2025-08-06T08:26:22.000Z</time>
      </trkpt>
      <trkpt lat="42.98285" lon="2.00237">
        <ele>385.79998779297</ele>
        <time>2025-08-06T08:26:24.000Z</time>
      </trkpt>
      <trkpt lat="42.98293" lon="2.00241">
        <ele>385.60000610352</ele>
        <time>2025-08-06T08:26:27.000Z</time>
      </trkpt>
      <trkpt lat="42.98303" lon="2.00244">
        <ele>385.39999389648</ele>
        <time>2025-08-06T08:26:30.000Z</time>
      </trkpt>
      <trkpt lat="42.9833" lon="2.00249">
        <ele>385.39999389648</ele>
        <time>2025-08-06T08:26:37.000Z</time>
      </trkpt>
      <trkpt lat="42.98348" lon="2.00255">
        <ele>385.39999389648</ele>
        <time>2025-08-06T08:26:42.000Z</time>
      </trkpt>
      <trkpt lat="42.98376" lon="2.00263">
        <ele>385.79998779297</ele>
        <time>2025-08-06T08:26:51.000Z</time>
      </trkpt>
      <trkpt lat="42.98397" lon="2.00267">
        <ele>385.79998779297</ele>
        <time>2025-08-06T08:26:57.000Z</time>
      </trkpt>
      <trkpt lat="42.98431" lon="2.00278">
        <ele>385.79998779297</ele>
        <time>2025-08-06T08:27:06.000Z</time>
      </trkpt>
      <trkpt lat="42.98451" lon="2.00282">
        <ele>385.60000610352</ele>
        <time>2025-08-06T08:27:11.000Z</time>
      </trkpt>
      <trkpt lat="42.98463" lon="2.00284">
        <ele>385.60000610352</ele>
        <time>2025-08-06T08:27:14.000Z</time>
      </trkpt>
      <trkpt lat="42.98489" lon="2.00285">
        <ele>385.39999389648</ele>
        <time>2025-08-06T08:27:21.000Z</time>
      </trkpt>
      <trkpt lat="42.985" lon="2.00288">
        <ele>385.39999389648</ele>
        <time>2025-08-06T08:27:26.000Z</time>
      </trkpt>
      <trkpt lat="42.98513" lon="2.00287">
        <ele>385.39999389648</ele>
        <time>2025-08-06T08:27:31.000Z</time>
      </trkpt>
      <trkpt lat="42.98534" lon="2.00285">
        <ele>385.20001220703</ele>
        <time>2025-08-06T08:27:37.000Z</time>
      </trkpt>
      <trkpt lat="42.98556" lon="2.00279">
        <ele>384.60000610352</ele>
        <time>2025-08-06T08:27:43.000Z</time>
      </trkpt>
      <trkpt lat="42.98587" lon="2.00276">
        <ele>384.39999389648</ele>
        <time>2025-08-06T08:27:51.000Z</time>
      </trkpt>
      <trkpt lat="42.98617" lon="2.00273">
        <ele>384.39999389648</ele>
        <time>2025-08-06T08:27:59.000Z</time>
      </trkpt>
      <trkpt lat="42.98645" lon="2.0027">
        <ele>384.60000610352</ele>
        <time>2025-08-06T08:28:07.000Z</time>
      </trkpt>
      <trkpt lat="42.9865" lon="2.00269">
        <ele>384.60000610352</ele>
        <time>2025-08-06T08:28:09.000Z</time>
      </trkpt>
      <trkpt lat="42.98657" lon="2.00269">
        <ele>384.60000610352</ele>
        <time>2025-08-06T08:28:11.000Z</time>
      </trkpt>
      <trkpt lat="42.9867" lon="2.00269">
        <ele>384.60000610352</ele>
        <time>2025-08-06T08:28:16.000Z</time>
      </trkpt>
      <trkpt lat="42.98678" lon="2.00272">
        <ele>384.39999389648</ele>
        <time>2025-08-06T08:28:19.000Z</time>
      </trkpt>
      <trkpt lat="42.9868" lon="2.00275">
        <ele>384.39999389648</ele>
        <time>2025-08-06T08:28:20.000Z</time>
      </trkpt>
      <trkpt lat="42.98693" lon="2.00288">
        <ele>384.60000610352</ele>
        <time>2025-08-06T08:28:26.000Z</time>
      </trkpt>
      <trkpt lat="42.98704" lon="2.00291">
        <ele>384.79998779297</ele>
        <time>2025-08-06T08:28:31.000Z</time>
      </trkpt>
      <trkpt lat="42.98714" lon="2.0029">
        <ele>384.60000610352</ele>
        <time>2025-08-06T08:28:37.000Z</time>
      </trkpt>
      <trkpt lat="42.98731" lon="2.00286">
        <ele>384.60000610352</ele>
        <time>2025-08-06T08:28:44.000Z</time>
      </trkpt>
      <trkpt lat="42.98752" lon="2.00281">
        <ele>384.60000610352</ele>
        <time>2025-08-06T08:28:50.000Z</time>
      </trkpt>
      <trkpt lat="42.98774" lon="2.00279">
        <ele>384.79998779297</ele>
        <time>2025-08-06T08:28:56.000Z</time>
      </trkpt>
      <trkpt lat="42.98796" lon="2.00274">
        <ele>384.79998779297</ele>
        <time>2025-08-06T08:29:03.000Z</time>
      </trkpt>
      <trkpt lat="42.98827" lon="2.00262">
        <ele>384.60000610352</ele>
        <time>2025-08-06T08:29:13.000Z</time>
      </trkpt>
      <trkpt lat="42.98851" lon="2.0025">
        <ele>384.60000610352</ele>
        <time>2025-08-06T08:29:21.000Z</time>
      </trkpt>
      <trkpt lat="42.9888" lon="2.0024">
        <ele>384.60000610352</ele>
        <time>2025-08-06T08:29:29.000Z</time>
      </trkpt>
      <trkpt lat="42.98909" lon="2.0023">
        <ele>384.79998779297</ele>
        <time>2025-08-06T08:29:37.000Z</time>
      </trkpt>
      <trkpt lat="42.98938" lon="2.00217">
        <ele>385</ele>
        <time>2025-08-06T08:29:45.000Z</time>
      </trkpt>
      <trkpt lat="42.98951" lon="2.00212">
        <ele>385</ele>
        <time>2025-08-06T08:29:49.000Z</time>
      </trkpt>
      <trkpt lat="42.98975" lon="2.00207">
        <ele>385</ele>
        <time>2025-08-06T08:29:56.000Z</time>
      </trkpt>
      <trkpt lat="42.98995" lon="2.00203">
        <ele>385.20001220703</ele>
        <time>2025-08-06T08:30:02.000Z</time>
      </trkpt>
      <trkpt lat="42.99018" lon="2.00203">
        <ele>385.20001220703</ele>
        <time>2025-08-06T08:30:09.000Z</time>
      </trkpt>
      <trkpt lat="42.99043" lon="2.00202">
        <ele>385.20001220703</ele>
        <time>2025-08-06T08:30:16.000Z</time>
      </trkpt>
      <trkpt lat="42.99063" lon="2.00201">
        <ele>385</ele>
        <time>2025-08-06T08:30:22.000Z</time>
      </trkpt>
      <trkpt lat="42.99078" lon="2.00201">
        <ele>385</ele>
        <time>2025-08-06T08:30:27.000Z</time>
      </trkpt>
      <trkpt lat="42.99082" lon="2.00202">
        <ele>385</ele>
        <time>2025-08-06T08:30:28.000Z</time>
      </trkpt>
      <trkpt lat="42.99108" lon="2.00206">
        <ele>385</ele>
        <time>2025-08-06T08:30:36.000Z</time>
      </trkpt>
      <trkpt lat="42.99123" lon="2.00213">
        <ele>385</ele>
        <time>2025-08-06T08:30:40.000Z</time>
      </trkpt>
      <trkpt lat="42.99126" lon="2.00213">
        <ele>385</ele>
        <time>2025-08-06T08:30:41.000Z</time>
      </trkpt>
      <trkpt lat="42.99146" lon="2.00222">
        <ele>384.79998779297</ele>
        <time>2025-08-06T08:30:47.000Z</time>
      </trkpt>
      <trkpt lat="42.99171" lon="2.00229">
        <ele>384.60000610352</ele>
        <time>2025-08-06T08:30:54.000Z</time>
      </trkpt>
      <trkpt lat="42.99191" lon="2.00238">
        <ele>384.60000610352</ele>
        <time>2025-08-06T08:31:00.000Z</time>
      </trkpt>
      <trkpt lat="42.99214" lon="2.00243">
        <ele>384.60000610352</ele>
        <time>2025-08-06T08:31:06.000Z</time>
      </trkpt>
      <trkpt lat="42.99236" lon="2.00247">
        <ele>384.60000610352</ele>
        <time>2025-08-06T08:31:11.000Z</time>
      </trkpt>
      <trkpt lat="42.99238" lon="2.00251">
        <ele>384.60000610352</ele>
        <time>2025-08-06T08:31:12.000Z</time>
      </trkpt>
      <trkpt lat="42.99254" lon="2.00259">
        <ele>384.60000610352</ele>
        <time>2025-08-06T08:31:16.000Z</time>
      </trkpt>
      <trkpt lat="42.99269" lon="2.00263">
        <ele>384.39999389648</ele>
        <time>2025-08-06T08:31:20.000Z</time>
      </trkpt>
      <trkpt lat="42.99287" lon="2.00269">
        <ele>384.20001220703</ele>
        <time>2025-08-06T08:31:25.000Z</time>
      </trkpt>
      <trkpt lat="42.99312" lon="2.00274">
        <ele>384.20001220703</ele>
        <time>2025-08-06T08:31:32.000Z</time>
      </trkpt>
      <trkpt lat="42.99325" lon="2.00275">
        <ele>384</ele>
        <time>2025-08-06T08:31:36.000Z</time>
      </trkpt>
      <trkpt lat="42.99328" lon="2.00276">
        <ele>384</ele>
        <time>2025-08-06T08:31:37.000Z</time>
      </trkpt>
      <trkpt lat="42.99345" lon="2.00275">
        <ele>383.39999389648</ele>
        <time>2025-08-06T08:31:42.000Z</time>
      </trkpt>
      <trkpt lat="42.99368" lon="2.00276">
        <ele>383.39999389648</ele>
        <time>2025-08-06T08:31:47.000Z</time>
      </trkpt>
      <trkpt lat="42.99383" lon="2.00277">
        <ele>383.60000610352</ele>
        <time>2025-08-06T08:31:50.000Z</time>
      </trkpt>
      <trkpt lat="42.9939" lon="2.00275">
        <ele>383.60000610352</ele>
        <time>2025-08-06T08:31:52.000Z</time>
      </trkpt>
      <trkpt lat="42.99407" lon="2.00274">
        <ele>383.60000610352</ele>
        <time>2025-08-06T08:31:56.000Z</time>
      </trkpt>
      <trkpt lat="42.99433" lon="2.00269">
        <ele>383.39999389648</ele>
        <time>2025-08-06T08:32:02.000Z</time>
      </trkpt>
      <trkpt lat="42.9947" lon="2.00257">
        <ele>383.20001220703</ele>
        <time>2025-08-06T08:32:11.000Z</time>
      </trkpt>
      <trkpt lat="42.99481" lon="2.00254">
        <ele>383.20001220703</ele>
        <time>2025-08-06T08:32:14.000Z</time>
      </trkpt>
      <trkpt lat="42.99493" lon="2.00248">
        <ele>383</ele>
        <time>2025-08-06T08:32:18.000Z</time>
      </trkpt>
      <trkpt lat="42.99529" lon="2.00237">
        <ele>382.79998779297</ele>
        <time>2025-08-06T08:32:27.000Z</time>
      </trkpt>
      <trkpt lat="42.99557" lon="2.00228">
        <ele>382.60000610352</ele>
        <time>2025-08-06T08:32:34.000Z</time>
      </trkpt>
      <trkpt lat="42.99561" lon="2.00226">
        <ele>382.39999389648</ele>
        <time>2025-08-06T08:32:35.000Z</time>
      </trkpt>
      <trkpt lat="42.9957" lon="2.00224">
        <ele>382.20001220703</ele>
        <time>2025-08-06T08:32:37.000Z</time>
      </trkpt>
      <trkpt lat="42.99583" lon="2.00218">
        <ele>382.20001220703</ele>
        <time>2025-08-06T08:32:41.000Z</time>
      </trkpt>
      <trkpt lat="42.99603" lon="2.0021">
        <ele>382</ele>
        <time>2025-08-06T08:32:47.000Z</time>
      </trkpt>
      <trkpt lat="42.99625" lon="2.00199">
        <ele>382</ele>
        <time>2025-08-06T08:32:53.000Z</time>
      </trkpt>
      <trkpt lat="42.99649" lon="2.00184">
        <ele>381.79998779297</ele>
        <time>2025-08-06T08:33:00.000Z</time>
      </trkpt>
      <trkpt lat="42.99656" lon="2.00178">
        <ele>381.79998779297</ele>
        <time>2025-08-06T08:33:04.000Z</time>
      </trkpt>
      <trkpt lat="42.99834" lon="1.99922">
        <ele>381</ele>
        <time>2025-08-06T08:34:12.000Z</time>
      </trkpt>
      <trkpt lat="42.9983" lon="1.99919">
        <ele>381</ele>
        <time>2025-08-06T08:34:13.000Z</time>
      </trkpt>
      <trkpt lat="42.99839" lon="1.99886">
        <ele>380.39999389648</ele>
        <time>2025-08-06T08:34:20.000Z</time>
      </trkpt>
      <trkpt lat="42.99844" lon="1.99857">
        <ele>380.20001220703</ele>
        <time>2025-08-06T08:34:26.000Z</time>
      </trkpt>
      <trkpt lat="42.9985" lon="1.9983">
        <ele>380</ele>
        <time>2025-08-06T08:34:32.000Z</time>
      </trkpt>
      <trkpt lat="42.99852" lon="1.9982">
        <ele>380</ele>
        <time>2025-08-06T08:34:34.000Z</time>
      </trkpt>
      <trkpt lat="42.99856" lon="1.9979">
        <ele>379.60000610352</ele>
        <time>2025-08-06T08:34:40.000Z</time>
      </trkpt>
      <trkpt lat="42.99864" lon="1.99759">
        <ele>379.39999389648</ele>
        <time>2025-08-06T08:34:46.000Z</time>
      </trkpt>
      <trkpt lat="42.99865" lon="1.99754">
        <ele>379.39999389648</ele>
        <time>2025-08-06T08:34:47.000Z</time>
      </trkpt>
      <trkpt lat="42.99868" lon="1.99733">
        <ele>379.39999389648</ele>
        <time>2025-08-06T08:34:52.000Z</time>
      </trkpt>
      <trkpt lat="42.99874" lon="1.99702">
        <ele>379.39999389648</ele>
        <time>2025-08-06T08:34:58.000Z</time>
      </trkpt>
      <trkpt lat="42.99875" lon="1.99676">
        <ele>379.20001220703</ele>
        <time>2025-08-06T08:35:03.000Z</time>
      </trkpt>
      <trkpt lat="42.99878" lon="1.99637">
        <ele>379.20001220703</ele>
        <time>2025-08-06T08:35:11.000Z</time>
      </trkpt>
      <trkpt lat="42.99884" lon="1.99599">
        <ele>378.79998779297</ele>
        <time>2025-08-06T08:35:18.000Z</time>
      </trkpt>
      <trkpt lat="42.99886" lon="1.99594">
        <ele>378.79998779297</ele>
        <time>2025-08-06T08:35:19.000Z</time>
      </trkpt>
      <trkpt lat="42.9989" lon="1.9957">
        <ele>378.60000610352</ele>
        <time>2025-08-06T08:35:24.000Z</time>
      </trkpt>
      <trkpt lat="42.99896" lon="1.99535">
        <ele>378.60000610352</ele>
        <time>2025-08-06T08:35:31.000Z</time>
      </trkpt>
      <trkpt lat="42.99901" lon="1.99503">
        <ele>378.60000610352</ele>
        <time>2025-08-06T08:35:37.000Z</time>
      </trkpt>
      <trkpt lat="42.99909" lon="1.99467">
        <ele>378.39999389648</ele>
        <time>2025-08-06T08:35:44.000Z</time>
      </trkpt>
      <trkpt lat="42.9992" lon="1.99434">
        <ele>378.39999389648</ele>
        <time>2025-08-06T08:35:51.000Z</time>
      </trkpt>
      <trkpt lat="42.99927" lon="1.99406">
        <ele>378.20001220703</ele>
        <time>2025-08-06T08:35:57.000Z</time>
      </trkpt>
      <trkpt lat="42.99931" lon="1.99391">
        <ele>378</ele>
        <time>2025-08-06T08:36:00.000Z</time>
      </trkpt>
      <trkpt lat="42.99937" lon="1.99373">
        <ele>377.79998779297</ele>
        <time>2025-08-06T08:36:04.000Z</time>
      </trkpt>
      <trkpt lat="42.99948" lon="1.99344">
        <ele>377.60000610352</ele>
        <time>2025-08-06T08:36:10.000Z</time>
      </trkpt>
      <trkpt lat="42.9995" lon="1.9934">
        <ele>377.79998779297</ele>
        <time>2025-08-06T08:36:11.000Z</time>
      </trkpt>
      <trkpt lat="42.99962" lon="1.99312">
        <ele>377.39999389648</ele>
        <time>2025-08-06T08:36:17.000Z</time>
      </trkpt>
      <trkpt lat="42.99979" lon="1.99277">
        <ele>377</ele>
        <time>2025-08-06T08:36:25.000Z</time>
      </trkpt>
      <trkpt lat="42.99994" lon="1.99252">
        <ele>376.79998779297</ele>
        <time>2025-08-06T08:36:31.000Z</time>
      </trkpt>
      <trkpt lat="43.0001" lon="1.99221">
        <ele>376.60000610352</ele>
        <time>2025-08-06T08:36:38.000Z</time>
      </trkpt>
      <trkpt lat="43.00028" lon="1.99188">
        <ele>376.60000610352</ele>
        <time>2025-08-06T08:36:46.000Z</time>
      </trkpt>
      <trkpt lat="43.00039" lon="1.99172">
        <ele>376.39999389648</ele>
        <time>2025-08-06T08:36:50.000Z</time>
      </trkpt>
      <trkpt lat="43.0006" lon="1.99139">
        <ele>376</ele>
        <time>2025-08-06T08:36:58.000Z</time>
      </trkpt>
      <trkpt lat="43.00065" lon="1.99131">
        <ele>376</ele>
        <time>2025-08-06T08:37:00.000Z</time>
      </trkpt>
      <trkpt lat="43.00073" lon="1.99119">
        <ele>376</ele>
        <time>2025-08-06T08:37:03.000Z</time>
      </trkpt>
      <trkpt lat="43.00089" lon="1.99101">
        <ele>375.79998779297</ele>
        <time>2025-08-06T08:37:08.000Z</time>
      </trkpt>
      <trkpt lat="43.00094" lon="1.99092">
        <ele>375.79998779297</ele>
        <time>2025-08-06T08:37:10.000Z</time>
      </trkpt>
      <trkpt lat="43.00106" lon="1.99076">
        <ele>375.20001220703</ele>
        <time>2025-08-06T08:37:14.000Z</time>
      </trkpt>
      <trkpt lat="43.00109" lon="1.99073">
        <ele>375.20001220703</ele>
        <time>2025-08-06T08:37:15.000Z</time>
      </trkpt>
      <trkpt lat="43.00118" lon="1.99062">
        <ele>375.20001220703</ele>
        <time>2025-08-06T08:37:18.000Z</time>
      </trkpt>
      <trkpt lat="43.0014" lon="1.99039">
        <ele>375</ele>
        <time>2025-08-06T08:37:25.000Z</time>
      </trkpt>
      <trkpt lat="43.00167" lon="1.99014">
        <ele>374.79998779297</ele>
        <time>2025-08-06T08:37:32.000Z</time>
      </trkpt>
      <trkpt lat="43.00174" lon="1.99007">
        <ele>374.79998779297</ele>
        <time>2025-08-06T08:37:34.000Z</time>
      </trkpt>
      <trkpt lat="43.00188" lon="1.98993">
        <ele>374.79998779297</ele>
        <time>2025-08-06T08:37:38.000Z</time>
      </trkpt>
      <trkpt lat="43.00196" lon="1.98989">
        <ele>374.79998779297</ele>
        <time>2025-08-06T08:37:40.000Z</time>
      </trkpt>
      <trkpt lat="43.0021" lon="1.98976">
        <ele>374.79998779297</ele>
        <time>2025-08-06T08:37:44.000Z</time>
      </trkpt>
      <trkpt lat="43.00229" lon="1.98961">
        <ele>374.60000610352</ele>
        <time>2025-08-06T08:37:49.000Z</time>
      </trkpt>
      <trkpt lat="43.00235" lon="1.98954">
        <ele>374.60000610352</ele>
        <time>2025-08-06T08:37:51.000Z</time>
      </trkpt>
      <trkpt lat="43.00261" lon="1.98928">
        <ele>374.39999389648</ele>
        <time>2025-08-06T08:37:59.000Z</time>
      </trkpt>
      <trkpt lat="43.00274" lon="1.98916">
        <ele>374.20001220703</ele>
        <time>2025-08-06T08:38:03.000Z</time>
      </trkpt>
      <trkpt lat="43.00291" lon="1.98899">
        <ele>374.20001220703</ele>
        <time>2025-08-06T08:38:08.000Z</time>
      </trkpt>
      <trkpt lat="43.00315" lon="1.98873">
        <ele>373.79998779297</ele>
        <time>2025-08-06T08:38:16.000Z</time>
      </trkpt>
      <trkpt lat="43.00337" lon="1.98852">
        <ele>373.39999389648</ele>
        <time>2025-08-06T08:38:24.000Z</time>
      </trkpt>
      <trkpt lat="43.0035" lon="1.98839">
        <ele>373.20001220703</ele>
        <time>2025-08-06T08:38:28.000Z</time>
      </trkpt>
      <trkpt lat="43.00368" lon="1.98825">
        <ele>372.79998779297</ele>
        <time>2025-08-06T08:38:33.000Z</time>
      </trkpt>
      <trkpt lat="43.00397" lon="1.98801">
        <ele>373</ele>
        <time>2025-08-06T08:38:41.000Z</time>
      </trkpt>
      <trkpt lat="43.00419" lon="1.98785">
        <ele>372.79998779297</ele>
        <time>2025-08-06T08:38:47.000Z</time>
      </trkpt>
      <trkpt lat="43.00427" lon="1.98782">
        <ele>372.79998779297</ele>
        <time>2025-08-06T08:38:49.000Z</time>
      </trkpt>
      <trkpt lat="43.00459" lon="1.98764">
        <ele>372.60000610352</ele>
        <time>2025-08-06T08:38:57.000Z</time>
      </trkpt>
      <trkpt lat="43.00491" lon="1.98749">
        <ele>372.60000610352</ele>
        <time>2025-08-06T08:39:05.000Z</time>
      </trkpt>
      <trkpt lat="43.00516" lon="1.9874">
        <ele>372.39999389648</ele>
        <time>2025-08-06T08:39:11.000Z</time>
      </trkpt>
      <trkpt lat="43.00529" lon="1.98736">
        <ele>372.20001220703</ele>
        <time>2025-08-06T08:39:14.000Z</time>
      </trkpt>
      <trkpt lat="43.00551" lon="1.98728">
        <ele>372</ele>
        <time>2025-08-06T08:39:20.000Z</time>
      </trkpt>
      <trkpt lat="43.00577" lon="1.98721">
        <ele>371.60000610352</ele>
        <time>2025-08-06T08:39:27.000Z</time>
      </trkpt>
      <trkpt lat="43.006" lon="1.9871">
        <ele>371.39999389648</ele>
        <time>2025-08-06T08:39:34.000Z</time>
      </trkpt>
      <trkpt lat="43.00614" lon="1.98707">
        <ele>371.39999389648</ele>
        <time>2025-08-06T08:39:38.000Z</time>
      </trkpt>
      <trkpt lat="43.00625" lon="1.98705">
        <ele>371.20001220703</ele>
        <time>2025-08-06T08:39:41.000Z</time>
      </trkpt>
      <trkpt lat="43.00645" lon="1.98698">
        <ele>371.20001220703</ele>
        <time>2025-08-06T08:39:47.000Z</time>
      </trkpt>
      <trkpt lat="43.00663" lon="1.98689">
        <ele>371.20001220703</ele>
        <time>2025-08-06T08:39:52.000Z</time>
      </trkpt>
      <trkpt lat="43.00697" lon="1.98669">
        <ele>371.20001220703</ele>
        <time>2025-08-06T08:40:01.000Z</time>
      </trkpt>
      <trkpt lat="43.00729" lon="1.98646">
        <ele>371.39999389648</ele>
        <time>2025-08-06T08:40:09.000Z</time>
      </trkpt>
      <trkpt lat="43.00753" lon="1.98625">
        <ele>371.79998779297</ele>
        <time>2025-08-06T08:40:18.000Z</time>
      </trkpt>
      <trkpt lat="43.00771" lon="1.98603">
        <ele>372</ele>
        <time>2025-08-06T08:40:25.000Z</time>
      </trkpt>
      <trkpt lat="43.00788" lon="1.98582">
        <ele>372</ele>
        <time>2025-08-06T08:40:31.000Z</time>
      </trkpt>
      <trkpt lat="43.00801" lon="1.98563">
        <ele>372</ele>
        <time>2025-08-06T08:40:36.000Z</time>
      </trkpt>
      <trkpt lat="43.00817" lon="1.9854">
        <ele>372</ele>
        <time>2025-08-06T08:40:42.000Z</time>
      </trkpt>
      <trkpt lat="43.0083" lon="1.98515">
        <ele>372</ele>
        <time>2025-08-06T08:40:48.000Z</time>
      </trkpt>
      <trkpt lat="43.00847" lon="1.98481">
        <ele>372.20001220703</ele>
        <time>2025-08-06T08:40:56.000Z</time>
      </trkpt>
      <trkpt lat="43.00854" lon="1.98469">
        <ele>372.39999389648</ele>
        <time>2025-08-06T08:40:59.000Z</time>
      </trkpt>
      <trkpt lat="43.00863" lon="1.98441">
        <ele>372.79998779297</ele>
        <time>2025-08-06T08:41:05.000Z</time>
      </trkpt>
      <trkpt lat="43.00877" lon="1.98397">
        <ele>373</ele>
        <time>2025-08-06T08:41:14.000Z</time>
      </trkpt>
      <trkpt lat="43.00888" lon="1.98352">
        <ele>372.79998779297</ele>
        <time>2025-08-06T08:41:23.000Z</time>
      </trkpt>
      <trkpt lat="43.00895" lon="1.98307">
        <ele>372.39999389648</ele>
        <time>2025-08-06T08:41:32.000Z</time>
      </trkpt>
      <trkpt lat="43.00899" lon="1.98275">
        <ele>372.20001220703</ele>
        <time>2025-08-06T08:41:39.000Z</time>
      </trkpt>
      <trkpt lat="43.009" lon="1.98236">
        <ele>371.79998779297</ele>
        <time>2025-08-06T08:41:46.000Z</time>
      </trkpt>
      <trkpt lat="43.00899" lon="1.98224">
        <ele>371.79998779297</ele>
        <time>2025-08-06T08:41:48.000Z</time>
      </trkpt>
      <trkpt lat="43.00899" lon="1.98211">
        <ele>371.60000610352</ele>
        <time>2025-08-06T08:41:50.000Z</time>
      </trkpt>
      <trkpt lat="43.00898" lon="1.982">
        <ele>371.60000610352</ele>
        <time>2025-08-06T08:41:52.000Z</time>
      </trkpt>
      <trkpt lat="43.00897" lon="1.98189">
        <ele>371.60000610352</ele>
        <time>2025-08-06T08:41:54.000Z</time>
      </trkpt>
      <trkpt lat="43.00894" lon="1.98162">
        <ele>371.39999389648</ele>
        <time>2025-08-06T08:41:59.000Z</time>
      </trkpt>
      <trkpt lat="43.00893" lon="1.9815">
        <ele>371.20001220703</ele>
        <time>2025-08-06T08:42:01.000Z</time>
      </trkpt>
      <trkpt lat="43.00887" lon="1.98113">
        <ele>370.79998779297</ele>
        <time>2025-08-06T08:42:08.000Z</time>
      </trkpt>
      <trkpt lat="43.00883" lon="1.98086">
        <ele>370.60000610352</ele>
        <time>2025-08-06T08:42:13.000Z</time>
      </trkpt>
      <trkpt lat="43.00876" lon="1.98066">
        <ele>370.39999389648</ele>
        <time>2025-08-06T08:42:17.000Z</time>
      </trkpt>
      <trkpt lat="43.00869" lon="1.98046">
        <ele>370.20001220703</ele>
        <time>2025-08-06T08:42:21.000Z</time>
      </trkpt>
      <trkpt lat="43.00866" lon="1.98034">
        <ele>370</ele>
        <time>2025-08-06T08:42:23.000Z</time>
      </trkpt>
      <trkpt lat="43.00856" lon="1.97997">
        <ele>369.60000610352</ele>
        <time>2025-08-06T08:42:29.000Z</time>
      </trkpt>
      <trkpt lat="43.00851" lon="1.97973">
        <ele>369.60000610352</ele>
        <time>2025-08-06T08:42:33.000Z</time>
      </trkpt>
      <trkpt lat="43.00846" lon="1.97936">
        <ele>369.39999389648</ele>
        <time>2025-08-06T08:42:39.000Z</time>
      </trkpt>
      <trkpt lat="43.00838" lon="1.97895">
        <ele>369.20001220703</ele>
        <time>2025-08-06T08:42:46.000Z</time>
      </trkpt>
      <trkpt lat="43.00833" lon="1.97873">
        <ele>369.20001220703</ele>
        <time>2025-08-06T08:42:50.000Z</time>
      </trkpt>
      <trkpt lat="43.00829" lon="1.9784">
        <ele>369</ele>
        <time>2025-08-06T08:42:56.000Z</time>
      </trkpt>
      <trkpt lat="43.00828" lon="1.97835">
        <ele>369</ele>
        <time>2025-08-06T08:42:57.000Z</time>
      </trkpt>
      <trkpt lat="43.00825" lon="1.97825">
        <ele>369</ele>
        <time>2025-08-06T08:42:59.000Z</time>
      </trkpt>
      <trkpt lat="43.00821" lon="1.97818">
        <ele>369</ele>
        <time>2025-08-06T08:43:01.000Z</time>
      </trkpt>
      <trkpt lat="43.00815" lon="1.97795">
        <ele>368.79998779297</ele>
        <time>2025-08-06T08:43:06.000Z</time>
      </trkpt>
      <trkpt lat="43.00811" lon="1.97767">
        <ele>368.79998779297</ele>
        <time>2025-08-06T08:43:11.000Z</time>
      </trkpt>
      <trkpt lat="43.00805" lon="1.97734">
        <ele>368.60000610352</ele>
        <time>2025-08-06T08:43:17.000Z</time>
      </trkpt>
      <trkpt lat="43.00802" lon="1.97724">
        <ele>368.60000610352</ele>
        <time>2025-08-06T08:43:19.000Z</time>
      </trkpt>
      <trkpt lat="43.00798" lon="1.97701">
        <ele>368.39999389648</ele>
        <time>2025-08-06T08:43:23.000Z</time>
      </trkpt>
      <trkpt lat="43.00793" lon="1.97658">
        <ele>368.39999389648</ele>
        <time>2025-08-06T08:43:31.000Z</time>
      </trkpt>
      <trkpt lat="43.00787" lon="1.97616">
        <ele>368</ele>
        <time>2025-08-06T08:43:39.000Z</time>
      </trkpt>
      <trkpt lat="43.00778" lon="1.97582">
        <ele>367.79998779297</ele>
        <time>2025-08-06T08:43:46.000Z</time>
      </trkpt>
      <trkpt lat="43.00772" lon="1.97549">
        <ele>367.60000610352</ele>
        <time>2025-08-06T08:43:52.000Z</time>
      </trkpt>
      <trkpt lat="43.00766" lon="1.97517">
        <ele>367.79998779297</ele>
        <time>2025-08-06T08:43:58.000Z</time>
      </trkpt>
      <trkpt lat="43.00763" lon="1.97495">
        <ele>367.79998779297</ele>
        <time>2025-08-06T08:44:02.000Z</time>
      </trkpt>
      <trkpt lat="43.00759" lon="1.97474">
        <ele>367.79998779297</ele>
        <time>2025-08-06T08:44:06.000Z</time>
      </trkpt>
      <trkpt lat="43.00752" lon="1.97445">
        <ele>367.39999389648</ele>
        <time>2025-08-06T08:44:11.000Z</time>
      </trkpt>
      <trkpt lat="43.00748" lon="1.97417">
        <ele>367.39999389648</ele>
        <time>2025-08-06T08:44:16.000Z</time>
      </trkpt>
      <trkpt lat="43.00747" lon="1.97398">
        <ele>367.39999389648</ele>
        <time>2025-08-06T08:44:20.000Z</time>
      </trkpt>
      <trkpt lat="43.00742" lon="1.97357">
        <ele>367.20001220703</ele>
        <time>2025-08-06T08:44:28.000Z</time>
      </trkpt>
      <trkpt lat="43.00737" lon="1.97316">
        <ele>367</ele>
        <time>2025-08-06T08:44:36.000Z</time>
      </trkpt>
      <trkpt lat="43.00737" lon="1.973">
        <ele>366.79998779297</ele>
        <time>2025-08-06T08:44:39.000Z</time>
      </trkpt>
      <trkpt lat="43.00738" lon="1.97286">
        <ele>366.79998779297</ele>
        <time>2025-08-06T08:44:42.000Z</time>
      </trkpt>
      <trkpt lat="43.00738" lon="1.9727">
        <ele>366.79998779297</ele>
        <time>2025-08-06T08:44:46.000Z</time>
      </trkpt>
      <trkpt lat="43.00738" lon="1.97266">
        <ele>366.79998779297</ele>
        <time>2025-08-06T08:44:47.000Z</time>
      </trkpt>
      <trkpt lat="43.00741" lon="1.97241">
        <ele>366.60000610352</ele>
        <time>2025-08-06T08:44:52.000Z</time>
      </trkpt>
      <trkpt lat="43.00742" lon="1.97212">
        <ele>366.60000610352</ele>
        <time>2025-08-06T08:44:57.000Z</time>
      </trkpt>
      <trkpt lat="43.00747" lon="1.97181">
        <ele>366.60000610352</ele>
        <time>2025-08-06T08:45:02.000Z</time>
      </trkpt>
      <trkpt lat="43.00748" lon="1.97158">
        <ele>366.60000610352</ele>
        <time>2025-08-06T08:45:06.000Z</time>
      </trkpt>
      <trkpt lat="43.00752" lon="1.97135">
        <ele>366.60000610352</ele>
        <time>2025-08-06T08:45:10.000Z</time>
      </trkpt>
      <trkpt lat="43.00759" lon="1.97081">
        <ele>366.39999389648</ele>
        <time>2025-08-06T08:45:20.000Z</time>
      </trkpt>
      <trkpt lat="43.00762" lon="1.97048">
        <ele>366.39999389648</ele>
        <time>2025-08-06T08:45:26.000Z</time>
      </trkpt>
      <trkpt lat="43.00766" lon="1.97016">
        <ele>366.20001220703</ele>
        <time>2025-08-06T08:45:32.000Z</time>
      </trkpt>
      <trkpt lat="43.00771" lon="1.96979">
        <ele>366.20001220703</ele>
        <time>2025-08-06T08:45:39.000Z</time>
      </trkpt>
      <trkpt lat="43.00776" lon="1.96942">
        <ele>366.20001220703</ele>
        <time>2025-08-06T08:45:46.000Z</time>
      </trkpt>
      <trkpt lat="43.00779" lon="1.96898">
        <ele>366.20001220703</ele>
        <time>2025-08-06T08:45:54.000Z</time>
      </trkpt>
      <trkpt lat="43.00783" lon="1.96854">
        <ele>366.20001220703</ele>
        <time>2025-08-06T08:46:02.000Z</time>
      </trkpt>
      <trkpt lat="43.00785" lon="1.96821">
        <ele>366.20001220703</ele>
        <time>2025-08-06T08:46:09.000Z</time>
      </trkpt>
      <trkpt lat="43.0079" lon="1.96785">
        <ele>366.20001220703</ele>
        <time>2025-08-06T08:46:16.000Z</time>
      </trkpt>
      <trkpt lat="43.00795" lon="1.96737">
        <ele>365.79998779297</ele>
        <time>2025-08-06T08:46:25.000Z</time>
      </trkpt>
      <trkpt lat="43.00799" lon="1.96699">
        <ele>365.79998779297</ele>
        <time>2025-08-06T08:46:32.000Z</time>
      </trkpt>
      <trkpt lat="43.00808" lon="1.96671">
        <ele>365.79998779297</ele>
        <time>2025-08-06T08:46:37.000Z</time>
      </trkpt>
      <trkpt lat="43.00818" lon="1.96634">
        <ele>365.60000610352</ele>
        <time>2025-08-06T08:46:44.000Z</time>
      </trkpt>
      <trkpt lat="43.00833" lon="1.96594">
        <ele>365.20001220703</ele>
        <time>2025-08-06T08:46:52.000Z</time>
      </trkpt>
      <trkpt lat="43.00848" lon="1.96562">
        <ele>365</ele>
        <time>2025-08-06T08:46:59.000Z</time>
      </trkpt>
      <trkpt lat="43.00859" lon="1.9654">
        <ele>365</ele>
        <time>2025-08-06T08:47:03.000Z</time>
      </trkpt>
      <trkpt lat="43.00864" lon="1.96531">
        <ele>364.79998779297</ele>
        <time>2025-08-06T08:47:05.000Z</time>
      </trkpt>
      <trkpt lat="43.00877" lon="1.96511">
        <ele>364.79998779297</ele>
        <time>2025-08-06T08:47:11.000Z</time>
      </trkpt>
      <trkpt lat="43.00886" lon="1.96501">
        <ele>364.79998779297</ele>
        <time>2025-08-06T08:47:17.000Z</time>
      </trkpt>
      <trkpt lat="43.00895" lon="1.96488">
        <ele>365</ele>
        <time>2025-08-06T08:47:23.000Z</time>
      </trkpt>
      <trkpt lat="43.00905" lon="1.96473">
        <ele>365.20001220703</ele>
        <time>2025-08-06T08:47:30.000Z</time>
      </trkpt>
      <trkpt lat="43.00909" lon="1.96469">
        <ele>365.20001220703</ele>
        <time>2025-08-06T08:47:32.000Z</time>
      </trkpt>
      <trkpt lat="43.00918" lon="1.96459">
        <ele>365.20001220703</ele>
        <time>2025-08-06T08:47:36.000Z</time>
      </trkpt>
      <trkpt lat="43.00929" lon="1.96444">
        <ele>365.39999389648</ele>
        <time>2025-08-06T08:47:41.000Z</time>
      </trkpt>
      <trkpt lat="43.00931" lon="1.96442">
        <ele>365.39999389648</ele>
        <time>2025-08-06T08:47:42.000Z</time>
      </trkpt>
      <trkpt lat="43.01269" lon="1.96211">
        <ele>362.79998779297</ele>
        <time>2025-08-06T08:49:20.000Z</time>
      </trkpt>
      <trkpt lat="43.01278" lon="1.96212">
        <ele>362.60000610352</ele>
        <time>2025-08-06T08:49:21.000Z</time>
      </trkpt>
      <trkpt lat="43.01308" lon="1.96202">
        <ele>361.79998779297</ele>
        <time>2025-08-06T08:49:28.000Z</time>
      </trkpt>
      <trkpt lat="43.01311" lon="1.962">
        <ele>361.79998779297</ele>
        <time>2025-08-06T08:49:29.000Z</time>
      </trkpt>
      <trkpt lat="43.01338" lon="1.9619">
        <ele>361.79998779297</ele>
        <time>2025-08-06T08:49:36.000Z</time>
      </trkpt>
      <trkpt lat="43.01372" lon="1.96178">
        <ele>361.79998779297</ele>
        <time>2025-08-06T08:49:44.000Z</time>
      </trkpt>
      <trkpt lat="43.01376" lon="1.96178">
        <ele>361.79998779297</ele>
        <time>2025-08-06T08:49:45.000Z</time>
      </trkpt>
      <trkpt lat="43.01403" lon="1.96167">
        <ele>361.60000610352</ele>
        <time>2025-08-06T08:49:52.000Z</time>
      </trkpt>
      <trkpt lat="43.01407" lon="1.96167">
        <ele>361.60000610352</ele>
        <time>2025-08-06T08:49:53.000Z</time>
      </trkpt>
      <trkpt lat="43.01429" lon="1.96161">
        <ele>361.20001220703</ele>
        <time>2025-08-06T08:49:58.000Z</time>
      </trkpt>
      <trkpt lat="43.01465" lon="1.9615">
        <ele>361.20001220703</ele>
        <time>2025-08-06T08:50:06.000Z</time>
      </trkpt>
      <trkpt lat="43.01502" lon="1.96147">
        <ele>361.39999389648</ele>
        <time>2025-08-06T08:50:15.000Z</time>
      </trkpt>
      <trkpt lat="43.01539" lon="1.96147">
        <ele>361.39999389648</ele>
        <time>2025-08-06T08:50:24.000Z</time>
      </trkpt>
      <trkpt lat="43.01543" lon="1.96147">
        <ele>361.39999389648</ele>
        <time>2025-08-06T08:50:25.000Z</time>
      </trkpt>
      <trkpt lat="43.01568" lon="1.96151">
        <ele>361.39999389648</ele>
        <time>2025-08-06T08:50:31.000Z</time>
      </trkpt>
      <trkpt lat="43.01589" lon="1.96156">
        <ele>361.20001220703</ele>
        <time>2025-08-06T08:50:36.000Z</time>
      </trkpt>
      <trkpt lat="43.01624" lon="1.9617">
        <ele>360.79998779297</ele>
        <time>2025-08-06T08:50:44.000Z</time>
      </trkpt>
      <trkpt lat="43.01661" lon="1.96187">
        <ele>360.39999389648</ele>
        <time>2025-08-06T08:50:53.000Z</time>
      </trkpt>
      <trkpt lat="43.01706" lon="1.96207">
        <ele>360.20001220703</ele>
        <time>2025-08-06T08:51:04.000Z</time>
      </trkpt>
      <trkpt lat="43.01718" lon="1.96212">
        <ele>360.20001220703</ele>
        <time>2025-08-06T08:51:07.000Z</time>
      </trkpt>
      <trkpt lat="43.01734" lon="1.96218">
        <ele>360.20001220703</ele>
        <time>2025-08-06T08:51:11.000Z</time>
      </trkpt>
      <trkpt lat="43.01767" lon="1.96233">
        <ele>360.60000610352</ele>
        <time>2025-08-06T08:51:20.000Z</time>
      </trkpt>
      <trkpt lat="43.01797" lon="1.96247">
        <ele>360.79998779297</ele>
        <time>2025-08-06T08:51:28.000Z</time>
      </trkpt>
      <trkpt lat="43.01824" lon="1.96259">
        <ele>360.60000610352</ele>
        <time>2025-08-06T08:51:35.000Z</time>
      </trkpt>
      <trkpt lat="43.01831" lon="1.96262">
        <ele>360.60000610352</ele>
        <time>2025-08-06T08:51:37.000Z</time>
      </trkpt>
      <trkpt lat="43.01867" lon="1.96283">
        <ele>360.20001220703</ele>
        <time>2025-08-06T08:51:46.000Z</time>
      </trkpt>
      <trkpt lat="43.01905" lon="1.96306">
        <ele>360</ele>
        <time>2025-08-06T08:51:56.000Z</time>
      </trkpt>
      <trkpt lat="43.01916" lon="1.96311">
        <ele>360.20001220703</ele>
        <time>2025-08-06T08:51:59.000Z</time>
      </trkpt>
      <trkpt lat="43.01926" lon="1.96316">
        <ele>360.20001220703</ele>
        <time>2025-08-06T08:52:02.000Z</time>
      </trkpt>
      <trkpt lat="43.01933" lon="1.96319">
        <ele>360.20001220703</ele>
        <time>2025-08-06T08:52:04.000Z</time>
      </trkpt>
      <trkpt lat="43.01952" lon="1.96327">
        <ele>360.39999389648</ele>
        <time>2025-08-06T08:52:09.000Z</time>
      </trkpt>
      <trkpt lat="43.01992" lon="1.96347">
        <ele>360.20001220703</ele>
        <time>2025-08-06T08:52:20.000Z</time>
      </trkpt>
      <trkpt lat="43.02019" lon="1.9636">
        <ele>359.79998779297</ele>
        <time>2025-08-06T08:52:27.000Z</time>
      </trkpt>
      <trkpt lat="43.02044" lon="1.96372">
        <ele>359.79998779297</ele>
        <time>2025-08-06T08:52:34.000Z</time>
      </trkpt>
      <trkpt lat="43.02071" lon="1.96383">
        <ele>360</ele>
        <time>2025-08-06T08:52:42.000Z</time>
      </trkpt>
      <trkpt lat="43.02074" lon="1.96385">
        <ele>360</ele>
        <time>2025-08-06T08:52:43.000Z</time>
      </trkpt>
      <trkpt lat="43.02099" lon="1.9639">
        <ele>361</ele>
        <time>2025-08-06T08:52:51.000Z</time>
      </trkpt>
      <trkpt lat="43.02128" lon="1.96395">
        <ele>361.39999389648</ele>
        <time>2025-08-06T08:52:59.000Z</time>
      </trkpt>
      <trkpt lat="43.02152" lon="1.96397">
        <ele>361.39999389648</ele>
        <time>2025-08-06T08:53:05.000Z</time>
      </trkpt>
      <trkpt lat="43.0216" lon="1.96397">
        <ele>361.39999389648</ele>
        <time>2025-08-06T08:53:07.000Z</time>
      </trkpt>
      <trkpt lat="43.02182" lon="1.96397">
        <ele>361.39999389648</ele>
        <time>2025-08-06T08:53:13.000Z</time>
      </trkpt>
      <trkpt lat="43.02195" lon="1.96397">
        <ele>361.20001220703</ele>
        <time>2025-08-06T08:53:17.000Z</time>
      </trkpt>
      <trkpt lat="43.02202" lon="1.96399">
        <ele>361.20001220703</ele>
        <time>2025-08-06T08:53:19.000Z</time>
      </trkpt>
      <trkpt lat="43.02208" lon="1.964">
        <ele>360.79998779297</ele>
        <time>2025-08-06T08:53:23.000Z</time>
      </trkpt>
      <trkpt lat="43.0221" lon="1.964">
        <ele>360.60000610352</ele>
        <time>2025-08-06T08:53:25.000Z</time>
      </trkpt>
      <trkpt lat="43.02211" lon="1.964">
        <ele>360.60000610352</ele>
        <time>2025-08-06T08:53:28.000Z</time>
      </trkpt>
      <trkpt lat="43.02217" lon="1.96398">
        <ele>359.79998779297</ele>
        <time>2025-08-06T08:55:35.000Z</time>
      </trkpt>
      <trkpt lat="43.02218" lon="1.96398">
        <ele>359.60000610352</ele>
        <time>2025-08-06T08:55:37.000Z</time>
      </trkpt>
      <trkpt lat="43.02222" lon="1.96399">
        <ele>359.60000610352</ele>
        <time>2025-08-06T08:55:45.000Z</time>
      </trkpt>
      <trkpt lat="43.02224" lon="1.964">
        <ele>359.79998779297</ele>
        <time>2025-08-06T08:55:46.000Z</time>
      </trkpt>
      <trkpt lat="43.02238" lon="1.964">
        <ele>359.79998779297</ele>
        <time>2025-08-06T08:55:52.000Z</time>
      </trkpt>
      <trkpt lat="43.02243" lon="1.96401">
        <ele>359.79998779297</ele>
        <time>2025-08-06T08:55:55.000Z</time>
      </trkpt>
      <trkpt lat="43.02243" lon="1.96401">
        <ele>359.79998779297</ele>
        <time>2025-08-06T08:55:57.000Z</time>
      </trkpt>
      <trkpt lat="43.02249" lon="1.96401">
        <ele>359.60000610352</ele>
        <time>2025-08-06T08:56:57.000Z</time>
      </trkpt>
      <trkpt lat="43.02255" lon="1.96401">
        <ele>359.60000610352</ele>
        <time>2025-08-06T08:57:00.000Z</time>
      </trkpt>
      <trkpt lat="43.02272" lon="1.964">
        <ele>360</ele>
        <time>2025-08-06T08:57:08.000Z</time>
      </trkpt>
      <trkpt lat="43.02288" lon="1.96398">
        <ele>360</ele>
        <time>2025-08-06T08:57:14.000Z</time>
      </trkpt>
      <trkpt lat="43.02317" lon="1.96392">
        <ele>360.39999389648</ele>
        <time>2025-08-06T08:57:23.000Z</time>
      </trkpt>
      <trkpt lat="43.02343" lon="1.96386">
        <ele>360.60000610352</ele>
        <time>2025-08-06T08:57:30.000Z</time>
      </trkpt>
      <trkpt lat="43.02373" lon="1.96374">
        <ele>360.60000610352</ele>
        <time>2025-08-06T08:57:38.000Z</time>
      </trkpt>
      <trkpt lat="43.02397" lon="1.96363">
        <ele>360.39999389648</ele>
        <time>2025-08-06T08:57:44.000Z</time>
      </trkpt>
      <trkpt lat="43.0243" lon="1.96344">
        <ele>360.39999389648</ele>
        <time>2025-08-06T08:57:53.000Z</time>
      </trkpt>
      <trkpt lat="43.02459" lon="1.96319">
        <ele>360.60000610352</ele>
        <time>2025-08-06T08:58:02.000Z</time>
      </trkpt>
      <trkpt lat="43.02487" lon="1.96292">
        <ele>360.39999389648</ele>
        <time>2025-08-06T08:58:11.000Z</time>
      </trkpt>
      <trkpt lat="43.02512" lon="1.96263">
        <ele>360.39999389648</ele>
        <time>2025-08-06T08:58:19.000Z</time>
      </trkpt>
      <trkpt lat="43.02526" lon="1.96243">
        <ele>360.39999389648</ele>
        <time>2025-08-06T08:58:24.000Z</time>
      </trkpt>
      <trkpt lat="43.02547" lon="1.96212">
        <ele>360.39999389648</ele>
        <time>2025-08-06T08:58:32.000Z</time>
      </trkpt>
      <trkpt lat="43.02563" lon="1.96184">
        <ele>360.20001220703</ele>
        <time>2025-08-06T08:58:39.000Z</time>
      </trkpt>
      <trkpt lat="43.02578" lon="1.96151">
        <ele>360</ele>
        <time>2025-08-06T08:58:46.000Z</time>
      </trkpt>
      <trkpt lat="43.0259" lon="1.96122">
        <ele>360</ele>
        <time>2025-08-06T08:58:53.000Z</time>
      </trkpt>
      <trkpt lat="43.02592" lon="1.96117">
        <ele>360</ele>
        <time>2025-08-06T08:58:54.000Z</time>
      </trkpt>
      <trkpt lat="43.02602" lon="1.96081">
        <ele>359.79998779297</ele>
        <time>2025-08-06T08:59:01.000Z</time>
      </trkpt>
      <trkpt lat="43.02607" lon="1.96051">
        <ele>359.79998779297</ele>
        <time>2025-08-06T08:59:07.000Z</time>
      </trkpt>
      <trkpt lat="43.02609" lon="1.96035">
        <ele>359.60000610352</ele>
        <time>2025-08-06T08:59:10.000Z</time>
      </trkpt>
      <trkpt lat="43.02613" lon="1.96014">
        <ele>359.39999389648</ele>
        <time>2025-08-06T08:59:14.000Z</time>
      </trkpt>
      <trkpt lat="43.02616" lon="1.95975">
        <ele>359.20001220703</ele>
        <time>2025-08-06T08:59:20.000Z</time>
      </trkpt>
      <trkpt lat="43.02617" lon="1.9597">
        <ele>359.20001220703</ele>
        <time>2025-08-06T08:59:21.000Z</time>
      </trkpt>
      <trkpt lat="43.02621" lon="1.95953">
        <ele>359.20001220703</ele>
        <time>2025-08-06T08:59:24.000Z</time>
      </trkpt>
      <trkpt lat="43.02622" lon="1.95921">
        <ele>358.79998779297</ele>
        <time>2025-08-06T08:59:29.000Z</time>
      </trkpt>
      <trkpt lat="43.02625" lon="1.959">
        <ele>358.79998779297</ele>
        <time>2025-08-06T08:59:32.000Z</time>
      </trkpt>
      <trkpt lat="43.02631" lon="1.95866">
        <ele>358.60000610352</ele>
        <time>2025-08-06T08:59:38.000Z</time>
      </trkpt>
      <trkpt lat="43.02633" lon="1.95854">
        <ele>358.39999389648</ele>
        <time>2025-08-06T08:59:40.000Z</time>
      </trkpt>
      <trkpt lat="43.02634" lon="1.95816">
        <ele>358.20001220703</ele>
        <time>2025-08-06T08:59:47.000Z</time>
      </trkpt>
      <trkpt lat="43.02636" lon="1.95785">
        <ele>358</ele>
        <time>2025-08-06T08:59:52.000Z</time>
      </trkpt>
      <trkpt lat="43.02638" lon="1.95753">
        <ele>357.60000610352</ele>
        <time>2025-08-06T08:59:57.000Z</time>
      </trkpt>
      <trkpt lat="43.02639" lon="1.9574">
        <ele>357.60000610352</ele>
        <time>2025-08-06T08:59:59.000Z</time>
      </trkpt>
      <trkpt lat="43.02641" lon="1.95727">
        <ele>357.39999389648</ele>
        <time>2025-08-06T09:00:01.000Z</time>
      </trkpt>
      <trkpt lat="43.02642" lon="1.95716">
        <ele>357.39999389648</ele>
        <time>2025-08-06T09:00:03.000Z</time>
      </trkpt>
      <trkpt lat="43.02642" lon="1.95694">
        <ele>357.60000610352</ele>
        <time>2025-08-06T09:00:07.000Z</time>
      </trkpt>
      <trkpt lat="43.02647" lon="1.95659">
        <ele>357.39999389648</ele>
        <time>2025-08-06T09:00:12.000Z</time>
      </trkpt>
      <trkpt lat="43.02653" lon="1.95634">
        <ele>357.20001220703</ele>
        <time>2025-08-06T09:00:16.000Z</time>
      </trkpt>
      <trkpt lat="43.02655" lon="1.95611">
        <ele>357.39999389648</ele>
        <time>2025-08-06T09:00:20.000Z</time>
      </trkpt>
      <trkpt lat="43.02665" lon="1.95582">
        <ele>357.20001220703</ele>
        <time>2025-08-06T09:00:25.000Z</time>
      </trkpt>
      <trkpt lat="43.02678" lon="1.95543">
        <ele>357</ele>
        <time>2025-08-06T09:00:32.000Z</time>
      </trkpt>
      <trkpt lat="43.02689" lon="1.95506">
        <ele>357</ele>
        <time>2025-08-06T09:00:39.000Z</time>
      </trkpt>
      <trkpt lat="43.0271" lon="1.95465">
        <ele>356.79998779297</ele>
        <time>2025-08-06T09:00:47.000Z</time>
      </trkpt>
      <trkpt lat="43.02722" lon="1.95441">
        <ele>356.79998779297</ele>
        <time>2025-08-06T09:00:52.000Z</time>
      </trkpt>
      <trkpt lat="43.0273" lon="1.95418">
        <ele>356.79998779297</ele>
        <time>2025-08-06T09:00:57.000Z</time>
      </trkpt>
      <trkpt lat="43.02743" lon="1.954">
        <ele>356.60000610352</ele>
        <time>2025-08-06T09:01:02.000Z</time>
      </trkpt>
      <trkpt lat="43.0276" lon="1.95373">
        <ele>356.39999389648</ele>
        <time>2025-08-06T09:01:09.000Z</time>
      </trkpt>
      <trkpt lat="43.02776" lon="1.95354">
        <ele>356.39999389648</ele>
        <time>2025-08-06T09:01:14.000Z</time>
      </trkpt>
      <trkpt lat="43.02782" lon="1.95345">
        <ele>356.39999389648</ele>
        <time>2025-08-06T09:01:16.000Z</time>
      </trkpt>
      <trkpt lat="43.02803" lon="1.95318">
        <ele>356.39999389648</ele>
        <time>2025-08-06T09:01:22.000Z</time>
      </trkpt>
      <trkpt lat="43.02821" lon="1.95299">
        <ele>356.39999389648</ele>
        <time>2025-08-06T09:01:27.000Z</time>
      </trkpt>
      <trkpt lat="43.02828" lon="1.95292">
        <ele>356.39999389648</ele>
        <time>2025-08-06T09:01:29.000Z</time>
      </trkpt>
      <trkpt lat="43.02832" lon="1.95289">
        <ele>356.39999389648</ele>
        <time>2025-08-06T09:01:30.000Z</time>
      </trkpt>
      <trkpt lat="43.02843" lon="1.95278">
        <ele>356.39999389648</ele>
        <time>2025-08-06T09:01:33.000Z</time>
      </trkpt>
      <trkpt lat="43.0285" lon="1.95269">
        <ele>356.20001220703</ele>
        <time>2025-08-06T09:01:35.000Z</time>
      </trkpt>
      <trkpt lat="43.02871" lon="1.95248">
        <ele>356</ele>
        <time>2025-08-06T09:01:41.000Z</time>
      </trkpt>
      <trkpt lat="43.02877" lon="1.95241">
        <ele>356</ele>
        <time>2025-08-06T09:01:43.000Z</time>
      </trkpt>
      <trkpt lat="43.0288" lon="1.95238">
        <ele>356</ele>
        <time>2025-08-06T09:01:44.000Z</time>
      </trkpt>
      <trkpt lat="43.02892" lon="1.95224">
        <ele>355.79998779297</ele>
        <time>2025-08-06T09:01:48.000Z</time>
      </trkpt>
      <trkpt lat="43.02916" lon="1.95198">
        <ele>355.60000610352</ele>
        <time>2025-08-06T09:01:55.000Z</time>
      </trkpt>
      <trkpt lat="43.02935" lon="1.95182">
        <ele>355.60000610352</ele>
        <time>2025-08-06T09:02:00.000Z</time>
      </trkpt>
      <trkpt lat="43.02958" lon="1.95158">
        <ele>355.39999389648</ele>
        <time>2025-08-06T09:02:06.000Z</time>
      </trkpt>
      <trkpt lat="43.02981" lon="1.95135">
        <ele>355</ele>
        <time>2025-08-06T09:02:12.000Z</time>
      </trkpt>
      <trkpt lat="43.03001" lon="1.95118">
        <ele>355</ele>
        <time>2025-08-06T09:02:17.000Z</time>
      </trkpt>
      <trkpt lat="43.03005" lon="1.95114">
        <ele>355</ele>
        <time>2025-08-06T09:02:18.000Z</time>
      </trkpt>
      <trkpt lat="43.0302" lon="1.95097">
        <ele>355</ele>
        <time>2025-08-06T09:02:22.000Z</time>
      </trkpt>
      <trkpt lat="43.03027" lon="1.9509">
        <ele>354.79998779297</ele>
        <time>2025-08-06T09:02:24.000Z</time>
      </trkpt>
      <trkpt lat="43.03051" lon="1.95067">
        <ele>354.79998779297</ele>
        <time>2025-08-06T09:02:31.000Z</time>
      </trkpt>
      <trkpt lat="43.03072" lon="1.95043">
        <ele>354.60000610352</ele>
        <time>2025-08-06T09:02:37.000Z</time>
      </trkpt>
      <trkpt lat="43.03079" lon="1.95036">
        <ele>354.60000610352</ele>
        <time>2025-08-06T09:02:39.000Z</time>
      </trkpt>
      <trkpt lat="43.03085" lon="1.95027">
        <ele>354.60000610352</ele>
        <time>2025-08-06T09:02:41.000Z</time>
      </trkpt>
      <trkpt lat="43.03101" lon="1.95005">
        <ele>354.39999389648</ele>
        <time>2025-08-06T09:02:46.000Z</time>
      </trkpt>
      <trkpt lat="43.03106" lon="1.94996">
        <ele>354.39999389648</ele>
        <time>2025-08-06T09:02:48.000Z</time>
      </trkpt>
      <trkpt lat="43.03118" lon="1.94977">
        <ele>354.20001220703</ele>
        <time>2025-08-06T09:02:52.000Z</time>
      </trkpt>
      <trkpt lat="43.03129" lon="1.94957">
        <ele>354</ele>
        <time>2025-08-06T09:02:56.000Z</time>
      </trkpt>
      <trkpt lat="43.03135" lon="1.94946">
        <ele>354</ele>
        <time>2025-08-06T09:02:58.000Z</time>
      </trkpt>
      <trkpt lat="43.03151" lon="1.94912">
        <ele>353.60000610352</ele>
        <time>2025-08-06T09:03:05.000Z</time>
      </trkpt>
      <trkpt lat="43.03157" lon="1.949">
        <ele>353.60000610352</ele>
        <time>2025-08-06T09:03:07.000Z</time>
      </trkpt>
      <trkpt lat="43.03174" lon="1.94862">
        <ele>353.39999389648</ele>
        <time>2025-08-06T09:03:13.000Z</time>
      </trkpt>
      <trkpt lat="43.0319" lon="1.94824">
        <ele>353.39999389648</ele>
        <time>2025-08-06T09:03:20.000Z</time>
      </trkpt>
      <trkpt lat="43.03191" lon="1.94818">
        <ele>353.20001220703</ele>
        <time>2025-08-06T09:03:21.000Z</time>
      </trkpt>
      <trkpt lat="43.03198" lon="1.94796">
        <ele>353.20001220703</ele>
        <time>2025-08-06T09:03:25.000Z</time>
      </trkpt>
      <trkpt lat="43.03208" lon="1.94778">
        <ele>353</ele>
        <time>2025-08-06T09:03:28.000Z</time>
      </trkpt>
      <trkpt lat="43.03217" lon="1.9475">
        <ele>352.79998779297</ele>
        <time>2025-08-06T09:03:33.000Z</time>
      </trkpt>
      <trkpt lat="43.03227" lon="1.9472">
        <ele>352.60000610352</ele>
        <time>2025-08-06T09:03:39.000Z</time>
      </trkpt>
      <trkpt lat="43.03243" lon="1.94681">
        <ele>352.39999389648</ele>
        <time>2025-08-06T09:03:46.000Z</time>
      </trkpt>
      <trkpt lat="43.03247" lon="1.94671">
        <ele>352.39999389648</ele>
        <time>2025-08-06T09:03:48.000Z</time>
      </trkpt>
      <trkpt lat="43.03251" lon="1.9466">
        <ele>352.39999389648</ele>
        <time>2025-08-06T09:03:50.000Z</time>
      </trkpt>
      <trkpt lat="43.03253" lon="1.94654">
        <ele>352.39999389648</ele>
        <time>2025-08-06T09:03:51.000Z</time>
      </trkpt>
      <trkpt lat="43.03263" lon="1.94625">
        <ele>352</ele>
        <time>2025-08-06T09:03:56.000Z</time>
      </trkpt>
      <trkpt lat="43.03265" lon="1.94618">
        <ele>352</ele>
        <time>2025-08-06T09:03:57.000Z</time>
      </trkpt>
      <trkpt lat="43.03273" lon="1.94596">
        <ele>351.79998779297</ele>
        <time>2025-08-06T09:04:01.000Z</time>
      </trkpt>
      <trkpt lat="43.03282" lon="1.94567">
        <ele>351.79998779297</ele>
        <time>2025-08-06T09:04:06.000Z</time>
      </trkpt>
      <trkpt lat="43.03289" lon="1.94539">
        <ele>351.79998779297</ele>
        <time>2025-08-06T09:04:11.000Z</time>
      </trkpt>
      <trkpt lat="43.03303" lon="1.94508">
        <ele>351.60000610352</ele>
        <time>2025-08-06T09:04:16.000Z</time>
      </trkpt>
      <trkpt lat="43.03324" lon="1.94464">
        <ele>351.39999389648</ele>
        <time>2025-08-06T09:04:24.000Z</time>
      </trkpt>
      <trkpt lat="43.03333" lon="1.94436">
        <ele>351.20001220703</ele>
        <time>2025-08-06T09:04:29.000Z</time>
      </trkpt>
      <trkpt lat="43.0334" lon="1.94421">
        <ele>351</ele>
        <time>2025-08-06T09:04:32.000Z</time>
      </trkpt>
      <trkpt lat="43.03345" lon="1.94412">
        <ele>351</ele>
        <time>2025-08-06T09:04:34.000Z</time>
      </trkpt>
      <trkpt lat="43.0335" lon="1.94403">
        <ele>350.79998779297</ele>
        <time>2025-08-06T09:04:36.000Z</time>
      </trkpt>
      <trkpt lat="43.03366" lon="1.94373">
        <ele>350.60000610352</ele>
        <time>2025-08-06T09:04:42.000Z</time>
      </trkpt>
      <trkpt lat="43.03368" lon="1.94369">
        <ele>350.60000610352</ele>
        <time>2025-08-06T09:04:43.000Z</time>
      </trkpt>
      <trkpt lat="43.03372" lon="1.94364">
        <ele>350.60000610352</ele>
        <time>2025-08-06T09:04:44.000Z</time>
      </trkpt>
      <trkpt lat="43.03386" lon="1.94346">
        <ele>350.39999389648</ele>
        <time>2025-08-06T09:04:48.000Z</time>
      </trkpt>
      <trkpt lat="43.0339" lon="1.94343">
        <ele>350.39999389648</ele>
        <time>2025-08-06T09:04:49.000Z</time>
      </trkpt>
      <trkpt lat="43.03394" lon="1.94338">
        <ele>350.39999389648</ele>
        <time>2025-08-06T09:04:50.000Z</time>
      </trkpt>
      <trkpt lat="43.03412" lon="1.94315">
        <ele>350.20001220703</ele>
        <time>2025-08-06T09:04:55.000Z</time>
      </trkpt>
      <trkpt lat="43.03415" lon="1.94311">
        <ele>350</ele>
        <time>2025-08-06T09:04:56.000Z</time>
      </trkpt>
      <trkpt lat="43.0343" lon="1.94296">
        <ele>349.79998779297</ele>
        <time>2025-08-06T09:05:00.000Z</time>
      </trkpt>
      <trkpt lat="43.03439" lon="1.94283">
        <ele>349.79998779297</ele>
        <time>2025-08-06T09:05:03.000Z</time>
      </trkpt>
      <trkpt lat="43.0346" lon="1.94266">
        <ele>349.79998779297</ele>
        <time>2025-08-06T09:05:09.000Z</time>
      </trkpt>
      <trkpt lat="43.0349" lon="1.94248">
        <ele>349.60000610352</ele>
        <time>2025-08-06T09:05:17.000Z</time>
      </trkpt>
      <trkpt lat="43.03527" lon="1.94228">
        <ele>349.60000610352</ele>
        <time>2025-08-06T09:05:26.000Z</time>
      </trkpt>
      <trkpt lat="43.03553" lon="1.94216">
        <ele>349.39999389648</ele>
        <time>2025-08-06T09:05:32.000Z</time>
      </trkpt>
      <trkpt lat="43.03566" lon="1.94211">
        <ele>349.20001220703</ele>
        <time>2025-08-06T09:05:35.000Z</time>
      </trkpt>
      <trkpt lat="43.03591" lon="1.94204">
        <ele>349</ele>
        <time>2025-08-06T09:05:41.000Z</time>
      </trkpt>
      <trkpt lat="43.03609" lon="1.94201">
        <ele>349</ele>
        <time>2025-08-06T09:05:45.000Z</time>
      </trkpt>
      <trkpt lat="43.03623" lon="1.942">
        <ele>348.79998779297</ele>
        <time>2025-08-06T09:05:48.000Z</time>
      </trkpt>
      <trkpt lat="43.03661" lon="1.94199">
        <ele>348.39999389648</ele>
        <time>2025-08-06T09:05:56.000Z</time>
      </trkpt>
      <trkpt lat="43.03691" lon="1.942">
        <ele>348.20001220703</ele>
        <time>2025-08-06T09:06:02.000Z</time>
      </trkpt>
      <trkpt lat="43.03706" lon="1.94202">
        <ele>347.79998779297</ele>
        <time>2025-08-06T09:06:05.000Z</time>
      </trkpt>
      <trkpt lat="43.03749" lon="1.94209">
        <ele>347</ele>
        <time>2025-08-06T09:06:14.000Z</time>
      </trkpt>
      <trkpt lat="43.03767" lon="1.9421">
        <ele>346.79998779297</ele>
        <time>2025-08-06T09:06:18.000Z</time>
      </trkpt>
      <trkpt lat="43.03772" lon="1.94211">
        <ele>346.79998779297</ele>
        <time>2025-08-06T09:06:19.000Z</time>
      </trkpt>
      <trkpt lat="43.03788" lon="1.94213">
        <ele>346.60000610352</ele>
        <time>2025-08-06T09:06:23.000Z</time>
      </trkpt>
      <trkpt lat="43.03814" lon="1.94216">
        <ele>346.39999389648</ele>
        <time>2025-08-06T09:06:29.000Z</time>
      </trkpt>
      <trkpt lat="43.03835" lon="1.9422">
        <ele>346.20001220703</ele>
        <time>2025-08-06T09:06:33.000Z</time>
      </trkpt>
      <trkpt lat="43.0384" lon="1.9422">
        <ele>346</ele>
        <time>2025-08-06T09:06:34.000Z</time>
      </trkpt>
      <trkpt lat="43.03881" lon="1.94225">
        <ele>345.60000610352</ele>
        <time>2025-08-06T09:06:42.000Z</time>
      </trkpt>
      <trkpt lat="43.03912" lon="1.94231">
        <ele>345.20001220703</ele>
        <time>2025-08-06T09:06:48.000Z</time>
      </trkpt>
      <trkpt lat="43.03917" lon="1.94231">
        <ele>345.20001220703</ele>
        <time>2025-08-06T09:06:49.000Z</time>
      </trkpt>
      <trkpt lat="43.03946" lon="1.94229">
        <ele>345.20001220703</ele>
        <time>2025-08-06T09:06:55.000Z</time>
      </trkpt>
      <trkpt lat="43.03971" lon="1.94234">
        <ele>345</ele>
        <time>2025-08-06T09:07:00.000Z</time>
      </trkpt>
      <trkpt lat="43.03981" lon="1.94236">
        <ele>345</ele>
        <time>2025-08-06T09:07:02.000Z</time>
      </trkpt>
      <trkpt lat="43.03985" lon="1.94237">
        <ele>345</ele>
        <time>2025-08-06T09:07:03.000Z</time>
      </trkpt>
      <trkpt lat="43.04" lon="1.94239">
        <ele>345</ele>
        <time>2025-08-06T09:07:07.000Z</time>
      </trkpt>
      <trkpt lat="43.04007" lon="1.9424">
        <ele>345</ele>
        <time>2025-08-06T09:07:09.000Z</time>
      </trkpt>
      <trkpt lat="43.04029" lon="1.94243">
        <ele>344.79998779297</ele>
        <time>2025-08-06T09:07:14.000Z</time>
      </trkpt>
      <trkpt lat="43.04042" lon="1.94244">
        <ele>344.60000610352</ele>
        <time>2025-08-06T09:07:17.000Z</time>
      </trkpt>
      <trkpt lat="43.04065" lon="1.94248">
        <ele>344.39999389648</ele>
        <time>2025-08-06T09:07:22.000Z</time>
      </trkpt>
      <trkpt lat="43.04089" lon="1.94252">
        <ele>344.39999389648</ele>
        <time>2025-08-06T09:07:27.000Z</time>
      </trkpt>
      <trkpt lat="43.04125" lon="1.94253">
        <ele>344.20001220703</ele>
        <time>2025-08-06T09:07:34.000Z</time>
      </trkpt>
      <trkpt lat="43.04135" lon="1.94255">
        <ele>344.20001220703</ele>
        <time>2025-08-06T09:07:36.000Z</time>
      </trkpt>
      <trkpt lat="43.04166" lon="1.94266">
        <ele>344</ele>
        <time>2025-08-06T09:07:42.000Z</time>
      </trkpt>
      <trkpt lat="43.04174" lon="1.94266">
        <ele>344</ele>
        <time>2025-08-06T09:07:44.000Z</time>
      </trkpt>
      <trkpt lat="43.04212" lon="1.94268">
        <ele>344</ele>
        <time>2025-08-06T09:07:53.000Z</time>
      </trkpt>
      <trkpt lat="43.04254" lon="1.94273">
        <ele>343.79998779297</ele>
        <time>2025-08-06T09:08:03.000Z</time>
      </trkpt>
      <trkpt lat="43.04276" lon="1.94275">
        <ele>343.60000610352</ele>
        <time>2025-08-06T09:08:08.000Z</time>
      </trkpt>
      <trkpt lat="43.04285" lon="1.94276">
        <ele>343.39999389648</ele>
        <time>2025-08-06T09:08:10.000Z</time>
      </trkpt>
      <trkpt lat="43.04289" lon="1.94276">
        <ele>343.39999389648</ele>
        <time>2025-08-06T09:08:11.000Z</time>
      </trkpt>
      <trkpt lat="43.04324" lon="1.9428">
        <ele>343.60000610352</ele>
        <time>2025-08-06T09:08:19.000Z</time>
      </trkpt>
      <trkpt lat="43.04349" lon="1.94284">
        <ele>343.79998779297</ele>
        <time>2025-08-06T09:08:25.000Z</time>
      </trkpt>
      <trkpt lat="43.04358" lon="1.94284">
        <ele>343.79998779297</ele>
        <time>2025-08-06T09:08:27.000Z</time>
      </trkpt>
      <trkpt lat="43.04374" lon="1.94288">
        <ele>343.79998779297</ele>
        <time>2025-08-06T09:08:31.000Z</time>
      </trkpt>
      <trkpt lat="43.04413" lon="1.94293">
        <ele>344</ele>
        <time>2025-08-06T09:08:40.000Z</time>
      </trkpt>
      <trkpt lat="43.04443" lon="1.94296">
        <ele>344.20001220703</ele>
        <time>2025-08-06T09:08:47.000Z</time>
      </trkpt>
      <trkpt lat="43.04467" lon="1.94297">
        <ele>344.20001220703</ele>
        <time>2025-08-06T09:08:53.000Z</time>
      </trkpt>
      <trkpt lat="43.04484" lon="1.94302">
        <ele>344.39999389648</ele>
        <time>2025-08-06T09:08:58.000Z</time>
      </trkpt>
      <trkpt lat="43.04517" lon="1.94303">
        <ele>344.39999389648</ele>
        <time>2025-08-06T09:09:06.000Z</time>
      </trkpt>
      <trkpt lat="43.04543" lon="1.94306">
        <ele>344.39999389648</ele>
        <time>2025-08-06T09:09:13.000Z</time>
      </trkpt>
      <trkpt lat="43.04555" lon="1.94311">
        <ele>344.39999389648</ele>
        <time>2025-08-06T09:09:17.000Z</time>
      </trkpt>
      <trkpt lat="43.04589" lon="1.94313">
        <ele>344.39999389648</ele>
        <time>2025-08-06T09:09:27.000Z</time>
      </trkpt>
      <trkpt lat="43.04613" lon="1.94316">
        <ele>344.39999389648</ele>
        <time>2025-08-06T09:09:35.000Z</time>
      </trkpt>
      <trkpt lat="43.04633" lon="1.9432">
        <ele>344.39999389648</ele>
        <time>2025-08-06T09:09:41.000Z</time>
      </trkpt>
      <trkpt lat="43.04649" lon="1.94322">
        <ele>344.39999389648</ele>
        <time>2025-08-06T09:09:46.000Z</time>
      </trkpt>
      <trkpt lat="43.04677" lon="1.94323">
        <ele>344.20001220703</ele>
        <time>2025-08-06T09:09:53.000Z</time>
      </trkpt>
      <trkpt lat="43.04707" lon="1.94328">
        <ele>344</ele>
        <time>2025-08-06T09:10:01.000Z</time>
      </trkpt>
      <trkpt lat="43.04733" lon="1.94331">
        <ele>343.60000610352</ele>
        <time>2025-08-06T09:10:07.000Z</time>
      </trkpt>
      <trkpt lat="43.04749" lon="1.94337">
        <ele>343.39999389648</ele>
        <time>2025-08-06T09:10:11.000Z</time>
      </trkpt>
      <trkpt lat="43.04763" lon="1.94341">
        <ele>343.20001220703</ele>
        <time>2025-08-06T09:10:14.000Z</time>
      </trkpt>
      <trkpt lat="43.04767" lon="1.94343">
        <ele>343.20001220703</ele>
        <time>2025-08-06T09:10:15.000Z</time>
      </trkpt>
      <trkpt lat="43.04798" lon="1.94354">
        <ele>343</ele>
        <time>2025-08-06T09:10:22.000Z</time>
      </trkpt>
      <trkpt lat="43.04815" lon="1.9436">
        <ele>343.20001220703</ele>
        <time>2025-08-06T09:10:26.000Z</time>
      </trkpt>
      <trkpt lat="43.04833" lon="1.9437">
        <ele>343</ele>
        <time>2025-08-06T09:10:30.000Z</time>
      </trkpt>
      <trkpt lat="43.04865" lon="1.94389">
        <ele>342.79998779297</ele>
        <time>2025-08-06T09:10:37.000Z</time>
      </trkpt>
      <trkpt lat="43.04899" lon="1.9441">
        <ele>342.60000610352</ele>
        <time>2025-08-06T09:10:44.000Z</time>
      </trkpt>
      <trkpt lat="43.04912" lon="1.9442">
        <ele>342.60000610352</ele>
        <time>2025-08-06T09:10:47.000Z</time>
      </trkpt>
      <trkpt lat="43.04922" lon="1.94428">
        <ele>342.60000610352</ele>
        <time>2025-08-06T09:10:49.000Z</time>
      </trkpt>
      <trkpt lat="43.04936" lon="1.9444">
        <ele>342.60000610352</ele>
        <time>2025-08-06T09:10:52.000Z</time>
      </trkpt>
      <trkpt lat="43.0494" lon="1.94444">
        <ele>342.60000610352</ele>
        <time>2025-08-06T09:10:53.000Z</time>
      </trkpt>
      <trkpt lat="43.04949" lon="1.9445">
        <ele>342.39999389648</ele>
        <time>2025-08-06T09:10:55.000Z</time>
      </trkpt>
      <trkpt lat="43.04953" lon="1.94452">
        <ele>342.39999389648</ele>
        <time>2025-08-06T09:10:56.000Z</time>
      </trkpt>
      <trkpt lat="43.04963" lon="1.9446">
        <ele>342.20001220703</ele>
        <time>2025-08-06T09:10:58.000Z</time>
      </trkpt>
      <trkpt lat="43.0497" lon="1.94465">
        <ele>342.20001220703</ele>
        <time>2025-08-06T09:11:00.000Z</time>
      </trkpt>
      <trkpt lat="43.0498" lon="1.94472">
        <ele>342</ele>
        <time>2025-08-06T09:11:02.000Z</time>
      </trkpt>
      <trkpt lat="43.05001" lon="1.9449">
        <ele>341.79998779297</ele>
        <time>2025-08-06T09:11:06.000Z</time>
      </trkpt>
      <trkpt lat="43.05005" lon="1.94491">
        <ele>341.79998779297</ele>
        <time>2025-08-06T09:11:07.000Z</time>
      </trkpt>
      <trkpt lat="43.05023" lon="1.94502">
        <ele>341.60000610352</ele>
        <time>2025-08-06T09:11:11.000Z</time>
      </trkpt>
      <trkpt lat="43.05032" lon="1.94507">
        <ele>341.60000610352</ele>
        <time>2025-08-06T09:11:13.000Z</time>
      </trkpt>
      <trkpt lat="43.05044" lon="1.94515">
        <ele>341.60000610352</ele>
        <time>2025-08-06T09:11:16.000Z</time>
      </trkpt>
      <trkpt lat="43.05052" lon="1.94523">
        <ele>341.39999389648</ele>
        <time>2025-08-06T09:11:18.000Z</time>
      </trkpt>
      <trkpt lat="43.05061" lon="1.9453">
        <ele>341.20001220703</ele>
        <time>2025-08-06T09:11:20.000Z</time>
      </trkpt>
      <trkpt lat="43.05082" lon="1.9455">
        <ele>341</ele>
        <time>2025-08-06T09:11:25.000Z</time>
      </trkpt>
      <trkpt lat="43.0509" lon="1.94557">
        <ele>341</ele>
        <time>2025-08-06T09:11:27.000Z</time>
      </trkpt>
      <trkpt lat="43.05113" lon="1.94576">
        <ele>341</ele>
        <time>2025-08-06T09:11:32.000Z</time>
      </trkpt>
      <trkpt lat="43.05118" lon="1.94579">
        <ele>341</ele>
        <time>2025-08-06T09:11:33.000Z</time>
      </trkpt>
      <trkpt lat="43.05132" lon="1.94589">
        <ele>341</ele>
        <time>2025-08-06T09:11:36.000Z</time>
      </trkpt>
      <trkpt lat="43.05147" lon="1.94599">
        <ele>340.79998779297</ele>
        <time>2025-08-06T09:11:39.000Z</time>
      </trkpt>
      <trkpt lat="43.05155" lon="1.94606">
        <ele>340.79998779297</ele>
        <time>2025-08-06T09:11:41.000Z</time>
      </trkpt>
      <trkpt lat="43.05161" lon="1.94613">
        <ele>340.79998779297</ele>
        <time>2025-08-06T09:11:43.000Z</time>
      </trkpt>
      <trkpt lat="43.05195" lon="1.9464">
        <ele>340.39999389648</ele>
        <time>2025-08-06T09:11:51.000Z</time>
      </trkpt>
      <trkpt lat="43.05229" lon="1.94666">
        <ele>340.20001220703</ele>
        <time>2025-08-06T09:11:59.000Z</time>
      </trkpt>
      <trkpt lat="43.05263" lon="1.94688">
        <ele>340</ele>
        <time>2025-08-06T09:12:07.000Z</time>
      </trkpt>
      <trkpt lat="43.05293" lon="1.94705">
        <ele>339.79998779297</ele>
        <time>2025-08-06T09:12:14.000Z</time>
      </trkpt>
      <trkpt lat="43.05302" lon="1.94709">
        <ele>339.79998779297</ele>
        <time>2025-08-06T09:12:16.000Z</time>
      </trkpt>
      <trkpt lat="43.05337" lon="1.94723">
        <ele>339.79998779297</ele>
        <time>2025-08-06T09:12:24.000Z</time>
      </trkpt>
      <trkpt lat="43.05373" lon="1.94738">
        <ele>339.60000610352</ele>
        <time>2025-08-06T09:12:32.000Z</time>
      </trkpt>
      <trkpt lat="43.05377" lon="1.9474">
        <ele>339.60000610352</ele>
        <time>2025-08-06T09:12:33.000Z</time>
      </trkpt>
      <trkpt lat="43.05387" lon="1.94743">
        <ele>339.60000610352</ele>
        <time>2025-08-06T09:12:35.000Z</time>
      </trkpt>
      <trkpt lat="43.05419" lon="1.94751">
        <ele>339.39999389648</ele>
        <time>2025-08-06T09:12:42.000Z</time>
      </trkpt>
      <trkpt lat="43.05456" lon="1.94759">
        <ele>339.20001220703</ele>
        <time>2025-08-06T09:12:50.000Z</time>
      </trkpt>
      <trkpt lat="43.05496" lon="1.94765">
        <ele>339.39999389648</ele>
        <time>2025-08-06T09:12:59.000Z</time>
      </trkpt>
      <trkpt lat="43.05531" lon="1.9477">
        <ele>339.60000610352</ele>
        <time>2025-08-06T09:13:07.000Z</time>
      </trkpt>
      <trkpt lat="43.05564" lon="1.94774">
        <ele>339.79998779297</ele>
        <time>2025-08-06T09:13:15.000Z</time>
      </trkpt>
      <trkpt lat="43.05568" lon="1.94774">
        <ele>339.79998779297</ele>
        <time>2025-08-06T09:13:16.000Z</time>
      </trkpt>
      <trkpt lat="43.05595" lon="1.9477">
        <ele>339.39999389648</ele>
        <time>2025-08-06T09:13:22.000Z</time>
      </trkpt>
      <trkpt lat="43.0564" lon="1.94765">
        <ele>339.20001220703</ele>
        <time>2025-08-06T09:13:32.000Z</time>
      </trkpt>
      <trkpt lat="43.05671" lon="1.94761">
        <ele>339.39999389648</ele>
        <time>2025-08-06T09:13:39.000Z</time>
      </trkpt>
      <trkpt lat="43.05675" lon="1.94759">
        <ele>339.39999389648</ele>
        <time>2025-08-06T09:13:40.000Z</time>
      </trkpt>
      <trkpt lat="43.05706" lon="1.94752">
        <ele>339.39999389648</ele>
        <time>2025-08-06T09:13:47.000Z</time>
      </trkpt>
      <trkpt lat="43.05743" lon="1.94738">
        <ele>339.79998779297</ele>
        <time>2025-08-06T09:13:56.000Z</time>
      </trkpt>
      <trkpt lat="43.05776" lon="1.94723">
        <ele>340</ele>
        <time>2025-08-06T09:14:04.000Z</time>
      </trkpt>
      <trkpt lat="43.05784" lon="1.94718">
        <ele>340</ele>
        <time>2025-08-06T09:14:06.000Z</time>
      </trkpt>
      <trkpt lat="43.05793" lon="1.94715">
        <ele>340</ele>
        <time>2025-08-06T09:14:08.000Z</time>
      </trkpt>
      <trkpt lat="43.05798" lon="1.94712">
        <ele>340</ele>
        <time>2025-08-06T09:14:09.000Z</time>
      </trkpt>
      <trkpt lat="43.05825" lon="1.94699">
        <ele>340.39999389648</ele>
        <time>2025-08-06T09:14:15.000Z</time>
      </trkpt>
      <trkpt lat="43.05833" lon="1.94694">
        <ele>340.39999389648</ele>
        <time>2025-08-06T09:14:17.000Z</time>
      </trkpt>
      <trkpt lat="43.05849" lon="1.94688">
        <ele>340.60000610352</ele>
        <time>2025-08-06T09:14:21.000Z</time>
      </trkpt>
      <trkpt lat="43.05857" lon="1.94684">
        <ele>340.79998779297</ele>
        <time>2025-08-06T09:14:23.000Z</time>
      </trkpt>
      <trkpt lat="43.05864" lon="1.94679">
        <ele>340.79998779297</ele>
        <time>2025-08-06T09:14:25.000Z</time>
      </trkpt>
      <trkpt lat="43.05878" lon="1.9467">
        <ele>341</ele>
        <time>2025-08-06T09:14:29.000Z</time>
      </trkpt>
      <trkpt lat="43.05895" lon="1.94653">
        <ele>341</ele>
        <time>2025-08-06T09:14:34.000Z</time>
      </trkpt>
      <trkpt lat="43.05916" lon="1.94637">
        <ele>341.20001220703</ele>
        <time>2025-08-06T09:14:40.000Z</time>
      </trkpt>
      <trkpt lat="43.05948" lon="1.94608">
        <ele>341.39999389648</ele>
        <time>2025-08-06T09:14:48.000Z</time>
      </trkpt>
      <trkpt lat="43.05967" lon="1.94592">
        <ele>341.60000610352</ele>
        <time>2025-08-06T09:14:53.000Z</time>
      </trkpt>
      <trkpt lat="43.05976" lon="1.94584">
        <ele>341.79998779297</ele>
        <time>2025-08-06T09:14:56.000Z</time>
      </trkpt>
      <trkpt lat="43.06006" lon="1.9456">
        <ele>341.79998779297</ele>
        <time>2025-08-06T09:15:04.000Z</time>
      </trkpt>
      <trkpt lat="43.06026" lon="1.94541">
        <ele>342</ele>
        <time>2025-08-06T09:15:10.000Z</time>
      </trkpt>
      <trkpt lat="43.0604" lon="1.94528">
        <ele>342</ele>
        <time>2025-08-06T09:15:14.000Z</time>
      </trkpt>
      <trkpt lat="43.06047" lon="1.94523">
        <ele>342</ele>
        <time>2025-08-06T09:15:16.000Z</time>
      </trkpt>
      <trkpt lat="43.0605" lon="1.94519">
        <ele>342</ele>
        <time>2025-08-06T09:15:17.000Z</time>
      </trkpt>
      <trkpt lat="43.06057" lon="1.94511">
        <ele>342</ele>
        <time>2025-08-06T09:15:19.000Z</time>
      </trkpt>
      <trkpt lat="43.06072" lon="1.94498">
        <ele>342.20001220703</ele>
        <time>2025-08-06T09:15:23.000Z</time>
      </trkpt>
      <trkpt lat="43.06099" lon="1.94471">
        <ele>342.20001220703</ele>
        <time>2025-08-06T09:15:31.000Z</time>
      </trkpt>
      <trkpt lat="43.06122" lon="1.94448">
        <ele>342.39999389648</ele>
        <time>2025-08-06T09:15:38.000Z</time>
      </trkpt>
      <trkpt lat="43.06139" lon="1.94433">
        <ele>342.39999389648</ele>
        <time>2025-08-06T09:15:43.000Z</time>
      </trkpt>
      <trkpt lat="43.06162" lon="1.9441">
        <ele>342.79998779297</ele>
        <time>2025-08-06T09:15:50.000Z</time>
      </trkpt>
      <trkpt lat="43.06179" lon="1.94394">
        <ele>342.79998779297</ele>
        <time>2025-08-06T09:15:55.000Z</time>
      </trkpt>
      <trkpt lat="43.06218" lon="1.94361">
        <ele>343</ele>
        <time>2025-08-06T09:16:04.000Z</time>
      </trkpt>
      <trkpt lat="43.06249" lon="1.94331">
        <ele>343</ele>
        <time>2025-08-06T09:16:13.000Z</time>
      </trkpt>
      <trkpt lat="43.06257" lon="1.94324">
        <ele>343</ele>
        <time>2025-08-06T09:16:15.000Z</time>
      </trkpt>
      <trkpt lat="43.06265" lon="1.94318">
        <ele>343</ele>
        <time>2025-08-06T09:16:17.000Z</time>
      </trkpt>
      <trkpt lat="43.06275" lon="1.94308">
        <ele>343</ele>
        <time>2025-08-06T09:16:20.000Z</time>
      </trkpt>
      <trkpt lat="43.06282" lon="1.94301">
        <ele>343</ele>
        <time>2025-08-06T09:16:22.000Z</time>
      </trkpt>
      <trkpt lat="43.06301" lon="1.94285">
        <ele>342.79998779297</ele>
        <time>2025-08-06T09:16:27.000Z</time>
      </trkpt>
      <trkpt lat="43.06326" lon="1.94259">
        <ele>343</ele>
        <time>2025-08-06T09:16:35.000Z</time>
      </trkpt>
      <trkpt lat="43.06356" lon="1.94232">
        <ele>343.39999389648</ele>
        <time>2025-08-06T09:16:44.000Z</time>
      </trkpt>
      <trkpt lat="43.06385" lon="1.94214">
        <ele>343.79998779297</ele>
        <time>2025-08-06T09:16:52.000Z</time>
      </trkpt>
      <trkpt lat="43.06419" lon="1.94197">
        <ele>343.79998779297</ele>
        <time>2025-08-06T09:17:01.000Z</time>
      </trkpt>
      <trkpt lat="43.06444" lon="1.94187">
        <ele>343.60000610352</ele>
        <time>2025-08-06T09:17:08.000Z</time>
      </trkpt>
      <trkpt lat="43.06462" lon="1.94183">
        <ele>343.60000610352</ele>
        <time>2025-08-06T09:17:13.000Z</time>
      </trkpt>
      <trkpt lat="43.06485" lon="1.9418">
        <ele>343.60000610352</ele>
        <time>2025-08-06T09:17:19.000Z</time>
      </trkpt>
      <trkpt lat="43.0652" lon="1.94181">
        <ele>343.79998779297</ele>
        <time>2025-08-06T09:17:27.000Z</time>
      </trkpt>
      <trkpt lat="43.06537" lon="1.94182">
        <ele>344</ele>
        <time>2025-08-06T09:17:32.000Z</time>
      </trkpt>
      <trkpt lat="43.06541" lon="1.94183">
        <ele>344</ele>
        <time>2025-08-06T09:17:33.000Z</time>
      </trkpt>
      <trkpt lat="43.06576" lon="1.94186">
        <ele>344</ele>
        <time>2025-08-06T09:17:42.000Z</time>
      </trkpt>
      <trkpt lat="43.06613" lon="1.94195">
        <ele>344.20001220703</ele>
        <time>2025-08-06T09:17:51.000Z</time>
      </trkpt>
      <trkpt lat="43.06638" lon="1.94205">
        <ele>344.39999389648</ele>
        <time>2025-08-06T09:17:57.000Z</time>
      </trkpt>
      <trkpt lat="43.06662" lon="1.94217">
        <ele>344.60000610352</ele>
        <time>2025-08-06T09:18:03.000Z</time>
      </trkpt>
      <trkpt lat="43.06683" lon="1.94231">
        <ele>344.39999389648</ele>
        <time>2025-08-06T09:18:09.000Z</time>
      </trkpt>
      <trkpt lat="43.06703" lon="1.94246">
        <ele>344.39999389648</ele>
        <time>2025-08-06T09:18:14.000Z</time>
      </trkpt>
      <trkpt lat="43.06711" lon="1.94253">
        <ele>344.39999389648</ele>
        <time>2025-08-06T09:18:16.000Z</time>
      </trkpt>
      <trkpt lat="43.06719" lon="1.94259">
        <ele>344.39999389648</ele>
        <time>2025-08-06T09:18:18.000Z</time>
      </trkpt>
      <trkpt lat="43.06734" lon="1.94269">
        <ele>344.39999389648</ele>
        <time>2025-08-06T09:18:22.000Z</time>
      </trkpt>
      <trkpt lat="43.06769" lon="1.94296">
        <ele>344.39999389648</ele>
        <time>2025-08-06T09:18:31.000Z</time>
      </trkpt>
      <trkpt lat="43.06794" lon="1.94318">
        <ele>344</ele>
        <time>2025-08-06T09:18:38.000Z</time>
      </trkpt>
      <trkpt lat="43.06801" lon="1.94324">
        <ele>344</ele>
        <time>2025-08-06T09:18:40.000Z</time>
      </trkpt>
      <trkpt lat="43.06826" lon="1.94344">
        <ele>343.79998779297</ele>
        <time>2025-08-06T09:18:47.000Z</time>
      </trkpt>
      <trkpt lat="43.06868" lon="1.94377">
        <ele>343.60000610352</ele>
        <time>2025-08-06T09:18:58.000Z</time>
      </trkpt>
      <trkpt lat="43.06894" lon="1.94398">
        <ele>343.60000610352</ele>
        <time>2025-08-06T09:19:05.000Z</time>
      </trkpt>
      <trkpt lat="43.06905" lon="1.94407">
        <ele>343.60000610352</ele>
        <time>2025-08-06T09:19:08.000Z</time>
      </trkpt>
      <trkpt lat="43.06913" lon="1.94413">
        <ele>343.60000610352</ele>
        <time>2025-08-06T09:19:10.000Z</time>
      </trkpt>
      <trkpt lat="43.06939" lon="1.94432">
        <ele>343.39999389648</ele>
        <time>2025-08-06T09:19:17.000Z</time>
      </trkpt>
      <trkpt lat="43.06942" lon="1.94434">
        <ele>343.39999389648</ele>
        <time>2025-08-06T09:19:18.000Z</time>
      </trkpt>
      <trkpt lat="43.0695" lon="1.94441">
        <ele>343.39999389648</ele>
        <time>2025-08-06T09:19:20.000Z</time>
      </trkpt>
      <trkpt lat="43.06958" lon="1.94446">
        <ele>343.39999389648</ele>
        <time>2025-08-06T09:19:22.000Z</time>
      </trkpt>
      <trkpt lat="43.06978" lon="1.94462">
        <ele>343.20001220703</ele>
        <time>2025-08-06T09:19:27.000Z</time>
      </trkpt>
      <trkpt lat="43.06987" lon="1.94469">
        <ele>343.20001220703</ele>
        <time>2025-08-06T09:19:29.000Z</time>
      </trkpt>
      <trkpt lat="43.0699" lon="1.94472">
        <ele>343.20001220703</ele>
        <time>2025-08-06T09:19:30.000Z</time>
      </trkpt>
      <trkpt lat="43.07018" lon="1.94494">
        <ele>343</ele>
        <time>2025-08-06T09:19:37.000Z</time>
      </trkpt>
      <trkpt lat="43.07049" lon="1.94511">
        <ele>342.79998779297</ele>
        <time>2025-08-06T09:19:45.000Z</time>
      </trkpt>
      <trkpt lat="43.07079" lon="1.94528">
        <ele>342.79998779297</ele>
        <time>2025-08-06T09:19:53.000Z</time>
      </trkpt>
      <trkpt lat="43.07091" lon="1.94534">
        <ele>342.60000610352</ele>
        <time>2025-08-06T09:19:57.000Z</time>
      </trkpt>
      <trkpt lat="43.07094" lon="1.94535">
        <ele>342.60000610352</ele>
        <time>2025-08-06T09:19:58.000Z</time>
      </trkpt>
      <trkpt lat="43.07097" lon="1.94529">
        <ele>342.39999389648</ele>
        <time>2025-08-06T09:20:00.000Z</time>
      </trkpt>
      <trkpt lat="43.07099" lon="1.94521">
        <ele>341.79998779297</ele>
        <time>2025-08-06T09:20:02.000Z</time>
      </trkpt>
      <trkpt lat="43.07105" lon="1.94516">
        <ele>341.60000610352</ele>
        <time>2025-08-06T09:20:04.000Z</time>
      </trkpt>
      <trkpt lat="43.07113" lon="1.94519">
        <ele>340.79998779297</ele>
        <time>2025-08-06T09:20:06.000Z</time>
      </trkpt>
      <trkpt lat="43.07116" lon="1.94522">
        <ele>340.20001220703</ele>
        <time>2025-08-06T09:20:07.000Z</time>
      </trkpt>
      <trkpt lat="43.07125" lon="1.94526">
        <ele>339.79998779297</ele>
        <time>2025-08-06T09:20:10.000Z</time>
      </trkpt>
      <trkpt lat="43.07129" lon="1.9453">
        <ele>339.60000610352</ele>
        <time>2025-08-06T09:20:12.000Z</time>
      </trkpt>
      <trkpt lat="43.07138" lon="1.94539">
        <ele>340.39999389648</ele>
        <time>2025-08-06T09:20:17.000Z</time>
      </trkpt>
      <trkpt lat="43.07141" lon="1.94543">
        <ele>340.79998779297</ele>
        <time>2025-08-06T09:20:19.000Z</time>
      </trkpt>
      <trkpt lat="43.07144" lon="1.94547">
        <ele>341.20001220703</ele>
        <time>2025-08-06T09:20:21.000Z</time>
      </trkpt>
      <trkpt lat="43.07143" lon="1.9455">
        <ele>341.20001220703</ele>
        <time>2025-08-06T09:20:22.000Z</time>
      </trkpt>
      <trkpt lat="43.07143" lon="1.94555">
        <ele>341.39999389648</ele>
        <time>2025-08-06T09:20:24.000Z</time>
      </trkpt>
      <trkpt lat="43.07145" lon="1.94559">
        <ele>341.60000610352</ele>
        <time>2025-08-06T09:20:26.000Z</time>
      </trkpt>
      <trkpt lat="43.07156" lon="1.9456">
        <ele>342</ele>
        <time>2025-08-06T09:20:30.000Z</time>
      </trkpt>
      <trkpt lat="43.07165" lon="1.94562">
        <ele>342</ele>
        <time>2025-08-06T09:20:33.000Z</time>
      </trkpt>
      <trkpt lat="43.07193" lon="1.94568">
        <ele>342.20001220703</ele>
        <time>2025-08-06T09:20:41.000Z</time>
      </trkpt>
      <trkpt lat="43.07223" lon="1.9457">
        <ele>342.39999389648</ele>
        <time>2025-08-06T09:20:49.000Z</time>
      </trkpt>
      <trkpt lat="43.07259" lon="1.9457">
        <ele>342.20001220703</ele>
        <time>2025-08-06T09:20:58.000Z</time>
      </trkpt>
      <trkpt lat="43.0729" lon="1.9457">
        <ele>342</ele>
        <time>2025-08-06T09:21:05.000Z</time>
      </trkpt>
      <trkpt lat="43.07303" lon="1.94569">
        <ele>342</ele>
        <time>2025-08-06T09:21:08.000Z</time>
      </trkpt>
      <trkpt lat="43.07316" lon="1.94569">
        <ele>342</ele>
        <time>2025-08-06T09:21:11.000Z</time>
      </trkpt>
      <trkpt lat="43.07349" lon="1.94569">
        <ele>341.79998779297</ele>
        <time>2025-08-06T09:21:19.000Z</time>
      </trkpt>
      <trkpt lat="43.07385" lon="1.94571">
        <ele>341.60000610352</ele>
        <time>2025-08-06T09:21:27.000Z</time>
      </trkpt>
      <trkpt lat="43.07413" lon="1.94572">
        <ele>341.39999389648</ele>
        <time>2025-08-06T09:21:33.000Z</time>
      </trkpt>
      <trkpt lat="43.0743" lon="1.94575">
        <ele>341.20001220703</ele>
        <time>2025-08-06T09:21:37.000Z</time>
      </trkpt>
      <trkpt lat="43.0747" lon="1.94583">
        <ele>341.20001220703</ele>
        <time>2025-08-06T09:21:46.000Z</time>
      </trkpt>
      <trkpt lat="43.07482" lon="1.94585">
        <ele>341.20001220703</ele>
        <time>2025-08-06T09:21:49.000Z</time>
      </trkpt>
      <trkpt lat="43.07494" lon="1.94588">
        <ele>341.20001220703</ele>
        <time>2025-08-06T09:21:52.000Z</time>
      </trkpt>
      <trkpt lat="43.07528" lon="1.94601">
        <ele>341.20001220703</ele>
        <time>2025-08-06T09:22:00.000Z</time>
      </trkpt>
      <trkpt lat="43.0754" lon="1.94606">
        <ele>341</ele>
        <time>2025-08-06T09:22:03.000Z</time>
      </trkpt>
      <trkpt lat="43.07548" lon="1.94611">
        <ele>341</ele>
        <time>2025-08-06T09:22:05.000Z</time>
      </trkpt>
      <trkpt lat="43.0756" lon="1.94619">
        <ele>340.79998779297</ele>
        <time>2025-08-06T09:22:08.000Z</time>
      </trkpt>
      <trkpt lat="43.07589" lon="1.94642">
        <ele>340.60000610352</ele>
        <time>2025-08-06T09:22:15.000Z</time>
      </trkpt>
      <trkpt lat="43.07626" lon="1.94675">
        <ele>340.20001220703</ele>
        <time>2025-08-06T09:22:25.000Z</time>
      </trkpt>
      <trkpt lat="43.07629" lon="1.94678">
        <ele>340.20001220703</ele>
        <time>2025-08-06T09:22:26.000Z</time>
      </trkpt>
      <trkpt lat="43.07641" lon="1.94694">
        <ele>340.20001220703</ele>
        <time>2025-08-06T09:22:30.000Z</time>
      </trkpt>
      <trkpt lat="43.07644" lon="1.94698">
        <ele>340</ele>
        <time>2025-08-06T09:22:31.000Z</time>
      </trkpt>
      <trkpt lat="43.07656" lon="1.94713">
        <ele>340</ele>
        <time>2025-08-06T09:22:35.000Z</time>
      </trkpt>
      <trkpt lat="43.0766" lon="1.94718">
        <ele>340</ele>
        <time>2025-08-06T09:22:37.000Z</time>
      </trkpt>
      <trkpt lat="43.07662" lon="1.94719">
        <ele>340</ele>
        <time>2025-08-06T09:22:38.000Z</time>
      </trkpt>
      <trkpt lat="43.07667" lon="1.94722">
        <ele>340</ele>
        <time>2025-08-06T09:22:41.000Z</time>
      </trkpt>
      <trkpt lat="43.07669" lon="1.94722">
        <ele>340</ele>
        <time>2025-08-06T09:22:42.000Z</time>
      </trkpt>
      <trkpt lat="43.0767" lon="1.94719">
        <ele>339.60000610352</ele>
        <time>2025-08-06T09:22:44.000Z</time>
      </trkpt>
      <trkpt lat="43.0767" lon="1.94717">
        <ele>339.60000610352</ele>
        <time>2025-08-06T09:22:45.000Z</time>
      </trkpt>
      <trkpt lat="43.0767" lon="1.94713">
        <ele>339.39999389648</ele>
        <time>2025-08-06T09:22:47.000Z</time>
      </trkpt>
      <trkpt lat="43.07667" lon="1.94703">
        <ele>339.39999389648</ele>
        <time>2025-08-06T09:22:50.000Z</time>
      </trkpt>
      <trkpt lat="43.07665" lon="1.94685">
        <ele>338.79998779297</ele>
        <time>2025-08-06T09:22:54.000Z</time>
      </trkpt>
      <trkpt lat="43.07664" lon="1.94681">
        <ele>338.79998779297</ele>
        <time>2025-08-06T09:22:55.000Z</time>
      </trkpt>
      <trkpt lat="43.0766" lon="1.94655">
        <ele>338.39999389648</ele>
        <time>2025-08-06T09:23:00.000Z</time>
      </trkpt>
      <trkpt lat="43.07653" lon="1.94619">
        <ele>337.79998779297</ele>
        <time>2025-08-06T09:23:06.000Z</time>
      </trkpt>
      <trkpt lat="43.07651" lon="1.94613">
        <ele>337.79998779297</ele>
        <time>2025-08-06T09:23:07.000Z</time>
      </trkpt>
      <trkpt lat="43.07639" lon="1.94583">
        <ele>336.79998779297</ele>
        <time>2025-08-06T09:23:13.000Z</time>
      </trkpt>
      <trkpt lat="43.07636" lon="1.94579">
        <ele>336.79998779297</ele>
        <time>2025-08-06T09:23:14.000Z</time>
      </trkpt>
      <trkpt lat="43.07634" lon="1.94574">
        <ele>336.39999389648</ele>
        <time>2025-08-06T09:23:15.000Z</time>
      </trkpt>
      <trkpt lat="43.07624" lon="1.94561">
        <ele>336</ele>
        <time>2025-08-06T09:23:18.000Z</time>
      </trkpt>
      <trkpt lat="43.07623" lon="1.94557">
        <ele>336</ele>
        <time>2025-08-06T09:23:19.000Z</time>
      </trkpt>
      <trkpt lat="43.07623" lon="1.94547">
        <ele>335.60000610352</ele>
        <time>2025-08-06T09:23:21.000Z</time>
      </trkpt>
      <trkpt lat="43.07621" lon="1.94544">
        <ele>335.60000610352</ele>
        <time>2025-08-06T09:23:22.000Z</time>
      </trkpt>
      <trkpt lat="43.07619" lon="1.94541">
        <ele>335</ele>
        <time>2025-08-06T09:23:23.000Z</time>
      </trkpt>
      <trkpt lat="43.07616" lon="1.9454">
        <ele>334.79998779297</ele>
        <time>2025-08-06T09:23:25.000Z</time>
      </trkpt>
      <trkpt lat="43.07614" lon="1.9454">
        <ele>334.79998779297</ele>
        <time>2025-08-06T09:23:26.000Z</time>
      </trkpt>
      <trkpt lat="43.07611" lon="1.94538">
        <ele>334.39999389648</ele>
        <time>2025-08-06T09:23:29.000Z</time>
      </trkpt>
      <trkpt lat="43.07611" lon="1.94538">
        <ele>334.20001220703</ele>
        <time>2025-08-06T09:23:32.000Z</time>
      </trkpt>
      <trkpt lat="43.07607" lon="1.94544">
        <ele>332.60000610352</ele>
        <time>2025-08-06T09:36:08.000Z</time>
      </trkpt>
      <trkpt lat="43.07605" lon="1.94545">
        <ele>332.79998779297</ele>
        <time>2025-08-06T09:36:09.000Z</time>
      </trkpt>
      <trkpt lat="43.07592" lon="1.94546">
        <ele>332.79998779297</ele>
        <time>2025-08-06T09:36:15.000Z</time>
      </trkpt>
      <trkpt lat="43.0757" lon="1.94537">
        <ele>332.79998779297</ele>
        <time>2025-08-06T09:36:21.000Z</time>
      </trkpt>
      <trkpt lat="43.07566" lon="1.94535">
        <ele>332.79998779297</ele>
        <time>2025-08-06T09:36:22.000Z</time>
      </trkpt>
      <trkpt lat="43.07544" lon="1.94527">
        <ele>332.60000610352</ele>
        <time>2025-08-06T09:36:27.000Z</time>
      </trkpt>
      <trkpt lat="43.07535" lon="1.94522">
        <ele>332.39999389648</ele>
        <time>2025-08-06T09:36:31.000Z</time>
      </trkpt>
      <trkpt lat="43.07535" lon="1.94522">
        <ele>332</ele>
        <time>2025-08-06T09:36:34.000Z</time>
      </trkpt>
      <trkpt lat="43.07532" lon="1.94527">
        <ele>331.20001220703</ele>
        <time>2025-08-06T09:38:41.000Z</time>
      </trkpt>
      <trkpt lat="43.07536" lon="1.94527">
        <ele>331.20001220703</ele>
        <time>2025-08-06T09:38:44.000Z</time>
      </trkpt>
      <trkpt lat="43.07538" lon="1.94529">
        <ele>331.39999389648</ele>
        <time>2025-08-06T09:38:45.000Z</time>
      </trkpt>
      <trkpt lat="43.07557" lon="1.94537">
        <ele>332.39999389648</ele>
        <time>2025-08-06T09:38:52.000Z</time>
      </trkpt>
      <trkpt lat="43.07579" lon="1.94545">
        <ele>333.20001220703</ele>
        <time>2025-08-06T09:38:59.000Z</time>
      </trkpt>
      <trkpt lat="43.07582" lon="1.94546">
        <ele>333.39999389648</ele>
        <time>2025-08-06T09:39:00.000Z</time>
      </trkpt>
      <trkpt lat="43.07611" lon="1.94558">
        <ele>334.39999389648</ele>
        <time>2025-08-06T09:39:09.000Z</time>
      </trkpt>
      <trkpt lat="43.07614" lon="1.94561">
        <ele>334.39999389648</ele>
        <time>2025-08-06T09:39:10.000Z</time>
      </trkpt>
      <trkpt lat="43.07626" lon="1.94574">
        <ele>334.79998779297</ele>
        <time>2025-08-06T09:39:14.000Z</time>
      </trkpt>
      <trkpt lat="43.0764" lon="1.94596">
        <ele>335.39999389648</ele>
        <time>2025-08-06T09:39:20.000Z</time>
      </trkpt>
      <trkpt lat="43.07642" lon="1.94599">
        <ele>335.60000610352</ele>
        <time>2025-08-06T09:39:21.000Z</time>
      </trkpt>
      <trkpt lat="43.07652" lon="1.94633">
        <ele>336.20001220703</ele>
        <time>2025-08-06T09:39:29.000Z</time>
      </trkpt>
      <trkpt lat="43.07653" lon="1.94638">
        <ele>336.39999389648</ele>
        <time>2025-08-06T09:39:30.000Z</time>
      </trkpt>
      <trkpt lat="43.07658" lon="1.94672">
        <ele>337.39999389648</ele>
        <time>2025-08-06T09:39:37.000Z</time>
      </trkpt>
      <trkpt lat="43.07659" lon="1.94677">
        <ele>337.60000610352</ele>
        <time>2025-08-06T09:39:38.000Z</time>
      </trkpt>
      <trkpt lat="43.07663" lon="1.94708">
        <ele>338.60000610352</ele>
        <time>2025-08-06T09:39:45.000Z</time>
      </trkpt>
      <trkpt lat="43.07664" lon="1.94726">
        <ele>339.39999389648</ele>
        <time>2025-08-06T09:39:50.000Z</time>
      </trkpt>
      <trkpt lat="43.07668" lon="1.94738">
        <ele>339.60000610352</ele>
        <time>2025-08-06T09:39:55.000Z</time>
      </trkpt>
      <trkpt lat="43.07678" lon="1.94752">
        <ele>339.60000610352</ele>
        <time>2025-08-06T09:40:00.000Z</time>
      </trkpt>
      <trkpt lat="43.0768" lon="1.94755">
        <ele>339.60000610352</ele>
        <time>2025-08-06T09:40:01.000Z</time>
      </trkpt>
      <trkpt lat="43.07691" lon="1.94776">
        <ele>339.39999389648</ele>
        <time>2025-08-06T09:40:06.000Z</time>
      </trkpt>
      <trkpt lat="43.07708" lon="1.94808">
        <ele>339.20001220703</ele>
        <time>2025-08-06T09:40:14.000Z</time>
      </trkpt>
      <trkpt lat="43.07718" lon="1.94818">
        <ele>339</ele>
        <time>2025-08-06T09:40:18.000Z</time>
      </trkpt>
      <trkpt lat="43.07722" lon="1.94815">
        <ele>339</ele>
        <time>2025-08-06T09:40:20.000Z</time>
      </trkpt>
      <trkpt lat="43.07723" lon="1.94812">
        <ele>339</ele>
        <time>2025-08-06T09:40:21.000Z</time>
      </trkpt>
      <trkpt lat="43.07714" lon="1.94785">
        <ele>339.20001220703</ele>
        <time>2025-08-06T09:40:27.000Z</time>
      </trkpt>
      <trkpt lat="43.07703" lon="1.94751">
        <ele>339</ele>
        <time>2025-08-06T09:40:34.000Z</time>
      </trkpt>
      <trkpt lat="43.07692" lon="1.94718">
        <ele>339</ele>
        <time>2025-08-06T09:40:41.000Z</time>
      </trkpt>
      <trkpt lat="43.07677" lon="1.94672">
        <ele>339</ele>
        <time>2025-08-06T09:40:50.000Z</time>
      </trkpt>
      <trkpt lat="43.07672" lon="1.9465">
        <ele>339</ele>
        <time>2025-08-06T09:40:54.000Z</time>
      </trkpt>
      <trkpt lat="43.07669" lon="1.94639">
        <ele>339</ele>
        <time>2025-08-06T09:40:56.000Z</time>
      </trkpt>
      <trkpt lat="43.07662" lon="1.94603">
        <ele>338.79998779297</ele>
        <time>2025-08-06T09:41:02.000Z</time>
      </trkpt>
      <trkpt lat="43.0766" lon="1.94592">
        <ele>338.60000610352</ele>
        <time>2025-08-06T09:41:04.000Z</time>
      </trkpt>
      <trkpt lat="43.07659" lon="1.94586">
        <ele>338.60000610352</ele>
        <time>2025-08-06T09:41:05.000Z</time>
      </trkpt>
      <trkpt lat="43.07653" lon="1.94536">
        <ele>338</ele>
        <time>2025-08-06T09:41:14.000Z</time>
      </trkpt>
      <trkpt lat="43.0765" lon="1.94489">
        <ele>337.60000610352</ele>
        <time>2025-08-06T09:41:22.000Z</time>
      </trkpt>
      <trkpt lat="43.07649" lon="1.94483">
        <ele>337.60000610352</ele>
        <time>2025-08-06T09:41:23.000Z</time>
      </trkpt>
      <trkpt lat="43.07648" lon="1.94472">
        <ele>337.60000610352</ele>
        <time>2025-08-06T09:41:25.000Z</time>
      </trkpt>
      <trkpt lat="43.07648" lon="1.94438">
        <ele>337.39999389648</ele>
        <time>2025-08-06T09:41:31.000Z</time>
      </trkpt>
      <trkpt lat="43.07651" lon="1.94392">
        <ele>337.60000610352</ele>
        <time>2025-08-06T09:41:39.000Z</time>
      </trkpt>
      <trkpt lat="43.07651" lon="1.94335">
        <ele>337.20001220703</ele>
        <time>2025-08-06T09:41:49.000Z</time>
      </trkpt>
      <trkpt lat="43.07651" lon="1.94311">
        <ele>336.79998779297</ele>
        <time>2025-08-06T09:41:53.000Z</time>
      </trkpt>
      <trkpt lat="43.07651" lon="1.94305">
        <ele>336.79998779297</ele>
        <time>2025-08-06T09:41:54.000Z</time>
      </trkpt>
      <trkpt lat="43.0765" lon="1.94282">
        <ele>336.60000610352</ele>
        <time>2025-08-06T09:41:58.000Z</time>
      </trkpt>
      <trkpt lat="43.07651" lon="1.94247">
        <ele>336</ele>
        <time>2025-08-06T09:42:04.000Z</time>
      </trkpt>
      <trkpt lat="43.07652" lon="1.94221">
        <ele>335.79998779297</ele>
        <time>2025-08-06T09:42:08.000Z</time>
      </trkpt>
      <trkpt lat="43.07651" lon="1.94201">
        <ele>335.79998779297</ele>
        <time>2025-08-06T09:42:11.000Z</time>
      </trkpt>
      <trkpt lat="43.07654" lon="1.94165">
        <ele>335.39999389648</ele>
        <time>2025-08-06T09:42:17.000Z</time>
      </trkpt>
      <trkpt lat="43.07657" lon="1.94119">
        <ele>335</ele>
        <time>2025-08-06T09:42:25.000Z</time>
      </trkpt>
      <trkpt lat="43.07656" lon="1.94113">
        <ele>335</ele>
        <time>2025-08-06T09:42:26.000Z</time>
      </trkpt>
      <trkpt lat="43.07657" lon="1.94072">
        <ele>334.60000610352</ele>
        <time>2025-08-06T09:42:33.000Z</time>
      </trkpt>
      <trkpt lat="43.07659" lon="1.94024">
        <ele>334</ele>
        <time>2025-08-06T09:42:41.000Z</time>
      </trkpt>
      <trkpt lat="43.07662" lon="1.93995">
        <ele>334</ele>
        <time>2025-08-06T09:42:46.000Z</time>
      </trkpt>
      <trkpt lat="43.07664" lon="1.93984">
        <ele>334</ele>
        <time>2025-08-06T09:42:48.000Z</time>
      </trkpt>
      <trkpt lat="43.07664" lon="1.93978">
        <ele>334</ele>
        <time>2025-08-06T09:42:49.000Z</time>
      </trkpt>
      <trkpt lat="43.07667" lon="1.93954">
        <ele>334</ele>
        <time>2025-08-06T09:42:53.000Z</time>
      </trkpt>
      <trkpt lat="43.07668" lon="1.93944">
        <ele>334</ele>
        <time>2025-08-06T09:42:55.000Z</time>
      </trkpt>
      <trkpt lat="43.07671" lon="1.93922">
        <ele>334</ele>
        <time>2025-08-06T09:42:59.000Z</time>
      </trkpt>
      <trkpt lat="43.07673" lon="1.9391">
        <ele>334</ele>
        <time>2025-08-06T09:43:01.000Z</time>
      </trkpt>
      <trkpt lat="43.07682" lon="1.93876">
        <ele>334</ele>
        <time>2025-08-06T09:43:07.000Z</time>
      </trkpt>
      <trkpt lat="43.07704" lon="1.9382">
        <ele>334</ele>
        <time>2025-08-06T09:43:18.000Z</time>
      </trkpt>
      <trkpt lat="43.07713" lon="1.93796">
        <ele>334.20001220703</ele>
        <time>2025-08-06T09:43:23.000Z</time>
      </trkpt>
      <trkpt lat="43.07727" lon="1.93777">
        <ele>334</ele>
        <time>2025-08-06T09:43:29.000Z</time>
      </trkpt>
      <trkpt lat="43.07738" lon="1.93761">
        <ele>333.60000610352</ele>
        <time>2025-08-06T09:43:33.000Z</time>
      </trkpt>
      <trkpt lat="43.07741" lon="1.93756">
        <ele>333.60000610352</ele>
        <time>2025-08-06T09:43:34.000Z</time>
      </trkpt>
      <trkpt lat="43.07744" lon="1.93752">
        <ele>333</ele>
        <time>2025-08-06T09:43:35.000Z</time>
      </trkpt>
      <trkpt lat="43.07754" lon="1.93739">
        <ele>332</ele>
        <time>2025-08-06T09:43:38.000Z</time>
      </trkpt>
      <trkpt lat="43.0776" lon="1.9373">
        <ele>331</ele>
        <time>2025-08-06T09:43:40.000Z</time>
      </trkpt>
      <trkpt lat="43.07763" lon="1.93725">
        <ele>330.79998779297</ele>
        <time>2025-08-06T09:43:41.000Z</time>
      </trkpt>
      <trkpt lat="43.07773" lon="1.93707">
        <ele>329.79998779297</ele>
        <time>2025-08-06T09:43:46.000Z</time>
      </trkpt>
      <trkpt lat="43.07773" lon="1.93704">
        <ele>329.79998779297</ele>
        <time>2025-08-06T09:43:50.000Z</time>
      </trkpt>
      <trkpt lat="43.0777" lon="1.937">
        <ele>329.60000610352</ele>
        <time>2025-08-06T09:43:52.000Z</time>
      </trkpt>
      <trkpt lat="43.07765" lon="1.937">
        <ele>329.39999389648</ele>
        <time>2025-08-06T09:43:54.000Z</time>
      </trkpt>
      <trkpt lat="43.0775" lon="1.93701">
        <ele>329</ele>
        <time>2025-08-06T09:43:59.000Z</time>
      </trkpt>
      <trkpt lat="43.07739" lon="1.93712">
        <ele>329</ele>
        <time>2025-08-06T09:44:04.000Z</time>
      </trkpt>
      <trkpt lat="43.07733" lon="1.93725">
        <ele>329</ele>
        <time>2025-08-06T09:44:09.000Z</time>
      </trkpt>
      <trkpt lat="43.07733" lon="1.93727">
        <ele>329.39999389648</ele>
        <time>2025-08-06T09:44:11.000Z</time>
      </trkpt>
      <trkpt lat="43.07737" lon="1.93726">
        <ele>329.79998779297</ele>
        <time>2025-08-06T09:44:13.000Z</time>
      </trkpt>
      <trkpt lat="43.07746" lon="1.9372">
        <ele>330.79998779297</ele>
        <time>2025-08-06T09:44:18.000Z</time>
      </trkpt>
      <trkpt lat="43.07752" lon="1.93716">
        <ele>332</ele>
        <time>2025-08-06T09:44:21.000Z</time>
      </trkpt>
      <trkpt lat="43.07754" lon="1.93714">
        <ele>332.39999389648</ele>
        <time>2025-08-06T09:44:22.000Z</time>
      </trkpt>
      <trkpt lat="43.07756" lon="1.9371">
        <ele>333</ele>
        <time>2025-08-06T09:44:24.000Z</time>
      </trkpt>
      <trkpt lat="43.07762" lon="1.93705">
        <ele>333.20001220703</ele>
        <time>2025-08-06T09:44:27.000Z</time>
      </trkpt>
      <trkpt lat="43.07767" lon="1.93697">
        <ele>333.79998779297</ele>
        <time>2025-08-06T09:44:30.000Z</time>
      </trkpt>
      <trkpt lat="43.07771" lon="1.9369">
        <ele>333.79998779297</ele>
        <time>2025-08-06T09:44:32.000Z</time>
      </trkpt>
      <trkpt lat="43.07779" lon="1.93675">
        <ele>334</ele>
        <time>2025-08-06T09:44:37.000Z</time>
      </trkpt>
      <trkpt lat="43.07795" lon="1.93652">
        <ele>334</ele>
        <time>2025-08-06T09:44:44.000Z</time>
      </trkpt>
      <trkpt lat="43.07811" lon="1.93633">
        <ele>334</ele>
        <time>2025-08-06T09:44:50.000Z</time>
      </trkpt>
      <trkpt lat="43.07829" lon="1.93611">
        <ele>333.79998779297</ele>
        <time>2025-08-06T09:44:56.000Z</time>
      </trkpt>
      <trkpt lat="43.07853" lon="1.93587">
        <ele>333.79998779297</ele>
        <time>2025-08-06T09:45:03.000Z</time>
      </trkpt>
      <trkpt lat="43.07883" lon="1.93558">
        <ele>333.60000610352</ele>
        <time>2025-08-06T09:45:11.000Z</time>
      </trkpt>
      <trkpt lat="43.07902" lon="1.93541">
        <ele>333.39999389648</ele>
        <time>2025-08-06T09:45:16.000Z</time>
      </trkpt>
      <trkpt lat="43.07919" lon="1.93523">
        <ele>333.60000610352</ele>
        <time>2025-08-06T09:45:21.000Z</time>
      </trkpt>
      <trkpt lat="43.07938" lon="1.93503">
        <ele>333.60000610352</ele>
        <time>2025-08-06T09:45:26.000Z</time>
      </trkpt>
      <trkpt lat="43.07952" lon="1.93487">
        <ele>333.20001220703</ele>
        <time>2025-08-06T09:45:30.000Z</time>
      </trkpt>
      <trkpt lat="43.07973" lon="1.9347">
        <ele>332.79998779297</ele>
        <time>2025-08-06T09:45:35.000Z</time>
      </trkpt>
      <trkpt lat="43.07993" lon="1.93449">
        <ele>332.79998779297</ele>
        <time>2025-08-06T09:45:41.000Z</time>
      </trkpt>
      <trkpt lat="43.08009" lon="1.93429">
        <ele>332.79998779297</ele>
        <time>2025-08-06T09:45:47.000Z</time>
      </trkpt>
      <trkpt lat="43.08029" lon="1.93403">
        <ele>332.39999389648</ele>
        <time>2025-08-06T09:45:53.000Z</time>
      </trkpt>
      <trkpt lat="43.08051" lon="1.93368">
        <ele>332.20001220703</ele>
        <time>2025-08-06T09:46:00.000Z</time>
      </trkpt>
      <trkpt lat="43.08062" lon="1.93348">
        <ele>332</ele>
        <time>2025-08-06T09:46:04.000Z</time>
      </trkpt>
      <trkpt lat="43.08068" lon="1.93337">
        <ele>332</ele>
        <time>2025-08-06T09:46:06.000Z</time>
      </trkpt>
      <trkpt lat="43.08092" lon="1.93296">
        <ele>331.60000610352</ele>
        <time>2025-08-06T09:46:14.000Z</time>
      </trkpt>
      <trkpt lat="43.08094" lon="1.9329">
        <ele>331.39999389648</ele>
        <time>2025-08-06T09:46:15.000Z</time>
      </trkpt>
      <trkpt lat="43.08097" lon="1.93285">
        <ele>331.39999389648</ele>
        <time>2025-08-06T09:46:16.000Z</time>
      </trkpt>
      <trkpt lat="43.0811" lon="1.93258">
        <ele>331</ele>
        <time>2025-08-06T09:46:21.000Z</time>
      </trkpt>
      <trkpt lat="43.08125" lon="1.9323">
        <ele>330.79998779297</ele>
        <time>2025-08-06T09:46:27.000Z</time>
      </trkpt>
      <trkpt lat="43.0813" lon="1.93222">
        <ele>330.79998779297</ele>
        <time>2025-08-06T09:46:29.000Z</time>
      </trkpt>
      <trkpt lat="43.08145" lon="1.93192">
        <ele>330.60000610352</ele>
        <time>2025-08-06T09:46:35.000Z</time>
      </trkpt>
      <trkpt lat="43.08155" lon="1.93172">
        <ele>330.60000610352</ele>
        <time>2025-08-06T09:46:39.000Z</time>
      </trkpt>
      <trkpt lat="43.08168" lon="1.93151">
        <ele>330.39999389648</ele>
        <time>2025-08-06T09:46:43.000Z</time>
      </trkpt>
      <trkpt lat="43.08194" lon="1.93106">
        <ele>330</ele>
        <time>2025-08-06T09:46:52.000Z</time>
      </trkpt>
      <trkpt lat="43.08197" lon="1.93101">
        <ele>330</ele>
        <time>2025-08-06T09:46:53.000Z</time>
      </trkpt>
      <trkpt lat="43.08202" lon="1.93091">
        <ele>330</ele>
        <time>2025-08-06T09:46:55.000Z</time>
      </trkpt>
      <trkpt lat="43.08209" lon="1.93076">
        <ele>329.79998779297</ele>
        <time>2025-08-06T09:46:58.000Z</time>
      </trkpt>
      <trkpt lat="43.08212" lon="1.93071">
        <ele>329.79998779297</ele>
        <time>2025-08-06T09:46:59.000Z</time>
      </trkpt>
      <trkpt lat="43.08227" lon="1.93043">
        <ele>329.60000610352</ele>
        <time>2025-08-06T09:47:05.000Z</time>
      </trkpt>
      <trkpt lat="43.0823" lon="1.93038">
        <ele>329.60000610352</ele>
        <time>2025-08-06T09:47:06.000Z</time>
      </trkpt>
      <trkpt lat="43.08244" lon="1.93014">
        <ele>329.39999389648</ele>
        <time>2025-08-06T09:47:11.000Z</time>
      </trkpt>
      <trkpt lat="43.08258" lon="1.92991">
        <ele>329.20001220703</ele>
        <time>2025-08-06T09:47:16.000Z</time>
      </trkpt>
      <trkpt lat="43.08264" lon="1.92983">
        <ele>329.20001220703</ele>
        <time>2025-08-06T09:47:18.000Z</time>
      </trkpt>
      <trkpt lat="43.08269" lon="1.92974">
        <ele>329</ele>
        <time>2025-08-06T09:47:22.000Z</time>
      </trkpt>
      <trkpt lat="43.0828" lon="1.92956">
        <ele>329.20001220703</ele>
        <time>2025-08-06T09:47:27.000Z</time>
      </trkpt>
      <trkpt lat="43.08293" lon="1.92933">
        <ele>329.39999389648</ele>
        <time>2025-08-06T09:47:32.000Z</time>
      </trkpt>
      <trkpt lat="43.08302" lon="1.92913">
        <ele>329.20001220703</ele>
        <time>2025-08-06T09:47:36.000Z</time>
      </trkpt>
      <trkpt lat="43.08309" lon="1.92899">
        <ele>329.20001220703</ele>
        <time>2025-08-06T09:47:39.000Z</time>
      </trkpt>
      <trkpt lat="43.08319" lon="1.92879">
        <ele>329.20001220703</ele>
        <time>2025-08-06T09:47:43.000Z</time>
      </trkpt>
      <trkpt lat="43.08334" lon="1.92851">
        <ele>329</ele>
        <time>2025-08-06T09:47:49.000Z</time>
      </trkpt>
      <trkpt lat="43.08341" lon="1.92836">
        <ele>329</ele>
        <time>2025-08-06T09:47:52.000Z</time>
      </trkpt>
      <trkpt lat="43.08347" lon="1.92822">
        <ele>329.20001220703</ele>
        <time>2025-08-06T09:47:55.000Z</time>
      </trkpt>
      <trkpt lat="43.08362" lon="1.92794">
        <ele>329.20001220703</ele>
        <time>2025-08-06T09:48:01.000Z</time>
      </trkpt>
      <trkpt lat="43.0838" lon="1.92767">
        <ele>329.20001220703</ele>
        <time>2025-08-06T09:48:07.000Z</time>
      </trkpt>
      <trkpt lat="43.08394" lon="1.92747">
        <ele>329.39999389648</ele>
        <time>2025-08-06T09:48:12.000Z</time>
      </trkpt>
      <trkpt lat="43.08409" lon="1.92725">
        <ele>329.39999389648</ele>
        <time>2025-08-06T09:48:17.000Z</time>
      </trkpt>
      <trkpt lat="43.0841" lon="1.92719">
        <ele>329.39999389648</ele>
        <time>2025-08-06T09:48:18.000Z</time>
      </trkpt>
      <trkpt lat="43.08414" lon="1.92709">
        <ele>329.60000610352</ele>
        <time>2025-08-06T09:48:20.000Z</time>
      </trkpt>
      <trkpt lat="43.08432" lon="1.92683">
        <ele>329.60000610352</ele>
        <time>2025-08-06T09:48:26.000Z</time>
      </trkpt>
      <trkpt lat="43.08439" lon="1.9267">
        <ele>329.60000610352</ele>
        <time>2025-08-06T09:48:29.000Z</time>
      </trkpt>
      <trkpt lat="43.08443" lon="1.9266">
        <ele>329.79998779297</ele>
        <time>2025-08-06T09:48:31.000Z</time>
      </trkpt>
      <trkpt lat="43.08451" lon="1.92635">
        <ele>329.79998779297</ele>
        <time>2025-08-06T09:48:36.000Z</time>
      </trkpt>
      <trkpt lat="43.08455" lon="1.92623">
        <ele>330</ele>
        <time>2025-08-06T09:48:39.000Z</time>
      </trkpt>
      <trkpt lat="43.0846" lon="1.92611">
        <ele>330.20001220703</ele>
        <time>2025-08-06T09:48:42.000Z</time>
      </trkpt>
      <trkpt lat="43.08467" lon="1.92588">
        <ele>330</ele>
        <time>2025-08-06T09:48:47.000Z</time>
      </trkpt>
      <trkpt lat="43.08475" lon="1.92557">
        <ele>330</ele>
        <time>2025-08-06T09:48:53.000Z</time>
      </trkpt>
      <trkpt lat="43.0848" lon="1.9253">
        <ele>330</ele>
        <time>2025-08-06T09:48:58.000Z</time>
      </trkpt>
      <trkpt lat="43.08488" lon="1.92504">
        <ele>330</ele>
        <time>2025-08-06T09:49:03.000Z</time>
      </trkpt>
      <trkpt lat="43.08494" lon="1.92473">
        <ele>330</ele>
        <time>2025-08-06T09:49:09.000Z</time>
      </trkpt>
      <trkpt lat="43.08504" lon="1.92445">
        <ele>330.20001220703</ele>
        <time>2025-08-06T09:49:14.000Z</time>
      </trkpt>
      <trkpt lat="43.0851" lon="1.92413">
        <ele>330.20001220703</ele>
        <time>2025-08-06T09:49:20.000Z</time>
      </trkpt>
      <trkpt lat="43.08514" lon="1.9239">
        <ele>330.20001220703</ele>
        <time>2025-08-06T09:49:24.000Z</time>
      </trkpt>
      <trkpt lat="43.08519" lon="1.92359">
        <ele>330.20001220703</ele>
        <time>2025-08-06T09:49:30.000Z</time>
      </trkpt>
      <trkpt lat="43.0852" lon="1.92348">
        <ele>330.20001220703</ele>
        <time>2025-08-06T09:49:32.000Z</time>
      </trkpt>
      <trkpt lat="43.08524" lon="1.9233">
        <ele>330.39999389648</ele>
        <time>2025-08-06T09:49:36.000Z</time>
      </trkpt>
      <trkpt lat="43.08533" lon="1.92267">
        <ele>331</ele>
        <time>2025-08-06T09:49:47.000Z</time>
      </trkpt>
      <trkpt lat="43.08536" lon="1.92256">
        <ele>331</ele>
        <time>2025-08-06T09:49:49.000Z</time>
      </trkpt>
      <trkpt lat="43.08538" lon="1.92224">
        <ele>331</ele>
        <time>2025-08-06T09:49:54.000Z</time>
      </trkpt>
      <trkpt lat="43.0854" lon="1.922">
        <ele>330.79998779297</ele>
        <time>2025-08-06T09:49:58.000Z</time>
      </trkpt>
      <trkpt lat="43.0854" lon="1.92177">
        <ele>330.79998779297</ele>
        <time>2025-08-06T09:50:02.000Z</time>
      </trkpt>
      <trkpt lat="43.08539" lon="1.92124">
        <ele>330.79998779297</ele>
        <time>2025-08-06T09:50:11.000Z</time>
      </trkpt>
      <trkpt lat="43.08535" lon="1.92072">
        <ele>330.60000610352</ele>
        <time>2025-08-06T09:50:20.000Z</time>
      </trkpt>
      <trkpt lat="43.0853" lon="1.92012">
        <ele>330.39999389648</ele>
        <time>2025-08-06T09:50:30.000Z</time>
      </trkpt>
      <trkpt lat="43.08526" lon="1.91976">
        <ele>330.20001220703</ele>
        <time>2025-08-06T09:50:36.000Z</time>
      </trkpt>
      <trkpt lat="43.08525" lon="1.91963">
        <ele>330</ele>
        <time>2025-08-06T09:50:38.000Z</time>
      </trkpt>
      <trkpt lat="43.08523" lon="1.91945">
        <ele>330</ele>
        <time>2025-08-06T09:50:41.000Z</time>
      </trkpt>
      <trkpt lat="43.0852" lon="1.91916">
        <ele>330</ele>
        <time>2025-08-06T09:50:46.000Z</time>
      </trkpt>
      <trkpt lat="43.08515" lon="1.91852">
        <ele>328.79998779297</ele>
        <time>2025-08-06T09:50:56.000Z</time>
      </trkpt>
      <trkpt lat="43.08507" lon="1.91782">
        <ele>327.79998779297</ele>
        <time>2025-08-06T09:51:07.000Z</time>
      </trkpt>
      <trkpt lat="43.08507" lon="1.91776">
        <ele>327.79998779297</ele>
        <time>2025-08-06T09:51:08.000Z</time>
      </trkpt>
      <trkpt lat="43.08502" lon="1.91719">
        <ele>327.60000610352</ele>
        <time>2025-08-06T09:51:17.000Z</time>
      </trkpt>
      <trkpt lat="43.08501" lon="1.91709">
        <ele>327.39999389648</ele>
        <time>2025-08-06T09:51:19.000Z</time>
      </trkpt>
      <trkpt lat="43.08498" lon="1.91687">
        <ele>327.60000610352</ele>
        <time>2025-08-06T09:51:23.000Z</time>
      </trkpt>
      <trkpt lat="43.08495" lon="1.91662">
        <ele>327.60000610352</ele>
        <time>2025-08-06T09:51:27.000Z</time>
      </trkpt>
      <trkpt lat="43.08493" lon="1.91651">
        <ele>327.60000610352</ele>
        <time>2025-08-06T09:51:29.000Z</time>
      </trkpt>
      <trkpt lat="43.08488" lon="1.91619">
        <ele>327.60000610352</ele>
        <time>2025-08-06T09:51:35.000Z</time>
      </trkpt>
      <trkpt lat="43.08485" lon="1.91584">
        <ele>327.60000610352</ele>
        <time>2025-08-06T09:51:41.000Z</time>
      </trkpt>
      <trkpt lat="43.08483" lon="1.91557">
        <ele>327.39999389648</ele>
        <time>2025-08-06T09:51:45.000Z</time>
      </trkpt>
      <trkpt lat="43.08481" lon="1.91543">
        <ele>327.39999389648</ele>
        <time>2025-08-06T09:51:47.000Z</time>
      </trkpt>
      <trkpt lat="43.08479" lon="1.91509">
        <ele>327.20001220703</ele>
        <time>2025-08-06T09:51:52.000Z</time>
      </trkpt>
      <trkpt lat="43.08479" lon="1.91503">
        <ele>327.20001220703</ele>
        <time>2025-08-06T09:51:53.000Z</time>
      </trkpt>
      <trkpt lat="43.08478" lon="1.91482">
        <ele>327.20001220703</ele>
        <time>2025-08-06T09:51:56.000Z</time>
      </trkpt>
      <trkpt lat="43.08474" lon="1.91436">
        <ele>327</ele>
        <time>2025-08-06T09:52:03.000Z</time>
      </trkpt>
      <trkpt lat="43.08472" lon="1.91416">
        <ele>326.79998779297</ele>
        <time>2025-08-06T09:52:06.000Z</time>
      </trkpt>
      <trkpt lat="43.08469" lon="1.9139">
        <ele>326.39999389648</ele>
        <time>2025-08-06T09:52:10.000Z</time>
      </trkpt>
      <trkpt lat="43.08464" lon="1.91345">
        <ele>326</ele>
        <time>2025-08-06T09:52:17.000Z</time>
      </trkpt>
      <trkpt lat="43.08462" lon="1.91332">
        <ele>325.79998779297</ele>
        <time>2025-08-06T09:52:19.000Z</time>
      </trkpt>
      <trkpt lat="43.08455" lon="1.91295">
        <ele>325.20001220703</ele>
        <time>2025-08-06T09:52:25.000Z</time>
      </trkpt>
      <trkpt lat="43.08445" lon="1.91245">
        <ele>324.79998779297</ele>
        <time>2025-08-06T09:52:33.000Z</time>
      </trkpt>
      <trkpt lat="43.0844" lon="1.91226">
        <ele>324.79998779297</ele>
        <time>2025-08-06T09:52:36.000Z</time>
      </trkpt>
      <trkpt lat="43.08431" lon="1.91189">
        <ele>324.60000610352</ele>
        <time>2025-08-06T09:52:42.000Z</time>
      </trkpt>
      <trkpt lat="43.08418" lon="1.91149">
        <ele>324.39999389648</ele>
        <time>2025-08-06T09:52:49.000Z</time>
      </trkpt>
      <trkpt lat="43.08416" lon="1.91143">
        <ele>324.20001220703</ele>
        <time>2025-08-06T09:52:50.000Z</time>
      </trkpt>
      <trkpt lat="43.08407" lon="1.91118">
        <ele>324</ele>
        <time>2025-08-06T09:52:55.000Z</time>
      </trkpt>
      <trkpt lat="43.08401" lon="1.91102">
        <ele>324</ele>
        <time>2025-08-06T09:52:58.000Z</time>
      </trkpt>
      <trkpt lat="43.08399" lon="1.91097">
        <ele>324</ele>
        <time>2025-08-06T09:52:59.000Z</time>
      </trkpt>
      <trkpt lat="43.08393" lon="1.9108">
        <ele>323.79998779297</ele>
        <time>2025-08-06T09:53:02.000Z</time>
      </trkpt>
      <trkpt lat="43.08375" lon="1.91037">
        <ele>323.79998779297</ele>
        <time>2025-08-06T09:53:10.000Z</time>
      </trkpt>
      <trkpt lat="43.08355" lon="1.90985">
        <ele>323.79998779297</ele>
        <time>2025-08-06T09:53:20.000Z</time>
      </trkpt>
      <trkpt lat="43.08348" lon="1.90966">
        <ele>324</ele>
        <time>2025-08-06T09:53:24.000Z</time>
      </trkpt>
      <trkpt lat="43.08346" lon="1.90961">
        <ele>324</ele>
        <time>2025-08-06T09:53:25.000Z</time>
      </trkpt>
      <trkpt lat="43.08337" lon="1.90941">
        <ele>324.20001220703</ele>
        <time>2025-08-06T09:53:29.000Z</time>
      </trkpt>
      <trkpt lat="43.08335" lon="1.90937">
        <ele>324.20001220703</ele>
        <time>2025-08-06T09:53:30.000Z</time>
      </trkpt>
      <trkpt lat="43.08322" lon="1.90901">
        <ele>324.60000610352</ele>
        <time>2025-08-06T09:53:37.000Z</time>
      </trkpt>
      <trkpt lat="43.08305" lon="1.90859">
        <ele>324.79998779297</ele>
        <time>2025-08-06T09:53:45.000Z</time>
      </trkpt>
      <trkpt lat="43.08288" lon="1.90807">
        <ele>325</ele>
        <time>2025-08-06T09:53:55.000Z</time>
      </trkpt>
      <trkpt lat="43.08276" lon="1.90768">
        <ele>325.20001220703</ele>
        <time>2025-08-06T09:54:02.000Z</time>
      </trkpt>
      <trkpt lat="43.08274" lon="1.90762">
        <ele>325.39999389648</ele>
        <time>2025-08-06T09:54:03.000Z</time>
      </trkpt>
      <trkpt lat="43.08271" lon="1.90752">
        <ele>325.39999389648</ele>
        <time>2025-08-06T09:54:05.000Z</time>
      </trkpt>
      <trkpt lat="43.08265" lon="1.9073">
        <ele>325.60000610352</ele>
        <time>2025-08-06T09:54:09.000Z</time>
      </trkpt>
      <trkpt lat="43.08255" lon="1.90687">
        <ele>325.79998779297</ele>
        <time>2025-08-06T09:54:17.000Z</time>
      </trkpt>
      <trkpt lat="43.08247" lon="1.90637">
        <ele>326</ele>
        <time>2025-08-06T09:54:25.000Z</time>
      </trkpt>
      <trkpt lat="43.08243" lon="1.90606">
        <ele>326</ele>
        <time>2025-08-06T09:54:30.000Z</time>
      </trkpt>
      <trkpt lat="43.08242" lon="1.90594">
        <ele>325.79998779297</ele>
        <time>2025-08-06T09:54:32.000Z</time>
      </trkpt>
      <trkpt lat="43.08242" lon="1.90588">
        <ele>325.79998779297</ele>
        <time>2025-08-06T09:54:33.000Z</time>
      </trkpt>
      <trkpt lat="43.08241" lon="1.90578">
        <ele>326</ele>
        <time>2025-08-06T09:54:35.000Z</time>
      </trkpt>
      <trkpt lat="43.0824" lon="1.90572">
        <ele>326</ele>
        <time>2025-08-06T09:54:36.000Z</time>
      </trkpt>
      <trkpt lat="43.0824" lon="1.90554">
        <ele>326</ele>
        <time>2025-08-06T09:54:39.000Z</time>
      </trkpt>
      <trkpt lat="43.0824" lon="1.90548">
        <ele>326</ele>
        <time>2025-08-06T09:54:40.000Z</time>
      </trkpt>
      <trkpt lat="43.08239" lon="1.90495">
        <ele>326.20001220703</ele>
        <time>2025-08-06T09:54:49.000Z</time>
      </trkpt>
      <trkpt lat="43.0824" lon="1.90457">
        <ele>326.39999389648</ele>
        <time>2025-08-06T09:54:56.000Z</time>
      </trkpt>
      <trkpt lat="43.08243" lon="1.90416">
        <ele>326.60000610352</ele>
        <time>2025-08-06T09:55:03.000Z</time>
      </trkpt>
      <trkpt lat="43.08245" lon="1.90392">
        <ele>326.60000610352</ele>
        <time>2025-08-06T09:55:07.000Z</time>
      </trkpt>
      <trkpt lat="43.08245" lon="1.90374">
        <ele>326.60000610352</ele>
        <time>2025-08-06T09:55:10.000Z</time>
      </trkpt>
      <trkpt lat="43.08249" lon="1.90315">
        <ele>326.60000610352</ele>
        <time>2025-08-06T09:55:20.000Z</time>
      </trkpt>
      <trkpt lat="43.0825" lon="1.90298">
        <ele>326.79998779297</ele>
        <time>2025-08-06T09:55:23.000Z</time>
      </trkpt>
      <trkpt lat="43.08253" lon="1.90265">
        <ele>327</ele>
        <time>2025-08-06T09:55:29.000Z</time>
      </trkpt>
      <trkpt lat="43.08253" lon="1.90244">
        <ele>327</ele>
        <time>2025-08-06T09:55:34.000Z</time>
      </trkpt>
      <trkpt lat="43.08255" lon="1.90209">
        <ele>327</ele>
        <time>2025-08-06T09:55:41.000Z</time>
      </trkpt>
      <trkpt lat="43.08256" lon="1.90178">
        <ele>327.39999389648</ele>
        <time>2025-08-06T09:55:47.000Z</time>
      </trkpt>
      <trkpt lat="43.08256" lon="1.90133">
        <ele>327.60000610352</ele>
        <time>2025-08-06T09:55:54.000Z</time>
      </trkpt>
      <trkpt lat="43.0826" lon="1.90088">
        <ele>327.79998779297</ele>
        <time>2025-08-06T09:56:01.000Z</time>
      </trkpt>
      <trkpt lat="43.08263" lon="1.90052">
        <ele>327.79998779297</ele>
        <time>2025-08-06T09:56:07.000Z</time>
      </trkpt>
      <trkpt lat="43.08264" lon="1.90041">
        <ele>328</ele>
        <time>2025-08-06T09:56:09.000Z</time>
      </trkpt>
      <trkpt lat="43.08265" lon="1.90029">
        <ele>328.20001220703</ele>
        <time>2025-08-06T09:56:11.000Z</time>
      </trkpt>
      <trkpt lat="43.08266" lon="1.90012">
        <ele>328.20001220703</ele>
        <time>2025-08-06T09:56:14.000Z</time>
      </trkpt>
      <trkpt lat="43.08268" lon="1.89986">
        <ele>328.39999389648</ele>
        <time>2025-08-06T09:56:19.000Z</time>
      </trkpt>
      <trkpt lat="43.08272" lon="1.89957">
        <ele>328.39999389648</ele>
        <time>2025-08-06T09:56:24.000Z</time>
      </trkpt>
      <trkpt lat="43.08272" lon="1.89951">
        <ele>328.39999389648</ele>
        <time>2025-08-06T09:56:25.000Z</time>
      </trkpt>
      <trkpt lat="43.08273" lon="1.89927">
        <ele>328.60000610352</ele>
        <time>2025-08-06T09:56:29.000Z</time>
      </trkpt>
      <trkpt lat="43.08274" lon="1.8991">
        <ele>328.60000610352</ele>
        <time>2025-08-06T09:56:32.000Z</time>
      </trkpt>
      <trkpt lat="43.08279" lon="1.89843">
        <ele>328.79998779297</ele>
        <time>2025-08-06T09:56:44.000Z</time>
      </trkpt>
      <trkpt lat="43.08283" lon="1.89797">
        <ele>329</ele>
        <time>2025-08-06T09:56:52.000Z</time>
      </trkpt>
      <trkpt lat="43.08283" lon="1.89792">
        <ele>329</ele>
        <time>2025-08-06T09:56:53.000Z</time>
      </trkpt>
      <trkpt lat="43.08286" lon="1.89748">
        <ele>329.39999389648</ele>
        <time>2025-08-06T09:57:01.000Z</time>
      </trkpt>
      <trkpt lat="43.0829" lon="1.89698">
        <ele>329.60000610352</ele>
        <time>2025-08-06T09:57:10.000Z</time>
      </trkpt>
      <trkpt lat="43.0829" lon="1.89693">
        <ele>329.60000610352</ele>
        <time>2025-08-06T09:57:11.000Z</time>
      </trkpt>
      <trkpt lat="43.0829" lon="1.89683">
        <ele>329.60000610352</ele>
        <time>2025-08-06T09:57:13.000Z</time>
      </trkpt>
      <trkpt lat="43.08291" lon="1.8966">
        <ele>329.79998779297</ele>
        <time>2025-08-06T09:57:17.000Z</time>
      </trkpt>
      <trkpt lat="43.08293" lon="1.89621">
        <ele>330</ele>
        <time>2025-08-06T09:57:24.000Z</time>
      </trkpt>
      <trkpt lat="43.08294" lon="1.89615">
        <ele>330</ele>
        <time>2025-08-06T09:57:25.000Z</time>
      </trkpt>
      <trkpt lat="43.08297" lon="1.89566">
        <ele>330.20001220703</ele>
        <time>2025-08-06T09:57:33.000Z</time>
      </trkpt>
      <trkpt lat="43.08302" lon="1.89521">
        <ele>330</ele>
        <time>2025-08-06T09:57:40.000Z</time>
      </trkpt>
      <trkpt lat="43.08305" lon="1.89457">
        <ele>330</ele>
        <time>2025-08-06T09:57:50.000Z</time>
      </trkpt>
      <trkpt lat="43.08307" lon="1.89439">
        <ele>330</ele>
        <time>2025-08-06T09:57:53.000Z</time>
      </trkpt>
      <trkpt lat="43.08309" lon="1.89389">
        <ele>329.79998779297</ele>
        <time>2025-08-06T09:58:01.000Z</time>
      </trkpt>
      <trkpt lat="43.08312" lon="1.89337">
        <ele>329.60000610352</ele>
        <time>2025-08-06T09:58:10.000Z</time>
      </trkpt>
      <trkpt lat="43.08316" lon="1.89277">
        <ele>329.39999389648</ele>
        <time>2025-08-06T09:58:21.000Z</time>
      </trkpt>
      <trkpt lat="43.08319" lon="1.89237">
        <ele>329.20001220703</ele>
        <time>2025-08-06T09:58:29.000Z</time>
      </trkpt>
      <trkpt lat="43.08321" lon="1.89184">
        <ele>329</ele>
        <time>2025-08-06T09:58:38.000Z</time>
      </trkpt>
      <trkpt lat="43.08324" lon="1.89129">
        <ele>328.60000610352</ele>
        <time>2025-08-06T09:58:47.000Z</time>
      </trkpt>
      <trkpt lat="43.08325" lon="1.89105">
        <ele>328.20001220703</ele>
        <time>2025-08-06T09:58:51.000Z</time>
      </trkpt>
      <trkpt lat="43.08326" lon="1.89093">
        <ele>328.20001220703</ele>
        <time>2025-08-06T09:58:53.000Z</time>
      </trkpt>
      <trkpt lat="43.08326" lon="1.89087">
        <ele>328.20001220703</ele>
        <time>2025-08-06T09:58:54.000Z</time>
      </trkpt>
      <trkpt lat="43.08328" lon="1.89069">
        <ele>328</ele>
        <time>2025-08-06T09:58:57.000Z</time>
      </trkpt>
      <trkpt lat="43.08329" lon="1.89045">
        <ele>327.79998779297</ele>
        <time>2025-08-06T09:59:01.000Z</time>
      </trkpt>
      <trkpt lat="43.08333" lon="1.88994">
        <ele>327.79998779297</ele>
        <time>2025-08-06T09:59:09.000Z</time>
      </trkpt>
      <trkpt lat="43.08335" lon="1.88948">
        <ele>327.60000610352</ele>
        <time>2025-08-06T09:59:17.000Z</time>
      </trkpt>
      <trkpt lat="43.08337" lon="1.88924">
        <ele>327.60000610352</ele>
        <time>2025-08-06T09:59:21.000Z</time>
      </trkpt>
      <trkpt lat="43.08337" lon="1.88918">
        <ele>327.60000610352</ele>
        <time>2025-08-06T09:59:22.000Z</time>
      </trkpt>
      <trkpt lat="43.08342" lon="1.88865">
        <ele>327.39999389648</ele>
        <time>2025-08-06T09:59:30.000Z</time>
      </trkpt>
      <trkpt lat="43.08345" lon="1.88806">
        <ele>327.20001220703</ele>
        <time>2025-08-06T09:59:39.000Z</time>
      </trkpt>
      <trkpt lat="43.08345" lon="1.88799">
        <ele>327</ele>
        <time>2025-08-06T09:59:40.000Z</time>
      </trkpt>
      <trkpt lat="43.08347" lon="1.88768">
        <ele>327</ele>
        <time>2025-08-06T09:59:45.000Z</time>
      </trkpt>
      <trkpt lat="43.08352" lon="1.88704">
        <ele>326.60000610352</ele>
        <time>2025-08-06T09:59:55.000Z</time>
      </trkpt>
      <trkpt lat="43.08356" lon="1.88648">
        <ele>326</ele>
        <time>2025-08-06T10:00:04.000Z</time>
      </trkpt>
      <trkpt lat="43.08357" lon="1.88629">
        <ele>326</ele>
        <time>2025-08-06T10:00:07.000Z</time>
      </trkpt>
      <trkpt lat="43.08358" lon="1.88618">
        <ele>325.79998779297</ele>
        <time>2025-08-06T10:00:09.000Z</time>
      </trkpt>
      <trkpt lat="43.08358" lon="1.88612">
        <ele>325.79998779297</ele>
        <time>2025-08-06T10:00:10.000Z</time>
      </trkpt>
      <trkpt lat="43.0836" lon="1.88574">
        <ele>325.79998779297</ele>
        <time>2025-08-06T10:00:16.000Z</time>
      </trkpt>
      <trkpt lat="43.0836" lon="1.88568">
        <ele>325.79998779297</ele>
        <time>2025-08-06T10:00:17.000Z</time>
      </trkpt>
      <trkpt lat="43.08363" lon="1.8853">
        <ele>325.60000610352</ele>
        <time>2025-08-06T10:00:23.000Z</time>
      </trkpt>
      <trkpt lat="43.08361" lon="1.88511">
        <ele>325.60000610352</ele>
        <time>2025-08-06T10:00:26.000Z</time>
      </trkpt>
      <trkpt lat="43.08363" lon="1.88486">
        <ele>325.60000610352</ele>
        <time>2025-08-06T10:00:30.000Z</time>
      </trkpt>
      <trkpt lat="43.08363" lon="1.88474">
        <ele>325.60000610352</ele>
        <time>2025-08-06T10:00:32.000Z</time>
      </trkpt>
      <trkpt lat="43.08363" lon="1.88468">
        <ele>325.60000610352</ele>
        <time>2025-08-06T10:00:33.000Z</time>
      </trkpt>
      <trkpt lat="43.08366" lon="1.88426">
        <ele>325.39999389648</ele>
        <time>2025-08-06T10:00:40.000Z</time>
      </trkpt>
      <trkpt lat="43.08368" lon="1.88401">
        <ele>325.39999389648</ele>
        <time>2025-08-06T10:00:44.000Z</time>
      </trkpt>
      <trkpt lat="43.0837" lon="1.88383">
        <ele>325.39999389648</ele>
        <time>2025-08-06T10:00:47.000Z</time>
      </trkpt>
      <trkpt lat="43.08373" lon="1.88356">
        <ele>325.20001220703</ele>
        <time>2025-08-06T10:00:51.000Z</time>
      </trkpt>
      <trkpt lat="43.08379" lon="1.88317">
        <ele>324.79998779297</ele>
        <time>2025-08-06T10:00:57.000Z</time>
      </trkpt>
      <trkpt lat="43.0838" lon="1.88292">
        <ele>324.79998779297</ele>
        <time>2025-08-06T10:01:01.000Z</time>
      </trkpt>
      <trkpt lat="43.08381" lon="1.88269">
        <ele>324.60000610352</ele>
        <time>2025-08-06T10:01:05.000Z</time>
      </trkpt>
      <trkpt lat="43.08384" lon="1.88213">
        <ele>324.39999389648</ele>
        <time>2025-08-06T10:01:14.000Z</time>
      </trkpt>
      <trkpt lat="43.08384" lon="1.88194">
        <ele>324.39999389648</ele>
        <time>2025-08-06T10:01:18.000Z</time>
      </trkpt>
      <trkpt lat="43.08383" lon="1.88165">
        <ele>324.39999389648</ele>
        <time>2025-08-06T10:01:24.000Z</time>
      </trkpt>
      <trkpt lat="43.08383" lon="1.88135">
        <ele>324.39999389648</ele>
        <time>2025-08-06T10:01:30.000Z</time>
      </trkpt>
      <trkpt lat="43.08383" lon="1.88121">
        <ele>324.20001220703</ele>
        <time>2025-08-06T10:01:33.000Z</time>
      </trkpt>
      <trkpt lat="43.08384" lon="1.88105">
        <ele>324.20001220703</ele>
        <time>2025-08-06T10:01:37.000Z</time>
      </trkpt>
      <trkpt lat="43.08386" lon="1.88083">
        <ele>324</ele>
        <time>2025-08-06T10:01:43.000Z</time>
      </trkpt>
      <trkpt lat="43.08388" lon="1.88039">
        <ele>323.60000610352</ele>
        <time>2025-08-06T10:01:53.000Z</time>
      </trkpt>
      <trkpt lat="43.08388" lon="1.88011">
        <ele>323.39999389648</ele>
        <time>2025-08-06T10:01:59.000Z</time>
      </trkpt>
      <trkpt lat="43.08388" lon="1.88006">
        <ele>323.39999389648</ele>
        <time>2025-08-06T10:02:00.000Z</time>
      </trkpt>
      <trkpt lat="43.08389" lon="1.88001">
        <ele>323.20001220703</ele>
        <time>2025-08-06T10:02:01.000Z</time>
      </trkpt>
      <trkpt lat="43.08393" lon="1.87979">
        <ele>323.20001220703</ele>
        <time>2025-08-06T10:02:05.000Z</time>
      </trkpt>
      <trkpt lat="43.08398" lon="1.87958">
        <ele>323.20001220703</ele>
        <time>2025-08-06T10:02:10.000Z</time>
      </trkpt>
      <trkpt lat="43.084" lon="1.87924">
        <ele>323.20001220703</ele>
        <time>2025-08-06T10:02:16.000Z</time>
      </trkpt>
      <trkpt lat="43.08403" lon="1.87895">
        <ele>323.20001220703</ele>
        <time>2025-08-06T10:02:21.000Z</time>
      </trkpt>
      <trkpt lat="43.08405" lon="1.87858">
        <ele>323.20001220703</ele>
        <time>2025-08-06T10:02:27.000Z</time>
      </trkpt>
      <trkpt lat="43.08408" lon="1.8782">
        <ele>323</ele>
        <time>2025-08-06T10:02:33.000Z</time>
      </trkpt>
      <trkpt lat="43.08417" lon="1.87785">
        <ele>323</ele>
        <time>2025-08-06T10:02:39.000Z</time>
      </trkpt>
      <trkpt lat="43.08416" lon="1.87766">
        <ele>322.79998779297</ele>
        <time>2025-08-06T10:02:43.000Z</time>
      </trkpt>
      <trkpt lat="43.08416" lon="1.87755">
        <ele>322.60000610352</ele>
        <time>2025-08-06T10:02:46.000Z</time>
      </trkpt>
      <trkpt lat="43.08417" lon="1.8774">
        <ele>322.39999389648</ele>
        <time>2025-08-06T10:02:50.000Z</time>
      </trkpt>
      <trkpt lat="43.08425" lon="1.87734">
        <ele>322.39999389648</ele>
        <time>2025-08-06T10:02:54.000Z</time>
      </trkpt>
      <trkpt lat="43.08439" lon="1.87734">
        <ele>322.60000610352</ele>
        <time>2025-08-06T10:03:00.000Z</time>
      </trkpt>
      <trkpt lat="43.08456" lon="1.87728">
        <ele>322.60000610352</ele>
        <time>2025-08-06T10:03:06.000Z</time>
      </trkpt>
      <trkpt lat="43.08457" lon="1.87724">
        <ele>322.60000610352</ele>
        <time>2025-08-06T10:03:07.000Z</time>
      </trkpt>
      <trkpt lat="43.08458" lon="1.87714">
        <ele>322.79998779297</ele>
        <time>2025-08-06T10:03:10.000Z</time>
      </trkpt>
      <trkpt lat="43.08458" lon="1.87689">
        <ele>322.79998779297</ele>
        <time>2025-08-06T10:03:16.000Z</time>
      </trkpt>
      <trkpt lat="43.08457" lon="1.87657">
        <ele>322.79998779297</ele>
        <time>2025-08-06T10:03:24.000Z</time>
      </trkpt>
      <trkpt lat="43.08458" lon="1.87635">
        <ele>322.60000610352</ele>
        <time>2025-08-06T10:03:31.000Z</time>
      </trkpt>
      <trkpt lat="43.08468" lon="1.87629">
        <ele>322.60000610352</ele>
        <time>2025-08-06T10:03:36.000Z</time>
      </trkpt>
      <trkpt lat="43.08481" lon="1.87625">
        <ele>322.39999389648</ele>
        <time>2025-08-06T10:03:42.000Z</time>
      </trkpt>
      <trkpt lat="43.08482" lon="1.87624">
        <ele>322.39999389648</ele>
        <time>2025-08-06T10:03:46.000Z</time>
      </trkpt>
      <trkpt lat="43.08489" lon="1.87621">
        <ele>322.79998779297</ele>
        <time>2025-08-06T10:07:39.000Z</time>
      </trkpt>
      <trkpt lat="43.0849" lon="1.8762">
        <ele>322.60000610352</ele>
        <time>2025-08-06T10:07:40.000Z</time>
      </trkpt>
      <trkpt lat="43.08492" lon="1.8762">
        <ele>322.60000610352</ele>
        <time>2025-08-06T10:07:41.000Z</time>
      </trkpt>
      <trkpt lat="43.08499" lon="1.87619">
        <ele>322.60000610352</ele>
        <time>2025-08-06T10:07:44.000Z</time>
      </trkpt>
      <trkpt lat="43.08501" lon="1.87613">
        <ele>322.60000610352</ele>
        <time>2025-08-06T10:07:46.000Z</time>
      </trkpt>
      <trkpt lat="43.085" lon="1.87588">
        <ele>322.39999389648</ele>
        <time>2025-08-06T10:07:52.000Z</time>
      </trkpt>
      <trkpt lat="43.08502" lon="1.87557">
        <ele>322</ele>
        <time>2025-08-06T10:07:59.000Z</time>
      </trkpt>
      <trkpt lat="43.08502" lon="1.87552">
        <ele>321.79998779297</ele>
        <time>2025-08-06T10:08:00.000Z</time>
      </trkpt>
      <trkpt lat="43.08504" lon="1.87518">
        <ele>321.79998779297</ele>
        <time>2025-08-06T10:08:07.000Z</time>
      </trkpt>
      <trkpt lat="43.0851" lon="1.87496">
        <ele>321.60000610352</ele>
        <time>2025-08-06T10:08:13.000Z</time>
      </trkpt>
      <trkpt lat="43.08518" lon="1.87492">
        <ele>321.60000610352</ele>
        <time>2025-08-06T10:08:17.000Z</time>
      </trkpt>
      <trkpt lat="43.08535" lon="1.87492">
        <ele>321.60000610352</ele>
        <time>2025-08-06T10:08:24.000Z</time>
      </trkpt>
      <trkpt lat="43.08558" lon="1.87495">
        <ele>321.60000610352</ele>
        <time>2025-08-06T10:08:31.000Z</time>
      </trkpt>
      <trkpt lat="43.08592" lon="1.87494">
        <ele>321.79998779297</ele>
        <time>2025-08-06T10:08:42.000Z</time>
      </trkpt>
      <trkpt lat="43.0862" lon="1.87494">
        <ele>321.39999389648</ele>
        <time>2025-08-06T10:08:50.000Z</time>
      </trkpt>
      <trkpt lat="43.08639" lon="1.87496">
        <ele>321</ele>
        <time>2025-08-06T10:08:56.000Z</time>
      </trkpt>
      <trkpt lat="43.08659" lon="1.87497">
        <ele>320.79998779297</ele>
        <time>2025-08-06T10:09:02.000Z</time>
      </trkpt>
      <trkpt lat="43.08669" lon="1.87498">
        <ele>320.79998779297</ele>
        <time>2025-08-06T10:09:05.000Z</time>
      </trkpt>
      <trkpt lat="43.08693" lon="1.87499">
        <ele>320.79998779297</ele>
        <time>2025-08-06T10:09:12.000Z</time>
      </trkpt>
      <trkpt lat="43.08717" lon="1.87497">
        <ele>320.79998779297</ele>
        <time>2025-08-06T10:09:19.000Z</time>
      </trkpt>
      <trkpt lat="43.08733" lon="1.87495">
        <ele>320.79998779297</ele>
        <time>2025-08-06T10:09:26.000Z</time>
      </trkpt>
      <trkpt lat="43.08737" lon="1.87498">
        <ele>320.79998779297</ele>
        <time>2025-08-06T10:09:31.000Z</time>
      </trkpt>
      <trkpt lat="43.08742" lon="1.87493">
        <ele>320.79998779297</ele>
        <time>2025-08-06T10:10:07.000Z</time>
      </trkpt>
      <trkpt lat="43.08744" lon="1.87491">
        <ele>320.79998779297</ele>
        <time>2025-08-06T10:10:09.000Z</time>
      </trkpt>
      <trkpt lat="43.08744" lon="1.87491">
        <ele>320.79998779297</ele>
        <time>2025-08-06T10:10:12.000Z</time>
      </trkpt>
      <trkpt lat="43.0876" lon="1.87487">
        <ele>321.20001220703</ele>
        <time>2025-08-06T10:11:21.000Z</time>
      </trkpt>
      <trkpt lat="43.08762" lon="1.87487">
        <ele>321.20001220703</ele>
        <time>2025-08-06T10:11:22.000Z</time>
      </trkpt>
      <trkpt lat="43.08765" lon="1.87485">
        <ele>321.20001220703</ele>
        <time>2025-08-06T10:11:24.000Z</time>
      </trkpt>
      <trkpt lat="43.08773" lon="1.87483">
        <ele>321.20001220703</ele>
        <time>2025-08-06T10:11:28.000Z</time>
      </trkpt>
      <trkpt lat="43.08782" lon="1.87482">
        <ele>321</ele>
        <time>2025-08-06T10:11:34.000Z</time>
      </trkpt>
      <trkpt lat="43.08786" lon="1.87482">
        <ele>320.79998779297</ele>
        <time>2025-08-06T10:11:37.000Z</time>
      </trkpt>
      <trkpt lat="43.08789" lon="1.87481">
        <ele>320.79998779297</ele>
        <time>2025-08-06T10:11:40.000Z</time>
      </trkpt>
      <trkpt lat="43.08791" lon="1.87481">
        <ele>320.79998779297</ele>
        <time>2025-08-06T10:11:44.000Z</time>
      </trkpt>
      <trkpt lat="43.08812" lon="1.87484">
        <ele>321.20001220703</ele>
        <time>2025-08-06T10:13:32.000Z</time>
      </trkpt>
      <trkpt lat="43.08812" lon="1.87486">
        <ele>321.20001220703</ele>
        <time>2025-08-06T10:13:35.000Z</time>
      </trkpt>
      <trkpt lat="43.08812" lon="1.87486">
        <ele>321.20001220703</ele>
        <time>2025-08-06T10:13:36.000Z</time>
      </trkpt>
      <trkpt lat="43.08835" lon="1.87515">
        <ele>322.20001220703</ele>
        <time>2025-08-06T10:17:00.000Z</time>
      </trkpt>
      <trkpt lat="43.08837" lon="1.87474">
        <ele>329.60000610352</ele>
        <time>2025-08-06T12:16:21.000Z</time>
      </trkpt>
      <trkpt lat="43.08837" lon="1.87471">
        <ele>329.39999389648</ele>
        <time>2025-08-06T12:16:22.000Z</time>
      </trkpt>
      <trkpt lat="43.08847" lon="1.87461">
        <ele>329.39999389648</ele>
        <time>2025-08-06T12:17:02.000Z</time>
      </trkpt>
      <trkpt lat="43.08846" lon="1.87458">
        <ele>329.39999389648</ele>
        <time>2025-08-06T12:17:03.000Z</time>
      </trkpt>
      <trkpt lat="43.08846" lon="1.87449">
        <ele>329.20001220703</ele>
        <time>2025-08-06T12:17:07.000Z</time>
      </trkpt>
      <trkpt lat="43.08842" lon="1.87447">
        <ele>329.20001220703</ele>
        <time>2025-08-06T12:17:09.000Z</time>
      </trkpt>
      <trkpt lat="43.08839" lon="1.87446">
        <ele>329.20001220703</ele>
        <time>2025-08-06T12:17:14.000Z</time>
      </trkpt>
      <trkpt lat="43.08838" lon="1.87446">
        <ele>329.20001220703</ele>
        <time>2025-08-06T12:17:17.000Z</time>
      </trkpt>
      <trkpt lat="43.08836" lon="1.87438">
        <ele>329.20001220703</ele>
        <time>2025-08-06T12:17:21.000Z</time>
      </trkpt>
      <trkpt lat="43.08834" lon="1.87426">
        <ele>329.20001220703</ele>
        <time>2025-08-06T12:17:26.000Z</time>
      </trkpt>
      <trkpt lat="43.08834" lon="1.87422">
        <ele>329.20001220703</ele>
        <time>2025-08-06T12:17:28.000Z</time>
      </trkpt>
      <trkpt lat="43.08834" lon="1.87411">
        <ele>329.20001220703</ele>
        <time>2025-08-06T12:17:32.000Z</time>
      </trkpt>
      <trkpt lat="43.08838" lon="1.87387">
        <ele>329.39999389648</ele>
        <time>2025-08-06T12:17:40.000Z</time>
      </trkpt>
      <trkpt lat="43.0884" lon="1.87367">
        <ele>329.20001220703</ele>
        <time>2025-08-06T12:17:46.000Z</time>
      </trkpt>
      <trkpt lat="43.08847" lon="1.87364">
        <ele>329.20001220703</ele>
        <time>2025-08-06T12:17:52.000Z</time>
      </trkpt>
      <trkpt lat="43.08851" lon="1.87361">
        <ele>329</ele>
        <time>2025-08-06T12:17:55.000Z</time>
      </trkpt>
      <trkpt lat="43.08852" lon="1.87355">
        <ele>329</ele>
        <time>2025-08-06T12:17:57.000Z</time>
      </trkpt>
      <trkpt lat="43.08853" lon="1.87342">
        <ele>328.79998779297</ele>
        <time>2025-08-06T12:18:01.000Z</time>
      </trkpt>
      <trkpt lat="43.08853" lon="1.87338">
        <ele>328.79998779297</ele>
        <time>2025-08-06T12:18:02.000Z</time>
      </trkpt>
      <trkpt lat="43.08854" lon="1.87336">
        <ele>328.79998779297</ele>
        <time>2025-08-06T12:18:03.000Z</time>
      </trkpt>
      <trkpt lat="43.08855" lon="1.87328">
        <ele>328.79998779297</ele>
        <time>2025-08-06T12:18:06.000Z</time>
      </trkpt>
      <trkpt lat="43.08853" lon="1.87322">
        <ele>328.79998779297</ele>
        <time>2025-08-06T12:18:08.000Z</time>
      </trkpt>
      <trkpt lat="43.08852" lon="1.87317">
        <ele>328.79998779297</ele>
        <time>2025-08-06T12:18:10.000Z</time>
      </trkpt>
      <trkpt lat="43.08857" lon="1.87307">
        <ele>328.79998779297</ele>
        <time>2025-08-06T12:18:13.000Z</time>
      </trkpt>
      <trkpt lat="43.0886" lon="1.87287">
        <ele>328.60000610352</ele>
        <time>2025-08-06T12:18:18.000Z</time>
      </trkpt>
      <trkpt lat="43.08858" lon="1.87278">
        <ele>328.60000610352</ele>
        <time>2025-08-06T12:18:20.000Z</time>
      </trkpt>
      <trkpt lat="43.08858" lon="1.87266">
        <ele>328.60000610352</ele>
        <time>2025-08-06T12:18:23.000Z</time>
      </trkpt>
      <trkpt lat="43.08859" lon="1.87234">
        <ele>328.39999389648</ele>
        <time>2025-08-06T12:18:30.000Z</time>
      </trkpt>
      <trkpt lat="43.08856" lon="1.87212">
        <ele>328.79998779297</ele>
        <time>2025-08-06T12:18:35.000Z</time>
      </trkpt>
      <trkpt lat="43.08857" lon="1.87204">
        <ele>328.79998779297</ele>
        <time>2025-08-06T12:18:37.000Z</time>
      </trkpt>
      <trkpt lat="43.08859" lon="1.87195">
        <ele>328.79998779297</ele>
        <time>2025-08-06T12:18:40.000Z</time>
      </trkpt>
      <trkpt lat="43.08861" lon="1.87173">
        <ele>328.79998779297</ele>
        <time>2025-08-06T12:18:46.000Z</time>
      </trkpt>
      <trkpt lat="43.08862" lon="1.87148">
        <ele>328.79998779297</ele>
        <time>2025-08-06T12:18:52.000Z</time>
      </trkpt>
      <trkpt lat="43.08863" lon="1.87116">
        <ele>328.60000610352</ele>
        <time>2025-08-06T12:18:59.000Z</time>
      </trkpt>
      <trkpt lat="43.08861" lon="1.87084">
        <ele>328.20001220703</ele>
        <time>2025-08-06T12:19:05.000Z</time>
      </trkpt>
      <trkpt lat="43.08862" lon="1.87078">
        <ele>328</ele>
        <time>2025-08-06T12:19:06.000Z</time>
      </trkpt>
      <trkpt lat="43.08861" lon="1.87058">
        <ele>327.79998779297</ele>
        <time>2025-08-06T12:19:10.000Z</time>
      </trkpt>
      <trkpt lat="43.0886" lon="1.87043">
        <ele>327.79998779297</ele>
        <time>2025-08-06T12:19:13.000Z</time>
      </trkpt>
      <trkpt lat="43.0886" lon="1.86999">
        <ele>327.60000610352</ele>
        <time>2025-08-06T12:19:22.000Z</time>
      </trkpt>
      <trkpt lat="43.08859" lon="1.86949">
        <ele>327</ele>
        <time>2025-08-06T12:19:31.000Z</time>
      </trkpt>
      <trkpt lat="43.0886" lon="1.86913">
        <ele>327</ele>
        <time>2025-08-06T12:19:37.000Z</time>
      </trkpt>
      <trkpt lat="43.08861" lon="1.86895">
        <ele>326.79998779297</ele>
        <time>2025-08-06T12:19:40.000Z</time>
      </trkpt>
      <trkpt lat="43.08862" lon="1.86847">
        <ele>326.60000610352</ele>
        <time>2025-08-06T12:19:48.000Z</time>
      </trkpt>
      <trkpt lat="43.08862" lon="1.86784">
        <ele>326.39999389648</ele>
        <time>2025-08-06T12:19:58.000Z</time>
      </trkpt>
      <trkpt lat="43.08862" lon="1.86743">
        <ele>326.20001220703</ele>
        <time>2025-08-06T12:20:05.000Z</time>
      </trkpt>
      <trkpt lat="43.08862" lon="1.86725">
        <ele>326.20001220703</ele>
        <time>2025-08-06T12:20:08.000Z</time>
      </trkpt>
      <trkpt lat="43.08863" lon="1.86714">
        <ele>326.39999389648</ele>
        <time>2025-08-06T12:20:10.000Z</time>
      </trkpt>
      <trkpt lat="43.08862" lon="1.86708">
        <ele>326.39999389648</ele>
        <time>2025-08-06T12:20:11.000Z</time>
      </trkpt>
      <trkpt lat="43.08862" lon="1.86654">
        <ele>326.39999389648</ele>
        <time>2025-08-06T12:20:20.000Z</time>
      </trkpt>
      <trkpt lat="43.08862" lon="1.86594">
        <ele>326.39999389648</ele>
        <time>2025-08-06T12:20:30.000Z</time>
      </trkpt>
      <trkpt lat="43.08862" lon="1.86588">
        <ele>326.39999389648</ele>
        <time>2025-08-06T12:20:31.000Z</time>
      </trkpt>
      <trkpt lat="43.08862" lon="1.86547">
        <ele>326.20001220703</ele>
        <time>2025-08-06T12:20:38.000Z</time>
      </trkpt>
      <trkpt lat="43.08862" lon="1.865">
        <ele>326.60000610352</ele>
        <time>2025-08-06T12:20:46.000Z</time>
      </trkpt>
      <trkpt lat="43.08862" lon="1.8645">
        <ele>327.20001220703</ele>
        <time>2025-08-06T12:20:55.000Z</time>
      </trkpt>
      <trkpt lat="43.08861" lon="1.86396">
        <ele>328.20001220703</ele>
        <time>2025-08-06T12:21:05.000Z</time>
      </trkpt>
      <trkpt lat="43.08861" lon="1.86391">
        <ele>328.20001220703</ele>
        <time>2025-08-06T12:21:06.000Z</time>
      </trkpt>
      <trkpt lat="43.08857" lon="1.86349">
        <ele>329</ele>
        <time>2025-08-06T12:21:14.000Z</time>
      </trkpt>
      <trkpt lat="43.08848" lon="1.8631">
        <ele>329.20001220703</ele>
        <time>2025-08-06T12:21:21.000Z</time>
      </trkpt>
      <trkpt lat="43.08834" lon="1.86263">
        <ele>328.79998779297</ele>
        <time>2025-08-06T12:21:29.000Z</time>
      </trkpt>
      <trkpt lat="43.08818" lon="1.86218">
        <ele>328.39999389648</ele>
        <time>2025-08-06T12:21:36.000Z</time>
      </trkpt>
      <trkpt lat="43.088" lon="1.86171">
        <ele>328</ele>
        <time>2025-08-06T12:21:43.000Z</time>
      </trkpt>
      <trkpt lat="43.08783" lon="1.8613">
        <ele>327.79998779297</ele>
        <time>2025-08-06T12:21:49.000Z</time>
      </trkpt>
      <trkpt lat="43.08778" lon="1.86117">
        <ele>327.79998779297</ele>
        <time>2025-08-06T12:21:51.000Z</time>
      </trkpt>
      <trkpt lat="43.08774" lon="1.86103">
        <ele>327.79998779297</ele>
        <time>2025-08-06T12:21:53.000Z</time>
      </trkpt>
      <trkpt lat="43.08769" lon="1.8608">
        <ele>327.60000610352</ele>
        <time>2025-08-06T12:21:56.000Z</time>
      </trkpt>
      <trkpt lat="43.08766" lon="1.86073">
        <ele>327.60000610352</ele>
        <time>2025-08-06T12:21:57.000Z</time>
      </trkpt>
      <trkpt lat="43.08763" lon="1.86068">
        <ele>327.60000610352</ele>
        <time>2025-08-06T12:21:58.000Z</time>
      </trkpt>
      <trkpt lat="43.08755" lon="1.86057">
        <ele>327.60000610352</ele>
        <time>2025-08-06T12:22:00.000Z</time>
      </trkpt>
      <trkpt lat="43.08749" lon="1.86044">
        <ele>327.60000610352</ele>
        <time>2025-08-06T12:22:02.000Z</time>
      </trkpt>
      <trkpt lat="43.08723" lon="1.85989">
        <ele>327.60000610352</ele>
        <time>2025-08-06T12:22:11.000Z</time>
      </trkpt>
      <trkpt lat="43.08709" lon="1.85944">
        <ele>327.60000610352</ele>
        <time>2025-08-06T12:22:18.000Z</time>
      </trkpt>
      <trkpt lat="43.08701" lon="1.85892">
        <ele>327.79998779297</ele>
        <time>2025-08-06T12:22:26.000Z</time>
      </trkpt>
      <trkpt lat="43.08697" lon="1.85881">
        <ele>327.79998779297</ele>
        <time>2025-08-06T12:22:28.000Z</time>
      </trkpt>
      <trkpt lat="43.0869" lon="1.85873">
        <ele>327.79998779297</ele>
        <time>2025-08-06T12:22:30.000Z</time>
      </trkpt>
      <trkpt lat="43.08673" lon="1.85858">
        <ele>328</ele>
        <time>2025-08-06T12:22:36.000Z</time>
      </trkpt>
      <trkpt lat="43.08673" lon="1.85858">
        <ele>328</ele>
        <time>2025-08-06T12:22:39.000Z</time>
      </trkpt>
      <trkpt lat="43.08671" lon="1.8585">
        <ele>327.79998779297</ele>
        <time>2025-08-06T12:22:49.000Z</time>
      </trkpt>
      <trkpt lat="43.08668" lon="1.85829">
        <ele>327.79998779297</ele>
        <time>2025-08-06T12:22:54.000Z</time>
      </trkpt>
      <trkpt lat="43.08666" lon="1.85804">
        <ele>327.79998779297</ele>
        <time>2025-08-06T12:22:59.000Z</time>
      </trkpt>
      <trkpt lat="43.08662" lon="1.85779">
        <ele>327.79998779297</ele>
        <time>2025-08-06T12:23:04.000Z</time>
      </trkpt>
      <trkpt lat="43.08659" lon="1.85733">
        <ele>328.20001220703</ele>
        <time>2025-08-06T12:23:12.000Z</time>
      </trkpt>
      <trkpt lat="43.08655" lon="1.85684">
        <ele>327.79998779297</ele>
        <time>2025-08-06T12:23:20.000Z</time>
      </trkpt>
      <trkpt lat="43.08654" lon="1.85667">
        <ele>327.60000610352</ele>
        <time>2025-08-06T12:23:23.000Z</time>
      </trkpt>
      <trkpt lat="43.0865" lon="1.85626">
        <ele>327.60000610352</ele>
        <time>2025-08-06T12:23:30.000Z</time>
      </trkpt>
      <trkpt lat="43.08649" lon="1.85614">
        <ele>327.60000610352</ele>
        <time>2025-08-06T12:23:32.000Z</time>
      </trkpt>
      <trkpt lat="43.08645" lon="1.8558">
        <ele>327.39999389648</ele>
        <time>2025-08-06T12:23:38.000Z</time>
      </trkpt>
      <trkpt lat="43.0864" lon="1.85536">
        <ele>327.20001220703</ele>
        <time>2025-08-06T12:23:45.000Z</time>
      </trkpt>
      <trkpt lat="43.08638" lon="1.8553">
        <ele>327.20001220703</ele>
        <time>2025-08-06T12:23:46.000Z</time>
      </trkpt>
      <trkpt lat="43.0863" lon="1.85473">
        <ele>326.79998779297</ele>
        <time>2025-08-06T12:23:55.000Z</time>
      </trkpt>
      <trkpt lat="43.08628" lon="1.85461">
        <ele>326.60000610352</ele>
        <time>2025-08-06T12:23:57.000Z</time>
      </trkpt>
      <trkpt lat="43.08621" lon="1.85423">
        <ele>326.39999389648</ele>
        <time>2025-08-06T12:24:03.000Z</time>
      </trkpt>
      <trkpt lat="43.08611" lon="1.85374">
        <ele>326.60000610352</ele>
        <time>2025-08-06T12:24:11.000Z</time>
      </trkpt>
      <trkpt lat="43.08607" lon="1.85356">
        <ele>326.60000610352</ele>
        <time>2025-08-06T12:24:14.000Z</time>
      </trkpt>
      <trkpt lat="43.08603" lon="1.85338">
        <ele>326.60000610352</ele>
        <time>2025-08-06T12:24:17.000Z</time>
      </trkpt>
      <trkpt lat="43.08595" lon="1.85303">
        <ele>326.39999389648</ele>
        <time>2025-08-06T12:24:23.000Z</time>
      </trkpt>
      <trkpt lat="43.08592" lon="1.85291">
        <ele>326.39999389648</ele>
        <time>2025-08-06T12:24:25.000Z</time>
      </trkpt>
      <trkpt lat="43.08588" lon="1.85273">
        <ele>326.39999389648</ele>
        <time>2025-08-06T12:24:28.000Z</time>
      </trkpt>
      <trkpt lat="43.08583" lon="1.85255">
        <ele>326.39999389648</ele>
        <time>2025-08-06T12:24:31.000Z</time>
      </trkpt>
      <trkpt lat="43.08578" lon="1.85238">
        <ele>326.39999389648</ele>
        <time>2025-08-06T12:24:34.000Z</time>
      </trkpt>
      <trkpt lat="43.08574" lon="1.85217">
        <ele>326.39999389648</ele>
        <time>2025-08-06T12:24:37.000Z</time>
      </trkpt>
      <trkpt lat="43.08558" lon="1.85164">
        <ele>326.20001220703</ele>
        <time>2025-08-06T12:24:46.000Z</time>
      </trkpt>
      <trkpt lat="43.08541" lon="1.85111">
        <ele>326</ele>
        <time>2025-08-06T12:24:55.000Z</time>
      </trkpt>
      <trkpt lat="43.08529" lon="1.85078">
        <ele>326</ele>
        <time>2025-08-06T12:25:01.000Z</time>
      </trkpt>
      <trkpt lat="43.08525" lon="1.85068">
        <ele>325.79998779297</ele>
        <time>2025-08-06T12:25:03.000Z</time>
      </trkpt>
      <trkpt lat="43.08517" lon="1.85046">
        <ele>325.79998779297</ele>
        <time>2025-08-06T12:25:07.000Z</time>
      </trkpt>
      <trkpt lat="43.08511" lon="1.85032">
        <ele>325.60000610352</ele>
        <time>2025-08-06T12:25:10.000Z</time>
      </trkpt>
      <trkpt lat="43.08504" lon="1.85016">
        <ele>325.60000610352</ele>
        <time>2025-08-06T12:25:13.000Z</time>
      </trkpt>
      <trkpt lat="43.08497" lon="1.85001">
        <ele>325.60000610352</ele>
        <time>2025-08-06T12:25:16.000Z</time>
      </trkpt>
      <trkpt lat="43.08481" lon="1.84968">
        <ele>325.79998779297</ele>
        <time>2025-08-06T12:25:22.000Z</time>
      </trkpt>
      <trkpt lat="43.08477" lon="1.84957">
        <ele>325.79998779297</ele>
        <time>2025-08-06T12:25:24.000Z</time>
      </trkpt>
      <trkpt lat="43.0846" lon="1.84915">
        <ele>325.79998779297</ele>
        <time>2025-08-06T12:25:31.000Z</time>
      </trkpt>
      <trkpt lat="43.08446" lon="1.84875">
        <ele>325.79998779297</ele>
        <time>2025-08-06T12:25:38.000Z</time>
      </trkpt>
      <trkpt lat="43.08429" lon="1.84837">
        <ele>325.39999389648</ele>
        <time>2025-08-06T12:25:45.000Z</time>
      </trkpt>
      <trkpt lat="43.08408" lon="1.84796">
        <ele>325</ele>
        <time>2025-08-06T12:25:52.000Z</time>
      </trkpt>
      <trkpt lat="43.084" lon="1.84778">
        <ele>324.79998779297</ele>
        <time>2025-08-06T12:25:55.000Z</time>
      </trkpt>
      <trkpt lat="43.08386" lon="1.84751">
        <ele>324.60000610352</ele>
        <time>2025-08-06T12:26:00.000Z</time>
      </trkpt>
      <trkpt lat="43.08372" lon="1.84719">
        <ele>324.20001220703</ele>
        <time>2025-08-06T12:26:06.000Z</time>
      </trkpt>
      <trkpt lat="43.08352" lon="1.84678">
        <ele>324</ele>
        <time>2025-08-06T12:26:14.000Z</time>
      </trkpt>
      <trkpt lat="43.08339" lon="1.84649">
        <ele>324</ele>
        <time>2025-08-06T12:26:19.000Z</time>
      </trkpt>
      <trkpt lat="43.08337" lon="1.84644">
        <ele>323.79998779297</ele>
        <time>2025-08-06T12:26:20.000Z</time>
      </trkpt>
      <trkpt lat="43.08316" lon="1.84599">
        <ele>323.60000610352</ele>
        <time>2025-08-06T12:26:28.000Z</time>
      </trkpt>
      <trkpt lat="43.08313" lon="1.84592">
        <ele>323.60000610352</ele>
        <time>2025-08-06T12:26:29.000Z</time>
      </trkpt>
      <trkpt lat="43.08304" lon="1.84574">
        <ele>323.39999389648</ele>
        <time>2025-08-06T12:26:32.000Z</time>
      </trkpt>
      <trkpt lat="43.08278" lon="1.8452">
        <ele>323.20001220703</ele>
        <time>2025-08-06T12:26:41.000Z</time>
      </trkpt>
      <trkpt lat="43.08268" lon="1.84503">
        <ele>323</ele>
        <time>2025-08-06T12:26:44.000Z</time>
      </trkpt>
      <trkpt lat="43.08258" lon="1.8448">
        <ele>323</ele>
        <time>2025-08-06T12:26:48.000Z</time>
      </trkpt>
      <trkpt lat="43.08246" lon="1.84455">
        <ele>322.79998779297</ele>
        <time>2025-08-06T12:26:52.000Z</time>
      </trkpt>
      <trkpt lat="43.08242" lon="1.84443">
        <ele>322.79998779297</ele>
        <time>2025-08-06T12:26:54.000Z</time>
      </trkpt>
      <trkpt lat="43.08226" lon="1.8441">
        <ele>322.60000610352</ele>
        <time>2025-08-06T12:27:01.000Z</time>
      </trkpt>
      <trkpt lat="43.08209" lon="1.84371">
        <ele>322</ele>
        <time>2025-08-06T12:27:09.000Z</time>
      </trkpt>
      <trkpt lat="43.08206" lon="1.84366">
        <ele>322</ele>
        <time>2025-08-06T12:27:10.000Z</time>
      </trkpt>
      <trkpt lat="43.08187" lon="1.84323">
        <ele>321.60000610352</ele>
        <time>2025-08-06T12:27:19.000Z</time>
      </trkpt>
      <trkpt lat="43.08165" lon="1.84283">
        <ele>321.60000610352</ele>
        <time>2025-08-06T12:27:28.000Z</time>
      </trkpt>
      <trkpt lat="43.08142" lon="1.84236">
        <ele>321.39999389648</ele>
        <time>2025-08-06T12:27:37.000Z</time>
      </trkpt>
      <trkpt lat="43.08133" lon="1.84215">
        <ele>321.20001220703</ele>
        <time>2025-08-06T12:27:41.000Z</time>
      </trkpt>
      <trkpt lat="43.08127" lon="1.84198">
        <ele>321</ele>
        <time>2025-08-06T12:27:44.000Z</time>
      </trkpt>
      <trkpt lat="43.08124" lon="1.84192">
        <ele>321</ele>
        <time>2025-08-06T12:27:45.000Z</time>
      </trkpt>
      <trkpt lat="43.08114" lon="1.84169">
        <ele>321</ele>
        <time>2025-08-06T12:27:49.000Z</time>
      </trkpt>
      <trkpt lat="43.08112" lon="1.84163">
        <ele>321</ele>
        <time>2025-08-06T12:27:50.000Z</time>
      </trkpt>
      <trkpt lat="43.08099" lon="1.84132">
        <ele>320.60000610352</ele>
        <time>2025-08-06T12:27:55.000Z</time>
      </trkpt>
      <trkpt lat="43.08092" lon="1.84117">
        <ele>320.60000610352</ele>
        <time>2025-08-06T12:27:58.000Z</time>
      </trkpt>
      <trkpt lat="43.08071" lon="1.8407">
        <ele>320</ele>
        <time>2025-08-06T12:28:07.000Z</time>
      </trkpt>
      <trkpt lat="43.08058" lon="1.84044">
        <ele>320</ele>
        <time>2025-08-06T12:28:12.000Z</time>
      </trkpt>
      <trkpt lat="43.08048" lon="1.84022">
        <ele>319.79998779297</ele>
        <time>2025-08-06T12:28:16.000Z</time>
      </trkpt>
      <trkpt lat="43.08037" lon="1.83989">
        <ele>319.39999389648</ele>
        <time>2025-08-06T12:28:21.000Z</time>
      </trkpt>
      <trkpt lat="43.08028" lon="1.83971">
        <ele>319.39999389648</ele>
        <time>2025-08-06T12:28:24.000Z</time>
      </trkpt>
      <trkpt lat="43.08023" lon="1.83956">
        <ele>319.39999389648</ele>
        <time>2025-08-06T12:28:26.000Z</time>
      </trkpt>
      <trkpt lat="43.08018" lon="1.83935">
        <ele>319.20001220703</ele>
        <time>2025-08-06T12:28:29.000Z</time>
      </trkpt>
      <trkpt lat="43.08005" lon="1.83902">
        <ele>318.79998779297</ele>
        <time>2025-08-06T12:28:34.000Z</time>
      </trkpt>
      <trkpt lat="43.07999" lon="1.83889">
        <ele>318.79998779297</ele>
        <time>2025-08-06T12:28:36.000Z</time>
      </trkpt>
      <trkpt lat="43.07998" lon="1.83881">
        <ele>318.60000610352</ele>
        <time>2025-08-06T12:28:37.000Z</time>
      </trkpt>
      <trkpt lat="43.07994" lon="1.83863">
        <ele>318.39999389648</ele>
        <time>2025-08-06T12:28:40.000Z</time>
      </trkpt>
      <trkpt lat="43.07993" lon="1.83857">
        <ele>318.39999389648</ele>
        <time>2025-08-06T12:28:41.000Z</time>
      </trkpt>
      <trkpt lat="43.07991" lon="1.83851">
        <ele>318.39999389648</ele>
        <time>2025-08-06T12:28:42.000Z</time>
      </trkpt>
      <trkpt lat="43.07982" lon="1.83822">
        <ele>318.20001220703</ele>
        <time>2025-08-06T12:28:47.000Z</time>
      </trkpt>
      <trkpt lat="43.07971" lon="1.8377">
        <ele>318</ele>
        <time>2025-08-06T12:28:55.000Z</time>
      </trkpt>
      <trkpt lat="43.07963" lon="1.83746">
        <ele>317.79998779297</ele>
        <time>2025-08-06T12:28:59.000Z</time>
      </trkpt>
      <trkpt lat="43.07962" lon="1.83738">
        <ele>317.79998779297</ele>
        <time>2025-08-06T12:29:00.000Z</time>
      </trkpt>
      <trkpt lat="43.07958" lon="1.83724">
        <ele>317.79998779297</ele>
        <time>2025-08-06T12:29:02.000Z</time>
      </trkpt>
      <trkpt lat="43.0795" lon="1.8369">
        <ele>317.60000610352</ele>
        <time>2025-08-06T12:29:07.000Z</time>
      </trkpt>
      <trkpt lat="43.0794" lon="1.83651">
        <ele>317.39999389648</ele>
        <time>2025-08-06T12:29:13.000Z</time>
      </trkpt>
      <trkpt lat="43.07936" lon="1.83638">
        <ele>317.39999389648</ele>
        <time>2025-08-06T12:29:15.000Z</time>
      </trkpt>
      <trkpt lat="43.07929" lon="1.83616">
        <ele>317.20001220703</ele>
        <time>2025-08-06T12:29:18.000Z</time>
      </trkpt>
      <trkpt lat="43.07927" lon="1.83604">
        <ele>317.20001220703</ele>
        <time>2025-08-06T12:29:20.000Z</time>
      </trkpt>
      <trkpt lat="43.07917" lon="1.83566">
        <ele>317</ele>
        <time>2025-08-06T12:29:25.000Z</time>
      </trkpt>
      <trkpt lat="43.07912" lon="1.83555">
        <ele>317</ele>
        <time>2025-08-06T12:29:27.000Z</time>
      </trkpt>
      <trkpt lat="43.07904" lon="1.83521">
        <ele>316.79998779297</ele>
        <time>2025-08-06T12:29:32.000Z</time>
      </trkpt>
      <trkpt lat="43.07902" lon="1.83515">
        <ele>316.79998779297</ele>
        <time>2025-08-06T12:29:33.000Z</time>
      </trkpt>
      <trkpt lat="43.079" lon="1.8349">
        <ele>316.79998779297</ele>
        <time>2025-08-06T12:29:36.000Z</time>
      </trkpt>
      <trkpt lat="43.07899" lon="1.83484">
        <ele>316.60000610352</ele>
        <time>2025-08-06T12:29:37.000Z</time>
      </trkpt>
      <trkpt lat="43.0789" lon="1.83465">
        <ele>316.60000610352</ele>
        <time>2025-08-06T12:29:40.000Z</time>
      </trkpt>
      <trkpt lat="43.07887" lon="1.83451">
        <ele>316.60000610352</ele>
        <time>2025-08-06T12:29:42.000Z</time>
      </trkpt>
      <trkpt lat="43.07887" lon="1.83446">
        <ele>316.60000610352</ele>
        <time>2025-08-06T12:29:43.000Z</time>
      </trkpt>
      <trkpt lat="43.07887" lon="1.83441">
        <ele>316.60000610352</ele>
        <time>2025-08-06T12:29:44.000Z</time>
      </trkpt>
      <trkpt lat="43.07886" lon="1.83429">
        <ele>316.60000610352</ele>
        <time>2025-08-06T12:29:46.000Z</time>
      </trkpt>
      <trkpt lat="43.07873" lon="1.83385">
        <ele>316</ele>
        <time>2025-08-06T12:29:53.000Z</time>
      </trkpt>
      <trkpt lat="43.0787" lon="1.83366">
        <ele>315.79998779297</ele>
        <time>2025-08-06T12:29:58.000Z</time>
      </trkpt>
      <trkpt lat="43.07871" lon="1.83346">
        <ele>316.39999389648</ele>
        <time>2025-08-06T12:30:03.000Z</time>
      </trkpt>
      <trkpt lat="43.07863" lon="1.8332">
        <ele>316.60000610352</ele>
        <time>2025-08-06T12:30:09.000Z</time>
      </trkpt>
      <trkpt lat="43.0786" lon="1.83316">
        <ele>316.60000610352</ele>
        <time>2025-08-06T12:30:10.000Z</time>
      </trkpt>
      <trkpt lat="43.07852" lon="1.83311">
        <ele>316.60000610352</ele>
        <time>2025-08-06T12:30:12.000Z</time>
      </trkpt>
      <trkpt lat="43.07849" lon="1.83308">
        <ele>316.60000610352</ele>
        <time>2025-08-06T12:30:13.000Z</time>
      </trkpt>
      <trkpt lat="43.07846" lon="1.83297">
        <ele>316.20001220703</ele>
        <time>2025-08-06T12:30:15.000Z</time>
      </trkpt>
      <trkpt lat="43.07834" lon="1.8325">
        <ele>315.79998779297</ele>
        <time>2025-08-06T12:30:24.000Z</time>
      </trkpt>
      <trkpt lat="43.07829" lon="1.83228">
        <ele>315.79998779297</ele>
        <time>2025-08-06T12:30:27.000Z</time>
      </trkpt>
      <trkpt lat="43.07825" lon="1.8321">
        <ele>315.60000610352</ele>
        <time>2025-08-06T12:30:31.000Z</time>
      </trkpt>
      <trkpt lat="43.07808" lon="1.83149">
        <ele>315.20001220703</ele>
        <time>2025-08-06T12:30:40.000Z</time>
      </trkpt>
      <trkpt lat="43.07807" lon="1.83143">
        <ele>315.20001220703</ele>
        <time>2025-08-06T12:30:41.000Z</time>
      </trkpt>
      <trkpt lat="43.07796" lon="1.83101">
        <ele>314.79998779297</ele>
        <time>2025-08-06T12:30:48.000Z</time>
      </trkpt>
      <trkpt lat="43.07793" lon="1.83089">
        <ele>314.79998779297</ele>
        <time>2025-08-06T12:30:50.000Z</time>
      </trkpt>
      <trkpt lat="43.07785" lon="1.8306">
        <ele>314.60000610352</ele>
        <time>2025-08-06T12:30:55.000Z</time>
      </trkpt>
      <trkpt lat="43.07769" lon="1.82999">
        <ele>314.20001220703</ele>
        <time>2025-08-06T12:31:05.000Z</time>
      </trkpt>
      <trkpt lat="43.07765" lon="1.82981">
        <ele>314</ele>
        <time>2025-08-06T12:31:08.000Z</time>
      </trkpt>
      <trkpt lat="43.0776" lon="1.82958">
        <ele>313.79998779297</ele>
        <time>2025-08-06T12:31:12.000Z</time>
      </trkpt>
      <trkpt lat="43.07756" lon="1.8294">
        <ele>313.79998779297</ele>
        <time>2025-08-06T12:31:15.000Z</time>
      </trkpt>
      <trkpt lat="43.07753" lon="1.8293">
        <ele>313.79998779297</ele>
        <time>2025-08-06T12:31:17.000Z</time>
      </trkpt>
      <trkpt lat="43.07747" lon="1.82911">
        <ele>313.60000610352</ele>
        <time>2025-08-06T12:31:20.000Z</time>
      </trkpt>
      <trkpt lat="43.0774" lon="1.82885">
        <ele>313.79998779297</ele>
        <time>2025-08-06T12:31:24.000Z</time>
      </trkpt>
      <trkpt lat="43.07739" lon="1.82878">
        <ele>313.79998779297</ele>
        <time>2025-08-06T12:31:25.000Z</time>
      </trkpt>
      <trkpt lat="43.07735" lon="1.82867">
        <ele>313.79998779297</ele>
        <time>2025-08-06T12:31:27.000Z</time>
      </trkpt>
      <trkpt lat="43.07733" lon="1.82855">
        <ele>313.79998779297</ele>
        <time>2025-08-06T12:31:29.000Z</time>
      </trkpt>
      <trkpt lat="43.07718" lon="1.8281">
        <ele>313.79998779297</ele>
        <time>2025-08-06T12:31:36.000Z</time>
      </trkpt>
      <trkpt lat="43.07714" lon="1.82791">
        <ele>313.79998779297</ele>
        <time>2025-08-06T12:31:39.000Z</time>
      </trkpt>
      <trkpt lat="43.07707" lon="1.82763">
        <ele>313.60000610352</ele>
        <time>2025-08-06T12:31:43.000Z</time>
      </trkpt>
      <trkpt lat="43.07693" lon="1.8271">
        <ele>313.60000610352</ele>
        <time>2025-08-06T12:31:52.000Z</time>
      </trkpt>
      <trkpt lat="43.07687" lon="1.82683">
        <ele>313.60000610352</ele>
        <time>2025-08-06T12:31:57.000Z</time>
      </trkpt>
      <trkpt lat="43.07676" lon="1.82631">
        <ele>313.60000610352</ele>
        <time>2025-08-06T12:32:06.000Z</time>
      </trkpt>
      <trkpt lat="43.07672" lon="1.82616">
        <ele>313.60000610352</ele>
        <time>2025-08-06T12:32:09.000Z</time>
      </trkpt>
      <trkpt lat="43.07668" lon="1.82596">
        <ele>313.60000610352</ele>
        <time>2025-08-06T12:32:13.000Z</time>
      </trkpt>
      <trkpt lat="43.07657" lon="1.82564">
        <ele>313.79998779297</ele>
        <time>2025-08-06T12:32:19.000Z</time>
      </trkpt>
      <trkpt lat="43.07648" lon="1.82532">
        <ele>313.79998779297</ele>
        <time>2025-08-06T12:32:25.000Z</time>
      </trkpt>
      <trkpt lat="43.07639" lon="1.82496">
        <ele>313.79998779297</ele>
        <time>2025-08-06T12:32:31.000Z</time>
      </trkpt>
      <trkpt lat="43.07625" lon="1.82445">
        <ele>313.79998779297</ele>
        <time>2025-08-06T12:32:39.000Z</time>
      </trkpt>
      <trkpt lat="43.07621" lon="1.82423">
        <ele>313.79998779297</ele>
        <time>2025-08-06T12:32:43.000Z</time>
      </trkpt>
      <trkpt lat="43.0761" lon="1.82389">
        <ele>314</ele>
        <time>2025-08-06T12:32:49.000Z</time>
      </trkpt>
      <trkpt lat="43.07603" lon="1.82361">
        <ele>314</ele>
        <time>2025-08-06T12:32:54.000Z</time>
      </trkpt>
      <trkpt lat="43.07596" lon="1.82333">
        <ele>314</ele>
        <time>2025-08-06T12:33:00.000Z</time>
      </trkpt>
      <trkpt lat="43.07587" lon="1.82294">
        <ele>314</ele>
        <time>2025-08-06T12:33:07.000Z</time>
      </trkpt>
      <trkpt lat="43.07576" lon="1.82256">
        <ele>314</ele>
        <time>2025-08-06T12:33:14.000Z</time>
      </trkpt>
      <trkpt lat="43.07563" lon="1.822">
        <ele>314</ele>
        <time>2025-08-06T12:33:23.000Z</time>
      </trkpt>
      <trkpt lat="43.07554" lon="1.82167">
        <ele>314</ele>
        <time>2025-08-06T12:33:30.000Z</time>
      </trkpt>
      <trkpt lat="43.07548" lon="1.82157">
        <ele>314</ele>
        <time>2025-08-06T12:33:34.000Z</time>
      </trkpt>
      <trkpt lat="43.07544" lon="1.82155">
        <ele>314</ele>
        <time>2025-08-06T12:33:36.000Z</time>
      </trkpt>
      <trkpt lat="43.07543" lon="1.82149">
        <ele>314</ele>
        <time>2025-08-06T12:33:38.000Z</time>
      </trkpt>
      <trkpt lat="43.07537" lon="1.82122">
        <ele>314</ele>
        <time>2025-08-06T12:33:44.000Z</time>
      </trkpt>
      <trkpt lat="43.07529" lon="1.82089">
        <ele>314</ele>
        <time>2025-08-06T12:33:51.000Z</time>
      </trkpt>
      <trkpt lat="43.07526" lon="1.82066">
        <ele>313.79998779297</ele>
        <time>2025-08-06T12:33:56.000Z</time>
      </trkpt>
      <trkpt lat="43.07522" lon="1.82042">
        <ele>314</ele>
        <time>2025-08-06T12:34:01.000Z</time>
      </trkpt>
      <trkpt lat="43.07512" lon="1.81998">
        <ele>314.20001220703</ele>
        <time>2025-08-06T12:34:09.000Z</time>
      </trkpt>
      <trkpt lat="43.07501" lon="1.81966">
        <ele>314.20001220703</ele>
        <time>2025-08-06T12:34:15.000Z</time>
      </trkpt>
      <trkpt lat="43.07488" lon="1.81923">
        <ele>314</ele>
        <time>2025-08-06T12:34:23.000Z</time>
      </trkpt>
      <trkpt lat="43.07478" lon="1.81886">
        <ele>314</ele>
        <time>2025-08-06T12:34:29.000Z</time>
      </trkpt>
      <trkpt lat="43.07472" lon="1.81855">
        <ele>314</ele>
        <time>2025-08-06T12:34:34.000Z</time>
      </trkpt>
      <trkpt lat="43.07468" lon="1.81831">
        <ele>314</ele>
        <time>2025-08-06T12:34:39.000Z</time>
      </trkpt>
      <trkpt lat="43.07467" lon="1.81826">
        <ele>314</ele>
        <time>2025-08-06T12:34:40.000Z</time>
      </trkpt>
      <trkpt lat="43.07459" lon="1.81777">
        <ele>314.20001220703</ele>
        <time>2025-08-06T12:34:49.000Z</time>
      </trkpt>
      <trkpt lat="43.07455" lon="1.81738">
        <ele>314.20001220703</ele>
        <time>2025-08-06T12:34:56.000Z</time>
      </trkpt>
      <trkpt lat="43.07454" lon="1.81733">
        <ele>314.20001220703</ele>
        <time>2025-08-06T12:34:57.000Z</time>
      </trkpt>
      <trkpt lat="43.07452" lon="1.81719">
        <ele>314</ele>
        <time>2025-08-06T12:34:59.000Z</time>
      </trkpt>
      <trkpt lat="43.07448" lon="1.81682">
        <ele>314.20001220703</ele>
        <time>2025-08-06T12:35:05.000Z</time>
      </trkpt>
      <trkpt lat="43.07444" lon="1.8165">
        <ele>314.20001220703</ele>
        <time>2025-08-06T12:35:10.000Z</time>
      </trkpt>
      <trkpt lat="43.07441" lon="1.81623">
        <ele>314.20001220703</ele>
        <time>2025-08-06T12:35:15.000Z</time>
      </trkpt>
      <trkpt lat="43.0744" lon="1.81587">
        <ele>314.20001220703</ele>
        <time>2025-08-06T12:35:22.000Z</time>
      </trkpt>
      <trkpt lat="43.07439" lon="1.8157">
        <ele>314.20001220703</ele>
        <time>2025-08-06T12:35:27.000Z</time>
      </trkpt>
      <trkpt lat="43.07439" lon="1.81569">
        <ele>314.20001220703</ele>
        <time>2025-08-06T12:35:28.000Z</time>
      </trkpt>
      <trkpt lat="43.07439" lon="1.81569">
        <ele>314</ele>
        <time>2025-08-06T12:35:30.000Z</time>
      </trkpt>
      <trkpt lat="43.07439" lon="1.81562">
        <ele>314.39999389648</ele>
        <time>2025-08-06T12:39:44.000Z</time>
      </trkpt>
      <trkpt lat="43.07438" lon="1.81544">
        <ele>314.39999389648</ele>
        <time>2025-08-06T12:39:49.000Z</time>
      </trkpt>
      <trkpt lat="43.07437" lon="1.81525">
        <ele>314.39999389648</ele>
        <time>2025-08-06T12:39:53.000Z</time>
      </trkpt>
      <trkpt lat="43.07437" lon="1.81515">
        <ele>314.39999389648</ele>
        <time>2025-08-06T12:39:55.000Z</time>
      </trkpt>
      <trkpt lat="43.07437" lon="1.81484">
        <ele>314.39999389648</ele>
        <time>2025-08-06T12:40:01.000Z</time>
      </trkpt>
      <trkpt lat="43.07438" lon="1.81442">
        <ele>314.60000610352</ele>
        <time>2025-08-06T12:40:09.000Z</time>
      </trkpt>
      <trkpt lat="43.07439" lon="1.814">
        <ele>314.79998779297</ele>
        <time>2025-08-06T12:40:16.000Z</time>
      </trkpt>
      <trkpt lat="43.07443" lon="1.8136">
        <ele>315</ele>
        <time>2025-08-06T12:40:23.000Z</time>
      </trkpt>
      <trkpt lat="43.07446" lon="1.81319">
        <ele>314.79998779297</ele>
        <time>2025-08-06T12:40:29.000Z</time>
      </trkpt>
      <trkpt lat="43.07447" lon="1.81304">
        <ele>314.79998779297</ele>
        <time>2025-08-06T12:40:31.000Z</time>
      </trkpt>
      <trkpt lat="43.07448" lon="1.81281">
        <ele>314.60000610352</ele>
        <time>2025-08-06T12:40:35.000Z</time>
      </trkpt>
      <trkpt lat="43.07452" lon="1.81249">
        <ele>314.79998779297</ele>
        <time>2025-08-06T12:40:41.000Z</time>
      </trkpt>
      <trkpt lat="43.07455" lon="1.81227">
        <ele>315.39999389648</ele>
        <time>2025-08-06T12:40:45.000Z</time>
      </trkpt>
      <trkpt lat="43.07457" lon="1.81217">
        <ele>315.60000610352</ele>
        <time>2025-08-06T12:40:47.000Z</time>
      </trkpt>
      <trkpt lat="43.07463" lon="1.81162">
        <ele>316</ele>
        <time>2025-08-06T12:40:57.000Z</time>
      </trkpt>
      <trkpt lat="43.0747" lon="1.81105">
        <ele>316.39999389648</ele>
        <time>2025-08-06T12:41:07.000Z</time>
      </trkpt>
      <trkpt lat="43.07471" lon="1.81094">
        <ele>316.20001220703</ele>
        <time>2025-08-06T12:41:09.000Z</time>
      </trkpt>
      <trkpt lat="43.07472" lon="1.81071">
        <ele>316.39999389648</ele>
        <time>2025-08-06T12:41:13.000Z</time>
      </trkpt>
      <trkpt lat="43.07473" lon="1.81054">
        <ele>316.60000610352</ele>
        <time>2025-08-06T12:41:16.000Z</time>
      </trkpt>
      <trkpt lat="43.07474" lon="1.81037">
        <ele>316.60000610352</ele>
        <time>2025-08-06T12:41:19.000Z</time>
      </trkpt>
      <trkpt lat="43.07477" lon="1.81015">
        <ele>316.60000610352</ele>
        <time>2025-08-06T12:41:23.000Z</time>
      </trkpt>
      <trkpt lat="43.07478" lon="1.80998">
        <ele>316.79998779297</ele>
        <time>2025-08-06T12:41:26.000Z</time>
      </trkpt>
      <trkpt lat="43.07483" lon="1.80963">
        <ele>317</ele>
        <time>2025-08-06T12:41:32.000Z</time>
      </trkpt>
      <trkpt lat="43.07487" lon="1.80916">
        <ele>317</ele>
        <time>2025-08-06T12:41:40.000Z</time>
      </trkpt>
      <trkpt lat="43.0749" lon="1.80869">
        <ele>317.39999389648</ele>
        <time>2025-08-06T12:41:48.000Z</time>
      </trkpt>
      <trkpt lat="43.07491" lon="1.80858">
        <ele>317.39999389648</ele>
        <time>2025-08-06T12:41:50.000Z</time>
      </trkpt>
      <trkpt lat="43.07493" lon="1.80814">
        <ele>317.60000610352</ele>
        <time>2025-08-06T12:41:58.000Z</time>
      </trkpt>
      <trkpt lat="43.07495" lon="1.80803">
        <ele>317.79998779297</ele>
        <time>2025-08-06T12:42:00.000Z</time>
      </trkpt>
      <trkpt lat="43.07496" lon="1.80797">
        <ele>317.79998779297</ele>
        <time>2025-08-06T12:42:01.000Z</time>
      </trkpt>
      <trkpt lat="43.07498" lon="1.80766">
        <ele>318</ele>
        <time>2025-08-06T12:42:07.000Z</time>
      </trkpt>
      <trkpt lat="43.07501" lon="1.80739">
        <ele>318</ele>
        <time>2025-08-06T12:42:12.000Z</time>
      </trkpt>
      <trkpt lat="43.07506" lon="1.80694">
        <ele>318.20001220703</ele>
        <time>2025-08-06T12:42:20.000Z</time>
      </trkpt>
      <trkpt lat="43.07507" lon="1.80689">
        <ele>318.20001220703</ele>
        <time>2025-08-06T12:42:21.000Z</time>
      </trkpt>
      <trkpt lat="43.07511" lon="1.80652">
        <ele>318.20001220703</ele>
        <time>2025-08-06T12:42:27.000Z</time>
      </trkpt>
      <trkpt lat="43.07516" lon="1.80599">
        <ele>317.79998779297</ele>
        <time>2025-08-06T12:42:36.000Z</time>
      </trkpt>
      <trkpt lat="43.07521" lon="1.80546">
        <ele>317.60000610352</ele>
        <time>2025-08-06T12:42:45.000Z</time>
      </trkpt>
      <trkpt lat="43.07525" lon="1.80499">
        <ele>317.39999389648</ele>
        <time>2025-08-06T12:42:53.000Z</time>
      </trkpt>
      <trkpt lat="43.07526" lon="1.80487">
        <ele>317.60000610352</ele>
        <time>2025-08-06T12:42:55.000Z</time>
      </trkpt>
      <trkpt lat="43.0753" lon="1.80444">
        <ele>317.60000610352</ele>
        <time>2025-08-06T12:43:02.000Z</time>
      </trkpt>
      <trkpt lat="43.0753" lon="1.80438">
        <ele>317.60000610352</ele>
        <time>2025-08-06T12:43:03.000Z</time>
      </trkpt>
      <trkpt lat="43.07532" lon="1.80426">
        <ele>317.60000610352</ele>
        <time>2025-08-06T12:43:05.000Z</time>
      </trkpt>
      <trkpt lat="43.07534" lon="1.80414">
        <ele>317.39999389648</ele>
        <time>2025-08-06T12:43:07.000Z</time>
      </trkpt>
      <trkpt lat="43.07535" lon="1.80401">
        <ele>317.39999389648</ele>
        <time>2025-08-06T12:43:09.000Z</time>
      </trkpt>
      <trkpt lat="43.07542" lon="1.80337">
        <ele>317</ele>
        <time>2025-08-06T12:43:19.000Z</time>
      </trkpt>
      <trkpt lat="43.07545" lon="1.80293">
        <ele>316.79998779297</ele>
        <time>2025-08-06T12:43:26.000Z</time>
      </trkpt>
      <trkpt lat="43.07546" lon="1.80286">
        <ele>316.79998779297</ele>
        <time>2025-08-06T12:43:27.000Z</time>
      </trkpt>
      <trkpt lat="43.0755" lon="1.80249">
        <ele>316.60000610352</ele>
        <time>2025-08-06T12:43:33.000Z</time>
      </trkpt>
      <trkpt lat="43.07552" lon="1.80231">
        <ele>316.39999389648</ele>
        <time>2025-08-06T12:43:36.000Z</time>
      </trkpt>
      <trkpt lat="43.07554" lon="1.80217">
        <ele>316.39999389648</ele>
        <time>2025-08-06T12:43:39.000Z</time>
      </trkpt>
      <trkpt lat="43.07554" lon="1.80207">
        <ele>316</ele>
        <time>2025-08-06T12:43:42.000Z</time>
      </trkpt>
      <trkpt lat="43.07554" lon="1.80203">
        <ele>315.60000610352</ele>
        <time>2025-08-06T12:43:43.000Z</time>
      </trkpt>
      <trkpt lat="43.07554" lon="1.80199">
        <ele>315.39999389648</ele>
        <time>2025-08-06T12:43:44.000Z</time>
      </trkpt>
      <trkpt lat="43.07557" lon="1.80165">
        <ele>314.60000610352</ele>
        <time>2025-08-06T12:43:50.000Z</time>
      </trkpt>
      <trkpt lat="43.07562" lon="1.80128">
        <ele>314.39999389648</ele>
        <time>2025-08-06T12:43:58.000Z</time>
      </trkpt>
      <trkpt lat="43.07566" lon="1.80105">
        <ele>314.79998779297</ele>
        <time>2025-08-06T12:44:03.000Z</time>
      </trkpt>
      <trkpt lat="43.0757" lon="1.80076">
        <ele>315.20001220703</ele>
        <time>2025-08-06T12:44:09.000Z</time>
      </trkpt>
      <trkpt lat="43.07575" lon="1.80044">
        <ele>315.39999389648</ele>
        <time>2025-08-06T12:44:16.000Z</time>
      </trkpt>
      <trkpt lat="43.07576" lon="1.80005">
        <ele>315.60000610352</ele>
        <time>2025-08-06T12:44:23.000Z</time>
      </trkpt>
      <trkpt lat="43.07578" lon="1.79981">
        <ele>315.60000610352</ele>
        <time>2025-08-06T12:44:27.000Z</time>
      </trkpt>
      <trkpt lat="43.07579" lon="1.79963">
        <ele>315.39999389648</ele>
        <time>2025-08-06T12:44:30.000Z</time>
      </trkpt>
      <trkpt lat="43.07585" lon="1.79915">
        <ele>315.20001220703</ele>
        <time>2025-08-06T12:44:38.000Z</time>
      </trkpt>
      <trkpt lat="43.07586" lon="1.79908">
        <ele>315.20001220703</ele>
        <time>2025-08-06T12:44:39.000Z</time>
      </trkpt>
      <trkpt lat="43.07589" lon="1.7986">
        <ele>315</ele>
        <time>2025-08-06T12:44:47.000Z</time>
      </trkpt>
      <trkpt lat="43.07592" lon="1.79831">
        <ele>315</ele>
        <time>2025-08-06T12:44:52.000Z</time>
      </trkpt>
      <trkpt lat="43.07594" lon="1.79819">
        <ele>315</ele>
        <time>2025-08-06T12:44:54.000Z</time>
      </trkpt>
      <trkpt lat="43.07596" lon="1.79781">
        <ele>314.79998779297</ele>
        <time>2025-08-06T12:45:02.000Z</time>
      </trkpt>
      <trkpt lat="43.07596" lon="1.79781">
        <ele>314.39999389648</ele>
        <time>2025-08-06T12:45:04.000Z</time>
      </trkpt>
      <trkpt lat="43.07597" lon="1.79771">
        <ele>313</ele>
        <time>2025-08-06T12:45:22.000Z</time>
      </trkpt>
      <trkpt lat="43.07599" lon="1.79744">
        <ele>312.60000610352</ele>
        <time>2025-08-06T12:45:27.000Z</time>
      </trkpt>
      <trkpt lat="43.07604" lon="1.79701">
        <ele>313.39999389648</ele>
        <time>2025-08-06T12:45:36.000Z</time>
      </trkpt>
      <trkpt lat="43.07607" lon="1.79666">
        <ele>314.20001220703</ele>
        <time>2025-08-06T12:45:43.000Z</time>
      </trkpt>
      <trkpt lat="43.07607" lon="1.79662">
        <ele>314.20001220703</ele>
        <time>2025-08-06T12:45:44.000Z</time>
      </trkpt>
      <trkpt lat="43.07611" lon="1.79618">
        <ele>314.20001220703</ele>
        <time>2025-08-06T12:45:52.000Z</time>
      </trkpt>
      <trkpt lat="43.07612" lon="1.79595">
        <ele>314.20001220703</ele>
        <time>2025-08-06T12:45:56.000Z</time>
      </trkpt>
      <trkpt lat="43.07613" lon="1.79576">
        <ele>314</ele>
        <time>2025-08-06T12:45:59.000Z</time>
      </trkpt>
      <trkpt lat="43.07613" lon="1.79529">
        <ele>313.39999389648</ele>
        <time>2025-08-06T12:46:06.000Z</time>
      </trkpt>
      <trkpt lat="43.07614" lon="1.79523">
        <ele>313.39999389648</ele>
        <time>2025-08-06T12:46:07.000Z</time>
      </trkpt>
      <trkpt lat="43.07615" lon="1.79518">
        <ele>313</ele>
        <time>2025-08-06T12:46:08.000Z</time>
      </trkpt>
      <trkpt lat="43.07621" lon="1.79507">
        <ele>312.39999389648</ele>
        <time>2025-08-06T12:46:11.000Z</time>
      </trkpt>
      <trkpt lat="43.07628" lon="1.79494">
        <ele>312.20001220703</ele>
        <time>2025-08-06T12:46:14.000Z</time>
      </trkpt>
      <trkpt lat="43.0763" lon="1.79487">
        <ele>312</ele>
        <time>2025-08-06T12:46:15.000Z</time>
      </trkpt>
      <trkpt lat="43.07634" lon="1.79446">
        <ele>311.20001220703</ele>
        <time>2025-08-06T12:46:21.000Z</time>
      </trkpt>
      <trkpt lat="43.07636" lon="1.79431">
        <ele>310.79998779297</ele>
        <time>2025-08-06T12:46:23.000Z</time>
      </trkpt>
      <trkpt lat="43.07635" lon="1.79391">
        <ele>310.20001220703</ele>
        <time>2025-08-06T12:46:29.000Z</time>
      </trkpt>
      <trkpt lat="43.07634" lon="1.79353">
        <ele>312</ele>
        <time>2025-08-06T12:46:36.000Z</time>
      </trkpt>
      <trkpt lat="43.07636" lon="1.79324">
        <ele>313.20001220703</ele>
        <time>2025-08-06T12:46:41.000Z</time>
      </trkpt>
      <trkpt lat="43.07637" lon="1.79319">
        <ele>313.20001220703</ele>
        <time>2025-08-06T12:46:42.000Z</time>
      </trkpt>
      <trkpt lat="43.07638" lon="1.79307">
        <ele>313.39999389648</ele>
        <time>2025-08-06T12:46:44.000Z</time>
      </trkpt>
      <trkpt lat="43.07643" lon="1.79251">
        <ele>313.79998779297</ele>
        <time>2025-08-06T12:46:54.000Z</time>
      </trkpt>
      <trkpt lat="43.07644" lon="1.79241">
        <ele>313.79998779297</ele>
        <time>2025-08-06T12:46:56.000Z</time>
      </trkpt>
      <trkpt lat="43.07646" lon="1.7922">
        <ele>313.79998779297</ele>
        <time>2025-08-06T12:47:00.000Z</time>
      </trkpt>
      <trkpt lat="43.0765" lon="1.79187">
        <ele>313.79998779297</ele>
        <time>2025-08-06T12:47:06.000Z</time>
      </trkpt>
      <trkpt lat="43.07654" lon="1.79147">
        <ele>314</ele>
        <time>2025-08-06T12:47:13.000Z</time>
      </trkpt>
      <trkpt lat="43.07657" lon="1.79115">
        <ele>314</ele>
        <time>2025-08-06T12:47:19.000Z</time>
      </trkpt>
      <trkpt lat="43.07659" lon="1.79103">
        <ele>313.79998779297</ele>
        <time>2025-08-06T12:47:23.000Z</time>
      </trkpt>
      <trkpt lat="43.07661" lon="1.79078">
        <ele>313.79998779297</ele>
        <time>2025-08-06T12:47:30.000Z</time>
      </trkpt>
      <trkpt lat="43.07664" lon="1.79047">
        <ele>313.60000610352</ele>
        <time>2025-08-06T12:47:37.000Z</time>
      </trkpt>
      <trkpt lat="43.07669" lon="1.79006">
        <ele>313.39999389648</ele>
        <time>2025-08-06T12:47:45.000Z</time>
      </trkpt>
      <trkpt lat="43.07674" lon="1.78965">
        <ele>313.20001220703</ele>
        <time>2025-08-06T12:47:52.000Z</time>
      </trkpt>
      <trkpt lat="43.07674" lon="1.78959">
        <ele>313.20001220703</ele>
        <time>2025-08-06T12:47:53.000Z</time>
      </trkpt>
      <trkpt lat="43.0768" lon="1.78907">
        <ele>313.20001220703</ele>
        <time>2025-08-06T12:48:02.000Z</time>
      </trkpt>
      <trkpt lat="43.0768" lon="1.78902">
        <ele>313.20001220703</ele>
        <time>2025-08-06T12:48:03.000Z</time>
      </trkpt>
      <trkpt lat="43.07684" lon="1.78882">
        <ele>313.20001220703</ele>
        <time>2025-08-06T12:48:07.000Z</time>
      </trkpt>
      <trkpt lat="43.07685" lon="1.78851">
        <ele>313.20001220703</ele>
        <time>2025-08-06T12:48:12.000Z</time>
      </trkpt>
      <trkpt lat="43.07688" lon="1.78796">
        <ele>313</ele>
        <time>2025-08-06T12:48:20.000Z</time>
      </trkpt>
      <trkpt lat="43.07695" lon="1.78722">
        <ele>312.39999389648</ele>
        <time>2025-08-06T12:48:31.000Z</time>
      </trkpt>
      <trkpt lat="43.07696" lon="1.78715">
        <ele>312.39999389648</ele>
        <time>2025-08-06T12:48:32.000Z</time>
      </trkpt>
      <trkpt lat="43.07697" lon="1.78709">
        <ele>312.39999389648</ele>
        <time>2025-08-06T12:48:33.000Z</time>
      </trkpt>
      <trkpt lat="43.07697" lon="1.78702">
        <ele>312.20001220703</ele>
        <time>2025-08-06T12:48:34.000Z</time>
      </trkpt>
      <trkpt lat="43.07698" lon="1.78688">
        <ele>312.20001220703</ele>
        <time>2025-08-06T12:48:36.000Z</time>
      </trkpt>
      <trkpt lat="43.07698" lon="1.78681">
        <ele>312.20001220703</ele>
        <time>2025-08-06T12:48:37.000Z</time>
      </trkpt>
      <trkpt lat="43.07705" lon="1.78613">
        <ele>311.79998779297</ele>
        <time>2025-08-06T12:48:47.000Z</time>
      </trkpt>
      <trkpt lat="43.0771" lon="1.78552">
        <ele>311.79998779297</ele>
        <time>2025-08-06T12:48:56.000Z</time>
      </trkpt>
      <trkpt lat="43.07714" lon="1.78505">
        <ele>311.39999389648</ele>
        <time>2025-08-06T12:49:03.000Z</time>
      </trkpt>
      <trkpt lat="43.07716" lon="1.78483">
        <ele>311.39999389648</ele>
        <time>2025-08-06T12:49:06.000Z</time>
      </trkpt>
      <trkpt lat="43.07722" lon="1.7842">
        <ele>311.20001220703</ele>
        <time>2025-08-06T12:49:15.000Z</time>
      </trkpt>
      <trkpt lat="43.07726" lon="1.78371">
        <ele>311</ele>
        <time>2025-08-06T12:49:22.000Z</time>
      </trkpt>
      <trkpt lat="43.07728" lon="1.78348">
        <ele>311</ele>
        <time>2025-08-06T12:49:25.000Z</time>
      </trkpt>
      <trkpt lat="43.07728" lon="1.78335">
        <ele>311</ele>
        <time>2025-08-06T12:49:27.000Z</time>
      </trkpt>
      <trkpt lat="43.07729" lon="1.78328">
        <ele>311</ele>
        <time>2025-08-06T12:49:28.000Z</time>
      </trkpt>
      <trkpt lat="43.07736" lon="1.78279">
        <ele>311</ele>
        <time>2025-08-06T12:49:35.000Z</time>
      </trkpt>
      <trkpt lat="43.07742" lon="1.7821">
        <ele>310.79998779297</ele>
        <time>2025-08-06T12:49:45.000Z</time>
      </trkpt>
      <trkpt lat="43.07749" lon="1.78145">
        <ele>310.60000610352</ele>
        <time>2025-08-06T12:49:55.000Z</time>
      </trkpt>
      <trkpt lat="43.07756" lon="1.78098">
        <ele>310.39999389648</ele>
        <time>2025-08-06T12:50:03.000Z</time>
      </trkpt>
      <trkpt lat="43.07757" lon="1.78092">
        <ele>310.39999389648</ele>
        <time>2025-08-06T12:50:04.000Z</time>
      </trkpt>
      <trkpt lat="43.07763" lon="1.78047">
        <ele>310.20001220703</ele>
        <time>2025-08-06T12:50:11.000Z</time>
      </trkpt>
      <trkpt lat="43.07765" lon="1.78035">
        <ele>310.20001220703</ele>
        <time>2025-08-06T12:50:13.000Z</time>
      </trkpt>
      <trkpt lat="43.07768" lon="1.7801">
        <ele>310</ele>
        <time>2025-08-06T12:50:17.000Z</time>
      </trkpt>
      <trkpt lat="43.07775" lon="1.77972">
        <ele>310</ele>
        <time>2025-08-06T12:50:23.000Z</time>
      </trkpt>
      <trkpt lat="43.07776" lon="1.77965">
        <ele>310.20001220703</ele>
        <time>2025-08-06T12:50:24.000Z</time>
      </trkpt>
      <trkpt lat="43.07779" lon="1.77953">
        <ele>310.20001220703</ele>
        <time>2025-08-06T12:50:26.000Z</time>
      </trkpt>
      <trkpt lat="43.07783" lon="1.77934">
        <ele>310.20001220703</ele>
        <time>2025-08-06T12:50:29.000Z</time>
      </trkpt>
      <trkpt lat="43.07786" lon="1.77923">
        <ele>310.20001220703</ele>
        <time>2025-08-06T12:50:31.000Z</time>
      </trkpt>
      <trkpt lat="43.07789" lon="1.77911">
        <ele>310.20001220703</ele>
        <time>2025-08-06T12:50:33.000Z</time>
      </trkpt>
      <trkpt lat="43.07794" lon="1.779">
        <ele>310.20001220703</ele>
        <time>2025-08-06T12:50:35.000Z</time>
      </trkpt>
      <trkpt lat="43.07801" lon="1.77891">
        <ele>310.20001220703</ele>
        <time>2025-08-06T12:50:37.000Z</time>
      </trkpt>
      <trkpt lat="43.07814" lon="1.7788">
        <ele>310</ele>
        <time>2025-08-06T12:50:40.000Z</time>
      </trkpt>
      <trkpt lat="43.07832" lon="1.7787">
        <ele>309.60000610352</ele>
        <time>2025-08-06T12:50:44.000Z</time>
      </trkpt>
      <trkpt lat="43.07839" lon="1.77867">
        <ele>308.79998779297</ele>
        <time>2025-08-06T12:50:46.000Z</time>
      </trkpt>
      <trkpt lat="43.07842" lon="1.77867">
        <ele>308.39999389648</ele>
        <time>2025-08-06T12:50:47.000Z</time>
      </trkpt>
      <trkpt lat="43.07847" lon="1.77862">
        <ele>307.79998779297</ele>
        <time>2025-08-06T12:50:49.000Z</time>
      </trkpt>
      <trkpt lat="43.07849" lon="1.77858">
        <ele>307.60000610352</ele>
        <time>2025-08-06T12:50:50.000Z</time>
      </trkpt>
      <trkpt lat="43.07851" lon="1.77847">
        <ele>307.39999389648</ele>
        <time>2025-08-06T12:50:52.000Z</time>
      </trkpt>
      <trkpt lat="43.07854" lon="1.7783">
        <ele>307</ele>
        <time>2025-08-06T12:50:55.000Z</time>
      </trkpt>
      <trkpt lat="43.07867" lon="1.77779">
        <ele>307</ele>
        <time>2025-08-06T12:51:04.000Z</time>
      </trkpt>
      <trkpt lat="43.07876" lon="1.77738">
        <ele>307.20001220703</ele>
        <time>2025-08-06T12:51:11.000Z</time>
      </trkpt>
      <trkpt lat="43.0788" lon="1.77722">
        <ele>307.39999389648</ele>
        <time>2025-08-06T12:51:14.000Z</time>
      </trkpt>
      <trkpt lat="43.07886" lon="1.777">
        <ele>307.60000610352</ele>
        <time>2025-08-06T12:51:18.000Z</time>
      </trkpt>
      <trkpt lat="43.07895" lon="1.77663">
        <ele>308.39999389648</ele>
        <time>2025-08-06T12:51:25.000Z</time>
      </trkpt>
      <trkpt lat="43.07896" lon="1.77658">
        <ele>308.60000610352</ele>
        <time>2025-08-06T12:51:26.000Z</time>
      </trkpt>
      <trkpt lat="43.07902" lon="1.77623">
        <ele>309.60000610352</ele>
        <time>2025-08-06T12:51:32.000Z</time>
      </trkpt>
      <trkpt lat="43.07905" lon="1.77605">
        <ele>310</ele>
        <time>2025-08-06T12:51:35.000Z</time>
      </trkpt>
      <trkpt lat="43.07908" lon="1.77554">
        <ele>310.39999389648</ele>
        <time>2025-08-06T12:51:43.000Z</time>
      </trkpt>
      <trkpt lat="43.0791" lon="1.77525">
        <ele>310.20001220703</ele>
        <time>2025-08-06T12:51:48.000Z</time>
      </trkpt>
      <trkpt lat="43.07911" lon="1.77513">
        <ele>310.20001220703</ele>
        <time>2025-08-06T12:51:50.000Z</time>
      </trkpt>
      <trkpt lat="43.0792" lon="1.7746">
        <ele>310.20001220703</ele>
        <time>2025-08-06T12:51:59.000Z</time>
      </trkpt>
      <trkpt lat="43.07925" lon="1.77438">
        <ele>310.39999389648</ele>
        <time>2025-08-06T12:52:03.000Z</time>
      </trkpt>
      <trkpt lat="43.07926" lon="1.77426">
        <ele>310.39999389648</ele>
        <time>2025-08-06T12:52:05.000Z</time>
      </trkpt>
      <trkpt lat="43.07925" lon="1.77421">
        <ele>310.39999389648</ele>
        <time>2025-08-06T12:52:06.000Z</time>
      </trkpt>
      <trkpt lat="43.07923" lon="1.77416">
        <ele>310.39999389648</ele>
        <time>2025-08-06T12:52:07.000Z</time>
      </trkpt>
      <trkpt lat="43.07917" lon="1.77409">
        <ele>310.39999389648</ele>
        <time>2025-08-06T12:52:09.000Z</time>
      </trkpt>
      <trkpt lat="43.07912" lon="1.77406">
        <ele>310.39999389648</ele>
        <time>2025-08-06T12:52:10.000Z</time>
      </trkpt>
      <trkpt lat="43.07884" lon="1.77392">
        <ele>310.79998779297</ele>
        <time>2025-08-06T12:52:17.000Z</time>
      </trkpt>
      <trkpt lat="43.07871" lon="1.77386">
        <ele>311</ele>
        <time>2025-08-06T12:52:20.000Z</time>
      </trkpt>
      <trkpt lat="43.07834" lon="1.7737">
        <ele>311.79998779297</ele>
        <time>2025-08-06T12:52:29.000Z</time>
      </trkpt>
      <trkpt lat="43.07832" lon="1.77368">
        <ele>312</ele>
        <time>2025-08-06T12:52:30.000Z</time>
      </trkpt>
      <trkpt lat="43.07829" lon="1.77363">
        <ele>312</ele>
        <time>2025-08-06T12:52:31.000Z</time>
      </trkpt>
      <trkpt lat="43.0783" lon="1.77352">
        <ele>312.20001220703</ele>
        <time>2025-08-06T12:52:33.000Z</time>
      </trkpt>
      <trkpt lat="43.07834" lon="1.77335">
        <ele>312.20001220703</ele>
        <time>2025-08-06T12:52:36.000Z</time>
      </trkpt>
      <trkpt lat="43.07841" lon="1.77313">
        <ele>312.20001220703</ele>
        <time>2025-08-06T12:52:40.000Z</time>
      </trkpt>
      <trkpt lat="43.07853" lon="1.77261">
        <ele>312.60000610352</ele>
        <time>2025-08-06T12:52:50.000Z</time>
      </trkpt>
      <trkpt lat="43.07868" lon="1.77208">
        <ele>313</ele>
        <time>2025-08-06T12:53:00.000Z</time>
      </trkpt>
      <trkpt lat="43.07872" lon="1.77192">
        <ele>313</ele>
        <time>2025-08-06T12:53:03.000Z</time>
      </trkpt>
      <trkpt lat="43.07876" lon="1.77177">
        <ele>313</ele>
        <time>2025-08-06T12:53:06.000Z</time>
      </trkpt>
      <trkpt lat="43.07877" lon="1.77172">
        <ele>313</ele>
        <time>2025-08-06T12:53:07.000Z</time>
      </trkpt>
      <trkpt lat="43.07888" lon="1.7713">
        <ele>313.60000610352</ele>
        <time>2025-08-06T12:53:15.000Z</time>
      </trkpt>
      <trkpt lat="43.07892" lon="1.77114">
        <ele>313.79998779297</ele>
        <time>2025-08-06T12:53:18.000Z</time>
      </trkpt>
      <trkpt lat="43.07899" lon="1.77083">
        <ele>313.79998779297</ele>
        <time>2025-08-06T12:53:24.000Z</time>
      </trkpt>
      <trkpt lat="43.07911" lon="1.77032">
        <ele>313.79998779297</ele>
        <time>2025-08-06T12:53:33.000Z</time>
      </trkpt>
      <trkpt lat="43.07925" lon="1.7697">
        <ele>313</ele>
        <time>2025-08-06T12:53:42.000Z</time>
      </trkpt>
      <trkpt lat="43.07931" lon="1.76943">
        <ele>312.39999389648</ele>
        <time>2025-08-06T12:53:46.000Z</time>
      </trkpt>
      <trkpt lat="43.07934" lon="1.76931">
        <ele>312.39999389648</ele>
        <time>2025-08-06T12:53:48.000Z</time>
      </trkpt>
      <trkpt lat="43.07935" lon="1.76925">
        <ele>312.20001220703</ele>
        <time>2025-08-06T12:53:49.000Z</time>
      </trkpt>
      <trkpt lat="43.07936" lon="1.76919">
        <ele>312.20001220703</ele>
        <time>2025-08-06T12:53:50.000Z</time>
      </trkpt>
      <trkpt lat="43.07939" lon="1.76907">
        <ele>312.20001220703</ele>
        <time>2025-08-06T12:53:52.000Z</time>
      </trkpt>
      <trkpt lat="43.07943" lon="1.76893">
        <ele>312.39999389648</ele>
        <time>2025-08-06T12:53:55.000Z</time>
      </trkpt>
      <trkpt lat="43.0795" lon="1.76862">
        <ele>313.39999389648</ele>
        <time>2025-08-06T12:54:02.000Z</time>
      </trkpt>
      <trkpt lat="43.07959" lon="1.76822">
        <ele>314.20001220703</ele>
        <time>2025-08-06T12:54:11.000Z</time>
      </trkpt>
      <trkpt lat="43.07962" lon="1.76812">
        <ele>314.39999389648</ele>
        <time>2025-08-06T12:54:13.000Z</time>
      </trkpt>
      <trkpt lat="43.0797" lon="1.76779">
        <ele>314.60000610352</ele>
        <time>2025-08-06T12:54:20.000Z</time>
      </trkpt>
      <trkpt lat="43.0798" lon="1.76736">
        <ele>314.60000610352</ele>
        <time>2025-08-06T12:54:28.000Z</time>
      </trkpt>
      <trkpt lat="43.07988" lon="1.76697">
        <ele>314.60000610352</ele>
        <time>2025-08-06T12:54:35.000Z</time>
      </trkpt>
      <trkpt lat="43.07992" lon="1.76674">
        <ele>314.60000610352</ele>
        <time>2025-08-06T12:54:39.000Z</time>
      </trkpt>
      <trkpt lat="43.07994" lon="1.76664">
        <ele>314.39999389648</ele>
        <time>2025-08-06T12:54:41.000Z</time>
      </trkpt>
      <trkpt lat="43.07996" lon="1.76659">
        <ele>314.60000610352</ele>
        <time>2025-08-06T12:54:42.000Z</time>
      </trkpt>
      <trkpt lat="43.08009" lon="1.7663">
        <ele>314.20001220703</ele>
        <time>2025-08-06T12:54:48.000Z</time>
      </trkpt>
      <trkpt lat="43.08035" lon="1.76591">
        <ele>314</ele>
        <time>2025-08-06T12:54:57.000Z</time>
      </trkpt>
      <trkpt lat="43.0805" lon="1.76569">
        <ele>314</ele>
        <time>2025-08-06T12:55:02.000Z</time>
      </trkpt>
      <trkpt lat="43.08057" lon="1.76563">
        <ele>314</ele>
        <time>2025-08-06T12:55:04.000Z</time>
      </trkpt>
      <trkpt lat="43.08068" lon="1.76545">
        <ele>313.79998779297</ele>
        <time>2025-08-06T12:55:09.000Z</time>
      </trkpt>
      <trkpt lat="43.08082" lon="1.76513">
        <ele>313.79998779297</ele>
        <time>2025-08-06T12:55:16.000Z</time>
      </trkpt>
      <trkpt lat="43.08096" lon="1.7648">
        <ele>313.79998779297</ele>
        <time>2025-08-06T12:55:23.000Z</time>
      </trkpt>
      <trkpt lat="43.08119" lon="1.76444">
        <ele>314</ele>
        <time>2025-08-06T12:55:32.000Z</time>
      </trkpt>
      <trkpt lat="43.08143" lon="1.76409">
        <ele>314</ele>
        <time>2025-08-06T12:55:41.000Z</time>
      </trkpt>
      <trkpt lat="43.08168" lon="1.76372">
        <ele>313.79998779297</ele>
        <time>2025-08-06T12:55:50.000Z</time>
      </trkpt>
      <trkpt lat="43.08184" lon="1.76348">
        <ele>313.60000610352</ele>
        <time>2025-08-06T12:55:56.000Z</time>
      </trkpt>
      <trkpt lat="43.08189" lon="1.7634">
        <ele>313.60000610352</ele>
        <time>2025-08-06T12:55:58.000Z</time>
      </trkpt>
      <trkpt lat="43.08191" lon="1.76336">
        <ele>313.60000610352</ele>
        <time>2025-08-06T12:55:59.000Z</time>
      </trkpt>
      <trkpt lat="43.08219" lon="1.76296">
        <ele>313.39999389648</ele>
        <time>2025-08-06T12:56:09.000Z</time>
      </trkpt>
      <trkpt lat="43.08248" lon="1.76252">
        <ele>313</ele>
        <time>2025-08-06T12:56:19.000Z</time>
      </trkpt>
      <trkpt lat="43.08256" lon="1.76243">
        <ele>313</ele>
        <time>2025-08-06T12:56:22.000Z</time>
      </trkpt>
      <trkpt lat="43.08263" lon="1.76241">
        <ele>313</ele>
        <time>2025-08-06T12:56:24.000Z</time>
      </trkpt>
      <trkpt lat="43.08277" lon="1.76252">
        <ele>312.79998779297</ele>
        <time>2025-08-06T12:56:28.000Z</time>
      </trkpt>
      <trkpt lat="43.08293" lon="1.76256">
        <ele>312.60000610352</ele>
        <time>2025-08-06T12:56:32.000Z</time>
      </trkpt>
      <trkpt lat="43.08305" lon="1.76243">
        <ele>312.60000610352</ele>
        <time>2025-08-06T12:56:36.000Z</time>
      </trkpt>
      <trkpt lat="43.08313" lon="1.76227">
        <ele>312.79998779297</ele>
        <time>2025-08-06T12:56:39.000Z</time>
      </trkpt>
      <trkpt lat="43.0832" lon="1.76212">
        <ele>312.79998779297</ele>
        <time>2025-08-06T12:56:42.000Z</time>
      </trkpt>
      <trkpt lat="43.08327" lon="1.76201">
        <ele>312.79998779297</ele>
        <time>2025-08-06T12:56:44.000Z</time>
      </trkpt>
      <trkpt lat="43.08334" lon="1.76188">
        <ele>312.79998779297</ele>
        <time>2025-08-06T12:56:46.000Z</time>
      </trkpt>
      <trkpt lat="43.08348" lon="1.76166">
        <ele>312.39999389648</ele>
        <time>2025-08-06T12:56:50.000Z</time>
      </trkpt>
      <trkpt lat="43.08365" lon="1.76135">
        <ele>311.79998779297</ele>
        <time>2025-08-06T12:56:55.000Z</time>
      </trkpt>
      <trkpt lat="43.08376" lon="1.76115">
        <ele>311.20001220703</ele>
        <time>2025-08-06T12:56:58.000Z</time>
      </trkpt>
      <trkpt lat="43.08389" lon="1.76095">
        <ele>310.79998779297</ele>
        <time>2025-08-06T12:57:01.000Z</time>
      </trkpt>
      <trkpt lat="43.08394" lon="1.76089">
        <ele>310.60000610352</ele>
        <time>2025-08-06T12:57:02.000Z</time>
      </trkpt>
      <trkpt lat="43.08414" lon="1.76066">
        <ele>309.79998779297</ele>
        <time>2025-08-06T12:57:06.000Z</time>
      </trkpt>
      <trkpt lat="43.08418" lon="1.7606">
        <ele>309.20001220703</ele>
        <time>2025-08-06T12:57:07.000Z</time>
      </trkpt>
      <trkpt lat="43.08436" lon="1.76028">
        <ele>308</ele>
        <time>2025-08-06T12:57:12.000Z</time>
      </trkpt>
      <trkpt lat="43.08453" lon="1.75993">
        <ele>307.60000610352</ele>
        <time>2025-08-06T12:57:18.000Z</time>
      </trkpt>
      <trkpt lat="43.08466" lon="1.75964">
        <ele>307</ele>
        <time>2025-08-06T12:57:24.000Z</time>
      </trkpt>
      <trkpt lat="43.08468" lon="1.75961">
        <ele>307</ele>
        <time>2025-08-06T12:57:25.000Z</time>
      </trkpt>
      <trkpt lat="43.08477" lon="1.75949">
        <ele>306.60000610352</ele>
        <time>2025-08-06T12:57:28.000Z</time>
      </trkpt>
      <trkpt lat="43.08496" lon="1.75913">
        <ele>306.20001220703</ele>
        <time>2025-08-06T12:57:35.000Z</time>
      </trkpt>
      <trkpt lat="43.08502" lon="1.75901">
        <ele>306</ele>
        <time>2025-08-06T12:57:37.000Z</time>
      </trkpt>
      <trkpt lat="43.08524" lon="1.75861">
        <ele>305.60000610352</ele>
        <time>2025-08-06T12:57:45.000Z</time>
      </trkpt>
      <trkpt lat="43.08551" lon="1.7581">
        <ele>305</ele>
        <time>2025-08-06T12:57:55.000Z</time>
      </trkpt>
      <trkpt lat="43.08557" lon="1.758">
        <ele>305</ele>
        <time>2025-08-06T12:57:57.000Z</time>
      </trkpt>
      <trkpt lat="43.08565" lon="1.75785">
        <ele>305</ele>
        <time>2025-08-06T12:58:00.000Z</time>
      </trkpt>
      <trkpt lat="43.08574" lon="1.7577">
        <ele>304.79998779297</ele>
        <time>2025-08-06T12:58:03.000Z</time>
      </trkpt>
      <trkpt lat="43.08585" lon="1.7575">
        <ele>304.60000610352</ele>
        <time>2025-08-06T12:58:07.000Z</time>
      </trkpt>
      <trkpt lat="43.08589" lon="1.7574">
        <ele>304.39999389648</ele>
        <time>2025-08-06T12:58:09.000Z</time>
      </trkpt>
      <trkpt lat="43.08609" lon="1.75704">
        <ele>304.20001220703</ele>
        <time>2025-08-06T12:58:16.000Z</time>
      </trkpt>
      <trkpt lat="43.08611" lon="1.75698">
        <ele>304.20001220703</ele>
        <time>2025-08-06T12:58:17.000Z</time>
      </trkpt>
      <trkpt lat="43.08637" lon="1.75652">
        <ele>303.79998779297</ele>
        <time>2025-08-06T12:58:26.000Z</time>
      </trkpt>
      <trkpt lat="43.08662" lon="1.75605">
        <ele>303.60000610352</ele>
        <time>2025-08-06T12:58:35.000Z</time>
      </trkpt>
      <trkpt lat="43.08679" lon="1.75572">
        <ele>303.20001220703</ele>
        <time>2025-08-06T12:58:42.000Z</time>
      </trkpt>
      <trkpt lat="43.08683" lon="1.75567">
        <ele>303.20001220703</ele>
        <time>2025-08-06T12:58:43.000Z</time>
      </trkpt>
      <trkpt lat="43.08701" lon="1.75532">
        <ele>303</ele>
        <time>2025-08-06T12:58:50.000Z</time>
      </trkpt>
      <trkpt lat="43.08703" lon="1.75528">
        <ele>303</ele>
        <time>2025-08-06T12:58:51.000Z</time>
      </trkpt>
      <trkpt lat="43.08733" lon="1.75475">
        <ele>302.60000610352</ele>
        <time>2025-08-06T12:59:01.000Z</time>
      </trkpt>
      <trkpt lat="43.08754" lon="1.75436">
        <ele>302.60000610352</ele>
        <time>2025-08-06T12:59:08.000Z</time>
      </trkpt>
      <trkpt lat="43.08774" lon="1.754">
        <ele>302.79998779297</ele>
        <time>2025-08-06T12:59:15.000Z</time>
      </trkpt>
      <trkpt lat="43.08776" lon="1.75395">
        <ele>302.79998779297</ele>
        <time>2025-08-06T12:59:16.000Z</time>
      </trkpt>
      <trkpt lat="43.08797" lon="1.75356">
        <ele>302.79998779297</ele>
        <time>2025-08-06T12:59:24.000Z</time>
      </trkpt>
      <trkpt lat="43.0882" lon="1.75311">
        <ele>302.79998779297</ele>
        <time>2025-08-06T12:59:33.000Z</time>
      </trkpt>
      <trkpt lat="43.08844" lon="1.75268">
        <ele>303</ele>
        <time>2025-08-06T12:59:42.000Z</time>
      </trkpt>
      <trkpt lat="43.08849" lon="1.75257">
        <ele>303</ele>
        <time>2025-08-06T12:59:44.000Z</time>
      </trkpt>
      <trkpt lat="43.0886" lon="1.75238">
        <ele>302.79998779297</ele>
        <time>2025-08-06T12:59:48.000Z</time>
      </trkpt>
      <trkpt lat="43.08885" lon="1.75193">
        <ele>302.79998779297</ele>
        <time>2025-08-06T12:59:57.000Z</time>
      </trkpt>
      <trkpt lat="43.08909" lon="1.75148">
        <ele>303</ele>
        <time>2025-08-06T13:00:06.000Z</time>
      </trkpt>
      <trkpt lat="43.08912" lon="1.75142">
        <ele>303</ele>
        <time>2025-08-06T13:00:07.000Z</time>
      </trkpt>
      <trkpt lat="43.08936" lon="1.75097">
        <ele>303</ele>
        <time>2025-08-06T13:00:16.000Z</time>
      </trkpt>
      <trkpt lat="43.08938" lon="1.75093">
        <ele>303</ele>
        <time>2025-08-06T13:00:17.000Z</time>
      </trkpt>
      <trkpt lat="43.08955" lon="1.75063">
        <ele>303</ele>
        <time>2025-08-06T13:00:23.000Z</time>
      </trkpt>
      <trkpt lat="43.0898" lon="1.7502">
        <ele>302.79998779297</ele>
        <time>2025-08-06T13:00:32.000Z</time>
      </trkpt>
      <trkpt lat="43.09" lon="1.74981">
        <ele>302.79998779297</ele>
        <time>2025-08-06T13:00:40.000Z</time>
      </trkpt>
      <trkpt lat="43.09032" lon="1.74915">
        <ele>302.79998779297</ele>
        <time>2025-08-06T13:00:53.000Z</time>
      </trkpt>
      <trkpt lat="43.09055" lon="1.74864">
        <ele>303.20001220703</ele>
        <time>2025-08-06T13:01:03.000Z</time>
      </trkpt>
      <trkpt lat="43.09063" lon="1.74848">
        <ele>303.39999389648</ele>
        <time>2025-08-06T13:01:06.000Z</time>
      </trkpt>
      <trkpt lat="43.09069" lon="1.74832">
        <ele>303.20001220703</ele>
        <time>2025-08-06T13:01:09.000Z</time>
      </trkpt>
      <trkpt lat="43.09071" lon="1.74827">
        <ele>303.20001220703</ele>
        <time>2025-08-06T13:01:10.000Z</time>
      </trkpt>
      <trkpt lat="43.09083" lon="1.74801">
        <ele>303.39999389648</ele>
        <time>2025-08-06T13:01:15.000Z</time>
      </trkpt>
      <trkpt lat="43.09105" lon="1.74753">
        <ele>303.79998779297</ele>
        <time>2025-08-06T13:01:24.000Z</time>
      </trkpt>
      <trkpt lat="43.09131" lon="1.74694">
        <ele>304.20001220703</ele>
        <time>2025-08-06T13:01:34.000Z</time>
      </trkpt>
      <trkpt lat="43.09149" lon="1.74656">
        <ele>304.20001220703</ele>
        <time>2025-08-06T13:01:41.000Z</time>
      </trkpt>
      <trkpt lat="43.0916" lon="1.74634">
        <ele>304.20001220703</ele>
        <time>2025-08-06T13:01:45.000Z</time>
      </trkpt>
      <trkpt lat="43.09164" lon="1.74622">
        <ele>304.20001220703</ele>
        <time>2025-08-06T13:01:47.000Z</time>
      </trkpt>
      <trkpt lat="43.09174" lon="1.74585">
        <ele>304</ele>
        <time>2025-08-06T13:01:54.000Z</time>
      </trkpt>
      <trkpt lat="43.09175" lon="1.74584">
        <ele>303.39999389648</ele>
        <time>2025-08-06T13:01:57.000Z</time>
      </trkpt>
      <trkpt lat="43.09176" lon="1.74575">
        <ele>302</ele>
        <time>2025-08-06T13:02:04.000Z</time>
      </trkpt>
      <trkpt lat="43.09178" lon="1.74568">
        <ele>301.79998779297</ele>
        <time>2025-08-06T13:02:06.000Z</time>
      </trkpt>
      <trkpt lat="43.09189" lon="1.74546">
        <ele>301.79998779297</ele>
        <time>2025-08-06T13:02:12.000Z</time>
      </trkpt>
      <trkpt lat="43.092" lon="1.74524">
        <ele>302.20001220703</ele>
        <time>2025-08-06T13:02:19.000Z</time>
      </trkpt>
      <trkpt lat="43.09215" lon="1.745">
        <ele>302.79998779297</ele>
        <time>2025-08-06T13:02:26.000Z</time>
      </trkpt>
      <trkpt lat="43.0922" lon="1.74492">
        <ele>303</ele>
        <time>2025-08-06T13:02:28.000Z</time>
      </trkpt>
      <trkpt lat="43.09232" lon="1.7447">
        <ele>304</ele>
        <time>2025-08-06T13:02:35.000Z</time>
      </trkpt>
      <trkpt lat="43.09237" lon="1.74464">
        <ele>304.20001220703</ele>
        <time>2025-08-06T13:02:37.000Z</time>
      </trkpt>
      <trkpt lat="43.09251" lon="1.74438">
        <ele>304.79998779297</ele>
        <time>2025-08-06T13:02:44.000Z</time>
      </trkpt>
      <trkpt lat="43.09268" lon="1.74401">
        <ele>305</ele>
        <time>2025-08-06T13:02:52.000Z</time>
      </trkpt>
      <trkpt lat="43.09288" lon="1.74357">
        <ele>304.79998779297</ele>
        <time>2025-08-06T13:03:01.000Z</time>
      </trkpt>
      <trkpt lat="43.09311" lon="1.74308">
        <ele>304.60000610352</ele>
        <time>2025-08-06T13:03:11.000Z</time>
      </trkpt>
      <trkpt lat="43.09336" lon="1.74252">
        <ele>304.60000610352</ele>
        <time>2025-08-06T13:03:22.000Z</time>
      </trkpt>
      <trkpt lat="43.09351" lon="1.74223">
        <ele>304.60000610352</ele>
        <time>2025-08-06T13:03:28.000Z</time>
      </trkpt>
      <trkpt lat="43.09353" lon="1.74219">
        <ele>304.39999389648</ele>
        <time>2025-08-06T13:03:29.000Z</time>
      </trkpt>
      <trkpt lat="43.09362" lon="1.74197">
        <ele>304.60000610352</ele>
        <time>2025-08-06T13:03:34.000Z</time>
      </trkpt>
      <trkpt lat="43.09364" lon="1.74182">
        <ele>305</ele>
        <time>2025-08-06T13:03:38.000Z</time>
      </trkpt>
      <trkpt lat="43.09366" lon="1.74179">
        <ele>305.20001220703</ele>
        <time>2025-08-06T13:03:39.000Z</time>
      </trkpt>
      <trkpt lat="43.09369" lon="1.74178">
        <ele>305.20001220703</ele>
        <time>2025-08-06T13:03:40.000Z</time>
      </trkpt>
      <trkpt lat="43.09378" lon="1.74178">
        <ele>305.39999389648</ele>
        <time>2025-08-06T13:03:43.000Z</time>
      </trkpt>
      <trkpt lat="43.09408" lon="1.74184">
        <ele>305.39999389648</ele>
        <time>2025-08-06T13:03:51.000Z</time>
      </trkpt>
      <trkpt lat="43.09433" lon="1.74187">
        <ele>304.60000610352</ele>
        <time>2025-08-06T13:03:56.000Z</time>
      </trkpt>
      <trkpt lat="43.09443" lon="1.74189">
        <ele>304</ele>
        <time>2025-08-06T13:03:58.000Z</time>
      </trkpt>
      <trkpt lat="43.09462" lon="1.74193">
        <ele>303</ele>
        <time>2025-08-06T13:04:02.000Z</time>
      </trkpt>
      <trkpt lat="43.09471" lon="1.74194">
        <ele>302.79998779297</ele>
        <time>2025-08-06T13:04:04.000Z</time>
      </trkpt>
      <trkpt lat="43.09484" lon="1.74197">
        <ele>302</ele>
        <time>2025-08-06T13:04:07.000Z</time>
      </trkpt>
      <trkpt lat="43.09504" lon="1.742">
        <ele>301</ele>
        <time>2025-08-06T13:04:12.000Z</time>
      </trkpt>
      <trkpt lat="43.09507" lon="1.742">
        <ele>300.60000610352</ele>
        <time>2025-08-06T13:04:13.000Z</time>
      </trkpt>
      <trkpt lat="43.09516" lon="1.74201">
        <ele>299.79998779297</ele>
        <time>2025-08-06T13:04:15.000Z</time>
      </trkpt>
      <trkpt lat="43.0952" lon="1.74202">
        <ele>299.20001220703</ele>
        <time>2025-08-06T13:04:16.000Z</time>
      </trkpt>
      <trkpt lat="43.09529" lon="1.74204">
        <ele>298.79998779297</ele>
        <time>2025-08-06T13:04:18.000Z</time>
      </trkpt>
      <trkpt lat="43.09541" lon="1.74207">
        <ele>298</ele>
        <time>2025-08-06T13:04:21.000Z</time>
      </trkpt>
      <trkpt lat="43.09564" lon="1.74207">
        <ele>297.20001220703</ele>
        <time>2025-08-06T13:04:26.000Z</time>
      </trkpt>
      <trkpt lat="43.09568" lon="1.74205">
        <ele>296.79998779297</ele>
        <time>2025-08-06T13:04:27.000Z</time>
      </trkpt>
      <trkpt lat="43.09588" lon="1.74199">
        <ele>296</ele>
        <time>2025-08-06T13:04:31.000Z</time>
      </trkpt>
      <trkpt lat="43.09597" lon="1.74195">
        <ele>295.60000610352</ele>
        <time>2025-08-06T13:04:33.000Z</time>
      </trkpt>
      <trkpt lat="43.09619" lon="1.74179">
        <ele>295</ele>
        <time>2025-08-06T13:04:38.000Z</time>
      </trkpt>
      <trkpt lat="43.09631" lon="1.74167">
        <ele>294.60000610352</ele>
        <time>2025-08-06T13:04:41.000Z</time>
      </trkpt>
      <trkpt lat="43.09634" lon="1.74163">
        <ele>294.60000610352</ele>
        <time>2025-08-06T13:04:42.000Z</time>
      </trkpt>
      <trkpt lat="43.09647" lon="1.74151">
        <ele>294.39999389648</ele>
        <time>2025-08-06T13:04:45.000Z</time>
      </trkpt>
      <trkpt lat="43.09656" lon="1.74149">
        <ele>294.39999389648</ele>
        <time>2025-08-06T13:04:47.000Z</time>
      </trkpt>
      <trkpt lat="43.09667" lon="1.7415">
        <ele>294.39999389648</ele>
        <time>2025-08-06T13:04:49.000Z</time>
      </trkpt>
      <trkpt lat="43.09694" lon="1.74164">
        <ele>293.60000610352</ele>
        <time>2025-08-06T13:04:54.000Z</time>
      </trkpt>
      <trkpt lat="43.09715" lon="1.74176">
        <ele>292.79998779297</ele>
        <time>2025-08-06T13:04:59.000Z</time>
      </trkpt>
      <trkpt lat="43.09726" lon="1.74183">
        <ele>292.60000610352</ele>
        <time>2025-08-06T13:05:03.000Z</time>
      </trkpt>
      <trkpt lat="43.09728" lon="1.74183">
        <ele>292.60000610352</ele>
        <time>2025-08-06T13:05:04.000Z</time>
      </trkpt>
      <trkpt lat="43.09731" lon="1.74183">
        <ele>292.39999389648</ele>
        <time>2025-08-06T13:05:05.000Z</time>
      </trkpt>
      <trkpt lat="43.09735" lon="1.74177">
        <ele>292.39999389648</ele>
        <time>2025-08-06T13:05:07.000Z</time>
      </trkpt>
      <trkpt lat="43.09739" lon="1.7417">
        <ele>292.39999389648</ele>
        <time>2025-08-06T13:05:09.000Z</time>
      </trkpt>
      <trkpt lat="43.09746" lon="1.74167">
        <ele>292.20001220703</ele>
        <time>2025-08-06T13:05:11.000Z</time>
      </trkpt>
      <trkpt lat="43.09767" lon="1.74161">
        <ele>292</ele>
        <time>2025-08-06T13:05:17.000Z</time>
      </trkpt>
      <trkpt lat="43.09799" lon="1.7415">
        <ele>291.79998779297</ele>
        <time>2025-08-06T13:05:26.000Z</time>
      </trkpt>
      <trkpt lat="43.09826" lon="1.74137">
        <ele>291.79998779297</ele>
        <time>2025-08-06T13:05:34.000Z</time>
      </trkpt>
      <trkpt lat="43.09838" lon="1.74129">
        <ele>291.79998779297</ele>
        <time>2025-08-06T13:05:39.000Z</time>
      </trkpt>
      <trkpt lat="43.09853" lon="1.74108">
        <ele>292.20001220703</ele>
        <time>2025-08-06T13:05:46.000Z</time>
      </trkpt>
      <trkpt lat="43.09861" lon="1.74088">
        <ele>292.20001220703</ele>
        <time>2025-08-06T13:05:51.000Z</time>
      </trkpt>
      <trkpt lat="43.09871" lon="1.74051">
        <ele>292.20001220703</ele>
        <time>2025-08-06T13:05:59.000Z</time>
      </trkpt>
      <trkpt lat="43.09881" lon="1.74008">
        <ele>292</ele>
        <time>2025-08-06T13:06:07.000Z</time>
      </trkpt>
      <trkpt lat="43.09882" lon="1.74003">
        <ele>292</ele>
        <time>2025-08-06T13:06:08.000Z</time>
      </trkpt>
      <trkpt lat="43.09891" lon="1.73978">
        <ele>291.79998779297</ele>
        <time>2025-08-06T13:06:13.000Z</time>
      </trkpt>
      <trkpt lat="43.09897" lon="1.73964">
        <ele>291.79998779297</ele>
        <time>2025-08-06T13:06:16.000Z</time>
      </trkpt>
      <trkpt lat="43.09911" lon="1.73927">
        <ele>291.60000610352</ele>
        <time>2025-08-06T13:06:23.000Z</time>
      </trkpt>
      <trkpt lat="43.09927" lon="1.73885">
        <ele>291.39999389648</ele>
        <time>2025-08-06T13:06:31.000Z</time>
      </trkpt>
      <trkpt lat="43.09932" lon="1.73869">
        <ele>291.20001220703</ele>
        <time>2025-08-06T13:06:34.000Z</time>
      </trkpt>
      <trkpt lat="43.09939" lon="1.73841">
        <ele>291.20001220703</ele>
        <time>2025-08-06T13:06:39.000Z</time>
      </trkpt>
      <trkpt lat="43.0994" lon="1.73835">
        <ele>291.20001220703</ele>
        <time>2025-08-06T13:06:40.000Z</time>
      </trkpt>
      <trkpt lat="43.09946" lon="1.73808">
        <ele>291.39999389648</ele>
        <time>2025-08-06T13:06:45.000Z</time>
      </trkpt>
      <trkpt lat="43.09958" lon="1.73766">
        <ele>291.39999389648</ele>
        <time>2025-08-06T13:06:53.000Z</time>
      </trkpt>
      <trkpt lat="43.09978" lon="1.73719">
        <ele>291.39999389648</ele>
        <time>2025-08-06T13:07:03.000Z</time>
      </trkpt>
      <trkpt lat="43.10004" lon="1.73671">
        <ele>291.39999389648</ele>
        <time>2025-08-06T13:07:13.000Z</time>
      </trkpt>
      <trkpt lat="43.10026" lon="1.73641">
        <ele>291.39999389648</ele>
        <time>2025-08-06T13:07:21.000Z</time>
      </trkpt>
      <trkpt lat="43.1005" lon="1.7362">
        <ele>291.60000610352</ele>
        <time>2025-08-06T13:07:28.000Z</time>
      </trkpt>
      <trkpt lat="43.10069" lon="1.73606">
        <ele>291.60000610352</ele>
        <time>2025-08-06T13:07:33.000Z</time>
      </trkpt>
      <trkpt lat="43.10077" lon="1.73601">
        <ele>291.60000610352</ele>
        <time>2025-08-06T13:07:35.000Z</time>
      </trkpt>
      <trkpt lat="43.1011" lon="1.73588">
        <ele>291.79998779297</ele>
        <time>2025-08-06T13:07:43.000Z</time>
      </trkpt>
      <trkpt lat="43.10126" lon="1.73589">
        <ele>291.79998779297</ele>
        <time>2025-08-06T13:07:47.000Z</time>
      </trkpt>
      <trkpt lat="43.10131" lon="1.7359">
        <ele>291.79998779297</ele>
        <time>2025-08-06T13:07:49.000Z</time>
      </trkpt>
      <trkpt lat="43.10153" lon="1.73593">
        <ele>292.20001220703</ele>
        <time>2025-08-06T13:07:55.000Z</time>
      </trkpt>
      <trkpt lat="43.10155" lon="1.73587">
        <ele>292.20001220703</ele>
        <time>2025-08-06T13:07:57.000Z</time>
      </trkpt>
      <trkpt lat="43.10154" lon="1.73584">
        <ele>292.39999389648</ele>
        <time>2025-08-06T13:07:58.000Z</time>
      </trkpt>
      <trkpt lat="43.10143" lon="1.73566">
        <ele>292.60000610352</ele>
        <time>2025-08-06T13:08:03.000Z</time>
      </trkpt>
      <trkpt lat="43.10131" lon="1.73543">
        <ele>292.60000610352</ele>
        <time>2025-08-06T13:08:08.000Z</time>
      </trkpt>
      <trkpt lat="43.10127" lon="1.73528">
        <ele>292.79998779297</ele>
        <time>2025-08-06T13:08:11.000Z</time>
      </trkpt>
      <trkpt lat="43.10126" lon="1.73513">
        <ele>292.79998779297</ele>
        <time>2025-08-06T13:08:14.000Z</time>
      </trkpt>
      <trkpt lat="43.10127" lon="1.7347">
        <ele>293.20001220703</ele>
        <time>2025-08-06T13:08:22.000Z</time>
      </trkpt>
      <trkpt lat="43.10122" lon="1.73431">
        <ele>293.20001220703</ele>
        <time>2025-08-06T13:08:29.000Z</time>
      </trkpt>
      <trkpt lat="43.10116" lon="1.73416">
        <ele>293.20001220703</ele>
        <time>2025-08-06T13:08:32.000Z</time>
      </trkpt>
      <trkpt lat="43.1011" lon="1.73401">
        <ele>293.20001220703</ele>
        <time>2025-08-06T13:08:35.000Z</time>
      </trkpt>
      <trkpt lat="43.10097" lon="1.73362">
        <ele>293.60000610352</ele>
        <time>2025-08-06T13:08:43.000Z</time>
      </trkpt>
      <trkpt lat="43.1009" lon="1.73338">
        <ele>293.79998779297</ele>
        <time>2025-08-06T13:08:48.000Z</time>
      </trkpt>
      <trkpt lat="43.10087" lon="1.73316">
        <ele>294.20001220703</ele>
        <time>2025-08-06T13:08:53.000Z</time>
      </trkpt>
      <trkpt lat="43.10098" lon="1.73304">
        <ele>294.20001220703</ele>
        <time>2025-08-06T13:08:56.000Z</time>
      </trkpt>
      <trkpt lat="43.10119" lon="1.73288">
        <ele>293.79998779297</ele>
        <time>2025-08-06T13:09:02.000Z</time>
      </trkpt>
      <trkpt lat="43.1015" lon="1.73265">
        <ele>294</ele>
        <time>2025-08-06T13:09:11.000Z</time>
      </trkpt>
      <trkpt lat="43.10168" lon="1.7324">
        <ele>294</ele>
        <time>2025-08-06T13:09:17.000Z</time>
      </trkpt>
      <trkpt lat="43.10173" lon="1.73231">
        <ele>294</ele>
        <time>2025-08-06T13:09:19.000Z</time>
      </trkpt>
      <trkpt lat="43.10185" lon="1.73216">
        <ele>294</ele>
        <time>2025-08-06T13:09:23.000Z</time>
      </trkpt>
      <trkpt lat="43.10208" lon="1.73201">
        <ele>294</ele>
        <time>2025-08-06T13:09:29.000Z</time>
      </trkpt>
      <trkpt lat="43.10212" lon="1.73198">
        <ele>294</ele>
        <time>2025-08-06T13:09:30.000Z</time>
      </trkpt>
      <trkpt lat="43.10218" lon="1.7319">
        <ele>294</ele>
        <time>2025-08-06T13:09:32.000Z</time>
      </trkpt>
      <trkpt lat="43.1022" lon="1.73185">
        <ele>294</ele>
        <time>2025-08-06T13:09:33.000Z</time>
      </trkpt>
      <trkpt lat="43.10221" lon="1.7318">
        <ele>294</ele>
        <time>2025-08-06T13:09:34.000Z</time>
      </trkpt>
      <trkpt lat="43.10226" lon="1.73157">
        <ele>294</ele>
        <time>2025-08-06T13:09:39.000Z</time>
      </trkpt>
      <trkpt lat="43.10228" lon="1.73149">
        <ele>294</ele>
        <time>2025-08-06T13:09:43.000Z</time>
      </trkpt>
      <trkpt lat="43.10228" lon="1.73149">
        <ele>294</ele>
        <time>2025-08-06T13:09:44.000Z</time>
      </trkpt>
      <trkpt lat="43.10227" lon="1.73143">
        <ele>294.20001220703</ele>
        <time>2025-08-06T13:09:59.000Z</time>
      </trkpt>
      <trkpt lat="43.10229" lon="1.73135">
        <ele>294.20001220703</ele>
        <time>2025-08-06T13:10:01.000Z</time>
      </trkpt>
      <trkpt lat="43.10234" lon="1.73114">
        <ele>294.20001220703</ele>
        <time>2025-08-06T13:10:05.000Z</time>
      </trkpt>
      <trkpt lat="43.10239" lon="1.73098">
        <ele>294.20001220703</ele>
        <time>2025-08-06T13:10:08.000Z</time>
      </trkpt>
      <trkpt lat="43.10245" lon="1.73089">
        <ele>294.20001220703</ele>
        <time>2025-08-06T13:10:10.000Z</time>
      </trkpt>
      <trkpt lat="43.10248" lon="1.73085">
        <ele>294.20001220703</ele>
        <time>2025-08-06T13:10:11.000Z</time>
      </trkpt>
      <trkpt lat="43.10258" lon="1.73074">
        <ele>294.20001220703</ele>
        <time>2025-08-06T13:10:14.000Z</time>
      </trkpt>
      <trkpt lat="43.10272" lon="1.73063">
        <ele>294.20001220703</ele>
        <time>2025-08-06T13:10:18.000Z</time>
      </trkpt>
      <trkpt lat="43.10277" lon="1.73059">
        <ele>294.20001220703</ele>
        <time>2025-08-06T13:10:19.000Z</time>
      </trkpt>
      <trkpt lat="43.10303" lon="1.73039">
        <ele>294.20001220703</ele>
        <time>2025-08-06T13:10:26.000Z</time>
      </trkpt>
      <trkpt lat="43.10346" lon="1.73007">
        <ele>294.39999389648</ele>
        <time>2025-08-06T13:10:37.000Z</time>
      </trkpt>
      <trkpt lat="43.10389" lon="1.72968">
        <ele>294.20001220703</ele>
        <time>2025-08-06T13:10:48.000Z</time>
      </trkpt>
      <trkpt lat="43.10429" lon="1.72934">
        <ele>294</ele>
        <time>2025-08-06T13:10:58.000Z</time>
      </trkpt>
      <trkpt lat="43.10466" lon="1.72912">
        <ele>294.20001220703</ele>
        <time>2025-08-06T13:11:07.000Z</time>
      </trkpt>
      <trkpt lat="43.10498" lon="1.72894">
        <ele>294.39999389648</ele>
        <time>2025-08-06T13:11:15.000Z</time>
      </trkpt>
      <trkpt lat="43.10545" lon="1.72869">
        <ele>294</ele>
        <time>2025-08-06T13:11:26.000Z</time>
      </trkpt>
      <trkpt lat="43.10557" lon="1.72863">
        <ele>294.20001220703</ele>
        <time>2025-08-06T13:11:29.000Z</time>
      </trkpt>
      <trkpt lat="43.10569" lon="1.72855">
        <ele>294.20001220703</ele>
        <time>2025-08-06T13:11:32.000Z</time>
      </trkpt>
      <trkpt lat="43.106" lon="1.72826">
        <ele>294.39999389648</ele>
        <time>2025-08-06T13:11:41.000Z</time>
      </trkpt>
      <trkpt lat="43.1062" lon="1.72806">
        <ele>295</ele>
        <time>2025-08-06T13:11:49.000Z</time>
      </trkpt>
      <trkpt lat="43.10623" lon="1.72804">
        <ele>295.20001220703</ele>
        <time>2025-08-06T13:11:50.000Z</time>
      </trkpt>
      <trkpt lat="43.10636" lon="1.72796">
        <ele>295.60000610352</ele>
        <time>2025-08-06T13:11:54.000Z</time>
      </trkpt>
      <trkpt lat="43.10666" lon="1.72779">
        <ele>295.39999389648</ele>
        <time>2025-08-06T13:12:00.000Z</time>
      </trkpt>
      <trkpt lat="43.10702" lon="1.72756">
        <ele>294.39999389648</ele>
        <time>2025-08-06T13:12:07.000Z</time>
      </trkpt>
      <trkpt lat="43.10712" lon="1.7275">
        <ele>294</ele>
        <time>2025-08-06T13:12:09.000Z</time>
      </trkpt>
      <trkpt lat="43.10746" lon="1.72735">
        <ele>293.60000610352</ele>
        <time>2025-08-06T13:12:16.000Z</time>
      </trkpt>
      <trkpt lat="43.10778" lon="1.72719">
        <ele>293.60000610352</ele>
        <time>2025-08-06T13:12:23.000Z</time>
      </trkpt>
      <trkpt lat="43.10782" lon="1.72716">
        <ele>293.39999389648</ele>
        <time>2025-08-06T13:12:24.000Z</time>
      </trkpt>
      <trkpt lat="43.10786" lon="1.72712">
        <ele>293.39999389648</ele>
        <time>2025-08-06T13:12:25.000Z</time>
      </trkpt>
      <trkpt lat="43.10806" lon="1.72685">
        <ele>293.39999389648</ele>
        <time>2025-08-06T13:12:31.000Z</time>
      </trkpt>
      <trkpt lat="43.10832" lon="1.72654">
        <ele>293.39999389648</ele>
        <time>2025-08-06T13:12:39.000Z</time>
      </trkpt>
      <trkpt lat="43.10852" lon="1.72633">
        <ele>293.79998779297</ele>
        <time>2025-08-06T13:12:46.000Z</time>
      </trkpt>
      <trkpt lat="43.10857" lon="1.72628">
        <ele>294</ele>
        <time>2025-08-06T13:12:48.000Z</time>
      </trkpt>
      <trkpt lat="43.10857" lon="1.72623">
        <ele>294.39999389648</ele>
        <time>2025-08-06T13:12:50.000Z</time>
      </trkpt>
      <trkpt lat="43.10851" lon="1.7261">
        <ele>294.60000610352</ele>
        <time>2025-08-06T13:12:55.000Z</time>
      </trkpt>
      <trkpt lat="43.1085" lon="1.72599">
        <ele>295</ele>
        <time>2025-08-06T13:12:59.000Z</time>
      </trkpt>
      <trkpt lat="43.10849" lon="1.72594">
        <ele>295.20001220703</ele>
        <time>2025-08-06T13:13:01.000Z</time>
      </trkpt>
      <trkpt lat="43.10846" lon="1.72575">
        <ele>296.20001220703</ele>
        <time>2025-08-06T13:13:08.000Z</time>
      </trkpt>
      <trkpt lat="43.10844" lon="1.72567">
        <ele>296.39999389648</ele>
        <time>2025-08-06T13:13:11.000Z</time>
      </trkpt>
      <trkpt lat="43.10843" lon="1.72552">
        <ele>297.20001220703</ele>
        <time>2025-08-06T13:13:17.000Z</time>
      </trkpt>
      <trkpt lat="43.10842" lon="1.72546">
        <ele>297.60000610352</ele>
        <time>2025-08-06T13:13:19.000Z</time>
      </trkpt>
      <trkpt lat="43.10842" lon="1.72542">
        <ele>297.79998779297</ele>
        <time>2025-08-06T13:13:21.000Z</time>
      </trkpt>
      <trkpt lat="43.10841" lon="1.72536">
        <ele>298.20001220703</ele>
        <time>2025-08-06T13:13:24.000Z</time>
      </trkpt>
      <trkpt lat="43.1084" lon="1.72534">
        <ele>298.20001220703</ele>
        <time>2025-08-06T13:13:25.000Z</time>
      </trkpt>
      <trkpt lat="43.10839" lon="1.72514">
        <ele>299.39999389648</ele>
        <time>2025-08-06T13:13:32.000Z</time>
      </trkpt>
      <trkpt lat="43.10839" lon="1.72512">
        <ele>299.39999389648</ele>
        <time>2025-08-06T13:13:33.000Z</time>
      </trkpt>
      <trkpt lat="43.10837" lon="1.72488">
        <ele>300.39999389648</ele>
        <time>2025-08-06T13:13:41.000Z</time>
      </trkpt>
      <trkpt lat="43.10836" lon="1.72464">
        <ele>301.20001220703</ele>
        <time>2025-08-06T13:13:49.000Z</time>
      </trkpt>
      <trkpt lat="43.10834" lon="1.72456">
        <ele>301.39999389648</ele>
        <time>2025-08-06T13:13:52.000Z</time>
      </trkpt>
      <trkpt lat="43.10833" lon="1.72444">
        <ele>301.79998779297</ele>
        <time>2025-08-06T13:13:56.000Z</time>
      </trkpt>
      <trkpt lat="43.10831" lon="1.72424">
        <ele>302.20001220703</ele>
        <time>2025-08-06T13:14:03.000Z</time>
      </trkpt>
      <trkpt lat="43.10832" lon="1.72421">
        <ele>302.39999389648</ele>
        <time>2025-08-06T13:14:04.000Z</time>
      </trkpt>
      <trkpt lat="43.1083" lon="1.72402">
        <ele>303.39999389648</ele>
        <time>2025-08-06T13:14:11.000Z</time>
      </trkpt>
      <trkpt lat="43.1083" lon="1.72399">
        <ele>303.60000610352</ele>
        <time>2025-08-06T13:14:12.000Z</time>
      </trkpt>
      <trkpt lat="43.10829" lon="1.72376">
        <ele>304.60000610352</ele>
        <time>2025-08-06T13:14:20.000Z</time>
      </trkpt>
      <trkpt lat="43.10828" lon="1.72374">
        <ele>304.79998779297</ele>
        <time>2025-08-06T13:14:21.000Z</time>
      </trkpt>
      <trkpt lat="43.10826" lon="1.72356">
        <ele>305.20001220703</ele>
        <time>2025-08-06T13:14:27.000Z</time>
      </trkpt>
      <trkpt lat="43.10825" lon="1.72334">
        <ele>305.79998779297</ele>
        <time>2025-08-06T13:14:35.000Z</time>
      </trkpt>
      <trkpt lat="43.10828" lon="1.72317">
        <ele>306.79998779297</ele>
        <time>2025-08-06T13:14:41.000Z</time>
      </trkpt>
      <trkpt lat="43.10829" lon="1.72314">
        <ele>307</ele>
        <time>2025-08-06T13:14:42.000Z</time>
      </trkpt>
      <trkpt lat="43.10839" lon="1.72303">
        <ele>307.60000610352</ele>
        <time>2025-08-06T13:14:48.000Z</time>
      </trkpt>
      <trkpt lat="43.10859" lon="1.72288">
        <ele>307.79998779297</ele>
        <time>2025-08-06T13:14:57.000Z</time>
      </trkpt>
      <trkpt lat="43.10867" lon="1.72283">
        <ele>307.79998779297</ele>
        <time>2025-08-06T13:15:00.000Z</time>
      </trkpt>
      <trkpt lat="43.10883" lon="1.72269">
        <ele>308</ele>
        <time>2025-08-06T13:15:06.000Z</time>
      </trkpt>
      <trkpt lat="43.10908" lon="1.72249">
        <ele>308.39999389648</ele>
        <time>2025-08-06T13:15:15.000Z</time>
      </trkpt>
      <trkpt lat="43.10941" lon="1.72224">
        <ele>308.79998779297</ele>
        <time>2025-08-06T13:15:26.000Z</time>
      </trkpt>
      <trkpt lat="43.10964" lon="1.72205">
        <ele>309</ele>
        <time>2025-08-06T13:15:34.000Z</time>
      </trkpt>
      <trkpt lat="43.10985" lon="1.72188">
        <ele>309.39999389648</ele>
        <time>2025-08-06T13:15:42.000Z</time>
      </trkpt>
      <trkpt lat="43.11006" lon="1.72172">
        <ele>309.60000610352</ele>
        <time>2025-08-06T13:15:50.000Z</time>
      </trkpt>
      <trkpt lat="43.11014" lon="1.72166">
        <ele>309.79998779297</ele>
        <time>2025-08-06T13:15:53.000Z</time>
      </trkpt>
      <trkpt lat="43.11024" lon="1.72158">
        <ele>310</ele>
        <time>2025-08-06T13:15:57.000Z</time>
      </trkpt>
      <trkpt lat="43.11046" lon="1.7215">
        <ele>310</ele>
        <time>2025-08-06T13:16:05.000Z</time>
      </trkpt>
      <trkpt lat="43.11058" lon="1.72143">
        <ele>310.39999389648</ele>
        <time>2025-08-06T13:16:10.000Z</time>
      </trkpt>
      <trkpt lat="43.11072" lon="1.72136">
        <ele>310.39999389648</ele>
        <time>2025-08-06T13:16:15.000Z</time>
      </trkpt>
      <trkpt lat="43.11088" lon="1.72125">
        <ele>310.20001220703</ele>
        <time>2025-08-06T13:16:20.000Z</time>
      </trkpt>
      <trkpt lat="43.11103" lon="1.72114">
        <ele>310</ele>
        <time>2025-08-06T13:16:25.000Z</time>
      </trkpt>
      <trkpt lat="43.1111" lon="1.72108">
        <ele>310</ele>
        <time>2025-08-06T13:16:28.000Z</time>
      </trkpt>
      <trkpt lat="43.11134" lon="1.72096">
        <ele>310.39999389648</ele>
        <time>2025-08-06T13:16:36.000Z</time>
      </trkpt>
      <trkpt lat="43.11156" lon="1.72087">
        <ele>310.60000610352</ele>
        <time>2025-08-06T13:16:43.000Z</time>
      </trkpt>
      <trkpt lat="43.11176" lon="1.72078">
        <ele>310.60000610352</ele>
        <time>2025-08-06T13:16:50.000Z</time>
      </trkpt>
      <trkpt lat="43.11204" lon="1.72066">
        <ele>310.79998779297</ele>
        <time>2025-08-06T13:16:58.000Z</time>
      </trkpt>
      <trkpt lat="43.1122" lon="1.7206">
        <ele>310.79998779297</ele>
        <time>2025-08-06T13:17:03.000Z</time>
      </trkpt>
      <trkpt lat="43.11233" lon="1.72054">
        <ele>310.79998779297</ele>
        <time>2025-08-06T13:17:07.000Z</time>
      </trkpt>
      <trkpt lat="43.11251" lon="1.72046">
        <ele>311</ele>
        <time>2025-08-06T13:17:13.000Z</time>
      </trkpt>
      <trkpt lat="43.11283" lon="1.72034">
        <ele>311.20001220703</ele>
        <time>2025-08-06T13:17:23.000Z</time>
      </trkpt>
      <trkpt lat="43.11305" lon="1.72026">
        <ele>311.39999389648</ele>
        <time>2025-08-06T13:17:30.000Z</time>
      </trkpt>
      <trkpt lat="43.11332" lon="1.72015">
        <ele>311.60000610352</ele>
        <time>2025-08-06T13:17:38.000Z</time>
      </trkpt>
      <trkpt lat="43.11348" lon="1.72008">
        <ele>311.79998779297</ele>
        <time>2025-08-06T13:17:43.000Z</time>
      </trkpt>
      <trkpt lat="43.1136" lon="1.72002">
        <ele>311.79998779297</ele>
        <time>2025-08-06T13:17:47.000Z</time>
      </trkpt>
      <trkpt lat="43.11382" lon="1.71995">
        <ele>312</ele>
        <time>2025-08-06T13:17:54.000Z</time>
      </trkpt>
      <trkpt lat="43.11402" lon="1.71985">
        <ele>312.20001220703</ele>
        <time>2025-08-06T13:18:01.000Z</time>
      </trkpt>
      <trkpt lat="43.11416" lon="1.71981">
        <ele>312.39999389648</ele>
        <time>2025-08-06T13:18:06.000Z</time>
      </trkpt>
      <trkpt lat="43.11437" lon="1.7197">
        <ele>312.60000610352</ele>
        <time>2025-08-06T13:18:13.000Z</time>
      </trkpt>
      <trkpt lat="43.11454" lon="1.71963">
        <ele>312.79998779297</ele>
        <time>2025-08-06T13:18:18.000Z</time>
      </trkpt>
      <trkpt lat="43.11458" lon="1.71962">
        <ele>312.79998779297</ele>
        <time>2025-08-06T13:18:19.000Z</time>
      </trkpt>
      <trkpt lat="43.11494" lon="1.71946">
        <ele>313</ele>
        <time>2025-08-06T13:18:30.000Z</time>
      </trkpt>
      <trkpt lat="43.11507" lon="1.71941">
        <ele>313.20001220703</ele>
        <time>2025-08-06T13:18:34.000Z</time>
      </trkpt>
      <trkpt lat="43.11534" lon="1.71931">
        <ele>313.39999389648</ele>
        <time>2025-08-06T13:18:42.000Z</time>
      </trkpt>
      <trkpt lat="43.11563" lon="1.7192">
        <ele>313.79998779297</ele>
        <time>2025-08-06T13:18:51.000Z</time>
      </trkpt>
      <trkpt lat="43.11566" lon="1.7192">
        <ele>313.79998779297</ele>
        <time>2025-08-06T13:18:52.000Z</time>
      </trkpt>
      <trkpt lat="43.11585" lon="1.71919">
        <ele>314</ele>
        <time>2025-08-06T13:18:58.000Z</time>
      </trkpt>
      <trkpt lat="43.11603" lon="1.71916">
        <ele>314.20001220703</ele>
        <time>2025-08-06T13:19:04.000Z</time>
      </trkpt>
      <trkpt lat="43.11629" lon="1.71912">
        <ele>314.39999389648</ele>
        <time>2025-08-06T13:19:12.000Z</time>
      </trkpt>
      <trkpt lat="43.11653" lon="1.71906">
        <ele>314.39999389648</ele>
        <time>2025-08-06T13:19:19.000Z</time>
      </trkpt>
      <trkpt lat="43.11677" lon="1.71901">
        <ele>314.60000610352</ele>
        <time>2025-08-06T13:19:26.000Z</time>
      </trkpt>
      <trkpt lat="43.11687" lon="1.71899">
        <ele>314.39999389648</ele>
        <time>2025-08-06T13:19:29.000Z</time>
      </trkpt>
      <trkpt lat="43.11697" lon="1.71897">
        <ele>314.79998779297</ele>
        <time>2025-08-06T13:19:32.000Z</time>
      </trkpt>
      <trkpt lat="43.117" lon="1.71897">
        <ele>314.79998779297</ele>
        <time>2025-08-06T13:19:33.000Z</time>
      </trkpt>
      <trkpt lat="43.11723" lon="1.71895">
        <ele>315</ele>
        <time>2025-08-06T13:19:38.000Z</time>
      </trkpt>
      <trkpt lat="43.1175" lon="1.71893">
        <ele>315</ele>
        <time>2025-08-06T13:19:45.000Z</time>
      </trkpt>
      <trkpt lat="43.11778" lon="1.71893">
        <ele>315</ele>
        <time>2025-08-06T13:19:52.000Z</time>
      </trkpt>
      <trkpt lat="43.118" lon="1.71889">
        <ele>315</ele>
        <time>2025-08-06T13:19:58.000Z</time>
      </trkpt>
      <trkpt lat="43.11817" lon="1.71888">
        <ele>315.39999389648</ele>
        <time>2025-08-06T13:20:03.000Z</time>
      </trkpt>
      <trkpt lat="43.11842" lon="1.71889">
        <ele>315.39999389648</ele>
        <time>2025-08-06T13:20:10.000Z</time>
      </trkpt>
      <trkpt lat="43.11873" lon="1.7189">
        <ele>315.60000610352</ele>
        <time>2025-08-06T13:20:19.000Z</time>
      </trkpt>
      <trkpt lat="43.11896" lon="1.71892">
        <ele>315.60000610352</ele>
        <time>2025-08-06T13:20:26.000Z</time>
      </trkpt>
      <trkpt lat="43.11899" lon="1.71893">
        <ele>315.60000610352</ele>
        <time>2025-08-06T13:20:27.000Z</time>
      </trkpt>
      <trkpt lat="43.11924" lon="1.71896">
        <ele>315.79998779297</ele>
        <time>2025-08-06T13:20:34.000Z</time>
      </trkpt>
      <trkpt lat="43.11942" lon="1.71902">
        <ele>316</ele>
        <time>2025-08-06T13:20:39.000Z</time>
      </trkpt>
      <trkpt lat="43.1196" lon="1.71903">
        <ele>316.20001220703</ele>
        <time>2025-08-06T13:20:44.000Z</time>
      </trkpt>
      <trkpt lat="43.11993" lon="1.71909">
        <ele>316.60000610352</ele>
        <time>2025-08-06T13:20:52.000Z</time>
      </trkpt>
      <trkpt lat="43.11997" lon="1.71909">
        <ele>316.60000610352</ele>
        <time>2025-08-06T13:20:53.000Z</time>
      </trkpt>
      <trkpt lat="43.12022" lon="1.71913">
        <ele>317</ele>
        <time>2025-08-06T13:20:59.000Z</time>
      </trkpt>
      <trkpt lat="43.12045" lon="1.71918">
        <ele>317.39999389648</ele>
        <time>2025-08-06T13:21:06.000Z</time>
      </trkpt>
      <trkpt lat="43.12065" lon="1.71916">
        <ele>317.60000610352</ele>
        <time>2025-08-06T13:21:12.000Z</time>
      </trkpt>
      <trkpt lat="43.12081" lon="1.71915">
        <ele>317.79998779297</ele>
        <time>2025-08-06T13:21:16.000Z</time>
      </trkpt>
      <trkpt lat="43.12085" lon="1.71914">
        <ele>317.79998779297</ele>
        <time>2025-08-06T13:21:17.000Z</time>
      </trkpt>
      <trkpt lat="43.12113" lon="1.7191">
        <ele>318</ele>
        <time>2025-08-06T13:21:24.000Z</time>
      </trkpt>
      <trkpt lat="43.12143" lon="1.71902">
        <ele>318</ele>
        <time>2025-08-06T13:21:31.000Z</time>
      </trkpt>
      <trkpt lat="43.12165" lon="1.71901">
        <ele>318</ele>
        <time>2025-08-06T13:21:37.000Z</time>
      </trkpt>
      <trkpt lat="43.12189" lon="1.71901">
        <ele>318.39999389648</ele>
        <time>2025-08-06T13:21:43.000Z</time>
      </trkpt>
      <trkpt lat="43.12201" lon="1.71897">
        <ele>318.60000610352</ele>
        <time>2025-08-06T13:21:47.000Z</time>
      </trkpt>
      <trkpt lat="43.12213" lon="1.71895">
        <ele>318.79998779297</ele>
        <time>2025-08-06T13:21:50.000Z</time>
      </trkpt>
      <trkpt lat="43.12234" lon="1.71895">
        <ele>319</ele>
        <time>2025-08-06T13:21:56.000Z</time>
      </trkpt>
      <trkpt lat="43.12254" lon="1.71892">
        <ele>319.39999389648</ele>
        <time>2025-08-06T13:22:01.000Z</time>
      </trkpt>
      <trkpt lat="43.12277" lon="1.7189">
        <ele>319.60000610352</ele>
        <time>2025-08-06T13:22:07.000Z</time>
      </trkpt>
      <trkpt lat="43.12289" lon="1.71886">
        <ele>319.60000610352</ele>
        <time>2025-08-06T13:22:10.000Z</time>
      </trkpt>
      <trkpt lat="43.12306" lon="1.7188">
        <ele>319.79998779297</ele>
        <time>2025-08-06T13:22:16.000Z</time>
      </trkpt>
      <trkpt lat="43.1232" lon="1.7188">
        <ele>320</ele>
        <time>2025-08-06T13:22:20.000Z</time>
      </trkpt>
      <trkpt lat="43.12346" lon="1.71875">
        <ele>320.20001220703</ele>
        <time>2025-08-06T13:22:26.000Z</time>
      </trkpt>
      <trkpt lat="43.12376" lon="1.71871">
        <ele>320.39999389648</ele>
        <time>2025-08-06T13:22:33.000Z</time>
      </trkpt>
      <trkpt lat="43.12408" lon="1.71868">
        <ele>320.39999389648</ele>
        <time>2025-08-06T13:22:40.000Z</time>
      </trkpt>
      <trkpt lat="43.12426" lon="1.71866">
        <ele>320.60000610352</ele>
        <time>2025-08-06T13:22:44.000Z</time>
      </trkpt>
      <trkpt lat="43.1243" lon="1.71865">
        <ele>320.60000610352</ele>
        <time>2025-08-06T13:22:45.000Z</time>
      </trkpt>
      <trkpt lat="43.1244" lon="1.71863">
        <ele>320.79998779297</ele>
        <time>2025-08-06T13:22:48.000Z</time>
      </trkpt>
      <trkpt lat="43.1247" lon="1.71854">
        <ele>321.39999389648</ele>
        <time>2025-08-06T13:22:56.000Z</time>
      </trkpt>
      <trkpt lat="43.12481" lon="1.71854">
        <ele>321.60000610352</ele>
        <time>2025-08-06T13:22:59.000Z</time>
      </trkpt>
      <trkpt lat="43.12488" lon="1.71853">
        <ele>321.60000610352</ele>
        <time>2025-08-06T13:23:01.000Z</time>
      </trkpt>
      <trkpt lat="43.12506" lon="1.71845">
        <ele>322</ele>
        <time>2025-08-06T13:23:06.000Z</time>
      </trkpt>
      <trkpt lat="43.12509" lon="1.71845">
        <ele>322</ele>
        <time>2025-08-06T13:23:07.000Z</time>
      </trkpt>
      <trkpt lat="43.12516" lon="1.71843">
        <ele>322</ele>
        <time>2025-08-06T13:23:09.000Z</time>
      </trkpt>
      <trkpt lat="43.12538" lon="1.7183">
        <ele>322.20001220703</ele>
        <time>2025-08-06T13:23:15.000Z</time>
      </trkpt>
      <trkpt lat="43.12561" lon="1.71816">
        <ele>322.60000610352</ele>
        <time>2025-08-06T13:23:21.000Z</time>
      </trkpt>
      <trkpt lat="43.12569" lon="1.71813">
        <ele>322.39999389648</ele>
        <time>2025-08-06T13:23:23.000Z</time>
      </trkpt>
      <trkpt lat="43.12585" lon="1.71806">
        <ele>322.60000610352</ele>
        <time>2025-08-06T13:23:27.000Z</time>
      </trkpt>
      <trkpt lat="43.12601" lon="1.71798">
        <ele>322.60000610352</ele>
        <time>2025-08-06T13:23:32.000Z</time>
      </trkpt>
      <trkpt lat="43.12637" lon="1.71778">
        <ele>323</ele>
        <time>2025-08-06T13:23:42.000Z</time>
      </trkpt>
      <trkpt lat="43.12657" lon="1.71761">
        <ele>323.20001220703</ele>
        <time>2025-08-06T13:23:48.000Z</time>
      </trkpt>
      <trkpt lat="43.12679" lon="1.71741">
        <ele>323.39999389648</ele>
        <time>2025-08-06T13:23:55.000Z</time>
      </trkpt>
      <trkpt lat="43.12698" lon="1.71726">
        <ele>323.60000610352</ele>
        <time>2025-08-06T13:24:01.000Z</time>
      </trkpt>
      <trkpt lat="43.12719" lon="1.71706">
        <ele>324</ele>
        <time>2025-08-06T13:24:07.000Z</time>
      </trkpt>
      <trkpt lat="43.12743" lon="1.71685">
        <ele>324.20001220703</ele>
        <time>2025-08-06T13:24:14.000Z</time>
      </trkpt>
      <trkpt lat="43.12765" lon="1.7167">
        <ele>324.39999389648</ele>
        <time>2025-08-06T13:24:21.000Z</time>
      </trkpt>
      <trkpt lat="43.12769" lon="1.71667">
        <ele>324.39999389648</ele>
        <time>2025-08-06T13:24:22.000Z</time>
      </trkpt>
      <trkpt lat="43.12786" lon="1.71653">
        <ele>324.79998779297</ele>
        <time>2025-08-06T13:24:28.000Z</time>
      </trkpt>
      <trkpt lat="43.12806" lon="1.71636">
        <ele>324.79998779297</ele>
        <time>2025-08-06T13:24:35.000Z</time>
      </trkpt>
      <trkpt lat="43.12831" lon="1.71611">
        <ele>324.79998779297</ele>
        <time>2025-08-06T13:24:43.000Z</time>
      </trkpt>
      <trkpt lat="43.12854" lon="1.71589">
        <ele>325</ele>
        <time>2025-08-06T13:24:50.000Z</time>
      </trkpt>
      <trkpt lat="43.12874" lon="1.71567">
        <ele>325</ele>
        <time>2025-08-06T13:24:57.000Z</time>
      </trkpt>
      <trkpt lat="43.12898" lon="1.71535">
        <ele>325.20001220703</ele>
        <time>2025-08-06T13:25:06.000Z</time>
      </trkpt>
      <trkpt lat="43.129" lon="1.71531">
        <ele>325.39999389648</ele>
        <time>2025-08-06T13:25:07.000Z</time>
      </trkpt>
      <trkpt lat="43.12914" lon="1.71511">
        <ele>325.39999389648</ele>
        <time>2025-08-06T13:25:12.000Z</time>
      </trkpt>
      <trkpt lat="43.12929" lon="1.71485">
        <ele>325.60000610352</ele>
        <time>2025-08-06T13:25:18.000Z</time>
      </trkpt>
      <trkpt lat="43.12944" lon="1.71457">
        <ele>325.79998779297</ele>
        <time>2025-08-06T13:25:25.000Z</time>
      </trkpt>
      <trkpt lat="43.12954" lon="1.71434">
        <ele>326</ele>
        <time>2025-08-06T13:25:30.000Z</time>
      </trkpt>
      <trkpt lat="43.12967" lon="1.71401">
        <ele>326.20001220703</ele>
        <time>2025-08-06T13:25:38.000Z</time>
      </trkpt>
      <trkpt lat="43.12973" lon="1.71388">
        <ele>326.39999389648</ele>
        <time>2025-08-06T13:25:41.000Z</time>
      </trkpt>
      <trkpt lat="43.12982" lon="1.71364">
        <ele>326.39999389648</ele>
        <time>2025-08-06T13:25:46.000Z</time>
      </trkpt>
      <trkpt lat="43.1299" lon="1.7134">
        <ele>326.39999389648</ele>
        <time>2025-08-06T13:25:51.000Z</time>
      </trkpt>
      <trkpt lat="43.12998" lon="1.71302">
        <ele>326.79998779297</ele>
        <time>2025-08-06T13:25:59.000Z</time>
      </trkpt>
      <trkpt lat="43.13005" lon="1.71263">
        <ele>326.60000610352</ele>
        <time>2025-08-06T13:26:07.000Z</time>
      </trkpt>
      <trkpt lat="43.13009" lon="1.71236">
        <ele>326.60000610352</ele>
        <time>2025-08-06T13:26:13.000Z</time>
      </trkpt>
      <trkpt lat="43.13012" lon="1.71198">
        <ele>327</ele>
        <time>2025-08-06T13:26:21.000Z</time>
      </trkpt>
      <trkpt lat="43.13013" lon="1.71174">
        <ele>327</ele>
        <time>2025-08-06T13:26:26.000Z</time>
      </trkpt>
      <trkpt lat="43.13015" lon="1.71142">
        <ele>327</ele>
        <time>2025-08-06T13:26:32.000Z</time>
      </trkpt>
      <trkpt lat="43.13017" lon="1.71117">
        <ele>327.39999389648</ele>
        <time>2025-08-06T13:26:37.000Z</time>
      </trkpt>
      <trkpt lat="43.1302" lon="1.71094">
        <ele>327.39999389648</ele>
        <time>2025-08-06T13:26:41.000Z</time>
      </trkpt>
      <trkpt lat="43.13018" lon="1.71047">
        <ele>327.60000610352</ele>
        <time>2025-08-06T13:26:50.000Z</time>
      </trkpt>
      <trkpt lat="43.13016" lon="1.71022">
        <ele>327.60000610352</ele>
        <time>2025-08-06T13:26:55.000Z</time>
      </trkpt>
      <trkpt lat="43.13013" lon="1.71002">
        <ele>327.60000610352</ele>
        <time>2025-08-06T13:27:00.000Z</time>
      </trkpt>
      <trkpt lat="43.1301" lon="1.70972">
        <ele>327.60000610352</ele>
        <time>2025-08-06T13:27:06.000Z</time>
      </trkpt>
      <trkpt lat="43.1301" lon="1.70951">
        <ele>327.60000610352</ele>
        <time>2025-08-06T13:27:10.000Z</time>
      </trkpt>
      <trkpt lat="43.13011" lon="1.70907">
        <ele>327.39999389648</ele>
        <time>2025-08-06T13:27:17.000Z</time>
      </trkpt>
      <trkpt lat="43.1301" lon="1.70873">
        <ele>327.20001220703</ele>
        <time>2025-08-06T13:27:23.000Z</time>
      </trkpt>
      <trkpt lat="43.13009" lon="1.70835">
        <ele>327.20001220703</ele>
        <time>2025-08-06T13:27:29.000Z</time>
      </trkpt>
      <trkpt lat="43.13007" lon="1.70804">
        <ele>327</ele>
        <time>2025-08-06T13:27:34.000Z</time>
      </trkpt>
      <trkpt lat="43.13007" lon="1.7079">
        <ele>326.79998779297</ele>
        <time>2025-08-06T13:27:36.000Z</time>
      </trkpt>
      <trkpt lat="43.13005" lon="1.70732">
        <ele>326.60000610352</ele>
        <time>2025-08-06T13:27:45.000Z</time>
      </trkpt>
      <trkpt lat="43.13003" lon="1.70681">
        <ele>326.20001220703</ele>
        <time>2025-08-06T13:27:53.000Z</time>
      </trkpt>
      <trkpt lat="43.13003" lon="1.70668">
        <ele>326</ele>
        <time>2025-08-06T13:27:55.000Z</time>
      </trkpt>
      <trkpt lat="43.13" lon="1.70633">
        <ele>325.79998779297</ele>
        <time>2025-08-06T13:28:01.000Z</time>
      </trkpt>
      <trkpt lat="43.12999" lon="1.7062">
        <ele>325.60000610352</ele>
        <time>2025-08-06T13:28:03.000Z</time>
      </trkpt>
      <trkpt lat="43.12996" lon="1.70581">
        <ele>325.20001220703</ele>
        <time>2025-08-06T13:28:09.000Z</time>
      </trkpt>
      <trkpt lat="43.12996" lon="1.70575">
        <ele>325.20001220703</ele>
        <time>2025-08-06T13:28:10.000Z</time>
      </trkpt>
      <trkpt lat="43.12995" lon="1.70528">
        <ele>325</ele>
        <time>2025-08-06T13:28:17.000Z</time>
      </trkpt>
      <trkpt lat="43.12994" lon="1.70507">
        <ele>325</ele>
        <time>2025-08-06T13:28:20.000Z</time>
      </trkpt>
      <trkpt lat="43.12993" lon="1.7047">
        <ele>324.79998779297</ele>
        <time>2025-08-06T13:28:26.000Z</time>
      </trkpt>
      <trkpt lat="43.12993" lon="1.70457">
        <ele>324.60000610352</ele>
        <time>2025-08-06T13:28:28.000Z</time>
      </trkpt>
      <trkpt lat="43.12992" lon="1.70432">
        <ele>324.39999389648</ele>
        <time>2025-08-06T13:28:32.000Z</time>
      </trkpt>
      <trkpt lat="43.12989" lon="1.70359">
        <ele>324.20001220703</ele>
        <time>2025-08-06T13:28:44.000Z</time>
      </trkpt>
      <trkpt lat="43.12978" lon="1.70319">
        <ele>324.39999389648</ele>
        <time>2025-08-06T13:28:51.000Z</time>
      </trkpt>
      <trkpt lat="43.12975" lon="1.70308">
        <ele>324.39999389648</ele>
        <time>2025-08-06T13:28:53.000Z</time>
      </trkpt>
      <trkpt lat="43.12971" lon="1.70278">
        <ele>324.20001220703</ele>
        <time>2025-08-06T13:28:58.000Z</time>
      </trkpt>
      <trkpt lat="43.12966" lon="1.70232">
        <ele>324</ele>
        <time>2025-08-06T13:29:06.000Z</time>
      </trkpt>
      <trkpt lat="43.12963" lon="1.7018">
        <ele>324</ele>
        <time>2025-08-06T13:29:15.000Z</time>
      </trkpt>
      <trkpt lat="43.12959" lon="1.70134">
        <ele>323.79998779297</ele>
        <time>2025-08-06T13:29:23.000Z</time>
      </trkpt>
      <trkpt lat="43.12956" lon="1.70109">
        <ele>323.79998779297</ele>
        <time>2025-08-06T13:29:28.000Z</time>
      </trkpt>
      <trkpt lat="43.12954" lon="1.70071">
        <ele>323.79998779297</ele>
        <time>2025-08-06T13:29:35.000Z</time>
      </trkpt>
      <trkpt lat="43.12953" lon="1.7003">
        <ele>324</ele>
        <time>2025-08-06T13:29:42.000Z</time>
      </trkpt>
      <trkpt lat="43.12952" lon="1.70007">
        <ele>324.20001220703</ele>
        <time>2025-08-06T13:29:46.000Z</time>
      </trkpt>
      <trkpt lat="43.12953" lon="1.69994">
        <ele>324</ele>
        <time>2025-08-06T13:29:48.000Z</time>
      </trkpt>
      <trkpt lat="43.12953" lon="1.69987">
        <ele>324</ele>
        <time>2025-08-06T13:29:49.000Z</time>
      </trkpt>
      <trkpt lat="43.12953" lon="1.69953">
        <ele>323.79998779297</ele>
        <time>2025-08-06T13:29:55.000Z</time>
      </trkpt>
      <trkpt lat="43.12952" lon="1.69949">
        <ele>323.79998779297</ele>
        <time>2025-08-06T13:29:56.000Z</time>
      </trkpt>
      <trkpt lat="43.12952" lon="1.69943">
        <ele>323.79998779297</ele>
        <time>2025-08-06T13:29:57.000Z</time>
      </trkpt>
      <trkpt lat="43.1295" lon="1.6992">
        <ele>323.79998779297</ele>
        <time>2025-08-06T13:30:01.000Z</time>
      </trkpt>
      <trkpt lat="43.12953" lon="1.69887">
        <ele>324.20001220703</ele>
        <time>2025-08-06T13:30:07.000Z</time>
      </trkpt>
      <trkpt lat="43.12958" lon="1.69867">
        <ele>324.20001220703</ele>
        <time>2025-08-06T13:30:11.000Z</time>
      </trkpt>
      <trkpt lat="43.12956" lon="1.69862">
        <ele>324.20001220703</ele>
        <time>2025-08-06T13:30:12.000Z</time>
      </trkpt>
      <trkpt lat="43.12952" lon="1.69842">
        <ele>324.20001220703</ele>
        <time>2025-08-06T13:30:16.000Z</time>
      </trkpt>
      <trkpt lat="43.12952" lon="1.69804">
        <ele>324.20001220703</ele>
        <time>2025-08-06T13:30:23.000Z</time>
      </trkpt>
      <trkpt lat="43.12958" lon="1.69783">
        <ele>324.39999389648</ele>
        <time>2025-08-06T13:30:28.000Z</time>
      </trkpt>
      <trkpt lat="43.1296" lon="1.69765">
        <ele>324.39999389648</ele>
        <time>2025-08-06T13:30:33.000Z</time>
      </trkpt>
      <trkpt lat="43.12959" lon="1.6974">
        <ele>324.60000610352</ele>
        <time>2025-08-06T13:30:39.000Z</time>
      </trkpt>
      <trkpt lat="43.12959" lon="1.69721">
        <ele>324.60000610352</ele>
        <time>2025-08-06T13:30:44.000Z</time>
      </trkpt>
      <trkpt lat="43.12956" lon="1.69695">
        <ele>324.39999389648</ele>
        <time>2025-08-06T13:30:49.000Z</time>
      </trkpt>
      <trkpt lat="43.12952" lon="1.69659">
        <ele>324.60000610352</ele>
        <time>2025-08-06T13:30:56.000Z</time>
      </trkpt>
      <trkpt lat="43.12951" lon="1.69626">
        <ele>324.39999389648</ele>
        <time>2025-08-06T13:31:02.000Z</time>
      </trkpt>
      <trkpt lat="43.12949" lon="1.69585">
        <ele>324.20001220703</ele>
        <time>2025-08-06T13:31:09.000Z</time>
      </trkpt>
      <trkpt lat="43.12947" lon="1.69553">
        <ele>324</ele>
        <time>2025-08-06T13:31:15.000Z</time>
      </trkpt>
      <trkpt lat="43.12947" lon="1.69542">
        <ele>323.79998779297</ele>
        <time>2025-08-06T13:31:17.000Z</time>
      </trkpt>
      <trkpt lat="43.12945" lon="1.69515">
        <ele>323.79998779297</ele>
        <time>2025-08-06T13:31:21.000Z</time>
      </trkpt>
      <trkpt lat="43.12945" lon="1.69481">
        <ele>323.39999389648</ele>
        <time>2025-08-06T13:31:27.000Z</time>
      </trkpt>
      <trkpt lat="43.12943" lon="1.69445">
        <ele>323.20001220703</ele>
        <time>2025-08-06T13:31:33.000Z</time>
      </trkpt>
      <trkpt lat="43.12942" lon="1.69409">
        <ele>322.79998779297</ele>
        <time>2025-08-06T13:31:39.000Z</time>
      </trkpt>
      <trkpt lat="43.12941" lon="1.69404">
        <ele>322.79998779297</ele>
        <time>2025-08-06T13:31:40.000Z</time>
      </trkpt>
      <trkpt lat="43.12938" lon="1.69373">
        <ele>322.60000610352</ele>
        <time>2025-08-06T13:31:46.000Z</time>
      </trkpt>
      <trkpt lat="43.12935" lon="1.69342">
        <ele>322.39999389648</ele>
        <time>2025-08-06T13:31:52.000Z</time>
      </trkpt>
      <trkpt lat="43.12934" lon="1.69296">
        <ele>322.20001220703</ele>
        <time>2025-08-06T13:32:00.000Z</time>
      </trkpt>
      <trkpt lat="43.12932" lon="1.69253">
        <ele>322</ele>
        <time>2025-08-06T13:32:07.000Z</time>
      </trkpt>
      <trkpt lat="43.1293" lon="1.69236">
        <ele>321.79998779297</ele>
        <time>2025-08-06T13:32:10.000Z</time>
      </trkpt>
      <trkpt lat="43.1293" lon="1.6923">
        <ele>321.79998779297</ele>
        <time>2025-08-06T13:32:11.000Z</time>
      </trkpt>
      <trkpt lat="43.12932" lon="1.69184">
        <ele>321.60000610352</ele>
        <time>2025-08-06T13:32:17.000Z</time>
      </trkpt>
      <trkpt lat="43.12931" lon="1.69143">
        <ele>321</ele>
        <time>2025-08-06T13:32:23.000Z</time>
      </trkpt>
      <trkpt lat="43.1293" lon="1.69131">
        <ele>320.79998779297</ele>
        <time>2025-08-06T13:32:25.000Z</time>
      </trkpt>
      <trkpt lat="43.12928" lon="1.6912">
        <ele>320.79998779297</ele>
        <time>2025-08-06T13:32:27.000Z</time>
      </trkpt>
      <trkpt lat="43.12926" lon="1.69104">
        <ele>320.60000610352</ele>
        <time>2025-08-06T13:32:30.000Z</time>
      </trkpt>
      <trkpt lat="43.12926" lon="1.69084">
        <ele>320.60000610352</ele>
        <time>2025-08-06T13:32:35.000Z</time>
      </trkpt>
      <trkpt lat="43.12923" lon="1.69062">
        <ele>320.39999389648</ele>
        <time>2025-08-06T13:32:40.000Z</time>
      </trkpt>
      <trkpt lat="43.12921" lon="1.69037">
        <ele>320.20001220703</ele>
        <time>2025-08-06T13:32:45.000Z</time>
      </trkpt>
      <trkpt lat="43.1292" lon="1.69007">
        <ele>320.20001220703</ele>
        <time>2025-08-06T13:32:50.000Z</time>
      </trkpt>
      <trkpt lat="43.12919" lon="1.68957">
        <ele>320</ele>
        <time>2025-08-06T13:32:58.000Z</time>
      </trkpt>
      <trkpt lat="43.12918" lon="1.68927">
        <ele>320.20001220703</ele>
        <time>2025-08-06T13:33:03.000Z</time>
      </trkpt>
      <trkpt lat="43.12919" lon="1.68914">
        <ele>320</ele>
        <time>2025-08-06T13:33:05.000Z</time>
      </trkpt>
      <trkpt lat="43.12917" lon="1.68863">
        <ele>319.79998779297</ele>
        <time>2025-08-06T13:33:14.000Z</time>
      </trkpt>
      <trkpt lat="43.12915" lon="1.68821">
        <ele>320</ele>
        <time>2025-08-06T13:33:22.000Z</time>
      </trkpt>
      <trkpt lat="43.12912" lon="1.68777">
        <ele>320.20001220703</ele>
        <time>2025-08-06T13:33:30.000Z</time>
      </trkpt>
      <trkpt lat="43.12908" lon="1.68734">
        <ele>320.60000610352</ele>
        <time>2025-08-06T13:33:38.000Z</time>
      </trkpt>
      <trkpt lat="43.12907" lon="1.68729">
        <ele>320.79998779297</ele>
        <time>2025-08-06T13:33:39.000Z</time>
      </trkpt>
      <trkpt lat="43.12907" lon="1.68688">
        <ele>321.20001220703</ele>
        <time>2025-08-06T13:33:46.000Z</time>
      </trkpt>
      <trkpt lat="43.12907" lon="1.68671">
        <ele>321.39999389648</ele>
        <time>2025-08-06T13:33:49.000Z</time>
      </trkpt>
      <trkpt lat="43.12906" lon="1.68647">
        <ele>321.60000610352</ele>
        <time>2025-08-06T13:33:53.000Z</time>
      </trkpt>
      <trkpt lat="43.12904" lon="1.68611">
        <ele>321.60000610352</ele>
        <time>2025-08-06T13:34:00.000Z</time>
      </trkpt>
      <trkpt lat="43.12903" lon="1.68586">
        <ele>321.60000610352</ele>
        <time>2025-08-06T13:34:05.000Z</time>
      </trkpt>
      <trkpt lat="43.12902" lon="1.68543">
        <ele>321.79998779297</ele>
        <time>2025-08-06T13:34:12.000Z</time>
      </trkpt>
      <trkpt lat="43.129" lon="1.68508">
        <ele>321.79998779297</ele>
        <time>2025-08-06T13:34:18.000Z</time>
      </trkpt>
      <trkpt lat="43.12898" lon="1.68482">
        <ele>322</ele>
        <time>2025-08-06T13:34:23.000Z</time>
      </trkpt>
      <trkpt lat="43.12898" lon="1.68476">
        <ele>322</ele>
        <time>2025-08-06T13:34:24.000Z</time>
      </trkpt>
      <trkpt lat="43.12898" lon="1.68435">
        <ele>322.20001220703</ele>
        <time>2025-08-06T13:34:31.000Z</time>
      </trkpt>
      <trkpt lat="43.12892" lon="1.68393">
        <ele>322.20001220703</ele>
        <time>2025-08-06T13:34:39.000Z</time>
      </trkpt>
      <trkpt lat="43.12891" lon="1.6836">
        <ele>322.20001220703</ele>
        <time>2025-08-06T13:34:45.000Z</time>
      </trkpt>
      <trkpt lat="43.12889" lon="1.68305">
        <ele>322.39999389648</ele>
        <time>2025-08-06T13:34:54.000Z</time>
      </trkpt>
      <trkpt lat="43.1289" lon="1.683">
        <ele>322.39999389648</ele>
        <time>2025-08-06T13:34:55.000Z</time>
      </trkpt>
      <trkpt lat="43.12889" lon="1.68267">
        <ele>322.39999389648</ele>
        <time>2025-08-06T13:35:01.000Z</time>
      </trkpt>
      <trkpt lat="43.12889" lon="1.68257">
        <ele>322.39999389648</ele>
        <time>2025-08-06T13:35:03.000Z</time>
      </trkpt>
      <trkpt lat="43.12888" lon="1.68231">
        <ele>322.39999389648</ele>
        <time>2025-08-06T13:35:07.000Z</time>
      </trkpt>
      <trkpt lat="43.12885" lon="1.68198">
        <ele>322.39999389648</ele>
        <time>2025-08-06T13:35:13.000Z</time>
      </trkpt>
      <trkpt lat="43.12885" lon="1.68187">
        <ele>322.20001220703</ele>
        <time>2025-08-06T13:35:15.000Z</time>
      </trkpt>
      <trkpt lat="43.12884" lon="1.68151">
        <ele>322.20001220703</ele>
        <time>2025-08-06T13:35:21.000Z</time>
      </trkpt>
      <trkpt lat="43.12883" lon="1.6814">
        <ele>322.20001220703</ele>
        <time>2025-08-06T13:35:23.000Z</time>
      </trkpt>
      <trkpt lat="43.12881" lon="1.68104">
        <ele>322.20001220703</ele>
        <time>2025-08-06T13:35:29.000Z</time>
      </trkpt>
      <trkpt lat="43.12881" lon="1.68087">
        <ele>322.20001220703</ele>
        <time>2025-08-06T13:35:32.000Z</time>
      </trkpt>
      <trkpt lat="43.12878" lon="1.68037">
        <ele>322.60000610352</ele>
        <time>2025-08-06T13:35:41.000Z</time>
      </trkpt>
      <trkpt lat="43.12878" lon="1.68011">
        <ele>322.60000610352</ele>
        <time>2025-08-06T13:35:45.000Z</time>
      </trkpt>
      <trkpt lat="43.12877" lon="1.67993">
        <ele>322.60000610352</ele>
        <time>2025-08-06T13:35:48.000Z</time>
      </trkpt>
      <trkpt lat="43.12875" lon="1.67945">
        <ele>322.60000610352</ele>
        <time>2025-08-06T13:35:56.000Z</time>
      </trkpt>
      <trkpt lat="43.12874" lon="1.67934">
        <ele>322.60000610352</ele>
        <time>2025-08-06T13:35:58.000Z</time>
      </trkpt>
      <trkpt lat="43.12874" lon="1.67921">
        <ele>322.79998779297</ele>
        <time>2025-08-06T13:36:00.000Z</time>
      </trkpt>
      <trkpt lat="43.12874" lon="1.67909">
        <ele>322.79998779297</ele>
        <time>2025-08-06T13:36:02.000Z</time>
      </trkpt>
      <trkpt lat="43.12874" lon="1.67898">
        <ele>323</ele>
        <time>2025-08-06T13:36:04.000Z</time>
      </trkpt>
      <trkpt lat="43.12872" lon="1.67862">
        <ele>323.39999389648</ele>
        <time>2025-08-06T13:36:11.000Z</time>
      </trkpt>
      <trkpt lat="43.1287" lon="1.67859">
        <ele>323.39999389648</ele>
        <time>2025-08-06T13:36:12.000Z</time>
      </trkpt>
      <trkpt lat="43.12863" lon="1.67855">
        <ele>323.39999389648</ele>
        <time>2025-08-06T13:36:14.000Z</time>
      </trkpt>
      <trkpt lat="43.12857" lon="1.67849">
        <ele>323.20001220703</ele>
        <time>2025-08-06T13:36:16.000Z</time>
      </trkpt>
      <trkpt lat="43.12855" lon="1.67845">
        <ele>323.20001220703</ele>
        <time>2025-08-06T13:36:17.000Z</time>
      </trkpt>
      <trkpt lat="43.12853" lon="1.6781">
        <ele>323</ele>
        <time>2025-08-06T13:36:25.000Z</time>
      </trkpt>
      <trkpt lat="43.12845" lon="1.67778">
        <ele>323.60000610352</ele>
        <time>2025-08-06T13:36:32.000Z</time>
      </trkpt>
      <trkpt lat="43.12827" lon="1.67756">
        <ele>323.60000610352</ele>
        <time>2025-08-06T13:36:38.000Z</time>
      </trkpt>
      <trkpt lat="43.12806" lon="1.67739">
        <ele>323.79998779297</ele>
        <time>2025-08-06T13:36:45.000Z</time>
      </trkpt>
      <trkpt lat="43.12785" lon="1.67721">
        <ele>324</ele>
        <time>2025-08-06T13:36:52.000Z</time>
      </trkpt>
      <trkpt lat="43.12758" lon="1.67699">
        <ele>324</ele>
        <time>2025-08-06T13:37:00.000Z</time>
      </trkpt>
      <trkpt lat="43.12728" lon="1.67675">
        <ele>324</ele>
        <time>2025-08-06T13:37:09.000Z</time>
      </trkpt>
      <trkpt lat="43.12724" lon="1.67673">
        <ele>324</ele>
        <time>2025-08-06T13:37:10.000Z</time>
      </trkpt>
      <trkpt lat="43.12691" lon="1.6765">
        <ele>324.39999389648</ele>
        <time>2025-08-06T13:37:19.000Z</time>
      </trkpt>
      <trkpt lat="43.12649" lon="1.67618">
        <ele>324.39999389648</ele>
        <time>2025-08-06T13:37:31.000Z</time>
      </trkpt>
      <trkpt lat="43.12615" lon="1.67588">
        <ele>324.60000610352</ele>
        <time>2025-08-06T13:37:41.000Z</time>
      </trkpt>
      <trkpt lat="43.12594" lon="1.67569">
        <ele>324.79998779297</ele>
        <time>2025-08-06T13:37:47.000Z</time>
      </trkpt>
      <trkpt lat="43.12575" lon="1.67554">
        <ele>325</ele>
        <time>2025-08-06T13:37:52.000Z</time>
      </trkpt>
      <trkpt lat="43.12548" lon="1.67535">
        <ele>325.20001220703</ele>
        <time>2025-08-06T13:37:59.000Z</time>
      </trkpt>
      <trkpt lat="43.12544" lon="1.67533">
        <ele>325.39999389648</ele>
        <time>2025-08-06T13:38:00.000Z</time>
      </trkpt>
      <trkpt lat="43.12512" lon="1.67516">
        <ele>325.60000610352</ele>
        <time>2025-08-06T13:38:08.000Z</time>
      </trkpt>
      <trkpt lat="43.12471" lon="1.67492">
        <ele>325.79998779297</ele>
        <time>2025-08-06T13:38:18.000Z</time>
      </trkpt>
      <trkpt lat="43.12443" lon="1.67474">
        <ele>326</ele>
        <time>2025-08-06T13:38:25.000Z</time>
      </trkpt>
      <trkpt lat="43.12435" lon="1.67469">
        <ele>326</ele>
        <time>2025-08-06T13:38:27.000Z</time>
      </trkpt>
      <trkpt lat="43.12402" lon="1.67449">
        <ele>326.39999389648</ele>
        <time>2025-08-06T13:38:35.000Z</time>
      </trkpt>
      <trkpt lat="43.12387" lon="1.67438">
        <ele>326.39999389648</ele>
        <time>2025-08-06T13:38:39.000Z</time>
      </trkpt>
      <trkpt lat="43.12372" lon="1.67424">
        <ele>326.60000610352</ele>
        <time>2025-08-06T13:38:43.000Z</time>
      </trkpt>
      <trkpt lat="43.12366" lon="1.67416">
        <ele>326.60000610352</ele>
        <time>2025-08-06T13:38:45.000Z</time>
      </trkpt>
      <trkpt lat="43.12364" lon="1.67412">
        <ele>326.79998779297</ele>
        <time>2025-08-06T13:38:46.000Z</time>
      </trkpt>
      <trkpt lat="43.12362" lon="1.67407">
        <ele>326.79998779297</ele>
        <time>2025-08-06T13:38:47.000Z</time>
      </trkpt>
      <trkpt lat="43.12359" lon="1.67397">
        <ele>327</ele>
        <time>2025-08-06T13:38:49.000Z</time>
      </trkpt>
      <trkpt lat="43.12356" lon="1.67387">
        <ele>327</ele>
        <time>2025-08-06T13:38:51.000Z</time>
      </trkpt>
      <trkpt lat="43.1234" lon="1.67369">
        <ele>327.20001220703</ele>
        <time>2025-08-06T13:38:56.000Z</time>
      </trkpt>
      <trkpt lat="43.1233" lon="1.67358">
        <ele>327.20001220703</ele>
        <time>2025-08-06T13:38:59.000Z</time>
      </trkpt>
      <trkpt lat="43.1232" lon="1.67349">
        <ele>327.39999389648</ele>
        <time>2025-08-06T13:39:02.000Z</time>
      </trkpt>
      <trkpt lat="43.12313" lon="1.67343">
        <ele>327.39999389648</ele>
        <time>2025-08-06T13:39:04.000Z</time>
      </trkpt>
      <trkpt lat="43.12302" lon="1.67334">
        <ele>327.60000610352</ele>
        <time>2025-08-06T13:39:07.000Z</time>
      </trkpt>
      <trkpt lat="43.12291" lon="1.67325">
        <ele>327.60000610352</ele>
        <time>2025-08-06T13:39:10.000Z</time>
      </trkpt>
      <trkpt lat="43.1228" lon="1.67315">
        <ele>327.60000610352</ele>
        <time>2025-08-06T13:39:13.000Z</time>
      </trkpt>
      <trkpt lat="43.12276" lon="1.67313">
        <ele>327.60000610352</ele>
        <time>2025-08-06T13:39:14.000Z</time>
      </trkpt>
      <trkpt lat="43.12264" lon="1.67305">
        <ele>327.60000610352</ele>
        <time>2025-08-06T13:39:17.000Z</time>
      </trkpt>
      <trkpt lat="43.12257" lon="1.67301">
        <ele>327.79998779297</ele>
        <time>2025-08-06T13:39:19.000Z</time>
      </trkpt>
      <trkpt lat="43.12207" lon="1.67276">
        <ele>328.20001220703</ele>
        <time>2025-08-06T13:39:31.000Z</time>
      </trkpt>
      <trkpt lat="43.12169" lon="1.67257">
        <ele>328.20001220703</ele>
        <time>2025-08-06T13:39:40.000Z</time>
      </trkpt>
      <trkpt lat="43.12145" lon="1.67236">
        <ele>328</ele>
        <time>2025-08-06T13:39:47.000Z</time>
      </trkpt>
      <trkpt lat="43.12115" lon="1.67205">
        <ele>328</ele>
        <time>2025-08-06T13:39:56.000Z</time>
      </trkpt>
      <trkpt lat="43.12088" lon="1.67179">
        <ele>327.79998779297</ele>
        <time>2025-08-06T13:40:04.000Z</time>
      </trkpt>
      <trkpt lat="43.1206" lon="1.67155">
        <ele>328</ele>
        <time>2025-08-06T13:40:13.000Z</time>
      </trkpt>
      <trkpt lat="43.12037" lon="1.67137">
        <ele>328.39999389648</ele>
        <time>2025-08-06T13:40:20.000Z</time>
      </trkpt>
      <trkpt lat="43.12034" lon="1.67135">
        <ele>328.20001220703</ele>
        <time>2025-08-06T13:40:21.000Z</time>
      </trkpt>
      <trkpt lat="43.12014" lon="1.6712">
        <ele>328.20001220703</ele>
        <time>2025-08-06T13:40:27.000Z</time>
      </trkpt>
      <trkpt lat="43.11994" lon="1.67106">
        <ele>328.39999389648</ele>
        <time>2025-08-06T13:40:33.000Z</time>
      </trkpt>
      <trkpt lat="43.11983" lon="1.67099">
        <ele>328.60000610352</ele>
        <time>2025-08-06T13:40:36.000Z</time>
      </trkpt>
      <trkpt lat="43.11956" lon="1.67086">
        <ele>328.79998779297</ele>
        <time>2025-08-06T13:40:43.000Z</time>
      </trkpt>
      <trkpt lat="43.11952" lon="1.67085">
        <ele>329</ele>
        <time>2025-08-06T13:40:44.000Z</time>
      </trkpt>
      <trkpt lat="43.11938" lon="1.67084">
        <ele>328.79998779297</ele>
        <time>2025-08-06T13:40:47.000Z</time>
      </trkpt>
      <trkpt lat="43.11921" lon="1.67085">
        <ele>329</ele>
        <time>2025-08-06T13:40:51.000Z</time>
      </trkpt>
      <trkpt lat="43.11905" lon="1.67087">
        <ele>329.20001220703</ele>
        <time>2025-08-06T13:40:55.000Z</time>
      </trkpt>
      <trkpt lat="43.11891" lon="1.67088">
        <ele>329.39999389648</ele>
        <time>2025-08-06T13:40:59.000Z</time>
      </trkpt>
      <trkpt lat="43.11871" lon="1.67081">
        <ele>329.39999389648</ele>
        <time>2025-08-06T13:41:04.000Z</time>
      </trkpt>
      <trkpt lat="43.1186" lon="1.67076">
        <ele>329.60000610352</ele>
        <time>2025-08-06T13:41:07.000Z</time>
      </trkpt>
      <trkpt lat="43.11838" lon="1.67058">
        <ele>329.79998779297</ele>
        <time>2025-08-06T13:41:14.000Z</time>
      </trkpt>
      <trkpt lat="43.11827" lon="1.67031">
        <ele>330.20001220703</ele>
        <time>2025-08-06T13:41:20.000Z</time>
      </trkpt>
      <trkpt lat="43.11823" lon="1.67015">
        <ele>330.60000610352</ele>
        <time>2025-08-06T13:41:23.000Z</time>
      </trkpt>
      <trkpt lat="43.1182" lon="1.66993">
        <ele>331</ele>
        <time>2025-08-06T13:41:27.000Z</time>
      </trkpt>
      <trkpt lat="43.11813" lon="1.66942">
        <ele>331.60000610352</ele>
        <time>2025-08-06T13:41:37.000Z</time>
      </trkpt>
      <trkpt lat="43.11812" lon="1.66938">
        <ele>331.60000610352</ele>
        <time>2025-08-06T13:41:38.000Z</time>
      </trkpt>
      <trkpt lat="43.11811" lon="1.66924">
        <ele>331.79998779297</ele>
        <time>2025-08-06T13:41:41.000Z</time>
      </trkpt>
      <trkpt lat="43.11808" lon="1.669">
        <ele>331.79998779297</ele>
        <time>2025-08-06T13:41:46.000Z</time>
      </trkpt>
      <trkpt lat="43.11803" lon="1.66847">
        <ele>332</ele>
        <time>2025-08-06T13:41:56.000Z</time>
      </trkpt>
      <trkpt lat="43.11802" lon="1.6682">
        <ele>332</ele>
        <time>2025-08-06T13:42:00.000Z</time>
      </trkpt>
      <trkpt lat="43.11799" lon="1.66807">
        <ele>331.79998779297</ele>
        <time>2025-08-06T13:42:02.000Z</time>
      </trkpt>
      <trkpt lat="43.11782" lon="1.66777">
        <ele>331.20001220703</ele>
        <time>2025-08-06T13:42:08.000Z</time>
      </trkpt>
      <trkpt lat="43.11776" lon="1.66768">
        <ele>331.20001220703</ele>
        <time>2025-08-06T13:42:10.000Z</time>
      </trkpt>
      <trkpt lat="43.11764" lon="1.66752">
        <ele>331.20001220703</ele>
        <time>2025-08-06T13:42:14.000Z</time>
      </trkpt>
      <trkpt lat="43.11737" lon="1.6672">
        <ele>331.20001220703</ele>
        <time>2025-08-06T13:42:23.000Z</time>
      </trkpt>
      <trkpt lat="43.11711" lon="1.66689">
        <ele>331.20001220703</ele>
        <time>2025-08-06T13:42:32.000Z</time>
      </trkpt>
      <trkpt lat="43.1169" lon="1.66662">
        <ele>331</ele>
        <time>2025-08-06T13:42:40.000Z</time>
      </trkpt>
      <trkpt lat="43.11676" lon="1.66632">
        <ele>330.79998779297</ele>
        <time>2025-08-06T13:42:47.000Z</time>
      </trkpt>
      <trkpt lat="43.11667" lon="1.66598">
        <ele>330.79998779297</ele>
        <time>2025-08-06T13:42:54.000Z</time>
      </trkpt>
      <trkpt lat="43.11659" lon="1.66565">
        <ele>331</ele>
        <time>2025-08-06T13:43:01.000Z</time>
      </trkpt>
      <trkpt lat="43.11656" lon="1.66551">
        <ele>331.20001220703</ele>
        <time>2025-08-06T13:43:04.000Z</time>
      </trkpt>
      <trkpt lat="43.11654" lon="1.66519">
        <ele>331.20001220703</ele>
        <time>2025-08-06T13:43:10.000Z</time>
      </trkpt>
      <trkpt lat="43.1166" lon="1.66475">
        <ele>331.20001220703</ele>
        <time>2025-08-06T13:43:18.000Z</time>
      </trkpt>
      <trkpt lat="43.1166" lon="1.66464">
        <ele>331.20001220703</ele>
        <time>2025-08-06T13:43:20.000Z</time>
      </trkpt>
      <trkpt lat="43.11655" lon="1.66448">
        <ele>331.39999389648</ele>
        <time>2025-08-06T13:43:23.000Z</time>
      </trkpt>
      <trkpt lat="43.11638" lon="1.66418">
        <ele>332</ele>
        <time>2025-08-06T13:43:30.000Z</time>
      </trkpt>
      <trkpt lat="43.11623" lon="1.66399">
        <ele>332.39999389648</ele>
        <time>2025-08-06T13:43:35.000Z</time>
      </trkpt>
      <trkpt lat="43.11608" lon="1.66381">
        <ele>332.60000610352</ele>
        <time>2025-08-06T13:43:40.000Z</time>
      </trkpt>
      <trkpt lat="43.11605" lon="1.66378">
        <ele>332.60000610352</ele>
        <time>2025-08-06T13:43:41.000Z</time>
      </trkpt>
      <trkpt lat="43.11577" lon="1.66342">
        <ele>332.60000610352</ele>
        <time>2025-08-06T13:43:50.000Z</time>
      </trkpt>
      <trkpt lat="43.11574" lon="1.66339">
        <ele>332.79998779297</ele>
        <time>2025-08-06T13:43:51.000Z</time>
      </trkpt>
      <trkpt lat="43.11554" lon="1.66313">
        <ele>332.79998779297</ele>
        <time>2025-08-06T13:43:58.000Z</time>
      </trkpt>
      <trkpt lat="43.11528" lon="1.66278">
        <ele>333</ele>
        <time>2025-08-06T13:44:07.000Z</time>
      </trkpt>
      <trkpt lat="43.11508" lon="1.66251">
        <ele>333.20001220703</ele>
        <time>2025-08-06T13:44:14.000Z</time>
      </trkpt>
      <trkpt lat="43.11491" lon="1.66231">
        <ele>333.20001220703</ele>
        <time>2025-08-06T13:44:21.000Z</time>
      </trkpt>
      <trkpt lat="43.11488" lon="1.6623">
        <ele>333.20001220703</ele>
        <time>2025-08-06T13:44:22.000Z</time>
      </trkpt>
      <trkpt lat="43.11481" lon="1.66228">
        <ele>333.20001220703</ele>
        <time>2025-08-06T13:44:25.000Z</time>
      </trkpt>
      <trkpt lat="43.11479" lon="1.66226">
        <ele>333.20001220703</ele>
        <time>2025-08-06T13:44:26.000Z</time>
      </trkpt>
      <trkpt lat="43.11478" lon="1.66223">
        <ele>333.20001220703</ele>
        <time>2025-08-06T13:44:27.000Z</time>
      </trkpt>
      <trkpt lat="43.11476" lon="1.66214">
        <ele>333.39999389648</ele>
        <time>2025-08-06T13:44:30.000Z</time>
      </trkpt>
      <trkpt lat="43.11475" lon="1.66212">
        <ele>333.39999389648</ele>
        <time>2025-08-06T13:44:31.000Z</time>
      </trkpt>
      <trkpt lat="43.11465" lon="1.662">
        <ele>333.60000610352</ele>
        <time>2025-08-06T13:44:37.000Z</time>
      </trkpt>
      <trkpt lat="43.11449" lon="1.66189">
        <ele>333.60000610352</ele>
        <time>2025-08-06T13:44:44.000Z</time>
      </trkpt>
      <trkpt lat="43.11432" lon="1.66176">
        <ele>333.60000610352</ele>
        <time>2025-08-06T13:44:50.000Z</time>
      </trkpt>
      <trkpt lat="43.11429" lon="1.66174">
        <ele>333.79998779297</ele>
        <time>2025-08-06T13:44:51.000Z</time>
      </trkpt>
      <trkpt lat="43.11405" lon="1.66154">
        <ele>334.20001220703</ele>
        <time>2025-08-06T13:44:59.000Z</time>
      </trkpt>
      <trkpt lat="43.11384" lon="1.66131">
        <ele>334.39999389648</ele>
        <time>2025-08-06T13:45:07.000Z</time>
      </trkpt>
      <trkpt lat="43.11377" lon="1.66122">
        <ele>334.39999389648</ele>
        <time>2025-08-06T13:45:10.000Z</time>
      </trkpt>
      <trkpt lat="43.11364" lon="1.66106">
        <ele>334.79998779297</ele>
        <time>2025-08-06T13:45:15.000Z</time>
      </trkpt>
      <trkpt lat="43.11359" lon="1.66099">
        <ele>334.79998779297</ele>
        <time>2025-08-06T13:45:17.000Z</time>
      </trkpt>
      <trkpt lat="43.11339" lon="1.66077">
        <ele>334.79998779297</ele>
        <time>2025-08-06T13:45:24.000Z</time>
      </trkpt>
      <trkpt lat="43.11314" lon="1.66047">
        <ele>334.79998779297</ele>
        <time>2025-08-06T13:45:33.000Z</time>
      </trkpt>
      <trkpt lat="43.11292" lon="1.66011">
        <ele>335</ele>
        <time>2025-08-06T13:45:42.000Z</time>
      </trkpt>
      <trkpt lat="43.11271" lon="1.65989">
        <ele>335</ele>
        <time>2025-08-06T13:45:49.000Z</time>
      </trkpt>
      <trkpt lat="43.11246" lon="1.65967">
        <ele>335</ele>
        <time>2025-08-06T13:45:57.000Z</time>
      </trkpt>
      <trkpt lat="43.1124" lon="1.65961">
        <ele>335</ele>
        <time>2025-08-06T13:45:59.000Z</time>
      </trkpt>
      <trkpt lat="43.11217" lon="1.65936">
        <ele>335.60000610352</ele>
        <time>2025-08-06T13:46:07.000Z</time>
      </trkpt>
      <trkpt lat="43.11199" lon="1.65916">
        <ele>335.79998779297</ele>
        <time>2025-08-06T13:46:13.000Z</time>
      </trkpt>
      <trkpt lat="43.11188" lon="1.65904">
        <ele>336</ele>
        <time>2025-08-06T13:46:17.000Z</time>
      </trkpt>
      <trkpt lat="43.11168" lon="1.65885">
        <ele>336.60000610352</ele>
        <time>2025-08-06T13:46:24.000Z</time>
      </trkpt>
      <trkpt lat="43.11136" lon="1.6586">
        <ele>336.79998779297</ele>
        <time>2025-08-06T13:46:34.000Z</time>
      </trkpt>
      <trkpt lat="43.11107" lon="1.65839">
        <ele>337</ele>
        <time>2025-08-06T13:46:43.000Z</time>
      </trkpt>
      <trkpt lat="43.111" lon="1.65833">
        <ele>337</ele>
        <time>2025-08-06T13:46:45.000Z</time>
      </trkpt>
      <trkpt lat="43.11073" lon="1.65804">
        <ele>337.60000610352</ele>
        <time>2025-08-06T13:46:54.000Z</time>
      </trkpt>
      <trkpt lat="43.11073" lon="1.65784">
        <ele>337.60000610352</ele>
        <time>2025-08-06T13:46:58.000Z</time>
      </trkpt>
      <trkpt lat="43.11084" lon="1.65744">
        <ele>337.60000610352</ele>
        <time>2025-08-06T13:47:06.000Z</time>
      </trkpt>
      <trkpt lat="43.11102" lon="1.65686">
        <ele>337.60000610352</ele>
        <time>2025-08-06T13:47:17.000Z</time>
      </trkpt>
      <trkpt lat="43.11108" lon="1.65651">
        <ele>337.60000610352</ele>
        <time>2025-08-06T13:47:23.000Z</time>
      </trkpt>
      <trkpt lat="43.11109" lon="1.65646">
        <ele>337.60000610352</ele>
        <time>2025-08-06T13:47:24.000Z</time>
      </trkpt>
      <trkpt lat="43.11103" lon="1.65608">
        <ele>337.60000610352</ele>
        <time>2025-08-06T13:47:31.000Z</time>
      </trkpt>
      <trkpt lat="43.11097" lon="1.65585">
        <ele>337.60000610352</ele>
        <time>2025-08-06T13:47:35.000Z</time>
      </trkpt>
      <trkpt lat="43.11092" lon="1.65564">
        <ele>337.60000610352</ele>
        <time>2025-08-06T13:47:39.000Z</time>
      </trkpt>
      <trkpt lat="43.11083" lon="1.65529">
        <ele>337.79998779297</ele>
        <time>2025-08-06T13:47:46.000Z</time>
      </trkpt>
      <trkpt lat="43.11074" lon="1.65482">
        <ele>338</ele>
        <time>2025-08-06T13:47:55.000Z</time>
      </trkpt>
      <trkpt lat="43.11071" lon="1.65467">
        <ele>338.20001220703</ele>
        <time>2025-08-06T13:47:58.000Z</time>
      </trkpt>
      <trkpt lat="43.11068" lon="1.65441">
        <ele>338</ele>
        <time>2025-08-06T13:48:03.000Z</time>
      </trkpt>
      <trkpt lat="43.11059" lon="1.6538">
        <ele>337.79998779297</ele>
        <time>2025-08-06T13:48:14.000Z</time>
      </trkpt>
      <trkpt lat="43.11047" lon="1.65328">
        <ele>337.60000610352</ele>
        <time>2025-08-06T13:48:23.000Z</time>
      </trkpt>
      <trkpt lat="43.1104" lon="1.65304">
        <ele>337.20001220703</ele>
        <time>2025-08-06T13:48:27.000Z</time>
      </trkpt>
      <trkpt lat="43.11036" lon="1.65273">
        <ele>336.79998779297</ele>
        <time>2025-08-06T13:48:32.000Z</time>
      </trkpt>
      <trkpt lat="43.11035" lon="1.65243">
        <ele>336.20001220703</ele>
        <time>2025-08-06T13:48:37.000Z</time>
      </trkpt>
      <trkpt lat="43.11032" lon="1.65206">
        <ele>335.79998779297</ele>
        <time>2025-08-06T13:48:43.000Z</time>
      </trkpt>
      <trkpt lat="43.11032" lon="1.652">
        <ele>335.60000610352</ele>
        <time>2025-08-06T13:48:44.000Z</time>
      </trkpt>
      <trkpt lat="43.11028" lon="1.65173">
        <ele>335.60000610352</ele>
        <time>2025-08-06T13:48:49.000Z</time>
      </trkpt>
      <trkpt lat="43.11023" lon="1.65151">
        <ele>335.60000610352</ele>
        <time>2025-08-06T13:48:54.000Z</time>
      </trkpt>
      <trkpt lat="43.11018" lon="1.65125">
        <ele>335.60000610352</ele>
        <time>2025-08-06T13:48:59.000Z</time>
      </trkpt>
      <trkpt lat="43.11014" lon="1.65093">
        <ele>335.60000610352</ele>
        <time>2025-08-06T13:49:04.000Z</time>
      </trkpt>
      <trkpt lat="43.11009" lon="1.65058">
        <ele>335.20001220703</ele>
        <time>2025-08-06T13:49:09.000Z</time>
      </trkpt>
      <trkpt lat="43.11007" lon="1.65044">
        <ele>334.79998779297</ele>
        <time>2025-08-06T13:49:11.000Z</time>
      </trkpt>
      <trkpt lat="43.11004" lon="1.6503">
        <ele>334.79998779297</ele>
        <time>2025-08-06T13:49:13.000Z</time>
      </trkpt>
      <trkpt lat="43.10997" lon="1.65003">
        <ele>334.60000610352</ele>
        <time>2025-08-06T13:49:17.000Z</time>
      </trkpt>
      <trkpt lat="43.10978" lon="1.64953">
        <ele>334.20001220703</ele>
        <time>2025-08-06T13:49:25.000Z</time>
      </trkpt>
      <trkpt lat="43.1096" lon="1.64911">
        <ele>334.39999389648</ele>
        <time>2025-08-06T13:49:32.000Z</time>
      </trkpt>
      <trkpt lat="43.10951" lon="1.64869">
        <ele>334.60000610352</ele>
        <time>2025-08-06T13:49:39.000Z</time>
      </trkpt>
      <trkpt lat="43.1094" lon="1.64811">
        <ele>334.79998779297</ele>
        <time>2025-08-06T13:49:48.000Z</time>
      </trkpt>
      <trkpt lat="43.10938" lon="1.64805">
        <ele>334.79998779297</ele>
        <time>2025-08-06T13:49:49.000Z</time>
      </trkpt>
      <trkpt lat="43.1093" lon="1.6478">
        <ele>334.79998779297</ele>
        <time>2025-08-06T13:49:53.000Z</time>
      </trkpt>
      <trkpt lat="43.10914" lon="1.64744">
        <ele>335.20001220703</ele>
        <time>2025-08-06T13:50:00.000Z</time>
      </trkpt>
      <trkpt lat="43.10895" lon="1.64696">
        <ele>335.39999389648</ele>
        <time>2025-08-06T13:50:08.000Z</time>
      </trkpt>
      <trkpt lat="43.10885" lon="1.64675">
        <ele>335.20001220703</ele>
        <time>2025-08-06T13:50:12.000Z</time>
      </trkpt>
      <trkpt lat="43.10879" lon="1.64658">
        <ele>335.20001220703</ele>
        <time>2025-08-06T13:50:15.000Z</time>
      </trkpt>
      <trkpt lat="43.10862" lon="1.64612">
        <ele>335</ele>
        <time>2025-08-06T13:50:23.000Z</time>
      </trkpt>
      <trkpt lat="43.1086" lon="1.64606">
        <ele>335</ele>
        <time>2025-08-06T13:50:24.000Z</time>
      </trkpt>
      <trkpt lat="43.10851" lon="1.64579">
        <ele>335</ele>
        <time>2025-08-06T13:50:29.000Z</time>
      </trkpt>
      <trkpt lat="43.10847" lon="1.64568">
        <ele>335</ele>
        <time>2025-08-06T13:50:31.000Z</time>
      </trkpt>
      <trkpt lat="43.1084" lon="1.64547">
        <ele>335.20001220703</ele>
        <time>2025-08-06T13:50:35.000Z</time>
      </trkpt>
      <trkpt lat="43.10823" lon="1.64505">
        <ele>335.39999389648</ele>
        <time>2025-08-06T13:50:43.000Z</time>
      </trkpt>
      <trkpt lat="43.10821" lon="1.645">
        <ele>335.39999389648</ele>
        <time>2025-08-06T13:50:44.000Z</time>
      </trkpt>
      <trkpt lat="43.10818" lon="1.64495">
        <ele>335.39999389648</ele>
        <time>2025-08-06T13:50:45.000Z</time>
      </trkpt>
      <trkpt lat="43.10809" lon="1.64481">
        <ele>335.39999389648</ele>
        <time>2025-08-06T13:50:48.000Z</time>
      </trkpt>
      <trkpt lat="43.10804" lon="1.6447">
        <ele>335.20001220703</ele>
        <time>2025-08-06T13:50:50.000Z</time>
      </trkpt>
      <trkpt lat="43.10801" lon="1.64463">
        <ele>335.20001220703</ele>
        <time>2025-08-06T13:50:51.000Z</time>
      </trkpt>
      <trkpt lat="43.10789" lon="1.64425">
        <ele>334.39999389648</ele>
        <time>2025-08-06T13:50:57.000Z</time>
      </trkpt>
      <trkpt lat="43.10776" lon="1.6438">
        <ele>334.20001220703</ele>
        <time>2025-08-06T13:51:05.000Z</time>
      </trkpt>
      <trkpt lat="43.10763" lon="1.64346">
        <ele>334.39999389648</ele>
        <time>2025-08-06T13:51:11.000Z</time>
      </trkpt>
      <trkpt lat="43.10751" lon="1.64308">
        <ele>334.39999389648</ele>
        <time>2025-08-06T13:51:18.000Z</time>
      </trkpt>
      <trkpt lat="43.1074" lon="1.6425">
        <ele>334.39999389648</ele>
        <time>2025-08-06T13:51:28.000Z</time>
      </trkpt>
      <trkpt lat="43.10738" lon="1.6424">
        <ele>334.39999389648</ele>
        <time>2025-08-06T13:51:30.000Z</time>
      </trkpt>
      <trkpt lat="43.10734" lon="1.64217">
        <ele>334.39999389648</ele>
        <time>2025-08-06T13:51:34.000Z</time>
      </trkpt>
      <trkpt lat="43.10727" lon="1.64181">
        <ele>334.39999389648</ele>
        <time>2025-08-06T13:51:40.000Z</time>
      </trkpt>
      <trkpt lat="43.10726" lon="1.64175">
        <ele>334.20001220703</ele>
        <time>2025-08-06T13:51:41.000Z</time>
      </trkpt>
      <trkpt lat="43.10721" lon="1.64156">
        <ele>334</ele>
        <time>2025-08-06T13:51:44.000Z</time>
      </trkpt>
      <trkpt lat="43.10714" lon="1.64131">
        <ele>333.79998779297</ele>
        <time>2025-08-06T13:51:48.000Z</time>
      </trkpt>
      <trkpt lat="43.10712" lon="1.64125">
        <ele>333.79998779297</ele>
        <time>2025-08-06T13:51:49.000Z</time>
      </trkpt>
      <trkpt lat="43.10707" lon="1.64092">
        <ele>333.60000610352</ele>
        <time>2025-08-06T13:51:54.000Z</time>
      </trkpt>
      <trkpt lat="43.10708" lon="1.64038">
        <ele>333.39999389648</ele>
        <time>2025-08-06T13:52:02.000Z</time>
      </trkpt>
      <trkpt lat="43.10716" lon="1.63974">
        <ele>333.39999389648</ele>
        <time>2025-08-06T13:52:12.000Z</time>
      </trkpt>
      <trkpt lat="43.10721" lon="1.63927">
        <ele>333.79998779297</ele>
        <time>2025-08-06T13:52:20.000Z</time>
      </trkpt>
      <trkpt lat="43.10721" lon="1.63886">
        <ele>333.79998779297</ele>
        <time>2025-08-06T13:52:27.000Z</time>
      </trkpt>
      <trkpt lat="43.10719" lon="1.63858">
        <ele>333.60000610352</ele>
        <time>2025-08-06T13:52:32.000Z</time>
      </trkpt>
      <trkpt lat="43.10717" lon="1.63842">
        <ele>334</ele>
        <time>2025-08-06T13:52:35.000Z</time>
      </trkpt>
      <trkpt lat="43.10716" lon="1.63837">
        <ele>334</ele>
        <time>2025-08-06T13:52:36.000Z</time>
      </trkpt>
      <trkpt lat="43.10711" lon="1.63811">
        <ele>334</ele>
        <time>2025-08-06T13:52:41.000Z</time>
      </trkpt>
      <trkpt lat="43.1071" lon="1.63806">
        <ele>334</ele>
        <time>2025-08-06T13:52:42.000Z</time>
      </trkpt>
      <trkpt lat="43.10702" lon="1.63765">
        <ele>334</ele>
        <time>2025-08-06T13:52:50.000Z</time>
      </trkpt>
      <trkpt lat="43.10698" lon="1.63737">
        <ele>334.20001220703</ele>
        <time>2025-08-06T13:52:56.000Z</time>
      </trkpt>
      <trkpt lat="43.10697" lon="1.6371">
        <ele>334.60000610352</ele>
        <time>2025-08-06T13:53:01.000Z</time>
      </trkpt>
      <trkpt lat="43.10695" lon="1.63655">
        <ele>334</ele>
        <time>2025-08-06T13:53:11.000Z</time>
      </trkpt>
      <trkpt lat="43.10691" lon="1.63601">
        <ele>334.20001220703</ele>
        <time>2025-08-06T13:53:22.000Z</time>
      </trkpt>
      <trkpt lat="43.10689" lon="1.63582">
        <ele>334.60000610352</ele>
        <time>2025-08-06T13:53:27.000Z</time>
      </trkpt>
      <trkpt lat="43.10689" lon="1.63578">
        <ele>334.79998779297</ele>
        <time>2025-08-06T13:53:29.000Z</time>
      </trkpt>
      <trkpt lat="43.10689" lon="1.63574">
        <ele>334.79998779297</ele>
        <time>2025-08-06T13:53:31.000Z</time>
      </trkpt>
      <trkpt lat="43.10687" lon="1.63557">
        <ele>335.20001220703</ele>
        <time>2025-08-06T13:53:36.000Z</time>
      </trkpt>
      <trkpt lat="43.10684" lon="1.63539">
        <ele>335.20001220703</ele>
        <time>2025-08-06T13:53:40.000Z</time>
      </trkpt>
      <trkpt lat="43.10681" lon="1.63503">
        <ele>334.79998779297</ele>
        <time>2025-08-06T13:53:47.000Z</time>
      </trkpt>
      <trkpt lat="43.10679" lon="1.63465">
        <ele>334.20001220703</ele>
        <time>2025-08-06T13:53:54.000Z</time>
      </trkpt>
      <trkpt lat="43.10677" lon="1.63436">
        <ele>333.60000610352</ele>
        <time>2025-08-06T13:54:00.000Z</time>
      </trkpt>
      <trkpt lat="43.10677" lon="1.63402">
        <ele>333.60000610352</ele>
        <time>2025-08-06T13:54:07.000Z</time>
      </trkpt>
      <trkpt lat="43.10676" lon="1.63364">
        <ele>333.79998779297</ele>
        <time>2025-08-06T13:54:15.000Z</time>
      </trkpt>
      <trkpt lat="43.10671" lon="1.63324">
        <ele>333.39999389648</ele>
        <time>2025-08-06T13:54:23.000Z</time>
      </trkpt>
      <trkpt lat="43.10665" lon="1.63298">
        <ele>333.20001220703</ele>
        <time>2025-08-06T13:54:29.000Z</time>
      </trkpt>
      <trkpt lat="43.10661" lon="1.63282">
        <ele>333.20001220703</ele>
        <time>2025-08-06T13:54:33.000Z</time>
      </trkpt>
      <trkpt lat="43.10661" lon="1.63278">
        <ele>333</ele>
        <time>2025-08-06T13:54:34.000Z</time>
      </trkpt>
      <trkpt lat="43.10665" lon="1.63258">
        <ele>332.60000610352</ele>
        <time>2025-08-06T13:54:40.000Z</time>
      </trkpt>
      <trkpt lat="43.10668" lon="1.63245">
        <ele>332</ele>
        <time>2025-08-06T13:54:43.000Z</time>
      </trkpt>
      <trkpt lat="43.10667" lon="1.63234">
        <ele>331.79998779297</ele>
        <time>2025-08-06T13:54:45.000Z</time>
      </trkpt>
      <trkpt lat="43.1067" lon="1.63192">
        <ele>330.60000610352</ele>
        <time>2025-08-06T13:54:54.000Z</time>
      </trkpt>
      <trkpt lat="43.10669" lon="1.63182">
        <ele>330.79998779297</ele>
        <time>2025-08-06T13:54:56.000Z</time>
      </trkpt>
      <trkpt lat="43.1067" lon="1.63173">
        <ele>331.20001220703</ele>
        <time>2025-08-06T13:55:01.000Z</time>
      </trkpt>
      <trkpt lat="43.10669" lon="1.63164">
        <ele>332</ele>
        <time>2025-08-06T13:55:04.000Z</time>
      </trkpt>
      <trkpt lat="43.10667" lon="1.63149">
        <ele>332.60000610352</ele>
        <time>2025-08-06T13:55:08.000Z</time>
      </trkpt>
      <trkpt lat="43.10662" lon="1.6312">
        <ele>333</ele>
        <time>2025-08-06T13:55:16.000Z</time>
      </trkpt>
      <trkpt lat="43.10661" lon="1.63116">
        <ele>333</ele>
        <time>2025-08-06T13:55:17.000Z</time>
      </trkpt>
      <trkpt lat="43.10655" lon="1.63091">
        <ele>333.20001220703</ele>
        <time>2025-08-06T13:55:23.000Z</time>
      </trkpt>
      <trkpt lat="43.10648" lon="1.63059">
        <ele>333.20001220703</ele>
        <time>2025-08-06T13:55:30.000Z</time>
      </trkpt>
      <trkpt lat="43.10643" lon="1.63037">
        <ele>333.39999389648</ele>
        <time>2025-08-06T13:55:36.000Z</time>
      </trkpt>
      <trkpt lat="43.10644" lon="1.6303">
        <ele>333.60000610352</ele>
        <time>2025-08-06T13:55:38.000Z</time>
      </trkpt>
      <trkpt lat="43.10646" lon="1.63028">
        <ele>333.60000610352</ele>
        <time>2025-08-06T13:55:39.000Z</time>
      </trkpt>
      <trkpt lat="43.10648" lon="1.63024">
        <ele>333.60000610352</ele>
        <time>2025-08-06T13:55:41.000Z</time>
      </trkpt>
      <trkpt lat="43.10648" lon="1.6302">
        <ele>333.60000610352</ele>
        <time>2025-08-06T13:55:43.000Z</time>
      </trkpt>
      <trkpt lat="43.10646" lon="1.63016">
        <ele>333.60000610352</ele>
        <time>2025-08-06T13:55:45.000Z</time>
      </trkpt>
      <trkpt lat="43.10644" lon="1.63014">
        <ele>333.60000610352</ele>
        <time>2025-08-06T13:55:46.000Z</time>
      </trkpt>
      <trkpt lat="43.10638" lon="1.6301">
        <ele>333.60000610352</ele>
        <time>2025-08-06T13:55:50.000Z</time>
      </trkpt>
      <trkpt lat="43.10636" lon="1.63006">
        <ele>333.79998779297</ele>
        <time>2025-08-06T13:55:55.000Z</time>
      </trkpt>
      <trkpt lat="43.10633" lon="1.62999">
        <ele>335</ele>
        <time>2025-08-06T13:58:24.000Z</time>
      </trkpt>
      <trkpt lat="43.10633" lon="1.62994">
        <ele>335</ele>
        <time>2025-08-06T13:58:26.000Z</time>
      </trkpt>
      <trkpt lat="43.10632" lon="1.62972">
        <ele>335</ele>
        <time>2025-08-06T13:58:32.000Z</time>
      </trkpt>
      <trkpt lat="43.10631" lon="1.62944">
        <ele>335</ele>
        <time>2025-08-06T13:58:39.000Z</time>
      </trkpt>
      <trkpt lat="43.10629" lon="1.62916">
        <ele>335</ele>
        <time>2025-08-06T13:58:46.000Z</time>
      </trkpt>
      <trkpt lat="43.10619" lon="1.6288">
        <ele>335.20001220703</ele>
        <time>2025-08-06T13:58:54.000Z</time>
      </trkpt>
      <trkpt lat="43.1061" lon="1.62855">
        <ele>335.20001220703</ele>
        <time>2025-08-06T13:58:59.000Z</time>
      </trkpt>
      <trkpt lat="43.10604" lon="1.62848">
        <ele>335.20001220703</ele>
        <time>2025-08-06T13:59:01.000Z</time>
      </trkpt>
      <trkpt lat="43.10599" lon="1.6283">
        <ele>335.20001220703</ele>
        <time>2025-08-06T13:59:05.000Z</time>
      </trkpt>
      <trkpt lat="43.10591" lon="1.62793">
        <ele>335.20001220703</ele>
        <time>2025-08-06T13:59:12.000Z</time>
      </trkpt>
      <trkpt lat="43.10581" lon="1.62762">
        <ele>335</ele>
        <time>2025-08-06T13:59:18.000Z</time>
      </trkpt>
      <trkpt lat="43.10561" lon="1.62724">
        <ele>334.60000610352</ele>
        <time>2025-08-06T13:59:25.000Z</time>
      </trkpt>
      <trkpt lat="43.1054" lon="1.62695">
        <ele>334</ele>
        <time>2025-08-06T13:59:31.000Z</time>
      </trkpt>
      <trkpt lat="43.10536" lon="1.62684">
        <ele>333.79998779297</ele>
        <time>2025-08-06T13:59:33.000Z</time>
      </trkpt>
      <trkpt lat="43.10526" lon="1.62634">
        <ele>334</ele>
        <time>2025-08-06T13:59:42.000Z</time>
      </trkpt>
      <trkpt lat="43.10525" lon="1.62606">
        <ele>334.39999389648</ele>
        <time>2025-08-06T13:59:47.000Z</time>
      </trkpt>
      <trkpt lat="43.10524" lon="1.62583">
        <ele>334.39999389648</ele>
        <time>2025-08-06T13:59:51.000Z</time>
      </trkpt>
      <trkpt lat="43.10522" lon="1.62547">
        <ele>334.60000610352</ele>
        <time>2025-08-06T13:59:58.000Z</time>
      </trkpt>
      <trkpt lat="43.10521" lon="1.62519">
        <ele>334.79998779297</ele>
        <time>2025-08-06T14:00:04.000Z</time>
      </trkpt>
      <trkpt lat="43.10522" lon="1.6251">
        <ele>334.79998779297</ele>
        <time>2025-08-06T14:00:06.000Z</time>
      </trkpt>
      <trkpt lat="43.10522" lon="1.62492">
        <ele>335.20001220703</ele>
        <time>2025-08-06T14:00:10.000Z</time>
      </trkpt>
      <trkpt lat="43.10517" lon="1.62462">
        <ele>335.60000610352</ele>
        <time>2025-08-06T14:00:17.000Z</time>
      </trkpt>
      <trkpt lat="43.10509" lon="1.62428">
        <ele>335.79998779297</ele>
        <time>2025-08-06T14:00:25.000Z</time>
      </trkpt>
      <trkpt lat="43.10506" lon="1.62412">
        <ele>335.79998779297</ele>
        <time>2025-08-06T14:00:30.000Z</time>
      </trkpt>
      <trkpt lat="43.10504" lon="1.62404">
        <ele>335.79998779297</ele>
        <time>2025-08-06T14:00:34.000Z</time>
      </trkpt>
      <trkpt lat="43.10499" lon="1.62403">
        <ele>335.79998779297</ele>
        <time>2025-08-06T14:00:36.000Z</time>
      </trkpt>
      <trkpt lat="43.10478" lon="1.6241">
        <ele>335.79998779297</ele>
        <time>2025-08-06T14:00:42.000Z</time>
      </trkpt>
      <trkpt lat="43.10456" lon="1.62418">
        <ele>335.60000610352</ele>
        <time>2025-08-06T14:00:48.000Z</time>
      </trkpt>
      <trkpt lat="43.10445" lon="1.62421">
        <ele>335.60000610352</ele>
        <time>2025-08-06T14:00:51.000Z</time>
      </trkpt>
      <trkpt lat="43.10419" lon="1.62428">
        <ele>335.60000610352</ele>
        <time>2025-08-06T14:00:59.000Z</time>
      </trkpt>
      <trkpt lat="43.10415" lon="1.62432">
        <ele>335.60000610352</ele>
        <time>2025-08-06T14:01:03.000Z</time>
      </trkpt>
      <trkpt lat="43.10415" lon="1.62432">
        <ele>335.60000610352</ele>
        <time>2025-08-06T14:01:06.000Z</time>
      </trkpt>
      <trkpt lat="43.10409" lon="1.62435">
        <ele>334.20001220703</ele>
        <time>2025-08-06T14:01:38.000Z</time>
      </trkpt>
      <trkpt lat="43.10406" lon="1.62436">
        <ele>334.20001220703</ele>
        <time>2025-08-06T14:01:39.000Z</time>
      </trkpt>
      <trkpt lat="43.10401" lon="1.62438">
        <ele>334.20001220703</ele>
        <time>2025-08-06T14:01:41.000Z</time>
      </trkpt>
      <trkpt lat="43.10393" lon="1.62442">
        <ele>334.20001220703</ele>
        <time>2025-08-06T14:01:44.000Z</time>
      </trkpt>
      <trkpt lat="43.10369" lon="1.62452">
        <ele>334.39999389648</ele>
        <time>2025-08-06T14:01:50.000Z</time>
      </trkpt>
      <trkpt lat="43.1034" lon="1.62463">
        <ele>335</ele>
        <time>2025-08-06T14:01:57.000Z</time>
      </trkpt>
      <trkpt lat="43.103" lon="1.62478">
        <ele>335.20001220703</ele>
        <time>2025-08-06T14:02:07.000Z</time>
      </trkpt>
      <trkpt lat="43.10272" lon="1.62488">
        <ele>335.20001220703</ele>
        <time>2025-08-06T14:02:14.000Z</time>
      </trkpt>
      <trkpt lat="43.10236" lon="1.62501">
        <ele>335.79998779297</ele>
        <time>2025-08-06T14:02:23.000Z</time>
      </trkpt>
      <trkpt lat="43.10224" lon="1.62506">
        <ele>335.79998779297</ele>
        <time>2025-08-06T14:02:26.000Z</time>
      </trkpt>
      <trkpt lat="43.10212" lon="1.62511">
        <ele>335.79998779297</ele>
        <time>2025-08-06T14:02:29.000Z</time>
      </trkpt>
      <trkpt lat="43.10204" lon="1.62513">
        <ele>335.79998779297</ele>
        <time>2025-08-06T14:02:31.000Z</time>
      </trkpt>
      <trkpt lat="43.10191" lon="1.62519">
        <ele>336</ele>
        <time>2025-08-06T14:02:34.000Z</time>
      </trkpt>
      <trkpt lat="43.10187" lon="1.62521">
        <ele>336.20001220703</ele>
        <time>2025-08-06T14:02:35.000Z</time>
      </trkpt>
      <trkpt lat="43.10153" lon="1.62533">
        <ele>336.79998779297</ele>
        <time>2025-08-06T14:02:44.000Z</time>
      </trkpt>
      <trkpt lat="43.10121" lon="1.62545">
        <ele>336.79998779297</ele>
        <time>2025-08-06T14:02:53.000Z</time>
      </trkpt>
      <trkpt lat="43.10102" lon="1.62551">
        <ele>336.79998779297</ele>
        <time>2025-08-06T14:02:58.000Z</time>
      </trkpt>
      <trkpt lat="43.10058" lon="1.62569">
        <ele>337</ele>
        <time>2025-08-06T14:03:09.000Z</time>
      </trkpt>
      <trkpt lat="43.10018" lon="1.62582">
        <ele>337</ele>
        <time>2025-08-06T14:03:19.000Z</time>
      </trkpt>
      <trkpt lat="43.10014" lon="1.62583">
        <ele>337.20001220703</ele>
        <time>2025-08-06T14:03:20.000Z</time>
      </trkpt>
      <trkpt lat="43.10007" lon="1.62586">
        <ele>337.20001220703</ele>
        <time>2025-08-06T14:03:22.000Z</time>
      </trkpt>
      <trkpt lat="43.10003" lon="1.62589">
        <ele>337.20001220703</ele>
        <time>2025-08-06T14:03:23.000Z</time>
      </trkpt>
      <trkpt lat="43.09999" lon="1.6259">
        <ele>337.20001220703</ele>
        <time>2025-08-06T14:03:24.000Z</time>
      </trkpt>
      <trkpt lat="43.09982" lon="1.62596">
        <ele>337.20001220703</ele>
        <time>2025-08-06T14:03:28.000Z</time>
      </trkpt>
      <trkpt lat="43.09978" lon="1.62598">
        <ele>337.20001220703</ele>
        <time>2025-08-06T14:03:29.000Z</time>
      </trkpt>
      <trkpt lat="43.09941" lon="1.62611">
        <ele>337.60000610352</ele>
        <time>2025-08-06T14:03:38.000Z</time>
      </trkpt>
      <trkpt lat="43.09896" lon="1.62629">
        <ele>337.79998779297</ele>
        <time>2025-08-06T14:03:48.000Z</time>
      </trkpt>
      <trkpt lat="43.09878" lon="1.62637">
        <ele>337.79998779297</ele>
        <time>2025-08-06T14:03:52.000Z</time>
      </trkpt>
      <trkpt lat="43.09864" lon="1.62643">
        <ele>338</ele>
        <time>2025-08-06T14:03:55.000Z</time>
      </trkpt>
      <trkpt lat="43.09838" lon="1.62661">
        <ele>338</ele>
        <time>2025-08-06T14:04:01.000Z</time>
      </trkpt>
      <trkpt lat="43.09834" lon="1.62666">
        <ele>338</ele>
        <time>2025-08-06T14:04:02.000Z</time>
      </trkpt>
      <trkpt lat="43.09826" lon="1.62675">
        <ele>338</ele>
        <time>2025-08-06T14:04:04.000Z</time>
      </trkpt>
      <trkpt lat="43.09812" lon="1.62691">
        <ele>338.20001220703</ele>
        <time>2025-08-06T14:04:08.000Z</time>
      </trkpt>
      <trkpt lat="43.09809" lon="1.62696">
        <ele>338.20001220703</ele>
        <time>2025-08-06T14:04:09.000Z</time>
      </trkpt>
      <trkpt lat="43.09806" lon="1.62701">
        <ele>338.20001220703</ele>
        <time>2025-08-06T14:04:10.000Z</time>
      </trkpt>
      <trkpt lat="43.09785" lon="1.62744">
        <ele>338.39999389648</ele>
        <time>2025-08-06T14:04:18.000Z</time>
      </trkpt>
      <trkpt lat="43.09783" lon="1.6275">
        <ele>338.39999389648</ele>
        <time>2025-08-06T14:04:19.000Z</time>
      </trkpt>
      <trkpt lat="43.09762" lon="1.62801">
        <ele>338.20001220703</ele>
        <time>2025-08-06T14:04:28.000Z</time>
      </trkpt>
      <trkpt lat="43.09753" lon="1.62823">
        <ele>338.20001220703</ele>
        <time>2025-08-06T14:04:32.000Z</time>
      </trkpt>
      <trkpt lat="43.09748" lon="1.62834">
        <ele>338.20001220703</ele>
        <time>2025-08-06T14:04:34.000Z</time>
      </trkpt>
      <trkpt lat="43.09746" lon="1.62839">
        <ele>338.20001220703</ele>
        <time>2025-08-06T14:04:35.000Z</time>
      </trkpt>
      <trkpt lat="43.09733" lon="1.62867">
        <ele>338</ele>
        <time>2025-08-06T14:04:41.000Z</time>
      </trkpt>
      <trkpt lat="43.09707" lon="1.62905">
        <ele>338.60000610352</ele>
        <time>2025-08-06T14:04:50.000Z</time>
      </trkpt>
      <trkpt lat="43.09684" lon="1.62939">
        <ele>338.39999389648</ele>
        <time>2025-08-06T14:04:58.000Z</time>
      </trkpt>
      <trkpt lat="43.09655" lon="1.62983">
        <ele>338.39999389648</ele>
        <time>2025-08-06T14:05:08.000Z</time>
      </trkpt>
      <trkpt lat="43.09619" lon="1.63036">
        <ele>338.60000610352</ele>
        <time>2025-08-06T14:05:20.000Z</time>
      </trkpt>
      <trkpt lat="43.09601" lon="1.6306">
        <ele>338.60000610352</ele>
        <time>2025-08-06T14:05:26.000Z</time>
      </trkpt>
      <trkpt lat="43.09595" lon="1.63068">
        <ele>338.79998779297</ele>
        <time>2025-08-06T14:05:28.000Z</time>
      </trkpt>
      <trkpt lat="43.09586" lon="1.6308">
        <ele>338.79998779297</ele>
        <time>2025-08-06T14:05:31.000Z</time>
      </trkpt>
      <trkpt lat="43.09571" lon="1.63098">
        <ele>339.20001220703</ele>
        <time>2025-08-06T14:05:36.000Z</time>
      </trkpt>
      <trkpt lat="43.09562" lon="1.63109">
        <ele>339.20001220703</ele>
        <time>2025-08-06T14:05:39.000Z</time>
      </trkpt>
      <trkpt lat="43.09532" lon="1.63145">
        <ele>339.39999389648</ele>
        <time>2025-08-06T14:05:48.000Z</time>
      </trkpt>
      <trkpt lat="43.09508" lon="1.63178">
        <ele>340</ele>
        <time>2025-08-06T14:05:56.000Z</time>
      </trkpt>
      <trkpt lat="43.09497" lon="1.63198">
        <ele>340.39999389648</ele>
        <time>2025-08-06T14:06:01.000Z</time>
      </trkpt>
      <trkpt lat="43.09495" lon="1.63202">
        <ele>340.60000610352</ele>
        <time>2025-08-06T14:06:02.000Z</time>
      </trkpt>
      <trkpt lat="43.09482" lon="1.6323">
        <ele>341.60000610352</ele>
        <time>2025-08-06T14:06:09.000Z</time>
      </trkpt>
      <trkpt lat="43.09481" lon="1.63234">
        <ele>341.60000610352</ele>
        <time>2025-08-06T14:06:10.000Z</time>
      </trkpt>
      <trkpt lat="43.09471" lon="1.63264">
        <ele>342.60000610352</ele>
        <time>2025-08-06T14:06:17.000Z</time>
      </trkpt>
      <trkpt lat="43.09468" lon="1.63272">
        <ele>343</ele>
        <time>2025-08-06T14:06:19.000Z</time>
      </trkpt>
      <trkpt lat="43.09465" lon="1.63285">
        <ele>343.79998779297</ele>
        <time>2025-08-06T14:06:22.000Z</time>
      </trkpt>
      <trkpt lat="43.09458" lon="1.63305">
        <ele>344.20001220703</ele>
        <time>2025-08-06T14:06:27.000Z</time>
      </trkpt>
      <trkpt lat="43.09454" lon="1.63326">
        <ele>344.79998779297</ele>
        <time>2025-08-06T14:06:32.000Z</time>
      </trkpt>
      <trkpt lat="43.0945" lon="1.63344">
        <ele>345.20001220703</ele>
        <time>2025-08-06T14:06:36.000Z</time>
      </trkpt>
      <trkpt lat="43.09446" lon="1.63356">
        <ele>345.20001220703</ele>
        <time>2025-08-06T14:06:39.000Z</time>
      </trkpt>
      <trkpt lat="43.09442" lon="1.63376">
        <ele>345.39999389648</ele>
        <time>2025-08-06T14:06:43.000Z</time>
      </trkpt>
      <trkpt lat="43.09431" lon="1.63413">
        <ele>345.20001220703</ele>
        <time>2025-08-06T14:06:50.000Z</time>
      </trkpt>
      <trkpt lat="43.09417" lon="1.63459">
        <ele>345</ele>
        <time>2025-08-06T14:06:57.000Z</time>
      </trkpt>
      <trkpt lat="43.09399" lon="1.63503">
        <ele>343.60000610352</ele>
        <time>2025-08-06T14:07:03.000Z</time>
      </trkpt>
      <trkpt lat="43.09378" lon="1.63543">
        <ele>342.39999389648</ele>
        <time>2025-08-06T14:07:08.000Z</time>
      </trkpt>
      <trkpt lat="43.09369" lon="1.63557">
        <ele>341.79998779297</ele>
        <time>2025-08-06T14:07:10.000Z</time>
      </trkpt>
      <trkpt lat="43.0936" lon="1.63571">
        <ele>341</ele>
        <time>2025-08-06T14:07:12.000Z</time>
      </trkpt>
      <trkpt lat="43.09332" lon="1.63607">
        <ele>340.39999389648</ele>
        <time>2025-08-06T14:07:18.000Z</time>
      </trkpt>
      <trkpt lat="43.09319" lon="1.63623">
        <ele>340.20001220703</ele>
        <time>2025-08-06T14:07:21.000Z</time>
      </trkpt>
      <trkpt lat="43.09306" lon="1.6364">
        <ele>340</ele>
        <time>2025-08-06T14:07:24.000Z</time>
      </trkpt>
      <trkpt lat="43.09274" lon="1.63682">
        <ele>339.60000610352</ele>
        <time>2025-08-06T14:07:32.000Z</time>
      </trkpt>
      <trkpt lat="43.09241" lon="1.63726">
        <ele>340</ele>
        <time>2025-08-06T14:07:41.000Z</time>
      </trkpt>
      <trkpt lat="43.09237" lon="1.63731">
        <ele>340</ele>
        <time>2025-08-06T14:07:42.000Z</time>
      </trkpt>
      <trkpt lat="43.0923" lon="1.6374">
        <ele>340</ele>
        <time>2025-08-06T14:07:44.000Z</time>
      </trkpt>
      <trkpt lat="43.09219" lon="1.63754">
        <ele>340.20001220703</ele>
        <time>2025-08-06T14:07:47.000Z</time>
      </trkpt>
      <trkpt lat="43.09188" lon="1.63785">
        <ele>340.60000610352</ele>
        <time>2025-08-06T14:07:55.000Z</time>
      </trkpt>
      <trkpt lat="43.09183" lon="1.63789">
        <ele>340.60000610352</ele>
        <time>2025-08-06T14:07:56.000Z</time>
      </trkpt>
      <trkpt lat="43.09164" lon="1.63801">
        <ele>340.79998779297</ele>
        <time>2025-08-06T14:08:02.000Z</time>
      </trkpt>
      <trkpt lat="43.09162" lon="1.63801">
        <ele>340.79998779297</ele>
        <time>2025-08-06T14:08:03.000Z</time>
      </trkpt>
      <trkpt lat="43.09161" lon="1.63797">
        <ele>340.79998779297</ele>
        <time>2025-08-06T14:08:05.000Z</time>
      </trkpt>
      <trkpt lat="43.09162" lon="1.63797">
        <ele>341</ele>
        <time>2025-08-06T14:08:08.000Z</time>
      </trkpt>
      <trkpt lat="43.09168" lon="1.63801">
        <ele>341.60000610352</ele>
        <time>2025-08-06T14:10:51.000Z</time>
      </trkpt>
      <trkpt lat="43.09169" lon="1.63802">
        <ele>341.60000610352</ele>
        <time>2025-08-06T14:10:52.000Z</time>
      </trkpt>
      <trkpt lat="43.0918" lon="1.63797">
        <ele>341.60000610352</ele>
        <time>2025-08-06T14:10:56.000Z</time>
      </trkpt>
      <trkpt lat="43.09191" lon="1.6379">
        <ele>341.60000610352</ele>
        <time>2025-08-06T14:10:59.000Z</time>
      </trkpt>
      <trkpt lat="43.09195" lon="1.63789">
        <ele>341.79998779297</ele>
        <time>2025-08-06T14:11:00.000Z</time>
      </trkpt>
      <trkpt lat="43.09214" lon="1.63788">
        <ele>341.79998779297</ele>
        <time>2025-08-06T14:11:05.000Z</time>
      </trkpt>
      <trkpt lat="43.09217" lon="1.63792">
        <ele>341.79998779297</ele>
        <time>2025-08-06T14:11:06.000Z</time>
      </trkpt>
      <trkpt lat="43.09222" lon="1.63807">
        <ele>341.79998779297</ele>
        <time>2025-08-06T14:11:10.000Z</time>
      </trkpt>
      <trkpt lat="43.09224" lon="1.6381">
        <ele>341.79998779297</ele>
        <time>2025-08-06T14:11:14.000Z</time>
      </trkpt>
      <trkpt lat="43.09222" lon="1.63802">
        <ele>341.20001220703</ele>
        <time>2025-08-06T14:13:11.000Z</time>
      </trkpt>
      <trkpt lat="43.0922" lon="1.63796">
        <ele>341.39999389648</ele>
        <time>2025-08-06T14:13:13.000Z</time>
      </trkpt>
      <trkpt lat="43.09212" lon="1.63787">
        <ele>341.20001220703</ele>
        <time>2025-08-06T14:13:17.000Z</time>
      </trkpt>
      <trkpt lat="43.0921" lon="1.63786">
        <ele>341.20001220703</ele>
        <time>2025-08-06T14:13:18.000Z</time>
      </trkpt>
      <trkpt lat="43.09208" lon="1.63786">
        <ele>341.39999389648</ele>
        <time>2025-08-06T14:13:20.000Z</time>
      </trkpt>
      <trkpt lat="43.09207" lon="1.63786">
        <ele>341.39999389648</ele>
        <time>2025-08-06T14:13:21.000Z</time>
      </trkpt>
      <trkpt lat="43.09202" lon="1.63787">
        <ele>341.39999389648</ele>
        <time>2025-08-06T14:13:28.000Z</time>
      </trkpt>
      <trkpt lat="43.09202" lon="1.63787">
        <ele>341.39999389648</ele>
        <time>2025-08-06T14:13:30.000Z</time>
      </trkpt>
      <trkpt lat="43.09196" lon="1.63788">
        <ele>341</ele>
        <time>2025-08-06T14:13:40.000Z</time>
      </trkpt>
      <trkpt lat="43.09194" lon="1.63788">
        <ele>341</ele>
        <time>2025-08-06T14:13:41.000Z</time>
      </trkpt>
      <trkpt lat="43.09178" lon="1.63792">
        <ele>341.20001220703</ele>
        <time>2025-08-06T14:13:46.000Z</time>
      </trkpt>
      <trkpt lat="43.09153" lon="1.63803">
        <ele>341.60000610352</ele>
        <time>2025-08-06T14:13:54.000Z</time>
      </trkpt>
      <trkpt lat="43.09121" lon="1.63812">
        <ele>342.39999389648</ele>
        <time>2025-08-06T14:14:04.000Z</time>
      </trkpt>
      <trkpt lat="43.09096" lon="1.63815">
        <ele>342.79998779297</ele>
        <time>2025-08-06T14:14:11.000Z</time>
      </trkpt>
      <trkpt lat="43.09081" lon="1.63817">
        <ele>343.20001220703</ele>
        <time>2025-08-06T14:14:15.000Z</time>
      </trkpt>
      <trkpt lat="43.09044" lon="1.63821">
        <ele>343.60000610352</ele>
        <time>2025-08-06T14:14:25.000Z</time>
      </trkpt>
      <trkpt lat="43.09026" lon="1.63823">
        <ele>343.79998779297</ele>
        <time>2025-08-06T14:14:30.000Z</time>
      </trkpt>
      <trkpt lat="43.09014" lon="1.63826">
        <ele>344</ele>
        <time>2025-08-06T14:14:33.000Z</time>
      </trkpt>
      <trkpt lat="43.08981" lon="1.63838">
        <ele>344.39999389648</ele>
        <time>2025-08-06T14:14:42.000Z</time>
      </trkpt>
      <trkpt lat="43.08957" lon="1.63862">
        <ele>344.60000610352</ele>
        <time>2025-08-06T14:14:49.000Z</time>
      </trkpt>
      <trkpt lat="43.08941" lon="1.63887">
        <ele>344.79998779297</ele>
        <time>2025-08-06T14:14:55.000Z</time>
      </trkpt>
      <trkpt lat="43.08935" lon="1.63896">
        <ele>345</ele>
        <time>2025-08-06T14:14:57.000Z</time>
      </trkpt>
      <trkpt lat="43.08914" lon="1.63931">
        <ele>345</ele>
        <time>2025-08-06T14:15:05.000Z</time>
      </trkpt>
      <trkpt lat="43.08912" lon="1.63935">
        <ele>345</ele>
        <time>2025-08-06T14:15:06.000Z</time>
      </trkpt>
      <trkpt lat="43.08889" lon="1.63962">
        <ele>345.20001220703</ele>
        <time>2025-08-06T14:15:13.000Z</time>
      </trkpt>
      <trkpt lat="43.08886" lon="1.63965">
        <ele>345.20001220703</ele>
        <time>2025-08-06T14:15:14.000Z</time>
      </trkpt>
      <trkpt lat="43.08883" lon="1.63968">
        <ele>345.20001220703</ele>
        <time>2025-08-06T14:15:15.000Z</time>
      </trkpt>
      <trkpt lat="43.08871" lon="1.63976">
        <ele>345.39999389648</ele>
        <time>2025-08-06T14:15:19.000Z</time>
      </trkpt>
      <trkpt lat="43.08856" lon="1.63982">
        <ele>345.60000610352</ele>
        <time>2025-08-06T14:15:25.000Z</time>
      </trkpt>
      <trkpt lat="43.08842" lon="1.63986">
        <ele>345.39999389648</ele>
        <time>2025-08-06T14:15:34.000Z</time>
      </trkpt>
      <trkpt lat="43.08841" lon="1.63986">
        <ele>345.39999389648</ele>
        <time>2025-08-06T14:15:35.000Z</time>
      </trkpt>
      <trkpt lat="43.0884" lon="1.63987">
        <ele>345.20001220703</ele>
        <time>2025-08-06T14:15:39.000Z</time>
      </trkpt>
      <trkpt lat="43.08832" lon="1.63992">
        <ele>345.39999389648</ele>
        <time>2025-08-06T14:17:17.000Z</time>
      </trkpt>
      <trkpt lat="43.08828" lon="1.63994">
        <ele>345.39999389648</ele>
        <time>2025-08-06T14:17:19.000Z</time>
      </trkpt>
      <trkpt lat="43.08811" lon="1.63999">
        <ele>345.60000610352</ele>
        <time>2025-08-06T14:17:27.000Z</time>
      </trkpt>
      <trkpt lat="43.08788" lon="1.64009">
        <ele>345.60000610352</ele>
        <time>2025-08-06T14:17:34.000Z</time>
      </trkpt>
      <trkpt lat="43.08768" lon="1.64023">
        <ele>345.79998779297</ele>
        <time>2025-08-06T14:17:40.000Z</time>
      </trkpt>
      <trkpt lat="43.08759" lon="1.64031">
        <ele>346</ele>
        <time>2025-08-06T14:17:43.000Z</time>
      </trkpt>
      <trkpt lat="43.08738" lon="1.64068">
        <ele>346.60000610352</ele>
        <time>2025-08-06T14:17:52.000Z</time>
      </trkpt>
      <trkpt lat="43.08716" lon="1.64099">
        <ele>346.60000610352</ele>
        <time>2025-08-06T14:17:59.000Z</time>
      </trkpt>
      <trkpt lat="43.08713" lon="1.64103">
        <ele>346.60000610352</ele>
        <time>2025-08-06T14:18:00.000Z</time>
      </trkpt>
      <trkpt lat="43.08701" lon="1.64113">
        <ele>346.60000610352</ele>
        <time>2025-08-06T14:18:03.000Z</time>
      </trkpt>
      <trkpt lat="43.08685" lon="1.64124">
        <ele>346.60000610352</ele>
        <time>2025-08-06T14:18:07.000Z</time>
      </trkpt>
      <trkpt lat="43.08642" lon="1.64148">
        <ele>346.79998779297</ele>
        <time>2025-08-06T14:18:17.000Z</time>
      </trkpt>
      <trkpt lat="43.08638" lon="1.64151">
        <ele>347</ele>
        <time>2025-08-06T14:18:18.000Z</time>
      </trkpt>
      <trkpt lat="43.08604" lon="1.64168">
        <ele>347.20001220703</ele>
        <time>2025-08-06T14:18:26.000Z</time>
      </trkpt>
      <trkpt lat="43.08565" lon="1.64192">
        <ele>347.39999389648</ele>
        <time>2025-08-06T14:18:35.000Z</time>
      </trkpt>
      <trkpt lat="43.08557" lon="1.64199">
        <ele>347.39999389648</ele>
        <time>2025-08-06T14:18:37.000Z</time>
      </trkpt>
      <trkpt lat="43.08545" lon="1.64216">
        <ele>347.39999389648</ele>
        <time>2025-08-06T14:18:41.000Z</time>
      </trkpt>
      <trkpt lat="43.08514" lon="1.64265">
        <ele>347.60000610352</ele>
        <time>2025-08-06T14:18:51.000Z</time>
      </trkpt>
      <trkpt lat="43.0849" lon="1.64309">
        <ele>348</ele>
        <time>2025-08-06T14:19:00.000Z</time>
      </trkpt>
      <trkpt lat="43.0846" lon="1.64355">
        <ele>348.20001220703</ele>
        <time>2025-08-06T14:19:10.000Z</time>
      </trkpt>
      <trkpt lat="43.08433" lon="1.6438">
        <ele>348.20001220703</ele>
        <time>2025-08-06T14:19:17.000Z</time>
      </trkpt>
      <trkpt lat="43.08394" lon="1.64405">
        <ele>348.39999389648</ele>
        <time>2025-08-06T14:19:27.000Z</time>
      </trkpt>
      <trkpt lat="43.08356" lon="1.64425">
        <ele>348.20001220703</ele>
        <time>2025-08-06T14:19:37.000Z</time>
      </trkpt>
      <trkpt lat="43.08335" lon="1.64439">
        <ele>348.39999389648</ele>
        <time>2025-08-06T14:19:43.000Z</time>
      </trkpt>
      <trkpt lat="43.08318" lon="1.64461">
        <ele>348.39999389648</ele>
        <time>2025-08-06T14:19:49.000Z</time>
      </trkpt>
      <trkpt lat="43.08308" lon="1.64482">
        <ele>348.39999389648</ele>
        <time>2025-08-06T14:19:55.000Z</time>
      </trkpt>
      <trkpt lat="43.08304" lon="1.64489">
        <ele>348.39999389648</ele>
        <time>2025-08-06T14:19:59.000Z</time>
      </trkpt>
      <trkpt lat="43.08301" lon="1.64502">
        <ele>348.39999389648</ele>
        <time>2025-08-06T14:20:03.000Z</time>
      </trkpt>
      <trkpt lat="43.08293" lon="1.64538">
        <ele>348.20001220703</ele>
        <time>2025-08-06T14:20:10.000Z</time>
      </trkpt>
      <trkpt lat="43.08281" lon="1.64577">
        <ele>348.39999389648</ele>
        <time>2025-08-06T14:20:18.000Z</time>
      </trkpt>
      <trkpt lat="43.08274" lon="1.64609">
        <ele>348.39999389648</ele>
        <time>2025-08-06T14:20:25.000Z</time>
      </trkpt>
      <trkpt lat="43.08265" lon="1.64631">
        <ele>348.39999389648</ele>
        <time>2025-08-06T14:20:31.000Z</time>
      </trkpt>
      <trkpt lat="43.08251" lon="1.64646">
        <ele>348.79998779297</ele>
        <time>2025-08-06T14:20:36.000Z</time>
      </trkpt>
      <trkpt lat="43.08233" lon="1.64664">
        <ele>348.79998779297</ele>
        <time>2025-08-06T14:20:42.000Z</time>
      </trkpt>
      <trkpt lat="43.08223" lon="1.64677">
        <ele>349</ele>
        <time>2025-08-06T14:20:46.000Z</time>
      </trkpt>
      <trkpt lat="43.08218" lon="1.64685">
        <ele>349</ele>
        <time>2025-08-06T14:20:48.000Z</time>
      </trkpt>
      <trkpt lat="43.08205" lon="1.64708">
        <ele>349</ele>
        <time>2025-08-06T14:20:53.000Z</time>
      </trkpt>
      <trkpt lat="43.08191" lon="1.64737">
        <ele>349</ele>
        <time>2025-08-06T14:20:59.000Z</time>
      </trkpt>
      <trkpt lat="43.08186" lon="1.64748">
        <ele>349</ele>
        <time>2025-08-06T14:21:03.000Z</time>
      </trkpt>
      <trkpt lat="43.08185" lon="1.64749">
        <ele>348.79998779297</ele>
        <time>2025-08-06T14:21:06.000Z</time>
      </trkpt>
      <trkpt lat="43.08184" lon="1.64754">
        <ele>348.79998779297</ele>
        <time>2025-08-06T14:21:09.000Z</time>
      </trkpt>
      <trkpt lat="43.08178" lon="1.64774">
        <ele>348.60000610352</ele>
        <time>2025-08-06T14:21:14.000Z</time>
      </trkpt>
      <trkpt lat="43.08174" lon="1.64789">
        <ele>348.79998779297</ele>
        <time>2025-08-06T14:21:19.000Z</time>
      </trkpt>
      <trkpt lat="43.08159" lon="1.64815">
        <ele>349</ele>
        <time>2025-08-06T14:21:26.000Z</time>
      </trkpt>
      <trkpt lat="43.08142" lon="1.64847">
        <ele>349.20001220703</ele>
        <time>2025-08-06T14:21:34.000Z</time>
      </trkpt>
      <trkpt lat="43.08136" lon="1.6487">
        <ele>349.60000610352</ele>
        <time>2025-08-06T14:21:40.000Z</time>
      </trkpt>
      <trkpt lat="43.08129" lon="1.64879">
        <ele>349.79998779297</ele>
        <time>2025-08-06T14:21:44.000Z</time>
      </trkpt>
      <trkpt lat="43.08127" lon="1.6488">
        <ele>350</ele>
        <time>2025-08-06T14:21:45.000Z</time>
      </trkpt>
      <trkpt lat="43.08122" lon="1.64883">
        <ele>350</ele>
        <time>2025-08-06T14:21:47.000Z</time>
      </trkpt>
      <trkpt lat="43.08117" lon="1.64886">
        <ele>350</ele>
        <time>2025-08-06T14:21:49.000Z</time>
      </trkpt>
      <trkpt lat="43.08112" lon="1.64888">
        <ele>350.20001220703</ele>
        <time>2025-08-06T14:21:51.000Z</time>
      </trkpt>
      <trkpt lat="43.081" lon="1.64894">
        <ele>350.39999389648</ele>
        <time>2025-08-06T14:21:56.000Z</time>
      </trkpt>
      <trkpt lat="43.0808" lon="1.64913">
        <ele>350.39999389648</ele>
        <time>2025-08-06T14:22:02.000Z</time>
      </trkpt>
      <trkpt lat="43.08073" lon="1.64933">
        <ele>350.60000610352</ele>
        <time>2025-08-06T14:22:06.000Z</time>
      </trkpt>
      <trkpt lat="43.08071" lon="1.64957">
        <ele>350.60000610352</ele>
        <time>2025-08-06T14:22:11.000Z</time>
      </trkpt>
      <trkpt lat="43.08066" lon="1.64972">
        <ele>350.60000610352</ele>
        <time>2025-08-06T14:22:15.000Z</time>
      </trkpt>
      <trkpt lat="43.08052" lon="1.64988">
        <ele>350.20001220703</ele>
        <time>2025-08-06T14:22:21.000Z</time>
      </trkpt>
      <trkpt lat="43.08027" lon="1.65016">
        <ele>350.20001220703</ele>
        <time>2025-08-06T14:22:30.000Z</time>
      </trkpt>
      <trkpt lat="43.08008" lon="1.65038">
        <ele>350</ele>
        <time>2025-08-06T14:22:37.000Z</time>
      </trkpt>
      <trkpt lat="43.07995" lon="1.65054">
        <ele>350.20001220703</ele>
        <time>2025-08-06T14:22:43.000Z</time>
      </trkpt>
      <trkpt lat="43.07982" lon="1.65069">
        <ele>349.79998779297</ele>
        <time>2025-08-06T14:22:49.000Z</time>
      </trkpt>
      <trkpt lat="43.07962" lon="1.65091">
        <ele>349.60000610352</ele>
        <time>2025-08-06T14:22:57.000Z</time>
      </trkpt>
      <trkpt lat="43.07943" lon="1.65116">
        <ele>349.79998779297</ele>
        <time>2025-08-06T14:23:05.000Z</time>
      </trkpt>
      <trkpt lat="43.07919" lon="1.65144">
        <ele>349.39999389648</ele>
        <time>2025-08-06T14:23:14.000Z</time>
      </trkpt>
      <trkpt lat="43.07903" lon="1.65157">
        <ele>349.60000610352</ele>
        <time>2025-08-06T14:23:20.000Z</time>
      </trkpt>
      <trkpt lat="43.07887" lon="1.65156">
        <ele>349.79998779297</ele>
        <time>2025-08-06T14:23:25.000Z</time>
      </trkpt>
      <trkpt lat="43.07874" lon="1.65167">
        <ele>349.79998779297</ele>
        <time>2025-08-06T14:23:29.000Z</time>
      </trkpt>
      <trkpt lat="43.0787" lon="1.65189">
        <ele>349.60000610352</ele>
        <time>2025-08-06T14:23:33.000Z</time>
      </trkpt>
      <trkpt lat="43.07865" lon="1.65206">
        <ele>349.60000610352</ele>
        <time>2025-08-06T14:23:36.000Z</time>
      </trkpt>
      <trkpt lat="43.07862" lon="1.6521">
        <ele>349.60000610352</ele>
        <time>2025-08-06T14:23:37.000Z</time>
      </trkpt>
      <trkpt lat="43.07831" lon="1.65239">
        <ele>349.60000610352</ele>
        <time>2025-08-06T14:23:46.000Z</time>
      </trkpt>
      <trkpt lat="43.07804" lon="1.65257">
        <ele>349.79998779297</ele>
        <time>2025-08-06T14:23:53.000Z</time>
      </trkpt>
      <trkpt lat="43.07796" lon="1.65263">
        <ele>349.79998779297</ele>
        <time>2025-08-06T14:23:55.000Z</time>
      </trkpt>
      <trkpt lat="43.07787" lon="1.65265">
        <ele>349.79998779297</ele>
        <time>2025-08-06T14:23:57.000Z</time>
      </trkpt>
      <trkpt lat="43.07782" lon="1.65265">
        <ele>349.79998779297</ele>
        <time>2025-08-06T14:23:58.000Z</time>
      </trkpt>
      <trkpt lat="43.0776" lon="1.65267">
        <ele>349.79998779297</ele>
        <time>2025-08-06T14:24:03.000Z</time>
      </trkpt>
      <trkpt lat="43.07755" lon="1.65267">
        <ele>349.79998779297</ele>
        <time>2025-08-06T14:24:04.000Z</time>
      </trkpt>
      <trkpt lat="43.07723" lon="1.65271">
        <ele>350.20001220703</ele>
        <time>2025-08-06T14:24:12.000Z</time>
      </trkpt>
      <trkpt lat="43.07702" lon="1.65276">
        <ele>350.39999389648</ele>
        <time>2025-08-06T14:24:18.000Z</time>
      </trkpt>
      <trkpt lat="43.0767" lon="1.65281">
        <ele>350.60000610352</ele>
        <time>2025-08-06T14:24:26.000Z</time>
      </trkpt>
      <trkpt lat="43.07648" lon="1.65284">
        <ele>350.60000610352</ele>
        <time>2025-08-06T14:24:31.000Z</time>
      </trkpt>
      <trkpt lat="43.0764" lon="1.65287">
        <ele>350.60000610352</ele>
        <time>2025-08-06T14:24:33.000Z</time>
      </trkpt>
      <trkpt lat="43.07633" lon="1.65288">
        <ele>350.79998779297</ele>
        <time>2025-08-06T14:24:35.000Z</time>
      </trkpt>
      <trkpt lat="43.07612" lon="1.65291">
        <ele>350.79998779297</ele>
        <time>2025-08-06T14:24:40.000Z</time>
      </trkpt>
      <trkpt lat="43.07599" lon="1.65293">
        <ele>350.79998779297</ele>
        <time>2025-08-06T14:24:43.000Z</time>
      </trkpt>
      <trkpt lat="43.07575" lon="1.65299">
        <ele>351</ele>
        <time>2025-08-06T14:24:49.000Z</time>
      </trkpt>
      <trkpt lat="43.07551" lon="1.65304">
        <ele>351</ele>
        <time>2025-08-06T14:24:55.000Z</time>
      </trkpt>
      <trkpt lat="43.07543" lon="1.65308">
        <ele>351</ele>
        <time>2025-08-06T14:24:57.000Z</time>
      </trkpt>
      <trkpt lat="43.0753" lon="1.65315">
        <ele>351.20001220703</ele>
        <time>2025-08-06T14:25:00.000Z</time>
      </trkpt>
      <trkpt lat="43.07518" lon="1.65321">
        <ele>351.20001220703</ele>
        <time>2025-08-06T14:25:03.000Z</time>
      </trkpt>
      <trkpt lat="43.07492" lon="1.6533">
        <ele>351.79998779297</ele>
        <time>2025-08-06T14:25:10.000Z</time>
      </trkpt>
      <trkpt lat="43.07489" lon="1.6533">
        <ele>351.79998779297</ele>
        <time>2025-08-06T14:25:11.000Z</time>
      </trkpt>
      <trkpt lat="43.07466" lon="1.65328">
        <ele>352.20001220703</ele>
        <time>2025-08-06T14:25:17.000Z</time>
      </trkpt>
      <trkpt lat="43.07439" lon="1.65323">
        <ele>352.60000610352</ele>
        <time>2025-08-06T14:25:24.000Z</time>
      </trkpt>
      <trkpt lat="43.07418" lon="1.6532">
        <ele>352.79998779297</ele>
        <time>2025-08-06T14:25:30.000Z</time>
      </trkpt>
      <trkpt lat="43.07411" lon="1.6532">
        <ele>353</ele>
        <time>2025-08-06T14:25:32.000Z</time>
      </trkpt>
      <trkpt lat="43.07386" lon="1.65322">
        <ele>353</ele>
        <time>2025-08-06T14:25:39.000Z</time>
      </trkpt>
      <trkpt lat="43.07373" lon="1.65334">
        <ele>352.79998779297</ele>
        <time>2025-08-06T14:25:44.000Z</time>
      </trkpt>
      <trkpt lat="43.07351" lon="1.6534">
        <ele>353</ele>
        <time>2025-08-06T14:25:50.000Z</time>
      </trkpt>
      <trkpt lat="43.07328" lon="1.6534">
        <ele>353</ele>
        <time>2025-08-06T14:25:56.000Z</time>
      </trkpt>
      <trkpt lat="43.07298" lon="1.65338">
        <ele>353.20001220703</ele>
        <time>2025-08-06T14:26:05.000Z</time>
      </trkpt>
      <trkpt lat="43.07273" lon="1.65338">
        <ele>353.39999389648</ele>
        <time>2025-08-06T14:26:12.000Z</time>
      </trkpt>
      <trkpt lat="43.07244" lon="1.65337">
        <ele>353.39999389648</ele>
        <time>2025-08-06T14:26:21.000Z</time>
      </trkpt>
      <trkpt lat="43.07215" lon="1.65336">
        <ele>353.20001220703</ele>
        <time>2025-08-06T14:26:29.000Z</time>
      </trkpt>
      <trkpt lat="43.07189" lon="1.65338">
        <ele>353</ele>
        <time>2025-08-06T14:26:36.000Z</time>
      </trkpt>
      <trkpt lat="43.07157" lon="1.65336">
        <ele>353.20001220703</ele>
        <time>2025-08-06T14:26:45.000Z</time>
      </trkpt>
      <trkpt lat="43.07133" lon="1.65336">
        <ele>353.60000610352</ele>
        <time>2025-08-06T14:26:53.000Z</time>
      </trkpt>
      <trkpt lat="43.07123" lon="1.65336">
        <ele>353.79998779297</ele>
        <time>2025-08-06T14:26:59.000Z</time>
      </trkpt>
      <trkpt lat="43.07111" lon="1.65337">
        <ele>353.60000610352</ele>
        <time>2025-08-06T14:27:06.000Z</time>
      </trkpt>
      <trkpt lat="43.07095" lon="1.65341">
        <ele>353.39999389648</ele>
        <time>2025-08-06T14:27:14.000Z</time>
      </trkpt>
      <trkpt lat="43.07083" lon="1.65344">
        <ele>353.39999389648</ele>
        <time>2025-08-06T14:27:22.000Z</time>
      </trkpt>
      <trkpt lat="43.07064" lon="1.6535">
        <ele>353.39999389648</ele>
        <time>2025-08-06T14:27:31.000Z</time>
      </trkpt>
      <trkpt lat="43.07044" lon="1.65355">
        <ele>353.60000610352</ele>
        <time>2025-08-06T14:27:42.000Z</time>
      </trkpt>
      <trkpt lat="43.07027" lon="1.6536">
        <ele>353.60000610352</ele>
        <time>2025-08-06T14:27:49.000Z</time>
      </trkpt>
      <trkpt lat="43.07008" lon="1.65365">
        <ele>353.79998779297</ele>
        <time>2025-08-06T14:27:56.000Z</time>
      </trkpt>
      <trkpt lat="43.0699" lon="1.65372">
        <ele>354</ele>
        <time>2025-08-06T14:28:03.000Z</time>
      </trkpt>
      <trkpt lat="43.06974" lon="1.65379">
        <ele>354.39999389648</ele>
        <time>2025-08-06T14:28:09.000Z</time>
      </trkpt>
      <trkpt lat="43.06959" lon="1.65388">
        <ele>354.60000610352</ele>
        <time>2025-08-06T14:28:16.000Z</time>
      </trkpt>
      <trkpt lat="43.06934" lon="1.65404">
        <ele>354.79998779297</ele>
        <time>2025-08-06T14:28:27.000Z</time>
      </trkpt>
      <trkpt lat="43.06924" lon="1.65408">
        <ele>355</ele>
        <time>2025-08-06T14:28:31.000Z</time>
      </trkpt>
      <trkpt lat="43.06916" lon="1.6541">
        <ele>355.20001220703</ele>
        <time>2025-08-06T14:28:35.000Z</time>
      </trkpt>
      <trkpt lat="43.06914" lon="1.65411">
        <ele>355.20001220703</ele>
        <time>2025-08-06T14:28:36.000Z</time>
      </trkpt>
      <trkpt lat="43.06891" lon="1.65416">
        <ele>355</ele>
        <time>2025-08-06T14:28:45.000Z</time>
      </trkpt>
      <trkpt lat="43.06868" lon="1.6542">
        <ele>355</ele>
        <time>2025-08-06T14:28:53.000Z</time>
      </trkpt>
      <trkpt lat="43.06849" lon="1.65426">
        <ele>355.39999389648</ele>
        <time>2025-08-06T14:29:01.000Z</time>
      </trkpt>
      <trkpt lat="43.06837" lon="1.65434">
        <ele>355.39999389648</ele>
        <time>2025-08-06T14:29:08.000Z</time>
      </trkpt>
      <trkpt lat="43.06829" lon="1.65448">
        <ele>355.60000610352</ele>
        <time>2025-08-06T14:29:14.000Z</time>
      </trkpt>
      <trkpt lat="43.06821" lon="1.65464">
        <ele>356</ele>
        <time>2025-08-06T14:29:22.000Z</time>
      </trkpt>
      <trkpt lat="43.0682" lon="1.65465">
        <ele>355.79998779297</ele>
        <time>2025-08-06T14:29:23.000Z</time>
      </trkpt>
      <trkpt lat="43.06817" lon="1.65464">
        <ele>355.79998779297</ele>
        <time>2025-08-06T14:29:25.000Z</time>
      </trkpt>
      <trkpt lat="43.06815" lon="1.65462">
        <ele>355.79998779297</ele>
        <time>2025-08-06T14:29:26.000Z</time>
      </trkpt>
      <trkpt lat="43.06803" lon="1.65453">
        <ele>356.20001220703</ele>
        <time>2025-08-06T14:29:31.000Z</time>
      </trkpt>
      <trkpt lat="43.06794" lon="1.65446">
        <ele>356.20001220703</ele>
        <time>2025-08-06T14:29:34.000Z</time>
      </trkpt>
      <trkpt lat="43.06782" lon="1.65437">
        <ele>356.20001220703</ele>
        <time>2025-08-06T14:29:38.000Z</time>
      </trkpt>
      <trkpt lat="43.06767" lon="1.65429">
        <ele>356.20001220703</ele>
        <time>2025-08-06T14:29:43.000Z</time>
      </trkpt>
      <trkpt lat="43.06736" lon="1.65416">
        <ele>356</ele>
        <time>2025-08-06T14:29:52.000Z</time>
      </trkpt>
      <trkpt lat="43.06709" lon="1.65414">
        <ele>356.60000610352</ele>
        <time>2025-08-06T14:30:00.000Z</time>
      </trkpt>
      <trkpt lat="43.06684" lon="1.65416">
        <ele>356.79998779297</ele>
        <time>2025-08-06T14:30:07.000Z</time>
      </trkpt>
      <trkpt lat="43.06665" lon="1.65414">
        <ele>357.20001220703</ele>
        <time>2025-08-06T14:30:12.000Z</time>
      </trkpt>
      <trkpt lat="43.06657" lon="1.65413">
        <ele>357.39999389648</ele>
        <time>2025-08-06T14:30:14.000Z</time>
      </trkpt>
      <trkpt lat="43.0663" lon="1.65413">
        <ele>357.60000610352</ele>
        <time>2025-08-06T14:30:21.000Z</time>
      </trkpt>
      <trkpt lat="43.06582" lon="1.65412">
        <ele>357.39999389648</ele>
        <time>2025-08-06T14:30:33.000Z</time>
      </trkpt>
      <trkpt lat="43.06555" lon="1.65409">
        <ele>357.39999389648</ele>
        <time>2025-08-06T14:30:40.000Z</time>
      </trkpt>
      <trkpt lat="43.06531" lon="1.65407">
        <ele>357.20001220703</ele>
        <time>2025-08-06T14:30:47.000Z</time>
      </trkpt>
      <trkpt lat="43.06511" lon="1.65405">
        <ele>357.20001220703</ele>
        <time>2025-08-06T14:30:54.000Z</time>
      </trkpt>
      <trkpt lat="43.0649" lon="1.654">
        <ele>357.20001220703</ele>
        <time>2025-08-06T14:31:00.000Z</time>
      </trkpt>
      <trkpt lat="43.06473" lon="1.65398">
        <ele>357.20001220703</ele>
        <time>2025-08-06T14:31:05.000Z</time>
      </trkpt>
      <trkpt lat="43.06452" lon="1.65394">
        <ele>357.20001220703</ele>
        <time>2025-08-06T14:31:11.000Z</time>
      </trkpt>
      <trkpt lat="43.06426" lon="1.65389">
        <ele>357.20001220703</ele>
        <time>2025-08-06T14:31:18.000Z</time>
      </trkpt>
      <trkpt lat="43.06406" lon="1.65383">
        <ele>357.79998779297</ele>
        <time>2025-08-06T14:31:24.000Z</time>
      </trkpt>
      <trkpt lat="43.06385" lon="1.65371">
        <ele>358</ele>
        <time>2025-08-06T14:31:30.000Z</time>
      </trkpt>
      <trkpt lat="43.0635" lon="1.65342">
        <ele>358.20001220703</ele>
        <time>2025-08-06T14:31:41.000Z</time>
      </trkpt>
      <trkpt lat="43.06321" lon="1.65314">
        <ele>358.79998779297</ele>
        <time>2025-08-06T14:31:50.000Z</time>
      </trkpt>
      <trkpt lat="43.06297" lon="1.65288">
        <ele>359</ele>
        <time>2025-08-06T14:31:58.000Z</time>
      </trkpt>
      <trkpt lat="43.0627" lon="1.65252">
        <ele>359.20001220703</ele>
        <time>2025-08-06T14:32:08.000Z</time>
      </trkpt>
      <trkpt lat="43.06256" lon="1.65231">
        <ele>359.20001220703</ele>
        <time>2025-08-06T14:32:14.000Z</time>
      </trkpt>
      <trkpt lat="43.06249" lon="1.6523">
        <ele>359.20001220703</ele>
        <time>2025-08-06T14:32:16.000Z</time>
      </trkpt>
      <trkpt lat="43.06247" lon="1.65231">
        <ele>359.20001220703</ele>
        <time>2025-08-06T14:32:17.000Z</time>
      </trkpt>
      <trkpt lat="43.06244" lon="1.65235">
        <ele>359.20001220703</ele>
        <time>2025-08-06T14:32:18.000Z</time>
      </trkpt>
      <trkpt lat="43.06233" lon="1.65258">
        <ele>359.20001220703</ele>
        <time>2025-08-06T14:32:24.000Z</time>
      </trkpt>
      <trkpt lat="43.06225" lon="1.65283">
        <ele>359.39999389648</ele>
        <time>2025-08-06T14:32:30.000Z</time>
      </trkpt>
      <trkpt lat="43.06215" lon="1.6531">
        <ele>359.39999389648</ele>
        <time>2025-08-06T14:32:37.000Z</time>
      </trkpt>
      <trkpt lat="43.06206" lon="1.65352">
        <ele>359.39999389648</ele>
        <time>2025-08-06T14:32:46.000Z</time>
      </trkpt>
      <trkpt lat="43.062" lon="1.65369">
        <ele>359.60000610352</ele>
        <time>2025-08-06T14:32:50.000Z</time>
      </trkpt>
      <trkpt lat="43.06193" lon="1.65387">
        <ele>359.79998779297</ele>
        <time>2025-08-06T14:32:55.000Z</time>
      </trkpt>
      <trkpt lat="43.06176" lon="1.65405">
        <ele>360</ele>
        <time>2025-08-06T14:33:02.000Z</time>
      </trkpt>
      <trkpt lat="43.06161" lon="1.65429">
        <ele>360.20001220703</ele>
        <time>2025-08-06T14:33:09.000Z</time>
      </trkpt>
      <trkpt lat="43.06159" lon="1.65439">
        <ele>360.20001220703</ele>
        <time>2025-08-06T14:33:11.000Z</time>
      </trkpt>
      <trkpt lat="43.06154" lon="1.65457">
        <ele>360.39999389648</ele>
        <time>2025-08-06T14:33:15.000Z</time>
      </trkpt>
      <trkpt lat="43.06146" lon="1.65492">
        <ele>360.79998779297</ele>
        <time>2025-08-06T14:33:23.000Z</time>
      </trkpt>
      <trkpt lat="43.0614" lon="1.65521">
        <ele>361.20001220703</ele>
        <time>2025-08-06T14:33:30.000Z</time>
      </trkpt>
      <trkpt lat="43.06139" lon="1.65526">
        <ele>361.39999389648</ele>
        <time>2025-08-06T14:33:31.000Z</time>
      </trkpt>
      <trkpt lat="43.0613" lon="1.65571">
        <ele>361.60000610352</ele>
        <time>2025-08-06T14:33:41.000Z</time>
      </trkpt>
      <trkpt lat="43.06122" lon="1.65609">
        <ele>361.79998779297</ele>
        <time>2025-08-06T14:33:49.000Z</time>
      </trkpt>
      <trkpt lat="43.06117" lon="1.65647">
        <ele>362.20001220703</ele>
        <time>2025-08-06T14:33:58.000Z</time>
      </trkpt>
      <trkpt lat="43.06116" lon="1.65651">
        <ele>362.39999389648</ele>
        <time>2025-08-06T14:33:59.000Z</time>
      </trkpt>
      <trkpt lat="43.06111" lon="1.65689">
        <ele>362.39999389648</ele>
        <time>2025-08-06T14:34:07.000Z</time>
      </trkpt>
      <trkpt lat="43.06104" lon="1.65729">
        <ele>363.39999389648</ele>
        <time>2025-08-06T14:34:15.000Z</time>
      </trkpt>
      <trkpt lat="43.06104" lon="1.65733">
        <ele>363.39999389648</ele>
        <time>2025-08-06T14:34:16.000Z</time>
      </trkpt>
      <trkpt lat="43.06103" lon="1.65738">
        <ele>363.39999389648</ele>
        <time>2025-08-06T14:34:17.000Z</time>
      </trkpt>
      <trkpt lat="43.06099" lon="1.65766">
        <ele>363.60000610352</ele>
        <time>2025-08-06T14:34:24.000Z</time>
      </trkpt>
      <trkpt lat="43.06093" lon="1.65785">
        <ele>363.39999389648</ele>
        <time>2025-08-06T14:34:29.000Z</time>
      </trkpt>
      <trkpt lat="43.06076" lon="1.65803">
        <ele>363.60000610352</ele>
        <time>2025-08-06T14:34:35.000Z</time>
      </trkpt>
      <trkpt lat="43.06061" lon="1.65819">
        <ele>364</ele>
        <time>2025-08-06T14:34:41.000Z</time>
      </trkpt>
      <trkpt lat="43.06053" lon="1.6583">
        <ele>364.20001220703</ele>
        <time>2025-08-06T14:34:45.000Z</time>
      </trkpt>
      <trkpt lat="43.06044" lon="1.65833">
        <ele>364.39999389648</ele>
        <time>2025-08-06T14:34:48.000Z</time>
      </trkpt>
      <trkpt lat="43.06036" lon="1.65833">
        <ele>364.60000610352</ele>
        <time>2025-08-06T14:34:50.000Z</time>
      </trkpt>
      <trkpt lat="43.06004" lon="1.6583">
        <ele>365</ele>
        <time>2025-08-06T14:34:58.000Z</time>
      </trkpt>
      <trkpt lat="43.05992" lon="1.65833">
        <ele>365</ele>
        <time>2025-08-06T14:35:00.000Z</time>
      </trkpt>
      <trkpt lat="43.05976" lon="1.65829">
        <ele>365.20001220703</ele>
        <time>2025-08-06T14:35:04.000Z</time>
      </trkpt>
      <trkpt lat="43.05956" lon="1.65825">
        <ele>365.20001220703</ele>
        <time>2025-08-06T14:35:11.000Z</time>
      </trkpt>
      <trkpt lat="43.05936" lon="1.6582">
        <ele>365</ele>
        <time>2025-08-06T14:35:17.000Z</time>
      </trkpt>
      <trkpt lat="43.05913" lon="1.65817">
        <ele>365</ele>
        <time>2025-08-06T14:35:25.000Z</time>
      </trkpt>
      <trkpt lat="43.05902" lon="1.65814">
        <ele>365.39999389648</ele>
        <time>2025-08-06T14:35:29.000Z</time>
      </trkpt>
      <trkpt lat="43.05895" lon="1.65813">
        <ele>365.79998779297</ele>
        <time>2025-08-06T14:35:32.000Z</time>
      </trkpt>
      <trkpt lat="43.0588" lon="1.65807">
        <ele>366.39999389648</ele>
        <time>2025-08-06T14:35:38.000Z</time>
      </trkpt>
      <trkpt lat="43.05878" lon="1.65806">
        <ele>366.60000610352</ele>
        <time>2025-08-06T14:35:39.000Z</time>
      </trkpt>
      <trkpt lat="43.05868" lon="1.65801">
        <ele>367.60000610352</ele>
        <time>2025-08-06T14:35:44.000Z</time>
      </trkpt>
      <trkpt lat="43.05863" lon="1.65797">
        <ele>368</ele>
        <time>2025-08-06T14:35:47.000Z</time>
      </trkpt>
      <trkpt lat="43.05861" lon="1.65796">
        <ele>368.20001220703</ele>
        <time>2025-08-06T14:35:48.000Z</time>
      </trkpt>
      <trkpt lat="43.05854" lon="1.65791">
        <ele>368.79998779297</ele>
        <time>2025-08-06T14:35:51.000Z</time>
      </trkpt>
      <trkpt lat="43.05848" lon="1.65784">
        <ele>369</ele>
        <time>2025-08-06T14:35:55.000Z</time>
      </trkpt>
      <trkpt lat="43.05828" lon="1.6577">
        <ele>369.39999389648</ele>
        <time>2025-08-06T14:36:05.000Z</time>
      </trkpt>
      <trkpt lat="43.05807" lon="1.65762">
        <ele>369.60000610352</ele>
        <time>2025-08-06T14:36:13.000Z</time>
      </trkpt>
      <trkpt lat="43.05796" lon="1.65759">
        <ele>369.79998779297</ele>
        <time>2025-08-06T14:36:17.000Z</time>
      </trkpt>
      <trkpt lat="43.05785" lon="1.65758">
        <ele>369.79998779297</ele>
        <time>2025-08-06T14:36:21.000Z</time>
      </trkpt>
      <trkpt lat="43.0576" lon="1.65762">
        <ele>370.39999389648</ele>
        <time>2025-08-06T14:36:30.000Z</time>
      </trkpt>
      <trkpt lat="43.05752" lon="1.65762">
        <ele>370.79998779297</ele>
        <time>2025-08-06T14:36:33.000Z</time>
      </trkpt>
      <trkpt lat="43.05742" lon="1.65759">
        <ele>371.39999389648</ele>
        <time>2025-08-06T14:36:38.000Z</time>
      </trkpt>
      <trkpt lat="43.05739" lon="1.65757">
        <ele>371.79998779297</ele>
        <time>2025-08-06T14:36:40.000Z</time>
      </trkpt>
      <trkpt lat="43.05736" lon="1.65754">
        <ele>372.20001220703</ele>
        <time>2025-08-06T14:36:42.000Z</time>
      </trkpt>
      <trkpt lat="43.05731" lon="1.6575">
        <ele>373</ele>
        <time>2025-08-06T14:36:45.000Z</time>
      </trkpt>
      <trkpt lat="43.05723" lon="1.65746">
        <ele>374</ele>
        <time>2025-08-06T14:36:49.000Z</time>
      </trkpt>
      <trkpt lat="43.05721" lon="1.65744">
        <ele>374.20001220703</ele>
        <time>2025-08-06T14:36:50.000Z</time>
      </trkpt>
      <trkpt lat="43.05716" lon="1.6574">
        <ele>375.20001220703</ele>
        <time>2025-08-06T14:36:54.000Z</time>
      </trkpt>
      <trkpt lat="43.05712" lon="1.65736">
        <ele>375.39999389648</ele>
        <time>2025-08-06T14:36:57.000Z</time>
      </trkpt>
      <trkpt lat="43.05707" lon="1.65739">
        <ele>375.60000610352</ele>
        <time>2025-08-06T14:37:00.000Z</time>
      </trkpt>
      <trkpt lat="43.05706" lon="1.65739">
        <ele>375.79998779297</ele>
        <time>2025-08-06T14:37:01.000Z</time>
      </trkpt>
      <trkpt lat="43.05697" lon="1.65738">
        <ele>376</ele>
        <time>2025-08-06T14:37:05.000Z</time>
      </trkpt>
      <trkpt lat="43.0569" lon="1.65734">
        <ele>376</ele>
        <time>2025-08-06T14:37:07.000Z</time>
      </trkpt>
      <trkpt lat="43.05673" lon="1.65714">
        <ele>375.60000610352</ele>
        <time>2025-08-06T14:37:12.000Z</time>
      </trkpt>
      <trkpt lat="43.05657" lon="1.65683">
        <ele>375</ele>
        <time>2025-08-06T14:37:16.000Z</time>
      </trkpt>
      <trkpt lat="43.05654" lon="1.65676">
        <ele>374.79998779297</ele>
        <time>2025-08-06T14:37:17.000Z</time>
      </trkpt>
      <trkpt lat="43.05644" lon="1.65648">
        <ele>374</ele>
        <time>2025-08-06T14:37:20.000Z</time>
      </trkpt>
      <trkpt lat="43.05631" lon="1.65611">
        <ele>372.79998779297</ele>
        <time>2025-08-06T14:37:24.000Z</time>
      </trkpt>
      <trkpt lat="43.05621" lon="1.65586">
        <ele>371.79998779297</ele>
        <time>2025-08-06T14:37:27.000Z</time>
      </trkpt>
      <trkpt lat="43.05608" lon="1.65563">
        <ele>371</ele>
        <time>2025-08-06T14:37:30.000Z</time>
      </trkpt>
      <trkpt lat="43.05603" lon="1.65555">
        <ele>370.79998779297</ele>
        <time>2025-08-06T14:37:31.000Z</time>
      </trkpt>
      <trkpt lat="43.05577" lon="1.65522">
        <ele>369.79998779297</ele>
        <time>2025-08-06T14:37:36.000Z</time>
      </trkpt>
      <trkpt lat="43.0557" lon="1.65513">
        <ele>369.60000610352</ele>
        <time>2025-08-06T14:37:37.000Z</time>
      </trkpt>
      <trkpt lat="43.05544" lon="1.65478">
        <ele>368.60000610352</ele>
        <time>2025-08-06T14:37:42.000Z</time>
      </trkpt>
      <trkpt lat="43.05538" lon="1.65468">
        <ele>368.20001220703</ele>
        <time>2025-08-06T14:37:43.000Z</time>
      </trkpt>
      <trkpt lat="43.05533" lon="1.65459">
        <ele>367.79998779297</ele>
        <time>2025-08-06T14:37:44.000Z</time>
      </trkpt>
      <trkpt lat="43.05529" lon="1.65452">
        <ele>367.39999389648</ele>
        <time>2025-08-06T14:37:45.000Z</time>
      </trkpt>
      <trkpt lat="43.05521" lon="1.65431">
        <ele>366.79998779297</ele>
        <time>2025-08-06T14:37:47.000Z</time>
      </trkpt>
      <trkpt lat="43.05513" lon="1.65402">
        <ele>366</ele>
        <time>2025-08-06T14:37:50.000Z</time>
      </trkpt>
      <trkpt lat="43.05503" lon="1.65355">
        <ele>365.39999389648</ele>
        <time>2025-08-06T14:37:55.000Z</time>
      </trkpt>
      <trkpt lat="43.0549" lon="1.65298">
        <ele>365</ele>
        <time>2025-08-06T14:38:02.000Z</time>
      </trkpt>
      <trkpt lat="43.05488" lon="1.6529">
        <ele>365</ele>
        <time>2025-08-06T14:38:03.000Z</time>
      </trkpt>
      <trkpt lat="43.05477" lon="1.65246">
        <ele>364.79998779297</ele>
        <time>2025-08-06T14:38:09.000Z</time>
      </trkpt>
      <trkpt lat="43.05464" lon="1.65211">
        <ele>364.60000610352</ele>
        <time>2025-08-06T14:38:15.000Z</time>
      </trkpt>
      <trkpt lat="43.0545" lon="1.65171">
        <ele>364.60000610352</ele>
        <time>2025-08-06T14:38:23.000Z</time>
      </trkpt>
      <trkpt lat="43.05434" lon="1.65136">
        <ele>364.39999389648</ele>
        <time>2025-08-06T14:38:30.000Z</time>
      </trkpt>
      <trkpt lat="43.05432" lon="1.65132">
        <ele>364.39999389648</ele>
        <time>2025-08-06T14:38:31.000Z</time>
      </trkpt>
      <trkpt lat="43.05409" lon="1.65084">
        <ele>364.39999389648</ele>
        <time>2025-08-06T14:38:41.000Z</time>
      </trkpt>
      <trkpt lat="43.05382" lon="1.65044">
        <ele>364.60000610352</ele>
        <time>2025-08-06T14:38:51.000Z</time>
      </trkpt>
      <trkpt lat="43.0538" lon="1.65038">
        <ele>364.60000610352</ele>
        <time>2025-08-06T14:38:52.000Z</time>
      </trkpt>
      <trkpt lat="43.05373" lon="1.65008">
        <ele>364.60000610352</ele>
        <time>2025-08-06T14:38:58.000Z</time>
      </trkpt>
      <trkpt lat="43.05369" lon="1.64988">
        <ele>364.20001220703</ele>
        <time>2025-08-06T14:39:01.000Z</time>
      </trkpt>
      <trkpt lat="43.05364" lon="1.64967">
        <ele>363.39999389648</ele>
        <time>2025-08-06T14:39:04.000Z</time>
      </trkpt>
      <trkpt lat="43.05364" lon="1.64959">
        <ele>362.79998779297</ele>
        <time>2025-08-06T14:39:05.000Z</time>
      </trkpt>
      <trkpt lat="43.0536" lon="1.64923">
        <ele>361.79998779297</ele>
        <time>2025-08-06T14:39:10.000Z</time>
      </trkpt>
      <trkpt lat="43.05357" lon="1.64918">
        <ele>361.79998779297</ele>
        <time>2025-08-06T14:39:11.000Z</time>
      </trkpt>
      <trkpt lat="43.05349" lon="1.64889">
        <ele>361.60000610352</ele>
        <time>2025-08-06T14:39:17.000Z</time>
      </trkpt>
      <trkpt lat="43.0534" lon="1.6487">
        <ele>363</ele>
        <time>2025-08-06T14:39:23.000Z</time>
      </trkpt>
      <trkpt lat="43.05338" lon="1.64869">
        <ele>363.39999389648</ele>
        <time>2025-08-06T14:39:24.000Z</time>
      </trkpt>
      <trkpt lat="43.05333" lon="1.6487">
        <ele>364</ele>
        <time>2025-08-06T14:39:26.000Z</time>
      </trkpt>
      <trkpt lat="43.05332" lon="1.64872">
        <ele>364</ele>
        <time>2025-08-06T14:39:27.000Z</time>
      </trkpt>
      <trkpt lat="43.0533" lon="1.64886">
        <ele>364.39999389648</ele>
        <time>2025-08-06T14:39:30.000Z</time>
      </trkpt>
      <trkpt lat="43.05323" lon="1.64917">
        <ele>365</ele>
        <time>2025-08-06T14:39:37.000Z</time>
      </trkpt>
      <trkpt lat="43.0532" lon="1.64921">
        <ele>365</ele>
        <time>2025-08-06T14:39:38.000Z</time>
      </trkpt>
      <trkpt lat="43.05314" lon="1.64924">
        <ele>365</ele>
        <time>2025-08-06T14:39:40.000Z</time>
      </trkpt>
      <trkpt lat="43.05302" lon="1.64917">
        <ele>365.39999389648</ele>
        <time>2025-08-06T14:39:44.000Z</time>
      </trkpt>
      <trkpt lat="43.05291" lon="1.64892">
        <ele>365.79998779297</ele>
        <time>2025-08-06T14:39:51.000Z</time>
      </trkpt>
      <trkpt lat="43.05283" lon="1.64866">
        <ele>366</ele>
        <time>2025-08-06T14:39:57.000Z</time>
      </trkpt>
      <trkpt lat="43.0528" lon="1.64861">
        <ele>366</ele>
        <time>2025-08-06T14:39:58.000Z</time>
      </trkpt>
      <trkpt lat="43.05263" lon="1.64829">
        <ele>366</ele>
        <time>2025-08-06T14:40:06.000Z</time>
      </trkpt>
      <trkpt lat="43.05246" lon="1.64799">
        <ele>366.20001220703</ele>
        <time>2025-08-06T14:40:14.000Z</time>
      </trkpt>
      <trkpt lat="43.05237" lon="1.64777">
        <ele>366.60000610352</ele>
        <time>2025-08-06T14:40:19.000Z</time>
      </trkpt>
      <trkpt lat="43.0523" lon="1.64749">
        <ele>367.20001220703</ele>
        <time>2025-08-06T14:40:25.000Z</time>
      </trkpt>
      <trkpt lat="43.05224" lon="1.64737">
        <ele>367.20001220703</ele>
        <time>2025-08-06T14:40:28.000Z</time>
      </trkpt>
      <trkpt lat="43.05211" lon="1.64689">
        <ele>367.60000610352</ele>
        <time>2025-08-06T14:40:38.000Z</time>
      </trkpt>
      <trkpt lat="43.05199" lon="1.64652">
        <ele>367.60000610352</ele>
        <time>2025-08-06T14:40:47.000Z</time>
      </trkpt>
      <trkpt lat="43.0519" lon="1.64619">
        <ele>367.79998779297</ele>
        <time>2025-08-06T14:40:56.000Z</time>
      </trkpt>
      <trkpt lat="43.05183" lon="1.64594">
        <ele>367.60000610352</ele>
        <time>2025-08-06T14:41:03.000Z</time>
      </trkpt>
      <trkpt lat="43.05174" lon="1.64557">
        <ele>367.60000610352</ele>
        <time>2025-08-06T14:41:12.000Z</time>
      </trkpt>
      <trkpt lat="43.05165" lon="1.64519">
        <ele>367.39999389648</ele>
        <time>2025-08-06T14:41:20.000Z</time>
      </trkpt>
      <trkpt lat="43.05156" lon="1.64484">
        <ele>367.39999389648</ele>
        <time>2025-08-06T14:41:27.000Z</time>
      </trkpt>
      <trkpt lat="43.05149" lon="1.6445">
        <ele>367.20001220703</ele>
        <time>2025-08-06T14:41:34.000Z</time>
      </trkpt>
      <trkpt lat="43.05146" lon="1.64397">
        <ele>366.79998779297</ele>
        <time>2025-08-06T14:41:44.000Z</time>
      </trkpt>
      <trkpt lat="43.05138" lon="1.64388">
        <ele>366.60000610352</ele>
        <time>2025-08-06T14:41:47.000Z</time>
      </trkpt>
      <trkpt lat="43.05119" lon="1.64388">
        <ele>366.60000610352</ele>
        <time>2025-08-06T14:41:52.000Z</time>
      </trkpt>
      <trkpt lat="43.05089" lon="1.64391">
        <ele>366.60000610352</ele>
        <time>2025-08-06T14:42:00.000Z</time>
      </trkpt>
      <trkpt lat="43.05069" lon="1.64391">
        <ele>366.60000610352</ele>
        <time>2025-08-06T14:42:07.000Z</time>
      </trkpt>
      <trkpt lat="43.0505" lon="1.64392">
        <ele>366.79998779297</ele>
        <time>2025-08-06T14:42:15.000Z</time>
      </trkpt>
      <trkpt lat="43.05032" lon="1.64391">
        <ele>366.79998779297</ele>
        <time>2025-08-06T14:42:21.000Z</time>
      </trkpt>
      <trkpt lat="43.05013" lon="1.64386">
        <ele>367</ele>
        <time>2025-08-06T14:42:28.000Z</time>
      </trkpt>
      <trkpt lat="43.04992" lon="1.64381">
        <ele>367.39999389648</ele>
        <time>2025-08-06T14:42:35.000Z</time>
      </trkpt>
      <trkpt lat="43.04974" lon="1.64373">
        <ele>367.79998779297</ele>
        <time>2025-08-06T14:42:41.000Z</time>
      </trkpt>
      <trkpt lat="43.04965" lon="1.6437">
        <ele>367.79998779297</ele>
        <time>2025-08-06T14:42:44.000Z</time>
      </trkpt>
      <trkpt lat="43.0495" lon="1.64367">
        <ele>368.20001220703</ele>
        <time>2025-08-06T14:42:49.000Z</time>
      </trkpt>
      <trkpt lat="43.04944" lon="1.64365">
        <ele>368.39999389648</ele>
        <time>2025-08-06T14:42:51.000Z</time>
      </trkpt>
      <trkpt lat="43.0492" lon="1.64357">
        <ele>368.79998779297</ele>
        <time>2025-08-06T14:42:59.000Z</time>
      </trkpt>
      <trkpt lat="43.04903" lon="1.64352">
        <ele>368.79998779297</ele>
        <time>2025-08-06T14:43:05.000Z</time>
      </trkpt>
      <trkpt lat="43.04881" lon="1.64343">
        <ele>369.20001220703</ele>
        <time>2025-08-06T14:43:13.000Z</time>
      </trkpt>
      <trkpt lat="43.04875" lon="1.64341">
        <ele>369.20001220703</ele>
        <time>2025-08-06T14:43:15.000Z</time>
      </trkpt>
      <trkpt lat="43.04855" lon="1.6433">
        <ele>369.60000610352</ele>
        <time>2025-08-06T14:43:22.000Z</time>
      </trkpt>
      <trkpt lat="43.04827" lon="1.64317">
        <ele>370.20001220703</ele>
        <time>2025-08-06T14:43:30.000Z</time>
      </trkpt>
      <trkpt lat="43.04803" lon="1.64302">
        <ele>370.20001220703</ele>
        <time>2025-08-06T14:43:38.000Z</time>
      </trkpt>
      <trkpt lat="43.04777" lon="1.64285">
        <ele>370.39999389648</ele>
        <time>2025-08-06T14:43:47.000Z</time>
      </trkpt>
      <trkpt lat="43.04762" lon="1.64281">
        <ele>370.39999389648</ele>
        <time>2025-08-06T14:43:52.000Z</time>
      </trkpt>
      <trkpt lat="43.04756" lon="1.64284">
        <ele>370.39999389648</ele>
        <time>2025-08-06T14:43:57.000Z</time>
      </trkpt>
      <trkpt lat="43.04758" lon="1.6429">
        <ele>370.39999389648</ele>
        <time>2025-08-06T14:44:01.000Z</time>
      </trkpt>
      <trkpt lat="43.04761" lon="1.64295">
        <ele>370.39999389648</ele>
        <time>2025-08-06T14:44:04.000Z</time>
      </trkpt>
      <trkpt lat="43.04761" lon="1.64296">
        <ele>370.39999389648</ele>
        <time>2025-08-06T14:44:05.000Z</time>
      </trkpt>
      <trkpt lat="43.0476" lon="1.643">
        <ele>370.39999389648</ele>
        <time>2025-08-06T14:44:07.000Z</time>
      </trkpt>
      <trkpt lat="43.04759" lon="1.64304">
        <ele>370.60000610352</ele>
        <time>2025-08-06T14:44:09.000Z</time>
      </trkpt>
      <trkpt lat="43.04758" lon="1.64308">
        <ele>370.60000610352</ele>
        <time>2025-08-06T14:44:11.000Z</time>
      </trkpt>
      <trkpt lat="43.04757" lon="1.64318">
        <ele>370.79998779297</ele>
        <time>2025-08-06T14:44:15.000Z</time>
      </trkpt>
      <trkpt lat="43.04757" lon="1.64335">
        <ele>370.79998779297</ele>
        <time>2025-08-06T14:44:20.000Z</time>
      </trkpt>
      <trkpt lat="43.04758" lon="1.64351">
        <ele>370.79998779297</ele>
        <time>2025-08-06T14:44:25.000Z</time>
      </trkpt>
      <trkpt lat="43.04757" lon="1.64381">
        <ele>371</ele>
        <time>2025-08-06T14:44:34.000Z</time>
      </trkpt>
      <trkpt lat="43.04751" lon="1.6439">
        <ele>371</ele>
        <time>2025-08-06T14:44:38.000Z</time>
      </trkpt>
      <trkpt lat="43.04739" lon="1.64384">
        <ele>370.79998779297</ele>
        <time>2025-08-06T14:44:43.000Z</time>
      </trkpt>
      <trkpt lat="43.04717" lon="1.64367">
        <ele>370.60000610352</ele>
        <time>2025-08-06T14:44:53.000Z</time>
      </trkpt>
      <trkpt lat="43.047" lon="1.64355">
        <ele>370.60000610352</ele>
        <time>2025-08-06T14:45:00.000Z</time>
      </trkpt>
      <trkpt lat="43.04675" lon="1.64335">
        <ele>370.79998779297</ele>
        <time>2025-08-06T14:45:10.000Z</time>
      </trkpt>
      <trkpt lat="43.04646" lon="1.64314">
        <ele>371.20001220703</ele>
        <time>2025-08-06T14:45:21.000Z</time>
      </trkpt>
      <trkpt lat="43.04629" lon="1.64303">
        <ele>371.20001220703</ele>
        <time>2025-08-06T14:45:27.000Z</time>
      </trkpt>
      <trkpt lat="43.04608" lon="1.64289">
        <ele>371.60000610352</ele>
        <time>2025-08-06T14:45:35.000Z</time>
      </trkpt>
      <trkpt lat="43.04605" lon="1.64288">
        <ele>371.60000610352</ele>
        <time>2025-08-06T14:45:36.000Z</time>
      </trkpt>
      <trkpt lat="43.04594" lon="1.6428">
        <ele>371.79998779297</ele>
        <time>2025-08-06T14:45:40.000Z</time>
      </trkpt>
      <trkpt lat="43.04587" lon="1.64274">
        <ele>371.79998779297</ele>
        <time>2025-08-06T14:45:43.000Z</time>
      </trkpt>
      <trkpt lat="43.04562" lon="1.64258">
        <ele>371.79998779297</ele>
        <time>2025-08-06T14:45:52.000Z</time>
      </trkpt>
      <trkpt lat="43.04534" lon="1.64239">
        <ele>372</ele>
        <time>2025-08-06T14:46:02.000Z</time>
      </trkpt>
      <trkpt lat="43.04511" lon="1.64221">
        <ele>372</ele>
        <time>2025-08-06T14:46:10.000Z</time>
      </trkpt>
      <trkpt lat="43.04487" lon="1.64194">
        <ele>372.39999389648</ele>
        <time>2025-08-06T14:46:19.000Z</time>
      </trkpt>
      <trkpt lat="43.04472" lon="1.64173">
        <ele>372.60000610352</ele>
        <time>2025-08-06T14:46:25.000Z</time>
      </trkpt>
      <trkpt lat="43.0446" lon="1.64157">
        <ele>372.79998779297</ele>
        <time>2025-08-06T14:46:30.000Z</time>
      </trkpt>
      <trkpt lat="43.04453" lon="1.64148">
        <ele>372.79998779297</ele>
        <time>2025-08-06T14:46:33.000Z</time>
      </trkpt>
      <trkpt lat="43.04433" lon="1.64121">
        <ele>373</ele>
        <time>2025-08-06T14:46:41.000Z</time>
      </trkpt>
      <trkpt lat="43.04412" lon="1.64094">
        <ele>373.39999389648</ele>
        <time>2025-08-06T14:46:49.000Z</time>
      </trkpt>
      <trkpt lat="43.04398" lon="1.64077">
        <ele>373.79998779297</ele>
        <time>2025-08-06T14:46:54.000Z</time>
      </trkpt>
      <trkpt lat="43.04396" lon="1.64074">
        <ele>373.79998779297</ele>
        <time>2025-08-06T14:46:55.000Z</time>
      </trkpt>
      <trkpt lat="43.04378" lon="1.64054">
        <ele>373.79998779297</ele>
        <time>2025-08-06T14:47:01.000Z</time>
      </trkpt>
      <trkpt lat="43.04364" lon="1.64038">
        <ele>373.79998779297</ele>
        <time>2025-08-06T14:47:07.000Z</time>
      </trkpt>
      <trkpt lat="43.04352" lon="1.64024">
        <ele>374</ele>
        <time>2025-08-06T14:47:13.000Z</time>
      </trkpt>
      <trkpt lat="43.04334" lon="1.64007">
        <ele>374</ele>
        <time>2025-08-06T14:47:20.000Z</time>
      </trkpt>
      <trkpt lat="43.04318" lon="1.63986">
        <ele>374.20001220703</ele>
        <time>2025-08-06T14:47:26.000Z</time>
      </trkpt>
      <trkpt lat="43.04288" lon="1.63951">
        <ele>374.60000610352</ele>
        <time>2025-08-06T14:47:36.000Z</time>
      </trkpt>
      <trkpt lat="43.0426" lon="1.6392">
        <ele>374.60000610352</ele>
        <time>2025-08-06T14:47:45.000Z</time>
      </trkpt>
      <trkpt lat="43.04257" lon="1.63917">
        <ele>374.79998779297</ele>
        <time>2025-08-06T14:47:46.000Z</time>
      </trkpt>
      <trkpt lat="43.04238" lon="1.63891">
        <ele>375</ele>
        <time>2025-08-06T14:47:53.000Z</time>
      </trkpt>
      <trkpt lat="43.04217" lon="1.63864">
        <ele>375.20001220703</ele>
        <time>2025-08-06T14:48:00.000Z</time>
      </trkpt>
      <trkpt lat="43.04198" lon="1.63836">
        <ele>375.60000610352</ele>
        <time>2025-08-06T14:48:07.000Z</time>
      </trkpt>
      <trkpt lat="43.04189" lon="1.63827">
        <ele>375.79998779297</ele>
        <time>2025-08-06T14:48:10.000Z</time>
      </trkpt>
      <trkpt lat="43.04174" lon="1.6381">
        <ele>376.20001220703</ele>
        <time>2025-08-06T14:48:15.000Z</time>
      </trkpt>
      <trkpt lat="43.04145" lon="1.63784">
        <ele>376.20001220703</ele>
        <time>2025-08-06T14:48:23.000Z</time>
      </trkpt>
      <trkpt lat="43.04115" lon="1.63762">
        <ele>376.20001220703</ele>
        <time>2025-08-06T14:48:31.000Z</time>
      </trkpt>
      <trkpt lat="43.04107" lon="1.63751">
        <ele>376.20001220703</ele>
        <time>2025-08-06T14:48:34.000Z</time>
      </trkpt>
      <trkpt lat="43.04103" lon="1.63744">
        <ele>376.20001220703</ele>
        <time>2025-08-06T14:48:36.000Z</time>
      </trkpt>
      <trkpt lat="43.04091" lon="1.63712">
        <ele>376.60000610352</ele>
        <time>2025-08-06T14:48:43.000Z</time>
      </trkpt>
      <trkpt lat="43.04085" lon="1.63692">
        <ele>376.79998779297</ele>
        <time>2025-08-06T14:48:47.000Z</time>
      </trkpt>
      <trkpt lat="43.04075" lon="1.63662">
        <ele>377.20001220703</ele>
        <time>2025-08-06T14:48:53.000Z</time>
      </trkpt>
      <trkpt lat="43.04061" lon="1.63613">
        <ele>377.39999389648</ele>
        <time>2025-08-06T14:49:03.000Z</time>
      </trkpt>
      <trkpt lat="43.04056" lon="1.63576">
        <ele>377.60000610352</ele>
        <time>2025-08-06T14:49:10.000Z</time>
      </trkpt>
      <trkpt lat="43.04056" lon="1.6356">
        <ele>378</ele>
        <time>2025-08-06T14:49:14.000Z</time>
      </trkpt>
      <trkpt lat="43.04058" lon="1.6355">
        <ele>378.20001220703</ele>
        <time>2025-08-06T14:49:17.000Z</time>
      </trkpt>
      <trkpt lat="43.04063" lon="1.63535">
        <ele>379</ele>
        <time>2025-08-06T14:49:22.000Z</time>
      </trkpt>
      <trkpt lat="43.04064" lon="1.63532">
        <ele>379</ele>
        <time>2025-08-06T14:49:23.000Z</time>
      </trkpt>
      <trkpt lat="43.04079" lon="1.63521">
        <ele>379.20001220703</ele>
        <time>2025-08-06T14:49:28.000Z</time>
      </trkpt>
      <trkpt lat="43.04102" lon="1.63504">
        <ele>378.60000610352</ele>
        <time>2025-08-06T14:49:33.000Z</time>
      </trkpt>
      <trkpt lat="43.04115" lon="1.63486">
        <ele>377.79998779297</ele>
        <time>2025-08-06T14:49:36.000Z</time>
      </trkpt>
      <trkpt lat="43.04123" lon="1.63473">
        <ele>377.60000610352</ele>
        <time>2025-08-06T14:49:38.000Z</time>
      </trkpt>
      <trkpt lat="43.04151" lon="1.63427">
        <ele>376.79998779297</ele>
        <time>2025-08-06T14:49:45.000Z</time>
      </trkpt>
      <trkpt lat="43.04181" lon="1.63382">
        <ele>375.60000610352</ele>
        <time>2025-08-06T14:49:52.000Z</time>
      </trkpt>
      <trkpt lat="43.04208" lon="1.63344">
        <ele>374.39999389648</ele>
        <time>2025-08-06T14:49:58.000Z</time>
      </trkpt>
      <trkpt lat="43.0422" lon="1.63321">
        <ele>373.79998779297</ele>
        <time>2025-08-06T14:50:01.000Z</time>
      </trkpt>
      <trkpt lat="43.04224" lon="1.63313">
        <ele>373.39999389648</ele>
        <time>2025-08-06T14:50:02.000Z</time>
      </trkpt>
      <trkpt lat="43.04242" lon="1.63274">
        <ele>372.39999389648</ele>
        <time>2025-08-06T14:50:07.000Z</time>
      </trkpt>
      <trkpt lat="43.04248" lon="1.63261">
        <ele>371.60000610352</ele>
        <time>2025-08-06T14:50:09.000Z</time>
      </trkpt>
      <trkpt lat="43.04254" lon="1.63249">
        <ele>371.20001220703</ele>
        <time>2025-08-06T14:50:11.000Z</time>
      </trkpt>
      <trkpt lat="43.04262" lon="1.63234">
        <ele>371</ele>
        <time>2025-08-06T14:50:14.000Z</time>
      </trkpt>
      <trkpt lat="43.04268" lon="1.63224">
        <ele>370.39999389648</ele>
        <time>2025-08-06T14:50:18.000Z</time>
      </trkpt>
      <trkpt lat="43.04269" lon="1.6322">
        <ele>369.60000610352</ele>
        <time>2025-08-06T14:50:22.000Z</time>
      </trkpt>
      <trkpt lat="43.04272" lon="1.63216">
        <ele>368.79998779297</ele>
        <time>2025-08-06T14:50:44.000Z</time>
      </trkpt>
      <trkpt lat="43.04281" lon="1.63199">
        <ele>368.79998779297</ele>
        <time>2025-08-06T14:50:49.000Z</time>
      </trkpt>
      <trkpt lat="43.04296" lon="1.63169">
        <ele>368.79998779297</ele>
        <time>2025-08-06T14:50:55.000Z</time>
      </trkpt>
      <trkpt lat="43.043" lon="1.63159">
        <ele>368.79998779297</ele>
        <time>2025-08-06T14:50:57.000Z</time>
      </trkpt>
      <trkpt lat="43.04299" lon="1.63147">
        <ele>368.60000610352</ele>
        <time>2025-08-06T14:50:59.000Z</time>
      </trkpt>
      <trkpt lat="43.04293" lon="1.63138">
        <ele>368.39999389648</ele>
        <time>2025-08-06T14:51:01.000Z</time>
      </trkpt>
      <trkpt lat="43.04289" lon="1.63128">
        <ele>368.39999389648</ele>
        <time>2025-08-06T14:51:03.000Z</time>
      </trkpt>
      <trkpt lat="43.04288" lon="1.63123">
        <ele>368.39999389648</ele>
        <time>2025-08-06T14:51:04.000Z</time>
      </trkpt>
      <trkpt lat="43.04285" lon="1.63114">
        <ele>368.20001220703</ele>
        <time>2025-08-06T14:51:08.000Z</time>
      </trkpt>
      <trkpt lat="43.04285" lon="1.63114">
        <ele>368.20001220703</ele>
        <time>2025-08-06T14:51:09.000Z</time>
      </trkpt>
      <trkpt lat="43.04278" lon="1.63094">
        <ele>367.39999389648</ele>
        <time>2025-08-06T14:53:01.000Z</time>
      </trkpt>
      <trkpt lat="43.04276" lon="1.6309">
        <ele>367.60000610352</ele>
        <time>2025-08-06T14:53:03.000Z</time>
      </trkpt>
      <trkpt lat="43.0427" lon="1.63073">
        <ele>367.60000610352</ele>
        <time>2025-08-06T14:53:10.000Z</time>
      </trkpt>
      <trkpt lat="43.04265" lon="1.63057">
        <ele>368</ele>
        <time>2025-08-06T14:53:16.000Z</time>
      </trkpt>
      <trkpt lat="43.04257" lon="1.63028">
        <ele>368.39999389648</ele>
        <time>2025-08-06T14:53:24.000Z</time>
      </trkpt>
      <trkpt lat="43.04248" lon="1.63002">
        <ele>368.39999389648</ele>
        <time>2025-08-06T14:53:31.000Z</time>
      </trkpt>
      <trkpt lat="43.04241" lon="1.62977">
        <ele>368.39999389648</ele>
        <time>2025-08-06T14:53:38.000Z</time>
      </trkpt>
      <trkpt lat="43.04241" lon="1.62974">
        <ele>368.60000610352</ele>
        <time>2025-08-06T14:53:39.000Z</time>
      </trkpt>
      <trkpt lat="43.04237" lon="1.62961">
        <ele>368.60000610352</ele>
        <time>2025-08-06T14:53:43.000Z</time>
      </trkpt>
      <trkpt lat="43.0423" lon="1.62942">
        <ele>368.60000610352</ele>
        <time>2025-08-06T14:53:49.000Z</time>
      </trkpt>
      <trkpt lat="43.04226" lon="1.62927">
        <ele>368.79998779297</ele>
        <time>2025-08-06T14:53:55.000Z</time>
      </trkpt>
      <trkpt lat="43.04226" lon="1.62927">
        <ele>368.60000610352</ele>
        <time>2025-08-06T14:53:58.000Z</time>
      </trkpt>
      <trkpt lat="43.04229" lon="1.62937">
        <ele>368.39999389648</ele>
        <time>2025-08-06T14:55:20.000Z</time>
      </trkpt>
      <trkpt lat="43.0423" lon="1.62942">
        <ele>368.39999389648</ele>
        <time>2025-08-06T14:55:21.000Z</time>
      </trkpt>
      <trkpt lat="43.04237" lon="1.62967">
        <ele>368.39999389648</ele>
        <time>2025-08-06T14:55:26.000Z</time>
      </trkpt>
      <trkpt lat="43.04244" lon="1.62996">
        <ele>368.79998779297</ele>
        <time>2025-08-06T14:55:32.000Z</time>
      </trkpt>
      <trkpt lat="43.04255" lon="1.63033">
        <ele>368.79998779297</ele>
        <time>2025-08-06T14:55:39.000Z</time>
      </trkpt>
      <trkpt lat="43.04263" lon="1.63055">
        <ele>368.79998779297</ele>
        <time>2025-08-06T14:55:43.000Z</time>
      </trkpt>
      <trkpt lat="43.04271" lon="1.63078">
        <ele>368.79998779297</ele>
        <time>2025-08-06T14:55:47.000Z</time>
      </trkpt>
      <trkpt lat="43.04285" lon="1.63123">
        <ele>368.60000610352</ele>
        <time>2025-08-06T14:55:55.000Z</time>
      </trkpt>
      <trkpt lat="43.04292" lon="1.63145">
        <ele>368.60000610352</ele>
        <time>2025-08-06T14:55:59.000Z</time>
      </trkpt>
      <trkpt lat="43.04296" lon="1.63152">
        <ele>368.60000610352</ele>
        <time>2025-08-06T14:56:01.000Z</time>
      </trkpt>
      <trkpt lat="43.04299" lon="1.63155">
        <ele>368.60000610352</ele>
        <time>2025-08-06T14:56:04.000Z</time>
      </trkpt>
      <trkpt lat="43.04299" lon="1.63155">
        <ele>368.60000610352</ele>
        <time>2025-08-06T14:56:05.000Z</time>
      </trkpt>
      <trkpt lat="43.04305" lon="1.63155">
        <ele>368.20001220703</ele>
        <time>2025-08-06T14:56:25.000Z</time>
      </trkpt>
      <trkpt lat="43.04311" lon="1.6315">
        <ele>368.20001220703</ele>
        <time>2025-08-06T14:56:27.000Z</time>
      </trkpt>
      <trkpt lat="43.04315" lon="1.63145">
        <ele>368.20001220703</ele>
        <time>2025-08-06T14:56:28.000Z</time>
      </trkpt>
      <trkpt lat="43.04323" lon="1.63131">
        <ele>368.20001220703</ele>
        <time>2025-08-06T14:56:31.000Z</time>
      </trkpt>
      <trkpt lat="43.04328" lon="1.63122">
        <ele>368.20001220703</ele>
        <time>2025-08-06T14:56:33.000Z</time>
      </trkpt>
      <trkpt lat="43.0434" lon="1.63098">
        <ele>368.20001220703</ele>
        <time>2025-08-06T14:56:38.000Z</time>
      </trkpt>
      <trkpt lat="43.04359" lon="1.63055">
        <ele>368</ele>
        <time>2025-08-06T14:56:46.000Z</time>
      </trkpt>
      <trkpt lat="43.04375" lon="1.63019">
        <ele>367.79998779297</ele>
        <time>2025-08-06T14:56:53.000Z</time>
      </trkpt>
      <trkpt lat="43.04384" lon="1.63">
        <ele>367.39999389648</ele>
        <time>2025-08-06T14:56:57.000Z</time>
      </trkpt>
      <trkpt lat="43.04393" lon="1.6298">
        <ele>367.20001220703</ele>
        <time>2025-08-06T14:57:01.000Z</time>
      </trkpt>
      <trkpt lat="43.04397" lon="1.62972">
        <ele>367</ele>
        <time>2025-08-06T14:57:03.000Z</time>
      </trkpt>
      <trkpt lat="43.04403" lon="1.6296">
        <ele>366.60000610352</ele>
        <time>2025-08-06T14:57:07.000Z</time>
      </trkpt>
      <trkpt lat="43.04408" lon="1.62952">
        <ele>366.39999389648</ele>
        <time>2025-08-06T14:57:09.000Z</time>
      </trkpt>
      <trkpt lat="43.04419" lon="1.62943">
        <ele>366.20001220703</ele>
        <time>2025-08-06T14:57:12.000Z</time>
      </trkpt>
      <trkpt lat="43.04454" lon="1.62914">
        <ele>365.79998779297</ele>
        <time>2025-08-06T14:57:20.000Z</time>
      </trkpt>
      <trkpt lat="43.04475" lon="1.62895">
        <ele>365.39999389648</ele>
        <time>2025-08-06T14:57:25.000Z</time>
      </trkpt>
      <trkpt lat="43.04483" lon="1.62888">
        <ele>365.20001220703</ele>
        <time>2025-08-06T14:57:27.000Z</time>
      </trkpt>
      <trkpt lat="43.04509" lon="1.62867">
        <ele>365</ele>
        <time>2025-08-06T14:57:33.000Z</time>
      </trkpt>
      <trkpt lat="43.04514" lon="1.62863">
        <ele>364.79998779297</ele>
        <time>2025-08-06T14:57:34.000Z</time>
      </trkpt>
      <trkpt lat="43.04533" lon="1.62848">
        <ele>364.60000610352</ele>
        <time>2025-08-06T14:57:39.000Z</time>
      </trkpt>
      <trkpt lat="43.0454" lon="1.62844">
        <ele>364.39999389648</ele>
        <time>2025-08-06T14:57:43.000Z</time>
      </trkpt>
      <trkpt lat="43.04542" lon="1.62845">
        <ele>364.39999389648</ele>
        <time>2025-08-06T14:57:44.000Z</time>
      </trkpt>
      <trkpt lat="43.04543" lon="1.62847">
        <ele>364.39999389648</ele>
        <time>2025-08-06T14:57:45.000Z</time>
      </trkpt>
      <trkpt lat="43.04548" lon="1.62857">
        <ele>364.20001220703</ele>
        <time>2025-08-06T14:57:48.000Z</time>
      </trkpt>
      <trkpt lat="43.04557" lon="1.62881">
        <ele>363.60000610352</ele>
        <time>2025-08-06T14:57:53.000Z</time>
      </trkpt>
      <trkpt lat="43.0456" lon="1.62886">
        <ele>363.79998779297</ele>
        <time>2025-08-06T14:57:54.000Z</time>
      </trkpt>
      <trkpt lat="43.04566" lon="1.62912">
        <ele>363.60000610352</ele>
        <time>2025-08-06T14:57:59.000Z</time>
      </trkpt>
      <trkpt lat="43.04568" lon="1.62954">
        <ele>363.60000610352</ele>
        <time>2025-08-06T14:58:07.000Z</time>
      </trkpt>
      <trkpt lat="43.04571" lon="1.62978">
        <ele>363.79998779297</ele>
        <time>2025-08-06T14:58:12.000Z</time>
      </trkpt>
      <trkpt lat="43.04563" lon="1.63003">
        <ele>363.79998779297</ele>
        <time>2025-08-06T14:58:18.000Z</time>
      </trkpt>
      <trkpt lat="43.0455" lon="1.63037">
        <ele>364</ele>
        <time>2025-08-06T14:58:25.000Z</time>
      </trkpt>
      <trkpt lat="43.04541" lon="1.63071">
        <ele>364</ele>
        <time>2025-08-06T14:58:32.000Z</time>
      </trkpt>
      <trkpt lat="43.04535" lon="1.631">
        <ele>363.79998779297</ele>
        <time>2025-08-06T14:58:38.000Z</time>
      </trkpt>
      <trkpt lat="43.0453" lon="1.63124">
        <ele>363.79998779297</ele>
        <time>2025-08-06T14:58:43.000Z</time>
      </trkpt>
      <trkpt lat="43.04534" lon="1.63149">
        <ele>363.39999389648</ele>
        <time>2025-08-06T14:58:48.000Z</time>
      </trkpt>
      <trkpt lat="43.04542" lon="1.63191">
        <ele>363.39999389648</ele>
        <time>2025-08-06T14:58:56.000Z</time>
      </trkpt>
      <trkpt lat="43.04548" lon="1.63222">
        <ele>363.79998779297</ele>
        <time>2025-08-06T14:59:03.000Z</time>
      </trkpt>
      <trkpt lat="43.04551" lon="1.63259">
        <ele>363.60000610352</ele>
        <time>2025-08-06T14:59:11.000Z</time>
      </trkpt>
      <trkpt lat="43.0455" lon="1.63297">
        <ele>363.79998779297</ele>
        <time>2025-08-06T14:59:18.000Z</time>
      </trkpt>
      <trkpt lat="43.0455" lon="1.6331">
        <ele>363.79998779297</ele>
        <time>2025-08-06T14:59:21.000Z</time>
      </trkpt>
      <trkpt lat="43.04547" lon="1.63312">
        <ele>363.79998779297</ele>
        <time>2025-08-06T14:59:23.000Z</time>
      </trkpt>
      <trkpt lat="43.04546" lon="1.63311">
        <ele>363.79998779297</ele>
        <time>2025-08-06T14:59:27.000Z</time>
      </trkpt>
      <trkpt lat="43.04545" lon="1.63306">
        <ele>363.60000610352</ele>
        <time>2025-08-06T14:59:34.000Z</time>
      </trkpt>
      <trkpt lat="43.04542" lon="1.63304">
        <ele>363.60000610352</ele>
        <time>2025-08-06T14:59:36.000Z</time>
      </trkpt>
      <trkpt lat="43.04528" lon="1.63305">
        <ele>363.39999389648</ele>
        <time>2025-08-06T14:59:41.000Z</time>
      </trkpt>
      <trkpt lat="43.04525" lon="1.63305">
        <ele>363.39999389648</ele>
        <time>2025-08-06T14:59:42.000Z</time>
      </trkpt>
      <trkpt lat="43.04511" lon="1.63306">
        <ele>363.39999389648</ele>
        <time>2025-08-06T14:59:47.000Z</time>
      </trkpt>
      <trkpt lat="43.04501" lon="1.63308">
        <ele>363.60000610352</ele>
        <time>2025-08-06T14:59:52.000Z</time>
      </trkpt>
      <trkpt lat="43.04496" lon="1.63306">
        <ele>364</ele>
        <time>2025-08-06T14:59:56.000Z</time>
      </trkpt>
      <trkpt lat="43.04495" lon="1.63305">
        <ele>364</ele>
        <time>2025-08-06T14:59:57.000Z</time>
      </trkpt>
      <trkpt lat="43.04495" lon="1.63302">
        <ele>364</ele>
        <time>2025-08-06T14:59:59.000Z</time>
      </trkpt>
      <trkpt lat="43.04495" lon="1.633">
        <ele>364</ele>
        <time>2025-08-06T15:00:00.000Z</time>
      </trkpt>
      <trkpt lat="43.04494" lon="1.633">
        <ele>364</ele>
        <time>2025-08-06T15:00:03.000Z</time>
      </trkpt>
      <trkpt lat="43.04494" lon="1.633">
        <ele>364</ele>
        <time>2025-08-06T15:00:04.000Z</time>
      </trkpt>
      <trkpt lat="43.04501" lon="1.63299">
        <ele>364.20001220703</ele>
        <time>2025-08-06T15:13:32.000Z</time>
      </trkpt>
      <trkpt lat="43.04506" lon="1.63301">
        <ele>364.20001220703</ele>
        <time>2025-08-06T15:13:34.000Z</time>
      </trkpt>
      <trkpt lat="43.04523" lon="1.63307">
        <ele>364</ele>
        <time>2025-08-06T15:13:39.000Z</time>
      </trkpt>
      <trkpt lat="43.04542" lon="1.63302">
        <ele>363.60000610352</ele>
        <time>2025-08-06T15:13:44.000Z</time>
      </trkpt>
      <trkpt lat="43.04551" lon="1.63298">
        <ele>363.39999389648</ele>
        <time>2025-08-06T15:13:48.000Z</time>
      </trkpt>
      <trkpt lat="43.04552" lon="1.63295">
        <ele>363.39999389648</ele>
        <time>2025-08-06T15:13:49.000Z</time>
      </trkpt>
      <trkpt lat="43.04552" lon="1.63278">
        <ele>363.20001220703</ele>
        <time>2025-08-06T15:13:53.000Z</time>
      </trkpt>
      <trkpt lat="43.04553" lon="1.63244">
        <ele>363.20001220703</ele>
        <time>2025-08-06T15:14:00.000Z</time>
      </trkpt>
      <trkpt lat="43.04549" lon="1.63216">
        <ele>363.20001220703</ele>
        <time>2025-08-06T15:14:06.000Z</time>
      </trkpt>
      <trkpt lat="43.04541" lon="1.63183">
        <ele>363</ele>
        <time>2025-08-06T15:14:13.000Z</time>
      </trkpt>
      <trkpt lat="43.04536" lon="1.63153">
        <ele>363.20001220703</ele>
        <time>2025-08-06T15:14:19.000Z</time>
      </trkpt>
      <trkpt lat="43.04533" lon="1.63118">
        <ele>363.39999389648</ele>
        <time>2025-08-06T15:14:26.000Z</time>
      </trkpt>
      <trkpt lat="43.04537" lon="1.63087">
        <ele>363.20001220703</ele>
        <time>2025-08-06T15:14:32.000Z</time>
      </trkpt>
      <trkpt lat="43.04547" lon="1.6305">
        <ele>363.39999389648</ele>
        <time>2025-08-06T15:14:40.000Z</time>
      </trkpt>
      <trkpt lat="43.04561" lon="1.63013">
        <ele>363.39999389648</ele>
        <time>2025-08-06T15:14:48.000Z</time>
      </trkpt>
      <trkpt lat="43.04573" lon="1.62979">
        <ele>363.20001220703</ele>
        <time>2025-08-06T15:14:56.000Z</time>
      </trkpt>
      <trkpt lat="43.04572" lon="1.62962">
        <ele>363.20001220703</ele>
        <time>2025-08-06T15:15:00.000Z</time>
      </trkpt>
      <trkpt lat="43.04569" lon="1.62926">
        <ele>363.20001220703</ele>
        <time>2025-08-06T15:15:07.000Z</time>
      </trkpt>
      <trkpt lat="43.04571" lon="1.62916">
        <ele>363.20001220703</ele>
        <time>2025-08-06T15:15:09.000Z</time>
      </trkpt>
      <trkpt lat="43.04572" lon="1.62912">
        <ele>363</ele>
        <time>2025-08-06T15:15:10.000Z</time>
      </trkpt>
      <trkpt lat="43.04572" lon="1.62907">
        <ele>363</ele>
        <time>2025-08-06T15:15:11.000Z</time>
      </trkpt>
      <trkpt lat="43.04569" lon="1.62898">
        <ele>363</ele>
        <time>2025-08-06T15:15:13.000Z</time>
      </trkpt>
      <trkpt lat="43.04549" lon="1.62847">
        <ele>363</ele>
        <time>2025-08-06T15:15:23.000Z</time>
      </trkpt>
      <trkpt lat="43.04531" lon="1.6281">
        <ele>363.20001220703</ele>
        <time>2025-08-06T15:15:31.000Z</time>
      </trkpt>
      <trkpt lat="43.04511" lon="1.62772">
        <ele>363.20001220703</ele>
        <time>2025-08-06T15:15:39.000Z</time>
      </trkpt>
      <trkpt lat="43.04493" lon="1.62735">
        <ele>363.20001220703</ele>
        <time>2025-08-06T15:15:47.000Z</time>
      </trkpt>
      <trkpt lat="43.0449" lon="1.62715">
        <ele>363.39999389648</ele>
        <time>2025-08-06T15:15:51.000Z</time>
      </trkpt>
      <trkpt lat="43.04492" lon="1.62711">
        <ele>363.39999389648</ele>
        <time>2025-08-06T15:15:52.000Z</time>
      </trkpt>
      <trkpt lat="43.04499" lon="1.62705">
        <ele>363.39999389648</ele>
        <time>2025-08-06T15:15:54.000Z</time>
      </trkpt>
      <trkpt lat="43.04512" lon="1.62691">
        <ele>363.20001220703</ele>
        <time>2025-08-06T15:15:59.000Z</time>
      </trkpt>
      <trkpt lat="43.04512" lon="1.62687">
        <ele>363.20001220703</ele>
        <time>2025-08-06T15:16:00.000Z</time>
      </trkpt>
      <trkpt lat="43.04511" lon="1.62684">
        <ele>363.20001220703</ele>
        <time>2025-08-06T15:16:01.000Z</time>
      </trkpt>
      <trkpt lat="43.04506" lon="1.62674">
        <ele>363.20001220703</ele>
        <time>2025-08-06T15:16:04.000Z</time>
      </trkpt>
      <trkpt lat="43.04495" lon="1.62652">
        <ele>363.20001220703</ele>
        <time>2025-08-06T15:16:10.000Z</time>
      </trkpt>
      <trkpt lat="43.04485" lon="1.62632">
        <ele>363.60000610352</ele>
        <time>2025-08-06T15:16:14.000Z</time>
      </trkpt>
      <trkpt lat="43.04482" lon="1.62622">
        <ele>363.79998779297</ele>
        <time>2025-08-06T15:16:15.000Z</time>
      </trkpt>
      <trkpt lat="43.0447" lon="1.62604">
        <ele>364.20001220703</ele>
        <time>2025-08-06T15:16:20.000Z</time>
      </trkpt>
      <trkpt lat="43.04467" lon="1.626">
        <ele>364.20001220703</ele>
        <time>2025-08-06T15:16:21.000Z</time>
      </trkpt>
      <trkpt lat="43.04451" lon="1.62588">
        <ele>364.60000610352</ele>
        <time>2025-08-06T15:16:26.000Z</time>
      </trkpt>
      <trkpt lat="43.04424" lon="1.62573">
        <ele>364.79998779297</ele>
        <time>2025-08-06T15:16:33.000Z</time>
      </trkpt>
      <trkpt lat="43.04378" lon="1.62549">
        <ele>365.20001220703</ele>
        <time>2025-08-06T15:16:44.000Z</time>
      </trkpt>
      <trkpt lat="43.04362" lon="1.62541">
        <ele>365.20001220703</ele>
        <time>2025-08-06T15:16:48.000Z</time>
      </trkpt>
      <trkpt lat="43.04335" lon="1.6253">
        <ele>365.39999389648</ele>
        <time>2025-08-06T15:16:54.000Z</time>
      </trkpt>
      <trkpt lat="43.04302" lon="1.62515">
        <ele>366</ele>
        <time>2025-08-06T15:17:02.000Z</time>
      </trkpt>
      <trkpt lat="43.04258" lon="1.62492">
        <ele>366.20001220703</ele>
        <time>2025-08-06T15:17:12.000Z</time>
      </trkpt>
      <trkpt lat="43.04249" lon="1.62488">
        <ele>366.20001220703</ele>
        <time>2025-08-06T15:17:14.000Z</time>
      </trkpt>
      <trkpt lat="43.0422" lon="1.62473">
        <ele>366.60000610352</ele>
        <time>2025-08-06T15:17:21.000Z</time>
      </trkpt>
      <trkpt lat="43.04184" lon="1.62454">
        <ele>366.60000610352</ele>
        <time>2025-08-06T15:17:30.000Z</time>
      </trkpt>
      <trkpt lat="43.04157" lon="1.6244">
        <ele>367</ele>
        <time>2025-08-06T15:17:37.000Z</time>
      </trkpt>
      <trkpt lat="43.04146" lon="1.62434">
        <ele>367</ele>
        <time>2025-08-06T15:17:40.000Z</time>
      </trkpt>
      <trkpt lat="43.04127" lon="1.62425">
        <ele>367</ele>
        <time>2025-08-06T15:17:45.000Z</time>
      </trkpt>
      <trkpt lat="43.04123" lon="1.62423">
        <ele>367</ele>
        <time>2025-08-06T15:17:46.000Z</time>
      </trkpt>
      <trkpt lat="43.04103" lon="1.62413">
        <ele>367.20001220703</ele>
        <time>2025-08-06T15:17:51.000Z</time>
      </trkpt>
      <trkpt lat="43.04095" lon="1.62409">
        <ele>367.20001220703</ele>
        <time>2025-08-06T15:17:53.000Z</time>
      </trkpt>
      <trkpt lat="43.04091" lon="1.62408">
        <ele>367.39999389648</ele>
        <time>2025-08-06T15:17:54.000Z</time>
      </trkpt>
      <trkpt lat="43.04084" lon="1.62403">
        <ele>367.39999389648</ele>
        <time>2025-08-06T15:17:56.000Z</time>
      </trkpt>
      <trkpt lat="43.04064" lon="1.62394">
        <ele>367.60000610352</ele>
        <time>2025-08-06T15:18:01.000Z</time>
      </trkpt>
      <trkpt lat="43.04045" lon="1.62386">
        <ele>367.60000610352</ele>
        <time>2025-08-06T15:18:06.000Z</time>
      </trkpt>
      <trkpt lat="43.04035" lon="1.62379">
        <ele>367.79998779297</ele>
        <time>2025-08-06T15:18:09.000Z</time>
      </trkpt>
      <trkpt lat="43.04017" lon="1.62369">
        <ele>368</ele>
        <time>2025-08-06T15:18:14.000Z</time>
      </trkpt>
      <trkpt lat="43.04006" lon="1.62363">
        <ele>368.39999389648</ele>
        <time>2025-08-06T15:18:17.000Z</time>
      </trkpt>
      <trkpt lat="43.03996" lon="1.62358">
        <ele>368.60000610352</ele>
        <time>2025-08-06T15:18:20.000Z</time>
      </trkpt>
      <trkpt lat="43.03965" lon="1.62343">
        <ele>369.39999389648</ele>
        <time>2025-08-06T15:18:29.000Z</time>
      </trkpt>
      <trkpt lat="43.03937" lon="1.62327">
        <ele>369.60000610352</ele>
        <time>2025-08-06T15:18:36.000Z</time>
      </trkpt>
      <trkpt lat="43.039" lon="1.62307">
        <ele>369.60000610352</ele>
        <time>2025-08-06T15:18:45.000Z</time>
      </trkpt>
      <trkpt lat="43.03865" lon="1.62289">
        <ele>369.60000610352</ele>
        <time>2025-08-06T15:18:54.000Z</time>
      </trkpt>
      <trkpt lat="43.0383" lon="1.62272">
        <ele>369.79998779297</ele>
        <time>2025-08-06T15:19:03.000Z</time>
      </trkpt>
      <trkpt lat="43.03798" lon="1.62257">
        <ele>370</ele>
        <time>2025-08-06T15:19:11.000Z</time>
      </trkpt>
      <trkpt lat="43.03783" lon="1.62249">
        <ele>370</ele>
        <time>2025-08-06T15:19:15.000Z</time>
      </trkpt>
      <trkpt lat="43.03775" lon="1.62246">
        <ele>370</ele>
        <time>2025-08-06T15:19:17.000Z</time>
      </trkpt>
      <trkpt lat="43.03749" lon="1.62232">
        <ele>370.39999389648</ele>
        <time>2025-08-06T15:19:24.000Z</time>
      </trkpt>
      <trkpt lat="43.03745" lon="1.62231">
        <ele>370.60000610352</ele>
        <time>2025-08-06T15:19:25.000Z</time>
      </trkpt>
      <trkpt lat="43.03741" lon="1.62228">
        <ele>370.60000610352</ele>
        <time>2025-08-06T15:19:26.000Z</time>
      </trkpt>
      <trkpt lat="43.03721" lon="1.6222">
        <ele>371</ele>
        <time>2025-08-06T15:19:31.000Z</time>
      </trkpt>
      <trkpt lat="43.03717" lon="1.62218">
        <ele>371.20001220703</ele>
        <time>2025-08-06T15:19:32.000Z</time>
      </trkpt>
      <trkpt lat="43.03691" lon="1.62204">
        <ele>371.39999389648</ele>
        <time>2025-08-06T15:19:39.000Z</time>
      </trkpt>
      <trkpt lat="43.03689" lon="1.62202">
        <ele>371.60000610352</ele>
        <time>2025-08-06T15:19:40.000Z</time>
      </trkpt>
      <trkpt lat="43.03687" lon="1.622">
        <ele>371.60000610352</ele>
        <time>2025-08-06T15:19:41.000Z</time>
      </trkpt>
      <trkpt lat="43.03687" lon="1.622">
        <ele>371.60000610352</ele>
        <time>2025-08-06T15:19:43.000Z</time>
      </trkpt>
      <trkpt lat="43.03687" lon="1.622">
        <ele>371.60000610352</ele>
        <time>2025-08-06T15:19:44.000Z</time>
      </trkpt>
      <trkpt lat="43.03686" lon="1.62208">
        <ele>372</ele>
        <time>2025-08-06T15:20:49.000Z</time>
      </trkpt>
      <trkpt lat="43.0369" lon="1.62211">
        <ele>372</ele>
        <time>2025-08-06T15:20:51.000Z</time>
      </trkpt>
      <trkpt lat="43.03697" lon="1.62215">
        <ele>372</ele>
        <time>2025-08-06T15:20:54.000Z</time>
      </trkpt>
      <trkpt lat="43.03701" lon="1.62213">
        <ele>372</ele>
        <time>2025-08-06T15:20:56.000Z</time>
      </trkpt>
      <trkpt lat="43.0371" lon="1.622">
        <ele>372</ele>
        <time>2025-08-06T15:21:01.000Z</time>
      </trkpt>
      <trkpt lat="43.03715" lon="1.62185">
        <ele>372</ele>
        <time>2025-08-06T15:21:06.000Z</time>
      </trkpt>
      <trkpt lat="43.0372" lon="1.62171">
        <ele>372</ele>
        <time>2025-08-06T15:21:10.000Z</time>
      </trkpt>
      <trkpt lat="43.0372" lon="1.62166">
        <ele>371.79998779297</ele>
        <time>2025-08-06T15:21:11.000Z</time>
      </trkpt>
      <trkpt lat="43.03708" lon="1.62142">
        <ele>371.60000610352</ele>
        <time>2025-08-06T15:21:18.000Z</time>
      </trkpt>
      <trkpt lat="43.03698" lon="1.62125">
        <ele>371.60000610352</ele>
        <time>2025-08-06T15:21:24.000Z</time>
      </trkpt>
      <trkpt lat="43.03698" lon="1.62113">
        <ele>371.60000610352</ele>
        <time>2025-08-06T15:21:28.000Z</time>
      </trkpt>
      <trkpt lat="43.03706" lon="1.62094">
        <ele>371.39999389648</ele>
        <time>2025-08-06T15:21:34.000Z</time>
      </trkpt>
      <trkpt lat="43.03716" lon="1.62073">
        <ele>371.20001220703</ele>
        <time>2025-08-06T15:21:39.000Z</time>
      </trkpt>
      <trkpt lat="43.03727" lon="1.62048">
        <ele>370.20001220703</ele>
        <time>2025-08-06T15:21:44.000Z</time>
      </trkpt>
      <trkpt lat="43.03728" lon="1.62046">
        <ele>370.20001220703</ele>
        <time>2025-08-06T15:21:45.000Z</time>
      </trkpt>
      <trkpt lat="43.0373" lon="1.62041">
        <ele>369.20001220703</ele>
        <time>2025-08-06T15:21:49.000Z</time>
      </trkpt>
      <trkpt lat="43.03731" lon="1.6204">
        <ele>369</ele>
        <time>2025-08-06T15:21:50.000Z</time>
      </trkpt>
      <trkpt lat="43.03735" lon="1.6203">
        <ele>368.60000610352</ele>
        <time>2025-08-06T15:21:54.000Z</time>
      </trkpt>
      <trkpt lat="43.03745" lon="1.62008">
        <ele>368.20001220703</ele>
        <time>2025-08-06T15:22:02.000Z</time>
      </trkpt>
      <trkpt lat="43.03746" lon="1.62005">
        <ele>368.20001220703</ele>
        <time>2025-08-06T15:22:03.000Z</time>
      </trkpt>
      <trkpt lat="43.03751" lon="1.61982">
        <ele>368.20001220703</ele>
        <time>2025-08-06T15:22:10.000Z</time>
      </trkpt>
      <trkpt lat="43.03744" lon="1.61965">
        <ele>368.39999389648</ele>
        <time>2025-08-06T15:22:15.000Z</time>
      </trkpt>
      <trkpt lat="43.03727" lon="1.61938">
        <ele>368.39999389648</ele>
        <time>2025-08-06T15:22:22.000Z</time>
      </trkpt>
      <trkpt lat="43.03715" lon="1.61914">
        <ele>368.79998779297</ele>
        <time>2025-08-06T15:22:28.000Z</time>
      </trkpt>
      <trkpt lat="43.03705" lon="1.61885">
        <ele>369</ele>
        <time>2025-08-06T15:22:35.000Z</time>
      </trkpt>
      <trkpt lat="43.03698" lon="1.61865">
        <ele>369.20001220703</ele>
        <time>2025-08-06T15:22:40.000Z</time>
      </trkpt>
      <trkpt lat="43.03687" lon="1.6183">
        <ele>369.20001220703</ele>
        <time>2025-08-06T15:22:46.000Z</time>
      </trkpt>
      <trkpt lat="43.03686" lon="1.61824">
        <ele>369.20001220703</ele>
        <time>2025-08-06T15:22:47.000Z</time>
      </trkpt>
      <trkpt lat="43.03677" lon="1.61789">
        <ele>369.39999389648</ele>
        <time>2025-08-06T15:22:53.000Z</time>
      </trkpt>
      <trkpt lat="43.03665" lon="1.61741">
        <ele>369.79998779297</ele>
        <time>2025-08-06T15:23:02.000Z</time>
      </trkpt>
      <trkpt lat="43.03656" lon="1.61712">
        <ele>370.20001220703</ele>
        <time>2025-08-06T15:23:08.000Z</time>
      </trkpt>
      <trkpt lat="43.03654" lon="1.61709">
        <ele>370.20001220703</ele>
        <time>2025-08-06T15:23:09.000Z</time>
      </trkpt>
      <trkpt lat="43.03644" lon="1.61701">
        <ele>370.60000610352</ele>
        <time>2025-08-06T15:23:13.000Z</time>
      </trkpt>
      <trkpt lat="43.03631" lon="1.61685">
        <ele>371.20001220703</ele>
        <time>2025-08-06T15:23:18.000Z</time>
      </trkpt>
      <trkpt lat="43.03627" lon="1.61677">
        <ele>371.39999389648</ele>
        <time>2025-08-06T15:23:20.000Z</time>
      </trkpt>
      <trkpt lat="43.03625" lon="1.61674">
        <ele>371.60000610352</ele>
        <time>2025-08-06T15:23:21.000Z</time>
      </trkpt>
      <trkpt lat="43.0362" lon="1.61671">
        <ele>371.79998779297</ele>
        <time>2025-08-06T15:23:23.000Z</time>
      </trkpt>
      <trkpt lat="43.03615" lon="1.61673">
        <ele>372</ele>
        <time>2025-08-06T15:23:26.000Z</time>
      </trkpt>
      <trkpt lat="43.03614" lon="1.61674">
        <ele>372</ele>
        <time>2025-08-06T15:23:27.000Z</time>
      </trkpt>
      <trkpt lat="43.03612" lon="1.61678">
        <ele>372</ele>
        <time>2025-08-06T15:23:30.000Z</time>
      </trkpt>
      <trkpt lat="43.03614" lon="1.61679">
        <ele>372.20001220703</ele>
        <time>2025-08-06T15:23:32.000Z</time>
      </trkpt>
      <trkpt lat="43.03616" lon="1.61675">
        <ele>372.20001220703</ele>
        <time>2025-08-06T15:23:36.000Z</time>
      </trkpt>
      <trkpt lat="43.0362" lon="1.61671">
        <ele>372</ele>
        <time>2025-08-06T15:23:49.000Z</time>
      </trkpt>
      <trkpt lat="43.03621" lon="1.61667">
        <ele>371.79998779297</ele>
        <time>2025-08-06T15:23:51.000Z</time>
      </trkpt>
      <trkpt lat="43.03621" lon="1.61664">
        <ele>371.60000610352</ele>
        <time>2025-08-06T15:23:56.000Z</time>
      </trkpt>
      <trkpt lat="43.03621" lon="1.61658">
        <ele>371.39999389648</ele>
        <time>2025-08-06T15:24:00.000Z</time>
      </trkpt>
      <trkpt lat="43.03621" lon="1.61656">
        <ele>371.20001220703</ele>
        <time>2025-08-06T15:24:01.000Z</time>
      </trkpt>
      <trkpt lat="43.03618" lon="1.61634">
        <ele>371</ele>
        <time>2025-08-06T15:24:07.000Z</time>
      </trkpt>
      <trkpt lat="43.03617" lon="1.61602">
        <ele>370.79998779297</ele>
        <time>2025-08-06T15:24:14.000Z</time>
      </trkpt>
      <trkpt lat="43.03616" lon="1.61577">
        <ele>370.60000610352</ele>
        <time>2025-08-06T15:24:20.000Z</time>
      </trkpt>
      <trkpt lat="43.03614" lon="1.61569">
        <ele>370.39999389648</ele>
        <time>2025-08-06T15:24:22.000Z</time>
      </trkpt>
      <trkpt lat="43.03607" lon="1.61554">
        <ele>370.39999389648</ele>
        <time>2025-08-06T15:24:26.000Z</time>
      </trkpt>
      <trkpt lat="43.03601" lon="1.6153">
        <ele>369.79998779297</ele>
        <time>2025-08-06T15:24:31.000Z</time>
      </trkpt>
      <trkpt lat="43.03593" lon="1.61497">
        <ele>369.79998779297</ele>
        <time>2025-08-06T15:24:38.000Z</time>
      </trkpt>
      <trkpt lat="43.03583" lon="1.61469">
        <ele>369.79998779297</ele>
        <time>2025-08-06T15:24:44.000Z</time>
      </trkpt>
      <trkpt lat="43.03571" lon="1.61441">
        <ele>370</ele>
        <time>2025-08-06T15:24:49.000Z</time>
      </trkpt>
      <trkpt lat="43.03559" lon="1.61412">
        <ele>370.20001220703</ele>
        <time>2025-08-06T15:24:55.000Z</time>
      </trkpt>
      <trkpt lat="43.03545" lon="1.61382">
        <ele>370.60000610352</ele>
        <time>2025-08-06T15:25:02.000Z</time>
      </trkpt>
      <trkpt lat="43.03521" lon="1.61332">
        <ele>371</ele>
        <time>2025-08-06T15:25:13.000Z</time>
      </trkpt>
      <trkpt lat="43.03497" lon="1.61283">
        <ele>371.60000610352</ele>
        <time>2025-08-06T15:25:24.000Z</time>
      </trkpt>
      <trkpt lat="43.03485" lon="1.61261">
        <ele>371.60000610352</ele>
        <time>2025-08-06T15:25:29.000Z</time>
      </trkpt>
      <trkpt lat="43.03468" lon="1.61234">
        <ele>371.79998779297</ele>
        <time>2025-08-06T15:25:36.000Z</time>
      </trkpt>
      <trkpt lat="43.03455" lon="1.61216">
        <ele>372</ele>
        <time>2025-08-06T15:25:42.000Z</time>
      </trkpt>
      <trkpt lat="43.03438" lon="1.61193">
        <ele>372</ele>
        <time>2025-08-06T15:25:49.000Z</time>
      </trkpt>
      <trkpt lat="43.03425" lon="1.61178">
        <ele>372.20001220703</ele>
        <time>2025-08-06T15:25:54.000Z</time>
      </trkpt>
      <trkpt lat="43.03395" lon="1.61135">
        <ele>372.20001220703</ele>
        <time>2025-08-06T15:26:06.000Z</time>
      </trkpt>
      <trkpt lat="43.03375" lon="1.61106">
        <ele>372.39999389648</ele>
        <time>2025-08-06T15:26:14.000Z</time>
      </trkpt>
      <trkpt lat="43.03365" lon="1.61093">
        <ele>372.79998779297</ele>
        <time>2025-08-06T15:26:18.000Z</time>
      </trkpt>
      <trkpt lat="43.03354" lon="1.61076">
        <ele>373</ele>
        <time>2025-08-06T15:26:23.000Z</time>
      </trkpt>
      <trkpt lat="43.03335" lon="1.61047">
        <ele>373.20001220703</ele>
        <time>2025-08-06T15:26:31.000Z</time>
      </trkpt>
      <trkpt lat="43.03318" lon="1.61021">
        <ele>373.39999389648</ele>
        <time>2025-08-06T15:26:39.000Z</time>
      </trkpt>
      <trkpt lat="43.03304" lon="1.60997">
        <ele>373.60000610352</ele>
        <time>2025-08-06T15:26:46.000Z</time>
      </trkpt>
      <trkpt lat="43.03301" lon="1.6099">
        <ele>373.79998779297</ele>
        <time>2025-08-06T15:26:48.000Z</time>
      </trkpt>
      <trkpt lat="43.03292" lon="1.60976">
        <ele>374</ele>
        <time>2025-08-06T15:26:52.000Z</time>
      </trkpt>
      <trkpt lat="43.03275" lon="1.60961">
        <ele>374.39999389648</ele>
        <time>2025-08-06T15:26:58.000Z</time>
      </trkpt>
      <trkpt lat="43.03256" lon="1.60948">
        <ele>374.79998779297</ele>
        <time>2025-08-06T15:27:04.000Z</time>
      </trkpt>
      <trkpt lat="43.03237" lon="1.60938">
        <ele>375.60000610352</ele>
        <time>2025-08-06T15:27:11.000Z</time>
      </trkpt>
      <trkpt lat="43.03231" lon="1.60936">
        <ele>375.79998779297</ele>
        <time>2025-08-06T15:27:13.000Z</time>
      </trkpt>
      <trkpt lat="43.03213" lon="1.60926">
        <ele>376.39999389648</ele>
        <time>2025-08-06T15:27:19.000Z</time>
      </trkpt>
      <trkpt lat="43.0319" lon="1.60912">
        <ele>376.60000610352</ele>
        <time>2025-08-06T15:27:27.000Z</time>
      </trkpt>
      <trkpt lat="43.03177" lon="1.60906">
        <ele>377</ele>
        <time>2025-08-06T15:27:31.000Z</time>
      </trkpt>
      <trkpt lat="43.03171" lon="1.60903">
        <ele>377</ele>
        <time>2025-08-06T15:27:33.000Z</time>
      </trkpt>
      <trkpt lat="43.03152" lon="1.60895">
        <ele>377.20001220703</ele>
        <time>2025-08-06T15:27:39.000Z</time>
      </trkpt>
      <trkpt lat="43.03128" lon="1.60886">
        <ele>377.39999389648</ele>
        <time>2025-08-06T15:27:46.000Z</time>
      </trkpt>
      <trkpt lat="43.03102" lon="1.60877">
        <ele>377.60000610352</ele>
        <time>2025-08-06T15:27:53.000Z</time>
      </trkpt>
      <trkpt lat="43.03073" lon="1.60869">
        <ele>377.39999389648</ele>
        <time>2025-08-06T15:28:01.000Z</time>
      </trkpt>
      <trkpt lat="43.03054" lon="1.60863">
        <ele>377.39999389648</ele>
        <time>2025-08-06T15:28:06.000Z</time>
      </trkpt>
      <trkpt lat="43.0302" lon="1.60853">
        <ele>377.60000610352</ele>
        <time>2025-08-06T15:28:15.000Z</time>
      </trkpt>
      <trkpt lat="43.03002" lon="1.60853">
        <ele>377.60000610352</ele>
        <time>2025-08-06T15:28:20.000Z</time>
      </trkpt>
      <trkpt lat="43.02971" lon="1.60863">
        <ele>377.60000610352</ele>
        <time>2025-08-06T15:28:28.000Z</time>
      </trkpt>
      <trkpt lat="43.0294" lon="1.60876">
        <ele>377.39999389648</ele>
        <time>2025-08-06T15:28:36.000Z</time>
      </trkpt>
      <trkpt lat="43.0292" lon="1.60878">
        <ele>377.20001220703</ele>
        <time>2025-08-06T15:28:42.000Z</time>
      </trkpt>
      <trkpt lat="43.02918" lon="1.60877">
        <ele>377</ele>
        <time>2025-08-06T15:28:46.000Z</time>
      </trkpt>
      <trkpt lat="43.02914" lon="1.60872">
        <ele>376.79998779297</ele>
        <time>2025-08-06T15:28:55.000Z</time>
      </trkpt>
      <trkpt lat="43.02913" lon="1.60865">
        <ele>376.60000610352</ele>
        <time>2025-08-06T15:28:57.000Z</time>
      </trkpt>
      <trkpt lat="43.0291" lon="1.60838">
        <ele>376.39999389648</ele>
        <time>2025-08-06T15:29:05.000Z</time>
      </trkpt>
      <trkpt lat="43.02906" lon="1.60802">
        <ele>376.39999389648</ele>
        <time>2025-08-06T15:29:14.000Z</time>
      </trkpt>
      <trkpt lat="43.02905" lon="1.60778">
        <ele>376.20001220703</ele>
        <time>2025-08-06T15:29:19.000Z</time>
      </trkpt>
      <trkpt lat="43.02902" lon="1.60744">
        <ele>376.20001220703</ele>
        <time>2025-08-06T15:29:26.000Z</time>
      </trkpt>
      <trkpt lat="43.029" lon="1.60713">
        <ele>376.39999389648</ele>
        <time>2025-08-06T15:29:31.000Z</time>
      </trkpt>
      <trkpt lat="43.02899" lon="1.60706">
        <ele>376.39999389648</ele>
        <time>2025-08-06T15:29:32.000Z</time>
      </trkpt>
      <trkpt lat="43.02897" lon="1.60681">
        <ele>376.39999389648</ele>
        <time>2025-08-06T15:29:36.000Z</time>
      </trkpt>
      <trkpt lat="43.02896" lon="1.60668">
        <ele>376.39999389648</ele>
        <time>2025-08-06T15:29:38.000Z</time>
      </trkpt>
      <trkpt lat="43.02891" lon="1.60642">
        <ele>376.20001220703</ele>
        <time>2025-08-06T15:29:42.000Z</time>
      </trkpt>
      <trkpt lat="43.02887" lon="1.60631">
        <ele>376.20001220703</ele>
        <time>2025-08-06T15:29:44.000Z</time>
      </trkpt>
      <trkpt lat="43.02885" lon="1.60626">
        <ele>376.20001220703</ele>
        <time>2025-08-06T15:29:45.000Z</time>
      </trkpt>
      <trkpt lat="43.02881" lon="1.60623">
        <ele>376.20001220703</ele>
        <time>2025-08-06T15:29:46.000Z</time>
      </trkpt>
      <trkpt lat="43.02869" lon="1.60614">
        <ele>376.20001220703</ele>
        <time>2025-08-06T15:29:49.000Z</time>
      </trkpt>
      <trkpt lat="43.02865" lon="1.60613">
        <ele>376.20001220703</ele>
        <time>2025-08-06T15:29:50.000Z</time>
      </trkpt>
      <trkpt lat="43.02854" lon="1.60609">
        <ele>376.39999389648</ele>
        <time>2025-08-06T15:29:53.000Z</time>
      </trkpt>
      <trkpt lat="43.02846" lon="1.60608">
        <ele>376.39999389648</ele>
        <time>2025-08-06T15:29:55.000Z</time>
      </trkpt>
      <trkpt lat="43.02842" lon="1.60608">
        <ele>376.60000610352</ele>
        <time>2025-08-06T15:29:56.000Z</time>
      </trkpt>
      <trkpt lat="43.02816" lon="1.60605">
        <ele>377.20001220703</ele>
        <time>2025-08-06T15:30:04.000Z</time>
      </trkpt>
      <trkpt lat="43.02799" lon="1.60607">
        <ele>378</ele>
        <time>2025-08-06T15:30:10.000Z</time>
      </trkpt>
      <trkpt lat="43.02783" lon="1.6061">
        <ele>378.60000610352</ele>
        <time>2025-08-06T15:30:16.000Z</time>
      </trkpt>
      <trkpt lat="43.02772" lon="1.6061">
        <ele>379.20001220703</ele>
        <time>2025-08-06T15:30:19.000Z</time>
      </trkpt>
      <trkpt lat="43.02747" lon="1.60608">
        <ele>379.79998779297</ele>
        <time>2025-08-06T15:30:26.000Z</time>
      </trkpt>
      <trkpt lat="43.02732" lon="1.60607">
        <ele>380.20001220703</ele>
        <time>2025-08-06T15:30:31.000Z</time>
      </trkpt>
      <trkpt lat="43.02719" lon="1.60607">
        <ele>380.60000610352</ele>
        <time>2025-08-06T15:30:35.000Z</time>
      </trkpt>
      <trkpt lat="43.02701" lon="1.60607">
        <ele>381.39999389648</ele>
        <time>2025-08-06T15:30:41.000Z</time>
      </trkpt>
      <trkpt lat="43.02692" lon="1.60606">
        <ele>381.79998779297</ele>
        <time>2025-08-06T15:30:44.000Z</time>
      </trkpt>
      <trkpt lat="43.0268" lon="1.60603">
        <ele>382.39999389648</ele>
        <time>2025-08-06T15:30:48.000Z</time>
      </trkpt>
      <trkpt lat="43.02674" lon="1.606">
        <ele>382.60000610352</ele>
        <time>2025-08-06T15:30:50.000Z</time>
      </trkpt>
      <trkpt lat="43.02654" lon="1.60587">
        <ele>383.60000610352</ele>
        <time>2025-08-06T15:30:57.000Z</time>
      </trkpt>
      <trkpt lat="43.02651" lon="1.60584">
        <ele>383.79998779297</ele>
        <time>2025-08-06T15:30:58.000Z</time>
      </trkpt>
      <trkpt lat="43.02632" lon="1.60562">
        <ele>384.60000610352</ele>
        <time>2025-08-06T15:31:06.000Z</time>
      </trkpt>
      <trkpt lat="43.02615" lon="1.6053">
        <ele>385.79998779297</ele>
        <time>2025-08-06T15:31:15.000Z</time>
      </trkpt>
      <trkpt lat="43.02613" lon="1.60527">
        <ele>385.79998779297</ele>
        <time>2025-08-06T15:31:16.000Z</time>
      </trkpt>
      <trkpt lat="43.02598" lon="1.60509">
        <ele>387</ele>
        <time>2025-08-06T15:31:23.000Z</time>
      </trkpt>
      <trkpt lat="43.02596" lon="1.60506">
        <ele>387</ele>
        <time>2025-08-06T15:31:24.000Z</time>
      </trkpt>
      <trkpt lat="43.02585" lon="1.60498">
        <ele>387.60000610352</ele>
        <time>2025-08-06T15:31:29.000Z</time>
      </trkpt>
      <trkpt lat="43.02585" lon="1.60497">
        <ele>387.60000610352</ele>
        <time>2025-08-06T15:31:32.000Z</time>
      </trkpt>
      <trkpt lat="43.02579" lon="1.60496">
        <ele>387.60000610352</ele>
        <time>2025-08-06T15:31:40.000Z</time>
      </trkpt>
      <trkpt lat="43.02577" lon="1.60499">
        <ele>387.60000610352</ele>
        <time>2025-08-06T15:31:45.000Z</time>
      </trkpt>
      <trkpt lat="43.02573" lon="1.60504">
        <ele>387</ele>
        <time>2025-08-06T15:33:03.000Z</time>
      </trkpt>
      <trkpt lat="43.02568" lon="1.60509">
        <ele>387</ele>
        <time>2025-08-06T15:33:05.000Z</time>
      </trkpt>
      <trkpt lat="43.02555" lon="1.60517">
        <ele>386.60000610352</ele>
        <time>2025-08-06T15:33:08.000Z</time>
      </trkpt>
      <trkpt lat="43.02549" lon="1.6052">
        <ele>386.39999389648</ele>
        <time>2025-08-06T15:33:09.000Z</time>
      </trkpt>
      <trkpt lat="43.02527" lon="1.6053">
        <ele>385.20001220703</ele>
        <time>2025-08-06T15:33:12.000Z</time>
      </trkpt>
      <trkpt lat="43.02518" lon="1.60533">
        <ele>384.39999389648</ele>
        <time>2025-08-06T15:33:13.000Z</time>
      </trkpt>
      <trkpt lat="43.02511" lon="1.60537">
        <ele>384.20001220703</ele>
        <time>2025-08-06T15:33:14.000Z</time>
      </trkpt>
      <trkpt lat="43.0249" lon="1.60548">
        <ele>382.39999389648</ele>
        <time>2025-08-06T15:33:17.000Z</time>
      </trkpt>
      <trkpt lat="43.02475" lon="1.60557">
        <ele>381.79998779297</ele>
        <time>2025-08-06T15:33:19.000Z</time>
      </trkpt>
      <trkpt lat="43.02463" lon="1.60567">
        <ele>381.39999389648</ele>
        <time>2025-08-06T15:33:21.000Z</time>
      </trkpt>
      <trkpt lat="43.02447" lon="1.60583">
        <ele>380.60000610352</ele>
        <time>2025-08-06T15:33:24.000Z</time>
      </trkpt>
      <trkpt lat="43.02438" lon="1.60593">
        <ele>380.20001220703</ele>
        <time>2025-08-06T15:33:26.000Z</time>
      </trkpt>
      <trkpt lat="43.02428" lon="1.60604">
        <ele>380.20001220703</ele>
        <time>2025-08-06T15:33:29.000Z</time>
      </trkpt>
      <trkpt lat="43.02409" lon="1.60622">
        <ele>380.39999389648</ele>
        <time>2025-08-06T15:33:35.000Z</time>
      </trkpt>
      <trkpt lat="43.0239" lon="1.60637">
        <ele>381</ele>
        <time>2025-08-06T15:33:42.000Z</time>
      </trkpt>
      <trkpt lat="43.02388" lon="1.60642">
        <ele>381.39999389648</ele>
        <time>2025-08-06T15:33:44.000Z</time>
      </trkpt>
      <trkpt lat="43.02383" lon="1.60648">
        <ele>381.60000610352</ele>
        <time>2025-08-06T15:33:47.000Z</time>
      </trkpt>
      <trkpt lat="43.02371" lon="1.60665">
        <ele>381.60000610352</ele>
        <time>2025-08-06T15:33:54.000Z</time>
      </trkpt>
      <trkpt lat="43.02356" lon="1.60681">
        <ele>381.39999389648</ele>
        <time>2025-08-06T15:34:01.000Z</time>
      </trkpt>
      <trkpt lat="43.0234" lon="1.60697">
        <ele>381.39999389648</ele>
        <time>2025-08-06T15:34:08.000Z</time>
      </trkpt>
      <trkpt lat="43.02329" lon="1.60708">
        <ele>381.39999389648</ele>
        <time>2025-08-06T15:34:13.000Z</time>
      </trkpt>
      <trkpt lat="43.02326" lon="1.6071">
        <ele>381.39999389648</ele>
        <time>2025-08-06T15:34:14.000Z</time>
      </trkpt>
      <trkpt lat="43.02304" lon="1.60732">
        <ele>381.39999389648</ele>
        <time>2025-08-06T15:34:24.000Z</time>
      </trkpt>
      <trkpt lat="43.02291" lon="1.60744">
        <ele>381.60000610352</ele>
        <time>2025-08-06T15:34:30.000Z</time>
      </trkpt>
      <trkpt lat="43.02275" lon="1.60755">
        <ele>381.79998779297</ele>
        <time>2025-08-06T15:34:37.000Z</time>
      </trkpt>
      <trkpt lat="43.02259" lon="1.60763">
        <ele>381.79998779297</ele>
        <time>2025-08-06T15:34:42.000Z</time>
      </trkpt>
      <trkpt lat="43.02245" lon="1.60769">
        <ele>381.60000610352</ele>
        <time>2025-08-06T15:34:47.000Z</time>
      </trkpt>
      <trkpt lat="43.02242" lon="1.6077">
        <ele>381.60000610352</ele>
        <time>2025-08-06T15:34:48.000Z</time>
      </trkpt>
      <trkpt lat="43.02229" lon="1.60773">
        <ele>381.39999389648</ele>
        <time>2025-08-06T15:34:52.000Z</time>
      </trkpt>
      <trkpt lat="43.02217" lon="1.60779">
        <ele>381.39999389648</ele>
        <time>2025-08-06T15:34:57.000Z</time>
      </trkpt>
      <trkpt lat="43.02201" lon="1.60783">
        <ele>381.60000610352</ele>
        <time>2025-08-06T15:35:03.000Z</time>
      </trkpt>
      <trkpt lat="43.0218" lon="1.60785">
        <ele>381.79998779297</ele>
        <time>2025-08-06T15:35:10.000Z</time>
      </trkpt>
      <trkpt lat="43.02166" lon="1.6079">
        <ele>381.79998779297</ele>
        <time>2025-08-06T15:35:16.000Z</time>
      </trkpt>
      <trkpt lat="43.02165" lon="1.60793">
        <ele>381.79998779297</ele>
        <time>2025-08-06T15:35:17.000Z</time>
      </trkpt>
      <trkpt lat="43.02168" lon="1.60815">
        <ele>381.60000610352</ele>
        <time>2025-08-06T15:35:21.000Z</time>
      </trkpt>
      <trkpt lat="43.02171" lon="1.60859">
        <ele>381</ele>
        <time>2025-08-06T15:35:29.000Z</time>
      </trkpt>
      <trkpt lat="43.02172" lon="1.60886">
        <ele>380.79998779297</ele>
        <time>2025-08-06T15:35:35.000Z</time>
      </trkpt>
      <trkpt lat="43.02169" lon="1.60931">
        <ele>381</ele>
        <time>2025-08-06T15:35:44.000Z</time>
      </trkpt>
      <trkpt lat="43.02165" lon="1.60945">
        <ele>381.60000610352</ele>
        <time>2025-08-06T15:35:49.000Z</time>
      </trkpt>
      <trkpt lat="43.02162" lon="1.6095">
        <ele>381.79998779297</ele>
        <time>2025-08-06T15:35:51.000Z</time>
      </trkpt>
      <trkpt lat="43.02158" lon="1.60952">
        <ele>381.79998779297</ele>
        <time>2025-08-06T15:35:53.000Z</time>
      </trkpt>
      <trkpt lat="43.02143" lon="1.60944">
        <ele>382</ele>
        <time>2025-08-06T15:35:57.000Z</time>
      </trkpt>
      <trkpt lat="43.02113" lon="1.6092">
        <ele>381.60000610352</ele>
        <time>2025-08-06T15:36:04.000Z</time>
      </trkpt>
      <trkpt lat="43.02095" lon="1.60906">
        <ele>381.60000610352</ele>
        <time>2025-08-06T15:36:09.000Z</time>
      </trkpt>
      <trkpt lat="43.02084" lon="1.60898">
        <ele>381.60000610352</ele>
        <time>2025-08-06T15:36:12.000Z</time>
      </trkpt>
      <trkpt lat="43.0205" lon="1.60874">
        <ele>381.60000610352</ele>
        <time>2025-08-06T15:36:21.000Z</time>
      </trkpt>
      <trkpt lat="43.02016" lon="1.60851">
        <ele>381.60000610352</ele>
        <time>2025-08-06T15:36:30.000Z</time>
      </trkpt>
      <trkpt lat="43.01975" lon="1.60824">
        <ele>381.60000610352</ele>
        <time>2025-08-06T15:36:41.000Z</time>
      </trkpt>
      <trkpt lat="43.01949" lon="1.6081">
        <ele>382</ele>
        <time>2025-08-06T15:36:48.000Z</time>
      </trkpt>
      <trkpt lat="43.01906" lon="1.6079">
        <ele>382.20001220703</ele>
        <time>2025-08-06T15:36:59.000Z</time>
      </trkpt>
      <trkpt lat="43.01886" lon="1.60782">
        <ele>382.39999389648</ele>
        <time>2025-08-06T15:37:04.000Z</time>
      </trkpt>
      <trkpt lat="43.01869" lon="1.60776">
        <ele>382.39999389648</ele>
        <time>2025-08-06T15:37:08.000Z</time>
      </trkpt>
      <trkpt lat="43.0183" lon="1.60766">
        <ele>382.79998779297</ele>
        <time>2025-08-06T15:37:17.000Z</time>
      </trkpt>
      <trkpt lat="43.01805" lon="1.60759">
        <ele>382.79998779297</ele>
        <time>2025-08-06T15:37:23.000Z</time>
      </trkpt>
      <trkpt lat="43.01796" lon="1.60758">
        <ele>382.79998779297</ele>
        <time>2025-08-06T15:37:25.000Z</time>
      </trkpt>
      <trkpt lat="43.01762" lon="1.60752">
        <ele>383</ele>
        <time>2025-08-06T15:37:33.000Z</time>
      </trkpt>
      <trkpt lat="43.0172" lon="1.60742">
        <ele>383.39999389648</ele>
        <time>2025-08-06T15:37:43.000Z</time>
      </trkpt>
      <trkpt lat="43.01716" lon="1.60742">
        <ele>383.39999389648</ele>
        <time>2025-08-06T15:37:44.000Z</time>
      </trkpt>
      <trkpt lat="43.01693" lon="1.60743">
        <ele>384</ele>
        <time>2025-08-06T15:37:50.000Z</time>
      </trkpt>
      <trkpt lat="43.01662" lon="1.60743">
        <ele>384.20001220703</ele>
        <time>2025-08-06T15:37:58.000Z</time>
      </trkpt>
      <trkpt lat="43.01626" lon="1.60746">
        <ele>384.20001220703</ele>
        <time>2025-08-06T15:38:07.000Z</time>
      </trkpt>
      <trkpt lat="43.01592" lon="1.60749">
        <ele>384</ele>
        <time>2025-08-06T15:38:15.000Z</time>
      </trkpt>
      <trkpt lat="43.01559" lon="1.60753">
        <ele>384</ele>
        <time>2025-08-06T15:38:23.000Z</time>
      </trkpt>
      <trkpt lat="43.01528" lon="1.60755">
        <ele>384</ele>
        <time>2025-08-06T15:38:31.000Z</time>
      </trkpt>
      <trkpt lat="43.01498" lon="1.60764">
        <ele>384</ele>
        <time>2025-08-06T15:38:38.000Z</time>
      </trkpt>
      <trkpt lat="43.01494" lon="1.60767">
        <ele>384</ele>
        <time>2025-08-06T15:38:39.000Z</time>
      </trkpt>
      <trkpt lat="43.01479" lon="1.60778">
        <ele>383.79998779297</ele>
        <time>2025-08-06T15:38:43.000Z</time>
      </trkpt>
      <trkpt lat="43.01472" lon="1.60783">
        <ele>383.79998779297</ele>
        <time>2025-08-06T15:38:45.000Z</time>
      </trkpt>
      <trkpt lat="43.01466" lon="1.60786">
        <ele>383.79998779297</ele>
        <time>2025-08-06T15:38:47.000Z</time>
      </trkpt>
      <trkpt lat="43.01453" lon="1.60791">
        <ele>383.60000610352</ele>
        <time>2025-08-06T15:38:53.000Z</time>
      </trkpt>
      <trkpt lat="43.01433" lon="1.60794">
        <ele>383.79998779297</ele>
        <time>2025-08-06T15:38:59.000Z</time>
      </trkpt>
      <trkpt lat="43.01413" lon="1.608">
        <ele>384</ele>
        <time>2025-08-06T15:39:05.000Z</time>
      </trkpt>
      <trkpt lat="43.01384" lon="1.60812">
        <ele>384.20001220703</ele>
        <time>2025-08-06T15:39:13.000Z</time>
      </trkpt>
      <trkpt lat="43.01364" lon="1.6082">
        <ele>384.39999389648</ele>
        <time>2025-08-06T15:39:19.000Z</time>
      </trkpt>
      <trkpt lat="43.01339" lon="1.60818">
        <ele>384</ele>
        <time>2025-08-06T15:39:25.000Z</time>
      </trkpt>
      <trkpt lat="43.01306" lon="1.60815">
        <ele>384.20001220703</ele>
        <time>2025-08-06T15:39:34.000Z</time>
      </trkpt>
      <trkpt lat="43.01292" lon="1.60813">
        <ele>384.79998779297</ele>
        <time>2025-08-06T15:39:39.000Z</time>
      </trkpt>
      <trkpt lat="43.01288" lon="1.60815">
        <ele>384.79998779297</ele>
        <time>2025-08-06T15:39:40.000Z</time>
      </trkpt>
      <trkpt lat="43.01262" lon="1.6082">
        <ele>385.20001220703</ele>
        <time>2025-08-06T15:39:48.000Z</time>
      </trkpt>
      <trkpt lat="43.01244" lon="1.60822">
        <ele>385.60000610352</ele>
        <time>2025-08-06T15:39:56.000Z</time>
      </trkpt>
      <trkpt lat="43.01242" lon="1.60824">
        <ele>385.79998779297</ele>
        <time>2025-08-06T15:39:57.000Z</time>
      </trkpt>
      <trkpt lat="43.0124" lon="1.60824">
        <ele>385.79998779297</ele>
        <time>2025-08-06T15:39:58.000Z</time>
      </trkpt>
      <trkpt lat="43.01239" lon="1.60824">
        <ele>386</ele>
        <time>2025-08-06T15:39:59.000Z</time>
      </trkpt>
      <trkpt lat="43.01238" lon="1.60823">
        <ele>386</ele>
        <time>2025-08-06T15:40:00.000Z</time>
      </trkpt>
      <trkpt lat="43.01238" lon="1.60818">
        <ele>386.20001220703</ele>
        <time>2025-08-06T15:40:02.000Z</time>
      </trkpt>
      <trkpt lat="43.01239" lon="1.60813">
        <ele>386.39999389648</ele>
        <time>2025-08-06T15:40:04.000Z</time>
      </trkpt>
      <trkpt lat="43.01244" lon="1.60796">
        <ele>387</ele>
        <time>2025-08-06T15:40:09.000Z</time>
      </trkpt>
      <trkpt lat="43.01241" lon="1.60789">
        <ele>387</ele>
        <time>2025-08-06T15:40:11.000Z</time>
      </trkpt>
      <trkpt lat="43.01235" lon="1.60786">
        <ele>387</ele>
        <time>2025-08-06T15:40:13.000Z</time>
      </trkpt>
      <trkpt lat="43.01215" lon="1.60786">
        <ele>386.79998779297</ele>
        <time>2025-08-06T15:40:18.000Z</time>
      </trkpt>
      <trkpt lat="43.01195" lon="1.60782">
        <ele>386.60000610352</ele>
        <time>2025-08-06T15:40:23.000Z</time>
      </trkpt>
      <trkpt lat="43.01181" lon="1.60767">
        <ele>386.60000610352</ele>
        <time>2025-08-06T15:40:28.000Z</time>
      </trkpt>
      <trkpt lat="43.01172" lon="1.60755">
        <ele>386.79998779297</ele>
        <time>2025-08-06T15:40:33.000Z</time>
      </trkpt>
      <trkpt lat="43.01169" lon="1.60751">
        <ele>386.79998779297</ele>
        <time>2025-08-06T15:40:35.000Z</time>
      </trkpt>
      <trkpt lat="43.01167" lon="1.60745">
        <ele>386.79998779297</ele>
        <time>2025-08-06T15:40:38.000Z</time>
      </trkpt>
      <trkpt lat="43.01164" lon="1.6074">
        <ele>387</ele>
        <time>2025-08-06T15:40:42.000Z</time>
      </trkpt>
      <trkpt lat="43.01162" lon="1.60735">
        <ele>387</ele>
        <time>2025-08-06T15:40:44.000Z</time>
      </trkpt>
      <trkpt lat="43.01159" lon="1.60726">
        <ele>387.20001220703</ele>
        <time>2025-08-06T15:40:49.000Z</time>
      </trkpt>
      <trkpt lat="43.01159" lon="1.60724">
        <ele>387.20001220703</ele>
        <time>2025-08-06T15:40:51.000Z</time>
      </trkpt>
      <trkpt lat="43.01159" lon="1.60723">
        <ele>387.39999389648</ele>
        <time>2025-08-06T15:40:54.000Z</time>
      </trkpt>
      <trkpt lat="43.01156" lon="1.6072">
        <ele>387.20001220703</ele>
        <time>2025-08-06T15:41:59.000Z</time>
      </trkpt>
      <trkpt lat="43.01152" lon="1.60705">
        <ele>387.39999389648</ele>
        <time>2025-08-06T15:42:04.000Z</time>
      </trkpt>
      <trkpt lat="43.0115" lon="1.60691">
        <ele>387.60000610352</ele>
        <time>2025-08-06T15:42:08.000Z</time>
      </trkpt>
      <trkpt lat="43.0115" lon="1.60684">
        <ele>387.79998779297</ele>
        <time>2025-08-06T15:42:10.000Z</time>
      </trkpt>
      <trkpt lat="43.0115" lon="1.60676">
        <ele>388</ele>
        <time>2025-08-06T15:42:12.000Z</time>
      </trkpt>
      <trkpt lat="43.01149" lon="1.60656">
        <ele>388.60000610352</ele>
        <time>2025-08-06T15:42:17.000Z</time>
      </trkpt>
      <trkpt lat="43.01145" lon="1.60633">
        <ele>389</ele>
        <time>2025-08-06T15:42:23.000Z</time>
      </trkpt>
      <trkpt lat="43.01145" lon="1.60629">
        <ele>389.20001220703</ele>
        <time>2025-08-06T15:42:24.000Z</time>
      </trkpt>
      <trkpt lat="43.01139" lon="1.60601">
        <ele>389.60000610352</ele>
        <time>2025-08-06T15:42:31.000Z</time>
      </trkpt>
      <trkpt lat="43.01134" lon="1.60585">
        <ele>390</ele>
        <time>2025-08-06T15:42:35.000Z</time>
      </trkpt>
      <trkpt lat="43.01129" lon="1.60561">
        <ele>390.20001220703</ele>
        <time>2025-08-06T15:42:41.000Z</time>
      </trkpt>
      <trkpt lat="43.01121" lon="1.60529">
        <ele>390.79998779297</ele>
        <time>2025-08-06T15:42:49.000Z</time>
      </trkpt>
      <trkpt lat="43.01118" lon="1.60517">
        <ele>391</ele>
        <time>2025-08-06T15:42:52.000Z</time>
      </trkpt>
      <trkpt lat="43.0111" lon="1.60485">
        <ele>391.39999389648</ele>
        <time>2025-08-06T15:43:00.000Z</time>
      </trkpt>
      <trkpt lat="43.01106" lon="1.60462">
        <ele>392</ele>
        <time>2025-08-06T15:43:06.000Z</time>
      </trkpt>
      <trkpt lat="43.01105" lon="1.60458">
        <ele>392</ele>
        <time>2025-08-06T15:43:07.000Z</time>
      </trkpt>
      <trkpt lat="43.01101" lon="1.60443">
        <ele>392.39999389648</ele>
        <time>2025-08-06T15:43:11.000Z</time>
      </trkpt>
      <trkpt lat="43.01097" lon="1.60423">
        <ele>393</ele>
        <time>2025-08-06T15:43:17.000Z</time>
      </trkpt>
      <trkpt lat="43.01095" lon="1.60415">
        <ele>393</ele>
        <time>2025-08-06T15:43:19.000Z</time>
      </trkpt>
      <trkpt lat="43.0109" lon="1.60385">
        <ele>393.20001220703</ele>
        <time>2025-08-06T15:43:26.000Z</time>
      </trkpt>
      <trkpt lat="43.01081" lon="1.60352">
        <ele>393.39999389648</ele>
        <time>2025-08-06T15:43:34.000Z</time>
      </trkpt>
      <trkpt lat="43.01075" lon="1.6032">
        <ele>393.79998779297</ele>
        <time>2025-08-06T15:43:42.000Z</time>
      </trkpt>
      <trkpt lat="43.01071" lon="1.60294">
        <ele>394</ele>
        <time>2025-08-06T15:43:48.000Z</time>
      </trkpt>
      <trkpt lat="43.01065" lon="1.60264">
        <ele>394.20001220703</ele>
        <time>2025-08-06T15:43:55.000Z</time>
      </trkpt>
      <trkpt lat="43.0106" lon="1.60233">
        <ele>394.39999389648</ele>
        <time>2025-08-06T15:44:02.000Z</time>
      </trkpt>
      <trkpt lat="43.01052" lon="1.6018">
        <ele>394.79998779297</ele>
        <time>2025-08-06T15:44:13.000Z</time>
      </trkpt>
      <trkpt lat="43.01046" lon="1.60132">
        <ele>395</ele>
        <time>2025-08-06T15:44:23.000Z</time>
      </trkpt>
      <trkpt lat="43.01045" lon="1.60122">
        <ele>395</ele>
        <time>2025-08-06T15:44:25.000Z</time>
      </trkpt>
      <trkpt lat="43.01041" lon="1.60093">
        <ele>395.20001220703</ele>
        <time>2025-08-06T15:44:31.000Z</time>
      </trkpt>
      <trkpt lat="43.01036" lon="1.60055">
        <ele>395.60000610352</ele>
        <time>2025-08-06T15:44:39.000Z</time>
      </trkpt>
      <trkpt lat="43.01029" lon="1.60023">
        <ele>396.20001220703</ele>
        <time>2025-08-06T15:44:46.000Z</time>
      </trkpt>
      <trkpt lat="43.01021" lon="1.6001">
        <ele>396.20001220703</ele>
        <time>2025-08-06T15:44:50.000Z</time>
      </trkpt>
      <trkpt lat="43.01002" lon="1.6">
        <ele>396.39999389648</ele>
        <time>2025-08-06T15:44:56.000Z</time>
      </trkpt>
      <trkpt lat="43.00983" lon="1.59996">
        <ele>396.39999389648</ele>
        <time>2025-08-06T15:45:02.000Z</time>
      </trkpt>
      <trkpt lat="43.00957" lon="1.59995">
        <ele>396.79998779297</ele>
        <time>2025-08-06T15:45:10.000Z</time>
      </trkpt>
      <trkpt lat="43.00931" lon="1.59995">
        <ele>396.79998779297</ele>
        <time>2025-08-06T15:45:18.000Z</time>
      </trkpt>
      <trkpt lat="43.00907" lon="1.59998">
        <ele>396.79998779297</ele>
        <time>2025-08-06T15:45:25.000Z</time>
      </trkpt>
      <trkpt lat="43.00876" lon="1.60007">
        <ele>396.60000610352</ele>
        <time>2025-08-06T15:45:35.000Z</time>
      </trkpt>
      <trkpt lat="43.00872" lon="1.60007">
        <ele>396.39999389648</ele>
        <time>2025-08-06T15:45:39.000Z</time>
      </trkpt>
      <trkpt lat="43.00867" lon="1.6001">
        <ele>395.20001220703</ele>
        <time>2025-08-06T15:46:34.000Z</time>
      </trkpt>
      <trkpt lat="43.00866" lon="1.60023">
        <ele>395.39999389648</ele>
        <time>2025-08-06T15:46:39.000Z</time>
      </trkpt>
      <trkpt lat="43.00872" lon="1.60041">
        <ele>395.79998779297</ele>
        <time>2025-08-06T15:46:46.000Z</time>
      </trkpt>
      <trkpt lat="43.0088" lon="1.60065">
        <ele>396</ele>
        <time>2025-08-06T15:46:53.000Z</time>
      </trkpt>
      <trkpt lat="43.00886" lon="1.60095">
        <ele>396.39999389648</ele>
        <time>2025-08-06T15:47:01.000Z</time>
      </trkpt>
      <trkpt lat="43.00892" lon="1.60128">
        <ele>396.79998779297</ele>
        <time>2025-08-06T15:47:09.000Z</time>
      </trkpt>
      <trkpt lat="43.00892" lon="1.60132">
        <ele>396.79998779297</ele>
        <time>2025-08-06T15:47:10.000Z</time>
      </trkpt>
      <trkpt lat="43.0089" lon="1.60156">
        <ele>396.79998779297</ele>
        <time>2025-08-06T15:47:16.000Z</time>
      </trkpt>
      <trkpt lat="43.00881" lon="1.60166">
        <ele>397</ele>
        <time>2025-08-06T15:47:20.000Z</time>
      </trkpt>
      <trkpt lat="43.00869" lon="1.60175">
        <ele>397</ele>
        <time>2025-08-06T15:47:25.000Z</time>
      </trkpt>
      <trkpt lat="43.00867" lon="1.60177">
        <ele>397.20001220703</ele>
        <time>2025-08-06T15:47:26.000Z</time>
      </trkpt>
      <trkpt lat="43.00851" lon="1.60189">
        <ele>397.39999389648</ele>
        <time>2025-08-06T15:47:33.000Z</time>
      </trkpt>
      <trkpt lat="43.00833" lon="1.60206">
        <ele>397.39999389648</ele>
        <time>2025-08-06T15:47:41.000Z</time>
      </trkpt>
      <trkpt lat="43.00818" lon="1.60219">
        <ele>397.60000610352</ele>
        <time>2025-08-06T15:47:48.000Z</time>
      </trkpt>
      <trkpt lat="43.00818" lon="1.60219">
        <ele>397.60000610352</ele>
        <time>2025-08-06T15:47:49.000Z</time>
      </trkpt>
      <trkpt lat="43.00815" lon="1.60216">
        <ele>397.60000610352</ele>
        <time>2025-08-06T15:47:51.000Z</time>
      </trkpt>
      <trkpt lat="43.0081" lon="1.60197">
        <ele>397.20001220703</ele>
        <time>2025-08-06T15:47:58.000Z</time>
      </trkpt>
      <trkpt lat="43.00806" lon="1.60188">
        <ele>397</ele>
        <time>2025-08-06T15:48:04.000Z</time>
      </trkpt>
      <trkpt lat="43.00807" lon="1.60187">
        <ele>397</ele>
        <time>2025-08-06T15:48:05.000Z</time>
      </trkpt>
      <trkpt lat="43.00808" lon="1.60189">
        <ele>397</ele>
        <time>2025-08-06T15:48:08.000Z</time>
      </trkpt>
      <trkpt lat="43.00809" lon="1.60191">
        <ele>397</ele>
        <time>2025-08-06T15:48:09.000Z</time>
      </trkpt>
      <trkpt lat="43.00808" lon="1.60193">
        <ele>397</ele>
        <time>2025-08-06T15:48:10.000Z</time>
      </trkpt>
      <trkpt lat="43.00807" lon="1.60196">
        <ele>397</ele>
        <time>2025-08-06T15:48:12.000Z</time>
      </trkpt>
      <trkpt lat="43.00804" lon="1.60196">
        <ele>397</ele>
        <time>2025-08-06T15:48:14.000Z</time>
      </trkpt>
      <trkpt lat="43.00798" lon="1.60194">
        <ele>397</ele>
        <time>2025-08-06T15:48:22.000Z</time>
      </trkpt>
      <trkpt lat="43.00846" lon="1.60196">
        <ele>366.79998779297</ele>
        <time>2025-08-07T08:56:33.000Z</time>
      </trkpt>
      <trkpt lat="43.00869" lon="1.60176">
        <ele>368.39999389648</ele>
        <time>2025-08-07T08:56:41.000Z</time>
      </trkpt>
      <trkpt lat="43.00891" lon="1.60157">
        <ele>368.39999389648</ele>
        <time>2025-08-07T08:56:49.000Z</time>
      </trkpt>
      <trkpt lat="43.00894" lon="1.60151">
        <ele>368.39999389648</ele>
        <time>2025-08-07T08:56:51.000Z</time>
      </trkpt>
      <trkpt lat="43.00894" lon="1.60143">
        <ele>368.39999389648</ele>
        <time>2025-08-07T08:56:53.000Z</time>
      </trkpt>
      <trkpt lat="43.00889" lon="1.60116">
        <ele>368.60000610352</ele>
        <time>2025-08-07T08:56:59.000Z</time>
      </trkpt>
      <trkpt lat="43.00884" lon="1.60084">
        <ele>368.60000610352</ele>
        <time>2025-08-07T08:57:05.000Z</time>
      </trkpt>
      <trkpt lat="43.00874" lon="1.60043">
        <ele>368.79998779297</ele>
        <time>2025-08-07T08:57:14.000Z</time>
      </trkpt>
      <trkpt lat="43.00873" lon="1.60039">
        <ele>368.79998779297</ele>
        <time>2025-08-07T08:57:15.000Z</time>
      </trkpt>
      <trkpt lat="43.00867" lon="1.60016">
        <ele>369</ele>
        <time>2025-08-07T08:57:22.000Z</time>
      </trkpt>
      <trkpt lat="43.0087" lon="1.6001">
        <ele>369</ele>
        <time>2025-08-07T08:57:24.000Z</time>
      </trkpt>
      <trkpt lat="43.00876" lon="1.60006">
        <ele>369</ele>
        <time>2025-08-07T08:57:26.000Z</time>
      </trkpt>
      <trkpt lat="43.00899" lon="1.60001">
        <ele>369.20001220703</ele>
        <time>2025-08-07T08:57:33.000Z</time>
      </trkpt>
      <trkpt lat="43.00921" lon="1.59998">
        <ele>369.20001220703</ele>
        <time>2025-08-07T08:57:39.000Z</time>
      </trkpt>
      <trkpt lat="43.00945" lon="1.59999">
        <ele>369.39999389648</ele>
        <time>2025-08-07T08:57:47.000Z</time>
      </trkpt>
      <trkpt lat="43.00966" lon="1.59998">
        <ele>369.39999389648</ele>
        <time>2025-08-07T08:57:53.000Z</time>
      </trkpt>
      <trkpt lat="43.00989" lon="1.60001">
        <ele>369.20001220703</ele>
        <time>2025-08-07T08:58:00.000Z</time>
      </trkpt>
      <trkpt lat="43.01013" lon="1.60008">
        <ele>369.20001220703</ele>
        <time>2025-08-07T08:58:07.000Z</time>
      </trkpt>
      <trkpt lat="43.01024" lon="1.60017">
        <ele>369</ele>
        <time>2025-08-07T08:58:11.000Z</time>
      </trkpt>
      <trkpt lat="43.0103" lon="1.60045">
        <ele>368.79998779297</ele>
        <time>2025-08-07T08:58:17.000Z</time>
      </trkpt>
      <trkpt lat="43.01038" lon="1.60081">
        <ele>368.60000610352</ele>
        <time>2025-08-07T08:58:24.000Z</time>
      </trkpt>
      <trkpt lat="43.01043" lon="1.60113">
        <ele>367.79998779297</ele>
        <time>2025-08-07T08:58:30.000Z</time>
      </trkpt>
      <trkpt lat="43.01044" lon="1.60124">
        <ele>367.60000610352</ele>
        <time>2025-08-07T08:58:32.000Z</time>
      </trkpt>
      <trkpt lat="43.01052" lon="1.60175">
        <ele>367</ele>
        <time>2025-08-07T08:58:41.000Z</time>
      </trkpt>
      <trkpt lat="43.01058" lon="1.60213">
        <ele>366.79998779297</ele>
        <time>2025-08-07T08:58:48.000Z</time>
      </trkpt>
      <trkpt lat="43.01059" lon="1.60231">
        <ele>366.79998779297</ele>
        <time>2025-08-07T08:58:51.000Z</time>
      </trkpt>
      <trkpt lat="43.01066" lon="1.60281">
        <ele>366.60000610352</ele>
        <time>2025-08-07T08:59:00.000Z</time>
      </trkpt>
      <trkpt lat="43.01074" lon="1.60332">
        <ele>366.20001220703</ele>
        <time>2025-08-07T08:59:09.000Z</time>
      </trkpt>
      <trkpt lat="43.01088" lon="1.60386">
        <ele>365.79998779297</ele>
        <time>2025-08-07T08:59:18.000Z</time>
      </trkpt>
      <trkpt lat="43.01099" lon="1.60431">
        <ele>365.20001220703</ele>
        <time>2025-08-07T08:59:26.000Z</time>
      </trkpt>
      <trkpt lat="43.011" lon="1.60436">
        <ele>365.20001220703</ele>
        <time>2025-08-07T08:59:27.000Z</time>
      </trkpt>
      <trkpt lat="43.01104" lon="1.60459">
        <ele>365.20001220703</ele>
        <time>2025-08-07T08:59:31.000Z</time>
      </trkpt>
      <trkpt lat="43.01113" lon="1.6049">
        <ele>365</ele>
        <time>2025-08-07T08:59:36.000Z</time>
      </trkpt>
      <trkpt lat="43.01118" lon="1.60513">
        <ele>364.60000610352</ele>
        <time>2025-08-07T08:59:40.000Z</time>
      </trkpt>
      <trkpt lat="43.01122" lon="1.6053">
        <ele>364.39999389648</ele>
        <time>2025-08-07T08:59:43.000Z</time>
      </trkpt>
      <trkpt lat="43.01131" lon="1.6057">
        <ele>363.60000610352</ele>
        <time>2025-08-07T08:59:50.000Z</time>
      </trkpt>
      <trkpt lat="43.01133" lon="1.60582">
        <ele>363.20001220703</ele>
        <time>2025-08-07T08:59:52.000Z</time>
      </trkpt>
      <trkpt lat="43.01147" lon="1.60633">
        <ele>362.60000610352</ele>
        <time>2025-08-07T09:00:01.000Z</time>
      </trkpt>
      <trkpt lat="43.01148" lon="1.60639">
        <ele>362.39999389648</ele>
        <time>2025-08-07T09:00:02.000Z</time>
      </trkpt>
      <trkpt lat="43.01149" lon="1.60671">
        <ele>362</ele>
        <time>2025-08-07T09:00:07.000Z</time>
      </trkpt>
      <trkpt lat="43.0115" lon="1.60678">
        <ele>361.79998779297</ele>
        <time>2025-08-07T09:00:08.000Z</time>
      </trkpt>
      <trkpt lat="43.01152" lon="1.60705">
        <ele>361.60000610352</ele>
        <time>2025-08-07T09:00:12.000Z</time>
      </trkpt>
      <trkpt lat="43.01154" lon="1.60712">
        <ele>361.39999389648</ele>
        <time>2025-08-07T09:00:13.000Z</time>
      </trkpt>
      <trkpt lat="43.01155" lon="1.60718">
        <ele>361.20001220703</ele>
        <time>2025-08-07T09:00:14.000Z</time>
      </trkpt>
      <trkpt lat="43.0117" lon="1.60755">
        <ele>360.39999389648</ele>
        <time>2025-08-07T09:00:20.000Z</time>
      </trkpt>
      <trkpt lat="43.01174" lon="1.60765">
        <ele>360</ele>
        <time>2025-08-07T09:00:22.000Z</time>
      </trkpt>
      <trkpt lat="43.01176" lon="1.60775">
        <ele>360</ele>
        <time>2025-08-07T09:00:24.000Z</time>
      </trkpt>
      <trkpt lat="43.01175" lon="1.60781">
        <ele>360</ele>
        <time>2025-08-07T09:00:25.000Z</time>
      </trkpt>
      <trkpt lat="43.0117" lon="1.60793">
        <ele>359.60000610352</ele>
        <time>2025-08-07T09:00:28.000Z</time>
      </trkpt>
      <trkpt lat="43.01166" lon="1.60795">
        <ele>359.20001220703</ele>
        <time>2025-08-07T09:00:29.000Z</time>
      </trkpt>
      <trkpt lat="43.01156" lon="1.60798">
        <ele>359</ele>
        <time>2025-08-07T09:00:32.000Z</time>
      </trkpt>
      <trkpt lat="43.01122" lon="1.60804">
        <ele>359.39999389648</ele>
        <time>2025-08-07T09:00:42.000Z</time>
      </trkpt>
      <trkpt lat="43.01097" lon="1.60816">
        <ele>359.39999389648</ele>
        <time>2025-08-07T09:00:49.000Z</time>
      </trkpt>
      <trkpt lat="43.01093" lon="1.60818">
        <ele>359.60000610352</ele>
        <time>2025-08-07T09:00:50.000Z</time>
      </trkpt>
      <trkpt lat="43.0106" lon="1.60836">
        <ele>360.20001220703</ele>
        <time>2025-08-07T09:00:59.000Z</time>
      </trkpt>
      <trkpt lat="43.01052" lon="1.6084">
        <ele>360.39999389648</ele>
        <time>2025-08-07T09:01:01.000Z</time>
      </trkpt>
      <trkpt lat="43.01029" lon="1.60849">
        <ele>360.60000610352</ele>
        <time>2025-08-07T09:01:07.000Z</time>
      </trkpt>
      <trkpt lat="43.0099" lon="1.60859">
        <ele>361.20001220703</ele>
        <time>2025-08-07T09:01:17.000Z</time>
      </trkpt>
      <trkpt lat="43.00957" lon="1.60868">
        <ele>361.39999389648</ele>
        <time>2025-08-07T09:01:25.000Z</time>
      </trkpt>
      <trkpt lat="43.00953" lon="1.60869">
        <ele>361.39999389648</ele>
        <time>2025-08-07T09:01:26.000Z</time>
      </trkpt>
      <trkpt lat="43.00931" lon="1.60874">
        <ele>361.39999389648</ele>
        <time>2025-08-07T09:01:31.000Z</time>
      </trkpt>
      <trkpt lat="43.00909" lon="1.60879">
        <ele>361.39999389648</ele>
        <time>2025-08-07T09:01:36.000Z</time>
      </trkpt>
      <trkpt lat="43.00853" lon="1.60894">
        <ele>361.20001220703</ele>
        <time>2025-08-07T09:01:48.000Z</time>
      </trkpt>
      <trkpt lat="43.00809" lon="1.60903">
        <ele>361.20001220703</ele>
        <time>2025-08-07T09:01:58.000Z</time>
      </trkpt>
      <trkpt lat="43.00783" lon="1.6091">
        <ele>361.39999389648</ele>
        <time>2025-08-07T09:02:04.000Z</time>
      </trkpt>
      <trkpt lat="43.0077" lon="1.60913">
        <ele>361.39999389648</ele>
        <time>2025-08-07T09:02:07.000Z</time>
      </trkpt>
      <trkpt lat="43.00761" lon="1.60915">
        <ele>361.39999389648</ele>
        <time>2025-08-07T09:02:09.000Z</time>
      </trkpt>
      <trkpt lat="43.00735" lon="1.60922">
        <ele>361.60000610352</ele>
        <time>2025-08-07T09:02:15.000Z</time>
      </trkpt>
      <trkpt lat="43.00699" lon="1.60932">
        <ele>362</ele>
        <time>2025-08-07T09:02:23.000Z</time>
      </trkpt>
      <trkpt lat="43.00661" lon="1.60941">
        <ele>362.60000610352</ele>
        <time>2025-08-07T09:02:32.000Z</time>
      </trkpt>
      <trkpt lat="43.00644" lon="1.60945">
        <ele>362.60000610352</ele>
        <time>2025-08-07T09:02:36.000Z</time>
      </trkpt>
      <trkpt lat="43.00627" lon="1.60949">
        <ele>362.79998779297</ele>
        <time>2025-08-07T09:02:40.000Z</time>
      </trkpt>
      <trkpt lat="43.00618" lon="1.60951">
        <ele>363</ele>
        <time>2025-08-07T09:02:42.000Z</time>
      </trkpt>
      <trkpt lat="43.00581" lon="1.60959">
        <ele>363.39999389648</ele>
        <time>2025-08-07T09:02:51.000Z</time>
      </trkpt>
      <trkpt lat="43.00561" lon="1.60964">
        <ele>363.79998779297</ele>
        <time>2025-08-07T09:02:56.000Z</time>
      </trkpt>
      <trkpt lat="43.00549" lon="1.60966">
        <ele>363.79998779297</ele>
        <time>2025-08-07T09:02:59.000Z</time>
      </trkpt>
      <trkpt lat="43.00514" lon="1.6097">
        <ele>364.39999389648</ele>
        <time>2025-08-07T09:03:08.000Z</time>
      </trkpt>
      <trkpt lat="43.00496" lon="1.60973">
        <ele>364.79998779297</ele>
        <time>2025-08-07T09:03:13.000Z</time>
      </trkpt>
      <trkpt lat="43.00481" lon="1.60977">
        <ele>365.20001220703</ele>
        <time>2025-08-07T09:03:17.000Z</time>
      </trkpt>
      <trkpt lat="43.0047" lon="1.60978">
        <ele>365.20001220703</ele>
        <time>2025-08-07T09:03:20.000Z</time>
      </trkpt>
      <trkpt lat="43.00432" lon="1.60983">
        <ele>365.79998779297</ele>
        <time>2025-08-07T09:03:30.000Z</time>
      </trkpt>
      <trkpt lat="43.00395" lon="1.60989">
        <ele>366.39999389648</ele>
        <time>2025-08-07T09:03:40.000Z</time>
      </trkpt>
      <trkpt lat="43.00362" lon="1.60994">
        <ele>366.60000610352</ele>
        <time>2025-08-07T09:03:49.000Z</time>
      </trkpt>
      <trkpt lat="43.00321" lon="1.61">
        <ele>366.79998779297</ele>
        <time>2025-08-07T09:03:59.000Z</time>
      </trkpt>
      <trkpt lat="43.00317" lon="1.61001">
        <ele>366.79998779297</ele>
        <time>2025-08-07T09:04:00.000Z</time>
      </trkpt>
      <trkpt lat="43.00295" lon="1.61002">
        <ele>366.79998779297</ele>
        <time>2025-08-07T09:04:05.000Z</time>
      </trkpt>
      <trkpt lat="43.00291" lon="1.61001">
        <ele>366.79998779297</ele>
        <time>2025-08-07T09:04:06.000Z</time>
      </trkpt>
      <trkpt lat="43.00258" lon="1.60994">
        <ele>366.79998779297</ele>
        <time>2025-08-07T09:04:14.000Z</time>
      </trkpt>
      <trkpt lat="43.00229" lon="1.60986">
        <ele>367.39999389648</ele>
        <time>2025-08-07T09:04:21.000Z</time>
      </trkpt>
      <trkpt lat="43.00208" lon="1.60981">
        <ele>367.79998779297</ele>
        <time>2025-08-07T09:04:26.000Z</time>
      </trkpt>
      <trkpt lat="43.002" lon="1.60981">
        <ele>368</ele>
        <time>2025-08-07T09:04:28.000Z</time>
      </trkpt>
      <trkpt lat="43.00187" lon="1.60982">
        <ele>368</ele>
        <time>2025-08-07T09:04:31.000Z</time>
      </trkpt>
      <trkpt lat="43.00177" lon="1.60985">
        <ele>368.39999389648</ele>
        <time>2025-08-07T09:04:34.000Z</time>
      </trkpt>
      <trkpt lat="43.00159" lon="1.60992">
        <ele>369</ele>
        <time>2025-08-07T09:04:39.000Z</time>
      </trkpt>
      <trkpt lat="43.00155" lon="1.60995">
        <ele>369</ele>
        <time>2025-08-07T09:04:40.000Z</time>
      </trkpt>
      <trkpt lat="43.0014" lon="1.61003">
        <ele>369.20001220703</ele>
        <time>2025-08-07T09:04:44.000Z</time>
      </trkpt>
      <trkpt lat="43.00131" lon="1.61006">
        <ele>369.20001220703</ele>
        <time>2025-08-07T09:04:46.000Z</time>
      </trkpt>
      <trkpt lat="43.00119" lon="1.6101">
        <ele>369.39999389648</ele>
        <time>2025-08-07T09:04:49.000Z</time>
      </trkpt>
      <trkpt lat="43.00095" lon="1.61019">
        <ele>369.79998779297</ele>
        <time>2025-08-07T09:04:55.000Z</time>
      </trkpt>
      <trkpt lat="43.0009" lon="1.6102">
        <ele>370</ele>
        <time>2025-08-07T09:04:56.000Z</time>
      </trkpt>
      <trkpt lat="43.00062" lon="1.61023">
        <ele>370.79998779297</ele>
        <time>2025-08-07T09:05:03.000Z</time>
      </trkpt>
      <trkpt lat="43.00055" lon="1.61021">
        <ele>371</ele>
        <time>2025-08-07T09:05:05.000Z</time>
      </trkpt>
      <trkpt lat="43.00036" lon="1.61016">
        <ele>371.79998779297</ele>
        <time>2025-08-07T09:05:10.000Z</time>
      </trkpt>
      <trkpt lat="43.00032" lon="1.61015">
        <ele>372</ele>
        <time>2025-08-07T09:05:11.000Z</time>
      </trkpt>
      <trkpt lat="43.00002" lon="1.61002">
        <ele>373</ele>
        <time>2025-08-07T09:05:20.000Z</time>
      </trkpt>
      <trkpt lat="42.99999" lon="1.61">
        <ele>373</ele>
        <time>2025-08-07T09:05:21.000Z</time>
      </trkpt>
      <trkpt lat="42.9998" lon="1.60988">
        <ele>373.60000610352</ele>
        <time>2025-08-07T09:05:27.000Z</time>
      </trkpt>
      <trkpt lat="42.9997" lon="1.60981">
        <ele>374</ele>
        <time>2025-08-07T09:05:30.000Z</time>
      </trkpt>
      <trkpt lat="42.99952" lon="1.60969">
        <ele>374.60000610352</ele>
        <time>2025-08-07T09:05:36.000Z</time>
      </trkpt>
      <trkpt lat="42.9994" lon="1.60962">
        <ele>375</ele>
        <time>2025-08-07T09:05:40.000Z</time>
      </trkpt>
      <trkpt lat="42.99927" lon="1.60956">
        <ele>375.39999389648</ele>
        <time>2025-08-07T09:05:44.000Z</time>
      </trkpt>
      <trkpt lat="42.99916" lon="1.60952">
        <ele>376</ele>
        <time>2025-08-07T09:05:47.000Z</time>
      </trkpt>
      <trkpt lat="42.99904" lon="1.6095">
        <ele>376.20001220703</ele>
        <time>2025-08-07T09:05:50.000Z</time>
      </trkpt>
      <trkpt lat="42.99875" lon="1.6095">
        <ele>376.79998779297</ele>
        <time>2025-08-07T09:05:58.000Z</time>
      </trkpt>
      <trkpt lat="42.99865" lon="1.60953">
        <ele>376.79998779297</ele>
        <time>2025-08-07T09:06:01.000Z</time>
      </trkpt>
      <trkpt lat="42.99863" lon="1.60956">
        <ele>376.79998779297</ele>
        <time>2025-08-07T09:06:02.000Z</time>
      </trkpt>
      <trkpt lat="42.99854" lon="1.60973">
        <ele>377</ele>
        <time>2025-08-07T09:06:07.000Z</time>
      </trkpt>
      <trkpt lat="42.99847" lon="1.60985">
        <ele>377</ele>
        <time>2025-08-07T09:06:10.000Z</time>
      </trkpt>
      <trkpt lat="42.99838" lon="1.60993">
        <ele>377</ele>
        <time>2025-08-07T09:06:12.000Z</time>
      </trkpt>
      <trkpt lat="42.99823" lon="1.60993">
        <ele>376.60000610352</ele>
        <time>2025-08-07T09:06:14.000Z</time>
      </trkpt>
      <trkpt lat="42.99815" lon="1.60991">
        <ele>376.39999389648</ele>
        <time>2025-08-07T09:06:15.000Z</time>
      </trkpt>
      <trkpt lat="42.998" lon="1.60985">
        <ele>375.60000610352</ele>
        <time>2025-08-07T09:06:17.000Z</time>
      </trkpt>
      <trkpt lat="42.99786" lon="1.60987">
        <ele>374.39999389648</ele>
        <time>2025-08-07T09:06:19.000Z</time>
      </trkpt>
      <trkpt lat="42.99775" lon="1.61">
        <ele>373.20001220703</ele>
        <time>2025-08-07T09:06:21.000Z</time>
      </trkpt>
      <trkpt lat="42.99768" lon="1.61029">
        <ele>372</ele>
        <time>2025-08-07T09:06:24.000Z</time>
      </trkpt>
      <trkpt lat="42.99766" lon="1.61038">
        <ele>371.79998779297</ele>
        <time>2025-08-07T09:06:25.000Z</time>
      </trkpt>
      <trkpt lat="42.99755" lon="1.61083">
        <ele>371.20001220703</ele>
        <time>2025-08-07T09:06:31.000Z</time>
      </trkpt>
      <trkpt lat="42.99747" lon="1.61115">
        <ele>371.20001220703</ele>
        <time>2025-08-07T09:06:37.000Z</time>
      </trkpt>
      <trkpt lat="42.99742" lon="1.61128">
        <ele>371.39999389648</ele>
        <time>2025-08-07T09:06:42.000Z</time>
      </trkpt>
      <trkpt lat="42.99739" lon="1.6113">
        <ele>371.39999389648</ele>
        <time>2025-08-07T09:06:43.000Z</time>
      </trkpt>
      <trkpt lat="42.9973" lon="1.6113">
        <ele>371.20001220703</ele>
        <time>2025-08-07T09:06:45.000Z</time>
      </trkpt>
      <trkpt lat="42.99718" lon="1.61128">
        <ele>371</ele>
        <time>2025-08-07T09:06:48.000Z</time>
      </trkpt>
      <trkpt lat="42.99687" lon="1.61123">
        <ele>371</ele>
        <time>2025-08-07T09:06:55.000Z</time>
      </trkpt>
      <trkpt lat="42.99636" lon="1.61117">
        <ele>371.39999389648</ele>
        <time>2025-08-07T09:07:07.000Z</time>
      </trkpt>
      <trkpt lat="42.99593" lon="1.61111">
        <ele>371.79998779297</ele>
        <time>2025-08-07T09:07:17.000Z</time>
      </trkpt>
      <trkpt lat="42.99576" lon="1.61109">
        <ele>371.79998779297</ele>
        <time>2025-08-07T09:07:21.000Z</time>
      </trkpt>
      <trkpt lat="42.99559" lon="1.61106">
        <ele>372</ele>
        <time>2025-08-07T09:07:25.000Z</time>
      </trkpt>
      <trkpt lat="42.99555" lon="1.61106">
        <ele>372</ele>
        <time>2025-08-07T09:07:26.000Z</time>
      </trkpt>
      <trkpt lat="42.99515" lon="1.61102">
        <ele>372.39999389648</ele>
        <time>2025-08-07T09:07:35.000Z</time>
      </trkpt>
      <trkpt lat="42.99481" lon="1.61095">
        <ele>372.60000610352</ele>
        <time>2025-08-07T09:07:43.000Z</time>
      </trkpt>
      <trkpt lat="42.99436" lon="1.61089">
        <ele>373</ele>
        <time>2025-08-07T09:07:53.000Z</time>
      </trkpt>
      <trkpt lat="42.99422" lon="1.61088">
        <ele>373.20001220703</ele>
        <time>2025-08-07T09:07:56.000Z</time>
      </trkpt>
      <trkpt lat="42.99396" lon="1.61084">
        <ele>373.20001220703</ele>
        <time>2025-08-07T09:08:02.000Z</time>
      </trkpt>
      <trkpt lat="42.99352" lon="1.61079">
        <ele>373.60000610352</ele>
        <time>2025-08-07T09:08:12.000Z</time>
      </trkpt>
      <trkpt lat="42.99312" lon="1.61074">
        <ele>373.39999389648</ele>
        <time>2025-08-07T09:08:21.000Z</time>
      </trkpt>
      <trkpt lat="42.99269" lon="1.6107">
        <ele>373.39999389648</ele>
        <time>2025-08-07T09:08:30.000Z</time>
      </trkpt>
      <trkpt lat="42.99226" lon="1.61067">
        <ele>373.20001220703</ele>
        <time>2025-08-07T09:08:39.000Z</time>
      </trkpt>
      <trkpt lat="42.99191" lon="1.61061">
        <ele>373</ele>
        <time>2025-08-07T09:08:45.000Z</time>
      </trkpt>
      <trkpt lat="42.99152" lon="1.6106">
        <ele>372</ele>
        <time>2025-08-07T09:08:51.000Z</time>
      </trkpt>
      <trkpt lat="42.99146" lon="1.61061">
        <ele>372</ele>
        <time>2025-08-07T09:08:52.000Z</time>
      </trkpt>
      <trkpt lat="42.99089" lon="1.61065">
        <ele>371.20001220703</ele>
        <time>2025-08-07T09:09:02.000Z</time>
      </trkpt>
      <trkpt lat="42.99079" lon="1.61067">
        <ele>371.20001220703</ele>
        <time>2025-08-07T09:09:04.000Z</time>
      </trkpt>
      <trkpt lat="42.99064" lon="1.61072">
        <ele>371.39999389648</ele>
        <time>2025-08-07T09:09:07.000Z</time>
      </trkpt>
      <trkpt lat="42.99039" lon="1.61077">
        <ele>371.39999389648</ele>
        <time>2025-08-07T09:09:12.000Z</time>
      </trkpt>
      <trkpt lat="42.99004" lon="1.61087">
        <ele>371.20001220703</ele>
        <time>2025-08-07T09:09:19.000Z</time>
      </trkpt>
      <trkpt lat="42.98994" lon="1.61089">
        <ele>371.20001220703</ele>
        <time>2025-08-07T09:09:21.000Z</time>
      </trkpt>
      <trkpt lat="42.98976" lon="1.61093">
        <ele>371.39999389648</ele>
        <time>2025-08-07T09:09:26.000Z</time>
      </trkpt>
      <trkpt lat="42.98958" lon="1.61096">
        <ele>372.79998779297</ele>
        <time>2025-08-07T09:09:33.000Z</time>
      </trkpt>
      <trkpt lat="42.98953" lon="1.61096">
        <ele>373.20001220703</ele>
        <time>2025-08-07T09:09:35.000Z</time>
      </trkpt>
      <trkpt lat="42.98946" lon="1.61099">
        <ele>374.20001220703</ele>
        <time>2025-08-07T09:09:39.000Z</time>
      </trkpt>
      <trkpt lat="42.98942" lon="1.611">
        <ele>374.79998779297</ele>
        <time>2025-08-07T09:09:41.000Z</time>
      </trkpt>
      <trkpt lat="42.98939" lon="1.61102">
        <ele>375.20001220703</ele>
        <time>2025-08-07T09:09:43.000Z</time>
      </trkpt>
      <trkpt lat="42.98932" lon="1.61104">
        <ele>375.79998779297</ele>
        <time>2025-08-07T09:09:47.000Z</time>
      </trkpt>
      <trkpt lat="42.98928" lon="1.61106">
        <ele>376.20001220703</ele>
        <time>2025-08-07T09:09:49.000Z</time>
      </trkpt>
      <trkpt lat="42.98922" lon="1.61108">
        <ele>377.20001220703</ele>
        <time>2025-08-07T09:09:53.000Z</time>
      </trkpt>
      <trkpt lat="42.9892" lon="1.61108">
        <ele>377.39999389648</ele>
        <time>2025-08-07T09:09:54.000Z</time>
      </trkpt>
      <trkpt lat="42.98913" lon="1.61113">
        <ele>378.39999389648</ele>
        <time>2025-08-07T09:09:59.000Z</time>
      </trkpt>
      <trkpt lat="42.98912" lon="1.61114">
        <ele>378.39999389648</ele>
        <time>2025-08-07T09:10:00.000Z</time>
      </trkpt>
      <trkpt lat="42.98902" lon="1.61121">
        <ele>379.39999389648</ele>
        <time>2025-08-07T09:10:06.000Z</time>
      </trkpt>
      <trkpt lat="42.98897" lon="1.61123">
        <ele>380.20001220703</ele>
        <time>2025-08-07T09:10:09.000Z</time>
      </trkpt>
      <trkpt lat="42.98894" lon="1.61123">
        <ele>380.39999389648</ele>
        <time>2025-08-07T09:10:11.000Z</time>
      </trkpt>
      <trkpt lat="42.98887" lon="1.61124">
        <ele>381.60000610352</ele>
        <time>2025-08-07T09:10:15.000Z</time>
      </trkpt>
      <trkpt lat="42.98886" lon="1.61124">
        <ele>381.79998779297</ele>
        <time>2025-08-07T09:10:16.000Z</time>
      </trkpt>
      <trkpt lat="42.98885" lon="1.61122">
        <ele>382.60000610352</ele>
        <time>2025-08-07T09:10:20.000Z</time>
      </trkpt>
      <trkpt lat="42.98883" lon="1.61116">
        <ele>382.60000610352</ele>
        <time>2025-08-07T09:12:00.000Z</time>
      </trkpt>
      <trkpt lat="42.98882" lon="1.61107">
        <ele>382.79998779297</ele>
        <time>2025-08-07T09:12:03.000Z</time>
      </trkpt>
      <trkpt lat="42.98879" lon="1.61088">
        <ele>383</ele>
        <time>2025-08-07T09:12:09.000Z</time>
      </trkpt>
      <trkpt lat="42.98878" lon="1.61081">
        <ele>383.60000610352</ele>
        <time>2025-08-07T09:12:11.000Z</time>
      </trkpt>
      <trkpt lat="42.98872" lon="1.61049">
        <ele>383.60000610352</ele>
        <time>2025-08-07T09:12:19.000Z</time>
      </trkpt>
      <trkpt lat="42.98868" lon="1.61008">
        <ele>383.39999389648</ele>
        <time>2025-08-07T09:12:28.000Z</time>
      </trkpt>
      <trkpt lat="42.98864" lon="1.6098">
        <ele>383.60000610352</ele>
        <time>2025-08-07T09:12:35.000Z</time>
      </trkpt>
      <trkpt lat="42.98857" lon="1.60969">
        <ele>384.39999389648</ele>
        <time>2025-08-07T09:12:41.000Z</time>
      </trkpt>
      <trkpt lat="42.98855" lon="1.60968">
        <ele>384.39999389648</ele>
        <time>2025-08-07T09:12:42.000Z</time>
      </trkpt>
      <trkpt lat="42.98853" lon="1.60966">
        <ele>384.79998779297</ele>
        <time>2025-08-07T09:12:44.000Z</time>
      </trkpt>
      <trkpt lat="42.98852" lon="1.60964">
        <ele>384.79998779297</ele>
        <time>2025-08-07T09:12:45.000Z</time>
      </trkpt>
      <trkpt lat="42.98851" lon="1.60963">
        <ele>385</ele>
        <time>2025-08-07T09:12:46.000Z</time>
      </trkpt>
      <trkpt lat="42.98849" lon="1.6096">
        <ele>385.60000610352</ele>
        <time>2025-08-07T09:12:48.000Z</time>
      </trkpt>
      <trkpt lat="42.98848" lon="1.60959">
        <ele>385.60000610352</ele>
        <time>2025-08-07T09:12:49.000Z</time>
      </trkpt>
      <trkpt lat="42.98845" lon="1.60957">
        <ele>386</ele>
        <time>2025-08-07T09:12:51.000Z</time>
      </trkpt>
      <trkpt lat="42.98844" lon="1.60956">
        <ele>386.20001220703</ele>
        <time>2025-08-07T09:12:52.000Z</time>
      </trkpt>
      <trkpt lat="42.98843" lon="1.60955">
        <ele>386.20001220703</ele>
        <time>2025-08-07T09:12:53.000Z</time>
      </trkpt>
      <trkpt lat="42.98841" lon="1.60954">
        <ele>386.60000610352</ele>
        <time>2025-08-07T09:12:54.000Z</time>
      </trkpt>
      <trkpt lat="42.9884" lon="1.60954">
        <ele>386.79998779297</ele>
        <time>2025-08-07T09:12:55.000Z</time>
      </trkpt>
      <trkpt lat="42.98838" lon="1.60953">
        <ele>387</ele>
        <time>2025-08-07T09:12:57.000Z</time>
      </trkpt>
      <trkpt lat="42.98836" lon="1.60953">
        <ele>387.39999389648</ele>
        <time>2025-08-07T09:12:59.000Z</time>
      </trkpt>
      <trkpt lat="42.98835" lon="1.60951">
        <ele>387.79998779297</ele>
        <time>2025-08-07T09:13:00.000Z</time>
      </trkpt>
      <trkpt lat="42.98833" lon="1.6095">
        <ele>388</ele>
        <time>2025-08-07T09:13:01.000Z</time>
      </trkpt>
      <trkpt lat="42.98831" lon="1.60948">
        <ele>388.39999389648</ele>
        <time>2025-08-07T09:13:03.000Z</time>
      </trkpt>
      <trkpt lat="42.98831" lon="1.60947">
        <ele>388.39999389648</ele>
        <time>2025-08-07T09:13:04.000Z</time>
      </trkpt>
      <trkpt lat="42.98829" lon="1.60946">
        <ele>388.79998779297</ele>
        <time>2025-08-07T09:13:05.000Z</time>
      </trkpt>
      <trkpt lat="42.98828" lon="1.60946">
        <ele>388.79998779297</ele>
        <time>2025-08-07T09:13:06.000Z</time>
      </trkpt>
      <trkpt lat="42.98826" lon="1.60945">
        <ele>389.20001220703</ele>
        <time>2025-08-07T09:13:07.000Z</time>
      </trkpt>
      <trkpt lat="42.98826" lon="1.60944">
        <ele>389.20001220703</ele>
        <time>2025-08-07T09:13:08.000Z</time>
      </trkpt>
      <trkpt lat="42.98824" lon="1.60944">
        <ele>389.60000610352</ele>
        <time>2025-08-07T09:13:09.000Z</time>
      </trkpt>
      <trkpt lat="42.98821" lon="1.60941">
        <ele>389.79998779297</ele>
        <time>2025-08-07T09:13:11.000Z</time>
      </trkpt>
      <trkpt lat="42.9882" lon="1.60939">
        <ele>390</ele>
        <time>2025-08-07T09:13:12.000Z</time>
      </trkpt>
      <trkpt lat="42.98816" lon="1.60936">
        <ele>390.39999389648</ele>
        <time>2025-08-07T09:13:15.000Z</time>
      </trkpt>
      <trkpt lat="42.98815" lon="1.60936">
        <ele>390.79998779297</ele>
        <time>2025-08-07T09:13:16.000Z</time>
      </trkpt>
      <trkpt lat="42.98812" lon="1.60935">
        <ele>390.79998779297</ele>
        <time>2025-08-07T09:13:18.000Z</time>
      </trkpt>
      <trkpt lat="42.98811" lon="1.60933">
        <ele>391.39999389648</ele>
        <time>2025-08-07T09:13:19.000Z</time>
      </trkpt>
      <trkpt lat="42.9881" lon="1.60931">
        <ele>392</ele>
        <time>2025-08-07T09:13:21.000Z</time>
      </trkpt>
      <trkpt lat="42.98807" lon="1.60929">
        <ele>392.60000610352</ele>
        <time>2025-08-07T09:13:24.000Z</time>
      </trkpt>
      <trkpt lat="42.98803" lon="1.60928">
        <ele>393.20001220703</ele>
        <time>2025-08-07T09:13:26.000Z</time>
      </trkpt>
      <trkpt lat="42.98801" lon="1.60924">
        <ele>393.60000610352</ele>
        <time>2025-08-07T09:13:28.000Z</time>
      </trkpt>
      <trkpt lat="42.988" lon="1.60922">
        <ele>393.79998779297</ele>
        <time>2025-08-07T09:13:29.000Z</time>
      </trkpt>
      <trkpt lat="42.98801" lon="1.60917">
        <ele>394.20001220703</ele>
        <time>2025-08-07T09:13:31.000Z</time>
      </trkpt>
      <trkpt lat="42.98802" lon="1.60916">
        <ele>394.39999389648</ele>
        <time>2025-08-07T09:13:32.000Z</time>
      </trkpt>
      <trkpt lat="42.98803" lon="1.60916">
        <ele>394.60000610352</ele>
        <time>2025-08-07T09:13:33.000Z</time>
      </trkpt>
      <trkpt lat="42.98812" lon="1.60917">
        <ele>395</ele>
        <time>2025-08-07T09:13:38.000Z</time>
      </trkpt>
      <trkpt lat="42.98817" lon="1.60918">
        <ele>395.20001220703</ele>
        <time>2025-08-07T09:13:41.000Z</time>
      </trkpt>
      <trkpt lat="42.98825" lon="1.60921">
        <ele>395.39999389648</ele>
        <time>2025-08-07T09:13:45.000Z</time>
      </trkpt>
      <trkpt lat="42.98839" lon="1.60928">
        <ele>395.60000610352</ele>
        <time>2025-08-07T09:13:52.000Z</time>
      </trkpt>
      <trkpt lat="42.98857" lon="1.60936">
        <ele>396</ele>
        <time>2025-08-07T09:14:00.000Z</time>
      </trkpt>
      <trkpt lat="42.98873" lon="1.60947">
        <ele>396.20001220703</ele>
        <time>2025-08-07T09:14:06.000Z</time>
      </trkpt>
      <trkpt lat="42.9888" lon="1.60949">
        <ele>396.39999389648</ele>
        <time>2025-08-07T09:14:08.000Z</time>
      </trkpt>
      <trkpt lat="42.98899" lon="1.60959">
        <ele>396.79998779297</ele>
        <time>2025-08-07T09:14:15.000Z</time>
      </trkpt>
      <trkpt lat="42.98921" lon="1.60969">
        <ele>396.79998779297</ele>
        <time>2025-08-07T09:14:23.000Z</time>
      </trkpt>
      <trkpt lat="42.98935" lon="1.60977">
        <ele>397.39999389648</ele>
        <time>2025-08-07T09:14:29.000Z</time>
      </trkpt>
      <trkpt lat="42.98941" lon="1.60979">
        <ele>397.39999389648</ele>
        <time>2025-08-07T09:14:31.000Z</time>
      </trkpt>
      <trkpt lat="42.98966" lon="1.60989">
        <ele>397.60000610352</ele>
        <time>2025-08-07T09:14:40.000Z</time>
      </trkpt>
      <trkpt lat="42.98995" lon="1.60996">
        <ele>398.20001220703</ele>
        <time>2025-08-07T09:14:50.000Z</time>
      </trkpt>
      <trkpt lat="42.99" lon="1.60997">
        <ele>398.39999389648</ele>
        <time>2025-08-07T09:14:52.000Z</time>
      </trkpt>
      <trkpt lat="42.99015" lon="1.61001">
        <ele>398.79998779297</ele>
        <time>2025-08-07T09:14:58.000Z</time>
      </trkpt>
      <trkpt lat="42.99048" lon="1.60998">
        <ele>399.20001220703</ele>
        <time>2025-08-07T09:15:09.000Z</time>
      </trkpt>
      <trkpt lat="42.99061" lon="1.60997">
        <ele>399.39999389648</ele>
        <time>2025-08-07T09:15:13.000Z</time>
      </trkpt>
      <trkpt lat="42.99074" lon="1.60994">
        <ele>399.39999389648</ele>
        <time>2025-08-07T09:15:17.000Z</time>
      </trkpt>
      <trkpt lat="42.99091" lon="1.60988">
        <ele>399.60000610352</ele>
        <time>2025-08-07T09:15:23.000Z</time>
      </trkpt>
      <trkpt lat="42.99105" lon="1.60985">
        <ele>399.79998779297</ele>
        <time>2025-08-07T09:15:28.000Z</time>
      </trkpt>
      <trkpt lat="42.99123" lon="1.60977">
        <ele>400.39999389648</ele>
        <time>2025-08-07T09:15:35.000Z</time>
      </trkpt>
      <trkpt lat="42.99131" lon="1.60974">
        <ele>400.60000610352</ele>
        <time>2025-08-07T09:15:38.000Z</time>
      </trkpt>
      <trkpt lat="42.99133" lon="1.60973">
        <ele>400.60000610352</ele>
        <time>2025-08-07T09:15:39.000Z</time>
      </trkpt>
      <trkpt lat="42.99136" lon="1.60972">
        <ele>400.60000610352</ele>
        <time>2025-08-07T09:15:40.000Z</time>
      </trkpt>
      <trkpt lat="42.99145" lon="1.60968">
        <ele>400.79998779297</ele>
        <time>2025-08-07T09:15:44.000Z</time>
      </trkpt>
      <trkpt lat="42.99152" lon="1.60966">
        <ele>400.79998779297</ele>
        <time>2025-08-07T09:15:46.000Z</time>
      </trkpt>
      <trkpt lat="42.99165" lon="1.6096">
        <ele>401.20001220703</ele>
        <time>2025-08-07T09:15:51.000Z</time>
      </trkpt>
      <trkpt lat="42.9919" lon="1.60949">
        <ele>401.39999389648</ele>
        <time>2025-08-07T09:15:59.000Z</time>
      </trkpt>
      <trkpt lat="42.99203" lon="1.60944">
        <ele>401.79998779297</ele>
        <time>2025-08-07T09:16:03.000Z</time>
      </trkpt>
      <trkpt lat="42.99211" lon="1.60941">
        <ele>401.79998779297</ele>
        <time>2025-08-07T09:16:06.000Z</time>
      </trkpt>
      <trkpt lat="42.99221" lon="1.60937">
        <ele>402</ele>
        <time>2025-08-07T09:16:10.000Z</time>
      </trkpt>
      <trkpt lat="42.99239" lon="1.60931">
        <ele>402</ele>
        <time>2025-08-07T09:16:17.000Z</time>
      </trkpt>
      <trkpt lat="42.99262" lon="1.60922">
        <ele>402.60000610352</ele>
        <time>2025-08-07T09:16:26.000Z</time>
      </trkpt>
      <trkpt lat="42.99266" lon="1.60921">
        <ele>402.79998779297</ele>
        <time>2025-08-07T09:16:28.000Z</time>
      </trkpt>
      <trkpt lat="42.99279" lon="1.60917">
        <ele>403</ele>
        <time>2025-08-07T09:16:33.000Z</time>
      </trkpt>
      <trkpt lat="42.99286" lon="1.60914">
        <ele>403</ele>
        <time>2025-08-07T09:16:36.000Z</time>
      </trkpt>
      <trkpt lat="42.99306" lon="1.60907">
        <ele>403.39999389648</ele>
        <time>2025-08-07T09:16:43.000Z</time>
      </trkpt>
      <trkpt lat="42.99325" lon="1.60899">
        <ele>403.79998779297</ele>
        <time>2025-08-07T09:16:50.000Z</time>
      </trkpt>
      <trkpt lat="42.99328" lon="1.60896">
        <ele>403.79998779297</ele>
        <time>2025-08-07T09:16:51.000Z</time>
      </trkpt>
      <trkpt lat="42.99331" lon="1.60895">
        <ele>403.79998779297</ele>
        <time>2025-08-07T09:16:52.000Z</time>
      </trkpt>
      <trkpt lat="42.99337" lon="1.60892">
        <ele>403.79998779297</ele>
        <time>2025-08-07T09:16:54.000Z</time>
      </trkpt>
      <trkpt lat="42.99356" lon="1.60886">
        <ele>403.79998779297</ele>
        <time>2025-08-07T09:17:00.000Z</time>
      </trkpt>
      <trkpt lat="42.99375" lon="1.6088">
        <ele>403.79998779297</ele>
        <time>2025-08-07T09:17:06.000Z</time>
      </trkpt>
      <trkpt lat="42.99397" lon="1.6087">
        <ele>404.39999389648</ele>
        <time>2025-08-07T09:17:14.000Z</time>
      </trkpt>
      <trkpt lat="42.99423" lon="1.60857">
        <ele>404.39999389648</ele>
        <time>2025-08-07T09:17:23.000Z</time>
      </trkpt>
      <trkpt lat="42.99443" lon="1.60847">
        <ele>404.60000610352</ele>
        <time>2025-08-07T09:17:29.000Z</time>
      </trkpt>
      <trkpt lat="42.99445" lon="1.60846">
        <ele>404.79998779297</ele>
        <time>2025-08-07T09:17:30.000Z</time>
      </trkpt>
      <trkpt lat="42.99446" lon="1.60846">
        <ele>405.39999389648</ele>
        <time>2025-08-07T09:17:33.000Z</time>
      </trkpt>
      <trkpt lat="42.99451" lon="1.60846">
        <ele>405.60000610352</ele>
        <time>2025-08-07T09:17:39.000Z</time>
      </trkpt>
      <trkpt lat="42.99458" lon="1.60845">
        <ele>405.60000610352</ele>
        <time>2025-08-07T09:17:41.000Z</time>
      </trkpt>
      <trkpt lat="42.99483" lon="1.60837">
        <ele>405.39999389648</ele>
        <time>2025-08-07T09:17:47.000Z</time>
      </trkpt>
      <trkpt lat="42.99515" lon="1.60832">
        <ele>404.60000610352</ele>
        <time>2025-08-07T09:17:55.000Z</time>
      </trkpt>
      <trkpt lat="42.99556" lon="1.60827">
        <ele>404</ele>
        <time>2025-08-07T09:18:05.000Z</time>
      </trkpt>
      <trkpt lat="42.99565" lon="1.60825">
        <ele>403.79998779297</ele>
        <time>2025-08-07T09:18:07.000Z</time>
      </trkpt>
      <trkpt lat="42.9959" lon="1.60823">
        <ele>403.79998779297</ele>
        <time>2025-08-07T09:18:13.000Z</time>
      </trkpt>
      <trkpt lat="42.99628" lon="1.6082">
        <ele>404.20001220703</ele>
        <time>2025-08-07T09:18:23.000Z</time>
      </trkpt>
      <trkpt lat="42.99653" lon="1.60823">
        <ele>404.60000610352</ele>
        <time>2025-08-07T09:18:30.000Z</time>
      </trkpt>
      <trkpt lat="42.99677" lon="1.60828">
        <ele>405.20001220703</ele>
        <time>2025-08-07T09:18:37.000Z</time>
      </trkpt>
      <trkpt lat="42.99704" lon="1.60832">
        <ele>405.79998779297</ele>
        <time>2025-08-07T09:18:46.000Z</time>
      </trkpt>
      <trkpt lat="42.99732" lon="1.6083">
        <ele>406.39999389648</ele>
        <time>2025-08-07T09:18:55.000Z</time>
      </trkpt>
      <trkpt lat="42.99744" lon="1.60828">
        <ele>406.39999389648</ele>
        <time>2025-08-07T09:18:59.000Z</time>
      </trkpt>
      <trkpt lat="42.99756" lon="1.60825">
        <ele>406.60000610352</ele>
        <time>2025-08-07T09:19:03.000Z</time>
      </trkpt>
      <trkpt lat="42.99771" lon="1.6082">
        <ele>407.20001220703</ele>
        <time>2025-08-07T09:19:08.000Z</time>
      </trkpt>
      <trkpt lat="42.99787" lon="1.60815">
        <ele>407.39999389648</ele>
        <time>2025-08-07T09:19:14.000Z</time>
      </trkpt>
      <trkpt lat="42.99787" lon="1.60814">
        <ele>407.79998779297</ele>
        <time>2025-08-07T09:19:15.000Z</time>
      </trkpt>
      <trkpt lat="42.99788" lon="1.60812">
        <ele>407.79998779297</ele>
        <time>2025-08-07T09:19:16.000Z</time>
      </trkpt>
      <trkpt lat="42.99789" lon="1.60812">
        <ele>408</ele>
        <time>2025-08-07T09:19:18.000Z</time>
      </trkpt>
      <trkpt lat="42.99793" lon="1.60813">
        <ele>407.79998779297</ele>
        <time>2025-08-07T09:20:02.000Z</time>
      </trkpt>
      <trkpt lat="42.99807" lon="1.60805">
        <ele>407.60000610352</ele>
        <time>2025-08-07T09:20:08.000Z</time>
      </trkpt>
      <trkpt lat="42.99819" lon="1.60799">
        <ele>407.60000610352</ele>
        <time>2025-08-07T09:20:13.000Z</time>
      </trkpt>
      <trkpt lat="42.99842" lon="1.60784">
        <ele>408</ele>
        <time>2025-08-07T09:20:22.000Z</time>
      </trkpt>
      <trkpt lat="42.99862" lon="1.60769">
        <ele>408.39999389648</ele>
        <time>2025-08-07T09:20:30.000Z</time>
      </trkpt>
      <trkpt lat="42.99871" lon="1.60759">
        <ele>408.60000610352</ele>
        <time>2025-08-07T09:20:36.000Z</time>
      </trkpt>
      <trkpt lat="42.99879" lon="1.60753">
        <ele>409</ele>
        <time>2025-08-07T09:20:41.000Z</time>
      </trkpt>
      <trkpt lat="42.99889" lon="1.60742">
        <ele>409.20001220703</ele>
        <time>2025-08-07T09:20:47.000Z</time>
      </trkpt>
      <trkpt lat="42.99897" lon="1.60729">
        <ele>409.39999389648</ele>
        <time>2025-08-07T09:20:52.000Z</time>
      </trkpt>
      <trkpt lat="42.99913" lon="1.60712">
        <ele>409.60000610352</ele>
        <time>2025-08-07T09:20:59.000Z</time>
      </trkpt>
      <trkpt lat="42.99914" lon="1.60709">
        <ele>409.79998779297</ele>
        <time>2025-08-07T09:21:00.000Z</time>
      </trkpt>
      <trkpt lat="42.99924" lon="1.60694">
        <ele>410</ele>
        <time>2025-08-07T09:21:05.000Z</time>
      </trkpt>
      <trkpt lat="42.99937" lon="1.60668">
        <ele>410.39999389648</ele>
        <time>2025-08-07T09:21:13.000Z</time>
      </trkpt>
      <trkpt lat="42.99942" lon="1.60652">
        <ele>410.60000610352</ele>
        <time>2025-08-07T09:21:17.000Z</time>
      </trkpt>
      <trkpt lat="42.99942" lon="1.60649">
        <ele>410.60000610352</ele>
        <time>2025-08-07T09:21:18.000Z</time>
      </trkpt>
      <trkpt lat="42.99943" lon="1.60645">
        <ele>410.60000610352</ele>
        <time>2025-08-07T09:21:19.000Z</time>
      </trkpt>
      <trkpt lat="42.99945" lon="1.60638">
        <ele>410.79998779297</ele>
        <time>2025-08-07T09:21:21.000Z</time>
      </trkpt>
      <trkpt lat="42.99947" lon="1.60635">
        <ele>410.79998779297</ele>
        <time>2025-08-07T09:21:22.000Z</time>
      </trkpt>
      <trkpt lat="42.99949" lon="1.60613">
        <ele>411.20001220703</ele>
        <time>2025-08-07T09:21:27.000Z</time>
      </trkpt>
      <trkpt lat="42.99951" lon="1.60606">
        <ele>411.20001220703</ele>
        <time>2025-08-07T09:21:29.000Z</time>
      </trkpt>
      <trkpt lat="42.99953" lon="1.60597">
        <ele>411.39999389648</ele>
        <time>2025-08-07T09:21:31.000Z</time>
      </trkpt>
      <trkpt lat="42.99962" lon="1.60568">
        <ele>411.60000610352</ele>
        <time>2025-08-07T09:21:37.000Z</time>
      </trkpt>
      <trkpt lat="42.99965" lon="1.60553">
        <ele>411.79998779297</ele>
        <time>2025-08-07T09:21:41.000Z</time>
      </trkpt>
      <trkpt lat="42.99967" lon="1.60545">
        <ele>412</ele>
        <time>2025-08-07T09:21:43.000Z</time>
      </trkpt>
      <trkpt lat="42.99972" lon="1.60517">
        <ele>412.39999389648</ele>
        <time>2025-08-07T09:21:49.000Z</time>
      </trkpt>
      <trkpt lat="42.99976" lon="1.60482">
        <ele>412.60000610352</ele>
        <time>2025-08-07T09:21:57.000Z</time>
      </trkpt>
      <trkpt lat="42.99977" lon="1.60451">
        <ele>412.60000610352</ele>
        <time>2025-08-07T09:22:04.000Z</time>
      </trkpt>
      <trkpt lat="42.99977" lon="1.60448">
        <ele>412.79998779297</ele>
        <time>2025-08-07T09:22:05.000Z</time>
      </trkpt>
      <trkpt lat="42.99975" lon="1.60426">
        <ele>412.79998779297</ele>
        <time>2025-08-07T09:22:10.000Z</time>
      </trkpt>
      <trkpt lat="42.99971" lon="1.60399">
        <ele>413.20001220703</ele>
        <time>2025-08-07T09:22:16.000Z</time>
      </trkpt>
      <trkpt lat="42.9997" lon="1.60376">
        <ele>413.39999389648</ele>
        <time>2025-08-07T09:22:21.000Z</time>
      </trkpt>
      <trkpt lat="42.99969" lon="1.60367">
        <ele>413.60000610352</ele>
        <time>2025-08-07T09:22:23.000Z</time>
      </trkpt>
      <trkpt lat="42.99968" lon="1.60352">
        <ele>414</ele>
        <time>2025-08-07T09:22:27.000Z</time>
      </trkpt>
      <trkpt lat="42.9997" lon="1.60323">
        <ele>414.20001220703</ele>
        <time>2025-08-07T09:22:33.000Z</time>
      </trkpt>
      <trkpt lat="42.99972" lon="1.60302">
        <ele>414.60000610352</ele>
        <time>2025-08-07T09:22:37.000Z</time>
      </trkpt>
      <trkpt lat="42.99973" lon="1.60293">
        <ele>414.79998779297</ele>
        <time>2025-08-07T09:22:39.000Z</time>
      </trkpt>
      <trkpt lat="42.99971" lon="1.60278">
        <ele>415</ele>
        <time>2025-08-07T09:22:42.000Z</time>
      </trkpt>
      <trkpt lat="42.99972" lon="1.60275">
        <ele>414.79998779297</ele>
        <time>2025-08-07T09:22:43.000Z</time>
      </trkpt>
      <trkpt lat="42.99976" lon="1.60259">
        <ele>415</ele>
        <time>2025-08-07T09:22:47.000Z</time>
      </trkpt>
      <trkpt lat="42.99978" lon="1.60246">
        <ele>415.39999389648</ele>
        <time>2025-08-07T09:22:50.000Z</time>
      </trkpt>
      <trkpt lat="42.99978" lon="1.60242">
        <ele>415.39999389648</ele>
        <time>2025-08-07T09:22:51.000Z</time>
      </trkpt>
      <trkpt lat="42.99978" lon="1.60238">
        <ele>415.60000610352</ele>
        <time>2025-08-07T09:22:52.000Z</time>
      </trkpt>
      <trkpt lat="42.99978" lon="1.60215">
        <ele>415.79998779297</ele>
        <time>2025-08-07T09:22:58.000Z</time>
      </trkpt>
      <trkpt lat="42.99979" lon="1.60207">
        <ele>416</ele>
        <time>2025-08-07T09:23:00.000Z</time>
      </trkpt>
      <trkpt lat="42.99983" lon="1.602">
        <ele>416</ele>
        <time>2025-08-07T09:23:02.000Z</time>
      </trkpt>
      <trkpt lat="42.99985" lon="1.60177">
        <ele>416.39999389648</ele>
        <time>2025-08-07T09:23:07.000Z</time>
      </trkpt>
      <trkpt lat="42.99986" lon="1.60164">
        <ele>416.39999389648</ele>
        <time>2025-08-07T09:23:10.000Z</time>
      </trkpt>
      <trkpt lat="42.99989" lon="1.60151">
        <ele>416.60000610352</ele>
        <time>2025-08-07T09:23:13.000Z</time>
      </trkpt>
      <trkpt lat="42.99995" lon="1.60128">
        <ele>417</ele>
        <time>2025-08-07T09:23:19.000Z</time>
      </trkpt>
      <trkpt lat="43.00004" lon="1.60089">
        <ele>417.20001220703</ele>
        <time>2025-08-07T09:23:29.000Z</time>
      </trkpt>
      <trkpt lat="43.00007" lon="1.60073">
        <ele>417.39999389648</ele>
        <time>2025-08-07T09:23:33.000Z</time>
      </trkpt>
      <trkpt lat="43.0001" lon="1.60061">
        <ele>417.60000610352</ele>
        <time>2025-08-07T09:23:36.000Z</time>
      </trkpt>
      <trkpt lat="43.00023" lon="1.60036">
        <ele>418.20001220703</ele>
        <time>2025-08-07T09:23:43.000Z</time>
      </trkpt>
      <trkpt lat="43.00024" lon="1.60031">
        <ele>418.20001220703</ele>
        <time>2025-08-07T09:23:44.000Z</time>
      </trkpt>
      <trkpt lat="43.00029" lon="1.60018">
        <ele>418.39999389648</ele>
        <time>2025-08-07T09:23:47.000Z</time>
      </trkpt>
      <trkpt lat="43.00034" lon="1.60007">
        <ele>418.60000610352</ele>
        <time>2025-08-07T09:23:50.000Z</time>
      </trkpt>
      <trkpt lat="43.00038" lon="1.59997">
        <ele>418.39999389648</ele>
        <time>2025-08-07T09:23:53.000Z</time>
      </trkpt>
      <trkpt lat="43.00041" lon="1.59986">
        <ele>418.60000610352</ele>
        <time>2025-08-07T09:23:56.000Z</time>
      </trkpt>
      <trkpt lat="43.00044" lon="1.59982">
        <ele>418.60000610352</ele>
        <time>2025-08-07T09:23:57.000Z</time>
      </trkpt>
      <trkpt lat="43.00049" lon="1.59968">
        <ele>418.60000610352</ele>
        <time>2025-08-07T09:24:00.000Z</time>
      </trkpt>
      <trkpt lat="43.00049" lon="1.59962">
        <ele>418.79998779297</ele>
        <time>2025-08-07T09:24:02.000Z</time>
      </trkpt>
      <trkpt lat="43.0006" lon="1.59946">
        <ele>419</ele>
        <time>2025-08-07T09:24:07.000Z</time>
      </trkpt>
      <trkpt lat="43.00066" lon="1.59925">
        <ele>419.39999389648</ele>
        <time>2025-08-07T09:24:13.000Z</time>
      </trkpt>
      <trkpt lat="43.00073" lon="1.59896">
        <ele>419.79998779297</ele>
        <time>2025-08-07T09:24:21.000Z</time>
      </trkpt>
      <trkpt lat="43.00078" lon="1.59875">
        <ele>420.39999389648</ele>
        <time>2025-08-07T09:24:26.000Z</time>
      </trkpt>
      <trkpt lat="43.00082" lon="1.59867">
        <ele>420.39999389648</ele>
        <time>2025-08-07T09:24:28.000Z</time>
      </trkpt>
      <trkpt lat="43.0009" lon="1.59851">
        <ele>420.79998779297</ele>
        <time>2025-08-07T09:24:32.000Z</time>
      </trkpt>
      <trkpt lat="43.00103" lon="1.59827">
        <ele>421.20001220703</ele>
        <time>2025-08-07T09:24:38.000Z</time>
      </trkpt>
      <trkpt lat="43.00108" lon="1.59819">
        <ele>421.39999389648</ele>
        <time>2025-08-07T09:24:40.000Z</time>
      </trkpt>
      <trkpt lat="43.00113" lon="1.5981">
        <ele>421.60000610352</ele>
        <time>2025-08-07T09:24:43.000Z</time>
      </trkpt>
      <trkpt lat="43.00123" lon="1.59785">
        <ele>422.20001220703</ele>
        <time>2025-08-07T09:24:49.000Z</time>
      </trkpt>
      <trkpt lat="43.00129" lon="1.59767">
        <ele>422.20001220703</ele>
        <time>2025-08-07T09:24:54.000Z</time>
      </trkpt>
      <trkpt lat="43.00133" lon="1.59756">
        <ele>422.39999389648</ele>
        <time>2025-08-07T09:24:57.000Z</time>
      </trkpt>
      <trkpt lat="43.00134" lon="1.59731">
        <ele>422.79998779297</ele>
        <time>2025-08-07T09:25:03.000Z</time>
      </trkpt>
      <trkpt lat="43.0014" lon="1.59711">
        <ele>422.79998779297</ele>
        <time>2025-08-07T09:25:10.000Z</time>
      </trkpt>
      <trkpt lat="43.00142" lon="1.59701">
        <ele>422.79998779297</ele>
        <time>2025-08-07T09:25:13.000Z</time>
      </trkpt>
      <trkpt lat="43.00145" lon="1.59691">
        <ele>423</ele>
        <time>2025-08-07T09:25:16.000Z</time>
      </trkpt>
      <trkpt lat="43.00149" lon="1.59681">
        <ele>423.20001220703</ele>
        <time>2025-08-07T09:25:19.000Z</time>
      </trkpt>
      <trkpt lat="43.00153" lon="1.59669">
        <ele>423.39999389648</ele>
        <time>2025-08-07T09:25:22.000Z</time>
      </trkpt>
      <trkpt lat="43.00154" lon="1.59648">
        <ele>423.39999389648</ele>
        <time>2025-08-07T09:25:27.000Z</time>
      </trkpt>
      <trkpt lat="43.00159" lon="1.59621">
        <ele>423.20001220703</ele>
        <time>2025-08-07T09:25:34.000Z</time>
      </trkpt>
      <trkpt lat="43.00161" lon="1.59598">
        <ele>423.39999389648</ele>
        <time>2025-08-07T09:25:40.000Z</time>
      </trkpt>
      <trkpt lat="43.00161" lon="1.59596">
        <ele>423.60000610352</ele>
        <time>2025-08-07T09:25:44.000Z</time>
      </trkpt>
      <trkpt lat="43.00162" lon="1.59583">
        <ele>423.20001220703</ele>
        <time>2025-08-07T09:26:53.000Z</time>
      </trkpt>
      <trkpt lat="43.00162" lon="1.59577">
        <ele>423.60000610352</ele>
        <time>2025-08-07T09:26:55.000Z</time>
      </trkpt>
      <trkpt lat="43.00162" lon="1.59559">
        <ele>423.79998779297</ele>
        <time>2025-08-07T09:27:01.000Z</time>
      </trkpt>
      <trkpt lat="43.0016" lon="1.59537">
        <ele>424</ele>
        <time>2025-08-07T09:27:06.000Z</time>
      </trkpt>
      <trkpt lat="43.00159" lon="1.59533">
        <ele>424.20001220703</ele>
        <time>2025-08-07T09:27:07.000Z</time>
      </trkpt>
      <trkpt lat="43.00161" lon="1.59516">
        <ele>424.39999389648</ele>
        <time>2025-08-07T09:27:11.000Z</time>
      </trkpt>
      <trkpt lat="43.00162" lon="1.59495">
        <ele>424.79998779297</ele>
        <time>2025-08-07T09:27:16.000Z</time>
      </trkpt>
      <trkpt lat="43.00163" lon="1.59484">
        <ele>425</ele>
        <time>2025-08-07T09:27:18.000Z</time>
      </trkpt>
      <trkpt lat="43.00165" lon="1.59464">
        <ele>425.20001220703</ele>
        <time>2025-08-07T09:27:23.000Z</time>
      </trkpt>
      <trkpt lat="43.00169" lon="1.59433">
        <ele>425.60000610352</ele>
        <time>2025-08-07T09:27:30.000Z</time>
      </trkpt>
      <trkpt lat="43.00169" lon="1.59405">
        <ele>425.79998779297</ele>
        <time>2025-08-07T09:27:36.000Z</time>
      </trkpt>
      <trkpt lat="43.00174" lon="1.59386">
        <ele>426.20001220703</ele>
        <time>2025-08-07T09:27:40.000Z</time>
      </trkpt>
      <trkpt lat="43.00176" lon="1.59382">
        <ele>426.39999389648</ele>
        <time>2025-08-07T09:27:41.000Z</time>
      </trkpt>
      <trkpt lat="43.0017" lon="1.59364">
        <ele>426.79998779297</ele>
        <time>2025-08-07T09:27:46.000Z</time>
      </trkpt>
      <trkpt lat="43.00171" lon="1.59357">
        <ele>426.79998779297</ele>
        <time>2025-08-07T09:27:48.000Z</time>
      </trkpt>
      <trkpt lat="43.00169" lon="1.5935">
        <ele>427</ele>
        <time>2025-08-07T09:27:50.000Z</time>
      </trkpt>
      <trkpt lat="43.00166" lon="1.59329">
        <ele>427.20001220703</ele>
        <time>2025-08-07T09:27:56.000Z</time>
      </trkpt>
      <trkpt lat="43.00166" lon="1.59325">
        <ele>427.20001220703</ele>
        <time>2025-08-07T09:27:57.000Z</time>
      </trkpt>
      <trkpt lat="43.00167" lon="1.59302">
        <ele>427.79998779297</ele>
        <time>2025-08-07T09:28:02.000Z</time>
      </trkpt>
      <trkpt lat="43.0017" lon="1.59279">
        <ele>428</ele>
        <time>2025-08-07T09:28:07.000Z</time>
      </trkpt>
      <trkpt lat="43.0017" lon="1.59259">
        <ele>428.20001220703</ele>
        <time>2025-08-07T09:28:11.000Z</time>
      </trkpt>
      <trkpt lat="43.00172" lon="1.59256">
        <ele>428.20001220703</ele>
        <time>2025-08-07T09:28:12.000Z</time>
      </trkpt>
      <trkpt lat="43.00175" lon="1.59231">
        <ele>428.39999389648</ele>
        <time>2025-08-07T09:28:17.000Z</time>
      </trkpt>
      <trkpt lat="43.0018" lon="1.59205">
        <ele>428.60000610352</ele>
        <time>2025-08-07T09:28:23.000Z</time>
      </trkpt>
      <trkpt lat="43.00183" lon="1.59184">
        <ele>428.60000610352</ele>
        <time>2025-08-07T09:28:28.000Z</time>
      </trkpt>
      <trkpt lat="43.00186" lon="1.59153">
        <ele>429.39999389648</ele>
        <time>2025-08-07T09:28:35.000Z</time>
      </trkpt>
      <trkpt lat="43.00186" lon="1.5915">
        <ele>429.39999389648</ele>
        <time>2025-08-07T09:28:36.000Z</time>
      </trkpt>
      <trkpt lat="43.00189" lon="1.59125">
        <ele>430</ele>
        <time>2025-08-07T09:28:43.000Z</time>
      </trkpt>
      <trkpt lat="43.00189" lon="1.59108">
        <ele>430.39999389648</ele>
        <time>2025-08-07T09:28:47.000Z</time>
      </trkpt>
      <trkpt lat="43.0019" lon="1.59099">
        <ele>430.39999389648</ele>
        <time>2025-08-07T09:28:49.000Z</time>
      </trkpt>
      <trkpt lat="43.00189" lon="1.59094">
        <ele>430.60000610352</ele>
        <time>2025-08-07T09:28:50.000Z</time>
      </trkpt>
      <trkpt lat="43.00188" lon="1.59086">
        <ele>430.60000610352</ele>
        <time>2025-08-07T09:28:52.000Z</time>
      </trkpt>
      <trkpt lat="43.00194" lon="1.59056">
        <ele>430.60000610352</ele>
        <time>2025-08-07T09:28:59.000Z</time>
      </trkpt>
      <trkpt lat="43.00197" lon="1.59036">
        <ele>430.60000610352</ele>
        <time>2025-08-07T09:29:03.000Z</time>
      </trkpt>
      <trkpt lat="43.00199" lon="1.59031">
        <ele>430.79998779297</ele>
        <time>2025-08-07T09:29:04.000Z</time>
      </trkpt>
      <trkpt lat="43.002" lon="1.59019">
        <ele>430.79998779297</ele>
        <time>2025-08-07T09:29:07.000Z</time>
      </trkpt>
      <trkpt lat="43.00202" lon="1.59008">
        <ele>430.79998779297</ele>
        <time>2025-08-07T09:29:09.000Z</time>
      </trkpt>
      <trkpt lat="43.00209" lon="1.5899">
        <ele>431.20001220703</ele>
        <time>2025-08-07T09:29:13.000Z</time>
      </trkpt>
      <trkpt lat="43.00208" lon="1.58981">
        <ele>431.20001220703</ele>
        <time>2025-08-07T09:29:15.000Z</time>
      </trkpt>
      <trkpt lat="43.0021" lon="1.58964">
        <ele>431.60000610352</ele>
        <time>2025-08-07T09:29:20.000Z</time>
      </trkpt>
      <trkpt lat="43.00212" lon="1.5895">
        <ele>431.79998779297</ele>
        <time>2025-08-07T09:29:24.000Z</time>
      </trkpt>
      <trkpt lat="43.00215" lon="1.58922">
        <ele>432.20001220703</ele>
        <time>2025-08-07T09:29:29.000Z</time>
      </trkpt>
      <trkpt lat="43.00215" lon="1.58919">
        <ele>432.20001220703</ele>
        <time>2025-08-07T09:29:30.000Z</time>
      </trkpt>
      <trkpt lat="43.00219" lon="1.58912">
        <ele>432.39999389648</ele>
        <time>2025-08-07T09:29:33.000Z</time>
      </trkpt>
      <trkpt lat="43.00219" lon="1.58904">
        <ele>432.39999389648</ele>
        <time>2025-08-07T09:29:35.000Z</time>
      </trkpt>
      <trkpt lat="43.00223" lon="1.58875">
        <ele>432.79998779297</ele>
        <time>2025-08-07T09:29:42.000Z</time>
      </trkpt>
      <trkpt lat="43.00228" lon="1.58845">
        <ele>433.20001220703</ele>
        <time>2025-08-07T09:29:49.000Z</time>
      </trkpt>
      <trkpt lat="43.00229" lon="1.58826">
        <ele>433.20001220703</ele>
        <time>2025-08-07T09:29:53.000Z</time>
      </trkpt>
      <trkpt lat="43.00228" lon="1.58816">
        <ele>433.39999389648</ele>
        <time>2025-08-07T09:29:55.000Z</time>
      </trkpt>
      <trkpt lat="43.00226" lon="1.58802">
        <ele>433.39999389648</ele>
        <time>2025-08-07T09:30:00.000Z</time>
      </trkpt>
      <trkpt lat="43.00225" lon="1.58779">
        <ele>433.79998779297</ele>
        <time>2025-08-07T09:30:07.000Z</time>
      </trkpt>
      <trkpt lat="43.00224" lon="1.58759">
        <ele>434</ele>
        <time>2025-08-07T09:30:12.000Z</time>
      </trkpt>
      <trkpt lat="43.00224" lon="1.58753">
        <ele>434</ele>
        <time>2025-08-07T09:30:13.000Z</time>
      </trkpt>
      <trkpt lat="43.00225" lon="1.58734">
        <ele>434.39999389648</ele>
        <time>2025-08-07T09:30:18.000Z</time>
      </trkpt>
      <trkpt lat="43.00226" lon="1.58708">
        <ele>434.60000610352</ele>
        <time>2025-08-07T09:30:23.000Z</time>
      </trkpt>
      <trkpt lat="43.00228" lon="1.58691">
        <ele>434.79998779297</ele>
        <time>2025-08-07T09:30:27.000Z</time>
      </trkpt>
      <trkpt lat="43.00228" lon="1.5868">
        <ele>435.20001220703</ele>
        <time>2025-08-07T09:30:30.000Z</time>
      </trkpt>
      <trkpt lat="43.00228" lon="1.58675">
        <ele>435.20001220703</ele>
        <time>2025-08-07T09:30:32.000Z</time>
      </trkpt>
      <trkpt lat="43.00223" lon="1.58644">
        <ele>435.20001220703</ele>
        <time>2025-08-07T09:30:38.000Z</time>
      </trkpt>
      <trkpt lat="43.00215" lon="1.58605">
        <ele>434.79998779297</ele>
        <time>2025-08-07T09:30:44.000Z</time>
      </trkpt>
      <trkpt lat="43.00211" lon="1.58576">
        <ele>434.79998779297</ele>
        <time>2025-08-07T09:30:50.000Z</time>
      </trkpt>
      <trkpt lat="43.00209" lon="1.58561">
        <ele>435.20001220703</ele>
        <time>2025-08-07T09:30:55.000Z</time>
      </trkpt>
      <trkpt lat="43.00208" lon="1.58549">
        <ele>436</ele>
        <time>2025-08-07T09:30:59.000Z</time>
      </trkpt>
      <trkpt lat="43.00207" lon="1.58539">
        <ele>436.39999389648</ele>
        <time>2025-08-07T09:31:02.000Z</time>
      </trkpt>
      <trkpt lat="43.00203" lon="1.58515">
        <ele>437</ele>
        <time>2025-08-07T09:31:08.000Z</time>
      </trkpt>
      <trkpt lat="43.00201" lon="1.58505">
        <ele>437.20001220703</ele>
        <time>2025-08-07T09:31:10.000Z</time>
      </trkpt>
      <trkpt lat="43.00195" lon="1.58491">
        <ele>437.39999389648</ele>
        <time>2025-08-07T09:31:14.000Z</time>
      </trkpt>
      <trkpt lat="43.00188" lon="1.58462">
        <ele>437.39999389648</ele>
        <time>2025-08-07T09:31:21.000Z</time>
      </trkpt>
      <trkpt lat="43.0018" lon="1.58431">
        <ele>437.60000610352</ele>
        <time>2025-08-07T09:31:29.000Z</time>
      </trkpt>
      <trkpt lat="43.00173" lon="1.58393">
        <ele>438</ele>
        <time>2025-08-07T09:31:37.000Z</time>
      </trkpt>
      <trkpt lat="43.00167" lon="1.58369">
        <ele>438.20001220703</ele>
        <time>2025-08-07T09:31:43.000Z</time>
      </trkpt>
      <trkpt lat="43.00165" lon="1.58364">
        <ele>438.20001220703</ele>
        <time>2025-08-07T09:31:45.000Z</time>
      </trkpt>
      <trkpt lat="43.00161" lon="1.58357">
        <ele>438.20001220703</ele>
        <time>2025-08-07T09:31:48.000Z</time>
      </trkpt>
      <trkpt lat="43.00153" lon="1.58321">
        <ele>438.60000610352</ele>
        <time>2025-08-07T09:31:57.000Z</time>
      </trkpt>
      <trkpt lat="43.0015" lon="1.58296">
        <ele>439</ele>
        <time>2025-08-07T09:32:04.000Z</time>
      </trkpt>
      <trkpt lat="43.00149" lon="1.58292">
        <ele>439</ele>
        <time>2025-08-07T09:32:05.000Z</time>
      </trkpt>
      <trkpt lat="43.00149" lon="1.58273">
        <ele>439.39999389648</ele>
        <time>2025-08-07T09:32:09.000Z</time>
      </trkpt>
      <trkpt lat="43.00151" lon="1.58251">
        <ele>440</ele>
        <time>2025-08-07T09:32:14.000Z</time>
      </trkpt>
      <trkpt lat="43.0015" lon="1.58244">
        <ele>440.39999389648</ele>
        <time>2025-08-07T09:32:16.000Z</time>
      </trkpt>
      <trkpt lat="43.00145" lon="1.58215">
        <ele>441</ele>
        <time>2025-08-07T09:32:24.000Z</time>
      </trkpt>
      <trkpt lat="43.00145" lon="1.58203">
        <ele>441.20001220703</ele>
        <time>2025-08-07T09:32:27.000Z</time>
      </trkpt>
      <trkpt lat="43.00147" lon="1.58188">
        <ele>441.39999389648</ele>
        <time>2025-08-07T09:32:31.000Z</time>
      </trkpt>
      <trkpt lat="43.00148" lon="1.58185">
        <ele>441.39999389648</ele>
        <time>2025-08-07T09:32:32.000Z</time>
      </trkpt>
      <trkpt lat="43.0015" lon="1.58165">
        <ele>441.60000610352</ele>
        <time>2025-08-07T09:32:37.000Z</time>
      </trkpt>
      <trkpt lat="43.00151" lon="1.58161">
        <ele>441.60000610352</ele>
        <time>2025-08-07T09:32:38.000Z</time>
      </trkpt>
      <trkpt lat="43.00155" lon="1.58152">
        <ele>441.39999389648</ele>
        <time>2025-08-07T09:32:40.000Z</time>
      </trkpt>
      <trkpt lat="43.00162" lon="1.58131">
        <ele>441.60000610352</ele>
        <time>2025-08-07T09:32:45.000Z</time>
      </trkpt>
      <trkpt lat="43.00172" lon="1.58113">
        <ele>442</ele>
        <time>2025-08-07T09:32:49.000Z</time>
      </trkpt>
      <trkpt lat="43.00174" lon="1.58105">
        <ele>442</ele>
        <time>2025-08-07T09:32:51.000Z</time>
      </trkpt>
      <trkpt lat="43.00176" lon="1.58098">
        <ele>442.20001220703</ele>
        <time>2025-08-07T09:32:53.000Z</time>
      </trkpt>
      <trkpt lat="43.00182" lon="1.58071">
        <ele>442.60000610352</ele>
        <time>2025-08-07T09:33:00.000Z</time>
      </trkpt>
      <trkpt lat="43.00186" lon="1.58049">
        <ele>442.60000610352</ele>
        <time>2025-08-07T09:33:05.000Z</time>
      </trkpt>
      <trkpt lat="43.0019" lon="1.58046">
        <ele>442.60000610352</ele>
        <time>2025-08-07T09:33:06.000Z</time>
      </trkpt>
      <trkpt lat="43.00193" lon="1.58038">
        <ele>442.79998779297</ele>
        <time>2025-08-07T09:33:08.000Z</time>
      </trkpt>
      <trkpt lat="43.00193" lon="1.58031">
        <ele>442.79998779297</ele>
        <time>2025-08-07T09:33:10.000Z</time>
      </trkpt>
      <trkpt lat="43.00193" lon="1.58025">
        <ele>443</ele>
        <time>2025-08-07T09:33:12.000Z</time>
      </trkpt>
      <trkpt lat="43.00193" lon="1.58022">
        <ele>443</ele>
        <time>2025-08-07T09:33:13.000Z</time>
      </trkpt>
      <trkpt lat="43.00193" lon="1.58002">
        <ele>443.39999389648</ele>
        <time>2025-08-07T09:33:18.000Z</time>
      </trkpt>
      <trkpt lat="43.00195" lon="1.57977">
        <ele>443.39999389648</ele>
        <time>2025-08-07T09:33:24.000Z</time>
      </trkpt>
      <trkpt lat="43.00199" lon="1.57952">
        <ele>444</ele>
        <time>2025-08-07T09:33:30.000Z</time>
      </trkpt>
      <trkpt lat="43.002" lon="1.57948">
        <ele>444.20001220703</ele>
        <time>2025-08-07T09:33:31.000Z</time>
      </trkpt>
      <trkpt lat="43.00204" lon="1.57918">
        <ele>444.39999389648</ele>
        <time>2025-08-07T09:33:38.000Z</time>
      </trkpt>
      <trkpt lat="43.00207" lon="1.579">
        <ele>444.60000610352</ele>
        <time>2025-08-07T09:33:42.000Z</time>
      </trkpt>
      <trkpt lat="43.00209" lon="1.57867">
        <ele>445</ele>
        <time>2025-08-07T09:33:49.000Z</time>
      </trkpt>
      <trkpt lat="43.00213" lon="1.5786">
        <ele>445.20001220703</ele>
        <time>2025-08-07T09:33:51.000Z</time>
      </trkpt>
      <trkpt lat="43.00212" lon="1.57841">
        <ele>445.20001220703</ele>
        <time>2025-08-07T09:33:55.000Z</time>
      </trkpt>
      <trkpt lat="43.00213" lon="1.57823">
        <ele>445.60000610352</ele>
        <time>2025-08-07T09:33:59.000Z</time>
      </trkpt>
      <trkpt lat="43.00214" lon="1.57786">
        <ele>446.20001220703</ele>
        <time>2025-08-07T09:34:06.000Z</time>
      </trkpt>
      <trkpt lat="43.00214" lon="1.5778">
        <ele>446.20001220703</ele>
        <time>2025-08-07T09:34:07.000Z</time>
      </trkpt>
      <trkpt lat="43.00213" lon="1.57743">
        <ele>446.39999389648</ele>
        <time>2025-08-07T09:34:15.000Z</time>
      </trkpt>
      <trkpt lat="43.00214" lon="1.57717">
        <ele>446.60000610352</ele>
        <time>2025-08-07T09:34:21.000Z</time>
      </trkpt>
      <trkpt lat="43.00212" lon="1.57696">
        <ele>446.79998779297</ele>
        <time>2025-08-07T09:34:26.000Z</time>
      </trkpt>
      <trkpt lat="43.00209" lon="1.57685">
        <ele>447.20001220703</ele>
        <time>2025-08-07T09:34:29.000Z</time>
      </trkpt>
      <trkpt lat="43.00208" lon="1.57678">
        <ele>447.39999389648</ele>
        <time>2025-08-07T09:34:31.000Z</time>
      </trkpt>
      <trkpt lat="43.00204" lon="1.57647">
        <ele>448.20001220703</ele>
        <time>2025-08-07T09:34:38.000Z</time>
      </trkpt>
      <trkpt lat="43.00203" lon="1.57619">
        <ele>448.39999389648</ele>
        <time>2025-08-07T09:34:44.000Z</time>
      </trkpt>
      <trkpt lat="43.00204" lon="1.57615">
        <ele>448.60000610352</ele>
        <time>2025-08-07T09:34:45.000Z</time>
      </trkpt>
      <trkpt lat="43.00205" lon="1.57598">
        <ele>448.79998779297</ele>
        <time>2025-08-07T09:34:49.000Z</time>
      </trkpt>
      <trkpt lat="43.00206" lon="1.57593">
        <ele>448.79998779297</ele>
        <time>2025-08-07T09:34:50.000Z</time>
      </trkpt>
      <trkpt lat="43.00206" lon="1.57584">
        <ele>449.20001220703</ele>
        <time>2025-08-07T09:34:53.000Z</time>
      </trkpt>
      <trkpt lat="43.00207" lon="1.5758">
        <ele>449.20001220703</ele>
        <time>2025-08-07T09:34:55.000Z</time>
      </trkpt>
      <trkpt lat="43.00207" lon="1.57576">
        <ele>449.20001220703</ele>
        <time>2025-08-07T09:34:57.000Z</time>
      </trkpt>
      <trkpt lat="43.0021" lon="1.57569">
        <ele>449.60000610352</ele>
        <time>2025-08-07T09:35:02.000Z</time>
      </trkpt>
      <trkpt lat="43.0021" lon="1.57569">
        <ele>449.60000610352</ele>
        <time>2025-08-07T09:35:04.000Z</time>
      </trkpt>
      <trkpt lat="43.00209" lon="1.5756">
        <ele>449.60000610352</ele>
        <time>2025-08-07T09:35:12.000Z</time>
      </trkpt>
      <trkpt lat="43.00209" lon="1.57557">
        <ele>449.60000610352</ele>
        <time>2025-08-07T09:35:13.000Z</time>
      </trkpt>
      <trkpt lat="43.00207" lon="1.57543">
        <ele>449.39999389648</ele>
        <time>2025-08-07T09:35:18.000Z</time>
      </trkpt>
      <trkpt lat="43.00207" lon="1.57541">
        <ele>449.60000610352</ele>
        <time>2025-08-07T09:35:19.000Z</time>
      </trkpt>
      <trkpt lat="43.00204" lon="1.5753">
        <ele>449.60000610352</ele>
        <time>2025-08-07T09:35:23.000Z</time>
      </trkpt>
      <trkpt lat="43.00204" lon="1.57519">
        <ele>449.79998779297</ele>
        <time>2025-08-07T09:35:28.000Z</time>
      </trkpt>
      <trkpt lat="43.00204" lon="1.57519">
        <ele>449.79998779297</ele>
        <time>2025-08-07T09:35:29.000Z</time>
      </trkpt>
      <trkpt lat="43.00203" lon="1.57508">
        <ele>450.60000610352</ele>
        <time>2025-08-07T09:36:31.000Z</time>
      </trkpt>
      <trkpt lat="43.00202" lon="1.57504">
        <ele>450.60000610352</ele>
        <time>2025-08-07T09:36:33.000Z</time>
      </trkpt>
      <trkpt lat="43.00202" lon="1.57496">
        <ele>450.79998779297</ele>
        <time>2025-08-07T09:36:37.000Z</time>
      </trkpt>
      <trkpt lat="43.00202" lon="1.57493">
        <ele>450.79998779297</ele>
        <time>2025-08-07T09:36:38.000Z</time>
      </trkpt>
      <trkpt lat="43.00201" lon="1.57486">
        <ele>450.79998779297</ele>
        <time>2025-08-07T09:36:40.000Z</time>
      </trkpt>
      <trkpt lat="43.00199" lon="1.57479">
        <ele>450.79998779297</ele>
        <time>2025-08-07T09:36:42.000Z</time>
      </trkpt>
      <trkpt lat="43.00194" lon="1.57457">
        <ele>450.79998779297</ele>
        <time>2025-08-07T09:36:46.000Z</time>
      </trkpt>
      <trkpt lat="43.00192" lon="1.5743">
        <ele>451</ele>
        <time>2025-08-07T09:36:53.000Z</time>
      </trkpt>
      <trkpt lat="43.00189" lon="1.57402">
        <ele>451.20001220703</ele>
        <time>2025-08-07T09:37:00.000Z</time>
      </trkpt>
      <trkpt lat="43.00187" lon="1.57388">
        <ele>451.39999389648</ele>
        <time>2025-08-07T09:37:03.000Z</time>
      </trkpt>
      <trkpt lat="43.00184" lon="1.57374">
        <ele>451.60000610352</ele>
        <time>2025-08-07T09:37:06.000Z</time>
      </trkpt>
      <trkpt lat="43.00179" lon="1.57339">
        <ele>452</ele>
        <time>2025-08-07T09:37:13.000Z</time>
      </trkpt>
      <trkpt lat="43.00176" lon="1.57335">
        <ele>452</ele>
        <time>2025-08-07T09:37:14.000Z</time>
      </trkpt>
      <trkpt lat="43.00173" lon="1.57323">
        <ele>452</ele>
        <time>2025-08-07T09:37:18.000Z</time>
      </trkpt>
      <trkpt lat="43.00165" lon="1.57291">
        <ele>452.39999389648</ele>
        <time>2025-08-07T09:37:26.000Z</time>
      </trkpt>
      <trkpt lat="43.00164" lon="1.57287">
        <ele>452.39999389648</ele>
        <time>2025-08-07T09:37:27.000Z</time>
      </trkpt>
      <trkpt lat="43.00163" lon="1.57262">
        <ele>452.79998779297</ele>
        <time>2025-08-07T09:37:33.000Z</time>
      </trkpt>
      <trkpt lat="43.00162" lon="1.57254">
        <ele>453</ele>
        <time>2025-08-07T09:37:35.000Z</time>
      </trkpt>
      <trkpt lat="43.00164" lon="1.57237">
        <ele>453.20001220703</ele>
        <time>2025-08-07T09:37:38.000Z</time>
      </trkpt>
      <trkpt lat="43.00163" lon="1.57211">
        <ele>453.39999389648</ele>
        <time>2025-08-07T09:37:43.000Z</time>
      </trkpt>
      <trkpt lat="43.00163" lon="1.57204">
        <ele>453.60000610352</ele>
        <time>2025-08-07T09:37:45.000Z</time>
      </trkpt>
      <trkpt lat="43.00169" lon="1.57181">
        <ele>453.79998779297</ele>
        <time>2025-08-07T09:37:50.000Z</time>
      </trkpt>
      <trkpt lat="43.00167" lon="1.57158">
        <ele>454.39999389648</ele>
        <time>2025-08-07T09:37:55.000Z</time>
      </trkpt>
      <trkpt lat="43.00166" lon="1.57156">
        <ele>454.39999389648</ele>
        <time>2025-08-07T09:37:56.000Z</time>
      </trkpt>
      <trkpt lat="43.00161" lon="1.57124">
        <ele>454.79998779297</ele>
        <time>2025-08-07T09:38:03.000Z</time>
      </trkpt>
      <trkpt lat="43.00163" lon="1.57105">
        <ele>455.39999389648</ele>
        <time>2025-08-07T09:38:07.000Z</time>
      </trkpt>
      <trkpt lat="43.00163" lon="1.57101">
        <ele>455.39999389648</ele>
        <time>2025-08-07T09:38:08.000Z</time>
      </trkpt>
      <trkpt lat="43.00165" lon="1.57082">
        <ele>455.79998779297</ele>
        <time>2025-08-07T09:38:13.000Z</time>
      </trkpt>
      <trkpt lat="43.00173" lon="1.57054">
        <ele>456.20001220703</ele>
        <time>2025-08-07T09:38:19.000Z</time>
      </trkpt>
      <trkpt lat="43.00172" lon="1.57034">
        <ele>456.39999389648</ele>
        <time>2025-08-07T09:38:24.000Z</time>
      </trkpt>
      <trkpt lat="43.00173" lon="1.57031">
        <ele>456.39999389648</ele>
        <time>2025-08-07T09:38:25.000Z</time>
      </trkpt>
      <trkpt lat="43.00173" lon="1.57007">
        <ele>456.39999389648</ele>
        <time>2025-08-07T09:38:31.000Z</time>
      </trkpt>
      <trkpt lat="43.00173" lon="1.56977">
        <ele>456.79998779297</ele>
        <time>2025-08-07T09:38:38.000Z</time>
      </trkpt>
      <trkpt lat="43.00176" lon="1.5694">
        <ele>457.20001220703</ele>
        <time>2025-08-07T09:38:46.000Z</time>
      </trkpt>
      <trkpt lat="43.00176" lon="1.56937">
        <ele>457.39999389648</ele>
        <time>2025-08-07T09:38:47.000Z</time>
      </trkpt>
      <trkpt lat="43.00179" lon="1.56906">
        <ele>457.79998779297</ele>
        <time>2025-08-07T09:38:53.000Z</time>
      </trkpt>
      <trkpt lat="43.00184" lon="1.56877">
        <ele>458.20001220703</ele>
        <time>2025-08-07T09:38:59.000Z</time>
      </trkpt>
      <trkpt lat="43.00187" lon="1.56856">
        <ele>458.39999389648</ele>
        <time>2025-08-07T09:39:03.000Z</time>
      </trkpt>
      <trkpt lat="43.0019" lon="1.56845">
        <ele>458.60000610352</ele>
        <time>2025-08-07T09:39:06.000Z</time>
      </trkpt>
      <trkpt lat="43.00192" lon="1.56822">
        <ele>459.20001220703</ele>
        <time>2025-08-07T09:39:11.000Z</time>
      </trkpt>
      <trkpt lat="43.00193" lon="1.56809">
        <ele>459.39999389648</ele>
        <time>2025-08-07T09:39:14.000Z</time>
      </trkpt>
      <trkpt lat="43.00194" lon="1.56801">
        <ele>459.60000610352</ele>
        <time>2025-08-07T09:39:16.000Z</time>
      </trkpt>
      <trkpt lat="43.00195" lon="1.56797">
        <ele>459.60000610352</ele>
        <time>2025-08-07T09:39:17.000Z</time>
      </trkpt>
      <trkpt lat="43.00196" lon="1.56777">
        <ele>459.79998779297</ele>
        <time>2025-08-07T09:39:21.000Z</time>
      </trkpt>
      <trkpt lat="43.00204" lon="1.56745">
        <ele>460</ele>
        <time>2025-08-07T09:39:28.000Z</time>
      </trkpt>
      <trkpt lat="43.0021" lon="1.56718">
        <ele>460.39999389648</ele>
        <time>2025-08-07T09:39:34.000Z</time>
      </trkpt>
      <trkpt lat="43.00213" lon="1.56708">
        <ele>460.39999389648</ele>
        <time>2025-08-07T09:39:36.000Z</time>
      </trkpt>
      <trkpt lat="43.00216" lon="1.56702">
        <ele>460.60000610352</ele>
        <time>2025-08-07T09:39:38.000Z</time>
      </trkpt>
      <trkpt lat="43.00218" lon="1.56698">
        <ele>460.60000610352</ele>
        <time>2025-08-07T09:39:39.000Z</time>
      </trkpt>
      <trkpt lat="43.00223" lon="1.56684">
        <ele>460.79998779297</ele>
        <time>2025-08-07T09:39:42.000Z</time>
      </trkpt>
      <trkpt lat="43.00225" lon="1.5668">
        <ele>460.79998779297</ele>
        <time>2025-08-07T09:39:43.000Z</time>
      </trkpt>
      <trkpt lat="43.00232" lon="1.5665">
        <ele>461.20001220703</ele>
        <time>2025-08-07T09:39:49.000Z</time>
      </trkpt>
      <trkpt lat="43.00237" lon="1.56628">
        <ele>461.39999389648</ele>
        <time>2025-08-07T09:39:54.000Z</time>
      </trkpt>
      <trkpt lat="43.00244" lon="1.56617">
        <ele>461.60000610352</ele>
        <time>2025-08-07T09:39:57.000Z</time>
      </trkpt>
      <trkpt lat="43.00248" lon="1.56608">
        <ele>461.79998779297</ele>
        <time>2025-08-07T09:39:59.000Z</time>
      </trkpt>
      <trkpt lat="43.00256" lon="1.56583">
        <ele>462.20001220703</ele>
        <time>2025-08-07T09:40:05.000Z</time>
      </trkpt>
      <trkpt lat="43.00261" lon="1.56581">
        <ele>462.20001220703</ele>
        <time>2025-08-07T09:40:06.000Z</time>
      </trkpt>
      <trkpt lat="43.00262" lon="1.56571">
        <ele>462.39999389648</ele>
        <time>2025-08-07T09:40:08.000Z</time>
      </trkpt>
      <trkpt lat="43.00263" lon="1.56566">
        <ele>462.39999389648</ele>
        <time>2025-08-07T09:40:09.000Z</time>
      </trkpt>
      <trkpt lat="43.00266" lon="1.56545">
        <ele>462.79998779297</ele>
        <time>2025-08-07T09:40:14.000Z</time>
      </trkpt>
      <trkpt lat="43.00274" lon="1.56528">
        <ele>463.20001220703</ele>
        <time>2025-08-07T09:40:19.000Z</time>
      </trkpt>
      <trkpt lat="43.00277" lon="1.56511">
        <ele>463.39999389648</ele>
        <time>2025-08-07T09:40:23.000Z</time>
      </trkpt>
      <trkpt lat="43.00278" lon="1.56506">
        <ele>463.60000610352</ele>
        <time>2025-08-07T09:40:24.000Z</time>
      </trkpt>
      <trkpt lat="43.00289" lon="1.56486">
        <ele>464</ele>
        <time>2025-08-07T09:40:29.000Z</time>
      </trkpt>
      <trkpt lat="43.00296" lon="1.5647">
        <ele>464.20001220703</ele>
        <time>2025-08-07T09:40:33.000Z</time>
      </trkpt>
      <trkpt lat="43.0031" lon="1.56447">
        <ele>464.60000610352</ele>
        <time>2025-08-07T09:40:39.000Z</time>
      </trkpt>
      <trkpt lat="43.00321" lon="1.56423">
        <ele>464.79998779297</ele>
        <time>2025-08-07T09:40:45.000Z</time>
      </trkpt>
      <trkpt lat="43.0033" lon="1.56409">
        <ele>465</ele>
        <time>2025-08-07T09:40:49.000Z</time>
      </trkpt>
      <trkpt lat="43.00332" lon="1.56401">
        <ele>465.20001220703</ele>
        <time>2025-08-07T09:40:51.000Z</time>
      </trkpt>
      <trkpt lat="43.00337" lon="1.56392">
        <ele>465.39999389648</ele>
        <time>2025-08-07T09:40:54.000Z</time>
      </trkpt>
      <trkpt lat="43.00342" lon="1.56382">
        <ele>465.60000610352</ele>
        <time>2025-08-07T09:40:57.000Z</time>
      </trkpt>
      <trkpt lat="43.00345" lon="1.56372">
        <ele>466</ele>
        <time>2025-08-07T09:41:00.000Z</time>
      </trkpt>
      <trkpt lat="43.00349" lon="1.56364">
        <ele>466.20001220703</ele>
        <time>2025-08-07T09:41:02.000Z</time>
      </trkpt>
      <trkpt lat="43.00355" lon="1.56347">
        <ele>466.39999389648</ele>
        <time>2025-08-07T09:41:06.000Z</time>
      </trkpt>
      <trkpt lat="43.00356" lon="1.56343">
        <ele>466.39999389648</ele>
        <time>2025-08-07T09:41:07.000Z</time>
      </trkpt>
      <trkpt lat="43.00363" lon="1.56326">
        <ele>466.79998779297</ele>
        <time>2025-08-07T09:41:11.000Z</time>
      </trkpt>
      <trkpt lat="43.00373" lon="1.56312">
        <ele>466.79998779297</ele>
        <time>2025-08-07T09:41:15.000Z</time>
      </trkpt>
      <trkpt lat="43.00385" lon="1.56288">
        <ele>467</ele>
        <time>2025-08-07T09:41:21.000Z</time>
      </trkpt>
      <trkpt lat="43.00395" lon="1.56275">
        <ele>467.39999389648</ele>
        <time>2025-08-07T09:41:25.000Z</time>
      </trkpt>
      <trkpt lat="43.00408" lon="1.56254">
        <ele>467.60000610352</ele>
        <time>2025-08-07T09:41:31.000Z</time>
      </trkpt>
      <trkpt lat="43.0042" lon="1.56229">
        <ele>468</ele>
        <time>2025-08-07T09:41:38.000Z</time>
      </trkpt>
      <trkpt lat="43.00423" lon="1.56221">
        <ele>468.20001220703</ele>
        <time>2025-08-07T09:41:40.000Z</time>
      </trkpt>
      <trkpt lat="43.00425" lon="1.56214">
        <ele>468.20001220703</ele>
        <time>2025-08-07T09:41:42.000Z</time>
      </trkpt>
      <trkpt lat="43.00431" lon="1.56203">
        <ele>468.39999389648</ele>
        <time>2025-08-07T09:41:45.000Z</time>
      </trkpt>
      <trkpt lat="43.00433" lon="1.56201">
        <ele>468.39999389648</ele>
        <time>2025-08-07T09:41:46.000Z</time>
      </trkpt>
      <trkpt lat="43.00439" lon="1.56183">
        <ele>468.79998779297</ele>
        <time>2025-08-07T09:41:51.000Z</time>
      </trkpt>
      <trkpt lat="43.00446" lon="1.5617">
        <ele>469.20001220703</ele>
        <time>2025-08-07T09:41:55.000Z</time>
      </trkpt>
      <trkpt lat="43.00457" lon="1.56153">
        <ele>469.39999389648</ele>
        <time>2025-08-07T09:42:00.000Z</time>
      </trkpt>
      <trkpt lat="43.00461" lon="1.56146">
        <ele>469.39999389648</ele>
        <time>2025-08-07T09:42:02.000Z</time>
      </trkpt>
      <trkpt lat="43.00468" lon="1.5614">
        <ele>469.60000610352</ele>
        <time>2025-08-07T09:42:05.000Z</time>
      </trkpt>
      <trkpt lat="43.00477" lon="1.56127">
        <ele>469.79998779297</ele>
        <time>2025-08-07T09:42:09.000Z</time>
      </trkpt>
      <trkpt lat="43.00479" lon="1.56123">
        <ele>469.79998779297</ele>
        <time>2025-08-07T09:42:10.000Z</time>
      </trkpt>
      <trkpt lat="43.00483" lon="1.56115">
        <ele>470</ele>
        <time>2025-08-07T09:42:12.000Z</time>
      </trkpt>
      <trkpt lat="43.00488" lon="1.56108">
        <ele>470</ele>
        <time>2025-08-07T09:42:14.000Z</time>
      </trkpt>
      <trkpt lat="43.00496" lon="1.56099">
        <ele>470.20001220703</ele>
        <time>2025-08-07T09:42:18.000Z</time>
      </trkpt>
      <trkpt lat="43.00496" lon="1.56097">
        <ele>470.20001220703</ele>
        <time>2025-08-07T09:42:19.000Z</time>
      </trkpt>
      <trkpt lat="43.00497" lon="1.56095">
        <ele>470.20001220703</ele>
        <time>2025-08-07T09:42:20.000Z</time>
      </trkpt>
      <trkpt lat="43.00507" lon="1.56078">
        <ele>470.60000610352</ele>
        <time>2025-08-07T09:42:26.000Z</time>
      </trkpt>
      <trkpt lat="43.00517" lon="1.56066">
        <ele>470.79998779297</ele>
        <time>2025-08-07T09:42:30.000Z</time>
      </trkpt>
      <trkpt lat="43.00521" lon="1.56066">
        <ele>471</ele>
        <time>2025-08-07T09:42:31.000Z</time>
      </trkpt>
      <trkpt lat="43.00529" lon="1.56049">
        <ele>471.20001220703</ele>
        <time>2025-08-07T09:42:36.000Z</time>
      </trkpt>
      <trkpt lat="43.00535" lon="1.56041">
        <ele>471.20001220703</ele>
        <time>2025-08-07T09:42:38.000Z</time>
      </trkpt>
      <trkpt lat="43.00541" lon="1.56031">
        <ele>471.39999389648</ele>
        <time>2025-08-07T09:42:42.000Z</time>
      </trkpt>
      <trkpt lat="43.00552" lon="1.5601">
        <ele>471.39999389648</ele>
        <time>2025-08-07T09:42:48.000Z</time>
      </trkpt>
      <trkpt lat="43.00563" lon="1.55996">
        <ele>471.60000610352</ele>
        <time>2025-08-07T09:42:53.000Z</time>
      </trkpt>
      <trkpt lat="43.00565" lon="1.55991">
        <ele>471.60000610352</ele>
        <time>2025-08-07T09:42:55.000Z</time>
      </trkpt>
      <trkpt lat="43.00567" lon="1.55988">
        <ele>471.60000610352</ele>
        <time>2025-08-07T09:42:56.000Z</time>
      </trkpt>
      <trkpt lat="43.00578" lon="1.55976">
        <ele>471.79998779297</ele>
        <time>2025-08-07T09:43:00.000Z</time>
      </trkpt>
      <trkpt lat="43.00586" lon="1.55962">
        <ele>472.20001220703</ele>
        <time>2025-08-07T09:43:04.000Z</time>
      </trkpt>
      <trkpt lat="43.00589" lon="1.55961">
        <ele>472.20001220703</ele>
        <time>2025-08-07T09:43:05.000Z</time>
      </trkpt>
      <trkpt lat="43.00606" lon="1.55941">
        <ele>472.60000610352</ele>
        <time>2025-08-07T09:43:11.000Z</time>
      </trkpt>
      <trkpt lat="43.00612" lon="1.55934">
        <ele>472.60000610352</ele>
        <time>2025-08-07T09:43:13.000Z</time>
      </trkpt>
      <trkpt lat="43.00617" lon="1.5593">
        <ele>472.60000610352</ele>
        <time>2025-08-07T09:43:15.000Z</time>
      </trkpt>
      <trkpt lat="43.00632" lon="1.55907">
        <ele>473</ele>
        <time>2025-08-07T09:43:21.000Z</time>
      </trkpt>
      <trkpt lat="43.00634" lon="1.55904">
        <ele>473.20001220703</ele>
        <time>2025-08-07T09:43:22.000Z</time>
      </trkpt>
      <trkpt lat="43.00635" lon="1.55901">
        <ele>473</ele>
        <time>2025-08-07T09:43:23.000Z</time>
      </trkpt>
      <trkpt lat="43.00637" lon="1.55901">
        <ele>473</ele>
        <time>2025-08-07T09:43:24.000Z</time>
      </trkpt>
      <trkpt lat="43.00652" lon="1.55878">
        <ele>473.20001220703</ele>
        <time>2025-08-07T09:43:31.000Z</time>
      </trkpt>
      <trkpt lat="43.00669" lon="1.5585">
        <ele>473.60000610352</ele>
        <time>2025-08-07T09:43:39.000Z</time>
      </trkpt>
      <trkpt lat="43.00679" lon="1.55837">
        <ele>474</ele>
        <time>2025-08-07T09:43:43.000Z</time>
      </trkpt>
      <trkpt lat="43.00683" lon="1.55829">
        <ele>474.20001220703</ele>
        <time>2025-08-07T09:43:45.000Z</time>
      </trkpt>
      <trkpt lat="43.00688" lon="1.55817">
        <ele>474.39999389648</ele>
        <time>2025-08-07T09:43:48.000Z</time>
      </trkpt>
      <trkpt lat="43.00689" lon="1.55813">
        <ele>474.39999389648</ele>
        <time>2025-08-07T09:43:49.000Z</time>
      </trkpt>
      <trkpt lat="43.00699" lon="1.55795">
        <ele>474.79998779297</ele>
        <time>2025-08-07T09:43:54.000Z</time>
      </trkpt>
      <trkpt lat="43.00701" lon="1.55788">
        <ele>474.79998779297</ele>
        <time>2025-08-07T09:43:56.000Z</time>
      </trkpt>
      <trkpt lat="43.00705" lon="1.55775">
        <ele>475</ele>
        <time>2025-08-07T09:43:59.000Z</time>
      </trkpt>
      <trkpt lat="43.00715" lon="1.55758">
        <ele>475.39999389648</ele>
        <time>2025-08-07T09:44:04.000Z</time>
      </trkpt>
      <trkpt lat="43.00721" lon="1.55744">
        <ele>475.79998779297</ele>
        <time>2025-08-07T09:44:08.000Z</time>
      </trkpt>
      <trkpt lat="43.00725" lon="1.55737">
        <ele>475.79998779297</ele>
        <time>2025-08-07T09:44:10.000Z</time>
      </trkpt>
      <trkpt lat="43.00727" lon="1.55732">
        <ele>475.79998779297</ele>
        <time>2025-08-07T09:44:11.000Z</time>
      </trkpt>
      <trkpt lat="43.00729" lon="1.55728">
        <ele>476</ele>
        <time>2025-08-07T09:44:12.000Z</time>
      </trkpt>
      <trkpt lat="43.00735" lon="1.55706">
        <ele>476.20001220703</ele>
        <time>2025-08-07T09:44:18.000Z</time>
      </trkpt>
      <trkpt lat="43.0074" lon="1.55691">
        <ele>476.39999389648</ele>
        <time>2025-08-07T09:44:22.000Z</time>
      </trkpt>
      <trkpt lat="43.00747" lon="1.55672">
        <ele>476.79998779297</ele>
        <time>2025-08-07T09:44:27.000Z</time>
      </trkpt>
      <trkpt lat="43.00757" lon="1.55646">
        <ele>476.79998779297</ele>
        <time>2025-08-07T09:44:33.000Z</time>
      </trkpt>
      <trkpt lat="43.00759" lon="1.55637">
        <ele>477</ele>
        <time>2025-08-07T09:44:35.000Z</time>
      </trkpt>
      <trkpt lat="43.00762" lon="1.55624">
        <ele>477</ele>
        <time>2025-08-07T09:44:38.000Z</time>
      </trkpt>
      <trkpt lat="43.00771" lon="1.55595">
        <ele>477.20001220703</ele>
        <time>2025-08-07T09:44:45.000Z</time>
      </trkpt>
      <trkpt lat="43.0078" lon="1.55565">
        <ele>477.39999389648</ele>
        <time>2025-08-07T09:44:52.000Z</time>
      </trkpt>
      <trkpt lat="43.0079" lon="1.55532">
        <ele>477.79998779297</ele>
        <time>2025-08-07T09:45:00.000Z</time>
      </trkpt>
      <trkpt lat="43.00795" lon="1.5551">
        <ele>478.20001220703</ele>
        <time>2025-08-07T09:45:06.000Z</time>
      </trkpt>
      <trkpt lat="43.00806" lon="1.55486">
        <ele>478.39999389648</ele>
        <time>2025-08-07T09:45:12.000Z</time>
      </trkpt>
      <trkpt lat="43.00822" lon="1.5545">
        <ele>478.79998779297</ele>
        <time>2025-08-07T09:45:21.000Z</time>
      </trkpt>
      <trkpt lat="43.00831" lon="1.55421">
        <ele>478.79998779297</ele>
        <time>2025-08-07T09:45:28.000Z</time>
      </trkpt>
      <trkpt lat="43.00841" lon="1.55391">
        <ele>479.20001220703</ele>
        <time>2025-08-07T09:45:36.000Z</time>
      </trkpt>
      <trkpt lat="43.00851" lon="1.55363">
        <ele>479.79998779297</ele>
        <time>2025-08-07T09:45:44.000Z</time>
      </trkpt>
      <trkpt lat="43.00852" lon="1.5536">
        <ele>480</ele>
        <time>2025-08-07T09:45:45.000Z</time>
      </trkpt>
      <trkpt lat="43.00859" lon="1.55336">
        <ele>480</ele>
        <time>2025-08-07T09:45:51.000Z</time>
      </trkpt>
      <trkpt lat="43.00866" lon="1.5531">
        <ele>480.39999389648</ele>
        <time>2025-08-07T09:45:57.000Z</time>
      </trkpt>
      <trkpt lat="43.00874" lon="1.55285">
        <ele>480.79998779297</ele>
        <time>2025-08-07T09:46:03.000Z</time>
      </trkpt>
      <trkpt lat="43.00878" lon="1.55276">
        <ele>481</ele>
        <time>2025-08-07T09:46:06.000Z</time>
      </trkpt>
      <trkpt lat="43.00891" lon="1.55243">
        <ele>481.39999389648</ele>
        <time>2025-08-07T09:46:14.000Z</time>
      </trkpt>
      <trkpt lat="43.009" lon="1.5522">
        <ele>481.79998779297</ele>
        <time>2025-08-07T09:46:20.000Z</time>
      </trkpt>
      <trkpt lat="43.00901" lon="1.55217">
        <ele>481.79998779297</ele>
        <time>2025-08-07T09:46:21.000Z</time>
      </trkpt>
      <trkpt lat="43.00906" lon="1.55199">
        <ele>482</ele>
        <time>2025-08-07T09:46:25.000Z</time>
      </trkpt>
      <trkpt lat="43.00913" lon="1.55179">
        <ele>482.20001220703</ele>
        <time>2025-08-07T09:46:30.000Z</time>
      </trkpt>
      <trkpt lat="43.00925" lon="1.55149">
        <ele>482.79998779297</ele>
        <time>2025-08-07T09:46:38.000Z</time>
      </trkpt>
      <trkpt lat="43.00927" lon="1.55144">
        <ele>483</ele>
        <time>2025-08-07T09:46:39.000Z</time>
      </trkpt>
      <trkpt lat="43.00937" lon="1.55113">
        <ele>483.60000610352</ele>
        <time>2025-08-07T09:46:46.000Z</time>
      </trkpt>
      <trkpt lat="43.00941" lon="1.55101">
        <ele>483.60000610352</ele>
        <time>2025-08-07T09:46:49.000Z</time>
      </trkpt>
      <trkpt lat="43.0095" lon="1.55077">
        <ele>483.79998779297</ele>
        <time>2025-08-07T09:46:55.000Z</time>
      </trkpt>
      <trkpt lat="43.00951" lon="1.55073">
        <ele>484</ele>
        <time>2025-08-07T09:46:56.000Z</time>
      </trkpt>
      <trkpt lat="43.00963" lon="1.55039">
        <ele>484.39999389648</ele>
        <time>2025-08-07T09:47:04.000Z</time>
      </trkpt>
      <trkpt lat="43.00976" lon="1.55003">
        <ele>485</ele>
        <time>2025-08-07T09:47:13.000Z</time>
      </trkpt>
      <trkpt lat="43.00977" lon="1.54998">
        <ele>485</ele>
        <time>2025-08-07T09:47:14.000Z</time>
      </trkpt>
      <trkpt lat="43.00985" lon="1.54971">
        <ele>485.60000610352</ele>
        <time>2025-08-07T09:47:20.000Z</time>
      </trkpt>
      <trkpt lat="43.00992" lon="1.5495">
        <ele>486</ele>
        <time>2025-08-07T09:47:25.000Z</time>
      </trkpt>
      <trkpt lat="43.00997" lon="1.54934">
        <ele>486.20001220703</ele>
        <time>2025-08-07T09:47:29.000Z</time>
      </trkpt>
      <trkpt lat="43.01002" lon="1.54912">
        <ele>486.60000610352</ele>
        <time>2025-08-07T09:47:34.000Z</time>
      </trkpt>
      <trkpt lat="43.01007" lon="1.54894">
        <ele>486.60000610352</ele>
        <time>2025-08-07T09:47:38.000Z</time>
      </trkpt>
      <trkpt lat="43.01015" lon="1.54877">
        <ele>486.79998779297</ele>
        <time>2025-08-07T09:47:42.000Z</time>
      </trkpt>
      <trkpt lat="43.01018" lon="1.54868">
        <ele>487</ele>
        <time>2025-08-07T09:47:44.000Z</time>
      </trkpt>
      <trkpt lat="43.01029" lon="1.54843">
        <ele>487.39999389648</ele>
        <time>2025-08-07T09:47:50.000Z</time>
      </trkpt>
      <trkpt lat="43.01031" lon="1.54838">
        <ele>487.39999389648</ele>
        <time>2025-08-07T09:47:51.000Z</time>
      </trkpt>
      <trkpt lat="43.01035" lon="1.54825">
        <ele>487.60000610352</ele>
        <time>2025-08-07T09:47:54.000Z</time>
      </trkpt>
      <trkpt lat="43.01038" lon="1.54817">
        <ele>488</ele>
        <time>2025-08-07T09:47:56.000Z</time>
      </trkpt>
      <trkpt lat="43.01042" lon="1.54807">
        <ele>488.20001220703</ele>
        <time>2025-08-07T09:47:59.000Z</time>
      </trkpt>
      <trkpt lat="43.01048" lon="1.5478">
        <ele>488.79998779297</ele>
        <time>2025-08-07T09:48:05.000Z</time>
      </trkpt>
      <trkpt lat="43.01051" lon="1.5477">
        <ele>489</ele>
        <time>2025-08-07T09:48:07.000Z</time>
      </trkpt>
      <trkpt lat="43.01053" lon="1.5476">
        <ele>489</ele>
        <time>2025-08-07T09:48:09.000Z</time>
      </trkpt>
      <trkpt lat="43.01057" lon="1.54753">
        <ele>489.39999389648</ele>
        <time>2025-08-07T09:48:11.000Z</time>
      </trkpt>
      <trkpt lat="43.01066" lon="1.54737">
        <ele>489.39999389648</ele>
        <time>2025-08-07T09:48:15.000Z</time>
      </trkpt>
      <trkpt lat="43.01067" lon="1.54734">
        <ele>489.60000610352</ele>
        <time>2025-08-07T09:48:16.000Z</time>
      </trkpt>
      <trkpt lat="43.0108" lon="1.54704">
        <ele>489.79998779297</ele>
        <time>2025-08-07T09:48:23.000Z</time>
      </trkpt>
      <trkpt lat="43.0109" lon="1.54685">
        <ele>490.20001220703</ele>
        <time>2025-08-07T09:48:28.000Z</time>
      </trkpt>
      <trkpt lat="43.01098" lon="1.54669">
        <ele>490.39999389648</ele>
        <time>2025-08-07T09:48:32.000Z</time>
      </trkpt>
      <trkpt lat="43.01106" lon="1.5465">
        <ele>490.79998779297</ele>
        <time>2025-08-07T09:48:37.000Z</time>
      </trkpt>
      <trkpt lat="43.01112" lon="1.54637">
        <ele>491</ele>
        <time>2025-08-07T09:48:41.000Z</time>
      </trkpt>
      <trkpt lat="43.01123" lon="1.54621">
        <ele>491.20001220703</ele>
        <time>2025-08-07T09:48:46.000Z</time>
      </trkpt>
      <trkpt lat="43.0113" lon="1.54603">
        <ele>491.60000610352</ele>
        <time>2025-08-07T09:48:51.000Z</time>
      </trkpt>
      <trkpt lat="43.01138" lon="1.54581">
        <ele>491.79998779297</ele>
        <time>2025-08-07T09:48:57.000Z</time>
      </trkpt>
      <trkpt lat="43.0114" lon="1.54578">
        <ele>492</ele>
        <time>2025-08-07T09:48:58.000Z</time>
      </trkpt>
      <trkpt lat="43.01149" lon="1.54564">
        <ele>492.20001220703</ele>
        <time>2025-08-07T09:49:02.000Z</time>
      </trkpt>
      <trkpt lat="43.01157" lon="1.54545">
        <ele>492.39999389648</ele>
        <time>2025-08-07T09:49:06.000Z</time>
      </trkpt>
      <trkpt lat="43.0117" lon="1.54523">
        <ele>492.60000610352</ele>
        <time>2025-08-07T09:49:11.000Z</time>
      </trkpt>
      <trkpt lat="43.01174" lon="1.5451">
        <ele>492.79998779297</ele>
        <time>2025-08-07T09:49:14.000Z</time>
      </trkpt>
      <trkpt lat="43.01178" lon="1.54501">
        <ele>492.79998779297</ele>
        <time>2025-08-07T09:49:16.000Z</time>
      </trkpt>
      <trkpt lat="43.01184" lon="1.54488">
        <ele>492.79998779297</ele>
        <time>2025-08-07T09:49:19.000Z</time>
      </trkpt>
      <trkpt lat="43.01185" lon="1.54483">
        <ele>492.79998779297</ele>
        <time>2025-08-07T09:49:20.000Z</time>
      </trkpt>
      <trkpt lat="43.01195" lon="1.54461">
        <ele>493</ele>
        <time>2025-08-07T09:49:25.000Z</time>
      </trkpt>
      <trkpt lat="43.01205" lon="1.54446">
        <ele>493.20001220703</ele>
        <time>2025-08-07T09:49:29.000Z</time>
      </trkpt>
      <trkpt lat="43.01218" lon="1.54418">
        <ele>493.20001220703</ele>
        <time>2025-08-07T09:49:35.000Z</time>
      </trkpt>
      <trkpt lat="43.01227" lon="1.54393">
        <ele>493.20001220703</ele>
        <time>2025-08-07T09:49:40.000Z</time>
      </trkpt>
      <trkpt lat="43.01229" lon="1.54388">
        <ele>493.20001220703</ele>
        <time>2025-08-07T09:49:41.000Z</time>
      </trkpt>
      <trkpt lat="43.01245" lon="1.54351">
        <ele>493.20001220703</ele>
        <time>2025-08-07T09:49:48.000Z</time>
      </trkpt>
      <trkpt lat="43.01249" lon="1.54319">
        <ele>493.20001220703</ele>
        <time>2025-08-07T09:49:54.000Z</time>
      </trkpt>
      <trkpt lat="43.01257" lon="1.54291">
        <ele>493.20001220703</ele>
        <time>2025-08-07T09:49:59.000Z</time>
      </trkpt>
      <trkpt lat="43.0126" lon="1.54281">
        <ele>493.20001220703</ele>
        <time>2025-08-07T09:50:01.000Z</time>
      </trkpt>
      <trkpt lat="43.01263" lon="1.54271">
        <ele>493.20001220703</ele>
        <time>2025-08-07T09:50:03.000Z</time>
      </trkpt>
      <trkpt lat="43.01265" lon="1.54266">
        <ele>493.20001220703</ele>
        <time>2025-08-07T09:50:04.000Z</time>
      </trkpt>
      <trkpt lat="43.01269" lon="1.54242">
        <ele>493.20001220703</ele>
        <time>2025-08-07T09:50:08.000Z</time>
      </trkpt>
      <trkpt lat="43.01276" lon="1.54217">
        <ele>493.20001220703</ele>
        <time>2025-08-07T09:50:13.000Z</time>
      </trkpt>
      <trkpt lat="43.01285" lon="1.54185">
        <ele>493</ele>
        <time>2025-08-07T09:50:19.000Z</time>
      </trkpt>
      <trkpt lat="43.01289" lon="1.54172">
        <ele>493</ele>
        <time>2025-08-07T09:50:21.000Z</time>
      </trkpt>
      <trkpt lat="43.01293" lon="1.54162">
        <ele>493</ele>
        <time>2025-08-07T09:50:23.000Z</time>
      </trkpt>
      <trkpt lat="43.01295" lon="1.54156">
        <ele>493</ele>
        <time>2025-08-07T09:50:24.000Z</time>
      </trkpt>
      <trkpt lat="43.01297" lon="1.54149">
        <ele>493</ele>
        <time>2025-08-07T09:50:25.000Z</time>
      </trkpt>
      <trkpt lat="43.01302" lon="1.54124">
        <ele>492.79998779297</ele>
        <time>2025-08-07T09:50:29.000Z</time>
      </trkpt>
      <trkpt lat="43.0132" lon="1.54079">
        <ele>492.60000610352</ele>
        <time>2025-08-07T09:50:38.000Z</time>
      </trkpt>
      <trkpt lat="43.01327" lon="1.54051">
        <ele>492.60000610352</ele>
        <time>2025-08-07T09:50:44.000Z</time>
      </trkpt>
      <trkpt lat="43.01335" lon="1.54027">
        <ele>492.79998779297</ele>
        <time>2025-08-07T09:50:50.000Z</time>
      </trkpt>
      <trkpt lat="43.01345" lon="1.53994">
        <ele>493.20001220703</ele>
        <time>2025-08-07T09:50:57.000Z</time>
      </trkpt>
      <trkpt lat="43.01351" lon="1.53963">
        <ele>493.39999389648</ele>
        <time>2025-08-07T09:51:02.000Z</time>
      </trkpt>
      <trkpt lat="43.01353" lon="1.53952">
        <ele>493.39999389648</ele>
        <time>2025-08-07T09:51:04.000Z</time>
      </trkpt>
      <trkpt lat="43.01356" lon="1.53943">
        <ele>493.39999389648</ele>
        <time>2025-08-07T09:51:06.000Z</time>
      </trkpt>
      <trkpt lat="43.0136" lon="1.53915">
        <ele>493.20001220703</ele>
        <time>2025-08-07T09:51:11.000Z</time>
      </trkpt>
      <trkpt lat="43.01362" lon="1.53907">
        <ele>493</ele>
        <time>2025-08-07T09:51:12.000Z</time>
      </trkpt>
      <trkpt lat="43.01367" lon="1.53895">
        <ele>493</ele>
        <time>2025-08-07T09:51:14.000Z</time>
      </trkpt>
      <trkpt lat="43.0137" lon="1.53869">
        <ele>493</ele>
        <time>2025-08-07T09:51:18.000Z</time>
      </trkpt>
      <trkpt lat="43.01379" lon="1.53848">
        <ele>492.60000610352</ele>
        <time>2025-08-07T09:51:23.000Z</time>
      </trkpt>
      <trkpt lat="43.01389" lon="1.53819">
        <ele>492.60000610352</ele>
        <time>2025-08-07T09:51:28.000Z</time>
      </trkpt>
      <trkpt lat="43.01393" lon="1.53799">
        <ele>492.60000610352</ele>
        <time>2025-08-07T09:51:31.000Z</time>
      </trkpt>
      <trkpt lat="43.01396" lon="1.53789">
        <ele>492.60000610352</ele>
        <time>2025-08-07T09:51:33.000Z</time>
      </trkpt>
      <trkpt lat="43.01405" lon="1.53758">
        <ele>492.60000610352</ele>
        <time>2025-08-07T09:51:39.000Z</time>
      </trkpt>
      <trkpt lat="43.01406" lon="1.53753">
        <ele>492.60000610352</ele>
        <time>2025-08-07T09:51:40.000Z</time>
      </trkpt>
      <trkpt lat="43.0141" lon="1.53735">
        <ele>492.60000610352</ele>
        <time>2025-08-07T09:51:43.000Z</time>
      </trkpt>
      <trkpt lat="43.01412" lon="1.53726">
        <ele>492.60000610352</ele>
        <time>2025-08-07T09:51:45.000Z</time>
      </trkpt>
      <trkpt lat="43.01415" lon="1.53714">
        <ele>492.60000610352</ele>
        <time>2025-08-07T09:51:47.000Z</time>
      </trkpt>
      <trkpt lat="43.01423" lon="1.53693">
        <ele>492.79998779297</ele>
        <time>2025-08-07T09:51:52.000Z</time>
      </trkpt>
      <trkpt lat="43.01424" lon="1.53689">
        <ele>492.79998779297</ele>
        <time>2025-08-07T09:51:53.000Z</time>
      </trkpt>
      <trkpt lat="43.01422" lon="1.53683">
        <ele>492.79998779297</ele>
        <time>2025-08-07T09:51:55.000Z</time>
      </trkpt>
      <trkpt lat="43.01423" lon="1.53675">
        <ele>493</ele>
        <time>2025-08-07T09:51:58.000Z</time>
      </trkpt>
      <trkpt lat="43.01424" lon="1.53671">
        <ele>493</ele>
        <time>2025-08-07T09:51:59.000Z</time>
      </trkpt>
      <trkpt lat="43.0143" lon="1.53643">
        <ele>492.79998779297</ele>
        <time>2025-08-07T09:52:06.000Z</time>
      </trkpt>
      <trkpt lat="43.01435" lon="1.53618">
        <ele>492.60000610352</ele>
        <time>2025-08-07T09:52:12.000Z</time>
      </trkpt>
      <trkpt lat="43.01441" lon="1.53591">
        <ele>492.60000610352</ele>
        <time>2025-08-07T09:52:17.000Z</time>
      </trkpt>
      <trkpt lat="43.0145" lon="1.53563">
        <ele>492.60000610352</ele>
        <time>2025-08-07T09:52:23.000Z</time>
      </trkpt>
      <trkpt lat="43.01454" lon="1.53528">
        <ele>492.79998779297</ele>
        <time>2025-08-07T09:52:30.000Z</time>
      </trkpt>
      <trkpt lat="43.01457" lon="1.53477">
        <ele>493</ele>
        <time>2025-08-07T09:52:40.000Z</time>
      </trkpt>
      <trkpt lat="43.01455" lon="1.53443">
        <ele>493</ele>
        <time>2025-08-07T09:52:47.000Z</time>
      </trkpt>
      <trkpt lat="43.01452" lon="1.53409">
        <ele>493.20001220703</ele>
        <time>2025-08-07T09:52:54.000Z</time>
      </trkpt>
      <trkpt lat="43.01445" lon="1.53356">
        <ele>493.39999389648</ele>
        <time>2025-08-07T09:53:03.000Z</time>
      </trkpt>
      <trkpt lat="43.01439" lon="1.53308">
        <ele>493.20001220703</ele>
        <time>2025-08-07T09:53:11.000Z</time>
      </trkpt>
      <trkpt lat="43.01436" lon="1.53281">
        <ele>493.39999389648</ele>
        <time>2025-08-07T09:53:16.000Z</time>
      </trkpt>
      <trkpt lat="43.01435" lon="1.53271">
        <ele>493.60000610352</ele>
        <time>2025-08-07T09:53:18.000Z</time>
      </trkpt>
      <trkpt lat="43.01432" lon="1.53252">
        <ele>493.60000610352</ele>
        <time>2025-08-07T09:53:22.000Z</time>
      </trkpt>
      <trkpt lat="43.01429" lon="1.5324">
        <ele>493.60000610352</ele>
        <time>2025-08-07T09:53:24.000Z</time>
      </trkpt>
      <trkpt lat="43.01422" lon="1.53207">
        <ele>493.79998779297</ele>
        <time>2025-08-07T09:53:31.000Z</time>
      </trkpt>
      <trkpt lat="43.01415" lon="1.53169">
        <ele>494.20001220703</ele>
        <time>2025-08-07T09:53:39.000Z</time>
      </trkpt>
      <trkpt lat="43.01412" lon="1.53155">
        <ele>494.39999389648</ele>
        <time>2025-08-07T09:53:42.000Z</time>
      </trkpt>
      <trkpt lat="43.01406" lon="1.53134">
        <ele>494.79998779297</ele>
        <time>2025-08-07T09:53:47.000Z</time>
      </trkpt>
      <trkpt lat="43.01394" lon="1.53096">
        <ele>495.20001220703</ele>
        <time>2025-08-07T09:53:56.000Z</time>
      </trkpt>
      <trkpt lat="43.01382" lon="1.53063">
        <ele>495.39999389648</ele>
        <time>2025-08-07T09:54:04.000Z</time>
      </trkpt>
      <trkpt lat="43.01375" lon="1.53049">
        <ele>495.79998779297</ele>
        <time>2025-08-07T09:54:08.000Z</time>
      </trkpt>
      <trkpt lat="43.01368" lon="1.53033">
        <ele>496</ele>
        <time>2025-08-07T09:54:12.000Z</time>
      </trkpt>
      <trkpt lat="43.01356" lon="1.53008">
        <ele>496.20001220703</ele>
        <time>2025-08-07T09:54:19.000Z</time>
      </trkpt>
      <trkpt lat="43.01349" lon="1.52987">
        <ele>496.79998779297</ele>
        <time>2025-08-07T09:54:24.000Z</time>
      </trkpt>
      <trkpt lat="43.01344" lon="1.52979">
        <ele>497</ele>
        <time>2025-08-07T09:54:26.000Z</time>
      </trkpt>
      <trkpt lat="43.01329" lon="1.52947">
        <ele>497.79998779297</ele>
        <time>2025-08-07T09:54:34.000Z</time>
      </trkpt>
      <trkpt lat="43.01326" lon="1.52939">
        <ele>498</ele>
        <time>2025-08-07T09:54:36.000Z</time>
      </trkpt>
      <trkpt lat="43.0132" lon="1.52926">
        <ele>498</ele>
        <time>2025-08-07T09:54:39.000Z</time>
      </trkpt>
      <trkpt lat="43.01314" lon="1.52911">
        <ele>498.20001220703</ele>
        <time>2025-08-07T09:54:43.000Z</time>
      </trkpt>
      <trkpt lat="43.01299" lon="1.52881">
        <ele>499</ele>
        <time>2025-08-07T09:54:51.000Z</time>
      </trkpt>
      <trkpt lat="43.01288" lon="1.52855">
        <ele>499.39999389648</ele>
        <time>2025-08-07T09:54:57.000Z</time>
      </trkpt>
      <trkpt lat="43.01271" lon="1.5281">
        <ele>499.79998779297</ele>
        <time>2025-08-07T09:55:07.000Z</time>
      </trkpt>
      <trkpt lat="43.01267" lon="1.52801">
        <ele>500</ele>
        <time>2025-08-07T09:55:09.000Z</time>
      </trkpt>
      <trkpt lat="43.01257" lon="1.52771">
        <ele>500.39999389648</ele>
        <time>2025-08-07T09:55:16.000Z</time>
      </trkpt>
      <trkpt lat="43.01248" lon="1.52741">
        <ele>500.79998779297</ele>
        <time>2025-08-07T09:55:23.000Z</time>
      </trkpt>
      <trkpt lat="43.01246" lon="1.52732">
        <ele>501</ele>
        <time>2025-08-07T09:55:25.000Z</time>
      </trkpt>
      <trkpt lat="43.01238" lon="1.52702">
        <ele>501.20001220703</ele>
        <time>2025-08-07T09:55:32.000Z</time>
      </trkpt>
      <trkpt lat="43.01229" lon="1.52664">
        <ele>501.60000610352</ele>
        <time>2025-08-07T09:55:41.000Z</time>
      </trkpt>
      <trkpt lat="43.01222" lon="1.5263">
        <ele>502</ele>
        <time>2025-08-07T09:55:48.000Z</time>
      </trkpt>
      <trkpt lat="43.01221" lon="1.52621">
        <ele>502</ele>
        <time>2025-08-07T09:55:51.000Z</time>
      </trkpt>
      <trkpt lat="43.01219" lon="1.52591">
        <ele>502.39999389648</ele>
        <time>2025-08-07T09:55:57.000Z</time>
      </trkpt>
      <trkpt lat="43.01216" lon="1.52562">
        <ele>502.79998779297</ele>
        <time>2025-08-07T09:56:05.000Z</time>
      </trkpt>
      <trkpt lat="43.01213" lon="1.52539">
        <ele>503.20001220703</ele>
        <time>2025-08-07T09:56:10.000Z</time>
      </trkpt>
      <trkpt lat="43.01212" lon="1.52529">
        <ele>503.39999389648</ele>
        <time>2025-08-07T09:56:12.000Z</time>
      </trkpt>
      <trkpt lat="43.01209" lon="1.52503">
        <ele>504.20001220703</ele>
        <time>2025-08-07T09:56:18.000Z</time>
      </trkpt>
      <trkpt lat="43.01209" lon="1.52498">
        <ele>504.20001220703</ele>
        <time>2025-08-07T09:56:19.000Z</time>
      </trkpt>
      <trkpt lat="43.01207" lon="1.52473">
        <ele>504.39999389648</ele>
        <time>2025-08-07T09:56:24.000Z</time>
      </trkpt>
      <trkpt lat="43.01204" lon="1.52441">
        <ele>504.79998779297</ele>
        <time>2025-08-07T09:56:31.000Z</time>
      </trkpt>
      <trkpt lat="43.01201" lon="1.52407">
        <ele>505.20001220703</ele>
        <time>2025-08-07T09:56:38.000Z</time>
      </trkpt>
      <trkpt lat="43.01198" lon="1.52388">
        <ele>505.20001220703</ele>
        <time>2025-08-07T09:56:42.000Z</time>
      </trkpt>
      <trkpt lat="43.01193" lon="1.52365">
        <ele>505.39999389648</ele>
        <time>2025-08-07T09:56:47.000Z</time>
      </trkpt>
      <trkpt lat="43.01185" lon="1.52322">
        <ele>505.79998779297</ele>
        <time>2025-08-07T09:56:56.000Z</time>
      </trkpt>
      <trkpt lat="43.01176" lon="1.52279">
        <ele>505.79998779297</ele>
        <time>2025-08-07T09:57:05.000Z</time>
      </trkpt>
      <trkpt lat="43.01166" lon="1.52244">
        <ele>506.20001220703</ele>
        <time>2025-08-07T09:57:13.000Z</time>
      </trkpt>
      <trkpt lat="43.01162" lon="1.52235">
        <ele>506.20001220703</ele>
        <time>2025-08-07T09:57:15.000Z</time>
      </trkpt>
      <trkpt lat="43.01156" lon="1.52208">
        <ele>506.20001220703</ele>
        <time>2025-08-07T09:57:20.000Z</time>
      </trkpt>
      <trkpt lat="43.01151" lon="1.52182">
        <ele>506.20001220703</ele>
        <time>2025-08-07T09:57:25.000Z</time>
      </trkpt>
      <trkpt lat="43.01149" lon="1.52171">
        <ele>506.20001220703</ele>
        <time>2025-08-07T09:57:26.000Z</time>
      </trkpt>
      <trkpt lat="43.01146" lon="1.52158">
        <ele>506.20001220703</ele>
        <time>2025-08-07T09:57:28.000Z</time>
      </trkpt>
      <trkpt lat="43.01127" lon="1.52096">
        <ele>505.79998779297</ele>
        <time>2025-08-07T09:57:36.000Z</time>
      </trkpt>
      <trkpt lat="43.01119" lon="1.5206">
        <ele>505.79998779297</ele>
        <time>2025-08-07T09:57:41.000Z</time>
      </trkpt>
      <trkpt lat="43.01118" lon="1.52053">
        <ele>505.79998779297</ele>
        <time>2025-08-07T09:57:42.000Z</time>
      </trkpt>
      <trkpt lat="43.01111" lon="1.52025">
        <ele>505.60000610352</ele>
        <time>2025-08-07T09:57:46.000Z</time>
      </trkpt>
      <trkpt lat="43.01107" lon="1.52012">
        <ele>505.39999389648</ele>
        <time>2025-08-07T09:57:48.000Z</time>
      </trkpt>
      <trkpt lat="43.011" lon="1.5198">
        <ele>505.20001220703</ele>
        <time>2025-08-07T09:57:53.000Z</time>
      </trkpt>
      <trkpt lat="43.01099" lon="1.51974">
        <ele>505</ele>
        <time>2025-08-07T09:57:54.000Z</time>
      </trkpt>
      <trkpt lat="43.01097" lon="1.51968">
        <ele>504.60000610352</ele>
        <time>2025-08-07T09:57:55.000Z</time>
      </trkpt>
      <trkpt lat="43.01095" lon="1.51956">
        <ele>504.39999389648</ele>
        <time>2025-08-07T09:57:57.000Z</time>
      </trkpt>
      <trkpt lat="43.01093" lon="1.51949">
        <ele>504.39999389648</ele>
        <time>2025-08-07T09:57:58.000Z</time>
      </trkpt>
      <trkpt lat="43.01091" lon="1.51934">
        <ele>504</ele>
        <time>2025-08-07T09:58:00.000Z</time>
      </trkpt>
      <trkpt lat="43.01089" lon="1.51919">
        <ele>503.79998779297</ele>
        <time>2025-08-07T09:58:02.000Z</time>
      </trkpt>
      <trkpt lat="43.01087" lon="1.51897">
        <ele>503.39999389648</ele>
        <time>2025-08-07T09:58:05.000Z</time>
      </trkpt>
      <trkpt lat="43.01086" lon="1.5189">
        <ele>503.39999389648</ele>
        <time>2025-08-07T09:58:06.000Z</time>
      </trkpt>
      <trkpt lat="43.01083" lon="1.51855">
        <ele>502.60000610352</ele>
        <time>2025-08-07T09:58:11.000Z</time>
      </trkpt>
      <trkpt lat="43.01081" lon="1.51833">
        <ele>502.20001220703</ele>
        <time>2025-08-07T09:58:14.000Z</time>
      </trkpt>
      <trkpt lat="43.0108" lon="1.51819">
        <ele>502.20001220703</ele>
        <time>2025-08-07T09:58:16.000Z</time>
      </trkpt>
      <trkpt lat="43.0108" lon="1.51813">
        <ele>502</ele>
        <time>2025-08-07T09:58:17.000Z</time>
      </trkpt>
      <trkpt lat="43.0108" lon="1.51806">
        <ele>502</ele>
        <time>2025-08-07T09:58:18.000Z</time>
      </trkpt>
      <trkpt lat="43.0108" lon="1.51786">
        <ele>501.79998779297</ele>
        <time>2025-08-07T09:58:21.000Z</time>
      </trkpt>
      <trkpt lat="43.0108" lon="1.51779">
        <ele>501.79998779297</ele>
        <time>2025-08-07T09:58:22.000Z</time>
      </trkpt>
      <trkpt lat="43.0108" lon="1.51764">
        <ele>501.79998779297</ele>
        <time>2025-08-07T09:58:24.000Z</time>
      </trkpt>
      <trkpt lat="43.0108" lon="1.51758">
        <ele>501.60000610352</ele>
        <time>2025-08-07T09:58:25.000Z</time>
      </trkpt>
      <trkpt lat="43.01079" lon="1.51746">
        <ele>501.39999389648</ele>
        <time>2025-08-07T09:58:27.000Z</time>
      </trkpt>
      <trkpt lat="43.01082" lon="1.51699">
        <ele>501.20001220703</ele>
        <time>2025-08-07T09:58:33.000Z</time>
      </trkpt>
      <trkpt lat="43.01087" lon="1.51669">
        <ele>500.60000610352</ele>
        <time>2025-08-07T09:58:37.000Z</time>
      </trkpt>
      <trkpt lat="43.01088" lon="1.51661">
        <ele>500.60000610352</ele>
        <time>2025-08-07T09:58:38.000Z</time>
      </trkpt>
      <trkpt lat="43.01089" lon="1.51653">
        <ele>500.20001220703</ele>
        <time>2025-08-07T09:58:39.000Z</time>
      </trkpt>
      <trkpt lat="43.01091" lon="1.51627">
        <ele>499.79998779297</ele>
        <time>2025-08-07T09:58:42.000Z</time>
      </trkpt>
      <trkpt lat="43.01095" lon="1.51611">
        <ele>499.79998779297</ele>
        <time>2025-08-07T09:58:44.000Z</time>
      </trkpt>
      <trkpt lat="43.01098" lon="1.51591">
        <ele>499.39999389648</ele>
        <time>2025-08-07T09:58:47.000Z</time>
      </trkpt>
      <trkpt lat="43.01101" lon="1.51573">
        <ele>499</ele>
        <time>2025-08-07T09:58:49.000Z</time>
      </trkpt>
      <trkpt lat="43.01113" lon="1.51508">
        <ele>498.60000610352</ele>
        <time>2025-08-07T09:58:58.000Z</time>
      </trkpt>
      <trkpt lat="43.01124" lon="1.5145">
        <ele>498.20001220703</ele>
        <time>2025-08-07T09:59:06.000Z</time>
      </trkpt>
      <trkpt lat="43.01128" lon="1.5142">
        <ele>498</ele>
        <time>2025-08-07T09:59:10.000Z</time>
      </trkpt>
      <trkpt lat="43.0113" lon="1.51408">
        <ele>497.79998779297</ele>
        <time>2025-08-07T09:59:12.000Z</time>
      </trkpt>
      <trkpt lat="43.01133" lon="1.51395">
        <ele>497.60000610352</ele>
        <time>2025-08-07T09:59:15.000Z</time>
      </trkpt>
      <trkpt lat="43.01134" lon="1.51391">
        <ele>497.39999389648</ele>
        <time>2025-08-07T09:59:16.000Z</time>
      </trkpt>
      <trkpt lat="43.01137" lon="1.51376">
        <ele>497.20001220703</ele>
        <time>2025-08-07T09:59:21.000Z</time>
      </trkpt>
      <trkpt lat="43.01141" lon="1.51351">
        <ele>496.79998779297</ele>
        <time>2025-08-07T09:59:26.000Z</time>
      </trkpt>
      <trkpt lat="43.01142" lon="1.51345">
        <ele>496.79998779297</ele>
        <time>2025-08-07T09:59:27.000Z</time>
      </trkpt>
      <trkpt lat="43.01144" lon="1.51335">
        <ele>496.39999389648</ele>
        <time>2025-08-07T09:59:29.000Z</time>
      </trkpt>
      <trkpt lat="43.01146" lon="1.51323">
        <ele>496</ele>
        <time>2025-08-07T09:59:31.000Z</time>
      </trkpt>
      <trkpt lat="43.01155" lon="1.51278">
        <ele>495.39999389648</ele>
        <time>2025-08-07T09:59:38.000Z</time>
      </trkpt>
      <trkpt lat="43.01156" lon="1.51272">
        <ele>495.39999389648</ele>
        <time>2025-08-07T09:59:39.000Z</time>
      </trkpt>
      <trkpt lat="43.01164" lon="1.51221">
        <ele>494.60000610352</ele>
        <time>2025-08-07T09:59:47.000Z</time>
      </trkpt>
      <trkpt lat="43.01166" lon="1.51209">
        <ele>494.20001220703</ele>
        <time>2025-08-07T09:59:49.000Z</time>
      </trkpt>
      <trkpt lat="43.01166" lon="1.51204">
        <ele>494</ele>
        <time>2025-08-07T09:59:50.000Z</time>
      </trkpt>
      <trkpt lat="43.01169" lon="1.51184">
        <ele>493.79998779297</ele>
        <time>2025-08-07T09:59:53.000Z</time>
      </trkpt>
      <trkpt lat="43.01172" lon="1.51153">
        <ele>493.20001220703</ele>
        <time>2025-08-07T09:59:58.000Z</time>
      </trkpt>
      <trkpt lat="43.01174" lon="1.51132">
        <ele>493</ele>
        <time>2025-08-07T10:00:01.000Z</time>
      </trkpt>
      <trkpt lat="43.01175" lon="1.51089">
        <ele>492.20001220703</ele>
        <time>2025-08-07T10:00:07.000Z</time>
      </trkpt>
      <trkpt lat="43.01175" lon="1.51082">
        <ele>492.20001220703</ele>
        <time>2025-08-07T10:00:08.000Z</time>
      </trkpt>
      <trkpt lat="43.01173" lon="1.51028">
        <ele>491.60000610352</ele>
        <time>2025-08-07T10:00:16.000Z</time>
      </trkpt>
      <trkpt lat="43.01167" lon="1.50963">
        <ele>491.39999389648</ele>
        <time>2025-08-07T10:00:26.000Z</time>
      </trkpt>
      <trkpt lat="43.01156" lon="1.50909">
        <ele>491.20001220703</ele>
        <time>2025-08-07T10:00:34.000Z</time>
      </trkpt>
      <trkpt lat="43.01153" lon="1.50895">
        <ele>491.20001220703</ele>
        <time>2025-08-07T10:00:36.000Z</time>
      </trkpt>
      <trkpt lat="43.01151" lon="1.50887">
        <ele>491</ele>
        <time>2025-08-07T10:00:37.000Z</time>
      </trkpt>
      <trkpt lat="43.01138" lon="1.50844">
        <ele>490.39999389648</ele>
        <time>2025-08-07T10:00:43.000Z</time>
      </trkpt>
      <trkpt lat="43.01122" lon="1.50791">
        <ele>490.20001220703</ele>
        <time>2025-08-07T10:00:51.000Z</time>
      </trkpt>
      <trkpt lat="43.011" lon="1.50719">
        <ele>489.39999389648</ele>
        <time>2025-08-07T10:01:01.000Z</time>
      </trkpt>
      <trkpt lat="43.01096" lon="1.50707">
        <ele>489.20001220703</ele>
        <time>2025-08-07T10:01:03.000Z</time>
      </trkpt>
      <trkpt lat="43.01084" lon="1.50666">
        <ele>488.60000610352</ele>
        <time>2025-08-07T10:01:09.000Z</time>
      </trkpt>
      <trkpt lat="43.01069" lon="1.50618">
        <ele>488</ele>
        <time>2025-08-07T10:01:16.000Z</time>
      </trkpt>
      <trkpt lat="43.01067" lon="1.50612">
        <ele>488</ele>
        <time>2025-08-07T10:01:17.000Z</time>
      </trkpt>
      <trkpt lat="43.01059" lon="1.50586">
        <ele>487.60000610352</ele>
        <time>2025-08-07T10:01:21.000Z</time>
      </trkpt>
      <trkpt lat="43.01054" lon="1.50571">
        <ele>487.39999389648</ele>
        <time>2025-08-07T10:01:23.000Z</time>
      </trkpt>
      <trkpt lat="43.01044" lon="1.50533">
        <ele>487</ele>
        <time>2025-08-07T10:01:29.000Z</time>
      </trkpt>
      <trkpt lat="43.01041" lon="1.50521">
        <ele>486.79998779297</ele>
        <time>2025-08-07T10:01:31.000Z</time>
      </trkpt>
      <trkpt lat="43.01032" lon="1.50474">
        <ele>486.20001220703</ele>
        <time>2025-08-07T10:01:38.000Z</time>
      </trkpt>
      <trkpt lat="43.01031" lon="1.50466">
        <ele>486.20001220703</ele>
        <time>2025-08-07T10:01:39.000Z</time>
      </trkpt>
      <trkpt lat="43.0103" lon="1.50461">
        <ele>486.20001220703</ele>
        <time>2025-08-07T10:01:40.000Z</time>
      </trkpt>
      <trkpt lat="43.01027" lon="1.50441">
        <ele>486</ele>
        <time>2025-08-07T10:01:43.000Z</time>
      </trkpt>
      <trkpt lat="43.01027" lon="1.50434">
        <ele>486</ele>
        <time>2025-08-07T10:01:44.000Z</time>
      </trkpt>
      <trkpt lat="43.01025" lon="1.50413">
        <ele>485.60000610352</ele>
        <time>2025-08-07T10:01:47.000Z</time>
      </trkpt>
      <trkpt lat="43.01024" lon="1.50401">
        <ele>485.39999389648</ele>
        <time>2025-08-07T10:01:49.000Z</time>
      </trkpt>
      <trkpt lat="43.01024" lon="1.50394">
        <ele>485.39999389648</ele>
        <time>2025-08-07T10:01:50.000Z</time>
      </trkpt>
      <trkpt lat="43.01025" lon="1.50387">
        <ele>485.39999389648</ele>
        <time>2025-08-07T10:01:51.000Z</time>
      </trkpt>
      <trkpt lat="43.01025" lon="1.50375">
        <ele>485.39999389648</ele>
        <time>2025-08-07T10:01:53.000Z</time>
      </trkpt>
      <trkpt lat="43.01025" lon="1.50369">
        <ele>485.20001220703</ele>
        <time>2025-08-07T10:01:54.000Z</time>
      </trkpt>
      <trkpt lat="43.01025" lon="1.50355">
        <ele>485.20001220703</ele>
        <time>2025-08-07T10:01:56.000Z</time>
      </trkpt>
      <trkpt lat="43.01024" lon="1.50342">
        <ele>485.20001220703</ele>
        <time>2025-08-07T10:01:58.000Z</time>
      </trkpt>
      <trkpt lat="43.01024" lon="1.50337">
        <ele>485</ele>
        <time>2025-08-07T10:01:59.000Z</time>
      </trkpt>
      <trkpt lat="43.01024" lon="1.50319">
        <ele>485</ele>
        <time>2025-08-07T10:02:02.000Z</time>
      </trkpt>
      <trkpt lat="43.01024" lon="1.50303">
        <ele>485</ele>
        <time>2025-08-07T10:02:05.000Z</time>
      </trkpt>
      <trkpt lat="43.01024" lon="1.50292">
        <ele>485</ele>
        <time>2025-08-07T10:02:07.000Z</time>
      </trkpt>
      <trkpt lat="43.01024" lon="1.50263">
        <ele>484.79998779297</ele>
        <time>2025-08-07T10:02:12.000Z</time>
      </trkpt>
      <trkpt lat="43.01024" lon="1.50245">
        <ele>484.79998779297</ele>
        <time>2025-08-07T10:02:15.000Z</time>
      </trkpt>
      <trkpt lat="43.01022" lon="1.50181">
        <ele>484.60000610352</ele>
        <time>2025-08-07T10:02:26.000Z</time>
      </trkpt>
      <trkpt lat="43.01021" lon="1.50138">
        <ele>484.39999389648</ele>
        <time>2025-08-07T10:02:34.000Z</time>
      </trkpt>
      <trkpt lat="43.01023" lon="1.50098">
        <ele>484.60000610352</ele>
        <time>2025-08-07T10:02:42.000Z</time>
      </trkpt>
      <trkpt lat="43.01023" lon="1.50081">
        <ele>484.79998779297</ele>
        <time>2025-08-07T10:02:46.000Z</time>
      </trkpt>
      <trkpt lat="43.01016" lon="1.50067">
        <ele>485</ele>
        <time>2025-08-07T10:02:50.000Z</time>
      </trkpt>
      <trkpt lat="43.01016" lon="1.50063">
        <ele>485</ele>
        <time>2025-08-07T10:02:51.000Z</time>
      </trkpt>
      <trkpt lat="43.01013" lon="1.5003">
        <ele>484.79998779297</ele>
        <time>2025-08-07T10:02:58.000Z</time>
      </trkpt>
      <trkpt lat="43.01009" lon="1.49994">
        <ele>484.20001220703</ele>
        <time>2025-08-07T10:03:05.000Z</time>
      </trkpt>
      <trkpt lat="43.01003" lon="1.49959">
        <ele>484</ele>
        <time>2025-08-07T10:03:11.000Z</time>
      </trkpt>
      <trkpt lat="43.01" lon="1.49944">
        <ele>483.79998779297</ele>
        <time>2025-08-07T10:03:13.000Z</time>
      </trkpt>
      <trkpt lat="43.00985" lon="1.49882">
        <ele>483.20001220703</ele>
        <time>2025-08-07T10:03:21.000Z</time>
      </trkpt>
      <trkpt lat="43.00984" lon="1.49874">
        <ele>483</ele>
        <time>2025-08-07T10:03:22.000Z</time>
      </trkpt>
      <trkpt lat="43.00982" lon="1.49866">
        <ele>483</ele>
        <time>2025-08-07T10:03:23.000Z</time>
      </trkpt>
      <trkpt lat="43.00975" lon="1.49841">
        <ele>482.60000610352</ele>
        <time>2025-08-07T10:03:27.000Z</time>
      </trkpt>
      <trkpt lat="43.00971" lon="1.49822">
        <ele>482.20001220703</ele>
        <time>2025-08-07T10:03:30.000Z</time>
      </trkpt>
      <trkpt lat="43.00965" lon="1.49802">
        <ele>481.79998779297</ele>
        <time>2025-08-07T10:03:33.000Z</time>
      </trkpt>
      <trkpt lat="43.00957" lon="1.49769">
        <ele>481.60000610352</ele>
        <time>2025-08-07T10:03:38.000Z</time>
      </trkpt>
      <trkpt lat="43.00943" lon="1.49709">
        <ele>481.20001220703</ele>
        <time>2025-08-07T10:03:47.000Z</time>
      </trkpt>
      <trkpt lat="43.00938" lon="1.49674">
        <ele>480.79998779297</ele>
        <time>2025-08-07T10:03:52.000Z</time>
      </trkpt>
      <trkpt lat="43.00935" lon="1.4964">
        <ele>480.39999389648</ele>
        <time>2025-08-07T10:03:57.000Z</time>
      </trkpt>
      <trkpt lat="43.00931" lon="1.49582">
        <ele>480</ele>
        <time>2025-08-07T10:04:05.000Z</time>
      </trkpt>
      <trkpt lat="43.00931" lon="1.49567">
        <ele>479.60000610352</ele>
        <time>2025-08-07T10:04:07.000Z</time>
      </trkpt>
      <trkpt lat="43.00933" lon="1.49515">
        <ele>479.20001220703</ele>
        <time>2025-08-07T10:04:14.000Z</time>
      </trkpt>
      <trkpt lat="43.00935" lon="1.49478">
        <ele>479</ele>
        <time>2025-08-07T10:04:19.000Z</time>
      </trkpt>
      <trkpt lat="43.00936" lon="1.49456">
        <ele>478.60000610352</ele>
        <time>2025-08-07T10:04:22.000Z</time>
      </trkpt>
      <trkpt lat="43.00939" lon="1.49405">
        <ele>478.20001220703</ele>
        <time>2025-08-07T10:04:29.000Z</time>
      </trkpt>
      <trkpt lat="43.00939" lon="1.49391">
        <ele>478</ele>
        <time>2025-08-07T10:04:31.000Z</time>
      </trkpt>
      <trkpt lat="43.00939" lon="1.49384">
        <ele>478</ele>
        <time>2025-08-07T10:04:32.000Z</time>
      </trkpt>
      <trkpt lat="43.00943" lon="1.49326">
        <ele>477.20001220703</ele>
        <time>2025-08-07T10:04:40.000Z</time>
      </trkpt>
      <trkpt lat="43.00944" lon="1.49312">
        <ele>477</ele>
        <time>2025-08-07T10:04:42.000Z</time>
      </trkpt>
      <trkpt lat="43.00946" lon="1.49276">
        <ele>476.39999389648</ele>
        <time>2025-08-07T10:04:47.000Z</time>
      </trkpt>
      <trkpt lat="43.00948" lon="1.49247">
        <ele>476.20001220703</ele>
        <time>2025-08-07T10:04:51.000Z</time>
      </trkpt>
      <trkpt lat="43.00948" lon="1.49226">
        <ele>475.79998779297</ele>
        <time>2025-08-07T10:04:54.000Z</time>
      </trkpt>
      <trkpt lat="43.00951" lon="1.49176">
        <ele>475.60000610352</ele>
        <time>2025-08-07T10:05:01.000Z</time>
      </trkpt>
      <trkpt lat="43.00955" lon="1.49126">
        <ele>474.79998779297</ele>
        <time>2025-08-07T10:05:08.000Z</time>
      </trkpt>
      <trkpt lat="43.00956" lon="1.49103">
        <ele>474.39999389648</ele>
        <time>2025-08-07T10:05:11.000Z</time>
      </trkpt>
      <trkpt lat="43.0096" lon="1.49036">
        <ele>473.79998779297</ele>
        <time>2025-08-07T10:05:19.000Z</time>
      </trkpt>
      <trkpt lat="43.00962" lon="1.4901">
        <ele>473.79998779297</ele>
        <time>2025-08-07T10:05:22.000Z</time>
      </trkpt>
      <trkpt lat="43.00965" lon="1.48959">
        <ele>473.20001220703</ele>
        <time>2025-08-07T10:05:28.000Z</time>
      </trkpt>
      <trkpt lat="43.00969" lon="1.48919">
        <ele>472.60000610352</ele>
        <time>2025-08-07T10:05:33.000Z</time>
      </trkpt>
      <trkpt lat="43.00972" lon="1.48904">
        <ele>472.39999389648</ele>
        <time>2025-08-07T10:05:35.000Z</time>
      </trkpt>
      <trkpt lat="43.00984" lon="1.48833">
        <ele>471.79998779297</ele>
        <time>2025-08-07T10:05:44.000Z</time>
      </trkpt>
      <trkpt lat="43.00989" lon="1.48802">
        <ele>471.60000610352</ele>
        <time>2025-08-07T10:05:48.000Z</time>
      </trkpt>
      <trkpt lat="43.00993" lon="1.48779">
        <ele>471.20001220703</ele>
        <time>2025-08-07T10:05:51.000Z</time>
      </trkpt>
      <trkpt lat="43.00998" lon="1.48754">
        <ele>471</ele>
        <time>2025-08-07T10:05:54.000Z</time>
      </trkpt>
      <trkpt lat="43.01003" lon="1.48731">
        <ele>470.60000610352</ele>
        <time>2025-08-07T10:05:57.000Z</time>
      </trkpt>
      <trkpt lat="43.01009" lon="1.48706">
        <ele>470.39999389648</ele>
        <time>2025-08-07T10:06:00.000Z</time>
      </trkpt>
      <trkpt lat="43.01015" lon="1.48676">
        <ele>470.20001220703</ele>
        <time>2025-08-07T10:06:04.000Z</time>
      </trkpt>
      <trkpt lat="43.01017" lon="1.48668">
        <ele>470.20001220703</ele>
        <time>2025-08-07T10:06:05.000Z</time>
      </trkpt>
      <trkpt lat="43.01022" lon="1.48637">
        <ele>469.79998779297</ele>
        <time>2025-08-07T10:06:09.000Z</time>
      </trkpt>
      <trkpt lat="43.01026" lon="1.48612">
        <ele>469.39999389648</ele>
        <time>2025-08-07T10:06:12.000Z</time>
      </trkpt>
      <trkpt lat="43.0103" lon="1.48587">
        <ele>469.20001220703</ele>
        <time>2025-08-07T10:06:15.000Z</time>
      </trkpt>
      <trkpt lat="43.01031" lon="1.48569">
        <ele>469.20001220703</ele>
        <time>2025-08-07T10:06:17.000Z</time>
      </trkpt>
      <trkpt lat="43.01037" lon="1.48544">
        <ele>469</ele>
        <time>2025-08-07T10:06:20.000Z</time>
      </trkpt>
      <trkpt lat="43.01043" lon="1.48521">
        <ele>468.79998779297</ele>
        <time>2025-08-07T10:06:23.000Z</time>
      </trkpt>
      <trkpt lat="43.01049" lon="1.48497">
        <ele>468.60000610352</ele>
        <time>2025-08-07T10:06:26.000Z</time>
      </trkpt>
      <trkpt lat="43.01052" lon="1.48481">
        <ele>468.39999389648</ele>
        <time>2025-08-07T10:06:28.000Z</time>
      </trkpt>
      <trkpt lat="43.01055" lon="1.48474">
        <ele>468.39999389648</ele>
        <time>2025-08-07T10:06:29.000Z</time>
      </trkpt>
      <trkpt lat="43.01061" lon="1.48452">
        <ele>468.20001220703</ele>
        <time>2025-08-07T10:06:32.000Z</time>
      </trkpt>
      <trkpt lat="43.01084" lon="1.48403">
        <ele>467.79998779297</ele>
        <time>2025-08-07T10:06:39.000Z</time>
      </trkpt>
      <trkpt lat="43.01095" lon="1.48384">
        <ele>467.60000610352</ele>
        <time>2025-08-07T10:06:42.000Z</time>
      </trkpt>
      <trkpt lat="43.0111" lon="1.4836">
        <ele>467.20001220703</ele>
        <time>2025-08-07T10:06:46.000Z</time>
      </trkpt>
      <trkpt lat="43.01153" lon="1.48306">
        <ele>466.39999389648</ele>
        <time>2025-08-07T10:06:56.000Z</time>
      </trkpt>
      <trkpt lat="43.01178" lon="1.48276">
        <ele>466</ele>
        <time>2025-08-07T10:07:02.000Z</time>
      </trkpt>
      <trkpt lat="43.01187" lon="1.48266">
        <ele>465.79998779297</ele>
        <time>2025-08-07T10:07:04.000Z</time>
      </trkpt>
      <trkpt lat="43.012" lon="1.48248">
        <ele>465.39999389648</ele>
        <time>2025-08-07T10:07:07.000Z</time>
      </trkpt>
      <trkpt lat="43.01215" lon="1.48224">
        <ele>465</ele>
        <time>2025-08-07T10:07:11.000Z</time>
      </trkpt>
      <trkpt lat="43.01221" lon="1.48212">
        <ele>464.79998779297</ele>
        <time>2025-08-07T10:07:13.000Z</time>
      </trkpt>
      <trkpt lat="43.01231" lon="1.48194">
        <ele>464.60000610352</ele>
        <time>2025-08-07T10:07:16.000Z</time>
      </trkpt>
      <trkpt lat="43.01234" lon="1.48188">
        <ele>464.60000610352</ele>
        <time>2025-08-07T10:07:17.000Z</time>
      </trkpt>
      <trkpt lat="43.01242" lon="1.48169">
        <ele>464.39999389648</ele>
        <time>2025-08-07T10:07:20.000Z</time>
      </trkpt>
      <trkpt lat="43.01245" lon="1.48162">
        <ele>464.39999389648</ele>
        <time>2025-08-07T10:07:21.000Z</time>
      </trkpt>
      <trkpt lat="43.01246" lon="1.48156">
        <ele>464.20001220703</ele>
        <time>2025-08-07T10:07:22.000Z</time>
      </trkpt>
      <trkpt lat="43.0125" lon="1.48141">
        <ele>464.20001220703</ele>
        <time>2025-08-07T10:07:24.000Z</time>
      </trkpt>
      <trkpt lat="43.01254" lon="1.48127">
        <ele>464</ele>
        <time>2025-08-07T10:07:26.000Z</time>
      </trkpt>
      <trkpt lat="43.01256" lon="1.4812">
        <ele>464</ele>
        <time>2025-08-07T10:07:27.000Z</time>
      </trkpt>
      <trkpt lat="43.01259" lon="1.48103">
        <ele>463.79998779297</ele>
        <time>2025-08-07T10:07:29.000Z</time>
      </trkpt>
      <trkpt lat="43.01262" lon="1.48088">
        <ele>463.60000610352</ele>
        <time>2025-08-07T10:07:31.000Z</time>
      </trkpt>
      <trkpt lat="43.01264" lon="1.4808">
        <ele>463.39999389648</ele>
        <time>2025-08-07T10:07:32.000Z</time>
      </trkpt>
      <trkpt lat="43.01267" lon="1.48066">
        <ele>463.20001220703</ele>
        <time>2025-08-07T10:07:34.000Z</time>
      </trkpt>
      <trkpt lat="43.01272" lon="1.48026">
        <ele>462.79998779297</ele>
        <time>2025-08-07T10:07:39.000Z</time>
      </trkpt>
      <trkpt lat="43.01275" lon="1.47966">
        <ele>462.20001220703</ele>
        <time>2025-08-07T10:07:47.000Z</time>
      </trkpt>
      <trkpt lat="43.0127" lon="1.47902">
        <ele>461.39999389648</ele>
        <time>2025-08-07T10:07:56.000Z</time>
      </trkpt>
      <trkpt lat="43.01268" lon="1.47888">
        <ele>461.20001220703</ele>
        <time>2025-08-07T10:07:58.000Z</time>
      </trkpt>
      <trkpt lat="43.01264" lon="1.47837">
        <ele>460.39999389648</ele>
        <time>2025-08-07T10:08:05.000Z</time>
      </trkpt>
      <trkpt lat="43.01263" lon="1.47821">
        <ele>460.20001220703</ele>
        <time>2025-08-07T10:08:07.000Z</time>
      </trkpt>
      <trkpt lat="43.0126" lon="1.47785">
        <ele>459.79998779297</ele>
        <time>2025-08-07T10:08:12.000Z</time>
      </trkpt>
      <trkpt lat="43.0126" lon="1.47769">
        <ele>459.60000610352</ele>
        <time>2025-08-07T10:08:14.000Z</time>
      </trkpt>
      <trkpt lat="43.01255" lon="1.4774">
        <ele>459.39999389648</ele>
        <time>2025-08-07T10:08:18.000Z</time>
      </trkpt>
      <trkpt lat="43.01253" lon="1.47725">
        <ele>459.20001220703</ele>
        <time>2025-08-07T10:08:20.000Z</time>
      </trkpt>
      <trkpt lat="43.01251" lon="1.47718">
        <ele>459</ele>
        <time>2025-08-07T10:08:21.000Z</time>
      </trkpt>
      <trkpt lat="43.01232" lon="1.47651">
        <ele>458.20001220703</ele>
        <time>2025-08-07T10:08:30.000Z</time>
      </trkpt>
      <trkpt lat="43.01229" lon="1.47644">
        <ele>458</ele>
        <time>2025-08-07T10:08:31.000Z</time>
      </trkpt>
      <trkpt lat="43.0121" lon="1.47603">
        <ele>457.79998779297</ele>
        <time>2025-08-07T10:08:37.000Z</time>
      </trkpt>
      <trkpt lat="43.01185" lon="1.4756">
        <ele>457</ele>
        <time>2025-08-07T10:08:44.000Z</time>
      </trkpt>
      <trkpt lat="43.01181" lon="1.47555">
        <ele>456.79998779297</ele>
        <time>2025-08-07T10:08:45.000Z</time>
      </trkpt>
      <trkpt lat="43.01156" lon="1.47523">
        <ele>456.39999389648</ele>
        <time>2025-08-07T10:08:51.000Z</time>
      </trkpt>
      <trkpt lat="43.01119" lon="1.47481">
        <ele>455.79998779297</ele>
        <time>2025-08-07T10:08:59.000Z</time>
      </trkpt>
      <trkpt lat="43.0111" lon="1.4747">
        <ele>455.60000610352</ele>
        <time>2025-08-07T10:09:01.000Z</time>
      </trkpt>
      <trkpt lat="43.0107" lon="1.47421">
        <ele>454.60000610352</ele>
        <time>2025-08-07T10:09:10.000Z</time>
      </trkpt>
      <trkpt lat="43.01037" lon="1.47378">
        <ele>453.79998779297</ele>
        <time>2025-08-07T10:09:18.000Z</time>
      </trkpt>
      <trkpt lat="43.01014" lon="1.47336">
        <ele>453.60000610352</ele>
        <time>2025-08-07T10:09:25.000Z</time>
      </trkpt>
      <trkpt lat="43.01011" lon="1.4733">
        <ele>453.60000610352</ele>
        <time>2025-08-07T10:09:26.000Z</time>
      </trkpt>
      <trkpt lat="43.01009" lon="1.47324">
        <ele>453.60000610352</ele>
        <time>2025-08-07T10:09:27.000Z</time>
      </trkpt>
      <trkpt lat="43.00992" lon="1.47275">
        <ele>453.60000610352</ele>
        <time>2025-08-07T10:09:35.000Z</time>
      </trkpt>
      <trkpt lat="43.00979" lon="1.4722">
        <ele>453.20001220703</ele>
        <time>2025-08-07T10:09:43.000Z</time>
      </trkpt>
      <trkpt lat="43.00977" lon="1.47206">
        <ele>453.20001220703</ele>
        <time>2025-08-07T10:09:45.000Z</time>
      </trkpt>
      <trkpt lat="43.00974" lon="1.47177">
        <ele>453.20001220703</ele>
        <time>2025-08-07T10:09:49.000Z</time>
      </trkpt>
      <trkpt lat="43.00972" lon="1.47116">
        <ele>453</ele>
        <time>2025-08-07T10:09:57.000Z</time>
      </trkpt>
      <trkpt lat="43.00975" lon="1.4708">
        <ele>453</ele>
        <time>2025-08-07T10:10:02.000Z</time>
      </trkpt>
      <trkpt lat="43.00975" lon="1.47072">
        <ele>453</ele>
        <time>2025-08-07T10:10:03.000Z</time>
      </trkpt>
      <trkpt lat="43.00976" lon="1.47065">
        <ele>452.79998779297</ele>
        <time>2025-08-07T10:10:04.000Z</time>
      </trkpt>
      <trkpt lat="43.00978" lon="1.47058">
        <ele>452.79998779297</ele>
        <time>2025-08-07T10:10:05.000Z</time>
      </trkpt>
      <trkpt lat="43.00978" lon="1.47045">
        <ele>452.60000610352</ele>
        <time>2025-08-07T10:10:07.000Z</time>
      </trkpt>
      <trkpt lat="43.00981" lon="1.47007">
        <ele>452.20001220703</ele>
        <time>2025-08-07T10:10:12.000Z</time>
      </trkpt>
      <trkpt lat="43.00982" lon="1.46992">
        <ele>452</ele>
        <time>2025-08-07T10:10:14.000Z</time>
      </trkpt>
      <trkpt lat="43.00983" lon="1.46983">
        <ele>452</ele>
        <time>2025-08-07T10:10:15.000Z</time>
      </trkpt>
      <trkpt lat="43.00986" lon="1.46967">
        <ele>451.79998779297</ele>
        <time>2025-08-07T10:10:17.000Z</time>
      </trkpt>
      <trkpt lat="43.00989" lon="1.4696">
        <ele>451.60000610352</ele>
        <time>2025-08-07T10:10:18.000Z</time>
      </trkpt>
      <trkpt lat="43.00991" lon="1.46953">
        <ele>451.39999389648</ele>
        <time>2025-08-07T10:10:19.000Z</time>
      </trkpt>
      <trkpt lat="43.00994" lon="1.46938">
        <ele>451.20001220703</ele>
        <time>2025-08-07T10:10:21.000Z</time>
      </trkpt>
      <trkpt lat="43.00998" lon="1.46924">
        <ele>451.20001220703</ele>
        <time>2025-08-07T10:10:23.000Z</time>
      </trkpt>
      <trkpt lat="43.01002" lon="1.46909">
        <ele>451</ele>
        <time>2025-08-07T10:10:25.000Z</time>
      </trkpt>
      <trkpt lat="43.01005" lon="1.46885">
        <ele>450.79998779297</ele>
        <time>2025-08-07T10:10:28.000Z</time>
      </trkpt>
      <trkpt lat="43.01007" lon="1.4687">
        <ele>450.60000610352</ele>
        <time>2025-08-07T10:10:30.000Z</time>
      </trkpt>
      <trkpt lat="43.01007" lon="1.46855">
        <ele>450.39999389648</ele>
        <time>2025-08-07T10:10:32.000Z</time>
      </trkpt>
      <trkpt lat="43.01009" lon="1.46842">
        <ele>450.20001220703</ele>
        <time>2025-08-07T10:10:34.000Z</time>
      </trkpt>
      <trkpt lat="43.01016" lon="1.468">
        <ele>449.60000610352</ele>
        <time>2025-08-07T10:10:40.000Z</time>
      </trkpt>
      <trkpt lat="43.01024" lon="1.46757">
        <ele>449</ele>
        <time>2025-08-07T10:10:46.000Z</time>
      </trkpt>
      <trkpt lat="43.01033" lon="1.46721">
        <ele>448.39999389648</ele>
        <time>2025-08-07T10:10:51.000Z</time>
      </trkpt>
      <trkpt lat="43.01037" lon="1.46707">
        <ele>448.39999389648</ele>
        <time>2025-08-07T10:10:53.000Z</time>
      </trkpt>
      <trkpt lat="43.01044" lon="1.46678">
        <ele>448</ele>
        <time>2025-08-07T10:10:57.000Z</time>
      </trkpt>
      <trkpt lat="43.01048" lon="1.46663">
        <ele>448</ele>
        <time>2025-08-07T10:10:59.000Z</time>
      </trkpt>
      <trkpt lat="43.01052" lon="1.46648">
        <ele>448</ele>
        <time>2025-08-07T10:11:01.000Z</time>
      </trkpt>
      <trkpt lat="43.01057" lon="1.46635">
        <ele>448</ele>
        <time>2025-08-07T10:11:03.000Z</time>
      </trkpt>
      <trkpt lat="43.01061" lon="1.46621">
        <ele>447.79998779297</ele>
        <time>2025-08-07T10:11:05.000Z</time>
      </trkpt>
      <trkpt lat="43.01063" lon="1.46614">
        <ele>447.79998779297</ele>
        <time>2025-08-07T10:11:06.000Z</time>
      </trkpt>
      <trkpt lat="43.01068" lon="1.466">
        <ele>447.79998779297</ele>
        <time>2025-08-07T10:11:08.000Z</time>
      </trkpt>
      <trkpt lat="43.01073" lon="1.46586">
        <ele>447.60000610352</ele>
        <time>2025-08-07T10:11:10.000Z</time>
      </trkpt>
      <trkpt lat="43.01076" lon="1.46579">
        <ele>447.39999389648</ele>
        <time>2025-08-07T10:11:11.000Z</time>
      </trkpt>
      <trkpt lat="43.01081" lon="1.46567">
        <ele>447.20001220703</ele>
        <time>2025-08-07T10:11:13.000Z</time>
      </trkpt>
      <trkpt lat="43.01086" lon="1.46551">
        <ele>447.20001220703</ele>
        <time>2025-08-07T10:11:15.000Z</time>
      </trkpt>
      <trkpt lat="43.01093" lon="1.46537">
        <ele>447</ele>
        <time>2025-08-07T10:11:17.000Z</time>
      </trkpt>
      <trkpt lat="43.01098" lon="1.46524">
        <ele>447</ele>
        <time>2025-08-07T10:11:19.000Z</time>
      </trkpt>
      <trkpt lat="43.01099" lon="1.46515">
        <ele>447</ele>
        <time>2025-08-07T10:11:20.000Z</time>
      </trkpt>
      <trkpt lat="43.011" lon="1.46508">
        <ele>446.79998779297</ele>
        <time>2025-08-07T10:11:21.000Z</time>
      </trkpt>
      <trkpt lat="43.01106" lon="1.46495">
        <ele>446.79998779297</ele>
        <time>2025-08-07T10:11:23.000Z</time>
      </trkpt>
      <trkpt lat="43.01109" lon="1.46487">
        <ele>446.60000610352</ele>
        <time>2025-08-07T10:11:24.000Z</time>
      </trkpt>
      <trkpt lat="43.0111" lon="1.4648">
        <ele>446.60000610352</ele>
        <time>2025-08-07T10:11:25.000Z</time>
      </trkpt>
      <trkpt lat="43.01114" lon="1.46451">
        <ele>446</ele>
        <time>2025-08-07T10:11:29.000Z</time>
      </trkpt>
      <trkpt lat="43.01116" lon="1.46443">
        <ele>446</ele>
        <time>2025-08-07T10:11:30.000Z</time>
      </trkpt>
      <trkpt lat="43.01118" lon="1.46427">
        <ele>445.39999389648</ele>
        <time>2025-08-07T10:11:32.000Z</time>
      </trkpt>
      <trkpt lat="43.0112" lon="1.46412">
        <ele>445.20001220703</ele>
        <time>2025-08-07T10:11:34.000Z</time>
      </trkpt>
      <trkpt lat="43.01122" lon="1.46397">
        <ele>445</ele>
        <time>2025-08-07T10:11:36.000Z</time>
      </trkpt>
      <trkpt lat="43.01123" lon="1.46383">
        <ele>444.79998779297</ele>
        <time>2025-08-07T10:11:38.000Z</time>
      </trkpt>
      <trkpt lat="43.01125" lon="1.46363">
        <ele>444.39999389648</ele>
        <time>2025-08-07T10:11:41.000Z</time>
      </trkpt>
      <trkpt lat="43.01125" lon="1.4635">
        <ele>444.39999389648</ele>
        <time>2025-08-07T10:11:43.000Z</time>
      </trkpt>
      <trkpt lat="43.01125" lon="1.46328">
        <ele>444.20001220703</ele>
        <time>2025-08-07T10:11:46.000Z</time>
      </trkpt>
      <trkpt lat="43.01124" lon="1.46315">
        <ele>444.20001220703</ele>
        <time>2025-08-07T10:11:48.000Z</time>
      </trkpt>
      <trkpt lat="43.01125" lon="1.463">
        <ele>444</ele>
        <time>2025-08-07T10:11:50.000Z</time>
      </trkpt>
      <trkpt lat="43.01125" lon="1.46292">
        <ele>443.79998779297</ele>
        <time>2025-08-07T10:11:51.000Z</time>
      </trkpt>
      <trkpt lat="43.01126" lon="1.46261">
        <ele>443.39999389648</ele>
        <time>2025-08-07T10:11:55.000Z</time>
      </trkpt>
      <trkpt lat="43.01127" lon="1.46246">
        <ele>443.20001220703</ele>
        <time>2025-08-07T10:11:57.000Z</time>
      </trkpt>
      <trkpt lat="43.01127" lon="1.4624">
        <ele>443.20001220703</ele>
        <time>2025-08-07T10:11:58.000Z</time>
      </trkpt>
      <trkpt lat="43.01127" lon="1.46232">
        <ele>442.79998779297</ele>
        <time>2025-08-07T10:11:59.000Z</time>
      </trkpt>
      <trkpt lat="43.01128" lon="1.46206">
        <ele>442.60000610352</ele>
        <time>2025-08-07T10:12:02.000Z</time>
      </trkpt>
      <trkpt lat="43.01128" lon="1.46199">
        <ele>442.39999389648</ele>
        <time>2025-08-07T10:12:03.000Z</time>
      </trkpt>
      <trkpt lat="43.01128" lon="1.46182">
        <ele>442.39999389648</ele>
        <time>2025-08-07T10:12:05.000Z</time>
      </trkpt>
      <trkpt lat="43.01127" lon="1.46133">
        <ele>441.79998779297</ele>
        <time>2025-08-07T10:12:11.000Z</time>
      </trkpt>
      <trkpt lat="43.01129" lon="1.4609">
        <ele>441.39999389648</ele>
        <time>2025-08-07T10:12:17.000Z</time>
      </trkpt>
      <trkpt lat="43.01129" lon="1.46074">
        <ele>441</ele>
        <time>2025-08-07T10:12:19.000Z</time>
      </trkpt>
      <trkpt lat="43.01128" lon="1.46045">
        <ele>440.20001220703</ele>
        <time>2025-08-07T10:12:23.000Z</time>
      </trkpt>
      <trkpt lat="43.01129" lon="1.4603">
        <ele>439.79998779297</ele>
        <time>2025-08-07T10:12:25.000Z</time>
      </trkpt>
      <trkpt lat="43.01129" lon="1.46014">
        <ele>439.60000610352</ele>
        <time>2025-08-07T10:12:27.000Z</time>
      </trkpt>
      <trkpt lat="43.01129" lon="1.45992">
        <ele>439</ele>
        <time>2025-08-07T10:12:30.000Z</time>
      </trkpt>
      <trkpt lat="43.01129" lon="1.45969">
        <ele>438.79998779297</ele>
        <time>2025-08-07T10:12:33.000Z</time>
      </trkpt>
      <trkpt lat="43.01129" lon="1.45961">
        <ele>438.60000610352</ele>
        <time>2025-08-07T10:12:34.000Z</time>
      </trkpt>
      <trkpt lat="43.01127" lon="1.4593">
        <ele>438.20001220703</ele>
        <time>2025-08-07T10:12:38.000Z</time>
      </trkpt>
      <trkpt lat="43.01127" lon="1.45906">
        <ele>438</ele>
        <time>2025-08-07T10:12:41.000Z</time>
      </trkpt>
      <trkpt lat="43.01125" lon="1.45861">
        <ele>437.79998779297</ele>
        <time>2025-08-07T10:12:47.000Z</time>
      </trkpt>
      <trkpt lat="43.01125" lon="1.45854">
        <ele>437.79998779297</ele>
        <time>2025-08-07T10:12:48.000Z</time>
      </trkpt>
      <trkpt lat="43.01126" lon="1.45834">
        <ele>437.39999389648</ele>
        <time>2025-08-07T10:12:51.000Z</time>
      </trkpt>
      <trkpt lat="43.01127" lon="1.45813">
        <ele>437.20001220703</ele>
        <time>2025-08-07T10:12:54.000Z</time>
      </trkpt>
      <trkpt lat="43.01128" lon="1.45792">
        <ele>437</ele>
        <time>2025-08-07T10:12:57.000Z</time>
      </trkpt>
      <trkpt lat="43.0113" lon="1.45778">
        <ele>437</ele>
        <time>2025-08-07T10:12:59.000Z</time>
      </trkpt>
      <trkpt lat="43.01131" lon="1.45771">
        <ele>437</ele>
        <time>2025-08-07T10:13:00.000Z</time>
      </trkpt>
      <trkpt lat="43.01132" lon="1.45763">
        <ele>437</ele>
        <time>2025-08-07T10:13:01.000Z</time>
      </trkpt>
      <trkpt lat="43.01133" lon="1.45749">
        <ele>436.79998779297</ele>
        <time>2025-08-07T10:13:03.000Z</time>
      </trkpt>
      <trkpt lat="43.01133" lon="1.45744">
        <ele>436.79998779297</ele>
        <time>2025-08-07T10:13:04.000Z</time>
      </trkpt>
      <trkpt lat="43.01135" lon="1.45731">
        <ele>436.79998779297</ele>
        <time>2025-08-07T10:13:08.000Z</time>
      </trkpt>
      <trkpt lat="43.01174" lon="1.45647">
        <ele>436.60000610352</ele>
        <time>2025-08-07T10:13:20.000Z</time>
      </trkpt>
      <trkpt lat="43.0118" lon="1.45638">
        <ele>436.60000610352</ele>
        <time>2025-08-07T10:13:22.000Z</time>
      </trkpt>
      <trkpt lat="43.01186" lon="1.45619">
        <ele>436.39999389648</ele>
        <time>2025-08-07T10:13:25.000Z</time>
      </trkpt>
      <trkpt lat="43.01193" lon="1.45609">
        <ele>436.20001220703</ele>
        <time>2025-08-07T10:13:27.000Z</time>
      </trkpt>
      <trkpt lat="43.012" lon="1.45599">
        <ele>436.20001220703</ele>
        <time>2025-08-07T10:13:29.000Z</time>
      </trkpt>
      <trkpt lat="43.01207" lon="1.45587">
        <ele>435.79998779297</ele>
        <time>2025-08-07T10:13:31.000Z</time>
      </trkpt>
      <trkpt lat="43.01213" lon="1.45575">
        <ele>435.60000610352</ele>
        <time>2025-08-07T10:13:33.000Z</time>
      </trkpt>
      <trkpt lat="43.01241" lon="1.45535">
        <ele>435</ele>
        <time>2025-08-07T10:13:40.000Z</time>
      </trkpt>
      <trkpt lat="43.0125" lon="1.45523">
        <ele>434.79998779297</ele>
        <time>2025-08-07T10:13:42.000Z</time>
      </trkpt>
      <trkpt lat="43.01253" lon="1.45517">
        <ele>434.79998779297</ele>
        <time>2025-08-07T10:13:43.000Z</time>
      </trkpt>
      <trkpt lat="43.0126" lon="1.45507">
        <ele>434.39999389648</ele>
        <time>2025-08-07T10:13:45.000Z</time>
      </trkpt>
      <trkpt lat="43.01264" lon="1.45503">
        <ele>434.39999389648</ele>
        <time>2025-08-07T10:13:46.000Z</time>
      </trkpt>
      <trkpt lat="43.01276" lon="1.45488">
        <ele>434.20001220703</ele>
        <time>2025-08-07T10:13:49.000Z</time>
      </trkpt>
      <trkpt lat="43.01279" lon="1.45483">
        <ele>434</ele>
        <time>2025-08-07T10:13:50.000Z</time>
      </trkpt>
      <trkpt lat="43.01292" lon="1.45467">
        <ele>434</ele>
        <time>2025-08-07T10:13:53.000Z</time>
      </trkpt>
      <trkpt lat="43.01298" lon="1.45458">
        <ele>434</ele>
        <time>2025-08-07T10:13:55.000Z</time>
      </trkpt>
      <trkpt lat="43.01303" lon="1.45452">
        <ele>433.79998779297</ele>
        <time>2025-08-07T10:13:56.000Z</time>
      </trkpt>
      <trkpt lat="43.01311" lon="1.4544">
        <ele>433.60000610352</ele>
        <time>2025-08-07T10:13:58.000Z</time>
      </trkpt>
      <trkpt lat="43.01317" lon="1.45424">
        <ele>433.60000610352</ele>
        <time>2025-08-07T10:14:00.000Z</time>
      </trkpt>
      <trkpt lat="43.0133" lon="1.45394">
        <ele>433.39999389648</ele>
        <time>2025-08-07T10:14:05.000Z</time>
      </trkpt>
      <trkpt lat="43.01331" lon="1.45388">
        <ele>433.39999389648</ele>
        <time>2025-08-07T10:14:06.000Z</time>
      </trkpt>
      <trkpt lat="43.01332" lon="1.45382">
        <ele>433.39999389648</ele>
        <time>2025-08-07T10:14:07.000Z</time>
      </trkpt>
      <trkpt lat="43.01336" lon="1.45371">
        <ele>433.20001220703</ele>
        <time>2025-08-07T10:14:09.000Z</time>
      </trkpt>
      <trkpt lat="43.01337" lon="1.45366">
        <ele>433.20001220703</ele>
        <time>2025-08-07T10:14:10.000Z</time>
      </trkpt>
      <trkpt lat="43.01338" lon="1.4536">
        <ele>433.20001220703</ele>
        <time>2025-08-07T10:14:11.000Z</time>
      </trkpt>
      <trkpt lat="43.01342" lon="1.45349">
        <ele>433</ele>
        <time>2025-08-07T10:14:13.000Z</time>
      </trkpt>
      <trkpt lat="43.01344" lon="1.45343">
        <ele>433</ele>
        <time>2025-08-07T10:14:14.000Z</time>
      </trkpt>
      <trkpt lat="43.01347" lon="1.45329">
        <ele>432.79998779297</ele>
        <time>2025-08-07T10:14:16.000Z</time>
      </trkpt>
      <trkpt lat="43.01348" lon="1.45323">
        <ele>432.79998779297</ele>
        <time>2025-08-07T10:14:17.000Z</time>
      </trkpt>
      <trkpt lat="43.01352" lon="1.45313">
        <ele>432.79998779297</ele>
        <time>2025-08-07T10:14:19.000Z</time>
      </trkpt>
      <trkpt lat="43.01354" lon="1.453">
        <ele>432.60000610352</ele>
        <time>2025-08-07T10:14:21.000Z</time>
      </trkpt>
      <trkpt lat="43.01355" lon="1.45284">
        <ele>432.39999389648</ele>
        <time>2025-08-07T10:14:23.000Z</time>
      </trkpt>
      <trkpt lat="43.0136" lon="1.45233">
        <ele>431.79998779297</ele>
        <time>2025-08-07T10:14:30.000Z</time>
      </trkpt>
      <trkpt lat="43.01361" lon="1.45218">
        <ele>431.60000610352</ele>
        <time>2025-08-07T10:14:32.000Z</time>
      </trkpt>
      <trkpt lat="43.0136" lon="1.4517">
        <ele>431</ele>
        <time>2025-08-07T10:14:38.000Z</time>
      </trkpt>
      <trkpt lat="43.01356" lon="1.4513">
        <ele>430.39999389648</ele>
        <time>2025-08-07T10:14:43.000Z</time>
      </trkpt>
      <trkpt lat="43.01355" lon="1.45106">
        <ele>430.20001220703</ele>
        <time>2025-08-07T10:14:46.000Z</time>
      </trkpt>
      <trkpt lat="43.01348" lon="1.45041">
        <ele>429.39999389648</ele>
        <time>2025-08-07T10:14:55.000Z</time>
      </trkpt>
      <trkpt lat="43.01347" lon="1.45034">
        <ele>429.39999389648</ele>
        <time>2025-08-07T10:14:56.000Z</time>
      </trkpt>
      <trkpt lat="43.01342" lon="1.44976">
        <ele>428.79998779297</ele>
        <time>2025-08-07T10:15:04.000Z</time>
      </trkpt>
      <trkpt lat="43.01338" lon="1.44942">
        <ele>428.39999389648</ele>
        <time>2025-08-07T10:15:09.000Z</time>
      </trkpt>
      <trkpt lat="43.01337" lon="1.44935">
        <ele>428.20001220703</ele>
        <time>2025-08-07T10:15:10.000Z</time>
      </trkpt>
      <trkpt lat="43.01331" lon="1.44891">
        <ele>428</ele>
        <time>2025-08-07T10:15:16.000Z</time>
      </trkpt>
      <trkpt lat="43.01329" lon="1.44852">
        <ele>427.20001220703</ele>
        <time>2025-08-07T10:15:21.000Z</time>
      </trkpt>
      <trkpt lat="43.01328" lon="1.44836">
        <ele>427.20001220703</ele>
        <time>2025-08-07T10:15:23.000Z</time>
      </trkpt>
      <trkpt lat="43.01327" lon="1.44819">
        <ele>427</ele>
        <time>2025-08-07T10:15:25.000Z</time>
      </trkpt>
      <trkpt lat="43.01323" lon="1.44782">
        <ele>426.60000610352</ele>
        <time>2025-08-07T10:15:30.000Z</time>
      </trkpt>
      <trkpt lat="43.0132" lon="1.44742">
        <ele>426.39999389648</ele>
        <time>2025-08-07T10:15:35.000Z</time>
      </trkpt>
      <trkpt lat="43.0132" lon="1.4473">
        <ele>426.20001220703</ele>
        <time>2025-08-07T10:15:37.000Z</time>
      </trkpt>
      <trkpt lat="43.01319" lon="1.44722">
        <ele>426</ele>
        <time>2025-08-07T10:15:38.000Z</time>
      </trkpt>
      <trkpt lat="43.01317" lon="1.44709">
        <ele>426</ele>
        <time>2025-08-07T10:15:40.000Z</time>
      </trkpt>
      <trkpt lat="43.01316" lon="1.44697">
        <ele>425.79998779297</ele>
        <time>2025-08-07T10:15:42.000Z</time>
      </trkpt>
      <trkpt lat="43.0131" lon="1.44648">
        <ele>425.20001220703</ele>
        <time>2025-08-07T10:15:49.000Z</time>
      </trkpt>
      <trkpt lat="43.01309" lon="1.44633">
        <ele>424.79998779297</ele>
        <time>2025-08-07T10:15:51.000Z</time>
      </trkpt>
      <trkpt lat="43.01308" lon="1.44611">
        <ele>424.60000610352</ele>
        <time>2025-08-07T10:15:54.000Z</time>
      </trkpt>
      <trkpt lat="43.01305" lon="1.44561">
        <ele>424.39999389648</ele>
        <time>2025-08-07T10:16:01.000Z</time>
      </trkpt>
      <trkpt lat="43.01304" lon="1.44545">
        <ele>424.39999389648</ele>
        <time>2025-08-07T10:16:03.000Z</time>
      </trkpt>
      <trkpt lat="43.01299" lon="1.44502">
        <ele>423.79998779297</ele>
        <time>2025-08-07T10:16:09.000Z</time>
      </trkpt>
      <trkpt lat="43.01296" lon="1.44484">
        <ele>423.60000610352</ele>
        <time>2025-08-07T10:16:12.000Z</time>
      </trkpt>
      <trkpt lat="43.01295" lon="1.4447">
        <ele>423.60000610352</ele>
        <time>2025-08-07T10:16:14.000Z</time>
      </trkpt>
      <trkpt lat="43.01294" lon="1.44463">
        <ele>423.60000610352</ele>
        <time>2025-08-07T10:16:15.000Z</time>
      </trkpt>
      <trkpt lat="43.01292" lon="1.44448">
        <ele>423.20001220703</ele>
        <time>2025-08-07T10:16:17.000Z</time>
      </trkpt>
      <trkpt lat="43.01292" lon="1.44438">
        <ele>423</ele>
        <time>2025-08-07T10:16:18.000Z</time>
      </trkpt>
      <trkpt lat="43.01291" lon="1.44431">
        <ele>423</ele>
        <time>2025-08-07T10:16:19.000Z</time>
      </trkpt>
      <trkpt lat="43.01288" lon="1.44377">
        <ele>422.60000610352</ele>
        <time>2025-08-07T10:16:26.000Z</time>
      </trkpt>
      <trkpt lat="43.01288" lon="1.44354">
        <ele>422.20001220703</ele>
        <time>2025-08-07T10:16:29.000Z</time>
      </trkpt>
      <trkpt lat="43.01286" lon="1.44329">
        <ele>422</ele>
        <time>2025-08-07T10:16:32.000Z</time>
      </trkpt>
      <trkpt lat="43.01288" lon="1.44286">
        <ele>421.20001220703</ele>
        <time>2025-08-07T10:16:38.000Z</time>
      </trkpt>
      <trkpt lat="43.0129" lon="1.44266">
        <ele>421</ele>
        <time>2025-08-07T10:16:43.000Z</time>
      </trkpt>
      <trkpt lat="43.0129" lon="1.44262">
        <ele>420.79998779297</ele>
        <time>2025-08-07T10:16:48.000Z</time>
      </trkpt>
      <trkpt lat="43.0129" lon="1.44255">
        <ele>419</ele>
        <time>2025-08-07T10:17:57.000Z</time>
      </trkpt>
      <trkpt lat="43.0129" lon="1.44248">
        <ele>419</ele>
        <time>2025-08-07T10:18:00.000Z</time>
      </trkpt>
      <trkpt lat="43.01294" lon="1.44226">
        <ele>419.20001220703</ele>
        <time>2025-08-07T10:18:06.000Z</time>
      </trkpt>
      <trkpt lat="43.01297" lon="1.44192">
        <ele>418.79998779297</ele>
        <time>2025-08-07T10:18:13.000Z</time>
      </trkpt>
      <trkpt lat="43.01305" lon="1.44144">
        <ele>418.79998779297</ele>
        <time>2025-08-07T10:18:22.000Z</time>
      </trkpt>
      <trkpt lat="43.01309" lon="1.44118">
        <ele>418.60000610352</ele>
        <time>2025-08-07T10:18:27.000Z</time>
      </trkpt>
      <trkpt lat="43.01311" lon="1.44106">
        <ele>418.60000610352</ele>
        <time>2025-08-07T10:18:29.000Z</time>
      </trkpt>
      <trkpt lat="43.01318" lon="1.44065">
        <ele>418.20001220703</ele>
        <time>2025-08-07T10:18:36.000Z</time>
      </trkpt>
      <trkpt lat="43.01318" lon="1.44059">
        <ele>418.20001220703</ele>
        <time>2025-08-07T10:18:37.000Z</time>
      </trkpt>
      <trkpt lat="43.01323" lon="1.44029">
        <ele>418</ele>
        <time>2025-08-07T10:18:42.000Z</time>
      </trkpt>
      <trkpt lat="43.01326" lon="1.44011">
        <ele>417.60000610352</ele>
        <time>2025-08-07T10:18:45.000Z</time>
      </trkpt>
      <trkpt lat="43.01331" lon="1.43961">
        <ele>417.20001220703</ele>
        <time>2025-08-07T10:18:54.000Z</time>
      </trkpt>
      <trkpt lat="43.01334" lon="1.43931">
        <ele>417.20001220703</ele>
        <time>2025-08-07T10:19:00.000Z</time>
      </trkpt>
      <trkpt lat="43.01331" lon="1.43906">
        <ele>417</ele>
        <time>2025-08-07T10:19:06.000Z</time>
      </trkpt>
      <trkpt lat="43.01332" lon="1.43888">
        <ele>417</ele>
        <time>2025-08-07T10:19:09.000Z</time>
      </trkpt>
      <trkpt lat="43.01333" lon="1.43882">
        <ele>417</ele>
        <time>2025-08-07T10:19:10.000Z</time>
      </trkpt>
      <trkpt lat="43.01339" lon="1.43843">
        <ele>416.39999389648</ele>
        <time>2025-08-07T10:19:16.000Z</time>
      </trkpt>
      <trkpt lat="43.01344" lon="1.43789">
        <ele>416.20001220703</ele>
        <time>2025-08-07T10:19:24.000Z</time>
      </trkpt>
      <trkpt lat="43.01345" lon="1.43755">
        <ele>416</ele>
        <time>2025-08-07T10:19:29.000Z</time>
      </trkpt>
      <trkpt lat="43.01345" lon="1.43748">
        <ele>416</ele>
        <time>2025-08-07T10:19:30.000Z</time>
      </trkpt>
      <trkpt lat="43.01349" lon="1.43693">
        <ele>415</ele>
        <time>2025-08-07T10:19:38.000Z</time>
      </trkpt>
      <trkpt lat="43.0135" lon="1.43686">
        <ele>415</ele>
        <time>2025-08-07T10:19:39.000Z</time>
      </trkpt>
      <trkpt lat="43.01351" lon="1.4366">
        <ele>415</ele>
        <time>2025-08-07T10:19:43.000Z</time>
      </trkpt>
      <trkpt lat="43.0135" lon="1.43638">
        <ele>415</ele>
        <time>2025-08-07T10:19:46.000Z</time>
      </trkpt>
      <trkpt lat="43.01349" lon="1.43625">
        <ele>415</ele>
        <time>2025-08-07T10:19:48.000Z</time>
      </trkpt>
      <trkpt lat="43.01351" lon="1.43606">
        <ele>415</ele>
        <time>2025-08-07T10:19:51.000Z</time>
      </trkpt>
      <trkpt lat="43.01351" lon="1.436">
        <ele>415</ele>
        <time>2025-08-07T10:19:52.000Z</time>
      </trkpt>
      <trkpt lat="43.01352" lon="1.43587">
        <ele>414.79998779297</ele>
        <time>2025-08-07T10:19:54.000Z</time>
      </trkpt>
      <trkpt lat="43.01351" lon="1.43577">
        <ele>414.39999389648</ele>
        <time>2025-08-07T10:19:56.000Z</time>
      </trkpt>
      <trkpt lat="43.01351" lon="1.43571">
        <ele>414.20001220703</ele>
        <time>2025-08-07T10:19:57.000Z</time>
      </trkpt>
      <trkpt lat="43.01351" lon="1.4356">
        <ele>414</ele>
        <time>2025-08-07T10:19:59.000Z</time>
      </trkpt>
      <trkpt lat="43.01352" lon="1.43555">
        <ele>414</ele>
        <time>2025-08-07T10:20:00.000Z</time>
      </trkpt>
      <trkpt lat="43.01353" lon="1.4355">
        <ele>414</ele>
        <time>2025-08-07T10:20:01.000Z</time>
      </trkpt>
      <trkpt lat="43.01354" lon="1.43545">
        <ele>414</ele>
        <time>2025-08-07T10:20:02.000Z</time>
      </trkpt>
      <trkpt lat="43.01356" lon="1.43515">
        <ele>414.20001220703</ele>
        <time>2025-08-07T10:20:07.000Z</time>
      </trkpt>
      <trkpt lat="43.01359" lon="1.43468">
        <ele>413.60000610352</ele>
        <time>2025-08-07T10:20:14.000Z</time>
      </trkpt>
      <trkpt lat="43.0136" lon="1.43461">
        <ele>413.39999389648</ele>
        <time>2025-08-07T10:20:15.000Z</time>
      </trkpt>
      <trkpt lat="43.01361" lon="1.43444">
        <ele>413.20001220703</ele>
        <time>2025-08-07T10:20:18.000Z</time>
      </trkpt>
      <trkpt lat="43.01363" lon="1.4342">
        <ele>412.79998779297</ele>
        <time>2025-08-07T10:20:22.000Z</time>
      </trkpt>
      <trkpt lat="43.01364" lon="1.43415">
        <ele>412.79998779297</ele>
        <time>2025-08-07T10:20:23.000Z</time>
      </trkpt>
      <trkpt lat="43.01366" lon="1.43382">
        <ele>412.79998779297</ele>
        <time>2025-08-07T10:20:29.000Z</time>
      </trkpt>
      <trkpt lat="43.01371" lon="1.4334">
        <ele>412.20001220703</ele>
        <time>2025-08-07T10:20:36.000Z</time>
      </trkpt>
      <trkpt lat="43.01375" lon="1.43322">
        <ele>412.20001220703</ele>
        <time>2025-08-07T10:20:39.000Z</time>
      </trkpt>
      <trkpt lat="43.01377" lon="1.43311">
        <ele>412.20001220703</ele>
        <time>2025-08-07T10:20:41.000Z</time>
      </trkpt>
      <trkpt lat="43.0138" lon="1.43301">
        <ele>412.20001220703</ele>
        <time>2025-08-07T10:20:43.000Z</time>
      </trkpt>
      <trkpt lat="43.01385" lon="1.43291">
        <ele>412.20001220703</ele>
        <time>2025-08-07T10:20:45.000Z</time>
      </trkpt>
      <trkpt lat="43.01388" lon="1.43281">
        <ele>412.20001220703</ele>
        <time>2025-08-07T10:20:47.000Z</time>
      </trkpt>
      <trkpt lat="43.014" lon="1.43255">
        <ele>412.20001220703</ele>
        <time>2025-08-07T10:20:52.000Z</time>
      </trkpt>
      <trkpt lat="43.01415" lon="1.4321">
        <ele>412.39999389648</ele>
        <time>2025-08-07T10:21:00.000Z</time>
      </trkpt>
      <trkpt lat="43.01426" lon="1.43175">
        <ele>412.20001220703</ele>
        <time>2025-08-07T10:21:07.000Z</time>
      </trkpt>
      <trkpt lat="43.01442" lon="1.43144">
        <ele>412.39999389648</ele>
        <time>2025-08-07T10:21:14.000Z</time>
      </trkpt>
      <trkpt lat="43.01464" lon="1.43105">
        <ele>413</ele>
        <time>2025-08-07T10:21:23.000Z</time>
      </trkpt>
      <trkpt lat="43.01481" lon="1.43072">
        <ele>413</ele>
        <time>2025-08-07T10:21:30.000Z</time>
      </trkpt>
      <trkpt lat="43.01486" lon="1.43063">
        <ele>412.79998779297</ele>
        <time>2025-08-07T10:21:32.000Z</time>
      </trkpt>
      <trkpt lat="43.01491" lon="1.43054">
        <ele>412.79998779297</ele>
        <time>2025-08-07T10:21:34.000Z</time>
      </trkpt>
      <trkpt lat="43.01494" lon="1.43049">
        <ele>412.79998779297</ele>
        <time>2025-08-07T10:21:35.000Z</time>
      </trkpt>
      <trkpt lat="43.01509" lon="1.43019">
        <ele>413</ele>
        <time>2025-08-07T10:21:41.000Z</time>
      </trkpt>
      <trkpt lat="43.01513" lon="1.4301">
        <ele>413</ele>
        <time>2025-08-07T10:21:43.000Z</time>
      </trkpt>
      <trkpt lat="43.01532" lon="1.42964">
        <ele>412.60000610352</ele>
        <time>2025-08-07T10:21:51.000Z</time>
      </trkpt>
      <trkpt lat="43.01551" lon="1.4292">
        <ele>411.79998779297</ele>
        <time>2025-08-07T10:21:59.000Z</time>
      </trkpt>
      <trkpt lat="43.01584" lon="1.42858">
        <ele>411.39999389648</ele>
        <time>2025-08-07T10:22:11.000Z</time>
      </trkpt>
      <trkpt lat="43.01587" lon="1.42853">
        <ele>411.39999389648</ele>
        <time>2025-08-07T10:22:12.000Z</time>
      </trkpt>
      <trkpt lat="43.01605" lon="1.42822">
        <ele>411.20001220703</ele>
        <time>2025-08-07T10:22:18.000Z</time>
      </trkpt>
      <trkpt lat="43.01616" lon="1.42799">
        <ele>411.20001220703</ele>
        <time>2025-08-07T10:22:22.000Z</time>
      </trkpt>
      <trkpt lat="43.01641" lon="1.42745">
        <ele>410.79998779297</ele>
        <time>2025-08-07T10:22:31.000Z</time>
      </trkpt>
      <trkpt lat="43.0165" lon="1.42722">
        <ele>410.60000610352</ele>
        <time>2025-08-07T10:22:35.000Z</time>
      </trkpt>
      <trkpt lat="43.01655" lon="1.42704">
        <ele>410.60000610352</ele>
        <time>2025-08-07T10:22:38.000Z</time>
      </trkpt>
      <trkpt lat="43.01663" lon="1.42665">
        <ele>410.39999389648</ele>
        <time>2025-08-07T10:22:44.000Z</time>
      </trkpt>
      <trkpt lat="43.01667" lon="1.42647">
        <ele>410.20001220703</ele>
        <time>2025-08-07T10:22:47.000Z</time>
      </trkpt>
      <trkpt lat="43.01669" lon="1.42634">
        <ele>410</ele>
        <time>2025-08-07T10:22:49.000Z</time>
      </trkpt>
      <trkpt lat="43.01672" lon="1.42615">
        <ele>410</ele>
        <time>2025-08-07T10:22:52.000Z</time>
      </trkpt>
      <trkpt lat="43.01672" lon="1.42609">
        <ele>410</ele>
        <time>2025-08-07T10:22:53.000Z</time>
      </trkpt>
      <trkpt lat="43.01674" lon="1.42597">
        <ele>409.79998779297</ele>
        <time>2025-08-07T10:22:55.000Z</time>
      </trkpt>
      <trkpt lat="43.01675" lon="1.42584">
        <ele>409.79998779297</ele>
        <time>2025-08-07T10:22:58.000Z</time>
      </trkpt>
      <trkpt lat="43.01675" lon="1.42583">
        <ele>409.79998779297</ele>
        <time>2025-08-07T10:22:59.000Z</time>
      </trkpt>
      <trkpt lat="43.01677" lon="1.42578">
        <ele>409.60000610352</ele>
        <time>2025-08-07T10:23:02.000Z</time>
      </trkpt>
      <trkpt lat="43.01678" lon="1.42559">
        <ele>409.60000610352</ele>
        <time>2025-08-07T10:23:07.000Z</time>
      </trkpt>
      <trkpt lat="43.01678" lon="1.42555">
        <ele>409.60000610352</ele>
        <time>2025-08-07T10:23:08.000Z</time>
      </trkpt>
      <trkpt lat="43.01682" lon="1.42541">
        <ele>409.20001220703</ele>
        <time>2025-08-07T10:23:11.000Z</time>
      </trkpt>
      <trkpt lat="43.01685" lon="1.42521">
        <ele>409</ele>
        <time>2025-08-07T10:23:15.000Z</time>
      </trkpt>
      <trkpt lat="43.0169" lon="1.42496">
        <ele>408.79998779297</ele>
        <time>2025-08-07T10:23:20.000Z</time>
      </trkpt>
      <trkpt lat="43.01699" lon="1.42452">
        <ele>408.60000610352</ele>
        <time>2025-08-07T10:23:28.000Z</time>
      </trkpt>
      <trkpt lat="43.01712" lon="1.42424">
        <ele>408.39999389648</ele>
        <time>2025-08-07T10:23:34.000Z</time>
      </trkpt>
      <trkpt lat="43.01722" lon="1.42405">
        <ele>408.20001220703</ele>
        <time>2025-08-07T10:23:38.000Z</time>
      </trkpt>
      <trkpt lat="43.01744" lon="1.42369">
        <ele>408</ele>
        <time>2025-08-07T10:23:46.000Z</time>
      </trkpt>
      <trkpt lat="43.0175" lon="1.4236">
        <ele>408</ele>
        <time>2025-08-07T10:23:48.000Z</time>
      </trkpt>
      <trkpt lat="43.01764" lon="1.4234">
        <ele>407.79998779297</ele>
        <time>2025-08-07T10:23:53.000Z</time>
      </trkpt>
      <trkpt lat="43.01771" lon="1.42333">
        <ele>407.60000610352</ele>
        <time>2025-08-07T10:23:55.000Z</time>
      </trkpt>
      <trkpt lat="43.01784" lon="1.42318">
        <ele>407.60000610352</ele>
        <time>2025-08-07T10:23:59.000Z</time>
      </trkpt>
      <trkpt lat="43.01791" lon="1.4231">
        <ele>407.39999389648</ele>
        <time>2025-08-07T10:24:01.000Z</time>
      </trkpt>
      <trkpt lat="43.01798" lon="1.42302">
        <ele>407.20001220703</ele>
        <time>2025-08-07T10:24:03.000Z</time>
      </trkpt>
      <trkpt lat="43.01805" lon="1.42295">
        <ele>407</ele>
        <time>2025-08-07T10:24:05.000Z</time>
      </trkpt>
      <trkpt lat="43.01832" lon="1.42268">
        <ele>406.39999389648</ele>
        <time>2025-08-07T10:24:12.000Z</time>
      </trkpt>
      <trkpt lat="43.01852" lon="1.42249">
        <ele>406.20001220703</ele>
        <time>2025-08-07T10:24:17.000Z</time>
      </trkpt>
      <trkpt lat="43.01868" lon="1.42233">
        <ele>406</ele>
        <time>2025-08-07T10:24:21.000Z</time>
      </trkpt>
      <trkpt lat="43.01897" lon="1.42198">
        <ele>405.60000610352</ele>
        <time>2025-08-07T10:24:29.000Z</time>
      </trkpt>
      <trkpt lat="43.0191" lon="1.42182">
        <ele>405.20001220703</ele>
        <time>2025-08-07T10:24:33.000Z</time>
      </trkpt>
      <trkpt lat="43.01922" lon="1.42166">
        <ele>405</ele>
        <time>2025-08-07T10:24:37.000Z</time>
      </trkpt>
      <trkpt lat="43.01934" lon="1.42153">
        <ele>404.79998779297</ele>
        <time>2025-08-07T10:24:41.000Z</time>
      </trkpt>
      <trkpt lat="43.01939" lon="1.42143">
        <ele>404.60000610352</ele>
        <time>2025-08-07T10:24:43.000Z</time>
      </trkpt>
      <trkpt lat="43.01945" lon="1.42132">
        <ele>404.39999389648</ele>
        <time>2025-08-07T10:24:45.000Z</time>
      </trkpt>
      <trkpt lat="43.01953" lon="1.42116">
        <ele>404.20001220703</ele>
        <time>2025-08-07T10:24:48.000Z</time>
      </trkpt>
      <trkpt lat="43.01955" lon="1.42111">
        <ele>404</ele>
        <time>2025-08-07T10:24:49.000Z</time>
      </trkpt>
      <trkpt lat="43.01957" lon="1.42105">
        <ele>403.79998779297</ele>
        <time>2025-08-07T10:24:50.000Z</time>
      </trkpt>
      <trkpt lat="43.01973" lon="1.42061">
        <ele>403.20001220703</ele>
        <time>2025-08-07T10:24:58.000Z</time>
      </trkpt>
      <trkpt lat="43.01981" lon="1.42038">
        <ele>403</ele>
        <time>2025-08-07T10:25:02.000Z</time>
      </trkpt>
      <trkpt lat="43.0199" lon="1.42009">
        <ele>402.79998779297</ele>
        <time>2025-08-07T10:25:07.000Z</time>
      </trkpt>
      <trkpt lat="43.01991" lon="1.42003">
        <ele>402.79998779297</ele>
        <time>2025-08-07T10:25:08.000Z</time>
      </trkpt>
      <trkpt lat="43.01994" lon="1.41992">
        <ele>402.60000610352</ele>
        <time>2025-08-07T10:25:10.000Z</time>
      </trkpt>
      <trkpt lat="43.01998" lon="1.41974">
        <ele>402.60000610352</ele>
        <time>2025-08-07T10:25:13.000Z</time>
      </trkpt>
      <trkpt lat="43.0201" lon="1.41931">
        <ele>402.39999389648</ele>
        <time>2025-08-07T10:25:20.000Z</time>
      </trkpt>
      <trkpt lat="43.02011" lon="1.41926">
        <ele>402.39999389648</ele>
        <time>2025-08-07T10:25:21.000Z</time>
      </trkpt>
      <trkpt lat="43.02013" lon="1.41909">
        <ele>402.20001220703</ele>
        <time>2025-08-07T10:25:24.000Z</time>
      </trkpt>
      <trkpt lat="43.02013" lon="1.41896">
        <ele>402</ele>
        <time>2025-08-07T10:25:26.000Z</time>
      </trkpt>
      <trkpt lat="43.02014" lon="1.4188">
        <ele>402</ele>
        <time>2025-08-07T10:25:28.000Z</time>
      </trkpt>
      <trkpt lat="43.02017" lon="1.4185">
        <ele>401.39999389648</ele>
        <time>2025-08-07T10:25:32.000Z</time>
      </trkpt>
      <trkpt lat="43.02021" lon="1.41798">
        <ele>401</ele>
        <time>2025-08-07T10:25:39.000Z</time>
      </trkpt>
      <trkpt lat="43.02022" lon="1.41787">
        <ele>400.79998779297</ele>
        <time>2025-08-07T10:25:41.000Z</time>
      </trkpt>
      <trkpt lat="43.02023" lon="1.41768">
        <ele>400.79998779297</ele>
        <time>2025-08-07T10:25:44.000Z</time>
      </trkpt>
      <trkpt lat="43.02023" lon="1.41761">
        <ele>400.60000610352</ele>
        <time>2025-08-07T10:25:45.000Z</time>
      </trkpt>
      <trkpt lat="43.02022" lon="1.41748">
        <ele>400.60000610352</ele>
        <time>2025-08-07T10:25:47.000Z</time>
      </trkpt>
      <trkpt lat="43.02021" lon="1.41729">
        <ele>400.39999389648</ele>
        <time>2025-08-07T10:25:49.000Z</time>
      </trkpt>
      <trkpt lat="43.02014" lon="1.41697">
        <ele>400.20001220703</ele>
        <time>2025-08-07T10:25:54.000Z</time>
      </trkpt>
      <trkpt lat="43.02012" lon="1.41689">
        <ele>400</ele>
        <time>2025-08-07T10:25:55.000Z</time>
      </trkpt>
      <trkpt lat="43.02006" lon="1.41674">
        <ele>399.79998779297</ele>
        <time>2025-08-07T10:25:58.000Z</time>
      </trkpt>
      <trkpt lat="43.02003" lon="1.41669">
        <ele>399.79998779297</ele>
        <time>2025-08-07T10:25:59.000Z</time>
      </trkpt>
      <trkpt lat="43.01983" lon="1.4162">
        <ele>399.39999389648</ele>
        <time>2025-08-07T10:26:07.000Z</time>
      </trkpt>
      <trkpt lat="43.0198" lon="1.41615">
        <ele>399.39999389648</ele>
        <time>2025-08-07T10:26:08.000Z</time>
      </trkpt>
      <trkpt lat="43.01971" lon="1.41599">
        <ele>399.20001220703</ele>
        <time>2025-08-07T10:26:11.000Z</time>
      </trkpt>
      <trkpt lat="43.01961" lon="1.41578">
        <ele>398.79998779297</ele>
        <time>2025-08-07T10:26:14.000Z</time>
      </trkpt>
      <trkpt lat="43.01958" lon="1.4157">
        <ele>398.79998779297</ele>
        <time>2025-08-07T10:26:15.000Z</time>
      </trkpt>
      <trkpt lat="43.01953" lon="1.41557">
        <ele>398.39999389648</ele>
        <time>2025-08-07T10:26:17.000Z</time>
      </trkpt>
      <trkpt lat="43.01933" lon="1.41512">
        <ele>398.20001220703</ele>
        <time>2025-08-07T10:26:24.000Z</time>
      </trkpt>
      <trkpt lat="43.01924" lon="1.41491">
        <ele>398</ele>
        <time>2025-08-07T10:26:28.000Z</time>
      </trkpt>
      <trkpt lat="43.01918" lon="1.41481">
        <ele>397.79998779297</ele>
        <time>2025-08-07T10:26:30.000Z</time>
      </trkpt>
      <trkpt lat="43.01913" lon="1.41472">
        <ele>397.79998779297</ele>
        <time>2025-08-07T10:26:32.000Z</time>
      </trkpt>
      <trkpt lat="43.01908" lon="1.41463">
        <ele>397.39999389648</ele>
        <time>2025-08-07T10:26:35.000Z</time>
      </trkpt>
      <trkpt lat="43.01896" lon="1.4144">
        <ele>397</ele>
        <time>2025-08-07T10:26:41.000Z</time>
      </trkpt>
      <trkpt lat="43.01891" lon="1.41429">
        <ele>397</ele>
        <time>2025-08-07T10:26:43.000Z</time>
      </trkpt>
      <trkpt lat="43.01886" lon="1.41409">
        <ele>396.79998779297</ele>
        <time>2025-08-07T10:26:46.000Z</time>
      </trkpt>
      <trkpt lat="43.01884" lon="1.41402">
        <ele>396.60000610352</ele>
        <time>2025-08-07T10:26:47.000Z</time>
      </trkpt>
      <trkpt lat="43.0188" lon="1.41383">
        <ele>396.39999389648</ele>
        <time>2025-08-07T10:26:50.000Z</time>
      </trkpt>
      <trkpt lat="43.01876" lon="1.41371">
        <ele>396.39999389648</ele>
        <time>2025-08-07T10:26:52.000Z</time>
      </trkpt>
      <trkpt lat="43.01875" lon="1.41366">
        <ele>396.39999389648</ele>
        <time>2025-08-07T10:26:53.000Z</time>
      </trkpt>
      <trkpt lat="43.0187" lon="1.41318">
        <ele>396</ele>
        <time>2025-08-07T10:27:00.000Z</time>
      </trkpt>
      <trkpt lat="43.01869" lon="1.41289">
        <ele>395.60000610352</ele>
        <time>2025-08-07T10:27:04.000Z</time>
      </trkpt>
      <trkpt lat="43.01869" lon="1.41284">
        <ele>395.60000610352</ele>
        <time>2025-08-07T10:27:05.000Z</time>
      </trkpt>
      <trkpt lat="43.0187" lon="1.41262">
        <ele>395.60000610352</ele>
        <time>2025-08-07T10:27:08.000Z</time>
      </trkpt>
      <trkpt lat="43.01871" lon="1.41247">
        <ele>395.39999389648</ele>
        <time>2025-08-07T10:27:10.000Z</time>
      </trkpt>
      <trkpt lat="43.01873" lon="1.41227">
        <ele>395.20001220703</ele>
        <time>2025-08-07T10:27:13.000Z</time>
      </trkpt>
      <trkpt lat="43.01876" lon="1.412">
        <ele>395</ele>
        <time>2025-08-07T10:27:17.000Z</time>
      </trkpt>
      <trkpt lat="43.01877" lon="1.41194">
        <ele>395</ele>
        <time>2025-08-07T10:27:18.000Z</time>
      </trkpt>
      <trkpt lat="43.01878" lon="1.41188">
        <ele>395</ele>
        <time>2025-08-07T10:27:19.000Z</time>
      </trkpt>
      <trkpt lat="43.01881" lon="1.41164">
        <ele>394.60000610352</ele>
        <time>2025-08-07T10:27:23.000Z</time>
      </trkpt>
      <trkpt lat="43.01882" lon="1.41157">
        <ele>394.60000610352</ele>
        <time>2025-08-07T10:27:24.000Z</time>
      </trkpt>
      <trkpt lat="43.0189" lon="1.41105">
        <ele>394.20001220703</ele>
        <time>2025-08-07T10:27:32.000Z</time>
      </trkpt>
      <trkpt lat="43.01896" lon="1.4107">
        <ele>393.60000610352</ele>
        <time>2025-08-07T10:27:37.000Z</time>
      </trkpt>
      <trkpt lat="43.019" lon="1.41041">
        <ele>393</ele>
        <time>2025-08-07T10:27:41.000Z</time>
      </trkpt>
      <trkpt lat="43.01902" lon="1.41006">
        <ele>392.39999389648</ele>
        <time>2025-08-07T10:27:46.000Z</time>
      </trkpt>
      <trkpt lat="43.01903" lon="1.40976">
        <ele>392.20001220703</ele>
        <time>2025-08-07T10:27:50.000Z</time>
      </trkpt>
      <trkpt lat="43.019" lon="1.40939">
        <ele>391.39999389648</ele>
        <time>2025-08-07T10:27:55.000Z</time>
      </trkpt>
      <trkpt lat="43.01897" lon="1.40918">
        <ele>391</ele>
        <time>2025-08-07T10:27:58.000Z</time>
      </trkpt>
      <trkpt lat="43.01887" lon="1.40868">
        <ele>390.79998779297</ele>
        <time>2025-08-07T10:28:05.000Z</time>
      </trkpt>
      <trkpt lat="43.01873" lon="1.40823">
        <ele>390.20001220703</ele>
        <time>2025-08-07T10:28:12.000Z</time>
      </trkpt>
      <trkpt lat="43.01871" lon="1.40817">
        <ele>390.20001220703</ele>
        <time>2025-08-07T10:28:13.000Z</time>
      </trkpt>
      <trkpt lat="43.01853" lon="1.40777">
        <ele>389.79998779297</ele>
        <time>2025-08-07T10:28:20.000Z</time>
      </trkpt>
      <trkpt lat="43.0185" lon="1.40772">
        <ele>390</ele>
        <time>2025-08-07T10:28:21.000Z</time>
      </trkpt>
      <trkpt lat="43.01832" lon="1.40742">
        <ele>389.79998779297</ele>
        <time>2025-08-07T10:28:27.000Z</time>
      </trkpt>
      <trkpt lat="43.01829" lon="1.40738">
        <ele>389.79998779297</ele>
        <time>2025-08-07T10:28:28.000Z</time>
      </trkpt>
      <trkpt lat="43.01817" lon="1.40718">
        <ele>389.79998779297</ele>
        <time>2025-08-07T10:28:32.000Z</time>
      </trkpt>
      <trkpt lat="43.01811" lon="1.40708">
        <ele>389.60000610352</ele>
        <time>2025-08-07T10:28:34.000Z</time>
      </trkpt>
      <trkpt lat="43.01808" lon="1.40704">
        <ele>389.60000610352</ele>
        <time>2025-08-07T10:28:35.000Z</time>
      </trkpt>
      <trkpt lat="43.01799" lon="1.4069">
        <ele>389.39999389648</ele>
        <time>2025-08-07T10:28:38.000Z</time>
      </trkpt>
      <trkpt lat="43.01791" lon="1.40676">
        <ele>389.39999389648</ele>
        <time>2025-08-07T10:28:41.000Z</time>
      </trkpt>
      <trkpt lat="43.01788" lon="1.40671">
        <ele>389.39999389648</ele>
        <time>2025-08-07T10:28:42.000Z</time>
      </trkpt>
      <trkpt lat="43.01776" lon="1.40654">
        <ele>389.39999389648</ele>
        <time>2025-08-07T10:28:47.000Z</time>
      </trkpt>
      <trkpt lat="43.01764" lon="1.40627">
        <ele>389.60000610352</ele>
        <time>2025-08-07T10:28:54.000Z</time>
      </trkpt>
      <trkpt lat="43.01746" lon="1.40588">
        <ele>389.39999389648</ele>
        <time>2025-08-07T10:29:03.000Z</time>
      </trkpt>
      <trkpt lat="43.01732" lon="1.40549">
        <ele>389.20001220703</ele>
        <time>2025-08-07T10:29:10.000Z</time>
      </trkpt>
      <trkpt lat="43.01727" lon="1.40527">
        <ele>389</ele>
        <time>2025-08-07T10:29:14.000Z</time>
      </trkpt>
      <trkpt lat="43.01722" lon="1.40511">
        <ele>389</ele>
        <time>2025-08-07T10:29:17.000Z</time>
      </trkpt>
      <trkpt lat="43.01719" lon="1.405">
        <ele>389</ele>
        <time>2025-08-07T10:29:19.000Z</time>
      </trkpt>
      <trkpt lat="43.01712" lon="1.4047">
        <ele>389</ele>
        <time>2025-08-07T10:29:24.000Z</time>
      </trkpt>
      <trkpt lat="43.01711" lon="1.40465">
        <ele>389</ele>
        <time>2025-08-07T10:29:25.000Z</time>
      </trkpt>
      <trkpt lat="43.01703" lon="1.40436">
        <ele>389</ele>
        <time>2025-08-07T10:29:30.000Z</time>
      </trkpt>
      <trkpt lat="43.01698" lon="1.40411">
        <ele>388.60000610352</ele>
        <time>2025-08-07T10:29:34.000Z</time>
      </trkpt>
      <trkpt lat="43.01693" lon="1.40388">
        <ele>387.79998779297</ele>
        <time>2025-08-07T10:29:38.000Z</time>
      </trkpt>
      <trkpt lat="43.01692" lon="1.40384">
        <ele>387.79998779297</ele>
        <time>2025-08-07T10:29:39.000Z</time>
      </trkpt>
      <trkpt lat="43.0169" lon="1.40381">
        <ele>387.39999389648</ele>
        <time>2025-08-07T10:29:41.000Z</time>
      </trkpt>
      <trkpt lat="43.01689" lon="1.40381">
        <ele>387.39999389648</ele>
        <time>2025-08-07T10:29:42.000Z</time>
      </trkpt>
      <trkpt lat="43.0168" lon="1.40374">
        <ele>386.79998779297</ele>
        <time>2025-08-07T10:29:48.000Z</time>
      </trkpt>
      <trkpt lat="43.01677" lon="1.40374">
        <ele>386.79998779297</ele>
        <time>2025-08-07T10:29:49.000Z</time>
      </trkpt>
      <trkpt lat="43.01672" lon="1.40371">
        <ele>386.79998779297</ele>
        <time>2025-08-07T10:29:51.000Z</time>
      </trkpt>
      <trkpt lat="43.0167" lon="1.40365">
        <ele>386.79998779297</ele>
        <time>2025-08-07T10:29:53.000Z</time>
      </trkpt>
      <trkpt lat="43.0167" lon="1.40361">
        <ele>386.79998779297</ele>
        <time>2025-08-07T10:29:54.000Z</time>
      </trkpt>
      <trkpt lat="43.01671" lon="1.40357">
        <ele>386.79998779297</ele>
        <time>2025-08-07T10:29:55.000Z</time>
      </trkpt>
      <trkpt lat="43.0168" lon="1.40336">
        <ele>386.79998779297</ele>
        <time>2025-08-07T10:30:01.000Z</time>
      </trkpt>
      <trkpt lat="43.01693" lon="1.40297">
        <ele>387.60000610352</ele>
        <time>2025-08-07T10:30:11.000Z</time>
      </trkpt>
      <trkpt lat="43.01701" lon="1.40265">
        <ele>388.20001220703</ele>
        <time>2025-08-07T10:30:18.000Z</time>
      </trkpt>
      <trkpt lat="43.01704" lon="1.40227">
        <ele>388.39999389648</ele>
        <time>2025-08-07T10:30:25.000Z</time>
      </trkpt>
      <trkpt lat="43.01704" lon="1.40221">
        <ele>388.39999389648</ele>
        <time>2025-08-07T10:30:26.000Z</time>
      </trkpt>
      <trkpt lat="43.01708" lon="1.40174">
        <ele>388.39999389648</ele>
        <time>2025-08-07T10:30:34.000Z</time>
      </trkpt>
      <trkpt lat="43.01712" lon="1.40126">
        <ele>388.39999389648</ele>
        <time>2025-08-07T10:30:42.000Z</time>
      </trkpt>
      <trkpt lat="43.01717" lon="1.40065">
        <ele>388.20001220703</ele>
        <time>2025-08-07T10:30:52.000Z</time>
      </trkpt>
      <trkpt lat="43.01718" lon="1.40053">
        <ele>388.20001220703</ele>
        <time>2025-08-07T10:30:54.000Z</time>
      </trkpt>
      <trkpt lat="43.01723" lon="1.39996">
        <ele>388</ele>
        <time>2025-08-07T10:31:03.000Z</time>
      </trkpt>
      <trkpt lat="43.01724" lon="1.3997">
        <ele>387.60000610352</ele>
        <time>2025-08-07T10:31:07.000Z</time>
      </trkpt>
      <trkpt lat="43.01727" lon="1.39933">
        <ele>387</ele>
        <time>2025-08-07T10:31:13.000Z</time>
      </trkpt>
      <trkpt lat="43.01731" lon="1.39889">
        <ele>386.60000610352</ele>
        <time>2025-08-07T10:31:20.000Z</time>
      </trkpt>
      <trkpt lat="43.01732" lon="1.39869">
        <ele>386.20001220703</ele>
        <time>2025-08-07T10:31:23.000Z</time>
      </trkpt>
      <trkpt lat="43.01738" lon="1.39811">
        <ele>385.79998779297</ele>
        <time>2025-08-07T10:31:32.000Z</time>
      </trkpt>
      <trkpt lat="43.01738" lon="1.39804">
        <ele>385.60000610352</ele>
        <time>2025-08-07T10:31:33.000Z</time>
      </trkpt>
      <trkpt lat="43.01741" lon="1.39766">
        <ele>385.20001220703</ele>
        <time>2025-08-07T10:31:39.000Z</time>
      </trkpt>
      <trkpt lat="43.01746" lon="1.39692">
        <ele>384.60000610352</ele>
        <time>2025-08-07T10:31:50.000Z</time>
      </trkpt>
      <trkpt lat="43.01747" lon="1.39679">
        <ele>384.60000610352</ele>
        <time>2025-08-07T10:31:52.000Z</time>
      </trkpt>
      <trkpt lat="43.01752" lon="1.39619">
        <ele>384</ele>
        <time>2025-08-07T10:32:01.000Z</time>
      </trkpt>
      <trkpt lat="43.01755" lon="1.39573">
        <ele>383.39999389648</ele>
        <time>2025-08-07T10:32:08.000Z</time>
      </trkpt>
      <trkpt lat="43.01757" lon="1.39555">
        <ele>383.39999389648</ele>
        <time>2025-08-07T10:32:11.000Z</time>
      </trkpt>
      <trkpt lat="43.0176" lon="1.3949">
        <ele>383</ele>
        <time>2025-08-07T10:32:21.000Z</time>
      </trkpt>
      <trkpt lat="43.01764" lon="1.39433">
        <ele>383</ele>
        <time>2025-08-07T10:32:29.000Z</time>
      </trkpt>
      <trkpt lat="43.01766" lon="1.39389">
        <ele>382.60000610352</ele>
        <time>2025-08-07T10:32:35.000Z</time>
      </trkpt>
      <trkpt lat="43.01767" lon="1.39382">
        <ele>382.39999389648</ele>
        <time>2025-08-07T10:32:36.000Z</time>
      </trkpt>
      <trkpt lat="43.01772" lon="1.39321">
        <ele>382.20001220703</ele>
        <time>2025-08-07T10:32:45.000Z</time>
      </trkpt>
      <trkpt lat="43.01776" lon="1.39295">
        <ele>381.79998779297</ele>
        <time>2025-08-07T10:32:49.000Z</time>
      </trkpt>
      <trkpt lat="43.01778" lon="1.39263">
        <ele>381.79998779297</ele>
        <time>2025-08-07T10:32:54.000Z</time>
      </trkpt>
      <trkpt lat="43.01781" lon="1.39217">
        <ele>381.60000610352</ele>
        <time>2025-08-07T10:33:01.000Z</time>
      </trkpt>
      <trkpt lat="43.01783" lon="1.39184">
        <ele>381.20001220703</ele>
        <time>2025-08-07T10:33:06.000Z</time>
      </trkpt>
      <trkpt lat="43.01785" lon="1.39132">
        <ele>381.20001220703</ele>
        <time>2025-08-07T10:33:14.000Z</time>
      </trkpt>
      <trkpt lat="43.01785" lon="1.39095">
        <ele>380.60000610352</ele>
        <time>2025-08-07T10:33:20.000Z</time>
      </trkpt>
      <trkpt lat="43.01784" lon="1.39072">
        <ele>380.39999389648</ele>
        <time>2025-08-07T10:33:24.000Z</time>
      </trkpt>
      <trkpt lat="43.01777" lon="1.39018">
        <ele>379.79998779297</ele>
        <time>2025-08-07T10:33:33.000Z</time>
      </trkpt>
      <trkpt lat="43.01771" lon="1.38988">
        <ele>379.60000610352</ele>
        <time>2025-08-07T10:33:38.000Z</time>
      </trkpt>
      <trkpt lat="43.01766" lon="1.3897">
        <ele>379.60000610352</ele>
        <time>2025-08-07T10:33:41.000Z</time>
      </trkpt>
      <trkpt lat="43.01751" lon="1.38914">
        <ele>379.20001220703</ele>
        <time>2025-08-07T10:33:51.000Z</time>
      </trkpt>
      <trkpt lat="43.01738" lon="1.38867">
        <ele>379</ele>
        <time>2025-08-07T10:34:00.000Z</time>
      </trkpt>
      <trkpt lat="43.01731" lon="1.38841">
        <ele>379.20001220703</ele>
        <time>2025-08-07T10:34:05.000Z</time>
      </trkpt>
      <trkpt lat="43.01727" lon="1.38825">
        <ele>379.20001220703</ele>
        <time>2025-08-07T10:34:08.000Z</time>
      </trkpt>
      <trkpt lat="43.01723" lon="1.38808">
        <ele>379.20001220703</ele>
        <time>2025-08-07T10:34:11.000Z</time>
      </trkpt>
      <trkpt lat="43.01718" lon="1.38793">
        <ele>379.39999389648</ele>
        <time>2025-08-07T10:34:14.000Z</time>
      </trkpt>
      <trkpt lat="43.01717" lon="1.38787">
        <ele>379.39999389648</ele>
        <time>2025-08-07T10:34:15.000Z</time>
      </trkpt>
      <trkpt lat="43.01708" lon="1.38745">
        <ele>379.60000610352</ele>
        <time>2025-08-07T10:34:23.000Z</time>
      </trkpt>
      <trkpt lat="43.01704" lon="1.38698">
        <ele>379.39999389648</ele>
        <time>2025-08-07T10:34:31.000Z</time>
      </trkpt>
      <trkpt lat="43.01703" lon="1.38651">
        <ele>379.20001220703</ele>
        <time>2025-08-07T10:34:39.000Z</time>
      </trkpt>
      <trkpt lat="43.01704" lon="1.38622">
        <ele>379.20001220703</ele>
        <time>2025-08-07T10:34:44.000Z</time>
      </trkpt>
      <trkpt lat="43.01705" lon="1.38605">
        <ele>379.20001220703</ele>
        <time>2025-08-07T10:34:47.000Z</time>
      </trkpt>
      <trkpt lat="43.01706" lon="1.38593">
        <ele>379.39999389648</ele>
        <time>2025-08-07T10:34:49.000Z</time>
      </trkpt>
      <trkpt lat="43.01708" lon="1.38571">
        <ele>379.20001220703</ele>
        <time>2025-08-07T10:34:53.000Z</time>
      </trkpt>
      <trkpt lat="43.01709" lon="1.3856">
        <ele>379.20001220703</ele>
        <time>2025-08-07T10:34:55.000Z</time>
      </trkpt>
      <trkpt lat="43.01712" lon="1.38532">
        <ele>379.20001220703</ele>
        <time>2025-08-07T10:35:00.000Z</time>
      </trkpt>
      <trkpt lat="43.01715" lon="1.38497">
        <ele>379</ele>
        <time>2025-08-07T10:35:06.000Z</time>
      </trkpt>
      <trkpt lat="43.01715" lon="1.38491">
        <ele>379</ele>
        <time>2025-08-07T10:35:07.000Z</time>
      </trkpt>
      <trkpt lat="43.01718" lon="1.38451">
        <ele>378.79998779297</ele>
        <time>2025-08-07T10:35:14.000Z</time>
      </trkpt>
      <trkpt lat="43.01718" lon="1.38445">
        <ele>378.60000610352</ele>
        <time>2025-08-07T10:35:15.000Z</time>
      </trkpt>
      <trkpt lat="43.01724" lon="1.38389">
        <ele>378.39999389648</ele>
        <time>2025-08-07T10:35:24.000Z</time>
      </trkpt>
      <trkpt lat="43.01731" lon="1.38312">
        <ele>378</ele>
        <time>2025-08-07T10:35:36.000Z</time>
      </trkpt>
      <trkpt lat="43.01733" lon="1.38299">
        <ele>377.79998779297</ele>
        <time>2025-08-07T10:35:38.000Z</time>
      </trkpt>
      <trkpt lat="43.01734" lon="1.38266">
        <ele>377.79998779297</ele>
        <time>2025-08-07T10:35:43.000Z</time>
      </trkpt>
      <trkpt lat="43.01735" lon="1.38253">
        <ele>377.60000610352</ele>
        <time>2025-08-07T10:35:45.000Z</time>
      </trkpt>
      <trkpt lat="43.01736" lon="1.38194">
        <ele>377.39999389648</ele>
        <time>2025-08-07T10:35:54.000Z</time>
      </trkpt>
      <trkpt lat="43.01735" lon="1.38163">
        <ele>377</ele>
        <time>2025-08-07T10:35:59.000Z</time>
      </trkpt>
      <trkpt lat="43.01734" lon="1.38157">
        <ele>376.79998779297</ele>
        <time>2025-08-07T10:36:00.000Z</time>
      </trkpt>
      <trkpt lat="43.01726" lon="1.38092">
        <ele>376.20001220703</ele>
        <time>2025-08-07T10:36:10.000Z</time>
      </trkpt>
      <trkpt lat="43.01722" lon="1.38066">
        <ele>375.79998779297</ele>
        <time>2025-08-07T10:36:14.000Z</time>
      </trkpt>
      <trkpt lat="43.01717" lon="1.38039">
        <ele>375.60000610352</ele>
        <time>2025-08-07T10:36:18.000Z</time>
      </trkpt>
      <trkpt lat="43.0171" lon="1.37987">
        <ele>375.39999389648</ele>
        <time>2025-08-07T10:36:26.000Z</time>
      </trkpt>
      <trkpt lat="43.01707" lon="1.37968">
        <ele>375.39999389648</ele>
        <time>2025-08-07T10:36:29.000Z</time>
      </trkpt>
      <trkpt lat="43.01705" lon="1.37951">
        <ele>375.60000610352</ele>
        <time>2025-08-07T10:36:32.000Z</time>
      </trkpt>
      <trkpt lat="43.01704" lon="1.37938">
        <ele>375.39999389648</ele>
        <time>2025-08-07T10:36:34.000Z</time>
      </trkpt>
      <trkpt lat="43.01702" lon="1.37927">
        <ele>375.60000610352</ele>
        <time>2025-08-07T10:36:36.000Z</time>
      </trkpt>
      <trkpt lat="43.01702" lon="1.37915">
        <ele>375.79998779297</ele>
        <time>2025-08-07T10:36:38.000Z</time>
      </trkpt>
      <trkpt lat="43.01699" lon="1.37862">
        <ele>376</ele>
        <time>2025-08-07T10:36:47.000Z</time>
      </trkpt>
      <trkpt lat="43.01696" lon="1.37853">
        <ele>375.79998779297</ele>
        <time>2025-08-07T10:36:49.000Z</time>
      </trkpt>
      <trkpt lat="43.01686" lon="1.37844">
        <ele>376</ele>
        <time>2025-08-07T10:36:53.000Z</time>
      </trkpt>
      <trkpt lat="43.01678" lon="1.37829">
        <ele>376.79998779297</ele>
        <time>2025-08-07T10:36:58.000Z</time>
      </trkpt>
      <trkpt lat="43.01676" lon="1.37821">
        <ele>376.79998779297</ele>
        <time>2025-08-07T10:37:00.000Z</time>
      </trkpt>
      <trkpt lat="43.01677" lon="1.37816">
        <ele>377</ele>
        <time>2025-08-07T10:37:01.000Z</time>
      </trkpt>
      <trkpt lat="43.0168" lon="1.37804">
        <ele>377.39999389648</ele>
        <time>2025-08-07T10:37:03.000Z</time>
      </trkpt>
      <trkpt lat="43.01686" lon="1.37792">
        <ele>377.60000610352</ele>
        <time>2025-08-07T10:37:05.000Z</time>
      </trkpt>
      <trkpt lat="43.01691" lon="1.37779">
        <ele>377.60000610352</ele>
        <time>2025-08-07T10:37:07.000Z</time>
      </trkpt>
      <trkpt lat="43.01693" lon="1.37773">
        <ele>377.60000610352</ele>
        <time>2025-08-07T10:37:08.000Z</time>
      </trkpt>
      <trkpt lat="43.01696" lon="1.3775">
        <ele>377.39999389648</ele>
        <time>2025-08-07T10:37:11.000Z</time>
      </trkpt>
      <trkpt lat="43.01697" lon="1.37743">
        <ele>377.20001220703</ele>
        <time>2025-08-07T10:37:12.000Z</time>
      </trkpt>
      <trkpt lat="43.017" lon="1.37709">
        <ele>376.39999389648</ele>
        <time>2025-08-07T10:37:17.000Z</time>
      </trkpt>
      <trkpt lat="43.01702" lon="1.37677">
        <ele>376.20001220703</ele>
        <time>2025-08-07T10:37:22.000Z</time>
      </trkpt>
      <trkpt lat="43.01704" lon="1.37665">
        <ele>376.20001220703</ele>
        <time>2025-08-07T10:37:24.000Z</time>
      </trkpt>
      <trkpt lat="43.01704" lon="1.37659">
        <ele>376.20001220703</ele>
        <time>2025-08-07T10:37:25.000Z</time>
      </trkpt>
      <trkpt lat="43.01705" lon="1.37653">
        <ele>376.20001220703</ele>
        <time>2025-08-07T10:37:26.000Z</time>
      </trkpt>
      <trkpt lat="43.01706" lon="1.37641">
        <ele>376.20001220703</ele>
        <time>2025-08-07T10:37:28.000Z</time>
      </trkpt>
      <trkpt lat="43.01707" lon="1.37635">
        <ele>376.39999389648</ele>
        <time>2025-08-07T10:37:29.000Z</time>
      </trkpt>
      <trkpt lat="43.01711" lon="1.37594">
        <ele>376.39999389648</ele>
        <time>2025-08-07T10:37:36.000Z</time>
      </trkpt>
      <trkpt lat="43.0171" lon="1.37588">
        <ele>376.39999389648</ele>
        <time>2025-08-07T10:37:37.000Z</time>
      </trkpt>
      <trkpt lat="43.01711" lon="1.37582">
        <ele>376.39999389648</ele>
        <time>2025-08-07T10:37:38.000Z</time>
      </trkpt>
      <trkpt lat="43.01712" lon="1.37563">
        <ele>376.20001220703</ele>
        <time>2025-08-07T10:37:41.000Z</time>
      </trkpt>
      <trkpt lat="43.01713" lon="1.37552">
        <ele>376.20001220703</ele>
        <time>2025-08-07T10:37:43.000Z</time>
      </trkpt>
      <trkpt lat="43.01713" lon="1.37524">
        <ele>375.79998779297</ele>
        <time>2025-08-07T10:37:48.000Z</time>
      </trkpt>
      <trkpt lat="43.01712" lon="1.37508">
        <ele>375.60000610352</ele>
        <time>2025-08-07T10:37:51.000Z</time>
      </trkpt>
      <trkpt lat="43.0171" lon="1.37457">
        <ele>375.60000610352</ele>
        <time>2025-08-07T10:38:00.000Z</time>
      </trkpt>
      <trkpt lat="43.01707" lon="1.37431">
        <ele>375.60000610352</ele>
        <time>2025-08-07T10:38:05.000Z</time>
      </trkpt>
      <trkpt lat="43.01702" lon="1.37407">
        <ele>375.60000610352</ele>
        <time>2025-08-07T10:38:09.000Z</time>
      </trkpt>
      <trkpt lat="43.017" lon="1.37393">
        <ele>375.39999389648</ele>
        <time>2025-08-07T10:38:11.000Z</time>
      </trkpt>
      <trkpt lat="43.01701" lon="1.37382">
        <ele>375</ele>
        <time>2025-08-07T10:38:13.000Z</time>
      </trkpt>
      <trkpt lat="43.01703" lon="1.37378">
        <ele>374.60000610352</ele>
        <time>2025-08-07T10:38:14.000Z</time>
      </trkpt>
      <trkpt lat="43.01718" lon="1.37367">
        <ele>373.20001220703</ele>
        <time>2025-08-07T10:38:20.000Z</time>
      </trkpt>
      <trkpt lat="43.01726" lon="1.37355">
        <ele>373</ele>
        <time>2025-08-07T10:38:25.000Z</time>
      </trkpt>
      <trkpt lat="43.01727" lon="1.37345">
        <ele>373.39999389648</ele>
        <time>2025-08-07T10:38:31.000Z</time>
      </trkpt>
      <trkpt lat="43.01728" lon="1.37339">
        <ele>373.60000610352</ele>
        <time>2025-08-07T10:38:35.000Z</time>
      </trkpt>
      <trkpt lat="43.01729" lon="1.37335">
        <ele>373.79998779297</ele>
        <time>2025-08-07T10:38:37.000Z</time>
      </trkpt>
      <trkpt lat="43.01734" lon="1.37322">
        <ele>374.20001220703</ele>
        <time>2025-08-07T10:38:43.000Z</time>
      </trkpt>
      <trkpt lat="43.01735" lon="1.37319">
        <ele>374.39999389648</ele>
        <time>2025-08-07T10:38:44.000Z</time>
      </trkpt>
      <trkpt lat="43.01736" lon="1.3731">
        <ele>374.79998779297</ele>
        <time>2025-08-07T10:38:47.000Z</time>
      </trkpt>
      <trkpt lat="43.01737" lon="1.37299">
        <ele>375.20001220703</ele>
        <time>2025-08-07T10:38:51.000Z</time>
      </trkpt>
      <trkpt lat="43.01738" lon="1.37269">
        <ele>375.39999389648</ele>
        <time>2025-08-07T10:39:00.000Z</time>
      </trkpt>
      <trkpt lat="43.0174" lon="1.3724">
        <ele>375.39999389648</ele>
        <time>2025-08-07T10:39:08.000Z</time>
      </trkpt>
      <trkpt lat="43.0174" lon="1.37209">
        <ele>375.60000610352</ele>
        <time>2025-08-07T10:39:15.000Z</time>
      </trkpt>
      <trkpt lat="43.01736" lon="1.3717">
        <ele>375.60000610352</ele>
        <time>2025-08-07T10:39:23.000Z</time>
      </trkpt>
      <trkpt lat="43.01725" lon="1.37144">
        <ele>376</ele>
        <time>2025-08-07T10:39:29.000Z</time>
      </trkpt>
      <trkpt lat="43.01704" lon="1.37123">
        <ele>376</ele>
        <time>2025-08-07T10:39:37.000Z</time>
      </trkpt>
      <trkpt lat="43.01694" lon="1.37115">
        <ele>376.20001220703</ele>
        <time>2025-08-07T10:39:41.000Z</time>
      </trkpt>
      <trkpt lat="43.01687" lon="1.37108">
        <ele>376.20001220703</ele>
        <time>2025-08-07T10:39:44.000Z</time>
      </trkpt>
      <trkpt lat="43.01679" lon="1.37099">
        <ele>376.39999389648</ele>
        <time>2025-08-07T10:39:48.000Z</time>
      </trkpt>
      <trkpt lat="43.01667" lon="1.37092">
        <ele>376.79998779297</ele>
        <time>2025-08-07T10:39:54.000Z</time>
      </trkpt>
      <trkpt lat="43.0166" lon="1.37088">
        <ele>376.79998779297</ele>
        <time>2025-08-07T10:39:57.000Z</time>
      </trkpt>
      <trkpt lat="43.01644" lon="1.3708">
        <ele>376.79998779297</ele>
        <time>2025-08-07T10:40:04.000Z</time>
      </trkpt>
      <trkpt lat="43.01638" lon="1.37076">
        <ele>377.20001220703</ele>
        <time>2025-08-07T10:40:09.000Z</time>
      </trkpt>
      <trkpt lat="43.01635" lon="1.37073">
        <ele>377.39999389648</ele>
        <time>2025-08-07T10:40:11.000Z</time>
      </trkpt>
      <trkpt lat="43.01631" lon="1.3707">
        <ele>377.60000610352</ele>
        <time>2025-08-07T10:40:13.000Z</time>
      </trkpt>
      <trkpt lat="43.01627" lon="1.37065">
        <ele>378</ele>
        <time>2025-08-07T10:40:16.000Z</time>
      </trkpt>
      <trkpt lat="43.01623" lon="1.37061">
        <ele>378.39999389648</ele>
        <time>2025-08-07T10:40:18.000Z</time>
      </trkpt>
      <trkpt lat="43.01612" lon="1.37048">
        <ele>379.20001220703</ele>
        <time>2025-08-07T10:40:24.000Z</time>
      </trkpt>
      <trkpt lat="43.0161" lon="1.37045">
        <ele>379.79998779297</ele>
        <time>2025-08-07T10:40:25.000Z</time>
      </trkpt>
      <trkpt lat="43.01597" lon="1.37028">
        <ele>380.79998779297</ele>
        <time>2025-08-07T10:40:32.000Z</time>
      </trkpt>
      <trkpt lat="43.01593" lon="1.37023">
        <ele>380.79998779297</ele>
        <time>2025-08-07T10:40:34.000Z</time>
      </trkpt>
      <trkpt lat="43.01574" lon="1.36998">
        <ele>381.20001220703</ele>
        <time>2025-08-07T10:40:43.000Z</time>
      </trkpt>
      <trkpt lat="43.01563" lon="1.36985">
        <ele>381.79998779297</ele>
        <time>2025-08-07T10:40:48.000Z</time>
      </trkpt>
      <trkpt lat="43.01552" lon="1.36975">
        <ele>382</ele>
        <time>2025-08-07T10:40:52.000Z</time>
      </trkpt>
      <trkpt lat="43.0155" lon="1.36972">
        <ele>382</ele>
        <time>2025-08-07T10:40:53.000Z</time>
      </trkpt>
      <trkpt lat="43.01534" lon="1.36958">
        <ele>382.20001220703</ele>
        <time>2025-08-07T10:40:59.000Z</time>
      </trkpt>
      <trkpt lat="43.01519" lon="1.36944">
        <ele>382.79998779297</ele>
        <time>2025-08-07T10:41:05.000Z</time>
      </trkpt>
      <trkpt lat="43.01516" lon="1.36941">
        <ele>382.79998779297</ele>
        <time>2025-08-07T10:41:06.000Z</time>
      </trkpt>
      <trkpt lat="43.01497" lon="1.36924">
        <ele>383</ele>
        <time>2025-08-07T10:41:14.000Z</time>
      </trkpt>
      <trkpt lat="43.01489" lon="1.36916">
        <ele>383.20001220703</ele>
        <time>2025-08-07T10:41:17.000Z</time>
      </trkpt>
      <trkpt lat="43.01471" lon="1.369">
        <ele>383.39999389648</ele>
        <time>2025-08-07T10:41:24.000Z</time>
      </trkpt>
      <trkpt lat="43.01457" lon="1.36889">
        <ele>383.79998779297</ele>
        <time>2025-08-07T10:41:29.000Z</time>
      </trkpt>
      <trkpt lat="43.01444" lon="1.36877">
        <ele>384.39999389648</ele>
        <time>2025-08-07T10:41:34.000Z</time>
      </trkpt>
      <trkpt lat="43.01429" lon="1.36867">
        <ele>385</ele>
        <time>2025-08-07T10:41:39.000Z</time>
      </trkpt>
      <trkpt lat="43.01421" lon="1.3686">
        <ele>385.20001220703</ele>
        <time>2025-08-07T10:41:42.000Z</time>
      </trkpt>
      <trkpt lat="43.01407" lon="1.3685">
        <ele>386</ele>
        <time>2025-08-07T10:41:47.000Z</time>
      </trkpt>
      <trkpt lat="43.01395" lon="1.36843">
        <ele>386.20001220703</ele>
        <time>2025-08-07T10:41:51.000Z</time>
      </trkpt>
      <trkpt lat="43.01388" lon="1.36839">
        <ele>386.39999389648</ele>
        <time>2025-08-07T10:41:54.000Z</time>
      </trkpt>
      <trkpt lat="43.01375" lon="1.36832">
        <ele>387</ele>
        <time>2025-08-07T10:41:59.000Z</time>
      </trkpt>
      <trkpt lat="43.0135" lon="1.36821">
        <ele>387.20001220703</ele>
        <time>2025-08-07T10:42:07.000Z</time>
      </trkpt>
      <trkpt lat="43.01328" lon="1.36812">
        <ele>387.20001220703</ele>
        <time>2025-08-07T10:42:14.000Z</time>
      </trkpt>
      <trkpt lat="43.01289" lon="1.368">
        <ele>387.20001220703</ele>
        <time>2025-08-07T10:42:25.000Z</time>
      </trkpt>
      <trkpt lat="43.01242" lon="1.36786">
        <ele>387.79998779297</ele>
        <time>2025-08-07T10:42:39.000Z</time>
      </trkpt>
      <trkpt lat="43.0122" lon="1.36778">
        <ele>388.20001220703</ele>
        <time>2025-08-07T10:42:46.000Z</time>
      </trkpt>
      <trkpt lat="43.01217" lon="1.36777">
        <ele>388.39999389648</ele>
        <time>2025-08-07T10:42:47.000Z</time>
      </trkpt>
      <trkpt lat="43.01198" lon="1.36771">
        <ele>389</ele>
        <time>2025-08-07T10:42:53.000Z</time>
      </trkpt>
      <trkpt lat="43.01183" lon="1.36765">
        <ele>389.39999389648</ele>
        <time>2025-08-07T10:42:58.000Z</time>
      </trkpt>
      <trkpt lat="43.01177" lon="1.36762">
        <ele>389.60000610352</ele>
        <time>2025-08-07T10:43:00.000Z</time>
      </trkpt>
      <trkpt lat="43.01147" lon="1.36747">
        <ele>390.39999389648</ele>
        <time>2025-08-07T10:43:10.000Z</time>
      </trkpt>
      <trkpt lat="43.01144" lon="1.36744">
        <ele>390.39999389648</ele>
        <time>2025-08-07T10:43:11.000Z</time>
      </trkpt>
      <trkpt lat="43.01122" lon="1.36724">
        <ele>391.39999389648</ele>
        <time>2025-08-07T10:43:19.000Z</time>
      </trkpt>
      <trkpt lat="43.01104" lon="1.36702">
        <ele>391.79998779297</ele>
        <time>2025-08-07T10:43:26.000Z</time>
      </trkpt>
      <trkpt lat="43.01098" lon="1.36696">
        <ele>391.79998779297</ele>
        <time>2025-08-07T10:43:28.000Z</time>
      </trkpt>
      <trkpt lat="43.01079" lon="1.36672">
        <ele>392.20001220703</ele>
        <time>2025-08-07T10:43:35.000Z</time>
      </trkpt>
      <trkpt lat="43.0106" lon="1.36639">
        <ele>392.60000610352</ele>
        <time>2025-08-07T10:43:45.000Z</time>
      </trkpt>
      <trkpt lat="43.01051" lon="1.36627">
        <ele>392.79998779297</ele>
        <time>2025-08-07T10:43:49.000Z</time>
      </trkpt>
      <trkpt lat="43.01043" lon="1.36618">
        <ele>393.20001220703</ele>
        <time>2025-08-07T10:43:52.000Z</time>
      </trkpt>
      <trkpt lat="43.01019" lon="1.36586">
        <ele>393.20001220703</ele>
        <time>2025-08-07T10:44:02.000Z</time>
      </trkpt>
      <trkpt lat="43.00995" lon="1.36551">
        <ele>393.60000610352</ele>
        <time>2025-08-07T10:44:12.000Z</time>
      </trkpt>
      <trkpt lat="43.00984" lon="1.36534">
        <ele>393.79998779297</ele>
        <time>2025-08-07T10:44:17.000Z</time>
      </trkpt>
      <trkpt lat="43.00975" lon="1.3652">
        <ele>394.20001220703</ele>
        <time>2025-08-07T10:44:21.000Z</time>
      </trkpt>
      <trkpt lat="43.00954" lon="1.36488">
        <ele>394.20001220703</ele>
        <time>2025-08-07T10:44:31.000Z</time>
      </trkpt>
      <trkpt lat="43.00936" lon="1.3646">
        <ele>394.39999389648</ele>
        <time>2025-08-07T10:44:39.000Z</time>
      </trkpt>
      <trkpt lat="43.0092" lon="1.36438">
        <ele>395</ele>
        <time>2025-08-07T10:44:46.000Z</time>
      </trkpt>
      <trkpt lat="43.00916" lon="1.36432">
        <ele>395.20001220703</ele>
        <time>2025-08-07T10:44:48.000Z</time>
      </trkpt>
      <trkpt lat="43.00892" lon="1.36396">
        <ele>395.60000610352</ele>
        <time>2025-08-07T10:44:59.000Z</time>
      </trkpt>
      <trkpt lat="43.0087" lon="1.36363">
        <ele>396.20001220703</ele>
        <time>2025-08-07T10:45:09.000Z</time>
      </trkpt>
      <trkpt lat="43.00866" lon="1.36356">
        <ele>396.20001220703</ele>
        <time>2025-08-07T10:45:11.000Z</time>
      </trkpt>
      <trkpt lat="43.00849" lon="1.36332">
        <ele>396.79998779297</ele>
        <time>2025-08-07T10:45:19.000Z</time>
      </trkpt>
      <trkpt lat="43.00835" lon="1.36311">
        <ele>396.79998779297</ele>
        <time>2025-08-07T10:45:26.000Z</time>
      </trkpt>
      <trkpt lat="43.00824" lon="1.36295">
        <ele>397</ele>
        <time>2025-08-07T10:45:32.000Z</time>
      </trkpt>
      <trkpt lat="43.00814" lon="1.36281">
        <ele>397</ele>
        <time>2025-08-07T10:45:39.000Z</time>
      </trkpt>
      <trkpt lat="43.00813" lon="1.36279">
        <ele>397</ele>
        <time>2025-08-07T10:45:40.000Z</time>
      </trkpt>
      <trkpt lat="43.00812" lon="1.36275">
        <ele>397.20001220703</ele>
        <time>2025-08-07T10:45:43.000Z</time>
      </trkpt>
      <trkpt lat="43.00806" lon="1.36266">
        <ele>397</ele>
        <time>2025-08-07T10:45:48.000Z</time>
      </trkpt>
      <trkpt lat="43.00796" lon="1.36254">
        <ele>397.20001220703</ele>
        <time>2025-08-07T10:45:53.000Z</time>
      </trkpt>
      <trkpt lat="43.00786" lon="1.36239">
        <ele>397.60000610352</ele>
        <time>2025-08-07T10:45:58.000Z</time>
      </trkpt>
      <trkpt lat="43.00778" lon="1.36226">
        <ele>397.79998779297</ele>
        <time>2025-08-07T10:46:02.000Z</time>
      </trkpt>
      <trkpt lat="43.00758" lon="1.36194">
        <ele>398.20001220703</ele>
        <time>2025-08-07T10:46:12.000Z</time>
      </trkpt>
      <trkpt lat="43.00743" lon="1.36171">
        <ele>398.39999389648</ele>
        <time>2025-08-07T10:46:19.000Z</time>
      </trkpt>
      <trkpt lat="43.00741" lon="1.36168">
        <ele>398.60000610352</ele>
        <time>2025-08-07T10:46:20.000Z</time>
      </trkpt>
      <trkpt lat="43.0073" lon="1.36146">
        <ele>399.20001220703</ele>
        <time>2025-08-07T10:46:27.000Z</time>
      </trkpt>
      <trkpt lat="43.00722" lon="1.3613">
        <ele>399.60000610352</ele>
        <time>2025-08-07T10:46:32.000Z</time>
      </trkpt>
      <trkpt lat="43.00711" lon="1.36104">
        <ele>399.79998779297</ele>
        <time>2025-08-07T10:46:39.000Z</time>
      </trkpt>
      <trkpt lat="43.007" lon="1.36074">
        <ele>400.60000610352</ele>
        <time>2025-08-07T10:46:47.000Z</time>
      </trkpt>
      <trkpt lat="43.00698" lon="1.36071">
        <ele>400.60000610352</ele>
        <time>2025-08-07T10:46:48.000Z</time>
      </trkpt>
      <trkpt lat="43.00696" lon="1.36063">
        <ele>401</ele>
        <time>2025-08-07T10:46:52.000Z</time>
      </trkpt>
      <trkpt lat="43.00696" lon="1.36063">
        <ele>401</ele>
        <time>2025-08-07T10:46:54.000Z</time>
      </trkpt>
      <trkpt lat="43.00692" lon="1.36055">
        <ele>402</ele>
        <time>2025-08-07T10:50:53.000Z</time>
      </trkpt>
      <trkpt lat="43.00692" lon="1.36053">
        <ele>402</ele>
        <time>2025-08-07T10:50:54.000Z</time>
      </trkpt>
      <trkpt lat="43.00687" lon="1.36035">
        <ele>401.79998779297</ele>
        <time>2025-08-07T10:51:02.000Z</time>
      </trkpt>
      <trkpt lat="43.00683" lon="1.36017">
        <ele>402</ele>
        <time>2025-08-07T10:51:09.000Z</time>
      </trkpt>
      <trkpt lat="43.00677" lon="1.35997">
        <ele>402.39999389648</ele>
        <time>2025-08-07T10:51:16.000Z</time>
      </trkpt>
      <trkpt lat="43.00671" lon="1.35981">
        <ele>402.60000610352</ele>
        <time>2025-08-07T10:51:21.000Z</time>
      </trkpt>
      <trkpt lat="43.0067" lon="1.3597">
        <ele>402.79998779297</ele>
        <time>2025-08-07T10:51:24.000Z</time>
      </trkpt>
      <trkpt lat="43.00663" lon="1.35947">
        <ele>403.20001220703</ele>
        <time>2025-08-07T10:51:31.000Z</time>
      </trkpt>
      <trkpt lat="43.00657" lon="1.35916">
        <ele>403.60000610352</ele>
        <time>2025-08-07T10:51:40.000Z</time>
      </trkpt>
      <trkpt lat="43.00649" lon="1.35876">
        <ele>403.60000610352</ele>
        <time>2025-08-07T10:51:51.000Z</time>
      </trkpt>
      <trkpt lat="43.00643" lon="1.35847">
        <ele>404</ele>
        <time>2025-08-07T10:51:59.000Z</time>
      </trkpt>
      <trkpt lat="43.00642" lon="1.35843">
        <ele>404</ele>
        <time>2025-08-07T10:52:00.000Z</time>
      </trkpt>
      <trkpt lat="43.00635" lon="1.35808">
        <ele>404.20001220703</ele>
        <time>2025-08-07T10:52:09.000Z</time>
      </trkpt>
      <trkpt lat="43.00628" lon="1.35778">
        <ele>404.39999389648</ele>
        <time>2025-08-07T10:52:17.000Z</time>
      </trkpt>
      <trkpt lat="43.00621" lon="1.35754">
        <ele>405</ele>
        <time>2025-08-07T10:52:23.000Z</time>
      </trkpt>
      <trkpt lat="43.0062" lon="1.3575">
        <ele>405</ele>
        <time>2025-08-07T10:52:24.000Z</time>
      </trkpt>
      <trkpt lat="43.00611" lon="1.35706">
        <ele>405.39999389648</ele>
        <time>2025-08-07T10:52:35.000Z</time>
      </trkpt>
      <trkpt lat="43.00604" lon="1.35671">
        <ele>405.60000610352</ele>
        <time>2025-08-07T10:52:44.000Z</time>
      </trkpt>
      <trkpt lat="43.00598" lon="1.35642">
        <ele>405.79998779297</ele>
        <time>2025-08-07T10:52:52.000Z</time>
      </trkpt>
      <trkpt lat="43.00593" lon="1.35623">
        <ele>406</ele>
        <time>2025-08-07T10:52:57.000Z</time>
      </trkpt>
      <trkpt lat="43.00588" lon="1.35609">
        <ele>406.20001220703</ele>
        <time>2025-08-07T10:53:01.000Z</time>
      </trkpt>
      <trkpt lat="43.0058" lon="1.35584">
        <ele>406.79998779297</ele>
        <time>2025-08-07T10:53:08.000Z</time>
      </trkpt>
      <trkpt lat="43.00576" lon="1.35573">
        <ele>407.20001220703</ele>
        <time>2025-08-07T10:53:11.000Z</time>
      </trkpt>
      <trkpt lat="43.00571" lon="1.35558">
        <ele>407.39999389648</ele>
        <time>2025-08-07T10:53:15.000Z</time>
      </trkpt>
      <trkpt lat="43.00563" lon="1.35529">
        <ele>407.79998779297</ele>
        <time>2025-08-07T10:53:23.000Z</time>
      </trkpt>
      <trkpt lat="43.00561" lon="1.35519">
        <ele>408.20001220703</ele>
        <time>2025-08-07T10:53:26.000Z</time>
      </trkpt>
      <trkpt lat="43.00557" lon="1.35508">
        <ele>408.39999389648</ele>
        <time>2025-08-07T10:53:28.000Z</time>
      </trkpt>
      <trkpt lat="43.00547" lon="1.35478">
        <ele>409</ele>
        <time>2025-08-07T10:53:36.000Z</time>
      </trkpt>
      <trkpt lat="43.00545" lon="1.35466">
        <ele>409</ele>
        <time>2025-08-07T10:53:39.000Z</time>
      </trkpt>
      <trkpt lat="43.00539" lon="1.35446">
        <ele>409</ele>
        <time>2025-08-07T10:53:44.000Z</time>
      </trkpt>
      <trkpt lat="43.00535" lon="1.35435">
        <ele>409</ele>
        <time>2025-08-07T10:53:49.000Z</time>
      </trkpt>
      <trkpt lat="43.00535" lon="1.35435">
        <ele>409</ele>
        <time>2025-08-07T10:53:50.000Z</time>
      </trkpt>
      <trkpt lat="43.00537" lon="1.35445">
        <ele>408.60000610352</ele>
        <time>2025-08-07T10:54:00.000Z</time>
      </trkpt>
      <trkpt lat="43.0054" lon="1.35452">
        <ele>408.60000610352</ele>
        <time>2025-08-07T10:54:02.000Z</time>
      </trkpt>
      <trkpt lat="43.0055" lon="1.35478">
        <ele>408.39999389648</ele>
        <time>2025-08-07T10:54:07.000Z</time>
      </trkpt>
      <trkpt lat="43.00562" lon="1.35513">
        <ele>408.39999389648</ele>
        <time>2025-08-07T10:54:13.000Z</time>
      </trkpt>
      <trkpt lat="43.00564" lon="1.3552">
        <ele>408.39999389648</ele>
        <time>2025-08-07T10:54:14.000Z</time>
      </trkpt>
      <trkpt lat="43.00574" lon="1.35546">
        <ele>408.20001220703</ele>
        <time>2025-08-07T10:54:18.000Z</time>
      </trkpt>
      <trkpt lat="43.00577" lon="1.3556">
        <ele>408.20001220703</ele>
        <time>2025-08-07T10:54:20.000Z</time>
      </trkpt>
      <trkpt lat="43.00588" lon="1.35597">
        <ele>408.20001220703</ele>
        <time>2025-08-07T10:54:25.000Z</time>
      </trkpt>
      <trkpt lat="43.00591" lon="1.35605">
        <ele>408</ele>
        <time>2025-08-07T10:54:26.000Z</time>
      </trkpt>
      <trkpt lat="43.00594" lon="1.35617">
        <ele>408</ele>
        <time>2025-08-07T10:54:28.000Z</time>
      </trkpt>
      <trkpt lat="43.00599" lon="1.3564">
        <ele>407.79998779297</ele>
        <time>2025-08-07T10:54:31.000Z</time>
      </trkpt>
      <trkpt lat="43.006" lon="1.35647">
        <ele>407.79998779297</ele>
        <time>2025-08-07T10:54:32.000Z</time>
      </trkpt>
      <trkpt lat="43.00608" lon="1.3569">
        <ele>407.39999389648</ele>
        <time>2025-08-07T10:54:37.000Z</time>
      </trkpt>
      <trkpt lat="43.00621" lon="1.3575">
        <ele>406.60000610352</ele>
        <time>2025-08-07T10:54:44.000Z</time>
      </trkpt>
      <trkpt lat="43.00623" lon="1.35758">
        <ele>406.39999389648</ele>
        <time>2025-08-07T10:54:45.000Z</time>
      </trkpt>
      <trkpt lat="43.00636" lon="1.35816">
        <ele>406</ele>
        <time>2025-08-07T10:54:52.000Z</time>
      </trkpt>
      <trkpt lat="43.00647" lon="1.35861">
        <ele>405.20001220703</ele>
        <time>2025-08-07T10:54:57.000Z</time>
      </trkpt>
      <trkpt lat="43.00652" lon="1.35884">
        <ele>404.79998779297</ele>
        <time>2025-08-07T10:55:00.000Z</time>
      </trkpt>
      <trkpt lat="43.0066" lon="1.35929">
        <ele>404.20001220703</ele>
        <time>2025-08-07T10:55:06.000Z</time>
      </trkpt>
      <trkpt lat="43.00662" lon="1.35934">
        <ele>404.20001220703</ele>
        <time>2025-08-07T10:55:07.000Z</time>
      </trkpt>
      <trkpt lat="43.00673" lon="1.35982">
        <ele>403.60000610352</ele>
        <time>2025-08-07T10:55:13.000Z</time>
      </trkpt>
      <trkpt lat="43.00687" lon="1.36031">
        <ele>403.20001220703</ele>
        <time>2025-08-07T10:55:20.000Z</time>
      </trkpt>
      <trkpt lat="43.00687" lon="1.36035">
        <ele>403.20001220703</ele>
        <time>2025-08-07T10:55:21.000Z</time>
      </trkpt>
      <trkpt lat="43.00687" lon="1.36036">
        <ele>403.20001220703</ele>
        <time>2025-08-07T10:55:22.000Z</time>
      </trkpt>
      <trkpt lat="43.00687" lon="1.36036">
        <ele>403</ele>
        <time>2025-08-07T10:55:23.000Z</time>
      </trkpt>
      <trkpt lat="43.00684" lon="1.36025">
        <ele>402.20001220703</ele>
        <time>2025-08-07T10:55:36.000Z</time>
      </trkpt>
      <trkpt lat="43.00683" lon="1.36019">
        <ele>402.20001220703</ele>
        <time>2025-08-07T10:55:38.000Z</time>
      </trkpt>
      <trkpt lat="43.00676" lon="1.36001">
        <ele>402.20001220703</ele>
        <time>2025-08-07T10:55:42.000Z</time>
      </trkpt>
      <trkpt lat="43.00668" lon="1.35966">
        <ele>402.39999389648</ele>
        <time>2025-08-07T10:55:48.000Z</time>
      </trkpt>
      <trkpt lat="43.00659" lon="1.3592">
        <ele>403</ele>
        <time>2025-08-07T10:55:56.000Z</time>
      </trkpt>
      <trkpt lat="43.0065" lon="1.35875">
        <ele>403.39999389648</ele>
        <time>2025-08-07T10:56:04.000Z</time>
      </trkpt>
      <trkpt lat="43.00637" lon="1.35816">
        <ele>403.79998779297</ele>
        <time>2025-08-07T10:56:14.000Z</time>
      </trkpt>
      <trkpt lat="43.00632" lon="1.35795">
        <ele>404</ele>
        <time>2025-08-07T10:56:18.000Z</time>
      </trkpt>
      <trkpt lat="43.00629" lon="1.35786">
        <ele>404.20001220703</ele>
        <time>2025-08-07T10:56:20.000Z</time>
      </trkpt>
      <trkpt lat="43.00626" lon="1.35775">
        <ele>404.39999389648</ele>
        <time>2025-08-07T10:56:23.000Z</time>
      </trkpt>
      <trkpt lat="43.00625" lon="1.35769">
        <ele>404.60000610352</ele>
        <time>2025-08-07T10:56:25.000Z</time>
      </trkpt>
      <trkpt lat="43.00617" lon="1.35739">
        <ele>404.79998779297</ele>
        <time>2025-08-07T10:56:33.000Z</time>
      </trkpt>
      <trkpt lat="43.00608" lon="1.35697">
        <ele>405.39999389648</ele>
        <time>2025-08-07T10:56:42.000Z</time>
      </trkpt>
      <trkpt lat="43.00607" lon="1.35693">
        <ele>405.39999389648</ele>
        <time>2025-08-07T10:56:43.000Z</time>
      </trkpt>
      <trkpt lat="43.00598" lon="1.35651">
        <ele>406</ele>
        <time>2025-08-07T10:56:52.000Z</time>
      </trkpt>
      <trkpt lat="43.00591" lon="1.35618">
        <ele>406.39999389648</ele>
        <time>2025-08-07T10:57:00.000Z</time>
      </trkpt>
      <trkpt lat="43.0059" lon="1.35614">
        <ele>406.39999389648</ele>
        <time>2025-08-07T10:57:01.000Z</time>
      </trkpt>
      <trkpt lat="43.00587" lon="1.35597">
        <ele>406.79998779297</ele>
        <time>2025-08-07T10:57:06.000Z</time>
      </trkpt>
      <trkpt lat="43.00577" lon="1.35571">
        <ele>407.39999389648</ele>
        <time>2025-08-07T10:57:13.000Z</time>
      </trkpt>
      <trkpt lat="43.00576" lon="1.35567">
        <ele>407.39999389648</ele>
        <time>2025-08-07T10:57:14.000Z</time>
      </trkpt>
      <trkpt lat="43.00569" lon="1.35552">
        <ele>407.79998779297</ele>
        <time>2025-08-07T10:57:18.000Z</time>
      </trkpt>
      <trkpt lat="43.00562" lon="1.35522">
        <ele>408.39999389648</ele>
        <time>2025-08-07T10:57:25.000Z</time>
      </trkpt>
      <trkpt lat="43.00561" lon="1.35517">
        <ele>408.60000610352</ele>
        <time>2025-08-07T10:57:26.000Z</time>
      </trkpt>
      <trkpt lat="43.00553" lon="1.35496">
        <ele>409</ele>
        <time>2025-08-07T10:57:31.000Z</time>
      </trkpt>
      <trkpt lat="43.00542" lon="1.35465">
        <ele>409.39999389648</ele>
        <time>2025-08-07T10:57:39.000Z</time>
      </trkpt>
      <trkpt lat="43.00533" lon="1.3543">
        <ele>409.60000610352</ele>
        <time>2025-08-07T10:57:48.000Z</time>
      </trkpt>
      <trkpt lat="43.0053" lon="1.35418">
        <ele>409.79998779297</ele>
        <time>2025-08-07T10:57:51.000Z</time>
      </trkpt>
      <trkpt lat="43.00523" lon="1.35392">
        <ele>409.79998779297</ele>
        <time>2025-08-07T10:57:57.000Z</time>
      </trkpt>
      <trkpt lat="43.00519" lon="1.35381">
        <ele>410</ele>
        <time>2025-08-07T10:58:00.000Z</time>
      </trkpt>
      <trkpt lat="43.00514" lon="1.35363">
        <ele>410</ele>
        <time>2025-08-07T10:58:04.000Z</time>
      </trkpt>
      <trkpt lat="43.00502" lon="1.35321">
        <ele>410.39999389648</ele>
        <time>2025-08-07T10:58:14.000Z</time>
      </trkpt>
      <trkpt lat="43.00498" lon="1.3531">
        <ele>410.79998779297</ele>
        <time>2025-08-07T10:58:17.000Z</time>
      </trkpt>
      <trkpt lat="43.00491" lon="1.35288">
        <ele>411</ele>
        <time>2025-08-07T10:58:23.000Z</time>
      </trkpt>
      <trkpt lat="43.00482" lon="1.35261">
        <ele>411.39999389648</ele>
        <time>2025-08-07T10:58:30.000Z</time>
      </trkpt>
      <trkpt lat="43.0048" lon="1.35253">
        <ele>411.79998779297</ele>
        <time>2025-08-07T10:58:32.000Z</time>
      </trkpt>
      <trkpt lat="43.00474" lon="1.35234">
        <ele>412.39999389648</ele>
        <time>2025-08-07T10:58:37.000Z</time>
      </trkpt>
      <trkpt lat="43.00469" lon="1.35214">
        <ele>412.79998779297</ele>
        <time>2025-08-07T10:58:42.000Z</time>
      </trkpt>
      <trkpt lat="43.00465" lon="1.35206">
        <ele>413</ele>
        <time>2025-08-07T10:58:44.000Z</time>
      </trkpt>
      <trkpt lat="43.00456" lon="1.35165">
        <ele>414</ele>
        <time>2025-08-07T10:58:54.000Z</time>
      </trkpt>
      <trkpt lat="43.0045" lon="1.35138">
        <ele>414</ele>
        <time>2025-08-07T10:59:01.000Z</time>
      </trkpt>
      <trkpt lat="43.00443" lon="1.35103">
        <ele>414.20001220703</ele>
        <time>2025-08-07T10:59:09.000Z</time>
      </trkpt>
      <trkpt lat="43.00442" lon="1.35099">
        <ele>414.20001220703</ele>
        <time>2025-08-07T10:59:10.000Z</time>
      </trkpt>
      <trkpt lat="43.00439" lon="1.3507">
        <ele>414.60000610352</ele>
        <time>2025-08-07T10:59:17.000Z</time>
      </trkpt>
      <trkpt lat="43.00435" lon="1.3504">
        <ele>415</ele>
        <time>2025-08-07T10:59:24.000Z</time>
      </trkpt>
      <trkpt lat="43.00434" lon="1.35032">
        <ele>415.20001220703</ele>
        <time>2025-08-07T10:59:26.000Z</time>
      </trkpt>
      <trkpt lat="43.00429" lon="1.35006">
        <ele>415.79998779297</ele>
        <time>2025-08-07T10:59:32.000Z</time>
      </trkpt>
      <trkpt lat="43.00428" lon="1.34975">
        <ele>416.20001220703</ele>
        <time>2025-08-07T10:59:39.000Z</time>
      </trkpt>
      <trkpt lat="43.00428" lon="1.34972">
        <ele>416.20001220703</ele>
        <time>2025-08-07T10:59:40.000Z</time>
      </trkpt>
      <trkpt lat="43.00425" lon="1.34948">
        <ele>416.60000610352</ele>
        <time>2025-08-07T10:59:46.000Z</time>
      </trkpt>
      <trkpt lat="43.00425" lon="1.34927">
        <ele>417.20001220703</ele>
        <time>2025-08-07T10:59:51.000Z</time>
      </trkpt>
      <trkpt lat="43.00426" lon="1.34902">
        <ele>417.60000610352</ele>
        <time>2025-08-07T10:59:56.000Z</time>
      </trkpt>
      <trkpt lat="43.00426" lon="1.34875">
        <ele>418.20001220703</ele>
        <time>2025-08-07T11:00:02.000Z</time>
      </trkpt>
      <trkpt lat="43.00426" lon="1.3487">
        <ele>418.20001220703</ele>
        <time>2025-08-07T11:00:03.000Z</time>
      </trkpt>
      <trkpt lat="43.00426" lon="1.34832">
        <ele>418.39999389648</ele>
        <time>2025-08-07T11:00:11.000Z</time>
      </trkpt>
      <trkpt lat="43.00429" lon="1.348">
        <ele>418.60000610352</ele>
        <time>2025-08-07T11:00:18.000Z</time>
      </trkpt>
      <trkpt lat="43.00431" lon="1.34769">
        <ele>418.79998779297</ele>
        <time>2025-08-07T11:00:26.000Z</time>
      </trkpt>
      <trkpt lat="43.0043" lon="1.3474">
        <ele>419.20001220703</ele>
        <time>2025-08-07T11:00:32.000Z</time>
      </trkpt>
      <trkpt lat="43.00429" lon="1.34734">
        <ele>419.60000610352</ele>
        <time>2025-08-07T11:00:33.000Z</time>
      </trkpt>
      <trkpt lat="43.00429" lon="1.34708">
        <ele>419.79998779297</ele>
        <time>2025-08-07T11:00:38.000Z</time>
      </trkpt>
      <trkpt lat="43.00426" lon="1.34683">
        <ele>419.79998779297</ele>
        <time>2025-08-07T11:00:43.000Z</time>
      </trkpt>
      <trkpt lat="43.00424" lon="1.34651">
        <ele>419.79998779297</ele>
        <time>2025-08-07T11:00:49.000Z</time>
      </trkpt>
      <trkpt lat="43.00415" lon="1.34618">
        <ele>420</ele>
        <time>2025-08-07T11:00:55.000Z</time>
      </trkpt>
      <trkpt lat="43.00412" lon="1.34589">
        <ele>420</ele>
        <time>2025-08-07T11:01:01.000Z</time>
      </trkpt>
      <trkpt lat="43.00404" lon="1.3455">
        <ele>420</ele>
        <time>2025-08-07T11:01:08.000Z</time>
      </trkpt>
      <trkpt lat="43.00399" lon="1.34519">
        <ele>420</ele>
        <time>2025-08-07T11:01:14.000Z</time>
      </trkpt>
      <trkpt lat="43.00393" lon="1.34473">
        <ele>419.60000610352</ele>
        <time>2025-08-07T11:01:22.000Z</time>
      </trkpt>
      <trkpt lat="43.00385" lon="1.34421">
        <ele>419.60000610352</ele>
        <time>2025-08-07T11:01:31.000Z</time>
      </trkpt>
      <trkpt lat="43.00384" lon="1.34415">
        <ele>419.60000610352</ele>
        <time>2025-08-07T11:01:32.000Z</time>
      </trkpt>
      <trkpt lat="43.00377" lon="1.34365">
        <ele>419.20001220703</ele>
        <time>2025-08-07T11:01:40.000Z</time>
      </trkpt>
      <trkpt lat="43.00372" lon="1.34326">
        <ele>419</ele>
        <time>2025-08-07T11:01:46.000Z</time>
      </trkpt>
      <trkpt lat="43.00366" lon="1.34276">
        <ele>418.60000610352</ele>
        <time>2025-08-07T11:01:54.000Z</time>
      </trkpt>
      <trkpt lat="43.00365" lon="1.34272">
        <ele>418.60000610352</ele>
        <time>2025-08-07T11:01:55.000Z</time>
      </trkpt>
      <trkpt lat="43.00363" lon="1.34259">
        <ele>418.60000610352</ele>
        <time>2025-08-07T11:01:57.000Z</time>
      </trkpt>
      <trkpt lat="43.00363" lon="1.34249">
        <ele>418.60000610352</ele>
        <time>2025-08-07T11:01:59.000Z</time>
      </trkpt>
      <trkpt lat="43.00362" lon="1.34243">
        <ele>418.60000610352</ele>
        <time>2025-08-07T11:02:00.000Z</time>
      </trkpt>
      <trkpt lat="43.00357" lon="1.34213">
        <ele>419</ele>
        <time>2025-08-07T11:02:05.000Z</time>
      </trkpt>
      <trkpt lat="43.00357" lon="1.34207">
        <ele>419</ele>
        <time>2025-08-07T11:02:06.000Z</time>
      </trkpt>
      <trkpt lat="43.00353" lon="1.34185">
        <ele>419.39999389648</ele>
        <time>2025-08-07T11:02:10.000Z</time>
      </trkpt>
      <trkpt lat="43.00352" lon="1.3418">
        <ele>419.39999389648</ele>
        <time>2025-08-07T11:02:11.000Z</time>
      </trkpt>
      <trkpt lat="43.00345" lon="1.34137">
        <ele>420.39999389648</ele>
        <time>2025-08-07T11:02:19.000Z</time>
      </trkpt>
      <trkpt lat="43.0034" lon="1.34107">
        <ele>421</ele>
        <time>2025-08-07T11:02:25.000Z</time>
      </trkpt>
      <trkpt lat="43.00337" lon="1.34087">
        <ele>421.39999389648</ele>
        <time>2025-08-07T11:02:29.000Z</time>
      </trkpt>
      <trkpt lat="43.00334" lon="1.34067">
        <ele>421.79998779297</ele>
        <time>2025-08-07T11:02:33.000Z</time>
      </trkpt>
      <trkpt lat="43.00326" lon="1.3402">
        <ele>422.39999389648</ele>
        <time>2025-08-07T11:02:42.000Z</time>
      </trkpt>
      <trkpt lat="43.00325" lon="1.34015">
        <ele>422.39999389648</ele>
        <time>2025-08-07T11:02:43.000Z</time>
      </trkpt>
      <trkpt lat="43.00321" lon="1.33985">
        <ele>422.60000610352</ele>
        <time>2025-08-07T11:02:49.000Z</time>
      </trkpt>
      <trkpt lat="43.00317" lon="1.33955">
        <ele>423.39999389648</ele>
        <time>2025-08-07T11:02:55.000Z</time>
      </trkpt>
      <trkpt lat="43.00316" lon="1.3395">
        <ele>423.39999389648</ele>
        <time>2025-08-07T11:02:56.000Z</time>
      </trkpt>
      <trkpt lat="43.00311" lon="1.33922">
        <ele>424.20001220703</ele>
        <time>2025-08-07T11:03:02.000Z</time>
      </trkpt>
      <trkpt lat="43.00307" lon="1.33901">
        <ele>424.39999389648</ele>
        <time>2025-08-07T11:03:06.000Z</time>
      </trkpt>
      <trkpt lat="43.00304" lon="1.33882">
        <ele>424.39999389648</ele>
        <time>2025-08-07T11:03:10.000Z</time>
      </trkpt>
      <trkpt lat="43.00299" lon="1.33846">
        <ele>424.39999389648</ele>
        <time>2025-08-07T11:03:18.000Z</time>
      </trkpt>
      <trkpt lat="43.00293" lon="1.33811">
        <ele>424.60000610352</ele>
        <time>2025-08-07T11:03:26.000Z</time>
      </trkpt>
      <trkpt lat="43.00288" lon="1.33781">
        <ele>424.79998779297</ele>
        <time>2025-08-07T11:03:33.000Z</time>
      </trkpt>
      <trkpt lat="43.00284" lon="1.3376">
        <ele>425.39999389648</ele>
        <time>2025-08-07T11:03:38.000Z</time>
      </trkpt>
      <trkpt lat="43.00284" lon="1.33756">
        <ele>425.60000610352</ele>
        <time>2025-08-07T11:03:39.000Z</time>
      </trkpt>
      <trkpt lat="43.00279" lon="1.33728">
        <ele>426</ele>
        <time>2025-08-07T11:03:46.000Z</time>
      </trkpt>
      <trkpt lat="43.00272" lon="1.33688">
        <ele>426.20001220703</ele>
        <time>2025-08-07T11:03:56.000Z</time>
      </trkpt>
      <trkpt lat="43.00268" lon="1.33658">
        <ele>426.39999389648</ele>
        <time>2025-08-07T11:04:03.000Z</time>
      </trkpt>
      <trkpt lat="43.00262" lon="1.33625">
        <ele>426.60000610352</ele>
        <time>2025-08-07T11:04:11.000Z</time>
      </trkpt>
      <trkpt lat="43.00258" lon="1.33594">
        <ele>426.79998779297</ele>
        <time>2025-08-07T11:04:19.000Z</time>
      </trkpt>
      <trkpt lat="43.00255" lon="1.3358">
        <ele>426.79998779297</ele>
        <time>2025-08-07T11:04:22.000Z</time>
      </trkpt>
      <trkpt lat="43.00249" lon="1.3355">
        <ele>427.20001220703</ele>
        <time>2025-08-07T11:04:29.000Z</time>
      </trkpt>
      <trkpt lat="43.00247" lon="1.33541">
        <ele>427.20001220703</ele>
        <time>2025-08-07T11:04:31.000Z</time>
      </trkpt>
      <trkpt lat="43.00237" lon="1.33503">
        <ele>428</ele>
        <time>2025-08-07T11:04:40.000Z</time>
      </trkpt>
      <trkpt lat="43.00228" lon="1.33475">
        <ele>428.39999389648</ele>
        <time>2025-08-07T11:04:47.000Z</time>
      </trkpt>
      <trkpt lat="43.00226" lon="1.3347">
        <ele>428.39999389648</ele>
        <time>2025-08-07T11:04:48.000Z</time>
      </trkpt>
      <trkpt lat="43.00213" lon="1.33438">
        <ele>429</ele>
        <time>2025-08-07T11:04:56.000Z</time>
      </trkpt>
      <trkpt lat="43.0021" lon="1.33429">
        <ele>429</ele>
        <time>2025-08-07T11:04:58.000Z</time>
      </trkpt>
      <trkpt lat="43.002" lon="1.334">
        <ele>429</ele>
        <time>2025-08-07T11:05:05.000Z</time>
      </trkpt>
      <trkpt lat="43.00194" lon="1.33384">
        <ele>429.20001220703</ele>
        <time>2025-08-07T11:05:09.000Z</time>
      </trkpt>
      <trkpt lat="43.00184" lon="1.33357">
        <ele>429.39999389648</ele>
        <time>2025-08-07T11:05:15.000Z</time>
      </trkpt>
      <trkpt lat="43.00172" lon="1.33329">
        <ele>430</ele>
        <time>2025-08-07T11:05:22.000Z</time>
      </trkpt>
      <trkpt lat="43.00169" lon="1.33321">
        <ele>430.20001220703</ele>
        <time>2025-08-07T11:05:24.000Z</time>
      </trkpt>
      <trkpt lat="43.00162" lon="1.333">
        <ele>430.60000610352</ele>
        <time>2025-08-07T11:05:29.000Z</time>
      </trkpt>
      <trkpt lat="43.00158" lon="1.33291">
        <ele>430.79998779297</ele>
        <time>2025-08-07T11:05:31.000Z</time>
      </trkpt>
      <trkpt lat="43.00151" lon="1.33274">
        <ele>431.20001220703</ele>
        <time>2025-08-07T11:05:35.000Z</time>
      </trkpt>
      <trkpt lat="43.00141" lon="1.33253">
        <ele>431.60000610352</ele>
        <time>2025-08-07T11:05:40.000Z</time>
      </trkpt>
      <trkpt lat="43.00125" lon="1.33223">
        <ele>432.20001220703</ele>
        <time>2025-08-07T11:05:47.000Z</time>
      </trkpt>
      <trkpt lat="43.00121" lon="1.33216">
        <ele>432.20001220703</ele>
        <time>2025-08-07T11:05:49.000Z</time>
      </trkpt>
      <trkpt lat="43.00104" lon="1.33191">
        <ele>432.60000610352</ele>
        <time>2025-08-07T11:05:56.000Z</time>
      </trkpt>
      <trkpt lat="43.00088" lon="1.33165">
        <ele>433</ele>
        <time>2025-08-07T11:06:04.000Z</time>
      </trkpt>
      <trkpt lat="43.00083" lon="1.33157">
        <ele>433.20001220703</ele>
        <time>2025-08-07T11:06:06.000Z</time>
      </trkpt>
      <trkpt lat="43.00073" lon="1.3314">
        <ele>433.79998779297</ele>
        <time>2025-08-07T11:06:11.000Z</time>
      </trkpt>
      <trkpt lat="43.00058" lon="1.3312">
        <ele>434</ele>
        <time>2025-08-07T11:06:17.000Z</time>
      </trkpt>
      <trkpt lat="43.00048" lon="1.33108">
        <ele>434.20001220703</ele>
        <time>2025-08-07T11:06:21.000Z</time>
      </trkpt>
      <trkpt lat="43.00046" lon="1.33105">
        <ele>434.39999389648</ele>
        <time>2025-08-07T11:06:22.000Z</time>
      </trkpt>
      <trkpt lat="43.00043" lon="1.33099">
        <ele>434.39999389648</ele>
        <time>2025-08-07T11:06:24.000Z</time>
      </trkpt>
      <trkpt lat="43.00025" lon="1.33075">
        <ele>435.20001220703</ele>
        <time>2025-08-07T11:06:32.000Z</time>
      </trkpt>
      <trkpt lat="43.0002" lon="1.33068">
        <ele>435.60000610352</ele>
        <time>2025-08-07T11:06:34.000Z</time>
      </trkpt>
      <trkpt lat="43.00011" lon="1.33058">
        <ele>436</ele>
        <time>2025-08-07T11:06:38.000Z</time>
      </trkpt>
      <trkpt lat="42.99998" lon="1.3304">
        <ele>436.79998779297</ele>
        <time>2025-08-07T11:06:44.000Z</time>
      </trkpt>
      <trkpt lat="42.99981" lon="1.33019">
        <ele>437.39999389648</ele>
        <time>2025-08-07T11:06:50.000Z</time>
      </trkpt>
      <trkpt lat="42.9997" lon="1.32996">
        <ele>437.60000610352</ele>
        <time>2025-08-07T11:06:56.000Z</time>
      </trkpt>
      <trkpt lat="42.99965" lon="1.32985">
        <ele>437.79998779297</ele>
        <time>2025-08-07T11:06:59.000Z</time>
      </trkpt>
      <trkpt lat="42.99957" lon="1.32974">
        <ele>438</ele>
        <time>2025-08-07T11:07:02.000Z</time>
      </trkpt>
      <trkpt lat="42.99944" lon="1.32957">
        <ele>438.20001220703</ele>
        <time>2025-08-07T11:07:07.000Z</time>
      </trkpt>
      <trkpt lat="42.99928" lon="1.3293">
        <ele>438.39999389648</ele>
        <time>2025-08-07T11:07:15.000Z</time>
      </trkpt>
      <trkpt lat="42.99915" lon="1.32909">
        <ele>438.20001220703</ele>
        <time>2025-08-07T11:07:21.000Z</time>
      </trkpt>
      <trkpt lat="42.99905" lon="1.32889">
        <ele>438.60000610352</ele>
        <time>2025-08-07T11:07:27.000Z</time>
      </trkpt>
      <trkpt lat="42.99904" lon="1.32885">
        <ele>438.79998779297</ele>
        <time>2025-08-07T11:07:28.000Z</time>
      </trkpt>
      <trkpt lat="42.99897" lon="1.32873">
        <ele>439.20001220703</ele>
        <time>2025-08-07T11:07:32.000Z</time>
      </trkpt>
      <trkpt lat="42.99894" lon="1.32867">
        <ele>439.39999389648</ele>
        <time>2025-08-07T11:07:34.000Z</time>
      </trkpt>
      <trkpt lat="42.9989" lon="1.32862">
        <ele>439.39999389648</ele>
        <time>2025-08-07T11:07:36.000Z</time>
      </trkpt>
      <trkpt lat="42.99878" lon="1.32843">
        <ele>439.79998779297</ele>
        <time>2025-08-07T11:07:42.000Z</time>
      </trkpt>
      <trkpt lat="42.99866" lon="1.32817">
        <ele>440.60000610352</ele>
        <time>2025-08-07T11:07:48.000Z</time>
      </trkpt>
      <trkpt lat="42.99863" lon="1.32809">
        <ele>440.79998779297</ele>
        <time>2025-08-07T11:07:50.000Z</time>
      </trkpt>
      <trkpt lat="42.99858" lon="1.32792">
        <ele>441</ele>
        <time>2025-08-07T11:07:54.000Z</time>
      </trkpt>
      <trkpt lat="42.99852" lon="1.32782">
        <ele>441.20001220703</ele>
        <time>2025-08-07T11:07:57.000Z</time>
      </trkpt>
      <trkpt lat="42.99846" lon="1.32767">
        <ele>441.39999389648</ele>
        <time>2025-08-07T11:08:01.000Z</time>
      </trkpt>
      <trkpt lat="42.99838" lon="1.32749">
        <ele>441.79998779297</ele>
        <time>2025-08-07T11:08:06.000Z</time>
      </trkpt>
      <trkpt lat="42.99836" lon="1.32744">
        <ele>441.79998779297</ele>
        <time>2025-08-07T11:08:07.000Z</time>
      </trkpt>
      <trkpt lat="42.99832" lon="1.32735">
        <ele>442</ele>
        <time>2025-08-07T11:08:09.000Z</time>
      </trkpt>
      <trkpt lat="42.99826" lon="1.32713">
        <ele>442</ele>
        <time>2025-08-07T11:08:14.000Z</time>
      </trkpt>
      <trkpt lat="42.99814" lon="1.32686">
        <ele>442.39999389648</ele>
        <time>2025-08-07T11:08:20.000Z</time>
      </trkpt>
      <trkpt lat="42.99806" lon="1.32658">
        <ele>442.39999389648</ele>
        <time>2025-08-07T11:08:26.000Z</time>
      </trkpt>
      <trkpt lat="42.99797" lon="1.32634">
        <ele>442.60000610352</ele>
        <time>2025-08-07T11:08:32.000Z</time>
      </trkpt>
      <trkpt lat="42.99793" lon="1.32618">
        <ele>442.79998779297</ele>
        <time>2025-08-07T11:08:36.000Z</time>
      </trkpt>
      <trkpt lat="42.9979" lon="1.3261">
        <ele>442.79998779297</ele>
        <time>2025-08-07T11:08:38.000Z</time>
      </trkpt>
      <trkpt lat="42.99788" lon="1.32605">
        <ele>443</ele>
        <time>2025-08-07T11:08:39.000Z</time>
      </trkpt>
      <trkpt lat="42.9978" lon="1.32576">
        <ele>443.60000610352</ele>
        <time>2025-08-07T11:08:46.000Z</time>
      </trkpt>
      <trkpt lat="42.99772" lon="1.32548">
        <ele>444</ele>
        <time>2025-08-07T11:08:53.000Z</time>
      </trkpt>
      <trkpt lat="42.99771" lon="1.32544">
        <ele>444</ele>
        <time>2025-08-07T11:08:54.000Z</time>
      </trkpt>
      <trkpt lat="42.99764" lon="1.32511">
        <ele>444</ele>
        <time>2025-08-07T11:09:01.000Z</time>
      </trkpt>
      <trkpt lat="42.99756" lon="1.32472">
        <ele>444</ele>
        <time>2025-08-07T11:09:10.000Z</time>
      </trkpt>
      <trkpt lat="42.9975" lon="1.3244">
        <ele>444.39999389648</ele>
        <time>2025-08-07T11:09:18.000Z</time>
      </trkpt>
      <trkpt lat="42.99744" lon="1.32412">
        <ele>445</ele>
        <time>2025-08-07T11:09:25.000Z</time>
      </trkpt>
      <trkpt lat="42.99738" lon="1.3239">
        <ele>445.20001220703</ele>
        <time>2025-08-07T11:09:30.000Z</time>
      </trkpt>
      <trkpt lat="42.99736" lon="1.3238">
        <ele>445.39999389648</ele>
        <time>2025-08-07T11:09:32.000Z</time>
      </trkpt>
      <trkpt lat="42.99726" lon="1.32341">
        <ele>445.39999389648</ele>
        <time>2025-08-07T11:09:40.000Z</time>
      </trkpt>
      <trkpt lat="42.9972" lon="1.32314">
        <ele>445.60000610352</ele>
        <time>2025-08-07T11:09:46.000Z</time>
      </trkpt>
      <trkpt lat="42.99715" lon="1.32282">
        <ele>446.39999389648</ele>
        <time>2025-08-07T11:09:53.000Z</time>
      </trkpt>
      <trkpt lat="42.99714" lon="1.32278">
        <ele>446.39999389648</ele>
        <time>2025-08-07T11:09:54.000Z</time>
      </trkpt>
      <trkpt lat="42.99707" lon="1.32253">
        <ele>447.20001220703</ele>
        <time>2025-08-07T11:10:00.000Z</time>
      </trkpt>
      <trkpt lat="42.997" lon="1.32236">
        <ele>447.39999389648</ele>
        <time>2025-08-07T11:10:05.000Z</time>
      </trkpt>
      <trkpt lat="42.99698" lon="1.3222">
        <ele>448</ele>
        <time>2025-08-07T11:10:10.000Z</time>
      </trkpt>
      <trkpt lat="42.99693" lon="1.32202">
        <ele>448.20001220703</ele>
        <time>2025-08-07T11:10:16.000Z</time>
      </trkpt>
      <trkpt lat="42.99691" lon="1.32196">
        <ele>448.39999389648</ele>
        <time>2025-08-07T11:10:18.000Z</time>
      </trkpt>
      <trkpt lat="42.99689" lon="1.32186">
        <ele>448.60000610352</ele>
        <time>2025-08-07T11:10:21.000Z</time>
      </trkpt>
      <trkpt lat="42.99687" lon="1.32183">
        <ele>448.60000610352</ele>
        <time>2025-08-07T11:10:22.000Z</time>
      </trkpt>
      <trkpt lat="42.99684" lon="1.32174">
        <ele>448.60000610352</ele>
        <time>2025-08-07T11:10:25.000Z</time>
      </trkpt>
      <trkpt lat="42.99679" lon="1.32147">
        <ele>448.79998779297</ele>
        <time>2025-08-07T11:10:32.000Z</time>
      </trkpt>
      <trkpt lat="42.99678" lon="1.32144">
        <ele>448.79998779297</ele>
        <time>2025-08-07T11:10:33.000Z</time>
      </trkpt>
      <trkpt lat="42.9967" lon="1.3212">
        <ele>448.79998779297</ele>
        <time>2025-08-07T11:10:39.000Z</time>
      </trkpt>
      <trkpt lat="42.99663" lon="1.32101">
        <ele>449.20001220703</ele>
        <time>2025-08-07T11:10:46.000Z</time>
      </trkpt>
      <trkpt lat="42.99663" lon="1.32101">
        <ele>449.20001220703</ele>
        <time>2025-08-07T11:10:48.000Z</time>
      </trkpt>
      <trkpt lat="42.99659" lon="1.32095">
        <ele>451.79998779297</ele>
        <time>2025-08-07T11:53:39.000Z</time>
      </trkpt>
      <trkpt lat="42.99658" lon="1.32093">
        <ele>451.79998779297</ele>
        <time>2025-08-07T11:53:40.000Z</time>
      </trkpt>
      <trkpt lat="42.99651" lon="1.32077">
        <ele>451.60000610352</ele>
        <time>2025-08-07T11:53:46.000Z</time>
      </trkpt>
      <trkpt lat="42.99642" lon="1.32059">
        <ele>451.60000610352</ele>
        <time>2025-08-07T11:53:52.000Z</time>
      </trkpt>
      <trkpt lat="42.99642" lon="1.32056">
        <ele>451.79998779297</ele>
        <time>2025-08-07T11:53:53.000Z</time>
      </trkpt>
      <trkpt lat="42.99638" lon="1.32049">
        <ele>451.79998779297</ele>
        <time>2025-08-07T11:53:56.000Z</time>
      </trkpt>
      <trkpt lat="42.9963" lon="1.32032">
        <ele>452.60000610352</ele>
        <time>2025-08-07T11:54:02.000Z</time>
      </trkpt>
      <trkpt lat="42.99621" lon="1.3201">
        <ele>453</ele>
        <time>2025-08-07T11:54:09.000Z</time>
      </trkpt>
      <trkpt lat="42.99615" lon="1.31994">
        <ele>453</ele>
        <time>2025-08-07T11:54:15.000Z</time>
      </trkpt>
      <trkpt lat="42.99604" lon="1.31977">
        <ele>453</ele>
        <time>2025-08-07T11:54:22.000Z</time>
      </trkpt>
      <trkpt lat="42.99601" lon="1.31972">
        <ele>453.20001220703</ele>
        <time>2025-08-07T11:54:25.000Z</time>
      </trkpt>
      <trkpt lat="42.99598" lon="1.31966">
        <ele>453.39999389648</ele>
        <time>2025-08-07T11:54:28.000Z</time>
      </trkpt>
      <trkpt lat="42.99594" lon="1.31959">
        <ele>453.60000610352</ele>
        <time>2025-08-07T11:54:31.000Z</time>
      </trkpt>
      <trkpt lat="42.99589" lon="1.31951">
        <ele>453.60000610352</ele>
        <time>2025-08-07T11:54:34.000Z</time>
      </trkpt>
      <trkpt lat="42.99584" lon="1.31942">
        <ele>453.60000610352</ele>
        <time>2025-08-07T11:54:37.000Z</time>
      </trkpt>
      <trkpt lat="42.99581" lon="1.31937">
        <ele>453.79998779297</ele>
        <time>2025-08-07T11:54:39.000Z</time>
      </trkpt>
      <trkpt lat="42.99572" lon="1.31921">
        <ele>454</ele>
        <time>2025-08-07T11:54:45.000Z</time>
      </trkpt>
      <trkpt lat="42.99569" lon="1.31911">
        <ele>454.20001220703</ele>
        <time>2025-08-07T11:54:48.000Z</time>
      </trkpt>
      <trkpt lat="42.99566" lon="1.31905">
        <ele>454.39999389648</ele>
        <time>2025-08-07T11:54:50.000Z</time>
      </trkpt>
      <trkpt lat="42.99566" lon="1.31904">
        <ele>454.60000610352</ele>
        <time>2025-08-07T11:54:51.000Z</time>
      </trkpt>
      <trkpt lat="42.99566" lon="1.31903">
        <ele>454.60000610352</ele>
        <time>2025-08-07T11:54:53.000Z</time>
      </trkpt>
      <trkpt lat="42.99561" lon="1.31893">
        <ele>455</ele>
        <time>2025-08-07T11:55:26.000Z</time>
      </trkpt>
      <trkpt lat="42.99557" lon="1.31889">
        <ele>454.79998779297</ele>
        <time>2025-08-07T11:55:28.000Z</time>
      </trkpt>
      <trkpt lat="42.99546" lon="1.31869">
        <ele>455.20001220703</ele>
        <time>2025-08-07T11:55:35.000Z</time>
      </trkpt>
      <trkpt lat="42.99534" lon="1.31842">
        <ele>455.60000610352</ele>
        <time>2025-08-07T11:55:42.000Z</time>
      </trkpt>
      <trkpt lat="42.99528" lon="1.31817">
        <ele>456</ele>
        <time>2025-08-07T11:55:47.000Z</time>
      </trkpt>
      <trkpt lat="42.99527" lon="1.31813">
        <ele>456</ele>
        <time>2025-08-07T11:55:48.000Z</time>
      </trkpt>
      <trkpt lat="42.99524" lon="1.31803">
        <ele>456.20001220703</ele>
        <time>2025-08-07T11:55:51.000Z</time>
      </trkpt>
      <trkpt lat="42.99513" lon="1.31774">
        <ele>456.79998779297</ele>
        <time>2025-08-07T11:55:58.000Z</time>
      </trkpt>
      <trkpt lat="42.99503" lon="1.31755">
        <ele>457</ele>
        <time>2025-08-07T11:56:04.000Z</time>
      </trkpt>
      <trkpt lat="42.99473" lon="1.31724">
        <ele>457.79998779297</ele>
        <time>2025-08-07T11:56:18.000Z</time>
      </trkpt>
      <trkpt lat="42.99463" lon="1.31686">
        <ele>457.60000610352</ele>
        <time>2025-08-07T11:56:26.000Z</time>
      </trkpt>
      <trkpt lat="42.99456" lon="1.3167">
        <ele>457.39999389648</ele>
        <time>2025-08-07T11:56:32.000Z</time>
      </trkpt>
      <trkpt lat="42.99441" lon="1.31643">
        <ele>457.39999389648</ele>
        <time>2025-08-07T11:56:40.000Z</time>
      </trkpt>
      <trkpt lat="42.9943" lon="1.31621">
        <ele>457.39999389648</ele>
        <time>2025-08-07T11:56:46.000Z</time>
      </trkpt>
      <trkpt lat="42.9942" lon="1.31604">
        <ele>457.79998779297</ele>
        <time>2025-08-07T11:56:51.000Z</time>
      </trkpt>
      <trkpt lat="42.99411" lon="1.31586">
        <ele>458</ele>
        <time>2025-08-07T11:56:56.000Z</time>
      </trkpt>
      <trkpt lat="42.99401" lon="1.31563">
        <ele>458.39999389648</ele>
        <time>2025-08-07T11:57:02.000Z</time>
      </trkpt>
      <trkpt lat="42.99391" lon="1.3154">
        <ele>459</ele>
        <time>2025-08-07T11:57:08.000Z</time>
      </trkpt>
      <trkpt lat="42.99383" lon="1.31522">
        <ele>459.39999389648</ele>
        <time>2025-08-07T11:57:13.000Z</time>
      </trkpt>
      <trkpt lat="42.99374" lon="1.31492">
        <ele>460</ele>
        <time>2025-08-07T11:57:20.000Z</time>
      </trkpt>
      <trkpt lat="42.99373" lon="1.31489">
        <ele>460.20001220703</ele>
        <time>2025-08-07T11:57:21.000Z</time>
      </trkpt>
      <trkpt lat="42.9936" lon="1.31466">
        <ele>460.39999389648</ele>
        <time>2025-08-07T11:57:27.000Z</time>
      </trkpt>
      <trkpt lat="42.99353" lon="1.31441">
        <ele>460.60000610352</ele>
        <time>2025-08-07T11:57:34.000Z</time>
      </trkpt>
      <trkpt lat="42.99347" lon="1.31406">
        <ele>460.79998779297</ele>
        <time>2025-08-07T11:57:42.000Z</time>
      </trkpt>
      <trkpt lat="42.99341" lon="1.31373">
        <ele>461</ele>
        <time>2025-08-07T11:57:50.000Z</time>
      </trkpt>
      <trkpt lat="42.99335" lon="1.31341">
        <ele>461</ele>
        <time>2025-08-07T11:57:58.000Z</time>
      </trkpt>
      <trkpt lat="42.99332" lon="1.31316">
        <ele>461.20001220703</ele>
        <time>2025-08-07T11:58:04.000Z</time>
      </trkpt>
      <trkpt lat="42.99331" lon="1.31299">
        <ele>461.20001220703</ele>
        <time>2025-08-07T11:58:08.000Z</time>
      </trkpt>
      <trkpt lat="42.99328" lon="1.31249">
        <ele>461.79998779297</ele>
        <time>2025-08-07T11:58:20.000Z</time>
      </trkpt>
      <trkpt lat="42.99329" lon="1.31213">
        <ele>462.20001220703</ele>
        <time>2025-08-07T11:58:28.000Z</time>
      </trkpt>
      <trkpt lat="42.99329" lon="1.312">
        <ele>462.20001220703</ele>
        <time>2025-08-07T11:58:31.000Z</time>
      </trkpt>
      <trkpt lat="42.99329" lon="1.31196">
        <ele>462.20001220703</ele>
        <time>2025-08-07T11:58:32.000Z</time>
      </trkpt>
      <trkpt lat="42.9933" lon="1.31161">
        <ele>462.39999389648</ele>
        <time>2025-08-07T11:58:40.000Z</time>
      </trkpt>
      <trkpt lat="42.99334" lon="1.31122">
        <ele>462.60000610352</ele>
        <time>2025-08-07T11:58:49.000Z</time>
      </trkpt>
      <trkpt lat="42.99338" lon="1.31096">
        <ele>463</ele>
        <time>2025-08-07T11:58:55.000Z</time>
      </trkpt>
      <trkpt lat="42.99338" lon="1.31092">
        <ele>463</ele>
        <time>2025-08-07T11:58:56.000Z</time>
      </trkpt>
      <trkpt lat="42.9934" lon="1.3108">
        <ele>463.20001220703</ele>
        <time>2025-08-07T11:58:59.000Z</time>
      </trkpt>
      <trkpt lat="42.99345" lon="1.31049">
        <ele>463.60000610352</ele>
        <time>2025-08-07T11:59:07.000Z</time>
      </trkpt>
      <trkpt lat="42.99346" lon="1.31038">
        <ele>464</ele>
        <time>2025-08-07T11:59:10.000Z</time>
      </trkpt>
      <trkpt lat="42.99346" lon="1.31032">
        <ele>464.60000610352</ele>
        <time>2025-08-07T11:59:13.000Z</time>
      </trkpt>
      <trkpt lat="42.99347" lon="1.31031">
        <ele>465.20001220703</ele>
        <time>2025-08-07T11:59:15.000Z</time>
      </trkpt>
      <trkpt lat="42.99416" lon="1.3069">
        <ele>471.20001220703</ele>
        <time>2025-08-07T12:00:39.000Z</time>
      </trkpt>
      <trkpt lat="42.99414" lon="1.30688">
        <ele>471</ele>
        <time>2025-08-07T12:00:40.000Z</time>
      </trkpt>
      <trkpt lat="42.9942" lon="1.30648">
        <ele>470.79998779297</ele>
        <time>2025-08-07T12:00:49.000Z</time>
      </trkpt>
      <trkpt lat="42.99425" lon="1.30615">
        <ele>471</ele>
        <time>2025-08-07T12:00:57.000Z</time>
      </trkpt>
      <trkpt lat="42.99428" lon="1.30607">
        <ele>470.79998779297</ele>
        <time>2025-08-07T12:00:59.000Z</time>
      </trkpt>
      <trkpt lat="42.9943" lon="1.30591">
        <ele>471</ele>
        <time>2025-08-07T12:01:03.000Z</time>
      </trkpt>
      <trkpt lat="42.99437" lon="1.30562">
        <ele>471.60000610352</ele>
        <time>2025-08-07T12:01:10.000Z</time>
      </trkpt>
      <trkpt lat="42.99442" lon="1.30536">
        <ele>471.60000610352</ele>
        <time>2025-08-07T12:01:16.000Z</time>
      </trkpt>
      <trkpt lat="42.99446" lon="1.30511">
        <ele>472</ele>
        <time>2025-08-07T12:01:22.000Z</time>
      </trkpt>
      <trkpt lat="42.99449" lon="1.30493">
        <ele>472.20001220703</ele>
        <time>2025-08-07T12:01:26.000Z</time>
      </trkpt>
      <trkpt lat="42.9945" lon="1.30481">
        <ele>472.39999389648</ele>
        <time>2025-08-07T12:01:29.000Z</time>
      </trkpt>
      <trkpt lat="42.99457" lon="1.30453">
        <ele>472.39999389648</ele>
        <time>2025-08-07T12:01:36.000Z</time>
      </trkpt>
      <trkpt lat="42.99464" lon="1.30418">
        <ele>472</ele>
        <time>2025-08-07T12:01:44.000Z</time>
      </trkpt>
      <trkpt lat="42.99468" lon="1.30392">
        <ele>472.60000610352</ele>
        <time>2025-08-07T12:01:50.000Z</time>
      </trkpt>
      <trkpt lat="42.99471" lon="1.30354">
        <ele>473.39999389648</ele>
        <time>2025-08-07T12:01:59.000Z</time>
      </trkpt>
      <trkpt lat="42.99471" lon="1.30346">
        <ele>473.39999389648</ele>
        <time>2025-08-07T12:02:01.000Z</time>
      </trkpt>
      <trkpt lat="42.99471" lon="1.30342">
        <ele>473.60000610352</ele>
        <time>2025-08-07T12:02:02.000Z</time>
      </trkpt>
      <trkpt lat="42.9947" lon="1.30281">
        <ele>474</ele>
        <time>2025-08-07T12:02:15.000Z</time>
      </trkpt>
      <trkpt lat="42.99472" lon="1.30248">
        <ele>474.20001220703</ele>
        <time>2025-08-07T12:02:22.000Z</time>
      </trkpt>
      <trkpt lat="42.99472" lon="1.30244">
        <ele>474.20001220703</ele>
        <time>2025-08-07T12:02:23.000Z</time>
      </trkpt>
      <trkpt lat="42.9947" lon="1.30209">
        <ele>474.60000610352</ele>
        <time>2025-08-07T12:02:31.000Z</time>
      </trkpt>
      <trkpt lat="42.99465" lon="1.30171">
        <ele>475.20001220703</ele>
        <time>2025-08-07T12:02:40.000Z</time>
      </trkpt>
      <trkpt lat="42.99464" lon="1.30167">
        <ele>475.20001220703</ele>
        <time>2025-08-07T12:02:41.000Z</time>
      </trkpt>
      <trkpt lat="42.9946" lon="1.30139">
        <ele>475.60000610352</ele>
        <time>2025-08-07T12:02:49.000Z</time>
      </trkpt>
      <trkpt lat="42.99454" lon="1.30106">
        <ele>475.79998779297</ele>
        <time>2025-08-07T12:02:58.000Z</time>
      </trkpt>
      <trkpt lat="42.9945" lon="1.30089">
        <ele>476</ele>
        <time>2025-08-07T12:03:03.000Z</time>
      </trkpt>
      <trkpt lat="42.99448" lon="1.30076">
        <ele>476.20001220703</ele>
        <time>2025-08-07T12:03:07.000Z</time>
      </trkpt>
      <trkpt lat="42.99446" lon="1.30069">
        <ele>476.39999389648</ele>
        <time>2025-08-07T12:03:09.000Z</time>
      </trkpt>
      <trkpt lat="42.99442" lon="1.30048">
        <ele>476.39999389648</ele>
        <time>2025-08-07T12:03:15.000Z</time>
      </trkpt>
      <trkpt lat="42.99437" lon="1.30024">
        <ele>476.79998779297</ele>
        <time>2025-08-07T12:03:22.000Z</time>
      </trkpt>
      <trkpt lat="42.99433" lon="1.30008">
        <ele>477.20001220703</ele>
        <time>2025-08-07T12:03:27.000Z</time>
      </trkpt>
      <trkpt lat="42.99432" lon="1.30001">
        <ele>477.20001220703</ele>
        <time>2025-08-07T12:03:29.000Z</time>
      </trkpt>
      <trkpt lat="42.99428" lon="1.29983">
        <ele>477.39999389648</ele>
        <time>2025-08-07T12:03:35.000Z</time>
      </trkpt>
      <trkpt lat="42.99422" lon="1.29955">
        <ele>478</ele>
        <time>2025-08-07T12:03:43.000Z</time>
      </trkpt>
      <trkpt lat="42.99419" lon="1.29936">
        <ele>478.20001220703</ele>
        <time>2025-08-07T12:03:48.000Z</time>
      </trkpt>
      <trkpt lat="42.99416" lon="1.29918">
        <ele>478.39999389648</ele>
        <time>2025-08-07T12:03:53.000Z</time>
      </trkpt>
      <trkpt lat="42.99412" lon="1.29896">
        <ele>478.39999389648</ele>
        <time>2025-08-07T12:03:59.000Z</time>
      </trkpt>
      <trkpt lat="42.99404" lon="1.29848">
        <ele>479</ele>
        <time>2025-08-07T12:04:11.000Z</time>
      </trkpt>
      <trkpt lat="42.99398" lon="1.29823">
        <ele>479.20001220703</ele>
        <time>2025-08-07T12:04:17.000Z</time>
      </trkpt>
      <trkpt lat="42.99396" lon="1.29811">
        <ele>479.39999389648</ele>
        <time>2025-08-07T12:04:20.000Z</time>
      </trkpt>
      <trkpt lat="42.9939" lon="1.29779">
        <ele>480.39999389648</ele>
        <time>2025-08-07T12:04:28.000Z</time>
      </trkpt>
      <trkpt lat="42.99383" lon="1.29756">
        <ele>481.20001220703</ele>
        <time>2025-08-07T12:04:34.000Z</time>
      </trkpt>
      <trkpt lat="42.99382" lon="1.29752">
        <ele>481.20001220703</ele>
        <time>2025-08-07T12:04:35.000Z</time>
      </trkpt>
      <trkpt lat="42.9938" lon="1.29739">
        <ele>481.39999389648</ele>
        <time>2025-08-07T12:04:38.000Z</time>
      </trkpt>
      <trkpt lat="42.99375" lon="1.29714">
        <ele>481.79998779297</ele>
        <time>2025-08-07T12:04:44.000Z</time>
      </trkpt>
      <trkpt lat="42.99369" lon="1.29681">
        <ele>482.20001220703</ele>
        <time>2025-08-07T12:04:52.000Z</time>
      </trkpt>
      <trkpt lat="42.99368" lon="1.29677">
        <ele>482.39999389648</ele>
        <time>2025-08-07T12:04:53.000Z</time>
      </trkpt>
      <trkpt lat="42.99364" lon="1.29652">
        <ele>482.79998779297</ele>
        <time>2025-08-07T12:04:59.000Z</time>
      </trkpt>
      <trkpt lat="42.99359" lon="1.2963">
        <ele>483.39999389648</ele>
        <time>2025-08-07T12:05:04.000Z</time>
      </trkpt>
      <trkpt lat="42.99357" lon="1.29617">
        <ele>483.60000610352</ele>
        <time>2025-08-07T12:05:07.000Z</time>
      </trkpt>
      <trkpt lat="42.99352" lon="1.29597">
        <ele>484.20001220703</ele>
        <time>2025-08-07T12:05:12.000Z</time>
      </trkpt>
      <trkpt lat="42.9935" lon="1.29589">
        <ele>484.39999389648</ele>
        <time>2025-08-07T12:05:14.000Z</time>
      </trkpt>
      <trkpt lat="42.99342" lon="1.29562">
        <ele>485</ele>
        <time>2025-08-07T12:05:21.000Z</time>
      </trkpt>
      <trkpt lat="42.99339" lon="1.2955">
        <ele>485.39999389648</ele>
        <time>2025-08-07T12:05:24.000Z</time>
      </trkpt>
      <trkpt lat="42.99334" lon="1.2953">
        <ele>485.79998779297</ele>
        <time>2025-08-07T12:05:29.000Z</time>
      </trkpt>
      <trkpt lat="42.99327" lon="1.29514">
        <ele>486.39999389648</ele>
        <time>2025-08-07T12:05:34.000Z</time>
      </trkpt>
      <trkpt lat="42.99326" lon="1.29511">
        <ele>486.39999389648</ele>
        <time>2025-08-07T12:05:35.000Z</time>
      </trkpt>
      <trkpt lat="42.99325" lon="1.29504">
        <ele>486.79998779297</ele>
        <time>2025-08-07T12:05:38.000Z</time>
      </trkpt>
      <trkpt lat="42.99326" lon="1.29503">
        <ele>486.79998779297</ele>
        <time>2025-08-07T12:05:39.000Z</time>
      </trkpt>
      <trkpt lat="42.98905" lon="1.28334">
        <ele>492</ele>
        <time>2025-08-07T12:10:45.000Z</time>
      </trkpt>
      <trkpt lat="42.98898" lon="1.28328">
        <ele>491.79998779297</ele>
        <time>2025-08-07T12:10:46.000Z</time>
      </trkpt>
      <trkpt lat="42.98901" lon="1.28322">
        <ele>491.79998779297</ele>
        <time>2025-08-07T12:10:47.000Z</time>
      </trkpt>
      <trkpt lat="42.98914" lon="1.28292">
        <ele>491.79998779297</ele>
        <time>2025-08-07T12:10:52.000Z</time>
      </trkpt>
      <trkpt lat="42.98912" lon="1.28289">
        <ele>491.79998779297</ele>
        <time>2025-08-07T12:10:53.000Z</time>
      </trkpt>
      <trkpt lat="42.98909" lon="1.28279">
        <ele>491.79998779297</ele>
        <time>2025-08-07T12:10:55.000Z</time>
      </trkpt>
      <trkpt lat="42.98908" lon="1.28254">
        <ele>491.79998779297</ele>
        <time>2025-08-07T12:11:00.000Z</time>
      </trkpt>
      <trkpt lat="42.98908" lon="1.28219">
        <ele>491.60000610352</ele>
        <time>2025-08-07T12:11:05.000Z</time>
      </trkpt>
      <trkpt lat="42.98905" lon="1.28198">
        <ele>491.39999389648</ele>
        <time>2025-08-07T12:11:08.000Z</time>
      </trkpt>
      <trkpt lat="42.98905" lon="1.28192">
        <ele>491.39999389648</ele>
        <time>2025-08-07T12:11:09.000Z</time>
      </trkpt>
      <trkpt lat="42.98905" lon="1.28187">
        <ele>491.39999389648</ele>
        <time>2025-08-07T12:11:10.000Z</time>
      </trkpt>
      <trkpt lat="42.98906" lon="1.2817">
        <ele>491.20001220703</ele>
        <time>2025-08-07T12:11:13.000Z</time>
      </trkpt>
      <trkpt lat="42.98906" lon="1.28164">
        <ele>491.20001220703</ele>
        <time>2025-08-07T12:11:14.000Z</time>
      </trkpt>
      <trkpt lat="42.98906" lon="1.28153">
        <ele>491.20001220703</ele>
        <time>2025-08-07T12:11:16.000Z</time>
      </trkpt>
      <trkpt lat="42.98905" lon="1.28113">
        <ele>491</ele>
        <time>2025-08-07T12:11:23.000Z</time>
      </trkpt>
      <trkpt lat="42.98906" lon="1.28101">
        <ele>491</ele>
        <time>2025-08-07T12:11:25.000Z</time>
      </trkpt>
      <trkpt lat="42.98912" lon="1.28056">
        <ele>490.60000610352</ele>
        <time>2025-08-07T12:11:33.000Z</time>
      </trkpt>
      <trkpt lat="42.98912" lon="1.28051">
        <ele>490.60000610352</ele>
        <time>2025-08-07T12:11:34.000Z</time>
      </trkpt>
      <trkpt lat="42.98916" lon="1.2803">
        <ele>490.60000610352</ele>
        <time>2025-08-07T12:11:38.000Z</time>
      </trkpt>
      <trkpt lat="42.98918" lon="1.28014">
        <ele>490.60000610352</ele>
        <time>2025-08-07T12:11:41.000Z</time>
      </trkpt>
      <trkpt lat="42.98921" lon="1.28003">
        <ele>490.60000610352</ele>
        <time>2025-08-07T12:11:43.000Z</time>
      </trkpt>
      <trkpt lat="42.98928" lon="1.27975">
        <ele>490.60000610352</ele>
        <time>2025-08-07T12:11:48.000Z</time>
      </trkpt>
      <trkpt lat="42.98935" lon="1.27946">
        <ele>490.60000610352</ele>
        <time>2025-08-07T12:11:53.000Z</time>
      </trkpt>
      <trkpt lat="42.98939" lon="1.27915">
        <ele>490.60000610352</ele>
        <time>2025-08-07T12:11:58.000Z</time>
      </trkpt>
      <trkpt lat="42.98942" lon="1.27904">
        <ele>490.20001220703</ele>
        <time>2025-08-07T12:12:00.000Z</time>
      </trkpt>
      <trkpt lat="42.98948" lon="1.27869">
        <ele>489.79998779297</ele>
        <time>2025-08-07T12:12:06.000Z</time>
      </trkpt>
      <trkpt lat="42.98949" lon="1.27863">
        <ele>490</ele>
        <time>2025-08-07T12:12:07.000Z</time>
      </trkpt>
      <trkpt lat="42.98955" lon="1.2783">
        <ele>490.79998779297</ele>
        <time>2025-08-07T12:12:13.000Z</time>
      </trkpt>
      <trkpt lat="42.98961" lon="1.27788">
        <ele>490.39999389648</ele>
        <time>2025-08-07T12:12:20.000Z</time>
      </trkpt>
      <trkpt lat="42.98962" lon="1.27782">
        <ele>490.20001220703</ele>
        <time>2025-08-07T12:12:21.000Z</time>
      </trkpt>
      <trkpt lat="42.98964" lon="1.27765">
        <ele>490.20001220703</ele>
        <time>2025-08-07T12:12:24.000Z</time>
      </trkpt>
      <trkpt lat="42.98967" lon="1.27753">
        <ele>490.20001220703</ele>
        <time>2025-08-07T12:12:27.000Z</time>
      </trkpt>
      <trkpt lat="42.98971" lon="1.27727">
        <ele>490.39999389648</ele>
        <time>2025-08-07T12:12:33.000Z</time>
      </trkpt>
      <trkpt lat="42.98973" lon="1.27716">
        <ele>490.39999389648</ele>
        <time>2025-08-07T12:12:35.000Z</time>
      </trkpt>
      <trkpt lat="42.98974" lon="1.2771">
        <ele>490.60000610352</ele>
        <time>2025-08-07T12:12:36.000Z</time>
      </trkpt>
      <trkpt lat="42.98976" lon="1.277">
        <ele>490.39999389648</ele>
        <time>2025-08-07T12:12:38.000Z</time>
      </trkpt>
      <trkpt lat="42.98978" lon="1.27685">
        <ele>490.39999389648</ele>
        <time>2025-08-07T12:12:41.000Z</time>
      </trkpt>
      <trkpt lat="42.9898" lon="1.27674">
        <ele>490.39999389648</ele>
        <time>2025-08-07T12:12:43.000Z</time>
      </trkpt>
      <trkpt lat="42.98982" lon="1.27665">
        <ele>490.39999389648</ele>
        <time>2025-08-07T12:12:45.000Z</time>
      </trkpt>
      <trkpt lat="42.98986" lon="1.27655">
        <ele>490.39999389648</ele>
        <time>2025-08-07T12:12:47.000Z</time>
      </trkpt>
      <trkpt lat="42.98989" lon="1.27619">
        <ele>490.39999389648</ele>
        <time>2025-08-07T12:12:52.000Z</time>
      </trkpt>
      <trkpt lat="42.98991" lon="1.27606">
        <ele>490.39999389648</ele>
        <time>2025-08-07T12:12:54.000Z</time>
      </trkpt>
      <trkpt lat="42.98992" lon="1.276">
        <ele>490.20001220703</ele>
        <time>2025-08-07T12:12:55.000Z</time>
      </trkpt>
      <trkpt lat="42.98994" lon="1.27585">
        <ele>490</ele>
        <time>2025-08-07T12:12:58.000Z</time>
      </trkpt>
      <trkpt lat="42.98995" lon="1.27574">
        <ele>489.79998779297</ele>
        <time>2025-08-07T12:13:00.000Z</time>
      </trkpt>
      <trkpt lat="42.98994" lon="1.27551">
        <ele>489.60000610352</ele>
        <time>2025-08-07T12:13:04.000Z</time>
      </trkpt>
      <trkpt lat="42.98995" lon="1.27544">
        <ele>489.60000610352</ele>
        <time>2025-08-07T12:13:05.000Z</time>
      </trkpt>
      <trkpt lat="42.98995" lon="1.27531">
        <ele>489.60000610352</ele>
        <time>2025-08-07T12:13:07.000Z</time>
      </trkpt>
      <trkpt lat="42.98994" lon="1.27518">
        <ele>489.60000610352</ele>
        <time>2025-08-07T12:13:09.000Z</time>
      </trkpt>
      <trkpt lat="42.98991" lon="1.27479">
        <ele>489</ele>
        <time>2025-08-07T12:13:15.000Z</time>
      </trkpt>
      <trkpt lat="42.9899" lon="1.27472">
        <ele>489</ele>
        <time>2025-08-07T12:13:16.000Z</time>
      </trkpt>
      <trkpt lat="42.98985" lon="1.27433">
        <ele>488.39999389648</ele>
        <time>2025-08-07T12:13:22.000Z</time>
      </trkpt>
      <trkpt lat="42.98979" lon="1.27408">
        <ele>488</ele>
        <time>2025-08-07T12:13:26.000Z</time>
      </trkpt>
      <trkpt lat="42.98978" lon="1.27402">
        <ele>488</ele>
        <time>2025-08-07T12:13:27.000Z</time>
      </trkpt>
      <trkpt lat="42.98977" lon="1.27396">
        <ele>488</ele>
        <time>2025-08-07T12:13:28.000Z</time>
      </trkpt>
      <trkpt lat="42.98975" lon="1.2739">
        <ele>487.79998779297</ele>
        <time>2025-08-07T12:13:29.000Z</time>
      </trkpt>
      <trkpt lat="42.98973" lon="1.27377">
        <ele>487.79998779297</ele>
        <time>2025-08-07T12:13:31.000Z</time>
      </trkpt>
      <trkpt lat="42.9897" lon="1.27365">
        <ele>487.60000610352</ele>
        <time>2025-08-07T12:13:33.000Z</time>
      </trkpt>
      <trkpt lat="42.98966" lon="1.27351">
        <ele>487.60000610352</ele>
        <time>2025-08-07T12:13:35.000Z</time>
      </trkpt>
      <trkpt lat="42.98964" lon="1.27338">
        <ele>487.39999389648</ele>
        <time>2025-08-07T12:13:37.000Z</time>
      </trkpt>
      <trkpt lat="42.9896" lon="1.2732">
        <ele>487.39999389648</ele>
        <time>2025-08-07T12:13:40.000Z</time>
      </trkpt>
      <trkpt lat="42.9895" lon="1.27287">
        <ele>487.20001220703</ele>
        <time>2025-08-07T12:13:45.000Z</time>
      </trkpt>
      <trkpt lat="42.98943" lon="1.27251">
        <ele>487</ele>
        <time>2025-08-07T12:13:51.000Z</time>
      </trkpt>
      <trkpt lat="42.9894" lon="1.27246">
        <ele>487</ele>
        <time>2025-08-07T12:13:52.000Z</time>
      </trkpt>
      <trkpt lat="42.98938" lon="1.27241">
        <ele>486.79998779297</ele>
        <time>2025-08-07T12:13:53.000Z</time>
      </trkpt>
      <trkpt lat="42.98932" lon="1.27209">
        <ele>486.39999389648</ele>
        <time>2025-08-07T12:13:58.000Z</time>
      </trkpt>
      <trkpt lat="42.98927" lon="1.27184">
        <ele>486</ele>
        <time>2025-08-07T12:14:02.000Z</time>
      </trkpt>
      <trkpt lat="42.98926" lon="1.27179">
        <ele>486</ele>
        <time>2025-08-07T12:14:03.000Z</time>
      </trkpt>
      <trkpt lat="42.98926" lon="1.27173">
        <ele>485.79998779297</ele>
        <time>2025-08-07T12:14:04.000Z</time>
      </trkpt>
      <trkpt lat="42.98924" lon="1.27136">
        <ele>485.79998779297</ele>
        <time>2025-08-07T12:14:10.000Z</time>
      </trkpt>
      <trkpt lat="42.98924" lon="1.27125">
        <ele>485.79998779297</ele>
        <time>2025-08-07T12:14:12.000Z</time>
      </trkpt>
      <trkpt lat="42.98922" lon="1.27099">
        <ele>485.60000610352</ele>
        <time>2025-08-07T12:14:16.000Z</time>
      </trkpt>
      <trkpt lat="42.98924" lon="1.27087">
        <ele>485.60000610352</ele>
        <time>2025-08-07T12:14:18.000Z</time>
      </trkpt>
      <trkpt lat="42.98924" lon="1.27081">
        <ele>485.60000610352</ele>
        <time>2025-08-07T12:14:19.000Z</time>
      </trkpt>
      <trkpt lat="42.98924" lon="1.27067">
        <ele>485.39999389648</ele>
        <time>2025-08-07T12:14:21.000Z</time>
      </trkpt>
      <trkpt lat="42.98923" lon="1.27053">
        <ele>485.39999389648</ele>
        <time>2025-08-07T12:14:23.000Z</time>
      </trkpt>
      <trkpt lat="42.98922" lon="1.27046">
        <ele>485.39999389648</ele>
        <time>2025-08-07T12:14:24.000Z</time>
      </trkpt>
      <trkpt lat="42.98923" lon="1.27031">
        <ele>485.20001220703</ele>
        <time>2025-08-07T12:14:26.000Z</time>
      </trkpt>
      <trkpt lat="42.98925" lon="1.27019">
        <ele>485.20001220703</ele>
        <time>2025-08-07T12:14:28.000Z</time>
      </trkpt>
      <trkpt lat="42.98927" lon="1.27012">
        <ele>485</ele>
        <time>2025-08-07T12:14:29.000Z</time>
      </trkpt>
      <trkpt lat="42.98927" lon="1.27006">
        <ele>485</ele>
        <time>2025-08-07T12:14:30.000Z</time>
      </trkpt>
      <trkpt lat="42.98929" lon="1.26978">
        <ele>484.79998779297</ele>
        <time>2025-08-07T12:14:34.000Z</time>
      </trkpt>
      <trkpt lat="42.98929" lon="1.26965">
        <ele>485</ele>
        <time>2025-08-07T12:14:36.000Z</time>
      </trkpt>
      <trkpt lat="42.9893" lon="1.26953">
        <ele>485</ele>
        <time>2025-08-07T12:14:38.000Z</time>
      </trkpt>
      <trkpt lat="42.9893" lon="1.26939">
        <ele>485</ele>
        <time>2025-08-07T12:14:40.000Z</time>
      </trkpt>
      <trkpt lat="42.98928" lon="1.26918">
        <ele>485</ele>
        <time>2025-08-07T12:14:43.000Z</time>
      </trkpt>
      <trkpt lat="42.98926" lon="1.26901">
        <ele>484.79998779297</ele>
        <time>2025-08-07T12:14:45.000Z</time>
      </trkpt>
      <trkpt lat="42.98925" lon="1.26887">
        <ele>484.39999389648</ele>
        <time>2025-08-07T12:14:48.000Z</time>
      </trkpt>
      <trkpt lat="42.98928" lon="1.26873">
        <ele>484.39999389648</ele>
        <time>2025-08-07T12:14:50.000Z</time>
      </trkpt>
      <trkpt lat="42.98928" lon="1.26859">
        <ele>484.39999389648</ele>
        <time>2025-08-07T12:14:52.000Z</time>
      </trkpt>
      <trkpt lat="42.98928" lon="1.26842">
        <ele>484.39999389648</ele>
        <time>2025-08-07T12:14:54.000Z</time>
      </trkpt>
      <trkpt lat="42.98928" lon="1.26829">
        <ele>484.20001220703</ele>
        <time>2025-08-07T12:14:56.000Z</time>
      </trkpt>
      <trkpt lat="42.98928" lon="1.26822">
        <ele>484.20001220703</ele>
        <time>2025-08-07T12:14:57.000Z</time>
      </trkpt>
      <trkpt lat="42.98928" lon="1.26808">
        <ele>484.20001220703</ele>
        <time>2025-08-07T12:14:59.000Z</time>
      </trkpt>
      <trkpt lat="42.98928" lon="1.26793">
        <ele>484</ele>
        <time>2025-08-07T12:15:01.000Z</time>
      </trkpt>
      <trkpt lat="42.98928" lon="1.26773">
        <ele>483.79998779297</ele>
        <time>2025-08-07T12:15:04.000Z</time>
      </trkpt>
      <trkpt lat="42.98929" lon="1.26766">
        <ele>483.60000610352</ele>
        <time>2025-08-07T12:15:05.000Z</time>
      </trkpt>
      <trkpt lat="42.98929" lon="1.26759">
        <ele>483.60000610352</ele>
        <time>2025-08-07T12:15:06.000Z</time>
      </trkpt>
      <trkpt lat="42.98928" lon="1.26751">
        <ele>483.60000610352</ele>
        <time>2025-08-07T12:15:07.000Z</time>
      </trkpt>
      <trkpt lat="42.98928" lon="1.26743">
        <ele>483.39999389648</ele>
        <time>2025-08-07T12:15:08.000Z</time>
      </trkpt>
      <trkpt lat="42.98926" lon="1.26717">
        <ele>482.79998779297</ele>
        <time>2025-08-07T12:15:12.000Z</time>
      </trkpt>
      <trkpt lat="42.98926" lon="1.26704">
        <ele>482.60000610352</ele>
        <time>2025-08-07T12:15:14.000Z</time>
      </trkpt>
      <trkpt lat="42.98927" lon="1.26697">
        <ele>482.60000610352</ele>
        <time>2025-08-07T12:15:15.000Z</time>
      </trkpt>
      <trkpt lat="42.98928" lon="1.26685">
        <ele>482.39999389648</ele>
        <time>2025-08-07T12:15:17.000Z</time>
      </trkpt>
      <trkpt lat="42.98929" lon="1.26646">
        <ele>482</ele>
        <time>2025-08-07T12:15:23.000Z</time>
      </trkpt>
      <trkpt lat="42.9893" lon="1.26621">
        <ele>481.60000610352</ele>
        <time>2025-08-07T12:15:27.000Z</time>
      </trkpt>
      <trkpt lat="42.98931" lon="1.26614">
        <ele>481.60000610352</ele>
        <time>2025-08-07T12:15:28.000Z</time>
      </trkpt>
      <trkpt lat="42.98932" lon="1.26608">
        <ele>481.39999389648</ele>
        <time>2025-08-07T12:15:29.000Z</time>
      </trkpt>
      <trkpt lat="42.98932" lon="1.26582">
        <ele>481.20001220703</ele>
        <time>2025-08-07T12:15:33.000Z</time>
      </trkpt>
      <trkpt lat="42.98932" lon="1.26575">
        <ele>481</ele>
        <time>2025-08-07T12:15:34.000Z</time>
      </trkpt>
      <trkpt lat="42.9893" lon="1.26536">
        <ele>480.60000610352</ele>
        <time>2025-08-07T12:15:39.000Z</time>
      </trkpt>
      <trkpt lat="42.9893" lon="1.2651">
        <ele>480.39999389648</ele>
        <time>2025-08-07T12:15:42.000Z</time>
      </trkpt>
      <trkpt lat="42.98931" lon="1.2645">
        <ele>479.60000610352</ele>
        <time>2025-08-07T12:15:50.000Z</time>
      </trkpt>
      <trkpt lat="42.9893" lon="1.26443">
        <ele>479.60000610352</ele>
        <time>2025-08-07T12:15:51.000Z</time>
      </trkpt>
      <trkpt lat="42.98932" lon="1.26416">
        <ele>479</ele>
        <time>2025-08-07T12:15:55.000Z</time>
      </trkpt>
      <trkpt lat="42.98932" lon="1.26397">
        <ele>479</ele>
        <time>2025-08-07T12:15:58.000Z</time>
      </trkpt>
      <trkpt lat="42.98932" lon="1.26385">
        <ele>479</ele>
        <time>2025-08-07T12:16:00.000Z</time>
      </trkpt>
      <trkpt lat="42.98931" lon="1.26364">
        <ele>479</ele>
        <time>2025-08-07T12:16:03.000Z</time>
      </trkpt>
      <trkpt lat="42.98928" lon="1.26312">
        <ele>478.60000610352</ele>
        <time>2025-08-07T12:16:11.000Z</time>
      </trkpt>
      <trkpt lat="42.98927" lon="1.26285">
        <ele>478.39999389648</ele>
        <time>2025-08-07T12:16:15.000Z</time>
      </trkpt>
      <trkpt lat="42.98927" lon="1.26253">
        <ele>478.20001220703</ele>
        <time>2025-08-07T12:16:20.000Z</time>
      </trkpt>
      <trkpt lat="42.98924" lon="1.26185">
        <ele>477.39999389648</ele>
        <time>2025-08-07T12:16:30.000Z</time>
      </trkpt>
      <trkpt lat="42.98924" lon="1.26171">
        <ele>477.39999389648</ele>
        <time>2025-08-07T12:16:32.000Z</time>
      </trkpt>
      <trkpt lat="42.98924" lon="1.26144">
        <ele>477.20001220703</ele>
        <time>2025-08-07T12:16:36.000Z</time>
      </trkpt>
      <trkpt lat="42.98928" lon="1.26089">
        <ele>476.39999389648</ele>
        <time>2025-08-07T12:16:44.000Z</time>
      </trkpt>
      <trkpt lat="42.98929" lon="1.26082">
        <ele>476.20001220703</ele>
        <time>2025-08-07T12:16:45.000Z</time>
      </trkpt>
      <trkpt lat="42.98934" lon="1.26037">
        <ele>475.60000610352</ele>
        <time>2025-08-07T12:16:52.000Z</time>
      </trkpt>
      <trkpt lat="42.98939" lon="1.26003">
        <ele>475.20001220703</ele>
        <time>2025-08-07T12:16:57.000Z</time>
      </trkpt>
      <trkpt lat="42.98945" lon="1.25976">
        <ele>474.79998779297</ele>
        <time>2025-08-07T12:17:01.000Z</time>
      </trkpt>
      <trkpt lat="42.98947" lon="1.2597">
        <ele>474.60000610352</ele>
        <time>2025-08-07T12:17:02.000Z</time>
      </trkpt>
      <trkpt lat="42.98954" lon="1.25938">
        <ele>474.20001220703</ele>
        <time>2025-08-07T12:17:07.000Z</time>
      </trkpt>
      <trkpt lat="42.98956" lon="1.25931">
        <ele>474.20001220703</ele>
        <time>2025-08-07T12:17:08.000Z</time>
      </trkpt>
      <trkpt lat="42.98971" lon="1.2586">
        <ele>473.39999389648</ele>
        <time>2025-08-07T12:17:18.000Z</time>
      </trkpt>
      <trkpt lat="42.98973" lon="1.25853">
        <ele>473.20001220703</ele>
        <time>2025-08-07T12:17:19.000Z</time>
      </trkpt>
      <trkpt lat="42.98982" lon="1.25803">
        <ele>472.60000610352</ele>
        <time>2025-08-07T12:17:26.000Z</time>
      </trkpt>
      <trkpt lat="42.98996" lon="1.2574">
        <ele>472.20001220703</ele>
        <time>2025-08-07T12:17:35.000Z</time>
      </trkpt>
      <trkpt lat="42.99006" lon="1.25698">
        <ele>471.79998779297</ele>
        <time>2025-08-07T12:17:41.000Z</time>
      </trkpt>
      <trkpt lat="42.99008" lon="1.25691">
        <ele>471.60000610352</ele>
        <time>2025-08-07T12:17:42.000Z</time>
      </trkpt>
      <trkpt lat="42.99021" lon="1.25625">
        <ele>470.79998779297</ele>
        <time>2025-08-07T12:17:51.000Z</time>
      </trkpt>
      <trkpt lat="42.99023" lon="1.25618">
        <ele>470.79998779297</ele>
        <time>2025-08-07T12:17:52.000Z</time>
      </trkpt>
      <trkpt lat="42.99027" lon="1.25596">
        <ele>470.39999389648</ele>
        <time>2025-08-07T12:17:55.000Z</time>
      </trkpt>
      <trkpt lat="42.99032" lon="1.25567">
        <ele>469.79998779297</ele>
        <time>2025-08-07T12:17:59.000Z</time>
      </trkpt>
      <trkpt lat="42.99036" lon="1.25553">
        <ele>469.60000610352</ele>
        <time>2025-08-07T12:18:01.000Z</time>
      </trkpt>
      <trkpt lat="42.99046" lon="1.25503">
        <ele>469.20001220703</ele>
        <time>2025-08-07T12:18:08.000Z</time>
      </trkpt>
      <trkpt lat="42.99049" lon="1.25489">
        <ele>469</ele>
        <time>2025-08-07T12:18:10.000Z</time>
      </trkpt>
      <trkpt lat="42.99056" lon="1.2546">
        <ele>468.79998779297</ele>
        <time>2025-08-07T12:18:14.000Z</time>
      </trkpt>
      <trkpt lat="42.9906" lon="1.25437">
        <ele>468.60000610352</ele>
        <time>2025-08-07T12:18:17.000Z</time>
      </trkpt>
      <trkpt lat="42.99063" lon="1.25423">
        <ele>468.39999389648</ele>
        <time>2025-08-07T12:18:19.000Z</time>
      </trkpt>
      <trkpt lat="42.9907" lon="1.25395">
        <ele>468</ele>
        <time>2025-08-07T12:18:23.000Z</time>
      </trkpt>
      <trkpt lat="42.99079" lon="1.25351">
        <ele>467.39999389648</ele>
        <time>2025-08-07T12:18:29.000Z</time>
      </trkpt>
      <trkpt lat="42.99081" lon="1.25337">
        <ele>467.39999389648</ele>
        <time>2025-08-07T12:18:31.000Z</time>
      </trkpt>
      <trkpt lat="42.99095" lon="1.25276">
        <ele>466.60000610352</ele>
        <time>2025-08-07T12:18:40.000Z</time>
      </trkpt>
      <trkpt lat="42.99101" lon="1.25244">
        <ele>466.39999389648</ele>
        <time>2025-08-07T12:18:46.000Z</time>
      </trkpt>
      <trkpt lat="42.99106" lon="1.2523">
        <ele>466.39999389648</ele>
        <time>2025-08-07T12:18:51.000Z</time>
      </trkpt>
      <trkpt lat="42.99115" lon="1.25203">
        <ele>466.20001220703</ele>
        <time>2025-08-07T12:18:57.000Z</time>
      </trkpt>
      <trkpt lat="42.99129" lon="1.25165">
        <ele>465.60000610352</ele>
        <time>2025-08-07T12:19:04.000Z</time>
      </trkpt>
      <trkpt lat="42.99143" lon="1.25132">
        <ele>465.39999389648</ele>
        <time>2025-08-07T12:19:10.000Z</time>
      </trkpt>
      <trkpt lat="42.99146" lon="1.25127">
        <ele>465.39999389648</ele>
        <time>2025-08-07T12:19:11.000Z</time>
      </trkpt>
      <trkpt lat="42.99152" lon="1.25116">
        <ele>465.39999389648</ele>
        <time>2025-08-07T12:19:13.000Z</time>
      </trkpt>
      <trkpt lat="42.99178" lon="1.25075">
        <ele>465</ele>
        <time>2025-08-07T12:19:21.000Z</time>
      </trkpt>
      <trkpt lat="42.99214" lon="1.25022">
        <ele>464.60000610352</ele>
        <time>2025-08-07T12:19:31.000Z</time>
      </trkpt>
      <trkpt lat="42.99238" lon="1.24987">
        <ele>464</ele>
        <time>2025-08-07T12:19:38.000Z</time>
      </trkpt>
      <trkpt lat="42.99245" lon="1.24977">
        <ele>463.60000610352</ele>
        <time>2025-08-07T12:19:40.000Z</time>
      </trkpt>
      <trkpt lat="42.99252" lon="1.24968">
        <ele>463.20001220703</ele>
        <time>2025-08-07T12:19:42.000Z</time>
      </trkpt>
      <trkpt lat="42.99288" lon="1.24912">
        <ele>462.60000610352</ele>
        <time>2025-08-07T12:19:53.000Z</time>
      </trkpt>
      <trkpt lat="42.99291" lon="1.24906">
        <ele>462.60000610352</ele>
        <time>2025-08-07T12:19:54.000Z</time>
      </trkpt>
      <trkpt lat="42.99311" lon="1.24866">
        <ele>462.39999389648</ele>
        <time>2025-08-07T12:20:01.000Z</time>
      </trkpt>
      <trkpt lat="42.99332" lon="1.24815">
        <ele>462</ele>
        <time>2025-08-07T12:20:09.000Z</time>
      </trkpt>
      <trkpt lat="42.99347" lon="1.24755">
        <ele>461.79998779297</ele>
        <time>2025-08-07T12:20:18.000Z</time>
      </trkpt>
      <trkpt lat="42.99349" lon="1.24748">
        <ele>461.79998779297</ele>
        <time>2025-08-07T12:20:19.000Z</time>
      </trkpt>
      <trkpt lat="42.99352" lon="1.24734">
        <ele>461.39999389648</ele>
        <time>2025-08-07T12:20:21.000Z</time>
      </trkpt>
      <trkpt lat="42.99359" lon="1.24684">
        <ele>460.60000610352</ele>
        <time>2025-08-07T12:20:28.000Z</time>
      </trkpt>
      <trkpt lat="42.99363" lon="1.2464">
        <ele>460.39999389648</ele>
        <time>2025-08-07T12:20:34.000Z</time>
      </trkpt>
      <trkpt lat="42.99364" lon="1.24625">
        <ele>460.20001220703</ele>
        <time>2025-08-07T12:20:36.000Z</time>
      </trkpt>
      <trkpt lat="42.99368" lon="1.24575">
        <ele>459.79998779297</ele>
        <time>2025-08-07T12:20:43.000Z</time>
      </trkpt>
      <trkpt lat="42.99374" lon="1.24529">
        <ele>459.79998779297</ele>
        <time>2025-08-07T12:20:50.000Z</time>
      </trkpt>
      <trkpt lat="42.99376" lon="1.24517">
        <ele>459.79998779297</ele>
        <time>2025-08-07T12:20:52.000Z</time>
      </trkpt>
      <trkpt lat="42.99379" lon="1.24498">
        <ele>459.79998779297</ele>
        <time>2025-08-07T12:20:55.000Z</time>
      </trkpt>
      <trkpt lat="42.9938" lon="1.24492">
        <ele>459.79998779297</ele>
        <time>2025-08-07T12:20:56.000Z</time>
      </trkpt>
      <trkpt lat="42.99382" lon="1.2448">
        <ele>459.60000610352</ele>
        <time>2025-08-07T12:20:58.000Z</time>
      </trkpt>
      <trkpt lat="42.99384" lon="1.24467">
        <ele>459.39999389648</ele>
        <time>2025-08-07T12:21:00.000Z</time>
      </trkpt>
      <trkpt lat="42.99385" lon="1.24461">
        <ele>459.39999389648</ele>
        <time>2025-08-07T12:21:01.000Z</time>
      </trkpt>
      <trkpt lat="42.99387" lon="1.24454">
        <ele>459.20001220703</ele>
        <time>2025-08-07T12:21:02.000Z</time>
      </trkpt>
      <trkpt lat="42.99393" lon="1.24419">
        <ele>458.79998779297</ele>
        <time>2025-08-07T12:21:07.000Z</time>
      </trkpt>
      <trkpt lat="42.99395" lon="1.24413">
        <ele>458.79998779297</ele>
        <time>2025-08-07T12:21:08.000Z</time>
      </trkpt>
      <trkpt lat="42.99411" lon="1.24358">
        <ele>458.20001220703</ele>
        <time>2025-08-07T12:21:16.000Z</time>
      </trkpt>
      <trkpt lat="42.99416" lon="1.24344">
        <ele>457.79998779297</ele>
        <time>2025-08-07T12:21:18.000Z</time>
      </trkpt>
      <trkpt lat="42.99421" lon="1.24331">
        <ele>457.60000610352</ele>
        <time>2025-08-07T12:21:20.000Z</time>
      </trkpt>
      <trkpt lat="42.99423" lon="1.24324">
        <ele>457.39999389648</ele>
        <time>2025-08-07T12:21:21.000Z</time>
      </trkpt>
      <trkpt lat="42.99428" lon="1.24311">
        <ele>457</ele>
        <time>2025-08-07T12:21:23.000Z</time>
      </trkpt>
      <trkpt lat="42.99447" lon="1.24262">
        <ele>456.20001220703</ele>
        <time>2025-08-07T12:21:31.000Z</time>
      </trkpt>
      <trkpt lat="42.99456" lon="1.24244">
        <ele>456</ele>
        <time>2025-08-07T12:21:35.000Z</time>
      </trkpt>
      <trkpt lat="42.9946" lon="1.24233">
        <ele>456</ele>
        <time>2025-08-07T12:21:37.000Z</time>
      </trkpt>
      <trkpt lat="42.9948" lon="1.2419">
        <ele>455.39999389648</ele>
        <time>2025-08-07T12:21:45.000Z</time>
      </trkpt>
      <trkpt lat="42.9949" lon="1.24166">
        <ele>455</ele>
        <time>2025-08-07T12:21:49.000Z</time>
      </trkpt>
      <trkpt lat="42.99502" lon="1.24136">
        <ele>454.60000610352</ele>
        <time>2025-08-07T12:21:54.000Z</time>
      </trkpt>
      <trkpt lat="42.99513" lon="1.24107">
        <ele>454</ele>
        <time>2025-08-07T12:21:59.000Z</time>
      </trkpt>
      <trkpt lat="42.99525" lon="1.24079">
        <ele>453.60000610352</ele>
        <time>2025-08-07T12:22:04.000Z</time>
      </trkpt>
      <trkpt lat="42.99549" lon="1.24019">
        <ele>453</ele>
        <time>2025-08-07T12:22:14.000Z</time>
      </trkpt>
      <trkpt lat="42.99554" lon="1.24007">
        <ele>453</ele>
        <time>2025-08-07T12:22:16.000Z</time>
      </trkpt>
      <trkpt lat="42.99567" lon="1.23976">
        <ele>452.39999389648</ele>
        <time>2025-08-07T12:22:21.000Z</time>
      </trkpt>
      <trkpt lat="42.99578" lon="1.23944">
        <ele>452.20001220703</ele>
        <time>2025-08-07T12:22:26.000Z</time>
      </trkpt>
      <trkpt lat="42.99582" lon="1.23931">
        <ele>452</ele>
        <time>2025-08-07T12:22:28.000Z</time>
      </trkpt>
      <trkpt lat="42.99597" lon="1.23879">
        <ele>451.60000610352</ele>
        <time>2025-08-07T12:22:36.000Z</time>
      </trkpt>
      <trkpt lat="42.9961" lon="1.23821">
        <ele>451.20001220703</ele>
        <time>2025-08-07T12:22:45.000Z</time>
      </trkpt>
      <trkpt lat="42.99616" lon="1.23797">
        <ele>451.39999389648</ele>
        <time>2025-08-07T12:22:49.000Z</time>
      </trkpt>
      <trkpt lat="42.99618" lon="1.23785">
        <ele>451.39999389648</ele>
        <time>2025-08-07T12:22:51.000Z</time>
      </trkpt>
      <trkpt lat="42.9962" lon="1.2378">
        <ele>451.39999389648</ele>
        <time>2025-08-07T12:22:52.000Z</time>
      </trkpt>
      <trkpt lat="42.99621" lon="1.23774">
        <ele>451.39999389648</ele>
        <time>2025-08-07T12:22:53.000Z</time>
      </trkpt>
      <trkpt lat="42.99626" lon="1.23752">
        <ele>451.39999389648</ele>
        <time>2025-08-07T12:22:57.000Z</time>
      </trkpt>
      <trkpt lat="42.99627" lon="1.23747">
        <ele>451.60000610352</ele>
        <time>2025-08-07T12:22:58.000Z</time>
      </trkpt>
      <trkpt lat="42.99631" lon="1.23737">
        <ele>451.60000610352</ele>
        <time>2025-08-07T12:23:00.000Z</time>
      </trkpt>
      <trkpt lat="42.99639" lon="1.23725">
        <ele>452</ele>
        <time>2025-08-07T12:23:03.000Z</time>
      </trkpt>
      <trkpt lat="42.99642" lon="1.23721">
        <ele>452</ele>
        <time>2025-08-07T12:23:04.000Z</time>
      </trkpt>
      <trkpt lat="42.99659" lon="1.23705">
        <ele>452</ele>
        <time>2025-08-07T12:23:09.000Z</time>
      </trkpt>
      <trkpt lat="42.99681" lon="1.23681">
        <ele>451.79998779297</ele>
        <time>2025-08-07T12:23:16.000Z</time>
      </trkpt>
      <trkpt lat="42.99683" lon="1.23676">
        <ele>451.79998779297</ele>
        <time>2025-08-07T12:23:17.000Z</time>
      </trkpt>
      <trkpt lat="42.99699" lon="1.23644">
        <ele>452.39999389648</ele>
        <time>2025-08-07T12:23:24.000Z</time>
      </trkpt>
      <trkpt lat="42.99701" lon="1.23632">
        <ele>452.20001220703</ele>
        <time>2025-08-07T12:23:26.000Z</time>
      </trkpt>
      <trkpt lat="42.99704" lon="1.23614">
        <ele>452</ele>
        <time>2025-08-07T12:23:29.000Z</time>
      </trkpt>
      <trkpt lat="42.99705" lon="1.23608">
        <ele>452</ele>
        <time>2025-08-07T12:23:30.000Z</time>
      </trkpt>
      <trkpt lat="42.99715" lon="1.23562">
        <ele>451.20001220703</ele>
        <time>2025-08-07T12:23:37.000Z</time>
      </trkpt>
      <trkpt lat="42.99717" lon="1.23555">
        <ele>451.20001220703</ele>
        <time>2025-08-07T12:23:38.000Z</time>
      </trkpt>
      <trkpt lat="42.99722" lon="1.23538">
        <ele>450.79998779297</ele>
        <time>2025-08-07T12:23:40.000Z</time>
      </trkpt>
      <trkpt lat="42.99725" lon="1.23529">
        <ele>450.60000610352</ele>
        <time>2025-08-07T12:23:41.000Z</time>
      </trkpt>
      <trkpt lat="42.99733" lon="1.23493">
        <ele>449.60000610352</ele>
        <time>2025-08-07T12:23:45.000Z</time>
      </trkpt>
      <trkpt lat="42.99739" lon="1.23469">
        <ele>449</ele>
        <time>2025-08-07T12:23:48.000Z</time>
      </trkpt>
      <trkpt lat="42.99742" lon="1.23454">
        <ele>448.60000610352</ele>
        <time>2025-08-07T12:23:50.000Z</time>
      </trkpt>
      <trkpt lat="42.99747" lon="1.23433">
        <ele>448.20001220703</ele>
        <time>2025-08-07T12:23:53.000Z</time>
      </trkpt>
      <trkpt lat="42.99745" lon="1.23421">
        <ele>448.39999389648</ele>
        <time>2025-08-07T12:23:55.000Z</time>
      </trkpt>
      <trkpt lat="42.99741" lon="1.23417">
        <ele>448.20001220703</ele>
        <time>2025-08-07T12:23:56.000Z</time>
      </trkpt>
      <trkpt lat="42.99735" lon="1.23409">
        <ele>448.39999389648</ele>
        <time>2025-08-07T12:23:59.000Z</time>
      </trkpt>
      <trkpt lat="42.99734" lon="1.2339">
        <ele>448.79998779297</ele>
        <time>2025-08-07T12:24:05.000Z</time>
      </trkpt>
      <trkpt lat="42.99739" lon="1.23371">
        <ele>449.79998779297</ele>
        <time>2025-08-07T12:24:11.000Z</time>
      </trkpt>
      <trkpt lat="42.9974" lon="1.23366">
        <ele>449.79998779297</ele>
        <time>2025-08-07T12:24:13.000Z</time>
      </trkpt>
      <trkpt lat="42.99738" lon="1.23355">
        <ele>450.39999389648</ele>
        <time>2025-08-07T12:24:17.000Z</time>
      </trkpt>
      <trkpt lat="42.99737" lon="1.23352">
        <ele>450.60000610352</ele>
        <time>2025-08-07T12:24:18.000Z</time>
      </trkpt>
      <trkpt lat="42.99735" lon="1.23348">
        <ele>450.79998779297</ele>
        <time>2025-08-07T12:24:20.000Z</time>
      </trkpt>
      <trkpt lat="42.99728" lon="1.23336">
        <ele>451</ele>
        <time>2025-08-07T12:24:25.000Z</time>
      </trkpt>
      <trkpt lat="42.99728" lon="1.23333">
        <ele>451.20001220703</ele>
        <time>2025-08-07T12:24:26.000Z</time>
      </trkpt>
      <trkpt lat="42.99734" lon="1.2331">
        <ele>451.39999389648</ele>
        <time>2025-08-07T12:24:32.000Z</time>
      </trkpt>
      <trkpt lat="42.99743" lon="1.23276">
        <ele>451.20001220703</ele>
        <time>2025-08-07T12:24:39.000Z</time>
      </trkpt>
      <trkpt lat="42.99752" lon="1.23239">
        <ele>451</ele>
        <time>2025-08-07T12:24:46.000Z</time>
      </trkpt>
      <trkpt lat="42.99755" lon="1.23227">
        <ele>451</ele>
        <time>2025-08-07T12:24:48.000Z</time>
      </trkpt>
      <trkpt lat="42.99765" lon="1.23173">
        <ele>450.20001220703</ele>
        <time>2025-08-07T12:24:57.000Z</time>
      </trkpt>
      <trkpt lat="42.99766" lon="1.23167">
        <ele>450.20001220703</ele>
        <time>2025-08-07T12:24:58.000Z</time>
      </trkpt>
      <trkpt lat="42.99769" lon="1.23122">
        <ele>449.60000610352</ele>
        <time>2025-08-07T12:25:05.000Z</time>
      </trkpt>
      <trkpt lat="42.99769" lon="1.23115">
        <ele>449.60000610352</ele>
        <time>2025-08-07T12:25:06.000Z</time>
      </trkpt>
      <trkpt lat="42.99768" lon="1.23076">
        <ele>449.39999389648</ele>
        <time>2025-08-07T12:25:12.000Z</time>
      </trkpt>
      <trkpt lat="42.99767" lon="1.23069">
        <ele>449.20001220703</ele>
        <time>2025-08-07T12:25:13.000Z</time>
      </trkpt>
      <trkpt lat="42.99761" lon="1.23017">
        <ele>448.79998779297</ele>
        <time>2025-08-07T12:25:21.000Z</time>
      </trkpt>
      <trkpt lat="42.99757" lon="1.22998">
        <ele>448.60000610352</ele>
        <time>2025-08-07T12:25:24.000Z</time>
      </trkpt>
      <trkpt lat="42.99748" lon="1.2296">
        <ele>448.60000610352</ele>
        <time>2025-08-07T12:25:30.000Z</time>
      </trkpt>
      <trkpt lat="42.99746" lon="1.22954">
        <ele>448.39999389648</ele>
        <time>2025-08-07T12:25:31.000Z</time>
      </trkpt>
      <trkpt lat="42.99737" lon="1.2293">
        <ele>448.20001220703</ele>
        <time>2025-08-07T12:25:35.000Z</time>
      </trkpt>
      <trkpt lat="42.99735" lon="1.22924">
        <ele>448.20001220703</ele>
        <time>2025-08-07T12:25:36.000Z</time>
      </trkpt>
      <trkpt lat="42.9973" lon="1.22911">
        <ele>448.20001220703</ele>
        <time>2025-08-07T12:25:38.000Z</time>
      </trkpt>
      <trkpt lat="42.99719" lon="1.22886">
        <ele>448</ele>
        <time>2025-08-07T12:25:42.000Z</time>
      </trkpt>
      <trkpt lat="42.99711" lon="1.22869">
        <ele>447.79998779297</ele>
        <time>2025-08-07T12:25:45.000Z</time>
      </trkpt>
      <trkpt lat="42.99705" lon="1.22859">
        <ele>447.79998779297</ele>
        <time>2025-08-07T12:25:47.000Z</time>
      </trkpt>
      <trkpt lat="42.99702" lon="1.22853">
        <ele>447.79998779297</ele>
        <time>2025-08-07T12:25:48.000Z</time>
      </trkpt>
      <trkpt lat="42.99687" lon="1.22825">
        <ele>447.60000610352</ele>
        <time>2025-08-07T12:25:53.000Z</time>
      </trkpt>
      <trkpt lat="42.99681" lon="1.22814">
        <ele>447.60000610352</ele>
        <time>2025-08-07T12:25:55.000Z</time>
      </trkpt>
      <trkpt lat="42.99668" lon="1.22791">
        <ele>447.60000610352</ele>
        <time>2025-08-07T12:25:59.000Z</time>
      </trkpt>
      <trkpt lat="42.99663" lon="1.2278">
        <ele>447.39999389648</ele>
        <time>2025-08-07T12:26:01.000Z</time>
      </trkpt>
      <trkpt lat="42.9966" lon="1.22775">
        <ele>447.39999389648</ele>
        <time>2025-08-07T12:26:02.000Z</time>
      </trkpt>
      <trkpt lat="42.99648" lon="1.22756">
        <ele>447.39999389648</ele>
        <time>2025-08-07T12:26:06.000Z</time>
      </trkpt>
      <trkpt lat="42.99637" lon="1.22733">
        <ele>447</ele>
        <time>2025-08-07T12:26:10.000Z</time>
      </trkpt>
      <trkpt lat="42.99631" lon="1.22724">
        <ele>446.79998779297</ele>
        <time>2025-08-07T12:26:12.000Z</time>
      </trkpt>
      <trkpt lat="42.99627" lon="1.22712">
        <ele>446.60000610352</ele>
        <time>2025-08-07T12:26:14.000Z</time>
      </trkpt>
      <trkpt lat="42.99625" lon="1.22707">
        <ele>446.60000610352</ele>
        <time>2025-08-07T12:26:15.000Z</time>
      </trkpt>
      <trkpt lat="42.99618" lon="1.22692">
        <ele>446.39999389648</ele>
        <time>2025-08-07T12:26:18.000Z</time>
      </trkpt>
      <trkpt lat="42.99612" lon="1.22681">
        <ele>446.39999389648</ele>
        <time>2025-08-07T12:26:20.000Z</time>
      </trkpt>
      <trkpt lat="42.99596" lon="1.22655">
        <ele>446.39999389648</ele>
        <time>2025-08-07T12:26:25.000Z</time>
      </trkpt>
      <trkpt lat="42.99594" lon="1.22652">
        <ele>446.20001220703</ele>
        <time>2025-08-07T12:26:27.000Z</time>
      </trkpt>
      <trkpt lat="42.99591" lon="1.2265">
        <ele>446.20001220703</ele>
        <time>2025-08-07T12:26:28.000Z</time>
      </trkpt>
      <trkpt lat="42.99577" lon="1.22631">
        <ele>445.60000610352</ele>
        <time>2025-08-07T12:26:32.000Z</time>
      </trkpt>
      <trkpt lat="42.99566" lon="1.22613">
        <ele>445.39999389648</ele>
        <time>2025-08-07T12:26:35.000Z</time>
      </trkpt>
      <trkpt lat="42.99558" lon="1.22602">
        <ele>445.39999389648</ele>
        <time>2025-08-07T12:26:37.000Z</time>
      </trkpt>
      <trkpt lat="42.99554" lon="1.22597">
        <ele>445.39999389648</ele>
        <time>2025-08-07T12:26:38.000Z</time>
      </trkpt>
      <trkpt lat="42.99537" lon="1.22575">
        <ele>444.79998779297</ele>
        <time>2025-08-07T12:26:42.000Z</time>
      </trkpt>
      <trkpt lat="42.99533" lon="1.22569">
        <ele>444.79998779297</ele>
        <time>2025-08-07T12:26:43.000Z</time>
      </trkpt>
      <trkpt lat="42.99528" lon="1.22565">
        <ele>444.60000610352</ele>
        <time>2025-08-07T12:26:44.000Z</time>
      </trkpt>
      <trkpt lat="42.99516" lon="1.22554">
        <ele>444.60000610352</ele>
        <time>2025-08-07T12:26:47.000Z</time>
      </trkpt>
      <trkpt lat="42.99505" lon="1.22541">
        <ele>444.39999389648</ele>
        <time>2025-08-07T12:26:50.000Z</time>
      </trkpt>
      <trkpt lat="42.99496" lon="1.22534">
        <ele>444.60000610352</ele>
        <time>2025-08-07T12:26:52.000Z</time>
      </trkpt>
      <trkpt lat="42.99458" lon="1.22511">
        <ele>444.39999389648</ele>
        <time>2025-08-07T12:27:00.000Z</time>
      </trkpt>
      <trkpt lat="42.99441" lon="1.22506">
        <ele>444.20001220703</ele>
        <time>2025-08-07T12:27:03.000Z</time>
      </trkpt>
      <trkpt lat="42.99433" lon="1.22504">
        <ele>444.20001220703</ele>
        <time>2025-08-07T12:27:05.000Z</time>
      </trkpt>
      <trkpt lat="42.9941" lon="1.22492">
        <ele>443.60000610352</ele>
        <time>2025-08-07T12:27:10.000Z</time>
      </trkpt>
      <trkpt lat="42.99388" lon="1.22488">
        <ele>443.20001220703</ele>
        <time>2025-08-07T12:27:15.000Z</time>
      </trkpt>
      <trkpt lat="42.99374" lon="1.22484">
        <ele>443.20001220703</ele>
        <time>2025-08-07T12:27:18.000Z</time>
      </trkpt>
      <trkpt lat="42.99336" lon="1.22472">
        <ele>442.39999389648</ele>
        <time>2025-08-07T12:27:25.000Z</time>
      </trkpt>
      <trkpt lat="42.99331" lon="1.2247">
        <ele>442.39999389648</ele>
        <time>2025-08-07T12:27:26.000Z</time>
      </trkpt>
      <trkpt lat="42.9932" lon="1.22464">
        <ele>442.20001220703</ele>
        <time>2025-08-07T12:27:28.000Z</time>
      </trkpt>
      <trkpt lat="42.99287" lon="1.2245">
        <ele>441.60000610352</ele>
        <time>2025-08-07T12:27:34.000Z</time>
      </trkpt>
      <trkpt lat="42.99268" lon="1.22438">
        <ele>441.60000610352</ele>
        <time>2025-08-07T12:27:38.000Z</time>
      </trkpt>
      <trkpt lat="42.99255" lon="1.22429">
        <ele>441.39999389648</ele>
        <time>2025-08-07T12:27:41.000Z</time>
      </trkpt>
      <trkpt lat="42.99243" lon="1.22419">
        <ele>441.20001220703</ele>
        <time>2025-08-07T12:27:44.000Z</time>
      </trkpt>
      <trkpt lat="42.99239" lon="1.22416">
        <ele>441.20001220703</ele>
        <time>2025-08-07T12:27:45.000Z</time>
      </trkpt>
      <trkpt lat="42.99231" lon="1.22408">
        <ele>441.20001220703</ele>
        <time>2025-08-07T12:27:47.000Z</time>
      </trkpt>
      <trkpt lat="42.9922" lon="1.22399">
        <ele>441.20001220703</ele>
        <time>2025-08-07T12:27:50.000Z</time>
      </trkpt>
      <trkpt lat="42.99217" lon="1.22396">
        <ele>441.20001220703</ele>
        <time>2025-08-07T12:27:51.000Z</time>
      </trkpt>
      <trkpt lat="42.99204" lon="1.22382">
        <ele>441.39999389648</ele>
        <time>2025-08-07T12:27:55.000Z</time>
      </trkpt>
      <trkpt lat="42.99189" lon="1.22361">
        <ele>441</ele>
        <time>2025-08-07T12:28:00.000Z</time>
      </trkpt>
      <trkpt lat="42.99179" lon="1.22345">
        <ele>441</ele>
        <time>2025-08-07T12:28:03.000Z</time>
      </trkpt>
      <trkpt lat="42.99169" lon="1.22326">
        <ele>440.79998779297</ele>
        <time>2025-08-07T12:28:06.000Z</time>
      </trkpt>
      <trkpt lat="42.99158" lon="1.22309">
        <ele>440.60000610352</ele>
        <time>2025-08-07T12:28:09.000Z</time>
      </trkpt>
      <trkpt lat="42.99146" lon="1.2228">
        <ele>440.20001220703</ele>
        <time>2025-08-07T12:28:14.000Z</time>
      </trkpt>
      <trkpt lat="42.99137" lon="1.22262">
        <ele>439.79998779297</ele>
        <time>2025-08-07T12:28:17.000Z</time>
      </trkpt>
      <trkpt lat="42.99134" lon="1.22251">
        <ele>439.39999389648</ele>
        <time>2025-08-07T12:28:19.000Z</time>
      </trkpt>
      <trkpt lat="42.99131" lon="1.22239">
        <ele>439</ele>
        <time>2025-08-07T12:28:21.000Z</time>
      </trkpt>
      <trkpt lat="42.9913" lon="1.22233">
        <ele>439</ele>
        <time>2025-08-07T12:28:22.000Z</time>
      </trkpt>
      <trkpt lat="42.99126" lon="1.22217">
        <ele>438.60000610352</ele>
        <time>2025-08-07T12:28:25.000Z</time>
      </trkpt>
      <trkpt lat="42.99126" lon="1.22204">
        <ele>438.60000610352</ele>
        <time>2025-08-07T12:28:28.000Z</time>
      </trkpt>
      <trkpt lat="42.99127" lon="1.22189">
        <ele>438.39999389648</ele>
        <time>2025-08-07T12:28:31.000Z</time>
      </trkpt>
      <trkpt lat="42.99125" lon="1.22177">
        <ele>438.60000610352</ele>
        <time>2025-08-07T12:28:33.000Z</time>
      </trkpt>
      <trkpt lat="42.99122" lon="1.22146">
        <ele>438.20001220703</ele>
        <time>2025-08-07T12:28:38.000Z</time>
      </trkpt>
      <trkpt lat="42.99121" lon="1.22113">
        <ele>437.60000610352</ele>
        <time>2025-08-07T12:28:43.000Z</time>
      </trkpt>
      <trkpt lat="42.9912" lon="1.22088">
        <ele>437.20001220703</ele>
        <time>2025-08-07T12:28:47.000Z</time>
      </trkpt>
      <trkpt lat="42.99118" lon="1.22063">
        <ele>437</ele>
        <time>2025-08-07T12:28:51.000Z</time>
      </trkpt>
      <trkpt lat="42.99122" lon="1.22027">
        <ele>436.79998779297</ele>
        <time>2025-08-07T12:28:57.000Z</time>
      </trkpt>
      <trkpt lat="42.99129" lon="1.21991">
        <ele>437</ele>
        <time>2025-08-07T12:29:03.000Z</time>
      </trkpt>
      <trkpt lat="42.99133" lon="1.21973">
        <ele>436.79998779297</ele>
        <time>2025-08-07T12:29:06.000Z</time>
      </trkpt>
      <trkpt lat="42.99137" lon="1.21955">
        <ele>436.79998779297</ele>
        <time>2025-08-07T12:29:09.000Z</time>
      </trkpt>
      <trkpt lat="42.9914" lon="1.21943">
        <ele>436.79998779297</ele>
        <time>2025-08-07T12:29:11.000Z</time>
      </trkpt>
      <trkpt lat="42.99153" lon="1.219">
        <ele>437</ele>
        <time>2025-08-07T12:29:18.000Z</time>
      </trkpt>
      <trkpt lat="42.99159" lon="1.21881">
        <ele>437</ele>
        <time>2025-08-07T12:29:21.000Z</time>
      </trkpt>
      <trkpt lat="42.99165" lon="1.21862">
        <ele>436.79998779297</ele>
        <time>2025-08-07T12:29:24.000Z</time>
      </trkpt>
      <trkpt lat="42.99178" lon="1.21813">
        <ele>436.39999389648</ele>
        <time>2025-08-07T12:29:32.000Z</time>
      </trkpt>
      <trkpt lat="42.99186" lon="1.21777">
        <ele>436.39999389648</ele>
        <time>2025-08-07T12:29:38.000Z</time>
      </trkpt>
      <trkpt lat="42.99196" lon="1.21726">
        <ele>436.39999389648</ele>
        <time>2025-08-07T12:29:46.000Z</time>
      </trkpt>
      <trkpt lat="42.99201" lon="1.21688">
        <ele>436.39999389648</ele>
        <time>2025-08-07T12:29:52.000Z</time>
      </trkpt>
      <trkpt lat="42.99202" lon="1.21682">
        <ele>436.39999389648</ele>
        <time>2025-08-07T12:29:53.000Z</time>
      </trkpt>
      <trkpt lat="42.99203" lon="1.21676">
        <ele>436.39999389648</ele>
        <time>2025-08-07T12:29:54.000Z</time>
      </trkpt>
      <trkpt lat="42.99206" lon="1.21638">
        <ele>436.20001220703</ele>
        <time>2025-08-07T12:30:00.000Z</time>
      </trkpt>
      <trkpt lat="42.99207" lon="1.21587">
        <ele>435.60000610352</ele>
        <time>2025-08-07T12:30:08.000Z</time>
      </trkpt>
      <trkpt lat="42.99208" lon="1.21534">
        <ele>435.60000610352</ele>
        <time>2025-08-07T12:30:16.000Z</time>
      </trkpt>
      <trkpt lat="42.99207" lon="1.21475">
        <ele>435.20001220703</ele>
        <time>2025-08-07T12:30:25.000Z</time>
      </trkpt>
      <trkpt lat="42.99208" lon="1.21469">
        <ele>435.20001220703</ele>
        <time>2025-08-07T12:30:26.000Z</time>
      </trkpt>
      <trkpt lat="42.99207" lon="1.21453">
        <ele>435</ele>
        <time>2025-08-07T12:30:29.000Z</time>
      </trkpt>
      <trkpt lat="42.99205" lon="1.21421">
        <ele>435</ele>
        <time>2025-08-07T12:30:35.000Z</time>
      </trkpt>
      <trkpt lat="42.99205" lon="1.21395">
        <ele>435.20001220703</ele>
        <time>2025-08-07T12:30:40.000Z</time>
      </trkpt>
      <trkpt lat="42.992" lon="1.21353">
        <ele>435</ele>
        <time>2025-08-07T12:30:48.000Z</time>
      </trkpt>
      <trkpt lat="42.99196" lon="1.21313">
        <ele>434.79998779297</ele>
        <time>2025-08-07T12:30:54.000Z</time>
      </trkpt>
      <trkpt lat="42.99195" lon="1.213">
        <ele>434.60000610352</ele>
        <time>2025-08-07T12:30:56.000Z</time>
      </trkpt>
      <trkpt lat="42.99191" lon="1.21273">
        <ele>434.39999389648</ele>
        <time>2025-08-07T12:31:00.000Z</time>
      </trkpt>
      <trkpt lat="42.99188" lon="1.21234">
        <ele>434.20001220703</ele>
        <time>2025-08-07T12:31:06.000Z</time>
      </trkpt>
      <trkpt lat="42.99186" lon="1.21222">
        <ele>434</ele>
        <time>2025-08-07T12:31:08.000Z</time>
      </trkpt>
      <trkpt lat="42.99182" lon="1.21152">
        <ele>433.20001220703</ele>
        <time>2025-08-07T12:31:19.000Z</time>
      </trkpt>
      <trkpt lat="42.99182" lon="1.21145">
        <ele>433</ele>
        <time>2025-08-07T12:31:20.000Z</time>
      </trkpt>
      <trkpt lat="42.99182" lon="1.21139">
        <ele>433</ele>
        <time>2025-08-07T12:31:21.000Z</time>
      </trkpt>
      <trkpt lat="42.99182" lon="1.21125">
        <ele>432.79998779297</ele>
        <time>2025-08-07T12:31:23.000Z</time>
      </trkpt>
      <trkpt lat="42.99183" lon="1.21105">
        <ele>432.60000610352</ele>
        <time>2025-08-07T12:31:26.000Z</time>
      </trkpt>
      <trkpt lat="42.99184" lon="1.21058">
        <ele>432.39999389648</ele>
        <time>2025-08-07T12:31:33.000Z</time>
      </trkpt>
      <trkpt lat="42.99185" lon="1.21031">
        <ele>432.39999389648</ele>
        <time>2025-08-07T12:31:37.000Z</time>
      </trkpt>
      <trkpt lat="42.99188" lon="1.20992">
        <ele>432.20001220703</ele>
        <time>2025-08-07T12:31:43.000Z</time>
      </trkpt>
      <trkpt lat="42.99191" lon="1.20954">
        <ele>431.79998779297</ele>
        <time>2025-08-07T12:31:49.000Z</time>
      </trkpt>
      <trkpt lat="42.99197" lon="1.20898">
        <ele>431.20001220703</ele>
        <time>2025-08-07T12:31:58.000Z</time>
      </trkpt>
      <trkpt lat="42.99198" lon="1.20892">
        <ele>431</ele>
        <time>2025-08-07T12:31:59.000Z</time>
      </trkpt>
      <trkpt lat="42.99204" lon="1.20831">
        <ele>430.60000610352</ele>
        <time>2025-08-07T12:32:08.000Z</time>
      </trkpt>
      <trkpt lat="42.99208" lon="1.20784">
        <ele>430.39999389648</ele>
        <time>2025-08-07T12:32:15.000Z</time>
      </trkpt>
      <trkpt lat="42.99214" lon="1.20731">
        <ele>430.39999389648</ele>
        <time>2025-08-07T12:32:23.000Z</time>
      </trkpt>
      <trkpt lat="42.99221" lon="1.20679">
        <ele>430.39999389648</ele>
        <time>2025-08-07T12:32:31.000Z</time>
      </trkpt>
      <trkpt lat="42.99226" lon="1.20622">
        <ele>430.20001220703</ele>
        <time>2025-08-07T12:32:40.000Z</time>
      </trkpt>
      <trkpt lat="42.99228" lon="1.20609">
        <ele>430.39999389648</ele>
        <time>2025-08-07T12:32:42.000Z</time>
      </trkpt>
      <trkpt lat="42.99233" lon="1.20571">
        <ele>430</ele>
        <time>2025-08-07T12:32:48.000Z</time>
      </trkpt>
      <trkpt lat="42.99239" lon="1.20504">
        <ele>429.60000610352</ele>
        <time>2025-08-07T12:32:59.000Z</time>
      </trkpt>
      <trkpt lat="42.99247" lon="1.20443">
        <ele>429.39999389648</ele>
        <time>2025-08-07T12:33:09.000Z</time>
      </trkpt>
      <trkpt lat="42.99248" lon="1.20431">
        <ele>429.20001220703</ele>
        <time>2025-08-07T12:33:11.000Z</time>
      </trkpt>
      <trkpt lat="42.99253" lon="1.20386">
        <ele>429</ele>
        <time>2025-08-07T12:33:18.000Z</time>
      </trkpt>
      <trkpt lat="42.99256" lon="1.2036">
        <ele>428.79998779297</ele>
        <time>2025-08-07T12:33:22.000Z</time>
      </trkpt>
      <trkpt lat="42.99258" lon="1.20334">
        <ele>428.39999389648</ele>
        <time>2025-08-07T12:33:26.000Z</time>
      </trkpt>
      <trkpt lat="42.99259" lon="1.20327">
        <ele>428.20001220703</ele>
        <time>2025-08-07T12:33:27.000Z</time>
      </trkpt>
      <trkpt lat="42.99267" lon="1.20277">
        <ele>428</ele>
        <time>2025-08-07T12:33:35.000Z</time>
      </trkpt>
      <trkpt lat="42.99276" lon="1.20211">
        <ele>427.60000610352</ele>
        <time>2025-08-07T12:33:45.000Z</time>
      </trkpt>
      <trkpt lat="42.99285" lon="1.2017">
        <ele>427.39999389648</ele>
        <time>2025-08-07T12:33:52.000Z</time>
      </trkpt>
      <trkpt lat="42.99301" lon="1.20123">
        <ele>427.20001220703</ele>
        <time>2025-08-07T12:34:00.000Z</time>
      </trkpt>
      <trkpt lat="42.99303" lon="1.20117">
        <ele>427.20001220703</ele>
        <time>2025-08-07T12:34:01.000Z</time>
      </trkpt>
      <trkpt lat="42.99309" lon="1.20105">
        <ele>427.39999389648</ele>
        <time>2025-08-07T12:34:03.000Z</time>
      </trkpt>
      <trkpt lat="42.99319" lon="1.20083">
        <ele>427.20001220703</ele>
        <time>2025-08-07T12:34:07.000Z</time>
      </trkpt>
      <trkpt lat="42.99322" lon="1.20078">
        <ele>427.20001220703</ele>
        <time>2025-08-07T12:34:08.000Z</time>
      </trkpt>
      <trkpt lat="42.9934" lon="1.20039">
        <ele>427.20001220703</ele>
        <time>2025-08-07T12:34:15.000Z</time>
      </trkpt>
      <trkpt lat="42.99343" lon="1.20034">
        <ele>427.20001220703</ele>
        <time>2025-08-07T12:34:16.000Z</time>
      </trkpt>
      <trkpt lat="42.99348" lon="1.20024">
        <ele>427.20001220703</ele>
        <time>2025-08-07T12:34:18.000Z</time>
      </trkpt>
      <trkpt lat="42.99356" lon="1.20007">
        <ele>427.20001220703</ele>
        <time>2025-08-07T12:34:21.000Z</time>
      </trkpt>
      <trkpt lat="42.99358" lon="1.20002">
        <ele>427.20001220703</ele>
        <time>2025-08-07T12:34:22.000Z</time>
      </trkpt>
      <trkpt lat="42.99367" lon="1.19979">
        <ele>427.20001220703</ele>
        <time>2025-08-07T12:34:26.000Z</time>
      </trkpt>
      <trkpt lat="42.99386" lon="1.19941">
        <ele>427.20001220703</ele>
        <time>2025-08-07T12:34:33.000Z</time>
      </trkpt>
      <trkpt lat="42.99391" lon="1.19931">
        <ele>427.20001220703</ele>
        <time>2025-08-07T12:34:35.000Z</time>
      </trkpt>
      <trkpt lat="42.99395" lon="1.19919">
        <ele>427.20001220703</ele>
        <time>2025-08-07T12:34:37.000Z</time>
      </trkpt>
      <trkpt lat="42.99397" lon="1.19913">
        <ele>427</ele>
        <time>2025-08-07T12:34:38.000Z</time>
      </trkpt>
      <trkpt lat="42.994" lon="1.19906">
        <ele>427</ele>
        <time>2025-08-07T12:34:39.000Z</time>
      </trkpt>
      <trkpt lat="42.99409" lon="1.19889">
        <ele>427</ele>
        <time>2025-08-07T12:34:42.000Z</time>
      </trkpt>
      <trkpt lat="42.99411" lon="1.19883">
        <ele>427.20001220703</ele>
        <time>2025-08-07T12:34:43.000Z</time>
      </trkpt>
      <trkpt lat="42.99413" lon="1.19876">
        <ele>427.20001220703</ele>
        <time>2025-08-07T12:34:44.000Z</time>
      </trkpt>
      <trkpt lat="42.99421" lon="1.19858">
        <ele>427.39999389648</ele>
        <time>2025-08-07T12:34:47.000Z</time>
      </trkpt>
      <trkpt lat="42.9942" lon="1.19843">
        <ele>427.39999389648</ele>
        <time>2025-08-07T12:34:49.000Z</time>
      </trkpt>
      <trkpt lat="42.99423" lon="1.19829">
        <ele>427.39999389648</ele>
        <time>2025-08-07T12:34:51.000Z</time>
      </trkpt>
      <trkpt lat="42.99428" lon="1.19814">
        <ele>427.39999389648</ele>
        <time>2025-08-07T12:34:53.000Z</time>
      </trkpt>
      <trkpt lat="42.99428" lon="1.19794">
        <ele>427.39999389648</ele>
        <time>2025-08-07T12:34:56.000Z</time>
      </trkpt>
      <trkpt lat="42.99426" lon="1.19779">
        <ele>427.39999389648</ele>
        <time>2025-08-07T12:34:58.000Z</time>
      </trkpt>
      <trkpt lat="42.99426" lon="1.19767">
        <ele>427.39999389648</ele>
        <time>2025-08-07T12:35:00.000Z</time>
      </trkpt>
      <trkpt lat="42.99431" lon="1.19746">
        <ele>427.39999389648</ele>
        <time>2025-08-07T12:35:03.000Z</time>
      </trkpt>
      <trkpt lat="42.99433" lon="1.1972">
        <ele>427.20001220703</ele>
        <time>2025-08-07T12:35:07.000Z</time>
      </trkpt>
      <trkpt lat="42.99431" lon="1.19708">
        <ele>427.20001220703</ele>
        <time>2025-08-07T12:35:09.000Z</time>
      </trkpt>
      <trkpt lat="42.99428" lon="1.19698">
        <ele>427.20001220703</ele>
        <time>2025-08-07T12:35:11.000Z</time>
      </trkpt>
      <trkpt lat="42.99427" lon="1.19684">
        <ele>427.20001220703</ele>
        <time>2025-08-07T12:35:13.000Z</time>
      </trkpt>
      <trkpt lat="42.99426" lon="1.19671">
        <ele>427.20001220703</ele>
        <time>2025-08-07T12:35:15.000Z</time>
      </trkpt>
      <trkpt lat="42.99429" lon="1.19659">
        <ele>427.39999389648</ele>
        <time>2025-08-07T12:35:17.000Z</time>
      </trkpt>
      <trkpt lat="42.9943" lon="1.19654">
        <ele>427.39999389648</ele>
        <time>2025-08-07T12:35:18.000Z</time>
      </trkpt>
      <trkpt lat="42.9943" lon="1.19648">
        <ele>427.39999389648</ele>
        <time>2025-08-07T12:35:19.000Z</time>
      </trkpt>
      <trkpt lat="42.99431" lon="1.19628">
        <ele>427.39999389648</ele>
        <time>2025-08-07T12:35:22.000Z</time>
      </trkpt>
      <trkpt lat="42.99431" lon="1.19603">
        <ele>427.39999389648</ele>
        <time>2025-08-07T12:35:26.000Z</time>
      </trkpt>
      <trkpt lat="42.99429" lon="1.19597">
        <ele>427.39999389648</ele>
        <time>2025-08-07T12:35:27.000Z</time>
      </trkpt>
      <trkpt lat="42.99417" lon="1.1956">
        <ele>427.20001220703</ele>
        <time>2025-08-07T12:35:33.000Z</time>
      </trkpt>
      <trkpt lat="42.99403" lon="1.19516">
        <ele>426.79998779297</ele>
        <time>2025-08-07T12:35:40.000Z</time>
      </trkpt>
      <trkpt lat="42.99396" lon="1.19496">
        <ele>426.39999389648</ele>
        <time>2025-08-07T12:35:44.000Z</time>
      </trkpt>
      <trkpt lat="42.99391" lon="1.19481">
        <ele>426.20001220703</ele>
        <time>2025-08-07T12:35:47.000Z</time>
      </trkpt>
      <trkpt lat="42.9939" lon="1.19475">
        <ele>426.20001220703</ele>
        <time>2025-08-07T12:35:48.000Z</time>
      </trkpt>
      <trkpt lat="42.99388" lon="1.1947">
        <ele>426</ele>
        <time>2025-08-07T12:35:49.000Z</time>
      </trkpt>
      <trkpt lat="42.9938" lon="1.19442">
        <ele>425.60000610352</ele>
        <time>2025-08-07T12:35:54.000Z</time>
      </trkpt>
      <trkpt lat="42.99374" lon="1.1942">
        <ele>425</ele>
        <time>2025-08-07T12:35:58.000Z</time>
      </trkpt>
      <trkpt lat="42.99368" lon="1.19398">
        <ele>424.79998779297</ele>
        <time>2025-08-07T12:36:02.000Z</time>
      </trkpt>
      <trkpt lat="42.99356" lon="1.19339">
        <ele>424.39999389648</ele>
        <time>2025-08-07T12:36:12.000Z</time>
      </trkpt>
      <trkpt lat="42.99356" lon="1.19334">
        <ele>424.39999389648</ele>
        <time>2025-08-07T12:36:13.000Z</time>
      </trkpt>
      <trkpt lat="42.99355" lon="1.19319">
        <ele>424.60000610352</ele>
        <time>2025-08-07T12:36:16.000Z</time>
      </trkpt>
      <trkpt lat="42.99355" lon="1.19301">
        <ele>424.60000610352</ele>
        <time>2025-08-07T12:36:19.000Z</time>
      </trkpt>
      <trkpt lat="42.99355" lon="1.19287">
        <ele>424.60000610352</ele>
        <time>2025-08-07T12:36:21.000Z</time>
      </trkpt>
      <trkpt lat="42.99354" lon="1.19275">
        <ele>424.60000610352</ele>
        <time>2025-08-07T12:36:23.000Z</time>
      </trkpt>
      <trkpt lat="42.99354" lon="1.19255">
        <ele>424.60000610352</ele>
        <time>2025-08-07T12:36:26.000Z</time>
      </trkpt>
      <trkpt lat="42.99355" lon="1.19249">
        <ele>424.60000610352</ele>
        <time>2025-08-07T12:36:27.000Z</time>
      </trkpt>
      <trkpt lat="42.99357" lon="1.19234">
        <ele>424.60000610352</ele>
        <time>2025-08-07T12:36:29.000Z</time>
      </trkpt>
      <trkpt lat="42.99359" lon="1.19228">
        <ele>424.60000610352</ele>
        <time>2025-08-07T12:36:30.000Z</time>
      </trkpt>
      <trkpt lat="42.9936" lon="1.19223">
        <ele>424.39999389648</ele>
        <time>2025-08-07T12:36:31.000Z</time>
      </trkpt>
      <trkpt lat="42.99363" lon="1.19203">
        <ele>424.39999389648</ele>
        <time>2025-08-07T12:36:34.000Z</time>
      </trkpt>
      <trkpt lat="42.99369" lon="1.19176">
        <ele>424.39999389648</ele>
        <time>2025-08-07T12:36:38.000Z</time>
      </trkpt>
      <trkpt lat="42.9937" lon="1.19165">
        <ele>424.39999389648</ele>
        <time>2025-08-07T12:36:40.000Z</time>
      </trkpt>
      <trkpt lat="42.99373" lon="1.1916">
        <ele>424.39999389648</ele>
        <time>2025-08-07T12:36:41.000Z</time>
      </trkpt>
      <trkpt lat="42.9938" lon="1.19146">
        <ele>424.20001220703</ele>
        <time>2025-08-07T12:36:43.000Z</time>
      </trkpt>
      <trkpt lat="42.99384" lon="1.19134">
        <ele>424</ele>
        <time>2025-08-07T12:36:45.000Z</time>
      </trkpt>
      <trkpt lat="42.99402" lon="1.19089">
        <ele>423.79998779297</ele>
        <time>2025-08-07T12:36:53.000Z</time>
      </trkpt>
      <trkpt lat="42.99429" lon="1.19021">
        <ele>423.39999389648</ele>
        <time>2025-08-07T12:37:05.000Z</time>
      </trkpt>
      <trkpt lat="42.99436" lon="1.19004">
        <ele>423</ele>
        <time>2025-08-07T12:37:08.000Z</time>
      </trkpt>
      <trkpt lat="42.99449" lon="1.1897">
        <ele>422.39999389648</ele>
        <time>2025-08-07T12:37:14.000Z</time>
      </trkpt>
      <trkpt lat="42.99452" lon="1.18958">
        <ele>422.39999389648</ele>
        <time>2025-08-07T12:37:16.000Z</time>
      </trkpt>
      <trkpt lat="42.99456" lon="1.1894">
        <ele>422.20001220703</ele>
        <time>2025-08-07T12:37:19.000Z</time>
      </trkpt>
      <trkpt lat="42.99464" lon="1.18898">
        <ele>422</ele>
        <time>2025-08-07T12:37:26.000Z</time>
      </trkpt>
      <trkpt lat="42.99469" lon="1.18866">
        <ele>422.39999389648</ele>
        <time>2025-08-07T12:37:31.000Z</time>
      </trkpt>
      <trkpt lat="42.99469" lon="1.1886">
        <ele>422.39999389648</ele>
        <time>2025-08-07T12:37:32.000Z</time>
      </trkpt>
      <trkpt lat="42.99472" lon="1.18846">
        <ele>422.39999389648</ele>
        <time>2025-08-07T12:37:34.000Z</time>
      </trkpt>
      <trkpt lat="42.99472" lon="1.18831">
        <ele>422.60000610352</ele>
        <time>2025-08-07T12:37:36.000Z</time>
      </trkpt>
      <trkpt lat="42.9947" lon="1.18823">
        <ele>422.60000610352</ele>
        <time>2025-08-07T12:37:38.000Z</time>
      </trkpt>
      <trkpt lat="42.99472" lon="1.18809">
        <ele>422.79998779297</ele>
        <time>2025-08-07T12:37:40.000Z</time>
      </trkpt>
      <trkpt lat="42.99477" lon="1.18791">
        <ele>422.79998779297</ele>
        <time>2025-08-07T12:37:43.000Z</time>
      </trkpt>
      <trkpt lat="42.99473" lon="1.18765">
        <ele>423</ele>
        <time>2025-08-07T12:37:47.000Z</time>
      </trkpt>
      <trkpt lat="42.99473" lon="1.18744">
        <ele>423</ele>
        <time>2025-08-07T12:37:50.000Z</time>
      </trkpt>
      <trkpt lat="42.99468" lon="1.18723">
        <ele>423</ele>
        <time>2025-08-07T12:37:53.000Z</time>
      </trkpt>
      <trkpt lat="42.99467" lon="1.1871">
        <ele>423</ele>
        <time>2025-08-07T12:37:55.000Z</time>
      </trkpt>
      <trkpt lat="42.99465" lon="1.18699">
        <ele>422.79998779297</ele>
        <time>2025-08-07T12:37:57.000Z</time>
      </trkpt>
      <trkpt lat="42.99462" lon="1.18687">
        <ele>422.79998779297</ele>
        <time>2025-08-07T12:37:59.000Z</time>
      </trkpt>
      <trkpt lat="42.99459" lon="1.18675">
        <ele>422.79998779297</ele>
        <time>2025-08-07T12:38:01.000Z</time>
      </trkpt>
      <trkpt lat="42.99454" lon="1.18662">
        <ele>423</ele>
        <time>2025-08-07T12:38:04.000Z</time>
      </trkpt>
      <trkpt lat="42.9945" lon="1.18652">
        <ele>422.79998779297</ele>
        <time>2025-08-07T12:38:07.000Z</time>
      </trkpt>
      <trkpt lat="42.9944" lon="1.18631">
        <ele>422.79998779297</ele>
        <time>2025-08-07T12:38:11.000Z</time>
      </trkpt>
      <trkpt lat="42.99426" lon="1.18599">
        <ele>422.60000610352</ele>
        <time>2025-08-07T12:38:16.000Z</time>
      </trkpt>
      <trkpt lat="42.99413" lon="1.18565">
        <ele>422.39999389648</ele>
        <time>2025-08-07T12:38:22.000Z</time>
      </trkpt>
      <trkpt lat="42.9941" lon="1.18553">
        <ele>422.39999389648</ele>
        <time>2025-08-07T12:38:24.000Z</time>
      </trkpt>
      <trkpt lat="42.99406" lon="1.18534">
        <ele>422.39999389648</ele>
        <time>2025-08-07T12:38:27.000Z</time>
      </trkpt>
      <trkpt lat="42.99402" lon="1.18521">
        <ele>422.39999389648</ele>
        <time>2025-08-07T12:38:28.000Z</time>
      </trkpt>
      <trkpt lat="42.99401" lon="1.18502">
        <ele>422.39999389648</ele>
        <time>2025-08-07T12:38:32.000Z</time>
      </trkpt>
      <trkpt lat="42.99403" lon="1.18476">
        <ele>422.39999389648</ele>
        <time>2025-08-07T12:38:36.000Z</time>
      </trkpt>
      <trkpt lat="42.99405" lon="1.1847">
        <ele>422.39999389648</ele>
        <time>2025-08-07T12:38:37.000Z</time>
      </trkpt>
      <trkpt lat="42.99397" lon="1.18441">
        <ele>422.39999389648</ele>
        <time>2025-08-07T12:38:40.000Z</time>
      </trkpt>
      <trkpt lat="42.99393" lon="1.18416">
        <ele>422.39999389648</ele>
        <time>2025-08-07T12:38:44.000Z</time>
      </trkpt>
      <trkpt lat="42.99391" lon="1.18404">
        <ele>422.39999389648</ele>
        <time>2025-08-07T12:38:46.000Z</time>
      </trkpt>
      <trkpt lat="42.99391" lon="1.18404">
        <ele>422.60000610352</ele>
        <time>2025-08-07T12:38:47.000Z</time>
      </trkpt>
      <trkpt lat="42.99387" lon="1.18378">
        <ele>422.39999389648</ele>
        <time>2025-08-07T12:38:51.000Z</time>
      </trkpt>
      <trkpt lat="42.99385" lon="1.18358">
        <ele>422.20001220703</ele>
        <time>2025-08-07T12:38:54.000Z</time>
      </trkpt>
      <trkpt lat="42.99379" lon="1.1834">
        <ele>421.79998779297</ele>
        <time>2025-08-07T12:38:56.000Z</time>
      </trkpt>
      <trkpt lat="42.99378" lon="1.18327">
        <ele>421.79998779297</ele>
        <time>2025-08-07T12:38:58.000Z</time>
      </trkpt>
      <trkpt lat="42.99379" lon="1.18321">
        <ele>421.79998779297</ele>
        <time>2025-08-07T12:38:59.000Z</time>
      </trkpt>
      <trkpt lat="42.99376" lon="1.18294">
        <ele>421.79998779297</ele>
        <time>2025-08-07T12:39:03.000Z</time>
      </trkpt>
      <trkpt lat="42.99374" lon="1.18283">
        <ele>421.79998779297</ele>
        <time>2025-08-07T12:39:05.000Z</time>
      </trkpt>
      <trkpt lat="42.99371" lon="1.18257">
        <ele>421.39999389648</ele>
        <time>2025-08-07T12:39:10.000Z</time>
      </trkpt>
      <trkpt lat="42.9937" lon="1.18246">
        <ele>421.20001220703</ele>
        <time>2025-08-07T12:39:12.000Z</time>
      </trkpt>
      <trkpt lat="42.9937" lon="1.18228">
        <ele>421</ele>
        <time>2025-08-07T12:39:15.000Z</time>
      </trkpt>
      <trkpt lat="42.99369" lon="1.18202">
        <ele>420.79998779297</ele>
        <time>2025-08-07T12:39:20.000Z</time>
      </trkpt>
      <trkpt lat="42.99369" lon="1.1819">
        <ele>420.60000610352</ele>
        <time>2025-08-07T12:39:22.000Z</time>
      </trkpt>
      <trkpt lat="42.99368" lon="1.18163">
        <ele>420.39999389648</ele>
        <time>2025-08-07T12:39:26.000Z</time>
      </trkpt>
      <trkpt lat="42.99365" lon="1.18103">
        <ele>419.79998779297</ele>
        <time>2025-08-07T12:39:35.000Z</time>
      </trkpt>
      <trkpt lat="42.99362" lon="1.18068">
        <ele>419.60000610352</ele>
        <time>2025-08-07T12:39:40.000Z</time>
      </trkpt>
      <trkpt lat="42.99361" lon="1.18055">
        <ele>419.39999389648</ele>
        <time>2025-08-07T12:39:42.000Z</time>
      </trkpt>
      <trkpt lat="42.99357" lon="1.18001">
        <ele>419.20001220703</ele>
        <time>2025-08-07T12:39:50.000Z</time>
      </trkpt>
      <trkpt lat="42.9935" lon="1.17934">
        <ele>418.79998779297</ele>
        <time>2025-08-07T12:39:59.000Z</time>
      </trkpt>
      <trkpt lat="42.99349" lon="1.17929">
        <ele>418.79998779297</ele>
        <time>2025-08-07T12:40:00.000Z</time>
      </trkpt>
      <trkpt lat="42.99347" lon="1.17915">
        <ele>418.79998779297</ele>
        <time>2025-08-07T12:40:03.000Z</time>
      </trkpt>
      <trkpt lat="42.99346" lon="1.17899">
        <ele>418.39999389648</ele>
        <time>2025-08-07T12:40:06.000Z</time>
      </trkpt>
      <trkpt lat="42.99344" lon="1.17874">
        <ele>418.39999389648</ele>
        <time>2025-08-07T12:40:10.000Z</time>
      </trkpt>
      <trkpt lat="42.99339" lon="1.17828">
        <ele>417.79998779297</ele>
        <time>2025-08-07T12:40:17.000Z</time>
      </trkpt>
      <trkpt lat="42.99333" lon="1.17766">
        <ele>417.60000610352</ele>
        <time>2025-08-07T12:40:26.000Z</time>
      </trkpt>
      <trkpt lat="42.99328" lon="1.17723">
        <ele>417.39999389648</ele>
        <time>2025-08-07T12:40:32.000Z</time>
      </trkpt>
      <trkpt lat="42.99323" lon="1.17674">
        <ele>417.20001220703</ele>
        <time>2025-08-07T12:40:39.000Z</time>
      </trkpt>
      <trkpt lat="42.99321" lon="1.17652">
        <ele>417.20001220703</ele>
        <time>2025-08-07T12:40:43.000Z</time>
      </trkpt>
      <trkpt lat="42.99315" lon="1.17613">
        <ele>417.20001220703</ele>
        <time>2025-08-07T12:40:50.000Z</time>
      </trkpt>
      <trkpt lat="42.9931" lon="1.17563">
        <ele>417.20001220703</ele>
        <time>2025-08-07T12:40:57.000Z</time>
      </trkpt>
      <trkpt lat="42.99309" lon="1.17536">
        <ele>417.79998779297</ele>
        <time>2025-08-07T12:41:01.000Z</time>
      </trkpt>
      <trkpt lat="42.99308" lon="1.1753">
        <ele>417.79998779297</ele>
        <time>2025-08-07T12:41:02.000Z</time>
      </trkpt>
      <trkpt lat="42.99306" lon="1.17511">
        <ele>417.60000610352</ele>
        <time>2025-08-07T12:41:05.000Z</time>
      </trkpt>
      <trkpt lat="42.99306" lon="1.175">
        <ele>417.60000610352</ele>
        <time>2025-08-07T12:41:07.000Z</time>
      </trkpt>
      <trkpt lat="42.99305" lon="1.1747">
        <ele>418</ele>
        <time>2025-08-07T12:41:12.000Z</time>
      </trkpt>
      <trkpt lat="42.993" lon="1.17429">
        <ele>418.79998779297</ele>
        <time>2025-08-07T12:41:19.000Z</time>
      </trkpt>
      <trkpt lat="42.99292" lon="1.17356">
        <ele>419.39999389648</ele>
        <time>2025-08-07T12:41:29.000Z</time>
      </trkpt>
      <trkpt lat="42.99286" lon="1.17287">
        <ele>419.20001220703</ele>
        <time>2025-08-07T12:41:39.000Z</time>
      </trkpt>
      <trkpt lat="42.99282" lon="1.17216">
        <ele>419</ele>
        <time>2025-08-07T12:41:49.000Z</time>
      </trkpt>
      <trkpt lat="42.99283" lon="1.17162">
        <ele>418.20001220703</ele>
        <time>2025-08-07T12:41:56.000Z</time>
      </trkpt>
      <trkpt lat="42.99282" lon="1.17136">
        <ele>417.79998779297</ele>
        <time>2025-08-07T12:41:59.000Z</time>
      </trkpt>
      <trkpt lat="42.99282" lon="1.17128">
        <ele>417.60000610352</ele>
        <time>2025-08-07T12:42:00.000Z</time>
      </trkpt>
      <trkpt lat="42.99284" lon="1.1712">
        <ele>417.39999389648</ele>
        <time>2025-08-07T12:42:01.000Z</time>
      </trkpt>
      <trkpt lat="42.99285" lon="1.17112">
        <ele>417.20001220703</ele>
        <time>2025-08-07T12:42:02.000Z</time>
      </trkpt>
      <trkpt lat="42.99287" lon="1.17092">
        <ele>416.79998779297</ele>
        <time>2025-08-07T12:42:06.000Z</time>
      </trkpt>
      <trkpt lat="42.99289" lon="1.17066">
        <ele>416.60000610352</ele>
        <time>2025-08-07T12:42:10.000Z</time>
      </trkpt>
      <trkpt lat="42.9929" lon="1.17059">
        <ele>416.60000610352</ele>
        <time>2025-08-07T12:42:11.000Z</time>
      </trkpt>
      <trkpt lat="42.99298" lon="1.1703">
        <ele>416.39999389648</ele>
        <time>2025-08-07T12:42:15.000Z</time>
      </trkpt>
      <trkpt lat="42.99293" lon="1.17017">
        <ele>416.60000610352</ele>
        <time>2025-08-07T12:42:17.000Z</time>
      </trkpt>
      <trkpt lat="42.99292" lon="1.17004">
        <ele>416.60000610352</ele>
        <time>2025-08-07T12:42:19.000Z</time>
      </trkpt>
      <trkpt lat="42.99296" lon="1.16991">
        <ele>416.79998779297</ele>
        <time>2025-08-07T12:42:21.000Z</time>
      </trkpt>
      <trkpt lat="42.99295" lon="1.1698">
        <ele>416.79998779297</ele>
        <time>2025-08-07T12:42:23.000Z</time>
      </trkpt>
      <trkpt lat="42.99293" lon="1.16968">
        <ele>416.79998779297</ele>
        <time>2025-08-07T12:42:25.000Z</time>
      </trkpt>
      <trkpt lat="42.99293" lon="1.16948">
        <ele>416.79998779297</ele>
        <time>2025-08-07T12:42:29.000Z</time>
      </trkpt>
      <trkpt lat="42.99287" lon="1.16923">
        <ele>416.79998779297</ele>
        <time>2025-08-07T12:42:34.000Z</time>
      </trkpt>
      <trkpt lat="42.99284" lon="1.16899">
        <ele>416.60000610352</ele>
        <time>2025-08-07T12:42:39.000Z</time>
      </trkpt>
      <trkpt lat="42.99283" lon="1.16879">
        <ele>416.60000610352</ele>
        <time>2025-08-07T12:42:42.000Z</time>
      </trkpt>
      <trkpt lat="42.99284" lon="1.16876">
        <ele>416.60000610352</ele>
        <time>2025-08-07T12:42:43.000Z</time>
      </trkpt>
      <trkpt lat="42.99277" lon="1.16854">
        <ele>416.39999389648</ele>
        <time>2025-08-07T12:42:47.000Z</time>
      </trkpt>
      <trkpt lat="42.99275" lon="1.1685">
        <ele>416.39999389648</ele>
        <time>2025-08-07T12:42:48.000Z</time>
      </trkpt>
      <trkpt lat="42.99272" lon="1.16832">
        <ele>416.39999389648</ele>
        <time>2025-08-07T12:42:51.000Z</time>
      </trkpt>
      <trkpt lat="42.99268" lon="1.16815">
        <ele>416.39999389648</ele>
        <time>2025-08-07T12:42:54.000Z</time>
      </trkpt>
      <trkpt lat="42.99263" lon="1.16803">
        <ele>416.20001220703</ele>
        <time>2025-08-07T12:42:56.000Z</time>
      </trkpt>
      <trkpt lat="42.99258" lon="1.16789">
        <ele>416.20001220703</ele>
        <time>2025-08-07T12:42:58.000Z</time>
      </trkpt>
      <trkpt lat="42.99253" lon="1.16784">
        <ele>416</ele>
        <time>2025-08-07T12:42:59.000Z</time>
      </trkpt>
      <trkpt lat="42.99242" lon="1.16758">
        <ele>415.79998779297</ele>
        <time>2025-08-07T12:43:02.000Z</time>
      </trkpt>
      <trkpt lat="42.99241" lon="1.16755">
        <ele>415.79998779297</ele>
        <time>2025-08-07T12:43:03.000Z</time>
      </trkpt>
      <trkpt lat="42.99231" lon="1.16731">
        <ele>415.60000610352</ele>
        <time>2025-08-07T12:43:08.000Z</time>
      </trkpt>
      <trkpt lat="42.99224" lon="1.16718">
        <ele>415.39999389648</ele>
        <time>2025-08-07T12:43:10.000Z</time>
      </trkpt>
      <trkpt lat="42.99218" lon="1.16705">
        <ele>415.60000610352</ele>
        <time>2025-08-07T12:43:12.000Z</time>
      </trkpt>
      <trkpt lat="42.99221" lon="1.16676">
        <ele>415.20001220703</ele>
        <time>2025-08-07T12:43:17.000Z</time>
      </trkpt>
      <trkpt lat="42.99219" lon="1.16659">
        <ele>415.20001220703</ele>
        <time>2025-08-07T12:43:20.000Z</time>
      </trkpt>
      <trkpt lat="42.99218" lon="1.16657">
        <ele>415.20001220703</ele>
        <time>2025-08-07T12:43:21.000Z</time>
      </trkpt>
      <trkpt lat="42.99202" lon="1.16635">
        <ele>415.20001220703</ele>
        <time>2025-08-07T12:43:26.000Z</time>
      </trkpt>
      <trkpt lat="42.992" lon="1.1663">
        <ele>415</ele>
        <time>2025-08-07T12:43:27.000Z</time>
      </trkpt>
      <trkpt lat="42.99196" lon="1.16623">
        <ele>415</ele>
        <time>2025-08-07T12:43:28.000Z</time>
      </trkpt>
      <trkpt lat="42.9919" lon="1.16604">
        <ele>414.79998779297</ele>
        <time>2025-08-07T12:43:31.000Z</time>
      </trkpt>
      <trkpt lat="42.99179" lon="1.16575">
        <ele>414.79998779297</ele>
        <time>2025-08-07T12:43:36.000Z</time>
      </trkpt>
      <trkpt lat="42.99177" lon="1.1657">
        <ele>414.60000610352</ele>
        <time>2025-08-07T12:43:37.000Z</time>
      </trkpt>
      <trkpt lat="42.99173" lon="1.16563">
        <ele>414.60000610352</ele>
        <time>2025-08-07T12:43:38.000Z</time>
      </trkpt>
      <trkpt lat="42.99165" lon="1.16554">
        <ele>414.79998779297</ele>
        <time>2025-08-07T12:43:40.000Z</time>
      </trkpt>
      <trkpt lat="42.99164" lon="1.16551">
        <ele>414.79998779297</ele>
        <time>2025-08-07T12:43:41.000Z</time>
      </trkpt>
      <trkpt lat="42.99162" lon="1.16539">
        <ele>414.79998779297</ele>
        <time>2025-08-07T12:43:43.000Z</time>
      </trkpt>
      <trkpt lat="42.99151" lon="1.16492">
        <ele>415</ele>
        <time>2025-08-07T12:43:49.000Z</time>
      </trkpt>
      <trkpt lat="42.99143" lon="1.16469">
        <ele>414.79998779297</ele>
        <time>2025-08-07T12:43:53.000Z</time>
      </trkpt>
      <trkpt lat="42.99141" lon="1.16463">
        <ele>415</ele>
        <time>2025-08-07T12:43:54.000Z</time>
      </trkpt>
      <trkpt lat="42.99138" lon="1.16442">
        <ele>414.79998779297</ele>
        <time>2025-08-07T12:43:58.000Z</time>
      </trkpt>
      <trkpt lat="42.99135" lon="1.16436">
        <ele>414.79998779297</ele>
        <time>2025-08-07T12:43:59.000Z</time>
      </trkpt>
      <trkpt lat="42.99133" lon="1.16427">
        <ele>415</ele>
        <time>2025-08-07T12:44:01.000Z</time>
      </trkpt>
      <trkpt lat="42.99121" lon="1.16395">
        <ele>415.39999389648</ele>
        <time>2025-08-07T12:44:07.000Z</time>
      </trkpt>
      <trkpt lat="42.99115" lon="1.16374">
        <ele>415.39999389648</ele>
        <time>2025-08-07T12:44:11.000Z</time>
      </trkpt>
      <trkpt lat="42.99112" lon="1.1636">
        <ele>415.39999389648</ele>
        <time>2025-08-07T12:44:13.000Z</time>
      </trkpt>
      <trkpt lat="42.99111" lon="1.1635">
        <ele>415.39999389648</ele>
        <time>2025-08-07T12:44:15.000Z</time>
      </trkpt>
      <trkpt lat="42.99102" lon="1.16318">
        <ele>415</ele>
        <time>2025-08-07T12:44:20.000Z</time>
      </trkpt>
      <trkpt lat="42.99098" lon="1.163">
        <ele>415</ele>
        <time>2025-08-07T12:44:24.000Z</time>
      </trkpt>
      <trkpt lat="42.99096" lon="1.16277">
        <ele>414.79998779297</ele>
        <time>2025-08-07T12:44:28.000Z</time>
      </trkpt>
      <trkpt lat="42.99091" lon="1.1625">
        <ele>414.60000610352</ele>
        <time>2025-08-07T12:44:32.000Z</time>
      </trkpt>
      <trkpt lat="42.99089" lon="1.16245">
        <ele>414.60000610352</ele>
        <time>2025-08-07T12:44:33.000Z</time>
      </trkpt>
      <trkpt lat="42.99085" lon="1.16237">
        <ele>414.39999389648</ele>
        <time>2025-08-07T12:44:35.000Z</time>
      </trkpt>
      <trkpt lat="42.99079" lon="1.16235">
        <ele>414.20001220703</ele>
        <time>2025-08-07T12:44:37.000Z</time>
      </trkpt>
      <trkpt lat="42.99069" lon="1.16234">
        <ele>414.20001220703</ele>
        <time>2025-08-07T12:44:42.000Z</time>
      </trkpt>
      <trkpt lat="42.99061" lon="1.16235">
        <ele>414.20001220703</ele>
        <time>2025-08-07T12:44:46.000Z</time>
      </trkpt>
      <trkpt lat="42.99048" lon="1.16238">
        <ele>415</ele>
        <time>2025-08-07T12:44:54.000Z</time>
      </trkpt>
      <trkpt lat="42.99045" lon="1.16238">
        <ele>415</ele>
        <time>2025-08-07T12:44:55.000Z</time>
      </trkpt>
      <trkpt lat="42.9904" lon="1.16239">
        <ele>415.60000610352</ele>
        <time>2025-08-07T12:44:59.000Z</time>
      </trkpt>
      <trkpt lat="42.99038" lon="1.1624">
        <ele>416</ele>
        <time>2025-08-07T12:45:01.000Z</time>
      </trkpt>
      <trkpt lat="42.99033" lon="1.1624">
        <ele>417</ele>
        <time>2025-08-07T12:45:05.000Z</time>
      </trkpt>
      <trkpt lat="42.99032" lon="1.1624">
        <ele>417.20001220703</ele>
        <time>2025-08-07T12:45:06.000Z</time>
      </trkpt>
      <trkpt lat="42.99027" lon="1.16241">
        <ele>417.60000610352</ele>
        <time>2025-08-07T12:45:10.000Z</time>
      </trkpt>
      <trkpt lat="42.99024" lon="1.1624">
        <ele>417.79998779297</ele>
        <time>2025-08-07T12:45:12.000Z</time>
      </trkpt>
      <trkpt lat="42.99022" lon="1.16238">
        <ele>418.20001220703</ele>
        <time>2025-08-07T12:45:14.000Z</time>
      </trkpt>
      <trkpt lat="42.99022" lon="1.16235">
        <ele>418.60000610352</ele>
        <time>2025-08-07T12:45:16.000Z</time>
      </trkpt>
      <trkpt lat="42.99023" lon="1.16232">
        <ele>419</ele>
        <time>2025-08-07T12:45:18.000Z</time>
      </trkpt>
      <trkpt lat="42.99024" lon="1.16229">
        <ele>419.39999389648</ele>
        <time>2025-08-07T12:45:20.000Z</time>
      </trkpt>
      <trkpt lat="42.99026" lon="1.16224">
        <ele>420.39999389648</ele>
        <time>2025-08-07T12:45:27.000Z</time>
      </trkpt>
      <trkpt lat="42.99029" lon="1.16216">
        <ele>420.79998779297</ele>
        <time>2025-08-07T12:51:59.000Z</time>
      </trkpt>
      <trkpt lat="42.99033" lon="1.16212">
        <ele>420.60000610352</ele>
        <time>2025-08-07T12:52:02.000Z</time>
      </trkpt>
      <trkpt lat="42.99039" lon="1.16198">
        <ele>420.39999389648</ele>
        <time>2025-08-07T12:52:08.000Z</time>
      </trkpt>
      <trkpt lat="42.99042" lon="1.16176">
        <ele>419.79998779297</ele>
        <time>2025-08-07T12:52:14.000Z</time>
      </trkpt>
      <trkpt lat="42.99042" lon="1.16171">
        <ele>420</ele>
        <time>2025-08-07T12:52:15.000Z</time>
      </trkpt>
      <trkpt lat="42.99039" lon="1.16145">
        <ele>419.20001220703</ele>
        <time>2025-08-07T12:52:20.000Z</time>
      </trkpt>
      <trkpt lat="42.99036" lon="1.16121">
        <ele>418.79998779297</ele>
        <time>2025-08-07T12:52:24.000Z</time>
      </trkpt>
      <trkpt lat="42.99037" lon="1.16105">
        <ele>418.60000610352</ele>
        <time>2025-08-07T12:52:27.000Z</time>
      </trkpt>
      <trkpt lat="42.99038" lon="1.16088">
        <ele>418</ele>
        <time>2025-08-07T12:52:29.000Z</time>
      </trkpt>
      <trkpt lat="42.99038" lon="1.16071">
        <ele>417.79998779297</ele>
        <time>2025-08-07T12:52:31.000Z</time>
      </trkpt>
      <trkpt lat="42.9904" lon="1.16023">
        <ele>416.60000610352</ele>
        <time>2025-08-07T12:52:36.000Z</time>
      </trkpt>
      <trkpt lat="42.99041" lon="1.16016">
        <ele>416.39999389648</ele>
        <time>2025-08-07T12:52:37.000Z</time>
      </trkpt>
      <trkpt lat="42.99045" lon="1.1598">
        <ele>415.60000610352</ele>
        <time>2025-08-07T12:52:41.000Z</time>
      </trkpt>
      <trkpt lat="42.99048" lon="1.15963">
        <ele>415.20001220703</ele>
        <time>2025-08-07T12:52:43.000Z</time>
      </trkpt>
      <trkpt lat="42.99056" lon="1.15942">
        <ele>415</ele>
        <time>2025-08-07T12:52:46.000Z</time>
      </trkpt>
      <trkpt lat="42.99064" lon="1.15927">
        <ele>415</ele>
        <time>2025-08-07T12:52:48.000Z</time>
      </trkpt>
      <trkpt lat="42.99067" lon="1.15918">
        <ele>414.79998779297</ele>
        <time>2025-08-07T12:52:49.000Z</time>
      </trkpt>
      <trkpt lat="42.99081" lon="1.15887">
        <ele>414.20001220703</ele>
        <time>2025-08-07T12:52:52.000Z</time>
      </trkpt>
      <trkpt lat="42.99086" lon="1.15877">
        <ele>413.79998779297</ele>
        <time>2025-08-07T12:52:53.000Z</time>
      </trkpt>
      <trkpt lat="42.99096" lon="1.15859">
        <ele>413</ele>
        <time>2025-08-07T12:52:55.000Z</time>
      </trkpt>
      <trkpt lat="42.99099" lon="1.15852">
        <ele>412.79998779297</ele>
        <time>2025-08-07T12:52:56.000Z</time>
      </trkpt>
      <trkpt lat="42.99108" lon="1.15839">
        <ele>412.39999389648</ele>
        <time>2025-08-07T12:52:58.000Z</time>
      </trkpt>
      <trkpt lat="42.99114" lon="1.15828">
        <ele>412</ele>
        <time>2025-08-07T12:53:00.000Z</time>
      </trkpt>
      <trkpt lat="42.99117" lon="1.15824">
        <ele>412</ele>
        <time>2025-08-07T12:53:01.000Z</time>
      </trkpt>
      <trkpt lat="42.9912" lon="1.15819">
        <ele>412</ele>
        <time>2025-08-07T12:53:02.000Z</time>
      </trkpt>
      <trkpt lat="42.9913" lon="1.15807">
        <ele>412</ele>
        <time>2025-08-07T12:53:05.000Z</time>
      </trkpt>
      <trkpt lat="42.9915" lon="1.15785">
        <ele>411.79998779297</ele>
        <time>2025-08-07T12:53:11.000Z</time>
      </trkpt>
      <trkpt lat="42.99154" lon="1.15782">
        <ele>411.79998779297</ele>
        <time>2025-08-07T12:53:12.000Z</time>
      </trkpt>
      <trkpt lat="42.99175" lon="1.15764">
        <ele>411</ele>
        <time>2025-08-07T12:53:17.000Z</time>
      </trkpt>
      <trkpt lat="42.99183" lon="1.15755">
        <ele>410.79998779297</ele>
        <time>2025-08-07T12:53:19.000Z</time>
      </trkpt>
      <trkpt lat="42.9919" lon="1.15747">
        <ele>410.39999389648</ele>
        <time>2025-08-07T12:53:21.000Z</time>
      </trkpt>
      <trkpt lat="42.99209" lon="1.15728">
        <ele>410</ele>
        <time>2025-08-07T12:53:26.000Z</time>
      </trkpt>
      <trkpt lat="42.99213" lon="1.15723">
        <ele>409.79998779297</ele>
        <time>2025-08-07T12:53:27.000Z</time>
      </trkpt>
      <trkpt lat="42.99217" lon="1.15716">
        <ele>409.79998779297</ele>
        <time>2025-08-07T12:53:28.000Z</time>
      </trkpt>
      <trkpt lat="42.99226" lon="1.15698">
        <ele>409.39999389648</ele>
        <time>2025-08-07T12:53:31.000Z</time>
      </trkpt>
      <trkpt lat="42.99234" lon="1.15669">
        <ele>409</ele>
        <time>2025-08-07T12:53:36.000Z</time>
      </trkpt>
      <trkpt lat="42.99238" lon="1.15655">
        <ele>409.20001220703</ele>
        <time>2025-08-07T12:53:41.000Z</time>
      </trkpt>
      <trkpt lat="42.99244" lon="1.15649">
        <ele>409.79998779297</ele>
        <time>2025-08-07T12:53:48.000Z</time>
      </trkpt>
      <trkpt lat="42.99244" lon="1.15649">
        <ele>409.79998779297</ele>
        <time>2025-08-07T12:53:49.000Z</time>
      </trkpt>
      <trkpt lat="42.99247" lon="1.15643">
        <ele>409.20001220703</ele>
        <time>2025-08-07T12:54:12.000Z</time>
      </trkpt>
      <trkpt lat="42.99245" lon="1.15637">
        <ele>409.20001220703</ele>
        <time>2025-08-07T12:54:14.000Z</time>
      </trkpt>
      <trkpt lat="42.99236" lon="1.15618">
        <ele>409</ele>
        <time>2025-08-07T12:54:19.000Z</time>
      </trkpt>
      <trkpt lat="42.99225" lon="1.15588">
        <ele>408.79998779297</ele>
        <time>2025-08-07T12:54:25.000Z</time>
      </trkpt>
      <trkpt lat="42.99218" lon="1.15547">
        <ele>409</ele>
        <time>2025-08-07T12:54:33.000Z</time>
      </trkpt>
      <trkpt lat="42.99213" lon="1.15514">
        <ele>409</ele>
        <time>2025-08-07T12:54:40.000Z</time>
      </trkpt>
      <trkpt lat="42.99204" lon="1.15496">
        <ele>408.79998779297</ele>
        <time>2025-08-07T12:54:45.000Z</time>
      </trkpt>
      <trkpt lat="42.992" lon="1.15489">
        <ele>408.60000610352</ele>
        <time>2025-08-07T12:54:46.000Z</time>
      </trkpt>
      <trkpt lat="42.99193" lon="1.15481">
        <ele>408.60000610352</ele>
        <time>2025-08-07T12:54:48.000Z</time>
      </trkpt>
      <trkpt lat="42.99174" lon="1.15457">
        <ele>407.79998779297</ele>
        <time>2025-08-07T12:54:55.000Z</time>
      </trkpt>
      <trkpt lat="42.99164" lon="1.15447">
        <ele>407.60000610352</ele>
        <time>2025-08-07T12:54:58.000Z</time>
      </trkpt>
      <trkpt lat="42.99151" lon="1.15432">
        <ele>407.39999389648</ele>
        <time>2025-08-07T12:55:02.000Z</time>
      </trkpt>
      <trkpt lat="42.99139" lon="1.15414">
        <ele>407.20001220703</ele>
        <time>2025-08-07T12:55:06.000Z</time>
      </trkpt>
      <trkpt lat="42.99131" lon="1.15407">
        <ele>407</ele>
        <time>2025-08-07T12:55:08.000Z</time>
      </trkpt>
      <trkpt lat="42.99128" lon="1.15403">
        <ele>406.79998779297</ele>
        <time>2025-08-07T12:55:09.000Z</time>
      </trkpt>
      <trkpt lat="42.99121" lon="1.15395">
        <ele>406.79998779297</ele>
        <time>2025-08-07T12:55:11.000Z</time>
      </trkpt>
      <trkpt lat="42.9911" lon="1.1538">
        <ele>406.60000610352</ele>
        <time>2025-08-07T12:55:15.000Z</time>
      </trkpt>
      <trkpt lat="42.99083" lon="1.15346">
        <ele>406.60000610352</ele>
        <time>2025-08-07T12:55:23.000Z</time>
      </trkpt>
      <trkpt lat="42.99058" lon="1.1531">
        <ele>406.39999389648</ele>
        <time>2025-08-07T12:55:31.000Z</time>
      </trkpt>
      <trkpt lat="42.99045" lon="1.15285">
        <ele>406.20001220703</ele>
        <time>2025-08-07T12:55:36.000Z</time>
      </trkpt>
      <trkpt lat="42.99039" lon="1.15276">
        <ele>406.39999389648</ele>
        <time>2025-08-07T12:55:38.000Z</time>
      </trkpt>
      <trkpt lat="42.99037" lon="1.15271">
        <ele>406.39999389648</ele>
        <time>2025-08-07T12:55:39.000Z</time>
      </trkpt>
      <trkpt lat="42.9903" lon="1.15257">
        <ele>406.39999389648</ele>
        <time>2025-08-07T12:55:42.000Z</time>
      </trkpt>
      <trkpt lat="42.99022" lon="1.15241">
        <ele>406.39999389648</ele>
        <time>2025-08-07T12:55:45.000Z</time>
      </trkpt>
      <trkpt lat="42.99019" lon="1.15235">
        <ele>406.39999389648</ele>
        <time>2025-08-07T12:55:46.000Z</time>
      </trkpt>
      <trkpt lat="42.99006" lon="1.1521">
        <ele>406.20001220703</ele>
        <time>2025-08-07T12:55:51.000Z</time>
      </trkpt>
      <trkpt lat="42.98989" lon="1.15172">
        <ele>406</ele>
        <time>2025-08-07T12:55:58.000Z</time>
      </trkpt>
      <trkpt lat="42.98987" lon="1.15166">
        <ele>406</ele>
        <time>2025-08-07T12:55:59.000Z</time>
      </trkpt>
      <trkpt lat="42.98984" lon="1.15161">
        <ele>406</ele>
        <time>2025-08-07T12:56:00.000Z</time>
      </trkpt>
      <trkpt lat="42.98972" lon="1.15134">
        <ele>406</ele>
        <time>2025-08-07T12:56:05.000Z</time>
      </trkpt>
      <trkpt lat="42.98954" lon="1.15095">
        <ele>406</ele>
        <time>2025-08-07T12:56:13.000Z</time>
      </trkpt>
      <trkpt lat="42.98939" lon="1.1506">
        <ele>406.20001220703</ele>
        <time>2025-08-07T12:56:20.000Z</time>
      </trkpt>
      <trkpt lat="42.9893" lon="1.15042">
        <ele>406.39999389648</ele>
        <time>2025-08-07T12:56:24.000Z</time>
      </trkpt>
      <trkpt lat="42.98921" lon="1.15022">
        <ele>406.60000610352</ele>
        <time>2025-08-07T12:56:28.000Z</time>
      </trkpt>
      <trkpt lat="42.98916" lon="1.15013">
        <ele>406.60000610352</ele>
        <time>2025-08-07T12:56:30.000Z</time>
      </trkpt>
      <trkpt lat="42.98912" lon="1.15003">
        <ele>406.60000610352</ele>
        <time>2025-08-07T12:56:32.000Z</time>
      </trkpt>
      <trkpt lat="42.98907" lon="1.14992">
        <ele>406.60000610352</ele>
        <time>2025-08-07T12:56:34.000Z</time>
      </trkpt>
      <trkpt lat="42.98888" lon="1.1495">
        <ele>406.79998779297</ele>
        <time>2025-08-07T12:56:43.000Z</time>
      </trkpt>
      <trkpt lat="42.98884" lon="1.14941">
        <ele>406.79998779297</ele>
        <time>2025-08-07T12:56:45.000Z</time>
      </trkpt>
      <trkpt lat="42.9888" lon="1.14931">
        <ele>406.79998779297</ele>
        <time>2025-08-07T12:56:47.000Z</time>
      </trkpt>
      <trkpt lat="42.98876" lon="1.14922">
        <ele>407</ele>
        <time>2025-08-07T12:56:49.000Z</time>
      </trkpt>
      <trkpt lat="42.98858" lon="1.14885">
        <ele>407</ele>
        <time>2025-08-07T12:56:56.000Z</time>
      </trkpt>
      <trkpt lat="42.98837" lon="1.14838">
        <ele>406.20001220703</ele>
        <time>2025-08-07T12:57:03.000Z</time>
      </trkpt>
      <trkpt lat="42.9882" lon="1.14802">
        <ele>405.60000610352</ele>
        <time>2025-08-07T12:57:08.000Z</time>
      </trkpt>
      <trkpt lat="42.98813" lon="1.14787">
        <ele>405</ele>
        <time>2025-08-07T12:57:10.000Z</time>
      </trkpt>
      <trkpt lat="42.98801" lon="1.14761">
        <ele>404.60000610352</ele>
        <time>2025-08-07T12:57:14.000Z</time>
      </trkpt>
      <trkpt lat="42.98798" lon="1.14756">
        <ele>404.39999389648</ele>
        <time>2025-08-07T12:57:15.000Z</time>
      </trkpt>
      <trkpt lat="42.98784" lon="1.14721">
        <ele>403.39999389648</ele>
        <time>2025-08-07T12:57:20.000Z</time>
      </trkpt>
      <trkpt lat="42.98775" lon="1.14703">
        <ele>402.79998779297</ele>
        <time>2025-08-07T12:57:23.000Z</time>
      </trkpt>
      <trkpt lat="42.98767" lon="1.14684">
        <ele>402.39999389648</ele>
        <time>2025-08-07T12:57:26.000Z</time>
      </trkpt>
      <trkpt lat="42.98757" lon="1.14669">
        <ele>402.20001220703</ele>
        <time>2025-08-07T12:57:29.000Z</time>
      </trkpt>
      <trkpt lat="42.98755" lon="1.14663">
        <ele>402</ele>
        <time>2025-08-07T12:57:30.000Z</time>
      </trkpt>
      <trkpt lat="42.98746" lon="1.14641">
        <ele>401.60000610352</ele>
        <time>2025-08-07T12:57:34.000Z</time>
      </trkpt>
      <trkpt lat="42.98745" lon="1.14637">
        <ele>401.60000610352</ele>
        <time>2025-08-07T12:57:35.000Z</time>
      </trkpt>
      <trkpt lat="42.98735" lon="1.14616">
        <ele>401.60000610352</ele>
        <time>2025-08-07T12:57:39.000Z</time>
      </trkpt>
      <trkpt lat="42.9873" lon="1.14607">
        <ele>401.60000610352</ele>
        <time>2025-08-07T12:57:41.000Z</time>
      </trkpt>
      <trkpt lat="42.98726" lon="1.14597">
        <ele>401.60000610352</ele>
        <time>2025-08-07T12:57:43.000Z</time>
      </trkpt>
      <trkpt lat="42.9872" lon="1.14582">
        <ele>401.60000610352</ele>
        <time>2025-08-07T12:57:46.000Z</time>
      </trkpt>
      <trkpt lat="42.98716" lon="1.14572">
        <ele>402</ele>
        <time>2025-08-07T12:57:48.000Z</time>
      </trkpt>
      <trkpt lat="42.98709" lon="1.14557">
        <ele>402</ele>
        <time>2025-08-07T12:57:51.000Z</time>
      </trkpt>
      <trkpt lat="42.98704" lon="1.14547">
        <ele>402</ele>
        <time>2025-08-07T12:57:53.000Z</time>
      </trkpt>
      <trkpt lat="42.98689" lon="1.14512">
        <ele>402.20001220703</ele>
        <time>2025-08-07T12:58:00.000Z</time>
      </trkpt>
      <trkpt lat="42.98687" lon="1.14508">
        <ele>402.20001220703</ele>
        <time>2025-08-07T12:58:01.000Z</time>
      </trkpt>
      <trkpt lat="42.9868" lon="1.14491">
        <ele>402.20001220703</ele>
        <time>2025-08-07T12:58:05.000Z</time>
      </trkpt>
      <trkpt lat="42.98672" lon="1.14471">
        <ele>402</ele>
        <time>2025-08-07T12:58:10.000Z</time>
      </trkpt>
      <trkpt lat="42.98661" lon="1.14449">
        <ele>402</ele>
        <time>2025-08-07T12:58:15.000Z</time>
      </trkpt>
      <trkpt lat="42.98646" lon="1.14418">
        <ele>402</ele>
        <time>2025-08-07T12:58:23.000Z</time>
      </trkpt>
      <trkpt lat="42.98642" lon="1.14403">
        <ele>402.20001220703</ele>
        <time>2025-08-07T12:58:27.000Z</time>
      </trkpt>
      <trkpt lat="42.98641" lon="1.14399">
        <ele>402.20001220703</ele>
        <time>2025-08-07T12:58:28.000Z</time>
      </trkpt>
      <trkpt lat="42.98641" lon="1.14388">
        <ele>402.39999389648</ele>
        <time>2025-08-07T12:58:32.000Z</time>
      </trkpt>
      <trkpt lat="42.98635" lon="1.14372">
        <ele>402.39999389648</ele>
        <time>2025-08-07T12:58:38.000Z</time>
      </trkpt>
      <trkpt lat="42.98631" lon="1.14361">
        <ele>402.39999389648</ele>
        <time>2025-08-07T12:58:43.000Z</time>
      </trkpt>
      <trkpt lat="42.98631" lon="1.14361">
        <ele>402.39999389648</ele>
        <time>2025-08-07T12:58:45.000Z</time>
      </trkpt>
      <trkpt lat="42.98628" lon="1.14354">
        <ele>403.60000610352</ele>
        <time>2025-08-07T12:59:44.000Z</time>
      </trkpt>
      <trkpt lat="42.98627" lon="1.1435">
        <ele>403.60000610352</ele>
        <time>2025-08-07T12:59:45.000Z</time>
      </trkpt>
      <trkpt lat="42.98621" lon="1.14335">
        <ele>403.39999389648</ele>
        <time>2025-08-07T12:59:49.000Z</time>
      </trkpt>
      <trkpt lat="42.9861" lon="1.14305">
        <ele>402.79998779297</ele>
        <time>2025-08-07T12:59:56.000Z</time>
      </trkpt>
      <trkpt lat="42.98596" lon="1.14277">
        <ele>402.39999389648</ele>
        <time>2025-08-07T13:00:04.000Z</time>
      </trkpt>
      <trkpt lat="42.98596" lon="1.1427">
        <ele>402.20001220703</ele>
        <time>2025-08-07T13:00:08.000Z</time>
      </trkpt>
      <trkpt lat="42.98595" lon="1.1427">
        <ele>402.20001220703</ele>
        <time>2025-08-07T13:00:10.000Z</time>
      </trkpt>
      <trkpt lat="42.98594" lon="1.14269">
        <ele>402.20001220703</ele>
        <time>2025-08-07T13:00:12.000Z</time>
      </trkpt>
      <trkpt lat="42.98589" lon="1.14271">
        <ele>402.20001220703</ele>
        <time>2025-08-07T13:00:15.000Z</time>
      </trkpt>
      <trkpt lat="42.98573" lon="1.14281">
        <ele>402.20001220703</ele>
        <time>2025-08-07T13:00:21.000Z</time>
      </trkpt>
      <trkpt lat="42.98562" lon="1.14284">
        <ele>402</ele>
        <time>2025-08-07T13:00:26.000Z</time>
      </trkpt>
      <trkpt lat="42.98559" lon="1.14283">
        <ele>402</ele>
        <time>2025-08-07T13:00:31.000Z</time>
      </trkpt>
      <trkpt lat="42.98559" lon="1.14284">
        <ele>402</ele>
        <time>2025-08-07T13:00:32.000Z</time>
      </trkpt>
      <trkpt lat="42.98559" lon="1.14284">
        <ele>402</ele>
        <time>2025-08-07T13:00:34.000Z</time>
      </trkpt>
      <trkpt lat="42.98554" lon="1.14287">
        <ele>401.60000610352</ele>
        <time>2025-08-07T13:00:55.000Z</time>
      </trkpt>
      <trkpt lat="42.98553" lon="1.14288">
        <ele>401.60000610352</ele>
        <time>2025-08-07T13:00:56.000Z</time>
      </trkpt>
      <trkpt lat="42.98543" lon="1.14297">
        <ele>401.79998779297</ele>
        <time>2025-08-07T13:01:03.000Z</time>
      </trkpt>
      <trkpt lat="42.98537" lon="1.14303">
        <ele>401.79998779297</ele>
        <time>2025-08-07T13:01:07.000Z</time>
      </trkpt>
      <trkpt lat="42.98537" lon="1.14305">
        <ele>401.79998779297</ele>
        <time>2025-08-07T13:01:09.000Z</time>
      </trkpt>
      <trkpt lat="42.98538" lon="1.14304">
        <ele>401.79998779297</ele>
        <time>2025-08-07T13:01:11.000Z</time>
      </trkpt>
      <trkpt lat="42.98544" lon="1.143">
        <ele>401.79998779297</ele>
        <time>2025-08-07T13:01:18.000Z</time>
      </trkpt>
      <trkpt lat="42.98545" lon="1.14302">
        <ele>401.79998779297</ele>
        <time>2025-08-07T13:01:19.000Z</time>
      </trkpt>
      <trkpt lat="42.98544" lon="1.14307">
        <ele>402</ele>
        <time>2025-08-07T13:01:22.000Z</time>
      </trkpt>
      <trkpt lat="42.98542" lon="1.14307">
        <ele>402.20001220703</ele>
        <time>2025-08-07T13:01:23.000Z</time>
      </trkpt>
      <trkpt lat="42.9854" lon="1.14309">
        <ele>402.39999389648</ele>
        <time>2025-08-07T13:01:27.000Z</time>
      </trkpt>
      <trkpt lat="42.98532" lon="1.14312">
        <ele>404.20001220703</ele>
        <time>2025-08-07T15:14:35.000Z</time>
      </trkpt>
      <trkpt lat="42.98532" lon="1.14312">
        <ele>404.60000610352</ele>
        <time>2025-08-07T15:14:36.000Z</time>
      </trkpt>
      <trkpt lat="42.98554" lon="1.14294">
        <ele>403</ele>
        <time>2025-08-07T15:17:03.000Z</time>
      </trkpt>
      <trkpt lat="42.98559" lon="1.14289">
        <ele>403</ele>
        <time>2025-08-07T15:17:06.000Z</time>
      </trkpt>
      <trkpt lat="42.98571" lon="1.14281">
        <ele>403</ele>
        <time>2025-08-07T15:17:12.000Z</time>
      </trkpt>
      <trkpt lat="42.98586" lon="1.14274">
        <ele>403</ele>
        <time>2025-08-07T15:17:19.000Z</time>
      </trkpt>
      <trkpt lat="42.9859" lon="1.1427">
        <ele>403</ele>
        <time>2025-08-07T15:17:22.000Z</time>
      </trkpt>
      <trkpt lat="42.98591" lon="1.14269">
        <ele>403.20001220703</ele>
        <time>2025-08-07T15:17:23.000Z</time>
      </trkpt>
      <trkpt lat="42.9859" lon="1.14269">
        <ele>403.39999389648</ele>
        <time>2025-08-07T15:17:25.000Z</time>
      </trkpt>
      <trkpt lat="42.98593" lon="1.14267">
        <ele>403.60000610352</ele>
        <time>2025-08-07T15:17:42.000Z</time>
      </trkpt>
      <trkpt lat="42.98593" lon="1.14264">
        <ele>403.60000610352</ele>
        <time>2025-08-07T15:17:43.000Z</time>
      </trkpt>
      <trkpt lat="42.98587" lon="1.14237">
        <ele>403.79998779297</ele>
        <time>2025-08-07T15:17:50.000Z</time>
      </trkpt>
      <trkpt lat="42.98576" lon="1.14207">
        <ele>403.79998779297</ele>
        <time>2025-08-07T15:17:58.000Z</time>
      </trkpt>
      <trkpt lat="42.98572" lon="1.14194">
        <ele>403.79998779297</ele>
        <time>2025-08-07T15:18:01.000Z</time>
      </trkpt>
      <trkpt lat="42.98566" lon="1.14175">
        <ele>403.79998779297</ele>
        <time>2025-08-07T15:18:05.000Z</time>
      </trkpt>
      <trkpt lat="42.98554" lon="1.14141">
        <ele>403.79998779297</ele>
        <time>2025-08-07T15:18:13.000Z</time>
      </trkpt>
      <trkpt lat="42.9855" lon="1.14121">
        <ele>404</ele>
        <time>2025-08-07T15:18:18.000Z</time>
      </trkpt>
      <trkpt lat="42.98552" lon="1.14118">
        <ele>404</ele>
        <time>2025-08-07T15:18:19.000Z</time>
      </trkpt>
      <trkpt lat="42.98563" lon="1.1411">
        <ele>404.20001220703</ele>
        <time>2025-08-07T15:18:23.000Z</time>
      </trkpt>
      <trkpt lat="42.98568" lon="1.14104">
        <ele>404.39999389648</ele>
        <time>2025-08-07T15:18:25.000Z</time>
      </trkpt>
      <trkpt lat="42.98586" lon="1.14079">
        <ele>405.39999389648</ele>
        <time>2025-08-07T15:18:33.000Z</time>
      </trkpt>
      <trkpt lat="42.98589" lon="1.14077">
        <ele>405.39999389648</ele>
        <time>2025-08-07T15:18:34.000Z</time>
      </trkpt>
      <trkpt lat="42.9861" lon="1.14056">
        <ele>405.60000610352</ele>
        <time>2025-08-07T15:18:42.000Z</time>
      </trkpt>
      <trkpt lat="42.9863" lon="1.14042">
        <ele>405.60000610352</ele>
        <time>2025-08-07T15:18:48.000Z</time>
      </trkpt>
      <trkpt lat="42.98633" lon="1.1404">
        <ele>405.60000610352</ele>
        <time>2025-08-07T15:18:49.000Z</time>
      </trkpt>
      <trkpt lat="42.9867" lon="1.14027">
        <ele>405.79998779297</ele>
        <time>2025-08-07T15:18:59.000Z</time>
      </trkpt>
      <trkpt lat="42.98677" lon="1.14028">
        <ele>405.79998779297</ele>
        <time>2025-08-07T15:19:03.000Z</time>
      </trkpt>
      <trkpt lat="42.98677" lon="1.14028">
        <ele>405.79998779297</ele>
        <time>2025-08-07T15:19:05.000Z</time>
      </trkpt>
      <trkpt lat="42.98681" lon="1.14025">
        <ele>405.60000610352</ele>
        <time>2025-08-07T15:20:43.000Z</time>
      </trkpt>
      <trkpt lat="42.98683" lon="1.14025">
        <ele>405.60000610352</ele>
        <time>2025-08-07T15:20:44.000Z</time>
      </trkpt>
      <trkpt lat="42.98698" lon="1.14023">
        <ele>405.60000610352</ele>
        <time>2025-08-07T15:20:50.000Z</time>
      </trkpt>
      <trkpt lat="42.98721" lon="1.14015">
        <ele>405.60000610352</ele>
        <time>2025-08-07T15:20:58.000Z</time>
      </trkpt>
      <trkpt lat="42.98724" lon="1.14013">
        <ele>405.60000610352</ele>
        <time>2025-08-07T15:20:59.000Z</time>
      </trkpt>
      <trkpt lat="42.98741" lon="1.14005">
        <ele>405.39999389648</ele>
        <time>2025-08-07T15:21:05.000Z</time>
      </trkpt>
      <trkpt lat="42.98752" lon="1.13997">
        <ele>405.20001220703</ele>
        <time>2025-08-07T15:21:11.000Z</time>
      </trkpt>
      <trkpt lat="42.98752" lon="1.13997">
        <ele>405.20001220703</ele>
        <time>2025-08-07T15:21:12.000Z</time>
      </trkpt>
      <trkpt lat="42.98752" lon="1.13996">
        <ele>405.20001220703</ele>
        <time>2025-08-07T15:21:13.000Z</time>
      </trkpt>
      <trkpt lat="42.98759" lon="1.13992">
        <ele>405.79998779297</ele>
        <time>2025-08-07T15:23:54.000Z</time>
      </trkpt>
      <trkpt lat="42.98778" lon="1.13985">
        <ele>405.60000610352</ele>
        <time>2025-08-07T15:23:59.000Z</time>
      </trkpt>
      <trkpt lat="42.98805" lon="1.13974">
        <ele>405.39999389648</ele>
        <time>2025-08-07T15:24:06.000Z</time>
      </trkpt>
      <trkpt lat="42.9884" lon="1.13962">
        <ele>405.20001220703</ele>
        <time>2025-08-07T15:24:14.000Z</time>
      </trkpt>
      <trkpt lat="42.98849" lon="1.13959">
        <ele>405.20001220703</ele>
        <time>2025-08-07T15:24:16.000Z</time>
      </trkpt>
      <trkpt lat="42.98862" lon="1.13954">
        <ele>404.79998779297</ele>
        <time>2025-08-07T15:24:19.000Z</time>
      </trkpt>
      <trkpt lat="42.98867" lon="1.13951">
        <ele>404.79998779297</ele>
        <time>2025-08-07T15:24:20.000Z</time>
      </trkpt>
      <trkpt lat="42.9889" lon="1.13943">
        <ele>404.39999389648</ele>
        <time>2025-08-07T15:24:25.000Z</time>
      </trkpt>
      <trkpt lat="42.98936" lon="1.13926">
        <ele>404.39999389648</ele>
        <time>2025-08-07T15:24:34.000Z</time>
      </trkpt>
      <trkpt lat="42.98978" lon="1.1391">
        <ele>404.20001220703</ele>
        <time>2025-08-07T15:24:42.000Z</time>
      </trkpt>
      <trkpt lat="42.98989" lon="1.13906">
        <ele>404</ele>
        <time>2025-08-07T15:24:44.000Z</time>
      </trkpt>
      <trkpt lat="42.99029" lon="1.13891">
        <ele>403.39999389648</ele>
        <time>2025-08-07T15:24:51.000Z</time>
      </trkpt>
      <trkpt lat="42.99063" lon="1.1387">
        <ele>403.20001220703</ele>
        <time>2025-08-07T15:24:58.000Z</time>
      </trkpt>
      <trkpt lat="42.99082" lon="1.13855">
        <ele>403</ele>
        <time>2025-08-07T15:25:02.000Z</time>
      </trkpt>
      <trkpt lat="42.99105" lon="1.13835">
        <ele>402.60000610352</ele>
        <time>2025-08-07T15:25:07.000Z</time>
      </trkpt>
      <trkpt lat="42.99148" lon="1.13805">
        <ele>402.39999389648</ele>
        <time>2025-08-07T15:25:16.000Z</time>
      </trkpt>
      <trkpt lat="42.99178" lon="1.13789">
        <ele>402.20001220703</ele>
        <time>2025-08-07T15:25:22.000Z</time>
      </trkpt>
      <trkpt lat="42.99199" lon="1.1378">
        <ele>401.79998779297</ele>
        <time>2025-08-07T15:25:26.000Z</time>
      </trkpt>
      <trkpt lat="42.9924" lon="1.13763">
        <ele>401.39999389648</ele>
        <time>2025-08-07T15:25:34.000Z</time>
      </trkpt>
      <trkpt lat="42.9926" lon="1.1375">
        <ele>401.20001220703</ele>
        <time>2025-08-07T15:25:39.000Z</time>
      </trkpt>
      <trkpt lat="42.99263" lon="1.13748">
        <ele>401.20001220703</ele>
        <time>2025-08-07T15:25:40.000Z</time>
      </trkpt>
      <trkpt lat="42.99298" lon="1.1373">
        <ele>400.60000610352</ele>
        <time>2025-08-07T15:25:49.000Z</time>
      </trkpt>
      <trkpt lat="42.99327" lon="1.13719">
        <ele>400.60000610352</ele>
        <time>2025-08-07T15:25:57.000Z</time>
      </trkpt>
      <trkpt lat="42.9936" lon="1.13705">
        <ele>400.39999389648</ele>
        <time>2025-08-07T15:26:06.000Z</time>
      </trkpt>
      <trkpt lat="42.99389" lon="1.13694">
        <ele>400.20001220703</ele>
        <time>2025-08-07T15:26:14.000Z</time>
      </trkpt>
      <trkpt lat="42.99395" lon="1.13691">
        <ele>400.20001220703</ele>
        <time>2025-08-07T15:26:16.000Z</time>
      </trkpt>
      <trkpt lat="42.99417" lon="1.13683">
        <ele>400</ele>
        <time>2025-08-07T15:26:22.000Z</time>
      </trkpt>
      <trkpt lat="42.99442" lon="1.13673">
        <ele>400.20001220703</ele>
        <time>2025-08-07T15:26:29.000Z</time>
      </trkpt>
      <trkpt lat="42.99471" lon="1.13663">
        <ele>400.20001220703</ele>
        <time>2025-08-07T15:26:37.000Z</time>
      </trkpt>
      <trkpt lat="42.99497" lon="1.13653">
        <ele>399.79998779297</ele>
        <time>2025-08-07T15:26:45.000Z</time>
      </trkpt>
      <trkpt lat="42.99514" lon="1.13648">
        <ele>399.60000610352</ele>
        <time>2025-08-07T15:26:51.000Z</time>
      </trkpt>
      <trkpt lat="42.99534" lon="1.13645">
        <ele>399.60000610352</ele>
        <time>2025-08-07T15:26:57.000Z</time>
      </trkpt>
      <trkpt lat="42.99556" lon="1.1364">
        <ele>399</ele>
        <time>2025-08-07T15:27:04.000Z</time>
      </trkpt>
      <trkpt lat="42.99562" lon="1.13639">
        <ele>399</ele>
        <time>2025-08-07T15:27:06.000Z</time>
      </trkpt>
      <trkpt lat="42.99586" lon="1.13633">
        <ele>399.20001220703</ele>
        <time>2025-08-07T15:27:14.000Z</time>
      </trkpt>
      <trkpt lat="42.99615" lon="1.13626">
        <ele>399</ele>
        <time>2025-08-07T15:27:23.000Z</time>
      </trkpt>
      <trkpt lat="42.99645" lon="1.13617">
        <ele>398.79998779297</ele>
        <time>2025-08-07T15:27:32.000Z</time>
      </trkpt>
      <trkpt lat="42.99675" lon="1.13606">
        <ele>398.39999389648</ele>
        <time>2025-08-07T15:27:41.000Z</time>
      </trkpt>
      <trkpt lat="42.99702" lon="1.13594">
        <ele>398.39999389648</ele>
        <time>2025-08-07T15:27:50.000Z</time>
      </trkpt>
      <trkpt lat="42.99731" lon="1.1358">
        <ele>398</ele>
        <time>2025-08-07T15:28:00.000Z</time>
      </trkpt>
      <trkpt lat="42.99733" lon="1.13577">
        <ele>398</ele>
        <time>2025-08-07T15:28:01.000Z</time>
      </trkpt>
      <trkpt lat="42.99748" lon="1.13569">
        <ele>398.20001220703</ele>
        <time>2025-08-07T15:28:06.000Z</time>
      </trkpt>
      <trkpt lat="42.99779" lon="1.13553">
        <ele>397.79998779297</ele>
        <time>2025-08-07T15:28:16.000Z</time>
      </trkpt>
      <trkpt lat="42.99807" lon="1.1354">
        <ele>397.20001220703</ele>
        <time>2025-08-07T15:28:25.000Z</time>
      </trkpt>
      <trkpt lat="42.9981" lon="1.13539">
        <ele>397.20001220703</ele>
        <time>2025-08-07T15:28:26.000Z</time>
      </trkpt>
      <trkpt lat="42.9984" lon="1.13525">
        <ele>397</ele>
        <time>2025-08-07T15:28:36.000Z</time>
      </trkpt>
      <trkpt lat="42.99873" lon="1.13511">
        <ele>397</ele>
        <time>2025-08-07T15:28:46.000Z</time>
      </trkpt>
      <trkpt lat="42.99905" lon="1.13499">
        <ele>396.60000610352</ele>
        <time>2025-08-07T15:28:54.000Z</time>
      </trkpt>
      <trkpt lat="42.99938" lon="1.13487">
        <ele>396.20001220703</ele>
        <time>2025-08-07T15:29:03.000Z</time>
      </trkpt>
      <trkpt lat="42.99949" lon="1.13483">
        <ele>396</ele>
        <time>2025-08-07T15:29:06.000Z</time>
      </trkpt>
      <trkpt lat="42.99967" lon="1.13475">
        <ele>396</ele>
        <time>2025-08-07T15:29:12.000Z</time>
      </trkpt>
      <trkpt lat="42.99987" lon="1.13466">
        <ele>396.39999389648</ele>
        <time>2025-08-07T15:29:19.000Z</time>
      </trkpt>
      <trkpt lat="43.00011" lon="1.13455">
        <ele>397</ele>
        <time>2025-08-07T15:29:27.000Z</time>
      </trkpt>
      <trkpt lat="43.00028" lon="1.13447">
        <ele>398</ele>
        <time>2025-08-07T15:29:33.000Z</time>
      </trkpt>
      <trkpt lat="43.00031" lon="1.13447">
        <ele>398</ele>
        <time>2025-08-07T15:29:34.000Z</time>
      </trkpt>
      <trkpt lat="43.00051" lon="1.13439">
        <ele>399.20001220703</ele>
        <time>2025-08-07T15:29:40.000Z</time>
      </trkpt>
      <trkpt lat="43.00084" lon="1.13424">
        <ele>398.79998779297</ele>
        <time>2025-08-07T15:29:49.000Z</time>
      </trkpt>
      <trkpt lat="43.0011" lon="1.13417">
        <ele>398.60000610352</ele>
        <time>2025-08-07T15:29:56.000Z</time>
      </trkpt>
      <trkpt lat="43.00128" lon="1.13408">
        <ele>398</ele>
        <time>2025-08-07T15:30:01.000Z</time>
      </trkpt>
      <trkpt lat="43.00138" lon="1.13402">
        <ele>397.79998779297</ele>
        <time>2025-08-07T15:30:04.000Z</time>
      </trkpt>
      <trkpt lat="43.00153" lon="1.13391">
        <ele>397</ele>
        <time>2025-08-07T15:30:08.000Z</time>
      </trkpt>
      <trkpt lat="43.00168" lon="1.13379">
        <ele>396.39999389648</ele>
        <time>2025-08-07T15:30:12.000Z</time>
      </trkpt>
      <trkpt lat="43.00181" lon="1.13369">
        <ele>396</ele>
        <time>2025-08-07T15:30:15.000Z</time>
      </trkpt>
      <trkpt lat="43.00188" lon="1.13361">
        <ele>395.79998779297</ele>
        <time>2025-08-07T15:30:17.000Z</time>
      </trkpt>
      <trkpt lat="43.00195" lon="1.1335">
        <ele>395.39999389648</ele>
        <time>2025-08-07T15:30:19.000Z</time>
      </trkpt>
      <trkpt lat="43.00204" lon="1.13335">
        <ele>395</ele>
        <time>2025-08-07T15:30:22.000Z</time>
      </trkpt>
      <trkpt lat="43.00215" lon="1.1332">
        <ele>394.39999389648</ele>
        <time>2025-08-07T15:30:25.000Z</time>
      </trkpt>
      <trkpt lat="43.00224" lon="1.1331">
        <ele>394</ele>
        <time>2025-08-07T15:30:27.000Z</time>
      </trkpt>
      <trkpt lat="43.00232" lon="1.133">
        <ele>393.79998779297</ele>
        <time>2025-08-07T15:30:29.000Z</time>
      </trkpt>
      <trkpt lat="43.00253" lon="1.13276">
        <ele>393.39999389648</ele>
        <time>2025-08-07T15:30:34.000Z</time>
      </trkpt>
      <trkpt lat="43.00284" lon="1.1324">
        <ele>392.79998779297</ele>
        <time>2025-08-07T15:30:42.000Z</time>
      </trkpt>
      <trkpt lat="43.00295" lon="1.13227">
        <ele>392.60000610352</ele>
        <time>2025-08-07T15:30:45.000Z</time>
      </trkpt>
      <trkpt lat="43.003" lon="1.1322">
        <ele>392.20001220703</ele>
        <time>2025-08-07T15:30:48.000Z</time>
      </trkpt>
      <trkpt lat="43.003" lon="1.1322">
        <ele>392.20001220703</ele>
        <time>2025-08-07T15:30:50.000Z</time>
      </trkpt>
      <trkpt lat="43.00299" lon="1.13215">
        <ele>392.20001220703</ele>
        <time>2025-08-07T15:30:56.000Z</time>
      </trkpt>
      <trkpt lat="43.00299" lon="1.13214">
        <ele>392.39999389648</ele>
        <time>2025-08-07T15:30:57.000Z</time>
      </trkpt>
      <trkpt lat="43.00305" lon="1.13204">
        <ele>392.60000610352</ele>
        <time>2025-08-07T15:31:05.000Z</time>
      </trkpt>
      <trkpt lat="43.00312" lon="1.13192">
        <ele>392.79998779297</ele>
        <time>2025-08-07T15:31:12.000Z</time>
      </trkpt>
      <trkpt lat="43.00327" lon="1.13172">
        <ele>393.20001220703</ele>
        <time>2025-08-07T15:31:19.000Z</time>
      </trkpt>
      <trkpt lat="43.00339" lon="1.13157">
        <ele>393.79998779297</ele>
        <time>2025-08-07T15:31:25.000Z</time>
      </trkpt>
      <trkpt lat="43.00345" lon="1.13151">
        <ele>394.39999389648</ele>
        <time>2025-08-07T15:31:28.000Z</time>
      </trkpt>
      <trkpt lat="43.00355" lon="1.13141">
        <ele>395</ele>
        <time>2025-08-07T15:31:33.000Z</time>
      </trkpt>
      <trkpt lat="43.00361" lon="1.13134">
        <ele>395.60000610352</ele>
        <time>2025-08-07T15:31:36.000Z</time>
      </trkpt>
      <trkpt lat="43.00374" lon="1.13121">
        <ele>396.20001220703</ele>
        <time>2025-08-07T15:31:43.000Z</time>
      </trkpt>
      <trkpt lat="43.00378" lon="1.13117">
        <ele>396.39999389648</ele>
        <time>2025-08-07T15:31:45.000Z</time>
      </trkpt>
      <trkpt lat="43.00394" lon="1.13096">
        <ele>397.20001220703</ele>
        <time>2025-08-07T15:31:54.000Z</time>
      </trkpt>
      <trkpt lat="43.00409" lon="1.13082">
        <ele>397.60000610352</ele>
        <time>2025-08-07T15:32:01.000Z</time>
      </trkpt>
      <trkpt lat="43.00427" lon="1.13068">
        <ele>397.39999389648</ele>
        <time>2025-08-07T15:32:07.000Z</time>
      </trkpt>
      <trkpt lat="43.00444" lon="1.13051">
        <ele>397.39999389648</ele>
        <time>2025-08-07T15:32:13.000Z</time>
      </trkpt>
      <trkpt lat="43.00466" lon="1.13031">
        <ele>397.39999389648</ele>
        <time>2025-08-07T15:32:20.000Z</time>
      </trkpt>
      <trkpt lat="43.00493" lon="1.13006">
        <ele>397</ele>
        <time>2025-08-07T15:32:29.000Z</time>
      </trkpt>
      <trkpt lat="43.00529" lon="1.12973">
        <ele>396.79998779297</ele>
        <time>2025-08-07T15:32:40.000Z</time>
      </trkpt>
      <trkpt lat="43.00535" lon="1.12966">
        <ele>396.79998779297</ele>
        <time>2025-08-07T15:32:42.000Z</time>
      </trkpt>
      <trkpt lat="43.00564" lon="1.12938">
        <ele>396.60000610352</ele>
        <time>2025-08-07T15:32:51.000Z</time>
      </trkpt>
      <trkpt lat="43.006" lon="1.12904">
        <ele>396.39999389648</ele>
        <time>2025-08-07T15:33:02.000Z</time>
      </trkpt>
      <trkpt lat="43.00608" lon="1.12895">
        <ele>396.39999389648</ele>
        <time>2025-08-07T15:33:05.000Z</time>
      </trkpt>
      <trkpt lat="43.0062" lon="1.12883">
        <ele>396.20001220703</ele>
        <time>2025-08-07T15:33:09.000Z</time>
      </trkpt>
      <trkpt lat="43.00635" lon="1.12871">
        <ele>396.20001220703</ele>
        <time>2025-08-07T15:33:15.000Z</time>
      </trkpt>
      <trkpt lat="43.00639" lon="1.12862">
        <ele>396.39999389648</ele>
        <time>2025-08-07T15:33:20.000Z</time>
      </trkpt>
      <trkpt lat="43.00638" lon="1.12857">
        <ele>396.79998779297</ele>
        <time>2025-08-07T15:33:23.000Z</time>
      </trkpt>
      <trkpt lat="43.00636" lon="1.12854">
        <ele>396.79998779297</ele>
        <time>2025-08-07T15:33:25.000Z</time>
      </trkpt>
      <trkpt lat="43.00627" lon="1.12838">
        <ele>397.39999389648</ele>
        <time>2025-08-07T15:33:33.000Z</time>
      </trkpt>
      <trkpt lat="43.0063" lon="1.12838">
        <ele>397.79998779297</ele>
        <time>2025-08-07T15:33:36.000Z</time>
      </trkpt>
      <trkpt lat="43.00639" lon="1.12846">
        <ele>397.79998779297</ele>
        <time>2025-08-07T15:33:44.000Z</time>
      </trkpt>
      <trkpt lat="43.00652" lon="1.12849">
        <ele>397.60000610352</ele>
        <time>2025-08-07T15:33:48.000Z</time>
      </trkpt>
      <trkpt lat="43.00656" lon="1.12847">
        <ele>397.39999389648</ele>
        <time>2025-08-07T15:33:49.000Z</time>
      </trkpt>
      <trkpt lat="43.00661" lon="1.12845">
        <ele>397.20001220703</ele>
        <time>2025-08-07T15:33:50.000Z</time>
      </trkpt>
      <trkpt lat="43.00672" lon="1.12834">
        <ele>396.60000610352</ele>
        <time>2025-08-07T15:33:53.000Z</time>
      </trkpt>
      <trkpt lat="43.00701" lon="1.12804">
        <ele>395.79998779297</ele>
        <time>2025-08-07T15:34:01.000Z</time>
      </trkpt>
      <trkpt lat="43.00705" lon="1.128">
        <ele>395.79998779297</ele>
        <time>2025-08-07T15:34:02.000Z</time>
      </trkpt>
      <trkpt lat="43.00737" lon="1.12762">
        <ele>396</ele>
        <time>2025-08-07T15:34:11.000Z</time>
      </trkpt>
      <trkpt lat="43.00768" lon="1.12723">
        <ele>396</ele>
        <time>2025-08-07T15:34:20.000Z</time>
      </trkpt>
      <trkpt lat="43.00791" lon="1.12691">
        <ele>396</ele>
        <time>2025-08-07T15:34:27.000Z</time>
      </trkpt>
      <trkpt lat="43.00812" lon="1.12659">
        <ele>396</ele>
        <time>2025-08-07T15:34:34.000Z</time>
      </trkpt>
      <trkpt lat="43.00826" lon="1.12636">
        <ele>395.79998779297</ele>
        <time>2025-08-07T15:34:39.000Z</time>
      </trkpt>
      <trkpt lat="43.00828" lon="1.12631">
        <ele>395.79998779297</ele>
        <time>2025-08-07T15:34:40.000Z</time>
      </trkpt>
      <trkpt lat="43.00834" lon="1.12622">
        <ele>395.60000610352</ele>
        <time>2025-08-07T15:34:42.000Z</time>
      </trkpt>
      <trkpt lat="43.00855" lon="1.12583">
        <ele>395.39999389648</ele>
        <time>2025-08-07T15:34:51.000Z</time>
      </trkpt>
      <trkpt lat="43.00874" lon="1.12545">
        <ele>395.39999389648</ele>
        <time>2025-08-07T15:34:59.000Z</time>
      </trkpt>
      <trkpt lat="43.00892" lon="1.12508">
        <ele>395.20001220703</ele>
        <time>2025-08-07T15:35:07.000Z</time>
      </trkpt>
      <trkpt lat="43.00894" lon="1.12503">
        <ele>395</ele>
        <time>2025-08-07T15:35:08.000Z</time>
      </trkpt>
      <trkpt lat="43.00904" lon="1.12483">
        <ele>394.60000610352</ele>
        <time>2025-08-07T15:35:12.000Z</time>
      </trkpt>
      <trkpt lat="43.00908" lon="1.12473">
        <ele>394.39999389648</ele>
        <time>2025-08-07T15:35:14.000Z</time>
      </trkpt>
      <trkpt lat="43.0091" lon="1.12468">
        <ele>394.20001220703</ele>
        <time>2025-08-07T15:35:15.000Z</time>
      </trkpt>
      <trkpt lat="43.00912" lon="1.12463">
        <ele>394.20001220703</ele>
        <time>2025-08-07T15:35:16.000Z</time>
      </trkpt>
      <trkpt lat="43.00917" lon="1.12448">
        <ele>394</ele>
        <time>2025-08-07T15:35:19.000Z</time>
      </trkpt>
      <trkpt lat="43.00921" lon="1.12439">
        <ele>393.79998779297</ele>
        <time>2025-08-07T15:35:21.000Z</time>
      </trkpt>
      <trkpt lat="43.00923" lon="1.12433">
        <ele>393.60000610352</ele>
        <time>2025-08-07T15:35:22.000Z</time>
      </trkpt>
      <trkpt lat="43.00926" lon="1.12423">
        <ele>393.39999389648</ele>
        <time>2025-08-07T15:35:24.000Z</time>
      </trkpt>
      <trkpt lat="43.0093" lon="1.12413">
        <ele>393.39999389648</ele>
        <time>2025-08-07T15:35:26.000Z</time>
      </trkpt>
      <trkpt lat="43.00932" lon="1.12407">
        <ele>393.39999389648</ele>
        <time>2025-08-07T15:35:27.000Z</time>
      </trkpt>
      <trkpt lat="43.00945" lon="1.12376">
        <ele>393.20001220703</ele>
        <time>2025-08-07T15:35:33.000Z</time>
      </trkpt>
      <trkpt lat="43.00947" lon="1.12371">
        <ele>393</ele>
        <time>2025-08-07T15:35:34.000Z</time>
      </trkpt>
      <trkpt lat="43.00949" lon="1.12365">
        <ele>393</ele>
        <time>2025-08-07T15:35:35.000Z</time>
      </trkpt>
      <trkpt lat="43.00953" lon="1.12355">
        <ele>393</ele>
        <time>2025-08-07T15:35:37.000Z</time>
      </trkpt>
      <trkpt lat="43.00966" lon="1.12323">
        <ele>392.39999389648</ele>
        <time>2025-08-07T15:35:43.000Z</time>
      </trkpt>
      <trkpt lat="43.0098" lon="1.12285">
        <ele>392.39999389648</ele>
        <time>2025-08-07T15:35:50.000Z</time>
      </trkpt>
      <trkpt lat="43.00997" lon="1.12242">
        <ele>392.20001220703</ele>
        <time>2025-08-07T15:35:58.000Z</time>
      </trkpt>
      <trkpt lat="43.01009" lon="1.12211">
        <ele>392.20001220703</ele>
        <time>2025-08-07T15:36:04.000Z</time>
      </trkpt>
      <trkpt lat="43.01024" lon="1.12175">
        <ele>392</ele>
        <time>2025-08-07T15:36:11.000Z</time>
      </trkpt>
      <trkpt lat="43.01034" lon="1.1215">
        <ele>391.79998779297</ele>
        <time>2025-08-07T15:36:16.000Z</time>
      </trkpt>
      <trkpt lat="43.01054" lon="1.12099">
        <ele>391.79998779297</ele>
        <time>2025-08-07T15:36:26.000Z</time>
      </trkpt>
      <trkpt lat="43.01073" lon="1.12052">
        <ele>391.79998779297</ele>
        <time>2025-08-07T15:36:35.000Z</time>
      </trkpt>
      <trkpt lat="43.0109" lon="1.1201">
        <ele>391.60000610352</ele>
        <time>2025-08-07T15:36:43.000Z</time>
      </trkpt>
      <trkpt lat="43.01092" lon="1.12006">
        <ele>391.60000610352</ele>
        <time>2025-08-07T15:36:44.000Z</time>
      </trkpt>
      <trkpt lat="43.01095" lon="1.11997">
        <ele>391.39999389648</ele>
        <time>2025-08-07T15:36:47.000Z</time>
      </trkpt>
      <trkpt lat="43.01103" lon="1.11979">
        <ele>391.20001220703</ele>
        <time>2025-08-07T15:36:52.000Z</time>
      </trkpt>
      <trkpt lat="43.01105" lon="1.11975">
        <ele>391.20001220703</ele>
        <time>2025-08-07T15:36:53.000Z</time>
      </trkpt>
      <trkpt lat="43.01122" lon="1.11939">
        <ele>390.79998779297</ele>
        <time>2025-08-07T15:37:01.000Z</time>
      </trkpt>
      <trkpt lat="43.01144" lon="1.11898">
        <ele>390.79998779297</ele>
        <time>2025-08-07T15:37:10.000Z</time>
      </trkpt>
      <trkpt lat="43.01172" lon="1.1185">
        <ele>390.20001220703</ele>
        <time>2025-08-07T15:37:20.000Z</time>
      </trkpt>
      <trkpt lat="43.01175" lon="1.11845">
        <ele>390</ele>
        <time>2025-08-07T15:37:21.000Z</time>
      </trkpt>
      <trkpt lat="43.01177" lon="1.11841">
        <ele>390</ele>
        <time>2025-08-07T15:37:22.000Z</time>
      </trkpt>
      <trkpt lat="43.01193" lon="1.11811">
        <ele>390</ele>
        <time>2025-08-07T15:37:29.000Z</time>
      </trkpt>
      <trkpt lat="43.01213" lon="1.11776">
        <ele>389.60000610352</ele>
        <time>2025-08-07T15:37:37.000Z</time>
      </trkpt>
      <trkpt lat="43.01237" lon="1.11736">
        <ele>389.39999389648</ele>
        <time>2025-08-07T15:37:46.000Z</time>
      </trkpt>
      <trkpt lat="43.01244" lon="1.11722">
        <ele>389.20001220703</ele>
        <time>2025-08-07T15:37:49.000Z</time>
      </trkpt>
      <trkpt lat="43.01264" lon="1.11691">
        <ele>389</ele>
        <time>2025-08-07T15:37:56.000Z</time>
      </trkpt>
      <trkpt lat="43.01285" lon="1.11655">
        <ele>388.79998779297</ele>
        <time>2025-08-07T15:38:04.000Z</time>
      </trkpt>
      <trkpt lat="43.01322" lon="1.11604">
        <ele>388.39999389648</ele>
        <time>2025-08-07T15:38:16.000Z</time>
      </trkpt>
      <trkpt lat="43.01348" lon="1.11571">
        <ele>388.60000610352</ele>
        <time>2025-08-07T15:38:24.000Z</time>
      </trkpt>
      <trkpt lat="43.01357" lon="1.11558">
        <ele>388.39999389648</ele>
        <time>2025-08-07T15:38:27.000Z</time>
      </trkpt>
      <trkpt lat="43.01397" lon="1.1151">
        <ele>388.20001220703</ele>
        <time>2025-08-07T15:38:39.000Z</time>
      </trkpt>
      <trkpt lat="43.01427" lon="1.11476">
        <ele>387.79998779297</ele>
        <time>2025-08-07T15:38:48.000Z</time>
      </trkpt>
      <trkpt lat="43.01454" lon="1.11448">
        <ele>388</ele>
        <time>2025-08-07T15:38:56.000Z</time>
      </trkpt>
      <trkpt lat="43.01476" lon="1.11424">
        <ele>388.20001220703</ele>
        <time>2025-08-07T15:39:03.000Z</time>
      </trkpt>
      <trkpt lat="43.01506" lon="1.11389">
        <ele>388.60000610352</ele>
        <time>2025-08-07T15:39:13.000Z</time>
      </trkpt>
      <trkpt lat="43.01525" lon="1.11367">
        <ele>388.60000610352</ele>
        <time>2025-08-07T15:39:19.000Z</time>
      </trkpt>
      <trkpt lat="43.01528" lon="1.11364">
        <ele>388.60000610352</ele>
        <time>2025-08-07T15:39:20.000Z</time>
      </trkpt>
      <trkpt lat="43.01557" lon="1.11331">
        <ele>388.39999389648</ele>
        <time>2025-08-07T15:39:30.000Z</time>
      </trkpt>
      <trkpt lat="43.01571" lon="1.11313">
        <ele>388.60000610352</ele>
        <time>2025-08-07T15:39:35.000Z</time>
      </trkpt>
      <trkpt lat="43.01598" lon="1.11285">
        <ele>388.39999389648</ele>
        <time>2025-08-07T15:39:43.000Z</time>
      </trkpt>
      <trkpt lat="43.01621" lon="1.11258">
        <ele>388.79998779297</ele>
        <time>2025-08-07T15:39:50.000Z</time>
      </trkpt>
      <trkpt lat="43.01644" lon="1.11234">
        <ele>389.20001220703</ele>
        <time>2025-08-07T15:39:58.000Z</time>
      </trkpt>
      <trkpt lat="43.01662" lon="1.11216">
        <ele>389.39999389648</ele>
        <time>2025-08-07T15:40:05.000Z</time>
      </trkpt>
      <trkpt lat="43.01679" lon="1.11199">
        <ele>389.60000610352</ele>
        <time>2025-08-07T15:40:12.000Z</time>
      </trkpt>
      <trkpt lat="43.01695" lon="1.11182">
        <ele>389.60000610352</ele>
        <time>2025-08-07T15:40:20.000Z</time>
      </trkpt>
      <trkpt lat="43.01711" lon="1.11163">
        <ele>389.60000610352</ele>
        <time>2025-08-07T15:40:28.000Z</time>
      </trkpt>
      <trkpt lat="43.01729" lon="1.11143">
        <ele>390</ele>
        <time>2025-08-07T15:40:35.000Z</time>
      </trkpt>
      <trkpt lat="43.01752" lon="1.11117">
        <ele>389.60000610352</ele>
        <time>2025-08-07T15:40:43.000Z</time>
      </trkpt>
      <trkpt lat="43.01791" lon="1.11074">
        <ele>389.60000610352</ele>
        <time>2025-08-07T15:40:56.000Z</time>
      </trkpt>
      <trkpt lat="43.01811" lon="1.11052">
        <ele>389.60000610352</ele>
        <time>2025-08-07T15:41:03.000Z</time>
      </trkpt>
      <trkpt lat="43.01842" lon="1.11018">
        <ele>389.39999389648</ele>
        <time>2025-08-07T15:41:13.000Z</time>
      </trkpt>
      <trkpt lat="43.01867" lon="1.1099">
        <ele>389.60000610352</ele>
        <time>2025-08-07T15:41:21.000Z</time>
      </trkpt>
      <trkpt lat="43.0189" lon="1.10966">
        <ele>389.39999389648</ele>
        <time>2025-08-07T15:41:28.000Z</time>
      </trkpt>
      <trkpt lat="43.01912" lon="1.10942">
        <ele>389.20001220703</ele>
        <time>2025-08-07T15:41:35.000Z</time>
      </trkpt>
      <trkpt lat="43.0193" lon="1.10921">
        <ele>389</ele>
        <time>2025-08-07T15:41:41.000Z</time>
      </trkpt>
      <trkpt lat="43.01937" lon="1.10914">
        <ele>389</ele>
        <time>2025-08-07T15:41:43.000Z</time>
      </trkpt>
      <trkpt lat="43.01966" lon="1.10882">
        <ele>388.60000610352</ele>
        <time>2025-08-07T15:41:52.000Z</time>
      </trkpt>
      <trkpt lat="43.01972" lon="1.10876">
        <ele>388.39999389648</ele>
        <time>2025-08-07T15:41:54.000Z</time>
      </trkpt>
      <trkpt lat="43.01986" lon="1.10861">
        <ele>388.39999389648</ele>
        <time>2025-08-07T15:41:58.000Z</time>
      </trkpt>
      <trkpt lat="43.02013" lon="1.1083">
        <ele>388.39999389648</ele>
        <time>2025-08-07T15:42:06.000Z</time>
      </trkpt>
      <trkpt lat="43.02016" lon="1.10826">
        <ele>388.39999389648</ele>
        <time>2025-08-07T15:42:07.000Z</time>
      </trkpt>
      <trkpt lat="43.02047" lon="1.10793">
        <ele>388</ele>
        <time>2025-08-07T15:42:16.000Z</time>
      </trkpt>
      <trkpt lat="43.02053" lon="1.10786">
        <ele>388</ele>
        <time>2025-08-07T15:42:18.000Z</time>
      </trkpt>
      <trkpt lat="43.0208" lon="1.10755">
        <ele>387.39999389648</ele>
        <time>2025-08-07T15:42:26.000Z</time>
      </trkpt>
      <trkpt lat="43.02093" lon="1.10742">
        <ele>387.39999389648</ele>
        <time>2025-08-07T15:42:30.000Z</time>
      </trkpt>
      <trkpt lat="43.02103" lon="1.10732">
        <ele>387.39999389648</ele>
        <time>2025-08-07T15:42:33.000Z</time>
      </trkpt>
      <trkpt lat="43.02131" lon="1.10701">
        <ele>387.39999389648</ele>
        <time>2025-08-07T15:42:42.000Z</time>
      </trkpt>
      <trkpt lat="43.02149" lon="1.10679">
        <ele>387.20001220703</ele>
        <time>2025-08-07T15:42:48.000Z</time>
      </trkpt>
      <trkpt lat="43.02171" lon="1.1065">
        <ele>387.20001220703</ele>
        <time>2025-08-07T15:42:55.000Z</time>
      </trkpt>
      <trkpt lat="43.02187" lon="1.10631">
        <ele>387.20001220703</ele>
        <time>2025-08-07T15:43:00.000Z</time>
      </trkpt>
      <trkpt lat="43.02203" lon="1.10609">
        <ele>387</ele>
        <time>2025-08-07T15:43:05.000Z</time>
      </trkpt>
      <trkpt lat="43.0223" lon="1.10575">
        <ele>386.60000610352</ele>
        <time>2025-08-07T15:43:13.000Z</time>
      </trkpt>
      <trkpt lat="43.02235" lon="1.10568">
        <ele>386.60000610352</ele>
        <time>2025-08-07T15:43:15.000Z</time>
      </trkpt>
      <trkpt lat="43.02252" lon="1.10541">
        <ele>386.60000610352</ele>
        <time>2025-08-07T15:43:21.000Z</time>
      </trkpt>
      <trkpt lat="43.02255" lon="1.10536">
        <ele>386.39999389648</ele>
        <time>2025-08-07T15:43:22.000Z</time>
      </trkpt>
      <trkpt lat="43.0226" lon="1.10526">
        <ele>386.39999389648</ele>
        <time>2025-08-07T15:43:24.000Z</time>
      </trkpt>
      <trkpt lat="43.02265" lon="1.10516">
        <ele>386.39999389648</ele>
        <time>2025-08-07T15:43:26.000Z</time>
      </trkpt>
      <trkpt lat="43.02291" lon="1.10474">
        <ele>386.20001220703</ele>
        <time>2025-08-07T15:43:35.000Z</time>
      </trkpt>
      <trkpt lat="43.0231" lon="1.10438">
        <ele>385.79998779297</ele>
        <time>2025-08-07T15:43:42.000Z</time>
      </trkpt>
      <trkpt lat="43.02318" lon="1.10423">
        <ele>385.60000610352</ele>
        <time>2025-08-07T15:43:45.000Z</time>
      </trkpt>
      <trkpt lat="43.02321" lon="1.10418">
        <ele>385.60000610352</ele>
        <time>2025-08-07T15:43:46.000Z</time>
      </trkpt>
      <trkpt lat="43.0234" lon="1.10381">
        <ele>385.60000610352</ele>
        <time>2025-08-07T15:43:53.000Z</time>
      </trkpt>
      <trkpt lat="43.02345" lon="1.1037">
        <ele>385.60000610352</ele>
        <time>2025-08-07T15:43:55.000Z</time>
      </trkpt>
      <trkpt lat="43.0236" lon="1.10336">
        <ele>385.39999389648</ele>
        <time>2025-08-07T15:44:01.000Z</time>
      </trkpt>
      <trkpt lat="43.02363" lon="1.10331">
        <ele>385.20001220703</ele>
        <time>2025-08-07T15:44:02.000Z</time>
      </trkpt>
      <trkpt lat="43.02376" lon="1.10304">
        <ele>384.79998779297</ele>
        <time>2025-08-07T15:44:07.000Z</time>
      </trkpt>
      <trkpt lat="43.02379" lon="1.10299">
        <ele>384.79998779297</ele>
        <time>2025-08-07T15:44:08.000Z</time>
      </trkpt>
      <trkpt lat="43.02385" lon="1.1029">
        <ele>384.60000610352</ele>
        <time>2025-08-07T15:44:10.000Z</time>
      </trkpt>
      <trkpt lat="43.0239" lon="1.1028">
        <ele>384.39999389648</ele>
        <time>2025-08-07T15:44:12.000Z</time>
      </trkpt>
      <trkpt lat="43.02398" lon="1.10261">
        <ele>384.20001220703</ele>
        <time>2025-08-07T15:44:16.000Z</time>
      </trkpt>
      <trkpt lat="43.02401" lon="1.10252">
        <ele>384.20001220703</ele>
        <time>2025-08-07T15:44:18.000Z</time>
      </trkpt>
      <trkpt lat="43.02406" lon="1.10231">
        <ele>384</ele>
        <time>2025-08-07T15:44:22.000Z</time>
      </trkpt>
      <trkpt lat="43.02419" lon="1.10182">
        <ele>383.79998779297</ele>
        <time>2025-08-07T15:44:31.000Z</time>
      </trkpt>
      <trkpt lat="43.02423" lon="1.1017">
        <ele>383.79998779297</ele>
        <time>2025-08-07T15:44:33.000Z</time>
      </trkpt>
      <trkpt lat="43.02433" lon="1.10142">
        <ele>383.39999389648</ele>
        <time>2025-08-07T15:44:38.000Z</time>
      </trkpt>
      <trkpt lat="43.02436" lon="1.10132">
        <ele>383.20001220703</ele>
        <time>2025-08-07T15:44:40.000Z</time>
      </trkpt>
      <trkpt lat="43.02444" lon="1.10105">
        <ele>383</ele>
        <time>2025-08-07T15:44:45.000Z</time>
      </trkpt>
      <trkpt lat="43.02446" lon="1.101">
        <ele>383</ele>
        <time>2025-08-07T15:44:46.000Z</time>
      </trkpt>
      <trkpt lat="43.02455" lon="1.10067">
        <ele>383</ele>
        <time>2025-08-07T15:44:53.000Z</time>
      </trkpt>
      <trkpt lat="43.02459" lon="1.10049">
        <ele>382.79998779297</ele>
        <time>2025-08-07T15:44:57.000Z</time>
      </trkpt>
      <trkpt lat="43.02463" lon="1.10032">
        <ele>382.79998779297</ele>
        <time>2025-08-07T15:45:01.000Z</time>
      </trkpt>
      <trkpt lat="43.02471" lon="1.1">
        <ele>382.79998779297</ele>
        <time>2025-08-07T15:45:08.000Z</time>
      </trkpt>
      <trkpt lat="43.02475" lon="1.09963">
        <ele>383</ele>
        <time>2025-08-07T15:45:15.000Z</time>
      </trkpt>
      <trkpt lat="43.02479" lon="1.09943">
        <ele>382.79998779297</ele>
        <time>2025-08-07T15:45:19.000Z</time>
      </trkpt>
      <trkpt lat="43.02484" lon="1.09914">
        <ele>382.79998779297</ele>
        <time>2025-08-07T15:45:24.000Z</time>
      </trkpt>
      <trkpt lat="43.02493" lon="1.0987">
        <ele>382.39999389648</ele>
        <time>2025-08-07T15:45:31.000Z</time>
      </trkpt>
      <trkpt lat="43.02494" lon="1.09864">
        <ele>382.39999389648</ele>
        <time>2025-08-07T15:45:32.000Z</time>
      </trkpt>
      <trkpt lat="43.02496" lon="1.09851">
        <ele>382.39999389648</ele>
        <time>2025-08-07T15:45:34.000Z</time>
      </trkpt>
      <trkpt lat="43.02501" lon="1.09826">
        <ele>382</ele>
        <time>2025-08-07T15:45:38.000Z</time>
      </trkpt>
      <trkpt lat="43.02507" lon="1.09802">
        <ele>381.79998779297</ele>
        <time>2025-08-07T15:45:42.000Z</time>
      </trkpt>
      <trkpt lat="43.02508" lon="1.09791">
        <ele>381.79998779297</ele>
        <time>2025-08-07T15:45:44.000Z</time>
      </trkpt>
      <trkpt lat="43.02508" lon="1.09785">
        <ele>381.79998779297</ele>
        <time>2025-08-07T15:45:45.000Z</time>
      </trkpt>
      <trkpt lat="43.02509" lon="1.09779">
        <ele>381.79998779297</ele>
        <time>2025-08-07T15:45:46.000Z</time>
      </trkpt>
      <trkpt lat="43.02513" lon="1.09758">
        <ele>381.60000610352</ele>
        <time>2025-08-07T15:45:50.000Z</time>
      </trkpt>
      <trkpt lat="43.02516" lon="1.09748">
        <ele>381.60000610352</ele>
        <time>2025-08-07T15:45:52.000Z</time>
      </trkpt>
      <trkpt lat="43.02519" lon="1.09727">
        <ele>381.39999389648</ele>
        <time>2025-08-07T15:45:56.000Z</time>
      </trkpt>
      <trkpt lat="43.02525" lon="1.09693">
        <ele>381.20001220703</ele>
        <time>2025-08-07T15:46:02.000Z</time>
      </trkpt>
      <trkpt lat="43.02528" lon="1.09676">
        <ele>381</ele>
        <time>2025-08-07T15:46:05.000Z</time>
      </trkpt>
      <trkpt lat="43.02528" lon="1.09665">
        <ele>380.79998779297</ele>
        <time>2025-08-07T15:46:07.000Z</time>
      </trkpt>
      <trkpt lat="43.02529" lon="1.0966">
        <ele>381</ele>
        <time>2025-08-07T15:46:08.000Z</time>
      </trkpt>
      <trkpt lat="43.02532" lon="1.09637">
        <ele>380.79998779297</ele>
        <time>2025-08-07T15:46:12.000Z</time>
      </trkpt>
      <trkpt lat="43.0254" lon="1.09599">
        <ele>380.39999389648</ele>
        <time>2025-08-07T15:46:19.000Z</time>
      </trkpt>
      <trkpt lat="43.02542" lon="1.09593">
        <ele>380.39999389648</ele>
        <time>2025-08-07T15:46:20.000Z</time>
      </trkpt>
      <trkpt lat="43.02546" lon="1.09569">
        <ele>380</ele>
        <time>2025-08-07T15:46:24.000Z</time>
      </trkpt>
      <trkpt lat="43.02547" lon="1.09564">
        <ele>380</ele>
        <time>2025-08-07T15:46:25.000Z</time>
      </trkpt>
      <trkpt lat="43.02549" lon="1.09554">
        <ele>379.79998779297</ele>
        <time>2025-08-07T15:46:27.000Z</time>
      </trkpt>
      <trkpt lat="43.02549" lon="1.09549">
        <ele>379.79998779297</ele>
        <time>2025-08-07T15:46:28.000Z</time>
      </trkpt>
      <trkpt lat="43.02557" lon="1.09516">
        <ele>379.39999389648</ele>
        <time>2025-08-07T15:46:35.000Z</time>
      </trkpt>
      <trkpt lat="43.02567" lon="1.09472">
        <ele>379.39999389648</ele>
        <time>2025-08-07T15:46:44.000Z</time>
      </trkpt>
      <trkpt lat="43.02584" lon="1.09418">
        <ele>379.20001220703</ele>
        <time>2025-08-07T15:46:54.000Z</time>
      </trkpt>
      <trkpt lat="43.02589" lon="1.09395">
        <ele>379</ele>
        <time>2025-08-07T15:46:58.000Z</time>
      </trkpt>
      <trkpt lat="43.02596" lon="1.09372">
        <ele>378.79998779297</ele>
        <time>2025-08-07T15:47:02.000Z</time>
      </trkpt>
      <trkpt lat="43.02609" lon="1.09328">
        <ele>379</ele>
        <time>2025-08-07T15:47:10.000Z</time>
      </trkpt>
      <trkpt lat="43.02614" lon="1.09313">
        <ele>379</ele>
        <time>2025-08-07T15:47:13.000Z</time>
      </trkpt>
      <trkpt lat="43.02618" lon="1.09302">
        <ele>379</ele>
        <time>2025-08-07T15:47:15.000Z</time>
      </trkpt>
      <trkpt lat="43.02627" lon="1.09274">
        <ele>379</ele>
        <time>2025-08-07T15:47:20.000Z</time>
      </trkpt>
      <trkpt lat="43.0263" lon="1.09263">
        <ele>379</ele>
        <time>2025-08-07T15:47:22.000Z</time>
      </trkpt>
      <trkpt lat="43.02632" lon="1.09258">
        <ele>379</ele>
        <time>2025-08-07T15:47:23.000Z</time>
      </trkpt>
      <trkpt lat="43.02641" lon="1.09236">
        <ele>378.79998779297</ele>
        <time>2025-08-07T15:47:27.000Z</time>
      </trkpt>
      <trkpt lat="43.02646" lon="1.09224">
        <ele>378.79998779297</ele>
        <time>2025-08-07T15:47:29.000Z</time>
      </trkpt>
      <trkpt lat="43.02655" lon="1.09203">
        <ele>378.79998779297</ele>
        <time>2025-08-07T15:47:33.000Z</time>
      </trkpt>
      <trkpt lat="43.02672" lon="1.09166">
        <ele>378.60000610352</ele>
        <time>2025-08-07T15:47:40.000Z</time>
      </trkpt>
      <trkpt lat="43.02683" lon="1.09145">
        <ele>378.20001220703</ele>
        <time>2025-08-07T15:47:45.000Z</time>
      </trkpt>
      <trkpt lat="43.02697" lon="1.09115">
        <ele>378.20001220703</ele>
        <time>2025-08-07T15:47:51.000Z</time>
      </trkpt>
      <trkpt lat="43.02699" lon="1.09111">
        <ele>378.20001220703</ele>
        <time>2025-08-07T15:47:52.000Z</time>
      </trkpt>
      <trkpt lat="43.02715" lon="1.09079">
        <ele>378</ele>
        <time>2025-08-07T15:47:59.000Z</time>
      </trkpt>
      <trkpt lat="43.02725" lon="1.09061">
        <ele>377.79998779297</ele>
        <time>2025-08-07T15:48:03.000Z</time>
      </trkpt>
      <trkpt lat="43.02733" lon="1.09046">
        <ele>377.60000610352</ele>
        <time>2025-08-07T15:48:06.000Z</time>
      </trkpt>
      <trkpt lat="43.02754" lon="1.09009">
        <ele>377.60000610352</ele>
        <time>2025-08-07T15:48:14.000Z</time>
      </trkpt>
      <trkpt lat="43.0276" lon="1.08999">
        <ele>377.39999389648</ele>
        <time>2025-08-07T15:48:16.000Z</time>
      </trkpt>
      <trkpt lat="43.02773" lon="1.08978">
        <ele>377.39999389648</ele>
        <time>2025-08-07T15:48:20.000Z</time>
      </trkpt>
      <trkpt lat="43.02789" lon="1.08952">
        <ele>377.20001220703</ele>
        <time>2025-08-07T15:48:25.000Z</time>
      </trkpt>
      <trkpt lat="43.02798" lon="1.08937">
        <ele>377</ele>
        <time>2025-08-07T15:48:28.000Z</time>
      </trkpt>
      <trkpt lat="43.02809" lon="1.08917">
        <ele>377</ele>
        <time>2025-08-07T15:48:32.000Z</time>
      </trkpt>
      <trkpt lat="43.02831" lon="1.08878">
        <ele>376.60000610352</ele>
        <time>2025-08-07T15:48:40.000Z</time>
      </trkpt>
      <trkpt lat="43.02837" lon="1.08868">
        <ele>376.39999389648</ele>
        <time>2025-08-07T15:48:42.000Z</time>
      </trkpt>
      <trkpt lat="43.02846" lon="1.08853">
        <ele>376.39999389648</ele>
        <time>2025-08-07T15:48:45.000Z</time>
      </trkpt>
      <trkpt lat="43.02871" lon="1.08813">
        <ele>375.79998779297</ele>
        <time>2025-08-07T15:48:53.000Z</time>
      </trkpt>
      <trkpt lat="43.02896" lon="1.08769">
        <ele>375.60000610352</ele>
        <time>2025-08-07T15:49:02.000Z</time>
      </trkpt>
      <trkpt lat="43.0291" lon="1.08745">
        <ele>375.39999389648</ele>
        <time>2025-08-07T15:49:07.000Z</time>
      </trkpt>
      <trkpt lat="43.02925" lon="1.08721">
        <ele>375</ele>
        <time>2025-08-07T15:49:12.000Z</time>
      </trkpt>
      <trkpt lat="43.02939" lon="1.08698">
        <ele>374.39999389648</ele>
        <time>2025-08-07T15:49:17.000Z</time>
      </trkpt>
      <trkpt lat="43.0295" lon="1.08679">
        <ele>374.20001220703</ele>
        <time>2025-08-07T15:49:21.000Z</time>
      </trkpt>
      <trkpt lat="43.02977" lon="1.08634">
        <ele>374</ele>
        <time>2025-08-07T15:49:30.000Z</time>
      </trkpt>
      <trkpt lat="43.03002" lon="1.0859">
        <ele>374</ele>
        <time>2025-08-07T15:49:39.000Z</time>
      </trkpt>
      <trkpt lat="43.03031" lon="1.08541">
        <ele>373.60000610352</ele>
        <time>2025-08-07T15:49:49.000Z</time>
      </trkpt>
      <trkpt lat="43.03044" lon="1.08518">
        <ele>373.60000610352</ele>
        <time>2025-08-07T15:49:55.000Z</time>
      </trkpt>
      <trkpt lat="43.03051" lon="1.08505">
        <ele>373.79998779297</ele>
        <time>2025-08-07T15:50:01.000Z</time>
      </trkpt>
      <trkpt lat="43.03051" lon="1.08505">
        <ele>373.79998779297</ele>
        <time>2025-08-07T15:50:02.000Z</time>
      </trkpt>
      <trkpt lat="43.03054" lon="1.08502">
        <ele>374.20001220703</ele>
        <time>2025-08-07T15:52:37.000Z</time>
      </trkpt>
      <trkpt lat="43.03059" lon="1.08496">
        <ele>374.20001220703</ele>
        <time>2025-08-07T15:52:40.000Z</time>
      </trkpt>
      <trkpt lat="43.03065" lon="1.08483">
        <ele>374.20001220703</ele>
        <time>2025-08-07T15:52:44.000Z</time>
      </trkpt>
      <trkpt lat="43.03075" lon="1.08465">
        <ele>374</ele>
        <time>2025-08-07T15:52:49.000Z</time>
      </trkpt>
      <trkpt lat="43.03089" lon="1.08441">
        <ele>374</ele>
        <time>2025-08-07T15:52:56.000Z</time>
      </trkpt>
      <trkpt lat="43.03106" lon="1.08414">
        <ele>373.79998779297</ele>
        <time>2025-08-07T15:53:03.000Z</time>
      </trkpt>
      <trkpt lat="43.03113" lon="1.08401">
        <ele>373.79998779297</ele>
        <time>2025-08-07T15:53:06.000Z</time>
      </trkpt>
      <trkpt lat="43.0313" lon="1.0837">
        <ele>373.39999389648</ele>
        <time>2025-08-07T15:53:13.000Z</time>
      </trkpt>
      <trkpt lat="43.03148" lon="1.0834">
        <ele>373.20001220703</ele>
        <time>2025-08-07T15:53:20.000Z</time>
      </trkpt>
      <trkpt lat="43.03155" lon="1.08326">
        <ele>373.39999389648</ele>
        <time>2025-08-07T15:53:25.000Z</time>
      </trkpt>
      <trkpt lat="43.03165" lon="1.08308">
        <ele>373</ele>
        <time>2025-08-07T15:53:31.000Z</time>
      </trkpt>
      <trkpt lat="43.03174" lon="1.08293">
        <ele>372.79998779297</ele>
        <time>2025-08-07T15:53:35.000Z</time>
      </trkpt>
      <trkpt lat="43.03176" lon="1.08288">
        <ele>372.79998779297</ele>
        <time>2025-08-07T15:53:36.000Z</time>
      </trkpt>
      <trkpt lat="43.03194" lon="1.08257">
        <ele>372.79998779297</ele>
        <time>2025-08-07T15:53:43.000Z</time>
      </trkpt>
      <trkpt lat="43.03219" lon="1.08204">
        <ele>372.20001220703</ele>
        <time>2025-08-07T15:53:54.000Z</time>
      </trkpt>
      <trkpt lat="43.03234" lon="1.08168">
        <ele>372.20001220703</ele>
        <time>2025-08-07T15:54:01.000Z</time>
      </trkpt>
      <trkpt lat="43.03248" lon="1.08129">
        <ele>372.20001220703</ele>
        <time>2025-08-07T15:54:09.000Z</time>
      </trkpt>
      <trkpt lat="43.03264" lon="1.08085">
        <ele>372.20001220703</ele>
        <time>2025-08-07T15:54:18.000Z</time>
      </trkpt>
      <trkpt lat="43.03273" lon="1.08058">
        <ele>372.20001220703</ele>
        <time>2025-08-07T15:54:24.000Z</time>
      </trkpt>
      <trkpt lat="43.03285" lon="1.0802">
        <ele>372</ele>
        <time>2025-08-07T15:54:32.000Z</time>
      </trkpt>
      <trkpt lat="43.03292" lon="1.07991">
        <ele>372</ele>
        <time>2025-08-07T15:54:38.000Z</time>
      </trkpt>
      <trkpt lat="43.03297" lon="1.0797">
        <ele>372</ele>
        <time>2025-08-07T15:54:42.000Z</time>
      </trkpt>
      <trkpt lat="43.033" lon="1.07956">
        <ele>372</ele>
        <time>2025-08-07T15:54:45.000Z</time>
      </trkpt>
      <trkpt lat="43.03309" lon="1.07921">
        <ele>371.60000610352</ele>
        <time>2025-08-07T15:54:52.000Z</time>
      </trkpt>
      <trkpt lat="43.03317" lon="1.07889">
        <ele>371.60000610352</ele>
        <time>2025-08-07T15:54:58.000Z</time>
      </trkpt>
      <trkpt lat="43.03329" lon="1.07851">
        <ele>371.60000610352</ele>
        <time>2025-08-07T15:55:05.000Z</time>
      </trkpt>
      <trkpt lat="43.03335" lon="1.07826">
        <ele>371.60000610352</ele>
        <time>2025-08-07T15:55:10.000Z</time>
      </trkpt>
      <trkpt lat="43.03337" lon="1.07816">
        <ele>371.60000610352</ele>
        <time>2025-08-07T15:55:12.000Z</time>
      </trkpt>
      <trkpt lat="43.03345" lon="1.0778">
        <ele>371.39999389648</ele>
        <time>2025-08-07T15:55:19.000Z</time>
      </trkpt>
      <trkpt lat="43.03352" lon="1.07746">
        <ele>371.20001220703</ele>
        <time>2025-08-07T15:55:26.000Z</time>
      </trkpt>
      <trkpt lat="43.03361" lon="1.07712">
        <ele>371.20001220703</ele>
        <time>2025-08-07T15:55:33.000Z</time>
      </trkpt>
      <trkpt lat="43.03366" lon="1.07695">
        <ele>371.20001220703</ele>
        <time>2025-08-07T15:55:36.000Z</time>
      </trkpt>
      <trkpt lat="43.03369" lon="1.07684">
        <ele>371.20001220703</ele>
        <time>2025-08-07T15:55:38.000Z</time>
      </trkpt>
      <trkpt lat="43.03382" lon="1.07643">
        <ele>370.79998779297</ele>
        <time>2025-08-07T15:55:45.000Z</time>
      </trkpt>
      <trkpt lat="43.03384" lon="1.07632">
        <ele>370.79998779297</ele>
        <time>2025-08-07T15:55:47.000Z</time>
      </trkpt>
      <trkpt lat="43.03398" lon="1.07583">
        <ele>370.60000610352</ele>
        <time>2025-08-07T15:55:56.000Z</time>
      </trkpt>
      <trkpt lat="43.03408" lon="1.07542">
        <ele>370.60000610352</ele>
        <time>2025-08-07T15:56:04.000Z</time>
      </trkpt>
      <trkpt lat="43.03411" lon="1.07531">
        <ele>370.39999389648</ele>
        <time>2025-08-07T15:56:06.000Z</time>
      </trkpt>
      <trkpt lat="43.03419" lon="1.07499">
        <ele>370.20001220703</ele>
        <time>2025-08-07T15:56:12.000Z</time>
      </trkpt>
      <trkpt lat="43.0342" lon="1.07493">
        <ele>370.20001220703</ele>
        <time>2025-08-07T15:56:13.000Z</time>
      </trkpt>
      <trkpt lat="43.03426" lon="1.07466">
        <ele>370.20001220703</ele>
        <time>2025-08-07T15:56:18.000Z</time>
      </trkpt>
      <trkpt lat="43.03429" lon="1.07454">
        <ele>370.20001220703</ele>
        <time>2025-08-07T15:56:20.000Z</time>
      </trkpt>
      <trkpt lat="43.03433" lon="1.07438">
        <ele>370.20001220703</ele>
        <time>2025-08-07T15:56:23.000Z</time>
      </trkpt>
      <trkpt lat="43.03436" lon="1.07422">
        <ele>370.20001220703</ele>
        <time>2025-08-07T15:56:26.000Z</time>
      </trkpt>
      <trkpt lat="43.03445" lon="1.07384">
        <ele>370</ele>
        <time>2025-08-07T15:56:33.000Z</time>
      </trkpt>
      <trkpt lat="43.03454" lon="1.0735">
        <ele>370</ele>
        <time>2025-08-07T15:56:39.000Z</time>
      </trkpt>
      <trkpt lat="43.03458" lon="1.07333">
        <ele>370</ele>
        <time>2025-08-07T15:56:42.000Z</time>
      </trkpt>
      <trkpt lat="43.03465" lon="1.07305">
        <ele>369.79998779297</ele>
        <time>2025-08-07T15:56:47.000Z</time>
      </trkpt>
      <trkpt lat="43.03476" lon="1.07255">
        <ele>369.60000610352</ele>
        <time>2025-08-07T15:56:56.000Z</time>
      </trkpt>
      <trkpt lat="43.03478" lon="1.07249">
        <ele>369.60000610352</ele>
        <time>2025-08-07T15:56:57.000Z</time>
      </trkpt>
      <trkpt lat="43.03479" lon="1.07244">
        <ele>369.39999389648</ele>
        <time>2025-08-07T15:56:58.000Z</time>
      </trkpt>
      <trkpt lat="43.03484" lon="1.07222">
        <ele>369.39999389648</ele>
        <time>2025-08-07T15:57:02.000Z</time>
      </trkpt>
      <trkpt lat="43.03496" lon="1.07171">
        <ele>369.60000610352</ele>
        <time>2025-08-07T15:57:11.000Z</time>
      </trkpt>
      <trkpt lat="43.03512" lon="1.0712">
        <ele>369.39999389648</ele>
        <time>2025-08-07T15:57:20.000Z</time>
      </trkpt>
      <trkpt lat="43.0353" lon="1.07063">
        <ele>369.20001220703</ele>
        <time>2025-08-07T15:57:30.000Z</time>
      </trkpt>
      <trkpt lat="43.03547" lon="1.07014">
        <ele>369</ele>
        <time>2025-08-07T15:57:39.000Z</time>
      </trkpt>
      <trkpt lat="43.03559" lon="1.06979">
        <ele>368.79998779297</ele>
        <time>2025-08-07T15:57:45.000Z</time>
      </trkpt>
      <trkpt lat="43.03565" lon="1.06962">
        <ele>368.79998779297</ele>
        <time>2025-08-07T15:57:48.000Z</time>
      </trkpt>
      <trkpt lat="43.03583" lon="1.06914">
        <ele>368.60000610352</ele>
        <time>2025-08-07T15:57:57.000Z</time>
      </trkpt>
      <trkpt lat="43.03604" lon="1.06861">
        <ele>368.39999389648</ele>
        <time>2025-08-07T15:58:07.000Z</time>
      </trkpt>
      <trkpt lat="43.03606" lon="1.06856">
        <ele>368.39999389648</ele>
        <time>2025-08-07T15:58:08.000Z</time>
      </trkpt>
      <trkpt lat="43.03621" lon="1.06824">
        <ele>368.20001220703</ele>
        <time>2025-08-07T15:58:14.000Z</time>
      </trkpt>
      <trkpt lat="43.03647" lon="1.06767">
        <ele>368.20001220703</ele>
        <time>2025-08-07T15:58:25.000Z</time>
      </trkpt>
      <trkpt lat="43.03661" lon="1.06734">
        <ele>368.20001220703</ele>
        <time>2025-08-07T15:58:32.000Z</time>
      </trkpt>
      <trkpt lat="43.03681" lon="1.06689">
        <ele>368</ele>
        <time>2025-08-07T15:58:41.000Z</time>
      </trkpt>
      <trkpt lat="43.03684" lon="1.06683">
        <ele>367.79998779297</ele>
        <time>2025-08-07T15:58:42.000Z</time>
      </trkpt>
      <trkpt lat="43.03704" lon="1.06636">
        <ele>367.60000610352</ele>
        <time>2025-08-07T15:58:51.000Z</time>
      </trkpt>
      <trkpt lat="43.03726" lon="1.06589">
        <ele>367.60000610352</ele>
        <time>2025-08-07T15:59:00.000Z</time>
      </trkpt>
      <trkpt lat="43.03753" lon="1.06539">
        <ele>367.60000610352</ele>
        <time>2025-08-07T15:59:10.000Z</time>
      </trkpt>
      <trkpt lat="43.03776" lon="1.06499">
        <ele>367.20001220703</ele>
        <time>2025-08-07T15:59:18.000Z</time>
      </trkpt>
      <trkpt lat="43.03798" lon="1.06459">
        <ele>367.20001220703</ele>
        <time>2025-08-07T15:59:26.000Z</time>
      </trkpt>
      <trkpt lat="43.03803" lon="1.06449">
        <ele>367.20001220703</ele>
        <time>2025-08-07T15:59:28.000Z</time>
      </trkpt>
      <trkpt lat="43.03826" lon="1.06417">
        <ele>367</ele>
        <time>2025-08-07T15:59:36.000Z</time>
      </trkpt>
      <trkpt lat="43.03841" lon="1.06395">
        <ele>367.20001220703</ele>
        <time>2025-08-07T15:59:42.000Z</time>
      </trkpt>
      <trkpt lat="43.03843" lon="1.0639">
        <ele>367</ele>
        <time>2025-08-07T15:59:46.000Z</time>
      </trkpt>
      <trkpt lat="43.03831" lon="1.06398">
        <ele>366.79998779297</ele>
        <time>2025-08-07T16:00:01.000Z</time>
      </trkpt>
      <trkpt lat="43.03827" lon="1.06396">
        <ele>366.79998779297</ele>
        <time>2025-08-07T16:00:04.000Z</time>
      </trkpt>
      <trkpt lat="43.03824" lon="1.06393">
        <ele>366.60000610352</ele>
        <time>2025-08-07T16:00:10.000Z</time>
      </trkpt>
      <trkpt lat="43.03824" lon="1.06393">
        <ele>366.60000610352</ele>
        <time>2025-08-07T16:00:11.000Z</time>
      </trkpt>
      <trkpt lat="43.0382" lon="1.06389">
        <ele>366.60000610352</ele>
        <time>2025-08-07T16:01:10.000Z</time>
      </trkpt>
      <trkpt lat="43.03812" lon="1.06376">
        <ele>366.60000610352</ele>
        <time>2025-08-07T16:01:14.000Z</time>
      </trkpt>
      <trkpt lat="43.03812" lon="1.0637">
        <ele>366.79998779297</ele>
        <time>2025-08-07T16:01:15.000Z</time>
      </trkpt>
      <trkpt lat="43.03814" lon="1.06358">
        <ele>366.79998779297</ele>
        <time>2025-08-07T16:01:17.000Z</time>
      </trkpt>
      <trkpt lat="43.03815" lon="1.06353">
        <ele>366.79998779297</ele>
        <time>2025-08-07T16:01:18.000Z</time>
      </trkpt>
      <trkpt lat="43.03825" lon="1.06312">
        <ele>366.60000610352</ele>
        <time>2025-08-07T16:01:25.000Z</time>
      </trkpt>
      <trkpt lat="43.03836" lon="1.06257">
        <ele>367</ele>
        <time>2025-08-07T16:01:34.000Z</time>
      </trkpt>
      <trkpt lat="43.03844" lon="1.06195">
        <ele>367.79998779297</ele>
        <time>2025-08-07T16:01:44.000Z</time>
      </trkpt>
      <trkpt lat="43.03847" lon="1.06147">
        <ele>368</ele>
        <time>2025-08-07T16:01:52.000Z</time>
      </trkpt>
      <trkpt lat="43.03849" lon="1.06124">
        <ele>368.20001220703</ele>
        <time>2025-08-07T16:01:56.000Z</time>
      </trkpt>
      <trkpt lat="43.03849" lon="1.06107">
        <ele>368.39999389648</ele>
        <time>2025-08-07T16:01:59.000Z</time>
      </trkpt>
      <trkpt lat="43.03849" lon="1.06089">
        <ele>368.60000610352</ele>
        <time>2025-08-07T16:02:02.000Z</time>
      </trkpt>
      <trkpt lat="43.03846" lon="1.0606">
        <ele>368.79998779297</ele>
        <time>2025-08-07T16:02:07.000Z</time>
      </trkpt>
      <trkpt lat="43.03844" lon="1.06048">
        <ele>368.79998779297</ele>
        <time>2025-08-07T16:02:09.000Z</time>
      </trkpt>
      <trkpt lat="43.03839" lon="1.06024">
        <ele>368.79998779297</ele>
        <time>2025-08-07T16:02:13.000Z</time>
      </trkpt>
      <trkpt lat="43.03835" lon="1.06013">
        <ele>369</ele>
        <time>2025-08-07T16:02:15.000Z</time>
      </trkpt>
      <trkpt lat="43.03831" lon="1.06002">
        <ele>369</ele>
        <time>2025-08-07T16:02:17.000Z</time>
      </trkpt>
      <trkpt lat="43.03823" lon="1.0598">
        <ele>369</ele>
        <time>2025-08-07T16:02:21.000Z</time>
      </trkpt>
      <trkpt lat="43.03801" lon="1.05946">
        <ele>369</ele>
        <time>2025-08-07T16:02:28.000Z</time>
      </trkpt>
      <trkpt lat="43.03768" lon="1.059">
        <ele>368.79998779297</ele>
        <time>2025-08-07T16:02:37.000Z</time>
      </trkpt>
      <trkpt lat="43.03738" lon="1.05861">
        <ele>368.39999389648</ele>
        <time>2025-08-07T16:02:45.000Z</time>
      </trkpt>
      <trkpt lat="43.03708" lon="1.05822">
        <ele>368.20001220703</ele>
        <time>2025-08-07T16:02:53.000Z</time>
      </trkpt>
      <trkpt lat="43.0369" lon="1.05796">
        <ele>368</ele>
        <time>2025-08-07T16:02:58.000Z</time>
      </trkpt>
      <trkpt lat="43.03675" lon="1.05776">
        <ele>367.79998779297</ele>
        <time>2025-08-07T16:03:02.000Z</time>
      </trkpt>
      <trkpt lat="43.03638" lon="1.05727">
        <ele>367.79998779297</ele>
        <time>2025-08-07T16:03:12.000Z</time>
      </trkpt>
      <trkpt lat="43.03601" lon="1.05673">
        <ele>367.39999389648</ele>
        <time>2025-08-07T16:03:22.000Z</time>
      </trkpt>
      <trkpt lat="43.03598" lon="1.05666">
        <ele>367.20001220703</ele>
        <time>2025-08-07T16:03:23.000Z</time>
      </trkpt>
      <trkpt lat="43.03584" lon="1.05641">
        <ele>367</ele>
        <time>2025-08-07T16:03:27.000Z</time>
      </trkpt>
      <trkpt lat="43.03576" lon="1.05619">
        <ele>366.79998779297</ele>
        <time>2025-08-07T16:03:30.000Z</time>
      </trkpt>
      <trkpt lat="43.03558" lon="1.05559">
        <ele>366.20001220703</ele>
        <time>2025-08-07T16:03:38.000Z</time>
      </trkpt>
      <trkpt lat="43.03551" lon="1.05507">
        <ele>366</ele>
        <time>2025-08-07T16:03:45.000Z</time>
      </trkpt>
      <trkpt lat="43.0355" lon="1.055">
        <ele>366</ele>
        <time>2025-08-07T16:03:46.000Z</time>
      </trkpt>
      <trkpt lat="43.03544" lon="1.05445">
        <ele>365.79998779297</ele>
        <time>2025-08-07T16:03:54.000Z</time>
      </trkpt>
      <trkpt lat="43.03537" lon="1.05391">
        <ele>366</ele>
        <time>2025-08-07T16:04:02.000Z</time>
      </trkpt>
      <trkpt lat="43.03529" lon="1.05345">
        <ele>366</ele>
        <time>2025-08-07T16:04:09.000Z</time>
      </trkpt>
      <trkpt lat="43.03519" lon="1.05282">
        <ele>366.20001220703</ele>
        <time>2025-08-07T16:04:19.000Z</time>
      </trkpt>
      <trkpt lat="43.03512" lon="1.05224">
        <ele>366</ele>
        <time>2025-08-07T16:04:28.000Z</time>
      </trkpt>
      <trkpt lat="43.03505" lon="1.05164">
        <ele>366</ele>
        <time>2025-08-07T16:04:37.000Z</time>
      </trkpt>
      <trkpt lat="43.035" lon="1.05113">
        <ele>365.79998779297</ele>
        <time>2025-08-07T16:04:44.000Z</time>
      </trkpt>
      <trkpt lat="43.03495" lon="1.05068">
        <ele>365.39999389648</ele>
        <time>2025-08-07T16:04:50.000Z</time>
      </trkpt>
      <trkpt lat="43.03491" lon="1.05029">
        <ele>365</ele>
        <time>2025-08-07T16:04:55.000Z</time>
      </trkpt>
      <trkpt lat="43.03485" lon="1.04975">
        <ele>364.60000610352</ele>
        <time>2025-08-07T16:05:02.000Z</time>
      </trkpt>
      <trkpt lat="43.03479" lon="1.04929">
        <ele>364.20001220703</ele>
        <time>2025-08-07T16:05:08.000Z</time>
      </trkpt>
      <trkpt lat="43.03476" lon="1.04899">
        <ele>363.79998779297</ele>
        <time>2025-08-07T16:05:12.000Z</time>
      </trkpt>
      <trkpt lat="43.03471" lon="1.04852">
        <ele>363.20001220703</ele>
        <time>2025-08-07T16:05:18.000Z</time>
      </trkpt>
      <trkpt lat="43.03466" lon="1.04812">
        <ele>362.79998779297</ele>
        <time>2025-08-07T16:05:23.000Z</time>
      </trkpt>
      <trkpt lat="43.03457" lon="1.04741">
        <ele>362.60000610352</ele>
        <time>2025-08-07T16:05:32.000Z</time>
      </trkpt>
      <trkpt lat="43.03448" lon="1.04665">
        <ele>362.20001220703</ele>
        <time>2025-08-07T16:05:42.000Z</time>
      </trkpt>
      <trkpt lat="43.03447" lon="1.04659">
        <ele>362.20001220703</ele>
        <time>2025-08-07T16:05:43.000Z</time>
      </trkpt>
      <trkpt lat="43.03441" lon="1.04609">
        <ele>362</ele>
        <time>2025-08-07T16:05:50.000Z</time>
      </trkpt>
      <trkpt lat="43.03434" lon="1.04561">
        <ele>362</ele>
        <time>2025-08-07T16:05:57.000Z</time>
      </trkpt>
      <trkpt lat="43.03427" lon="1.04498">
        <ele>361.79998779297</ele>
        <time>2025-08-07T16:06:06.000Z</time>
      </trkpt>
      <trkpt lat="43.03418" lon="1.0443">
        <ele>361.79998779297</ele>
        <time>2025-08-07T16:06:16.000Z</time>
      </trkpt>
      <trkpt lat="43.0341" lon="1.04363">
        <ele>362</ele>
        <time>2025-08-07T16:06:26.000Z</time>
      </trkpt>
      <trkpt lat="43.03403" lon="1.04301">
        <ele>362</ele>
        <time>2025-08-07T16:06:35.000Z</time>
      </trkpt>
      <trkpt lat="43.03395" lon="1.04235">
        <ele>361.79998779297</ele>
        <time>2025-08-07T16:06:44.000Z</time>
      </trkpt>
      <trkpt lat="43.03385" lon="1.04161">
        <ele>361.60000610352</ele>
        <time>2025-08-07T16:06:54.000Z</time>
      </trkpt>
      <trkpt lat="43.03384" lon="1.04153">
        <ele>361.60000610352</ele>
        <time>2025-08-07T16:06:55.000Z</time>
      </trkpt>
      <trkpt lat="43.0338" lon="1.04124">
        <ele>361.60000610352</ele>
        <time>2025-08-07T16:06:59.000Z</time>
      </trkpt>
      <trkpt lat="43.03378" lon="1.04109">
        <ele>361.60000610352</ele>
        <time>2025-08-07T16:07:01.000Z</time>
      </trkpt>
      <trkpt lat="43.03371" lon="1.04049">
        <ele>361.79998779297</ele>
        <time>2025-08-07T16:07:09.000Z</time>
      </trkpt>
      <trkpt lat="43.03365" lon="1.03993">
        <ele>361.39999389648</ele>
        <time>2025-08-07T16:07:17.000Z</time>
      </trkpt>
      <trkpt lat="43.03357" lon="1.03933">
        <ele>361.20001220703</ele>
        <time>2025-08-07T16:07:25.000Z</time>
      </trkpt>
      <trkpt lat="43.03348" lon="1.03872">
        <ele>361</ele>
        <time>2025-08-07T16:07:33.000Z</time>
      </trkpt>
      <trkpt lat="43.03343" lon="1.03833">
        <ele>360.79998779297</ele>
        <time>2025-08-07T16:07:38.000Z</time>
      </trkpt>
      <trkpt lat="43.03338" lon="1.03787">
        <ele>360.79998779297</ele>
        <time>2025-08-07T16:07:44.000Z</time>
      </trkpt>
      <trkpt lat="43.03334" lon="1.03757">
        <ele>360.60000610352</ele>
        <time>2025-08-07T16:07:48.000Z</time>
      </trkpt>
      <trkpt lat="43.0333" lon="1.03727">
        <ele>360.39999389648</ele>
        <time>2025-08-07T16:07:52.000Z</time>
      </trkpt>
      <trkpt lat="43.03321" lon="1.03651">
        <ele>359.79998779297</ele>
        <time>2025-08-07T16:08:02.000Z</time>
      </trkpt>
      <trkpt lat="43.0332" lon="1.03644">
        <ele>359.60000610352</ele>
        <time>2025-08-07T16:08:03.000Z</time>
      </trkpt>
      <trkpt lat="43.03311" lon="1.03566">
        <ele>359.20001220703</ele>
        <time>2025-08-07T16:08:13.000Z</time>
      </trkpt>
      <trkpt lat="43.03304" lon="1.03496">
        <ele>359.39999389648</ele>
        <time>2025-08-07T16:08:22.000Z</time>
      </trkpt>
      <trkpt lat="43.03296" lon="1.03424">
        <ele>359</ele>
        <time>2025-08-07T16:08:31.000Z</time>
      </trkpt>
      <trkpt lat="43.03296" lon="1.03416">
        <ele>358.79998779297</ele>
        <time>2025-08-07T16:08:32.000Z</time>
      </trkpt>
      <trkpt lat="43.03289" lon="1.03355">
        <ele>357.79998779297</ele>
        <time>2025-08-07T16:08:39.000Z</time>
      </trkpt>
      <trkpt lat="43.03288" lon="1.03347">
        <ele>357.60000610352</ele>
        <time>2025-08-07T16:08:40.000Z</time>
      </trkpt>
      <trkpt lat="43.0328" lon="1.03279">
        <ele>357.20001220703</ele>
        <time>2025-08-07T16:08:48.000Z</time>
      </trkpt>
      <trkpt lat="43.03273" lon="1.03225">
        <ele>357</ele>
        <time>2025-08-07T16:08:55.000Z</time>
      </trkpt>
      <trkpt lat="43.03269" lon="1.03203">
        <ele>356.60000610352</ele>
        <time>2025-08-07T16:08:58.000Z</time>
      </trkpt>
      <trkpt lat="43.03266" lon="1.03182">
        <ele>356.60000610352</ele>
        <time>2025-08-07T16:09:01.000Z</time>
      </trkpt>
      <trkpt lat="43.03264" lon="1.03169">
        <ele>356.60000610352</ele>
        <time>2025-08-07T16:09:03.000Z</time>
      </trkpt>
      <trkpt lat="43.03256" lon="1.03093">
        <ele>357.20001220703</ele>
        <time>2025-08-07T16:09:14.000Z</time>
      </trkpt>
      <trkpt lat="43.0325" lon="1.03043">
        <ele>357.60000610352</ele>
        <time>2025-08-07T16:09:22.000Z</time>
      </trkpt>
      <trkpt lat="43.03251" lon="1.03011">
        <ele>357.60000610352</ele>
        <time>2025-08-07T16:09:27.000Z</time>
      </trkpt>
      <trkpt lat="43.03253" lon="1.02998">
        <ele>357.60000610352</ele>
        <time>2025-08-07T16:09:29.000Z</time>
      </trkpt>
      <trkpt lat="43.03264" lon="1.02965">
        <ele>357.39999389648</ele>
        <time>2025-08-07T16:09:34.000Z</time>
      </trkpt>
      <trkpt lat="43.03267" lon="1.0296">
        <ele>357.39999389648</ele>
        <time>2025-08-07T16:09:35.000Z</time>
      </trkpt>
      <trkpt lat="43.03275" lon="1.0295">
        <ele>357.20001220703</ele>
        <time>2025-08-07T16:09:37.000Z</time>
      </trkpt>
      <trkpt lat="43.03283" lon="1.02944">
        <ele>357</ele>
        <time>2025-08-07T16:09:39.000Z</time>
      </trkpt>
      <trkpt lat="43.03288" lon="1.02942">
        <ele>356.79998779297</ele>
        <time>2025-08-07T16:09:40.000Z</time>
      </trkpt>
      <trkpt lat="43.03292" lon="1.02941">
        <ele>356.79998779297</ele>
        <time>2025-08-07T16:09:41.000Z</time>
      </trkpt>
      <trkpt lat="43.03301" lon="1.02944">
        <ele>356.79998779297</ele>
        <time>2025-08-07T16:09:43.000Z</time>
      </trkpt>
      <trkpt lat="43.03313" lon="1.0295">
        <ele>356.79998779297</ele>
        <time>2025-08-07T16:09:46.000Z</time>
      </trkpt>
      <trkpt lat="43.03322" lon="1.0295">
        <ele>356.79998779297</ele>
        <time>2025-08-07T16:09:48.000Z</time>
      </trkpt>
      <trkpt lat="43.03335" lon="1.02945">
        <ele>356.79998779297</ele>
        <time>2025-08-07T16:09:51.000Z</time>
      </trkpt>
      <trkpt lat="43.03344" lon="1.02944">
        <ele>356.60000610352</ele>
        <time>2025-08-07T16:09:53.000Z</time>
      </trkpt>
      <trkpt lat="43.03366" lon="1.02956">
        <ele>356.60000610352</ele>
        <time>2025-08-07T16:09:58.000Z</time>
      </trkpt>
      <trkpt lat="43.03403" lon="1.0298">
        <ele>356.39999389648</ele>
        <time>2025-08-07T16:10:06.000Z</time>
      </trkpt>
      <trkpt lat="43.03422" lon="1.0299">
        <ele>356</ele>
        <time>2025-08-07T16:10:10.000Z</time>
      </trkpt>
      <trkpt lat="43.03427" lon="1.02992">
        <ele>356</ele>
        <time>2025-08-07T16:10:11.000Z</time>
      </trkpt>
      <trkpt lat="43.03432" lon="1.02994">
        <ele>356</ele>
        <time>2025-08-07T16:10:12.000Z</time>
      </trkpt>
      <trkpt lat="43.03466" lon="1.03001">
        <ele>355.39999389648</ele>
        <time>2025-08-07T16:10:19.000Z</time>
      </trkpt>
      <trkpt lat="43.035" lon="1.02998">
        <ele>355</ele>
        <time>2025-08-07T16:10:26.000Z</time>
      </trkpt>
      <trkpt lat="43.03505" lon="1.02996">
        <ele>355</ele>
        <time>2025-08-07T16:10:27.000Z</time>
      </trkpt>
      <trkpt lat="43.03545" lon="1.02982">
        <ele>355</ele>
        <time>2025-08-07T16:10:36.000Z</time>
      </trkpt>
      <trkpt lat="43.03587" lon="1.02968">
        <ele>355.20001220703</ele>
        <time>2025-08-07T16:10:45.000Z</time>
      </trkpt>
      <trkpt lat="43.03634" lon="1.02952">
        <ele>355.20001220703</ele>
        <time>2025-08-07T16:10:55.000Z</time>
      </trkpt>
      <trkpt lat="43.03671" lon="1.02938">
        <ele>355.20001220703</ele>
        <time>2025-08-07T16:11:03.000Z</time>
      </trkpt>
      <trkpt lat="43.03713" lon="1.02924">
        <ele>355.60000610352</ele>
        <time>2025-08-07T16:11:12.000Z</time>
      </trkpt>
      <trkpt lat="43.03758" lon="1.0291">
        <ele>355.79998779297</ele>
        <time>2025-08-07T16:11:22.000Z</time>
      </trkpt>
      <trkpt lat="43.03782" lon="1.02908">
        <ele>356.20001220703</ele>
        <time>2025-08-07T16:11:27.000Z</time>
      </trkpt>
      <trkpt lat="43.03796" lon="1.0291">
        <ele>356.60000610352</ele>
        <time>2025-08-07T16:11:30.000Z</time>
      </trkpt>
      <trkpt lat="43.03844" lon="1.02921">
        <ele>356.39999389648</ele>
        <time>2025-08-07T16:11:40.000Z</time>
      </trkpt>
      <trkpt lat="43.03853" lon="1.02924">
        <ele>356.60000610352</ele>
        <time>2025-08-07T16:11:42.000Z</time>
      </trkpt>
      <trkpt lat="43.03861" lon="1.0293">
        <ele>356.39999389648</ele>
        <time>2025-08-07T16:11:44.000Z</time>
      </trkpt>
      <trkpt lat="43.03864" lon="1.02935">
        <ele>356.39999389648</ele>
        <time>2025-08-07T16:11:45.000Z</time>
      </trkpt>
      <trkpt lat="43.03865" lon="1.0294">
        <ele>356.39999389648</ele>
        <time>2025-08-07T16:11:46.000Z</time>
      </trkpt>
      <trkpt lat="43.03866" lon="1.02953">
        <ele>356.39999389648</ele>
        <time>2025-08-07T16:11:48.000Z</time>
      </trkpt>
      <trkpt lat="43.03866" lon="1.02965">
        <ele>356.39999389648</ele>
        <time>2025-08-07T16:11:50.000Z</time>
      </trkpt>
      <trkpt lat="43.03868" lon="1.02979">
        <ele>356.39999389648</ele>
        <time>2025-08-07T16:11:53.000Z</time>
      </trkpt>
      <trkpt lat="43.03868" lon="1.02984">
        <ele>356.39999389648</ele>
        <time>2025-08-07T16:11:57.000Z</time>
      </trkpt>
      <trkpt lat="43.03868" lon="1.02984">
        <ele>356.39999389648</ele>
        <time>2025-08-07T16:11:58.000Z</time>
      </trkpt>
      <trkpt lat="43.03872" lon="1.0299">
        <ele>356.39999389648</ele>
        <time>2025-08-07T16:12:05.000Z</time>
      </trkpt>
      <trkpt lat="43.03876" lon="1.02996">
        <ele>356.39999389648</ele>
        <time>2025-08-07T16:12:07.000Z</time>
      </trkpt>
      <trkpt lat="43.03883" lon="1.0301">
        <ele>356.39999389648</ele>
        <time>2025-08-07T16:12:12.000Z</time>
      </trkpt>
      <trkpt lat="43.03879" lon="1.03026">
        <ele>356.79998779297</ele>
        <time>2025-08-07T16:12:17.000Z</time>
      </trkpt>
      <trkpt lat="43.03873" lon="1.03054">
        <ele>356.39999389648</ele>
        <time>2025-08-07T16:12:23.000Z</time>
      </trkpt>
      <trkpt lat="43.03866" lon="1.03074">
        <ele>356</ele>
        <time>2025-08-07T16:12:29.000Z</time>
      </trkpt>
      <trkpt lat="43.03857" lon="1.03098">
        <ele>356</ele>
        <time>2025-08-07T16:12:37.000Z</time>
      </trkpt>
      <trkpt lat="43.0385" lon="1.03123">
        <ele>356.20001220703</ele>
        <time>2025-08-07T16:12:45.000Z</time>
      </trkpt>
      <trkpt lat="43.03845" lon="1.03142">
        <ele>356.39999389648</ele>
        <time>2025-08-07T16:12:53.000Z</time>
      </trkpt>
      <trkpt lat="43.03845" lon="1.03143">
        <ele>356.39999389648</ele>
        <time>2025-08-07T16:12:57.000Z</time>
      </trkpt>
      <trkpt lat="43.03843" lon="1.03134">
        <ele>356.60000610352</ele>
        <time>2025-08-07T16:54:48.000Z</time>
      </trkpt>
      <trkpt lat="43.03843" lon="1.03134">
        <ele>356.60000610352</ele>
        <time>2025-08-07T16:54:49.000Z</time>
      </trkpt>
      <trkpt lat="43.03875" lon="1.02995">
        <ele>359</ele>
        <time>2025-08-07T16:59:03.000Z</time>
      </trkpt>
      <trkpt lat="43.03873" lon="1.02988">
        <ele>359</ele>
        <time>2025-08-07T16:59:05.000Z</time>
      </trkpt>
      <trkpt lat="43.03868" lon="1.0296">
        <ele>358.60000610352</ele>
        <time>2025-08-07T16:59:11.000Z</time>
      </trkpt>
      <trkpt lat="43.03868" lon="1.02937">
        <ele>358.39999389648</ele>
        <time>2025-08-07T16:59:16.000Z</time>
      </trkpt>
      <trkpt lat="43.03857" lon="1.02919">
        <ele>358.20001220703</ele>
        <time>2025-08-07T16:59:21.000Z</time>
      </trkpt>
      <trkpt lat="43.03847" lon="1.02915">
        <ele>358</ele>
        <time>2025-08-07T16:59:24.000Z</time>
      </trkpt>
      <trkpt lat="43.0384" lon="1.02914">
        <ele>357.79998779297</ele>
        <time>2025-08-07T16:59:26.000Z</time>
      </trkpt>
      <trkpt lat="43.03809" lon="1.02907">
        <ele>358</ele>
        <time>2025-08-07T16:59:35.000Z</time>
      </trkpt>
      <trkpt lat="43.03781" lon="1.02903">
        <ele>358.20001220703</ele>
        <time>2025-08-07T16:59:43.000Z</time>
      </trkpt>
      <trkpt lat="43.03757" lon="1.02904">
        <ele>358.20001220703</ele>
        <time>2025-08-07T16:59:50.000Z</time>
      </trkpt>
      <trkpt lat="43.03737" lon="1.0291">
        <ele>358.20001220703</ele>
        <time>2025-08-07T16:59:56.000Z</time>
      </trkpt>
      <trkpt lat="43.03712" lon="1.02918">
        <ele>358.20001220703</ele>
        <time>2025-08-07T17:00:03.000Z</time>
      </trkpt>
      <trkpt lat="43.0368" lon="1.0293">
        <ele>357.79998779297</ele>
        <time>2025-08-07T17:00:12.000Z</time>
      </trkpt>
      <trkpt lat="43.0365" lon="1.0294">
        <ele>357.60000610352</ele>
        <time>2025-08-07T17:00:21.000Z</time>
      </trkpt>
      <trkpt lat="43.03634" lon="1.02945">
        <ele>357.39999389648</ele>
        <time>2025-08-07T17:00:26.000Z</time>
      </trkpt>
      <trkpt lat="43.03616" lon="1.02953">
        <ele>357.20001220703</ele>
        <time>2025-08-07T17:00:32.000Z</time>
      </trkpt>
      <trkpt lat="43.03613" lon="1.02954">
        <ele>357.20001220703</ele>
        <time>2025-08-07T17:00:33.000Z</time>
      </trkpt>
      <trkpt lat="43.03589" lon="1.02961">
        <ele>357.20001220703</ele>
        <time>2025-08-07T17:00:41.000Z</time>
      </trkpt>
      <trkpt lat="43.03572" lon="1.02968">
        <ele>357.39999389648</ele>
        <time>2025-08-07T17:00:47.000Z</time>
      </trkpt>
      <trkpt lat="43.0355" lon="1.02975">
        <ele>357.60000610352</ele>
        <time>2025-08-07T17:00:55.000Z</time>
      </trkpt>
      <trkpt lat="43.0353" lon="1.02982">
        <ele>357.60000610352</ele>
        <time>2025-08-07T17:01:02.000Z</time>
      </trkpt>
      <trkpt lat="43.03512" lon="1.02989">
        <ele>357.60000610352</ele>
        <time>2025-08-07T17:01:09.000Z</time>
      </trkpt>
      <trkpt lat="43.03492" lon="1.02994">
        <ele>357.39999389648</ele>
        <time>2025-08-07T17:01:16.000Z</time>
      </trkpt>
      <trkpt lat="43.03463" lon="1.02995">
        <ele>357.20001220703</ele>
        <time>2025-08-07T17:01:25.000Z</time>
      </trkpt>
      <trkpt lat="43.0343" lon="1.02988">
        <ele>357</ele>
        <time>2025-08-07T17:01:35.000Z</time>
      </trkpt>
      <trkpt lat="43.03401" lon="1.02974">
        <ele>357</ele>
        <time>2025-08-07T17:01:45.000Z</time>
      </trkpt>
      <trkpt lat="43.0338" lon="1.02961">
        <ele>357.39999389648</ele>
        <time>2025-08-07T17:01:53.000Z</time>
      </trkpt>
      <trkpt lat="43.03359" lon="1.02945">
        <ele>357.79998779297</ele>
        <time>2025-08-07T17:02:02.000Z</time>
      </trkpt>
      <trkpt lat="43.03344" lon="1.02923">
        <ele>358.20001220703</ele>
        <time>2025-08-07T17:02:09.000Z</time>
      </trkpt>
      <trkpt lat="43.03342" lon="1.02914">
        <ele>358.39999389648</ele>
        <time>2025-08-07T17:02:11.000Z</time>
      </trkpt>
      <trkpt lat="43.03336" lon="1.02902">
        <ele>358.60000610352</ele>
        <time>2025-08-07T17:02:14.000Z</time>
      </trkpt>
      <trkpt lat="43.0333" lon="1.02894">
        <ele>358.60000610352</ele>
        <time>2025-08-07T17:02:16.000Z</time>
      </trkpt>
      <trkpt lat="43.03322" lon="1.02889">
        <ele>358.79998779297</ele>
        <time>2025-08-07T17:02:18.000Z</time>
      </trkpt>
      <trkpt lat="43.0331" lon="1.02887">
        <ele>358.79998779297</ele>
        <time>2025-08-07T17:02:21.000Z</time>
      </trkpt>
      <trkpt lat="43.03301" lon="1.02888">
        <ele>358.79998779297</ele>
        <time>2025-08-07T17:02:23.000Z</time>
      </trkpt>
      <trkpt lat="43.03293" lon="1.02888">
        <ele>358.79998779297</ele>
        <time>2025-08-07T17:02:25.000Z</time>
      </trkpt>
      <trkpt lat="43.03281" lon="1.0288">
        <ele>358.60000610352</ele>
        <time>2025-08-07T17:02:28.000Z</time>
      </trkpt>
      <trkpt lat="43.03269" lon="1.0287">
        <ele>358.39999389648</ele>
        <time>2025-08-07T17:02:31.000Z</time>
      </trkpt>
      <trkpt lat="43.03261" lon="1.02863">
        <ele>358.39999389648</ele>
        <time>2025-08-07T17:02:33.000Z</time>
      </trkpt>
      <trkpt lat="43.03253" lon="1.02856">
        <ele>358.20001220703</ele>
        <time>2025-08-07T17:02:35.000Z</time>
      </trkpt>
      <trkpt lat="43.03231" lon="1.02822">
        <ele>358.20001220703</ele>
        <time>2025-08-07T17:02:42.000Z</time>
      </trkpt>
      <trkpt lat="43.03226" lon="1.02812">
        <ele>358.20001220703</ele>
        <time>2025-08-07T17:02:44.000Z</time>
      </trkpt>
      <trkpt lat="43.0322" lon="1.02789">
        <ele>358.60000610352</ele>
        <time>2025-08-07T17:02:48.000Z</time>
      </trkpt>
      <trkpt lat="43.03216" lon="1.02773">
        <ele>358.79998779297</ele>
        <time>2025-08-07T17:02:51.000Z</time>
      </trkpt>
      <trkpt lat="43.03213" lon="1.02751">
        <ele>359.20001220703</ele>
        <time>2025-08-07T17:02:55.000Z</time>
      </trkpt>
      <trkpt lat="43.03212" lon="1.02746">
        <ele>359.20001220703</ele>
        <time>2025-08-07T17:02:56.000Z</time>
      </trkpt>
      <trkpt lat="43.03208" lon="1.02716">
        <ele>359.39999389648</ele>
        <time>2025-08-07T17:03:01.000Z</time>
      </trkpt>
      <trkpt lat="43.03206" lon="1.02698">
        <ele>359.39999389648</ele>
        <time>2025-08-07T17:03:04.000Z</time>
      </trkpt>
      <trkpt lat="43.03204" lon="1.02679">
        <ele>359.39999389648</ele>
        <time>2025-08-07T17:03:07.000Z</time>
      </trkpt>
      <trkpt lat="43.03203" lon="1.02673">
        <ele>359.60000610352</ele>
        <time>2025-08-07T17:03:08.000Z</time>
      </trkpt>
      <trkpt lat="43.03198" lon="1.02623">
        <ele>359.79998779297</ele>
        <time>2025-08-07T17:03:16.000Z</time>
      </trkpt>
      <trkpt lat="43.03191" lon="1.02567">
        <ele>360</ele>
        <time>2025-08-07T17:03:25.000Z</time>
      </trkpt>
      <trkpt lat="43.03189" lon="1.02549">
        <ele>360</ele>
        <time>2025-08-07T17:03:28.000Z</time>
      </trkpt>
      <trkpt lat="43.03187" lon="1.02536">
        <ele>360</ele>
        <time>2025-08-07T17:03:30.000Z</time>
      </trkpt>
      <trkpt lat="43.03187" lon="1.0253">
        <ele>360</ele>
        <time>2025-08-07T17:03:31.000Z</time>
      </trkpt>
      <trkpt lat="43.03182" lon="1.02476">
        <ele>359.79998779297</ele>
        <time>2025-08-07T17:03:38.000Z</time>
      </trkpt>
      <trkpt lat="43.03175" lon="1.02419">
        <ele>359.20001220703</ele>
        <time>2025-08-07T17:03:46.000Z</time>
      </trkpt>
      <trkpt lat="43.03167" lon="1.02355">
        <ele>358.60000610352</ele>
        <time>2025-08-07T17:03:55.000Z</time>
      </trkpt>
      <trkpt lat="43.03164" lon="1.02331">
        <ele>358.60000610352</ele>
        <time>2025-08-07T17:03:58.000Z</time>
      </trkpt>
      <trkpt lat="43.03157" lon="1.0228">
        <ele>357.79998779297</ele>
        <time>2025-08-07T17:04:05.000Z</time>
      </trkpt>
      <trkpt lat="43.03152" lon="1.02244">
        <ele>357.39999389648</ele>
        <time>2025-08-07T17:04:10.000Z</time>
      </trkpt>
      <trkpt lat="43.0315" lon="1.02215">
        <ele>357.20001220703</ele>
        <time>2025-08-07T17:04:14.000Z</time>
      </trkpt>
      <trkpt lat="43.03143" lon="1.02162">
        <ele>356.79998779297</ele>
        <time>2025-08-07T17:04:22.000Z</time>
      </trkpt>
      <trkpt lat="43.03139" lon="1.02124">
        <ele>356.79998779297</ele>
        <time>2025-08-07T17:04:28.000Z</time>
      </trkpt>
      <trkpt lat="43.03137" lon="1.02119">
        <ele>356.60000610352</ele>
        <time>2025-08-07T17:04:29.000Z</time>
      </trkpt>
      <trkpt lat="43.03133" lon="1.021">
        <ele>356.39999389648</ele>
        <time>2025-08-07T17:04:33.000Z</time>
      </trkpt>
      <trkpt lat="43.0313" lon="1.02078">
        <ele>356</ele>
        <time>2025-08-07T17:04:37.000Z</time>
      </trkpt>
      <trkpt lat="43.03124" lon="1.02025">
        <ele>355.60000610352</ele>
        <time>2025-08-07T17:04:46.000Z</time>
      </trkpt>
      <trkpt lat="43.03118" lon="1.01977">
        <ele>355.39999389648</ele>
        <time>2025-08-07T17:04:54.000Z</time>
      </trkpt>
      <trkpt lat="43.03112" lon="1.0193">
        <ele>355.20001220703</ele>
        <time>2025-08-07T17:05:03.000Z</time>
      </trkpt>
      <trkpt lat="43.03107" lon="1.01888">
        <ele>355.60000610352</ele>
        <time>2025-08-07T17:05:11.000Z</time>
      </trkpt>
      <trkpt lat="43.03104" lon="1.01845">
        <ele>355.60000610352</ele>
        <time>2025-08-07T17:05:19.000Z</time>
      </trkpt>
      <trkpt lat="43.03101" lon="1.01822">
        <ele>355.60000610352</ele>
        <time>2025-08-07T17:05:23.000Z</time>
      </trkpt>
      <trkpt lat="43.03101" lon="1.01811">
        <ele>355.60000610352</ele>
        <time>2025-08-07T17:05:25.000Z</time>
      </trkpt>
      <trkpt lat="43.031" lon="1.01805">
        <ele>355.60000610352</ele>
        <time>2025-08-07T17:05:26.000Z</time>
      </trkpt>
      <trkpt lat="43.03098" lon="1.01794">
        <ele>355.60000610352</ele>
        <time>2025-08-07T17:05:28.000Z</time>
      </trkpt>
      <trkpt lat="43.03092" lon="1.01767">
        <ele>355.60000610352</ele>
        <time>2025-08-07T17:05:33.000Z</time>
      </trkpt>
      <trkpt lat="43.03092" lon="1.01762">
        <ele>355.60000610352</ele>
        <time>2025-08-07T17:05:34.000Z</time>
      </trkpt>
      <trkpt lat="43.03087" lon="1.01718">
        <ele>355.60000610352</ele>
        <time>2025-08-07T17:05:42.000Z</time>
      </trkpt>
      <trkpt lat="43.03083" lon="1.01681">
        <ele>355.79998779297</ele>
        <time>2025-08-07T17:05:49.000Z</time>
      </trkpt>
      <trkpt lat="43.03087" lon="1.01638">
        <ele>356.39999389648</ele>
        <time>2025-08-07T17:05:57.000Z</time>
      </trkpt>
      <trkpt lat="43.03091" lon="1.01627">
        <ele>356.39999389648</ele>
        <time>2025-08-07T17:05:59.000Z</time>
      </trkpt>
      <trkpt lat="43.03101" lon="1.016">
        <ele>356.60000610352</ele>
        <time>2025-08-07T17:06:04.000Z</time>
      </trkpt>
      <trkpt lat="43.03112" lon="1.01578">
        <ele>356.20001220703</ele>
        <time>2025-08-07T17:06:09.000Z</time>
      </trkpt>
      <trkpt lat="43.03125" lon="1.01545">
        <ele>355.60000610352</ele>
        <time>2025-08-07T17:06:17.000Z</time>
      </trkpt>
      <trkpt lat="43.03127" lon="1.01541">
        <ele>355.39999389648</ele>
        <time>2025-08-07T17:06:18.000Z</time>
      </trkpt>
      <trkpt lat="43.03134" lon="1.01518">
        <ele>355.20001220703</ele>
        <time>2025-08-07T17:06:23.000Z</time>
      </trkpt>
      <trkpt lat="43.03145" lon="1.01474">
        <ele>355</ele>
        <time>2025-08-07T17:06:32.000Z</time>
      </trkpt>
      <trkpt lat="43.03152" lon="1.01433">
        <ele>354.79998779297</ele>
        <time>2025-08-07T17:06:40.000Z</time>
      </trkpt>
      <trkpt lat="43.03157" lon="1.01394">
        <ele>354.79998779297</ele>
        <time>2025-08-07T17:06:47.000Z</time>
      </trkpt>
      <trkpt lat="43.03157" lon="1.01389">
        <ele>354.79998779297</ele>
        <time>2025-08-07T17:06:48.000Z</time>
      </trkpt>
      <trkpt lat="43.03164" lon="1.01336">
        <ele>354.79998779297</ele>
        <time>2025-08-07T17:06:58.000Z</time>
      </trkpt>
      <trkpt lat="43.03171" lon="1.0128">
        <ele>354.79998779297</ele>
        <time>2025-08-07T17:07:09.000Z</time>
      </trkpt>
      <trkpt lat="43.03178" lon="1.0123">
        <ele>354.79998779297</ele>
        <time>2025-08-07T17:07:19.000Z</time>
      </trkpt>
      <trkpt lat="43.03184" lon="1.01192">
        <ele>354.79998779297</ele>
        <time>2025-08-07T17:07:27.000Z</time>
      </trkpt>
      <trkpt lat="43.0319" lon="1.01151">
        <ele>354.79998779297</ele>
        <time>2025-08-07T17:07:35.000Z</time>
      </trkpt>
      <trkpt lat="43.03195" lon="1.01115">
        <ele>355</ele>
        <time>2025-08-07T17:07:42.000Z</time>
      </trkpt>
      <trkpt lat="43.03201" lon="1.01063">
        <ele>354.79998779297</ele>
        <time>2025-08-07T17:07:52.000Z</time>
      </trkpt>
      <trkpt lat="43.03206" lon="1.01022">
        <ele>354.79998779297</ele>
        <time>2025-08-07T17:08:00.000Z</time>
      </trkpt>
      <trkpt lat="43.03212" lon="1.00969">
        <ele>354.79998779297</ele>
        <time>2025-08-07T17:08:10.000Z</time>
      </trkpt>
      <trkpt lat="43.0322" lon="1.00919">
        <ele>354.60000610352</ele>
        <time>2025-08-07T17:08:19.000Z</time>
      </trkpt>
      <trkpt lat="43.03222" lon="1.00907">
        <ele>354.39999389648</ele>
        <time>2025-08-07T17:08:21.000Z</time>
      </trkpt>
      <trkpt lat="43.03225" lon="1.00879">
        <ele>354</ele>
        <time>2025-08-07T17:08:26.000Z</time>
      </trkpt>
      <trkpt lat="43.0323" lon="1.00844">
        <ele>353.60000610352</ele>
        <time>2025-08-07T17:08:33.000Z</time>
      </trkpt>
      <trkpt lat="43.03236" lon="1.00807">
        <ele>353.60000610352</ele>
        <time>2025-08-07T17:08:41.000Z</time>
      </trkpt>
      <trkpt lat="43.0324" lon="1.00775">
        <ele>353.39999389648</ele>
        <time>2025-08-07T17:08:47.000Z</time>
      </trkpt>
      <trkpt lat="43.03243" lon="1.00753">
        <ele>353.20001220703</ele>
        <time>2025-08-07T17:08:51.000Z</time>
      </trkpt>
      <trkpt lat="43.0325" lon="1.00706">
        <ele>353</ele>
        <time>2025-08-07T17:08:59.000Z</time>
      </trkpt>
      <trkpt lat="43.03255" lon="1.0067">
        <ele>353.20001220703</ele>
        <time>2025-08-07T17:09:05.000Z</time>
      </trkpt>
      <trkpt lat="43.03257" lon="1.00658">
        <ele>353.20001220703</ele>
        <time>2025-08-07T17:09:07.000Z</time>
      </trkpt>
      <trkpt lat="43.03266" lon="1.00592">
        <ele>353.20001220703</ele>
        <time>2025-08-07T17:09:18.000Z</time>
      </trkpt>
      <trkpt lat="43.03274" lon="1.00531">
        <ele>352.60000610352</ele>
        <time>2025-08-07T17:09:28.000Z</time>
      </trkpt>
      <trkpt lat="43.0328" lon="1.00479">
        <ele>352.39999389648</ele>
        <time>2025-08-07T17:09:37.000Z</time>
      </trkpt>
      <trkpt lat="43.03282" lon="1.00429">
        <ele>352.60000610352</ele>
        <time>2025-08-07T17:09:46.000Z</time>
      </trkpt>
      <trkpt lat="43.03276" lon="1.00379">
        <ele>352.60000610352</ele>
        <time>2025-08-07T17:09:55.000Z</time>
      </trkpt>
      <trkpt lat="43.03266" lon="1.00343">
        <ele>353</ele>
        <time>2025-08-07T17:10:02.000Z</time>
      </trkpt>
      <trkpt lat="43.03249" lon="1.00302">
        <ele>353</ele>
        <time>2025-08-07T17:10:11.000Z</time>
      </trkpt>
      <trkpt lat="43.03237" lon="1.00279">
        <ele>353.39999389648</ele>
        <time>2025-08-07T17:10:17.000Z</time>
      </trkpt>
      <trkpt lat="43.03221" lon="1.00245">
        <ele>353.20001220703</ele>
        <time>2025-08-07T17:10:25.000Z</time>
      </trkpt>
      <trkpt lat="43.03212" lon="1.00209">
        <ele>353.60000610352</ele>
        <time>2025-08-07T17:10:33.000Z</time>
      </trkpt>
      <trkpt lat="43.03211" lon="1.00205">
        <ele>353.79998779297</ele>
        <time>2025-08-07T17:10:34.000Z</time>
      </trkpt>
      <trkpt lat="43.03206" lon="1.0017">
        <ele>354.60000610352</ele>
        <time>2025-08-07T17:10:42.000Z</time>
      </trkpt>
      <trkpt lat="43.03202" lon="1.00146">
        <ele>354.79998779297</ele>
        <time>2025-08-07T17:10:48.000Z</time>
      </trkpt>
      <trkpt lat="43.032" lon="1.00142">
        <ele>354.79998779297</ele>
        <time>2025-08-07T17:10:49.000Z</time>
      </trkpt>
      <trkpt lat="43.03196" lon="1.00137">
        <ele>355</ele>
        <time>2025-08-07T17:10:52.000Z</time>
      </trkpt>
      <trkpt lat="43.03195" lon="1.00135">
        <ele>355.20001220703</ele>
        <time>2025-08-07T17:10:53.000Z</time>
      </trkpt>
      <trkpt lat="43.03194" lon="1.00135">
        <ele>355.20001220703</ele>
        <time>2025-08-07T17:10:54.000Z</time>
      </trkpt>
      <trkpt lat="43.03194" lon="1.00137">
        <ele>355.39999389648</ele>
        <time>2025-08-07T17:10:56.000Z</time>
      </trkpt>
      <trkpt lat="43.03201" lon="1.00146">
        <ele>355.60000610352</ele>
        <time>2025-08-07T17:11:02.000Z</time>
      </trkpt>
      <trkpt lat="43.03202" lon="1.00147">
        <ele>355.60000610352</ele>
        <time>2025-08-07T17:11:03.000Z</time>
      </trkpt>
      <trkpt lat="43.03202" lon="1.00147">
        <ele>355.60000610352</ele>
        <time>2025-08-07T17:11:06.000Z</time>
      </trkpt>
      <trkpt lat="43.03207" lon="1.00142">
        <ele>354.60000610352</ele>
        <time>2025-08-07T17:11:30.000Z</time>
      </trkpt>
      <trkpt lat="43.03207" lon="1.00139">
        <ele>354.39999389648</ele>
        <time>2025-08-07T17:11:31.000Z</time>
      </trkpt>
      <trkpt lat="43.03197" lon="1.00134">
        <ele>354.60000610352</ele>
        <time>2025-08-07T17:11:36.000Z</time>
      </trkpt>
      <trkpt lat="43.03188" lon="1.00127">
        <ele>355.20001220703</ele>
        <time>2025-08-07T17:11:42.000Z</time>
      </trkpt>
      <trkpt lat="43.03184" lon="1.00124">
        <ele>355.39999389648</ele>
        <time>2025-08-07T17:11:44.000Z</time>
      </trkpt>
      <trkpt lat="43.0318" lon="1.00121">
        <ele>355.60000610352</ele>
        <time>2025-08-07T17:11:47.000Z</time>
      </trkpt>
      <trkpt lat="43.03176" lon="1.00117">
        <ele>356</ele>
        <time>2025-08-07T17:11:50.000Z</time>
      </trkpt>
      <trkpt lat="43.03172" lon="1.00115">
        <ele>356</ele>
        <time>2025-08-07T17:11:52.000Z</time>
      </trkpt>
      <trkpt lat="43.03165" lon="1.00108">
        <ele>356.79998779297</ele>
        <time>2025-08-07T17:11:58.000Z</time>
      </trkpt>
      <trkpt lat="43.03164" lon="1.00106">
        <ele>357</ele>
        <time>2025-08-07T17:11:59.000Z</time>
      </trkpt>
      <trkpt lat="43.03154" lon="1.00099">
        <ele>357.60000610352</ele>
        <time>2025-08-07T17:12:05.000Z</time>
      </trkpt>
      <trkpt lat="43.03151" lon="1.00097">
        <ele>358</ele>
        <time>2025-08-07T17:12:07.000Z</time>
      </trkpt>
      <trkpt lat="43.03143" lon="1.00092">
        <ele>359</ele>
        <time>2025-08-07T17:12:12.000Z</time>
      </trkpt>
      <trkpt lat="43.03141" lon="1.00091">
        <ele>359.20001220703</ele>
        <time>2025-08-07T17:12:13.000Z</time>
      </trkpt>
      <trkpt lat="43.03128" lon="1.00088">
        <ele>360.20001220703</ele>
        <time>2025-08-07T17:12:20.000Z</time>
      </trkpt>
      <trkpt lat="43.03126" lon="1.00087">
        <ele>360.39999389648</ele>
        <time>2025-08-07T17:12:21.000Z</time>
      </trkpt>
      <trkpt lat="43.03115" lon="1.00084">
        <ele>361.39999389648</ele>
        <time>2025-08-07T17:12:27.000Z</time>
      </trkpt>
      <trkpt lat="43.03105" lon="1.00082">
        <ele>362.39999389648</ele>
        <time>2025-08-07T17:12:33.000Z</time>
      </trkpt>
      <trkpt lat="43.03101" lon="1.00081">
        <ele>362.60000610352</ele>
        <time>2025-08-07T17:12:35.000Z</time>
      </trkpt>
      <trkpt lat="43.03092" lon="1.00083">
        <ele>363.39999389648</ele>
        <time>2025-08-07T17:12:40.000Z</time>
      </trkpt>
      <trkpt lat="43.03084" lon="1.00084">
        <ele>364.20001220703</ele>
        <time>2025-08-07T17:12:44.000Z</time>
      </trkpt>
      <trkpt lat="43.03077" lon="1.00088">
        <ele>364.60000610352</ele>
        <time>2025-08-07T17:12:48.000Z</time>
      </trkpt>
      <trkpt lat="43.03073" lon="1.00089">
        <ele>364.79998779297</ele>
        <time>2025-08-07T17:12:50.000Z</time>
      </trkpt>
      <trkpt lat="43.03071" lon="1.00089">
        <ele>365</ele>
        <time>2025-08-07T17:12:51.000Z</time>
      </trkpt>
      <trkpt lat="43.0307" lon="1.00088">
        <ele>365.20001220703</ele>
        <time>2025-08-07T17:12:52.000Z</time>
      </trkpt>
      <trkpt lat="43.03068" lon="1.00092">
        <ele>365.39999389648</ele>
        <time>2025-08-07T17:12:54.000Z</time>
      </trkpt>
      <trkpt lat="43.03067" lon="1.00094">
        <ele>365.60000610352</ele>
        <time>2025-08-07T17:12:55.000Z</time>
      </trkpt>
      <trkpt lat="43.03066" lon="1.00097">
        <ele>365.79998779297</ele>
        <time>2025-08-07T17:12:56.000Z</time>
      </trkpt>
      <trkpt lat="43.03063" lon="1.00098">
        <ele>366</ele>
        <time>2025-08-07T17:12:58.000Z</time>
      </trkpt>
      <trkpt lat="43.03062" lon="1.00099">
        <ele>366.20001220703</ele>
        <time>2025-08-07T17:12:59.000Z</time>
      </trkpt>
      <trkpt lat="43.03061" lon="1.00103">
        <ele>366.39999389648</ele>
        <time>2025-08-07T17:13:01.000Z</time>
      </trkpt>
      <trkpt lat="43.0306" lon="1.00105">
        <ele>366.60000610352</ele>
        <time>2025-08-07T17:13:02.000Z</time>
      </trkpt>
      <trkpt lat="43.03057" lon="1.00107">
        <ele>366.79998779297</ele>
        <time>2025-08-07T17:13:04.000Z</time>
      </trkpt>
      <trkpt lat="43.03056" lon="1.00109">
        <ele>367</ele>
        <time>2025-08-07T17:13:05.000Z</time>
      </trkpt>
      <trkpt lat="43.03048" lon="1.00126">
        <ele>367.79998779297</ele>
        <time>2025-08-07T17:13:12.000Z</time>
      </trkpt>
      <trkpt lat="43.03045" lon="1.00132">
        <ele>368</ele>
        <time>2025-08-07T17:13:15.000Z</time>
      </trkpt>
      <trkpt lat="43.03035" lon="1.00141">
        <ele>368.79998779297</ele>
        <time>2025-08-07T17:13:22.000Z</time>
      </trkpt>
      <trkpt lat="43.03033" lon="1.00142">
        <ele>368.79998779297</ele>
        <time>2025-08-07T17:13:23.000Z</time>
      </trkpt>
      <trkpt lat="43.03027" lon="1.00144">
        <ele>369.20001220703</ele>
        <time>2025-08-07T17:13:26.000Z</time>
      </trkpt>
      <trkpt lat="43.03022" lon="1.00143">
        <ele>369.39999389648</ele>
        <time>2025-08-07T17:13:29.000Z</time>
      </trkpt>
      <trkpt lat="43.03012" lon="1.00142">
        <ele>370</ele>
        <time>2025-08-07T17:13:34.000Z</time>
      </trkpt>
      <trkpt lat="43.03005" lon="1.00142">
        <ele>370.60000610352</ele>
        <time>2025-08-07T17:13:38.000Z</time>
      </trkpt>
      <trkpt lat="43.03001" lon="1.00141">
        <ele>371</ele>
        <time>2025-08-07T17:13:40.000Z</time>
      </trkpt>
      <trkpt lat="43.02992" lon="1.00138">
        <ele>371.60000610352</ele>
        <time>2025-08-07T17:13:45.000Z</time>
      </trkpt>
      <trkpt lat="43.02986" lon="1.00133">
        <ele>372</ele>
        <time>2025-08-07T17:13:49.000Z</time>
      </trkpt>
      <trkpt lat="43.02983" lon="1.0013">
        <ele>372.39999389648</ele>
        <time>2025-08-07T17:13:51.000Z</time>
      </trkpt>
      <trkpt lat="43.02977" lon="1.00121">
        <ele>372.79998779297</ele>
        <time>2025-08-07T17:13:56.000Z</time>
      </trkpt>
      <trkpt lat="43.02974" lon="1.00116">
        <ele>373.20001220703</ele>
        <time>2025-08-07T17:13:59.000Z</time>
      </trkpt>
      <trkpt lat="43.02974" lon="1.00112">
        <ele>373.60000610352</ele>
        <time>2025-08-07T17:14:01.000Z</time>
      </trkpt>
      <trkpt lat="43.02974" lon="1.00105">
        <ele>374</ele>
        <time>2025-08-07T17:14:04.000Z</time>
      </trkpt>
      <trkpt lat="43.02972" lon="1.00102">
        <ele>374.39999389648</ele>
        <time>2025-08-07T17:14:06.000Z</time>
      </trkpt>
      <trkpt lat="43.02972" lon="1.00099">
        <ele>374.39999389648</ele>
        <time>2025-08-07T17:14:07.000Z</time>
      </trkpt>
      <trkpt lat="43.02973" lon="1.00082">
        <ele>375</ele>
        <time>2025-08-07T17:14:15.000Z</time>
      </trkpt>
      <trkpt lat="43.02975" lon="1.00075">
        <ele>375.20001220703</ele>
        <time>2025-08-07T17:14:18.000Z</time>
      </trkpt>
      <trkpt lat="43.02975" lon="1.00068">
        <ele>375.39999389648</ele>
        <time>2025-08-07T17:14:21.000Z</time>
      </trkpt>
      <trkpt lat="43.02976" lon="1.00066">
        <ele>375.60000610352</ele>
        <time>2025-08-07T17:14:22.000Z</time>
      </trkpt>
      <trkpt lat="43.02976" lon="1.00051">
        <ele>376</ele>
        <time>2025-08-07T17:14:28.000Z</time>
      </trkpt>
      <trkpt lat="43.02976" lon="1.00045">
        <ele>376.20001220703</ele>
        <time>2025-08-07T17:14:31.000Z</time>
      </trkpt>
      <trkpt lat="43.02975" lon="1.00042">
        <ele>376.39999389648</ele>
        <time>2025-08-07T17:14:33.000Z</time>
      </trkpt>
      <trkpt lat="43.02975" lon="1.0004">
        <ele>376.39999389648</ele>
        <time>2025-08-07T17:14:34.000Z</time>
      </trkpt>
      <trkpt lat="43.02976" lon="1.00038">
        <ele>376.60000610352</ele>
        <time>2025-08-07T17:14:36.000Z</time>
      </trkpt>
      <trkpt lat="43.02977" lon="1.00037">
        <ele>376.60000610352</ele>
        <time>2025-08-07T17:14:37.000Z</time>
      </trkpt>
      <trkpt lat="43.02977" lon="1.00032">
        <ele>377</ele>
        <time>2025-08-07T17:14:40.000Z</time>
      </trkpt>
      <trkpt lat="43.02977" lon="1.00029">
        <ele>377</ele>
        <time>2025-08-07T17:14:41.000Z</time>
      </trkpt>
      <trkpt lat="43.02979" lon="1.00023">
        <ele>377.20001220703</ele>
        <time>2025-08-07T17:14:44.000Z</time>
      </trkpt>
      <trkpt lat="43.02984" lon="1.0002">
        <ele>377.39999389648</ele>
        <time>2025-08-07T17:14:47.000Z</time>
      </trkpt>
      <trkpt lat="43.0299" lon="1.00019">
        <ele>377.60000610352</ele>
        <time>2025-08-07T17:14:51.000Z</time>
      </trkpt>
      <trkpt lat="43.02994" lon="1.0002">
        <ele>377.79998779297</ele>
        <time>2025-08-07T17:14:54.000Z</time>
      </trkpt>
      <trkpt lat="43.02999" lon="1.00023">
        <ele>378.39999389648</ele>
        <time>2025-08-07T17:15:01.000Z</time>
      </trkpt>
      <trkpt lat="43.03001" lon="1.00029">
        <ele>378.60000610352</ele>
        <time>2025-08-07T17:15:07.000Z</time>
      </trkpt>
      <trkpt lat="43.03005" lon="1.00044">
        <ele>378.20001220703</ele>
        <time>2025-08-07T17:15:13.000Z</time>
      </trkpt>
      <trkpt lat="43.0301" lon="1.00058">
        <ele>378</ele>
        <time>2025-08-07T17:15:21.000Z</time>
      </trkpt>
      <trkpt lat="43.0301" lon="1.00061">
        <ele>378</ele>
        <time>2025-08-07T17:15:27.000Z</time>
      </trkpt>
      <trkpt lat="43.03234" lon="1.00281">
        <ele>331.39999389648</ele>
        <time>2025-08-08T08:17:59.000Z</time>
      </trkpt>
      <trkpt lat="43.03258" lon="1.00329">
        <ele>329.20001220703</ele>
        <time>2025-08-08T08:18:06.000Z</time>
      </trkpt>
      <trkpt lat="43.0326" lon="1.00337">
        <ele>329</ele>
        <time>2025-08-08T08:18:07.000Z</time>
      </trkpt>
      <trkpt lat="43.03276" lon="1.00382">
        <ele>329</ele>
        <time>2025-08-08T08:18:14.000Z</time>
      </trkpt>
      <trkpt lat="43.03284" lon="1.00389">
        <ele>328.79998779297</ele>
        <time>2025-08-08T08:18:17.000Z</time>
      </trkpt>
      <trkpt lat="43.03294" lon="1.00383">
        <ele>328.60000610352</ele>
        <time>2025-08-08T08:18:21.000Z</time>
      </trkpt>
      <trkpt lat="43.03297" lon="1.00381">
        <ele>328.60000610352</ele>
        <time>2025-08-08T08:18:22.000Z</time>
      </trkpt>
      <trkpt lat="43.033" lon="1.0038">
        <ele>328.60000610352</ele>
        <time>2025-08-08T08:18:23.000Z</time>
      </trkpt>
      <trkpt lat="43.03301" lon="1.0038">
        <ele>328.60000610352</ele>
        <time>2025-08-08T08:18:25.000Z</time>
      </trkpt>
      <trkpt lat="43.03301" lon="1.0038">
        <ele>328.39999389648</ele>
        <time>2025-08-08T08:18:26.000Z</time>
      </trkpt>
      <trkpt lat="43.03308" lon="1.00379">
        <ele>326.60000610352</ele>
        <time>2025-08-08T08:20:05.000Z</time>
      </trkpt>
      <trkpt lat="43.03316" lon="1.0038">
        <ele>326.60000610352</ele>
        <time>2025-08-08T08:20:07.000Z</time>
      </trkpt>
      <trkpt lat="43.03339" lon="1.00381">
        <ele>326.39999389648</ele>
        <time>2025-08-08T08:20:12.000Z</time>
      </trkpt>
      <trkpt lat="43.03354" lon="1.00382">
        <ele>326</ele>
        <time>2025-08-08T08:20:15.000Z</time>
      </trkpt>
      <trkpt lat="43.03364" lon="1.00378">
        <ele>326</ele>
        <time>2025-08-08T08:20:17.000Z</time>
      </trkpt>
      <trkpt lat="43.0337" lon="1.00366">
        <ele>325.79998779297</ele>
        <time>2025-08-08T08:20:19.000Z</time>
      </trkpt>
      <trkpt lat="43.03371" lon="1.0036">
        <ele>325.60000610352</ele>
        <time>2025-08-08T08:20:20.000Z</time>
      </trkpt>
      <trkpt lat="43.03373" lon="1.00352">
        <ele>325.60000610352</ele>
        <time>2025-08-08T08:20:21.000Z</time>
      </trkpt>
      <trkpt lat="43.03376" lon="1.00339">
        <ele>325.60000610352</ele>
        <time>2025-08-08T08:20:23.000Z</time>
      </trkpt>
      <trkpt lat="43.0338" lon="1.00326">
        <ele>325.60000610352</ele>
        <time>2025-08-08T08:20:25.000Z</time>
      </trkpt>
      <trkpt lat="43.03383" lon="1.00321">
        <ele>325.39999389648</ele>
        <time>2025-08-08T08:20:26.000Z</time>
      </trkpt>
      <trkpt lat="43.03394" lon="1.00306">
        <ele>325.60000610352</ele>
        <time>2025-08-08T08:20:29.000Z</time>
      </trkpt>
      <trkpt lat="43.03399" lon="1.00296">
        <ele>325.60000610352</ele>
        <time>2025-08-08T08:20:31.000Z</time>
      </trkpt>
      <trkpt lat="43.03412" lon="1.00244">
        <ele>325.60000610352</ele>
        <time>2025-08-08T08:20:39.000Z</time>
      </trkpt>
      <trkpt lat="43.03429" lon="1.00177">
        <ele>325.60000610352</ele>
        <time>2025-08-08T08:20:50.000Z</time>
      </trkpt>
      <trkpt lat="43.03444" lon="1.00129">
        <ele>325.60000610352</ele>
        <time>2025-08-08T08:20:58.000Z</time>
      </trkpt>
      <trkpt lat="43.03464" lon="1.00069">
        <ele>325.39999389648</ele>
        <time>2025-08-08T08:21:08.000Z</time>
      </trkpt>
      <trkpt lat="43.03487" lon="1.00004">
        <ele>325.39999389648</ele>
        <time>2025-08-08T08:21:19.000Z</time>
      </trkpt>
      <trkpt lat="43.03506" lon="0.99949">
        <ele>325.39999389648</ele>
        <time>2025-08-08T08:21:28.000Z</time>
      </trkpt>
      <trkpt lat="43.03524" lon="0.99895">
        <ele>324.79998779297</ele>
        <time>2025-08-08T08:21:37.000Z</time>
      </trkpt>
      <trkpt lat="43.03538" lon="0.99859">
        <ele>324.60000610352</ele>
        <time>2025-08-08T08:21:44.000Z</time>
      </trkpt>
      <trkpt lat="43.0354" lon="0.99854">
        <ele>324.60000610352</ele>
        <time>2025-08-08T08:21:45.000Z</time>
      </trkpt>
      <trkpt lat="43.03542" lon="0.99849">
        <ele>324.60000610352</ele>
        <time>2025-08-08T08:21:46.000Z</time>
      </trkpt>
      <trkpt lat="43.03552" lon="0.99823">
        <ele>324.39999389648</ele>
        <time>2025-08-08T08:21:51.000Z</time>
      </trkpt>
      <trkpt lat="43.03575" lon="0.99772">
        <ele>324.20001220703</ele>
        <time>2025-08-08T08:22:01.000Z</time>
      </trkpt>
      <trkpt lat="43.03598" lon="0.99727">
        <ele>324.20001220703</ele>
        <time>2025-08-08T08:22:10.000Z</time>
      </trkpt>
      <trkpt lat="43.03622" lon="0.99685">
        <ele>324.20001220703</ele>
        <time>2025-08-08T08:22:19.000Z</time>
      </trkpt>
      <trkpt lat="43.03647" lon="0.99649">
        <ele>324</ele>
        <time>2025-08-08T08:22:27.000Z</time>
      </trkpt>
      <trkpt lat="43.03676" lon="0.99609">
        <ele>323.79998779297</ele>
        <time>2025-08-08T08:22:36.000Z</time>
      </trkpt>
      <trkpt lat="43.03702" lon="0.99574">
        <ele>323.60000610352</ele>
        <time>2025-08-08T08:22:44.000Z</time>
      </trkpt>
      <trkpt lat="43.03719" lon="0.99552">
        <ele>323.60000610352</ele>
        <time>2025-08-08T08:22:50.000Z</time>
      </trkpt>
      <trkpt lat="43.03722" lon="0.99544">
        <ele>324</ele>
        <time>2025-08-08T08:22:52.000Z</time>
      </trkpt>
      <trkpt lat="43.03724" lon="0.9952">
        <ele>324.39999389648</ele>
        <time>2025-08-08T08:22:57.000Z</time>
      </trkpt>
      <trkpt lat="43.03734" lon="0.99507">
        <ele>324.60000610352</ele>
        <time>2025-08-08T08:23:01.000Z</time>
      </trkpt>
      <trkpt lat="43.03755" lon="0.99488">
        <ele>325</ele>
        <time>2025-08-08T08:23:08.000Z</time>
      </trkpt>
      <trkpt lat="43.0379" lon="0.99459">
        <ele>325</ele>
        <time>2025-08-08T08:23:19.000Z</time>
      </trkpt>
      <trkpt lat="43.03793" lon="0.99459">
        <ele>325</ele>
        <time>2025-08-08T08:23:20.000Z</time>
      </trkpt>
      <trkpt lat="43.03804" lon="0.99464">
        <ele>325</ele>
        <time>2025-08-08T08:23:23.000Z</time>
      </trkpt>
      <trkpt lat="43.0382" lon="0.99486">
        <ele>324.79998779297</ele>
        <time>2025-08-08T08:23:29.000Z</time>
      </trkpt>
      <trkpt lat="43.03828" lon="0.995">
        <ele>323</ele>
        <time>2025-08-08T08:23:33.000Z</time>
      </trkpt>
      <trkpt lat="43.03831" lon="0.99504">
        <ele>322.79998779297</ele>
        <time>2025-08-08T08:23:34.000Z</time>
      </trkpt>
      <trkpt lat="43.03833" lon="0.99513">
        <ele>322.39999389648</ele>
        <time>2025-08-08T08:23:36.000Z</time>
      </trkpt>
      <trkpt lat="43.03831" lon="0.99522">
        <ele>322.20001220703</ele>
        <time>2025-08-08T08:23:38.000Z</time>
      </trkpt>
      <trkpt lat="43.03829" lon="0.99529">
        <ele>322</ele>
        <time>2025-08-08T08:23:40.000Z</time>
      </trkpt>
      <trkpt lat="43.03831" lon="0.9953">
        <ele>322</ele>
        <time>2025-08-08T08:23:41.000Z</time>
      </trkpt>
      <trkpt lat="43.03843" lon="0.99534">
        <ele>322</ele>
        <time>2025-08-08T08:23:45.000Z</time>
      </trkpt>
      <trkpt lat="43.03848" lon="0.99533">
        <ele>322.20001220703</ele>
        <time>2025-08-08T08:23:47.000Z</time>
      </trkpt>
      <trkpt lat="43.03853" lon="0.99529">
        <ele>322.39999389648</ele>
        <time>2025-08-08T08:23:49.000Z</time>
      </trkpt>
      <trkpt lat="43.03854" lon="0.99526">
        <ele>322.60000610352</ele>
        <time>2025-08-08T08:23:50.000Z</time>
      </trkpt>
      <trkpt lat="43.03854" lon="0.99517">
        <ele>322.79998779297</ele>
        <time>2025-08-08T08:23:52.000Z</time>
      </trkpt>
      <trkpt lat="43.03859" lon="0.99502">
        <ele>322.79998779297</ele>
        <time>2025-08-08T08:23:56.000Z</time>
      </trkpt>
      <trkpt lat="43.03872" lon="0.99492">
        <ele>323</ele>
        <time>2025-08-08T08:24:01.000Z</time>
      </trkpt>
      <trkpt lat="43.03877" lon="0.99489">
        <ele>323</ele>
        <time>2025-08-08T08:24:03.000Z</time>
      </trkpt>
      <trkpt lat="43.03897" lon="0.99477">
        <ele>323</ele>
        <time>2025-08-08T08:24:09.000Z</time>
      </trkpt>
      <trkpt lat="43.03924" lon="0.99459">
        <ele>323.39999389648</ele>
        <time>2025-08-08T08:24:17.000Z</time>
      </trkpt>
      <trkpt lat="43.0394" lon="0.99449">
        <ele>323.60000610352</ele>
        <time>2025-08-08T08:24:24.000Z</time>
      </trkpt>
      <trkpt lat="43.03945" lon="0.99445">
        <ele>323.79998779297</ele>
        <time>2025-08-08T08:24:27.000Z</time>
      </trkpt>
      <trkpt lat="43.03946" lon="0.99443">
        <ele>324</ele>
        <time>2025-08-08T08:24:28.000Z</time>
      </trkpt>
      <trkpt lat="43.03947" lon="0.99441">
        <ele>324.20001220703</ele>
        <time>2025-08-08T08:24:29.000Z</time>
      </trkpt>
      <trkpt lat="43.03957" lon="0.99429">
        <ele>324.79998779297</ele>
        <time>2025-08-08T08:24:35.000Z</time>
      </trkpt>
      <trkpt lat="43.03966" lon="0.99423">
        <ele>325.20001220703</ele>
        <time>2025-08-08T08:24:39.000Z</time>
      </trkpt>
      <trkpt lat="43.03973" lon="0.99417">
        <ele>325.79998779297</ele>
        <time>2025-08-08T08:24:43.000Z</time>
      </trkpt>
      <trkpt lat="43.03981" lon="0.99412">
        <ele>326.20001220703</ele>
        <time>2025-08-08T08:24:48.000Z</time>
      </trkpt>
      <trkpt lat="43.03984" lon="0.99411">
        <ele>326.20001220703</ele>
        <time>2025-08-08T08:24:49.000Z</time>
      </trkpt>
      <trkpt lat="43.04003" lon="0.99402">
        <ele>326.20001220703</ele>
        <time>2025-08-08T08:24:54.000Z</time>
      </trkpt>
      <trkpt lat="43.04025" lon="0.99388">
        <ele>325.79998779297</ele>
        <time>2025-08-08T08:24:59.000Z</time>
      </trkpt>
      <trkpt lat="43.04029" lon="0.99385">
        <ele>325.79998779297</ele>
        <time>2025-08-08T08:25:00.000Z</time>
      </trkpt>
      <trkpt lat="43.04056" lon="0.99367">
        <ele>325.60000610352</ele>
        <time>2025-08-08T08:25:06.000Z</time>
      </trkpt>
      <trkpt lat="43.04095" lon="0.99338">
        <ele>325.39999389648</ele>
        <time>2025-08-08T08:25:15.000Z</time>
      </trkpt>
      <trkpt lat="43.04135" lon="0.99306">
        <ele>325.20001220703</ele>
        <time>2025-08-08T08:25:24.000Z</time>
      </trkpt>
      <trkpt lat="43.04138" lon="0.99303">
        <ele>325.20001220703</ele>
        <time>2025-08-08T08:25:25.000Z</time>
      </trkpt>
      <trkpt lat="43.04177" lon="0.99265">
        <ele>324.39999389648</ele>
        <time>2025-08-08T08:25:34.000Z</time>
      </trkpt>
      <trkpt lat="43.04207" lon="0.99235">
        <ele>324</ele>
        <time>2025-08-08T08:25:41.000Z</time>
      </trkpt>
      <trkpt lat="43.04211" lon="0.99231">
        <ele>324</ele>
        <time>2025-08-08T08:25:42.000Z</time>
      </trkpt>
      <trkpt lat="43.04258" lon="0.99183">
        <ele>323.39999389648</ele>
        <time>2025-08-08T08:25:53.000Z</time>
      </trkpt>
      <trkpt lat="43.04298" lon="0.99144">
        <ele>323</ele>
        <time>2025-08-08T08:26:03.000Z</time>
      </trkpt>
      <trkpt lat="43.0431" lon="0.99131">
        <ele>323</ele>
        <time>2025-08-08T08:26:06.000Z</time>
      </trkpt>
      <trkpt lat="43.0433" lon="0.99111">
        <ele>322.79998779297</ele>
        <time>2025-08-08T08:26:11.000Z</time>
      </trkpt>
      <trkpt lat="43.04364" lon="0.99076">
        <ele>322.60000610352</ele>
        <time>2025-08-08T08:26:20.000Z</time>
      </trkpt>
      <trkpt lat="43.04395" lon="0.99044">
        <ele>322.39999389648</ele>
        <time>2025-08-08T08:26:28.000Z</time>
      </trkpt>
      <trkpt lat="43.04407" lon="0.99031">
        <ele>322.39999389648</ele>
        <time>2025-08-08T08:26:31.000Z</time>
      </trkpt>
      <trkpt lat="43.04423" lon="0.99016">
        <ele>322.20001220703</ele>
        <time>2025-08-08T08:26:35.000Z</time>
      </trkpt>
      <trkpt lat="43.04447" lon="0.98993">
        <ele>322.20001220703</ele>
        <time>2025-08-08T08:26:41.000Z</time>
      </trkpt>
      <trkpt lat="43.04455" lon="0.98985">
        <ele>322.20001220703</ele>
        <time>2025-08-08T08:26:43.000Z</time>
      </trkpt>
      <trkpt lat="43.04489" lon="0.98947">
        <ele>322</ele>
        <time>2025-08-08T08:26:52.000Z</time>
      </trkpt>
      <trkpt lat="43.04493" lon="0.98943">
        <ele>322</ele>
        <time>2025-08-08T08:26:53.000Z</time>
      </trkpt>
      <trkpt lat="43.04496" lon="0.9894">
        <ele>322</ele>
        <time>2025-08-08T08:26:54.000Z</time>
      </trkpt>
      <trkpt lat="43.04507" lon="0.98932">
        <ele>321.79998779297</ele>
        <time>2025-08-08T08:26:57.000Z</time>
      </trkpt>
      <trkpt lat="43.04535" lon="0.98904">
        <ele>321.79998779297</ele>
        <time>2025-08-08T08:27:05.000Z</time>
      </trkpt>
      <trkpt lat="43.04567" lon="0.98871">
        <ele>321.60000610352</ele>
        <time>2025-08-08T08:27:14.000Z</time>
      </trkpt>
      <trkpt lat="43.04574" lon="0.98864">
        <ele>321.39999389648</ele>
        <time>2025-08-08T08:27:16.000Z</time>
      </trkpt>
      <trkpt lat="43.04594" lon="0.98845">
        <ele>321.39999389648</ele>
        <time>2025-08-08T08:27:21.000Z</time>
      </trkpt>
      <trkpt lat="43.0462" lon="0.98818">
        <ele>321.39999389648</ele>
        <time>2025-08-08T08:27:28.000Z</time>
      </trkpt>
      <trkpt lat="43.04624" lon="0.98814">
        <ele>321.39999389648</ele>
        <time>2025-08-08T08:27:29.000Z</time>
      </trkpt>
      <trkpt lat="43.04662" lon="0.98776">
        <ele>321.39999389648</ele>
        <time>2025-08-08T08:27:39.000Z</time>
      </trkpt>
      <trkpt lat="43.04699" lon="0.98738">
        <ele>321.20001220703</ele>
        <time>2025-08-08T08:27:49.000Z</time>
      </trkpt>
      <trkpt lat="43.04738" lon="0.98699">
        <ele>321</ele>
        <time>2025-08-08T08:27:59.000Z</time>
      </trkpt>
      <trkpt lat="43.04772" lon="0.98665">
        <ele>321</ele>
        <time>2025-08-08T08:28:08.000Z</time>
      </trkpt>
      <trkpt lat="43.04789" lon="0.98647">
        <ele>321</ele>
        <time>2025-08-08T08:28:13.000Z</time>
      </trkpt>
      <trkpt lat="43.04809" lon="0.98627">
        <ele>320.79998779297</ele>
        <time>2025-08-08T08:28:18.000Z</time>
      </trkpt>
      <trkpt lat="43.04855" lon="0.98581">
        <ele>320.79998779297</ele>
        <time>2025-08-08T08:28:30.000Z</time>
      </trkpt>
      <trkpt lat="43.04871" lon="0.98566">
        <ele>320.79998779297</ele>
        <time>2025-08-08T08:28:34.000Z</time>
      </trkpt>
      <trkpt lat="43.04886" lon="0.98551">
        <ele>320.79998779297</ele>
        <time>2025-08-08T08:28:38.000Z</time>
      </trkpt>
      <trkpt lat="43.04912" lon="0.98524">
        <ele>321</ele>
        <time>2025-08-08T08:28:46.000Z</time>
      </trkpt>
      <trkpt lat="43.04954" lon="0.98485">
        <ele>321</ele>
        <time>2025-08-08T08:28:57.000Z</time>
      </trkpt>
      <trkpt lat="43.0499" lon="0.98452">
        <ele>320.79998779297</ele>
        <time>2025-08-08T08:29:06.000Z</time>
      </trkpt>
      <trkpt lat="43.05021" lon="0.98426">
        <ele>321</ele>
        <time>2025-08-08T08:29:14.000Z</time>
      </trkpt>
      <trkpt lat="43.05063" lon="0.98396">
        <ele>321</ele>
        <time>2025-08-08T08:29:24.000Z</time>
      </trkpt>
      <trkpt lat="43.05106" lon="0.98367">
        <ele>321.20001220703</ele>
        <time>2025-08-08T08:29:34.000Z</time>
      </trkpt>
      <trkpt lat="43.05151" lon="0.98338">
        <ele>320.79998779297</ele>
        <time>2025-08-08T08:29:44.000Z</time>
      </trkpt>
      <trkpt lat="43.05192" lon="0.98316">
        <ele>321</ele>
        <time>2025-08-08T08:29:53.000Z</time>
      </trkpt>
      <trkpt lat="43.05202" lon="0.98311">
        <ele>321</ele>
        <time>2025-08-08T08:29:55.000Z</time>
      </trkpt>
      <trkpt lat="43.05219" lon="0.98302">
        <ele>320.79998779297</ele>
        <time>2025-08-08T08:29:59.000Z</time>
      </trkpt>
      <trkpt lat="43.05266" lon="0.9828">
        <ele>320.39999389648</ele>
        <time>2025-08-08T08:30:09.000Z</time>
      </trkpt>
      <trkpt lat="43.053" lon="0.98264">
        <ele>320.20001220703</ele>
        <time>2025-08-08T08:30:16.000Z</time>
      </trkpt>
      <trkpt lat="43.05342" lon="0.98246">
        <ele>320.39999389648</ele>
        <time>2025-08-08T08:30:25.000Z</time>
      </trkpt>
      <trkpt lat="43.05375" lon="0.98232">
        <ele>320.39999389648</ele>
        <time>2025-08-08T08:30:32.000Z</time>
      </trkpt>
      <trkpt lat="43.05411" lon="0.98216">
        <ele>320.20001220703</ele>
        <time>2025-08-08T08:30:40.000Z</time>
      </trkpt>
      <trkpt lat="43.05425" lon="0.98211">
        <ele>319.79998779297</ele>
        <time>2025-08-08T08:30:43.000Z</time>
      </trkpt>
      <trkpt lat="43.05462" lon="0.98195">
        <ele>319.39999389648</ele>
        <time>2025-08-08T08:30:51.000Z</time>
      </trkpt>
      <trkpt lat="43.05507" lon="0.98175">
        <ele>319.39999389648</ele>
        <time>2025-08-08T08:31:01.000Z</time>
      </trkpt>
      <trkpt lat="43.05521" lon="0.98168">
        <ele>319.39999389648</ele>
        <time>2025-08-08T08:31:04.000Z</time>
      </trkpt>
      <trkpt lat="43.05528" lon="0.98165">
        <ele>319.39999389648</ele>
        <time>2025-08-08T08:31:06.000Z</time>
      </trkpt>
      <trkpt lat="43.05548" lon="0.9816">
        <ele>319.39999389648</ele>
        <time>2025-08-08T08:31:11.000Z</time>
      </trkpt>
      <trkpt lat="43.05595" lon="0.9814">
        <ele>319.39999389648</ele>
        <time>2025-08-08T08:31:21.000Z</time>
      </trkpt>
      <trkpt lat="43.05647" lon="0.98117">
        <ele>319.39999389648</ele>
        <time>2025-08-08T08:31:32.000Z</time>
      </trkpt>
      <trkpt lat="43.05652" lon="0.98114">
        <ele>319.39999389648</ele>
        <time>2025-08-08T08:31:33.000Z</time>
      </trkpt>
      <trkpt lat="43.05701" lon="0.98092">
        <ele>319.39999389648</ele>
        <time>2025-08-08T08:31:43.000Z</time>
      </trkpt>
      <trkpt lat="43.05749" lon="0.98072">
        <ele>319.60000610352</ele>
        <time>2025-08-08T08:31:53.000Z</time>
      </trkpt>
      <trkpt lat="43.05799" lon="0.98051">
        <ele>319.39999389648</ele>
        <time>2025-08-08T08:32:04.000Z</time>
      </trkpt>
      <trkpt lat="43.05842" lon="0.98032">
        <ele>319.60000610352</ele>
        <time>2025-08-08T08:32:13.000Z</time>
      </trkpt>
      <trkpt lat="43.05884" lon="0.98013">
        <ele>319.60000610352</ele>
        <time>2025-08-08T08:32:22.000Z</time>
      </trkpt>
      <trkpt lat="43.05906" lon="0.98003">
        <ele>319.79998779297</ele>
        <time>2025-08-08T08:32:27.000Z</time>
      </trkpt>
      <trkpt lat="43.0592" lon="0.97995">
        <ele>319.60000610352</ele>
        <time>2025-08-08T08:32:30.000Z</time>
      </trkpt>
      <trkpt lat="43.05949" lon="0.97982">
        <ele>319.39999389648</ele>
        <time>2025-08-08T08:32:36.000Z</time>
      </trkpt>
      <trkpt lat="43.05959" lon="0.97978">
        <ele>319.39999389648</ele>
        <time>2025-08-08T08:32:38.000Z</time>
      </trkpt>
      <trkpt lat="43.05995" lon="0.97959">
        <ele>319.60000610352</ele>
        <time>2025-08-08T08:32:46.000Z</time>
      </trkpt>
      <trkpt lat="43.06044" lon="0.97932">
        <ele>319.60000610352</ele>
        <time>2025-08-08T08:32:57.000Z</time>
      </trkpt>
      <trkpt lat="43.06061" lon="0.97921">
        <ele>319.60000610352</ele>
        <time>2025-08-08T08:33:01.000Z</time>
      </trkpt>
      <trkpt lat="43.0607" lon="0.97915">
        <ele>319.60000610352</ele>
        <time>2025-08-08T08:33:03.000Z</time>
      </trkpt>
      <trkpt lat="43.06113" lon="0.97887">
        <ele>319.39999389648</ele>
        <time>2025-08-08T08:33:13.000Z</time>
      </trkpt>
      <trkpt lat="43.06148" lon="0.97863">
        <ele>319.20001220703</ele>
        <time>2025-08-08T08:33:21.000Z</time>
      </trkpt>
      <trkpt lat="43.06166" lon="0.97851">
        <ele>319</ele>
        <time>2025-08-08T08:33:25.000Z</time>
      </trkpt>
      <trkpt lat="43.06184" lon="0.97837">
        <ele>319</ele>
        <time>2025-08-08T08:33:29.000Z</time>
      </trkpt>
      <trkpt lat="43.06234" lon="0.97799">
        <ele>318.60000610352</ele>
        <time>2025-08-08T08:33:40.000Z</time>
      </trkpt>
      <trkpt lat="43.06239" lon="0.97795">
        <ele>318.60000610352</ele>
        <time>2025-08-08T08:33:41.000Z</time>
      </trkpt>
      <trkpt lat="43.06287" lon="0.97755">
        <ele>318</ele>
        <time>2025-08-08T08:33:52.000Z</time>
      </trkpt>
      <trkpt lat="43.06293" lon="0.9775">
        <ele>317.79998779297</ele>
        <time>2025-08-08T08:33:53.000Z</time>
      </trkpt>
      <trkpt lat="43.06331" lon="0.97716">
        <ele>317.20001220703</ele>
        <time>2025-08-08T08:34:02.000Z</time>
      </trkpt>
      <trkpt lat="43.06335" lon="0.97712">
        <ele>317.20001220703</ele>
        <time>2025-08-08T08:34:03.000Z</time>
      </trkpt>
      <trkpt lat="43.06356" lon="0.97692">
        <ele>317</ele>
        <time>2025-08-08T08:34:08.000Z</time>
      </trkpt>
      <trkpt lat="43.06386" lon="0.97665">
        <ele>317</ele>
        <time>2025-08-08T08:34:15.000Z</time>
      </trkpt>
      <trkpt lat="43.06391" lon="0.9766">
        <ele>317</ele>
        <time>2025-08-08T08:34:16.000Z</time>
      </trkpt>
      <trkpt lat="43.0642" lon="0.97631">
        <ele>317</ele>
        <time>2025-08-08T08:34:23.000Z</time>
      </trkpt>
      <trkpt lat="43.06424" lon="0.97627">
        <ele>317</ele>
        <time>2025-08-08T08:34:24.000Z</time>
      </trkpt>
      <trkpt lat="43.06463" lon="0.97583">
        <ele>316.60000610352</ele>
        <time>2025-08-08T08:34:34.000Z</time>
      </trkpt>
      <trkpt lat="43.06496" lon="0.97545">
        <ele>316.20001220703</ele>
        <time>2025-08-08T08:34:43.000Z</time>
      </trkpt>
      <trkpt lat="43.065" lon="0.9754">
        <ele>316.20001220703</ele>
        <time>2025-08-08T08:34:44.000Z</time>
      </trkpt>
      <trkpt lat="43.06509" lon="0.97528">
        <ele>316.20001220703</ele>
        <time>2025-08-08T08:34:47.000Z</time>
      </trkpt>
      <trkpt lat="43.06513" lon="0.97525">
        <ele>316.20001220703</ele>
        <time>2025-08-08T08:34:48.000Z</time>
      </trkpt>
      <trkpt lat="43.06517" lon="0.97522">
        <ele>316.20001220703</ele>
        <time>2025-08-08T08:34:49.000Z</time>
      </trkpt>
      <trkpt lat="43.06532" lon="0.97503">
        <ele>315.79998779297</ele>
        <time>2025-08-08T08:34:53.000Z</time>
      </trkpt>
      <trkpt lat="43.0654" lon="0.97494">
        <ele>315.60000610352</ele>
        <time>2025-08-08T08:34:55.000Z</time>
      </trkpt>
      <trkpt lat="43.06555" lon="0.97473">
        <ele>315.60000610352</ele>
        <time>2025-08-08T08:34:59.000Z</time>
      </trkpt>
      <trkpt lat="43.0659" lon="0.97429">
        <ele>315.20001220703</ele>
        <time>2025-08-08T08:35:08.000Z</time>
      </trkpt>
      <trkpt lat="43.06608" lon="0.97406">
        <ele>314.79998779297</ele>
        <time>2025-08-08T08:35:13.000Z</time>
      </trkpt>
      <trkpt lat="43.06616" lon="0.97396">
        <ele>314.60000610352</ele>
        <time>2025-08-08T08:35:15.000Z</time>
      </trkpt>
      <trkpt lat="43.06623" lon="0.97387">
        <ele>314.39999389648</ele>
        <time>2025-08-08T08:35:17.000Z</time>
      </trkpt>
      <trkpt lat="43.06642" lon="0.97362">
        <ele>314.20001220703</ele>
        <time>2025-08-08T08:35:22.000Z</time>
      </trkpt>
      <trkpt lat="43.06676" lon="0.97319">
        <ele>314</ele>
        <time>2025-08-08T08:35:31.000Z</time>
      </trkpt>
      <trkpt lat="43.06713" lon="0.9727">
        <ele>313.79998779297</ele>
        <time>2025-08-08T08:35:41.000Z</time>
      </trkpt>
      <trkpt lat="43.06717" lon="0.97266">
        <ele>313.60000610352</ele>
        <time>2025-08-08T08:35:42.000Z</time>
      </trkpt>
      <trkpt lat="43.06748" lon="0.97226">
        <ele>313.39999389648</ele>
        <time>2025-08-08T08:35:50.000Z</time>
      </trkpt>
      <trkpt lat="43.06755" lon="0.97216">
        <ele>313.20001220703</ele>
        <time>2025-08-08T08:35:52.000Z</time>
      </trkpt>
      <trkpt lat="43.06762" lon="0.97205">
        <ele>313.20001220703</ele>
        <time>2025-08-08T08:35:54.000Z</time>
      </trkpt>
      <trkpt lat="43.0677" lon="0.97195">
        <ele>313</ele>
        <time>2025-08-08T08:35:56.000Z</time>
      </trkpt>
      <trkpt lat="43.06779" lon="0.97184">
        <ele>313</ele>
        <time>2025-08-08T08:35:58.000Z</time>
      </trkpt>
      <trkpt lat="43.06794" lon="0.97165">
        <ele>312.79998779297</ele>
        <time>2025-08-08T08:36:02.000Z</time>
      </trkpt>
      <trkpt lat="43.06798" lon="0.9716">
        <ele>312.60000610352</ele>
        <time>2025-08-08T08:36:03.000Z</time>
      </trkpt>
      <trkpt lat="43.06829" lon="0.97119">
        <ele>312.20001220703</ele>
        <time>2025-08-08T08:36:11.000Z</time>
      </trkpt>
      <trkpt lat="43.06855" lon="0.97084">
        <ele>312</ele>
        <time>2025-08-08T08:36:18.000Z</time>
      </trkpt>
      <trkpt lat="43.06886" lon="0.97045">
        <ele>311.79998779297</ele>
        <time>2025-08-08T08:36:26.000Z</time>
      </trkpt>
      <trkpt lat="43.06912" lon="0.9701">
        <ele>311.60000610352</ele>
        <time>2025-08-08T08:36:33.000Z</time>
      </trkpt>
      <trkpt lat="43.06954" lon="0.96956">
        <ele>311.20001220703</ele>
        <time>2025-08-08T08:36:44.000Z</time>
      </trkpt>
      <trkpt lat="43.06962" lon="0.96945">
        <ele>311.20001220703</ele>
        <time>2025-08-08T08:36:46.000Z</time>
      </trkpt>
      <trkpt lat="43.06977" lon="0.96925">
        <ele>311</ele>
        <time>2025-08-08T08:36:50.000Z</time>
      </trkpt>
      <trkpt lat="43.07001" lon="0.96896">
        <ele>310.60000610352</ele>
        <time>2025-08-08T08:36:56.000Z</time>
      </trkpt>
      <trkpt lat="43.07012" lon="0.96882">
        <ele>310.60000610352</ele>
        <time>2025-08-08T08:36:59.000Z</time>
      </trkpt>
      <trkpt lat="43.07026" lon="0.96862">
        <ele>310.39999389648</ele>
        <time>2025-08-08T08:37:03.000Z</time>
      </trkpt>
      <trkpt lat="43.07038" lon="0.96846">
        <ele>310.20001220703</ele>
        <time>2025-08-08T08:37:06.000Z</time>
      </trkpt>
      <trkpt lat="43.07049" lon="0.96831">
        <ele>310.20001220703</ele>
        <time>2025-08-08T08:37:09.000Z</time>
      </trkpt>
      <trkpt lat="43.07089" lon="0.9678">
        <ele>310</ele>
        <time>2025-08-08T08:37:19.000Z</time>
      </trkpt>
      <trkpt lat="43.07124" lon="0.96735">
        <ele>310</ele>
        <time>2025-08-08T08:37:28.000Z</time>
      </trkpt>
      <trkpt lat="43.07155" lon="0.96696">
        <ele>309.79998779297</ele>
        <time>2025-08-08T08:37:36.000Z</time>
      </trkpt>
      <trkpt lat="43.07182" lon="0.96659">
        <ele>309.60000610352</ele>
        <time>2025-08-08T08:37:43.000Z</time>
      </trkpt>
      <trkpt lat="43.07201" lon="0.96633">
        <ele>309.60000610352</ele>
        <time>2025-08-08T08:37:48.000Z</time>
      </trkpt>
      <trkpt lat="43.07209" lon="0.96622">
        <ele>309.60000610352</ele>
        <time>2025-08-08T08:37:50.000Z</time>
      </trkpt>
      <trkpt lat="43.07213" lon="0.96617">
        <ele>309.60000610352</ele>
        <time>2025-08-08T08:37:51.000Z</time>
      </trkpt>
      <trkpt lat="43.07228" lon="0.96598">
        <ele>309.20001220703</ele>
        <time>2025-08-08T08:37:55.000Z</time>
      </trkpt>
      <trkpt lat="43.07236" lon="0.96588">
        <ele>309.20001220703</ele>
        <time>2025-08-08T08:37:57.000Z</time>
      </trkpt>
      <trkpt lat="43.07276" lon="0.96537">
        <ele>309</ele>
        <time>2025-08-08T08:38:07.000Z</time>
      </trkpt>
      <trkpt lat="43.0728" lon="0.96533">
        <ele>308.79998779297</ele>
        <time>2025-08-08T08:38:08.000Z</time>
      </trkpt>
      <trkpt lat="43.07308" lon="0.96496">
        <ele>308.60000610352</ele>
        <time>2025-08-08T08:38:15.000Z</time>
      </trkpt>
      <trkpt lat="43.07316" lon="0.96486">
        <ele>308.39999389648</ele>
        <time>2025-08-08T08:38:17.000Z</time>
      </trkpt>
      <trkpt lat="43.07353" lon="0.96438">
        <ele>308.39999389648</ele>
        <time>2025-08-08T08:38:26.000Z</time>
      </trkpt>
      <trkpt lat="43.07393" lon="0.96386">
        <ele>308</ele>
        <time>2025-08-08T08:38:36.000Z</time>
      </trkpt>
      <trkpt lat="43.07412" lon="0.9636">
        <ele>307.79998779297</ele>
        <time>2025-08-08T08:38:41.000Z</time>
      </trkpt>
      <trkpt lat="43.07415" lon="0.96346">
        <ele>307.79998779297</ele>
        <time>2025-08-08T08:38:43.000Z</time>
      </trkpt>
      <trkpt lat="43.07411" lon="0.96319">
        <ele>307.79998779297</ele>
        <time>2025-08-08T08:38:47.000Z</time>
      </trkpt>
      <trkpt lat="43.07415" lon="0.96306">
        <ele>307.60000610352</ele>
        <time>2025-08-08T08:38:49.000Z</time>
      </trkpt>
      <trkpt lat="43.07419" lon="0.96301">
        <ele>307.60000610352</ele>
        <time>2025-08-08T08:38:50.000Z</time>
      </trkpt>
      <trkpt lat="43.07447" lon="0.96265">
        <ele>307.60000610352</ele>
        <time>2025-08-08T08:38:57.000Z</time>
      </trkpt>
      <trkpt lat="43.07465" lon="0.96242">
        <ele>307.39999389648</ele>
        <time>2025-08-08T08:39:02.000Z</time>
      </trkpt>
      <trkpt lat="43.0748" lon="0.96224">
        <ele>307.39999389648</ele>
        <time>2025-08-08T08:39:06.000Z</time>
      </trkpt>
      <trkpt lat="43.07516" lon="0.96177">
        <ele>307.20001220703</ele>
        <time>2025-08-08T08:39:16.000Z</time>
      </trkpt>
      <trkpt lat="43.07544" lon="0.96144">
        <ele>307.20001220703</ele>
        <time>2025-08-08T08:39:23.000Z</time>
      </trkpt>
      <trkpt lat="43.07581" lon="0.96097">
        <ele>307.20001220703</ele>
        <time>2025-08-08T08:39:33.000Z</time>
      </trkpt>
      <trkpt lat="43.0761" lon="0.9606">
        <ele>307</ele>
        <time>2025-08-08T08:39:41.000Z</time>
      </trkpt>
      <trkpt lat="43.07625" lon="0.96041">
        <ele>307</ele>
        <time>2025-08-08T08:39:45.000Z</time>
      </trkpt>
      <trkpt lat="43.07662" lon="0.95994">
        <ele>306.79998779297</ele>
        <time>2025-08-08T08:39:55.000Z</time>
      </trkpt>
      <trkpt lat="43.07701" lon="0.95943">
        <ele>306.39999389648</ele>
        <time>2025-08-08T08:40:06.000Z</time>
      </trkpt>
      <trkpt lat="43.07726" lon="0.95912">
        <ele>306.39999389648</ele>
        <time>2025-08-08T08:40:13.000Z</time>
      </trkpt>
      <trkpt lat="43.0773" lon="0.9591">
        <ele>306.39999389648</ele>
        <time>2025-08-08T08:40:14.000Z</time>
      </trkpt>
      <trkpt lat="43.07734" lon="0.95911">
        <ele>306.39999389648</ele>
        <time>2025-08-08T08:40:15.000Z</time>
      </trkpt>
      <trkpt lat="43.07743" lon="0.95914">
        <ele>306.20001220703</ele>
        <time>2025-08-08T08:40:17.000Z</time>
      </trkpt>
      <trkpt lat="43.07747" lon="0.95912">
        <ele>306.20001220703</ele>
        <time>2025-08-08T08:40:18.000Z</time>
      </trkpt>
      <trkpt lat="43.07753" lon="0.95907">
        <ele>306.20001220703</ele>
        <time>2025-08-08T08:40:20.000Z</time>
      </trkpt>
      <trkpt lat="43.07761" lon="0.95897">
        <ele>306.20001220703</ele>
        <time>2025-08-08T08:40:24.000Z</time>
      </trkpt>
      <trkpt lat="43.07771" lon="0.95881">
        <ele>306.20001220703</ele>
        <time>2025-08-08T08:40:29.000Z</time>
      </trkpt>
      <trkpt lat="43.07773" lon="0.95875">
        <ele>306.20001220703</ele>
        <time>2025-08-08T08:40:31.000Z</time>
      </trkpt>
      <trkpt lat="43.07778" lon="0.9587">
        <ele>306.20001220703</ele>
        <time>2025-08-08T08:40:33.000Z</time>
      </trkpt>
      <trkpt lat="43.07792" lon="0.95847">
        <ele>306</ele>
        <time>2025-08-08T08:40:39.000Z</time>
      </trkpt>
      <trkpt lat="43.07811" lon="0.95818">
        <ele>306.20001220703</ele>
        <time>2025-08-08T08:40:46.000Z</time>
      </trkpt>
      <trkpt lat="43.07822" lon="0.958">
        <ele>306.20001220703</ele>
        <time>2025-08-08T08:40:50.000Z</time>
      </trkpt>
      <trkpt lat="43.07828" lon="0.9579">
        <ele>306.39999389648</ele>
        <time>2025-08-08T08:40:52.000Z</time>
      </trkpt>
      <trkpt lat="43.07852" lon="0.95752">
        <ele>306.60000610352</ele>
        <time>2025-08-08T08:41:00.000Z</time>
      </trkpt>
      <trkpt lat="43.07855" lon="0.95748">
        <ele>306.60000610352</ele>
        <time>2025-08-08T08:41:01.000Z</time>
      </trkpt>
      <trkpt lat="43.07858" lon="0.95745">
        <ele>306.60000610352</ele>
        <time>2025-08-08T08:41:02.000Z</time>
      </trkpt>
      <trkpt lat="43.07869" lon="0.95729">
        <ele>306.39999389648</ele>
        <time>2025-08-08T08:41:06.000Z</time>
      </trkpt>
      <trkpt lat="43.07873" lon="0.95726">
        <ele>306.39999389648</ele>
        <time>2025-08-08T08:41:07.000Z</time>
      </trkpt>
      <trkpt lat="43.07876" lon="0.95723">
        <ele>306.39999389648</ele>
        <time>2025-08-08T08:41:08.000Z</time>
      </trkpt>
      <trkpt lat="43.07891" lon="0.95701">
        <ele>306.60000610352</ele>
        <time>2025-08-08T08:41:13.000Z</time>
      </trkpt>
      <trkpt lat="43.07914" lon="0.95673">
        <ele>306.60000610352</ele>
        <time>2025-08-08T08:41:20.000Z</time>
      </trkpt>
      <trkpt lat="43.07932" lon="0.9565">
        <ele>306.60000610352</ele>
        <time>2025-08-08T08:41:25.000Z</time>
      </trkpt>
      <trkpt lat="43.07949" lon="0.95626">
        <ele>306.60000610352</ele>
        <time>2025-08-08T08:41:30.000Z</time>
      </trkpt>
      <trkpt lat="43.07969" lon="0.95604">
        <ele>306.79998779297</ele>
        <time>2025-08-08T08:41:36.000Z</time>
      </trkpt>
      <trkpt lat="43.0799" lon="0.95584">
        <ele>306.60000610352</ele>
        <time>2025-08-08T08:41:42.000Z</time>
      </trkpt>
      <trkpt lat="43.08003" lon="0.9557">
        <ele>306.39999389648</ele>
        <time>2025-08-08T08:41:46.000Z</time>
      </trkpt>
      <trkpt lat="43.08014" lon="0.95558">
        <ele>306.39999389648</ele>
        <time>2025-08-08T08:41:49.000Z</time>
      </trkpt>
      <trkpt lat="43.08032" lon="0.95539">
        <ele>306.39999389648</ele>
        <time>2025-08-08T08:41:54.000Z</time>
      </trkpt>
      <trkpt lat="43.08054" lon="0.9552">
        <ele>306.20001220703</ele>
        <time>2025-08-08T08:42:00.000Z</time>
      </trkpt>
      <trkpt lat="43.08058" lon="0.95517">
        <ele>306.20001220703</ele>
        <time>2025-08-08T08:42:01.000Z</time>
      </trkpt>
      <trkpt lat="43.08064" lon="0.95511">
        <ele>306</ele>
        <time>2025-08-08T08:42:03.000Z</time>
      </trkpt>
      <trkpt lat="43.08073" lon="0.95505">
        <ele>306</ele>
        <time>2025-08-08T08:42:05.000Z</time>
      </trkpt>
      <trkpt lat="43.08077" lon="0.95501">
        <ele>306</ele>
        <time>2025-08-08T08:42:06.000Z</time>
      </trkpt>
      <trkpt lat="43.08096" lon="0.95487">
        <ele>305.79998779297</ele>
        <time>2025-08-08T08:42:11.000Z</time>
      </trkpt>
      <trkpt lat="43.08131" lon="0.95462">
        <ele>305.79998779297</ele>
        <time>2025-08-08T08:42:19.000Z</time>
      </trkpt>
      <trkpt lat="43.08166" lon="0.95435">
        <ele>306</ele>
        <time>2025-08-08T08:42:28.000Z</time>
      </trkpt>
      <trkpt lat="43.08201" lon="0.95408">
        <ele>306</ele>
        <time>2025-08-08T08:42:37.000Z</time>
      </trkpt>
      <trkpt lat="43.08239" lon="0.95379">
        <ele>306</ele>
        <time>2025-08-08T08:42:47.000Z</time>
      </trkpt>
      <trkpt lat="43.08268" lon="0.95355">
        <ele>306.20001220703</ele>
        <time>2025-08-08T08:42:55.000Z</time>
      </trkpt>
      <trkpt lat="43.08304" lon="0.9533">
        <ele>306</ele>
        <time>2025-08-08T08:43:04.000Z</time>
      </trkpt>
      <trkpt lat="43.0835" lon="0.95299">
        <ele>305.60000610352</ele>
        <time>2025-08-08T08:43:15.000Z</time>
      </trkpt>
      <trkpt lat="43.08377" lon="0.95286">
        <ele>305.39999389648</ele>
        <time>2025-08-08T08:43:22.000Z</time>
      </trkpt>
      <trkpt lat="43.08408" lon="0.9527">
        <ele>305.20001220703</ele>
        <time>2025-08-08T08:43:30.000Z</time>
      </trkpt>
      <trkpt lat="43.08426" lon="0.95261">
        <ele>305</ele>
        <time>2025-08-08T08:43:36.000Z</time>
      </trkpt>
      <trkpt lat="43.08427" lon="0.9526">
        <ele>305</ele>
        <time>2025-08-08T08:43:37.000Z</time>
      </trkpt>
      <trkpt lat="43.08433" lon="0.9526">
        <ele>305</ele>
        <time>2025-08-08T08:43:40.000Z</time>
      </trkpt>
      <trkpt lat="43.08437" lon="0.95264">
        <ele>304.79998779297</ele>
        <time>2025-08-08T08:43:42.000Z</time>
      </trkpt>
      <trkpt lat="43.08451" lon="0.95263">
        <ele>304.60000610352</ele>
        <time>2025-08-08T08:43:46.000Z</time>
      </trkpt>
      <trkpt lat="43.0848" lon="0.95255">
        <ele>304.20001220703</ele>
        <time>2025-08-08T08:43:52.000Z</time>
      </trkpt>
      <trkpt lat="43.08485" lon="0.95253">
        <ele>304</ele>
        <time>2025-08-08T08:43:53.000Z</time>
      </trkpt>
      <trkpt lat="43.08522" lon="0.95245">
        <ele>303.20001220703</ele>
        <time>2025-08-08T08:44:00.000Z</time>
      </trkpt>
      <trkpt lat="43.08548" lon="0.95242">
        <ele>302.79998779297</ele>
        <time>2025-08-08T08:44:05.000Z</time>
      </trkpt>
      <trkpt lat="43.08564" lon="0.95241">
        <ele>302.60000610352</ele>
        <time>2025-08-08T08:44:08.000Z</time>
      </trkpt>
      <trkpt lat="43.08605" lon="0.95241">
        <ele>302.39999389648</ele>
        <time>2025-08-08T08:44:16.000Z</time>
      </trkpt>
      <trkpt lat="43.08635" lon="0.95243">
        <ele>302.20001220703</ele>
        <time>2025-08-08T08:44:22.000Z</time>
      </trkpt>
      <trkpt lat="43.08646" lon="0.95246">
        <ele>302</ele>
        <time>2025-08-08T08:44:24.000Z</time>
      </trkpt>
      <trkpt lat="43.08685" lon="0.95255">
        <ele>301.79998779297</ele>
        <time>2025-08-08T08:44:31.000Z</time>
      </trkpt>
      <trkpt lat="43.0869" lon="0.95256">
        <ele>301.79998779297</ele>
        <time>2025-08-08T08:44:32.000Z</time>
      </trkpt>
      <trkpt lat="43.08733" lon="0.9527">
        <ele>301.60000610352</ele>
        <time>2025-08-08T08:44:40.000Z</time>
      </trkpt>
      <trkpt lat="43.08738" lon="0.95272">
        <ele>301.60000610352</ele>
        <time>2025-08-08T08:44:41.000Z</time>
      </trkpt>
      <trkpt lat="43.08765" lon="0.95284">
        <ele>301.39999389648</ele>
        <time>2025-08-08T08:44:46.000Z</time>
      </trkpt>
      <trkpt lat="43.0877" lon="0.95286">
        <ele>301.39999389648</ele>
        <time>2025-08-08T08:44:47.000Z</time>
      </trkpt>
      <trkpt lat="43.08796" lon="0.95302">
        <ele>301.39999389648</ele>
        <time>2025-08-08T08:44:52.000Z</time>
      </trkpt>
      <trkpt lat="43.0883" lon="0.95324">
        <ele>301.20001220703</ele>
        <time>2025-08-08T08:44:59.000Z</time>
      </trkpt>
      <trkpt lat="43.08839" lon="0.95331">
        <ele>301.20001220703</ele>
        <time>2025-08-08T08:45:01.000Z</time>
      </trkpt>
      <trkpt lat="43.08869" lon="0.95358">
        <ele>300.79998779297</ele>
        <time>2025-08-08T08:45:08.000Z</time>
      </trkpt>
      <trkpt lat="43.08873" lon="0.95362">
        <ele>300.79998779297</ele>
        <time>2025-08-08T08:45:09.000Z</time>
      </trkpt>
      <trkpt lat="43.08913" lon="0.95404">
        <ele>300.39999389648</ele>
        <time>2025-08-08T08:45:19.000Z</time>
      </trkpt>
      <trkpt lat="43.0895" lon="0.95448">
        <ele>300.79998779297</ele>
        <time>2025-08-08T08:45:29.000Z</time>
      </trkpt>
      <trkpt lat="43.08979" lon="0.95486">
        <ele>300.60000610352</ele>
        <time>2025-08-08T08:45:37.000Z</time>
      </trkpt>
      <trkpt lat="43.09003" lon="0.95519">
        <ele>300.60000610352</ele>
        <time>2025-08-08T08:45:44.000Z</time>
      </trkpt>
      <trkpt lat="43.09006" lon="0.95524">
        <ele>300.60000610352</ele>
        <time>2025-08-08T08:45:45.000Z</time>
      </trkpt>
      <trkpt lat="43.0901" lon="0.95526">
        <ele>300.60000610352</ele>
        <time>2025-08-08T08:45:46.000Z</time>
      </trkpt>
      <trkpt lat="43.09026" lon="0.95534">
        <ele>300.79998779297</ele>
        <time>2025-08-08T08:45:50.000Z</time>
      </trkpt>
      <trkpt lat="43.09036" lon="0.95538">
        <ele>300.79998779297</ele>
        <time>2025-08-08T08:45:52.000Z</time>
      </trkpt>
      <trkpt lat="43.09047" lon="0.95551">
        <ele>300.79998779297</ele>
        <time>2025-08-08T08:45:55.000Z</time>
      </trkpt>
      <trkpt lat="43.09053" lon="0.95561">
        <ele>300.39999389648</ele>
        <time>2025-08-08T08:45:57.000Z</time>
      </trkpt>
      <trkpt lat="43.09068" lon="0.95583">
        <ele>300.39999389648</ele>
        <time>2025-08-08T08:46:02.000Z</time>
      </trkpt>
      <trkpt lat="43.09074" lon="0.95592">
        <ele>300.39999389648</ele>
        <time>2025-08-08T08:46:04.000Z</time>
      </trkpt>
      <trkpt lat="43.0908" lon="0.95601">
        <ele>300.39999389648</ele>
        <time>2025-08-08T08:46:06.000Z</time>
      </trkpt>
      <trkpt lat="43.09093" lon="0.95617">
        <ele>300.39999389648</ele>
        <time>2025-08-08T08:46:10.000Z</time>
      </trkpt>
      <trkpt lat="43.09109" lon="0.95641">
        <ele>300.20001220703</ele>
        <time>2025-08-08T08:46:15.000Z</time>
      </trkpt>
      <trkpt lat="43.09113" lon="0.95646">
        <ele>300.20001220703</ele>
        <time>2025-08-08T08:46:16.000Z</time>
      </trkpt>
      <trkpt lat="43.0912" lon="0.95656">
        <ele>300.20001220703</ele>
        <time>2025-08-08T08:46:18.000Z</time>
      </trkpt>
      <trkpt lat="43.09135" lon="0.95675">
        <ele>300.20001220703</ele>
        <time>2025-08-08T08:46:22.000Z</time>
      </trkpt>
      <trkpt lat="43.09159" lon="0.95707">
        <ele>300.39999389648</ele>
        <time>2025-08-08T08:46:29.000Z</time>
      </trkpt>
      <trkpt lat="43.09173" lon="0.95725">
        <ele>300.39999389648</ele>
        <time>2025-08-08T08:46:33.000Z</time>
      </trkpt>
      <trkpt lat="43.09179" lon="0.95733">
        <ele>300.39999389648</ele>
        <time>2025-08-08T08:46:35.000Z</time>
      </trkpt>
      <trkpt lat="43.09193" lon="0.9575">
        <ele>300.20001220703</ele>
        <time>2025-08-08T08:46:39.000Z</time>
      </trkpt>
      <trkpt lat="43.092" lon="0.95759">
        <ele>300.20001220703</ele>
        <time>2025-08-08T08:46:41.000Z</time>
      </trkpt>
      <trkpt lat="43.09206" lon="0.95767">
        <ele>300</ele>
        <time>2025-08-08T08:46:43.000Z</time>
      </trkpt>
      <trkpt lat="43.09222" lon="0.95784">
        <ele>299.79998779297</ele>
        <time>2025-08-08T08:46:47.000Z</time>
      </trkpt>
      <trkpt lat="43.09248" lon="0.95812">
        <ele>299.79998779297</ele>
        <time>2025-08-08T08:46:53.000Z</time>
      </trkpt>
      <trkpt lat="43.09261" lon="0.95825">
        <ele>299.79998779297</ele>
        <time>2025-08-08T08:46:56.000Z</time>
      </trkpt>
      <trkpt lat="43.09292" lon="0.95851">
        <ele>299.60000610352</ele>
        <time>2025-08-08T08:47:03.000Z</time>
      </trkpt>
      <trkpt lat="43.09321" lon="0.95876">
        <ele>299.39999389648</ele>
        <time>2025-08-08T08:47:09.000Z</time>
      </trkpt>
      <trkpt lat="43.09366" lon="0.95909">
        <ele>299.20001220703</ele>
        <time>2025-08-08T08:47:19.000Z</time>
      </trkpt>
      <trkpt lat="43.09398" lon="0.9593">
        <ele>299</ele>
        <time>2025-08-08T08:47:26.000Z</time>
      </trkpt>
      <trkpt lat="43.09402" lon="0.95933">
        <ele>298.79998779297</ele>
        <time>2025-08-08T08:47:27.000Z</time>
      </trkpt>
      <trkpt lat="43.09411" lon="0.95939">
        <ele>298.79998779297</ele>
        <time>2025-08-08T08:47:29.000Z</time>
      </trkpt>
      <trkpt lat="43.09441" lon="0.95956">
        <ele>298.60000610352</ele>
        <time>2025-08-08T08:47:35.000Z</time>
      </trkpt>
      <trkpt lat="43.09451" lon="0.95963">
        <ele>298.60000610352</ele>
        <time>2025-08-08T08:47:37.000Z</time>
      </trkpt>
      <trkpt lat="43.09466" lon="0.9597">
        <ele>298.60000610352</ele>
        <time>2025-08-08T08:47:40.000Z</time>
      </trkpt>
      <trkpt lat="43.09511" lon="0.95991">
        <ele>298.20001220703</ele>
        <time>2025-08-08T08:47:49.000Z</time>
      </trkpt>
      <trkpt lat="43.09542" lon="0.96003">
        <ele>298.20001220703</ele>
        <time>2025-08-08T08:47:55.000Z</time>
      </trkpt>
      <trkpt lat="43.09562" lon="0.9601">
        <ele>298.20001220703</ele>
        <time>2025-08-08T08:47:59.000Z</time>
      </trkpt>
      <trkpt lat="43.09577" lon="0.96015">
        <ele>298.20001220703</ele>
        <time>2025-08-08T08:48:02.000Z</time>
      </trkpt>
      <trkpt lat="43.096" lon="0.96022">
        <ele>298</ele>
        <time>2025-08-08T08:48:08.000Z</time>
      </trkpt>
      <trkpt lat="43.09612" lon="0.96027">
        <ele>297.79998779297</ele>
        <time>2025-08-08T08:48:11.000Z</time>
      </trkpt>
      <trkpt lat="43.09616" lon="0.96029">
        <ele>297.79998779297</ele>
        <time>2025-08-08T08:48:12.000Z</time>
      </trkpt>
      <trkpt lat="43.0962" lon="0.96029">
        <ele>297.79998779297</ele>
        <time>2025-08-08T08:48:13.000Z</time>
      </trkpt>
      <trkpt lat="43.09645" lon="0.96035">
        <ele>297.60000610352</ele>
        <time>2025-08-08T08:48:18.000Z</time>
      </trkpt>
      <trkpt lat="43.09681" lon="0.96046">
        <ele>297.39999389648</ele>
        <time>2025-08-08T08:48:25.000Z</time>
      </trkpt>
      <trkpt lat="43.09707" lon="0.96054">
        <ele>297.20001220703</ele>
        <time>2025-08-08T08:48:30.000Z</time>
      </trkpt>
      <trkpt lat="43.09716" lon="0.96057">
        <ele>297.20001220703</ele>
        <time>2025-08-08T08:48:32.000Z</time>
      </trkpt>
      <trkpt lat="43.09756" lon="0.96068">
        <ele>297.20001220703</ele>
        <time>2025-08-08T08:48:40.000Z</time>
      </trkpt>
      <trkpt lat="43.09791" lon="0.96078">
        <ele>297</ele>
        <time>2025-08-08T08:48:47.000Z</time>
      </trkpt>
      <trkpt lat="43.09813" lon="0.96083">
        <ele>296.60000610352</ele>
        <time>2025-08-08T08:48:51.000Z</time>
      </trkpt>
      <trkpt lat="43.09818" lon="0.96084">
        <ele>296.60000610352</ele>
        <time>2025-08-08T08:48:52.000Z</time>
      </trkpt>
      <trkpt lat="43.09837" lon="0.96091">
        <ele>296.39999389648</ele>
        <time>2025-08-08T08:48:56.000Z</time>
      </trkpt>
      <trkpt lat="43.09871" lon="0.96096">
        <ele>296</ele>
        <time>2025-08-08T08:49:03.000Z</time>
      </trkpt>
      <trkpt lat="43.09914" lon="0.96109">
        <ele>295.79998779297</ele>
        <time>2025-08-08T08:49:12.000Z</time>
      </trkpt>
      <trkpt lat="43.09933" lon="0.96114">
        <ele>295.60000610352</ele>
        <time>2025-08-08T08:49:16.000Z</time>
      </trkpt>
      <trkpt lat="43.09953" lon="0.96119">
        <ele>295.39999389648</ele>
        <time>2025-08-08T08:49:20.000Z</time>
      </trkpt>
      <trkpt lat="43.09984" lon="0.96128">
        <ele>295.20001220703</ele>
        <time>2025-08-08T08:49:26.000Z</time>
      </trkpt>
      <trkpt lat="43.10015" lon="0.96137">
        <ele>295</ele>
        <time>2025-08-08T08:49:32.000Z</time>
      </trkpt>
      <trkpt lat="43.10025" lon="0.96139">
        <ele>294.79998779297</ele>
        <time>2025-08-08T08:49:34.000Z</time>
      </trkpt>
      <trkpt lat="43.10045" lon="0.96145">
        <ele>294.60000610352</ele>
        <time>2025-08-08T08:49:38.000Z</time>
      </trkpt>
      <trkpt lat="43.10074" lon="0.96156">
        <ele>294.39999389648</ele>
        <time>2025-08-08T08:49:44.000Z</time>
      </trkpt>
      <trkpt lat="43.10107" lon="0.96169">
        <ele>294.39999389648</ele>
        <time>2025-08-08T08:49:51.000Z</time>
      </trkpt>
      <trkpt lat="43.10153" lon="0.96182">
        <ele>294.60000610352</ele>
        <time>2025-08-08T08:50:01.000Z</time>
      </trkpt>
      <trkpt lat="43.10163" lon="0.96186">
        <ele>294.60000610352</ele>
        <time>2025-08-08T08:50:05.000Z</time>
      </trkpt>
      <trkpt lat="43.10162" lon="0.96184">
        <ele>294.60000610352</ele>
        <time>2025-08-08T08:50:08.000Z</time>
      </trkpt>
      <trkpt lat="43.10157" lon="0.96182">
        <ele>294.60000610352</ele>
        <time>2025-08-08T08:50:15.000Z</time>
      </trkpt>
      <trkpt lat="43.10156" lon="0.96182">
        <ele>294.60000610352</ele>
        <time>2025-08-08T08:50:16.000Z</time>
      </trkpt>
      <trkpt lat="43.10147" lon="0.96179">
        <ele>294.79998779297</ele>
        <time>2025-08-08T08:50:21.000Z</time>
      </trkpt>
      <trkpt lat="43.10129" lon="0.96173">
        <ele>294.79998779297</ele>
        <time>2025-08-08T08:50:27.000Z</time>
      </trkpt>
      <trkpt lat="43.10109" lon="0.96168">
        <ele>294.79998779297</ele>
        <time>2025-08-08T08:50:33.000Z</time>
      </trkpt>
      <trkpt lat="43.1009" lon="0.96162">
        <ele>294.60000610352</ele>
        <time>2025-08-08T08:50:40.000Z</time>
      </trkpt>
      <trkpt lat="43.10076" lon="0.96155">
        <ele>294.60000610352</ele>
        <time>2025-08-08T08:50:46.000Z</time>
      </trkpt>
      <trkpt lat="43.10055" lon="0.96147">
        <ele>294.60000610352</ele>
        <time>2025-08-08T08:50:52.000Z</time>
      </trkpt>
      <trkpt lat="43.10029" lon="0.96137">
        <ele>294.60000610352</ele>
        <time>2025-08-08T08:50:59.000Z</time>
      </trkpt>
      <trkpt lat="43.10015" lon="0.96132">
        <ele>294.79998779297</ele>
        <time>2025-08-08T08:51:05.000Z</time>
      </trkpt>
      <trkpt lat="43.10016" lon="0.96131">
        <ele>294.79998779297</ele>
        <time>2025-08-08T08:51:06.000Z</time>
      </trkpt>
      <trkpt lat="43.10022" lon="0.96128">
        <ele>294.79998779297</ele>
        <time>2025-08-08T08:51:09.000Z</time>
      </trkpt>
      <trkpt lat="43.10035" lon="0.96128">
        <ele>294.60000610352</ele>
        <time>2025-08-08T08:51:12.000Z</time>
      </trkpt>
      <trkpt lat="43.10056" lon="0.96131">
        <ele>293.60000610352</ele>
        <time>2025-08-08T08:51:18.000Z</time>
      </trkpt>
      <trkpt lat="43.10064" lon="0.96131">
        <ele>293.39999389648</ele>
        <time>2025-08-08T08:51:20.000Z</time>
      </trkpt>
      <trkpt lat="43.10098" lon="0.96127">
        <ele>293.20001220703</ele>
        <time>2025-08-08T08:51:29.000Z</time>
      </trkpt>
      <trkpt lat="43.10115" lon="0.96125">
        <ele>293.39999389648</ele>
        <time>2025-08-08T08:51:35.000Z</time>
      </trkpt>
      <trkpt lat="43.10121" lon="0.96123">
        <ele>293.60000610352</ele>
        <time>2025-08-08T08:51:39.000Z</time>
      </trkpt>
      <trkpt lat="43.10122" lon="0.96121">
        <ele>293.60000610352</ele>
        <time>2025-08-08T08:51:40.000Z</time>
      </trkpt>
      <trkpt lat="43.10125" lon="0.961">
        <ele>293.79998779297</ele>
        <time>2025-08-08T08:51:45.000Z</time>
      </trkpt>
      <trkpt lat="43.10124" lon="0.96062">
        <ele>293.60000610352</ele>
        <time>2025-08-08T08:51:52.000Z</time>
      </trkpt>
      <trkpt lat="43.10124" lon="0.96022">
        <ele>293.39999389648</ele>
        <time>2025-08-08T08:51:59.000Z</time>
      </trkpt>
      <trkpt lat="43.10123" lon="0.96011">
        <ele>293.39999389648</ele>
        <time>2025-08-08T08:52:01.000Z</time>
      </trkpt>
      <trkpt lat="43.10119" lon="0.95955">
        <ele>293.20001220703</ele>
        <time>2025-08-08T08:52:11.000Z</time>
      </trkpt>
      <trkpt lat="43.10116" lon="0.95921">
        <ele>293.20001220703</ele>
        <time>2025-08-08T08:52:17.000Z</time>
      </trkpt>
      <trkpt lat="43.10115" lon="0.95903">
        <ele>293.20001220703</ele>
        <time>2025-08-08T08:52:20.000Z</time>
      </trkpt>
      <trkpt lat="43.1011" lon="0.95843">
        <ele>293.39999389648</ele>
        <time>2025-08-08T08:52:31.000Z</time>
      </trkpt>
      <trkpt lat="43.10108" lon="0.95822">
        <ele>293.39999389648</ele>
        <time>2025-08-08T08:52:36.000Z</time>
      </trkpt>
      <trkpt lat="43.10109" lon="0.958">
        <ele>293.39999389648</ele>
        <time>2025-08-08T08:52:41.000Z</time>
      </trkpt>
      <trkpt lat="43.10117" lon="0.95785">
        <ele>293.60000610352</ele>
        <time>2025-08-08T08:52:46.000Z</time>
      </trkpt>
      <trkpt lat="43.1013" lon="0.95775">
        <ele>293.60000610352</ele>
        <time>2025-08-08T08:52:51.000Z</time>
      </trkpt>
      <trkpt lat="43.10156" lon="0.95766">
        <ele>293.79998779297</ele>
        <time>2025-08-08T08:52:59.000Z</time>
      </trkpt>
      <trkpt lat="43.10175" lon="0.95769">
        <ele>293.79998779297</ele>
        <time>2025-08-08T08:53:04.000Z</time>
      </trkpt>
      <trkpt lat="43.10182" lon="0.9577">
        <ele>293.60000610352</ele>
        <time>2025-08-08T08:53:06.000Z</time>
      </trkpt>
      <trkpt lat="43.10186" lon="0.95769">
        <ele>293.60000610352</ele>
        <time>2025-08-08T08:53:08.000Z</time>
      </trkpt>
      <trkpt lat="43.10193" lon="0.95769">
        <ele>293.60000610352</ele>
        <time>2025-08-08T08:53:13.000Z</time>
      </trkpt>
      <trkpt lat="43.10203" lon="0.95776">
        <ele>293.60000610352</ele>
        <time>2025-08-08T08:53:19.000Z</time>
      </trkpt>
      <trkpt lat="43.10209" lon="0.95779">
        <ele>293.60000610352</ele>
        <time>2025-08-08T08:53:24.000Z</time>
      </trkpt>
      <trkpt lat="43.1021" lon="0.9578">
        <ele>293.60000610352</ele>
        <time>2025-08-08T08:53:26.000Z</time>
      </trkpt>
      <trkpt lat="43.1021" lon="0.9578">
        <ele>293.60000610352</ele>
        <time>2025-08-08T08:53:27.000Z</time>
      </trkpt>
      <trkpt lat="43.10199" lon="0.95771">
        <ele>295.20001220703</ele>
        <time>2025-08-08T09:16:38.000Z</time>
      </trkpt>
      <trkpt lat="43.10195" lon="0.95769">
        <ele>295.20001220703</ele>
        <time>2025-08-08T09:16:40.000Z</time>
      </trkpt>
      <trkpt lat="43.10191" lon="0.95768">
        <ele>295.39999389648</ele>
        <time>2025-08-08T09:16:42.000Z</time>
      </trkpt>
      <trkpt lat="43.10184" lon="0.95768">
        <ele>295.39999389648</ele>
        <time>2025-08-08T09:16:45.000Z</time>
      </trkpt>
      <trkpt lat="43.10162" lon="0.95761">
        <ele>295.60000610352</ele>
        <time>2025-08-08T09:16:54.000Z</time>
      </trkpt>
      <trkpt lat="43.1014" lon="0.95766">
        <ele>296</ele>
        <time>2025-08-08T09:17:01.000Z</time>
      </trkpt>
      <trkpt lat="43.10137" lon="0.95767">
        <ele>296.20001220703</ele>
        <time>2025-08-08T09:17:02.000Z</time>
      </trkpt>
      <trkpt lat="43.1012" lon="0.95766">
        <ele>296.60000610352</ele>
        <time>2025-08-08T09:17:07.000Z</time>
      </trkpt>
      <trkpt lat="43.10111" lon="0.95752">
        <ele>297</ele>
        <time>2025-08-08T09:17:11.000Z</time>
      </trkpt>
      <trkpt lat="43.10111" lon="0.95747">
        <ele>297.20001220703</ele>
        <time>2025-08-08T09:17:12.000Z</time>
      </trkpt>
      <trkpt lat="43.10112" lon="0.95742">
        <ele>297.39999389648</ele>
        <time>2025-08-08T09:17:13.000Z</time>
      </trkpt>
      <trkpt lat="43.10114" lon="0.95732">
        <ele>297.60000610352</ele>
        <time>2025-08-08T09:17:15.000Z</time>
      </trkpt>
      <trkpt lat="43.10118" lon="0.95704">
        <ele>298.20001220703</ele>
        <time>2025-08-08T09:17:21.000Z</time>
      </trkpt>
      <trkpt lat="43.10118" lon="0.957">
        <ele>298.20001220703</ele>
        <time>2025-08-08T09:17:22.000Z</time>
      </trkpt>
      <trkpt lat="43.10119" lon="0.95696">
        <ele>298.39999389648</ele>
        <time>2025-08-08T09:17:23.000Z</time>
      </trkpt>
      <trkpt lat="43.10118" lon="0.95672">
        <ele>299</ele>
        <time>2025-08-08T09:17:28.000Z</time>
      </trkpt>
      <trkpt lat="43.10116" lon="0.95649">
        <ele>299.39999389648</ele>
        <time>2025-08-08T09:17:34.000Z</time>
      </trkpt>
      <trkpt lat="43.10116" lon="0.95642">
        <ele>299.60000610352</ele>
        <time>2025-08-08T09:17:36.000Z</time>
      </trkpt>
      <trkpt lat="43.10116" lon="0.95635">
        <ele>299.79998779297</ele>
        <time>2025-08-08T09:17:38.000Z</time>
      </trkpt>
      <trkpt lat="43.10115" lon="0.95616">
        <ele>300.39999389648</ele>
        <time>2025-08-08T09:17:43.000Z</time>
      </trkpt>
      <trkpt lat="43.10114" lon="0.95612">
        <ele>300.60000610352</ele>
        <time>2025-08-08T09:17:44.000Z</time>
      </trkpt>
      <trkpt lat="43.10111" lon="0.95585">
        <ele>301.20001220703</ele>
        <time>2025-08-08T09:17:51.000Z</time>
      </trkpt>
      <trkpt lat="43.10111" lon="0.95581">
        <ele>301.39999389648</ele>
        <time>2025-08-08T09:17:52.000Z</time>
      </trkpt>
      <trkpt lat="43.10109" lon="0.95567">
        <ele>302</ele>
        <time>2025-08-08T09:17:56.000Z</time>
      </trkpt>
      <trkpt lat="43.10108" lon="0.95556">
        <ele>302.20001220703</ele>
        <time>2025-08-08T09:17:59.000Z</time>
      </trkpt>
      <trkpt lat="43.10107" lon="0.95545">
        <ele>302.39999389648</ele>
        <time>2025-08-08T09:18:02.000Z</time>
      </trkpt>
      <trkpt lat="43.10105" lon="0.95527">
        <ele>302.79998779297</ele>
        <time>2025-08-08T09:18:07.000Z</time>
      </trkpt>
      <trkpt lat="43.10103" lon="0.95514">
        <ele>303</ele>
        <time>2025-08-08T09:18:10.000Z</time>
      </trkpt>
      <trkpt lat="43.10103" lon="0.95506">
        <ele>303.20001220703</ele>
        <time>2025-08-08T09:18:12.000Z</time>
      </trkpt>
      <trkpt lat="43.10102" lon="0.95489">
        <ele>303.39999389648</ele>
        <time>2025-08-08T09:18:16.000Z</time>
      </trkpt>
      <trkpt lat="43.10097" lon="0.95466">
        <ele>303.79998779297</ele>
        <time>2025-08-08T09:18:22.000Z</time>
      </trkpt>
      <trkpt lat="43.10097" lon="0.95463">
        <ele>303.79998779297</ele>
        <time>2025-08-08T09:18:23.000Z</time>
      </trkpt>
      <trkpt lat="43.10098" lon="0.95447">
        <ele>304</ele>
        <time>2025-08-08T09:18:27.000Z</time>
      </trkpt>
      <trkpt lat="43.101" lon="0.95445">
        <ele>304</ele>
        <time>2025-08-08T09:18:28.000Z</time>
      </trkpt>
      <trkpt lat="43.10102" lon="0.95444">
        <ele>304</ele>
        <time>2025-08-08T09:18:29.000Z</time>
      </trkpt>
      <trkpt lat="43.10109" lon="0.95441">
        <ele>304.20001220703</ele>
        <time>2025-08-08T09:18:32.000Z</time>
      </trkpt>
      <trkpt lat="43.10113" lon="0.95441">
        <ele>304.20001220703</ele>
        <time>2025-08-08T09:18:33.000Z</time>
      </trkpt>
      <trkpt lat="43.10121" lon="0.95443">
        <ele>304.20001220703</ele>
        <time>2025-08-08T09:18:35.000Z</time>
      </trkpt>
      <trkpt lat="43.10143" lon="0.95446">
        <ele>304</ele>
        <time>2025-08-08T09:18:41.000Z</time>
      </trkpt>
      <trkpt lat="43.10147" lon="0.95447">
        <ele>304</ele>
        <time>2025-08-08T09:18:42.000Z</time>
      </trkpt>
      <trkpt lat="43.10182" lon="0.95452">
        <ele>304</ele>
        <time>2025-08-08T09:18:50.000Z</time>
      </trkpt>
      <trkpt lat="43.10196" lon="0.95455">
        <ele>303.79998779297</ele>
        <time>2025-08-08T09:18:53.000Z</time>
      </trkpt>
      <trkpt lat="43.10218" lon="0.95458">
        <ele>303.60000610352</ele>
        <time>2025-08-08T09:18:58.000Z</time>
      </trkpt>
      <trkpt lat="43.1024" lon="0.95461">
        <ele>303.60000610352</ele>
        <time>2025-08-08T09:19:03.000Z</time>
      </trkpt>
      <trkpt lat="43.10245" lon="0.95461">
        <ele>304</ele>
        <time>2025-08-08T09:19:04.000Z</time>
      </trkpt>
      <trkpt lat="43.1025" lon="0.95462">
        <ele>304</ele>
        <time>2025-08-08T09:19:05.000Z</time>
      </trkpt>
      <trkpt lat="43.10255" lon="0.95462">
        <ele>304</ele>
        <time>2025-08-08T09:19:06.000Z</time>
      </trkpt>
      <trkpt lat="43.10264" lon="0.95464">
        <ele>304</ele>
        <time>2025-08-08T09:19:08.000Z</time>
      </trkpt>
      <trkpt lat="43.10272" lon="0.95462">
        <ele>304</ele>
        <time>2025-08-08T09:19:10.000Z</time>
      </trkpt>
      <trkpt lat="43.1029" lon="0.95464">
        <ele>303.79998779297</ele>
        <time>2025-08-08T09:19:14.000Z</time>
      </trkpt>
      <trkpt lat="43.10304" lon="0.95466">
        <ele>303.60000610352</ele>
        <time>2025-08-08T09:19:17.000Z</time>
      </trkpt>
      <trkpt lat="43.10319" lon="0.95469">
        <ele>303.20001220703</ele>
        <time>2025-08-08T09:19:21.000Z</time>
      </trkpt>
      <trkpt lat="43.1033" lon="0.9547">
        <ele>303</ele>
        <time>2025-08-08T09:19:24.000Z</time>
      </trkpt>
      <trkpt lat="43.10343" lon="0.95471">
        <ele>303</ele>
        <time>2025-08-08T09:19:27.000Z</time>
      </trkpt>
      <trkpt lat="43.10374" lon="0.95474">
        <ele>302.79998779297</ele>
        <time>2025-08-08T09:19:33.000Z</time>
      </trkpt>
      <trkpt lat="43.10378" lon="0.95475">
        <ele>302.60000610352</ele>
        <time>2025-08-08T09:19:34.000Z</time>
      </trkpt>
      <trkpt lat="43.10382" lon="0.95476">
        <ele>302.60000610352</ele>
        <time>2025-08-08T09:19:35.000Z</time>
      </trkpt>
      <trkpt lat="43.10392" lon="0.95477">
        <ele>302.39999389648</ele>
        <time>2025-08-08T09:19:37.000Z</time>
      </trkpt>
      <trkpt lat="43.10401" lon="0.95479">
        <ele>302.39999389648</ele>
        <time>2025-08-08T09:19:39.000Z</time>
      </trkpt>
      <trkpt lat="43.10422" lon="0.9548">
        <ele>302.20001220703</ele>
        <time>2025-08-08T09:19:44.000Z</time>
      </trkpt>
      <trkpt lat="43.10424" lon="0.95478">
        <ele>302.20001220703</ele>
        <time>2025-08-08T09:19:45.000Z</time>
      </trkpt>
      <trkpt lat="43.10424" lon="0.95478">
        <ele>302.20001220703</ele>
        <time>2025-08-08T09:19:46.000Z</time>
      </trkpt>
      <trkpt lat="43.10424" lon="0.95478">
        <ele>302.20001220703</ele>
        <time>2025-08-08T09:19:48.000Z</time>
      </trkpt>
      <trkpt lat="43.10425" lon="0.95469">
        <ele>302.20001220703</ele>
        <time>2025-08-08T09:20:15.000Z</time>
      </trkpt>
      <trkpt lat="43.10425" lon="0.95466">
        <ele>302.20001220703</ele>
        <time>2025-08-08T09:20:16.000Z</time>
      </trkpt>
      <trkpt lat="43.10421" lon="0.95449">
        <ele>302.20001220703</ele>
        <time>2025-08-08T09:20:21.000Z</time>
      </trkpt>
      <trkpt lat="43.10414" lon="0.9542">
        <ele>302.39999389648</ele>
        <time>2025-08-08T09:20:28.000Z</time>
      </trkpt>
      <trkpt lat="43.10413" lon="0.95412">
        <ele>302.20001220703</ele>
        <time>2025-08-08T09:20:30.000Z</time>
      </trkpt>
      <trkpt lat="43.10408" lon="0.95386">
        <ele>301.20001220703</ele>
        <time>2025-08-08T09:20:37.000Z</time>
      </trkpt>
      <trkpt lat="43.10407" lon="0.95378">
        <ele>300.60000610352</ele>
        <time>2025-08-08T09:20:39.000Z</time>
      </trkpt>
      <trkpt lat="43.10403" lon="0.95356">
        <ele>302</ele>
        <time>2025-08-08T09:20:45.000Z</time>
      </trkpt>
      <trkpt lat="43.10402" lon="0.95352">
        <ele>302.79998779297</ele>
        <time>2025-08-08T09:20:46.000Z</time>
      </trkpt>
      <trkpt lat="43.104" lon="0.95346">
        <ele>304</ele>
        <time>2025-08-08T09:20:48.000Z</time>
      </trkpt>
      <trkpt lat="43.10398" lon="0.95324">
        <ele>304.39999389648</ele>
        <time>2025-08-08T09:20:54.000Z</time>
      </trkpt>
      <trkpt lat="43.10393" lon="0.95299">
        <ele>304.79998779297</ele>
        <time>2025-08-08T09:21:01.000Z</time>
      </trkpt>
      <trkpt lat="43.10393" lon="0.95287">
        <ele>305</ele>
        <time>2025-08-08T09:21:04.000Z</time>
      </trkpt>
      <trkpt lat="43.10393" lon="0.95271">
        <ele>305.39999389648</ele>
        <time>2025-08-08T09:21:08.000Z</time>
      </trkpt>
      <trkpt lat="43.10393" lon="0.95263">
        <ele>305.39999389648</ele>
        <time>2025-08-08T09:21:10.000Z</time>
      </trkpt>
      <trkpt lat="43.10394" lon="0.95245">
        <ele>306</ele>
        <time>2025-08-08T09:21:15.000Z</time>
      </trkpt>
      <trkpt lat="43.10395" lon="0.95229">
        <ele>306.39999389648</ele>
        <time>2025-08-08T09:21:19.000Z</time>
      </trkpt>
      <trkpt lat="43.10396" lon="0.95197">
        <ele>307.20001220703</ele>
        <time>2025-08-08T09:21:27.000Z</time>
      </trkpt>
      <trkpt lat="43.10398" lon="0.95164">
        <ele>307.60000610352</ele>
        <time>2025-08-08T09:21:35.000Z</time>
      </trkpt>
      <trkpt lat="43.10398" lon="0.9516">
        <ele>307.60000610352</ele>
        <time>2025-08-08T09:21:36.000Z</time>
      </trkpt>
      <trkpt lat="43.10401" lon="0.95139">
        <ele>308.20001220703</ele>
        <time>2025-08-08T09:21:41.000Z</time>
      </trkpt>
      <trkpt lat="43.10402" lon="0.95135">
        <ele>308.20001220703</ele>
        <time>2025-08-08T09:21:42.000Z</time>
      </trkpt>
      <trkpt lat="43.10406" lon="0.95107">
        <ele>308.60000610352</ele>
        <time>2025-08-08T09:21:49.000Z</time>
      </trkpt>
      <trkpt lat="43.1041" lon="0.95089">
        <ele>309.20001220703</ele>
        <time>2025-08-08T09:21:55.000Z</time>
      </trkpt>
      <trkpt lat="43.10414" lon="0.95075">
        <ele>309.79998779297</ele>
        <time>2025-08-08T09:22:00.000Z</time>
      </trkpt>
      <trkpt lat="43.10416" lon="0.9507">
        <ele>310</ele>
        <time>2025-08-08T09:22:02.000Z</time>
      </trkpt>
      <trkpt lat="43.10417" lon="0.95067">
        <ele>310.20001220703</ele>
        <time>2025-08-08T09:22:03.000Z</time>
      </trkpt>
      <trkpt lat="43.10419" lon="0.95051">
        <ele>311.20001220703</ele>
        <time>2025-08-08T09:22:09.000Z</time>
      </trkpt>
      <trkpt lat="43.1042" lon="0.95048">
        <ele>311.39999389648</ele>
        <time>2025-08-08T09:22:10.000Z</time>
      </trkpt>
      <trkpt lat="43.10423" lon="0.95035">
        <ele>312.39999389648</ele>
        <time>2025-08-08T09:22:15.000Z</time>
      </trkpt>
      <trkpt lat="43.10424" lon="0.9503">
        <ele>312.60000610352</ele>
        <time>2025-08-08T09:22:17.000Z</time>
      </trkpt>
      <trkpt lat="43.10428" lon="0.95021">
        <ele>313.20001220703</ele>
        <time>2025-08-08T09:22:21.000Z</time>
      </trkpt>
      <trkpt lat="43.10432" lon="0.95011">
        <ele>313.60000610352</ele>
        <time>2025-08-08T09:22:25.000Z</time>
      </trkpt>
      <trkpt lat="43.10433" lon="0.95009">
        <ele>313.79998779297</ele>
        <time>2025-08-08T09:22:26.000Z</time>
      </trkpt>
      <trkpt lat="43.10435" lon="0.95002">
        <ele>314.39999389648</ele>
        <time>2025-08-08T09:22:29.000Z</time>
      </trkpt>
      <trkpt lat="43.10436" lon="0.94999">
        <ele>314.39999389648</ele>
        <time>2025-08-08T09:22:30.000Z</time>
      </trkpt>
      <trkpt lat="43.10436" lon="0.94997">
        <ele>314.60000610352</ele>
        <time>2025-08-08T09:22:31.000Z</time>
      </trkpt>
      <trkpt lat="43.1044" lon="0.9498">
        <ele>316</ele>
        <time>2025-08-08T09:22:38.000Z</time>
      </trkpt>
      <trkpt lat="43.10445" lon="0.94963">
        <ele>316.60000610352</ele>
        <time>2025-08-08T09:22:45.000Z</time>
      </trkpt>
      <trkpt lat="43.10446" lon="0.94958">
        <ele>316.79998779297</ele>
        <time>2025-08-08T09:22:47.000Z</time>
      </trkpt>
      <trkpt lat="43.10448" lon="0.94952">
        <ele>317.60000610352</ele>
        <time>2025-08-08T09:22:50.000Z</time>
      </trkpt>
      <trkpt lat="43.1045" lon="0.9495">
        <ele>317.60000610352</ele>
        <time>2025-08-08T09:22:51.000Z</time>
      </trkpt>
      <trkpt lat="43.1045" lon="0.94948">
        <ele>318</ele>
        <time>2025-08-08T09:22:52.000Z</time>
      </trkpt>
      <trkpt lat="43.10454" lon="0.94936">
        <ele>319</ele>
        <time>2025-08-08T09:22:57.000Z</time>
      </trkpt>
      <trkpt lat="43.10456" lon="0.94929">
        <ele>319.39999389648</ele>
        <time>2025-08-08T09:23:00.000Z</time>
      </trkpt>
      <trkpt lat="43.10461" lon="0.94915">
        <ele>320.20001220703</ele>
        <time>2025-08-08T09:23:06.000Z</time>
      </trkpt>
      <trkpt lat="43.10462" lon="0.9491">
        <ele>320.39999389648</ele>
        <time>2025-08-08T09:23:08.000Z</time>
      </trkpt>
      <trkpt lat="43.10466" lon="0.94898">
        <ele>321.20001220703</ele>
        <time>2025-08-08T09:23:13.000Z</time>
      </trkpt>
      <trkpt lat="43.10471" lon="0.9489">
        <ele>322</ele>
        <time>2025-08-08T09:23:17.000Z</time>
      </trkpt>
      <trkpt lat="43.10472" lon="0.94887">
        <ele>322.20001220703</ele>
        <time>2025-08-08T09:23:18.000Z</time>
      </trkpt>
      <trkpt lat="43.10476" lon="0.94876">
        <ele>323.20001220703</ele>
        <time>2025-08-08T09:23:23.000Z</time>
      </trkpt>
      <trkpt lat="43.10477" lon="0.94874">
        <ele>323.39999389648</ele>
        <time>2025-08-08T09:23:24.000Z</time>
      </trkpt>
      <trkpt lat="43.10486" lon="0.9486">
        <ele>324.20001220703</ele>
        <time>2025-08-08T09:23:31.000Z</time>
      </trkpt>
      <trkpt lat="43.10487" lon="0.94857">
        <ele>324.60000610352</ele>
        <time>2025-08-08T09:23:32.000Z</time>
      </trkpt>
      <trkpt lat="43.10491" lon="0.94851">
        <ele>325.20001220703</ele>
        <time>2025-08-08T09:23:35.000Z</time>
      </trkpt>
      <trkpt lat="43.10494" lon="0.94848">
        <ele>325.60000610352</ele>
        <time>2025-08-08T09:23:37.000Z</time>
      </trkpt>
      <trkpt lat="43.10495" lon="0.94846">
        <ele>325.60000610352</ele>
        <time>2025-08-08T09:23:38.000Z</time>
      </trkpt>
      <trkpt lat="43.10499" lon="0.94833">
        <ele>326.20001220703</ele>
        <time>2025-08-08T09:23:44.000Z</time>
      </trkpt>
      <trkpt lat="43.10503" lon="0.94828">
        <ele>326.79998779297</ele>
        <time>2025-08-08T09:23:47.000Z</time>
      </trkpt>
      <trkpt lat="43.10509" lon="0.94816">
        <ele>327.79998779297</ele>
        <time>2025-08-08T09:23:53.000Z</time>
      </trkpt>
      <trkpt lat="43.10511" lon="0.94814">
        <ele>328</ele>
        <time>2025-08-08T09:23:54.000Z</time>
      </trkpt>
      <trkpt lat="43.10515" lon="0.94806">
        <ele>328.20001220703</ele>
        <time>2025-08-08T09:23:58.000Z</time>
      </trkpt>
      <trkpt lat="43.10517" lon="0.94803">
        <ele>328.60000610352</ele>
        <time>2025-08-08T09:24:00.000Z</time>
      </trkpt>
      <trkpt lat="43.10522" lon="0.94796">
        <ele>329.20001220703</ele>
        <time>2025-08-08T09:24:03.000Z</time>
      </trkpt>
      <trkpt lat="43.10529" lon="0.94789">
        <ele>329.39999389648</ele>
        <time>2025-08-08T09:24:08.000Z</time>
      </trkpt>
      <trkpt lat="43.10535" lon="0.94785">
        <ele>330.20001220703</ele>
        <time>2025-08-08T09:24:12.000Z</time>
      </trkpt>
      <trkpt lat="43.10542" lon="0.9478">
        <ele>330.79998779297</ele>
        <time>2025-08-08T09:24:16.000Z</time>
      </trkpt>
      <trkpt lat="43.10548" lon="0.94774">
        <ele>331.39999389648</ele>
        <time>2025-08-08T09:24:20.000Z</time>
      </trkpt>
      <trkpt lat="43.10555" lon="0.94769">
        <ele>332</ele>
        <time>2025-08-08T09:24:24.000Z</time>
      </trkpt>
      <trkpt lat="43.10557" lon="0.94769">
        <ele>332.20001220703</ele>
        <time>2025-08-08T09:24:25.000Z</time>
      </trkpt>
      <trkpt lat="43.10561" lon="0.94767">
        <ele>332.39999389648</ele>
        <time>2025-08-08T09:24:27.000Z</time>
      </trkpt>
      <trkpt lat="43.10566" lon="0.94763">
        <ele>332.79998779297</ele>
        <time>2025-08-08T09:24:30.000Z</time>
      </trkpt>
      <trkpt lat="43.10576" lon="0.94757">
        <ele>333.60000610352</ele>
        <time>2025-08-08T09:24:36.000Z</time>
      </trkpt>
      <trkpt lat="43.10579" lon="0.94754">
        <ele>333.79998779297</ele>
        <time>2025-08-08T09:24:38.000Z</time>
      </trkpt>
      <trkpt lat="43.10582" lon="0.9475">
        <ele>334.20001220703</ele>
        <time>2025-08-08T09:24:40.000Z</time>
      </trkpt>
      <trkpt lat="43.10587" lon="0.94748">
        <ele>334.79998779297</ele>
        <time>2025-08-08T09:24:43.000Z</time>
      </trkpt>
      <trkpt lat="43.10589" lon="0.94746">
        <ele>334.79998779297</ele>
        <time>2025-08-08T09:24:44.000Z</time>
      </trkpt>
      <trkpt lat="43.10598" lon="0.94739">
        <ele>335.39999389648</ele>
        <time>2025-08-08T09:24:50.000Z</time>
      </trkpt>
      <trkpt lat="43.10603" lon="0.94734">
        <ele>335.79998779297</ele>
        <time>2025-08-08T09:24:53.000Z</time>
      </trkpt>
      <trkpt lat="43.10614" lon="0.94728">
        <ele>337</ele>
        <time>2025-08-08T09:25:00.000Z</time>
      </trkpt>
      <trkpt lat="43.10623" lon="0.94723">
        <ele>337.60000610352</ele>
        <time>2025-08-08T09:25:05.000Z</time>
      </trkpt>
      <trkpt lat="43.10625" lon="0.94722">
        <ele>337.60000610352</ele>
        <time>2025-08-08T09:25:06.000Z</time>
      </trkpt>
      <trkpt lat="43.10629" lon="0.94721">
        <ele>338</ele>
        <time>2025-08-08T09:25:08.000Z</time>
      </trkpt>
      <trkpt lat="43.10638" lon="0.94715">
        <ele>338.60000610352</ele>
        <time>2025-08-08T09:25:13.000Z</time>
      </trkpt>
      <trkpt lat="43.10643" lon="0.94711">
        <ele>339</ele>
        <time>2025-08-08T09:25:16.000Z</time>
      </trkpt>
      <trkpt lat="43.10648" lon="0.94707">
        <ele>339.20001220703</ele>
        <time>2025-08-08T09:25:19.000Z</time>
      </trkpt>
      <trkpt lat="43.1065" lon="0.94706">
        <ele>339.39999389648</ele>
        <time>2025-08-08T09:25:20.000Z</time>
      </trkpt>
      <trkpt lat="43.10656" lon="0.94703">
        <ele>339.79998779297</ele>
        <time>2025-08-08T09:25:23.000Z</time>
      </trkpt>
      <trkpt lat="43.10659" lon="0.94699">
        <ele>340</ele>
        <time>2025-08-08T09:25:26.000Z</time>
      </trkpt>
      <trkpt lat="43.10662" lon="0.94695">
        <ele>340</ele>
        <time>2025-08-08T09:25:29.000Z</time>
      </trkpt>
      <trkpt lat="43.10665" lon="0.94692">
        <ele>340.20001220703</ele>
        <time>2025-08-08T09:25:32.000Z</time>
      </trkpt>
      <trkpt lat="43.10668" lon="0.9469">
        <ele>340.39999389648</ele>
        <time>2025-08-08T09:25:34.000Z</time>
      </trkpt>
      <trkpt lat="43.10675" lon="0.94687">
        <ele>340.79998779297</ele>
        <time>2025-08-08T09:25:39.000Z</time>
      </trkpt>
      <trkpt lat="43.10687" lon="0.94681">
        <ele>341.20001220703</ele>
        <time>2025-08-08T09:25:47.000Z</time>
      </trkpt>
      <trkpt lat="43.10689" lon="0.9468">
        <ele>341.39999389648</ele>
        <time>2025-08-08T09:25:48.000Z</time>
      </trkpt>
      <trkpt lat="43.10694" lon="0.94677">
        <ele>341.79998779297</ele>
        <time>2025-08-08T09:25:52.000Z</time>
      </trkpt>
      <trkpt lat="43.10698" lon="0.94674">
        <ele>342</ele>
        <time>2025-08-08T09:25:54.000Z</time>
      </trkpt>
      <trkpt lat="43.10703" lon="0.94671">
        <ele>342.20001220703</ele>
        <time>2025-08-08T09:25:57.000Z</time>
      </trkpt>
      <trkpt lat="43.1071" lon="0.94664">
        <ele>342.60000610352</ele>
        <time>2025-08-08T09:26:02.000Z</time>
      </trkpt>
      <trkpt lat="43.10719" lon="0.94654">
        <ele>343</ele>
        <time>2025-08-08T09:26:08.000Z</time>
      </trkpt>
      <trkpt lat="43.10723" lon="0.94646">
        <ele>343.20001220703</ele>
        <time>2025-08-08T09:26:11.000Z</time>
      </trkpt>
      <trkpt lat="43.10729" lon="0.94632">
        <ele>343.79998779297</ele>
        <time>2025-08-08T09:26:17.000Z</time>
      </trkpt>
      <trkpt lat="43.1073" lon="0.9463">
        <ele>343.79998779297</ele>
        <time>2025-08-08T09:26:18.000Z</time>
      </trkpt>
      <trkpt lat="43.10732" lon="0.94622">
        <ele>344.20001220703</ele>
        <time>2025-08-08T09:26:21.000Z</time>
      </trkpt>
      <trkpt lat="43.10736" lon="0.9461">
        <ele>345</ele>
        <time>2025-08-08T09:26:26.000Z</time>
      </trkpt>
      <trkpt lat="43.10736" lon="0.94607">
        <ele>345.39999389648</ele>
        <time>2025-08-08T09:26:27.000Z</time>
      </trkpt>
      <trkpt lat="43.1074" lon="0.94592">
        <ele>346.60000610352</ele>
        <time>2025-08-08T09:26:33.000Z</time>
      </trkpt>
      <trkpt lat="43.10741" lon="0.94587">
        <ele>347</ele>
        <time>2025-08-08T09:26:35.000Z</time>
      </trkpt>
      <trkpt lat="43.10744" lon="0.94577">
        <ele>347.79998779297</ele>
        <time>2025-08-08T09:26:39.000Z</time>
      </trkpt>
      <trkpt lat="43.10749" lon="0.94561">
        <ele>349</ele>
        <time>2025-08-08T09:26:45.000Z</time>
      </trkpt>
      <trkpt lat="43.1075" lon="0.94556">
        <ele>349.20001220703</ele>
        <time>2025-08-08T09:26:47.000Z</time>
      </trkpt>
      <trkpt lat="43.10751" lon="0.94553">
        <ele>349.39999389648</ele>
        <time>2025-08-08T09:26:48.000Z</time>
      </trkpt>
      <trkpt lat="43.10754" lon="0.94544">
        <ele>350.20001220703</ele>
        <time>2025-08-08T09:26:52.000Z</time>
      </trkpt>
      <trkpt lat="43.10759" lon="0.94531">
        <ele>351</ele>
        <time>2025-08-08T09:26:57.000Z</time>
      </trkpt>
      <trkpt lat="43.1076" lon="0.94529">
        <ele>351.20001220703</ele>
        <time>2025-08-08T09:26:58.000Z</time>
      </trkpt>
      <trkpt lat="43.10766" lon="0.94515">
        <ele>352.39999389648</ele>
        <time>2025-08-08T09:27:04.000Z</time>
      </trkpt>
      <trkpt lat="43.10774" lon="0.94495">
        <ele>353.60000610352</ele>
        <time>2025-08-08T09:27:12.000Z</time>
      </trkpt>
      <trkpt lat="43.10776" lon="0.94492">
        <ele>353.79998779297</ele>
        <time>2025-08-08T09:27:13.000Z</time>
      </trkpt>
      <trkpt lat="43.10782" lon="0.9448">
        <ele>354.60000610352</ele>
        <time>2025-08-08T09:27:18.000Z</time>
      </trkpt>
      <trkpt lat="43.10784" lon="0.94475">
        <ele>354.79998779297</ele>
        <time>2025-08-08T09:27:20.000Z</time>
      </trkpt>
      <trkpt lat="43.10791" lon="0.94464">
        <ele>355.79998779297</ele>
        <time>2025-08-08T09:27:26.000Z</time>
      </trkpt>
      <trkpt lat="43.10793" lon="0.94462">
        <ele>356</ele>
        <time>2025-08-08T09:27:27.000Z</time>
      </trkpt>
      <trkpt lat="43.10795" lon="0.94458">
        <ele>356.39999389648</ele>
        <time>2025-08-08T09:27:29.000Z</time>
      </trkpt>
      <trkpt lat="43.10804" lon="0.94445">
        <ele>357.20001220703</ele>
        <time>2025-08-08T09:27:35.000Z</time>
      </trkpt>
      <trkpt lat="43.10807" lon="0.9444">
        <ele>357.39999389648</ele>
        <time>2025-08-08T09:27:37.000Z</time>
      </trkpt>
      <trkpt lat="43.10815" lon="0.94428">
        <ele>358</ele>
        <time>2025-08-08T09:27:43.000Z</time>
      </trkpt>
      <trkpt lat="43.10829" lon="0.94412">
        <ele>358.79998779297</ele>
        <time>2025-08-08T09:27:52.000Z</time>
      </trkpt>
      <trkpt lat="43.10833" lon="0.94408">
        <ele>359.20001220703</ele>
        <time>2025-08-08T09:27:54.000Z</time>
      </trkpt>
      <trkpt lat="43.10844" lon="0.94398">
        <ele>359.60000610352</ele>
        <time>2025-08-08T09:28:00.000Z</time>
      </trkpt>
      <trkpt lat="43.10851" lon="0.94393">
        <ele>359.60000610352</ele>
        <time>2025-08-08T09:28:04.000Z</time>
      </trkpt>
      <trkpt lat="43.10858" lon="0.94387">
        <ele>359.60000610352</ele>
        <time>2025-08-08T09:28:08.000Z</time>
      </trkpt>
      <trkpt lat="43.1088" lon="0.9437">
        <ele>359.39999389648</ele>
        <time>2025-08-08T09:28:19.000Z</time>
      </trkpt>
      <trkpt lat="43.10894" lon="0.94357">
        <ele>359.39999389648</ele>
        <time>2025-08-08T09:28:28.000Z</time>
      </trkpt>
      <trkpt lat="43.10909" lon="0.94348">
        <ele>359</ele>
        <time>2025-08-08T09:28:36.000Z</time>
      </trkpt>
      <trkpt lat="43.1093" lon="0.94334">
        <ele>358.20001220703</ele>
        <time>2025-08-08T09:28:46.000Z</time>
      </trkpt>
      <trkpt lat="43.1094" lon="0.94325">
        <ele>358.20001220703</ele>
        <time>2025-08-08T09:28:50.000Z</time>
      </trkpt>
      <trkpt lat="43.10947" lon="0.94321">
        <ele>358</ele>
        <time>2025-08-08T09:28:52.000Z</time>
      </trkpt>
      <trkpt lat="43.10968" lon="0.94304">
        <ele>357.60000610352</ele>
        <time>2025-08-08T09:28:58.000Z</time>
      </trkpt>
      <trkpt lat="43.10971" lon="0.94301">
        <ele>357.60000610352</ele>
        <time>2025-08-08T09:28:59.000Z</time>
      </trkpt>
      <trkpt lat="43.10985" lon="0.94287">
        <ele>357</ele>
        <time>2025-08-08T09:29:03.000Z</time>
      </trkpt>
      <trkpt lat="43.10988" lon="0.94283">
        <ele>356.79998779297</ele>
        <time>2025-08-08T09:29:04.000Z</time>
      </trkpt>
      <trkpt lat="43.10993" lon="0.94275">
        <ele>356.60000610352</ele>
        <time>2025-08-08T09:29:06.000Z</time>
      </trkpt>
      <trkpt lat="43.10997" lon="0.94265">
        <ele>356.39999389648</ele>
        <time>2025-08-08T09:29:08.000Z</time>
      </trkpt>
      <trkpt lat="43.10999" lon="0.94259">
        <ele>356.39999389648</ele>
        <time>2025-08-08T09:29:09.000Z</time>
      </trkpt>
      <trkpt lat="43.11005" lon="0.94227">
        <ele>355.79998779297</ele>
        <time>2025-08-08T09:29:13.000Z</time>
      </trkpt>
      <trkpt lat="43.11005" lon="0.9422">
        <ele>355.39999389648</ele>
        <time>2025-08-08T09:29:14.000Z</time>
      </trkpt>
      <trkpt lat="43.11009" lon="0.94192">
        <ele>354.60000610352</ele>
        <time>2025-08-08T09:29:17.000Z</time>
      </trkpt>
      <trkpt lat="43.11013" lon="0.94163">
        <ele>353.60000610352</ele>
        <time>2025-08-08T09:29:20.000Z</time>
      </trkpt>
      <trkpt lat="43.11015" lon="0.94153">
        <ele>353.20001220703</ele>
        <time>2025-08-08T09:29:21.000Z</time>
      </trkpt>
      <trkpt lat="43.11021" lon="0.94112">
        <ele>352.39999389648</ele>
        <time>2025-08-08T09:29:25.000Z</time>
      </trkpt>
      <trkpt lat="43.11029" lon="0.94071">
        <ele>351.60000610352</ele>
        <time>2025-08-08T09:29:29.000Z</time>
      </trkpt>
      <trkpt lat="43.11032" lon="0.94061">
        <ele>351.39999389648</ele>
        <time>2025-08-08T09:29:30.000Z</time>
      </trkpt>
      <trkpt lat="43.11041" lon="0.94018">
        <ele>350.20001220703</ele>
        <time>2025-08-08T09:29:34.000Z</time>
      </trkpt>
      <trkpt lat="43.11049" lon="0.93991">
        <ele>349.79998779297</ele>
        <time>2025-08-08T09:29:37.000Z</time>
      </trkpt>
      <trkpt lat="43.11061" lon="0.93953">
        <ele>349</ele>
        <time>2025-08-08T09:29:41.000Z</time>
      </trkpt>
      <trkpt lat="43.11068" lon="0.93933">
        <ele>348.79998779297</ele>
        <time>2025-08-08T09:29:43.000Z</time>
      </trkpt>
      <trkpt lat="43.1109" lon="0.93884">
        <ele>348</ele>
        <time>2025-08-08T09:29:49.000Z</time>
      </trkpt>
      <trkpt lat="43.11098" lon="0.93869">
        <ele>347.60000610352</ele>
        <time>2025-08-08T09:29:51.000Z</time>
      </trkpt>
      <trkpt lat="43.11109" lon="0.93847">
        <ele>346.79998779297</ele>
        <time>2025-08-08T09:29:54.000Z</time>
      </trkpt>
      <trkpt lat="43.11114" lon="0.93838">
        <ele>346.60000610352</ele>
        <time>2025-08-08T09:29:55.000Z</time>
      </trkpt>
      <trkpt lat="43.11136" lon="0.93798">
        <ele>346</ele>
        <time>2025-08-08T09:30:01.000Z</time>
      </trkpt>
      <trkpt lat="43.11139" lon="0.93791">
        <ele>345.79998779297</ele>
        <time>2025-08-08T09:30:02.000Z</time>
      </trkpt>
      <trkpt lat="43.11159" lon="0.93748">
        <ele>344.79998779297</ele>
        <time>2025-08-08T09:30:09.000Z</time>
      </trkpt>
      <trkpt lat="43.11169" lon="0.93724">
        <ele>344.39999389648</ele>
        <time>2025-08-08T09:30:14.000Z</time>
      </trkpt>
      <trkpt lat="43.11184" lon="0.93684">
        <ele>344</ele>
        <time>2025-08-08T09:30:21.000Z</time>
      </trkpt>
      <trkpt lat="43.11189" lon="0.93672">
        <ele>343.79998779297</ele>
        <time>2025-08-08T09:30:23.000Z</time>
      </trkpt>
      <trkpt lat="43.11194" lon="0.9366">
        <ele>343.79998779297</ele>
        <time>2025-08-08T09:30:25.000Z</time>
      </trkpt>
      <trkpt lat="43.11196" lon="0.93656">
        <ele>343.60000610352</ele>
        <time>2025-08-08T09:30:26.000Z</time>
      </trkpt>
      <trkpt lat="43.11205" lon="0.93637">
        <ele>343.60000610352</ele>
        <time>2025-08-08T09:30:29.000Z</time>
      </trkpt>
      <trkpt lat="43.11217" lon="0.93613">
        <ele>343.20001220703</ele>
        <time>2025-08-08T09:30:33.000Z</time>
      </trkpt>
      <trkpt lat="43.11219" lon="0.93606">
        <ele>343.20001220703</ele>
        <time>2025-08-08T09:30:34.000Z</time>
      </trkpt>
      <trkpt lat="43.11221" lon="0.9359">
        <ele>343</ele>
        <time>2025-08-08T09:30:36.000Z</time>
      </trkpt>
      <trkpt lat="43.1122" lon="0.9358">
        <ele>343</ele>
        <time>2025-08-08T09:30:37.000Z</time>
      </trkpt>
      <trkpt lat="43.11217" lon="0.93565">
        <ele>342.60000610352</ele>
        <time>2025-08-08T09:30:39.000Z</time>
      </trkpt>
      <trkpt lat="43.11215" lon="0.93555">
        <ele>342.20001220703</ele>
        <time>2025-08-08T09:30:40.000Z</time>
      </trkpt>
      <trkpt lat="43.11213" lon="0.93547">
        <ele>342.20001220703</ele>
        <time>2025-08-08T09:30:41.000Z</time>
      </trkpt>
      <trkpt lat="43.11209" lon="0.93529">
        <ele>341.39999389648</ele>
        <time>2025-08-08T09:30:43.000Z</time>
      </trkpt>
      <trkpt lat="43.11207" lon="0.93517">
        <ele>341.20001220703</ele>
        <time>2025-08-08T09:30:44.000Z</time>
      </trkpt>
      <trkpt lat="43.11206" lon="0.93498">
        <ele>340.20001220703</ele>
        <time>2025-08-08T09:30:46.000Z</time>
      </trkpt>
      <trkpt lat="43.1121" lon="0.9348">
        <ele>339.60000610352</ele>
        <time>2025-08-08T09:30:48.000Z</time>
      </trkpt>
      <trkpt lat="43.11214" lon="0.93471">
        <ele>339</ele>
        <time>2025-08-08T09:30:49.000Z</time>
      </trkpt>
      <trkpt lat="43.11226" lon="0.93447">
        <ele>338.20001220703</ele>
        <time>2025-08-08T09:30:52.000Z</time>
      </trkpt>
      <trkpt lat="43.1123" lon="0.9344">
        <ele>337.79998779297</ele>
        <time>2025-08-08T09:30:53.000Z</time>
      </trkpt>
      <trkpt lat="43.1124" lon="0.93428">
        <ele>337.39999389648</ele>
        <time>2025-08-08T09:30:55.000Z</time>
      </trkpt>
      <trkpt lat="43.11248" lon="0.93417">
        <ele>336.79998779297</ele>
        <time>2025-08-08T09:30:57.000Z</time>
      </trkpt>
      <trkpt lat="43.11254" lon="0.9341">
        <ele>336.79998779297</ele>
        <time>2025-08-08T09:30:58.000Z</time>
      </trkpt>
      <trkpt lat="43.11264" lon="0.93404">
        <ele>336.60000610352</ele>
        <time>2025-08-08T09:31:00.000Z</time>
      </trkpt>
      <trkpt lat="43.11271" lon="0.934">
        <ele>336.39999389648</ele>
        <time>2025-08-08T09:31:01.000Z</time>
      </trkpt>
      <trkpt lat="43.11277" lon="0.93389">
        <ele>336.20001220703</ele>
        <time>2025-08-08T09:31:03.000Z</time>
      </trkpt>
      <trkpt lat="43.11279" lon="0.93375">
        <ele>336</ele>
        <time>2025-08-08T09:31:05.000Z</time>
      </trkpt>
      <trkpt lat="43.11278" lon="0.93367">
        <ele>336</ele>
        <time>2025-08-08T09:31:06.000Z</time>
      </trkpt>
      <trkpt lat="43.11274" lon="0.93352">
        <ele>336</ele>
        <time>2025-08-08T09:31:08.000Z</time>
      </trkpt>
      <trkpt lat="43.11276" lon="0.93335">
        <ele>336</ele>
        <time>2025-08-08T09:31:10.000Z</time>
      </trkpt>
      <trkpt lat="43.11281" lon="0.93301">
        <ele>336.20001220703</ele>
        <time>2025-08-08T09:31:15.000Z</time>
      </trkpt>
      <trkpt lat="43.11283" lon="0.9329">
        <ele>336.39999389648</ele>
        <time>2025-08-08T09:31:17.000Z</time>
      </trkpt>
      <trkpt lat="43.11291" lon="0.93263">
        <ele>337.20001220703</ele>
        <time>2025-08-08T09:31:22.000Z</time>
      </trkpt>
      <trkpt lat="43.1131" lon="0.93241">
        <ele>337.60000610352</ele>
        <time>2025-08-08T09:31:29.000Z</time>
      </trkpt>
      <trkpt lat="43.11332" lon="0.93219">
        <ele>337.60000610352</ele>
        <time>2025-08-08T09:31:36.000Z</time>
      </trkpt>
      <trkpt lat="43.11342" lon="0.93208">
        <ele>337.39999389648</ele>
        <time>2025-08-08T09:31:39.000Z</time>
      </trkpt>
      <trkpt lat="43.11353" lon="0.93196">
        <ele>337.39999389648</ele>
        <time>2025-08-08T09:31:42.000Z</time>
      </trkpt>
      <trkpt lat="43.11375" lon="0.93167">
        <ele>337.39999389648</ele>
        <time>2025-08-08T09:31:49.000Z</time>
      </trkpt>
      <trkpt lat="43.1139" lon="0.9315">
        <ele>337.20001220703</ele>
        <time>2025-08-08T09:31:53.000Z</time>
      </trkpt>
      <trkpt lat="43.11398" lon="0.93142">
        <ele>337.20001220703</ele>
        <time>2025-08-08T09:31:55.000Z</time>
      </trkpt>
      <trkpt lat="43.11401" lon="0.93139">
        <ele>337</ele>
        <time>2025-08-08T09:31:56.000Z</time>
      </trkpt>
      <trkpt lat="43.11413" lon="0.93129">
        <ele>336.60000610352</ele>
        <time>2025-08-08T09:31:59.000Z</time>
      </trkpt>
      <trkpt lat="43.11426" lon="0.93118">
        <ele>336.39999389648</ele>
        <time>2025-08-08T09:32:02.000Z</time>
      </trkpt>
      <trkpt lat="43.1145" lon="0.93098">
        <ele>335.60000610352</ele>
        <time>2025-08-08T09:32:07.000Z</time>
      </trkpt>
      <trkpt lat="43.11459" lon="0.9309">
        <ele>335.39999389648</ele>
        <time>2025-08-08T09:32:09.000Z</time>
      </trkpt>
      <trkpt lat="43.11495" lon="0.93057">
        <ele>334.79998779297</ele>
        <time>2025-08-08T09:32:17.000Z</time>
      </trkpt>
      <trkpt lat="43.11505" lon="0.93044">
        <ele>334.60000610352</ele>
        <time>2025-08-08T09:32:20.000Z</time>
      </trkpt>
      <trkpt lat="43.11507" lon="0.93039">
        <ele>334.60000610352</ele>
        <time>2025-08-08T09:32:21.000Z</time>
      </trkpt>
      <trkpt lat="43.11509" lon="0.93036">
        <ele>334.39999389648</ele>
        <time>2025-08-08T09:32:22.000Z</time>
      </trkpt>
      <trkpt lat="43.11513" lon="0.9303">
        <ele>334.20001220703</ele>
        <time>2025-08-08T09:32:26.000Z</time>
      </trkpt>
      <trkpt lat="43.11518" lon="0.93017">
        <ele>333.60000610352</ele>
        <time>2025-08-08T09:32:31.000Z</time>
      </trkpt>
      <trkpt lat="43.11519" lon="0.93012">
        <ele>333.60000610352</ele>
        <time>2025-08-08T09:32:32.000Z</time>
      </trkpt>
      <trkpt lat="43.11525" lon="0.92987">
        <ele>333.20001220703</ele>
        <time>2025-08-08T09:32:37.000Z</time>
      </trkpt>
      <trkpt lat="43.1153" lon="0.9295">
        <ele>332.60000610352</ele>
        <time>2025-08-08T09:32:43.000Z</time>
      </trkpt>
      <trkpt lat="43.11532" lon="0.92943">
        <ele>332.39999389648</ele>
        <time>2025-08-08T09:32:44.000Z</time>
      </trkpt>
      <trkpt lat="43.11537" lon="0.92922">
        <ele>331.79998779297</ele>
        <time>2025-08-08T09:32:47.000Z</time>
      </trkpt>
      <trkpt lat="43.11542" lon="0.92907">
        <ele>331.39999389648</ele>
        <time>2025-08-08T09:32:49.000Z</time>
      </trkpt>
      <trkpt lat="43.11545" lon="0.929">
        <ele>331.20001220703</ele>
        <time>2025-08-08T09:32:50.000Z</time>
      </trkpt>
      <trkpt lat="43.1156" lon="0.92876">
        <ele>330.20001220703</ele>
        <time>2025-08-08T09:32:54.000Z</time>
      </trkpt>
      <trkpt lat="43.11564" lon="0.9287">
        <ele>330.20001220703</ele>
        <time>2025-08-08T09:32:55.000Z</time>
      </trkpt>
      <trkpt lat="43.11585" lon="0.92841">
        <ele>328.79998779297</ele>
        <time>2025-08-08T09:33:00.000Z</time>
      </trkpt>
      <trkpt lat="43.11593" lon="0.92828">
        <ele>328.60000610352</ele>
        <time>2025-08-08T09:33:02.000Z</time>
      </trkpt>
      <trkpt lat="43.11601" lon="0.92814">
        <ele>328</ele>
        <time>2025-08-08T09:33:04.000Z</time>
      </trkpt>
      <trkpt lat="43.11604" lon="0.92806">
        <ele>327.79998779297</ele>
        <time>2025-08-08T09:33:05.000Z</time>
      </trkpt>
      <trkpt lat="43.11609" lon="0.92789">
        <ele>327.39999389648</ele>
        <time>2025-08-08T09:33:07.000Z</time>
      </trkpt>
      <trkpt lat="43.11613" lon="0.92762">
        <ele>327</ele>
        <time>2025-08-08T09:33:10.000Z</time>
      </trkpt>
      <trkpt lat="43.11614" lon="0.92744">
        <ele>326.60000610352</ele>
        <time>2025-08-08T09:33:12.000Z</time>
      </trkpt>
      <trkpt lat="43.11616" lon="0.92696">
        <ele>325.39999389648</ele>
        <time>2025-08-08T09:33:17.000Z</time>
      </trkpt>
      <trkpt lat="43.11616" lon="0.92687">
        <ele>325.20001220703</ele>
        <time>2025-08-08T09:33:18.000Z</time>
      </trkpt>
      <trkpt lat="43.11615" lon="0.92677">
        <ele>325</ele>
        <time>2025-08-08T09:33:19.000Z</time>
      </trkpt>
      <trkpt lat="43.11613" lon="0.92668">
        <ele>324.79998779297</ele>
        <time>2025-08-08T09:33:20.000Z</time>
      </trkpt>
      <trkpt lat="43.11606" lon="0.92651">
        <ele>324.39999389648</ele>
        <time>2025-08-08T09:33:22.000Z</time>
      </trkpt>
      <trkpt lat="43.11601" lon="0.92643">
        <ele>324.20001220703</ele>
        <time>2025-08-08T09:33:23.000Z</time>
      </trkpt>
      <trkpt lat="43.11596" lon="0.92637">
        <ele>323.79998779297</ele>
        <time>2025-08-08T09:33:24.000Z</time>
      </trkpt>
      <trkpt lat="43.11583" lon="0.92626">
        <ele>323.39999389648</ele>
        <time>2025-08-08T09:33:26.000Z</time>
      </trkpt>
      <trkpt lat="43.11578" lon="0.92623">
        <ele>323</ele>
        <time>2025-08-08T09:33:27.000Z</time>
      </trkpt>
      <trkpt lat="43.11543" lon="0.92606">
        <ele>322</ele>
        <time>2025-08-08T09:33:32.000Z</time>
      </trkpt>
      <trkpt lat="43.11536" lon="0.92604">
        <ele>322</ele>
        <time>2025-08-08T09:33:33.000Z</time>
      </trkpt>
      <trkpt lat="43.11522" lon="0.92602">
        <ele>321.79998779297</ele>
        <time>2025-08-08T09:33:35.000Z</time>
      </trkpt>
      <trkpt lat="43.11497" lon="0.92599">
        <ele>321.39999389648</ele>
        <time>2025-08-08T09:33:38.000Z</time>
      </trkpt>
      <trkpt lat="43.11475" lon="0.92597">
        <ele>320.79998779297</ele>
        <time>2025-08-08T09:33:41.000Z</time>
      </trkpt>
      <trkpt lat="43.11449" lon="0.92592">
        <ele>319.79998779297</ele>
        <time>2025-08-08T09:33:44.000Z</time>
      </trkpt>
      <trkpt lat="43.11443" lon="0.92589">
        <ele>319.39999389648</ele>
        <time>2025-08-08T09:33:45.000Z</time>
      </trkpt>
      <trkpt lat="43.11421" lon="0.92577">
        <ele>318.39999389648</ele>
        <time>2025-08-08T09:33:48.000Z</time>
      </trkpt>
      <trkpt lat="43.11407" lon="0.92567">
        <ele>317.60000610352</ele>
        <time>2025-08-08T09:33:50.000Z</time>
      </trkpt>
      <trkpt lat="43.11394" lon="0.92556">
        <ele>317.20001220703</ele>
        <time>2025-08-08T09:33:52.000Z</time>
      </trkpt>
      <trkpt lat="43.11382" lon="0.92543">
        <ele>316.39999389648</ele>
        <time>2025-08-08T09:33:54.000Z</time>
      </trkpt>
      <trkpt lat="43.11377" lon="0.92536">
        <ele>316.20001220703</ele>
        <time>2025-08-08T09:33:55.000Z</time>
      </trkpt>
      <trkpt lat="43.11372" lon="0.92528">
        <ele>316</ele>
        <time>2025-08-08T09:33:56.000Z</time>
      </trkpt>
      <trkpt lat="43.11367" lon="0.92521">
        <ele>315.60000610352</ele>
        <time>2025-08-08T09:33:57.000Z</time>
      </trkpt>
      <trkpt lat="43.11357" lon="0.92502">
        <ele>315</ele>
        <time>2025-08-08T09:33:59.000Z</time>
      </trkpt>
      <trkpt lat="43.11353" lon="0.92494">
        <ele>314.79998779297</ele>
        <time>2025-08-08T09:34:00.000Z</time>
      </trkpt>
      <trkpt lat="43.11345" lon="0.92474">
        <ele>313.79998779297</ele>
        <time>2025-08-08T09:34:02.000Z</time>
      </trkpt>
      <trkpt lat="43.11329" lon="0.92426">
        <ele>312.79998779297</ele>
        <time>2025-08-08T09:34:07.000Z</time>
      </trkpt>
      <trkpt lat="43.11317" lon="0.92386">
        <ele>311.60000610352</ele>
        <time>2025-08-08T09:34:11.000Z</time>
      </trkpt>
      <trkpt lat="43.11306" lon="0.92346">
        <ele>310.60000610352</ele>
        <time>2025-08-08T09:34:15.000Z</time>
      </trkpt>
      <trkpt lat="43.11303" lon="0.92336">
        <ele>310</ele>
        <time>2025-08-08T09:34:16.000Z</time>
      </trkpt>
      <trkpt lat="43.11302" lon="0.92325">
        <ele>309.79998779297</ele>
        <time>2025-08-08T09:34:17.000Z</time>
      </trkpt>
      <trkpt lat="43.11301" lon="0.92313">
        <ele>309.60000610352</ele>
        <time>2025-08-08T09:34:18.000Z</time>
      </trkpt>
      <trkpt lat="43.11301" lon="0.92302">
        <ele>309.39999389648</ele>
        <time>2025-08-08T09:34:19.000Z</time>
      </trkpt>
      <trkpt lat="43.11302" lon="0.9229">
        <ele>309</ele>
        <time>2025-08-08T09:34:20.000Z</time>
      </trkpt>
      <trkpt lat="43.11304" lon="0.92279">
        <ele>308.79998779297</ele>
        <time>2025-08-08T09:34:21.000Z</time>
      </trkpt>
      <trkpt lat="43.11307" lon="0.92268">
        <ele>308.39999389648</ele>
        <time>2025-08-08T09:34:22.000Z</time>
      </trkpt>
      <trkpt lat="43.1131" lon="0.92258">
        <ele>308</ele>
        <time>2025-08-08T09:34:23.000Z</time>
      </trkpt>
      <trkpt lat="43.11315" lon="0.9225">
        <ele>307.79998779297</ele>
        <time>2025-08-08T09:34:24.000Z</time>
      </trkpt>
      <trkpt lat="43.11325" lon="0.92234">
        <ele>307.39999389648</ele>
        <time>2025-08-08T09:34:26.000Z</time>
      </trkpt>
      <trkpt lat="43.11338" lon="0.92211">
        <ele>306.39999389648</ele>
        <time>2025-08-08T09:34:29.000Z</time>
      </trkpt>
      <trkpt lat="43.11347" lon="0.92195">
        <ele>305.79998779297</ele>
        <time>2025-08-08T09:34:31.000Z</time>
      </trkpt>
      <trkpt lat="43.11352" lon="0.92177">
        <ele>305.20001220703</ele>
        <time>2025-08-08T09:34:33.000Z</time>
      </trkpt>
      <trkpt lat="43.11354" lon="0.92158">
        <ele>304.79998779297</ele>
        <time>2025-08-08T09:34:35.000Z</time>
      </trkpt>
      <trkpt lat="43.11353" lon="0.92139">
        <ele>304.39999389648</ele>
        <time>2025-08-08T09:34:37.000Z</time>
      </trkpt>
      <trkpt lat="43.1135" lon="0.92121">
        <ele>304</ele>
        <time>2025-08-08T09:34:39.000Z</time>
      </trkpt>
      <trkpt lat="43.11344" lon="0.92104">
        <ele>303.60000610352</ele>
        <time>2025-08-08T09:34:41.000Z</time>
      </trkpt>
      <trkpt lat="43.11336" lon="0.92089">
        <ele>303.20001220703</ele>
        <time>2025-08-08T09:34:43.000Z</time>
      </trkpt>
      <trkpt lat="43.11331" lon="0.92083">
        <ele>303</ele>
        <time>2025-08-08T09:34:44.000Z</time>
      </trkpt>
      <trkpt lat="43.11326" lon="0.92076">
        <ele>302.79998779297</ele>
        <time>2025-08-08T09:34:45.000Z</time>
      </trkpt>
      <trkpt lat="43.11308" lon="0.92055">
        <ele>302</ele>
        <time>2025-08-08T09:34:48.000Z</time>
      </trkpt>
      <trkpt lat="43.11304" lon="0.92048">
        <ele>301.79998779297</ele>
        <time>2025-08-08T09:34:49.000Z</time>
      </trkpt>
      <trkpt lat="43.11299" lon="0.92039">
        <ele>301.60000610352</ele>
        <time>2025-08-08T09:34:50.000Z</time>
      </trkpt>
      <trkpt lat="43.1129" lon="0.92012">
        <ele>301.20001220703</ele>
        <time>2025-08-08T09:34:53.000Z</time>
      </trkpt>
      <trkpt lat="43.11289" lon="0.92002">
        <ele>301.20001220703</ele>
        <time>2025-08-08T09:34:54.000Z</time>
      </trkpt>
      <trkpt lat="43.1129" lon="0.91994">
        <ele>301.20001220703</ele>
        <time>2025-08-08T09:34:55.000Z</time>
      </trkpt>
      <trkpt lat="43.11295" lon="0.91974">
        <ele>301</ele>
        <time>2025-08-08T09:34:57.000Z</time>
      </trkpt>
      <trkpt lat="43.11302" lon="0.91959">
        <ele>300.60000610352</ele>
        <time>2025-08-08T09:34:59.000Z</time>
      </trkpt>
      <trkpt lat="43.11317" lon="0.91925">
        <ele>299.39999389648</ele>
        <time>2025-08-08T09:35:03.000Z</time>
      </trkpt>
      <trkpt lat="43.1132" lon="0.91919">
        <ele>299.39999389648</ele>
        <time>2025-08-08T09:35:04.000Z</time>
      </trkpt>
      <trkpt lat="43.11334" lon="0.91888">
        <ele>299.20001220703</ele>
        <time>2025-08-08T09:35:09.000Z</time>
      </trkpt>
      <trkpt lat="43.11354" lon="0.91844">
        <ele>299</ele>
        <time>2025-08-08T09:35:17.000Z</time>
      </trkpt>
      <trkpt lat="43.11371" lon="0.91813">
        <ele>299</ele>
        <time>2025-08-08T09:35:23.000Z</time>
      </trkpt>
      <trkpt lat="43.11375" lon="0.91808">
        <ele>298.79998779297</ele>
        <time>2025-08-08T09:35:24.000Z</time>
      </trkpt>
      <trkpt lat="43.11394" lon="0.91787">
        <ele>298.39999389648</ele>
        <time>2025-08-08T09:35:29.000Z</time>
      </trkpt>
      <trkpt lat="43.11401" lon="0.91779">
        <ele>298.20001220703</ele>
        <time>2025-08-08T09:35:31.000Z</time>
      </trkpt>
      <trkpt lat="43.11438" lon="0.91735">
        <ele>297.39999389648</ele>
        <time>2025-08-08T09:35:41.000Z</time>
      </trkpt>
      <trkpt lat="43.11451" lon="0.91712">
        <ele>297.39999389648</ele>
        <time>2025-08-08T09:35:46.000Z</time>
      </trkpt>
      <trkpt lat="43.11456" lon="0.91701">
        <ele>297.39999389648</ele>
        <time>2025-08-08T09:35:48.000Z</time>
      </trkpt>
      <trkpt lat="43.1147" lon="0.91658">
        <ele>297.60000610352</ele>
        <time>2025-08-08T09:35:56.000Z</time>
      </trkpt>
      <trkpt lat="43.11474" lon="0.91647">
        <ele>297.39999389648</ele>
        <time>2025-08-08T09:35:58.000Z</time>
      </trkpt>
      <trkpt lat="43.11476" lon="0.91642">
        <ele>297.20001220703</ele>
        <time>2025-08-08T09:35:59.000Z</time>
      </trkpt>
      <trkpt lat="43.11487" lon="0.91615">
        <ele>296.60000610352</ele>
        <time>2025-08-08T09:36:04.000Z</time>
      </trkpt>
      <trkpt lat="43.11501" lon="0.91575">
        <ele>296.39999389648</ele>
        <time>2025-08-08T09:36:11.000Z</time>
      </trkpt>
      <trkpt lat="43.11504" lon="0.91569">
        <ele>296.20001220703</ele>
        <time>2025-08-08T09:36:12.000Z</time>
      </trkpt>
      <trkpt lat="43.11509" lon="0.91558">
        <ele>296.39999389648</ele>
        <time>2025-08-08T09:36:14.000Z</time>
      </trkpt>
      <trkpt lat="43.11516" lon="0.91549">
        <ele>296.20001220703</ele>
        <time>2025-08-08T09:36:16.000Z</time>
      </trkpt>
      <trkpt lat="43.11523" lon="0.91541">
        <ele>296.20001220703</ele>
        <time>2025-08-08T09:36:18.000Z</time>
      </trkpt>
      <trkpt lat="43.11535" lon="0.91533">
        <ele>296.20001220703</ele>
        <time>2025-08-08T09:36:21.000Z</time>
      </trkpt>
      <trkpt lat="43.11539" lon="0.91531">
        <ele>296.39999389648</ele>
        <time>2025-08-08T09:36:22.000Z</time>
      </trkpt>
      <trkpt lat="43.11548" lon="0.91528">
        <ele>296.39999389648</ele>
        <time>2025-08-08T09:36:24.000Z</time>
      </trkpt>
      <trkpt lat="43.11565" lon="0.91524">
        <ele>296.60000610352</ele>
        <time>2025-08-08T09:36:28.000Z</time>
      </trkpt>
      <trkpt lat="43.11601" lon="0.91515">
        <ele>296.60000610352</ele>
        <time>2025-08-08T09:36:36.000Z</time>
      </trkpt>
      <trkpt lat="43.11605" lon="0.91514">
        <ele>296.60000610352</ele>
        <time>2025-08-08T09:36:37.000Z</time>
      </trkpt>
      <trkpt lat="43.11622" lon="0.91511">
        <ele>296.60000610352</ele>
        <time>2025-08-08T09:36:41.000Z</time>
      </trkpt>
      <trkpt lat="43.11625" lon="0.9151">
        <ele>296.60000610352</ele>
        <time>2025-08-08T09:36:42.000Z</time>
      </trkpt>
      <trkpt lat="43.11638" lon="0.91506">
        <ele>296.60000610352</ele>
        <time>2025-08-08T09:36:46.000Z</time>
      </trkpt>
      <trkpt lat="43.11672" lon="0.91496">
        <ele>297</ele>
        <time>2025-08-08T09:36:54.000Z</time>
      </trkpt>
      <trkpt lat="43.11703" lon="0.91485">
        <ele>297.39999389648</ele>
        <time>2025-08-08T09:37:02.000Z</time>
      </trkpt>
      <trkpt lat="43.11715" lon="0.91479">
        <ele>297.39999389648</ele>
        <time>2025-08-08T09:37:05.000Z</time>
      </trkpt>
      <trkpt lat="43.11727" lon="0.91468">
        <ele>298</ele>
        <time>2025-08-08T09:37:09.000Z</time>
      </trkpt>
      <trkpt lat="43.11735" lon="0.91459">
        <ele>298.60000610352</ele>
        <time>2025-08-08T09:37:12.000Z</time>
      </trkpt>
      <trkpt lat="43.11744" lon="0.9145">
        <ele>299</ele>
        <time>2025-08-08T09:37:15.000Z</time>
      </trkpt>
      <trkpt lat="43.11763" lon="0.91427">
        <ele>299.60000610352</ele>
        <time>2025-08-08T09:37:22.000Z</time>
      </trkpt>
      <trkpt lat="43.11777" lon="0.91411">
        <ele>299.79998779297</ele>
        <time>2025-08-08T09:37:27.000Z</time>
      </trkpt>
      <trkpt lat="43.11805" lon="0.9138">
        <ele>300.20001220703</ele>
        <time>2025-08-08T09:37:37.000Z</time>
      </trkpt>
      <trkpt lat="43.11819" lon="0.91365">
        <ele>300.60000610352</ele>
        <time>2025-08-08T09:37:42.000Z</time>
      </trkpt>
      <trkpt lat="43.11833" lon="0.9135">
        <ele>300.79998779297</ele>
        <time>2025-08-08T09:37:47.000Z</time>
      </trkpt>
      <trkpt lat="43.11857" lon="0.91323">
        <ele>301</ele>
        <time>2025-08-08T09:37:56.000Z</time>
      </trkpt>
      <trkpt lat="43.11869" lon="0.91308">
        <ele>301.20001220703</ele>
        <time>2025-08-08T09:38:02.000Z</time>
      </trkpt>
      <trkpt lat="43.11882" lon="0.91293">
        <ele>301.39999389648</ele>
        <time>2025-08-08T09:38:08.000Z</time>
      </trkpt>
      <trkpt lat="43.11885" lon="0.91289">
        <ele>301.20001220703</ele>
        <time>2025-08-08T09:38:09.000Z</time>
      </trkpt>
      <trkpt lat="43.11898" lon="0.91271">
        <ele>301.20001220703</ele>
        <time>2025-08-08T09:38:13.000Z</time>
      </trkpt>
      <trkpt lat="43.11904" lon="0.91263">
        <ele>301</ele>
        <time>2025-08-08T09:38:15.000Z</time>
      </trkpt>
      <trkpt lat="43.11916" lon="0.91255">
        <ele>300.60000610352</ele>
        <time>2025-08-08T09:38:18.000Z</time>
      </trkpt>
      <trkpt lat="43.1192" lon="0.91253">
        <ele>300.60000610352</ele>
        <time>2025-08-08T09:38:19.000Z</time>
      </trkpt>
      <trkpt lat="43.1194" lon="0.91246">
        <ele>300.39999389648</ele>
        <time>2025-08-08T09:38:24.000Z</time>
      </trkpt>
      <trkpt lat="43.11966" lon="0.91233">
        <ele>300</ele>
        <time>2025-08-08T09:38:31.000Z</time>
      </trkpt>
      <trkpt lat="43.11986" lon="0.91219">
        <ele>300</ele>
        <time>2025-08-08T09:38:37.000Z</time>
      </trkpt>
      <trkpt lat="43.12005" lon="0.91209">
        <ele>300.20001220703</ele>
        <time>2025-08-08T09:38:44.000Z</time>
      </trkpt>
      <trkpt lat="43.12008" lon="0.91207">
        <ele>300.20001220703</ele>
        <time>2025-08-08T09:38:45.000Z</time>
      </trkpt>
      <trkpt lat="43.1201" lon="0.91202">
        <ele>300.20001220703</ele>
        <time>2025-08-08T09:38:47.000Z</time>
      </trkpt>
      <trkpt lat="43.12007" lon="0.9118">
        <ele>300</ele>
        <time>2025-08-08T09:38:52.000Z</time>
      </trkpt>
      <trkpt lat="43.12001" lon="0.91153">
        <ele>299.79998779297</ele>
        <time>2025-08-08T09:38:58.000Z</time>
      </trkpt>
      <trkpt lat="43.11995" lon="0.91123">
        <ele>300</ele>
        <time>2025-08-08T09:39:05.000Z</time>
      </trkpt>
      <trkpt lat="43.11984" lon="0.91084">
        <ele>300.39999389648</ele>
        <time>2025-08-08T09:39:13.000Z</time>
      </trkpt>
      <trkpt lat="43.11975" lon="0.91055">
        <ele>300.60000610352</ele>
        <time>2025-08-08T09:39:19.000Z</time>
      </trkpt>
      <trkpt lat="43.11967" lon="0.91018">
        <ele>300.60000610352</ele>
        <time>2025-08-08T09:39:27.000Z</time>
      </trkpt>
      <trkpt lat="43.11964" lon="0.90992">
        <ele>301</ele>
        <time>2025-08-08T09:39:33.000Z</time>
      </trkpt>
      <trkpt lat="43.11961" lon="0.90982">
        <ele>301</ele>
        <time>2025-08-08T09:39:35.000Z</time>
      </trkpt>
      <trkpt lat="43.11955" lon="0.9097">
        <ele>301.20001220703</ele>
        <time>2025-08-08T09:39:38.000Z</time>
      </trkpt>
      <trkpt lat="43.11938" lon="0.90945">
        <ele>301.60000610352</ele>
        <time>2025-08-08T09:39:45.000Z</time>
      </trkpt>
      <trkpt lat="43.11932" lon="0.90937">
        <ele>301.60000610352</ele>
        <time>2025-08-08T09:39:47.000Z</time>
      </trkpt>
      <trkpt lat="43.1192" lon="0.90925">
        <ele>301.60000610352</ele>
        <time>2025-08-08T09:39:51.000Z</time>
      </trkpt>
      <trkpt lat="43.11899" lon="0.909">
        <ele>301.79998779297</ele>
        <time>2025-08-08T09:39:58.000Z</time>
      </trkpt>
      <trkpt lat="43.11878" lon="0.90876">
        <ele>302</ele>
        <time>2025-08-08T09:40:05.000Z</time>
      </trkpt>
      <trkpt lat="43.11857" lon="0.90849">
        <ele>302.60000610352</ele>
        <time>2025-08-08T09:40:13.000Z</time>
      </trkpt>
      <trkpt lat="43.11833" lon="0.90818">
        <ele>303</ele>
        <time>2025-08-08T09:40:22.000Z</time>
      </trkpt>
      <trkpt lat="43.11814" lon="0.90796">
        <ele>303.20001220703</ele>
        <time>2025-08-08T09:40:29.000Z</time>
      </trkpt>
      <trkpt lat="43.11803" lon="0.90785">
        <ele>303.60000610352</ele>
        <time>2025-08-08T09:40:33.000Z</time>
      </trkpt>
      <trkpt lat="43.11791" lon="0.90772">
        <ele>303.79998779297</ele>
        <time>2025-08-08T09:40:37.000Z</time>
      </trkpt>
      <trkpt lat="43.1177" lon="0.90739">
        <ele>303.79998779297</ele>
        <time>2025-08-08T09:40:45.000Z</time>
      </trkpt>
      <trkpt lat="43.1175" lon="0.90701">
        <ele>304</ele>
        <time>2025-08-08T09:40:54.000Z</time>
      </trkpt>
      <trkpt lat="43.11727" lon="0.90654">
        <ele>304.39999389648</ele>
        <time>2025-08-08T09:41:05.000Z</time>
      </trkpt>
      <trkpt lat="43.11711" lon="0.90623">
        <ele>304.60000610352</ele>
        <time>2025-08-08T09:41:12.000Z</time>
      </trkpt>
      <trkpt lat="43.11692" lon="0.90584">
        <ele>304.79998779297</ele>
        <time>2025-08-08T09:41:21.000Z</time>
      </trkpt>
      <trkpt lat="43.11683" lon="0.90567">
        <ele>305</ele>
        <time>2025-08-08T09:41:26.000Z</time>
      </trkpt>
      <trkpt lat="43.11682" lon="0.90563">
        <ele>305</ele>
        <time>2025-08-08T09:41:27.000Z</time>
      </trkpt>
      <trkpt lat="43.11668" lon="0.90546">
        <ele>305</ele>
        <time>2025-08-08T09:41:30.000Z</time>
      </trkpt>
      <trkpt lat="43.11651" lon="0.90504">
        <ele>304.79998779297</ele>
        <time>2025-08-08T09:41:38.000Z</time>
      </trkpt>
      <trkpt lat="43.11632" lon="0.9047">
        <ele>304.39999389648</ele>
        <time>2025-08-08T09:41:46.000Z</time>
      </trkpt>
      <trkpt lat="43.11612" lon="0.90443">
        <ele>304.39999389648</ele>
        <time>2025-08-08T09:41:54.000Z</time>
      </trkpt>
      <trkpt lat="43.11597" lon="0.90426">
        <ele>304.39999389648</ele>
        <time>2025-08-08T09:42:00.000Z</time>
      </trkpt>
      <trkpt lat="43.11579" lon="0.90404">
        <ele>304.39999389648</ele>
        <time>2025-08-08T09:42:07.000Z</time>
      </trkpt>
      <trkpt lat="43.11558" lon="0.90374">
        <ele>304.79998779297</ele>
        <time>2025-08-08T09:42:16.000Z</time>
      </trkpt>
      <trkpt lat="43.11545" lon="0.90343">
        <ele>305</ele>
        <time>2025-08-08T09:42:23.000Z</time>
      </trkpt>
      <trkpt lat="43.11535" lon="0.90304">
        <ele>305</ele>
        <time>2025-08-08T09:42:30.000Z</time>
      </trkpt>
      <trkpt lat="43.11519" lon="0.90238">
        <ele>305</ele>
        <time>2025-08-08T09:42:42.000Z</time>
      </trkpt>
      <trkpt lat="43.11508" lon="0.90192">
        <ele>305.60000610352</ele>
        <time>2025-08-08T09:42:51.000Z</time>
      </trkpt>
      <trkpt lat="43.11498" lon="0.90151">
        <ele>305.60000610352</ele>
        <time>2025-08-08T09:42:59.000Z</time>
      </trkpt>
      <trkpt lat="43.11486" lon="0.9011">
        <ele>305.20001220703</ele>
        <time>2025-08-08T09:43:07.000Z</time>
      </trkpt>
      <trkpt lat="43.11473" lon="0.90061">
        <ele>305.39999389648</ele>
        <time>2025-08-08T09:43:16.000Z</time>
      </trkpt>
      <trkpt lat="43.11457" lon="0.89998">
        <ele>305.39999389648</ele>
        <time>2025-08-08T09:43:27.000Z</time>
      </trkpt>
      <trkpt lat="43.11444" lon="0.89948">
        <ele>305.60000610352</ele>
        <time>2025-08-08T09:43:36.000Z</time>
      </trkpt>
      <trkpt lat="43.11443" lon="0.89944">
        <ele>305.60000610352</ele>
        <time>2025-08-08T09:43:37.000Z</time>
      </trkpt>
      <trkpt lat="43.11437" lon="0.8992">
        <ele>306</ele>
        <time>2025-08-08T09:43:42.000Z</time>
      </trkpt>
      <trkpt lat="43.11428" lon="0.89878">
        <ele>306.60000610352</ele>
        <time>2025-08-08T09:43:51.000Z</time>
      </trkpt>
      <trkpt lat="43.11422" lon="0.89858">
        <ele>307</ele>
        <time>2025-08-08T09:43:55.000Z</time>
      </trkpt>
      <trkpt lat="43.11419" lon="0.89843">
        <ele>307.20001220703</ele>
        <time>2025-08-08T09:43:58.000Z</time>
      </trkpt>
      <trkpt lat="43.11407" lon="0.89797">
        <ele>307.60000610352</ele>
        <time>2025-08-08T09:44:07.000Z</time>
      </trkpt>
      <trkpt lat="43.11393" lon="0.89745">
        <ele>307.60000610352</ele>
        <time>2025-08-08T09:44:17.000Z</time>
      </trkpt>
      <trkpt lat="43.11381" lon="0.89704">
        <ele>307.79998779297</ele>
        <time>2025-08-08T09:44:25.000Z</time>
      </trkpt>
      <trkpt lat="43.11372" lon="0.89676">
        <ele>308</ele>
        <time>2025-08-08T09:44:31.000Z</time>
      </trkpt>
      <trkpt lat="43.11368" lon="0.8966">
        <ele>308.20001220703</ele>
        <time>2025-08-08T09:44:34.000Z</time>
      </trkpt>
      <trkpt lat="43.11355" lon="0.89609">
        <ele>308.60000610352</ele>
        <time>2025-08-08T09:44:44.000Z</time>
      </trkpt>
      <trkpt lat="43.11352" lon="0.896">
        <ele>308.60000610352</ele>
        <time>2025-08-08T09:44:46.000Z</time>
      </trkpt>
      <trkpt lat="43.11346" lon="0.89577">
        <ele>308.60000610352</ele>
        <time>2025-08-08T09:44:50.000Z</time>
      </trkpt>
      <trkpt lat="43.11338" lon="0.89546">
        <ele>308.60000610352</ele>
        <time>2025-08-08T09:44:56.000Z</time>
      </trkpt>
      <trkpt lat="43.11334" lon="0.89531">
        <ele>308.60000610352</ele>
        <time>2025-08-08T09:44:59.000Z</time>
      </trkpt>
      <trkpt lat="43.11322" lon="0.89487">
        <ele>309</ele>
        <time>2025-08-08T09:45:08.000Z</time>
      </trkpt>
      <trkpt lat="43.11319" lon="0.89477">
        <ele>309</ele>
        <time>2025-08-08T09:45:10.000Z</time>
      </trkpt>
      <trkpt lat="43.11313" lon="0.89454">
        <ele>309.20001220703</ele>
        <time>2025-08-08T09:45:15.000Z</time>
      </trkpt>
      <trkpt lat="43.11305" lon="0.89426">
        <ele>309.20001220703</ele>
        <time>2025-08-08T09:45:21.000Z</time>
      </trkpt>
      <trkpt lat="43.11291" lon="0.89373">
        <ele>309.79998779297</ele>
        <time>2025-08-08T09:45:32.000Z</time>
      </trkpt>
      <trkpt lat="43.11283" lon="0.89343">
        <ele>310</ele>
        <time>2025-08-08T09:45:38.000Z</time>
      </trkpt>
      <trkpt lat="43.11281" lon="0.89338">
        <ele>310</ele>
        <time>2025-08-08T09:45:39.000Z</time>
      </trkpt>
      <trkpt lat="43.11266" lon="0.89284">
        <ele>310.20001220703</ele>
        <time>2025-08-08T09:45:49.000Z</time>
      </trkpt>
      <trkpt lat="43.11252" lon="0.89235">
        <ele>310.20001220703</ele>
        <time>2025-08-08T09:45:58.000Z</time>
      </trkpt>
      <trkpt lat="43.11238" lon="0.89185">
        <ele>310.20001220703</ele>
        <time>2025-08-08T09:46:07.000Z</time>
      </trkpt>
      <trkpt lat="43.11223" lon="0.8913">
        <ele>310</ele>
        <time>2025-08-08T09:46:17.000Z</time>
      </trkpt>
      <trkpt lat="43.11214" lon="0.89087">
        <ele>310.60000610352</ele>
        <time>2025-08-08T09:46:25.000Z</time>
      </trkpt>
      <trkpt lat="43.11214" lon="0.89077">
        <ele>310.60000610352</ele>
        <time>2025-08-08T09:46:27.000Z</time>
      </trkpt>
      <trkpt lat="43.11214" lon="0.89063">
        <ele>311</ele>
        <time>2025-08-08T09:46:30.000Z</time>
      </trkpt>
      <trkpt lat="43.1121" lon="0.89049">
        <ele>311.20001220703</ele>
        <time>2025-08-08T09:46:33.000Z</time>
      </trkpt>
      <trkpt lat="43.11206" lon="0.8904">
        <ele>311.39999389648</ele>
        <time>2025-08-08T09:46:35.000Z</time>
      </trkpt>
      <trkpt lat="43.11202" lon="0.8903">
        <ele>311.60000610352</ele>
        <time>2025-08-08T09:46:37.000Z</time>
      </trkpt>
      <trkpt lat="43.11189" lon="0.88997">
        <ele>311.79998779297</ele>
        <time>2025-08-08T09:46:44.000Z</time>
      </trkpt>
      <trkpt lat="43.11181" lon="0.88967">
        <ele>311.79998779297</ele>
        <time>2025-08-08T09:46:50.000Z</time>
      </trkpt>
      <trkpt lat="43.11168" lon="0.88917">
        <ele>311.79998779297</ele>
        <time>2025-08-08T09:47:00.000Z</time>
      </trkpt>
      <trkpt lat="43.11159" lon="0.88883">
        <ele>312</ele>
        <time>2025-08-08T09:47:07.000Z</time>
      </trkpt>
      <trkpt lat="43.11149" lon="0.88843">
        <ele>312.20001220703</ele>
        <time>2025-08-08T09:47:15.000Z</time>
      </trkpt>
      <trkpt lat="43.11144" lon="0.88827">
        <ele>312.20001220703</ele>
        <time>2025-08-08T09:47:18.000Z</time>
      </trkpt>
      <trkpt lat="43.11136" lon="0.88801">
        <ele>312.39999389648</ele>
        <time>2025-08-08T09:47:23.000Z</time>
      </trkpt>
      <trkpt lat="43.11123" lon="0.88753">
        <ele>312.39999389648</ele>
        <time>2025-08-08T09:47:32.000Z</time>
      </trkpt>
      <trkpt lat="43.11109" lon="0.88704">
        <ele>312.39999389648</ele>
        <time>2025-08-08T09:47:41.000Z</time>
      </trkpt>
      <trkpt lat="43.11107" lon="0.88693">
        <ele>312.39999389648</ele>
        <time>2025-08-08T09:47:43.000Z</time>
      </trkpt>
      <trkpt lat="43.11094" lon="0.8865">
        <ele>312.60000610352</ele>
        <time>2025-08-08T09:47:51.000Z</time>
      </trkpt>
      <trkpt lat="43.11087" lon="0.88604">
        <ele>312.79998779297</ele>
        <time>2025-08-08T09:47:59.000Z</time>
      </trkpt>
      <trkpt lat="43.11087" lon="0.88561">
        <ele>313.20001220703</ele>
        <time>2025-08-08T09:48:07.000Z</time>
      </trkpt>
      <trkpt lat="43.11086" lon="0.88556">
        <ele>313.39999389648</ele>
        <time>2025-08-08T09:48:08.000Z</time>
      </trkpt>
      <trkpt lat="43.11077" lon="0.88525">
        <ele>313.60000610352</ele>
        <time>2025-08-08T09:48:14.000Z</time>
      </trkpt>
      <trkpt lat="43.11061" lon="0.88491">
        <ele>313.79998779297</ele>
        <time>2025-08-08T09:48:21.000Z</time>
      </trkpt>
      <trkpt lat="43.11058" lon="0.88487">
        <ele>313.79998779297</ele>
        <time>2025-08-08T09:48:22.000Z</time>
      </trkpt>
      <trkpt lat="43.11042" lon="0.8846">
        <ele>313.79998779297</ele>
        <time>2025-08-08T09:48:28.000Z</time>
      </trkpt>
      <trkpt lat="43.11041" lon="0.88455">
        <ele>313.79998779297</ele>
        <time>2025-08-08T09:48:29.000Z</time>
      </trkpt>
      <trkpt lat="43.11023" lon="0.88395">
        <ele>313.79998779297</ele>
        <time>2025-08-08T09:48:40.000Z</time>
      </trkpt>
      <trkpt lat="43.11007" lon="0.8834">
        <ele>313.79998779297</ele>
        <time>2025-08-08T09:48:50.000Z</time>
      </trkpt>
      <trkpt lat="43.10993" lon="0.88282">
        <ele>313.60000610352</ele>
        <time>2025-08-08T09:49:00.000Z</time>
      </trkpt>
      <trkpt lat="43.1098" lon="0.8823">
        <ele>313.60000610352</ele>
        <time>2025-08-08T09:49:09.000Z</time>
      </trkpt>
      <trkpt lat="43.10966" lon="0.8818">
        <ele>313.79998779297</ele>
        <time>2025-08-08T09:49:18.000Z</time>
      </trkpt>
      <trkpt lat="43.10952" lon="0.88126">
        <ele>314</ele>
        <time>2025-08-08T09:49:28.000Z</time>
      </trkpt>
      <trkpt lat="43.10935" lon="0.88064">
        <ele>314.20001220703</ele>
        <time>2025-08-08T09:49:39.000Z</time>
      </trkpt>
      <trkpt lat="43.1093" lon="0.88048">
        <ele>314.20001220703</ele>
        <time>2025-08-08T09:49:42.000Z</time>
      </trkpt>
      <trkpt lat="43.10926" lon="0.88031">
        <ele>314.20001220703</ele>
        <time>2025-08-08T09:49:45.000Z</time>
      </trkpt>
      <trkpt lat="43.10925" lon="0.88026">
        <ele>314.20001220703</ele>
        <time>2025-08-08T09:49:46.000Z</time>
      </trkpt>
      <trkpt lat="43.10918" lon="0.88">
        <ele>314.20001220703</ele>
        <time>2025-08-08T09:49:51.000Z</time>
      </trkpt>
      <trkpt lat="43.10909" lon="0.87968">
        <ele>314.20001220703</ele>
        <time>2025-08-08T09:49:57.000Z</time>
      </trkpt>
      <trkpt lat="43.10906" lon="0.87957">
        <ele>314.20001220703</ele>
        <time>2025-08-08T09:49:59.000Z</time>
      </trkpt>
      <trkpt lat="43.10896" lon="0.8792">
        <ele>314.20001220703</ele>
        <time>2025-08-08T09:50:06.000Z</time>
      </trkpt>
      <trkpt lat="43.10894" lon="0.87914">
        <ele>314.20001220703</ele>
        <time>2025-08-08T09:50:07.000Z</time>
      </trkpt>
      <trkpt lat="43.10891" lon="0.87903">
        <ele>314.20001220703</ele>
        <time>2025-08-08T09:50:09.000Z</time>
      </trkpt>
      <trkpt lat="43.10885" lon="0.87881">
        <ele>314.20001220703</ele>
        <time>2025-08-08T09:50:13.000Z</time>
      </trkpt>
      <trkpt lat="43.10884" lon="0.87876">
        <ele>314.20001220703</ele>
        <time>2025-08-08T09:50:14.000Z</time>
      </trkpt>
      <trkpt lat="43.10874" lon="0.87842">
        <ele>314.20001220703</ele>
        <time>2025-08-08T09:50:20.000Z</time>
      </trkpt>
      <trkpt lat="43.10864" lon="0.87803">
        <ele>314.39999389648</ele>
        <time>2025-08-08T09:50:27.000Z</time>
      </trkpt>
      <trkpt lat="43.1086" lon="0.87788">
        <ele>314.60000610352</ele>
        <time>2025-08-08T09:50:30.000Z</time>
      </trkpt>
      <trkpt lat="43.10853" lon="0.8776">
        <ele>315</ele>
        <time>2025-08-08T09:50:35.000Z</time>
      </trkpt>
      <trkpt lat="43.10838" lon="0.87706">
        <ele>315.20001220703</ele>
        <time>2025-08-08T09:50:45.000Z</time>
      </trkpt>
      <trkpt lat="43.1083" lon="0.87679">
        <ele>315</ele>
        <time>2025-08-08T09:50:50.000Z</time>
      </trkpt>
      <trkpt lat="43.10826" lon="0.87663">
        <ele>315</ele>
        <time>2025-08-08T09:50:53.000Z</time>
      </trkpt>
      <trkpt lat="43.10815" lon="0.87619">
        <ele>315</ele>
        <time>2025-08-08T09:51:01.000Z</time>
      </trkpt>
      <trkpt lat="43.10805" lon="0.87575">
        <ele>315</ele>
        <time>2025-08-08T09:51:09.000Z</time>
      </trkpt>
      <trkpt lat="43.10804" lon="0.87569">
        <ele>315</ele>
        <time>2025-08-08T09:51:10.000Z</time>
      </trkpt>
      <trkpt lat="43.10802" lon="0.87553">
        <ele>315</ele>
        <time>2025-08-08T09:51:13.000Z</time>
      </trkpt>
      <trkpt lat="43.10802" lon="0.87531">
        <ele>315.39999389648</ele>
        <time>2025-08-08T09:51:17.000Z</time>
      </trkpt>
      <trkpt lat="43.10802" lon="0.87502">
        <ele>315.60000610352</ele>
        <time>2025-08-08T09:51:23.000Z</time>
      </trkpt>
      <trkpt lat="43.108" lon="0.87492">
        <ele>315.79998779297</ele>
        <time>2025-08-08T09:51:25.000Z</time>
      </trkpt>
      <trkpt lat="43.10792" lon="0.8747">
        <ele>316.20001220703</ele>
        <time>2025-08-08T09:51:30.000Z</time>
      </trkpt>
      <trkpt lat="43.1078" lon="0.87459">
        <ele>316.39999389648</ele>
        <time>2025-08-08T09:51:34.000Z</time>
      </trkpt>
      <trkpt lat="43.10766" lon="0.87436">
        <ele>315.79998779297</ele>
        <time>2025-08-08T09:51:40.000Z</time>
      </trkpt>
      <trkpt lat="43.10753" lon="0.8739">
        <ele>315.20001220703</ele>
        <time>2025-08-08T09:51:49.000Z</time>
      </trkpt>
      <trkpt lat="43.10745" lon="0.8736">
        <ele>315</ele>
        <time>2025-08-08T09:51:55.000Z</time>
      </trkpt>
      <trkpt lat="43.10742" lon="0.8735">
        <ele>315</ele>
        <time>2025-08-08T09:51:57.000Z</time>
      </trkpt>
      <trkpt lat="43.10732" lon="0.87299">
        <ele>315</ele>
        <time>2025-08-08T09:52:07.000Z</time>
      </trkpt>
      <trkpt lat="43.10733" lon="0.87267">
        <ele>315</ele>
        <time>2025-08-08T09:52:13.000Z</time>
      </trkpt>
      <trkpt lat="43.10733" lon="0.87233">
        <ele>315.39999389648</ele>
        <time>2025-08-08T09:52:20.000Z</time>
      </trkpt>
      <trkpt lat="43.10733" lon="0.87205">
        <ele>315.79998779297</ele>
        <time>2025-08-08T09:52:26.000Z</time>
      </trkpt>
      <trkpt lat="43.10731" lon="0.87158">
        <ele>316.20001220703</ele>
        <time>2025-08-08T09:52:35.000Z</time>
      </trkpt>
      <trkpt lat="43.10729" lon="0.87115">
        <ele>316.60000610352</ele>
        <time>2025-08-08T09:52:43.000Z</time>
      </trkpt>
      <trkpt lat="43.10727" lon="0.8709">
        <ele>316.79998779297</ele>
        <time>2025-08-08T09:52:48.000Z</time>
      </trkpt>
      <trkpt lat="43.10727" lon="0.87085">
        <ele>317</ele>
        <time>2025-08-08T09:52:49.000Z</time>
      </trkpt>
      <trkpt lat="43.10726" lon="0.8707">
        <ele>317</ele>
        <time>2025-08-08T09:52:52.000Z</time>
      </trkpt>
      <trkpt lat="43.10724" lon="0.87029">
        <ele>317.39999389648</ele>
        <time>2025-08-08T09:53:00.000Z</time>
      </trkpt>
      <trkpt lat="43.10725" lon="0.86984">
        <ele>317.79998779297</ele>
        <time>2025-08-08T09:53:09.000Z</time>
      </trkpt>
      <trkpt lat="43.10725" lon="0.86979">
        <ele>317.79998779297</ele>
        <time>2025-08-08T09:53:10.000Z</time>
      </trkpt>
      <trkpt lat="43.10726" lon="0.86936">
        <ele>318.60000610352</ele>
        <time>2025-08-08T09:53:19.000Z</time>
      </trkpt>
      <trkpt lat="43.10729" lon="0.86905">
        <ele>318.79998779297</ele>
        <time>2025-08-08T09:53:25.000Z</time>
      </trkpt>
      <trkpt lat="43.10728" lon="0.86858">
        <ele>318.39999389648</ele>
        <time>2025-08-08T09:53:34.000Z</time>
      </trkpt>
      <trkpt lat="43.10723" lon="0.86823">
        <ele>318.60000610352</ele>
        <time>2025-08-08T09:53:41.000Z</time>
      </trkpt>
      <trkpt lat="43.10723" lon="0.86782">
        <ele>318.79998779297</ele>
        <time>2025-08-08T09:53:49.000Z</time>
      </trkpt>
      <trkpt lat="43.10723" lon="0.86777">
        <ele>319</ele>
        <time>2025-08-08T09:53:50.000Z</time>
      </trkpt>
      <trkpt lat="43.10723" lon="0.86748">
        <ele>319</ele>
        <time>2025-08-08T09:53:56.000Z</time>
      </trkpt>
      <trkpt lat="43.10722" lon="0.86698">
        <ele>319</ele>
        <time>2025-08-08T09:54:06.000Z</time>
      </trkpt>
      <trkpt lat="43.10723" lon="0.86649">
        <ele>319.39999389648</ele>
        <time>2025-08-08T09:54:16.000Z</time>
      </trkpt>
      <trkpt lat="43.10723" lon="0.86607">
        <ele>319.60000610352</ele>
        <time>2025-08-08T09:54:24.000Z</time>
      </trkpt>
      <trkpt lat="43.10732" lon="0.86589">
        <ele>319.20001220703</ele>
        <time>2025-08-08T09:54:28.000Z</time>
      </trkpt>
      <trkpt lat="43.10748" lon="0.86564">
        <ele>319</ele>
        <time>2025-08-08T09:54:34.000Z</time>
      </trkpt>
      <trkpt lat="43.10761" lon="0.86523">
        <ele>319</ele>
        <time>2025-08-08T09:54:42.000Z</time>
      </trkpt>
      <trkpt lat="43.10757" lon="0.86496">
        <ele>318.79998779297</ele>
        <time>2025-08-08T09:54:47.000Z</time>
      </trkpt>
      <trkpt lat="43.10739" lon="0.86462">
        <ele>318.60000610352</ele>
        <time>2025-08-08T09:54:54.000Z</time>
      </trkpt>
      <trkpt lat="43.10716" lon="0.86415">
        <ele>318.60000610352</ele>
        <time>2025-08-08T09:55:03.000Z</time>
      </trkpt>
      <trkpt lat="43.10711" lon="0.86404">
        <ele>318.60000610352</ele>
        <time>2025-08-08T09:55:05.000Z</time>
      </trkpt>
      <trkpt lat="43.10708" lon="0.86392">
        <ele>318.60000610352</ele>
        <time>2025-08-08T09:55:07.000Z</time>
      </trkpt>
      <trkpt lat="43.10706" lon="0.8638">
        <ele>318.60000610352</ele>
        <time>2025-08-08T09:55:09.000Z</time>
      </trkpt>
      <trkpt lat="43.107" lon="0.86318">
        <ele>318.39999389648</ele>
        <time>2025-08-08T09:55:19.000Z</time>
      </trkpt>
      <trkpt lat="43.10699" lon="0.86301">
        <ele>318.60000610352</ele>
        <time>2025-08-08T09:55:22.000Z</time>
      </trkpt>
      <trkpt lat="43.10697" lon="0.86263">
        <ele>318.79998779297</ele>
        <time>2025-08-08T09:55:28.000Z</time>
      </trkpt>
      <trkpt lat="43.10693" lon="0.86202">
        <ele>319</ele>
        <time>2025-08-08T09:55:38.000Z</time>
      </trkpt>
      <trkpt lat="43.1069" lon="0.86159">
        <ele>319</ele>
        <time>2025-08-08T09:55:45.000Z</time>
      </trkpt>
      <trkpt lat="43.10688" lon="0.8611">
        <ele>319</ele>
        <time>2025-08-08T09:55:53.000Z</time>
      </trkpt>
      <trkpt lat="43.10686" lon="0.86063">
        <ele>318.79998779297</ele>
        <time>2025-08-08T09:56:01.000Z</time>
      </trkpt>
      <trkpt lat="43.10686" lon="0.86057">
        <ele>318.79998779297</ele>
        <time>2025-08-08T09:56:02.000Z</time>
      </trkpt>
      <trkpt lat="43.10684" lon="0.86029">
        <ele>319</ele>
        <time>2025-08-08T09:56:07.000Z</time>
      </trkpt>
      <trkpt lat="43.10682" lon="0.85989">
        <ele>319.39999389648</ele>
        <time>2025-08-08T09:56:14.000Z</time>
      </trkpt>
      <trkpt lat="43.10681" lon="0.85984">
        <ele>319.39999389648</ele>
        <time>2025-08-08T09:56:15.000Z</time>
      </trkpt>
      <trkpt lat="43.10679" lon="0.85955">
        <ele>319.60000610352</ele>
        <time>2025-08-08T09:56:20.000Z</time>
      </trkpt>
      <trkpt lat="43.10678" lon="0.85944">
        <ele>319.60000610352</ele>
        <time>2025-08-08T09:56:22.000Z</time>
      </trkpt>
      <trkpt lat="43.1068" lon="0.85928">
        <ele>320</ele>
        <time>2025-08-08T09:56:25.000Z</time>
      </trkpt>
      <trkpt lat="43.10681" lon="0.85923">
        <ele>320</ele>
        <time>2025-08-08T09:56:26.000Z</time>
      </trkpt>
      <trkpt lat="43.10695" lon="0.85876">
        <ele>320.60000610352</ele>
        <time>2025-08-08T09:56:35.000Z</time>
      </trkpt>
      <trkpt lat="43.10699" lon="0.8586">
        <ele>321</ele>
        <time>2025-08-08T09:56:38.000Z</time>
      </trkpt>
      <trkpt lat="43.10701" lon="0.85849">
        <ele>321.20001220703</ele>
        <time>2025-08-08T09:56:40.000Z</time>
      </trkpt>
      <trkpt lat="43.10706" lon="0.85819">
        <ele>321.39999389648</ele>
        <time>2025-08-08T09:56:45.000Z</time>
      </trkpt>
      <trkpt lat="43.10713" lon="0.85795">
        <ele>321.79998779297</ele>
        <time>2025-08-08T09:56:49.000Z</time>
      </trkpt>
      <trkpt lat="43.1072" lon="0.8576">
        <ele>322</ele>
        <time>2025-08-08T09:56:56.000Z</time>
      </trkpt>
      <trkpt lat="43.10726" lon="0.85717">
        <ele>322.20001220703</ele>
        <time>2025-08-08T09:57:04.000Z</time>
      </trkpt>
      <trkpt lat="43.10728" lon="0.85685">
        <ele>322.39999389648</ele>
        <time>2025-08-08T09:57:10.000Z</time>
      </trkpt>
      <trkpt lat="43.10732" lon="0.8565">
        <ele>322.60000610352</ele>
        <time>2025-08-08T09:57:16.000Z</time>
      </trkpt>
      <trkpt lat="43.10738" lon="0.85614">
        <ele>322.79998779297</ele>
        <time>2025-08-08T09:57:22.000Z</time>
      </trkpt>
      <trkpt lat="43.10737" lon="0.85597">
        <ele>322.79998779297</ele>
        <time>2025-08-08T09:57:25.000Z</time>
      </trkpt>
      <trkpt lat="43.10737" lon="0.8559">
        <ele>322.79998779297</ele>
        <time>2025-08-08T09:57:26.000Z</time>
      </trkpt>
      <trkpt lat="43.10738" lon="0.85579">
        <ele>323</ele>
        <time>2025-08-08T09:57:28.000Z</time>
      </trkpt>
      <trkpt lat="43.10738" lon="0.85554">
        <ele>323</ele>
        <time>2025-08-08T09:57:32.000Z</time>
      </trkpt>
      <trkpt lat="43.10738" lon="0.85536">
        <ele>323.20001220703</ele>
        <time>2025-08-08T09:57:35.000Z</time>
      </trkpt>
      <trkpt lat="43.10743" lon="0.85476">
        <ele>323.39999389648</ele>
        <time>2025-08-08T09:57:45.000Z</time>
      </trkpt>
      <trkpt lat="43.10745" lon="0.85437">
        <ele>323.39999389648</ele>
        <time>2025-08-08T09:57:52.000Z</time>
      </trkpt>
      <trkpt lat="43.10745" lon="0.85426">
        <ele>323.39999389648</ele>
        <time>2025-08-08T09:57:54.000Z</time>
      </trkpt>
      <trkpt lat="43.10745" lon="0.85388">
        <ele>323.39999389648</ele>
        <time>2025-08-08T09:58:01.000Z</time>
      </trkpt>
      <trkpt lat="43.10746" lon="0.85334">
        <ele>323.39999389648</ele>
        <time>2025-08-08T09:58:11.000Z</time>
      </trkpt>
      <trkpt lat="43.10748" lon="0.85295">
        <ele>324</ele>
        <time>2025-08-08T09:58:18.000Z</time>
      </trkpt>
      <trkpt lat="43.1075" lon="0.85273">
        <ele>324</ele>
        <time>2025-08-08T09:58:22.000Z</time>
      </trkpt>
      <trkpt lat="43.10753" lon="0.8524">
        <ele>324.20001220703</ele>
        <time>2025-08-08T09:58:28.000Z</time>
      </trkpt>
      <trkpt lat="43.10758" lon="0.85201">
        <ele>324.39999389648</ele>
        <time>2025-08-08T09:58:35.000Z</time>
      </trkpt>
      <trkpt lat="43.10762" lon="0.8518">
        <ele>324.39999389648</ele>
        <time>2025-08-08T09:58:39.000Z</time>
      </trkpt>
      <trkpt lat="43.10764" lon="0.85164">
        <ele>324.39999389648</ele>
        <time>2025-08-08T09:58:42.000Z</time>
      </trkpt>
      <trkpt lat="43.10766" lon="0.8513">
        <ele>324.39999389648</ele>
        <time>2025-08-08T09:58:48.000Z</time>
      </trkpt>
      <trkpt lat="43.10767" lon="0.85125">
        <ele>324.39999389648</ele>
        <time>2025-08-08T09:58:49.000Z</time>
      </trkpt>
      <trkpt lat="43.10769" lon="0.85096">
        <ele>324.60000610352</ele>
        <time>2025-08-08T09:58:54.000Z</time>
      </trkpt>
      <trkpt lat="43.10771" lon="0.85071">
        <ele>324.60000610352</ele>
        <time>2025-08-08T09:58:58.000Z</time>
      </trkpt>
      <trkpt lat="43.10776" lon="0.85018">
        <ele>324.60000610352</ele>
        <time>2025-08-08T09:59:06.000Z</time>
      </trkpt>
      <trkpt lat="43.10781" lon="0.8496">
        <ele>324.39999389648</ele>
        <time>2025-08-08T09:59:15.000Z</time>
      </trkpt>
      <trkpt lat="43.10786" lon="0.84908">
        <ele>324.39999389648</ele>
        <time>2025-08-08T09:59:23.000Z</time>
      </trkpt>
      <trkpt lat="43.1079" lon="0.84851">
        <ele>324.79998779297</ele>
        <time>2025-08-08T09:59:32.000Z</time>
      </trkpt>
      <trkpt lat="43.1079" lon="0.84833">
        <ele>324.79998779297</ele>
        <time>2025-08-08T09:59:35.000Z</time>
      </trkpt>
      <trkpt lat="43.1079" lon="0.84808">
        <ele>324.60000610352</ele>
        <time>2025-08-08T09:59:39.000Z</time>
      </trkpt>
      <trkpt lat="43.10789" lon="0.84765">
        <ele>324.79998779297</ele>
        <time>2025-08-08T09:59:46.000Z</time>
      </trkpt>
      <trkpt lat="43.10788" lon="0.84722">
        <ele>324.79998779297</ele>
        <time>2025-08-08T09:59:53.000Z</time>
      </trkpt>
      <trkpt lat="43.10786" lon="0.84673">
        <ele>325</ele>
        <time>2025-08-08T10:00:01.000Z</time>
      </trkpt>
      <trkpt lat="43.10785" lon="0.84654">
        <ele>325.20001220703</ele>
        <time>2025-08-08T10:00:04.000Z</time>
      </trkpt>
      <trkpt lat="43.10783" lon="0.84629">
        <ele>325.20001220703</ele>
        <time>2025-08-08T10:00:08.000Z</time>
      </trkpt>
      <trkpt lat="43.10777" lon="0.8458">
        <ele>325.39999389648</ele>
        <time>2025-08-08T10:00:16.000Z</time>
      </trkpt>
      <trkpt lat="43.10772" lon="0.84526">
        <ele>325.39999389648</ele>
        <time>2025-08-08T10:00:25.000Z</time>
      </trkpt>
      <trkpt lat="43.10769" lon="0.84478">
        <ele>325.39999389648</ele>
        <time>2025-08-08T10:00:33.000Z</time>
      </trkpt>
      <trkpt lat="43.10772" lon="0.84444">
        <ele>325.39999389648</ele>
        <time>2025-08-08T10:00:38.000Z</time>
      </trkpt>
      <trkpt lat="43.10775" lon="0.84427">
        <ele>325.39999389648</ele>
        <time>2025-08-08T10:00:41.000Z</time>
      </trkpt>
      <trkpt lat="43.1078" lon="0.84401">
        <ele>325.39999389648</ele>
        <time>2025-08-08T10:00:45.000Z</time>
      </trkpt>
      <trkpt lat="43.1078" lon="0.84382">
        <ele>325.39999389648</ele>
        <time>2025-08-08T10:00:48.000Z</time>
      </trkpt>
      <trkpt lat="43.10778" lon="0.84328">
        <ele>325.20001220703</ele>
        <time>2025-08-08T10:00:57.000Z</time>
      </trkpt>
      <trkpt lat="43.10778" lon="0.84321">
        <ele>325.20001220703</ele>
        <time>2025-08-08T10:00:58.000Z</time>
      </trkpt>
      <trkpt lat="43.10776" lon="0.84287">
        <ele>325.20001220703</ele>
        <time>2025-08-08T10:01:04.000Z</time>
      </trkpt>
      <trkpt lat="43.10776" lon="0.8428">
        <ele>325.20001220703</ele>
        <time>2025-08-08T10:01:05.000Z</time>
      </trkpt>
      <trkpt lat="43.10774" lon="0.84251">
        <ele>325.79998779297</ele>
        <time>2025-08-08T10:01:10.000Z</time>
      </trkpt>
      <trkpt lat="43.10772" lon="0.84228">
        <ele>326</ele>
        <time>2025-08-08T10:01:14.000Z</time>
      </trkpt>
      <trkpt lat="43.10771" lon="0.84211">
        <ele>326</ele>
        <time>2025-08-08T10:01:17.000Z</time>
      </trkpt>
      <trkpt lat="43.10771" lon="0.842">
        <ele>326.20001220703</ele>
        <time>2025-08-08T10:01:19.000Z</time>
      </trkpt>
      <trkpt lat="43.10769" lon="0.84163">
        <ele>326.39999389648</ele>
        <time>2025-08-08T10:01:25.000Z</time>
      </trkpt>
      <trkpt lat="43.10769" lon="0.84118">
        <ele>326.60000610352</ele>
        <time>2025-08-08T10:01:32.000Z</time>
      </trkpt>
      <trkpt lat="43.10769" lon="0.84112">
        <ele>326.60000610352</ele>
        <time>2025-08-08T10:01:33.000Z</time>
      </trkpt>
      <trkpt lat="43.10768" lon="0.84106">
        <ele>326.60000610352</ele>
        <time>2025-08-08T10:01:34.000Z</time>
      </trkpt>
      <trkpt lat="43.10766" lon="0.84076">
        <ele>326.60000610352</ele>
        <time>2025-08-08T10:01:39.000Z</time>
      </trkpt>
      <trkpt lat="43.10765" lon="0.84033">
        <ele>326.79998779297</ele>
        <time>2025-08-08T10:01:46.000Z</time>
      </trkpt>
      <trkpt lat="43.10763" lon="0.83984">
        <ele>326.79998779297</ele>
        <time>2025-08-08T10:01:54.000Z</time>
      </trkpt>
      <trkpt lat="43.10763" lon="0.83978">
        <ele>326.79998779297</ele>
        <time>2025-08-08T10:01:55.000Z</time>
      </trkpt>
      <trkpt lat="43.10762" lon="0.8395">
        <ele>326.79998779297</ele>
        <time>2025-08-08T10:02:00.000Z</time>
      </trkpt>
      <trkpt lat="43.10761" lon="0.83902">
        <ele>326.79998779297</ele>
        <time>2025-08-08T10:02:08.000Z</time>
      </trkpt>
      <trkpt lat="43.10762" lon="0.83896">
        <ele>326.79998779297</ele>
        <time>2025-08-08T10:02:09.000Z</time>
      </trkpt>
      <trkpt lat="43.10762" lon="0.83853">
        <ele>327.20001220703</ele>
        <time>2025-08-08T10:02:16.000Z</time>
      </trkpt>
      <trkpt lat="43.10762" lon="0.83846">
        <ele>327.20001220703</ele>
        <time>2025-08-08T10:02:17.000Z</time>
      </trkpt>
      <trkpt lat="43.10762" lon="0.83798">
        <ele>327.20001220703</ele>
        <time>2025-08-08T10:02:25.000Z</time>
      </trkpt>
      <trkpt lat="43.10759" lon="0.83753">
        <ele>327.39999389648</ele>
        <time>2025-08-08T10:02:33.000Z</time>
      </trkpt>
      <trkpt lat="43.10754" lon="0.83714">
        <ele>327.60000610352</ele>
        <time>2025-08-08T10:02:40.000Z</time>
      </trkpt>
      <trkpt lat="43.10751" lon="0.83703">
        <ele>327.79998779297</ele>
        <time>2025-08-08T10:02:42.000Z</time>
      </trkpt>
      <trkpt lat="43.10748" lon="0.8369">
        <ele>327.79998779297</ele>
        <time>2025-08-08T10:02:45.000Z</time>
      </trkpt>
      <trkpt lat="43.10746" lon="0.83687">
        <ele>327.79998779297</ele>
        <time>2025-08-08T10:02:46.000Z</time>
      </trkpt>
      <trkpt lat="43.10733" lon="0.83676">
        <ele>327.79998779297</ele>
        <time>2025-08-08T10:02:51.000Z</time>
      </trkpt>
      <trkpt lat="43.10705" lon="0.83663">
        <ele>327.60000610352</ele>
        <time>2025-08-08T10:02:58.000Z</time>
      </trkpt>
      <trkpt lat="43.10671" lon="0.83649">
        <ele>327.60000610352</ele>
        <time>2025-08-08T10:03:07.000Z</time>
      </trkpt>
      <trkpt lat="43.10669" lon="0.83646">
        <ele>327.60000610352</ele>
        <time>2025-08-08T10:03:08.000Z</time>
      </trkpt>
      <trkpt lat="43.10668" lon="0.83635">
        <ele>327.60000610352</ele>
        <time>2025-08-08T10:03:10.000Z</time>
      </trkpt>
      <trkpt lat="43.10666" lon="0.83616">
        <ele>327.60000610352</ele>
        <time>2025-08-08T10:03:14.000Z</time>
      </trkpt>
      <trkpt lat="43.10664" lon="0.83591">
        <ele>327.79998779297</ele>
        <time>2025-08-08T10:03:19.000Z</time>
      </trkpt>
      <trkpt lat="43.1066" lon="0.83551">
        <ele>328</ele>
        <time>2025-08-08T10:03:27.000Z</time>
      </trkpt>
      <trkpt lat="43.10659" lon="0.83535">
        <ele>328.20001220703</ele>
        <time>2025-08-08T10:03:30.000Z</time>
      </trkpt>
      <trkpt lat="43.10659" lon="0.8352">
        <ele>328.39999389648</ele>
        <time>2025-08-08T10:03:33.000Z</time>
      </trkpt>
      <trkpt lat="43.10656" lon="0.83478">
        <ele>328.79998779297</ele>
        <time>2025-08-08T10:03:41.000Z</time>
      </trkpt>
      <trkpt lat="43.10658" lon="0.83432">
        <ele>328.79998779297</ele>
        <time>2025-08-08T10:03:49.000Z</time>
      </trkpt>
      <trkpt lat="43.10676" lon="0.83397">
        <ele>329</ele>
        <time>2025-08-08T10:03:56.000Z</time>
      </trkpt>
      <trkpt lat="43.10702" lon="0.83352">
        <ele>329.20001220703</ele>
        <time>2025-08-08T10:04:06.000Z</time>
      </trkpt>
      <trkpt lat="43.10708" lon="0.83342">
        <ele>329.20001220703</ele>
        <time>2025-08-08T10:04:08.000Z</time>
      </trkpt>
      <trkpt lat="43.10724" lon="0.83311">
        <ele>329.39999389648</ele>
        <time>2025-08-08T10:04:15.000Z</time>
      </trkpt>
      <trkpt lat="43.10739" lon="0.83271">
        <ele>329.39999389648</ele>
        <time>2025-08-08T10:04:23.000Z</time>
      </trkpt>
      <trkpt lat="43.10748" lon="0.83235">
        <ele>329.20001220703</ele>
        <time>2025-08-08T10:04:30.000Z</time>
      </trkpt>
      <trkpt lat="43.10755" lon="0.83205">
        <ele>328.79998779297</ele>
        <time>2025-08-08T10:04:36.000Z</time>
      </trkpt>
      <trkpt lat="43.10764" lon="0.83164">
        <ele>328.79998779297</ele>
        <time>2025-08-08T10:04:44.000Z</time>
      </trkpt>
      <trkpt lat="43.10764" lon="0.83131">
        <ele>328.79998779297</ele>
        <time>2025-08-08T10:04:50.000Z</time>
      </trkpt>
      <trkpt lat="43.1076" lon="0.83089">
        <ele>329</ele>
        <time>2025-08-08T10:04:58.000Z</time>
      </trkpt>
      <trkpt lat="43.10754" lon="0.83046">
        <ele>329</ele>
        <time>2025-08-08T10:05:06.000Z</time>
      </trkpt>
      <trkpt lat="43.10743" lon="0.82996">
        <ele>328.79998779297</ele>
        <time>2025-08-08T10:05:15.000Z</time>
      </trkpt>
      <trkpt lat="43.10727" lon="0.82954">
        <ele>329</ele>
        <time>2025-08-08T10:05:23.000Z</time>
      </trkpt>
      <trkpt lat="43.10721" lon="0.82945">
        <ele>329</ele>
        <time>2025-08-08T10:05:25.000Z</time>
      </trkpt>
      <trkpt lat="43.10716" lon="0.82936">
        <ele>329</ele>
        <time>2025-08-08T10:05:27.000Z</time>
      </trkpt>
      <trkpt lat="43.10711" lon="0.82927">
        <ele>329</ele>
        <time>2025-08-08T10:05:29.000Z</time>
      </trkpt>
      <trkpt lat="43.10708" lon="0.82923">
        <ele>329</ele>
        <time>2025-08-08T10:05:30.000Z</time>
      </trkpt>
      <trkpt lat="43.1069" lon="0.82897">
        <ele>329.20001220703</ele>
        <time>2025-08-08T10:05:36.000Z</time>
      </trkpt>
      <trkpt lat="43.10682" lon="0.82884">
        <ele>329.20001220703</ele>
        <time>2025-08-08T10:05:39.000Z</time>
      </trkpt>
      <trkpt lat="43.10671" lon="0.82866">
        <ele>329.20001220703</ele>
        <time>2025-08-08T10:05:43.000Z</time>
      </trkpt>
      <trkpt lat="43.10665" lon="0.82852">
        <ele>329.20001220703</ele>
        <time>2025-08-08T10:05:46.000Z</time>
      </trkpt>
      <trkpt lat="43.10659" lon="0.82837">
        <ele>329.20001220703</ele>
        <time>2025-08-08T10:05:49.000Z</time>
      </trkpt>
      <trkpt lat="43.10655" lon="0.82821">
        <ele>329.39999389648</ele>
        <time>2025-08-08T10:05:52.000Z</time>
      </trkpt>
      <trkpt lat="43.10653" lon="0.82816">
        <ele>329.39999389648</ele>
        <time>2025-08-08T10:05:53.000Z</time>
      </trkpt>
      <trkpt lat="43.10651" lon="0.828">
        <ele>329.60000610352</ele>
        <time>2025-08-08T10:05:56.000Z</time>
      </trkpt>
      <trkpt lat="43.10648" lon="0.82789">
        <ele>329.60000610352</ele>
        <time>2025-08-08T10:05:58.000Z</time>
      </trkpt>
      <trkpt lat="43.10639" lon="0.82746">
        <ele>329.79998779297</ele>
        <time>2025-08-08T10:06:06.000Z</time>
      </trkpt>
      <trkpt lat="43.10639" lon="0.82741">
        <ele>329.79998779297</ele>
        <time>2025-08-08T10:06:07.000Z</time>
      </trkpt>
      <trkpt lat="43.10638" lon="0.82732">
        <ele>330.20001220703</ele>
        <time>2025-08-08T10:06:09.000Z</time>
      </trkpt>
      <trkpt lat="43.10636" lon="0.82718">
        <ele>330.79998779297</ele>
        <time>2025-08-08T10:06:12.000Z</time>
      </trkpt>
      <trkpt lat="43.10635" lon="0.82714">
        <ele>331</ele>
        <time>2025-08-08T10:06:13.000Z</time>
      </trkpt>
      <trkpt lat="43.10635" lon="0.82704">
        <ele>331.20001220703</ele>
        <time>2025-08-08T10:06:15.000Z</time>
      </trkpt>
      <trkpt lat="43.10631" lon="0.82677">
        <ele>331.79998779297</ele>
        <time>2025-08-08T10:06:21.000Z</time>
      </trkpt>
      <trkpt lat="43.1063" lon="0.82653">
        <ele>332.39999389648</ele>
        <time>2025-08-08T10:06:26.000Z</time>
      </trkpt>
      <trkpt lat="43.10631" lon="0.82643">
        <ele>332.39999389648</ele>
        <time>2025-08-08T10:06:28.000Z</time>
      </trkpt>
      <trkpt lat="43.10631" lon="0.82611">
        <ele>332.60000610352</ele>
        <time>2025-08-08T10:06:34.000Z</time>
      </trkpt>
      <trkpt lat="43.10616" lon="0.82597">
        <ele>332.39999389648</ele>
        <time>2025-08-08T10:06:38.000Z</time>
      </trkpt>
      <trkpt lat="43.10589" lon="0.82592">
        <ele>332</ele>
        <time>2025-08-08T10:06:44.000Z</time>
      </trkpt>
      <trkpt lat="43.10575" lon="0.82589">
        <ele>332</ele>
        <time>2025-08-08T10:06:47.000Z</time>
      </trkpt>
      <trkpt lat="43.10567" lon="0.82585">
        <ele>332</ele>
        <time>2025-08-08T10:06:49.000Z</time>
      </trkpt>
      <trkpt lat="43.10563" lon="0.82582">
        <ele>332</ele>
        <time>2025-08-08T10:06:50.000Z</time>
      </trkpt>
      <trkpt lat="43.10559" lon="0.82578">
        <ele>331.79998779297</ele>
        <time>2025-08-08T10:06:51.000Z</time>
      </trkpt>
      <trkpt lat="43.10553" lon="0.8257">
        <ele>331.60000610352</ele>
        <time>2025-08-08T10:06:53.000Z</time>
      </trkpt>
      <trkpt lat="43.10551" lon="0.82565">
        <ele>331.60000610352</ele>
        <time>2025-08-08T10:06:54.000Z</time>
      </trkpt>
      <trkpt lat="43.10549" lon="0.8256">
        <ele>331.60000610352</ele>
        <time>2025-08-08T10:06:55.000Z</time>
      </trkpt>
      <trkpt lat="43.10545" lon="0.82535">
        <ele>331.39999389648</ele>
        <time>2025-08-08T10:06:59.000Z</time>
      </trkpt>
      <trkpt lat="43.10537" lon="0.82478">
        <ele>331.20001220703</ele>
        <time>2025-08-08T10:07:08.000Z</time>
      </trkpt>
      <trkpt lat="43.10533" lon="0.82446">
        <ele>331.20001220703</ele>
        <time>2025-08-08T10:07:13.000Z</time>
      </trkpt>
      <trkpt lat="43.10529" lon="0.82421">
        <ele>331.20001220703</ele>
        <time>2025-08-08T10:07:17.000Z</time>
      </trkpt>
      <trkpt lat="43.10521" lon="0.82379">
        <ele>331.20001220703</ele>
        <time>2025-08-08T10:07:24.000Z</time>
      </trkpt>
      <trkpt lat="43.10511" lon="0.82315">
        <ele>331.60000610352</ele>
        <time>2025-08-08T10:07:35.000Z</time>
      </trkpt>
      <trkpt lat="43.10503" lon="0.82281">
        <ele>332</ele>
        <time>2025-08-08T10:07:41.000Z</time>
      </trkpt>
      <trkpt lat="43.10499" lon="0.82271">
        <ele>332</ele>
        <time>2025-08-08T10:07:43.000Z</time>
      </trkpt>
      <trkpt lat="43.10498" lon="0.82266">
        <ele>332</ele>
        <time>2025-08-08T10:07:44.000Z</time>
      </trkpt>
      <trkpt lat="43.1049" lon="0.82244">
        <ele>332.20001220703</ele>
        <time>2025-08-08T10:07:48.000Z</time>
      </trkpt>
      <trkpt lat="43.10486" lon="0.82234">
        <ele>332.39999389648</ele>
        <time>2025-08-08T10:07:50.000Z</time>
      </trkpt>
      <trkpt lat="43.10474" lon="0.82204">
        <ele>332.79998779297</ele>
        <time>2025-08-08T10:07:56.000Z</time>
      </trkpt>
      <trkpt lat="43.10468" lon="0.82189">
        <ele>333</ele>
        <time>2025-08-08T10:07:59.000Z</time>
      </trkpt>
      <trkpt lat="43.10457" lon="0.82165">
        <ele>333.20001220703</ele>
        <time>2025-08-08T10:08:04.000Z</time>
      </trkpt>
      <trkpt lat="43.10447" lon="0.82139">
        <ele>333.79998779297</ele>
        <time>2025-08-08T10:08:09.000Z</time>
      </trkpt>
      <trkpt lat="43.10441" lon="0.82096">
        <ele>334</ele>
        <time>2025-08-08T10:08:17.000Z</time>
      </trkpt>
      <trkpt lat="43.10438" lon="0.82053">
        <ele>334</ele>
        <time>2025-08-08T10:08:25.000Z</time>
      </trkpt>
      <trkpt lat="43.10435" lon="0.82009">
        <ele>334</ele>
        <time>2025-08-08T10:08:33.000Z</time>
      </trkpt>
      <trkpt lat="43.10432" lon="0.81976">
        <ele>334.20001220703</ele>
        <time>2025-08-08T10:08:39.000Z</time>
      </trkpt>
      <trkpt lat="43.10432" lon="0.81964">
        <ele>334.39999389648</ele>
        <time>2025-08-08T10:08:41.000Z</time>
      </trkpt>
      <trkpt lat="43.10434" lon="0.81904">
        <ele>334.39999389648</ele>
        <time>2025-08-08T10:08:51.000Z</time>
      </trkpt>
      <trkpt lat="43.10441" lon="0.81847">
        <ele>334.60000610352</ele>
        <time>2025-08-08T10:09:00.000Z</time>
      </trkpt>
      <trkpt lat="43.10447" lon="0.81792">
        <ele>335</ele>
        <time>2025-08-08T10:09:09.000Z</time>
      </trkpt>
      <trkpt lat="43.10453" lon="0.81744">
        <ele>335.39999389648</ele>
        <time>2025-08-08T10:09:17.000Z</time>
      </trkpt>
      <trkpt lat="43.10454" lon="0.81728">
        <ele>335.79998779297</ele>
        <time>2025-08-08T10:09:20.000Z</time>
      </trkpt>
      <trkpt lat="43.10458" lon="0.817">
        <ele>336.60000610352</ele>
        <time>2025-08-08T10:09:26.000Z</time>
      </trkpt>
      <trkpt lat="43.10458" lon="0.81696">
        <ele>336.79998779297</ele>
        <time>2025-08-08T10:09:27.000Z</time>
      </trkpt>
      <trkpt lat="43.10461" lon="0.81677">
        <ele>337.60000610352</ele>
        <time>2025-08-08T10:09:32.000Z</time>
      </trkpt>
      <trkpt lat="43.10461" lon="0.81673">
        <ele>337.79998779297</ele>
        <time>2025-08-08T10:09:33.000Z</time>
      </trkpt>
      <trkpt lat="43.10466" lon="0.81647">
        <ele>338.79998779297</ele>
        <time>2025-08-08T10:09:40.000Z</time>
      </trkpt>
      <trkpt lat="43.10467" lon="0.81644">
        <ele>339</ele>
        <time>2025-08-08T10:09:41.000Z</time>
      </trkpt>
      <trkpt lat="43.10473" lon="0.81627">
        <ele>340</ele>
        <time>2025-08-08T10:09:46.000Z</time>
      </trkpt>
      <trkpt lat="43.10475" lon="0.81624">
        <ele>340.20001220703</ele>
        <time>2025-08-08T10:09:47.000Z</time>
      </trkpt>
      <trkpt lat="43.10483" lon="0.81608">
        <ele>341</ele>
        <time>2025-08-08T10:09:52.000Z</time>
      </trkpt>
      <trkpt lat="43.1049" lon="0.81595">
        <ele>342.20001220703</ele>
        <time>2025-08-08T10:09:57.000Z</time>
      </trkpt>
      <trkpt lat="43.105" lon="0.81579">
        <ele>343.20001220703</ele>
        <time>2025-08-08T10:10:03.000Z</time>
      </trkpt>
      <trkpt lat="43.10504" lon="0.81572">
        <ele>343.60000610352</ele>
        <time>2025-08-08T10:10:06.000Z</time>
      </trkpt>
      <trkpt lat="43.1051" lon="0.81563">
        <ele>344.39999389648</ele>
        <time>2025-08-08T10:10:10.000Z</time>
      </trkpt>
      <trkpt lat="43.10512" lon="0.81554">
        <ele>344.79998779297</ele>
        <time>2025-08-08T10:10:13.000Z</time>
      </trkpt>
      <trkpt lat="43.10515" lon="0.8155">
        <ele>345.20001220703</ele>
        <time>2025-08-08T10:10:15.000Z</time>
      </trkpt>
      <trkpt lat="43.10517" lon="0.81545">
        <ele>345.60000610352</ele>
        <time>2025-08-08T10:10:17.000Z</time>
      </trkpt>
      <trkpt lat="43.10521" lon="0.81531">
        <ele>346.39999389648</ele>
        <time>2025-08-08T10:10:22.000Z</time>
      </trkpt>
      <trkpt lat="43.10524" lon="0.81526">
        <ele>346.79998779297</ele>
        <time>2025-08-08T10:10:24.000Z</time>
      </trkpt>
      <trkpt lat="43.10528" lon="0.81517">
        <ele>347.60000610352</ele>
        <time>2025-08-08T10:10:28.000Z</time>
      </trkpt>
      <trkpt lat="43.10529" lon="0.81509">
        <ele>348</ele>
        <time>2025-08-08T10:10:31.000Z</time>
      </trkpt>
      <trkpt lat="43.10532" lon="0.81495">
        <ele>348.79998779297</ele>
        <time>2025-08-08T10:10:36.000Z</time>
      </trkpt>
      <trkpt lat="43.10533" lon="0.81493">
        <ele>349</ele>
        <time>2025-08-08T10:10:37.000Z</time>
      </trkpt>
      <trkpt lat="43.10534" lon="0.81491">
        <ele>349.20001220703</ele>
        <time>2025-08-08T10:10:38.000Z</time>
      </trkpt>
      <trkpt lat="43.10535" lon="0.81489">
        <ele>349.39999389648</ele>
        <time>2025-08-08T10:10:39.000Z</time>
      </trkpt>
      <trkpt lat="43.10536" lon="0.81484">
        <ele>349.60000610352</ele>
        <time>2025-08-08T10:10:41.000Z</time>
      </trkpt>
      <trkpt lat="43.10539" lon="0.81474">
        <ele>350.39999389648</ele>
        <time>2025-08-08T10:10:45.000Z</time>
      </trkpt>
      <trkpt lat="43.10541" lon="0.81465">
        <ele>350.79998779297</ele>
        <time>2025-08-08T10:10:48.000Z</time>
      </trkpt>
      <trkpt lat="43.10548" lon="0.8145">
        <ele>351.39999389648</ele>
        <time>2025-08-08T10:10:54.000Z</time>
      </trkpt>
      <trkpt lat="43.10548" lon="0.81448">
        <ele>351.60000610352</ele>
        <time>2025-08-08T10:10:55.000Z</time>
      </trkpt>
      <trkpt lat="43.10558" lon="0.8142">
        <ele>352.39999389648</ele>
        <time>2025-08-08T10:11:05.000Z</time>
      </trkpt>
      <trkpt lat="43.10559" lon="0.81414">
        <ele>352.39999389648</ele>
        <time>2025-08-08T10:11:07.000Z</time>
      </trkpt>
      <trkpt lat="43.10564" lon="0.814">
        <ele>353</ele>
        <time>2025-08-08T10:11:12.000Z</time>
      </trkpt>
      <trkpt lat="43.10566" lon="0.81389">
        <ele>353.39999389648</ele>
        <time>2025-08-08T10:11:16.000Z</time>
      </trkpt>
      <trkpt lat="43.1057" lon="0.81375">
        <ele>354.20001220703</ele>
        <time>2025-08-08T10:11:21.000Z</time>
      </trkpt>
      <trkpt lat="43.10571" lon="0.81369">
        <ele>354.60000610352</ele>
        <time>2025-08-08T10:11:23.000Z</time>
      </trkpt>
      <trkpt lat="43.10577" lon="0.81351">
        <ele>355.79998779297</ele>
        <time>2025-08-08T10:11:30.000Z</time>
      </trkpt>
      <trkpt lat="43.10582" lon="0.81338">
        <ele>356.60000610352</ele>
        <time>2025-08-08T10:11:35.000Z</time>
      </trkpt>
      <trkpt lat="43.10582" lon="0.81332">
        <ele>356.79998779297</ele>
        <time>2025-08-08T10:11:37.000Z</time>
      </trkpt>
      <trkpt lat="43.10583" lon="0.8133">
        <ele>356.79998779297</ele>
        <time>2025-08-08T10:11:38.000Z</time>
      </trkpt>
      <trkpt lat="43.10585" lon="0.81328">
        <ele>357</ele>
        <time>2025-08-08T10:11:39.000Z</time>
      </trkpt>
      <trkpt lat="43.10586" lon="0.81325">
        <ele>357.20001220703</ele>
        <time>2025-08-08T10:11:40.000Z</time>
      </trkpt>
      <trkpt lat="43.10586" lon="0.81317">
        <ele>357.39999389648</ele>
        <time>2025-08-08T10:11:43.000Z</time>
      </trkpt>
      <trkpt lat="43.10589" lon="0.81314">
        <ele>357.60000610352</ele>
        <time>2025-08-08T10:11:45.000Z</time>
      </trkpt>
      <trkpt lat="43.10589" lon="0.81312">
        <ele>358</ele>
        <time>2025-08-08T10:11:46.000Z</time>
      </trkpt>
      <trkpt lat="43.1059" lon="0.81309">
        <ele>358.20001220703</ele>
        <time>2025-08-08T10:11:47.000Z</time>
      </trkpt>
      <trkpt lat="43.10591" lon="0.81307">
        <ele>358.20001220703</ele>
        <time>2025-08-08T10:11:48.000Z</time>
      </trkpt>
      <trkpt lat="43.10593" lon="0.81303">
        <ele>358.60000610352</ele>
        <time>2025-08-08T10:11:50.000Z</time>
      </trkpt>
      <trkpt lat="43.10593" lon="0.813">
        <ele>358.79998779297</ele>
        <time>2025-08-08T10:11:51.000Z</time>
      </trkpt>
      <trkpt lat="43.10593" lon="0.81298">
        <ele>359</ele>
        <time>2025-08-08T10:11:52.000Z</time>
      </trkpt>
      <trkpt lat="43.10594" lon="0.81296">
        <ele>359</ele>
        <time>2025-08-08T10:11:53.000Z</time>
      </trkpt>
      <trkpt lat="43.10595" lon="0.81292">
        <ele>359.60000610352</ele>
        <time>2025-08-08T10:11:55.000Z</time>
      </trkpt>
      <trkpt lat="43.10596" lon="0.81284">
        <ele>360</ele>
        <time>2025-08-08T10:11:58.000Z</time>
      </trkpt>
      <trkpt lat="43.10597" lon="0.81283">
        <ele>360.20001220703</ele>
        <time>2025-08-08T10:11:59.000Z</time>
      </trkpt>
      <trkpt lat="43.10598" lon="0.8128">
        <ele>360.79998779297</ele>
        <time>2025-08-08T10:12:01.000Z</time>
      </trkpt>
      <trkpt lat="43.10599" lon="0.81276">
        <ele>361</ele>
        <time>2025-08-08T10:12:03.000Z</time>
      </trkpt>
      <trkpt lat="43.106" lon="0.81274">
        <ele>361.20001220703</ele>
        <time>2025-08-08T10:12:04.000Z</time>
      </trkpt>
      <trkpt lat="43.10601" lon="0.81272">
        <ele>361.39999389648</ele>
        <time>2025-08-08T10:12:05.000Z</time>
      </trkpt>
      <trkpt lat="43.106" lon="0.81267">
        <ele>361.60000610352</ele>
        <time>2025-08-08T10:12:07.000Z</time>
      </trkpt>
      <trkpt lat="43.106" lon="0.81265">
        <ele>361.79998779297</ele>
        <time>2025-08-08T10:12:08.000Z</time>
      </trkpt>
      <trkpt lat="43.10603" lon="0.81261">
        <ele>362.20001220703</ele>
        <time>2025-08-08T10:12:10.000Z</time>
      </trkpt>
      <trkpt lat="43.10603" lon="0.81259">
        <ele>362.20001220703</ele>
        <time>2025-08-08T10:12:11.000Z</time>
      </trkpt>
      <trkpt lat="43.10603" lon="0.81251">
        <ele>362.60000610352</ele>
        <time>2025-08-08T10:12:14.000Z</time>
      </trkpt>
      <trkpt lat="43.10605" lon="0.81243">
        <ele>363</ele>
        <time>2025-08-08T10:12:17.000Z</time>
      </trkpt>
      <trkpt lat="43.10604" lon="0.8124">
        <ele>363.20001220703</ele>
        <time>2025-08-08T10:12:18.000Z</time>
      </trkpt>
      <trkpt lat="43.10604" lon="0.81238">
        <ele>363.39999389648</ele>
        <time>2025-08-08T10:12:19.000Z</time>
      </trkpt>
      <trkpt lat="43.10605" lon="0.81235">
        <ele>363.60000610352</ele>
        <time>2025-08-08T10:12:20.000Z</time>
      </trkpt>
      <trkpt lat="43.10608" lon="0.81229">
        <ele>364</ele>
        <time>2025-08-08T10:12:23.000Z</time>
      </trkpt>
      <trkpt lat="43.10608" lon="0.81218">
        <ele>364.39999389648</ele>
        <time>2025-08-08T10:12:27.000Z</time>
      </trkpt>
      <trkpt lat="43.10612" lon="0.81209">
        <ele>364.60000610352</ele>
        <time>2025-08-08T10:12:30.000Z</time>
      </trkpt>
      <trkpt lat="43.10616" lon="0.81192">
        <ele>365.39999389648</ele>
        <time>2025-08-08T10:12:36.000Z</time>
      </trkpt>
      <trkpt lat="43.10617" lon="0.81188">
        <ele>365.39999389648</ele>
        <time>2025-08-08T10:12:38.000Z</time>
      </trkpt>
      <trkpt lat="43.1062" lon="0.81179">
        <ele>366</ele>
        <time>2025-08-08T10:12:42.000Z</time>
      </trkpt>
      <trkpt lat="43.10623" lon="0.81162">
        <ele>366.39999389648</ele>
        <time>2025-08-08T10:12:48.000Z</time>
      </trkpt>
      <trkpt lat="43.10625" lon="0.81157">
        <ele>366.39999389648</ele>
        <time>2025-08-08T10:12:50.000Z</time>
      </trkpt>
      <trkpt lat="43.10626" lon="0.81144">
        <ele>366.60000610352</ele>
        <time>2025-08-08T10:12:55.000Z</time>
      </trkpt>
      <trkpt lat="43.1063" lon="0.81126">
        <ele>367.20001220703</ele>
        <time>2025-08-08T10:13:02.000Z</time>
      </trkpt>
      <trkpt lat="43.10635" lon="0.81115">
        <ele>367.60000610352</ele>
        <time>2025-08-08T10:13:06.000Z</time>
      </trkpt>
      <trkpt lat="43.1064" lon="0.81104">
        <ele>367.79998779297</ele>
        <time>2025-08-08T10:13:10.000Z</time>
      </trkpt>
      <trkpt lat="43.10649" lon="0.81079">
        <ele>368.20001220703</ele>
        <time>2025-08-08T10:13:18.000Z</time>
      </trkpt>
      <trkpt lat="43.1066" lon="0.81056">
        <ele>368.60000610352</ele>
        <time>2025-08-08T10:13:25.000Z</time>
      </trkpt>
      <trkpt lat="43.10662" lon="0.81053">
        <ele>368.60000610352</ele>
        <time>2025-08-08T10:13:26.000Z</time>
      </trkpt>
      <trkpt lat="43.1068" lon="0.81034">
        <ele>369</ele>
        <time>2025-08-08T10:13:34.000Z</time>
      </trkpt>
      <trkpt lat="43.10691" lon="0.81027">
        <ele>369.20001220703</ele>
        <time>2025-08-08T10:13:40.000Z</time>
      </trkpt>
      <trkpt lat="43.10706" lon="0.81017">
        <ele>369.39999389648</ele>
        <time>2025-08-08T10:13:46.000Z</time>
      </trkpt>
      <trkpt lat="43.10725" lon="0.81006">
        <ele>369.79998779297</ele>
        <time>2025-08-08T10:13:52.000Z</time>
      </trkpt>
      <trkpt lat="43.10732" lon="0.81002">
        <ele>369.79998779297</ele>
        <time>2025-08-08T10:13:54.000Z</time>
      </trkpt>
      <trkpt lat="43.10751" lon="0.80987">
        <ele>370</ele>
        <time>2025-08-08T10:14:00.000Z</time>
      </trkpt>
      <trkpt lat="43.10769" lon="0.80966">
        <ele>369.79998779297</ele>
        <time>2025-08-08T10:14:06.000Z</time>
      </trkpt>
      <trkpt lat="43.10791" lon="0.80942">
        <ele>369.79998779297</ele>
        <time>2025-08-08T10:14:13.000Z</time>
      </trkpt>
      <trkpt lat="43.10818" lon="0.8092">
        <ele>370</ele>
        <time>2025-08-08T10:14:21.000Z</time>
      </trkpt>
      <trkpt lat="43.10842" lon="0.80901">
        <ele>369.79998779297</ele>
        <time>2025-08-08T10:14:28.000Z</time>
      </trkpt>
      <trkpt lat="43.10849" lon="0.80896">
        <ele>369.79998779297</ele>
        <time>2025-08-08T10:14:30.000Z</time>
      </trkpt>
      <trkpt lat="43.10868" lon="0.80875">
        <ele>369.39999389648</ele>
        <time>2025-08-08T10:14:36.000Z</time>
      </trkpt>
      <trkpt lat="43.1087" lon="0.80854">
        <ele>369.20001220703</ele>
        <time>2025-08-08T10:14:40.000Z</time>
      </trkpt>
      <trkpt lat="43.10872" lon="0.80792">
        <ele>369.20001220703</ele>
        <time>2025-08-08T10:14:50.000Z</time>
      </trkpt>
      <trkpt lat="43.10871" lon="0.80745">
        <ele>369</ele>
        <time>2025-08-08T10:14:58.000Z</time>
      </trkpt>
      <trkpt lat="43.10872" lon="0.80728">
        <ele>369</ele>
        <time>2025-08-08T10:15:01.000Z</time>
      </trkpt>
      <trkpt lat="43.10872" lon="0.80711">
        <ele>369.20001220703</ele>
        <time>2025-08-08T10:15:04.000Z</time>
      </trkpt>
      <trkpt lat="43.10874" lon="0.80664">
        <ele>369.79998779297</ele>
        <time>2025-08-08T10:15:12.000Z</time>
      </trkpt>
      <trkpt lat="43.10874" lon="0.80611">
        <ele>370</ele>
        <time>2025-08-08T10:15:22.000Z</time>
      </trkpt>
      <trkpt lat="43.10877" lon="0.80567">
        <ele>370.20001220703</ele>
        <time>2025-08-08T10:15:30.000Z</time>
      </trkpt>
      <trkpt lat="43.10878" lon="0.80533">
        <ele>370.20001220703</ele>
        <time>2025-08-08T10:15:36.000Z</time>
      </trkpt>
      <trkpt lat="43.10878" lon="0.80477">
        <ele>370.20001220703</ele>
        <time>2025-08-08T10:15:46.000Z</time>
      </trkpt>
      <trkpt lat="43.10879" lon="0.80438">
        <ele>370.39999389648</ele>
        <time>2025-08-08T10:15:53.000Z</time>
      </trkpt>
      <trkpt lat="43.10885" lon="0.80384">
        <ele>370.79998779297</ele>
        <time>2025-08-08T10:16:03.000Z</time>
      </trkpt>
      <trkpt lat="43.10891" lon="0.8033">
        <ele>370.60000610352</ele>
        <time>2025-08-08T10:16:13.000Z</time>
      </trkpt>
      <trkpt lat="43.10896" lon="0.80294">
        <ele>370.39999389648</ele>
        <time>2025-08-08T10:16:20.000Z</time>
      </trkpt>
      <trkpt lat="43.10899" lon="0.80262">
        <ele>371</ele>
        <time>2025-08-08T10:16:26.000Z</time>
      </trkpt>
      <trkpt lat="43.109" lon="0.80257">
        <ele>371</ele>
        <time>2025-08-08T10:16:27.000Z</time>
      </trkpt>
      <trkpt lat="43.10905" lon="0.80223">
        <ele>371.60000610352</ele>
        <time>2025-08-08T10:16:33.000Z</time>
      </trkpt>
      <trkpt lat="43.10909" lon="0.80207">
        <ele>371.60000610352</ele>
        <time>2025-08-08T10:16:36.000Z</time>
      </trkpt>
      <trkpt lat="43.10912" lon="0.80191">
        <ele>371.60000610352</ele>
        <time>2025-08-08T10:16:39.000Z</time>
      </trkpt>
      <trkpt lat="43.10914" lon="0.80176">
        <ele>371.79998779297</ele>
        <time>2025-08-08T10:16:42.000Z</time>
      </trkpt>
      <trkpt lat="43.10918" lon="0.80154">
        <ele>371.79998779297</ele>
        <time>2025-08-08T10:16:46.000Z</time>
      </trkpt>
      <trkpt lat="43.10924" lon="0.80118">
        <ele>371.79998779297</ele>
        <time>2025-08-08T10:16:53.000Z</time>
      </trkpt>
      <trkpt lat="43.1093" lon="0.80089">
        <ele>371.79998779297</ele>
        <time>2025-08-08T10:16:59.000Z</time>
      </trkpt>
      <trkpt lat="43.10933" lon="0.80056">
        <ele>372.20001220703</ele>
        <time>2025-08-08T10:17:05.000Z</time>
      </trkpt>
      <trkpt lat="43.10939" lon="0.80013">
        <ele>372.20001220703</ele>
        <time>2025-08-08T10:17:13.000Z</time>
      </trkpt>
      <trkpt lat="43.10945" lon="0.79974">
        <ele>372.20001220703</ele>
        <time>2025-08-08T10:17:20.000Z</time>
      </trkpt>
      <trkpt lat="43.10953" lon="0.7993">
        <ele>372.39999389648</ele>
        <time>2025-08-08T10:17:28.000Z</time>
      </trkpt>
      <trkpt lat="43.1096" lon="0.79892">
        <ele>372.60000610352</ele>
        <time>2025-08-08T10:17:35.000Z</time>
      </trkpt>
      <trkpt lat="43.10963" lon="0.79874">
        <ele>372.79998779297</ele>
        <time>2025-08-08T10:17:39.000Z</time>
      </trkpt>
      <trkpt lat="43.10966" lon="0.79852">
        <ele>373</ele>
        <time>2025-08-08T10:17:43.000Z</time>
      </trkpt>
      <trkpt lat="43.10967" lon="0.79806">
        <ele>373.20001220703</ele>
        <time>2025-08-08T10:17:51.000Z</time>
      </trkpt>
      <trkpt lat="43.10968" lon="0.798">
        <ele>373.20001220703</ele>
        <time>2025-08-08T10:17:52.000Z</time>
      </trkpt>
      <trkpt lat="43.1097" lon="0.79784">
        <ele>373.20001220703</ele>
        <time>2025-08-08T10:17:55.000Z</time>
      </trkpt>
      <trkpt lat="43.10972" lon="0.79761">
        <ele>373.20001220703</ele>
        <time>2025-08-08T10:17:59.000Z</time>
      </trkpt>
      <trkpt lat="43.1098" lon="0.79704">
        <ele>373.39999389648</ele>
        <time>2025-08-08T10:18:09.000Z</time>
      </trkpt>
      <trkpt lat="43.10987" lon="0.79652">
        <ele>373.39999389648</ele>
        <time>2025-08-08T10:18:18.000Z</time>
      </trkpt>
      <trkpt lat="43.10985" lon="0.79639">
        <ele>373.39999389648</ele>
        <time>2025-08-08T10:18:20.000Z</time>
      </trkpt>
      <trkpt lat="43.10982" lon="0.79634">
        <ele>373.39999389648</ele>
        <time>2025-08-08T10:18:21.000Z</time>
      </trkpt>
      <trkpt lat="43.10978" lon="0.79629">
        <ele>373.20001220703</ele>
        <time>2025-08-08T10:18:22.000Z</time>
      </trkpt>
      <trkpt lat="43.10969" lon="0.79621">
        <ele>373.20001220703</ele>
        <time>2025-08-08T10:18:24.000Z</time>
      </trkpt>
      <trkpt lat="43.10963" lon="0.79618">
        <ele>373.20001220703</ele>
        <time>2025-08-08T10:18:25.000Z</time>
      </trkpt>
      <trkpt lat="43.10921" lon="0.79593">
        <ele>372</ele>
        <time>2025-08-08T10:18:32.000Z</time>
      </trkpt>
      <trkpt lat="43.10915" lon="0.7959">
        <ele>371.60000610352</ele>
        <time>2025-08-08T10:18:33.000Z</time>
      </trkpt>
      <trkpt lat="43.10886" lon="0.79575">
        <ele>371.20001220703</ele>
        <time>2025-08-08T10:18:38.000Z</time>
      </trkpt>
      <trkpt lat="43.1088" lon="0.79572">
        <ele>371</ele>
        <time>2025-08-08T10:18:39.000Z</time>
      </trkpt>
      <trkpt lat="43.1086" lon="0.79564">
        <ele>371</ele>
        <time>2025-08-08T10:18:43.000Z</time>
      </trkpt>
      <trkpt lat="43.1084" lon="0.79557">
        <ele>371.20001220703</ele>
        <time>2025-08-08T10:18:48.000Z</time>
      </trkpt>
      <trkpt lat="43.10836" lon="0.79556">
        <ele>371.39999389648</ele>
        <time>2025-08-08T10:18:49.000Z</time>
      </trkpt>
      <trkpt lat="43.10832" lon="0.79554">
        <ele>371.39999389648</ele>
        <time>2025-08-08T10:18:50.000Z</time>
      </trkpt>
      <trkpt lat="43.10825" lon="0.7955">
        <ele>371.60000610352</ele>
        <time>2025-08-08T10:18:52.000Z</time>
      </trkpt>
      <trkpt lat="43.10822" lon="0.79546">
        <ele>371.60000610352</ele>
        <time>2025-08-08T10:18:53.000Z</time>
      </trkpt>
      <trkpt lat="43.10819" lon="0.79543">
        <ele>371.60000610352</ele>
        <time>2025-08-08T10:18:54.000Z</time>
      </trkpt>
      <trkpt lat="43.10806" lon="0.79519">
        <ele>371.60000610352</ele>
        <time>2025-08-08T10:18:59.000Z</time>
      </trkpt>
      <trkpt lat="43.10803" lon="0.79515">
        <ele>371.79998779297</ele>
        <time>2025-08-08T10:19:00.000Z</time>
      </trkpt>
      <trkpt lat="43.10788" lon="0.79483">
        <ele>372.39999389648</ele>
        <time>2025-08-08T10:19:07.000Z</time>
      </trkpt>
      <trkpt lat="43.1078" lon="0.79464">
        <ele>372.79998779297</ele>
        <time>2025-08-08T10:19:11.000Z</time>
      </trkpt>
      <trkpt lat="43.10775" lon="0.79449">
        <ele>372.79998779297</ele>
        <time>2025-08-08T10:19:14.000Z</time>
      </trkpt>
      <trkpt lat="43.10774" lon="0.79443">
        <ele>372.79998779297</ele>
        <time>2025-08-08T10:19:15.000Z</time>
      </trkpt>
      <trkpt lat="43.1077" lon="0.79415">
        <ele>373</ele>
        <time>2025-08-08T10:19:20.000Z</time>
      </trkpt>
      <trkpt lat="43.10764" lon="0.79365">
        <ele>373.79998779297</ele>
        <time>2025-08-08T10:19:29.000Z</time>
      </trkpt>
      <trkpt lat="43.10764" lon="0.7936">
        <ele>373.79998779297</ele>
        <time>2025-08-08T10:19:30.000Z</time>
      </trkpt>
      <trkpt lat="43.10756" lon="0.7931">
        <ele>374.20001220703</ele>
        <time>2025-08-08T10:19:39.000Z</time>
      </trkpt>
      <trkpt lat="43.10741" lon="0.79265">
        <ele>374.79998779297</ele>
        <time>2025-08-08T10:19:49.000Z</time>
      </trkpt>
      <trkpt lat="43.10729" lon="0.79229">
        <ele>375.60000610352</ele>
        <time>2025-08-08T10:19:57.000Z</time>
      </trkpt>
      <trkpt lat="43.10727" lon="0.7922">
        <ele>376</ele>
        <time>2025-08-08T10:19:59.000Z</time>
      </trkpt>
      <trkpt lat="43.10715" lon="0.79184">
        <ele>376.39999389648</ele>
        <time>2025-08-08T10:20:07.000Z</time>
      </trkpt>
      <trkpt lat="43.10704" lon="0.79151">
        <ele>377</ele>
        <time>2025-08-08T10:20:14.000Z</time>
      </trkpt>
      <trkpt lat="43.10693" lon="0.79104">
        <ele>377</ele>
        <time>2025-08-08T10:20:23.000Z</time>
      </trkpt>
      <trkpt lat="43.10687" lon="0.79066">
        <ele>377.20001220703</ele>
        <time>2025-08-08T10:20:30.000Z</time>
      </trkpt>
      <trkpt lat="43.10683" lon="0.7905">
        <ele>377.20001220703</ele>
        <time>2025-08-08T10:20:33.000Z</time>
      </trkpt>
      <trkpt lat="43.10679" lon="0.79034">
        <ele>377.20001220703</ele>
        <time>2025-08-08T10:20:36.000Z</time>
      </trkpt>
      <trkpt lat="43.10675" lon="0.79013">
        <ele>377.60000610352</ele>
        <time>2025-08-08T10:20:40.000Z</time>
      </trkpt>
      <trkpt lat="43.10659" lon="0.78958">
        <ele>377.79998779297</ele>
        <time>2025-08-08T10:20:50.000Z</time>
      </trkpt>
      <trkpt lat="43.10656" lon="0.78948">
        <ele>377.60000610352</ele>
        <time>2025-08-08T10:20:52.000Z</time>
      </trkpt>
      <trkpt lat="43.10641" lon="0.789">
        <ele>377.39999389648</ele>
        <time>2025-08-08T10:21:01.000Z</time>
      </trkpt>
      <trkpt lat="43.10629" lon="0.78856">
        <ele>377.39999389648</ele>
        <time>2025-08-08T10:21:09.000Z</time>
      </trkpt>
      <trkpt lat="43.10628" lon="0.7885">
        <ele>377.39999389648</ele>
        <time>2025-08-08T10:21:10.000Z</time>
      </trkpt>
      <trkpt lat="43.10627" lon="0.78844">
        <ele>377.39999389648</ele>
        <time>2025-08-08T10:21:11.000Z</time>
      </trkpt>
      <trkpt lat="43.10622" lon="0.78814">
        <ele>377.39999389648</ele>
        <time>2025-08-08T10:21:16.000Z</time>
      </trkpt>
      <trkpt lat="43.10614" lon="0.78773">
        <ele>377</ele>
        <time>2025-08-08T10:21:23.000Z</time>
      </trkpt>
      <trkpt lat="43.10606" lon="0.78732">
        <ele>377.39999389648</ele>
        <time>2025-08-08T10:21:30.000Z</time>
      </trkpt>
      <trkpt lat="43.10605" lon="0.78726">
        <ele>377.60000610352</ele>
        <time>2025-08-08T10:21:31.000Z</time>
      </trkpt>
      <trkpt lat="43.10597" lon="0.78692">
        <ele>377.79998779297</ele>
        <time>2025-08-08T10:21:37.000Z</time>
      </trkpt>
      <trkpt lat="43.1059" lon="0.78677">
        <ele>378</ele>
        <time>2025-08-08T10:21:40.000Z</time>
      </trkpt>
      <trkpt lat="43.10583" lon="0.78663">
        <ele>378</ele>
        <time>2025-08-08T10:21:43.000Z</time>
      </trkpt>
      <trkpt lat="43.10573" lon="0.78651">
        <ele>378</ele>
        <time>2025-08-08T10:21:46.000Z</time>
      </trkpt>
      <trkpt lat="43.10563" lon="0.78639">
        <ele>378</ele>
        <time>2025-08-08T10:21:49.000Z</time>
      </trkpt>
      <trkpt lat="43.10554" lon="0.78625">
        <ele>378.20001220703</ele>
        <time>2025-08-08T10:21:52.000Z</time>
      </trkpt>
      <trkpt lat="43.1055" lon="0.78615">
        <ele>378.20001220703</ele>
        <time>2025-08-08T10:21:54.000Z</time>
      </trkpt>
      <trkpt lat="43.10548" lon="0.78609">
        <ele>378.39999389648</ele>
        <time>2025-08-08T10:21:55.000Z</time>
      </trkpt>
      <trkpt lat="43.10547" lon="0.78603">
        <ele>378.39999389648</ele>
        <time>2025-08-08T10:21:56.000Z</time>
      </trkpt>
      <trkpt lat="43.10543" lon="0.78574">
        <ele>378.20001220703</ele>
        <time>2025-08-08T10:22:02.000Z</time>
      </trkpt>
      <trkpt lat="43.10537" lon="0.7855">
        <ele>378.20001220703</ele>
        <time>2025-08-08T10:22:07.000Z</time>
      </trkpt>
      <trkpt lat="43.10524" lon="0.78547">
        <ele>378.20001220703</ele>
        <time>2025-08-08T10:22:11.000Z</time>
      </trkpt>
      <trkpt lat="43.10499" lon="0.78555">
        <ele>377.79998779297</ele>
        <time>2025-08-08T10:22:17.000Z</time>
      </trkpt>
      <trkpt lat="43.10491" lon="0.78558">
        <ele>377.79998779297</ele>
        <time>2025-08-08T10:22:19.000Z</time>
      </trkpt>
      <trkpt lat="43.10478" lon="0.78563">
        <ele>377.79998779297</ele>
        <time>2025-08-08T10:22:22.000Z</time>
      </trkpt>
      <trkpt lat="43.1047" lon="0.78565">
        <ele>377.60000610352</ele>
        <time>2025-08-08T10:22:24.000Z</time>
      </trkpt>
      <trkpt lat="43.10465" lon="0.78566">
        <ele>377.60000610352</ele>
        <time>2025-08-08T10:22:25.000Z</time>
      </trkpt>
      <trkpt lat="43.10448" lon="0.78572">
        <ele>377.39999389648</ele>
        <time>2025-08-08T10:22:29.000Z</time>
      </trkpt>
      <trkpt lat="43.1044" lon="0.78572">
        <ele>377.39999389648</ele>
        <time>2025-08-08T10:22:31.000Z</time>
      </trkpt>
      <trkpt lat="43.10436" lon="0.78571">
        <ele>377.60000610352</ele>
        <time>2025-08-08T10:22:32.000Z</time>
      </trkpt>
      <trkpt lat="43.10426" lon="0.78565">
        <ele>377.60000610352</ele>
        <time>2025-08-08T10:22:35.000Z</time>
      </trkpt>
      <trkpt lat="43.10413" lon="0.78556">
        <ele>377.60000610352</ele>
        <time>2025-08-08T10:22:39.000Z</time>
      </trkpt>
      <trkpt lat="43.10394" lon="0.78552">
        <ele>377.79998779297</ele>
        <time>2025-08-08T10:22:44.000Z</time>
      </trkpt>
      <trkpt lat="43.10376" lon="0.78557">
        <ele>377.79998779297</ele>
        <time>2025-08-08T10:22:48.000Z</time>
      </trkpt>
      <trkpt lat="43.10371" lon="0.78557">
        <ele>377.79998779297</ele>
        <time>2025-08-08T10:22:49.000Z</time>
      </trkpt>
      <trkpt lat="43.10367" lon="0.78554">
        <ele>377.79998779297</ele>
        <time>2025-08-08T10:22:50.000Z</time>
      </trkpt>
      <trkpt lat="43.10362" lon="0.78544">
        <ele>377.79998779297</ele>
        <time>2025-08-08T10:22:52.000Z</time>
      </trkpt>
      <trkpt lat="43.10361" lon="0.78532">
        <ele>377.79998779297</ele>
        <time>2025-08-08T10:22:54.000Z</time>
      </trkpt>
      <trkpt lat="43.10362" lon="0.78515">
        <ele>377.60000610352</ele>
        <time>2025-08-08T10:22:57.000Z</time>
      </trkpt>
      <trkpt lat="43.10364" lon="0.78479">
        <ele>377.79998779297</ele>
        <time>2025-08-08T10:23:04.000Z</time>
      </trkpt>
      <trkpt lat="43.10366" lon="0.78448">
        <ele>378.20001220703</ele>
        <time>2025-08-08T10:23:10.000Z</time>
      </trkpt>
      <trkpt lat="43.10366" lon="0.78426">
        <ele>378.39999389648</ele>
        <time>2025-08-08T10:23:14.000Z</time>
      </trkpt>
      <trkpt lat="43.10369" lon="0.78408">
        <ele>378.39999389648</ele>
        <time>2025-08-08T10:23:17.000Z</time>
      </trkpt>
      <trkpt lat="43.10375" lon="0.78398">
        <ele>378.39999389648</ele>
        <time>2025-08-08T10:23:19.000Z</time>
      </trkpt>
      <trkpt lat="43.10384" lon="0.78391">
        <ele>378.39999389648</ele>
        <time>2025-08-08T10:23:21.000Z</time>
      </trkpt>
      <trkpt lat="43.10413" lon="0.7837">
        <ele>378.20001220703</ele>
        <time>2025-08-08T10:23:27.000Z</time>
      </trkpt>
      <trkpt lat="43.10434" lon="0.78354">
        <ele>378</ele>
        <time>2025-08-08T10:23:32.000Z</time>
      </trkpt>
      <trkpt lat="43.10438" lon="0.7835">
        <ele>378</ele>
        <time>2025-08-08T10:23:33.000Z</time>
      </trkpt>
      <trkpt lat="43.10457" lon="0.78326">
        <ele>378</ele>
        <time>2025-08-08T10:23:39.000Z</time>
      </trkpt>
      <trkpt lat="43.10459" lon="0.78322">
        <ele>378</ele>
        <time>2025-08-08T10:23:40.000Z</time>
      </trkpt>
      <trkpt lat="43.10465" lon="0.78306">
        <ele>378</ele>
        <time>2025-08-08T10:23:43.000Z</time>
      </trkpt>
      <trkpt lat="43.10466" lon="0.78301">
        <ele>378</ele>
        <time>2025-08-08T10:23:44.000Z</time>
      </trkpt>
      <trkpt lat="43.10469" lon="0.7828">
        <ele>378</ele>
        <time>2025-08-08T10:23:48.000Z</time>
      </trkpt>
      <trkpt lat="43.10471" lon="0.78265">
        <ele>378</ele>
        <time>2025-08-08T10:23:51.000Z</time>
      </trkpt>
      <trkpt lat="43.10471" lon="0.78252">
        <ele>378.20001220703</ele>
        <time>2025-08-08T10:23:54.000Z</time>
      </trkpt>
      <trkpt lat="43.10472" lon="0.78221">
        <ele>379.20001220703</ele>
        <time>2025-08-08T10:24:01.000Z</time>
      </trkpt>
      <trkpt lat="43.10469" lon="0.78192">
        <ele>380.20001220703</ele>
        <time>2025-08-08T10:24:08.000Z</time>
      </trkpt>
      <trkpt lat="43.10469" lon="0.78188">
        <ele>380.39999389648</ele>
        <time>2025-08-08T10:24:09.000Z</time>
      </trkpt>
      <trkpt lat="43.10463" lon="0.78144">
        <ele>381</ele>
        <time>2025-08-08T10:24:19.000Z</time>
      </trkpt>
      <trkpt lat="43.10459" lon="0.78107">
        <ele>380.20001220703</ele>
        <time>2025-08-08T10:24:26.000Z</time>
      </trkpt>
      <trkpt lat="43.10459" lon="0.78076">
        <ele>379</ele>
        <time>2025-08-08T10:24:30.000Z</time>
      </trkpt>
      <trkpt lat="43.10458" lon="0.78068">
        <ele>378.79998779297</ele>
        <time>2025-08-08T10:24:31.000Z</time>
      </trkpt>
      <trkpt lat="43.10458" lon="0.78059">
        <ele>377.79998779297</ele>
        <time>2025-08-08T10:24:32.000Z</time>
      </trkpt>
      <trkpt lat="43.10454" lon="0.78041">
        <ele>376.79998779297</ele>
        <time>2025-08-08T10:24:34.000Z</time>
      </trkpt>
      <trkpt lat="43.10453" lon="0.7803">
        <ele>376.60000610352</ele>
        <time>2025-08-08T10:24:35.000Z</time>
      </trkpt>
      <trkpt lat="43.10452" lon="0.7802">
        <ele>376</ele>
        <time>2025-08-08T10:24:36.000Z</time>
      </trkpt>
      <trkpt lat="43.10453" lon="0.78009">
        <ele>375</ele>
        <time>2025-08-08T10:24:37.000Z</time>
      </trkpt>
      <trkpt lat="43.10457" lon="0.77986">
        <ele>373.79998779297</ele>
        <time>2025-08-08T10:24:39.000Z</time>
      </trkpt>
      <trkpt lat="43.10463" lon="0.77964">
        <ele>372.20001220703</ele>
        <time>2025-08-08T10:24:41.000Z</time>
      </trkpt>
      <trkpt lat="43.1047" lon="0.77943">
        <ele>371</ele>
        <time>2025-08-08T10:24:43.000Z</time>
      </trkpt>
      <trkpt lat="43.10472" lon="0.77932">
        <ele>370.20001220703</ele>
        <time>2025-08-08T10:24:44.000Z</time>
      </trkpt>
      <trkpt lat="43.10474" lon="0.77922">
        <ele>369.79998779297</ele>
        <time>2025-08-08T10:24:45.000Z</time>
      </trkpt>
      <trkpt lat="43.10475" lon="0.77911">
        <ele>369.39999389648</ele>
        <time>2025-08-08T10:24:46.000Z</time>
      </trkpt>
      <trkpt lat="43.10474" lon="0.77886">
        <ele>368.79998779297</ele>
        <time>2025-08-08T10:24:48.000Z</time>
      </trkpt>
      <trkpt lat="43.10473" lon="0.77873">
        <ele>367.79998779297</ele>
        <time>2025-08-08T10:24:49.000Z</time>
      </trkpt>
      <trkpt lat="43.1047" lon="0.77849">
        <ele>366.60000610352</ele>
        <time>2025-08-08T10:24:51.000Z</time>
      </trkpt>
      <trkpt lat="43.10466" lon="0.77826">
        <ele>365</ele>
        <time>2025-08-08T10:24:53.000Z</time>
      </trkpt>
      <trkpt lat="43.10465" lon="0.77815">
        <ele>364.39999389648</ele>
        <time>2025-08-08T10:24:54.000Z</time>
      </trkpt>
      <trkpt lat="43.10465" lon="0.77804">
        <ele>363</ele>
        <time>2025-08-08T10:24:55.000Z</time>
      </trkpt>
      <trkpt lat="43.10467" lon="0.77793">
        <ele>362</ele>
        <time>2025-08-08T10:24:56.000Z</time>
      </trkpt>
      <trkpt lat="43.10469" lon="0.77783">
        <ele>361.60000610352</ele>
        <time>2025-08-08T10:24:57.000Z</time>
      </trkpt>
      <trkpt lat="43.10473" lon="0.77774">
        <ele>361</ele>
        <time>2025-08-08T10:24:58.000Z</time>
      </trkpt>
      <trkpt lat="43.10478" lon="0.77766">
        <ele>360.60000610352</ele>
        <time>2025-08-08T10:24:59.000Z</time>
      </trkpt>
      <trkpt lat="43.10485" lon="0.77751">
        <ele>359.79998779297</ele>
        <time>2025-08-08T10:25:01.000Z</time>
      </trkpt>
      <trkpt lat="43.10489" lon="0.77744">
        <ele>359.60000610352</ele>
        <time>2025-08-08T10:25:02.000Z</time>
      </trkpt>
      <trkpt lat="43.10505" lon="0.77712">
        <ele>359</ele>
        <time>2025-08-08T10:25:07.000Z</time>
      </trkpt>
      <trkpt lat="43.10519" lon="0.77685">
        <ele>358.60000610352</ele>
        <time>2025-08-08T10:25:12.000Z</time>
      </trkpt>
      <trkpt lat="43.1052" lon="0.77681">
        <ele>358.60000610352</ele>
        <time>2025-08-08T10:25:13.000Z</time>
      </trkpt>
      <trkpt lat="43.10519" lon="0.77675">
        <ele>358.60000610352</ele>
        <time>2025-08-08T10:25:14.000Z</time>
      </trkpt>
      <trkpt lat="43.10514" lon="0.77667">
        <ele>358.60000610352</ele>
        <time>2025-08-08T10:25:16.000Z</time>
      </trkpt>
      <trkpt lat="43.10496" lon="0.77648">
        <ele>358.79998779297</ele>
        <time>2025-08-08T10:25:22.000Z</time>
      </trkpt>
      <trkpt lat="43.10496" lon="0.77638">
        <ele>358.79998779297</ele>
        <time>2025-08-08T10:25:24.000Z</time>
      </trkpt>
      <trkpt lat="43.10498" lon="0.77635">
        <ele>358.79998779297</ele>
        <time>2025-08-08T10:25:25.000Z</time>
      </trkpt>
      <trkpt lat="43.10508" lon="0.7761">
        <ele>358.79998779297</ele>
        <time>2025-08-08T10:25:30.000Z</time>
      </trkpt>
      <trkpt lat="43.10523" lon="0.77581">
        <ele>359</ele>
        <time>2025-08-08T10:25:37.000Z</time>
      </trkpt>
      <trkpt lat="43.10539" lon="0.77549">
        <ele>359.20001220703</ele>
        <time>2025-08-08T10:25:44.000Z</time>
      </trkpt>
      <trkpt lat="43.1056" lon="0.77505">
        <ele>359.20001220703</ele>
        <time>2025-08-08T10:25:53.000Z</time>
      </trkpt>
      <trkpt lat="43.10563" lon="0.775">
        <ele>359.20001220703</ele>
        <time>2025-08-08T10:25:54.000Z</time>
      </trkpt>
      <trkpt lat="43.10577" lon="0.77471">
        <ele>358.79998779297</ele>
        <time>2025-08-08T10:25:59.000Z</time>
      </trkpt>
      <trkpt lat="43.10589" lon="0.77453">
        <ele>358.79998779297</ele>
        <time>2025-08-08T10:26:02.000Z</time>
      </trkpt>
      <trkpt lat="43.10598" lon="0.77439">
        <ele>358.39999389648</ele>
        <time>2025-08-08T10:26:04.000Z</time>
      </trkpt>
      <trkpt lat="43.10603" lon="0.77431">
        <ele>358.20001220703</ele>
        <time>2025-08-08T10:26:05.000Z</time>
      </trkpt>
      <trkpt lat="43.10618" lon="0.77406">
        <ele>357.39999389648</ele>
        <time>2025-08-08T10:26:08.000Z</time>
      </trkpt>
      <trkpt lat="43.10634" lon="0.77376">
        <ele>355.79998779297</ele>
        <time>2025-08-08T10:26:11.000Z</time>
      </trkpt>
      <trkpt lat="43.1065" lon="0.77342">
        <ele>354.60000610352</ele>
        <time>2025-08-08T10:26:14.000Z</time>
      </trkpt>
      <trkpt lat="43.10659" lon="0.77319">
        <ele>353.39999389648</ele>
        <time>2025-08-08T10:26:16.000Z</time>
      </trkpt>
      <trkpt lat="43.10662" lon="0.77307">
        <ele>353</ele>
        <time>2025-08-08T10:26:17.000Z</time>
      </trkpt>
      <trkpt lat="43.10662" lon="0.7728">
        <ele>351.79998779297</ele>
        <time>2025-08-08T10:26:19.000Z</time>
      </trkpt>
      <trkpt lat="43.10657" lon="0.77254">
        <ele>350.79998779297</ele>
        <time>2025-08-08T10:26:21.000Z</time>
      </trkpt>
      <trkpt lat="43.10656" lon="0.77241">
        <ele>350</ele>
        <time>2025-08-08T10:26:22.000Z</time>
      </trkpt>
      <trkpt lat="43.10656" lon="0.77229">
        <ele>349</ele>
        <time>2025-08-08T10:26:23.000Z</time>
      </trkpt>
      <trkpt lat="43.10657" lon="0.77203">
        <ele>347.79998779297</ele>
        <time>2025-08-08T10:26:25.000Z</time>
      </trkpt>
      <trkpt lat="43.10661" lon="0.77158">
        <ele>347.20001220703</ele>
        <time>2025-08-08T10:26:29.000Z</time>
      </trkpt>
      <trkpt lat="43.10662" lon="0.7715">
        <ele>347</ele>
        <time>2025-08-08T10:26:30.000Z</time>
      </trkpt>
      <trkpt lat="43.10667" lon="0.77106">
        <ele>346.79998779297</ele>
        <time>2025-08-08T10:26:35.000Z</time>
      </trkpt>
      <trkpt lat="43.10672" lon="0.77054">
        <ele>346.79998779297</ele>
        <time>2025-08-08T10:26:42.000Z</time>
      </trkpt>
      <trkpt lat="43.10673" lon="0.77042">
        <ele>346.79998779297</ele>
        <time>2025-08-08T10:26:44.000Z</time>
      </trkpt>
      <trkpt lat="43.10676" lon="0.77007">
        <ele>346.60000610352</ele>
        <time>2025-08-08T10:26:49.000Z</time>
      </trkpt>
      <trkpt lat="43.1068" lon="0.76959">
        <ele>346</ele>
        <time>2025-08-08T10:26:56.000Z</time>
      </trkpt>
      <trkpt lat="43.10681" lon="0.76953">
        <ele>346</ele>
        <time>2025-08-08T10:26:57.000Z</time>
      </trkpt>
      <trkpt lat="43.10685" lon="0.76909">
        <ele>345</ele>
        <time>2025-08-08T10:27:04.000Z</time>
      </trkpt>
      <trkpt lat="43.10686" lon="0.76902">
        <ele>344.79998779297</ele>
        <time>2025-08-08T10:27:05.000Z</time>
      </trkpt>
      <trkpt lat="43.10693" lon="0.76828">
        <ele>344.20001220703</ele>
        <time>2025-08-08T10:27:17.000Z</time>
      </trkpt>
      <trkpt lat="43.10694" lon="0.76821">
        <ele>344.20001220703</ele>
        <time>2025-08-08T10:27:18.000Z</time>
      </trkpt>
      <trkpt lat="43.10699" lon="0.76768">
        <ele>344.39999389648</ele>
        <time>2025-08-08T10:27:27.000Z</time>
      </trkpt>
      <trkpt lat="43.10704" lon="0.7671">
        <ele>344.60000610352</ele>
        <time>2025-08-08T10:27:37.000Z</time>
      </trkpt>
      <trkpt lat="43.10706" lon="0.76692">
        <ele>344.60000610352</ele>
        <time>2025-08-08T10:27:40.000Z</time>
      </trkpt>
      <trkpt lat="43.10708" lon="0.76668">
        <ele>344.79998779297</ele>
        <time>2025-08-08T10:27:44.000Z</time>
      </trkpt>
      <trkpt lat="43.10709" lon="0.76657">
        <ele>344.79998779297</ele>
        <time>2025-08-08T10:27:46.000Z</time>
      </trkpt>
      <trkpt lat="43.10712" lon="0.76627">
        <ele>345</ele>
        <time>2025-08-08T10:27:51.000Z</time>
      </trkpt>
      <trkpt lat="43.10714" lon="0.7658">
        <ele>346</ele>
        <time>2025-08-08T10:27:59.000Z</time>
      </trkpt>
      <trkpt lat="43.10715" lon="0.76574">
        <ele>346.20001220703</ele>
        <time>2025-08-08T10:28:00.000Z</time>
      </trkpt>
      <trkpt lat="43.10718" lon="0.76541">
        <ele>346.79998779297</ele>
        <time>2025-08-08T10:28:06.000Z</time>
      </trkpt>
      <trkpt lat="43.10718" lon="0.76535">
        <ele>347</ele>
        <time>2025-08-08T10:28:07.000Z</time>
      </trkpt>
      <trkpt lat="43.10717" lon="0.76515">
        <ele>347.20001220703</ele>
        <time>2025-08-08T10:28:11.000Z</time>
      </trkpt>
      <trkpt lat="43.10714" lon="0.76493">
        <ele>347.20001220703</ele>
        <time>2025-08-08T10:28:15.000Z</time>
      </trkpt>
      <trkpt lat="43.10708" lon="0.76445">
        <ele>348.20001220703</ele>
        <time>2025-08-08T10:28:24.000Z</time>
      </trkpt>
      <trkpt lat="43.10707" lon="0.76429">
        <ele>348.20001220703</ele>
        <time>2025-08-08T10:28:27.000Z</time>
      </trkpt>
      <trkpt lat="43.10705" lon="0.76408">
        <ele>348.39999389648</ele>
        <time>2025-08-08T10:28:31.000Z</time>
      </trkpt>
      <trkpt lat="43.10699" lon="0.76347">
        <ele>348.60000610352</ele>
        <time>2025-08-08T10:28:42.000Z</time>
      </trkpt>
      <trkpt lat="43.10693" lon="0.76295">
        <ele>348.39999389648</ele>
        <time>2025-08-08T10:28:51.000Z</time>
      </trkpt>
      <trkpt lat="43.1069" lon="0.76252">
        <ele>348.39999389648</ele>
        <time>2025-08-08T10:28:58.000Z</time>
      </trkpt>
      <trkpt lat="43.10689" lon="0.7624">
        <ele>348.60000610352</ele>
        <time>2025-08-08T10:29:00.000Z</time>
      </trkpt>
      <trkpt lat="43.10687" lon="0.76185">
        <ele>348.60000610352</ele>
        <time>2025-08-08T10:29:09.000Z</time>
      </trkpt>
      <trkpt lat="43.10685" lon="0.76131">
        <ele>348.39999389648</ele>
        <time>2025-08-08T10:29:18.000Z</time>
      </trkpt>
      <trkpt lat="43.10685" lon="0.7607">
        <ele>348.39999389648</ele>
        <time>2025-08-08T10:29:28.000Z</time>
      </trkpt>
      <trkpt lat="43.10683" lon="0.76024">
        <ele>348.60000610352</ele>
        <time>2025-08-08T10:29:36.000Z</time>
      </trkpt>
      <trkpt lat="43.10682" lon="0.75972">
        <ele>349</ele>
        <time>2025-08-08T10:29:45.000Z</time>
      </trkpt>
      <trkpt lat="43.10681" lon="0.75923">
        <ele>349.20001220703</ele>
        <time>2025-08-08T10:29:53.000Z</time>
      </trkpt>
      <trkpt lat="43.10681" lon="0.75891">
        <ele>349.20001220703</ele>
        <time>2025-08-08T10:29:58.000Z</time>
      </trkpt>
      <trkpt lat="43.10681" lon="0.75866">
        <ele>349.39999389648</ele>
        <time>2025-08-08T10:30:02.000Z</time>
      </trkpt>
      <trkpt lat="43.10679" lon="0.75816">
        <ele>350</ele>
        <time>2025-08-08T10:30:11.000Z</time>
      </trkpt>
      <trkpt lat="43.10679" lon="0.758">
        <ele>350.39999389648</ele>
        <time>2025-08-08T10:30:15.000Z</time>
      </trkpt>
      <trkpt lat="43.10679" lon="0.75797">
        <ele>350.39999389648</ele>
        <time>2025-08-08T10:30:16.000Z</time>
      </trkpt>
      <trkpt lat="43.10679" lon="0.75783">
        <ele>351.39999389648</ele>
        <time>2025-08-08T10:30:21.000Z</time>
      </trkpt>
      <trkpt lat="43.10679" lon="0.75777">
        <ele>351.79998779297</ele>
        <time>2025-08-08T10:30:23.000Z</time>
      </trkpt>
      <trkpt lat="43.10678" lon="0.75769">
        <ele>352.60000610352</ele>
        <time>2025-08-08T10:30:26.000Z</time>
      </trkpt>
      <trkpt lat="43.10678" lon="0.75761">
        <ele>353.39999389648</ele>
        <time>2025-08-08T10:30:29.000Z</time>
      </trkpt>
      <trkpt lat="43.10678" lon="0.75756">
        <ele>353.60000610352</ele>
        <time>2025-08-08T10:30:31.000Z</time>
      </trkpt>
      <trkpt lat="43.10679" lon="0.75748">
        <ele>354.20001220703</ele>
        <time>2025-08-08T10:30:34.000Z</time>
      </trkpt>
      <trkpt lat="43.10682" lon="0.75745">
        <ele>354.79998779297</ele>
        <time>2025-08-08T10:30:36.000Z</time>
      </trkpt>
      <trkpt lat="43.10681" lon="0.75739">
        <ele>355.39999389648</ele>
        <time>2025-08-08T10:30:39.000Z</time>
      </trkpt>
      <trkpt lat="43.10684" lon="0.75735">
        <ele>355.79998779297</ele>
        <time>2025-08-08T10:30:42.000Z</time>
      </trkpt>
      <trkpt lat="43.10684" lon="0.75733">
        <ele>355.79998779297</ele>
        <time>2025-08-08T10:30:43.000Z</time>
      </trkpt>
      <trkpt lat="43.10683" lon="0.75731">
        <ele>355.79998779297</ele>
        <time>2025-08-08T10:30:44.000Z</time>
      </trkpt>
      <trkpt lat="43.10684" lon="0.75728">
        <ele>356.39999389648</ele>
        <time>2025-08-08T10:30:45.000Z</time>
      </trkpt>
      <trkpt lat="43.10686" lon="0.75726">
        <ele>356.60000610352</ele>
        <time>2025-08-08T10:30:47.000Z</time>
      </trkpt>
      <trkpt lat="43.10687" lon="0.75722">
        <ele>356.79998779297</ele>
        <time>2025-08-08T10:30:49.000Z</time>
      </trkpt>
      <trkpt lat="43.10687" lon="0.7572">
        <ele>357</ele>
        <time>2025-08-08T10:30:50.000Z</time>
      </trkpt>
      <trkpt lat="43.10692" lon="0.75715">
        <ele>357.60000610352</ele>
        <time>2025-08-08T10:30:53.000Z</time>
      </trkpt>
      <trkpt lat="43.10693" lon="0.75713">
        <ele>357.79998779297</ele>
        <time>2025-08-08T10:30:54.000Z</time>
      </trkpt>
      <trkpt lat="43.10693" lon="0.75711">
        <ele>358</ele>
        <time>2025-08-08T10:30:55.000Z</time>
      </trkpt>
      <trkpt lat="43.10696" lon="0.75709">
        <ele>358.39999389648</ele>
        <time>2025-08-08T10:30:57.000Z</time>
      </trkpt>
      <trkpt lat="43.10698" lon="0.75708">
        <ele>358.39999389648</ele>
        <time>2025-08-08T10:30:58.000Z</time>
      </trkpt>
      <trkpt lat="43.10698" lon="0.75704">
        <ele>359</ele>
        <time>2025-08-08T10:31:00.000Z</time>
      </trkpt>
      <trkpt lat="43.10699" lon="0.75702">
        <ele>359.20001220703</ele>
        <time>2025-08-08T10:31:01.000Z</time>
      </trkpt>
      <trkpt lat="43.10702" lon="0.75702">
        <ele>359.39999389648</ele>
        <time>2025-08-08T10:31:03.000Z</time>
      </trkpt>
      <trkpt lat="43.10703" lon="0.75698">
        <ele>359.79998779297</ele>
        <time>2025-08-08T10:31:05.000Z</time>
      </trkpt>
      <trkpt lat="43.10703" lon="0.75696">
        <ele>360</ele>
        <time>2025-08-08T10:31:06.000Z</time>
      </trkpt>
      <trkpt lat="43.10705" lon="0.75695">
        <ele>360.20001220703</ele>
        <time>2025-08-08T10:31:07.000Z</time>
      </trkpt>
      <trkpt lat="43.10708" lon="0.75694">
        <ele>360.79998779297</ele>
        <time>2025-08-08T10:31:09.000Z</time>
      </trkpt>
      <trkpt lat="43.1071" lon="0.75691">
        <ele>361.39999389648</ele>
        <time>2025-08-08T10:31:11.000Z</time>
      </trkpt>
      <trkpt lat="43.10711" lon="0.75689">
        <ele>361.60000610352</ele>
        <time>2025-08-08T10:31:12.000Z</time>
      </trkpt>
      <trkpt lat="43.10717" lon="0.75689">
        <ele>361.79998779297</ele>
        <time>2025-08-08T10:31:15.000Z</time>
      </trkpt>
      <trkpt lat="43.1072" lon="0.75681">
        <ele>362.39999389648</ele>
        <time>2025-08-08T10:31:19.000Z</time>
      </trkpt>
      <trkpt lat="43.10722" lon="0.75676">
        <ele>362.60000610352</ele>
        <time>2025-08-08T10:31:21.000Z</time>
      </trkpt>
      <trkpt lat="43.10728" lon="0.75655">
        <ele>362.79998779297</ele>
        <time>2025-08-08T10:31:29.000Z</time>
      </trkpt>
      <trkpt lat="43.10727" lon="0.75632">
        <ele>363</ele>
        <time>2025-08-08T10:31:35.000Z</time>
      </trkpt>
      <trkpt lat="43.10725" lon="0.7561">
        <ele>363.20001220703</ele>
        <time>2025-08-08T10:31:41.000Z</time>
      </trkpt>
      <trkpt lat="43.10727" lon="0.75584">
        <ele>363.39999389648</ele>
        <time>2025-08-08T10:31:48.000Z</time>
      </trkpt>
      <trkpt lat="43.1073" lon="0.75577">
        <ele>363.39999389648</ele>
        <time>2025-08-08T10:31:50.000Z</time>
      </trkpt>
      <trkpt lat="43.10736" lon="0.75563">
        <ele>363.39999389648</ele>
        <time>2025-08-08T10:31:53.000Z</time>
      </trkpt>
      <trkpt lat="43.10738" lon="0.75558">
        <ele>363.39999389648</ele>
        <time>2025-08-08T10:31:54.000Z</time>
      </trkpt>
      <trkpt lat="43.10748" lon="0.75537">
        <ele>363.39999389648</ele>
        <time>2025-08-08T10:31:57.000Z</time>
      </trkpt>
      <trkpt lat="43.10753" lon="0.75522">
        <ele>362.79998779297</ele>
        <time>2025-08-08T10:31:59.000Z</time>
      </trkpt>
      <trkpt lat="43.10754" lon="0.75513">
        <ele>362.20001220703</ele>
        <time>2025-08-08T10:32:00.000Z</time>
      </trkpt>
      <trkpt lat="43.10753" lon="0.75502">
        <ele>361.39999389648</ele>
        <time>2025-08-08T10:32:01.000Z</time>
      </trkpt>
      <trkpt lat="43.10751" lon="0.75492">
        <ele>360.79998779297</ele>
        <time>2025-08-08T10:32:02.000Z</time>
      </trkpt>
      <trkpt lat="43.10747" lon="0.75483">
        <ele>360.20001220703</ele>
        <time>2025-08-08T10:32:03.000Z</time>
      </trkpt>
      <trkpt lat="43.10743" lon="0.75473">
        <ele>359.79998779297</ele>
        <time>2025-08-08T10:32:04.000Z</time>
      </trkpt>
      <trkpt lat="43.10738" lon="0.75466">
        <ele>358.79998779297</ele>
        <time>2025-08-08T10:32:05.000Z</time>
      </trkpt>
      <trkpt lat="43.10731" lon="0.75454">
        <ele>357.60000610352</ele>
        <time>2025-08-08T10:32:06.000Z</time>
      </trkpt>
      <trkpt lat="43.10719" lon="0.75433">
        <ele>356.20001220703</ele>
        <time>2025-08-08T10:32:08.000Z</time>
      </trkpt>
      <trkpt lat="43.10704" lon="0.754">
        <ele>355</ele>
        <time>2025-08-08T10:32:11.000Z</time>
      </trkpt>
      <trkpt lat="43.10696" lon="0.75378">
        <ele>353.79998779297</ele>
        <time>2025-08-08T10:32:13.000Z</time>
      </trkpt>
      <trkpt lat="43.10685" lon="0.75345">
        <ele>352.79998779297</ele>
        <time>2025-08-08T10:32:16.000Z</time>
      </trkpt>
      <trkpt lat="43.10682" lon="0.75334">
        <ele>352.39999389648</ele>
        <time>2025-08-08T10:32:17.000Z</time>
      </trkpt>
      <trkpt lat="43.10677" lon="0.75313">
        <ele>351.60000610352</ele>
        <time>2025-08-08T10:32:19.000Z</time>
      </trkpt>
      <trkpt lat="43.10674" lon="0.75292">
        <ele>351</ele>
        <time>2025-08-08T10:32:21.000Z</time>
      </trkpt>
      <trkpt lat="43.10669" lon="0.75252">
        <ele>350.60000610352</ele>
        <time>2025-08-08T10:32:25.000Z</time>
      </trkpt>
      <trkpt lat="43.10668" lon="0.75245">
        <ele>350</ele>
        <time>2025-08-08T10:32:26.000Z</time>
      </trkpt>
      <trkpt lat="43.10665" lon="0.75225">
        <ele>349.60000610352</ele>
        <time>2025-08-08T10:32:28.000Z</time>
      </trkpt>
      <trkpt lat="43.10663" lon="0.75217">
        <ele>349.39999389648</ele>
        <time>2025-08-08T10:32:29.000Z</time>
      </trkpt>
      <trkpt lat="43.10661" lon="0.7521">
        <ele>349.39999389648</ele>
        <time>2025-08-08T10:32:30.000Z</time>
      </trkpt>
      <trkpt lat="43.10655" lon="0.75196">
        <ele>349.20001220703</ele>
        <time>2025-08-08T10:32:32.000Z</time>
      </trkpt>
      <trkpt lat="43.10644" lon="0.75179">
        <ele>349</ele>
        <time>2025-08-08T10:32:35.000Z</time>
      </trkpt>
      <trkpt lat="43.10634" lon="0.75164">
        <ele>348.79998779297</ele>
        <time>2025-08-08T10:32:38.000Z</time>
      </trkpt>
      <trkpt lat="43.10629" lon="0.75153">
        <ele>348.79998779297</ele>
        <time>2025-08-08T10:32:40.000Z</time>
      </trkpt>
      <trkpt lat="43.10624" lon="0.75142">
        <ele>349</ele>
        <time>2025-08-08T10:32:42.000Z</time>
      </trkpt>
      <trkpt lat="43.10622" lon="0.75129">
        <ele>349</ele>
        <time>2025-08-08T10:32:44.000Z</time>
      </trkpt>
      <trkpt lat="43.10621" lon="0.75122">
        <ele>349</ele>
        <time>2025-08-08T10:32:45.000Z</time>
      </trkpt>
      <trkpt lat="43.10621" lon="0.75058">
        <ele>349.60000610352</ele>
        <time>2025-08-08T10:32:55.000Z</time>
      </trkpt>
      <trkpt lat="43.1062" lon="0.75051">
        <ele>349.60000610352</ele>
        <time>2025-08-08T10:32:56.000Z</time>
      </trkpt>
      <trkpt lat="43.10618" lon="0.75038">
        <ele>349.79998779297</ele>
        <time>2025-08-08T10:32:58.000Z</time>
      </trkpt>
      <trkpt lat="43.10611" lon="0.75012">
        <ele>349.79998779297</ele>
        <time>2025-08-08T10:33:02.000Z</time>
      </trkpt>
      <trkpt lat="43.10603" lon="0.74982">
        <ele>350</ele>
        <time>2025-08-08T10:33:07.000Z</time>
      </trkpt>
      <trkpt lat="43.10599" lon="0.74971">
        <ele>350.20001220703</ele>
        <time>2025-08-08T10:33:09.000Z</time>
      </trkpt>
      <trkpt lat="43.10578" lon="0.74924">
        <ele>350.39999389648</ele>
        <time>2025-08-08T10:33:18.000Z</time>
      </trkpt>
      <trkpt lat="43.1056" lon="0.74892">
        <ele>350.60000610352</ele>
        <time>2025-08-08T10:33:25.000Z</time>
      </trkpt>
      <trkpt lat="43.10556" lon="0.74884">
        <ele>350.60000610352</ele>
        <time>2025-08-08T10:33:27.000Z</time>
      </trkpt>
      <trkpt lat="43.10543" lon="0.74863">
        <ele>350.60000610352</ele>
        <time>2025-08-08T10:33:32.000Z</time>
      </trkpt>
      <trkpt lat="43.1054" lon="0.74859">
        <ele>350.60000610352</ele>
        <time>2025-08-08T10:33:33.000Z</time>
      </trkpt>
      <trkpt lat="43.10522" lon="0.74835">
        <ele>350.60000610352</ele>
        <time>2025-08-08T10:33:39.000Z</time>
      </trkpt>
      <trkpt lat="43.10513" lon="0.74823">
        <ele>350.60000610352</ele>
        <time>2025-08-08T10:33:42.000Z</time>
      </trkpt>
      <trkpt lat="43.10506" lon="0.74816">
        <ele>350.60000610352</ele>
        <time>2025-08-08T10:33:44.000Z</time>
      </trkpt>
      <trkpt lat="43.10499" lon="0.74808">
        <ele>350.60000610352</ele>
        <time>2025-08-08T10:33:46.000Z</time>
      </trkpt>
      <trkpt lat="43.10473" lon="0.74782">
        <ele>350.20001220703</ele>
        <time>2025-08-08T10:33:53.000Z</time>
      </trkpt>
      <trkpt lat="43.1044" lon="0.74747">
        <ele>350</ele>
        <time>2025-08-08T10:34:02.000Z</time>
      </trkpt>
      <trkpt lat="43.10417" lon="0.74721">
        <ele>350</ele>
        <time>2025-08-08T10:34:09.000Z</time>
      </trkpt>
      <trkpt lat="43.10397" lon="0.74691">
        <ele>350.39999389648</ele>
        <time>2025-08-08T10:34:17.000Z</time>
      </trkpt>
      <trkpt lat="43.10403" lon="0.74689">
        <ele>350.39999389648</ele>
        <time>2025-08-08T10:34:20.000Z</time>
      </trkpt>
      <trkpt lat="43.10424" lon="0.74693">
        <ele>350.79998779297</ele>
        <time>2025-08-08T10:34:26.000Z</time>
      </trkpt>
      <trkpt lat="43.1044" lon="0.74684">
        <ele>351</ele>
        <time>2025-08-08T10:34:31.000Z</time>
      </trkpt>
      <trkpt lat="43.10442" lon="0.74666">
        <ele>351</ele>
        <time>2025-08-08T10:34:35.000Z</time>
      </trkpt>
      <trkpt lat="43.10438" lon="0.74638">
        <ele>351</ele>
        <time>2025-08-08T10:34:41.000Z</time>
      </trkpt>
      <trkpt lat="43.10438" lon="0.74612">
        <ele>351.20001220703</ele>
        <time>2025-08-08T10:34:47.000Z</time>
      </trkpt>
      <trkpt lat="43.10449" lon="0.7459">
        <ele>351.39999389648</ele>
        <time>2025-08-08T10:34:53.000Z</time>
      </trkpt>
      <trkpt lat="43.10477" lon="0.74558">
        <ele>349.79998779297</ele>
        <time>2025-08-08T10:35:03.000Z</time>
      </trkpt>
      <trkpt lat="43.10483" lon="0.74561">
        <ele>349.79998779297</ele>
        <time>2025-08-08T10:35:05.000Z</time>
      </trkpt>
      <trkpt lat="43.10489" lon="0.74562">
        <ele>349.79998779297</ele>
        <time>2025-08-08T10:35:07.000Z</time>
      </trkpt>
      <trkpt lat="43.1049" lon="0.74569">
        <ele>349.79998779297</ele>
        <time>2025-08-08T10:35:09.000Z</time>
      </trkpt>
      <trkpt lat="43.10478" lon="0.74577">
        <ele>350.79998779297</ele>
        <time>2025-08-08T10:35:14.000Z</time>
      </trkpt>
      <trkpt lat="43.10474" lon="0.74578">
        <ele>351.20001220703</ele>
        <time>2025-08-08T10:35:17.000Z</time>
      </trkpt>
      <trkpt lat="43.10472" lon="0.74577">
        <ele>351.39999389648</ele>
        <time>2025-08-08T10:35:18.000Z</time>
      </trkpt>
      <trkpt lat="43.10462" lon="0.74561">
        <ele>351.79998779297</ele>
        <time>2025-08-08T10:35:23.000Z</time>
      </trkpt>
      <trkpt lat="43.10445" lon="0.74534">
        <ele>351.79998779297</ele>
        <time>2025-08-08T10:35:30.000Z</time>
      </trkpt>
      <trkpt lat="43.1044" lon="0.74527">
        <ele>351.79998779297</ele>
        <time>2025-08-08T10:35:32.000Z</time>
      </trkpt>
      <trkpt lat="43.10424" lon="0.74509">
        <ele>351.79998779297</ele>
        <time>2025-08-08T10:35:37.000Z</time>
      </trkpt>
      <trkpt lat="43.10414" lon="0.74497">
        <ele>351.79998779297</ele>
        <time>2025-08-08T10:35:40.000Z</time>
      </trkpt>
      <trkpt lat="43.10399" lon="0.74483">
        <ele>351.79998779297</ele>
        <time>2025-08-08T10:35:44.000Z</time>
      </trkpt>
      <trkpt lat="43.10392" lon="0.74477">
        <ele>351.79998779297</ele>
        <time>2025-08-08T10:35:46.000Z</time>
      </trkpt>
      <trkpt lat="43.10377" lon="0.74466">
        <ele>351.79998779297</ele>
        <time>2025-08-08T10:35:50.000Z</time>
      </trkpt>
      <trkpt lat="43.10373" lon="0.74463">
        <ele>351.79998779297</ele>
        <time>2025-08-08T10:35:51.000Z</time>
      </trkpt>
      <trkpt lat="43.10333" lon="0.74441">
        <ele>351.39999389648</ele>
        <time>2025-08-08T10:36:01.000Z</time>
      </trkpt>
      <trkpt lat="43.103" lon="0.74429">
        <ele>351.39999389648</ele>
        <time>2025-08-08T10:36:09.000Z</time>
      </trkpt>
      <trkpt lat="43.10292" lon="0.74427">
        <ele>351.60000610352</ele>
        <time>2025-08-08T10:36:11.000Z</time>
      </trkpt>
      <trkpt lat="43.10263" lon="0.74423">
        <ele>351.79998779297</ele>
        <time>2025-08-08T10:36:18.000Z</time>
      </trkpt>
      <trkpt lat="43.10228" lon="0.7442">
        <ele>352</ele>
        <time>2025-08-08T10:36:26.000Z</time>
      </trkpt>
      <trkpt lat="43.1022" lon="0.74419">
        <ele>352</ele>
        <time>2025-08-08T10:36:28.000Z</time>
      </trkpt>
      <trkpt lat="43.10204" lon="0.74416">
        <ele>352</ele>
        <time>2025-08-08T10:36:32.000Z</time>
      </trkpt>
      <trkpt lat="43.10188" lon="0.74411">
        <ele>352</ele>
        <time>2025-08-08T10:36:36.000Z</time>
      </trkpt>
      <trkpt lat="43.10185" lon="0.74409">
        <ele>352</ele>
        <time>2025-08-08T10:36:37.000Z</time>
      </trkpt>
      <trkpt lat="43.10178" lon="0.74403">
        <ele>352</ele>
        <time>2025-08-08T10:36:39.000Z</time>
      </trkpt>
      <trkpt lat="43.10172" lon="0.74395">
        <ele>352</ele>
        <time>2025-08-08T10:36:41.000Z</time>
      </trkpt>
      <trkpt lat="43.10168" lon="0.74386">
        <ele>352</ele>
        <time>2025-08-08T10:36:43.000Z</time>
      </trkpt>
      <trkpt lat="43.10166" lon="0.7438">
        <ele>352</ele>
        <time>2025-08-08T10:36:44.000Z</time>
      </trkpt>
      <trkpt lat="43.1016" lon="0.74369">
        <ele>352.39999389648</ele>
        <time>2025-08-08T10:36:46.000Z</time>
      </trkpt>
      <trkpt lat="43.10155" lon="0.74356">
        <ele>352.39999389648</ele>
        <time>2025-08-08T10:36:48.000Z</time>
      </trkpt>
      <trkpt lat="43.10155" lon="0.74349">
        <ele>352.39999389648</ele>
        <time>2025-08-08T10:36:49.000Z</time>
      </trkpt>
      <trkpt lat="43.10155" lon="0.74306">
        <ele>352.79998779297</ele>
        <time>2025-08-08T10:36:56.000Z</time>
      </trkpt>
      <trkpt lat="43.10155" lon="0.74293">
        <ele>352.79998779297</ele>
        <time>2025-08-08T10:36:58.000Z</time>
      </trkpt>
      <trkpt lat="43.10154" lon="0.74256">
        <ele>353</ele>
        <time>2025-08-08T10:37:04.000Z</time>
      </trkpt>
      <trkpt lat="43.10153" lon="0.74232">
        <ele>353</ele>
        <time>2025-08-08T10:37:08.000Z</time>
      </trkpt>
      <trkpt lat="43.1015" lon="0.7421">
        <ele>352.79998779297</ele>
        <time>2025-08-08T10:37:12.000Z</time>
      </trkpt>
      <trkpt lat="43.10147" lon="0.74188">
        <ele>353</ele>
        <time>2025-08-08T10:37:16.000Z</time>
      </trkpt>
      <trkpt lat="43.10144" lon="0.74165">
        <ele>353</ele>
        <time>2025-08-08T10:37:20.000Z</time>
      </trkpt>
      <trkpt lat="43.10138" lon="0.7412">
        <ele>353.39999389648</ele>
        <time>2025-08-08T10:37:28.000Z</time>
      </trkpt>
      <trkpt lat="43.10137" lon="0.74114">
        <ele>353.39999389648</ele>
        <time>2025-08-08T10:37:29.000Z</time>
      </trkpt>
      <trkpt lat="43.10129" lon="0.7406">
        <ele>353.79998779297</ele>
        <time>2025-08-08T10:37:38.000Z</time>
      </trkpt>
      <trkpt lat="43.10126" lon="0.74043">
        <ele>353.79998779297</ele>
        <time>2025-08-08T10:37:41.000Z</time>
      </trkpt>
      <trkpt lat="43.10123" lon="0.74027">
        <ele>353.79998779297</ele>
        <time>2025-08-08T10:37:44.000Z</time>
      </trkpt>
      <trkpt lat="43.10122" lon="0.74021">
        <ele>354</ele>
        <time>2025-08-08T10:37:45.000Z</time>
      </trkpt>
      <trkpt lat="43.1011" lon="0.73969">
        <ele>354</ele>
        <time>2025-08-08T10:37:54.000Z</time>
      </trkpt>
      <trkpt lat="43.10104" lon="0.7394">
        <ele>354</ele>
        <time>2025-08-08T10:37:59.000Z</time>
      </trkpt>
      <trkpt lat="43.10102" lon="0.73929">
        <ele>354</ele>
        <time>2025-08-08T10:38:01.000Z</time>
      </trkpt>
      <trkpt lat="43.10099" lon="0.73909">
        <ele>354</ele>
        <time>2025-08-08T10:38:05.000Z</time>
      </trkpt>
      <trkpt lat="43.10099" lon="0.739">
        <ele>354</ele>
        <time>2025-08-08T10:38:07.000Z</time>
      </trkpt>
      <trkpt lat="43.101" lon="0.73896">
        <ele>354.20001220703</ele>
        <time>2025-08-08T10:38:08.000Z</time>
      </trkpt>
      <trkpt lat="43.10105" lon="0.73892">
        <ele>354.20001220703</ele>
        <time>2025-08-08T10:38:10.000Z</time>
      </trkpt>
      <trkpt lat="43.10119" lon="0.73891">
        <ele>354.60000610352</ele>
        <time>2025-08-08T10:38:14.000Z</time>
      </trkpt>
      <trkpt lat="43.10127" lon="0.73882">
        <ele>354.79998779297</ele>
        <time>2025-08-08T10:38:17.000Z</time>
      </trkpt>
      <trkpt lat="43.10125" lon="0.73864">
        <ele>354.79998779297</ele>
        <time>2025-08-08T10:38:21.000Z</time>
      </trkpt>
      <trkpt lat="43.10122" lon="0.73852">
        <ele>355</ele>
        <time>2025-08-08T10:38:24.000Z</time>
      </trkpt>
      <trkpt lat="43.1012" lon="0.73832">
        <ele>355</ele>
        <time>2025-08-08T10:38:29.000Z</time>
      </trkpt>
      <trkpt lat="43.10121" lon="0.73811">
        <ele>356</ele>
        <time>2025-08-08T10:38:34.000Z</time>
      </trkpt>
      <trkpt lat="43.10122" lon="0.73797">
        <ele>356.39999389648</ele>
        <time>2025-08-08T10:38:37.000Z</time>
      </trkpt>
      <trkpt lat="43.10127" lon="0.73763">
        <ele>357</ele>
        <time>2025-08-08T10:38:44.000Z</time>
      </trkpt>
      <trkpt lat="43.10128" lon="0.73758">
        <ele>357.20001220703</ele>
        <time>2025-08-08T10:38:45.000Z</time>
      </trkpt>
      <trkpt lat="43.10129" lon="0.73753">
        <ele>357.20001220703</ele>
        <time>2025-08-08T10:38:46.000Z</time>
      </trkpt>
      <trkpt lat="43.10135" lon="0.73732">
        <ele>357.20001220703</ele>
        <time>2025-08-08T10:38:51.000Z</time>
      </trkpt>
      <trkpt lat="43.1017" lon="0.73715">
        <ele>358.20001220703</ele>
        <time>2025-08-08T10:39:01.000Z</time>
      </trkpt>
      <trkpt lat="43.10173" lon="0.73713">
        <ele>358.20001220703</ele>
        <time>2025-08-08T10:39:02.000Z</time>
      </trkpt>
      <trkpt lat="43.10197" lon="0.73701">
        <ele>358.79998779297</ele>
        <time>2025-08-08T10:39:09.000Z</time>
      </trkpt>
      <trkpt lat="43.10226" lon="0.73685">
        <ele>359.20001220703</ele>
        <time>2025-08-08T10:39:18.000Z</time>
      </trkpt>
      <trkpt lat="43.10247" lon="0.73669">
        <ele>359.60000610352</ele>
        <time>2025-08-08T10:39:25.000Z</time>
      </trkpt>
      <trkpt lat="43.10261" lon="0.73651">
        <ele>360.20001220703</ele>
        <time>2025-08-08T10:39:31.000Z</time>
      </trkpt>
      <trkpt lat="43.1027" lon="0.73638">
        <ele>361</ele>
        <time>2025-08-08T10:39:35.000Z</time>
      </trkpt>
      <trkpt lat="43.10287" lon="0.7362">
        <ele>361.39999389648</ele>
        <time>2025-08-08T10:39:41.000Z</time>
      </trkpt>
      <trkpt lat="43.10289" lon="0.73617">
        <ele>361.60000610352</ele>
        <time>2025-08-08T10:39:42.000Z</time>
      </trkpt>
      <trkpt lat="43.10309" lon="0.73599">
        <ele>362</ele>
        <time>2025-08-08T10:39:49.000Z</time>
      </trkpt>
      <trkpt lat="43.10329" lon="0.7358">
        <ele>362</ele>
        <time>2025-08-08T10:39:56.000Z</time>
      </trkpt>
      <trkpt lat="43.10352" lon="0.73558">
        <ele>362.60000610352</ele>
        <time>2025-08-08T10:40:04.000Z</time>
      </trkpt>
      <trkpt lat="43.10354" lon="0.73555">
        <ele>362.60000610352</ele>
        <time>2025-08-08T10:40:05.000Z</time>
      </trkpt>
      <trkpt lat="43.10368" lon="0.73541">
        <ele>363.20001220703</ele>
        <time>2025-08-08T10:40:11.000Z</time>
      </trkpt>
      <trkpt lat="43.10373" lon="0.73536">
        <ele>363.60000610352</ele>
        <time>2025-08-08T10:40:14.000Z</time>
      </trkpt>
      <trkpt lat="43.10378" lon="0.73531">
        <ele>364</ele>
        <time>2025-08-08T10:40:17.000Z</time>
      </trkpt>
      <trkpt lat="43.10386" lon="0.73521">
        <ele>364.79998779297</ele>
        <time>2025-08-08T10:40:22.000Z</time>
      </trkpt>
      <trkpt lat="43.10387" lon="0.73519">
        <ele>365</ele>
        <time>2025-08-08T10:40:23.000Z</time>
      </trkpt>
      <trkpt lat="43.10396" lon="0.73509">
        <ele>366</ele>
        <time>2025-08-08T10:40:29.000Z</time>
      </trkpt>
      <trkpt lat="43.10401" lon="0.73502">
        <ele>366.60000610352</ele>
        <time>2025-08-08T10:40:33.000Z</time>
      </trkpt>
      <trkpt lat="43.10405" lon="0.73498">
        <ele>367</ele>
        <time>2025-08-08T10:40:35.000Z</time>
      </trkpt>
      <trkpt lat="43.10407" lon="0.73496">
        <ele>367.20001220703</ele>
        <time>2025-08-08T10:40:36.000Z</time>
      </trkpt>
      <trkpt lat="43.10415" lon="0.73486">
        <ele>368</ele>
        <time>2025-08-08T10:40:41.000Z</time>
      </trkpt>
      <trkpt lat="43.10419" lon="0.73482">
        <ele>368.39999389648</ele>
        <time>2025-08-08T10:40:43.000Z</time>
      </trkpt>
      <trkpt lat="43.10429" lon="0.73473">
        <ele>369.20001220703</ele>
        <time>2025-08-08T10:40:48.000Z</time>
      </trkpt>
      <trkpt lat="43.10433" lon="0.7347">
        <ele>369.79998779297</ele>
        <time>2025-08-08T10:40:50.000Z</time>
      </trkpt>
      <trkpt lat="43.1044" lon="0.73466">
        <ele>370.39999389648</ele>
        <time>2025-08-08T10:40:53.000Z</time>
      </trkpt>
      <trkpt lat="43.10444" lon="0.73461">
        <ele>370.60000610352</ele>
        <time>2025-08-08T10:40:55.000Z</time>
      </trkpt>
      <trkpt lat="43.10453" lon="0.73456">
        <ele>370.79998779297</ele>
        <time>2025-08-08T10:40:59.000Z</time>
      </trkpt>
      <trkpt lat="43.10459" lon="0.7345">
        <ele>371.20001220703</ele>
        <time>2025-08-08T10:41:02.000Z</time>
      </trkpt>
      <trkpt lat="43.10475" lon="0.73442">
        <ele>371.60000610352</ele>
        <time>2025-08-08T10:41:09.000Z</time>
      </trkpt>
      <trkpt lat="43.10487" lon="0.73437">
        <ele>371.79998779297</ele>
        <time>2025-08-08T10:41:15.000Z</time>
      </trkpt>
      <trkpt lat="43.10491" lon="0.73435">
        <ele>371.79998779297</ele>
        <time>2025-08-08T10:41:17.000Z</time>
      </trkpt>
      <trkpt lat="43.10501" lon="0.7343">
        <ele>372.20001220703</ele>
        <time>2025-08-08T10:41:21.000Z</time>
      </trkpt>
      <trkpt lat="43.10515" lon="0.73424">
        <ele>372.20001220703</ele>
        <time>2025-08-08T10:41:26.000Z</time>
      </trkpt>
      <trkpt lat="43.10533" lon="0.73415">
        <ele>372</ele>
        <time>2025-08-08T10:41:32.000Z</time>
      </trkpt>
      <trkpt lat="43.10555" lon="0.73404">
        <ele>371.79998779297</ele>
        <time>2025-08-08T10:41:40.000Z</time>
      </trkpt>
      <trkpt lat="43.1057" lon="0.73398">
        <ele>371.79998779297</ele>
        <time>2025-08-08T10:41:45.000Z</time>
      </trkpt>
      <trkpt lat="43.10579" lon="0.73394">
        <ele>371.60000610352</ele>
        <time>2025-08-08T10:41:48.000Z</time>
      </trkpt>
      <trkpt lat="43.10594" lon="0.73383">
        <ele>371.39999389648</ele>
        <time>2025-08-08T10:41:53.000Z</time>
      </trkpt>
      <trkpt lat="43.10599" lon="0.73369">
        <ele>371.39999389648</ele>
        <time>2025-08-08T10:41:57.000Z</time>
      </trkpt>
      <trkpt lat="43.10603" lon="0.73339">
        <ele>371.39999389648</ele>
        <time>2025-08-08T10:42:04.000Z</time>
      </trkpt>
      <trkpt lat="43.10606" lon="0.73336">
        <ele>371.20001220703</ele>
        <time>2025-08-08T10:42:05.000Z</time>
      </trkpt>
      <trkpt lat="43.10616" lon="0.73332">
        <ele>371.60000610352</ele>
        <time>2025-08-08T10:42:08.000Z</time>
      </trkpt>
      <trkpt lat="43.10636" lon="0.73325">
        <ele>372</ele>
        <time>2025-08-08T10:42:15.000Z</time>
      </trkpt>
      <trkpt lat="43.10647" lon="0.73319">
        <ele>372.79998779297</ele>
        <time>2025-08-08T10:42:20.000Z</time>
      </trkpt>
      <trkpt lat="43.10651" lon="0.73313">
        <ele>373</ele>
        <time>2025-08-08T10:42:22.000Z</time>
      </trkpt>
      <trkpt lat="43.10656" lon="0.733">
        <ele>373.20001220703</ele>
        <time>2025-08-08T10:42:25.000Z</time>
      </trkpt>
      <trkpt lat="43.10655" lon="0.73273">
        <ele>373</ele>
        <time>2025-08-08T10:42:30.000Z</time>
      </trkpt>
      <trkpt lat="43.1065" lon="0.7323">
        <ele>372.60000610352</ele>
        <time>2025-08-08T10:42:38.000Z</time>
      </trkpt>
      <trkpt lat="43.10645" lon="0.73203">
        <ele>372.60000610352</ele>
        <time>2025-08-08T10:42:43.000Z</time>
      </trkpt>
      <trkpt lat="43.10642" lon="0.73193">
        <ele>372.60000610352</ele>
        <time>2025-08-08T10:42:45.000Z</time>
      </trkpt>
      <trkpt lat="43.1063" lon="0.73153">
        <ele>372.60000610352</ele>
        <time>2025-08-08T10:42:53.000Z</time>
      </trkpt>
      <trkpt lat="43.10616" lon="0.73113">
        <ele>372.79998779297</ele>
        <time>2025-08-08T10:43:01.000Z</time>
      </trkpt>
      <trkpt lat="43.10597" lon="0.73063">
        <ele>373</ele>
        <time>2025-08-08T10:43:11.000Z</time>
      </trkpt>
      <trkpt lat="43.10581" lon="0.7302">
        <ele>373</ele>
        <time>2025-08-08T10:43:19.000Z</time>
      </trkpt>
      <trkpt lat="43.10563" lon="0.72977">
        <ele>373</ele>
        <time>2025-08-08T10:43:28.000Z</time>
      </trkpt>
      <trkpt lat="43.10542" lon="0.72926">
        <ele>373.20001220703</ele>
        <time>2025-08-08T10:43:39.000Z</time>
      </trkpt>
      <trkpt lat="43.10526" lon="0.72884">
        <ele>373</ele>
        <time>2025-08-08T10:43:48.000Z</time>
      </trkpt>
      <trkpt lat="43.10517" lon="0.72865">
        <ele>373</ele>
        <time>2025-08-08T10:43:53.000Z</time>
      </trkpt>
      <trkpt lat="43.10505" lon="0.7283">
        <ele>373.39999389648</ele>
        <time>2025-08-08T10:44:01.000Z</time>
      </trkpt>
      <trkpt lat="43.10495" lon="0.72802">
        <ele>373.39999389648</ele>
        <time>2025-08-08T10:44:07.000Z</time>
      </trkpt>
      <trkpt lat="43.10481" lon="0.72768">
        <ele>373.39999389648</ele>
        <time>2025-08-08T10:44:14.000Z</time>
      </trkpt>
      <trkpt lat="43.1048" lon="0.72764">
        <ele>373.39999389648</ele>
        <time>2025-08-08T10:44:15.000Z</time>
      </trkpt>
      <trkpt lat="43.10475" lon="0.72752">
        <ele>373.60000610352</ele>
        <time>2025-08-08T10:44:19.000Z</time>
      </trkpt>
      <trkpt lat="43.10474" lon="0.72751">
        <ele>373.79998779297</ele>
        <time>2025-08-08T10:44:20.000Z</time>
      </trkpt>
      <trkpt lat="43.10471" lon="0.72756">
        <ele>373.79998779297</ele>
        <time>2025-08-08T10:44:23.000Z</time>
      </trkpt>
      <trkpt lat="43.10472" lon="0.72759">
        <ele>373.79998779297</ele>
        <time>2025-08-08T10:44:24.000Z</time>
      </trkpt>
      <trkpt lat="43.10478" lon="0.72774">
        <ele>373.79998779297</ele>
        <time>2025-08-08T10:44:28.000Z</time>
      </trkpt>
      <trkpt lat="43.10493" lon="0.72812">
        <ele>373.60000610352</ele>
        <time>2025-08-08T10:44:36.000Z</time>
      </trkpt>
      <trkpt lat="43.10507" lon="0.7285">
        <ele>373.39999389648</ele>
        <time>2025-08-08T10:44:43.000Z</time>
      </trkpt>
      <trkpt lat="43.10509" lon="0.72854">
        <ele>373.39999389648</ele>
        <time>2025-08-08T10:44:44.000Z</time>
      </trkpt>
      <trkpt lat="43.1052" lon="0.72876">
        <ele>373.20001220703</ele>
        <time>2025-08-08T10:44:49.000Z</time>
      </trkpt>
      <trkpt lat="43.10525" lon="0.72884">
        <ele>373.39999389648</ele>
        <time>2025-08-08T10:44:51.000Z</time>
      </trkpt>
      <trkpt lat="43.10529" lon="0.72896">
        <ele>373.39999389648</ele>
        <time>2025-08-08T10:44:54.000Z</time>
      </trkpt>
      <trkpt lat="43.1053" lon="0.72899">
        <ele>373.39999389648</ele>
        <time>2025-08-08T10:44:56.000Z</time>
      </trkpt>
      <trkpt lat="43.1053" lon="0.72899">
        <ele>373.20001220703</ele>
        <time>2025-08-08T10:44:58.000Z</time>
      </trkpt>
      <trkpt lat="43.10527" lon="0.72893">
        <ele>373.20001220703</ele>
        <time>2025-08-08T10:51:31.000Z</time>
      </trkpt>
      <trkpt lat="43.10526" lon="0.7289">
        <ele>373.20001220703</ele>
        <time>2025-08-08T10:51:32.000Z</time>
      </trkpt>
      <trkpt lat="43.10518" lon="0.72868">
        <ele>373.20001220703</ele>
        <time>2025-08-08T10:51:39.000Z</time>
      </trkpt>
      <trkpt lat="43.10506" lon="0.72835">
        <ele>373.39999389648</ele>
        <time>2025-08-08T10:51:47.000Z</time>
      </trkpt>
      <trkpt lat="43.10494" lon="0.728">
        <ele>373.79998779297</ele>
        <time>2025-08-08T10:51:55.000Z</time>
      </trkpt>
      <trkpt lat="43.10485" lon="0.72777">
        <ele>373.79998779297</ele>
        <time>2025-08-08T10:52:00.000Z</time>
      </trkpt>
      <trkpt lat="43.10478" lon="0.7276">
        <ele>374</ele>
        <time>2025-08-08T10:52:04.000Z</time>
      </trkpt>
      <trkpt lat="43.10462" lon="0.72733">
        <ele>374.20001220703</ele>
        <time>2025-08-08T10:52:11.000Z</time>
      </trkpt>
      <trkpt lat="43.1044" lon="0.72705">
        <ele>374.39999389648</ele>
        <time>2025-08-08T10:52:19.000Z</time>
      </trkpt>
      <trkpt lat="43.1041" lon="0.7267">
        <ele>374.39999389648</ele>
        <time>2025-08-08T10:52:29.000Z</time>
      </trkpt>
      <trkpt lat="43.10408" lon="0.72666">
        <ele>374.39999389648</ele>
        <time>2025-08-08T10:52:30.000Z</time>
      </trkpt>
      <trkpt lat="43.10401" lon="0.72655">
        <ele>374.79998779297</ele>
        <time>2025-08-08T10:52:33.000Z</time>
      </trkpt>
      <trkpt lat="43.10394" lon="0.72639">
        <ele>374.79998779297</ele>
        <time>2025-08-08T10:52:36.000Z</time>
      </trkpt>
      <trkpt lat="43.10392" lon="0.72633">
        <ele>375</ele>
        <time>2025-08-08T10:52:37.000Z</time>
      </trkpt>
      <trkpt lat="43.10365" lon="0.72571">
        <ele>374.60000610352</ele>
        <time>2025-08-08T10:52:48.000Z</time>
      </trkpt>
      <trkpt lat="43.10346" lon="0.72531">
        <ele>374.60000610352</ele>
        <time>2025-08-08T10:52:56.000Z</time>
      </trkpt>
      <trkpt lat="43.1032" lon="0.72472">
        <ele>375.60000610352</ele>
        <time>2025-08-08T10:53:07.000Z</time>
      </trkpt>
      <trkpt lat="43.1031" lon="0.72451">
        <ele>375.60000610352</ele>
        <time>2025-08-08T10:53:11.000Z</time>
      </trkpt>
      <trkpt lat="43.10291" lon="0.72407">
        <ele>375.79998779297</ele>
        <time>2025-08-08T10:53:19.000Z</time>
      </trkpt>
      <trkpt lat="43.1026" lon="0.72341">
        <ele>375.60000610352</ele>
        <time>2025-08-08T10:53:31.000Z</time>
      </trkpt>
      <trkpt lat="43.10229" lon="0.72275">
        <ele>375.20001220703</ele>
        <time>2025-08-08T10:53:42.000Z</time>
      </trkpt>
      <trkpt lat="43.10226" lon="0.72268">
        <ele>375.20001220703</ele>
        <time>2025-08-08T10:53:43.000Z</time>
      </trkpt>
      <trkpt lat="43.10197" lon="0.72204">
        <ele>374.60000610352</ele>
        <time>2025-08-08T10:53:52.000Z</time>
      </trkpt>
      <trkpt lat="43.10175" lon="0.72155">
        <ele>374</ele>
        <time>2025-08-08T10:53:58.000Z</time>
      </trkpt>
      <trkpt lat="43.10171" lon="0.72147">
        <ele>373.79998779297</ele>
        <time>2025-08-08T10:53:59.000Z</time>
      </trkpt>
      <trkpt lat="43.10144" lon="0.7209">
        <ele>372.60000610352</ele>
        <time>2025-08-08T10:54:06.000Z</time>
      </trkpt>
      <trkpt lat="43.10141" lon="0.72082">
        <ele>372.60000610352</ele>
        <time>2025-08-08T10:54:07.000Z</time>
      </trkpt>
      <trkpt lat="43.10125" lon="0.72046">
        <ele>372.20001220703</ele>
        <time>2025-08-08T10:54:12.000Z</time>
      </trkpt>
      <trkpt lat="43.10108" lon="0.72007">
        <ele>372.20001220703</ele>
        <time>2025-08-08T10:54:18.000Z</time>
      </trkpt>
      <trkpt lat="43.1008" lon="0.71947">
        <ele>372.20001220703</ele>
        <time>2025-08-08T10:54:27.000Z</time>
      </trkpt>
      <trkpt lat="43.10055" lon="0.71891">
        <ele>371.79998779297</ele>
        <time>2025-08-08T10:54:35.000Z</time>
      </trkpt>
      <trkpt lat="43.10031" lon="0.71839">
        <ele>371.60000610352</ele>
        <time>2025-08-08T10:54:42.000Z</time>
      </trkpt>
      <trkpt lat="43.10014" lon="0.71803">
        <ele>371.20001220703</ele>
        <time>2025-08-08T10:54:47.000Z</time>
      </trkpt>
      <trkpt lat="43.09989" lon="0.71748">
        <ele>371</ele>
        <time>2025-08-08T10:54:55.000Z</time>
      </trkpt>
      <trkpt lat="43.09959" lon="0.71683">
        <ele>371.20001220703</ele>
        <time>2025-08-08T10:55:05.000Z</time>
      </trkpt>
      <trkpt lat="43.09956" lon="0.71676">
        <ele>371.20001220703</ele>
        <time>2025-08-08T10:55:06.000Z</time>
      </trkpt>
      <trkpt lat="43.09925" lon="0.71609">
        <ele>371.20001220703</ele>
        <time>2025-08-08T10:55:16.000Z</time>
      </trkpt>
      <trkpt lat="43.09896" lon="0.71545">
        <ele>371.20001220703</ele>
        <time>2025-08-08T10:55:25.000Z</time>
      </trkpt>
      <trkpt lat="43.09893" lon="0.71537">
        <ele>371.20001220703</ele>
        <time>2025-08-08T10:55:26.000Z</time>
      </trkpt>
      <trkpt lat="43.09864" lon="0.71473">
        <ele>370.60000610352</ele>
        <time>2025-08-08T10:55:35.000Z</time>
      </trkpt>
      <trkpt lat="43.09861" lon="0.71466">
        <ele>370.60000610352</ele>
        <time>2025-08-08T10:55:36.000Z</time>
      </trkpt>
      <trkpt lat="43.0985" lon="0.71444">
        <ele>370.39999389648</ele>
        <time>2025-08-08T10:55:39.000Z</time>
      </trkpt>
      <trkpt lat="43.09825" lon="0.71386">
        <ele>369.79998779297</ele>
        <time>2025-08-08T10:55:46.000Z</time>
      </trkpt>
      <trkpt lat="43.09813" lon="0.71359">
        <ele>369.39999389648</ele>
        <time>2025-08-08T10:55:49.000Z</time>
      </trkpt>
      <trkpt lat="43.09805" lon="0.71339">
        <ele>369</ele>
        <time>2025-08-08T10:55:51.000Z</time>
      </trkpt>
      <trkpt lat="43.0979" lon="0.71297">
        <ele>368.39999389648</ele>
        <time>2025-08-08T10:55:55.000Z</time>
      </trkpt>
      <trkpt lat="43.09783" lon="0.71275">
        <ele>368</ele>
        <time>2025-08-08T10:55:57.000Z</time>
      </trkpt>
      <trkpt lat="43.09768" lon="0.7123">
        <ele>367.20001220703</ele>
        <time>2025-08-08T10:56:01.000Z</time>
      </trkpt>
      <trkpt lat="43.09763" lon="0.71209">
        <ele>366.79998779297</ele>
        <time>2025-08-08T10:56:03.000Z</time>
      </trkpt>
      <trkpt lat="43.09761" lon="0.71198">
        <ele>366.39999389648</ele>
        <time>2025-08-08T10:56:04.000Z</time>
      </trkpt>
      <trkpt lat="43.09759" lon="0.71176">
        <ele>366.20001220703</ele>
        <time>2025-08-08T10:56:06.000Z</time>
      </trkpt>
      <trkpt lat="43.0976" lon="0.71155">
        <ele>366</ele>
        <time>2025-08-08T10:56:08.000Z</time>
      </trkpt>
      <trkpt lat="43.09764" lon="0.71119">
        <ele>366</ele>
        <time>2025-08-08T10:56:12.000Z</time>
      </trkpt>
      <trkpt lat="43.09764" lon="0.71111">
        <ele>366</ele>
        <time>2025-08-08T10:56:13.000Z</time>
      </trkpt>
      <trkpt lat="43.09763" lon="0.71103">
        <ele>366</ele>
        <time>2025-08-08T10:56:14.000Z</time>
      </trkpt>
      <trkpt lat="43.09757" lon="0.71091">
        <ele>366</ele>
        <time>2025-08-08T10:56:16.000Z</time>
      </trkpt>
      <trkpt lat="43.09749" lon="0.71082">
        <ele>366.20001220703</ele>
        <time>2025-08-08T10:56:18.000Z</time>
      </trkpt>
      <trkpt lat="43.09744" lon="0.71068">
        <ele>366.20001220703</ele>
        <time>2025-08-08T10:56:20.000Z</time>
      </trkpt>
      <trkpt lat="43.09742" lon="0.71053">
        <ele>366.20001220703</ele>
        <time>2025-08-08T10:56:22.000Z</time>
      </trkpt>
      <trkpt lat="43.09743" lon="0.71036">
        <ele>366.20001220703</ele>
        <time>2025-08-08T10:56:24.000Z</time>
      </trkpt>
      <trkpt lat="43.09748" lon="0.70979">
        <ele>366</ele>
        <time>2025-08-08T10:56:31.000Z</time>
      </trkpt>
      <trkpt lat="43.09759" lon="0.70933">
        <ele>366.20001220703</ele>
        <time>2025-08-08T10:56:37.000Z</time>
      </trkpt>
      <trkpt lat="43.09765" lon="0.7092">
        <ele>366.20001220703</ele>
        <time>2025-08-08T10:56:39.000Z</time>
      </trkpt>
      <trkpt lat="43.0978" lon="0.70895">
        <ele>366.39999389648</ele>
        <time>2025-08-08T10:56:43.000Z</time>
      </trkpt>
      <trkpt lat="43.09784" lon="0.7089">
        <ele>366.60000610352</ele>
        <time>2025-08-08T10:56:44.000Z</time>
      </trkpt>
      <trkpt lat="43.09802" lon="0.70873">
        <ele>366.79998779297</ele>
        <time>2025-08-08T10:56:48.000Z</time>
      </trkpt>
      <trkpt lat="43.09816" lon="0.70859">
        <ele>367</ele>
        <time>2025-08-08T10:56:53.000Z</time>
      </trkpt>
      <trkpt lat="43.09818" lon="0.70857">
        <ele>367.20001220703</ele>
        <time>2025-08-08T10:56:54.000Z</time>
      </trkpt>
      <trkpt lat="43.09817" lon="0.7085">
        <ele>367.20001220703</ele>
        <time>2025-08-08T10:56:56.000Z</time>
      </trkpt>
      <trkpt lat="43.09815" lon="0.70847">
        <ele>367.20001220703</ele>
        <time>2025-08-08T10:56:57.000Z</time>
      </trkpt>
      <trkpt lat="43.09809" lon="0.70839">
        <ele>367.20001220703</ele>
        <time>2025-08-08T10:57:00.000Z</time>
      </trkpt>
      <trkpt lat="43.09798" lon="0.70821">
        <ele>366.79998779297</ele>
        <time>2025-08-08T10:57:05.000Z</time>
      </trkpt>
      <trkpt lat="43.09797" lon="0.70815">
        <ele>366.60000610352</ele>
        <time>2025-08-08T10:57:06.000Z</time>
      </trkpt>
      <trkpt lat="43.09797" lon="0.70809">
        <ele>366.60000610352</ele>
        <time>2025-08-08T10:57:07.000Z</time>
      </trkpt>
      <trkpt lat="43.098" lon="0.70798">
        <ele>366.39999389648</ele>
        <time>2025-08-08T10:57:09.000Z</time>
      </trkpt>
      <trkpt lat="43.09811" lon="0.70781">
        <ele>366.20001220703</ele>
        <time>2025-08-08T10:57:13.000Z</time>
      </trkpt>
      <trkpt lat="43.09816" lon="0.70774">
        <ele>366.20001220703</ele>
        <time>2025-08-08T10:57:15.000Z</time>
      </trkpt>
      <trkpt lat="43.09832" lon="0.70753">
        <ele>366.39999389648</ele>
        <time>2025-08-08T10:57:21.000Z</time>
      </trkpt>
      <trkpt lat="43.09842" lon="0.7074">
        <ele>366.79998779297</ele>
        <time>2025-08-08T10:57:26.000Z</time>
      </trkpt>
      <trkpt lat="43.09844" lon="0.70735">
        <ele>367.20001220703</ele>
        <time>2025-08-08T10:57:28.000Z</time>
      </trkpt>
      <trkpt lat="43.09843" lon="0.7073">
        <ele>367.60000610352</ele>
        <time>2025-08-08T10:57:30.000Z</time>
      </trkpt>
      <trkpt lat="43.09842" lon="0.70729">
        <ele>367.79998779297</ele>
        <time>2025-08-08T10:57:33.000Z</time>
      </trkpt>
      <trkpt lat="43.09842" lon="0.7072">
        <ele>367.60000610352</ele>
        <time>2025-08-08T11:05:25.000Z</time>
      </trkpt>
      <trkpt lat="43.09842" lon="0.70717">
        <ele>367.60000610352</ele>
        <time>2025-08-08T11:05:27.000Z</time>
      </trkpt>
      <trkpt lat="43.09838" lon="0.7071">
        <ele>367.60000610352</ele>
        <time>2025-08-08T11:05:31.000Z</time>
      </trkpt>
      <trkpt lat="43.09825" lon="0.70691">
        <ele>367.79998779297</ele>
        <time>2025-08-08T11:05:37.000Z</time>
      </trkpt>
      <trkpt lat="43.09807" lon="0.70671">
        <ele>368</ele>
        <time>2025-08-08T11:05:44.000Z</time>
      </trkpt>
      <trkpt lat="43.09764" lon="0.70643">
        <ele>368.39999389648</ele>
        <time>2025-08-08T11:05:57.000Z</time>
      </trkpt>
      <trkpt lat="43.09752" lon="0.70635">
        <ele>368.60000610352</ele>
        <time>2025-08-08T11:06:01.000Z</time>
      </trkpt>
      <trkpt lat="43.09739" lon="0.70625">
        <ele>368.60000610352</ele>
        <time>2025-08-08T11:06:05.000Z</time>
      </trkpt>
      <trkpt lat="43.09718" lon="0.7061">
        <ele>368.60000610352</ele>
        <time>2025-08-08T11:06:12.000Z</time>
      </trkpt>
      <trkpt lat="43.09712" lon="0.70606">
        <ele>368.60000610352</ele>
        <time>2025-08-08T11:06:14.000Z</time>
      </trkpt>
      <trkpt lat="43.09686" lon="0.70577">
        <ele>368.20001220703</ele>
        <time>2025-08-08T11:06:23.000Z</time>
      </trkpt>
      <trkpt lat="43.09672" lon="0.70557">
        <ele>367.60000610352</ele>
        <time>2025-08-08T11:06:28.000Z</time>
      </trkpt>
      <trkpt lat="43.09666" lon="0.70543">
        <ele>367.20001220703</ele>
        <time>2025-08-08T11:06:33.000Z</time>
      </trkpt>
      <trkpt lat="43.09656" lon="0.70537">
        <ele>366.79998779297</ele>
        <time>2025-08-08T11:06:38.000Z</time>
      </trkpt>
      <trkpt lat="43.09645" lon="0.70546">
        <ele>366.60000610352</ele>
        <time>2025-08-08T11:06:42.000Z</time>
      </trkpt>
      <trkpt lat="43.09643" lon="0.7055">
        <ele>366.60000610352</ele>
        <time>2025-08-08T11:06:43.000Z</time>
      </trkpt>
      <trkpt lat="43.0964" lon="0.70556">
        <ele>366.60000610352</ele>
        <time>2025-08-08T11:06:44.000Z</time>
      </trkpt>
      <trkpt lat="43.09635" lon="0.70572">
        <ele>366.60000610352</ele>
        <time>2025-08-08T11:06:47.000Z</time>
      </trkpt>
      <trkpt lat="43.09625" lon="0.70601">
        <ele>366.60000610352</ele>
        <time>2025-08-08T11:06:52.000Z</time>
      </trkpt>
      <trkpt lat="43.09623" lon="0.70606">
        <ele>366.60000610352</ele>
        <time>2025-08-08T11:06:53.000Z</time>
      </trkpt>
      <trkpt lat="43.0962" lon="0.7062">
        <ele>366.60000610352</ele>
        <time>2025-08-08T11:06:56.000Z</time>
      </trkpt>
      <trkpt lat="43.09622" lon="0.70624">
        <ele>366.60000610352</ele>
        <time>2025-08-08T11:06:57.000Z</time>
      </trkpt>
      <trkpt lat="43.09625" lon="0.70626">
        <ele>366.60000610352</ele>
        <time>2025-08-08T11:06:58.000Z</time>
      </trkpt>
      <trkpt lat="43.09632" lon="0.70627">
        <ele>366.60000610352</ele>
        <time>2025-08-08T11:07:00.000Z</time>
      </trkpt>
      <trkpt lat="43.0966" lon="0.70628">
        <ele>366.20001220703</ele>
        <time>2025-08-08T11:07:06.000Z</time>
      </trkpt>
      <trkpt lat="43.09674" lon="0.70629">
        <ele>366.39999389648</ele>
        <time>2025-08-08T11:07:09.000Z</time>
      </trkpt>
      <trkpt lat="43.09681" lon="0.70626">
        <ele>366.60000610352</ele>
        <time>2025-08-08T11:07:11.000Z</time>
      </trkpt>
      <trkpt lat="43.09699" lon="0.70607">
        <ele>367</ele>
        <time>2025-08-08T11:07:18.000Z</time>
      </trkpt>
      <trkpt lat="43.09701" lon="0.70604">
        <ele>367</ele>
        <time>2025-08-08T11:07:19.000Z</time>
      </trkpt>
      <trkpt lat="43.0972" lon="0.70584">
        <ele>367.20001220703</ele>
        <time>2025-08-08T11:07:24.000Z</time>
      </trkpt>
      <trkpt lat="43.09734" lon="0.70557">
        <ele>367.20001220703</ele>
        <time>2025-08-08T11:07:30.000Z</time>
      </trkpt>
      <trkpt lat="43.09742" lon="0.70529">
        <ele>367</ele>
        <time>2025-08-08T11:07:36.000Z</time>
      </trkpt>
      <trkpt lat="43.09737" lon="0.70512">
        <ele>367</ele>
        <time>2025-08-08T11:07:40.000Z</time>
      </trkpt>
      <trkpt lat="43.09732" lon="0.70489">
        <ele>366.39999389648</ele>
        <time>2025-08-08T11:07:45.000Z</time>
      </trkpt>
      <trkpt lat="43.09723" lon="0.70464">
        <ele>366.20001220703</ele>
        <time>2025-08-08T11:07:51.000Z</time>
      </trkpt>
      <trkpt lat="43.09713" lon="0.70432">
        <ele>366.20001220703</ele>
        <time>2025-08-08T11:07:58.000Z</time>
      </trkpt>
      <trkpt lat="43.09708" lon="0.70405">
        <ele>366.39999389648</ele>
        <time>2025-08-08T11:08:04.000Z</time>
      </trkpt>
      <trkpt lat="43.09712" lon="0.70377">
        <ele>366.60000610352</ele>
        <time>2025-08-08T11:08:10.000Z</time>
      </trkpt>
      <trkpt lat="43.09714" lon="0.70334">
        <ele>367.20001220703</ele>
        <time>2025-08-08T11:08:19.000Z</time>
      </trkpt>
      <trkpt lat="43.09705" lon="0.70294">
        <ele>367.20001220703</ele>
        <time>2025-08-08T11:08:27.000Z</time>
      </trkpt>
      <trkpt lat="43.09689" lon="0.70236">
        <ele>367</ele>
        <time>2025-08-08T11:08:38.000Z</time>
      </trkpt>
      <trkpt lat="43.09678" lon="0.70194">
        <ele>366.79998779297</ele>
        <time>2025-08-08T11:08:46.000Z</time>
      </trkpt>
      <trkpt lat="43.09668" lon="0.70155">
        <ele>367</ele>
        <time>2025-08-08T11:08:54.000Z</time>
      </trkpt>
      <trkpt lat="43.09665" lon="0.70122">
        <ele>367.79998779297</ele>
        <time>2025-08-08T11:09:01.000Z</time>
      </trkpt>
      <trkpt lat="43.09668" lon="0.70119">
        <ele>367.79998779297</ele>
        <time>2025-08-08T11:09:02.000Z</time>
      </trkpt>
      <trkpt lat="43.09681" lon="0.70107">
        <ele>368.20001220703</ele>
        <time>2025-08-08T11:09:06.000Z</time>
      </trkpt>
      <trkpt lat="43.09704" lon="0.7009">
        <ele>368.79998779297</ele>
        <time>2025-08-08T11:09:13.000Z</time>
      </trkpt>
      <trkpt lat="43.09707" lon="0.70081">
        <ele>368.79998779297</ele>
        <time>2025-08-08T11:09:15.000Z</time>
      </trkpt>
      <trkpt lat="43.0971" lon="0.70064">
        <ele>368.79998779297</ele>
        <time>2025-08-08T11:09:18.000Z</time>
      </trkpt>
      <trkpt lat="43.09717" lon="0.70012">
        <ele>369</ele>
        <time>2025-08-08T11:09:28.000Z</time>
      </trkpt>
      <trkpt lat="43.09723" lon="0.69966">
        <ele>369</ele>
        <time>2025-08-08T11:09:36.000Z</time>
      </trkpt>
      <trkpt lat="43.09726" lon="0.69937">
        <ele>368.39999389648</ele>
        <time>2025-08-08T11:09:41.000Z</time>
      </trkpt>
      <trkpt lat="43.09728" lon="0.69919">
        <ele>368.60000610352</ele>
        <time>2025-08-08T11:09:44.000Z</time>
      </trkpt>
      <trkpt lat="43.0973" lon="0.69865">
        <ele>369</ele>
        <time>2025-08-08T11:09:53.000Z</time>
      </trkpt>
      <trkpt lat="43.0973" lon="0.69822">
        <ele>368.79998779297</ele>
        <time>2025-08-08T11:10:00.000Z</time>
      </trkpt>
      <trkpt lat="43.09723" lon="0.69763">
        <ele>368.60000610352</ele>
        <time>2025-08-08T11:10:09.000Z</time>
      </trkpt>
      <trkpt lat="43.09716" lon="0.69738">
        <ele>368.60000610352</ele>
        <time>2025-08-08T11:10:13.000Z</time>
      </trkpt>
      <trkpt lat="43.09707" lon="0.69707">
        <ele>368.60000610352</ele>
        <time>2025-08-08T11:10:18.000Z</time>
      </trkpt>
      <trkpt lat="43.09697" lon="0.69663">
        <ele>369</ele>
        <time>2025-08-08T11:10:26.000Z</time>
      </trkpt>
      <trkpt lat="43.09689" lon="0.69621">
        <ele>369.39999389648</ele>
        <time>2025-08-08T11:10:34.000Z</time>
      </trkpt>
      <trkpt lat="43.09681" lon="0.69582">
        <ele>369.39999389648</ele>
        <time>2025-08-08T11:10:42.000Z</time>
      </trkpt>
      <trkpt lat="43.09668" lon="0.69531">
        <ele>369.79998779297</ele>
        <time>2025-08-08T11:10:52.000Z</time>
      </trkpt>
      <trkpt lat="43.09662" lon="0.69485">
        <ele>369.79998779297</ele>
        <time>2025-08-08T11:11:00.000Z</time>
      </trkpt>
      <trkpt lat="43.0966" lon="0.69425">
        <ele>369.60000610352</ele>
        <time>2025-08-08T11:11:10.000Z</time>
      </trkpt>
      <trkpt lat="43.0966" lon="0.69409">
        <ele>369.79998779297</ele>
        <time>2025-08-08T11:11:13.000Z</time>
      </trkpt>
      <trkpt lat="43.0966" lon="0.69381">
        <ele>370.20001220703</ele>
        <time>2025-08-08T11:11:18.000Z</time>
      </trkpt>
      <trkpt lat="43.0966" lon="0.69375">
        <ele>370.39999389648</ele>
        <time>2025-08-08T11:11:19.000Z</time>
      </trkpt>
      <trkpt lat="43.09663" lon="0.69344">
        <ele>371</ele>
        <time>2025-08-08T11:11:25.000Z</time>
      </trkpt>
      <trkpt lat="43.09665" lon="0.69332">
        <ele>371.20001220703</ele>
        <time>2025-08-08T11:11:27.000Z</time>
      </trkpt>
      <trkpt lat="43.09667" lon="0.69321">
        <ele>371.39999389648</ele>
        <time>2025-08-08T11:11:29.000Z</time>
      </trkpt>
      <trkpt lat="43.09672" lon="0.69293">
        <ele>371.60000610352</ele>
        <time>2025-08-08T11:11:34.000Z</time>
      </trkpt>
      <trkpt lat="43.09675" lon="0.69283">
        <ele>371.60000610352</ele>
        <time>2025-08-08T11:11:36.000Z</time>
      </trkpt>
      <trkpt lat="43.09679" lon="0.69266">
        <ele>371.79998779297</ele>
        <time>2025-08-08T11:11:39.000Z</time>
      </trkpt>
      <trkpt lat="43.0968" lon="0.6926">
        <ele>371.79998779297</ele>
        <time>2025-08-08T11:11:40.000Z</time>
      </trkpt>
      <trkpt lat="43.09681" lon="0.69254">
        <ele>371.79998779297</ele>
        <time>2025-08-08T11:11:41.000Z</time>
      </trkpt>
      <trkpt lat="43.09684" lon="0.69237">
        <ele>371.79998779297</ele>
        <time>2025-08-08T11:11:44.000Z</time>
      </trkpt>
      <trkpt lat="43.09687" lon="0.69226">
        <ele>371.79998779297</ele>
        <time>2025-08-08T11:11:46.000Z</time>
      </trkpt>
      <trkpt lat="43.09694" lon="0.69198">
        <ele>371.79998779297</ele>
        <time>2025-08-08T11:11:51.000Z</time>
      </trkpt>
      <trkpt lat="43.09695" lon="0.69192">
        <ele>371.79998779297</ele>
        <time>2025-08-08T11:11:52.000Z</time>
      </trkpt>
      <trkpt lat="43.09696" lon="0.69186">
        <ele>371.79998779297</ele>
        <time>2025-08-08T11:11:53.000Z</time>
      </trkpt>
      <trkpt lat="43.09704" lon="0.69161">
        <ele>371.60000610352</ele>
        <time>2025-08-08T11:11:57.000Z</time>
      </trkpt>
      <trkpt lat="43.09706" lon="0.69154">
        <ele>371.60000610352</ele>
        <time>2025-08-08T11:11:58.000Z</time>
      </trkpt>
      <trkpt lat="43.09715" lon="0.69114">
        <ele>371.39999389648</ele>
        <time>2025-08-08T11:12:04.000Z</time>
      </trkpt>
      <trkpt lat="43.09717" lon="0.69108">
        <ele>371.20001220703</ele>
        <time>2025-08-08T11:12:05.000Z</time>
      </trkpt>
      <trkpt lat="43.09728" lon="0.69053">
        <ele>371.20001220703</ele>
        <time>2025-08-08T11:12:14.000Z</time>
      </trkpt>
      <trkpt lat="43.0973" lon="0.69037">
        <ele>371.20001220703</ele>
        <time>2025-08-08T11:12:17.000Z</time>
      </trkpt>
      <trkpt lat="43.09734" lon="0.69021">
        <ele>371.20001220703</ele>
        <time>2025-08-08T11:12:20.000Z</time>
      </trkpt>
      <trkpt lat="43.09736" lon="0.69016">
        <ele>371.20001220703</ele>
        <time>2025-08-08T11:12:21.000Z</time>
      </trkpt>
      <trkpt lat="43.09741" lon="0.68988">
        <ele>371.20001220703</ele>
        <time>2025-08-08T11:12:26.000Z</time>
      </trkpt>
      <trkpt lat="43.09752" lon="0.6894">
        <ele>371</ele>
        <time>2025-08-08T11:12:35.000Z</time>
      </trkpt>
      <trkpt lat="43.09758" lon="0.68904">
        <ele>372</ele>
        <time>2025-08-08T11:12:42.000Z</time>
      </trkpt>
      <trkpt lat="43.09759" lon="0.68898">
        <ele>372.20001220703</ele>
        <time>2025-08-08T11:12:43.000Z</time>
      </trkpt>
      <trkpt lat="43.09768" lon="0.68853">
        <ele>372.60000610352</ele>
        <time>2025-08-08T11:12:51.000Z</time>
      </trkpt>
      <trkpt lat="43.09779" lon="0.68799">
        <ele>372.20001220703</ele>
        <time>2025-08-08T11:13:01.000Z</time>
      </trkpt>
      <trkpt lat="43.09786" lon="0.68762">
        <ele>372.20001220703</ele>
        <time>2025-08-08T11:13:08.000Z</time>
      </trkpt>
      <trkpt lat="43.09795" lon="0.68713">
        <ele>372.20001220703</ele>
        <time>2025-08-08T11:13:17.000Z</time>
      </trkpt>
      <trkpt lat="43.09797" lon="0.68703">
        <ele>372.20001220703</ele>
        <time>2025-08-08T11:13:19.000Z</time>
      </trkpt>
      <trkpt lat="43.09807" lon="0.68653">
        <ele>372.39999389648</ele>
        <time>2025-08-08T11:13:28.000Z</time>
      </trkpt>
      <trkpt lat="43.09821" lon="0.68583">
        <ele>372.60000610352</ele>
        <time>2025-08-08T11:13:40.000Z</time>
      </trkpt>
      <trkpt lat="43.09836" lon="0.68512">
        <ele>372.79998779297</ele>
        <time>2025-08-08T11:13:52.000Z</time>
      </trkpt>
      <trkpt lat="43.09846" lon="0.68458">
        <ele>373.20001220703</ele>
        <time>2025-08-08T11:14:01.000Z</time>
      </trkpt>
      <trkpt lat="43.09848" lon="0.68446">
        <ele>373.39999389648</ele>
        <time>2025-08-08T11:14:03.000Z</time>
      </trkpt>
      <trkpt lat="43.09857" lon="0.684">
        <ele>373.79998779297</ele>
        <time>2025-08-08T11:14:11.000Z</time>
      </trkpt>
      <trkpt lat="43.09861" lon="0.68378">
        <ele>374</ele>
        <time>2025-08-08T11:14:15.000Z</time>
      </trkpt>
      <trkpt lat="43.0987" lon="0.6833">
        <ele>374.20001220703</ele>
        <time>2025-08-08T11:14:23.000Z</time>
      </trkpt>
      <trkpt lat="43.09871" lon="0.68324">
        <ele>374.20001220703</ele>
        <time>2025-08-08T11:14:24.000Z</time>
      </trkpt>
      <trkpt lat="43.0988" lon="0.6827">
        <ele>374.60000610352</ele>
        <time>2025-08-08T11:14:33.000Z</time>
      </trkpt>
      <trkpt lat="43.09883" lon="0.68225">
        <ele>375</ele>
        <time>2025-08-08T11:14:41.000Z</time>
      </trkpt>
      <trkpt lat="43.09886" lon="0.68206">
        <ele>375.20001220703</ele>
        <time>2025-08-08T11:14:46.000Z</time>
      </trkpt>
      <trkpt lat="43.09887" lon="0.68199">
        <ele>375.60000610352</ele>
        <time>2025-08-08T11:14:48.000Z</time>
      </trkpt>
      <trkpt lat="43.0989" lon="0.68183">
        <ele>376.39999389648</ele>
        <time>2025-08-08T11:14:53.000Z</time>
      </trkpt>
      <trkpt lat="43.09893" lon="0.68169">
        <ele>377</ele>
        <time>2025-08-08T11:14:57.000Z</time>
      </trkpt>
      <trkpt lat="43.09894" lon="0.68163">
        <ele>377.39999389648</ele>
        <time>2025-08-08T11:14:59.000Z</time>
      </trkpt>
      <trkpt lat="43.09896" lon="0.68151">
        <ele>378</ele>
        <time>2025-08-08T11:15:03.000Z</time>
      </trkpt>
      <trkpt lat="43.09897" lon="0.68145">
        <ele>378.39999389648</ele>
        <time>2025-08-08T11:15:05.000Z</time>
      </trkpt>
      <trkpt lat="43.09902" lon="0.68132">
        <ele>379</ele>
        <time>2025-08-08T11:15:09.000Z</time>
      </trkpt>
      <trkpt lat="43.09913" lon="0.68115">
        <ele>379.39999389648</ele>
        <time>2025-08-08T11:15:15.000Z</time>
      </trkpt>
      <trkpt lat="43.09918" lon="0.68109">
        <ele>379.60000610352</ele>
        <time>2025-08-08T11:15:17.000Z</time>
      </trkpt>
      <trkpt lat="43.09936" lon="0.68089">
        <ele>379.79998779297</ele>
        <time>2025-08-08T11:15:24.000Z</time>
      </trkpt>
      <trkpt lat="43.09954" lon="0.68067">
        <ele>380.20001220703</ele>
        <time>2025-08-08T11:15:31.000Z</time>
      </trkpt>
      <trkpt lat="43.09967" lon="0.68051">
        <ele>380.60000610352</ele>
        <time>2025-08-08T11:15:36.000Z</time>
      </trkpt>
      <trkpt lat="43.09981" lon="0.68034">
        <ele>380.79998779297</ele>
        <time>2025-08-08T11:15:41.000Z</time>
      </trkpt>
      <trkpt lat="43.10006" lon="0.68">
        <ele>381</ele>
        <time>2025-08-08T11:15:50.000Z</time>
      </trkpt>
      <trkpt lat="43.1002" lon="0.6797">
        <ele>381.20001220703</ele>
        <time>2025-08-08T11:15:57.000Z</time>
      </trkpt>
      <trkpt lat="43.10042" lon="0.67922">
        <ele>381.60000610352</ele>
        <time>2025-08-08T11:16:07.000Z</time>
      </trkpt>
      <trkpt lat="43.10055" lon="0.67883">
        <ele>381</ele>
        <time>2025-08-08T11:16:13.000Z</time>
      </trkpt>
      <trkpt lat="43.10067" lon="0.67834">
        <ele>380.20001220703</ele>
        <time>2025-08-08T11:16:20.000Z</time>
      </trkpt>
      <trkpt lat="43.10074" lon="0.67807">
        <ele>379.79998779297</ele>
        <time>2025-08-08T11:16:25.000Z</time>
      </trkpt>
      <trkpt lat="43.10082" lon="0.67796">
        <ele>380</ele>
        <time>2025-08-08T11:16:29.000Z</time>
      </trkpt>
      <trkpt lat="43.10098" lon="0.67776">
        <ele>380.60000610352</ele>
        <time>2025-08-08T11:16:36.000Z</time>
      </trkpt>
      <trkpt lat="43.10101" lon="0.67751">
        <ele>381.20001220703</ele>
        <time>2025-08-08T11:16:42.000Z</time>
      </trkpt>
      <trkpt lat="43.10101" lon="0.67717">
        <ele>381.39999389648</ele>
        <time>2025-08-08T11:16:50.000Z</time>
      </trkpt>
      <trkpt lat="43.10104" lon="0.67694">
        <ele>381.60000610352</ele>
        <time>2025-08-08T11:16:55.000Z</time>
      </trkpt>
      <trkpt lat="43.10105" lon="0.6769">
        <ele>381.60000610352</ele>
        <time>2025-08-08T11:16:56.000Z</time>
      </trkpt>
      <trkpt lat="43.10107" lon="0.67681">
        <ele>381.79998779297</ele>
        <time>2025-08-08T11:16:58.000Z</time>
      </trkpt>
      <trkpt lat="43.10116" lon="0.67646">
        <ele>382.20001220703</ele>
        <time>2025-08-08T11:17:06.000Z</time>
      </trkpt>
      <trkpt lat="43.10125" lon="0.67608">
        <ele>382.20001220703</ele>
        <time>2025-08-08T11:17:14.000Z</time>
      </trkpt>
      <trkpt lat="43.10132" lon="0.67563">
        <ele>382.20001220703</ele>
        <time>2025-08-08T11:17:24.000Z</time>
      </trkpt>
      <trkpt lat="43.10136" lon="0.67516">
        <ele>382.39999389648</ele>
        <time>2025-08-08T11:17:34.000Z</time>
      </trkpt>
      <trkpt lat="43.10134" lon="0.67492">
        <ele>382.60000610352</ele>
        <time>2025-08-08T11:17:39.000Z</time>
      </trkpt>
      <trkpt lat="43.10121" lon="0.67468">
        <ele>382.60000610352</ele>
        <time>2025-08-08T11:17:45.000Z</time>
      </trkpt>
      <trkpt lat="43.10105" lon="0.67436">
        <ele>382.39999389648</ele>
        <time>2025-08-08T11:17:53.000Z</time>
      </trkpt>
      <trkpt lat="43.10091" lon="0.67404">
        <ele>382.20001220703</ele>
        <time>2025-08-08T11:18:00.000Z</time>
      </trkpt>
      <trkpt lat="43.10081" lon="0.67367">
        <ele>382.20001220703</ele>
        <time>2025-08-08T11:18:08.000Z</time>
      </trkpt>
      <trkpt lat="43.10077" lon="0.67339">
        <ele>382.20001220703</ele>
        <time>2025-08-08T11:18:14.000Z</time>
      </trkpt>
      <trkpt lat="43.10075" lon="0.67303">
        <ele>382.20001220703</ele>
        <time>2025-08-08T11:18:23.000Z</time>
      </trkpt>
      <trkpt lat="43.10075" lon="0.67302">
        <ele>382.79998779297</ele>
        <time>2025-08-08T11:18:26.000Z</time>
      </trkpt>
      <trkpt lat="43.10076" lon="0.67292">
        <ele>383.20001220703</ele>
        <time>2025-08-08T11:26:40.000Z</time>
      </trkpt>
      <trkpt lat="43.10075" lon="0.67274">
        <ele>382.79998779297</ele>
        <time>2025-08-08T11:26:46.000Z</time>
      </trkpt>
      <trkpt lat="43.10077" lon="0.67253">
        <ele>383</ele>
        <time>2025-08-08T11:26:52.000Z</time>
      </trkpt>
      <trkpt lat="43.10082" lon="0.67222">
        <ele>383</ele>
        <time>2025-08-08T11:27:01.000Z</time>
      </trkpt>
      <trkpt lat="43.1009" lon="0.67194">
        <ele>383.39999389648</ele>
        <time>2025-08-08T11:27:09.000Z</time>
      </trkpt>
      <trkpt lat="43.10101" lon="0.6717">
        <ele>383.39999389648</ele>
        <time>2025-08-08T11:27:16.000Z</time>
      </trkpt>
      <trkpt lat="43.10112" lon="0.67139">
        <ele>383.60000610352</ele>
        <time>2025-08-08T11:27:24.000Z</time>
      </trkpt>
      <trkpt lat="43.1011" lon="0.67114">
        <ele>384</ele>
        <time>2025-08-08T11:27:30.000Z</time>
      </trkpt>
      <trkpt lat="43.10097" lon="0.67073">
        <ele>384.20001220703</ele>
        <time>2025-08-08T11:27:40.000Z</time>
      </trkpt>
      <trkpt lat="43.1009" lon="0.67059">
        <ele>384.39999389648</ele>
        <time>2025-08-08T11:27:44.000Z</time>
      </trkpt>
      <trkpt lat="43.10086" lon="0.67053">
        <ele>384.39999389648</ele>
        <time>2025-08-08T11:27:46.000Z</time>
      </trkpt>
      <trkpt lat="43.10071" lon="0.67023">
        <ele>385.20001220703</ele>
        <time>2025-08-08T11:27:54.000Z</time>
      </trkpt>
      <trkpt lat="43.10067" lon="0.67012">
        <ele>385.39999389648</ele>
        <time>2025-08-08T11:27:57.000Z</time>
      </trkpt>
      <trkpt lat="43.10064" lon="0.67004">
        <ele>385.39999389648</ele>
        <time>2025-08-08T11:27:59.000Z</time>
      </trkpt>
      <trkpt lat="43.10057" lon="0.66983">
        <ele>386</ele>
        <time>2025-08-08T11:28:04.000Z</time>
      </trkpt>
      <trkpt lat="43.10047" lon="0.66943">
        <ele>386.20001220703</ele>
        <time>2025-08-08T11:28:12.000Z</time>
      </trkpt>
      <trkpt lat="43.10036" lon="0.66895">
        <ele>385.60000610352</ele>
        <time>2025-08-08T11:28:21.000Z</time>
      </trkpt>
      <trkpt lat="43.10031" lon="0.66868">
        <ele>385.60000610352</ele>
        <time>2025-08-08T11:28:27.000Z</time>
      </trkpt>
      <trkpt lat="43.10035" lon="0.66862">
        <ele>385.60000610352</ele>
        <time>2025-08-08T11:28:29.000Z</time>
      </trkpt>
      <trkpt lat="43.10038" lon="0.66861">
        <ele>385.60000610352</ele>
        <time>2025-08-08T11:28:30.000Z</time>
      </trkpt>
      <trkpt lat="43.10051" lon="0.66859">
        <ele>385.60000610352</ele>
        <time>2025-08-08T11:28:33.000Z</time>
      </trkpt>
      <trkpt lat="43.10062" lon="0.66857">
        <ele>385.60000610352</ele>
        <time>2025-08-08T11:28:35.000Z</time>
      </trkpt>
      <trkpt lat="43.10092" lon="0.66848">
        <ele>385.20001220703</ele>
        <time>2025-08-08T11:28:41.000Z</time>
      </trkpt>
      <trkpt lat="43.10112" lon="0.66842">
        <ele>385.39999389648</ele>
        <time>2025-08-08T11:28:46.000Z</time>
      </trkpt>
      <trkpt lat="43.10138" lon="0.66831">
        <ele>386</ele>
        <time>2025-08-08T11:28:53.000Z</time>
      </trkpt>
      <trkpt lat="43.10165" lon="0.66816">
        <ele>385.79998779297</ele>
        <time>2025-08-08T11:28:58.000Z</time>
      </trkpt>
      <trkpt lat="43.10199" lon="0.66788">
        <ele>384.79998779297</ele>
        <time>2025-08-08T11:29:05.000Z</time>
      </trkpt>
      <trkpt lat="43.10221" lon="0.66768">
        <ele>384.39999389648</ele>
        <time>2025-08-08T11:29:10.000Z</time>
      </trkpt>
      <trkpt lat="43.10233" lon="0.66759">
        <ele>384.39999389648</ele>
        <time>2025-08-08T11:29:13.000Z</time>
      </trkpt>
      <trkpt lat="43.10265" lon="0.6674">
        <ele>384.60000610352</ele>
        <time>2025-08-08T11:29:21.000Z</time>
      </trkpt>
      <trkpt lat="43.10286" lon="0.66727">
        <ele>384.60000610352</ele>
        <time>2025-08-08T11:29:26.000Z</time>
      </trkpt>
      <trkpt lat="43.10293" lon="0.6672">
        <ele>384.60000610352</ele>
        <time>2025-08-08T11:29:28.000Z</time>
      </trkpt>
      <trkpt lat="43.10299" lon="0.6671">
        <ele>384.60000610352</ele>
        <time>2025-08-08T11:29:30.000Z</time>
      </trkpt>
      <trkpt lat="43.10299" lon="0.66702">
        <ele>384.39999389648</ele>
        <time>2025-08-08T11:29:31.000Z</time>
      </trkpt>
      <trkpt lat="43.10297" lon="0.66695">
        <ele>384.20001220703</ele>
        <time>2025-08-08T11:29:32.000Z</time>
      </trkpt>
      <trkpt lat="43.10291" lon="0.66682">
        <ele>383.79998779297</ele>
        <time>2025-08-08T11:29:34.000Z</time>
      </trkpt>
      <trkpt lat="43.10279" lon="0.66667">
        <ele>383.20001220703</ele>
        <time>2025-08-08T11:29:37.000Z</time>
      </trkpt>
      <trkpt lat="43.10266" lon="0.66647">
        <ele>383</ele>
        <time>2025-08-08T11:29:41.000Z</time>
      </trkpt>
      <trkpt lat="43.10257" lon="0.66628">
        <ele>383.39999389648</ele>
        <time>2025-08-08T11:29:45.000Z</time>
      </trkpt>
      <trkpt lat="43.10251" lon="0.66615">
        <ele>383.79998779297</ele>
        <time>2025-08-08T11:29:48.000Z</time>
      </trkpt>
      <trkpt lat="43.10244" lon="0.66596">
        <ele>384.20001220703</ele>
        <time>2025-08-08T11:29:52.000Z</time>
      </trkpt>
      <trkpt lat="43.10241" lon="0.66585">
        <ele>384.39999389648</ele>
        <time>2025-08-08T11:29:54.000Z</time>
      </trkpt>
      <trkpt lat="43.1023" lon="0.66544">
        <ele>384.79998779297</ele>
        <time>2025-08-08T11:30:02.000Z</time>
      </trkpt>
      <trkpt lat="43.10226" lon="0.66516">
        <ele>385.20001220703</ele>
        <time>2025-08-08T11:30:08.000Z</time>
      </trkpt>
      <trkpt lat="43.10225" lon="0.66511">
        <ele>385.20001220703</ele>
        <time>2025-08-08T11:30:09.000Z</time>
      </trkpt>
      <trkpt lat="43.10226" lon="0.66483">
        <ele>385.60000610352</ele>
        <time>2025-08-08T11:30:15.000Z</time>
      </trkpt>
      <trkpt lat="43.10225" lon="0.66478">
        <ele>385.60000610352</ele>
        <time>2025-08-08T11:30:16.000Z</time>
      </trkpt>
      <trkpt lat="43.10225" lon="0.66464">
        <ele>385.79998779297</ele>
        <time>2025-08-08T11:30:19.000Z</time>
      </trkpt>
      <trkpt lat="43.10223" lon="0.66438">
        <ele>386.20001220703</ele>
        <time>2025-08-08T11:30:25.000Z</time>
      </trkpt>
      <trkpt lat="43.10223" lon="0.66433">
        <ele>386.39999389648</ele>
        <time>2025-08-08T11:30:26.000Z</time>
      </trkpt>
      <trkpt lat="43.10228" lon="0.66409">
        <ele>386.60000610352</ele>
        <time>2025-08-08T11:30:31.000Z</time>
      </trkpt>
      <trkpt lat="43.10238" lon="0.66363">
        <ele>386.60000610352</ele>
        <time>2025-08-08T11:30:40.000Z</time>
      </trkpt>
      <trkpt lat="43.10255" lon="0.6631">
        <ele>386.79998779297</ele>
        <time>2025-08-08T11:30:51.000Z</time>
      </trkpt>
      <trkpt lat="43.10267" lon="0.66281">
        <ele>386.79998779297</ele>
        <time>2025-08-08T11:30:58.000Z</time>
      </trkpt>
      <trkpt lat="43.10268" lon="0.66273">
        <ele>387</ele>
        <time>2025-08-08T11:31:00.000Z</time>
      </trkpt>
      <trkpt lat="43.10277" lon="0.66258">
        <ele>387.20001220703</ele>
        <time>2025-08-08T11:31:04.000Z</time>
      </trkpt>
      <trkpt lat="43.1028" lon="0.66254">
        <ele>387.39999389648</ele>
        <time>2025-08-08T11:31:05.000Z</time>
      </trkpt>
      <trkpt lat="43.10295" lon="0.66236">
        <ele>387.39999389648</ele>
        <time>2025-08-08T11:31:10.000Z</time>
      </trkpt>
      <trkpt lat="43.10324" lon="0.66204">
        <ele>387.39999389648</ele>
        <time>2025-08-08T11:31:18.000Z</time>
      </trkpt>
      <trkpt lat="43.10352" lon="0.66174">
        <ele>387.39999389648</ele>
        <time>2025-08-08T11:31:26.000Z</time>
      </trkpt>
      <trkpt lat="43.10377" lon="0.66148">
        <ele>387.20001220703</ele>
        <time>2025-08-08T11:31:32.000Z</time>
      </trkpt>
      <trkpt lat="43.10405" lon="0.6612">
        <ele>386.39999389648</ele>
        <time>2025-08-08T11:31:38.000Z</time>
      </trkpt>
      <trkpt lat="43.10415" lon="0.66111">
        <ele>386.39999389648</ele>
        <time>2025-08-08T11:31:40.000Z</time>
      </trkpt>
      <trkpt lat="43.10443" lon="0.66089">
        <ele>385.60000610352</ele>
        <time>2025-08-08T11:31:46.000Z</time>
      </trkpt>
      <trkpt lat="43.10463" lon="0.66073">
        <ele>385.60000610352</ele>
        <time>2025-08-08T11:31:51.000Z</time>
      </trkpt>
      <trkpt lat="43.10466" lon="0.66069">
        <ele>385.60000610352</ele>
        <time>2025-08-08T11:31:52.000Z</time>
      </trkpt>
      <trkpt lat="43.10475" lon="0.66059">
        <ele>385.60000610352</ele>
        <time>2025-08-08T11:31:55.000Z</time>
      </trkpt>
      <trkpt lat="43.10488" lon="0.66041">
        <ele>386.20001220703</ele>
        <time>2025-08-08T11:32:00.000Z</time>
      </trkpt>
      <trkpt lat="43.10498" lon="0.66023">
        <ele>386.60000610352</ele>
        <time>2025-08-08T11:32:05.000Z</time>
      </trkpt>
      <trkpt lat="43.10508" lon="0.66003">
        <ele>387.39999389648</ele>
        <time>2025-08-08T11:32:10.000Z</time>
      </trkpt>
      <trkpt lat="43.10511" lon="0.65989">
        <ele>387.79998779297</ele>
        <time>2025-08-08T11:32:13.000Z</time>
      </trkpt>
      <trkpt lat="43.10519" lon="0.65967">
        <ele>388</ele>
        <time>2025-08-08T11:32:19.000Z</time>
      </trkpt>
      <trkpt lat="43.10524" lon="0.65941">
        <ele>388</ele>
        <time>2025-08-08T11:32:26.000Z</time>
      </trkpt>
      <trkpt lat="43.10524" lon="0.65935">
        <ele>388</ele>
        <time>2025-08-08T11:32:29.000Z</time>
      </trkpt>
      <trkpt lat="43.10523" lon="0.6593">
        <ele>388.20001220703</ele>
        <time>2025-08-08T11:32:31.000Z</time>
      </trkpt>
      <trkpt lat="43.10518" lon="0.65909">
        <ele>388.39999389648</ele>
        <time>2025-08-08T11:32:37.000Z</time>
      </trkpt>
      <trkpt lat="43.10517" lon="0.65905">
        <ele>388.39999389648</ele>
        <time>2025-08-08T11:32:38.000Z</time>
      </trkpt>
      <trkpt lat="43.10512" lon="0.65883">
        <ele>388.39999389648</ele>
        <time>2025-08-08T11:32:44.000Z</time>
      </trkpt>
      <trkpt lat="43.10505" lon="0.65849">
        <ele>388.39999389648</ele>
        <time>2025-08-08T11:32:52.000Z</time>
      </trkpt>
      <trkpt lat="43.10498" lon="0.65811">
        <ele>388.39999389648</ele>
        <time>2025-08-08T11:33:00.000Z</time>
      </trkpt>
      <trkpt lat="43.10488" lon="0.65766">
        <ele>388.39999389648</ele>
        <time>2025-08-08T11:33:09.000Z</time>
      </trkpt>
      <trkpt lat="43.10479" lon="0.65723">
        <ele>388.20001220703</ele>
        <time>2025-08-08T11:33:17.000Z</time>
      </trkpt>
      <trkpt lat="43.10467" lon="0.6567">
        <ele>388</ele>
        <time>2025-08-08T11:33:26.000Z</time>
      </trkpt>
      <trkpt lat="43.10452" lon="0.656">
        <ele>388.20001220703</ele>
        <time>2025-08-08T11:33:38.000Z</time>
      </trkpt>
      <trkpt lat="43.10441" lon="0.65545">
        <ele>388.79998779297</ele>
        <time>2025-08-08T11:33:48.000Z</time>
      </trkpt>
      <trkpt lat="43.1043" lon="0.65492">
        <ele>389.20001220703</ele>
        <time>2025-08-08T11:33:57.000Z</time>
      </trkpt>
      <trkpt lat="43.10417" lon="0.65443">
        <ele>389.20001220703</ele>
        <time>2025-08-08T11:34:05.000Z</time>
      </trkpt>
      <trkpt lat="43.10405" lon="0.65386">
        <ele>388.79998779297</ele>
        <time>2025-08-08T11:34:14.000Z</time>
      </trkpt>
      <trkpt lat="43.10402" lon="0.65373">
        <ele>388.79998779297</ele>
        <time>2025-08-08T11:34:16.000Z</time>
      </trkpt>
      <trkpt lat="43.1039" lon="0.65325">
        <ele>389</ele>
        <time>2025-08-08T11:34:24.000Z</time>
      </trkpt>
      <trkpt lat="43.10387" lon="0.65313">
        <ele>389</ele>
        <time>2025-08-08T11:34:26.000Z</time>
      </trkpt>
      <trkpt lat="43.10379" lon="0.65273">
        <ele>389.39999389648</ele>
        <time>2025-08-08T11:34:33.000Z</time>
      </trkpt>
      <trkpt lat="43.10378" lon="0.65267">
        <ele>389.39999389648</ele>
        <time>2025-08-08T11:34:34.000Z</time>
      </trkpt>
      <trkpt lat="43.10365" lon="0.65215">
        <ele>390</ele>
        <time>2025-08-08T11:34:44.000Z</time>
      </trkpt>
      <trkpt lat="43.10359" lon="0.65188">
        <ele>390.39999389648</ele>
        <time>2025-08-08T11:34:49.000Z</time>
      </trkpt>
      <trkpt lat="43.10348" lon="0.65148">
        <ele>390.60000610352</ele>
        <time>2025-08-08T11:34:56.000Z</time>
      </trkpt>
      <trkpt lat="43.10334" lon="0.65094">
        <ele>390.79998779297</ele>
        <time>2025-08-08T11:35:06.000Z</time>
      </trkpt>
      <trkpt lat="43.10327" lon="0.65064">
        <ele>391</ele>
        <time>2025-08-08T11:35:11.000Z</time>
      </trkpt>
      <trkpt lat="43.10318" lon="0.6503">
        <ele>391.20001220703</ele>
        <time>2025-08-08T11:35:17.000Z</time>
      </trkpt>
      <trkpt lat="43.10306" lon="0.64977">
        <ele>391.39999389648</ele>
        <time>2025-08-08T11:35:26.000Z</time>
      </trkpt>
      <trkpt lat="43.10301" lon="0.6496">
        <ele>391.39999389648</ele>
        <time>2025-08-08T11:35:29.000Z</time>
      </trkpt>
      <trkpt lat="43.10289" lon="0.64913">
        <ele>391.39999389648</ele>
        <time>2025-08-08T11:35:37.000Z</time>
      </trkpt>
      <trkpt lat="43.10277" lon="0.64868">
        <ele>392</ele>
        <time>2025-08-08T11:35:45.000Z</time>
      </trkpt>
      <trkpt lat="43.10262" lon="0.64808">
        <ele>392</ele>
        <time>2025-08-08T11:35:55.000Z</time>
      </trkpt>
      <trkpt lat="43.10261" lon="0.64802">
        <ele>392</ele>
        <time>2025-08-08T11:35:56.000Z</time>
      </trkpt>
      <trkpt lat="43.10246" lon="0.64745">
        <ele>392</ele>
        <time>2025-08-08T11:36:05.000Z</time>
      </trkpt>
      <trkpt lat="43.10236" lon="0.64706">
        <ele>392.20001220703</ele>
        <time>2025-08-08T11:36:11.000Z</time>
      </trkpt>
      <trkpt lat="43.1023" lon="0.64688">
        <ele>392.20001220703</ele>
        <time>2025-08-08T11:36:14.000Z</time>
      </trkpt>
      <trkpt lat="43.10218" lon="0.64658">
        <ele>392.39999389648</ele>
        <time>2025-08-08T11:36:19.000Z</time>
      </trkpt>
      <trkpt lat="43.10201" lon="0.6462">
        <ele>392.60000610352</ele>
        <time>2025-08-08T11:36:26.000Z</time>
      </trkpt>
      <trkpt lat="43.10172" lon="0.64561">
        <ele>393.20001220703</ele>
        <time>2025-08-08T11:36:37.000Z</time>
      </trkpt>
      <trkpt lat="43.1017" lon="0.64556">
        <ele>393.20001220703</ele>
        <time>2025-08-08T11:36:38.000Z</time>
      </trkpt>
      <trkpt lat="43.1016" lon="0.64535">
        <ele>393.39999389648</ele>
        <time>2025-08-08T11:36:42.000Z</time>
      </trkpt>
      <trkpt lat="43.10151" lon="0.64515">
        <ele>393.60000610352</ele>
        <time>2025-08-08T11:36:46.000Z</time>
      </trkpt>
      <trkpt lat="43.10131" lon="0.64471">
        <ele>394.20001220703</ele>
        <time>2025-08-08T11:36:55.000Z</time>
      </trkpt>
      <trkpt lat="43.10126" lon="0.64461">
        <ele>394.39999389648</ele>
        <time>2025-08-08T11:36:57.000Z</time>
      </trkpt>
      <trkpt lat="43.10113" lon="0.64435">
        <ele>394.39999389648</ele>
        <time>2025-08-08T11:37:02.000Z</time>
      </trkpt>
      <trkpt lat="43.10087" lon="0.64375">
        <ele>394.39999389648</ele>
        <time>2025-08-08T11:37:13.000Z</time>
      </trkpt>
      <trkpt lat="43.10082" lon="0.64365">
        <ele>394.39999389648</ele>
        <time>2025-08-08T11:37:15.000Z</time>
      </trkpt>
      <trkpt lat="43.10072" lon="0.64344">
        <ele>394.60000610352</ele>
        <time>2025-08-08T11:37:19.000Z</time>
      </trkpt>
      <trkpt lat="43.10069" lon="0.64338">
        <ele>394.60000610352</ele>
        <time>2025-08-08T11:37:20.000Z</time>
      </trkpt>
      <trkpt lat="43.10041" lon="0.64275">
        <ele>395</ele>
        <time>2025-08-08T11:37:31.000Z</time>
      </trkpt>
      <trkpt lat="43.10017" lon="0.64224">
        <ele>395</ele>
        <time>2025-08-08T11:37:40.000Z</time>
      </trkpt>
      <trkpt lat="43.10001" lon="0.64188">
        <ele>395.39999389648</ele>
        <time>2025-08-08T11:37:47.000Z</time>
      </trkpt>
      <trkpt lat="43.09981" lon="0.64148">
        <ele>395.39999389648</ele>
        <time>2025-08-08T11:37:55.000Z</time>
      </trkpt>
      <trkpt lat="43.09957" lon="0.641">
        <ele>395.39999389648</ele>
        <time>2025-08-08T11:38:04.000Z</time>
      </trkpt>
      <trkpt lat="43.0995" lon="0.64085">
        <ele>395.60000610352</ele>
        <time>2025-08-08T11:38:07.000Z</time>
      </trkpt>
      <trkpt lat="43.09944" lon="0.64071">
        <ele>395.79998779297</ele>
        <time>2025-08-08T11:38:10.000Z</time>
      </trkpt>
      <trkpt lat="43.09942" lon="0.64067">
        <ele>396</ele>
        <time>2025-08-08T11:38:11.000Z</time>
      </trkpt>
      <trkpt lat="43.09921" lon="0.64025">
        <ele>396.20001220703</ele>
        <time>2025-08-08T11:38:20.000Z</time>
      </trkpt>
      <trkpt lat="43.09899" lon="0.63988">
        <ele>396.20001220703</ele>
        <time>2025-08-08T11:38:28.000Z</time>
      </trkpt>
      <trkpt lat="43.09884" lon="0.63959">
        <ele>396.39999389648</ele>
        <time>2025-08-08T11:38:34.000Z</time>
      </trkpt>
      <trkpt lat="43.09881" lon="0.63955">
        <ele>396.39999389648</ele>
        <time>2025-08-08T11:38:35.000Z</time>
      </trkpt>
      <trkpt lat="43.09879" lon="0.63951">
        <ele>396.60000610352</ele>
        <time>2025-08-08T11:38:36.000Z</time>
      </trkpt>
      <trkpt lat="43.0986" lon="0.63916">
        <ele>397</ele>
        <time>2025-08-08T11:38:44.000Z</time>
      </trkpt>
      <trkpt lat="43.0985" lon="0.63899">
        <ele>397.20001220703</ele>
        <time>2025-08-08T11:38:48.000Z</time>
      </trkpt>
      <trkpt lat="43.09845" lon="0.6389">
        <ele>397.20001220703</ele>
        <time>2025-08-08T11:38:50.000Z</time>
      </trkpt>
      <trkpt lat="43.09842" lon="0.63885">
        <ele>397.20001220703</ele>
        <time>2025-08-08T11:38:51.000Z</time>
      </trkpt>
      <trkpt lat="43.09828" lon="0.63864">
        <ele>397.20001220703</ele>
        <time>2025-08-08T11:38:56.000Z</time>
      </trkpt>
      <trkpt lat="43.09825" lon="0.63861">
        <ele>397.20001220703</ele>
        <time>2025-08-08T11:38:57.000Z</time>
      </trkpt>
      <trkpt lat="43.09792" lon="0.63822">
        <ele>397.60000610352</ele>
        <time>2025-08-08T11:39:07.000Z</time>
      </trkpt>
      <trkpt lat="43.0978" lon="0.63808">
        <ele>397.79998779297</ele>
        <time>2025-08-08T11:39:11.000Z</time>
      </trkpt>
      <trkpt lat="43.09772" lon="0.63799">
        <ele>398.20001220703</ele>
        <time>2025-08-08T11:39:14.000Z</time>
      </trkpt>
      <trkpt lat="43.09761" lon="0.63789">
        <ele>398.79998779297</ele>
        <time>2025-08-08T11:39:20.000Z</time>
      </trkpt>
      <trkpt lat="43.09761" lon="0.63789">
        <ele>398.79998779297</ele>
        <time>2025-08-08T11:39:21.000Z</time>
      </trkpt>
      <trkpt lat="43.0975" lon="0.63775">
        <ele>404.20001220703</ele>
        <time>2025-08-08T13:39:46.000Z</time>
      </trkpt>
      <trkpt lat="43.09747" lon="0.63769">
        <ele>404.20001220703</ele>
        <time>2025-08-08T13:39:49.000Z</time>
      </trkpt>
      <trkpt lat="43.09732" lon="0.63754">
        <ele>404.20001220703</ele>
        <time>2025-08-08T13:39:57.000Z</time>
      </trkpt>
      <trkpt lat="43.09717" lon="0.63732">
        <ele>404.39999389648</ele>
        <time>2025-08-08T13:40:04.000Z</time>
      </trkpt>
      <trkpt lat="43.09704" lon="0.63717">
        <ele>404.60000610352</ele>
        <time>2025-08-08T13:40:10.000Z</time>
      </trkpt>
      <trkpt lat="43.09699" lon="0.63712">
        <ele>404.60000610352</ele>
        <time>2025-08-08T13:40:12.000Z</time>
      </trkpt>
      <trkpt lat="43.0968" lon="0.63691">
        <ele>405</ele>
        <time>2025-08-08T13:40:20.000Z</time>
      </trkpt>
      <trkpt lat="43.09656" lon="0.6366">
        <ele>405.20001220703</ele>
        <time>2025-08-08T13:40:30.000Z</time>
      </trkpt>
      <trkpt lat="43.09641" lon="0.63638">
        <ele>405.39999389648</ele>
        <time>2025-08-08T13:40:36.000Z</time>
      </trkpt>
      <trkpt lat="43.09635" lon="0.63625">
        <ele>405.39999389648</ele>
        <time>2025-08-08T13:40:39.000Z</time>
      </trkpt>
      <trkpt lat="43.09622" lon="0.63598">
        <ele>406.20001220703</ele>
        <time>2025-08-08T13:40:46.000Z</time>
      </trkpt>
      <trkpt lat="43.0962" lon="0.63594">
        <ele>406.20001220703</ele>
        <time>2025-08-08T13:40:47.000Z</time>
      </trkpt>
      <trkpt lat="43.09608" lon="0.63574">
        <ele>406.39999389648</ele>
        <time>2025-08-08T13:40:53.000Z</time>
      </trkpt>
      <trkpt lat="43.09599" lon="0.63561">
        <ele>406.39999389648</ele>
        <time>2025-08-08T13:40:58.000Z</time>
      </trkpt>
      <trkpt lat="43.09597" lon="0.63558">
        <ele>406.39999389648</ele>
        <time>2025-08-08T13:40:59.000Z</time>
      </trkpt>
      <trkpt lat="43.09587" lon="0.63539">
        <ele>406.39999389648</ele>
        <time>2025-08-08T13:41:04.000Z</time>
      </trkpt>
      <trkpt lat="43.0957" lon="0.63511">
        <ele>406.79998779297</ele>
        <time>2025-08-08T13:41:11.000Z</time>
      </trkpt>
      <trkpt lat="43.09549" lon="0.63486">
        <ele>406.79998779297</ele>
        <time>2025-08-08T13:41:19.000Z</time>
      </trkpt>
      <trkpt lat="43.09538" lon="0.63478">
        <ele>407</ele>
        <time>2025-08-08T13:41:23.000Z</time>
      </trkpt>
      <trkpt lat="43.09533" lon="0.63475">
        <ele>407</ele>
        <time>2025-08-08T13:41:25.000Z</time>
      </trkpt>
      <trkpt lat="43.09524" lon="0.63472">
        <ele>407.20001220703</ele>
        <time>2025-08-08T13:41:28.000Z</time>
      </trkpt>
      <trkpt lat="43.09513" lon="0.63466">
        <ele>407.39999389648</ele>
        <time>2025-08-08T13:41:32.000Z</time>
      </trkpt>
      <trkpt lat="43.09493" lon="0.63457">
        <ele>408</ele>
        <time>2025-08-08T13:41:39.000Z</time>
      </trkpt>
      <trkpt lat="43.09484" lon="0.63454">
        <ele>408.20001220703</ele>
        <time>2025-08-08T13:41:42.000Z</time>
      </trkpt>
      <trkpt lat="43.09472" lon="0.6345">
        <ele>408.60000610352</ele>
        <time>2025-08-08T13:41:46.000Z</time>
      </trkpt>
      <trkpt lat="43.09454" lon="0.63441">
        <ele>409</ele>
        <time>2025-08-08T13:41:52.000Z</time>
      </trkpt>
      <trkpt lat="43.09446" lon="0.63438">
        <ele>409</ele>
        <time>2025-08-08T13:41:55.000Z</time>
      </trkpt>
      <trkpt lat="43.09439" lon="0.63436">
        <ele>409.39999389648</ele>
        <time>2025-08-08T13:41:57.000Z</time>
      </trkpt>
      <trkpt lat="43.09421" lon="0.63428">
        <ele>410</ele>
        <time>2025-08-08T13:42:03.000Z</time>
      </trkpt>
      <trkpt lat="43.09401" lon="0.63416">
        <ele>410.20001220703</ele>
        <time>2025-08-08T13:42:10.000Z</time>
      </trkpt>
      <trkpt lat="43.09386" lon="0.63407">
        <ele>410.60000610352</ele>
        <time>2025-08-08T13:42:15.000Z</time>
      </trkpt>
      <trkpt lat="43.09375" lon="0.634">
        <ele>410.79998779297</ele>
        <time>2025-08-08T13:42:19.000Z</time>
      </trkpt>
      <trkpt lat="43.09372" lon="0.63399">
        <ele>411</ele>
        <time>2025-08-08T13:42:20.000Z</time>
      </trkpt>
      <trkpt lat="43.09356" lon="0.63388">
        <ele>411.39999389648</ele>
        <time>2025-08-08T13:42:26.000Z</time>
      </trkpt>
      <trkpt lat="43.09346" lon="0.6338">
        <ele>411.60000610352</ele>
        <time>2025-08-08T13:42:30.000Z</time>
      </trkpt>
      <trkpt lat="43.09341" lon="0.63377">
        <ele>411.60000610352</ele>
        <time>2025-08-08T13:42:32.000Z</time>
      </trkpt>
      <trkpt lat="43.09321" lon="0.63361">
        <ele>411.60000610352</ele>
        <time>2025-08-08T13:42:39.000Z</time>
      </trkpt>
      <trkpt lat="43.0931" lon="0.63338">
        <ele>411.79998779297</ele>
        <time>2025-08-08T13:42:45.000Z</time>
      </trkpt>
      <trkpt lat="43.09298" lon="0.63313">
        <ele>411.79998779297</ele>
        <time>2025-08-08T13:42:51.000Z</time>
      </trkpt>
      <trkpt lat="43.09296" lon="0.63308">
        <ele>411.79998779297</ele>
        <time>2025-08-08T13:42:52.000Z</time>
      </trkpt>
      <trkpt lat="43.09281" lon="0.63273">
        <ele>411.60000610352</ele>
        <time>2025-08-08T13:42:59.000Z</time>
      </trkpt>
      <trkpt lat="43.09263" lon="0.63245">
        <ele>411.60000610352</ele>
        <time>2025-08-08T13:43:05.000Z</time>
      </trkpt>
      <trkpt lat="43.0926" lon="0.63241">
        <ele>411.60000610352</ele>
        <time>2025-08-08T13:43:06.000Z</time>
      </trkpt>
      <trkpt lat="43.09246" lon="0.6323">
        <ele>411.60000610352</ele>
        <time>2025-08-08T13:43:10.000Z</time>
      </trkpt>
      <trkpt lat="43.09206" lon="0.63209">
        <ele>411.60000610352</ele>
        <time>2025-08-08T13:43:21.000Z</time>
      </trkpt>
      <trkpt lat="43.09197" lon="0.63205">
        <ele>412</ele>
        <time>2025-08-08T13:43:24.000Z</time>
      </trkpt>
      <trkpt lat="43.09182" lon="0.63196">
        <ele>412.60000610352</ele>
        <time>2025-08-08T13:43:29.000Z</time>
      </trkpt>
      <trkpt lat="43.09179" lon="0.63193">
        <ele>412.60000610352</ele>
        <time>2025-08-08T13:43:30.000Z</time>
      </trkpt>
      <trkpt lat="43.09155" lon="0.63172">
        <ele>413.20001220703</ele>
        <time>2025-08-08T13:43:39.000Z</time>
      </trkpt>
      <trkpt lat="43.09134" lon="0.63151">
        <ele>413.79998779297</ele>
        <time>2025-08-08T13:43:47.000Z</time>
      </trkpt>
      <trkpt lat="43.09131" lon="0.63148">
        <ele>413.79998779297</ele>
        <time>2025-08-08T13:43:48.000Z</time>
      </trkpt>
      <trkpt lat="43.09112" lon="0.63123">
        <ele>414.20001220703</ele>
        <time>2025-08-08T13:43:55.000Z</time>
      </trkpt>
      <trkpt lat="43.09095" lon="0.63093">
        <ele>414.39999389648</ele>
        <time>2025-08-08T13:44:02.000Z</time>
      </trkpt>
      <trkpt lat="43.09082" lon="0.63065">
        <ele>414.39999389648</ele>
        <time>2025-08-08T13:44:08.000Z</time>
      </trkpt>
      <trkpt lat="43.0908" lon="0.6306">
        <ele>414.39999389648</ele>
        <time>2025-08-08T13:44:09.000Z</time>
      </trkpt>
      <trkpt lat="43.09065" lon="0.63023">
        <ele>414.39999389648</ele>
        <time>2025-08-08T13:44:17.000Z</time>
      </trkpt>
      <trkpt lat="43.09053" lon="0.62974">
        <ele>414.79998779297</ele>
        <time>2025-08-08T13:44:26.000Z</time>
      </trkpt>
      <trkpt lat="43.09043" lon="0.62919">
        <ele>414.79998779297</ele>
        <time>2025-08-08T13:44:36.000Z</time>
      </trkpt>
      <trkpt lat="43.09038" lon="0.62898">
        <ele>414.79998779297</ele>
        <time>2025-08-08T13:44:40.000Z</time>
      </trkpt>
      <trkpt lat="43.09032" lon="0.62876">
        <ele>415</ele>
        <time>2025-08-08T13:44:44.000Z</time>
      </trkpt>
      <trkpt lat="43.09022" lon="0.62843">
        <ele>415.39999389648</ele>
        <time>2025-08-08T13:44:51.000Z</time>
      </trkpt>
      <trkpt lat="43.09019" lon="0.62833">
        <ele>415.60000610352</ele>
        <time>2025-08-08T13:44:53.000Z</time>
      </trkpt>
      <trkpt lat="43.09011" lon="0.62816">
        <ele>415.79998779297</ele>
        <time>2025-08-08T13:44:57.000Z</time>
      </trkpt>
      <trkpt lat="43.08996" lon="0.62784">
        <ele>416.39999389648</ele>
        <time>2025-08-08T13:45:05.000Z</time>
      </trkpt>
      <trkpt lat="43.08992" lon="0.62777">
        <ele>416.39999389648</ele>
        <time>2025-08-08T13:45:09.000Z</time>
      </trkpt>
      <trkpt lat="43.08991" lon="0.62777">
        <ele>416.39999389648</ele>
        <time>2025-08-08T13:45:10.000Z</time>
      </trkpt>
      <trkpt lat="43.08991" lon="0.62779">
        <ele>416.60000610352</ele>
        <time>2025-08-08T13:45:12.000Z</time>
      </trkpt>
      <trkpt lat="43.08993" lon="0.62781">
        <ele>416.79998779297</ele>
        <time>2025-08-08T13:45:14.000Z</time>
      </trkpt>
      <trkpt lat="43.08997" lon="0.62784">
        <ele>416.79998779297</ele>
        <time>2025-08-08T13:45:17.000Z</time>
      </trkpt>
      <trkpt lat="43.09006" lon="0.62779">
        <ele>416.79998779297</ele>
        <time>2025-08-08T13:45:21.000Z</time>
      </trkpt>
      <trkpt lat="43.09022" lon="0.62767">
        <ele>416.39999389648</ele>
        <time>2025-08-08T13:45:26.000Z</time>
      </trkpt>
      <trkpt lat="43.09025" lon="0.62762">
        <ele>416.20001220703</ele>
        <time>2025-08-08T13:45:27.000Z</time>
      </trkpt>
      <trkpt lat="43.09034" lon="0.62738">
        <ele>415.60000610352</ele>
        <time>2025-08-08T13:45:31.000Z</time>
      </trkpt>
      <trkpt lat="43.09036" lon="0.62724">
        <ele>415</ele>
        <time>2025-08-08T13:45:33.000Z</time>
      </trkpt>
      <trkpt lat="43.09038" lon="0.62708">
        <ele>414.60000610352</ele>
        <time>2025-08-08T13:45:35.000Z</time>
      </trkpt>
      <trkpt lat="43.09042" lon="0.62683">
        <ele>413.39999389648</ele>
        <time>2025-08-08T13:45:38.000Z</time>
      </trkpt>
      <trkpt lat="43.09045" lon="0.62668">
        <ele>413</ele>
        <time>2025-08-08T13:45:40.000Z</time>
      </trkpt>
      <trkpt lat="43.09047" lon="0.62661">
        <ele>412.60000610352</ele>
        <time>2025-08-08T13:45:41.000Z</time>
      </trkpt>
      <trkpt lat="43.09053" lon="0.62647">
        <ele>412.20001220703</ele>
        <time>2025-08-08T13:45:43.000Z</time>
      </trkpt>
      <trkpt lat="43.09057" lon="0.62643">
        <ele>412</ele>
        <time>2025-08-08T13:45:44.000Z</time>
      </trkpt>
      <trkpt lat="43.09065" lon="0.62635">
        <ele>411</ele>
        <time>2025-08-08T13:45:46.000Z</time>
      </trkpt>
      <trkpt lat="43.09075" lon="0.62629">
        <ele>409.79998779297</ele>
        <time>2025-08-08T13:45:48.000Z</time>
      </trkpt>
      <trkpt lat="43.0908" lon="0.62628">
        <ele>409.60000610352</ele>
        <time>2025-08-08T13:45:49.000Z</time>
      </trkpt>
      <trkpt lat="43.09098" lon="0.62624">
        <ele>408.39999389648</ele>
        <time>2025-08-08T13:45:52.000Z</time>
      </trkpt>
      <trkpt lat="43.09104" lon="0.62624">
        <ele>408</ele>
        <time>2025-08-08T13:45:53.000Z</time>
      </trkpt>
      <trkpt lat="43.09122" lon="0.62624">
        <ele>407.60000610352</ele>
        <time>2025-08-08T13:45:56.000Z</time>
      </trkpt>
      <trkpt lat="43.09127" lon="0.62623">
        <ele>407.39999389648</ele>
        <time>2025-08-08T13:45:57.000Z</time>
      </trkpt>
      <trkpt lat="43.09138" lon="0.62618">
        <ele>407.20001220703</ele>
        <time>2025-08-08T13:45:59.000Z</time>
      </trkpt>
      <trkpt lat="43.09143" lon="0.62615">
        <ele>407.20001220703</ele>
        <time>2025-08-08T13:46:00.000Z</time>
      </trkpt>
      <trkpt lat="43.09173" lon="0.62598">
        <ele>407</ele>
        <time>2025-08-08T13:46:07.000Z</time>
      </trkpt>
      <trkpt lat="43.0919" lon="0.62584">
        <ele>407.39999389648</ele>
        <time>2025-08-08T13:46:13.000Z</time>
      </trkpt>
      <trkpt lat="43.09191" lon="0.62577">
        <ele>407.60000610352</ele>
        <time>2025-08-08T13:46:17.000Z</time>
      </trkpt>
      <trkpt lat="43.09189" lon="0.62576">
        <ele>407.60000610352</ele>
        <time>2025-08-08T13:46:19.000Z</time>
      </trkpt>
      <trkpt lat="43.09186" lon="0.62571">
        <ele>407.79998779297</ele>
        <time>2025-08-08T13:46:22.000Z</time>
      </trkpt>
      <trkpt lat="43.09176" lon="0.62556">
        <ele>407.60000610352</ele>
        <time>2025-08-08T13:46:27.000Z</time>
      </trkpt>
      <trkpt lat="43.09157" lon="0.6253">
        <ele>407.79998779297</ele>
        <time>2025-08-08T13:46:34.000Z</time>
      </trkpt>
      <trkpt lat="43.09142" lon="0.62498">
        <ele>407.79998779297</ele>
        <time>2025-08-08T13:46:41.000Z</time>
      </trkpt>
      <trkpt lat="43.09139" lon="0.62492">
        <ele>407.79998779297</ele>
        <time>2025-08-08T13:46:42.000Z</time>
      </trkpt>
      <trkpt lat="43.09133" lon="0.62477">
        <ele>408</ele>
        <time>2025-08-08T13:46:45.000Z</time>
      </trkpt>
      <trkpt lat="43.09127" lon="0.62463">
        <ele>408.20001220703</ele>
        <time>2025-08-08T13:46:48.000Z</time>
      </trkpt>
      <trkpt lat="43.09125" lon="0.6246">
        <ele>408.39999389648</ele>
        <time>2025-08-08T13:46:49.000Z</time>
      </trkpt>
      <trkpt lat="43.0912" lon="0.62449">
        <ele>408.60000610352</ele>
        <time>2025-08-08T13:46:51.000Z</time>
      </trkpt>
      <trkpt lat="43.0911" lon="0.62429">
        <ele>408.79998779297</ele>
        <time>2025-08-08T13:46:55.000Z</time>
      </trkpt>
      <trkpt lat="43.09087" lon="0.62373">
        <ele>408.79998779297</ele>
        <time>2025-08-08T13:47:05.000Z</time>
      </trkpt>
      <trkpt lat="43.09085" lon="0.62368">
        <ele>408.79998779297</ele>
        <time>2025-08-08T13:47:06.000Z</time>
      </trkpt>
      <trkpt lat="43.09075" lon="0.62337">
        <ele>409</ele>
        <time>2025-08-08T13:47:11.000Z</time>
      </trkpt>
      <trkpt lat="43.09056" lon="0.62289">
        <ele>408.79998779297</ele>
        <time>2025-08-08T13:47:19.000Z</time>
      </trkpt>
      <trkpt lat="43.09047" lon="0.62273">
        <ele>408.79998779297</ele>
        <time>2025-08-08T13:47:22.000Z</time>
      </trkpt>
      <trkpt lat="43.0904" lon="0.62265">
        <ele>409</ele>
        <time>2025-08-08T13:47:24.000Z</time>
      </trkpt>
      <trkpt lat="43.09018" lon="0.62251">
        <ele>408.79998779297</ele>
        <time>2025-08-08T13:47:29.000Z</time>
      </trkpt>
      <trkpt lat="43.09014" lon="0.62248">
        <ele>408.79998779297</ele>
        <time>2025-08-08T13:47:30.000Z</time>
      </trkpt>
      <trkpt lat="43.09007" lon="0.6224">
        <ele>408.79998779297</ele>
        <time>2025-08-08T13:47:32.000Z</time>
      </trkpt>
      <trkpt lat="43.08999" lon="0.62226">
        <ele>408.60000610352</ele>
        <time>2025-08-08T13:47:35.000Z</time>
      </trkpt>
      <trkpt lat="43.08992" lon="0.62199">
        <ele>408.60000610352</ele>
        <time>2025-08-08T13:47:40.000Z</time>
      </trkpt>
      <trkpt lat="43.08985" lon="0.62168">
        <ele>409</ele>
        <time>2025-08-08T13:47:46.000Z</time>
      </trkpt>
      <trkpt lat="43.08981" lon="0.62141">
        <ele>409.39999389648</ele>
        <time>2025-08-08T13:47:52.000Z</time>
      </trkpt>
      <trkpt lat="43.0898" lon="0.62137">
        <ele>409.60000610352</ele>
        <time>2025-08-08T13:47:53.000Z</time>
      </trkpt>
      <trkpt lat="43.08978" lon="0.62127">
        <ele>410</ele>
        <time>2025-08-08T13:47:56.000Z</time>
      </trkpt>
      <trkpt lat="43.08976" lon="0.62108">
        <ele>410.60000610352</ele>
        <time>2025-08-08T13:48:01.000Z</time>
      </trkpt>
      <trkpt lat="43.08975" lon="0.621">
        <ele>410.79998779297</ele>
        <time>2025-08-08T13:48:04.000Z</time>
      </trkpt>
      <trkpt lat="43.08972" lon="0.62082">
        <ele>411.39999389648</ele>
        <time>2025-08-08T13:48:09.000Z</time>
      </trkpt>
      <trkpt lat="43.0897" lon="0.62065">
        <ele>412</ele>
        <time>2025-08-08T13:48:14.000Z</time>
      </trkpt>
      <trkpt lat="43.08967" lon="0.62056">
        <ele>412.20001220703</ele>
        <time>2025-08-08T13:48:17.000Z</time>
      </trkpt>
      <trkpt lat="43.08964" lon="0.62029">
        <ele>413</ele>
        <time>2025-08-08T13:48:26.000Z</time>
      </trkpt>
      <trkpt lat="43.08964" lon="0.62026">
        <ele>413</ele>
        <time>2025-08-08T13:48:27.000Z</time>
      </trkpt>
      <trkpt lat="43.08962" lon="0.62008">
        <ele>414</ele>
        <time>2025-08-08T13:48:33.000Z</time>
      </trkpt>
      <trkpt lat="43.08962" lon="0.62001">
        <ele>414.20001220703</ele>
        <time>2025-08-08T13:48:35.000Z</time>
      </trkpt>
      <trkpt lat="43.08961" lon="0.61985">
        <ele>415</ele>
        <time>2025-08-08T13:48:40.000Z</time>
      </trkpt>
      <trkpt lat="43.08958" lon="0.61975">
        <ele>415.39999389648</ele>
        <time>2025-08-08T13:48:43.000Z</time>
      </trkpt>
      <trkpt lat="43.08958" lon="0.61969">
        <ele>415.60000610352</ele>
        <time>2025-08-08T13:48:45.000Z</time>
      </trkpt>
      <trkpt lat="43.08955" lon="0.61958">
        <ele>416.20001220703</ele>
        <time>2025-08-08T13:48:49.000Z</time>
      </trkpt>
      <trkpt lat="43.08952" lon="0.61946">
        <ele>416.60000610352</ele>
        <time>2025-08-08T13:48:53.000Z</time>
      </trkpt>
      <trkpt lat="43.08944" lon="0.61929">
        <ele>417.20001220703</ele>
        <time>2025-08-08T13:49:01.000Z</time>
      </trkpt>
      <trkpt lat="43.08942" lon="0.61927">
        <ele>417.20001220703</ele>
        <time>2025-08-08T13:49:02.000Z</time>
      </trkpt>
      <trkpt lat="43.08931" lon="0.61913">
        <ele>418</ele>
        <time>2025-08-08T13:49:09.000Z</time>
      </trkpt>
      <trkpt lat="43.08929" lon="0.6191">
        <ele>418.39999389648</ele>
        <time>2025-08-08T13:49:11.000Z</time>
      </trkpt>
      <trkpt lat="43.08919" lon="0.61902">
        <ele>419</ele>
        <time>2025-08-08T13:49:16.000Z</time>
      </trkpt>
      <trkpt lat="43.08914" lon="0.61898">
        <ele>419.39999389648</ele>
        <time>2025-08-08T13:49:19.000Z</time>
      </trkpt>
      <trkpt lat="43.08908" lon="0.61894">
        <ele>419.79998779297</ele>
        <time>2025-08-08T13:49:22.000Z</time>
      </trkpt>
      <trkpt lat="43.08895" lon="0.61881">
        <ele>420.39999389648</ele>
        <time>2025-08-08T13:49:29.000Z</time>
      </trkpt>
      <trkpt lat="43.08891" lon="0.61876">
        <ele>420.60000610352</ele>
        <time>2025-08-08T13:49:31.000Z</time>
      </trkpt>
      <trkpt lat="43.08878" lon="0.61867">
        <ele>420.79998779297</ele>
        <time>2025-08-08T13:49:37.000Z</time>
      </trkpt>
      <trkpt lat="43.08854" lon="0.61846">
        <ele>421.39999389648</ele>
        <time>2025-08-08T13:49:47.000Z</time>
      </trkpt>
      <trkpt lat="43.08835" lon="0.61827">
        <ele>421.39999389648</ele>
        <time>2025-08-08T13:49:55.000Z</time>
      </trkpt>
      <trkpt lat="43.08823" lon="0.61815">
        <ele>421.60000610352</ele>
        <time>2025-08-08T13:50:00.000Z</time>
      </trkpt>
      <trkpt lat="43.08813" lon="0.61807">
        <ele>421.60000610352</ele>
        <time>2025-08-08T13:50:04.000Z</time>
      </trkpt>
      <trkpt lat="43.08812" lon="0.61805">
        <ele>421.60000610352</ele>
        <time>2025-08-08T13:50:05.000Z</time>
      </trkpt>
      <trkpt lat="43.08796" lon="0.61788">
        <ele>421.60000610352</ele>
        <time>2025-08-08T13:50:11.000Z</time>
      </trkpt>
      <trkpt lat="43.08779" lon="0.61769">
        <ele>421.79998779297</ele>
        <time>2025-08-08T13:50:18.000Z</time>
      </trkpt>
      <trkpt lat="43.08774" lon="0.61765">
        <ele>422</ele>
        <time>2025-08-08T13:50:20.000Z</time>
      </trkpt>
      <trkpt lat="43.08768" lon="0.61765">
        <ele>422.39999389648</ele>
        <time>2025-08-08T13:50:22.000Z</time>
      </trkpt>
      <trkpt lat="43.08763" lon="0.61765">
        <ele>422.60000610352</ele>
        <time>2025-08-08T13:50:24.000Z</time>
      </trkpt>
      <trkpt lat="43.0875" lon="0.6177">
        <ele>423</ele>
        <time>2025-08-08T13:50:28.000Z</time>
      </trkpt>
      <trkpt lat="43.08745" lon="0.61768">
        <ele>423</ele>
        <time>2025-08-08T13:50:30.000Z</time>
      </trkpt>
      <trkpt lat="43.08743" lon="0.61765">
        <ele>423</ele>
        <time>2025-08-08T13:50:31.000Z</time>
      </trkpt>
      <trkpt lat="43.08737" lon="0.61743">
        <ele>423</ele>
        <time>2025-08-08T13:50:37.000Z</time>
      </trkpt>
      <trkpt lat="43.08728" lon="0.61715">
        <ele>423.20001220703</ele>
        <time>2025-08-08T13:50:44.000Z</time>
      </trkpt>
      <trkpt lat="43.08715" lon="0.61686">
        <ele>423.39999389648</ele>
        <time>2025-08-08T13:50:51.000Z</time>
      </trkpt>
      <trkpt lat="43.08706" lon="0.61662">
        <ele>423.60000610352</ele>
        <time>2025-08-08T13:50:57.000Z</time>
      </trkpt>
      <trkpt lat="43.08696" lon="0.61635">
        <ele>423.60000610352</ele>
        <time>2025-08-08T13:51:03.000Z</time>
      </trkpt>
      <trkpt lat="43.08691" lon="0.61623">
        <ele>423.60000610352</ele>
        <time>2025-08-08T13:51:06.000Z</time>
      </trkpt>
      <trkpt lat="43.08689" lon="0.61618">
        <ele>423.60000610352</ele>
        <time>2025-08-08T13:51:07.000Z</time>
      </trkpt>
      <trkpt lat="43.08686" lon="0.61611">
        <ele>423.79998779297</ele>
        <time>2025-08-08T13:51:09.000Z</time>
      </trkpt>
      <trkpt lat="43.08674" lon="0.6158">
        <ele>424</ele>
        <time>2025-08-08T13:51:17.000Z</time>
      </trkpt>
      <trkpt lat="43.08661" lon="0.61544">
        <ele>424.60000610352</ele>
        <time>2025-08-08T13:51:26.000Z</time>
      </trkpt>
      <trkpt lat="43.08655" lon="0.61527">
        <ele>424.79998779297</ele>
        <time>2025-08-08T13:51:30.000Z</time>
      </trkpt>
      <trkpt lat="43.08648" lon="0.61502">
        <ele>425</ele>
        <time>2025-08-08T13:51:36.000Z</time>
      </trkpt>
      <trkpt lat="43.08643" lon="0.61482">
        <ele>425.20001220703</ele>
        <time>2025-08-08T13:51:41.000Z</time>
      </trkpt>
      <trkpt lat="43.08639" lon="0.61466">
        <ele>425.60000610352</ele>
        <time>2025-08-08T13:51:45.000Z</time>
      </trkpt>
      <trkpt lat="43.08635" lon="0.6145">
        <ele>425.79998779297</ele>
        <time>2025-08-08T13:51:49.000Z</time>
      </trkpt>
      <trkpt lat="43.08631" lon="0.6144">
        <ele>426</ele>
        <time>2025-08-08T13:51:51.000Z</time>
      </trkpt>
      <trkpt lat="43.08622" lon="0.61413">
        <ele>426</ele>
        <time>2025-08-08T13:51:57.000Z</time>
      </trkpt>
      <trkpt lat="43.08612" lon="0.61386">
        <ele>426</ele>
        <time>2025-08-08T13:52:03.000Z</time>
      </trkpt>
      <trkpt lat="43.08603" lon="0.61358">
        <ele>426.39999389648</ele>
        <time>2025-08-08T13:52:09.000Z</time>
      </trkpt>
      <trkpt lat="43.08597" lon="0.61331">
        <ele>426.79998779297</ele>
        <time>2025-08-08T13:52:15.000Z</time>
      </trkpt>
      <trkpt lat="43.08593" lon="0.61321">
        <ele>427</ele>
        <time>2025-08-08T13:52:17.000Z</time>
      </trkpt>
      <trkpt lat="43.08583" lon="0.61294">
        <ele>427.20001220703</ele>
        <time>2025-08-08T13:52:23.000Z</time>
      </trkpt>
      <trkpt lat="43.08571" lon="0.61262">
        <ele>427</ele>
        <time>2025-08-08T13:52:30.000Z</time>
      </trkpt>
      <trkpt lat="43.08557" lon="0.61226">
        <ele>426.79998779297</ele>
        <time>2025-08-08T13:52:38.000Z</time>
      </trkpt>
      <trkpt lat="43.08545" lon="0.6119">
        <ele>426.79998779297</ele>
        <time>2025-08-08T13:52:46.000Z</time>
      </trkpt>
      <trkpt lat="43.08533" lon="0.61157">
        <ele>427</ele>
        <time>2025-08-08T13:52:53.000Z</time>
      </trkpt>
      <trkpt lat="43.08523" lon="0.6113">
        <ele>427.20001220703</ele>
        <time>2025-08-08T13:52:59.000Z</time>
      </trkpt>
      <trkpt lat="43.08503" lon="0.61091">
        <ele>427.60000610352</ele>
        <time>2025-08-08T13:53:08.000Z</time>
      </trkpt>
      <trkpt lat="43.08483" lon="0.61065">
        <ele>428</ele>
        <time>2025-08-08T13:53:15.000Z</time>
      </trkpt>
      <trkpt lat="43.08475" lon="0.61053">
        <ele>428</ele>
        <time>2025-08-08T13:53:18.000Z</time>
      </trkpt>
      <trkpt lat="43.08446" lon="0.61015">
        <ele>428.39999389648</ele>
        <time>2025-08-08T13:53:27.000Z</time>
      </trkpt>
      <trkpt lat="43.0843" lon="0.60994">
        <ele>428.39999389648</ele>
        <time>2025-08-08T13:53:32.000Z</time>
      </trkpt>
      <trkpt lat="43.08418" lon="0.60971">
        <ele>428.60000610352</ele>
        <time>2025-08-08T13:53:37.000Z</time>
      </trkpt>
      <trkpt lat="43.08409" lon="0.60952">
        <ele>429</ele>
        <time>2025-08-08T13:53:41.000Z</time>
      </trkpt>
      <trkpt lat="43.08397" lon="0.60928">
        <ele>429.39999389648</ele>
        <time>2025-08-08T13:53:46.000Z</time>
      </trkpt>
      <trkpt lat="43.08393" lon="0.60919">
        <ele>429.60000610352</ele>
        <time>2025-08-08T13:53:48.000Z</time>
      </trkpt>
      <trkpt lat="43.08386" lon="0.609">
        <ele>429.79998779297</ele>
        <time>2025-08-08T13:53:52.000Z</time>
      </trkpt>
      <trkpt lat="43.08383" lon="0.60891">
        <ele>430</ele>
        <time>2025-08-08T13:53:54.000Z</time>
      </trkpt>
      <trkpt lat="43.08372" lon="0.60867">
        <ele>430.39999389648</ele>
        <time>2025-08-08T13:53:59.000Z</time>
      </trkpt>
      <trkpt lat="43.08352" lon="0.60818">
        <ele>430.60000610352</ele>
        <time>2025-08-08T13:54:09.000Z</time>
      </trkpt>
      <trkpt lat="43.08337" lon="0.60781">
        <ele>430.79998779297</ele>
        <time>2025-08-08T13:54:16.000Z</time>
      </trkpt>
      <trkpt lat="43.08318" lon="0.60735">
        <ele>430.79998779297</ele>
        <time>2025-08-08T13:54:25.000Z</time>
      </trkpt>
      <trkpt lat="43.08301" lon="0.6069">
        <ele>431</ele>
        <time>2025-08-08T13:54:34.000Z</time>
      </trkpt>
      <trkpt lat="43.08294" lon="0.60669">
        <ele>431</ele>
        <time>2025-08-08T13:54:38.000Z</time>
      </trkpt>
      <trkpt lat="43.08283" lon="0.60638">
        <ele>431.20001220703</ele>
        <time>2025-08-08T13:54:44.000Z</time>
      </trkpt>
      <trkpt lat="43.08263" lon="0.60585">
        <ele>431.60000610352</ele>
        <time>2025-08-08T13:54:54.000Z</time>
      </trkpt>
      <trkpt lat="43.08245" lon="0.60534">
        <ele>431.79998779297</ele>
        <time>2025-08-08T13:55:04.000Z</time>
      </trkpt>
      <trkpt lat="43.08244" lon="0.60529">
        <ele>431.79998779297</ele>
        <time>2025-08-08T13:55:05.000Z</time>
      </trkpt>
      <trkpt lat="43.08233" lon="0.60502">
        <ele>432</ele>
        <time>2025-08-08T13:55:10.000Z</time>
      </trkpt>
      <trkpt lat="43.0823" lon="0.60493">
        <ele>432.20001220703</ele>
        <time>2025-08-08T13:55:12.000Z</time>
      </trkpt>
      <trkpt lat="43.08211" lon="0.60445">
        <ele>432.60000610352</ele>
        <time>2025-08-08T13:55:21.000Z</time>
      </trkpt>
      <trkpt lat="43.08186" lon="0.60397">
        <ele>433</ele>
        <time>2025-08-08T13:55:30.000Z</time>
      </trkpt>
      <trkpt lat="43.08159" lon="0.60352">
        <ele>433</ele>
        <time>2025-08-08T13:55:39.000Z</time>
      </trkpt>
      <trkpt lat="43.08131" lon="0.60309">
        <ele>432.60000610352</ele>
        <time>2025-08-08T13:55:48.000Z</time>
      </trkpt>
      <trkpt lat="43.08102" lon="0.60261">
        <ele>432.39999389648</ele>
        <time>2025-08-08T13:55:57.000Z</time>
      </trkpt>
      <trkpt lat="43.08068" lon="0.60207">
        <ele>432</ele>
        <time>2025-08-08T13:56:07.000Z</time>
      </trkpt>
      <trkpt lat="43.08035" lon="0.60159">
        <ele>432</ele>
        <time>2025-08-08T13:56:16.000Z</time>
      </trkpt>
      <trkpt lat="43.08006" lon="0.60118">
        <ele>432.20001220703</ele>
        <time>2025-08-08T13:56:25.000Z</time>
      </trkpt>
      <trkpt lat="43.07988" lon="0.60081">
        <ele>432.20001220703</ele>
        <time>2025-08-08T13:56:32.000Z</time>
      </trkpt>
      <trkpt lat="43.07981" lon="0.60052">
        <ele>433</ele>
        <time>2025-08-08T13:56:38.000Z</time>
      </trkpt>
      <trkpt lat="43.07978" lon="0.60033">
        <ele>433.60000610352</ele>
        <time>2025-08-08T13:56:42.000Z</time>
      </trkpt>
      <trkpt lat="43.07976" lon="0.60024">
        <ele>433.60000610352</ele>
        <time>2025-08-08T13:56:44.000Z</time>
      </trkpt>
      <trkpt lat="43.0797" lon="0.59995">
        <ele>433.79998779297</ele>
        <time>2025-08-08T13:56:50.000Z</time>
      </trkpt>
      <trkpt lat="43.07957" lon="0.59947">
        <ele>433.79998779297</ele>
        <time>2025-08-08T13:56:59.000Z</time>
      </trkpt>
      <trkpt lat="43.07945" lon="0.59903">
        <ele>433.79998779297</ele>
        <time>2025-08-08T13:57:07.000Z</time>
      </trkpt>
      <trkpt lat="43.07942" lon="0.59892">
        <ele>433.79998779297</ele>
        <time>2025-08-08T13:57:09.000Z</time>
      </trkpt>
      <trkpt lat="43.07939" lon="0.59868">
        <ele>433.79998779297</ele>
        <time>2025-08-08T13:57:13.000Z</time>
      </trkpt>
      <trkpt lat="43.0793" lon="0.59804">
        <ele>433.79998779297</ele>
        <time>2025-08-08T13:57:23.000Z</time>
      </trkpt>
      <trkpt lat="43.07921" lon="0.59759">
        <ele>433.79998779297</ele>
        <time>2025-08-08T13:57:31.000Z</time>
      </trkpt>
      <trkpt lat="43.07917" lon="0.59709">
        <ele>434</ele>
        <time>2025-08-08T13:57:40.000Z</time>
      </trkpt>
      <trkpt lat="43.07916" lon="0.59676">
        <ele>434.39999389648</ele>
        <time>2025-08-08T13:57:47.000Z</time>
      </trkpt>
      <trkpt lat="43.07916" lon="0.59657">
        <ele>434.79998779297</ele>
        <time>2025-08-08T13:57:51.000Z</time>
      </trkpt>
      <trkpt lat="43.07915" lon="0.59646">
        <ele>434.79998779297</ele>
        <time>2025-08-08T13:57:53.000Z</time>
      </trkpt>
      <trkpt lat="43.07913" lon="0.59608">
        <ele>435</ele>
        <time>2025-08-08T13:58:00.000Z</time>
      </trkpt>
      <trkpt lat="43.07907" lon="0.59575">
        <ele>435</ele>
        <time>2025-08-08T13:58:06.000Z</time>
      </trkpt>
      <trkpt lat="43.07906" lon="0.59571">
        <ele>435.20001220703</ele>
        <time>2025-08-08T13:58:07.000Z</time>
      </trkpt>
      <trkpt lat="43.07904" lon="0.59566">
        <ele>435.20001220703</ele>
        <time>2025-08-08T13:58:08.000Z</time>
      </trkpt>
      <trkpt lat="43.079" lon="0.59555">
        <ele>435.39999389648</ele>
        <time>2025-08-08T13:58:11.000Z</time>
      </trkpt>
      <trkpt lat="43.07888" lon="0.59544">
        <ele>435.79998779297</ele>
        <time>2025-08-08T13:58:16.000Z</time>
      </trkpt>
      <trkpt lat="43.07872" lon="0.59533">
        <ele>436</ele>
        <time>2025-08-08T13:58:21.000Z</time>
      </trkpt>
      <trkpt lat="43.07865" lon="0.59519">
        <ele>436.20001220703</ele>
        <time>2025-08-08T13:58:24.000Z</time>
      </trkpt>
      <trkpt lat="43.07864" lon="0.59514">
        <ele>436.20001220703</ele>
        <time>2025-08-08T13:58:25.000Z</time>
      </trkpt>
      <trkpt lat="43.07865" lon="0.59508">
        <ele>436.20001220703</ele>
        <time>2025-08-08T13:58:26.000Z</time>
      </trkpt>
      <trkpt lat="43.07871" lon="0.59498">
        <ele>436.39999389648</ele>
        <time>2025-08-08T13:58:28.000Z</time>
      </trkpt>
      <trkpt lat="43.0789" lon="0.59478">
        <ele>436.39999389648</ele>
        <time>2025-08-08T13:58:33.000Z</time>
      </trkpt>
      <trkpt lat="43.07894" lon="0.59467">
        <ele>436.39999389648</ele>
        <time>2025-08-08T13:58:35.000Z</time>
      </trkpt>
      <trkpt lat="43.07897" lon="0.59457">
        <ele>436.39999389648</ele>
        <time>2025-08-08T13:58:37.000Z</time>
      </trkpt>
      <trkpt lat="43.07897" lon="0.59451">
        <ele>436.39999389648</ele>
        <time>2025-08-08T13:58:38.000Z</time>
      </trkpt>
      <trkpt lat="43.07896" lon="0.5944">
        <ele>436.20001220703</ele>
        <time>2025-08-08T13:58:40.000Z</time>
      </trkpt>
      <trkpt lat="43.07894" lon="0.59434">
        <ele>436.20001220703</ele>
        <time>2025-08-08T13:58:41.000Z</time>
      </trkpt>
      <trkpt lat="43.07887" lon="0.59412">
        <ele>436.20001220703</ele>
        <time>2025-08-08T13:58:45.000Z</time>
      </trkpt>
      <trkpt lat="43.07881" lon="0.59399">
        <ele>436.39999389648</ele>
        <time>2025-08-08T13:58:48.000Z</time>
      </trkpt>
      <trkpt lat="43.07861" lon="0.59373">
        <ele>436.20001220703</ele>
        <time>2025-08-08T13:58:55.000Z</time>
      </trkpt>
      <trkpt lat="43.07838" lon="0.59375">
        <ele>436.20001220703</ele>
        <time>2025-08-08T13:59:01.000Z</time>
      </trkpt>
      <trkpt lat="43.07813" lon="0.59375">
        <ele>437.20001220703</ele>
        <time>2025-08-08T13:59:08.000Z</time>
      </trkpt>
      <trkpt lat="43.07808" lon="0.59374">
        <ele>437.39999389648</ele>
        <time>2025-08-08T13:59:09.000Z</time>
      </trkpt>
      <trkpt lat="43.0777" lon="0.59372">
        <ele>438</ele>
        <time>2025-08-08T13:59:19.000Z</time>
      </trkpt>
      <trkpt lat="43.07748" lon="0.59373">
        <ele>438.20001220703</ele>
        <time>2025-08-08T13:59:25.000Z</time>
      </trkpt>
      <trkpt lat="43.07736" lon="0.59374">
        <ele>438.20001220703</ele>
        <time>2025-08-08T13:59:28.000Z</time>
      </trkpt>
      <trkpt lat="43.07706" lon="0.5938">
        <ele>438.39999389648</ele>
        <time>2025-08-08T13:59:36.000Z</time>
      </trkpt>
      <trkpt lat="43.07674" lon="0.59386">
        <ele>438.39999389648</ele>
        <time>2025-08-08T13:59:44.000Z</time>
      </trkpt>
      <trkpt lat="43.07644" lon="0.59386">
        <ele>438.60000610352</ele>
        <time>2025-08-08T13:59:52.000Z</time>
      </trkpt>
      <trkpt lat="43.07619" lon="0.59383">
        <ele>439</ele>
        <time>2025-08-08T13:59:58.000Z</time>
      </trkpt>
      <trkpt lat="43.07608" lon="0.59382">
        <ele>439.20001220703</ele>
        <time>2025-08-08T14:00:01.000Z</time>
      </trkpt>
      <trkpt lat="43.07593" lon="0.59379">
        <ele>439.20001220703</ele>
        <time>2025-08-08T14:00:05.000Z</time>
      </trkpt>
      <trkpt lat="43.07563" lon="0.59377">
        <ele>439.79998779297</ele>
        <time>2025-08-08T14:00:13.000Z</time>
      </trkpt>
      <trkpt lat="43.07541" lon="0.59378">
        <ele>440</ele>
        <time>2025-08-08T14:00:19.000Z</time>
      </trkpt>
      <trkpt lat="43.07535" lon="0.59379">
        <ele>440</ele>
        <time>2025-08-08T14:00:21.000Z</time>
      </trkpt>
      <trkpt lat="43.0752" lon="0.59381">
        <ele>440.39999389648</ele>
        <time>2025-08-08T14:00:27.000Z</time>
      </trkpt>
      <trkpt lat="43.07508" lon="0.59385">
        <ele>441</ele>
        <time>2025-08-08T14:00:32.000Z</time>
      </trkpt>
      <trkpt lat="43.07502" lon="0.59386">
        <ele>441.60000610352</ele>
        <time>2025-08-08T14:00:35.000Z</time>
      </trkpt>
      <trkpt lat="43.07491" lon="0.59382">
        <ele>441.79998779297</ele>
        <time>2025-08-08T14:00:39.000Z</time>
      </trkpt>
      <trkpt lat="43.07489" lon="0.59365">
        <ele>441.79998779297</ele>
        <time>2025-08-08T14:00:43.000Z</time>
      </trkpt>
      <trkpt lat="43.07486" lon="0.5936">
        <ele>441.79998779297</ele>
        <time>2025-08-08T14:00:44.000Z</time>
      </trkpt>
      <trkpt lat="43.07468" lon="0.59355">
        <ele>441.20001220703</ele>
        <time>2025-08-08T14:00:48.000Z</time>
      </trkpt>
      <trkpt lat="43.07436" lon="0.59357">
        <ele>441.20001220703</ele>
        <time>2025-08-08T14:00:56.000Z</time>
      </trkpt>
      <trkpt lat="43.07412" lon="0.59354">
        <ele>441.60000610352</ele>
        <time>2025-08-08T14:01:02.000Z</time>
      </trkpt>
      <trkpt lat="43.0739" lon="0.59352">
        <ele>441.39999389648</ele>
        <time>2025-08-08T14:01:07.000Z</time>
      </trkpt>
      <trkpt lat="43.0738" lon="0.59354">
        <ele>441.39999389648</ele>
        <time>2025-08-08T14:01:09.000Z</time>
      </trkpt>
      <trkpt lat="43.07367" lon="0.59359">
        <ele>441.60000610352</ele>
        <time>2025-08-08T14:01:12.000Z</time>
      </trkpt>
      <trkpt lat="43.07354" lon="0.59362">
        <ele>441.60000610352</ele>
        <time>2025-08-08T14:01:15.000Z</time>
      </trkpt>
      <trkpt lat="43.07343" lon="0.59364">
        <ele>441.79998779297</ele>
        <time>2025-08-08T14:01:19.000Z</time>
      </trkpt>
      <trkpt lat="43.07326" lon="0.5937">
        <ele>441.39999389648</ele>
        <time>2025-08-08T14:01:25.000Z</time>
      </trkpt>
      <trkpt lat="43.07318" lon="0.59371">
        <ele>441.20001220703</ele>
        <time>2025-08-08T14:01:27.000Z</time>
      </trkpt>
      <trkpt lat="43.07309" lon="0.59374">
        <ele>440.79998779297</ele>
        <time>2025-08-08T14:01:29.000Z</time>
      </trkpt>
      <trkpt lat="43.07285" lon="0.59379">
        <ele>440.20001220703</ele>
        <time>2025-08-08T14:01:34.000Z</time>
      </trkpt>
      <trkpt lat="43.07275" lon="0.59381">
        <ele>439.79998779297</ele>
        <time>2025-08-08T14:01:36.000Z</time>
      </trkpt>
      <trkpt lat="43.0726" lon="0.59381">
        <ele>439.60000610352</ele>
        <time>2025-08-08T14:01:39.000Z</time>
      </trkpt>
      <trkpt lat="43.07248" lon="0.59382">
        <ele>439.60000610352</ele>
        <time>2025-08-08T14:01:42.000Z</time>
      </trkpt>
      <trkpt lat="43.07223" lon="0.59383">
        <ele>439.39999389648</ele>
        <time>2025-08-08T14:01:48.000Z</time>
      </trkpt>
      <trkpt lat="43.07199" lon="0.59386">
        <ele>439.60000610352</ele>
        <time>2025-08-08T14:01:54.000Z</time>
      </trkpt>
      <trkpt lat="43.07184" lon="0.59391">
        <ele>439.60000610352</ele>
        <time>2025-08-08T14:01:58.000Z</time>
      </trkpt>
      <trkpt lat="43.07157" lon="0.59392">
        <ele>439.60000610352</ele>
        <time>2025-08-08T14:02:05.000Z</time>
      </trkpt>
      <trkpt lat="43.0713" lon="0.59381">
        <ele>440</ele>
        <time>2025-08-08T14:02:13.000Z</time>
      </trkpt>
      <trkpt lat="43.07108" lon="0.59367">
        <ele>440</ele>
        <time>2025-08-08T14:02:19.000Z</time>
      </trkpt>
      <trkpt lat="43.07089" lon="0.59347">
        <ele>440</ele>
        <time>2025-08-08T14:02:25.000Z</time>
      </trkpt>
      <trkpt lat="43.07067" lon="0.59334">
        <ele>440.20001220703</ele>
        <time>2025-08-08T14:02:31.000Z</time>
      </trkpt>
      <trkpt lat="43.07039" lon="0.59331">
        <ele>440.39999389648</ele>
        <time>2025-08-08T14:02:38.000Z</time>
      </trkpt>
      <trkpt lat="43.0703" lon="0.59332">
        <ele>440.39999389648</ele>
        <time>2025-08-08T14:02:40.000Z</time>
      </trkpt>
      <trkpt lat="43.0701" lon="0.59334">
        <ele>440.60000610352</ele>
        <time>2025-08-08T14:02:45.000Z</time>
      </trkpt>
      <trkpt lat="43.06998" lon="0.59335">
        <ele>440.39999389648</ele>
        <time>2025-08-08T14:02:48.000Z</time>
      </trkpt>
      <trkpt lat="43.06979" lon="0.59336">
        <ele>440.39999389648</ele>
        <time>2025-08-08T14:02:53.000Z</time>
      </trkpt>
      <trkpt lat="43.06959" lon="0.59333">
        <ele>440.60000610352</ele>
        <time>2025-08-08T14:02:58.000Z</time>
      </trkpt>
      <trkpt lat="43.06912" lon="0.59317">
        <ele>441</ele>
        <time>2025-08-08T14:03:10.000Z</time>
      </trkpt>
      <trkpt lat="43.06897" lon="0.5931">
        <ele>441</ele>
        <time>2025-08-08T14:03:14.000Z</time>
      </trkpt>
      <trkpt lat="43.06883" lon="0.59305">
        <ele>441.20001220703</ele>
        <time>2025-08-08T14:03:18.000Z</time>
      </trkpt>
      <trkpt lat="43.06876" lon="0.59301">
        <ele>441.20001220703</ele>
        <time>2025-08-08T14:03:20.000Z</time>
      </trkpt>
      <trkpt lat="43.06855" lon="0.59292">
        <ele>441.60000610352</ele>
        <time>2025-08-08T14:03:26.000Z</time>
      </trkpt>
      <trkpt lat="43.06824" lon="0.5928">
        <ele>441.79998779297</ele>
        <time>2025-08-08T14:03:34.000Z</time>
      </trkpt>
      <trkpt lat="43.06793" lon="0.59274">
        <ele>441.79998779297</ele>
        <time>2025-08-08T14:03:42.000Z</time>
      </trkpt>
      <trkpt lat="43.06758" lon="0.59269">
        <ele>441.79998779297</ele>
        <time>2025-08-08T14:03:51.000Z</time>
      </trkpt>
      <trkpt lat="43.06732" lon="0.59265">
        <ele>441.79998779297</ele>
        <time>2025-08-08T14:03:57.000Z</time>
      </trkpt>
      <trkpt lat="43.06693" lon="0.5927">
        <ele>442</ele>
        <time>2025-08-08T14:04:06.000Z</time>
      </trkpt>
      <trkpt lat="43.06656" lon="0.5928">
        <ele>442</ele>
        <time>2025-08-08T14:04:15.000Z</time>
      </trkpt>
      <trkpt lat="43.06634" lon="0.59279">
        <ele>442.20001220703</ele>
        <time>2025-08-08T14:04:20.000Z</time>
      </trkpt>
      <trkpt lat="43.0663" lon="0.59278">
        <ele>442.20001220703</ele>
        <time>2025-08-08T14:04:21.000Z</time>
      </trkpt>
      <trkpt lat="43.06626" lon="0.59277">
        <ele>442.39999389648</ele>
        <time>2025-08-08T14:04:22.000Z</time>
      </trkpt>
      <trkpt lat="43.06605" lon="0.59269">
        <ele>442.39999389648</ele>
        <time>2025-08-08T14:04:27.000Z</time>
      </trkpt>
      <trkpt lat="43.06596" lon="0.59266">
        <ele>442.39999389648</ele>
        <time>2025-08-08T14:04:29.000Z</time>
      </trkpt>
      <trkpt lat="43.06592" lon="0.59264">
        <ele>442.39999389648</ele>
        <time>2025-08-08T14:04:30.000Z</time>
      </trkpt>
      <trkpt lat="43.06584" lon="0.59261">
        <ele>442.60000610352</ele>
        <time>2025-08-08T14:04:32.000Z</time>
      </trkpt>
      <trkpt lat="43.06571" lon="0.59257">
        <ele>442.60000610352</ele>
        <time>2025-08-08T14:04:35.000Z</time>
      </trkpt>
      <trkpt lat="43.06533" lon="0.59245">
        <ele>442.39999389648</ele>
        <time>2025-08-08T14:04:44.000Z</time>
      </trkpt>
      <trkpt lat="43.065" lon="0.59237">
        <ele>442.79998779297</ele>
        <time>2025-08-08T14:04:52.000Z</time>
      </trkpt>
      <trkpt lat="43.06468" lon="0.59231">
        <ele>443</ele>
        <time>2025-08-08T14:05:00.000Z</time>
      </trkpt>
      <trkpt lat="43.0643" lon="0.59225">
        <ele>443.20001220703</ele>
        <time>2025-08-08T14:05:09.000Z</time>
      </trkpt>
      <trkpt lat="43.06402" lon="0.59221">
        <ele>443.39999389648</ele>
        <time>2025-08-08T14:05:16.000Z</time>
      </trkpt>
      <trkpt lat="43.06399" lon="0.59221">
        <ele>443.39999389648</ele>
        <time>2025-08-08T14:05:17.000Z</time>
      </trkpt>
      <trkpt lat="43.06379" lon="0.59219">
        <ele>443.60000610352</ele>
        <time>2025-08-08T14:05:22.000Z</time>
      </trkpt>
      <trkpt lat="43.0635" lon="0.59216">
        <ele>443.60000610352</ele>
        <time>2025-08-08T14:05:29.000Z</time>
      </trkpt>
      <trkpt lat="43.06347" lon="0.59215">
        <ele>443.60000610352</ele>
        <time>2025-08-08T14:05:30.000Z</time>
      </trkpt>
      <trkpt lat="43.06331" lon="0.59213">
        <ele>444</ele>
        <time>2025-08-08T14:05:34.000Z</time>
      </trkpt>
      <trkpt lat="43.06315" lon="0.59211">
        <ele>444</ele>
        <time>2025-08-08T14:05:38.000Z</time>
      </trkpt>
      <trkpt lat="43.06301" lon="0.59204">
        <ele>444.20001220703</ele>
        <time>2025-08-08T14:05:42.000Z</time>
      </trkpt>
      <trkpt lat="43.06283" lon="0.59201">
        <ele>444.20001220703</ele>
        <time>2025-08-08T14:05:47.000Z</time>
      </trkpt>
      <trkpt lat="43.06263" lon="0.59198">
        <ele>444.39999389648</ele>
        <time>2025-08-08T14:05:52.000Z</time>
      </trkpt>
      <trkpt lat="43.06248" lon="0.59196">
        <ele>444.39999389648</ele>
        <time>2025-08-08T14:05:56.000Z</time>
      </trkpt>
      <trkpt lat="43.06231" lon="0.59193">
        <ele>444.60000610352</ele>
        <time>2025-08-08T14:06:01.000Z</time>
      </trkpt>
      <trkpt lat="43.06226" lon="0.59197">
        <ele>444.60000610352</ele>
        <time>2025-08-08T14:06:03.000Z</time>
      </trkpt>
      <trkpt lat="43.06224" lon="0.59201">
        <ele>444.60000610352</ele>
        <time>2025-08-08T14:06:04.000Z</time>
      </trkpt>
      <trkpt lat="43.06225" lon="0.59223">
        <ele>444.60000610352</ele>
        <time>2025-08-08T14:06:09.000Z</time>
      </trkpt>
      <trkpt lat="43.06228" lon="0.59226">
        <ele>444.39999389648</ele>
        <time>2025-08-08T14:06:11.000Z</time>
      </trkpt>
      <trkpt lat="43.0623" lon="0.59227">
        <ele>444.39999389648</ele>
        <time>2025-08-08T14:06:13.000Z</time>
      </trkpt>
      <trkpt lat="43.0623" lon="0.59228">
        <ele>444.39999389648</ele>
        <time>2025-08-08T14:06:17.000Z</time>
      </trkpt>
      <trkpt lat="43.06229" lon="0.5922">
        <ele>443.60000610352</ele>
        <time>2025-08-08T14:06:26.000Z</time>
      </trkpt>
      <trkpt lat="43.06229" lon="0.59218">
        <ele>443.60000610352</ele>
        <time>2025-08-08T14:06:27.000Z</time>
      </trkpt>
      <trkpt lat="43.06229" lon="0.59217">
        <ele>443.60000610352</ele>
        <time>2025-08-08T14:06:33.000Z</time>
      </trkpt>
      <trkpt lat="43.0611" lon="0.59062">
        <ele>446.20001220703</ele>
        <time>2025-08-08T15:38:43.000Z</time>
      </trkpt>
      <trkpt lat="43.0611" lon="0.59062">
        <ele>446.39999389648</ele>
        <time>2025-08-08T15:38:44.000Z</time>
      </trkpt>
      <trkpt lat="43.06116" lon="0.59078">
        <ele>444.39999389648</ele>
        <time>2025-08-08T15:40:13.000Z</time>
      </trkpt>
      <trkpt lat="43.06116" lon="0.59081">
        <ele>444.39999389648</ele>
        <time>2025-08-08T15:40:15.000Z</time>
      </trkpt>
      <trkpt lat="43.0611" lon="0.59083">
        <ele>444.20001220703</ele>
        <time>2025-08-08T15:40:20.000Z</time>
      </trkpt>
      <trkpt lat="43.06107" lon="0.59087">
        <ele>444.20001220703</ele>
        <time>2025-08-08T15:40:23.000Z</time>
      </trkpt>
      <trkpt lat="43.06107" lon="0.5909">
        <ele>444.20001220703</ele>
        <time>2025-08-08T15:40:25.000Z</time>
      </trkpt>
      <trkpt lat="43.0611" lon="0.59101">
        <ele>444.20001220703</ele>
        <time>2025-08-08T15:40:30.000Z</time>
      </trkpt>
      <trkpt lat="43.0611" lon="0.59103">
        <ele>444.20001220703</ele>
        <time>2025-08-08T15:40:31.000Z</time>
      </trkpt>
      <trkpt lat="43.06113" lon="0.59106">
        <ele>444.20001220703</ele>
        <time>2025-08-08T15:40:33.000Z</time>
      </trkpt>
      <trkpt lat="43.06118" lon="0.59107">
        <ele>444.20001220703</ele>
        <time>2025-08-08T15:40:36.000Z</time>
      </trkpt>
      <trkpt lat="43.0612" lon="0.59107">
        <ele>444.20001220703</ele>
        <time>2025-08-08T15:40:37.000Z</time>
      </trkpt>
      <trkpt lat="43.06122" lon="0.5911">
        <ele>444.20001220703</ele>
        <time>2025-08-08T15:40:39.000Z</time>
      </trkpt>
      <trkpt lat="43.06122" lon="0.5911">
        <ele>444.20001220703</ele>
        <time>2025-08-08T15:40:41.000Z</time>
      </trkpt>
      <trkpt lat="43.06122" lon="0.59118">
        <ele>443.79998779297</ele>
        <time>2025-08-08T15:40:50.000Z</time>
      </trkpt>
      <trkpt lat="43.0612" lon="0.59121">
        <ele>443.79998779297</ele>
        <time>2025-08-08T15:40:51.000Z</time>
      </trkpt>
      <trkpt lat="43.06118" lon="0.59123">
        <ele>443.60000610352</ele>
        <time>2025-08-08T15:40:52.000Z</time>
      </trkpt>
      <trkpt lat="43.06107" lon="0.59128">
        <ele>443.79998779297</ele>
        <time>2025-08-08T15:40:56.000Z</time>
      </trkpt>
      <trkpt lat="43.06091" lon="0.59135">
        <ele>444</ele>
        <time>2025-08-08T15:41:02.000Z</time>
      </trkpt>
      <trkpt lat="43.06073" lon="0.59152">
        <ele>444.20001220703</ele>
        <time>2025-08-08T15:41:10.000Z</time>
      </trkpt>
      <trkpt lat="43.06067" lon="0.59154">
        <ele>444.60000610352</ele>
        <time>2025-08-08T15:41:14.000Z</time>
      </trkpt>
      <trkpt lat="43.06067" lon="0.59154">
        <ele>444.60000610352</ele>
        <time>2025-08-08T15:41:16.000Z</time>
      </trkpt>
      <trkpt lat="43.06068" lon="0.59161">
        <ele>445.20001220703</ele>
        <time>2025-08-08T15:41:46.000Z</time>
      </trkpt>
      <trkpt lat="43.06068" lon="0.59164">
        <ele>445.20001220703</ele>
        <time>2025-08-08T15:41:47.000Z</time>
      </trkpt>
      <trkpt lat="43.06077" lon="0.59175">
        <ele>445.20001220703</ele>
        <time>2025-08-08T15:41:52.000Z</time>
      </trkpt>
      <trkpt lat="43.06079" lon="0.59179">
        <ele>445.39999389648</ele>
        <time>2025-08-08T15:41:53.000Z</time>
      </trkpt>
      <trkpt lat="43.06087" lon="0.59198">
        <ele>445.39999389648</ele>
        <time>2025-08-08T15:41:59.000Z</time>
      </trkpt>
      <trkpt lat="43.06089" lon="0.59207">
        <ele>445.20001220703</ele>
        <time>2025-08-08T15:42:04.000Z</time>
      </trkpt>
      <trkpt lat="43.06091" lon="0.59221">
        <ele>445.20001220703</ele>
        <time>2025-08-08T15:42:09.000Z</time>
      </trkpt>
      <trkpt lat="43.06088" lon="0.5923">
        <ele>445.20001220703</ele>
        <time>2025-08-08T15:42:13.000Z</time>
      </trkpt>
      <trkpt lat="43.06082" lon="0.59244">
        <ele>445</ele>
        <time>2025-08-08T15:42:19.000Z</time>
      </trkpt>
      <trkpt lat="43.06063" lon="0.5926">
        <ele>445.20001220703</ele>
        <time>2025-08-08T15:42:26.000Z</time>
      </trkpt>
      <trkpt lat="43.06058" lon="0.59264">
        <ele>445.39999389648</ele>
        <time>2025-08-08T15:42:28.000Z</time>
      </trkpt>
      <trkpt lat="43.06042" lon="0.59275">
        <ele>445.79998779297</ele>
        <time>2025-08-08T15:42:34.000Z</time>
      </trkpt>
      <trkpt lat="43.06039" lon="0.59275">
        <ele>445.79998779297</ele>
        <time>2025-08-08T15:42:35.000Z</time>
      </trkpt>
      <trkpt lat="43.06035" lon="0.59269">
        <ele>445.79998779297</ele>
        <time>2025-08-08T15:42:37.000Z</time>
      </trkpt>
      <trkpt lat="43.06024" lon="0.59246">
        <ele>446.20001220703</ele>
        <time>2025-08-08T15:42:44.000Z</time>
      </trkpt>
      <trkpt lat="43.06018" lon="0.59232">
        <ele>446.20001220703</ele>
        <time>2025-08-08T15:42:50.000Z</time>
      </trkpt>
      <trkpt lat="43.0601" lon="0.59216">
        <ele>445.60000610352</ele>
        <time>2025-08-08T15:42:58.000Z</time>
      </trkpt>
      <trkpt lat="43.06001" lon="0.592">
        <ele>445.20001220703</ele>
        <time>2025-08-08T15:43:05.000Z</time>
      </trkpt>
      <trkpt lat="43.05987" lon="0.59184">
        <ele>444.79998779297</ele>
        <time>2025-08-08T15:43:10.000Z</time>
      </trkpt>
      <trkpt lat="43.05974" lon="0.5916">
        <ele>444.79998779297</ele>
        <time>2025-08-08T15:43:17.000Z</time>
      </trkpt>
      <trkpt lat="43.05972" lon="0.59157">
        <ele>444.79998779297</ele>
        <time>2025-08-08T15:43:18.000Z</time>
      </trkpt>
      <trkpt lat="43.05964" lon="0.59147">
        <ele>445.39999389648</ele>
        <time>2025-08-08T15:43:23.000Z</time>
      </trkpt>
      <trkpt lat="43.05956" lon="0.59137">
        <ele>446.39999389648</ele>
        <time>2025-08-08T15:43:30.000Z</time>
      </trkpt>
      <trkpt lat="43.0594" lon="0.59125">
        <ele>447.39999389648</ele>
        <time>2025-08-08T15:43:39.000Z</time>
      </trkpt>
      <trkpt lat="43.05937" lon="0.59125">
        <ele>447.39999389648</ele>
        <time>2025-08-08T15:43:40.000Z</time>
      </trkpt>
      <trkpt lat="43.05926" lon="0.59118">
        <ele>447.60000610352</ele>
        <time>2025-08-08T15:43:45.000Z</time>
      </trkpt>
      <trkpt lat="43.05912" lon="0.59107">
        <ele>447.60000610352</ele>
        <time>2025-08-08T15:43:51.000Z</time>
      </trkpt>
      <trkpt lat="43.05892" lon="0.59098">
        <ele>448</ele>
        <time>2025-08-08T15:43:58.000Z</time>
      </trkpt>
      <trkpt lat="43.05872" lon="0.59091">
        <ele>448.39999389648</ele>
        <time>2025-08-08T15:44:05.000Z</time>
      </trkpt>
      <trkpt lat="43.05865" lon="0.5909">
        <ele>448.39999389648</ele>
        <time>2025-08-08T15:44:07.000Z</time>
      </trkpt>
      <trkpt lat="43.05844" lon="0.59086">
        <ele>448.60000610352</ele>
        <time>2025-08-08T15:44:14.000Z</time>
      </trkpt>
      <trkpt lat="43.05838" lon="0.59086">
        <ele>448.79998779297</ele>
        <time>2025-08-08T15:44:16.000Z</time>
      </trkpt>
      <trkpt lat="43.05821" lon="0.59087">
        <ele>449.20001220703</ele>
        <time>2025-08-08T15:44:22.000Z</time>
      </trkpt>
      <trkpt lat="43.05816" lon="0.59087">
        <ele>449.39999389648</ele>
        <time>2025-08-08T15:44:24.000Z</time>
      </trkpt>
      <trkpt lat="43.05802" lon="0.59089">
        <ele>449.60000610352</ele>
        <time>2025-08-08T15:44:29.000Z</time>
      </trkpt>
      <trkpt lat="43.05784" lon="0.59094">
        <ele>450</ele>
        <time>2025-08-08T15:44:36.000Z</time>
      </trkpt>
      <trkpt lat="43.0577" lon="0.59099">
        <ele>450.39999389648</ele>
        <time>2025-08-08T15:44:42.000Z</time>
      </trkpt>
      <trkpt lat="43.05767" lon="0.59099">
        <ele>450.60000610352</ele>
        <time>2025-08-08T15:44:43.000Z</time>
      </trkpt>
      <trkpt lat="43.05743" lon="0.59107">
        <ele>451.20001220703</ele>
        <time>2025-08-08T15:44:52.000Z</time>
      </trkpt>
      <trkpt lat="43.0573" lon="0.59107">
        <ele>451.39999389648</ele>
        <time>2025-08-08T15:44:57.000Z</time>
      </trkpt>
      <trkpt lat="43.05728" lon="0.59105">
        <ele>451.39999389648</ele>
        <time>2025-08-08T15:44:58.000Z</time>
      </trkpt>
      <trkpt lat="43.0572" lon="0.59089">
        <ele>451.79998779297</ele>
        <time>2025-08-08T15:45:03.000Z</time>
      </trkpt>
      <trkpt lat="43.05713" lon="0.59067">
        <ele>452.20001220703</ele>
        <time>2025-08-08T15:45:09.000Z</time>
      </trkpt>
      <trkpt lat="43.05705" lon="0.59046">
        <ele>452.39999389648</ele>
        <time>2025-08-08T15:45:15.000Z</time>
      </trkpt>
      <trkpt lat="43.05704" lon="0.59043">
        <ele>452.39999389648</ele>
        <time>2025-08-08T15:45:16.000Z</time>
      </trkpt>
      <trkpt lat="43.05696" lon="0.5902">
        <ele>452.39999389648</ele>
        <time>2025-08-08T15:45:22.000Z</time>
      </trkpt>
      <trkpt lat="43.05687" lon="0.58994">
        <ele>452.60000610352</ele>
        <time>2025-08-08T15:45:29.000Z</time>
      </trkpt>
      <trkpt lat="43.05681" lon="0.5897">
        <ele>452.60000610352</ele>
        <time>2025-08-08T15:45:35.000Z</time>
      </trkpt>
      <trkpt lat="43.05675" lon="0.58943">
        <ele>452.60000610352</ele>
        <time>2025-08-08T15:45:42.000Z</time>
      </trkpt>
      <trkpt lat="43.05671" lon="0.58918">
        <ele>452.20001220703</ele>
        <time>2025-08-08T15:45:48.000Z</time>
      </trkpt>
      <trkpt lat="43.05668" lon="0.58916">
        <ele>452.20001220703</ele>
        <time>2025-08-08T15:45:49.000Z</time>
      </trkpt>
      <trkpt lat="43.05663" lon="0.58914">
        <ele>452.39999389648</ele>
        <time>2025-08-08T15:45:51.000Z</time>
      </trkpt>
      <trkpt lat="43.05646" lon="0.5892">
        <ele>451.79998779297</ele>
        <time>2025-08-08T15:45:56.000Z</time>
      </trkpt>
      <trkpt lat="43.05625" lon="0.58925">
        <ele>452.20001220703</ele>
        <time>2025-08-08T15:46:03.000Z</time>
      </trkpt>
      <trkpt lat="43.05609" lon="0.58931">
        <ele>452.79998779297</ele>
        <time>2025-08-08T15:46:09.000Z</time>
      </trkpt>
      <trkpt lat="43.05592" lon="0.58936">
        <ele>453.39999389648</ele>
        <time>2025-08-08T15:46:15.000Z</time>
      </trkpt>
      <trkpt lat="43.0559" lon="0.58937">
        <ele>453.39999389648</ele>
        <time>2025-08-08T15:46:16.000Z</time>
      </trkpt>
      <trkpt lat="43.05573" lon="0.58942">
        <ele>453.60000610352</ele>
        <time>2025-08-08T15:46:22.000Z</time>
      </trkpt>
      <trkpt lat="43.05555" lon="0.58945">
        <ele>454</ele>
        <time>2025-08-08T15:46:28.000Z</time>
      </trkpt>
      <trkpt lat="43.05539" lon="0.58949">
        <ele>454.39999389648</ele>
        <time>2025-08-08T15:46:33.000Z</time>
      </trkpt>
      <trkpt lat="43.05527" lon="0.58953">
        <ele>454.60000610352</ele>
        <time>2025-08-08T15:46:37.000Z</time>
      </trkpt>
      <trkpt lat="43.05509" lon="0.5896">
        <ele>455.20001220703</ele>
        <time>2025-08-08T15:46:44.000Z</time>
      </trkpt>
      <trkpt lat="43.055" lon="0.58962">
        <ele>455.39999389648</ele>
        <time>2025-08-08T15:46:47.000Z</time>
      </trkpt>
      <trkpt lat="43.05485" lon="0.58965">
        <ele>455.79998779297</ele>
        <time>2025-08-08T15:46:52.000Z</time>
      </trkpt>
      <trkpt lat="43.05482" lon="0.58966">
        <ele>455.79998779297</ele>
        <time>2025-08-08T15:46:53.000Z</time>
      </trkpt>
      <trkpt lat="43.05463" lon="0.5897">
        <ele>456.39999389648</ele>
        <time>2025-08-08T15:47:00.000Z</time>
      </trkpt>
      <trkpt lat="43.05438" lon="0.58978">
        <ele>457.39999389648</ele>
        <time>2025-08-08T15:47:09.000Z</time>
      </trkpt>
      <trkpt lat="43.05433" lon="0.5898">
        <ele>457.39999389648</ele>
        <time>2025-08-08T15:47:11.000Z</time>
      </trkpt>
      <trkpt lat="43.05418" lon="0.58984">
        <ele>458</ele>
        <time>2025-08-08T15:47:17.000Z</time>
      </trkpt>
      <trkpt lat="43.05406" lon="0.58987">
        <ele>458.60000610352</ele>
        <time>2025-08-08T15:47:22.000Z</time>
      </trkpt>
      <trkpt lat="43.05401" lon="0.58989">
        <ele>458.79998779297</ele>
        <time>2025-08-08T15:47:24.000Z</time>
      </trkpt>
      <trkpt lat="43.05386" lon="0.58995">
        <ele>459.39999389648</ele>
        <time>2025-08-08T15:47:31.000Z</time>
      </trkpt>
      <trkpt lat="43.05374" lon="0.58999">
        <ele>459.60000610352</ele>
        <time>2025-08-08T15:47:36.000Z</time>
      </trkpt>
      <trkpt lat="43.05358" lon="0.59005">
        <ele>460</ele>
        <time>2025-08-08T15:47:43.000Z</time>
      </trkpt>
      <trkpt lat="43.0534" lon="0.59011">
        <ele>460.60000610352</ele>
        <time>2025-08-08T15:47:51.000Z</time>
      </trkpt>
      <trkpt lat="43.05338" lon="0.59011">
        <ele>460.79998779297</ele>
        <time>2025-08-08T15:47:52.000Z</time>
      </trkpt>
      <trkpt lat="43.05316" lon="0.59017">
        <ele>461.39999389648</ele>
        <time>2025-08-08T15:48:01.000Z</time>
      </trkpt>
      <trkpt lat="43.05302" lon="0.59021">
        <ele>461.79998779297</ele>
        <time>2025-08-08T15:48:07.000Z</time>
      </trkpt>
      <trkpt lat="43.05298" lon="0.59022">
        <ele>461.79998779297</ele>
        <time>2025-08-08T15:48:09.000Z</time>
      </trkpt>
      <trkpt lat="43.05279" lon="0.59028">
        <ele>462.79998779297</ele>
        <time>2025-08-08T15:48:17.000Z</time>
      </trkpt>
      <trkpt lat="43.05271" lon="0.5903">
        <ele>463</ele>
        <time>2025-08-08T15:48:20.000Z</time>
      </trkpt>
      <trkpt lat="43.0525" lon="0.59035">
        <ele>463.79998779297</ele>
        <time>2025-08-08T15:48:29.000Z</time>
      </trkpt>
      <trkpt lat="43.05231" lon="0.59038">
        <ele>464.79998779297</ele>
        <time>2025-08-08T15:48:37.000Z</time>
      </trkpt>
      <trkpt lat="43.05227" lon="0.59039">
        <ele>464.79998779297</ele>
        <time>2025-08-08T15:48:39.000Z</time>
      </trkpt>
      <trkpt lat="43.05208" lon="0.59043">
        <ele>465.39999389648</ele>
        <time>2025-08-08T15:48:47.000Z</time>
      </trkpt>
      <trkpt lat="43.05193" lon="0.5904">
        <ele>465.79998779297</ele>
        <time>2025-08-08T15:48:54.000Z</time>
      </trkpt>
      <trkpt lat="43.05191" lon="0.59039">
        <ele>465.79998779297</ele>
        <time>2025-08-08T15:48:55.000Z</time>
      </trkpt>
      <trkpt lat="43.05173" lon="0.59034">
        <ele>466.39999389648</ele>
        <time>2025-08-08T15:49:03.000Z</time>
      </trkpt>
      <trkpt lat="43.05166" lon="0.59033">
        <ele>466.79998779297</ele>
        <time>2025-08-08T15:49:06.000Z</time>
      </trkpt>
      <trkpt lat="43.05156" lon="0.59032">
        <ele>467.20001220703</ele>
        <time>2025-08-08T15:49:10.000Z</time>
      </trkpt>
      <trkpt lat="43.05146" lon="0.59034">
        <ele>467.79998779297</ele>
        <time>2025-08-08T15:49:15.000Z</time>
      </trkpt>
      <trkpt lat="43.05144" lon="0.59034">
        <ele>467.79998779297</ele>
        <time>2025-08-08T15:49:16.000Z</time>
      </trkpt>
      <trkpt lat="43.05135" lon="0.59033">
        <ele>468.39999389648</ele>
        <time>2025-08-08T15:49:21.000Z</time>
      </trkpt>
      <trkpt lat="43.05125" lon="0.59033">
        <ele>468.79998779297</ele>
        <time>2025-08-08T15:49:26.000Z</time>
      </trkpt>
      <trkpt lat="43.05119" lon="0.59033">
        <ele>469.20001220703</ele>
        <time>2025-08-08T15:49:29.000Z</time>
      </trkpt>
      <trkpt lat="43.05106" lon="0.59033">
        <ele>469.79998779297</ele>
        <time>2025-08-08T15:49:36.000Z</time>
      </trkpt>
      <trkpt lat="43.05088" lon="0.59032">
        <ele>470.79998779297</ele>
        <time>2025-08-08T15:49:43.000Z</time>
      </trkpt>
      <trkpt lat="43.05086" lon="0.59032">
        <ele>471</ele>
        <time>2025-08-08T15:49:44.000Z</time>
      </trkpt>
      <trkpt lat="43.05078" lon="0.59034">
        <ele>472.39999389648</ele>
        <time>2025-08-08T15:49:50.000Z</time>
      </trkpt>
      <trkpt lat="43.05076" lon="0.59035">
        <ele>472.39999389648</ele>
        <time>2025-08-08T15:49:51.000Z</time>
      </trkpt>
      <trkpt lat="43.05068" lon="0.59038">
        <ele>473.20001220703</ele>
        <time>2025-08-08T15:49:56.000Z</time>
      </trkpt>
      <trkpt lat="43.05066" lon="0.59039">
        <ele>473.39999389648</ele>
        <time>2025-08-08T15:49:57.000Z</time>
      </trkpt>
      <trkpt lat="43.05055" lon="0.59043">
        <ele>474.60000610352</ele>
        <time>2025-08-08T15:50:03.000Z</time>
      </trkpt>
      <trkpt lat="43.05045" lon="0.59045">
        <ele>475.39999389648</ele>
        <time>2025-08-08T15:50:09.000Z</time>
      </trkpt>
      <trkpt lat="43.05033" lon="0.59047">
        <ele>476.60000610352</ele>
        <time>2025-08-08T15:50:15.000Z</time>
      </trkpt>
      <trkpt lat="43.05029" lon="0.59048">
        <ele>476.79998779297</ele>
        <time>2025-08-08T15:50:17.000Z</time>
      </trkpt>
      <trkpt lat="43.05021" lon="0.5905">
        <ele>477.60000610352</ele>
        <time>2025-08-08T15:50:21.000Z</time>
      </trkpt>
      <trkpt lat="43.05012" lon="0.59051">
        <ele>478.20001220703</ele>
        <time>2025-08-08T15:50:26.000Z</time>
      </trkpt>
      <trkpt lat="43.05006" lon="0.59051">
        <ele>478.60000610352</ele>
        <time>2025-08-08T15:50:29.000Z</time>
      </trkpt>
      <trkpt lat="43.04994" lon="0.59051">
        <ele>479.39999389648</ele>
        <time>2025-08-08T15:50:34.000Z</time>
      </trkpt>
      <trkpt lat="43.04976" lon="0.59047">
        <ele>479.60000610352</ele>
        <time>2025-08-08T15:50:41.000Z</time>
      </trkpt>
      <trkpt lat="43.04952" lon="0.5904">
        <ele>479.39999389648</ele>
        <time>2025-08-08T15:50:48.000Z</time>
      </trkpt>
      <trkpt lat="43.04936" lon="0.59038">
        <ele>479.20001220703</ele>
        <time>2025-08-08T15:50:52.000Z</time>
      </trkpt>
      <trkpt lat="43.04926" lon="0.59036">
        <ele>479</ele>
        <time>2025-08-08T15:50:54.000Z</time>
      </trkpt>
      <trkpt lat="43.04894" lon="0.59028">
        <ele>477.79998779297</ele>
        <time>2025-08-08T15:51:00.000Z</time>
      </trkpt>
      <trkpt lat="43.04888" lon="0.59027">
        <ele>477.60000610352</ele>
        <time>2025-08-08T15:51:01.000Z</time>
      </trkpt>
      <trkpt lat="43.04862" lon="0.59021">
        <ele>476.20001220703</ele>
        <time>2025-08-08T15:51:05.000Z</time>
      </trkpt>
      <trkpt lat="43.04855" lon="0.5902">
        <ele>475.60000610352</ele>
        <time>2025-08-08T15:51:06.000Z</time>
      </trkpt>
      <trkpt lat="43.04841" lon="0.59016">
        <ele>474.79998779297</ele>
        <time>2025-08-08T15:51:08.000Z</time>
      </trkpt>
      <trkpt lat="43.04812" lon="0.5901">
        <ele>473.60000610352</ele>
        <time>2025-08-08T15:51:12.000Z</time>
      </trkpt>
      <trkpt lat="43.04784" lon="0.59006">
        <ele>472.60000610352</ele>
        <time>2025-08-08T15:51:16.000Z</time>
      </trkpt>
      <trkpt lat="43.04755" lon="0.59004">
        <ele>471.79998779297</ele>
        <time>2025-08-08T15:51:20.000Z</time>
      </trkpt>
      <trkpt lat="43.04741" lon="0.59004">
        <ele>471.60000610352</ele>
        <time>2025-08-08T15:51:22.000Z</time>
      </trkpt>
      <trkpt lat="43.04709" lon="0.59005">
        <ele>470.20001220703</ele>
        <time>2025-08-08T15:51:27.000Z</time>
      </trkpt>
      <trkpt lat="43.04682" lon="0.59007">
        <ele>468.79998779297</ele>
        <time>2025-08-08T15:51:31.000Z</time>
      </trkpt>
      <trkpt lat="43.04667" lon="0.59009">
        <ele>468</ele>
        <time>2025-08-08T15:51:33.000Z</time>
      </trkpt>
      <trkpt lat="43.0466" lon="0.5901">
        <ele>467.20001220703</ele>
        <time>2025-08-08T15:51:34.000Z</time>
      </trkpt>
      <trkpt lat="43.04638" lon="0.59016">
        <ele>466</ele>
        <time>2025-08-08T15:51:37.000Z</time>
      </trkpt>
      <trkpt lat="43.04625" lon="0.59021">
        <ele>465.39999389648</ele>
        <time>2025-08-08T15:51:39.000Z</time>
      </trkpt>
      <trkpt lat="43.04601" lon="0.59033">
        <ele>465</ele>
        <time>2025-08-08T15:51:43.000Z</time>
      </trkpt>
      <trkpt lat="43.0459" lon="0.5904">
        <ele>464.79998779297</ele>
        <time>2025-08-08T15:51:45.000Z</time>
      </trkpt>
      <trkpt lat="43.0456" lon="0.59056">
        <ele>465</ele>
        <time>2025-08-08T15:51:51.000Z</time>
      </trkpt>
      <trkpt lat="43.04556" lon="0.59058">
        <ele>465</ele>
        <time>2025-08-08T15:51:52.000Z</time>
      </trkpt>
      <trkpt lat="43.04526" lon="0.59077">
        <ele>465.39999389648</ele>
        <time>2025-08-08T15:51:59.000Z</time>
      </trkpt>
      <trkpt lat="43.04485" lon="0.59111">
        <ele>465.39999389648</ele>
        <time>2025-08-08T15:52:09.000Z</time>
      </trkpt>
      <trkpt lat="43.04457" lon="0.59139">
        <ele>465.20001220703</ele>
        <time>2025-08-08T15:52:16.000Z</time>
      </trkpt>
      <trkpt lat="43.04453" lon="0.59143">
        <ele>465</ele>
        <time>2025-08-08T15:52:17.000Z</time>
      </trkpt>
      <trkpt lat="43.04423" lon="0.59179">
        <ele>464.60000610352</ele>
        <time>2025-08-08T15:52:25.000Z</time>
      </trkpt>
      <trkpt lat="43.0439" lon="0.59224">
        <ele>464</ele>
        <time>2025-08-08T15:52:35.000Z</time>
      </trkpt>
      <trkpt lat="43.04375" lon="0.59235">
        <ele>464</ele>
        <time>2025-08-08T15:52:39.000Z</time>
      </trkpt>
      <trkpt lat="43.04367" lon="0.59237">
        <ele>464</ele>
        <time>2025-08-08T15:52:41.000Z</time>
      </trkpt>
      <trkpt lat="43.04363" lon="0.59238">
        <ele>464</ele>
        <time>2025-08-08T15:52:42.000Z</time>
      </trkpt>
      <trkpt lat="43.04344" lon="0.59239">
        <ele>464</ele>
        <time>2025-08-08T15:52:47.000Z</time>
      </trkpt>
      <trkpt lat="43.04322" lon="0.59239">
        <ele>463.79998779297</ele>
        <time>2025-08-08T15:52:53.000Z</time>
      </trkpt>
      <trkpt lat="43.04318" lon="0.5924">
        <ele>463.79998779297</ele>
        <time>2025-08-08T15:52:54.000Z</time>
      </trkpt>
      <trkpt lat="43.04289" lon="0.5924">
        <ele>463.20001220703</ele>
        <time>2025-08-08T15:53:01.000Z</time>
      </trkpt>
      <trkpt lat="43.04254" lon="0.5924">
        <ele>462.79998779297</ele>
        <time>2025-08-08T15:53:09.000Z</time>
      </trkpt>
      <trkpt lat="43.04249" lon="0.59241">
        <ele>462.79998779297</ele>
        <time>2025-08-08T15:53:10.000Z</time>
      </trkpt>
      <trkpt lat="43.0424" lon="0.59241">
        <ele>462.60000610352</ele>
        <time>2025-08-08T15:53:12.000Z</time>
      </trkpt>
      <trkpt lat="43.04212" lon="0.59243">
        <ele>462.20001220703</ele>
        <time>2025-08-08T15:53:18.000Z</time>
      </trkpt>
      <trkpt lat="43.04203" lon="0.59243">
        <ele>462.20001220703</ele>
        <time>2025-08-08T15:53:20.000Z</time>
      </trkpt>
      <trkpt lat="43.04189" lon="0.59244">
        <ele>462.20001220703</ele>
        <time>2025-08-08T15:53:23.000Z</time>
      </trkpt>
      <trkpt lat="43.04184" lon="0.59244">
        <ele>462.20001220703</ele>
        <time>2025-08-08T15:53:24.000Z</time>
      </trkpt>
      <trkpt lat="43.04153" lon="0.59245">
        <ele>462.20001220703</ele>
        <time>2025-08-08T15:53:31.000Z</time>
      </trkpt>
      <trkpt lat="43.0412" lon="0.59247">
        <ele>462.39999389648</ele>
        <time>2025-08-08T15:53:39.000Z</time>
      </trkpt>
      <trkpt lat="43.04116" lon="0.59247">
        <ele>462.39999389648</ele>
        <time>2025-08-08T15:53:40.000Z</time>
      </trkpt>
      <trkpt lat="43.04091" lon="0.59248">
        <ele>463.20001220703</ele>
        <time>2025-08-08T15:53:47.000Z</time>
      </trkpt>
      <trkpt lat="43.0406" lon="0.59247">
        <ele>463.60000610352</ele>
        <time>2025-08-08T15:53:56.000Z</time>
      </trkpt>
      <trkpt lat="43.04058" lon="0.59247">
        <ele>463.60000610352</ele>
        <time>2025-08-08T15:53:57.000Z</time>
      </trkpt>
      <trkpt lat="43.0404" lon="0.59245">
        <ele>464.60000610352</ele>
        <time>2025-08-08T15:54:04.000Z</time>
      </trkpt>
      <trkpt lat="43.04038" lon="0.59245">
        <ele>464.79998779297</ele>
        <time>2025-08-08T15:54:05.000Z</time>
      </trkpt>
      <trkpt lat="43.04025" lon="0.59245">
        <ele>465.79998779297</ele>
        <time>2025-08-08T15:54:11.000Z</time>
      </trkpt>
      <trkpt lat="43.04016" lon="0.59247">
        <ele>466.79998779297</ele>
        <time>2025-08-08T15:54:17.000Z</time>
      </trkpt>
      <trkpt lat="43.04014" lon="0.59247">
        <ele>467</ele>
        <time>2025-08-08T15:54:18.000Z</time>
      </trkpt>
      <trkpt lat="43.03999" lon="0.59246">
        <ele>467.79998779297</ele>
        <time>2025-08-08T15:54:26.000Z</time>
      </trkpt>
      <trkpt lat="43.03998" lon="0.59246">
        <ele>468</ele>
        <time>2025-08-08T15:54:27.000Z</time>
      </trkpt>
      <trkpt lat="43.03988" lon="0.59246">
        <ele>469.20001220703</ele>
        <time>2025-08-08T15:54:34.000Z</time>
      </trkpt>
      <trkpt lat="43.03987" lon="0.59245">
        <ele>469.39999389648</ele>
        <time>2025-08-08T15:54:38.000Z</time>
      </trkpt>
      <trkpt lat="43.03983" lon="0.59247">
        <ele>469.79998779297</ele>
        <time>2025-08-08T15:55:11.000Z</time>
      </trkpt>
      <trkpt lat="43.03969" lon="0.5925">
        <ele>470</ele>
        <time>2025-08-08T15:55:17.000Z</time>
      </trkpt>
      <trkpt lat="43.03967" lon="0.59251">
        <ele>470.20001220703</ele>
        <time>2025-08-08T15:55:18.000Z</time>
      </trkpt>
      <trkpt lat="43.03953" lon="0.59253">
        <ele>471</ele>
        <time>2025-08-08T15:55:24.000Z</time>
      </trkpt>
      <trkpt lat="43.03949" lon="0.59255">
        <ele>471.20001220703</ele>
        <time>2025-08-08T15:55:26.000Z</time>
      </trkpt>
      <trkpt lat="43.03939" lon="0.59257">
        <ele>472.39999389648</ele>
        <time>2025-08-08T15:55:31.000Z</time>
      </trkpt>
      <trkpt lat="43.03937" lon="0.59257">
        <ele>472.39999389648</ele>
        <time>2025-08-08T15:55:32.000Z</time>
      </trkpt>
      <trkpt lat="43.03918" lon="0.59259">
        <ele>473</ele>
        <time>2025-08-08T15:55:40.000Z</time>
      </trkpt>
      <trkpt lat="43.03914" lon="0.5926">
        <ele>473.20001220703</ele>
        <time>2025-08-08T15:55:42.000Z</time>
      </trkpt>
      <trkpt lat="43.03897" lon="0.59262">
        <ele>474</ele>
        <time>2025-08-08T15:55:49.000Z</time>
      </trkpt>
      <trkpt lat="43.03884" lon="0.59264">
        <ele>474.39999389648</ele>
        <time>2025-08-08T15:55:54.000Z</time>
      </trkpt>
      <trkpt lat="43.03873" lon="0.59267">
        <ele>474.79998779297</ele>
        <time>2025-08-08T15:55:59.000Z</time>
      </trkpt>
      <trkpt lat="43.03856" lon="0.59271">
        <ele>475.20001220703</ele>
        <time>2025-08-08T15:56:05.000Z</time>
      </trkpt>
      <trkpt lat="43.03828" lon="0.59279">
        <ele>475</ele>
        <time>2025-08-08T15:56:13.000Z</time>
      </trkpt>
      <trkpt lat="43.03807" lon="0.59286">
        <ele>474.39999389648</ele>
        <time>2025-08-08T15:56:19.000Z</time>
      </trkpt>
      <trkpt lat="43.03789" lon="0.5929">
        <ele>473.79998779297</ele>
        <time>2025-08-08T15:56:23.000Z</time>
      </trkpt>
      <trkpt lat="43.03783" lon="0.59292">
        <ele>473.60000610352</ele>
        <time>2025-08-08T15:56:24.000Z</time>
      </trkpt>
      <trkpt lat="43.03778" lon="0.59292">
        <ele>473.39999389648</ele>
        <time>2025-08-08T15:56:25.000Z</time>
      </trkpt>
      <trkpt lat="43.03762" lon="0.59295">
        <ele>472.60000610352</ele>
        <time>2025-08-08T15:56:28.000Z</time>
      </trkpt>
      <trkpt lat="43.03756" lon="0.59296">
        <ele>472</ele>
        <time>2025-08-08T15:56:29.000Z</time>
      </trkpt>
      <trkpt lat="43.03735" lon="0.59299">
        <ele>470.60000610352</ele>
        <time>2025-08-08T15:56:32.000Z</time>
      </trkpt>
      <trkpt lat="43.03729" lon="0.593">
        <ele>470.39999389648</ele>
        <time>2025-08-08T15:56:33.000Z</time>
      </trkpt>
      <trkpt lat="43.03722" lon="0.59301">
        <ele>469.60000610352</ele>
        <time>2025-08-08T15:56:34.000Z</time>
      </trkpt>
      <trkpt lat="43.03709" lon="0.59304">
        <ele>468.39999389648</ele>
        <time>2025-08-08T15:56:36.000Z</time>
      </trkpt>
      <trkpt lat="43.03695" lon="0.59305">
        <ele>466.79998779297</ele>
        <time>2025-08-08T15:56:38.000Z</time>
      </trkpt>
      <trkpt lat="43.03682" lon="0.59308">
        <ele>465.60000610352</ele>
        <time>2025-08-08T15:56:40.000Z</time>
      </trkpt>
      <trkpt lat="43.0367" lon="0.59309">
        <ele>464.20001220703</ele>
        <time>2025-08-08T15:56:42.000Z</time>
      </trkpt>
      <trkpt lat="43.03665" lon="0.5931">
        <ele>463.20001220703</ele>
        <time>2025-08-08T15:56:43.000Z</time>
      </trkpt>
      <trkpt lat="43.03655" lon="0.59314">
        <ele>461.60000610352</ele>
        <time>2025-08-08T15:56:45.000Z</time>
      </trkpt>
      <trkpt lat="43.03649" lon="0.59316">
        <ele>460.39999389648</ele>
        <time>2025-08-08T15:56:46.000Z</time>
      </trkpt>
      <trkpt lat="43.03638" lon="0.59318">
        <ele>459.39999389648</ele>
        <time>2025-08-08T15:56:48.000Z</time>
      </trkpt>
      <trkpt lat="43.03625" lon="0.59321">
        <ele>458.60000610352</ele>
        <time>2025-08-08T15:56:50.000Z</time>
      </trkpt>
      <trkpt lat="43.03618" lon="0.59323">
        <ele>457.79998779297</ele>
        <time>2025-08-08T15:56:51.000Z</time>
      </trkpt>
      <trkpt lat="43.03592" lon="0.59329">
        <ele>456.60000610352</ele>
        <time>2025-08-08T15:56:55.000Z</time>
      </trkpt>
      <trkpt lat="43.03572" lon="0.5933">
        <ele>455.79998779297</ele>
        <time>2025-08-08T15:56:58.000Z</time>
      </trkpt>
      <trkpt lat="43.03565" lon="0.59329">
        <ele>455.79998779297</ele>
        <time>2025-08-08T15:56:59.000Z</time>
      </trkpt>
      <trkpt lat="43.03558" lon="0.59327">
        <ele>455.20001220703</ele>
        <time>2025-08-08T15:57:00.000Z</time>
      </trkpt>
      <trkpt lat="43.03529" lon="0.59315">
        <ele>454.60000610352</ele>
        <time>2025-08-08T15:57:05.000Z</time>
      </trkpt>
      <trkpt lat="43.03518" lon="0.5931">
        <ele>454.39999389648</ele>
        <time>2025-08-08T15:57:07.000Z</time>
      </trkpt>
      <trkpt lat="43.03493" lon="0.59301">
        <ele>454.39999389648</ele>
        <time>2025-08-08T15:57:12.000Z</time>
      </trkpt>
      <trkpt lat="43.03489" lon="0.59296">
        <ele>454.39999389648</ele>
        <time>2025-08-08T15:57:13.000Z</time>
      </trkpt>
      <trkpt lat="43.03486" lon="0.5929">
        <ele>454.39999389648</ele>
        <time>2025-08-08T15:57:14.000Z</time>
      </trkpt>
      <trkpt lat="43.03482" lon="0.59267">
        <ele>454</ele>
        <time>2025-08-08T15:57:17.000Z</time>
      </trkpt>
      <trkpt lat="43.03477" lon="0.59233">
        <ele>453.39999389648</ele>
        <time>2025-08-08T15:57:21.000Z</time>
      </trkpt>
      <trkpt lat="43.03477" lon="0.59215">
        <ele>453.39999389648</ele>
        <time>2025-08-08T15:57:23.000Z</time>
      </trkpt>
      <trkpt lat="43.03478" lon="0.59184">
        <ele>453.20001220703</ele>
        <time>2025-08-08T15:57:27.000Z</time>
      </trkpt>
      <trkpt lat="43.03479" lon="0.59169">
        <ele>453</ele>
        <time>2025-08-08T15:57:29.000Z</time>
      </trkpt>
      <trkpt lat="43.03484" lon="0.59126">
        <ele>453.20001220703</ele>
        <time>2025-08-08T15:57:36.000Z</time>
      </trkpt>
      <trkpt lat="43.03484" lon="0.59096">
        <ele>453.60000610352</ele>
        <time>2025-08-08T15:57:42.000Z</time>
      </trkpt>
      <trkpt lat="43.03476" lon="0.59058">
        <ele>454.39999389648</ele>
        <time>2025-08-08T15:57:50.000Z</time>
      </trkpt>
      <trkpt lat="43.03474" lon="0.59049">
        <ele>454.60000610352</ele>
        <time>2025-08-08T15:57:52.000Z</time>
      </trkpt>
      <trkpt lat="43.03467" lon="0.59011">
        <ele>455.60000610352</ele>
        <time>2025-08-08T15:58:01.000Z</time>
      </trkpt>
      <trkpt lat="43.03465" lon="0.58985">
        <ele>456.39999389648</ele>
        <time>2025-08-08T15:58:08.000Z</time>
      </trkpt>
      <trkpt lat="43.03463" lon="0.58971">
        <ele>456.79998779297</ele>
        <time>2025-08-08T15:58:12.000Z</time>
      </trkpt>
      <trkpt lat="43.03462" lon="0.58969">
        <ele>456.79998779297</ele>
        <time>2025-08-08T15:58:13.000Z</time>
      </trkpt>
      <trkpt lat="43.03462" lon="0.58965">
        <ele>457</ele>
        <time>2025-08-08T15:58:14.000Z</time>
      </trkpt>
      <trkpt lat="43.03461" lon="0.58947">
        <ele>457.60000610352</ele>
        <time>2025-08-08T15:58:19.000Z</time>
      </trkpt>
      <trkpt lat="43.03461" lon="0.58941">
        <ele>457.79998779297</ele>
        <time>2025-08-08T15:58:21.000Z</time>
      </trkpt>
      <trkpt lat="43.03459" lon="0.58921">
        <ele>458.60000610352</ele>
        <time>2025-08-08T15:58:27.000Z</time>
      </trkpt>
      <trkpt lat="43.03458" lon="0.58914">
        <ele>458.79998779297</ele>
        <time>2025-08-08T15:58:29.000Z</time>
      </trkpt>
      <trkpt lat="43.03457" lon="0.58893">
        <ele>459.60000610352</ele>
        <time>2025-08-08T15:58:35.000Z</time>
      </trkpt>
      <trkpt lat="43.03456" lon="0.58883">
        <ele>460</ele>
        <time>2025-08-08T15:58:38.000Z</time>
      </trkpt>
      <trkpt lat="43.03455" lon="0.58868">
        <ele>460.60000610352</ele>
        <time>2025-08-08T15:58:43.000Z</time>
      </trkpt>
      <trkpt lat="43.03454" lon="0.58854">
        <ele>461</ele>
        <time>2025-08-08T15:58:47.000Z</time>
      </trkpt>
      <trkpt lat="43.03453" lon="0.58837">
        <ele>461.60000610352</ele>
        <time>2025-08-08T15:58:52.000Z</time>
      </trkpt>
      <trkpt lat="43.0345" lon="0.5882">
        <ele>462.20001220703</ele>
        <time>2025-08-08T15:58:57.000Z</time>
      </trkpt>
      <trkpt lat="43.03447" lon="0.58804">
        <ele>462.79998779297</ele>
        <time>2025-08-08T15:59:02.000Z</time>
      </trkpt>
      <trkpt lat="43.03444" lon="0.5879">
        <ele>463.20001220703</ele>
        <time>2025-08-08T15:59:06.000Z</time>
      </trkpt>
      <trkpt lat="43.03438" lon="0.58773">
        <ele>463.79998779297</ele>
        <time>2025-08-08T15:59:11.000Z</time>
      </trkpt>
      <trkpt lat="43.03426" lon="0.58745">
        <ele>463.79998779297</ele>
        <time>2025-08-08T15:59:18.000Z</time>
      </trkpt>
      <trkpt lat="43.03412" lon="0.58705">
        <ele>464</ele>
        <time>2025-08-08T15:59:27.000Z</time>
      </trkpt>
      <trkpt lat="43.03399" lon="0.58664">
        <ele>463.79998779297</ele>
        <time>2025-08-08T15:59:36.000Z</time>
      </trkpt>
      <trkpt lat="43.03384" lon="0.58625">
        <ele>464.20001220703</ele>
        <time>2025-08-08T15:59:45.000Z</time>
      </trkpt>
      <trkpt lat="43.03383" lon="0.58621">
        <ele>464.39999389648</ele>
        <time>2025-08-08T15:59:46.000Z</time>
      </trkpt>
      <trkpt lat="43.03372" lon="0.58599">
        <ele>464.60000610352</ele>
        <time>2025-08-08T15:59:52.000Z</time>
      </trkpt>
      <trkpt lat="43.03366" lon="0.58585">
        <ele>465</ele>
        <time>2025-08-08T15:59:56.000Z</time>
      </trkpt>
      <trkpt lat="43.03351" lon="0.58551">
        <ele>465</ele>
        <time>2025-08-08T16:00:04.000Z</time>
      </trkpt>
      <trkpt lat="43.03343" lon="0.58516">
        <ele>465.20001220703</ele>
        <time>2025-08-08T16:00:11.000Z</time>
      </trkpt>
      <trkpt lat="43.03338" lon="0.58477">
        <ele>465.20001220703</ele>
        <time>2025-08-08T16:00:18.000Z</time>
      </trkpt>
      <trkpt lat="43.03338" lon="0.58472">
        <ele>465.20001220703</ele>
        <time>2025-08-08T16:00:19.000Z</time>
      </trkpt>
      <trkpt lat="43.03334" lon="0.58453">
        <ele>465.39999389648</ele>
        <time>2025-08-08T16:00:23.000Z</time>
      </trkpt>
      <trkpt lat="43.03332" lon="0.58436">
        <ele>465.39999389648</ele>
        <time>2025-08-08T16:00:26.000Z</time>
      </trkpt>
      <trkpt lat="43.0333" lon="0.58421">
        <ele>465.39999389648</ele>
        <time>2025-08-08T16:00:29.000Z</time>
      </trkpt>
      <trkpt lat="43.03325" lon="0.58393">
        <ele>465.60000610352</ele>
        <time>2025-08-08T16:00:35.000Z</time>
      </trkpt>
      <trkpt lat="43.03318" lon="0.58358">
        <ele>466.39999389648</ele>
        <time>2025-08-08T16:00:43.000Z</time>
      </trkpt>
      <trkpt lat="43.03313" lon="0.58352">
        <ele>466.39999389648</ele>
        <time>2025-08-08T16:00:45.000Z</time>
      </trkpt>
      <trkpt lat="43.0331" lon="0.58352">
        <ele>466.39999389648</ele>
        <time>2025-08-08T16:00:46.000Z</time>
      </trkpt>
      <trkpt lat="43.03294" lon="0.58357">
        <ele>466.39999389648</ele>
        <time>2025-08-08T16:00:51.000Z</time>
      </trkpt>
      <trkpt lat="43.03266" lon="0.58379">
        <ele>466.60000610352</ele>
        <time>2025-08-08T16:01:01.000Z</time>
      </trkpt>
      <trkpt lat="43.03235" lon="0.58402">
        <ele>466.60000610352</ele>
        <time>2025-08-08T16:01:11.000Z</time>
      </trkpt>
      <trkpt lat="43.03211" lon="0.58418">
        <ele>466.79998779297</ele>
        <time>2025-08-08T16:01:18.000Z</time>
      </trkpt>
      <trkpt lat="43.03184" lon="0.58428">
        <ele>466.79998779297</ele>
        <time>2025-08-08T16:01:25.000Z</time>
      </trkpt>
      <trkpt lat="43.03154" lon="0.58438">
        <ele>467</ele>
        <time>2025-08-08T16:01:33.000Z</time>
      </trkpt>
      <trkpt lat="43.03124" lon="0.58448">
        <ele>467.20001220703</ele>
        <time>2025-08-08T16:01:41.000Z</time>
      </trkpt>
      <trkpt lat="43.03105" lon="0.58455">
        <ele>467.39999389648</ele>
        <time>2025-08-08T16:01:46.000Z</time>
      </trkpt>
      <trkpt lat="43.03091" lon="0.58458">
        <ele>467.60000610352</ele>
        <time>2025-08-08T16:01:50.000Z</time>
      </trkpt>
      <trkpt lat="43.03071" lon="0.58468">
        <ele>467.60000610352</ele>
        <time>2025-08-08T16:01:57.000Z</time>
      </trkpt>
      <trkpt lat="43.03051" lon="0.58469">
        <ele>467.39999389648</ele>
        <time>2025-08-08T16:02:03.000Z</time>
      </trkpt>
      <trkpt lat="43.03031" lon="0.58467">
        <ele>467.60000610352</ele>
        <time>2025-08-08T16:02:09.000Z</time>
      </trkpt>
      <trkpt lat="43.03003" lon="0.58465">
        <ele>467.79998779297</ele>
        <time>2025-08-08T16:02:16.000Z</time>
      </trkpt>
      <trkpt lat="43.02974" lon="0.58462">
        <ele>468</ele>
        <time>2025-08-08T16:02:24.000Z</time>
      </trkpt>
      <trkpt lat="43.02939" lon="0.58457">
        <ele>468.39999389648</ele>
        <time>2025-08-08T16:02:33.000Z</time>
      </trkpt>
      <trkpt lat="43.02932" lon="0.58457">
        <ele>468.60000610352</ele>
        <time>2025-08-08T16:02:35.000Z</time>
      </trkpt>
      <trkpt lat="43.02929" lon="0.58456">
        <ele>468.60000610352</ele>
        <time>2025-08-08T16:02:36.000Z</time>
      </trkpt>
      <trkpt lat="43.02924" lon="0.5845">
        <ele>468.60000610352</ele>
        <time>2025-08-08T16:02:38.000Z</time>
      </trkpt>
      <trkpt lat="43.02922" lon="0.5843">
        <ele>468.79998779297</ele>
        <time>2025-08-08T16:02:42.000Z</time>
      </trkpt>
      <trkpt lat="43.0292" lon="0.58404">
        <ele>469</ele>
        <time>2025-08-08T16:02:49.000Z</time>
      </trkpt>
      <trkpt lat="43.02919" lon="0.58407">
        <ele>469</ele>
        <time>2025-08-08T16:02:52.000Z</time>
      </trkpt>
      <trkpt lat="43.02921" lon="0.58425">
        <ele>469</ele>
        <time>2025-08-08T16:02:58.000Z</time>
      </trkpt>
      <trkpt lat="43.02923" lon="0.5844">
        <ele>468.60000610352</ele>
        <time>2025-08-08T16:03:02.000Z</time>
      </trkpt>
      <trkpt lat="43.02921" lon="0.5845">
        <ele>468.60000610352</ele>
        <time>2025-08-08T16:03:05.000Z</time>
      </trkpt>
      <trkpt lat="43.02917" lon="0.58455">
        <ele>468.60000610352</ele>
        <time>2025-08-08T16:03:07.000Z</time>
      </trkpt>
      <trkpt lat="43.02916" lon="0.58456">
        <ele>468.60000610352</ele>
        <time>2025-08-08T16:03:08.000Z</time>
      </trkpt>
      <trkpt lat="43.02909" lon="0.58458">
        <ele>468.60000610352</ele>
        <time>2025-08-08T16:03:11.000Z</time>
      </trkpt>
      <trkpt lat="43.02902" lon="0.58459">
        <ele>468.60000610352</ele>
        <time>2025-08-08T16:03:14.000Z</time>
      </trkpt>
      <trkpt lat="43.029" lon="0.58457">
        <ele>468.60000610352</ele>
        <time>2025-08-08T16:03:15.000Z</time>
      </trkpt>
      <trkpt lat="43.02899" lon="0.58457">
        <ele>468.60000610352</ele>
        <time>2025-08-08T16:03:16.000Z</time>
      </trkpt>
      <trkpt lat="43.02894" lon="0.58459">
        <ele>468.60000610352</ele>
        <time>2025-08-08T16:03:19.000Z</time>
      </trkpt>
      <trkpt lat="43.02893" lon="0.5846">
        <ele>468.60000610352</ele>
        <time>2025-08-08T16:03:22.000Z</time>
      </trkpt>
      <trkpt lat="43.02889" lon="0.58461">
        <ele>469.20001220703</ele>
        <time>2025-08-08T16:03:43.000Z</time>
      </trkpt>
      <trkpt lat="43.02884" lon="0.58467">
        <ele>469</ele>
        <time>2025-08-08T16:03:49.000Z</time>
      </trkpt>
      <trkpt lat="43.02884" lon="0.58467">
        <ele>469</ele>
        <time>2025-08-08T16:03:50.000Z</time>
      </trkpt>
      <trkpt lat="43.02894" lon="0.58465">
        <ele>468.60000610352</ele>
        <time>2025-08-08T16:07:09.000Z</time>
      </trkpt>
      <trkpt lat="43.02898" lon="0.58461">
        <ele>468.39999389648</ele>
        <time>2025-08-08T16:07:12.000Z</time>
      </trkpt>
      <trkpt lat="43.02913" lon="0.5846">
        <ele>468.39999389648</ele>
        <time>2025-08-08T16:07:18.000Z</time>
      </trkpt>
      <trkpt lat="43.0292" lon="0.58455">
        <ele>468.39999389648</ele>
        <time>2025-08-08T16:07:21.000Z</time>
      </trkpt>
      <trkpt lat="43.02922" lon="0.58451">
        <ele>468.20001220703</ele>
        <time>2025-08-08T16:07:22.000Z</time>
      </trkpt>
      <trkpt lat="43.02922" lon="0.58428">
        <ele>468</ele>
        <time>2025-08-08T16:07:27.000Z</time>
      </trkpt>
      <trkpt lat="43.02918" lon="0.58393">
        <ele>468</ele>
        <time>2025-08-08T16:07:36.000Z</time>
      </trkpt>
      <trkpt lat="43.02909" lon="0.58355">
        <ele>468.39999389648</ele>
        <time>2025-08-08T16:07:45.000Z</time>
      </trkpt>
      <trkpt lat="43.02899" lon="0.58321">
        <ele>468.79998779297</ele>
        <time>2025-08-08T16:07:53.000Z</time>
      </trkpt>
      <trkpt lat="43.02891" lon="0.58282">
        <ele>468.79998779297</ele>
        <time>2025-08-08T16:08:02.000Z</time>
      </trkpt>
      <trkpt lat="43.02881" lon="0.58235">
        <ele>468.39999389648</ele>
        <time>2025-08-08T16:08:12.000Z</time>
      </trkpt>
      <trkpt lat="43.02873" lon="0.58201">
        <ele>468.20001220703</ele>
        <time>2025-08-08T16:08:19.000Z</time>
      </trkpt>
      <trkpt lat="43.02863" lon="0.58162">
        <ele>468.20001220703</ele>
        <time>2025-08-08T16:08:27.000Z</time>
      </trkpt>
      <trkpt lat="43.02858" lon="0.58127">
        <ele>468.20001220703</ele>
        <time>2025-08-08T16:08:35.000Z</time>
      </trkpt>
      <trkpt lat="43.02854" lon="0.5809">
        <ele>468.39999389648</ele>
        <time>2025-08-08T16:08:43.000Z</time>
      </trkpt>
      <trkpt lat="43.02849" lon="0.58061">
        <ele>468.39999389648</ele>
        <time>2025-08-08T16:08:50.000Z</time>
      </trkpt>
      <trkpt lat="43.02845" lon="0.58039">
        <ele>468.60000610352</ele>
        <time>2025-08-08T16:08:56.000Z</time>
      </trkpt>
      <trkpt lat="43.02843" lon="0.58034">
        <ele>468.79998779297</ele>
        <time>2025-08-08T16:08:58.000Z</time>
      </trkpt>
      <trkpt lat="43.02841" lon="0.58034">
        <ele>468.79998779297</ele>
        <time>2025-08-08T16:09:00.000Z</time>
      </trkpt>
      <trkpt lat="43.02845" lon="0.58043">
        <ele>469</ele>
        <time>2025-08-08T16:09:04.000Z</time>
      </trkpt>
      <trkpt lat="43.02845" lon="0.58046">
        <ele>469</ele>
        <time>2025-08-08T16:09:05.000Z</time>
      </trkpt>
      <trkpt lat="43.02845" lon="0.58051">
        <ele>468.79998779297</ele>
        <time>2025-08-08T16:09:07.000Z</time>
      </trkpt>
      <trkpt lat="43.02845" lon="0.58051">
        <ele>468.60000610352</ele>
        <time>2025-08-08T16:09:09.000Z</time>
      </trkpt>
      <trkpt lat="43.0284" lon="0.58027">
        <ele>468.39999389648</ele>
        <time>2025-08-08T16:10:20.000Z</time>
      </trkpt>
      <trkpt lat="43.02839" lon="0.58021">
        <ele>468.39999389648</ele>
        <time>2025-08-08T16:10:22.000Z</time>
      </trkpt>
      <trkpt lat="43.02834" lon="0.57994">
        <ele>468.39999389648</ele>
        <time>2025-08-08T16:10:29.000Z</time>
      </trkpt>
      <trkpt lat="43.02828" lon="0.57966">
        <ele>469</ele>
        <time>2025-08-08T16:10:36.000Z</time>
      </trkpt>
      <trkpt lat="43.02822" lon="0.57943">
        <ele>468.79998779297</ele>
        <time>2025-08-08T16:10:42.000Z</time>
      </trkpt>
      <trkpt lat="43.02819" lon="0.57928">
        <ele>468.79998779297</ele>
        <time>2025-08-08T16:10:47.000Z</time>
      </trkpt>
      <trkpt lat="43.02814" lon="0.57904">
        <ele>468.79998779297</ele>
        <time>2025-08-08T16:10:54.000Z</time>
      </trkpt>
      <trkpt lat="43.02817" lon="0.57867">
        <ele>469</ele>
        <time>2025-08-08T16:11:05.000Z</time>
      </trkpt>
      <trkpt lat="43.02825" lon="0.57858">
        <ele>468.79998779297</ele>
        <time>2025-08-08T16:11:11.000Z</time>
      </trkpt>
      <trkpt lat="43.02839" lon="0.57858">
        <ele>468.39999389648</ele>
        <time>2025-08-08T16:11:17.000Z</time>
      </trkpt>
      <trkpt lat="43.02848" lon="0.57863">
        <ele>468.20001220703</ele>
        <time>2025-08-08T16:11:23.000Z</time>
      </trkpt>
      <trkpt lat="43.02849" lon="0.57865">
        <ele>468</ele>
        <time>2025-08-08T16:11:28.000Z</time>
        <extensions>
          <visugpx:TrkExtension xmlns:visugpx="https://www.visugpx.com/editgpx/">
            <visugpx:node>2</visugpx:node>
            </visugpx:TrkExtension>
        </extensions>
      </trkpt>
      <trkpt lat="43.02846" lon="0.57859">
        <ele>458.5</ele>
      </trkpt>
      <trkpt lat="43.02825" lon="0.57855">
        <ele>459</ele>
      </trkpt>
      <trkpt lat="43.0284" lon="0.57775">
        <ele>458</ele>
      </trkpt>
      <trkpt lat="43.02824" lon="0.57771">
        <ele>458.3</ele>
      </trkpt>
      <trkpt lat="43.02819" lon="0.57761">
        <ele>458.2</ele>
      </trkpt>
      <trkpt lat="43.02795" lon="0.57746">
        <ele>458.5</ele>
      </trkpt>
      <trkpt lat="43.02789" lon="0.5774">
        <ele>459</ele>
      </trkpt>
      <trkpt lat="43.02747" lon="0.57686">
        <ele>460</ele>
      </trkpt>
      <trkpt lat="43.02726" lon="0.57633">
        <ele>460</ele>
      </trkpt>
      <trkpt lat="43.02729" lon="0.57631">
        <ele>460</ele>
      </trkpt>
      <trkpt lat="43.02737" lon="0.57626">
        <ele>460</ele>
      </trkpt>
      <trkpt lat="43.02743" lon="0.57622">
        <ele>460</ele>
      </trkpt>
      <trkpt lat="43.02777" lon="0.57595">
        <ele>460</ele>
      </trkpt>
      <trkpt lat="43.02799" lon="0.57568">
        <ele>460</ele>
      </trkpt>
      <trkpt lat="43.02879" lon="0.57482">
        <ele>461</ele>
      </trkpt>
      <trkpt lat="43.02897" lon="0.57448">
        <ele>460.7</ele>
      </trkpt>
      <trkpt lat="43.0293" lon="0.57371">
        <ele>459.5</ele>
      </trkpt>
      <trkpt lat="43.02942" lon="0.57344">
        <ele>459.1</ele>
      </trkpt>
      <trkpt lat="43.03034" lon="0.57136">
        <ele>458.7</ele>
      </trkpt>
      <trkpt lat="43.03037" lon="0.57129">
        <ele>458.4</ele>
      </trkpt>
      <trkpt lat="43.03085" lon="0.5705">
        <ele>457.8</ele>
      </trkpt>
      <trkpt lat="43.03148" lon="0.56934">
        <ele>456.3</ele>
      </trkpt>
      <trkpt lat="43.032" lon="0.56845">
        <ele>455.5</ele>
      </trkpt>
      <trkpt lat="43.03217" lon="0.56823">
        <ele>455.2</ele>
      </trkpt>
      <trkpt lat="43.03259" lon="0.56774">
        <ele>454.9</ele>
      </trkpt>
      <trkpt lat="43.03323" lon="0.56712">
        <ele>454.5</ele>
      </trkpt>
      <trkpt lat="43.03335" lon="0.56697">
        <ele>453.9</ele>
      </trkpt>
      <trkpt lat="43.03346" lon="0.56679">
        <ele>454.1</ele>
      </trkpt>
      <trkpt lat="43.03362" lon="0.56644">
        <ele>453.8</ele>
      </trkpt>
      <trkpt lat="43.03491" lon="0.5635">
        <ele>456.1</ele>
      </trkpt>
      <trkpt lat="43.03504" lon="0.5633">
        <ele>455.4</ele>
      </trkpt>
      <trkpt lat="43.03557" lon="0.56267">
        <ele>455.5</ele>
      </trkpt>
      <trkpt lat="43.03575" lon="0.56252">
        <ele>456.4</ele>
      </trkpt>
      <trkpt lat="43.03634" lon="0.56217">
        <ele>461.1</ele>
      </trkpt>
      <trkpt lat="43.03659" lon="0.5621">
        <ele>462.1</ele>
      </trkpt>
      <trkpt lat="43.03687" lon="0.56198">
        <ele>462.8</ele>
      </trkpt>
      <trkpt lat="43.03708" lon="0.56184">
        <ele>462.2</ele>
      </trkpt>
      <trkpt lat="43.03724" lon="0.56171">
        <ele>462.3</ele>
      </trkpt>
      <trkpt lat="43.03776" lon="0.56119">
        <ele>463.4</ele>
      </trkpt>
      <trkpt lat="43.03859" lon="0.56043">
        <ele>463</ele>
      </trkpt>
      <trkpt lat="43.03875" lon="0.56033">
        <ele>462.3</ele>
      </trkpt>
      <trkpt lat="43.03897" lon="0.56024">
        <ele>460.8</ele>
      </trkpt>
      <trkpt lat="43.03984" lon="0.56014">
        <ele>461.3</ele>
      </trkpt>
      <trkpt lat="43.04019" lon="0.56004">
        <ele>463.6</ele>
      </trkpt>
      <trkpt lat="43.04037" lon="0.55993">
        <ele>465</ele>
      </trkpt>
      <trkpt lat="43.04054" lon="0.55979">
        <ele>467.2</ele>
      </trkpt>
      <trkpt lat="43.0407" lon="0.5596">
        <ele>466.9</ele>
      </trkpt>
      <trkpt lat="43.0408" lon="0.55943">
        <ele>467.6</ele>
      </trkpt>
      <trkpt lat="43.04224" lon="0.55602">
        <ele>465.3</ele>
      </trkpt>
      <trkpt lat="43.0423" lon="0.55592">
        <ele>464.5</ele>
      </trkpt>
      <trkpt lat="43.04234" lon="0.55588">
        <ele>464.3</ele>
      </trkpt>
      <trkpt lat="43.04249" lon="0.55572">
        <ele>463.2</ele>
      </trkpt>
      <trkpt lat="43.04273" lon="0.55554">
        <ele>461.1</ele>
      </trkpt>
      <trkpt lat="43.04295" lon="0.5554">
        <ele>460.1</ele>
      </trkpt>
      <trkpt lat="43.04307" lon="0.55536">
        <ele>459.5</ele>
      </trkpt>
      <trkpt lat="43.04323" lon="0.55535">
        <ele>458.4</ele>
      </trkpt>
      <trkpt lat="43.04349" lon="0.5554">
        <ele>455.7</ele>
      </trkpt>
      <trkpt lat="43.04376" lon="0.55553">
        <ele>454.6</ele>
      </trkpt>
      <trkpt lat="43.04389" lon="0.55556">
        <ele>454.1</ele>
      </trkpt>
      <trkpt lat="43.04406" lon="0.55554">
        <ele>453.2</ele>
      </trkpt>
      <trkpt lat="43.04413" lon="0.55547">
        <ele>452.2</ele>
      </trkpt>
      <trkpt lat="43.04427" lon="0.55525">
        <ele>450.3</ele>
      </trkpt>
      <trkpt lat="43.04433" lon="0.55519">
        <ele>450.9</ele>
      </trkpt>
      <trkpt lat="43.04523" lon="0.55485">
        <ele>454</ele>
      </trkpt>
      <trkpt lat="43.04601" lon="0.55438">
        <ele>461.1</ele>
      </trkpt>
      <trkpt lat="43.04655" lon="0.55412">
        <ele>462.4</ele>
      </trkpt>
      <trkpt lat="43.04679" lon="0.55396">
        <ele>462.4</ele>
      </trkpt>
      <trkpt lat="43.04694" lon="0.55384">
        <ele>461.2</ele>
      </trkpt>
      <trkpt lat="43.04705" lon="0.55372">
        <ele>460.4</ele>
      </trkpt>
      <trkpt lat="43.04715" lon="0.55357">
        <ele>459.1</ele>
      </trkpt>
      <trkpt lat="43.04731" lon="0.5532">
        <ele>458.2</ele>
      </trkpt>
      <trkpt lat="43.04738" lon="0.55304">
        <ele>457.9</ele>
      </trkpt>
      <trkpt lat="43.04747" lon="0.55292">
        <ele>457.7</ele>
      </trkpt>
      <trkpt lat="43.04752" lon="0.55288">
        <ele>457.7</ele>
      </trkpt>
      <trkpt lat="43.04803" lon="0.55265">
        <ele>460.8</ele>
      </trkpt>
      <trkpt lat="43.04809" lon="0.55262">
        <ele>461.1</ele>
      </trkpt>
      <trkpt lat="43.04814" lon="0.55261">
        <ele>461.2</ele>
      </trkpt>
      <trkpt lat="43.04852" lon="0.55272">
        <ele>461.9</ele>
      </trkpt>
      <trkpt lat="43.04878" lon="0.55262">
        <ele>462.7</ele>
      </trkpt>
      <trkpt lat="43.04928" lon="0.55224">
        <ele>465.4</ele>
      </trkpt>
      <trkpt lat="43.05083" lon="0.55114">
        <ele>459</ele>
      </trkpt>
      <trkpt lat="43.05139" lon="0.55075">
        <ele>458</ele>
      </trkpt>
      <trkpt lat="43.05173" lon="0.55047">
        <ele>457.9</ele>
      </trkpt>
      <trkpt lat="43.05226" lon="0.54989">
        <ele>459.4</ele>
      </trkpt>
      <trkpt lat="43.05255" lon="0.54957">
        <ele>461</ele>
      </trkpt>
      <trkpt lat="43.05279" lon="0.54936">
        <ele>461.6</ele>
      </trkpt>
      <trkpt lat="43.05369" lon="0.5486">
        <ele>461.1</ele>
      </trkpt>
      <trkpt lat="43.05397" lon="0.54839">
        <ele>458.1</ele>
      </trkpt>
      <trkpt lat="43.05414" lon="0.54833">
        <ele>457</ele>
      </trkpt>
      <trkpt lat="43.05426" lon="0.54832">
        <ele>456.5</ele>
      </trkpt>
      <trkpt lat="43.05439" lon="0.54834">
        <ele>456.3</ele>
      </trkpt>
      <trkpt lat="43.05483" lon="0.54851">
        <ele>456.4</ele>
      </trkpt>
      <trkpt lat="43.05495" lon="0.54852">
        <ele>455.7</ele>
      </trkpt>
      <trkpt lat="43.05509" lon="0.5485">
        <ele>454.7</ele>
      </trkpt>
      <trkpt lat="43.05527" lon="0.54842">
        <ele>453.3</ele>
      </trkpt>
      <trkpt lat="43.05538" lon="0.54832">
        <ele>453</ele>
      </trkpt>
      <trkpt lat="43.0557" lon="0.54799">
        <ele>452.8</ele>
      </trkpt>
      <trkpt lat="43.05583" lon="0.54792">
        <ele>452.5</ele>
      </trkpt>
      <trkpt lat="43.05604" lon="0.54791">
        <ele>452.5</ele>
      </trkpt>
      <trkpt lat="43.05616" lon="0.54796">
        <ele>452.5</ele>
      </trkpt>
      <trkpt lat="43.05684" lon="0.54826">
        <ele>452</ele>
      </trkpt>
      <trkpt lat="43.05727" lon="0.54858">
        <ele>452.7</ele>
      </trkpt>
      <trkpt lat="43.05737" lon="0.54863">
        <ele>452.5</ele>
      </trkpt>
      <trkpt lat="43.05752" lon="0.54863">
        <ele>451.9</ele>
      </trkpt>
      <trkpt lat="43.05769" lon="0.54855">
        <ele>451.2</ele>
      </trkpt>
      <trkpt lat="43.05799" lon="0.54819">
        <ele>451</ele>
      </trkpt>
      <trkpt lat="43.05805" lon="0.54803">
        <ele>451.1</ele>
      </trkpt>
      <trkpt lat="43.05832" lon="0.54707">
        <ele>453.5</ele>
      </trkpt>
      <trkpt lat="43.05834" lon="0.54686">
        <ele>454.3</ele>
      </trkpt>
      <trkpt lat="43.05833" lon="0.5463">
        <ele>456.3</ele>
      </trkpt>
      <trkpt lat="43.05839" lon="0.54591">
        <ele>457.9</ele>
      </trkpt>
      <trkpt lat="43.05849" lon="0.54551">
        <ele>459.6</ele>
      </trkpt>
      <trkpt lat="43.05864" lon="0.54516">
        <ele>459.9</ele>
      </trkpt>
      <trkpt lat="43.05873" lon="0.545">
        <ele>460.3</ele>
      </trkpt>
      <trkpt lat="43.05883" lon="0.54486">
        <ele>460</ele>
      </trkpt>
      <trkpt lat="43.05963" lon="0.54437">
        <ele>458.3</ele>
      </trkpt>
      <trkpt lat="43.06025" lon="0.54403">
        <ele>456.5</ele>
      </trkpt>
      <trkpt lat="43.06059" lon="0.54388">
        <ele>456</ele>
      </trkpt>
      <trkpt lat="43.061" lon="0.54374">
        <ele>455.5</ele>
      </trkpt>
      <trkpt lat="43.0612" lon="0.5436">
        <ele>455</ele>
      </trkpt>
      <trkpt lat="43.06132" lon="0.54342">
        <ele>455</ele>
      </trkpt>
      <trkpt lat="43.0614" lon="0.54325">
        <ele>455</ele>
      </trkpt>
      <trkpt lat="43.06153" lon="0.54287">
        <ele>455.2</ele>
      </trkpt>
      <trkpt lat="43.06168" lon="0.54246">
        <ele>459</ele>
      </trkpt>
      <trkpt lat="43.06181" lon="0.54218">
        <ele>459.6</ele>
      </trkpt>
      <trkpt lat="43.06192" lon="0.54201">
        <ele>461.9</ele>
      </trkpt>
      <trkpt lat="43.06226" lon="0.54157">
        <ele>466.9</ele>
      </trkpt>
      <trkpt lat="43.06234" lon="0.54141">
        <ele>470</ele>
      </trkpt>
      <trkpt lat="43.06242" lon="0.5412">
        <ele>471.3</ele>
      </trkpt>
      <trkpt lat="43.06252" lon="0.54078">
        <ele>472.5</ele>
      </trkpt>
      <trkpt lat="43.06258" lon="0.54057">
        <ele>473.6</ele>
      </trkpt>
      <trkpt lat="43.06279" lon="0.54002">
        <ele>472</ele>
      </trkpt>
      <trkpt lat="43.06294" lon="0.53923">
        <ele>472.5</ele>
      </trkpt>
      <trkpt lat="43.06301" lon="0.53901">
        <ele>474.8</ele>
      </trkpt>
      <trkpt lat="43.06327" lon="0.53842">
        <ele>479.8</ele>
      </trkpt>
      <trkpt lat="43.06333" lon="0.53816">
        <ele>479</ele>
      </trkpt>
      <trkpt lat="43.06333" lon="0.53786">
        <ele>478.3</ele>
      </trkpt>
      <trkpt lat="43.06332" lon="0.53765">
        <ele>477.7</ele>
      </trkpt>
      <trkpt lat="43.06328" lon="0.53744">
        <ele>476.9</ele>
      </trkpt>
      <trkpt lat="43.06321" lon="0.53726">
        <ele>475.8</ele>
      </trkpt>
      <trkpt lat="43.06296" lon="0.53673">
        <ele>471.6</ele>
      </trkpt>
      <trkpt lat="43.06292" lon="0.53659">
        <ele>470.6</ele>
      </trkpt>
      <trkpt lat="43.06285" lon="0.53623">
        <ele>469</ele>
      </trkpt>
      <trkpt lat="43.06286" lon="0.53603">
        <ele>468.1</ele>
      </trkpt>
      <trkpt lat="43.06291" lon="0.53572">
        <ele>466.2</ele>
      </trkpt>
      <trkpt lat="43.06298" lon="0.53556">
        <ele>464.4</ele>
      </trkpt>
      <trkpt lat="43.06304" lon="0.53546">
        <ele>464.2</ele>
      </trkpt>
      <trkpt lat="43.06334" lon="0.53509">
        <ele>465.6</ele>
      </trkpt>
      <trkpt lat="43.06343" lon="0.53492">
        <ele>464.1</ele>
      </trkpt>
      <trkpt lat="43.06354" lon="0.53456">
        <ele>462.2</ele>
      </trkpt>
      <trkpt lat="43.06367" lon="0.53407">
        <ele>457.6</ele>
      </trkpt>
      <trkpt lat="43.06478" lon="0.53081">
        <ele>455.7</ele>
      </trkpt>
      <trkpt lat="43.06493" lon="0.53024">
        <ele>454.9</ele>
      </trkpt>
      <trkpt lat="43.06499" lon="0.52985">
        <ele>453.5</ele>
      </trkpt>
      <trkpt lat="43.06498" lon="0.52946">
        <ele>453</ele>
      </trkpt>
      <trkpt lat="43.06493" lon="0.52878">
        <ele>452.5</ele>
      </trkpt>
      <trkpt lat="43.06482" lon="0.52783">
        <ele>453</ele>
      </trkpt>
      <trkpt lat="43.06479" lon="0.52739">
        <ele>453.4</ele>
      </trkpt>
      <trkpt lat="43.06487" lon="0.52515">
        <ele>449.5</ele>
      </trkpt>
      <trkpt lat="43.06483" lon="0.52469">
        <ele>448</ele>
      </trkpt>
      <trkpt lat="43.06474" lon="0.52423">
        <ele>445.4</ele>
      </trkpt>
      <trkpt lat="43.06458" lon="0.52358">
        <ele>442.5</ele>
      </trkpt>
      <trkpt lat="43.06433" lon="0.5226">
        <ele>442.4</ele>
      </trkpt>
      <trkpt lat="43.06433" lon="0.52244">
        <ele>442.3</ele>
      </trkpt>
      <trkpt lat="43.06434" lon="0.52239">
        <ele>442.1</ele>
      </trkpt>
      <trkpt lat="43.06444" lon="0.52227">
        <ele>441.2</ele>
      </trkpt>
      <trkpt lat="43.06462" lon="0.5221">
        <ele>441.3</ele>
      </trkpt>
      <trkpt lat="43.06499" lon="0.52179">
        <ele>441</ele>
      </trkpt>
      <trkpt lat="43.0657" lon="0.52147">
        <ele>440.3</ele>
      </trkpt>
      <trkpt lat="43.06582" lon="0.52141">
        <ele>440</ele>
      </trkpt>
      <trkpt lat="43.06646" lon="0.52103">
        <ele>440</ele>
      </trkpt>
      <trkpt lat="43.06669" lon="0.5209">
        <ele>440</ele>
      </trkpt>
      <trkpt lat="43.06681" lon="0.52087">
        <ele>440</ele>
      </trkpt>
      <trkpt lat="43.06692" lon="0.52087">
        <ele>440</ele>
      </trkpt>
      <trkpt lat="43.06702" lon="0.52091">
        <ele>440</ele>
      </trkpt>
      <trkpt lat="43.0671" lon="0.52095">
        <ele>440</ele>
      </trkpt>
      <trkpt lat="43.06742" lon="0.52098">
        <ele>441</ele>
      </trkpt>
      <trkpt lat="43.06749" lon="0.521">
        <ele>441.3</ele>
      </trkpt>
      <trkpt lat="43.06771" lon="0.52135">
        <ele>441.9</ele>
      </trkpt>
      <trkpt lat="43.06782" lon="0.52145">
        <ele>441.9</ele>
      </trkpt>
      <trkpt lat="43.06789" lon="0.52148">
        <ele>442.2</ele>
      </trkpt>
      <trkpt lat="43.06803" lon="0.52151">
        <ele>442.9</ele>
      </trkpt>
      <trkpt lat="43.06815" lon="0.52144">
        <ele>443.4</ele>
      </trkpt>
      <trkpt lat="43.0682" lon="0.52139">
        <ele>443.5</ele>
      </trkpt>
      <trkpt lat="43.06829" lon="0.5213">
        <ele>443.5</ele>
      </trkpt>
      <trkpt lat="43.06851" lon="0.52097">
        <ele>443.9</ele>
      </trkpt>
      <trkpt lat="43.06854" lon="0.52088">
        <ele>444.1</ele>
      </trkpt>
      <trkpt lat="43.06867" lon="0.52054">
        <ele>443.8</ele>
      </trkpt>
      <trkpt lat="43.06873" lon="0.52025">
        <ele>444.2</ele>
      </trkpt>
      <trkpt lat="43.06875" lon="0.52014">
        <ele>444.2</ele>
      </trkpt>
      <trkpt lat="43.06873" lon="0.52003">
        <ele>444.5</ele>
      </trkpt>
      <trkpt lat="43.06864" lon="0.51993">
        <ele>444.9</ele>
      </trkpt>
      <trkpt lat="43.06832" lon="0.51973">
        <ele>448.1</ele>
      </trkpt>
      <trkpt lat="43.06818" lon="0.51963">
        <ele>449.4</ele>
      </trkpt>
      <trkpt lat="43.0677" lon="0.51944">
        <ele>451</ele>
      </trkpt>
      <trkpt lat="43.06754" lon="0.51936">
        <ele>451</ele>
      </trkpt>
      <trkpt lat="43.06732" lon="0.51915">
        <ele>451.1</ele>
      </trkpt>
      <trkpt lat="43.06723" lon="0.51903">
        <ele>451.5</ele>
      </trkpt>
      <trkpt lat="43.0672" lon="0.51894">
        <ele>451.8</ele>
      </trkpt>
      <trkpt lat="43.06724" lon="0.51788">
        <ele>453</ele>
      </trkpt>
      <trkpt lat="43.06738" lon="0.51673">
        <ele>453.4</ele>
      </trkpt>
      <trkpt lat="43.06749" lon="0.51558">
        <ele>454</ele>
      </trkpt>
      <trkpt lat="43.06752" lon="0.51528">
        <ele>454</ele>
      </trkpt>
      <trkpt lat="43.06759" lon="0.51448">
        <ele>454.7</ele>
      </trkpt>
      <trkpt lat="43.0676" lon="0.5123">
        <ele>455.6</ele>
      </trkpt>
      <trkpt lat="43.06758" lon="0.51211">
        <ele>455.7</ele>
      </trkpt>
      <trkpt lat="43.06754" lon="0.51193">
        <ele>455.9</ele>
      </trkpt>
      <trkpt lat="43.06727" lon="0.51101">
        <ele>456</ele>
      </trkpt>
      <trkpt lat="43.06719" lon="0.51056">
        <ele>456.1</ele>
      </trkpt>
      <trkpt lat="43.06717" lon="0.51011">
        <ele>457</ele>
      </trkpt>
      <trkpt lat="43.06716" lon="0.50911">
        <ele>456.2</ele>
      </trkpt>
      <trkpt lat="43.06708" lon="0.50817">
        <ele>456</ele>
      </trkpt>
      <trkpt lat="43.06701" lon="0.50782">
        <ele>456.5</ele>
      </trkpt>
      <trkpt lat="43.0667" lon="0.50714">
        <ele>457.9</ele>
      </trkpt>
      <trkpt lat="43.06663" lon="0.50683">
        <ele>458.1</ele>
      </trkpt>
      <trkpt lat="43.06644" lon="0.50576">
        <ele>458.8</ele>
      </trkpt>
      <trkpt lat="43.06643" lon="0.50564">
        <ele>458.9</ele>
      </trkpt>
      <trkpt lat="43.06641" lon="0.50525">
        <ele>458.9</ele>
      </trkpt>
      <trkpt lat="43.06642" lon="0.50449">
        <ele>458</ele>
      </trkpt>
      <trkpt lat="43.06639" lon="0.50388">
        <ele>459</ele>
      </trkpt>
      <trkpt lat="43.06623" lon="0.50331">
        <ele>459.6</ele>
        <extensions>
          <visugpx:TrkExtension xmlns:visugpx="https://www.visugpx.com/editgpx/">
            <visugpx:node>3</visugpx:node>
            </visugpx:TrkExtension>
        </extensions>
      </trkpt>
      <trkpt lat="43.0662" lon="0.5032">
        <ele>459.7</ele>
      </trkpt>
      <trkpt lat="43.06618" lon="0.50305">
        <ele>459.8</ele>
      </trkpt>
      <trkpt lat="43.06619" lon="0.50281">
        <ele>459.7</ele>
      </trkpt>
      <trkpt lat="43.06625" lon="0.50238">
        <ele>459.5</ele>
      </trkpt>
      <trkpt lat="43.06633" lon="0.50198">
        <ele>459.9</ele>
      </trkpt>
      <trkpt lat="43.06664" lon="0.50105">
        <ele>460</ele>
      </trkpt>
      <trkpt lat="43.06698" lon="0.49998">
        <ele>460.9</ele>
      </trkpt>
      <trkpt lat="43.06713" lon="0.49956">
        <ele>461</ele>
      </trkpt>
      <trkpt lat="43.06755" lon="0.49873">
        <ele>461.5</ele>
      </trkpt>
      <trkpt lat="43.06766" lon="0.49846">
        <ele>461.8</ele>
      </trkpt>
      <trkpt lat="43.06774" lon="0.49817">
        <ele>462.5</ele>
      </trkpt>
      <trkpt lat="43.06779" lon="0.49787">
        <ele>462.3</ele>
      </trkpt>
      <trkpt lat="43.06782" lon="0.49745">
        <ele>462.2</ele>
      </trkpt>
      <trkpt lat="43.06781" lon="0.49719">
        <ele>462.9</ele>
      </trkpt>
      <trkpt lat="43.06778" lon="0.49689">
        <ele>463</ele>
      </trkpt>
      <trkpt lat="43.06755" lon="0.49573">
        <ele>463.8</ele>
      </trkpt>
      <trkpt lat="43.06746" lon="0.49505">
        <ele>464</ele>
      </trkpt>
      <trkpt lat="43.06743" lon="0.49401">
        <ele>464.6</ele>
      </trkpt>
      <trkpt lat="43.06752" lon="0.49265">
        <ele>465.4</ele>
      </trkpt>
      <trkpt lat="43.06754" lon="0.49218">
        <ele>465.4</ele>
      </trkpt>
      <trkpt lat="43.0675" lon="0.4913">
        <ele>467</ele>
      </trkpt>
      <trkpt lat="43.06739" lon="0.4904">
        <ele>467</ele>
      </trkpt>
      <trkpt lat="43.06684" lon="0.4875">
        <ele>466.8</ele>
      </trkpt>
      <trkpt lat="43.0666" lon="0.48631">
        <ele>466</ele>
      </trkpt>
      <trkpt lat="43.06658" lon="0.48615">
        <ele>466.2</ele>
      </trkpt>
      <trkpt lat="43.06658" lon="0.48606">
        <ele>466.1</ele>
      </trkpt>
      <trkpt lat="43.0666" lon="0.48596">
        <ele>465.5</ele>
      </trkpt>
      <trkpt lat="43.06664" lon="0.48588">
        <ele>464.6</ele>
      </trkpt>
      <trkpt lat="43.06647" lon="0.48567">
        <ele>466.4</ele>
      </trkpt>
      <trkpt lat="43.06616" lon="0.48528">
        <ele>468.1</ele>
      </trkpt>
      <trkpt lat="43.06601" lon="0.48512">
        <ele>470.2</ele>
      </trkpt>
      <trkpt lat="43.06588" lon="0.48495">
        <ele>471.5</ele>
      </trkpt>
      <trkpt lat="43.06566" lon="0.48455">
        <ele>473.1</ele>
      </trkpt>
      <trkpt lat="43.06556" lon="0.48441">
        <ele>473.2</ele>
      </trkpt>
      <trkpt lat="43.06548" lon="0.48432">
        <ele>474.3</ele>
      </trkpt>
      <trkpt lat="43.06536" lon="0.48424">
        <ele>475</ele>
      </trkpt>
      <trkpt lat="43.0647" lon="0.48404">
        <ele>478.6</ele>
      </trkpt>
      <trkpt lat="43.06452" lon="0.48391">
        <ele>479.7</ele>
      </trkpt>
      <trkpt lat="43.06434" lon="0.48371">
        <ele>481.5</ele>
      </trkpt>
      <trkpt lat="43.06423" lon="0.4835">
        <ele>482.5</ele>
      </trkpt>
      <trkpt lat="43.06407" lon="0.48314">
        <ele>482.7</ele>
      </trkpt>
      <trkpt lat="43.06391" lon="0.48274">
        <ele>483.8</ele>
      </trkpt>
      <trkpt lat="43.06387" lon="0.4826">
        <ele>484.1</ele>
      </trkpt>
      <trkpt lat="43.06386" lon="0.4825">
        <ele>484.2</ele>
      </trkpt>
      <trkpt lat="43.06386" lon="0.48225">
        <ele>484.2</ele>
      </trkpt>
      <trkpt lat="43.06391" lon="0.48194">
        <ele>483.8</ele>
      </trkpt>
      <trkpt lat="43.06419" lon="0.48076">
        <ele>483.1</ele>
      </trkpt>
      <trkpt lat="43.06433" lon="0.48023">
        <ele>484.1</ele>
      </trkpt>
      <trkpt lat="43.0645" lon="0.47935">
        <ele>486.8</ele>
      </trkpt>
      <trkpt lat="43.06455" lon="0.47916">
        <ele>487.1</ele>
      </trkpt>
      <trkpt lat="43.06472" lon="0.47877">
        <ele>486.9</ele>
      </trkpt>
      <trkpt lat="43.06539" lon="0.47747">
        <ele>486.9</ele>
      </trkpt>
      <trkpt lat="43.06637" lon="0.47552">
        <ele>486.6</ele>
      </trkpt>
      <trkpt lat="43.06646" lon="0.4752">
        <ele>485.4</ele>
      </trkpt>
      <trkpt lat="43.06647" lon="0.47504">
        <ele>484.7</ele>
      </trkpt>
      <trkpt lat="43.06646" lon="0.47488">
        <ele>483.9</ele>
      </trkpt>
      <trkpt lat="43.06639" lon="0.4745">
        <ele>483.2</ele>
      </trkpt>
      <trkpt lat="43.0659" lon="0.47238">
        <ele>480.9</ele>
      </trkpt>
      <trkpt lat="43.06585" lon="0.47192">
        <ele>480.7</ele>
      </trkpt>
      <trkpt lat="43.06578" lon="0.47083">
        <ele>480.8</ele>
      </trkpt>
      <trkpt lat="43.06566" lon="0.47049">
        <ele>477.6</ele>
      </trkpt>
      <trkpt lat="43.06561" lon="0.4703">
        <ele>477.5</ele>
      </trkpt>
      <trkpt lat="43.06559" lon="0.47006">
        <ele>477.9</ele>
      </trkpt>
      <trkpt lat="43.06579" lon="0.46687">
        <ele>477.3</ele>
      </trkpt>
      <trkpt lat="43.06577" lon="0.46624">
        <ele>476.2</ele>
      </trkpt>
      <trkpt lat="43.06571" lon="0.4657">
        <ele>475.2</ele>
      </trkpt>
      <trkpt lat="43.0657" lon="0.46547">
        <ele>474.4</ele>
      </trkpt>
      <trkpt lat="43.06573" lon="0.46528">
        <ele>474.1</ele>
      </trkpt>
      <trkpt lat="43.06578" lon="0.46513">
        <ele>474.5</ele>
      </trkpt>
      <trkpt lat="43.06583" lon="0.46502">
        <ele>474.9</ele>
      </trkpt>
      <trkpt lat="43.06591" lon="0.46489">
        <ele>475</ele>
      </trkpt>
      <trkpt lat="43.06612" lon="0.4647">
        <ele>474.6</ele>
      </trkpt>
      <trkpt lat="43.0665" lon="0.46443">
        <ele>471.3</ele>
      </trkpt>
      <trkpt lat="43.06707" lon="0.464">
        <ele>473.7</ele>
      </trkpt>
      <trkpt lat="43.06727" lon="0.46388">
        <ele>474</ele>
      </trkpt>
      <trkpt lat="43.06743" lon="0.46381">
        <ele>473.9</ele>
      </trkpt>
      <trkpt lat="43.06774" lon="0.46374">
        <ele>475.7</ele>
      </trkpt>
      <trkpt lat="43.068" lon="0.4637">
        <ele>475.9</ele>
      </trkpt>
      <trkpt lat="43.06812" lon="0.46371">
        <ele>476.4</ele>
      </trkpt>
      <trkpt lat="43.06833" lon="0.46381">
        <ele>477.7</ele>
      </trkpt>
      <trkpt lat="43.06845" lon="0.46379">
        <ele>478.2</ele>
      </trkpt>
      <trkpt lat="43.06852" lon="0.46374">
        <ele>478.1</ele>
      </trkpt>
      <trkpt lat="43.06851" lon="0.46364">
        <ele>477.2</ele>
      </trkpt>
      <trkpt lat="43.06852" lon="0.46338">
        <ele>476.5</ele>
      </trkpt>
      <trkpt lat="43.06853" lon="0.46299">
        <ele>475.7</ele>
      </trkpt>
      <trkpt lat="43.06874" lon="0.4629">
        <ele>476.5</ele>
        <extensions>
          <visugpx:TrkExtension xmlns:visugpx="https://www.visugpx.com/editgpx/">
            <visugpx:node>4</visugpx:node>
            </visugpx:TrkExtension>
        </extensions>
      </trkpt>
      <trkpt lat="43.06853" lon="0.46299">
        <ele>475.7</ele>
      </trkpt>
      <trkpt lat="43.06852" lon="0.46268">
        <ele>475.7</ele>
      </trkpt>
      <trkpt lat="43.06847" lon="0.46168">
        <ele>476.5</ele>
      </trkpt>
      <trkpt lat="43.06829" lon="0.46029">
        <ele>478</ele>
      </trkpt>
      <trkpt lat="43.06828" lon="0.46004">
        <ele>478</ele>
      </trkpt>
      <trkpt lat="43.06851" lon="0.45799">
        <ele>479.2</ele>
      </trkpt>
      <trkpt lat="43.06856" lon="0.45773">
        <ele>479.8</ele>
      </trkpt>
      <trkpt lat="43.06864" lon="0.45738">
        <ele>480</ele>
      </trkpt>
      <trkpt lat="43.0688" lon="0.45683">
        <ele>480</ele>
      </trkpt>
      <trkpt lat="43.06928" lon="0.45544">
        <ele>481.2</ele>
      </trkpt>
      <trkpt lat="43.06993" lon="0.45348">
        <ele>481.4</ele>
      </trkpt>
      <trkpt lat="43.07027" lon="0.45252">
        <ele>483</ele>
      </trkpt>
      <trkpt lat="43.07054" lon="0.45146">
        <ele>483.7</ele>
      </trkpt>
      <trkpt lat="43.07076" lon="0.45036">
        <ele>483.7</ele>
      </trkpt>
      <trkpt lat="43.07088" lon="0.44977">
        <ele>485</ele>
      </trkpt>
      <trkpt lat="43.07131" lon="0.44746">
        <ele>485.4</ele>
      </trkpt>
      <trkpt lat="43.07139" lon="0.44709">
        <ele>486</ele>
      </trkpt>
      <trkpt lat="43.0715" lon="0.44672">
        <ele>485.5</ele>
      </trkpt>
      <trkpt lat="43.07158" lon="0.44639">
        <ele>485.7</ele>
      </trkpt>
      <trkpt lat="43.0716" lon="0.4462">
        <ele>485.8</ele>
      </trkpt>
      <trkpt lat="43.07169" lon="0.4451">
        <ele>486.1</ele>
      </trkpt>
      <trkpt lat="43.07182" lon="0.4445">
        <ele>487</ele>
      </trkpt>
      <trkpt lat="43.07202" lon="0.44395">
        <ele>487.3</ele>
      </trkpt>
      <trkpt lat="43.07217" lon="0.44366">
        <ele>487.5</ele>
      </trkpt>
      <trkpt lat="43.07343" lon="0.44167">
        <ele>489.4</ele>
      </trkpt>
      <trkpt lat="43.07358" lon="0.44145">
        <ele>489.9</ele>
      </trkpt>
      <trkpt lat="43.07417" lon="0.44076">
        <ele>491</ele>
      </trkpt>
      <trkpt lat="43.07434" lon="0.4405">
        <ele>491.6</ele>
      </trkpt>
      <trkpt lat="43.07453" lon="0.4402">
        <ele>492</ele>
      </trkpt>
      <trkpt lat="43.07467" lon="0.44001">
        <ele>492</ele>
      </trkpt>
      <trkpt lat="43.07494" lon="0.43959">
        <ele>492.9</ele>
      </trkpt>
      <trkpt lat="43.07502" lon="0.43947">
        <ele>493</ele>
      </trkpt>
      <trkpt lat="43.07529" lon="0.4389">
        <ele>493</ele>
      </trkpt>
      <trkpt lat="43.07546" lon="0.43854">
        <ele>493.7</ele>
      </trkpt>
      <trkpt lat="43.07549" lon="0.43844">
        <ele>493.9</ele>
      </trkpt>
      <trkpt lat="43.07557" lon="0.43789">
        <ele>494.5</ele>
      </trkpt>
      <trkpt lat="43.07569" lon="0.43741">
        <ele>496.1</ele>
      </trkpt>
      <trkpt lat="43.0757" lon="0.43733">
        <ele>496.4</ele>
      </trkpt>
      <trkpt lat="43.07576" lon="0.43707">
        <ele>497.6</ele>
      </trkpt>
      <trkpt lat="43.07572" lon="0.437">
        <ele>497.2</ele>
      </trkpt>
      <trkpt lat="43.07569" lon="0.43686">
        <ele>496.8</ele>
      </trkpt>
      <trkpt lat="43.0756" lon="0.4363">
        <ele>494.5</ele>
      </trkpt>
      <trkpt lat="43.0757" lon="0.43559">
        <ele>495.2</ele>
      </trkpt>
      <trkpt lat="43.07573" lon="0.43517">
        <ele>495.5</ele>
      </trkpt>
      <trkpt lat="43.0757" lon="0.43467">
        <ele>494.7</ele>
      </trkpt>
      <trkpt lat="43.07565" lon="0.43415">
        <ele>494.7</ele>
      </trkpt>
      <trkpt lat="43.0757" lon="0.43365">
        <ele>495.5</ele>
      </trkpt>
      <trkpt lat="43.07575" lon="0.43337">
        <ele>496.1</ele>
      </trkpt>
      <trkpt lat="43.0759" lon="0.43298">
        <ele>496</ele>
      </trkpt>
      <trkpt lat="43.07593" lon="0.43282">
        <ele>496.4</ele>
      </trkpt>
      <trkpt lat="43.07594" lon="0.43253">
        <ele>496.7</ele>
      </trkpt>
      <trkpt lat="43.07588" lon="0.43177">
        <ele>496.3</ele>
      </trkpt>
      <trkpt lat="43.07588" lon="0.43161">
        <ele>496.3</ele>
      </trkpt>
      <trkpt lat="43.076" lon="0.43095">
        <ele>496.3</ele>
      </trkpt>
      <trkpt lat="43.07604" lon="0.43063">
        <ele>496</ele>
        <extensions>
          <visugpx:TrkExtension xmlns:visugpx="https://www.visugpx.com/editgpx/">
            <visugpx:node>5</visugpx:node>
            </visugpx:TrkExtension>
        </extensions>
      </trkpt>
      <trkpt lat="43.07645" lon="0.42938">
        <ele>500.39999389648</ele>
        <time>2025-08-10T10:13:58.000Z</time>
      </trkpt>
      <trkpt lat="43.07645" lon="0.4294">
        <ele>500.20001220703</ele>
        <time>2025-08-10T10:14:00.000Z</time>
      </trkpt>
      <trkpt lat="43.07653" lon="0.42924">
        <ele>500</ele>
        <time>2025-08-10T10:14:06.000Z</time>
      </trkpt>
      <trkpt lat="43.07658" lon="0.42915">
        <ele>500</ele>
        <time>2025-08-10T10:14:11.000Z</time>
      </trkpt>
      <trkpt lat="43.07659" lon="0.42911">
        <ele>500</ele>
        <time>2025-08-10T10:14:13.000Z</time>
      </trkpt>
      <trkpt lat="43.07662" lon="0.429">
        <ele>500.20001220703</ele>
        <time>2025-08-10T10:14:18.000Z</time>
      </trkpt>
      <trkpt lat="43.07663" lon="0.42891">
        <ele>500.20001220703</ele>
        <time>2025-08-10T10:14:21.000Z</time>
      </trkpt>
      <trkpt lat="43.07671" lon="0.42864">
        <ele>500.39999389648</ele>
        <time>2025-08-10T10:14:29.000Z</time>
      </trkpt>
      <trkpt lat="43.07675" lon="0.42846">
        <ele>500.39999389648</ele>
        <time>2025-08-10T10:14:35.000Z</time>
      </trkpt>
      <trkpt lat="43.07675" lon="0.42843">
        <ele>500.39999389648</ele>
        <time>2025-08-10T10:14:36.000Z</time>
      </trkpt>
      <trkpt lat="43.07678" lon="0.42829">
        <ele>500.39999389648</ele>
        <time>2025-08-10T10:14:40.000Z</time>
      </trkpt>
      <trkpt lat="43.07682" lon="0.42808">
        <ele>500.79998779297</ele>
        <time>2025-08-10T10:14:46.000Z</time>
      </trkpt>
      <trkpt lat="43.07683" lon="0.42801">
        <ele>500.79998779297</ele>
        <time>2025-08-10T10:14:48.000Z</time>
      </trkpt>
      <trkpt lat="43.07686" lon="0.42783">
        <ele>501</ele>
        <time>2025-08-10T10:14:53.000Z</time>
      </trkpt>
      <trkpt lat="43.07687" lon="0.42779">
        <ele>501.20001220703</ele>
        <time>2025-08-10T10:14:54.000Z</time>
      </trkpt>
      <trkpt lat="43.0769" lon="0.42768">
        <ele>501.39999389648</ele>
        <time>2025-08-10T10:14:57.000Z</time>
      </trkpt>
      <trkpt lat="43.07696" lon="0.42754">
        <ele>501.79998779297</ele>
        <time>2025-08-10T10:15:01.000Z</time>
      </trkpt>
      <trkpt lat="43.07702" lon="0.42729">
        <ele>502.39999389648</ele>
        <time>2025-08-10T10:15:08.000Z</time>
      </trkpt>
      <trkpt lat="43.07702" lon="0.42725">
        <ele>502.60000610352</ele>
        <time>2025-08-10T10:15:09.000Z</time>
      </trkpt>
      <trkpt lat="43.07707" lon="0.42714">
        <ele>502.79998779297</ele>
        <time>2025-08-10T10:15:12.000Z</time>
      </trkpt>
      <trkpt lat="43.0771" lon="0.42706">
        <ele>503</ele>
        <time>2025-08-10T10:15:14.000Z</time>
      </trkpt>
      <trkpt lat="43.07717" lon="0.42684">
        <ele>503.39999389648</ele>
        <time>2025-08-10T10:15:20.000Z</time>
      </trkpt>
      <trkpt lat="43.07721" lon="0.42677">
        <ele>503.60000610352</ele>
        <time>2025-08-10T10:15:22.000Z</time>
      </trkpt>
      <trkpt lat="43.07725" lon="0.42653">
        <ele>504.39999389648</ele>
        <time>2025-08-10T10:15:28.000Z</time>
      </trkpt>
      <trkpt lat="43.07732" lon="0.42649">
        <ele>504.60000610352</ele>
        <time>2025-08-10T10:15:30.000Z</time>
      </trkpt>
      <trkpt lat="43.07736" lon="0.42635">
        <ele>505</ele>
        <time>2025-08-10T10:15:35.000Z</time>
      </trkpt>
      <trkpt lat="43.07736" lon="0.42628">
        <ele>505</ele>
        <time>2025-08-10T10:15:37.000Z</time>
      </trkpt>
      <trkpt lat="43.07736" lon="0.42622">
        <ele>505.20001220703</ele>
        <time>2025-08-10T10:15:39.000Z</time>
      </trkpt>
      <trkpt lat="43.07738" lon="0.42615">
        <ele>505.39999389648</ele>
        <time>2025-08-10T10:15:41.000Z</time>
      </trkpt>
      <trkpt lat="43.07739" lon="0.42612">
        <ele>505.39999389648</ele>
        <time>2025-08-10T10:15:42.000Z</time>
      </trkpt>
      <trkpt lat="43.0774" lon="0.42605">
        <ele>505.79998779297</ele>
        <time>2025-08-10T10:15:44.000Z</time>
      </trkpt>
      <trkpt lat="43.0774" lon="0.42602">
        <ele>505.79998779297</ele>
        <time>2025-08-10T10:15:45.000Z</time>
      </trkpt>
      <trkpt lat="43.07741" lon="0.42591">
        <ele>506</ele>
        <time>2025-08-10T10:15:48.000Z</time>
      </trkpt>
      <trkpt lat="43.07743" lon="0.42574">
        <ele>505.79998779297</ele>
        <time>2025-08-10T10:15:53.000Z</time>
      </trkpt>
      <trkpt lat="43.07747" lon="0.42554">
        <ele>505.79998779297</ele>
        <time>2025-08-10T10:15:57.000Z</time>
      </trkpt>
      <trkpt lat="43.07757" lon="0.42518">
        <ele>505.79998779297</ele>
        <time>2025-08-10T10:16:03.000Z</time>
      </trkpt>
      <trkpt lat="43.07765" lon="0.42495">
        <ele>505.60000610352</ele>
        <time>2025-08-10T10:16:08.000Z</time>
      </trkpt>
      <trkpt lat="43.07765" lon="0.42479">
        <ele>505.60000610352</ele>
        <time>2025-08-10T10:16:12.000Z</time>
      </trkpt>
      <trkpt lat="43.07765" lon="0.42475">
        <ele>505.60000610352</ele>
        <time>2025-08-10T10:16:13.000Z</time>
      </trkpt>
      <trkpt lat="43.07764" lon="0.42471">
        <ele>505.60000610352</ele>
        <time>2025-08-10T10:16:14.000Z</time>
      </trkpt>
      <trkpt lat="43.07767" lon="0.4246">
        <ele>505.60000610352</ele>
        <time>2025-08-10T10:16:17.000Z</time>
      </trkpt>
      <trkpt lat="43.07766" lon="0.42457">
        <ele>505.60000610352</ele>
        <time>2025-08-10T10:16:18.000Z</time>
      </trkpt>
      <trkpt lat="43.07764" lon="0.42449">
        <ele>505.60000610352</ele>
        <time>2025-08-10T10:16:20.000Z</time>
      </trkpt>
      <trkpt lat="43.07761" lon="0.42446">
        <ele>505.60000610352</ele>
        <time>2025-08-10T10:16:21.000Z</time>
      </trkpt>
      <trkpt lat="43.07754" lon="0.42442">
        <ele>505.60000610352</ele>
        <time>2025-08-10T10:16:23.000Z</time>
      </trkpt>
      <trkpt lat="43.07742" lon="0.42432">
        <ele>504.79998779297</ele>
        <time>2025-08-10T10:16:29.000Z</time>
      </trkpt>
      <trkpt lat="43.07727" lon="0.42422">
        <ele>504.79998779297</ele>
        <time>2025-08-10T10:16:35.000Z</time>
      </trkpt>
      <trkpt lat="43.07706" lon="0.4241">
        <ele>504</ele>
        <time>2025-08-10T10:16:41.000Z</time>
      </trkpt>
      <trkpt lat="43.07683" lon="0.42397">
        <ele>503.39999389648</ele>
        <time>2025-08-10T10:16:48.000Z</time>
      </trkpt>
      <trkpt lat="43.07675" lon="0.42392">
        <ele>503.60000610352</ele>
        <time>2025-08-10T10:16:51.000Z</time>
      </trkpt>
      <trkpt lat="43.07662" lon="0.42386">
        <ele>503.60000610352</ele>
        <time>2025-08-10T10:16:55.000Z</time>
      </trkpt>
      <trkpt lat="43.07638" lon="0.42372">
        <ele>503.60000610352</ele>
        <time>2025-08-10T10:17:03.000Z</time>
      </trkpt>
      <trkpt lat="43.07619" lon="0.42366">
        <ele>503.79998779297</ele>
        <time>2025-08-10T10:17:09.000Z</time>
      </trkpt>
      <trkpt lat="43.07602" lon="0.42362">
        <ele>504.20001220703</ele>
        <time>2025-08-10T10:17:15.000Z</time>
      </trkpt>
      <trkpt lat="43.07587" lon="0.42361">
        <ele>505</ele>
        <time>2025-08-10T10:17:20.000Z</time>
      </trkpt>
      <trkpt lat="43.07578" lon="0.42361">
        <ele>505.20001220703</ele>
        <time>2025-08-10T10:17:23.000Z</time>
      </trkpt>
      <trkpt lat="43.07566" lon="0.4236">
        <ele>505.39999389648</ele>
        <time>2025-08-10T10:17:27.000Z</time>
      </trkpt>
      <trkpt lat="43.07556" lon="0.42359">
        <ele>505.60000610352</ele>
        <time>2025-08-10T10:17:30.000Z</time>
      </trkpt>
      <trkpt lat="43.07542" lon="0.42358">
        <ele>505.60000610352</ele>
        <time>2025-08-10T10:17:34.000Z</time>
      </trkpt>
      <trkpt lat="43.07515" lon="0.42354">
        <ele>505.60000610352</ele>
        <time>2025-08-10T10:17:41.000Z</time>
      </trkpt>
      <trkpt lat="43.07493" lon="0.42345">
        <ele>505.79998779297</ele>
        <time>2025-08-10T10:17:47.000Z</time>
      </trkpt>
      <trkpt lat="43.07488" lon="0.42327">
        <ele>505.79998779297</ele>
        <time>2025-08-10T10:17:51.000Z</time>
      </trkpt>
      <trkpt lat="43.07487" lon="0.42306">
        <ele>505.60000610352</ele>
        <time>2025-08-10T10:17:55.000Z</time>
      </trkpt>
      <trkpt lat="43.07486" lon="0.42271">
        <ele>505.20001220703</ele>
        <time>2025-08-10T10:18:02.000Z</time>
      </trkpt>
      <trkpt lat="43.07486" lon="0.42241">
        <ele>505.60000610352</ele>
        <time>2025-08-10T10:18:08.000Z</time>
      </trkpt>
      <trkpt lat="43.07485" lon="0.42208">
        <ele>505.60000610352</ele>
        <time>2025-08-10T10:18:15.000Z</time>
      </trkpt>
      <trkpt lat="43.07485" lon="0.4217">
        <ele>506</ele>
        <time>2025-08-10T10:18:23.000Z</time>
      </trkpt>
      <trkpt lat="43.07485" lon="0.42146">
        <ele>506.20001220703</ele>
        <time>2025-08-10T10:18:28.000Z</time>
      </trkpt>
      <trkpt lat="43.07484" lon="0.42132">
        <ele>506.39999389648</ele>
        <time>2025-08-10T10:18:31.000Z</time>
      </trkpt>
      <trkpt lat="43.07484" lon="0.42122">
        <ele>506.39999389648</ele>
        <time>2025-08-10T10:18:33.000Z</time>
      </trkpt>
      <trkpt lat="43.07485" lon="0.42097">
        <ele>506.39999389648</ele>
        <time>2025-08-10T10:18:38.000Z</time>
      </trkpt>
      <trkpt lat="43.07482" lon="0.42076">
        <ele>506.60000610352</ele>
        <time>2025-08-10T10:18:43.000Z</time>
      </trkpt>
      <trkpt lat="43.07479" lon="0.42072">
        <ele>506.60000610352</ele>
        <time>2025-08-10T10:18:44.000Z</time>
      </trkpt>
      <trkpt lat="43.07472" lon="0.4207">
        <ele>506.60000610352</ele>
        <time>2025-08-10T10:18:46.000Z</time>
      </trkpt>
      <trkpt lat="43.07445" lon="0.42073">
        <ele>506.79998779297</ele>
        <time>2025-08-10T10:18:53.000Z</time>
      </trkpt>
      <trkpt lat="43.07416" lon="0.42076">
        <ele>506.39999389648</ele>
        <time>2025-08-10T10:19:00.000Z</time>
      </trkpt>
      <trkpt lat="43.07412" lon="0.42075">
        <ele>506.20001220703</ele>
        <time>2025-08-10T10:19:01.000Z</time>
      </trkpt>
      <trkpt lat="43.07377" lon="0.42073">
        <ele>506.39999389648</ele>
        <time>2025-08-10T10:19:10.000Z</time>
      </trkpt>
      <trkpt lat="43.07347" lon="0.42071">
        <ele>506.60000610352</ele>
        <time>2025-08-10T10:19:18.000Z</time>
      </trkpt>
      <trkpt lat="43.07322" lon="0.42069">
        <ele>507</ele>
        <time>2025-08-10T10:19:25.000Z</time>
      </trkpt>
      <trkpt lat="43.07306" lon="0.42068">
        <ele>507</ele>
        <time>2025-08-10T10:19:30.000Z</time>
      </trkpt>
      <trkpt lat="43.07291" lon="0.42067">
        <ele>507.20001220703</ele>
        <time>2025-08-10T10:19:35.000Z</time>
      </trkpt>
      <trkpt lat="43.07271" lon="0.42065">
        <ele>507.79998779297</ele>
        <time>2025-08-10T10:19:42.000Z</time>
      </trkpt>
      <trkpt lat="43.07255" lon="0.42063">
        <ele>508.39999389648</ele>
        <time>2025-08-10T10:19:48.000Z</time>
      </trkpt>
      <trkpt lat="43.07253" lon="0.42063">
        <ele>508.60000610352</ele>
        <time>2025-08-10T10:19:49.000Z</time>
      </trkpt>
      <trkpt lat="43.07248" lon="0.42061">
        <ele>508.79998779297</ele>
        <time>2025-08-10T10:19:52.000Z</time>
      </trkpt>
      <trkpt lat="43.07246" lon="0.42061">
        <ele>509</ele>
        <time>2025-08-10T10:19:53.000Z</time>
      </trkpt>
      <trkpt lat="43.07241" lon="0.42063">
        <ele>509.20001220703</ele>
        <time>2025-08-10T10:19:56.000Z</time>
      </trkpt>
      <trkpt lat="43.07237" lon="0.42064">
        <ele>509.60000610352</ele>
        <time>2025-08-10T10:19:58.000Z</time>
      </trkpt>
      <trkpt lat="43.07234" lon="0.42063">
        <ele>510</ele>
        <time>2025-08-10T10:20:00.000Z</time>
      </trkpt>
      <trkpt lat="43.07233" lon="0.42064">
        <ele>510</ele>
        <time>2025-08-10T10:20:01.000Z</time>
      </trkpt>
      <trkpt lat="43.07229" lon="0.42067">
        <ele>510.39999389648</ele>
        <time>2025-08-10T10:20:03.000Z</time>
      </trkpt>
      <trkpt lat="43.07228" lon="0.42066">
        <ele>510.60000610352</ele>
        <time>2025-08-10T10:20:04.000Z</time>
      </trkpt>
      <trkpt lat="43.07226" lon="0.42066">
        <ele>510.79998779297</ele>
        <time>2025-08-10T10:20:05.000Z</time>
      </trkpt>
      <trkpt lat="43.07224" lon="0.42067">
        <ele>511</ele>
        <time>2025-08-10T10:20:06.000Z</time>
      </trkpt>
      <trkpt lat="43.07222" lon="0.42071">
        <ele>511.79998779297</ele>
        <time>2025-08-10T10:20:08.000Z</time>
      </trkpt>
      <trkpt lat="43.07218" lon="0.42069">
        <ele>512.59997558594</ele>
        <time>2025-08-10T10:20:11.000Z</time>
      </trkpt>
      <trkpt lat="43.07216" lon="0.4207">
        <ele>512.79998779297</ele>
        <time>2025-08-10T10:20:13.000Z</time>
      </trkpt>
      <trkpt lat="43.07215" lon="0.42072">
        <ele>513</ele>
        <time>2025-08-10T10:20:14.000Z</time>
      </trkpt>
      <trkpt lat="43.07212" lon="0.42072">
        <ele>513.40002441406</ele>
        <time>2025-08-10T10:20:16.000Z</time>
      </trkpt>
      <trkpt lat="43.0721" lon="0.42072">
        <ele>513.59997558594</ele>
        <time>2025-08-10T10:20:17.000Z</time>
      </trkpt>
      <trkpt lat="43.07209" lon="0.42072">
        <ele>514.20001220703</ele>
        <time>2025-08-10T10:20:18.000Z</time>
      </trkpt>
      <trkpt lat="43.07206" lon="0.42074">
        <ele>514.79998779297</ele>
        <time>2025-08-10T10:20:21.000Z</time>
      </trkpt>
      <trkpt lat="43.07203" lon="0.42077">
        <ele>515.20001220703</ele>
        <time>2025-08-10T10:20:23.000Z</time>
      </trkpt>
      <trkpt lat="43.07197" lon="0.42079">
        <ele>516.20001220703</ele>
        <time>2025-08-10T10:20:27.000Z</time>
      </trkpt>
      <trkpt lat="43.07196" lon="0.4208">
        <ele>516.59997558594</ele>
        <time>2025-08-10T10:20:28.000Z</time>
      </trkpt>
      <trkpt lat="43.07196" lon="0.4208">
        <ele>516.59997558594</ele>
        <time>2025-08-10T10:20:29.000Z</time>
      </trkpt>
      <trkpt lat="43.07193" lon="0.42078">
        <ele>517</ele>
        <time>2025-08-10T10:20:31.000Z</time>
      </trkpt>
      <trkpt lat="43.07191" lon="0.42078">
        <ele>517.40002441406</ele>
        <time>2025-08-10T10:20:32.000Z</time>
      </trkpt>
      <trkpt lat="43.07188" lon="0.42078">
        <ele>517.59997558594</ele>
        <time>2025-08-10T10:20:34.000Z</time>
      </trkpt>
      <trkpt lat="43.07181" lon="0.42077">
        <ele>518.20001220703</ele>
        <time>2025-08-10T10:20:37.000Z</time>
      </trkpt>
      <trkpt lat="43.07178" lon="0.42079">
        <ele>518.59997558594</ele>
        <time>2025-08-10T10:20:39.000Z</time>
      </trkpt>
      <trkpt lat="43.07168" lon="0.42081">
        <ele>519</ele>
        <time>2025-08-10T10:20:43.000Z</time>
      </trkpt>
      <trkpt lat="43.07154" lon="0.42085">
        <ele>519.40002441406</ele>
        <time>2025-08-10T10:20:50.000Z</time>
      </trkpt>
      <trkpt lat="43.07146" lon="0.42086">
        <ele>519.59997558594</ele>
        <time>2025-08-10T10:20:54.000Z</time>
      </trkpt>
      <trkpt lat="43.07143" lon="0.42086">
        <ele>519.79998779297</ele>
        <time>2025-08-10T10:20:55.000Z</time>
      </trkpt>
      <trkpt lat="43.07125" lon="0.42082">
        <ele>520.40002441406</ele>
        <time>2025-08-10T10:21:03.000Z</time>
      </trkpt>
      <trkpt lat="43.07106" lon="0.42066">
        <ele>520.59997558594</ele>
        <time>2025-08-10T10:21:12.000Z</time>
      </trkpt>
      <trkpt lat="43.07103" lon="0.42064">
        <ele>520.79998779297</ele>
        <time>2025-08-10T10:21:13.000Z</time>
      </trkpt>
      <trkpt lat="43.07087" lon="0.42048">
        <ele>521.20001220703</ele>
        <time>2025-08-10T10:21:21.000Z</time>
      </trkpt>
      <trkpt lat="43.07074" lon="0.42035">
        <ele>522</ele>
        <time>2025-08-10T10:21:28.000Z</time>
      </trkpt>
      <trkpt lat="43.07058" lon="0.4202">
        <ele>522.59997558594</ele>
        <time>2025-08-10T10:21:36.000Z</time>
      </trkpt>
      <trkpt lat="43.07044" lon="0.42006">
        <ele>523</ele>
        <time>2025-08-10T10:21:44.000Z</time>
      </trkpt>
      <trkpt lat="43.07042" lon="0.42005">
        <ele>523.20001220703</ele>
        <time>2025-08-10T10:21:45.000Z</time>
      </trkpt>
      <trkpt lat="43.0703" lon="0.41994">
        <ele>524</ele>
        <time>2025-08-10T10:21:52.000Z</time>
      </trkpt>
      <trkpt lat="43.07029" lon="0.41992">
        <ele>524</ele>
        <time>2025-08-10T10:21:53.000Z</time>
      </trkpt>
      <trkpt lat="43.07025" lon="0.41989">
        <ele>524</ele>
        <time>2025-08-10T10:21:55.000Z</time>
      </trkpt>
      <trkpt lat="43.07017" lon="0.41982">
        <ele>524.20001220703</ele>
        <time>2025-08-10T10:22:00.000Z</time>
      </trkpt>
      <trkpt lat="43.07003" lon="0.41972">
        <ele>525</ele>
        <time>2025-08-10T10:22:09.000Z</time>
      </trkpt>
      <trkpt lat="43.06994" lon="0.41964">
        <ele>525.59997558594</ele>
        <time>2025-08-10T10:22:15.000Z</time>
      </trkpt>
      <trkpt lat="43.06986" lon="0.4196">
        <ele>526</ele>
        <time>2025-08-10T10:22:19.000Z</time>
      </trkpt>
      <trkpt lat="43.06975" lon="0.41952">
        <ele>527</ele>
        <time>2025-08-10T10:22:25.000Z</time>
      </trkpt>
      <trkpt lat="43.06971" lon="0.41948">
        <ele>527.20001220703</ele>
        <time>2025-08-10T10:22:27.000Z</time>
      </trkpt>
      <trkpt lat="43.06961" lon="0.4194">
        <ele>527.20001220703</ele>
        <time>2025-08-10T10:22:32.000Z</time>
      </trkpt>
      <trkpt lat="43.06956" lon="0.41936">
        <ele>527.40002441406</ele>
        <time>2025-08-10T10:22:34.000Z</time>
      </trkpt>
      <trkpt lat="43.06941" lon="0.41922">
        <ele>528.20001220703</ele>
        <time>2025-08-10T10:22:42.000Z</time>
      </trkpt>
      <trkpt lat="43.06924" lon="0.41905">
        <ele>528.59997558594</ele>
        <time>2025-08-10T10:22:50.000Z</time>
      </trkpt>
      <trkpt lat="43.06913" lon="0.41895">
        <ele>529.20001220703</ele>
        <time>2025-08-10T10:22:55.000Z</time>
      </trkpt>
      <trkpt lat="43.0691" lon="0.41893">
        <ele>529.20001220703</ele>
        <time>2025-08-10T10:22:56.000Z</time>
      </trkpt>
      <trkpt lat="43.069" lon="0.41882">
        <ele>529.40002441406</ele>
        <time>2025-08-10T10:23:01.000Z</time>
      </trkpt>
      <trkpt lat="43.06881" lon="0.41862">
        <ele>530</ele>
        <time>2025-08-10T10:23:11.000Z</time>
      </trkpt>
      <trkpt lat="43.0688" lon="0.4186">
        <ele>530.20001220703</ele>
        <time>2025-08-10T10:23:12.000Z</time>
      </trkpt>
      <trkpt lat="43.06867" lon="0.41845">
        <ele>531</ele>
        <time>2025-08-10T10:23:20.000Z</time>
      </trkpt>
      <trkpt lat="43.06863" lon="0.41842">
        <ele>531.20001220703</ele>
        <time>2025-08-10T10:23:22.000Z</time>
      </trkpt>
      <trkpt lat="43.06852" lon="0.41832">
        <ele>532</ele>
        <time>2025-08-10T10:23:28.000Z</time>
      </trkpt>
      <trkpt lat="43.06846" lon="0.41826">
        <ele>532.40002441406</ele>
        <time>2025-08-10T10:23:31.000Z</time>
      </trkpt>
      <trkpt lat="43.06837" lon="0.41815">
        <ele>532.79998779297</ele>
        <time>2025-08-10T10:23:36.000Z</time>
      </trkpt>
      <trkpt lat="43.06824" lon="0.41799">
        <ele>533.20001220703</ele>
        <time>2025-08-10T10:23:44.000Z</time>
      </trkpt>
      <trkpt lat="43.06819" lon="0.41793">
        <ele>533.59997558594</ele>
        <time>2025-08-10T10:23:47.000Z</time>
      </trkpt>
      <trkpt lat="43.06809" lon="0.41781">
        <ele>534.40002441406</ele>
        <time>2025-08-10T10:23:53.000Z</time>
      </trkpt>
      <trkpt lat="43.06807" lon="0.41778">
        <ele>534.40002441406</ele>
        <time>2025-08-10T10:23:54.000Z</time>
      </trkpt>
      <trkpt lat="43.06797" lon="0.41766">
        <ele>534.59997558594</ele>
        <time>2025-08-10T10:24:00.000Z</time>
      </trkpt>
      <trkpt lat="43.06789" lon="0.41756">
        <ele>535</ele>
        <time>2025-08-10T10:24:05.000Z</time>
      </trkpt>
      <trkpt lat="43.06779" lon="0.41739">
        <ele>535.79998779297</ele>
        <time>2025-08-10T10:24:13.000Z</time>
      </trkpt>
      <trkpt lat="43.06777" lon="0.41735">
        <ele>536.40002441406</ele>
        <time>2025-08-10T10:24:17.000Z</time>
      </trkpt>
      <trkpt lat="43.06775" lon="0.41735">
        <ele>536.59997558594</ele>
        <time>2025-08-10T10:24:18.000Z</time>
      </trkpt>
      <trkpt lat="43.06774" lon="0.41733">
        <ele>536.79998779297</ele>
        <time>2025-08-10T10:24:19.000Z</time>
      </trkpt>
      <trkpt lat="43.06773" lon="0.41728">
        <ele>537.20001220703</ele>
        <time>2025-08-10T10:24:21.000Z</time>
      </trkpt>
      <trkpt lat="43.06772" lon="0.41726">
        <ele>537.40002441406</ele>
        <time>2025-08-10T10:24:22.000Z</time>
      </trkpt>
      <trkpt lat="43.06771" lon="0.41725">
        <ele>537.40002441406</ele>
        <time>2025-08-10T10:24:23.000Z</time>
      </trkpt>
      <trkpt lat="43.06768" lon="0.41721">
        <ele>537.79998779297</ele>
        <time>2025-08-10T10:24:25.000Z</time>
      </trkpt>
      <trkpt lat="43.06768" lon="0.41719">
        <ele>538</ele>
        <time>2025-08-10T10:24:26.000Z</time>
      </trkpt>
      <trkpt lat="43.06768" lon="0.41717">
        <ele>538.20001220703</ele>
        <time>2025-08-10T10:24:27.000Z</time>
      </trkpt>
      <trkpt lat="43.06765" lon="0.41713">
        <ele>538.59997558594</ele>
        <time>2025-08-10T10:24:29.000Z</time>
      </trkpt>
      <trkpt lat="43.06765" lon="0.4171">
        <ele>538.79998779297</ele>
        <time>2025-08-10T10:24:30.000Z</time>
      </trkpt>
      <trkpt lat="43.06765" lon="0.41708">
        <ele>539</ele>
        <time>2025-08-10T10:24:31.000Z</time>
      </trkpt>
      <trkpt lat="43.06765" lon="0.41705">
        <ele>539.59997558594</ele>
        <time>2025-08-10T10:24:32.000Z</time>
      </trkpt>
      <trkpt lat="43.06764" lon="0.417">
        <ele>540.20001220703</ele>
        <time>2025-08-10T10:24:34.000Z</time>
      </trkpt>
      <trkpt lat="43.06764" lon="0.41688">
        <ele>540.59997558594</ele>
        <time>2025-08-10T10:24:39.000Z</time>
      </trkpt>
      <trkpt lat="43.06764" lon="0.41673">
        <ele>541.20001220703</ele>
        <time>2025-08-10T10:24:45.000Z</time>
      </trkpt>
      <trkpt lat="43.06765" lon="0.41666">
        <ele>541.59997558594</ele>
        <time>2025-08-10T10:24:48.000Z</time>
      </trkpt>
      <trkpt lat="43.06765" lon="0.41657">
        <ele>542.40002441406</ele>
        <time>2025-08-10T10:24:52.000Z</time>
      </trkpt>
      <trkpt lat="43.06766" lon="0.41647">
        <ele>543</ele>
        <time>2025-08-10T10:24:57.000Z</time>
      </trkpt>
      <trkpt lat="43.06767" lon="0.41644">
        <ele>543.40002441406</ele>
        <time>2025-08-10T10:24:59.000Z</time>
      </trkpt>
      <trkpt lat="43.06767" lon="0.41642">
        <ele>543.79998779297</ele>
        <time>2025-08-10T10:25:00.000Z</time>
      </trkpt>
      <trkpt lat="43.06767" lon="0.41637">
        <ele>544.20001220703</ele>
        <time>2025-08-10T10:25:03.000Z</time>
      </trkpt>
      <trkpt lat="43.06767" lon="0.41626">
        <ele>544.40002441406</ele>
        <time>2025-08-10T10:25:08.000Z</time>
      </trkpt>
      <trkpt lat="43.06767" lon="0.41622">
        <ele>544.59997558594</ele>
        <time>2025-08-10T10:25:10.000Z</time>
      </trkpt>
      <trkpt lat="43.06767" lon="0.41621">
        <ele>544.59997558594</ele>
        <time>2025-08-10T10:25:11.000Z</time>
      </trkpt>
      <trkpt lat="43.06765" lon="0.41619">
        <ele>545</ele>
        <time>2025-08-10T10:25:13.000Z</time>
      </trkpt>
      <trkpt lat="43.06765" lon="0.41615">
        <ele>545.20001220703</ele>
        <time>2025-08-10T10:25:15.000Z</time>
      </trkpt>
      <trkpt lat="43.06767" lon="0.4161">
        <ele>545.40002441406</ele>
        <time>2025-08-10T10:25:18.000Z</time>
      </trkpt>
      <trkpt lat="43.06767" lon="0.41607">
        <ele>545.59997558594</ele>
        <time>2025-08-10T10:25:19.000Z</time>
      </trkpt>
      <trkpt lat="43.06767" lon="0.41605">
        <ele>545.59997558594</ele>
        <time>2025-08-10T10:25:20.000Z</time>
      </trkpt>
      <trkpt lat="43.06769" lon="0.41603">
        <ele>546</ele>
        <time>2025-08-10T10:25:22.000Z</time>
      </trkpt>
      <trkpt lat="43.06768" lon="0.416">
        <ele>546.40002441406</ele>
        <time>2025-08-10T10:25:24.000Z</time>
      </trkpt>
      <trkpt lat="43.06768" lon="0.41598">
        <ele>546.59997558594</ele>
        <time>2025-08-10T10:25:25.000Z</time>
      </trkpt>
      <trkpt lat="43.06769" lon="0.41595">
        <ele>546.79998779297</ele>
        <time>2025-08-10T10:25:27.000Z</time>
      </trkpt>
      <trkpt lat="43.06768" lon="0.41593">
        <ele>547</ele>
        <time>2025-08-10T10:25:28.000Z</time>
      </trkpt>
      <trkpt lat="43.06768" lon="0.4159">
        <ele>547.20001220703</ele>
        <time>2025-08-10T10:25:30.000Z</time>
      </trkpt>
      <trkpt lat="43.0677" lon="0.41587">
        <ele>547.40002441406</ele>
        <time>2025-08-10T10:25:32.000Z</time>
      </trkpt>
      <trkpt lat="43.0677" lon="0.41585">
        <ele>547.59997558594</ele>
        <time>2025-08-10T10:25:33.000Z</time>
      </trkpt>
      <trkpt lat="43.06769" lon="0.41583">
        <ele>547.79998779297</ele>
        <time>2025-08-10T10:25:35.000Z</time>
      </trkpt>
      <trkpt lat="43.0677" lon="0.4158">
        <ele>548.20001220703</ele>
        <time>2025-08-10T10:25:37.000Z</time>
      </trkpt>
      <trkpt lat="43.06771" lon="0.41578">
        <ele>548.20001220703</ele>
        <time>2025-08-10T10:25:38.000Z</time>
      </trkpt>
      <trkpt lat="43.0677" lon="0.41576">
        <ele>548.40002441406</ele>
        <time>2025-08-10T10:25:39.000Z</time>
      </trkpt>
      <trkpt lat="43.0677" lon="0.41575">
        <ele>548.40002441406</ele>
        <time>2025-08-10T10:25:40.000Z</time>
      </trkpt>
      <trkpt lat="43.06771" lon="0.41573">
        <ele>548.59997558594</ele>
        <time>2025-08-10T10:25:42.000Z</time>
      </trkpt>
      <trkpt lat="43.06771" lon="0.41571">
        <ele>548.59997558594</ele>
        <time>2025-08-10T10:25:43.000Z</time>
      </trkpt>
      <trkpt lat="43.0677" lon="0.41569">
        <ele>549</ele>
        <time>2025-08-10T10:25:45.000Z</time>
      </trkpt>
      <trkpt lat="43.06771" lon="0.41564">
        <ele>549.40002441406</ele>
        <time>2025-08-10T10:25:48.000Z</time>
      </trkpt>
      <trkpt lat="43.06771" lon="0.41558">
        <ele>550</ele>
        <time>2025-08-10T10:25:51.000Z</time>
      </trkpt>
      <trkpt lat="43.06773" lon="0.41551">
        <ele>550.59997558594</ele>
        <time>2025-08-10T10:25:54.000Z</time>
      </trkpt>
      <trkpt lat="43.06776" lon="0.41539">
        <ele>551.20001220703</ele>
        <time>2025-08-10T10:25:59.000Z</time>
      </trkpt>
      <trkpt lat="43.06779" lon="0.41532">
        <ele>551.40002441406</ele>
        <time>2025-08-10T10:26:02.000Z</time>
      </trkpt>
      <trkpt lat="43.06779" lon="0.41529">
        <ele>551.79998779297</ele>
        <time>2025-08-10T10:26:03.000Z</time>
      </trkpt>
      <trkpt lat="43.0678" lon="0.41526">
        <ele>551.79998779297</ele>
        <time>2025-08-10T10:26:05.000Z</time>
      </trkpt>
      <trkpt lat="43.0678" lon="0.41526">
        <ele>552</ele>
        <time>2025-08-10T10:26:07.000Z</time>
      </trkpt>
      <trkpt lat="43.0678" lon="0.41503">
        <ele>552.20001220703</ele>
        <time>2025-08-10T10:30:06.000Z</time>
      </trkpt>
      <trkpt lat="43.06782" lon="0.41501">
        <ele>552.20001220703</ele>
        <time>2025-08-10T10:30:07.000Z</time>
      </trkpt>
      <trkpt lat="43.06793" lon="0.4149">
        <ele>552.20001220703</ele>
        <time>2025-08-10T10:30:11.000Z</time>
      </trkpt>
      <trkpt lat="43.06808" lon="0.41471">
        <ele>552</ele>
        <time>2025-08-10T10:30:15.000Z</time>
      </trkpt>
      <trkpt lat="43.06821" lon="0.41454">
        <ele>551.20001220703</ele>
        <time>2025-08-10T10:30:18.000Z</time>
      </trkpt>
      <trkpt lat="43.06831" lon="0.4144">
        <ele>550.59997558594</ele>
        <time>2025-08-10T10:30:20.000Z</time>
      </trkpt>
      <trkpt lat="43.06836" lon="0.41434">
        <ele>550.40002441406</ele>
        <time>2025-08-10T10:30:21.000Z</time>
      </trkpt>
      <trkpt lat="43.0685" lon="0.41412">
        <ele>549.40002441406</ele>
        <time>2025-08-10T10:30:24.000Z</time>
      </trkpt>
      <trkpt lat="43.06863" lon="0.4139">
        <ele>548.40002441406</ele>
        <time>2025-08-10T10:30:27.000Z</time>
      </trkpt>
      <trkpt lat="43.06867" lon="0.41382">
        <ele>548</ele>
        <time>2025-08-10T10:30:28.000Z</time>
      </trkpt>
      <trkpt lat="43.0687" lon="0.41366">
        <ele>547.40002441406</ele>
        <time>2025-08-10T10:30:30.000Z</time>
      </trkpt>
      <trkpt lat="43.06869" lon="0.41359">
        <ele>547</ele>
        <time>2025-08-10T10:30:31.000Z</time>
      </trkpt>
      <trkpt lat="43.06867" lon="0.41352">
        <ele>546.40002441406</ele>
        <time>2025-08-10T10:30:32.000Z</time>
      </trkpt>
      <trkpt lat="43.06862" lon="0.41343">
        <ele>545.79998779297</ele>
        <time>2025-08-10T10:30:34.000Z</time>
      </trkpt>
      <trkpt lat="43.06851" lon="0.41332">
        <ele>545.59997558594</ele>
        <time>2025-08-10T10:30:38.000Z</time>
      </trkpt>
      <trkpt lat="43.06844" lon="0.41318">
        <ele>546.59997558594</ele>
        <time>2025-08-10T10:30:43.000Z</time>
      </trkpt>
      <trkpt lat="43.06843" lon="0.41315">
        <ele>547</ele>
        <time>2025-08-10T10:30:44.000Z</time>
      </trkpt>
      <trkpt lat="43.06844" lon="0.41306">
        <ele>548.20001220703</ele>
        <time>2025-08-10T10:30:47.000Z</time>
      </trkpt>
      <trkpt lat="43.06844" lon="0.41286">
        <ele>549.40002441406</ele>
        <time>2025-08-10T10:30:53.000Z</time>
      </trkpt>
      <trkpt lat="43.06846" lon="0.41264">
        <ele>550</ele>
        <time>2025-08-10T10:30:59.000Z</time>
      </trkpt>
      <trkpt lat="43.06848" lon="0.41251">
        <ele>550.40002441406</ele>
        <time>2025-08-10T10:31:02.000Z</time>
      </trkpt>
      <trkpt lat="43.06848" lon="0.4124">
        <ele>550.79998779297</ele>
        <time>2025-08-10T10:31:05.000Z</time>
      </trkpt>
      <trkpt lat="43.06848" lon="0.41233">
        <ele>551.20001220703</ele>
        <time>2025-08-10T10:31:07.000Z</time>
      </trkpt>
      <trkpt lat="43.06847" lon="0.41219">
        <ele>551.40002441406</ele>
        <time>2025-08-10T10:31:11.000Z</time>
      </trkpt>
      <trkpt lat="43.06846" lon="0.41208">
        <ele>551.59997558594</ele>
        <time>2025-08-10T10:31:14.000Z</time>
      </trkpt>
      <trkpt lat="43.06841" lon="0.41189">
        <ele>551.59997558594</ele>
        <time>2025-08-10T10:31:19.000Z</time>
      </trkpt>
      <trkpt lat="43.06838" lon="0.41169">
        <ele>551.40002441406</ele>
        <time>2025-08-10T10:31:23.000Z</time>
      </trkpt>
      <trkpt lat="43.06837" lon="0.41156">
        <ele>551.20001220703</ele>
        <time>2025-08-10T10:31:25.000Z</time>
      </trkpt>
      <trkpt lat="43.06837" lon="0.41139">
        <ele>551</ele>
        <time>2025-08-10T10:31:27.000Z</time>
      </trkpt>
      <trkpt lat="43.06839" lon="0.41097">
        <ele>550.79998779297</ele>
        <time>2025-08-10T10:31:31.000Z</time>
      </trkpt>
      <trkpt lat="43.06839" lon="0.41085">
        <ele>550.20001220703</ele>
        <time>2025-08-10T10:31:32.000Z</time>
      </trkpt>
      <trkpt lat="43.06839" lon="0.41048">
        <ele>548.79998779297</ele>
        <time>2025-08-10T10:31:35.000Z</time>
      </trkpt>
      <trkpt lat="43.0684" lon="0.41035">
        <ele>548.59997558594</ele>
        <time>2025-08-10T10:31:36.000Z</time>
      </trkpt>
      <trkpt lat="43.06843" lon="0.41023">
        <ele>547.59997558594</ele>
        <time>2025-08-10T10:31:37.000Z</time>
      </trkpt>
      <trkpt lat="43.06854" lon="0.40989">
        <ele>546.40002441406</ele>
        <time>2025-08-10T10:31:40.000Z</time>
      </trkpt>
      <trkpt lat="43.06858" lon="0.40978">
        <ele>546.20001220703</ele>
        <time>2025-08-10T10:31:41.000Z</time>
      </trkpt>
      <trkpt lat="43.06868" lon="0.4095">
        <ele>545.59997558594</ele>
        <time>2025-08-10T10:31:44.000Z</time>
      </trkpt>
      <trkpt lat="43.06879" lon="0.40922">
        <ele>545.79998779297</ele>
        <time>2025-08-10T10:31:48.000Z</time>
      </trkpt>
      <trkpt lat="43.06889" lon="0.40892">
        <ele>546.20001220703</ele>
        <time>2025-08-10T10:31:54.000Z</time>
      </trkpt>
      <trkpt lat="43.06898" lon="0.40866">
        <ele>546.79998779297</ele>
        <time>2025-08-10T10:32:00.000Z</time>
      </trkpt>
      <trkpt lat="43.06908" lon="0.40836">
        <ele>547.20001220703</ele>
        <time>2025-08-10T10:32:07.000Z</time>
      </trkpt>
      <trkpt lat="43.06918" lon="0.408">
        <ele>547.59997558594</ele>
        <time>2025-08-10T10:32:15.000Z</time>
      </trkpt>
      <trkpt lat="43.0693" lon="0.40767">
        <ele>548.20001220703</ele>
        <time>2025-08-10T10:32:23.000Z</time>
      </trkpt>
      <trkpt lat="43.06941" lon="0.40732">
        <ele>548.20001220703</ele>
        <time>2025-08-10T10:32:30.000Z</time>
      </trkpt>
      <trkpt lat="43.06944" lon="0.40718">
        <ele>548.20001220703</ele>
        <time>2025-08-10T10:32:32.000Z</time>
      </trkpt>
      <trkpt lat="43.06946" lon="0.40702">
        <ele>548.20001220703</ele>
        <time>2025-08-10T10:32:34.000Z</time>
      </trkpt>
      <trkpt lat="43.06948" lon="0.40661">
        <ele>548</ele>
        <time>2025-08-10T10:32:40.000Z</time>
      </trkpt>
      <trkpt lat="43.06949" lon="0.40627">
        <ele>548.40002441406</ele>
        <time>2025-08-10T10:32:46.000Z</time>
      </trkpt>
      <trkpt lat="43.06948" lon="0.40617">
        <ele>548.79998779297</ele>
        <time>2025-08-10T10:32:48.000Z</time>
      </trkpt>
      <trkpt lat="43.06945" lon="0.40597">
        <ele>549.59997558594</ele>
        <time>2025-08-10T10:32:52.000Z</time>
      </trkpt>
      <trkpt lat="43.06943" lon="0.40582">
        <ele>550</ele>
        <time>2025-08-10T10:32:55.000Z</time>
      </trkpt>
      <trkpt lat="43.06943" lon="0.40558">
        <ele>550</ele>
        <time>2025-08-10T10:32:59.000Z</time>
      </trkpt>
      <trkpt lat="43.06941" lon="0.40522">
        <ele>549.59997558594</ele>
        <time>2025-08-10T10:33:04.000Z</time>
      </trkpt>
      <trkpt lat="43.06942" lon="0.40495">
        <ele>549.20001220703</ele>
        <time>2025-08-10T10:33:07.000Z</time>
      </trkpt>
      <trkpt lat="43.06942" lon="0.40477">
        <ele>548.79998779297</ele>
        <time>2025-08-10T10:33:09.000Z</time>
      </trkpt>
      <trkpt lat="43.06941" lon="0.40467">
        <ele>548.59997558594</ele>
        <time>2025-08-10T10:33:10.000Z</time>
      </trkpt>
      <trkpt lat="43.06941" lon="0.40427">
        <ele>547.59997558594</ele>
        <time>2025-08-10T10:33:14.000Z</time>
      </trkpt>
      <trkpt lat="43.06942" lon="0.40416">
        <ele>547.59997558594</ele>
        <time>2025-08-10T10:33:15.000Z</time>
      </trkpt>
      <trkpt lat="43.06942" lon="0.40405">
        <ele>547.20001220703</ele>
        <time>2025-08-10T10:33:16.000Z</time>
      </trkpt>
      <trkpt lat="43.06943" lon="0.40385">
        <ele>546.59997558594</ele>
        <time>2025-08-10T10:33:18.000Z</time>
      </trkpt>
      <trkpt lat="43.06944" lon="0.40373">
        <ele>546.20001220703</ele>
        <time>2025-08-10T10:33:19.000Z</time>
      </trkpt>
      <trkpt lat="43.0695" lon="0.40326">
        <ele>545.40002441406</ele>
        <time>2025-08-10T10:33:24.000Z</time>
      </trkpt>
      <trkpt lat="43.06957" lon="0.4029">
        <ele>545</ele>
        <time>2025-08-10T10:33:29.000Z</time>
      </trkpt>
      <trkpt lat="43.06962" lon="0.40252">
        <ele>545</ele>
        <time>2025-08-10T10:33:34.000Z</time>
      </trkpt>
      <trkpt lat="43.06962" lon="0.40244">
        <ele>545</ele>
        <time>2025-08-10T10:33:35.000Z</time>
      </trkpt>
      <trkpt lat="43.0696" lon="0.40218">
        <ele>544.79998779297</ele>
        <time>2025-08-10T10:33:38.000Z</time>
      </trkpt>
      <trkpt lat="43.06958" lon="0.40201">
        <ele>544.20001220703</ele>
        <time>2025-08-10T10:33:40.000Z</time>
      </trkpt>
      <trkpt lat="43.06958" lon="0.40184">
        <ele>544</ele>
        <time>2025-08-10T10:33:42.000Z</time>
      </trkpt>
      <trkpt lat="43.06961" lon="0.40168">
        <ele>543.79998779297</ele>
        <time>2025-08-10T10:33:44.000Z</time>
      </trkpt>
      <trkpt lat="43.06966" lon="0.40154">
        <ele>543.79998779297</ele>
        <time>2025-08-10T10:33:46.000Z</time>
      </trkpt>
      <trkpt lat="43.06973" lon="0.40142">
        <ele>543.79998779297</ele>
        <time>2025-08-10T10:33:48.000Z</time>
      </trkpt>
      <trkpt lat="43.06984" lon="0.40119">
        <ele>543.79998779297</ele>
        <time>2025-08-10T10:33:52.000Z</time>
      </trkpt>
      <trkpt lat="43.06988" lon="0.40113">
        <ele>543.79998779297</ele>
        <time>2025-08-10T10:33:53.000Z</time>
      </trkpt>
      <trkpt lat="43.07011" lon="0.40076">
        <ele>543.40002441406</ele>
        <time>2025-08-10T10:33:59.000Z</time>
      </trkpt>
      <trkpt lat="43.07016" lon="0.4007">
        <ele>543.40002441406</ele>
        <time>2025-08-10T10:34:00.000Z</time>
      </trkpt>
      <trkpt lat="43.07022" lon="0.40064">
        <ele>543.20001220703</ele>
        <time>2025-08-10T10:34:01.000Z</time>
      </trkpt>
      <trkpt lat="43.07041" lon="0.40048">
        <ele>542.79998779297</ele>
        <time>2025-08-10T10:34:04.000Z</time>
      </trkpt>
      <trkpt lat="43.07056" lon="0.40038">
        <ele>541.79998779297</ele>
        <time>2025-08-10T10:34:06.000Z</time>
      </trkpt>
      <trkpt lat="43.07064" lon="0.40032">
        <ele>541.59997558594</ele>
        <time>2025-08-10T10:34:07.000Z</time>
      </trkpt>
      <trkpt lat="43.07078" lon="0.40017">
        <ele>540.59997558594</ele>
        <time>2025-08-10T10:34:09.000Z</time>
      </trkpt>
      <trkpt lat="43.0709" lon="0.39997">
        <ele>539.79998779297</ele>
        <time>2025-08-10T10:34:11.000Z</time>
      </trkpt>
      <trkpt lat="43.07095" lon="0.39986">
        <ele>539.20001220703</ele>
        <time>2025-08-10T10:34:12.000Z</time>
      </trkpt>
      <trkpt lat="43.071" lon="0.39971">
        <ele>538.40002441406</ele>
        <time>2025-08-10T10:34:13.000Z</time>
      </trkpt>
      <trkpt lat="43.07104" lon="0.39957">
        <ele>538</ele>
        <time>2025-08-10T10:34:14.000Z</time>
      </trkpt>
      <trkpt lat="43.07111" lon="0.3993">
        <ele>536.79998779297</ele>
        <time>2025-08-10T10:34:16.000Z</time>
      </trkpt>
      <trkpt lat="43.07114" lon="0.39916">
        <ele>536.20001220703</ele>
        <time>2025-08-10T10:34:17.000Z</time>
      </trkpt>
      <trkpt lat="43.07117" lon="0.39903">
        <ele>535.79998779297</ele>
        <time>2025-08-10T10:34:18.000Z</time>
      </trkpt>
      <trkpt lat="43.07119" lon="0.39889">
        <ele>535</ele>
        <time>2025-08-10T10:34:19.000Z</time>
      </trkpt>
      <trkpt lat="43.0712" lon="0.3988">
        <ele>534.20001220703</ele>
        <time>2025-08-10T10:34:20.000Z</time>
      </trkpt>
      <trkpt lat="43.0712" lon="0.39869">
        <ele>533.79998779297</ele>
        <time>2025-08-10T10:34:21.000Z</time>
      </trkpt>
      <trkpt lat="43.0712" lon="0.39859">
        <ele>532</ele>
        <time>2025-08-10T10:34:22.000Z</time>
      </trkpt>
      <trkpt lat="43.07119" lon="0.39847">
        <ele>531.40002441406</ele>
        <time>2025-08-10T10:34:23.000Z</time>
      </trkpt>
      <trkpt lat="43.07119" lon="0.39838">
        <ele>530.79998779297</ele>
        <time>2025-08-10T10:34:24.000Z</time>
      </trkpt>
      <trkpt lat="43.07117" lon="0.3982">
        <ele>529.59997558594</ele>
        <time>2025-08-10T10:34:26.000Z</time>
      </trkpt>
      <trkpt lat="43.07117" lon="0.39803">
        <ele>528.79998779297</ele>
        <time>2025-08-10T10:34:28.000Z</time>
      </trkpt>
      <trkpt lat="43.07118" lon="0.39797">
        <ele>528.20001220703</ele>
        <time>2025-08-10T10:34:29.000Z</time>
      </trkpt>
      <trkpt lat="43.07121" lon="0.3979">
        <ele>528</ele>
        <time>2025-08-10T10:34:30.000Z</time>
      </trkpt>
      <trkpt lat="43.07132" lon="0.39779">
        <ele>527.40002441406</ele>
        <time>2025-08-10T10:34:32.000Z</time>
      </trkpt>
      <trkpt lat="43.07164" lon="0.3976">
        <ele>526.20001220703</ele>
        <time>2025-08-10T10:34:37.000Z</time>
      </trkpt>
      <trkpt lat="43.07196" lon="0.39741">
        <ele>525.20001220703</ele>
        <time>2025-08-10T10:34:42.000Z</time>
      </trkpt>
      <trkpt lat="43.07227" lon="0.39723">
        <ele>524.59997558594</ele>
        <time>2025-08-10T10:34:47.000Z</time>
      </trkpt>
      <trkpt lat="43.07251" lon="0.39708">
        <ele>524.40002441406</ele>
        <time>2025-08-10T10:34:51.000Z</time>
      </trkpt>
      <trkpt lat="43.07256" lon="0.39704">
        <ele>524.40002441406</ele>
        <time>2025-08-10T10:34:52.000Z</time>
      </trkpt>
      <trkpt lat="43.07261" lon="0.39699">
        <ele>524.40002441406</ele>
        <time>2025-08-10T10:34:53.000Z</time>
      </trkpt>
      <trkpt lat="43.07269" lon="0.39683">
        <ele>524.59997558594</ele>
        <time>2025-08-10T10:34:56.000Z</time>
      </trkpt>
      <trkpt lat="43.07283" lon="0.39653">
        <ele>525</ele>
        <time>2025-08-10T10:35:02.000Z</time>
      </trkpt>
      <trkpt lat="43.07297" lon="0.39622">
        <ele>525.20001220703</ele>
        <time>2025-08-10T10:35:09.000Z</time>
      </trkpt>
      <trkpt lat="43.07302" lon="0.39612">
        <ele>525.20001220703</ele>
        <time>2025-08-10T10:35:11.000Z</time>
      </trkpt>
      <trkpt lat="43.07311" lon="0.39597">
        <ele>525.40002441406</ele>
        <time>2025-08-10T10:35:14.000Z</time>
      </trkpt>
      <trkpt lat="43.07321" lon="0.39586">
        <ele>525.59997558594</ele>
        <time>2025-08-10T10:35:17.000Z</time>
      </trkpt>
      <trkpt lat="43.07331" lon="0.3957">
        <ele>525.59997558594</ele>
        <time>2025-08-10T10:35:21.000Z</time>
      </trkpt>
      <trkpt lat="43.07335" lon="0.39553">
        <ele>526</ele>
        <time>2025-08-10T10:35:26.000Z</time>
      </trkpt>
      <trkpt lat="43.07336" lon="0.39545">
        <ele>526.40002441406</ele>
        <time>2025-08-10T10:35:29.000Z</time>
      </trkpt>
      <trkpt lat="43.07336" lon="0.39539">
        <ele>526.79998779297</ele>
        <time>2025-08-10T10:35:32.000Z</time>
      </trkpt>
      <trkpt lat="43.07339" lon="0.39527">
        <ele>527.20001220703</ele>
        <time>2025-08-10T10:35:37.000Z</time>
      </trkpt>
      <trkpt lat="43.0734" lon="0.39519">
        <ele>527.59997558594</ele>
        <time>2025-08-10T10:35:40.000Z</time>
      </trkpt>
      <trkpt lat="43.0734" lon="0.39507">
        <ele>528.20001220703</ele>
        <time>2025-08-10T10:35:45.000Z</time>
      </trkpt>
      <trkpt lat="43.07342" lon="0.39496">
        <ele>528.59997558594</ele>
        <time>2025-08-10T10:35:50.000Z</time>
      </trkpt>
      <trkpt lat="43.07343" lon="0.39493">
        <ele>528.79998779297</ele>
        <time>2025-08-10T10:35:51.000Z</time>
      </trkpt>
      <trkpt lat="43.07344" lon="0.39477">
        <ele>529.79998779297</ele>
        <time>2025-08-10T10:35:57.000Z</time>
      </trkpt>
      <trkpt lat="43.07345" lon="0.39465">
        <ele>530.20001220703</ele>
        <time>2025-08-10T10:36:02.000Z</time>
      </trkpt>
      <trkpt lat="43.07343" lon="0.3945">
        <ele>530.79998779297</ele>
        <time>2025-08-10T10:36:08.000Z</time>
      </trkpt>
      <trkpt lat="43.07343" lon="0.39447">
        <ele>531</ele>
        <time>2025-08-10T10:36:09.000Z</time>
      </trkpt>
      <trkpt lat="43.07342" lon="0.39428">
        <ele>531.79998779297</ele>
        <time>2025-08-10T10:36:16.000Z</time>
      </trkpt>
      <trkpt lat="43.07338" lon="0.39412">
        <ele>532.40002441406</ele>
        <time>2025-08-10T10:36:22.000Z</time>
      </trkpt>
      <trkpt lat="43.07337" lon="0.39403">
        <ele>532.79998779297</ele>
        <time>2025-08-10T10:36:25.000Z</time>
      </trkpt>
      <trkpt lat="43.07337" lon="0.39391">
        <ele>533.40002441406</ele>
        <time>2025-08-10T10:36:29.000Z</time>
      </trkpt>
      <trkpt lat="43.07337" lon="0.39388">
        <ele>533.40002441406</ele>
        <time>2025-08-10T10:36:30.000Z</time>
      </trkpt>
      <trkpt lat="43.07339" lon="0.3937">
        <ele>534</ele>
        <time>2025-08-10T10:36:36.000Z</time>
      </trkpt>
      <trkpt lat="43.07339" lon="0.39368">
        <ele>534.20001220703</ele>
        <time>2025-08-10T10:36:37.000Z</time>
      </trkpt>
      <trkpt lat="43.07339" lon="0.39358">
        <ele>534.59997558594</ele>
        <time>2025-08-10T10:36:41.000Z</time>
      </trkpt>
      <trkpt lat="43.07342" lon="0.3935">
        <ele>535</ele>
        <time>2025-08-10T10:36:45.000Z</time>
      </trkpt>
      <trkpt lat="43.07343" lon="0.39347">
        <ele>535.20001220703</ele>
        <time>2025-08-10T10:36:46.000Z</time>
      </trkpt>
      <trkpt lat="43.07343" lon="0.39344">
        <ele>535.20001220703</ele>
        <time>2025-08-10T10:36:47.000Z</time>
      </trkpt>
      <trkpt lat="43.07349" lon="0.39334">
        <ele>536.40002441406</ele>
        <time>2025-08-10T10:36:51.000Z</time>
      </trkpt>
      <trkpt lat="43.0735" lon="0.39332">
        <ele>536.40002441406</ele>
        <time>2025-08-10T10:36:52.000Z</time>
      </trkpt>
      <trkpt lat="43.07353" lon="0.39327">
        <ele>536.79998779297</ele>
        <time>2025-08-10T10:36:54.000Z</time>
      </trkpt>
      <trkpt lat="43.07363" lon="0.393">
        <ele>537.40002441406</ele>
        <time>2025-08-10T10:37:02.000Z</time>
      </trkpt>
      <trkpt lat="43.07367" lon="0.3929">
        <ele>537.40002441406</ele>
        <time>2025-08-10T10:37:05.000Z</time>
      </trkpt>
      <trkpt lat="43.07375" lon="0.39267">
        <ele>537.59997558594</ele>
        <time>2025-08-10T10:37:11.000Z</time>
      </trkpt>
      <trkpt lat="43.07383" lon="0.39234">
        <ele>537.79998779297</ele>
        <time>2025-08-10T10:37:19.000Z</time>
      </trkpt>
      <trkpt lat="43.07384" lon="0.39229">
        <ele>537.79998779297</ele>
        <time>2025-08-10T10:37:20.000Z</time>
      </trkpt>
      <trkpt lat="43.0739" lon="0.39191">
        <ele>538.20001220703</ele>
        <time>2025-08-10T10:37:28.000Z</time>
      </trkpt>
      <trkpt lat="43.07392" lon="0.39156">
        <ele>538.40002441406</ele>
        <time>2025-08-10T10:37:35.000Z</time>
      </trkpt>
      <trkpt lat="43.07392" lon="0.39142">
        <ele>538.59997558594</ele>
        <time>2025-08-10T10:37:38.000Z</time>
      </trkpt>
      <trkpt lat="43.07394" lon="0.39085">
        <ele>538.79998779297</ele>
        <time>2025-08-10T10:37:49.000Z</time>
      </trkpt>
      <trkpt lat="43.07399" lon="0.39038">
        <ele>539.20001220703</ele>
        <time>2025-08-10T10:37:59.000Z</time>
      </trkpt>
      <trkpt lat="43.07405" lon="0.39012">
        <ele>539.40002441406</ele>
        <time>2025-08-10T10:38:05.000Z</time>
      </trkpt>
      <trkpt lat="43.07406" lon="0.39007">
        <ele>539.59997558594</ele>
        <time>2025-08-10T10:38:06.000Z</time>
      </trkpt>
      <trkpt lat="43.07421" lon="0.38968">
        <ele>540.40002441406</ele>
        <time>2025-08-10T10:38:16.000Z</time>
      </trkpt>
      <trkpt lat="43.07423" lon="0.38965">
        <ele>540.59997558594</ele>
        <time>2025-08-10T10:38:17.000Z</time>
      </trkpt>
      <trkpt lat="43.07439" lon="0.38936">
        <ele>541.79998779297</ele>
        <time>2025-08-10T10:38:27.000Z</time>
      </trkpt>
      <trkpt lat="43.07449" lon="0.38917">
        <ele>542.79998779297</ele>
        <time>2025-08-10T10:38:34.000Z</time>
      </trkpt>
      <trkpt lat="43.07451" lon="0.38915">
        <ele>542.79998779297</ele>
        <time>2025-08-10T10:38:35.000Z</time>
      </trkpt>
      <trkpt lat="43.07467" lon="0.38894">
        <ele>543.79998779297</ele>
        <time>2025-08-10T10:38:44.000Z</time>
      </trkpt>
      <trkpt lat="43.07474" lon="0.38884">
        <ele>544.59997558594</ele>
        <time>2025-08-10T10:38:48.000Z</time>
      </trkpt>
      <trkpt lat="43.07481" lon="0.38874">
        <ele>544.79998779297</ele>
        <time>2025-08-10T10:38:52.000Z</time>
      </trkpt>
      <trkpt lat="43.07492" lon="0.38858">
        <ele>545.59997558594</ele>
        <time>2025-08-10T10:38:59.000Z</time>
      </trkpt>
      <trkpt lat="43.075" lon="0.38845">
        <ele>546</ele>
        <time>2025-08-10T10:39:04.000Z</time>
      </trkpt>
      <trkpt lat="43.07503" lon="0.38841">
        <ele>546</ele>
        <time>2025-08-10T10:39:06.000Z</time>
      </trkpt>
      <trkpt lat="43.07512" lon="0.38821">
        <ele>547.20001220703</ele>
        <time>2025-08-10T10:39:14.000Z</time>
      </trkpt>
      <trkpt lat="43.07514" lon="0.38816">
        <ele>547.40002441406</ele>
        <time>2025-08-10T10:39:16.000Z</time>
      </trkpt>
      <trkpt lat="43.07516" lon="0.38811">
        <ele>547.79998779297</ele>
        <time>2025-08-10T10:39:19.000Z</time>
      </trkpt>
      <trkpt lat="43.07516" lon="0.38807">
        <ele>548.20001220703</ele>
        <time>2025-08-10T10:39:21.000Z</time>
      </trkpt>
      <trkpt lat="43.07519" lon="0.38802">
        <ele>548.40002441406</ele>
        <time>2025-08-10T10:39:23.000Z</time>
      </trkpt>
      <trkpt lat="43.07524" lon="0.38794">
        <ele>548.59997558594</ele>
        <time>2025-08-10T10:39:26.000Z</time>
      </trkpt>
      <trkpt lat="43.07529" lon="0.38784">
        <ele>549.40002441406</ele>
        <time>2025-08-10T10:39:30.000Z</time>
      </trkpt>
      <trkpt lat="43.07531" lon="0.38776">
        <ele>550</ele>
        <time>2025-08-10T10:39:33.000Z</time>
      </trkpt>
      <trkpt lat="43.07532" lon="0.38765">
        <ele>550.20001220703</ele>
        <time>2025-08-10T10:39:37.000Z</time>
      </trkpt>
      <trkpt lat="43.07532" lon="0.3876">
        <ele>550.40002441406</ele>
        <time>2025-08-10T10:39:39.000Z</time>
      </trkpt>
      <trkpt lat="43.07532" lon="0.38757">
        <ele>550.59997558594</ele>
        <time>2025-08-10T10:39:40.000Z</time>
      </trkpt>
      <trkpt lat="43.07535" lon="0.38751">
        <ele>551</ele>
        <time>2025-08-10T10:39:43.000Z</time>
      </trkpt>
      <trkpt lat="43.07539" lon="0.38746">
        <ele>551.20001220703</ele>
        <time>2025-08-10T10:39:46.000Z</time>
      </trkpt>
      <trkpt lat="43.07539" lon="0.3874">
        <ele>552</ele>
        <time>2025-08-10T10:39:48.000Z</time>
      </trkpt>
      <trkpt lat="43.07538" lon="0.38737">
        <ele>552.20001220703</ele>
        <time>2025-08-10T10:39:49.000Z</time>
      </trkpt>
      <trkpt lat="43.07531" lon="0.38715">
        <ele>553.40002441406</ele>
        <time>2025-08-10T10:39:57.000Z</time>
      </trkpt>
      <trkpt lat="43.07528" lon="0.387">
        <ele>554.20001220703</ele>
        <time>2025-08-10T10:40:03.000Z</time>
      </trkpt>
      <trkpt lat="43.0753" lon="0.38695">
        <ele>554.40002441406</ele>
        <time>2025-08-10T10:40:06.000Z</time>
      </trkpt>
      <trkpt lat="43.07532" lon="0.38694">
        <ele>554.59997558594</ele>
        <time>2025-08-10T10:40:07.000Z</time>
      </trkpt>
      <trkpt lat="43.07534" lon="0.38691">
        <ele>555</ele>
        <time>2025-08-10T10:40:09.000Z</time>
      </trkpt>
      <trkpt lat="43.07534" lon="0.38688">
        <ele>555.79998779297</ele>
        <time>2025-08-10T10:40:11.000Z</time>
      </trkpt>
      <trkpt lat="43.07533" lon="0.38685">
        <ele>555.79998779297</ele>
        <time>2025-08-10T10:40:12.000Z</time>
      </trkpt>
      <trkpt lat="43.07535" lon="0.38683">
        <ele>556.20001220703</ele>
        <time>2025-08-10T10:40:14.000Z</time>
      </trkpt>
      <trkpt lat="43.07538" lon="0.38682">
        <ele>556.59997558594</ele>
        <time>2025-08-10T10:40:16.000Z</time>
      </trkpt>
      <trkpt lat="43.07539" lon="0.38681">
        <ele>557.20001220703</ele>
        <time>2025-08-10T10:40:17.000Z</time>
      </trkpt>
      <trkpt lat="43.07538" lon="0.38679">
        <ele>557.40002441406</ele>
        <time>2025-08-10T10:40:18.000Z</time>
      </trkpt>
      <trkpt lat="43.07537" lon="0.38674">
        <ele>557.79998779297</ele>
        <time>2025-08-10T10:40:21.000Z</time>
      </trkpt>
      <trkpt lat="43.07539" lon="0.38674">
        <ele>558</ele>
        <time>2025-08-10T10:40:22.000Z</time>
      </trkpt>
      <trkpt lat="43.07541" lon="0.38673">
        <ele>558.20001220703</ele>
        <time>2025-08-10T10:40:24.000Z</time>
      </trkpt>
      <trkpt lat="43.07541" lon="0.38669">
        <ele>558.40002441406</ele>
        <time>2025-08-10T10:40:26.000Z</time>
      </trkpt>
      <trkpt lat="43.0754" lon="0.38666">
        <ele>559</ele>
        <time>2025-08-10T10:40:28.000Z</time>
      </trkpt>
      <trkpt lat="43.07542" lon="0.38666">
        <ele>559.20001220703</ele>
        <time>2025-08-10T10:40:30.000Z</time>
      </trkpt>
      <trkpt lat="43.07544" lon="0.38665">
        <ele>559.20001220703</ele>
        <time>2025-08-10T10:40:31.000Z</time>
      </trkpt>
      <trkpt lat="43.07543" lon="0.38661">
        <ele>559.59997558594</ele>
        <time>2025-08-10T10:40:33.000Z</time>
      </trkpt>
      <trkpt lat="43.07542" lon="0.38658">
        <ele>560</ele>
        <time>2025-08-10T10:40:35.000Z</time>
      </trkpt>
      <trkpt lat="43.07545" lon="0.38656">
        <ele>560.40002441406</ele>
        <time>2025-08-10T10:40:37.000Z</time>
      </trkpt>
      <trkpt lat="43.07547" lon="0.38655">
        <ele>560.59997558594</ele>
        <time>2025-08-10T10:40:38.000Z</time>
      </trkpt>
      <trkpt lat="43.07546" lon="0.38652">
        <ele>561</ele>
        <time>2025-08-10T10:40:40.000Z</time>
      </trkpt>
      <trkpt lat="43.07545" lon="0.3865">
        <ele>561.20001220703</ele>
        <time>2025-08-10T10:40:41.000Z</time>
      </trkpt>
      <trkpt lat="43.07548" lon="0.38647">
        <ele>561.40002441406</ele>
        <time>2025-08-10T10:40:44.000Z</time>
      </trkpt>
      <trkpt lat="43.0755" lon="0.38646">
        <ele>561.40002441406</ele>
        <time>2025-08-10T10:40:45.000Z</time>
      </trkpt>
      <trkpt lat="43.0755" lon="0.38642">
        <ele>561.59997558594</ele>
        <time>2025-08-10T10:40:47.000Z</time>
      </trkpt>
      <trkpt lat="43.07549" lon="0.38638">
        <ele>561.79998779297</ele>
        <time>2025-08-10T10:40:49.000Z</time>
      </trkpt>
      <trkpt lat="43.07552" lon="0.38637">
        <ele>562.20001220703</ele>
        <time>2025-08-10T10:40:51.000Z</time>
      </trkpt>
      <trkpt lat="43.07553" lon="0.38634">
        <ele>562.59997558594</ele>
        <time>2025-08-10T10:40:53.000Z</time>
      </trkpt>
      <trkpt lat="43.07553" lon="0.38631">
        <ele>562.79998779297</ele>
        <time>2025-08-10T10:40:55.000Z</time>
      </trkpt>
      <trkpt lat="43.07553" lon="0.38628">
        <ele>563</ele>
        <time>2025-08-10T10:40:57.000Z</time>
      </trkpt>
      <trkpt lat="43.07556" lon="0.38627">
        <ele>563.20001220703</ele>
        <time>2025-08-10T10:40:59.000Z</time>
      </trkpt>
      <trkpt lat="43.07557" lon="0.38626">
        <ele>563.40002441406</ele>
        <time>2025-08-10T10:41:00.000Z</time>
      </trkpt>
      <trkpt lat="43.07557" lon="0.38624">
        <ele>563.59997558594</ele>
        <time>2025-08-10T10:41:01.000Z</time>
      </trkpt>
      <trkpt lat="43.07556" lon="0.38621">
        <ele>564</ele>
        <time>2025-08-10T10:41:03.000Z</time>
      </trkpt>
      <trkpt lat="43.0756" lon="0.38616">
        <ele>564.40002441406</ele>
        <time>2025-08-10T10:41:07.000Z</time>
      </trkpt>
      <trkpt lat="43.07559" lon="0.38612">
        <ele>564.79998779297</ele>
        <time>2025-08-10T10:41:09.000Z</time>
      </trkpt>
      <trkpt lat="43.07559" lon="0.38611">
        <ele>565</ele>
        <time>2025-08-10T10:41:10.000Z</time>
      </trkpt>
      <trkpt lat="43.07559" lon="0.38609">
        <ele>565</ele>
        <time>2025-08-10T10:41:11.000Z</time>
      </trkpt>
      <trkpt lat="43.07563" lon="0.38604">
        <ele>565.40002441406</ele>
        <time>2025-08-10T10:41:14.000Z</time>
      </trkpt>
      <trkpt lat="43.07563" lon="0.38603">
        <ele>565.59997558594</ele>
        <time>2025-08-10T10:41:15.000Z</time>
      </trkpt>
      <trkpt lat="43.07562" lon="0.38599">
        <ele>566</ele>
        <time>2025-08-10T10:41:17.000Z</time>
      </trkpt>
      <trkpt lat="43.07562" lon="0.38597">
        <ele>566</ele>
        <time>2025-08-10T10:41:18.000Z</time>
      </trkpt>
      <trkpt lat="43.07563" lon="0.38594">
        <ele>566.20001220703</ele>
        <time>2025-08-10T10:41:20.000Z</time>
      </trkpt>
      <trkpt lat="43.07565" lon="0.38593">
        <ele>566.20001220703</ele>
        <time>2025-08-10T10:41:21.000Z</time>
      </trkpt>
      <trkpt lat="43.07566" lon="0.38584">
        <ele>566.79998779297</ele>
        <time>2025-08-10T10:41:25.000Z</time>
      </trkpt>
      <trkpt lat="43.07565" lon="0.38582">
        <ele>567.20001220703</ele>
        <time>2025-08-10T10:41:26.000Z</time>
      </trkpt>
      <trkpt lat="43.07565" lon="0.38578">
        <ele>567.40002441406</ele>
        <time>2025-08-10T10:41:28.000Z</time>
      </trkpt>
      <trkpt lat="43.07568" lon="0.38575">
        <ele>567.59997558594</ele>
        <time>2025-08-10T10:41:30.000Z</time>
      </trkpt>
      <trkpt lat="43.07569" lon="0.38574">
        <ele>567.79998779297</ele>
        <time>2025-08-10T10:41:31.000Z</time>
      </trkpt>
      <trkpt lat="43.07569" lon="0.38571">
        <ele>568.20001220703</ele>
        <time>2025-08-10T10:41:33.000Z</time>
      </trkpt>
      <trkpt lat="43.07568" lon="0.38569">
        <ele>568.20001220703</ele>
        <time>2025-08-10T10:41:34.000Z</time>
      </trkpt>
      <trkpt lat="43.07567" lon="0.38565">
        <ele>568.59997558594</ele>
        <time>2025-08-10T10:41:36.000Z</time>
      </trkpt>
      <trkpt lat="43.0757" lon="0.38561">
        <ele>569</ele>
        <time>2025-08-10T10:41:38.000Z</time>
      </trkpt>
      <trkpt lat="43.07571" lon="0.38559">
        <ele>569</ele>
        <time>2025-08-10T10:41:39.000Z</time>
      </trkpt>
      <trkpt lat="43.0757" lon="0.38556">
        <ele>569.20001220703</ele>
        <time>2025-08-10T10:41:41.000Z</time>
      </trkpt>
      <trkpt lat="43.07569" lon="0.38554">
        <ele>569.40002441406</ele>
        <time>2025-08-10T10:41:42.000Z</time>
      </trkpt>
      <trkpt lat="43.07569" lon="0.38551">
        <ele>569.40002441406</ele>
        <time>2025-08-10T10:41:44.000Z</time>
      </trkpt>
      <trkpt lat="43.07571" lon="0.38548">
        <ele>569.59997558594</ele>
        <time>2025-08-10T10:41:46.000Z</time>
      </trkpt>
      <trkpt lat="43.07572" lon="0.38546">
        <ele>569.59997558594</ele>
        <time>2025-08-10T10:41:47.000Z</time>
      </trkpt>
      <trkpt lat="43.07569" lon="0.38541">
        <ele>570</ele>
        <time>2025-08-10T10:41:50.000Z</time>
      </trkpt>
      <trkpt lat="43.07569" lon="0.38536">
        <ele>570.40002441406</ele>
        <time>2025-08-10T10:41:52.000Z</time>
      </trkpt>
      <trkpt lat="43.07572" lon="0.38533">
        <ele>570.79998779297</ele>
        <time>2025-08-10T10:41:54.000Z</time>
      </trkpt>
      <trkpt lat="43.07569" lon="0.38525">
        <ele>571.20001220703</ele>
        <time>2025-08-10T10:41:58.000Z</time>
      </trkpt>
      <trkpt lat="43.07569" lon="0.38523">
        <ele>571.20001220703</ele>
        <time>2025-08-10T10:41:59.000Z</time>
      </trkpt>
      <trkpt lat="43.07572" lon="0.38517">
        <ele>571.40002441406</ele>
        <time>2025-08-10T10:42:02.000Z</time>
      </trkpt>
      <trkpt lat="43.07572" lon="0.38515">
        <ele>571.40002441406</ele>
        <time>2025-08-10T10:42:03.000Z</time>
      </trkpt>
      <trkpt lat="43.0757" lon="0.38505">
        <ele>571.59997558594</ele>
        <time>2025-08-10T10:42:07.000Z</time>
      </trkpt>
      <trkpt lat="43.07577" lon="0.38488">
        <ele>572</ele>
        <time>2025-08-10T10:42:15.000Z</time>
      </trkpt>
      <trkpt lat="43.07587" lon="0.38492">
        <ele>572.40002441406</ele>
        <time>2025-08-10T10:42:20.000Z</time>
      </trkpt>
      <trkpt lat="43.07591" lon="0.38495">
        <ele>572.40002441406</ele>
        <time>2025-08-10T10:42:22.000Z</time>
      </trkpt>
      <trkpt lat="43.07597" lon="0.38502">
        <ele>572.79998779297</ele>
        <time>2025-08-10T10:42:26.000Z</time>
      </trkpt>
      <trkpt lat="43.07611" lon="0.38511">
        <ele>573.20001220703</ele>
        <time>2025-08-10T10:42:34.000Z</time>
      </trkpt>
      <trkpt lat="43.07627" lon="0.38523">
        <ele>573.40002441406</ele>
        <time>2025-08-10T10:42:43.000Z</time>
      </trkpt>
      <trkpt lat="43.07629" lon="0.38525">
        <ele>573.40002441406</ele>
        <time>2025-08-10T10:42:44.000Z</time>
      </trkpt>
      <trkpt lat="43.07632" lon="0.38528">
        <ele>573.79998779297</ele>
        <time>2025-08-10T10:42:46.000Z</time>
      </trkpt>
      <trkpt lat="43.07638" lon="0.38531">
        <ele>574</ele>
        <time>2025-08-10T10:42:49.000Z</time>
      </trkpt>
      <trkpt lat="43.07646" lon="0.38537">
        <ele>574.59997558594</ele>
        <time>2025-08-10T10:42:53.000Z</time>
      </trkpt>
      <trkpt lat="43.07652" lon="0.38542">
        <ele>575</ele>
        <time>2025-08-10T10:42:56.000Z</time>
      </trkpt>
      <trkpt lat="43.07664" lon="0.38552">
        <ele>575.59997558594</ele>
        <time>2025-08-10T10:43:02.000Z</time>
      </trkpt>
      <trkpt lat="43.07668" lon="0.38556">
        <ele>575.79998779297</ele>
        <time>2025-08-10T10:43:04.000Z</time>
      </trkpt>
      <trkpt lat="43.07683" lon="0.38568">
        <ele>576.20001220703</ele>
        <time>2025-08-10T10:43:11.000Z</time>
      </trkpt>
      <trkpt lat="43.07699" lon="0.3858">
        <ele>576.59997558594</ele>
        <time>2025-08-10T10:43:18.000Z</time>
      </trkpt>
      <trkpt lat="43.07711" lon="0.38586">
        <ele>576.59997558594</ele>
        <time>2025-08-10T10:43:24.000Z</time>
      </trkpt>
      <trkpt lat="43.07716" lon="0.38587">
        <ele>576.59997558594</ele>
        <time>2025-08-10T10:43:26.000Z</time>
      </trkpt>
      <trkpt lat="43.07725" lon="0.38587">
        <ele>576.79998779297</ele>
        <time>2025-08-10T10:43:30.000Z</time>
      </trkpt>
      <trkpt lat="43.07741" lon="0.38585">
        <ele>577.40002441406</ele>
        <time>2025-08-10T10:43:37.000Z</time>
      </trkpt>
      <trkpt lat="43.07749" lon="0.38579">
        <ele>577.79998779297</ele>
        <time>2025-08-10T10:43:40.000Z</time>
      </trkpt>
      <trkpt lat="43.07764" lon="0.38566">
        <ele>578.40002441406</ele>
        <time>2025-08-10T10:43:47.000Z</time>
      </trkpt>
      <trkpt lat="43.0777" lon="0.38561">
        <ele>578.79998779297</ele>
        <time>2025-08-10T10:43:50.000Z</time>
      </trkpt>
      <trkpt lat="43.07782" lon="0.38552">
        <ele>579.59997558594</ele>
        <time>2025-08-10T10:43:56.000Z</time>
      </trkpt>
      <trkpt lat="43.07789" lon="0.38547">
        <ele>580.59997558594</ele>
        <time>2025-08-10T10:43:59.000Z</time>
      </trkpt>
      <trkpt lat="43.078" lon="0.38539">
        <ele>580.20001220703</ele>
        <time>2025-08-10T10:44:04.000Z</time>
      </trkpt>
      <trkpt lat="43.07815" lon="0.38536">
        <ele>580.20001220703</ele>
        <time>2025-08-10T10:44:10.000Z</time>
      </trkpt>
      <trkpt lat="43.07826" lon="0.38527">
        <ele>580.20001220703</ele>
        <time>2025-08-10T10:44:15.000Z</time>
      </trkpt>
      <trkpt lat="43.07828" lon="0.38499">
        <ele>580</ele>
        <time>2025-08-10T10:44:22.000Z</time>
      </trkpt>
      <trkpt lat="43.07829" lon="0.38456">
        <ele>579.20001220703</ele>
        <time>2025-08-10T10:44:31.000Z</time>
      </trkpt>
      <trkpt lat="43.0783" lon="0.38419">
        <ele>579</ele>
        <time>2025-08-10T10:44:38.000Z</time>
      </trkpt>
      <trkpt lat="43.07828" lon="0.38369">
        <ele>579</ele>
        <time>2025-08-10T10:44:48.000Z</time>
      </trkpt>
      <trkpt lat="43.07829" lon="0.38336">
        <ele>579</ele>
        <time>2025-08-10T10:44:55.000Z</time>
      </trkpt>
      <trkpt lat="43.07839" lon="0.38279">
        <ele>579.20001220703</ele>
        <time>2025-08-10T10:45:07.000Z</time>
      </trkpt>
      <trkpt lat="43.07846" lon="0.38244">
        <ele>579.40002441406</ele>
        <time>2025-08-10T10:45:15.000Z</time>
      </trkpt>
      <trkpt lat="43.07852" lon="0.38213">
        <ele>579.40002441406</ele>
        <time>2025-08-10T10:45:22.000Z</time>
      </trkpt>
      <trkpt lat="43.0786" lon="0.38179">
        <ele>579.40002441406</ele>
        <time>2025-08-10T10:45:29.000Z</time>
      </trkpt>
      <trkpt lat="43.07869" lon="0.38136">
        <ele>579.20001220703</ele>
        <time>2025-08-10T10:45:38.000Z</time>
      </trkpt>
      <trkpt lat="43.07878" lon="0.38103">
        <ele>579</ele>
        <time>2025-08-10T10:45:46.000Z</time>
      </trkpt>
      <trkpt lat="43.07888" lon="0.38079">
        <ele>579.20001220703</ele>
        <time>2025-08-10T10:45:53.000Z</time>
      </trkpt>
      <trkpt lat="43.07891" lon="0.38077">
        <ele>579.20001220703</ele>
        <time>2025-08-10T10:45:55.000Z</time>
      </trkpt>
      <trkpt lat="43.07892" lon="0.38073">
        <ele>579.40002441406</ele>
        <time>2025-08-10T10:45:57.000Z</time>
      </trkpt>
      <trkpt lat="43.07892" lon="0.38071">
        <ele>579.40002441406</ele>
        <time>2025-08-10T10:46:00.000Z</time>
      </trkpt>
      <trkpt lat="43.07897" lon="0.38069">
        <ele>579.20001220703</ele>
        <time>2025-08-10T10:46:13.000Z</time>
      </trkpt>
      <trkpt lat="43.07907" lon="0.3808">
        <ele>579.40002441406</ele>
        <time>2025-08-10T10:46:18.000Z</time>
      </trkpt>
      <trkpt lat="43.07913" lon="0.38078">
        <ele>579.40002441406</ele>
        <time>2025-08-10T10:46:20.000Z</time>
      </trkpt>
      <trkpt lat="43.07914" lon="0.38074">
        <ele>579.40002441406</ele>
        <time>2025-08-10T10:46:21.000Z</time>
      </trkpt>
      <trkpt lat="43.07916" lon="0.3807">
        <ele>579.59997558594</ele>
        <time>2025-08-10T10:46:22.000Z</time>
      </trkpt>
      <trkpt lat="43.07919" lon="0.38058">
        <ele>579.59997558594</ele>
        <time>2025-08-10T10:46:25.000Z</time>
      </trkpt>
      <trkpt lat="43.07919" lon="0.38048">
        <ele>579.59997558594</ele>
        <time>2025-08-10T10:46:27.000Z</time>
      </trkpt>
      <trkpt lat="43.07927" lon="0.38022">
        <ele>579.59997558594</ele>
        <time>2025-08-10T10:46:33.000Z</time>
      </trkpt>
      <trkpt lat="43.07945" lon="0.37987">
        <ele>580</ele>
        <time>2025-08-10T10:46:41.000Z</time>
      </trkpt>
      <trkpt lat="43.07966" lon="0.37956">
        <ele>580</ele>
        <time>2025-08-10T10:46:49.000Z</time>
      </trkpt>
      <trkpt lat="43.0798" lon="0.37933">
        <ele>580.20001220703</ele>
        <time>2025-08-10T10:46:56.000Z</time>
      </trkpt>
      <trkpt lat="43.07993" lon="0.37915">
        <ele>580.40002441406</ele>
        <time>2025-08-10T10:47:02.000Z</time>
      </trkpt>
      <trkpt lat="43.08012" lon="0.37884">
        <ele>580.59997558594</ele>
        <time>2025-08-10T10:47:11.000Z</time>
      </trkpt>
      <trkpt lat="43.08034" lon="0.37848">
        <ele>580.79998779297</ele>
        <time>2025-08-10T10:47:20.000Z</time>
      </trkpt>
      <trkpt lat="43.08057" lon="0.37807">
        <ele>580.79998779297</ele>
        <time>2025-08-10T10:47:30.000Z</time>
      </trkpt>
      <trkpt lat="43.08082" lon="0.37767">
        <ele>580.59997558594</ele>
        <time>2025-08-10T10:47:41.000Z</time>
      </trkpt>
      <trkpt lat="43.08093" lon="0.37747">
        <ele>581</ele>
        <time>2025-08-10T10:47:47.000Z</time>
      </trkpt>
      <trkpt lat="43.08095" lon="0.37744">
        <ele>581</ele>
        <time>2025-08-10T10:47:48.000Z</time>
      </trkpt>
      <trkpt lat="43.08096" lon="0.37741">
        <ele>581.40002441406</ele>
        <time>2025-08-10T10:47:49.000Z</time>
      </trkpt>
      <trkpt lat="43.08101" lon="0.37733">
        <ele>581.79998779297</ele>
        <time>2025-08-10T10:47:52.000Z</time>
      </trkpt>
      <trkpt lat="43.08105" lon="0.37729">
        <ele>582</ele>
        <time>2025-08-10T10:47:54.000Z</time>
      </trkpt>
      <trkpt lat="43.08109" lon="0.37725">
        <ele>582.20001220703</ele>
        <time>2025-08-10T10:47:56.000Z</time>
      </trkpt>
      <trkpt lat="43.08115" lon="0.37715">
        <ele>583</ele>
        <time>2025-08-10T10:48:00.000Z</time>
      </trkpt>
      <trkpt lat="43.08116" lon="0.37712">
        <ele>583.20001220703</ele>
        <time>2025-08-10T10:48:01.000Z</time>
      </trkpt>
      <trkpt lat="43.08126" lon="0.377">
        <ele>583.59997558594</ele>
        <time>2025-08-10T10:48:06.000Z</time>
      </trkpt>
      <trkpt lat="43.08128" lon="0.37698">
        <ele>583.59997558594</ele>
        <time>2025-08-10T10:48:07.000Z</time>
      </trkpt>
      <trkpt lat="43.08131" lon="0.37689">
        <ele>584.20001220703</ele>
        <time>2025-08-10T10:48:10.000Z</time>
      </trkpt>
      <trkpt lat="43.08139" lon="0.37681">
        <ele>584.59997558594</ele>
        <time>2025-08-10T10:48:14.000Z</time>
      </trkpt>
      <trkpt lat="43.08141" lon="0.37675">
        <ele>584.79998779297</ele>
        <time>2025-08-10T10:48:16.000Z</time>
      </trkpt>
      <trkpt lat="43.08146" lon="0.37668">
        <ele>585.40002441406</ele>
        <time>2025-08-10T10:48:19.000Z</time>
      </trkpt>
      <trkpt lat="43.0815" lon="0.37663">
        <ele>585.59997558594</ele>
        <time>2025-08-10T10:48:21.000Z</time>
      </trkpt>
      <trkpt lat="43.08155" lon="0.37652">
        <ele>586.20001220703</ele>
        <time>2025-08-10T10:48:25.000Z</time>
      </trkpt>
      <trkpt lat="43.08159" lon="0.37648">
        <ele>586.40002441406</ele>
        <time>2025-08-10T10:48:27.000Z</time>
      </trkpt>
      <trkpt lat="43.08165" lon="0.37639">
        <ele>586.79998779297</ele>
        <time>2025-08-10T10:48:31.000Z</time>
      </trkpt>
      <trkpt lat="43.08168" lon="0.37631">
        <ele>587.20001220703</ele>
        <time>2025-08-10T10:48:34.000Z</time>
      </trkpt>
      <trkpt lat="43.08172" lon="0.37628">
        <ele>587.40002441406</ele>
        <time>2025-08-10T10:48:36.000Z</time>
      </trkpt>
      <trkpt lat="43.08174" lon="0.37625">
        <ele>587.59997558594</ele>
        <time>2025-08-10T10:48:37.000Z</time>
      </trkpt>
      <trkpt lat="43.08181" lon="0.37614">
        <ele>588.20001220703</ele>
        <time>2025-08-10T10:48:42.000Z</time>
      </trkpt>
      <trkpt lat="43.08186" lon="0.37606">
        <ele>588.59997558594</ele>
        <time>2025-08-10T10:48:45.000Z</time>
      </trkpt>
      <trkpt lat="43.08197" lon="0.37589">
        <ele>589.59997558594</ele>
        <time>2025-08-10T10:48:52.000Z</time>
      </trkpt>
      <trkpt lat="43.08201" lon="0.37581">
        <ele>590</ele>
        <time>2025-08-10T10:48:55.000Z</time>
      </trkpt>
      <trkpt lat="43.08207" lon="0.37571">
        <ele>590.59997558594</ele>
        <time>2025-08-10T10:48:59.000Z</time>
      </trkpt>
      <trkpt lat="43.08216" lon="0.37553">
        <ele>591.59997558594</ele>
        <time>2025-08-10T10:49:06.000Z</time>
      </trkpt>
      <trkpt lat="43.08224" lon="0.37534">
        <ele>592.59997558594</ele>
        <time>2025-08-10T10:49:13.000Z</time>
      </trkpt>
      <trkpt lat="43.08225" lon="0.37531">
        <ele>592.79998779297</ele>
        <time>2025-08-10T10:49:14.000Z</time>
      </trkpt>
      <trkpt lat="43.0823" lon="0.37514">
        <ele>593.59997558594</ele>
        <time>2025-08-10T10:49:20.000Z</time>
      </trkpt>
      <trkpt lat="43.08231" lon="0.37511">
        <ele>593.79998779297</ele>
        <time>2025-08-10T10:49:21.000Z</time>
      </trkpt>
      <trkpt lat="43.08235" lon="0.37496">
        <ele>594</ele>
        <time>2025-08-10T10:49:26.000Z</time>
      </trkpt>
      <trkpt lat="43.0824" lon="0.37468">
        <ele>594.79998779297</ele>
        <time>2025-08-10T10:49:35.000Z</time>
      </trkpt>
      <trkpt lat="43.08241" lon="0.37462">
        <ele>594.79998779297</ele>
        <time>2025-08-10T10:49:37.000Z</time>
      </trkpt>
      <trkpt lat="43.08242" lon="0.37454">
        <ele>595.20001220703</ele>
        <time>2025-08-10T10:49:40.000Z</time>
      </trkpt>
      <trkpt lat="43.08245" lon="0.37448">
        <ele>595.59997558594</ele>
        <time>2025-08-10T10:49:42.000Z</time>
      </trkpt>
      <trkpt lat="43.08247" lon="0.37434">
        <ele>596</ele>
        <time>2025-08-10T10:49:47.000Z</time>
      </trkpt>
      <trkpt lat="43.08248" lon="0.37429">
        <ele>596</ele>
        <time>2025-08-10T10:49:49.000Z</time>
      </trkpt>
      <trkpt lat="43.08247" lon="0.37428">
        <ele>596</ele>
        <time>2025-08-10T10:49:50.000Z</time>
      </trkpt>
      <trkpt lat="43.08245" lon="0.3743">
        <ele>596.59997558594</ele>
        <time>2025-08-10T10:49:53.000Z</time>
      </trkpt>
      <trkpt lat="43.08248" lon="0.37432">
        <ele>596.79998779297</ele>
        <time>2025-08-10T10:49:56.000Z</time>
      </trkpt>
      <trkpt lat="43.08249" lon="0.3743">
        <ele>596.79998779297</ele>
        <time>2025-08-10T10:49:57.000Z</time>
      </trkpt>
      <trkpt lat="43.0825" lon="0.37422">
        <ele>597</ele>
        <time>2025-08-10T10:50:00.000Z</time>
      </trkpt>
      <trkpt lat="43.08251" lon="0.37416">
        <ele>597</ele>
        <time>2025-08-10T10:50:02.000Z</time>
      </trkpt>
      <trkpt lat="43.08254" lon="0.37389">
        <ele>597.40002441406</ele>
        <time>2025-08-10T10:50:10.000Z</time>
      </trkpt>
      <trkpt lat="43.08257" lon="0.37362">
        <ele>597.79998779297</ele>
        <time>2025-08-10T10:50:18.000Z</time>
      </trkpt>
      <trkpt lat="43.08255" lon="0.37346">
        <ele>598</ele>
        <time>2025-08-10T10:50:23.000Z</time>
      </trkpt>
      <trkpt lat="43.08255" lon="0.37343">
        <ele>598</ele>
        <time>2025-08-10T10:50:24.000Z</time>
      </trkpt>
      <trkpt lat="43.08256" lon="0.3732">
        <ele>599</ele>
        <time>2025-08-10T10:50:31.000Z</time>
      </trkpt>
      <trkpt lat="43.08257" lon="0.37307">
        <ele>599.59997558594</ele>
        <time>2025-08-10T10:50:35.000Z</time>
      </trkpt>
      <trkpt lat="43.08257" lon="0.37298">
        <ele>600</ele>
        <time>2025-08-10T10:50:39.000Z</time>
      </trkpt>
      <trkpt lat="43.08257" lon="0.37297">
        <ele>600.20001220703</ele>
        <time>2025-08-10T10:50:40.000Z</time>
      </trkpt>
      <trkpt lat="43.08257" lon="0.37297">
        <ele>600.20001220703</ele>
        <time>2025-08-10T10:50:41.000Z</time>
      </trkpt>
      <trkpt lat="43.08264" lon="0.3729">
        <ele>599.79998779297</ele>
        <time>2025-08-10T10:57:41.000Z</time>
      </trkpt>
      <trkpt lat="43.08267" lon="0.37287">
        <ele>600</ele>
        <time>2025-08-10T10:57:43.000Z</time>
      </trkpt>
      <trkpt lat="43.08274" lon="0.37277">
        <ele>600.59997558594</ele>
        <time>2025-08-10T10:57:47.000Z</time>
      </trkpt>
      <trkpt lat="43.0828" lon="0.37271">
        <ele>600.79998779297</ele>
        <time>2025-08-10T10:57:50.000Z</time>
      </trkpt>
      <trkpt lat="43.08294" lon="0.37268">
        <ele>601.40002441406</ele>
        <time>2025-08-10T10:57:56.000Z</time>
      </trkpt>
      <trkpt lat="43.083" lon="0.37267">
        <ele>601.79998779297</ele>
        <time>2025-08-10T10:57:58.000Z</time>
      </trkpt>
      <trkpt lat="43.08312" lon="0.37263">
        <ele>602.40002441406</ele>
        <time>2025-08-10T10:58:02.000Z</time>
      </trkpt>
      <trkpt lat="43.08321" lon="0.37248">
        <ele>602.79998779297</ele>
        <time>2025-08-10T10:58:06.000Z</time>
      </trkpt>
      <trkpt lat="43.0832" lon="0.37226">
        <ele>602.79998779297</ele>
        <time>2025-08-10T10:58:11.000Z</time>
      </trkpt>
      <trkpt lat="43.0831" lon="0.37212">
        <ele>602.79998779297</ele>
        <time>2025-08-10T10:58:16.000Z</time>
      </trkpt>
      <trkpt lat="43.08295" lon="0.37189">
        <ele>603.40002441406</ele>
        <time>2025-08-10T10:58:24.000Z</time>
      </trkpt>
      <trkpt lat="43.08287" lon="0.37168">
        <ele>603.79998779297</ele>
        <time>2025-08-10T10:58:31.000Z</time>
      </trkpt>
      <trkpt lat="43.08287" lon="0.37165">
        <ele>603.79998779297</ele>
        <time>2025-08-10T10:58:32.000Z</time>
      </trkpt>
      <trkpt lat="43.08281" lon="0.37142">
        <ele>604.20001220703</ele>
        <time>2025-08-10T10:58:39.000Z</time>
      </trkpt>
      <trkpt lat="43.08276" lon="0.3712">
        <ele>604.79998779297</ele>
        <time>2025-08-10T10:58:46.000Z</time>
      </trkpt>
      <trkpt lat="43.08275" lon="0.37117">
        <ele>605</ele>
        <time>2025-08-10T10:58:47.000Z</time>
      </trkpt>
      <trkpt lat="43.08271" lon="0.37098">
        <ele>605.79998779297</ele>
        <time>2025-08-10T10:58:53.000Z</time>
      </trkpt>
      <trkpt lat="43.08268" lon="0.37083">
        <ele>606.59997558594</ele>
        <time>2025-08-10T10:58:58.000Z</time>
      </trkpt>
      <trkpt lat="43.08267" lon="0.37077">
        <ele>607.20001220703</ele>
        <time>2025-08-10T10:59:00.000Z</time>
      </trkpt>
      <trkpt lat="43.08265" lon="0.37061">
        <ele>608</ele>
        <time>2025-08-10T10:59:05.000Z</time>
      </trkpt>
      <trkpt lat="43.08264" lon="0.37058">
        <ele>608.20001220703</ele>
        <time>2025-08-10T10:59:06.000Z</time>
      </trkpt>
      <trkpt lat="43.08262" lon="0.37038">
        <ele>609</ele>
        <time>2025-08-10T10:59:13.000Z</time>
      </trkpt>
      <trkpt lat="43.08261" lon="0.37035">
        <ele>609.40002441406</ele>
        <time>2025-08-10T10:59:14.000Z</time>
      </trkpt>
      <trkpt lat="43.08259" lon="0.3702">
        <ele>610.40002441406</ele>
        <time>2025-08-10T10:59:19.000Z</time>
      </trkpt>
      <trkpt lat="43.08259" lon="0.37017">
        <ele>610.40002441406</ele>
        <time>2025-08-10T10:59:20.000Z</time>
      </trkpt>
      <trkpt lat="43.08257" lon="0.37005">
        <ele>611.40002441406</ele>
        <time>2025-08-10T10:59:24.000Z</time>
      </trkpt>
      <trkpt lat="43.08255" lon="0.36991">
        <ele>611.79998779297</ele>
        <time>2025-08-10T10:59:29.000Z</time>
      </trkpt>
      <trkpt lat="43.08253" lon="0.36983">
        <ele>612.40002441406</ele>
        <time>2025-08-10T10:59:32.000Z</time>
      </trkpt>
      <trkpt lat="43.08253" lon="0.36976">
        <ele>613</ele>
        <time>2025-08-10T10:59:35.000Z</time>
      </trkpt>
      <trkpt lat="43.08252" lon="0.36969">
        <ele>613.59997558594</ele>
        <time>2025-08-10T10:59:38.000Z</time>
      </trkpt>
      <trkpt lat="43.0825" lon="0.36956">
        <ele>614.20001220703</ele>
        <time>2025-08-10T10:59:43.000Z</time>
      </trkpt>
      <trkpt lat="43.08249" lon="0.3695">
        <ele>614.59997558594</ele>
        <time>2025-08-10T10:59:45.000Z</time>
      </trkpt>
      <trkpt lat="43.08247" lon="0.36934">
        <ele>615.59997558594</ele>
        <time>2025-08-10T10:59:51.000Z</time>
      </trkpt>
      <trkpt lat="43.08246" lon="0.36926">
        <ele>616</ele>
        <time>2025-08-10T10:59:54.000Z</time>
      </trkpt>
      <trkpt lat="43.08242" lon="0.36901">
        <ele>616.79998779297</ele>
        <time>2025-08-10T11:00:04.000Z</time>
      </trkpt>
      <trkpt lat="43.08239" lon="0.36881">
        <ele>617.59997558594</ele>
        <time>2025-08-10T11:00:12.000Z</time>
      </trkpt>
      <trkpt lat="43.08238" lon="0.36878">
        <ele>617.79998779297</ele>
        <time>2025-08-10T11:00:13.000Z</time>
      </trkpt>
      <trkpt lat="43.08233" lon="0.36853">
        <ele>618.59997558594</ele>
        <time>2025-08-10T11:00:21.000Z</time>
      </trkpt>
      <trkpt lat="43.08232" lon="0.36842">
        <ele>618.79998779297</ele>
        <time>2025-08-10T11:00:24.000Z</time>
      </trkpt>
      <trkpt lat="43.08231" lon="0.36828">
        <ele>619.20001220703</ele>
        <time>2025-08-10T11:00:28.000Z</time>
      </trkpt>
      <trkpt lat="43.08229" lon="0.36803">
        <ele>619.79998779297</ele>
        <time>2025-08-10T11:00:36.000Z</time>
      </trkpt>
      <trkpt lat="43.08228" lon="0.368">
        <ele>619.79998779297</ele>
        <time>2025-08-10T11:00:37.000Z</time>
      </trkpt>
      <trkpt lat="43.08226" lon="0.36789">
        <ele>620.20001220703</ele>
        <time>2025-08-10T11:00:41.000Z</time>
      </trkpt>
      <trkpt lat="43.08223" lon="0.36772">
        <ele>620.40002441406</ele>
        <time>2025-08-10T11:00:46.000Z</time>
      </trkpt>
      <trkpt lat="43.08218" lon="0.36751">
        <ele>621</ele>
        <time>2025-08-10T11:00:53.000Z</time>
      </trkpt>
      <trkpt lat="43.0821" lon="0.36727">
        <ele>621.79998779297</ele>
        <time>2025-08-10T11:01:01.000Z</time>
      </trkpt>
      <trkpt lat="43.08206" lon="0.36714">
        <ele>622</ele>
        <time>2025-08-10T11:01:05.000Z</time>
      </trkpt>
      <trkpt lat="43.08201" lon="0.36704">
        <ele>622.40002441406</ele>
        <time>2025-08-10T11:01:09.000Z</time>
      </trkpt>
      <trkpt lat="43.0819" lon="0.36685">
        <ele>623</ele>
        <time>2025-08-10T11:01:17.000Z</time>
      </trkpt>
      <trkpt lat="43.08185" lon="0.36673">
        <ele>623.20001220703</ele>
        <time>2025-08-10T11:01:21.000Z</time>
      </trkpt>
      <trkpt lat="43.08179" lon="0.36663">
        <ele>623.40002441406</ele>
        <time>2025-08-10T11:01:25.000Z</time>
      </trkpt>
      <trkpt lat="43.08172" lon="0.36654">
        <ele>623.59997558594</ele>
        <time>2025-08-10T11:01:29.000Z</time>
      </trkpt>
      <trkpt lat="43.08165" lon="0.36642">
        <ele>624</ele>
        <time>2025-08-10T11:01:34.000Z</time>
      </trkpt>
      <trkpt lat="43.08155" lon="0.36626">
        <ele>624.40002441406</ele>
        <time>2025-08-10T11:01:41.000Z</time>
      </trkpt>
      <trkpt lat="43.08143" lon="0.36607">
        <ele>625</ele>
        <time>2025-08-10T11:01:49.000Z</time>
      </trkpt>
      <trkpt lat="43.08132" lon="0.36589">
        <ele>626</ele>
        <time>2025-08-10T11:01:56.000Z</time>
      </trkpt>
      <trkpt lat="43.08126" lon="0.3658">
        <ele>626.20001220703</ele>
        <time>2025-08-10T11:02:00.000Z</time>
      </trkpt>
      <trkpt lat="43.08111" lon="0.36555">
        <ele>626.79998779297</ele>
        <time>2025-08-10T11:02:10.000Z</time>
      </trkpt>
      <trkpt lat="43.0811" lon="0.36553">
        <ele>626.79998779297</ele>
        <time>2025-08-10T11:02:11.000Z</time>
      </trkpt>
      <trkpt lat="43.08097" lon="0.36534">
        <ele>627.79998779297</ele>
        <time>2025-08-10T11:02:19.000Z</time>
      </trkpt>
      <trkpt lat="43.08096" lon="0.36531">
        <ele>628</ele>
        <time>2025-08-10T11:02:20.000Z</time>
      </trkpt>
      <trkpt lat="43.08084" lon="0.36509">
        <ele>628.79998779297</ele>
        <time>2025-08-10T11:02:29.000Z</time>
      </trkpt>
      <trkpt lat="43.08082" lon="0.36507">
        <ele>629</ele>
        <time>2025-08-10T11:02:30.000Z</time>
      </trkpt>
      <trkpt lat="43.08072" lon="0.36487">
        <ele>629.59997558594</ele>
        <time>2025-08-10T11:02:38.000Z</time>
      </trkpt>
      <trkpt lat="43.08068" lon="0.36479">
        <ele>630</ele>
        <time>2025-08-10T11:02:42.000Z</time>
      </trkpt>
      <trkpt lat="43.08062" lon="0.36463">
        <ele>630.40002441406</ele>
        <time>2025-08-10T11:02:48.000Z</time>
      </trkpt>
      <trkpt lat="43.08055" lon="0.36442">
        <ele>631.20001220703</ele>
        <time>2025-08-10T11:02:56.000Z</time>
      </trkpt>
      <trkpt lat="43.08054" lon="0.36437">
        <ele>631.20001220703</ele>
        <time>2025-08-10T11:02:58.000Z</time>
      </trkpt>
      <trkpt lat="43.08052" lon="0.36423">
        <ele>632</ele>
        <time>2025-08-10T11:03:03.000Z</time>
      </trkpt>
      <trkpt lat="43.08051" lon="0.3642">
        <ele>632</ele>
        <time>2025-08-10T11:03:04.000Z</time>
      </trkpt>
      <trkpt lat="43.08049" lon="0.36406">
        <ele>632.59997558594</ele>
        <time>2025-08-10T11:03:09.000Z</time>
      </trkpt>
      <trkpt lat="43.08047" lon="0.36395">
        <ele>633</ele>
        <time>2025-08-10T11:03:13.000Z</time>
      </trkpt>
      <trkpt lat="43.08045" lon="0.36383">
        <ele>633.40002441406</ele>
        <time>2025-08-10T11:03:17.000Z</time>
      </trkpt>
      <trkpt lat="43.08043" lon="0.36365">
        <ele>634</ele>
        <time>2025-08-10T11:03:23.000Z</time>
      </trkpt>
      <trkpt lat="43.08043" lon="0.3636">
        <ele>634.79998779297</ele>
        <time>2025-08-10T11:03:25.000Z</time>
      </trkpt>
      <trkpt lat="43.08044" lon="0.36348">
        <ele>635.20001220703</ele>
        <time>2025-08-10T11:03:29.000Z</time>
      </trkpt>
      <trkpt lat="43.08046" lon="0.36336">
        <ele>635.40002441406</ele>
        <time>2025-08-10T11:03:33.000Z</time>
      </trkpt>
      <trkpt lat="43.08056" lon="0.3632">
        <ele>636</ele>
        <time>2025-08-10T11:03:40.000Z</time>
      </trkpt>
      <trkpt lat="43.08058" lon="0.36318">
        <ele>636.20001220703</ele>
        <time>2025-08-10T11:03:41.000Z</time>
      </trkpt>
      <trkpt lat="43.08068" lon="0.36303">
        <ele>636.59997558594</ele>
        <time>2025-08-10T11:03:47.000Z</time>
      </trkpt>
      <trkpt lat="43.08069" lon="0.36279">
        <ele>637.20001220703</ele>
        <time>2025-08-10T11:03:54.000Z</time>
      </trkpt>
      <trkpt lat="43.0806" lon="0.36262">
        <ele>637.79998779297</ele>
        <time>2025-08-10T11:04:00.000Z</time>
      </trkpt>
      <trkpt lat="43.08043" lon="0.36253">
        <ele>637.79998779297</ele>
        <time>2025-08-10T11:04:07.000Z</time>
      </trkpt>
      <trkpt lat="43.0803" lon="0.36233">
        <ele>637.79998779297</ele>
        <time>2025-08-10T11:04:14.000Z</time>
      </trkpt>
      <trkpt lat="43.08021" lon="0.362">
        <ele>638.20001220703</ele>
        <time>2025-08-10T11:04:25.000Z</time>
      </trkpt>
      <trkpt lat="43.0802" lon="0.36169">
        <ele>639</ele>
        <time>2025-08-10T11:04:35.000Z</time>
      </trkpt>
      <trkpt lat="43.0802" lon="0.36163">
        <ele>639.20001220703</ele>
        <time>2025-08-10T11:04:37.000Z</time>
      </trkpt>
      <trkpt lat="43.08022" lon="0.36147">
        <ele>640</ele>
        <time>2025-08-10T11:04:43.000Z</time>
      </trkpt>
      <trkpt lat="43.08021" lon="0.36142">
        <ele>640.20001220703</ele>
        <time>2025-08-10T11:04:45.000Z</time>
      </trkpt>
      <trkpt lat="43.0802" lon="0.3614">
        <ele>640.20001220703</ele>
        <time>2025-08-10T11:04:46.000Z</time>
      </trkpt>
      <trkpt lat="43.08017" lon="0.36137">
        <ele>640.40002441406</ele>
        <time>2025-08-10T11:04:48.000Z</time>
      </trkpt>
      <trkpt lat="43.08016" lon="0.36128">
        <ele>640.59997558594</ele>
        <time>2025-08-10T11:04:51.000Z</time>
      </trkpt>
      <trkpt lat="43.08015" lon="0.36109">
        <ele>641.20001220703</ele>
        <time>2025-08-10T11:04:57.000Z</time>
      </trkpt>
      <trkpt lat="43.08015" lon="0.36101">
        <ele>641.40002441406</ele>
        <time>2025-08-10T11:05:00.000Z</time>
      </trkpt>
      <trkpt lat="43.08017" lon="0.36079">
        <ele>642</ele>
        <time>2025-08-10T11:05:08.000Z</time>
      </trkpt>
      <trkpt lat="43.08019" lon="0.36074">
        <ele>642.20001220703</ele>
        <time>2025-08-10T11:05:10.000Z</time>
      </trkpt>
      <trkpt lat="43.08027" lon="0.36064">
        <ele>642.79998779297</ele>
        <time>2025-08-10T11:05:15.000Z</time>
      </trkpt>
      <trkpt lat="43.08028" lon="0.36063">
        <ele>643.20001220703</ele>
        <time>2025-08-10T11:05:16.000Z</time>
      </trkpt>
      <trkpt lat="43.08037" lon="0.36059">
        <ele>644.40002441406</ele>
        <time>2025-08-10T11:05:21.000Z</time>
      </trkpt>
      <trkpt lat="43.08039" lon="0.36059">
        <ele>644.59997558594</ele>
        <time>2025-08-10T11:05:22.000Z</time>
      </trkpt>
      <trkpt lat="43.08046" lon="0.36059">
        <ele>645.40002441406</ele>
        <time>2025-08-10T11:05:26.000Z</time>
      </trkpt>
      <trkpt lat="43.08053" lon="0.3606">
        <ele>646</ele>
        <time>2025-08-10T11:05:30.000Z</time>
      </trkpt>
      <trkpt lat="43.08056" lon="0.36058">
        <ele>646.20001220703</ele>
        <time>2025-08-10T11:05:33.000Z</time>
      </trkpt>
      <trkpt lat="43.08057" lon="0.36057">
        <ele>646.40002441406</ele>
        <time>2025-08-10T11:05:34.000Z</time>
      </trkpt>
      <trkpt lat="43.0806" lon="0.36057">
        <ele>646.59997558594</ele>
        <time>2025-08-10T11:05:36.000Z</time>
      </trkpt>
      <trkpt lat="43.08065" lon="0.36054">
        <ele>646.79998779297</ele>
        <time>2025-08-10T11:05:38.000Z</time>
      </trkpt>
      <trkpt lat="43.08067" lon="0.36052">
        <ele>646.79998779297</ele>
        <time>2025-08-10T11:05:39.000Z</time>
      </trkpt>
      <trkpt lat="43.08076" lon="0.36027">
        <ele>647.20001220703</ele>
        <time>2025-08-10T11:05:46.000Z</time>
      </trkpt>
      <trkpt lat="43.08082" lon="0.36006">
        <ele>647.40002441406</ele>
        <time>2025-08-10T11:05:53.000Z</time>
      </trkpt>
      <trkpt lat="43.08081" lon="0.36004">
        <ele>647.40002441406</ele>
        <time>2025-08-10T11:05:54.000Z</time>
      </trkpt>
      <trkpt lat="43.08077" lon="0.35999">
        <ele>647.59997558594</ele>
        <time>2025-08-10T11:05:57.000Z</time>
      </trkpt>
      <trkpt lat="43.08064" lon="0.35989">
        <ele>647.79998779297</ele>
        <time>2025-08-10T11:06:02.000Z</time>
      </trkpt>
      <trkpt lat="43.08049" lon="0.3598">
        <ele>648.40002441406</ele>
        <time>2025-08-10T11:06:08.000Z</time>
      </trkpt>
      <trkpt lat="43.08044" lon="0.35978">
        <ele>648.59997558594</ele>
        <time>2025-08-10T11:06:10.000Z</time>
      </trkpt>
      <trkpt lat="43.08025" lon="0.35979">
        <ele>648.79998779297</ele>
        <time>2025-08-10T11:06:16.000Z</time>
      </trkpt>
      <trkpt lat="43.08015" lon="0.35977">
        <ele>648.59997558594</ele>
        <time>2025-08-10T11:06:21.000Z</time>
      </trkpt>
      <trkpt lat="43.08015" lon="0.35977">
        <ele>648.20001220703</ele>
        <time>2025-08-10T11:06:24.000Z</time>
      </trkpt>
      <trkpt lat="43.08013" lon="0.35972">
        <ele>647.79998779297</ele>
        <time>2025-08-10T11:06:28.000Z</time>
      </trkpt>
      <trkpt lat="43.08013" lon="0.35969">
        <ele>647.79998779297</ele>
        <time>2025-08-10T11:06:29.000Z</time>
      </trkpt>
      <trkpt lat="43.08013" lon="0.35948">
        <ele>647.59997558594</ele>
        <time>2025-08-10T11:06:35.000Z</time>
      </trkpt>
      <trkpt lat="43.08013" lon="0.35925">
        <ele>647.59997558594</ele>
        <time>2025-08-10T11:06:41.000Z</time>
      </trkpt>
      <trkpt lat="43.08013" lon="0.35916">
        <ele>647.79998779297</ele>
        <time>2025-08-10T11:06:43.000Z</time>
      </trkpt>
      <trkpt lat="43.08014" lon="0.35874">
        <ele>649</ele>
        <time>2025-08-10T11:06:53.000Z</time>
      </trkpt>
      <trkpt lat="43.08016" lon="0.35851">
        <ele>649.59997558594</ele>
        <time>2025-08-10T11:06:59.000Z</time>
      </trkpt>
      <trkpt lat="43.08017" lon="0.35838">
        <ele>650</ele>
        <time>2025-08-10T11:07:02.000Z</time>
      </trkpt>
      <trkpt lat="43.08019" lon="0.35815">
        <ele>650.40002441406</ele>
        <time>2025-08-10T11:07:08.000Z</time>
      </trkpt>
      <trkpt lat="43.08022" lon="0.35799">
        <ele>650.79998779297</ele>
        <time>2025-08-10T11:07:12.000Z</time>
      </trkpt>
      <trkpt lat="43.08021" lon="0.35786">
        <ele>650.79998779297</ele>
        <time>2025-08-10T11:07:15.000Z</time>
      </trkpt>
      <trkpt lat="43.08023" lon="0.35744">
        <ele>651.59997558594</ele>
        <time>2025-08-10T11:07:25.000Z</time>
      </trkpt>
      <trkpt lat="43.08023" lon="0.35735">
        <ele>651.79998779297</ele>
        <time>2025-08-10T11:07:27.000Z</time>
      </trkpt>
      <trkpt lat="43.08024" lon="0.35699">
        <ele>652.20001220703</ele>
        <time>2025-08-10T11:07:35.000Z</time>
      </trkpt>
      <trkpt lat="43.08025" lon="0.35676">
        <ele>652.79998779297</ele>
        <time>2025-08-10T11:07:40.000Z</time>
      </trkpt>
      <trkpt lat="43.08025" lon="0.35649">
        <ele>653</ele>
        <time>2025-08-10T11:07:46.000Z</time>
      </trkpt>
      <trkpt lat="43.08025" lon="0.3561">
        <ele>653.79998779297</ele>
        <time>2025-08-10T11:07:54.000Z</time>
      </trkpt>
      <trkpt lat="43.08025" lon="0.35588">
        <ele>654.20001220703</ele>
        <time>2025-08-10T11:07:59.000Z</time>
      </trkpt>
      <trkpt lat="43.08026" lon="0.35539">
        <ele>655</ele>
        <time>2025-08-10T11:08:10.000Z</time>
      </trkpt>
      <trkpt lat="43.08029" lon="0.35493">
        <ele>656</ele>
        <time>2025-08-10T11:08:20.000Z</time>
      </trkpt>
      <trkpt lat="43.08029" lon="0.35488">
        <ele>656</ele>
        <time>2025-08-10T11:08:21.000Z</time>
      </trkpt>
      <trkpt lat="43.08039" lon="0.35429">
        <ele>656.59997558594</ele>
        <time>2025-08-10T11:08:33.000Z</time>
      </trkpt>
      <trkpt lat="43.08044" lon="0.35406">
        <ele>657</ele>
        <time>2025-08-10T11:08:38.000Z</time>
      </trkpt>
      <trkpt lat="43.08047" lon="0.35393">
        <ele>657.20001220703</ele>
        <time>2025-08-10T11:08:41.000Z</time>
      </trkpt>
      <trkpt lat="43.08058" lon="0.35361">
        <ele>657.59997558594</ele>
        <time>2025-08-10T11:08:48.000Z</time>
      </trkpt>
      <trkpt lat="43.08071" lon="0.35327">
        <ele>657.79998779297</ele>
        <time>2025-08-10T11:08:55.000Z</time>
      </trkpt>
      <trkpt lat="43.08086" lon="0.35294">
        <ele>658</ele>
        <time>2025-08-10T11:09:02.000Z</time>
      </trkpt>
      <trkpt lat="43.08093" lon="0.35278">
        <ele>657.79998779297</ele>
        <time>2025-08-10T11:09:05.000Z</time>
      </trkpt>
      <trkpt lat="43.08104" lon="0.35256">
        <ele>657.59997558594</ele>
        <time>2025-08-10T11:09:09.000Z</time>
      </trkpt>
      <trkpt lat="43.08124" lon="0.35209">
        <ele>657.20001220703</ele>
        <time>2025-08-10T11:09:16.000Z</time>
      </trkpt>
      <trkpt lat="43.08149" lon="0.35151">
        <ele>656.79998779297</ele>
        <time>2025-08-10T11:09:24.000Z</time>
      </trkpt>
      <trkpt lat="43.08156" lon="0.35135">
        <ele>656.59997558594</ele>
        <time>2025-08-10T11:09:26.000Z</time>
      </trkpt>
      <trkpt lat="43.08179" lon="0.35087">
        <ele>656.20001220703</ele>
        <time>2025-08-10T11:09:32.000Z</time>
      </trkpt>
      <trkpt lat="43.08198" lon="0.35053">
        <ele>655.40002441406</ele>
        <time>2025-08-10T11:09:36.000Z</time>
      </trkpt>
      <trkpt lat="43.08213" lon="0.35023">
        <ele>655</ele>
        <time>2025-08-10T11:09:40.000Z</time>
      </trkpt>
      <trkpt lat="43.08232" lon="0.34982">
        <ele>654.40002441406</ele>
        <time>2025-08-10T11:09:45.000Z</time>
      </trkpt>
      <trkpt lat="43.08247" lon="0.34948">
        <ele>653.59997558594</ele>
        <time>2025-08-10T11:09:49.000Z</time>
      </trkpt>
      <trkpt lat="43.08251" lon="0.3494">
        <ele>653.20001220703</ele>
        <time>2025-08-10T11:09:50.000Z</time>
      </trkpt>
      <trkpt lat="43.08258" lon="0.34922">
        <ele>653</ele>
        <time>2025-08-10T11:09:52.000Z</time>
      </trkpt>
      <trkpt lat="43.08276" lon="0.34878">
        <ele>652.59997558594</ele>
        <time>2025-08-10T11:09:57.000Z</time>
      </trkpt>
      <trkpt lat="43.08301" lon="0.34821">
        <ele>652.20001220703</ele>
        <time>2025-08-10T11:10:04.000Z</time>
      </trkpt>
      <trkpt lat="43.08309" lon="0.34805">
        <ele>652.40002441406</ele>
        <time>2025-08-10T11:10:06.000Z</time>
      </trkpt>
      <trkpt lat="43.08341" lon="0.34736">
        <ele>652</ele>
        <time>2025-08-10T11:10:15.000Z</time>
      </trkpt>
      <trkpt lat="43.08344" lon="0.34728">
        <ele>652</ele>
        <time>2025-08-10T11:10:16.000Z</time>
      </trkpt>
      <trkpt lat="43.08364" lon="0.34684">
        <ele>652</ele>
        <time>2025-08-10T11:10:22.000Z</time>
      </trkpt>
      <trkpt lat="43.08378" lon="0.34654">
        <ele>652</ele>
        <time>2025-08-10T11:10:26.000Z</time>
      </trkpt>
      <trkpt lat="43.08396" lon="0.34613">
        <ele>651.40002441406</ele>
        <time>2025-08-10T11:10:31.000Z</time>
      </trkpt>
      <trkpt lat="43.08411" lon="0.34579">
        <ele>650.59997558594</ele>
        <time>2025-08-10T11:10:35.000Z</time>
      </trkpt>
      <trkpt lat="43.08419" lon="0.34561">
        <ele>650.20001220703</ele>
        <time>2025-08-10T11:10:37.000Z</time>
      </trkpt>
      <trkpt lat="43.0845" lon="0.34492">
        <ele>649.59997558594</ele>
        <time>2025-08-10T11:10:45.000Z</time>
      </trkpt>
      <trkpt lat="43.08458" lon="0.34474">
        <ele>649.40002441406</ele>
        <time>2025-08-10T11:10:47.000Z</time>
      </trkpt>
      <trkpt lat="43.08461" lon="0.34466">
        <ele>649.20001220703</ele>
        <time>2025-08-10T11:10:48.000Z</time>
      </trkpt>
      <trkpt lat="43.08492" lon="0.34399">
        <ele>648.59997558594</ele>
        <time>2025-08-10T11:10:56.000Z</time>
      </trkpt>
      <trkpt lat="43.08511" lon="0.34358">
        <ele>648.20001220703</ele>
        <time>2025-08-10T11:11:01.000Z</time>
      </trkpt>
      <trkpt lat="43.08525" lon="0.34325">
        <ele>648</ele>
        <time>2025-08-10T11:11:05.000Z</time>
      </trkpt>
      <trkpt lat="43.08554" lon="0.34261">
        <ele>647.59997558594</ele>
        <time>2025-08-10T11:11:13.000Z</time>
      </trkpt>
      <trkpt lat="43.08561" lon="0.34244">
        <ele>647.40002441406</ele>
        <time>2025-08-10T11:11:15.000Z</time>
      </trkpt>
      <trkpt lat="43.08576" lon="0.34211">
        <ele>647</ele>
        <time>2025-08-10T11:11:19.000Z</time>
      </trkpt>
      <trkpt lat="43.08598" lon="0.3416">
        <ele>646</ele>
        <time>2025-08-10T11:11:25.000Z</time>
      </trkpt>
      <trkpt lat="43.08602" lon="0.34152">
        <ele>645.79998779297</ele>
        <time>2025-08-10T11:11:26.000Z</time>
      </trkpt>
      <trkpt lat="43.08632" lon="0.34084">
        <ele>645</ele>
        <time>2025-08-10T11:11:34.000Z</time>
      </trkpt>
      <trkpt lat="43.08648" lon="0.3405">
        <ele>644.79998779297</ele>
        <time>2025-08-10T11:11:38.000Z</time>
      </trkpt>
      <trkpt lat="43.08678" lon="0.33983">
        <ele>644.20001220703</ele>
        <time>2025-08-10T11:11:46.000Z</time>
      </trkpt>
      <trkpt lat="43.08686" lon="0.33966">
        <ele>643.79998779297</ele>
        <time>2025-08-10T11:11:48.000Z</time>
      </trkpt>
      <trkpt lat="43.08689" lon="0.33958">
        <ele>643.59997558594</ele>
        <time>2025-08-10T11:11:49.000Z</time>
      </trkpt>
      <trkpt lat="43.08721" lon="0.33896">
        <ele>643</ele>
        <time>2025-08-10T11:11:57.000Z</time>
      </trkpt>
      <trkpt lat="43.08745" lon="0.33849">
        <ele>642.59997558594</ele>
        <time>2025-08-10T11:12:03.000Z</time>
      </trkpt>
      <trkpt lat="43.08775" lon="0.33799">
        <ele>641.59997558594</ele>
        <time>2025-08-10T11:12:10.000Z</time>
      </trkpt>
      <trkpt lat="43.08777" lon="0.3379">
        <ele>641.40002441406</ele>
        <time>2025-08-10T11:12:11.000Z</time>
      </trkpt>
      <trkpt lat="43.08778" lon="0.33782">
        <ele>641.40002441406</ele>
        <time>2025-08-10T11:12:12.000Z</time>
      </trkpt>
      <trkpt lat="43.08779" lon="0.33773">
        <ele>641.20001220703</ele>
        <time>2025-08-10T11:12:13.000Z</time>
      </trkpt>
      <trkpt lat="43.08777" lon="0.33756">
        <ele>641</ele>
        <time>2025-08-10T11:12:15.000Z</time>
      </trkpt>
      <trkpt lat="43.08766" lon="0.33695">
        <ele>640.79998779297</ele>
        <time>2025-08-10T11:12:23.000Z</time>
      </trkpt>
      <trkpt lat="43.08758" lon="0.33653">
        <ele>641.20001220703</ele>
        <time>2025-08-10T11:12:30.000Z</time>
      </trkpt>
      <trkpt lat="43.08754" lon="0.33621">
        <ele>641.40002441406</ele>
        <time>2025-08-10T11:12:35.000Z</time>
      </trkpt>
      <trkpt lat="43.08754" lon="0.33607">
        <ele>641.40002441406</ele>
        <time>2025-08-10T11:12:37.000Z</time>
      </trkpt>
      <trkpt lat="43.08754" lon="0.33576">
        <ele>641.20001220703</ele>
        <time>2025-08-10T11:12:41.000Z</time>
      </trkpt>
      <trkpt lat="43.08755" lon="0.33567">
        <ele>641</ele>
        <time>2025-08-10T11:12:42.000Z</time>
      </trkpt>
      <trkpt lat="43.08755" lon="0.3355">
        <ele>640.59997558594</ele>
        <time>2025-08-10T11:12:44.000Z</time>
      </trkpt>
      <trkpt lat="43.08755" lon="0.33532">
        <ele>640.20001220703</ele>
        <time>2025-08-10T11:12:46.000Z</time>
      </trkpt>
      <trkpt lat="43.08756" lon="0.33524">
        <ele>640</ele>
        <time>2025-08-10T11:12:47.000Z</time>
      </trkpt>
      <trkpt lat="43.08756" lon="0.33515">
        <ele>639.79998779297</ele>
        <time>2025-08-10T11:12:48.000Z</time>
      </trkpt>
      <trkpt lat="43.08756" lon="0.33507">
        <ele>639.40002441406</ele>
        <time>2025-08-10T11:12:49.000Z</time>
      </trkpt>
      <trkpt lat="43.08757" lon="0.33481">
        <ele>639</ele>
        <time>2025-08-10T11:12:52.000Z</time>
      </trkpt>
      <trkpt lat="43.08757" lon="0.33463">
        <ele>638.40002441406</ele>
        <time>2025-08-10T11:12:54.000Z</time>
      </trkpt>
      <trkpt lat="43.08757" lon="0.33415">
        <ele>637.20001220703</ele>
        <time>2025-08-10T11:12:59.000Z</time>
      </trkpt>
      <trkpt lat="43.0876" lon="0.33362">
        <ele>636.59997558594</ele>
        <time>2025-08-10T11:13:04.000Z</time>
      </trkpt>
      <trkpt lat="43.0876" lon="0.33343">
        <ele>636</ele>
        <time>2025-08-10T11:13:06.000Z</time>
      </trkpt>
      <trkpt lat="43.08761" lon="0.33288">
        <ele>634.79998779297</ele>
        <time>2025-08-10T11:13:11.000Z</time>
      </trkpt>
      <trkpt lat="43.08762" lon="0.33276">
        <ele>634.20001220703</ele>
        <time>2025-08-10T11:13:12.000Z</time>
      </trkpt>
      <trkpt lat="43.08763" lon="0.33253">
        <ele>633.79998779297</ele>
        <time>2025-08-10T11:13:14.000Z</time>
      </trkpt>
      <trkpt lat="43.08764" lon="0.33242">
        <ele>633.40002441406</ele>
        <time>2025-08-10T11:13:15.000Z</time>
      </trkpt>
      <trkpt lat="43.08765" lon="0.33196">
        <ele>632.59997558594</ele>
        <time>2025-08-10T11:13:19.000Z</time>
      </trkpt>
      <trkpt lat="43.08766" lon="0.33174">
        <ele>632.20001220703</ele>
        <time>2025-08-10T11:13:21.000Z</time>
      </trkpt>
      <trkpt lat="43.08766" lon="0.33142">
        <ele>631.40002441406</ele>
        <time>2025-08-10T11:13:24.000Z</time>
      </trkpt>
      <trkpt lat="43.08768" lon="0.33103">
        <ele>630.79998779297</ele>
        <time>2025-08-10T11:13:28.000Z</time>
      </trkpt>
      <trkpt lat="43.0877" lon="0.33085">
        <ele>630.40002441406</ele>
        <time>2025-08-10T11:13:30.000Z</time>
      </trkpt>
      <trkpt lat="43.08772" lon="0.3305">
        <ele>630</ele>
        <time>2025-08-10T11:13:34.000Z</time>
      </trkpt>
      <trkpt lat="43.08776" lon="0.33002">
        <ele>630.20001220703</ele>
        <time>2025-08-10T11:13:40.000Z</time>
      </trkpt>
      <trkpt lat="43.08781" lon="0.32931">
        <ele>629.79998779297</ele>
        <time>2025-08-10T11:13:49.000Z</time>
      </trkpt>
      <trkpt lat="43.08784" lon="0.32916">
        <ele>629.59997558594</ele>
        <time>2025-08-10T11:13:51.000Z</time>
      </trkpt>
      <trkpt lat="43.08788" lon="0.32876">
        <ele>628.59997558594</ele>
        <time>2025-08-10T11:13:56.000Z</time>
      </trkpt>
      <trkpt lat="43.08789" lon="0.32867">
        <ele>628.40002441406</ele>
        <time>2025-08-10T11:13:57.000Z</time>
      </trkpt>
      <trkpt lat="43.08793" lon="0.32822">
        <ele>627.20001220703</ele>
        <time>2025-08-10T11:14:02.000Z</time>
      </trkpt>
      <trkpt lat="43.08794" lon="0.32813">
        <ele>627.20001220703</ele>
        <time>2025-08-10T11:14:03.000Z</time>
      </trkpt>
      <trkpt lat="43.08794" lon="0.32803">
        <ele>627</ele>
        <time>2025-08-10T11:14:04.000Z</time>
      </trkpt>
      <trkpt lat="43.0879" lon="0.32757">
        <ele>626</ele>
        <time>2025-08-10T11:14:09.000Z</time>
      </trkpt>
      <trkpt lat="43.08788" lon="0.32722">
        <ele>625.40002441406</ele>
        <time>2025-08-10T11:14:13.000Z</time>
      </trkpt>
      <trkpt lat="43.08786" lon="0.32697">
        <ele>625</ele>
        <time>2025-08-10T11:14:16.000Z</time>
      </trkpt>
      <trkpt lat="43.08785" lon="0.32665">
        <ele>624.59997558594</ele>
        <time>2025-08-10T11:14:20.000Z</time>
      </trkpt>
      <trkpt lat="43.08788" lon="0.3261">
        <ele>624.20001220703</ele>
        <time>2025-08-10T11:14:27.000Z</time>
      </trkpt>
      <trkpt lat="43.0879" lon="0.32592">
        <ele>624.20001220703</ele>
        <time>2025-08-10T11:14:29.000Z</time>
      </trkpt>
      <trkpt lat="43.08797" lon="0.32562">
        <ele>624</ele>
        <time>2025-08-10T11:14:33.000Z</time>
      </trkpt>
      <trkpt lat="43.08811" lon="0.32505">
        <ele>622.79998779297</ele>
        <time>2025-08-10T11:14:40.000Z</time>
      </trkpt>
      <trkpt lat="43.0882" lon="0.32461">
        <ele>621.59997558594</ele>
        <time>2025-08-10T11:14:45.000Z</time>
      </trkpt>
      <trkpt lat="43.08824" lon="0.32436">
        <ele>621.20001220703</ele>
        <time>2025-08-10T11:14:48.000Z</time>
      </trkpt>
      <trkpt lat="43.08826" lon="0.32407">
        <ele>620.59997558594</ele>
        <time>2025-08-10T11:14:51.000Z</time>
      </trkpt>
      <trkpt lat="43.08829" lon="0.32371">
        <ele>619.40002441406</ele>
        <time>2025-08-10T11:14:55.000Z</time>
      </trkpt>
      <trkpt lat="43.0883" lon="0.32344">
        <ele>617.79998779297</ele>
        <time>2025-08-10T11:14:58.000Z</time>
      </trkpt>
      <trkpt lat="43.08829" lon="0.32325">
        <ele>616.59997558594</ele>
        <time>2025-08-10T11:15:00.000Z</time>
      </trkpt>
      <trkpt lat="43.08828" lon="0.32315">
        <ele>616.20001220703</ele>
        <time>2025-08-10T11:15:01.000Z</time>
      </trkpt>
      <trkpt lat="43.08827" lon="0.32293">
        <ele>615.40002441406</ele>
        <time>2025-08-10T11:15:03.000Z</time>
      </trkpt>
      <trkpt lat="43.08826" lon="0.32249">
        <ele>614.20001220703</ele>
        <time>2025-08-10T11:15:07.000Z</time>
      </trkpt>
      <trkpt lat="43.08824" lon="0.32214">
        <ele>613</ele>
        <time>2025-08-10T11:15:10.000Z</time>
      </trkpt>
      <trkpt lat="43.08823" lon="0.3219">
        <ele>612</ele>
        <time>2025-08-10T11:15:12.000Z</time>
      </trkpt>
      <trkpt lat="43.08823" lon="0.32166">
        <ele>611</ele>
        <time>2025-08-10T11:15:14.000Z</time>
      </trkpt>
      <trkpt lat="43.08823" lon="0.32155">
        <ele>610.59997558594</ele>
        <time>2025-08-10T11:15:15.000Z</time>
      </trkpt>
      <trkpt lat="43.08822" lon="0.3212">
        <ele>609.40002441406</ele>
        <time>2025-08-10T11:15:18.000Z</time>
      </trkpt>
      <trkpt lat="43.08822" lon="0.32091">
        <ele>608.40002441406</ele>
        <time>2025-08-10T11:15:21.000Z</time>
      </trkpt>
      <trkpt lat="43.08822" lon="0.32083">
        <ele>607.79998779297</ele>
        <time>2025-08-10T11:15:22.000Z</time>
      </trkpt>
      <trkpt lat="43.08821" lon="0.32053">
        <ele>606.79998779297</ele>
        <time>2025-08-10T11:15:26.000Z</time>
      </trkpt>
      <trkpt lat="43.08822" lon="0.32046">
        <ele>606.40002441406</ele>
        <time>2025-08-10T11:15:27.000Z</time>
      </trkpt>
      <trkpt lat="43.08822" lon="0.32013">
        <ele>605.40002441406</ele>
        <time>2025-08-10T11:15:32.000Z</time>
      </trkpt>
      <trkpt lat="43.08822" lon="0.31974">
        <ele>604.20001220703</ele>
        <time>2025-08-10T11:15:37.000Z</time>
      </trkpt>
      <trkpt lat="43.08822" lon="0.31965">
        <ele>604</ele>
        <time>2025-08-10T11:15:38.000Z</time>
      </trkpt>
      <trkpt lat="43.08822" lon="0.31939">
        <ele>603</ele>
        <time>2025-08-10T11:15:41.000Z</time>
      </trkpt>
      <trkpt lat="43.08822" lon="0.31897">
        <ele>602</ele>
        <time>2025-08-10T11:15:46.000Z</time>
      </trkpt>
      <trkpt lat="43.08822" lon="0.31859">
        <ele>601</ele>
        <time>2025-08-10T11:15:50.000Z</time>
      </trkpt>
      <trkpt lat="43.08822" lon="0.31848">
        <ele>600.40002441406</ele>
        <time>2025-08-10T11:15:51.000Z</time>
      </trkpt>
      <trkpt lat="43.08822" lon="0.31826">
        <ele>599.40002441406</ele>
        <time>2025-08-10T11:15:53.000Z</time>
      </trkpt>
      <trkpt lat="43.08823" lon="0.31801">
        <ele>598.59997558594</ele>
        <time>2025-08-10T11:15:55.000Z</time>
      </trkpt>
      <trkpt lat="43.08825" lon="0.31789">
        <ele>598.20001220703</ele>
        <time>2025-08-10T11:15:56.000Z</time>
      </trkpt>
      <trkpt lat="43.0883" lon="0.31766">
        <ele>597.20001220703</ele>
        <time>2025-08-10T11:15:58.000Z</time>
      </trkpt>
      <trkpt lat="43.08839" lon="0.3173">
        <ele>595.79998779297</ele>
        <time>2025-08-10T11:16:01.000Z</time>
      </trkpt>
      <trkpt lat="43.08843" lon="0.31704">
        <ele>594.40002441406</ele>
        <time>2025-08-10T11:16:03.000Z</time>
      </trkpt>
      <trkpt lat="43.08844" lon="0.31692">
        <ele>593.79998779297</ele>
        <time>2025-08-10T11:16:04.000Z</time>
      </trkpt>
      <trkpt lat="43.08844" lon="0.31679">
        <ele>592.79998779297</ele>
        <time>2025-08-10T11:16:05.000Z</time>
      </trkpt>
      <trkpt lat="43.08842" lon="0.31666">
        <ele>592.40002441406</ele>
        <time>2025-08-10T11:16:06.000Z</time>
      </trkpt>
      <trkpt lat="43.08841" lon="0.31653">
        <ele>591</ele>
        <time>2025-08-10T11:16:07.000Z</time>
      </trkpt>
      <trkpt lat="43.08838" lon="0.3163">
        <ele>589.79998779297</ele>
        <time>2025-08-10T11:16:09.000Z</time>
      </trkpt>
      <trkpt lat="43.08835" lon="0.31608">
        <ele>588.79998779297</ele>
        <time>2025-08-10T11:16:11.000Z</time>
      </trkpt>
      <trkpt lat="43.08834" lon="0.31598">
        <ele>587.79998779297</ele>
        <time>2025-08-10T11:16:12.000Z</time>
      </trkpt>
      <trkpt lat="43.08833" lon="0.31589">
        <ele>587.40002441406</ele>
        <time>2025-08-10T11:16:13.000Z</time>
      </trkpt>
      <trkpt lat="43.08832" lon="0.31569">
        <ele>586</ele>
        <time>2025-08-10T11:16:15.000Z</time>
      </trkpt>
      <trkpt lat="43.08831" lon="0.31548">
        <ele>584.20001220703</ele>
        <time>2025-08-10T11:16:17.000Z</time>
      </trkpt>
      <trkpt lat="43.08831" lon="0.31538">
        <ele>583.79998779297</ele>
        <time>2025-08-10T11:16:18.000Z</time>
      </trkpt>
      <trkpt lat="43.08833" lon="0.31519">
        <ele>582.79998779297</ele>
        <time>2025-08-10T11:16:20.000Z</time>
      </trkpt>
      <trkpt lat="43.08834" lon="0.31493">
        <ele>581.40002441406</ele>
        <time>2025-08-10T11:16:23.000Z</time>
      </trkpt>
      <trkpt lat="43.08836" lon="0.31476">
        <ele>580.20001220703</ele>
        <time>2025-08-10T11:16:25.000Z</time>
      </trkpt>
      <trkpt lat="43.08837" lon="0.31457">
        <ele>579.40002441406</ele>
        <time>2025-08-10T11:16:27.000Z</time>
      </trkpt>
      <trkpt lat="43.08838" lon="0.31428">
        <ele>578</ele>
        <time>2025-08-10T11:16:30.000Z</time>
      </trkpt>
      <trkpt lat="43.08839" lon="0.314">
        <ele>577</ele>
        <time>2025-08-10T11:16:33.000Z</time>
      </trkpt>
      <trkpt lat="43.08838" lon="0.3136">
        <ele>575.59997558594</ele>
        <time>2025-08-10T11:16:37.000Z</time>
      </trkpt>
      <trkpt lat="43.08836" lon="0.31332">
        <ele>574.59997558594</ele>
        <time>2025-08-10T11:16:40.000Z</time>
      </trkpt>
      <trkpt lat="43.08834" lon="0.31308">
        <ele>574</ele>
        <time>2025-08-10T11:16:43.000Z</time>
      </trkpt>
      <trkpt lat="43.08829" lon="0.3128">
        <ele>573.59997558594</ele>
        <time>2025-08-10T11:16:47.000Z</time>
      </trkpt>
      <trkpt lat="43.08829" lon="0.31274">
        <ele>573.40002441406</ele>
        <time>2025-08-10T11:16:48.000Z</time>
      </trkpt>
      <trkpt lat="43.08828" lon="0.31267">
        <ele>573.20001220703</ele>
        <time>2025-08-10T11:16:49.000Z</time>
      </trkpt>
      <trkpt lat="43.0882" lon="0.31222">
        <ele>573</ele>
        <time>2025-08-10T11:16:56.000Z</time>
      </trkpt>
      <trkpt lat="43.08803" lon="0.31175">
        <ele>572.79998779297</ele>
        <time>2025-08-10T11:17:04.000Z</time>
      </trkpt>
      <trkpt lat="43.088" lon="0.31169">
        <ele>572.79998779297</ele>
        <time>2025-08-10T11:17:05.000Z</time>
      </trkpt>
      <trkpt lat="43.08792" lon="0.31147">
        <ele>572.79998779297</ele>
        <time>2025-08-10T11:17:09.000Z</time>
      </trkpt>
      <trkpt lat="43.08781" lon="0.31117">
        <ele>572.79998779297</ele>
        <time>2025-08-10T11:17:15.000Z</time>
      </trkpt>
      <trkpt lat="43.08769" lon="0.31086">
        <ele>573.59997558594</ele>
        <time>2025-08-10T11:17:22.000Z</time>
      </trkpt>
      <trkpt lat="43.08759" lon="0.31061">
        <ele>574.20001220703</ele>
        <time>2025-08-10T11:17:29.000Z</time>
      </trkpt>
      <trkpt lat="43.08744" lon="0.3103">
        <ele>574.20001220703</ele>
        <time>2025-08-10T11:17:38.000Z</time>
      </trkpt>
      <trkpt lat="43.08746" lon="0.31014">
        <ele>574.20001220703</ele>
        <time>2025-08-10T11:17:43.000Z</time>
      </trkpt>
      <trkpt lat="43.08748" lon="0.31003">
        <ele>574.40002441406</ele>
        <time>2025-08-10T11:17:47.000Z</time>
      </trkpt>
      <trkpt lat="43.08749" lon="0.30998">
        <ele>574.40002441406</ele>
        <time>2025-08-10T11:17:49.000Z</time>
      </trkpt>
      <trkpt lat="43.08754" lon="0.30982">
        <ele>575</ele>
        <time>2025-08-10T11:17:55.000Z</time>
      </trkpt>
      <trkpt lat="43.08754" lon="0.30979">
        <ele>575.20001220703</ele>
        <time>2025-08-10T11:17:56.000Z</time>
      </trkpt>
      <trkpt lat="43.08757" lon="0.30951">
        <ele>576</ele>
        <time>2025-08-10T11:18:05.000Z</time>
      </trkpt>
      <trkpt lat="43.08757" lon="0.30926">
        <ele>576</ele>
        <time>2025-08-10T11:18:11.000Z</time>
      </trkpt>
      <trkpt lat="43.08751" lon="0.30903">
        <ele>575.59997558594</ele>
        <time>2025-08-10T11:18:16.000Z</time>
      </trkpt>
      <trkpt lat="43.08733" lon="0.30881">
        <ele>574.79998779297</ele>
        <time>2025-08-10T11:18:23.000Z</time>
      </trkpt>
      <trkpt lat="43.08722" lon="0.30869">
        <ele>574.20001220703</ele>
        <time>2025-08-10T11:18:28.000Z</time>
      </trkpt>
      <trkpt lat="43.08721" lon="0.30867">
        <ele>574</ele>
        <time>2025-08-10T11:18:29.000Z</time>
      </trkpt>
      <trkpt lat="43.0872" lon="0.30865">
        <ele>573.59997558594</ele>
        <time>2025-08-10T11:18:30.000Z</time>
      </trkpt>
      <trkpt lat="43.08719" lon="0.30865">
        <ele>573</ele>
        <time>2025-08-10T11:18:32.000Z</time>
      </trkpt>
      <trkpt lat="43.08719" lon="0.30865">
        <ele>572.79998779297</ele>
        <time>2025-08-10T11:18:33.000Z</time>
      </trkpt>
      <trkpt lat="43.08719" lon="0.30865">
        <ele>572.79998779297</ele>
        <time>2025-08-10T11:18:34.000Z</time>
      </trkpt>
      <trkpt lat="43.08716" lon="0.30862">
        <ele>571.40002441406</ele>
        <time>2025-08-10T11:18:54.000Z</time>
      </trkpt>
      <trkpt lat="43.08712" lon="0.30856">
        <ele>571.20001220703</ele>
        <time>2025-08-10T11:18:56.000Z</time>
      </trkpt>
      <trkpt lat="43.08697" lon="0.30836">
        <ele>570.79998779297</ele>
        <time>2025-08-10T11:19:01.000Z</time>
      </trkpt>
      <trkpt lat="43.08685" lon="0.30814">
        <ele>570.59997558594</ele>
        <time>2025-08-10T11:19:06.000Z</time>
      </trkpt>
      <trkpt lat="43.08682" lon="0.3081">
        <ele>570.59997558594</ele>
        <time>2025-08-10T11:19:07.000Z</time>
      </trkpt>
      <trkpt lat="43.0868" lon="0.30805">
        <ele>570.59997558594</ele>
        <time>2025-08-10T11:19:08.000Z</time>
      </trkpt>
      <trkpt lat="43.08666" lon="0.30782">
        <ele>570</ele>
        <time>2025-08-10T11:19:13.000Z</time>
      </trkpt>
      <trkpt lat="43.08664" lon="0.30778">
        <ele>569.79998779297</ele>
        <time>2025-08-10T11:19:14.000Z</time>
      </trkpt>
      <trkpt lat="43.08655" lon="0.30767">
        <ele>569.79998779297</ele>
        <time>2025-08-10T11:19:17.000Z</time>
      </trkpt>
      <trkpt lat="43.0865" lon="0.30762">
        <ele>569.79998779297</ele>
        <time>2025-08-10T11:19:19.000Z</time>
      </trkpt>
      <trkpt lat="43.08641" lon="0.30755">
        <ele>569.40002441406</ele>
        <time>2025-08-10T11:19:22.000Z</time>
      </trkpt>
      <trkpt lat="43.08627" lon="0.30746">
        <ele>568.59997558594</ele>
        <time>2025-08-10T11:19:26.000Z</time>
      </trkpt>
      <trkpt lat="43.0862" lon="0.30742">
        <ele>568</ele>
        <time>2025-08-10T11:19:28.000Z</time>
      </trkpt>
      <trkpt lat="43.08616" lon="0.30734">
        <ele>567.40002441406</ele>
        <time>2025-08-10T11:19:31.000Z</time>
      </trkpt>
      <trkpt lat="43.0862" lon="0.30723">
        <ele>567</ele>
        <time>2025-08-10T11:19:34.000Z</time>
      </trkpt>
      <trkpt lat="43.08623" lon="0.30718">
        <ele>566.79998779297</ele>
        <time>2025-08-10T11:19:35.000Z</time>
      </trkpt>
      <trkpt lat="43.08632" lon="0.30706">
        <ele>566.40002441406</ele>
        <time>2025-08-10T11:19:38.000Z</time>
      </trkpt>
      <trkpt lat="43.0864" lon="0.30702">
        <ele>566.20001220703</ele>
        <time>2025-08-10T11:19:40.000Z</time>
      </trkpt>
      <trkpt lat="43.08644" lon="0.30701">
        <ele>566.20001220703</ele>
        <time>2025-08-10T11:19:41.000Z</time>
      </trkpt>
      <trkpt lat="43.08658" lon="0.307">
        <ele>566</ele>
        <time>2025-08-10T11:19:44.000Z</time>
      </trkpt>
      <trkpt lat="43.08664" lon="0.307">
        <ele>566</ele>
        <time>2025-08-10T11:19:46.000Z</time>
      </trkpt>
      <trkpt lat="43.0868" lon="0.30702">
        <ele>565.40002441406</ele>
        <time>2025-08-10T11:19:52.000Z</time>
      </trkpt>
      <trkpt lat="43.08686" lon="0.307">
        <ele>564.79998779297</ele>
        <time>2025-08-10T11:19:55.000Z</time>
      </trkpt>
      <trkpt lat="43.08687" lon="0.307">
        <ele>564.59997558594</ele>
        <time>2025-08-10T11:19:57.000Z</time>
      </trkpt>
      <trkpt lat="43.08692" lon="0.30701">
        <ele>562.79998779297</ele>
        <time>2025-08-10T11:20:17.000Z</time>
      </trkpt>
      <trkpt lat="43.08697" lon="0.30703">
        <ele>562.79998779297</ele>
        <time>2025-08-10T11:20:19.000Z</time>
      </trkpt>
      <trkpt lat="43.08711" lon="0.30705">
        <ele>562.40002441406</ele>
        <time>2025-08-10T11:20:23.000Z</time>
      </trkpt>
      <trkpt lat="43.08716" lon="0.30705">
        <ele>562.20001220703</ele>
        <time>2025-08-10T11:20:24.000Z</time>
      </trkpt>
      <trkpt lat="43.0872" lon="0.30705">
        <ele>562.20001220703</ele>
        <time>2025-08-10T11:20:25.000Z</time>
      </trkpt>
      <trkpt lat="43.0873" lon="0.30704">
        <ele>561.40002441406</ele>
        <time>2025-08-10T11:20:27.000Z</time>
      </trkpt>
      <trkpt lat="43.08735" lon="0.30704">
        <ele>561.20001220703</ele>
        <time>2025-08-10T11:20:28.000Z</time>
      </trkpt>
      <trkpt lat="43.08745" lon="0.30704">
        <ele>560.40002441406</ele>
        <time>2025-08-10T11:20:30.000Z</time>
      </trkpt>
      <trkpt lat="43.08751" lon="0.30704">
        <ele>559.79998779297</ele>
        <time>2025-08-10T11:20:31.000Z</time>
      </trkpt>
      <trkpt lat="43.08762" lon="0.30704">
        <ele>558.59997558594</ele>
        <time>2025-08-10T11:20:33.000Z</time>
      </trkpt>
      <trkpt lat="43.08768" lon="0.30704">
        <ele>557.40002441406</ele>
        <time>2025-08-10T11:20:34.000Z</time>
      </trkpt>
      <trkpt lat="43.08781" lon="0.30703">
        <ele>556.20001220703</ele>
        <time>2025-08-10T11:20:36.000Z</time>
      </trkpt>
      <trkpt lat="43.08792" lon="0.30703">
        <ele>555</ele>
        <time>2025-08-10T11:20:38.000Z</time>
      </trkpt>
      <trkpt lat="43.08806" lon="0.30702">
        <ele>553.59997558594</ele>
        <time>2025-08-10T11:20:40.000Z</time>
      </trkpt>
      <trkpt lat="43.08818" lon="0.30702">
        <ele>552.59997558594</ele>
        <time>2025-08-10T11:20:42.000Z</time>
      </trkpt>
      <trkpt lat="43.08831" lon="0.30701">
        <ele>551.59997558594</ele>
        <time>2025-08-10T11:20:44.000Z</time>
      </trkpt>
      <trkpt lat="43.08837" lon="0.30701">
        <ele>550.79998779297</ele>
        <time>2025-08-10T11:20:45.000Z</time>
      </trkpt>
      <trkpt lat="43.08856" lon="0.307">
        <ele>549.20001220703</ele>
        <time>2025-08-10T11:20:48.000Z</time>
      </trkpt>
      <trkpt lat="43.08868" lon="0.30699">
        <ele>548.20001220703</ele>
        <time>2025-08-10T11:20:50.000Z</time>
      </trkpt>
      <trkpt lat="43.08875" lon="0.30697">
        <ele>547.79998779297</ele>
        <time>2025-08-10T11:20:51.000Z</time>
      </trkpt>
      <trkpt lat="43.08887" lon="0.30694">
        <ele>547</ele>
        <time>2025-08-10T11:20:53.000Z</time>
      </trkpt>
      <trkpt lat="43.08902" lon="0.30691">
        <ele>546</ele>
        <time>2025-08-10T11:20:55.000Z</time>
      </trkpt>
      <trkpt lat="43.08908" lon="0.30691">
        <ele>545.79998779297</ele>
        <time>2025-08-10T11:20:56.000Z</time>
      </trkpt>
      <trkpt lat="43.0893" lon="0.30689">
        <ele>544.59997558594</ele>
        <time>2025-08-10T11:20:59.000Z</time>
      </trkpt>
      <trkpt lat="43.08946" lon="0.30687">
        <ele>544</ele>
        <time>2025-08-10T11:21:01.000Z</time>
      </trkpt>
      <trkpt lat="43.08951" lon="0.30687">
        <ele>543.40002441406</ele>
        <time>2025-08-10T11:21:02.000Z</time>
      </trkpt>
      <trkpt lat="43.08964" lon="0.30687">
        <ele>542.20001220703</ele>
        <time>2025-08-10T11:21:04.000Z</time>
      </trkpt>
      <trkpt lat="43.08971" lon="0.30686">
        <ele>542</ele>
        <time>2025-08-10T11:21:05.000Z</time>
      </trkpt>
      <trkpt lat="43.08984" lon="0.30683">
        <ele>541.20001220703</ele>
        <time>2025-08-10T11:21:07.000Z</time>
      </trkpt>
      <trkpt lat="43.09005" lon="0.30681">
        <ele>540.20001220703</ele>
        <time>2025-08-10T11:21:10.000Z</time>
      </trkpt>
      <trkpt lat="43.09026" lon="0.30677">
        <ele>538.20001220703</ele>
        <time>2025-08-10T11:21:13.000Z</time>
      </trkpt>
      <trkpt lat="43.09032" lon="0.30676">
        <ele>537.20001220703</ele>
        <time>2025-08-10T11:21:14.000Z</time>
      </trkpt>
      <trkpt lat="43.09045" lon="0.30673">
        <ele>535.40002441406</ele>
        <time>2025-08-10T11:21:16.000Z</time>
      </trkpt>
      <trkpt lat="43.09058" lon="0.30669">
        <ele>533.79998779297</ele>
        <time>2025-08-10T11:21:18.000Z</time>
      </trkpt>
      <trkpt lat="43.09065" lon="0.30665">
        <ele>533.20001220703</ele>
        <time>2025-08-10T11:21:19.000Z</time>
      </trkpt>
      <trkpt lat="43.09071" lon="0.30662">
        <ele>532.20001220703</ele>
        <time>2025-08-10T11:21:20.000Z</time>
      </trkpt>
      <trkpt lat="43.09084" lon="0.30649">
        <ele>530.79998779297</ele>
        <time>2025-08-10T11:21:22.000Z</time>
      </trkpt>
      <trkpt lat="43.09094" lon="0.30637">
        <ele>529.59997558594</ele>
        <time>2025-08-10T11:21:24.000Z</time>
      </trkpt>
      <trkpt lat="43.09099" lon="0.30622">
        <ele>528.20001220703</ele>
        <time>2025-08-10T11:21:26.000Z</time>
      </trkpt>
      <trkpt lat="43.09099" lon="0.30607">
        <ele>527</ele>
        <time>2025-08-10T11:21:28.000Z</time>
      </trkpt>
      <trkpt lat="43.09098" lon="0.3059">
        <ele>526.20001220703</ele>
        <time>2025-08-10T11:21:30.000Z</time>
      </trkpt>
      <trkpt lat="43.09096" lon="0.30574">
        <ele>525.59997558594</ele>
        <time>2025-08-10T11:21:32.000Z</time>
      </trkpt>
      <trkpt lat="43.09092" lon="0.30538">
        <ele>524.40002441406</ele>
        <time>2025-08-10T11:21:36.000Z</time>
      </trkpt>
      <trkpt lat="43.09091" lon="0.30529">
        <ele>524.20001220703</ele>
        <time>2025-08-10T11:21:37.000Z</time>
      </trkpt>
      <trkpt lat="43.0909" lon="0.30514">
        <ele>523.40002441406</ele>
        <time>2025-08-10T11:21:39.000Z</time>
      </trkpt>
      <trkpt lat="43.09089" lon="0.30492">
        <ele>522.59997558594</ele>
        <time>2025-08-10T11:21:42.000Z</time>
      </trkpt>
      <trkpt lat="43.09089" lon="0.30485">
        <ele>522.40002441406</ele>
        <time>2025-08-10T11:21:43.000Z</time>
      </trkpt>
      <trkpt lat="43.0909" lon="0.30466">
        <ele>521.59997558594</ele>
        <time>2025-08-10T11:21:46.000Z</time>
      </trkpt>
      <trkpt lat="43.09091" lon="0.30454">
        <ele>521.20001220703</ele>
        <time>2025-08-10T11:21:48.000Z</time>
      </trkpt>
      <trkpt lat="43.09094" lon="0.30427">
        <ele>520.59997558594</ele>
        <time>2025-08-10T11:21:52.000Z</time>
      </trkpt>
      <trkpt lat="43.091" lon="0.30396">
        <ele>520</ele>
        <time>2025-08-10T11:21:57.000Z</time>
      </trkpt>
      <trkpt lat="43.09104" lon="0.30373">
        <ele>519.59997558594</ele>
        <time>2025-08-10T11:22:00.000Z</time>
      </trkpt>
      <trkpt lat="43.09108" lon="0.30358">
        <ele>519</ele>
        <time>2025-08-10T11:22:02.000Z</time>
      </trkpt>
      <trkpt lat="43.09117" lon="0.30334">
        <ele>518.40002441406</ele>
        <time>2025-08-10T11:22:05.000Z</time>
      </trkpt>
      <trkpt lat="43.09129" lon="0.30303">
        <ele>517.20001220703</ele>
        <time>2025-08-10T11:22:09.000Z</time>
      </trkpt>
      <trkpt lat="43.09133" lon="0.30294">
        <ele>516.79998779297</ele>
        <time>2025-08-10T11:22:10.000Z</time>
      </trkpt>
      <trkpt lat="43.09154" lon="0.3024">
        <ele>516.20001220703</ele>
        <time>2025-08-10T11:22:18.000Z</time>
      </trkpt>
      <trkpt lat="43.0916" lon="0.30224">
        <ele>516.20001220703</ele>
        <time>2025-08-10T11:22:21.000Z</time>
      </trkpt>
      <trkpt lat="43.09162" lon="0.30213">
        <ele>516.59997558594</ele>
        <time>2025-08-10T11:22:23.000Z</time>
      </trkpt>
      <trkpt lat="43.09163" lon="0.30208">
        <ele>516.59997558594</ele>
        <time>2025-08-10T11:22:24.000Z</time>
      </trkpt>
      <trkpt lat="43.09166" lon="0.3019">
        <ele>516.59997558594</ele>
        <time>2025-08-10T11:22:27.000Z</time>
      </trkpt>
      <trkpt lat="43.09166" lon="0.30184">
        <ele>516.59997558594</ele>
        <time>2025-08-10T11:22:28.000Z</time>
      </trkpt>
      <trkpt lat="43.09168" lon="0.30154">
        <ele>516.40002441406</ele>
        <time>2025-08-10T11:22:32.000Z</time>
      </trkpt>
      <trkpt lat="43.09171" lon="0.30138">
        <ele>516.40002441406</ele>
        <time>2025-08-10T11:22:34.000Z</time>
      </trkpt>
      <trkpt lat="43.09173" lon="0.30131">
        <ele>516.40002441406</ele>
        <time>2025-08-10T11:22:35.000Z</time>
      </trkpt>
      <trkpt lat="43.09175" lon="0.30115">
        <ele>516.20001220703</ele>
        <time>2025-08-10T11:22:37.000Z</time>
      </trkpt>
      <trkpt lat="43.09176" lon="0.30099">
        <ele>516</ele>
        <time>2025-08-10T11:22:39.000Z</time>
      </trkpt>
      <trkpt lat="43.09177" lon="0.30093">
        <ele>516</ele>
        <time>2025-08-10T11:22:40.000Z</time>
      </trkpt>
      <trkpt lat="43.09178" lon="0.30087">
        <ele>516</ele>
        <time>2025-08-10T11:22:41.000Z</time>
      </trkpt>
      <trkpt lat="43.09178" lon="0.30074">
        <ele>516</ele>
        <time>2025-08-10T11:22:43.000Z</time>
      </trkpt>
      <trkpt lat="43.0918" lon="0.30062">
        <ele>516</ele>
        <time>2025-08-10T11:22:45.000Z</time>
      </trkpt>
      <trkpt lat="43.09182" lon="0.30037">
        <ele>516.20001220703</ele>
        <time>2025-08-10T11:22:50.000Z</time>
      </trkpt>
      <trkpt lat="43.09181" lon="0.30012">
        <ele>516.59997558594</ele>
        <time>2025-08-10T11:22:55.000Z</time>
      </trkpt>
      <trkpt lat="43.09186" lon="0.29982">
        <ele>516.79998779297</ele>
        <time>2025-08-10T11:23:01.000Z</time>
      </trkpt>
      <trkpt lat="43.09187" lon="0.29962">
        <ele>517</ele>
        <time>2025-08-10T11:23:05.000Z</time>
      </trkpt>
      <trkpt lat="43.09187" lon="0.29943">
        <ele>517.20001220703</ele>
        <time>2025-08-10T11:23:11.000Z</time>
      </trkpt>
      <trkpt lat="43.09187" lon="0.29943">
        <ele>517.20001220703</ele>
        <time>2025-08-10T11:23:13.000Z</time>
      </trkpt>
      <trkpt lat="43.09187" lon="0.29935">
        <ele>515.59997558594</ele>
        <time>2025-08-10T11:24:07.000Z</time>
      </trkpt>
      <trkpt lat="43.09186" lon="0.29915">
        <ele>515.59997558594</ele>
        <time>2025-08-10T11:24:11.000Z</time>
      </trkpt>
      <trkpt lat="43.09182" lon="0.29872">
        <ele>515</ele>
        <time>2025-08-10T11:24:16.000Z</time>
      </trkpt>
      <trkpt lat="43.0918" lon="0.29852">
        <ele>514.59997558594</ele>
        <time>2025-08-10T11:24:18.000Z</time>
      </trkpt>
      <trkpt lat="43.09176" lon="0.29813">
        <ele>513.59997558594</ele>
        <time>2025-08-10T11:24:22.000Z</time>
      </trkpt>
      <trkpt lat="43.09174" lon="0.29793">
        <ele>512.79998779297</ele>
        <time>2025-08-10T11:24:24.000Z</time>
      </trkpt>
      <trkpt lat="43.09173" lon="0.29783">
        <ele>512.40002441406</ele>
        <time>2025-08-10T11:24:25.000Z</time>
      </trkpt>
      <trkpt lat="43.09172" lon="0.29773">
        <ele>512.20001220703</ele>
        <time>2025-08-10T11:24:26.000Z</time>
      </trkpt>
      <trkpt lat="43.09171" lon="0.29753">
        <ele>511.20001220703</ele>
        <time>2025-08-10T11:24:28.000Z</time>
      </trkpt>
      <trkpt lat="43.0917" lon="0.29724">
        <ele>509.79998779297</ele>
        <time>2025-08-10T11:24:31.000Z</time>
      </trkpt>
      <trkpt lat="43.09171" lon="0.29713">
        <ele>509.39999389648</ele>
        <time>2025-08-10T11:24:32.000Z</time>
      </trkpt>
      <trkpt lat="43.09172" lon="0.29681">
        <ele>508.79998779297</ele>
        <time>2025-08-10T11:24:35.000Z</time>
      </trkpt>
      <trkpt lat="43.09176" lon="0.29646">
        <ele>507.60000610352</ele>
        <time>2025-08-10T11:24:38.000Z</time>
      </trkpt>
      <trkpt lat="43.0918" lon="0.29609">
        <ele>506.39999389648</ele>
        <time>2025-08-10T11:24:41.000Z</time>
      </trkpt>
      <trkpt lat="43.09184" lon="0.29572">
        <ele>505</ele>
        <time>2025-08-10T11:24:44.000Z</time>
      </trkpt>
      <trkpt lat="43.09188" lon="0.29523">
        <ele>503.60000610352</ele>
        <time>2025-08-10T11:24:48.000Z</time>
      </trkpt>
      <trkpt lat="43.0919" lon="0.29502">
        <ele>502.79998779297</ele>
        <time>2025-08-10T11:24:50.000Z</time>
      </trkpt>
      <trkpt lat="43.09191" lon="0.29492">
        <ele>502.39999389648</ele>
        <time>2025-08-10T11:24:51.000Z</time>
      </trkpt>
      <trkpt lat="43.09193" lon="0.29469">
        <ele>502.20001220703</ele>
        <time>2025-08-10T11:24:54.000Z</time>
      </trkpt>
      <trkpt lat="43.09194" lon="0.29461">
        <ele>502</ele>
        <time>2025-08-10T11:24:55.000Z</time>
      </trkpt>
      <trkpt lat="43.09195" lon="0.29428">
        <ele>502.60000610352</ele>
        <time>2025-08-10T11:25:00.000Z</time>
      </trkpt>
      <trkpt lat="43.09195" lon="0.294">
        <ele>503.20001220703</ele>
        <time>2025-08-10T11:25:05.000Z</time>
      </trkpt>
      <trkpt lat="43.09194" lon="0.29395">
        <ele>503.39999389648</ele>
        <time>2025-08-10T11:25:06.000Z</time>
      </trkpt>
      <trkpt lat="43.09192" lon="0.29378">
        <ele>503.60000610352</ele>
        <time>2025-08-10T11:25:09.000Z</time>
      </trkpt>
      <trkpt lat="43.09191" lon="0.29373">
        <ele>503.79998779297</ele>
        <time>2025-08-10T11:25:10.000Z</time>
      </trkpt>
      <trkpt lat="43.0919" lon="0.29368">
        <ele>503.79998779297</ele>
        <time>2025-08-10T11:25:11.000Z</time>
      </trkpt>
      <trkpt lat="43.09189" lon="0.29361">
        <ele>503.79998779297</ele>
        <time>2025-08-10T11:25:12.000Z</time>
      </trkpt>
      <trkpt lat="43.09186" lon="0.29311">
        <ele>503.79998779297</ele>
        <time>2025-08-10T11:25:20.000Z</time>
      </trkpt>
      <trkpt lat="43.09183" lon="0.29289">
        <ele>503.60000610352</ele>
        <time>2025-08-10T11:25:24.000Z</time>
      </trkpt>
      <trkpt lat="43.09179" lon="0.2928">
        <ele>503.79998779297</ele>
        <time>2025-08-10T11:25:26.000Z</time>
      </trkpt>
      <trkpt lat="43.09166" lon="0.2925">
        <ele>503.20001220703</ele>
        <time>2025-08-10T11:25:32.000Z</time>
      </trkpt>
      <trkpt lat="43.09159" lon="0.29238">
        <ele>502.79998779297</ele>
        <time>2025-08-10T11:25:34.000Z</time>
      </trkpt>
      <trkpt lat="43.09143" lon="0.29215">
        <ele>501.79998779297</ele>
        <time>2025-08-10T11:25:38.000Z</time>
      </trkpt>
      <trkpt lat="43.09134" lon="0.29206">
        <ele>501.20001220703</ele>
        <time>2025-08-10T11:25:40.000Z</time>
      </trkpt>
      <trkpt lat="43.09125" lon="0.29198">
        <ele>500.39999389648</ele>
        <time>2025-08-10T11:25:42.000Z</time>
      </trkpt>
      <trkpt lat="43.09117" lon="0.29192">
        <ele>499.79998779297</ele>
        <time>2025-08-10T11:25:44.000Z</time>
      </trkpt>
      <trkpt lat="43.09113" lon="0.29188">
        <ele>499.39999389648</ele>
        <time>2025-08-10T11:25:45.000Z</time>
      </trkpt>
      <trkpt lat="43.0911" lon="0.29184">
        <ele>499</ele>
        <time>2025-08-10T11:25:46.000Z</time>
      </trkpt>
      <trkpt lat="43.09108" lon="0.29178">
        <ele>498.20001220703</ele>
        <time>2025-08-10T11:25:47.000Z</time>
      </trkpt>
      <trkpt lat="43.09107" lon="0.29171">
        <ele>497.79998779297</ele>
        <time>2025-08-10T11:25:48.000Z</time>
      </trkpt>
      <trkpt lat="43.09104" lon="0.29159">
        <ele>496.79998779297</ele>
        <time>2025-08-10T11:25:50.000Z</time>
      </trkpt>
      <trkpt lat="43.09101" lon="0.29151">
        <ele>496.39999389648</ele>
        <time>2025-08-10T11:25:51.000Z</time>
      </trkpt>
      <trkpt lat="43.09095" lon="0.29141">
        <ele>496</ele>
        <time>2025-08-10T11:25:53.000Z</time>
      </trkpt>
      <trkpt lat="43.0909" lon="0.29136">
        <ele>495.60000610352</ele>
        <time>2025-08-10T11:25:54.000Z</time>
      </trkpt>
      <trkpt lat="43.09083" lon="0.29126">
        <ele>495</ele>
        <time>2025-08-10T11:25:56.000Z</time>
      </trkpt>
      <trkpt lat="43.09079" lon="0.29121">
        <ele>494.20001220703</ele>
        <time>2025-08-10T11:25:57.000Z</time>
      </trkpt>
      <trkpt lat="43.09071" lon="0.29112">
        <ele>493</ele>
        <time>2025-08-10T11:25:59.000Z</time>
      </trkpt>
      <trkpt lat="43.09062" lon="0.29105">
        <ele>491.39999389648</ele>
        <time>2025-08-10T11:26:01.000Z</time>
      </trkpt>
      <trkpt lat="43.09057" lon="0.29101">
        <ele>491.20001220703</ele>
        <time>2025-08-10T11:26:02.000Z</time>
      </trkpt>
      <trkpt lat="43.09052" lon="0.29097">
        <ele>490.20001220703</ele>
        <time>2025-08-10T11:26:03.000Z</time>
      </trkpt>
      <trkpt lat="43.09041" lon="0.29088">
        <ele>489.20001220703</ele>
        <time>2025-08-10T11:26:05.000Z</time>
      </trkpt>
      <trkpt lat="43.09025" lon="0.29077">
        <ele>487.60000610352</ele>
        <time>2025-08-10T11:26:08.000Z</time>
      </trkpt>
      <trkpt lat="43.09009" lon="0.29067">
        <ele>485.60000610352</ele>
        <time>2025-08-10T11:26:11.000Z</time>
      </trkpt>
      <trkpt lat="43.09" lon="0.2906">
        <ele>484.60000610352</ele>
        <time>2025-08-10T11:26:13.000Z</time>
      </trkpt>
      <trkpt lat="43.08995" lon="0.29059">
        <ele>484.20001220703</ele>
        <time>2025-08-10T11:26:14.000Z</time>
      </trkpt>
      <trkpt lat="43.08988" lon="0.29058">
        <ele>483.20001220703</ele>
        <time>2025-08-10T11:26:16.000Z</time>
      </trkpt>
      <trkpt lat="43.08982" lon="0.29061">
        <ele>482.60000610352</ele>
        <time>2025-08-10T11:26:18.000Z</time>
      </trkpt>
      <trkpt lat="43.08979" lon="0.29063">
        <ele>482.20001220703</ele>
        <time>2025-08-10T11:26:19.000Z</time>
      </trkpt>
      <trkpt lat="43.08971" lon="0.29062">
        <ele>481</ele>
        <time>2025-08-10T11:26:22.000Z</time>
      </trkpt>
      <trkpt lat="43.08968" lon="0.29061">
        <ele>480.20001220703</ele>
        <time>2025-08-10T11:26:23.000Z</time>
      </trkpt>
      <trkpt lat="43.08967" lon="0.2906">
        <ele>479.79998779297</ele>
        <time>2025-08-10T11:26:24.000Z</time>
      </trkpt>
      <trkpt lat="43.08966" lon="0.29059">
        <ele>479.20001220703</ele>
        <time>2025-08-10T11:26:25.000Z</time>
      </trkpt>
      <trkpt lat="43.08964" lon="0.29057">
        <ele>478.79998779297</ele>
        <time>2025-08-10T11:26:26.000Z</time>
      </trkpt>
      <trkpt lat="43.0896" lon="0.2905">
        <ele>477</ele>
        <time>2025-08-10T11:26:29.000Z</time>
      </trkpt>
      <trkpt lat="43.08956" lon="0.29042">
        <ele>476.39999389648</ele>
        <time>2025-08-10T11:26:31.000Z</time>
      </trkpt>
      <trkpt lat="43.08954" lon="0.29038">
        <ele>475.60000610352</ele>
        <time>2025-08-10T11:26:32.000Z</time>
      </trkpt>
      <trkpt lat="43.08951" lon="0.29031">
        <ele>474.60000610352</ele>
        <time>2025-08-10T11:26:34.000Z</time>
      </trkpt>
      <trkpt lat="43.08948" lon="0.29024">
        <ele>473.60000610352</ele>
        <time>2025-08-10T11:26:36.000Z</time>
      </trkpt>
      <trkpt lat="43.08944" lon="0.29017">
        <ele>472.20001220703</ele>
        <time>2025-08-10T11:26:38.000Z</time>
      </trkpt>
      <trkpt lat="43.08939" lon="0.2901">
        <ele>470.60000610352</ele>
        <time>2025-08-10T11:26:41.000Z</time>
      </trkpt>
      <trkpt lat="43.08937" lon="0.29007">
        <ele>470</ele>
        <time>2025-08-10T11:26:42.000Z</time>
      </trkpt>
      <trkpt lat="43.08935" lon="0.29003">
        <ele>469.60000610352</ele>
        <time>2025-08-10T11:26:43.000Z</time>
      </trkpt>
      <trkpt lat="43.08933" lon="0.28997">
        <ele>468.39999389648</ele>
        <time>2025-08-10T11:26:46.000Z</time>
      </trkpt>
      <trkpt lat="43.08933" lon="0.28995">
        <ele>468</ele>
        <time>2025-08-10T11:26:47.000Z</time>
      </trkpt>
      <trkpt lat="43.08932" lon="0.28993">
        <ele>467.20001220703</ele>
        <time>2025-08-10T11:26:48.000Z</time>
      </trkpt>
      <trkpt lat="43.08928" lon="0.28984">
        <ele>465.79998779297</ele>
        <time>2025-08-10T11:26:52.000Z</time>
      </trkpt>
      <trkpt lat="43.08927" lon="0.28982">
        <ele>465.60000610352</ele>
        <time>2025-08-10T11:26:53.000Z</time>
      </trkpt>
      <trkpt lat="43.08926" lon="0.28978">
        <ele>464.60000610352</ele>
        <time>2025-08-10T11:26:56.000Z</time>
      </trkpt>
      <trkpt lat="43.08925" lon="0.28976">
        <ele>464.39999389648</ele>
        <time>2025-08-10T11:26:57.000Z</time>
      </trkpt>
      <trkpt lat="43.08923" lon="0.28972">
        <ele>464</ele>
        <time>2025-08-10T11:26:59.000Z</time>
      </trkpt>
      <trkpt lat="43.08922" lon="0.2897">
        <ele>463.60000610352</ele>
        <time>2025-08-10T11:27:00.000Z</time>
      </trkpt>
      <trkpt lat="43.08916" lon="0.28958">
        <ele>462.20001220703</ele>
        <time>2025-08-10T11:27:05.000Z</time>
      </trkpt>
      <trkpt lat="43.08915" lon="0.28954">
        <ele>461.39999389648</ele>
        <time>2025-08-10T11:27:07.000Z</time>
      </trkpt>
      <trkpt lat="43.08915" lon="0.28951">
        <ele>461</ele>
        <time>2025-08-10T11:27:08.000Z</time>
      </trkpt>
      <trkpt lat="43.08912" lon="0.28945">
        <ele>460</ele>
        <time>2025-08-10T11:27:12.000Z</time>
      </trkpt>
      <trkpt lat="43.0891" lon="0.28943">
        <ele>459.39999389648</ele>
        <time>2025-08-10T11:27:14.000Z</time>
      </trkpt>
      <trkpt lat="43.08907" lon="0.28938">
        <ele>458.79998779297</ele>
        <time>2025-08-10T11:27:17.000Z</time>
      </trkpt>
      <trkpt lat="43.08904" lon="0.28933">
        <ele>458.60000610352</ele>
        <time>2025-08-10T11:27:20.000Z</time>
      </trkpt>
      <trkpt lat="43.08902" lon="0.28924">
        <ele>458</ele>
        <time>2025-08-10T11:27:24.000Z</time>
      </trkpt>
      <trkpt lat="43.089" lon="0.28919">
        <ele>457.39999389648</ele>
        <time>2025-08-10T11:27:28.000Z</time>
      </trkpt>
      <trkpt lat="43.08899" lon="0.28918">
        <ele>457</ele>
        <time>2025-08-10T11:27:29.000Z</time>
      </trkpt>
      <trkpt lat="43.08898" lon="0.28915">
        <ele>456.20001220703</ele>
        <time>2025-08-10T11:27:31.000Z</time>
      </trkpt>
      <trkpt lat="43.08896" lon="0.28912">
        <ele>455.60000610352</ele>
        <time>2025-08-10T11:27:33.000Z</time>
      </trkpt>
      <trkpt lat="43.08895" lon="0.28911">
        <ele>455.39999389648</ele>
        <time>2025-08-10T11:27:34.000Z</time>
      </trkpt>
      <trkpt lat="43.08893" lon="0.28903">
        <ele>454.20001220703</ele>
        <time>2025-08-10T11:27:38.000Z</time>
      </trkpt>
      <trkpt lat="43.0889" lon="0.28897">
        <ele>453.60000610352</ele>
        <time>2025-08-10T11:27:42.000Z</time>
      </trkpt>
      <trkpt lat="43.08889" lon="0.28895">
        <ele>453.39999389648</ele>
        <time>2025-08-10T11:27:43.000Z</time>
      </trkpt>
      <trkpt lat="43.08883" lon="0.28883">
        <ele>452.39999389648</ele>
        <time>2025-08-10T11:27:50.000Z</time>
      </trkpt>
      <trkpt lat="43.08879" lon="0.28874">
        <ele>451.20001220703</ele>
        <time>2025-08-10T11:27:55.000Z</time>
      </trkpt>
      <trkpt lat="43.08877" lon="0.2887">
        <ele>450.39999389648</ele>
        <time>2025-08-10T11:27:58.000Z</time>
      </trkpt>
      <trkpt lat="43.08877" lon="0.2887">
        <ele>450.20001220703</ele>
        <time>2025-08-10T11:27:59.000Z</time>
      </trkpt>
      <trkpt lat="43.08877" lon="0.2887">
        <ele>450.20001220703</ele>
        <time>2025-08-10T11:28:00.000Z</time>
      </trkpt>
      <trkpt lat="43.08875" lon="0.28864">
        <ele>448.60000610352</ele>
        <time>2025-08-10T11:29:02.000Z</time>
      </trkpt>
      <trkpt lat="43.08874" lon="0.28862">
        <ele>448.60000610352</ele>
        <time>2025-08-10T11:29:03.000Z</time>
      </trkpt>
      <trkpt lat="43.0887" lon="0.28853">
        <ele>447.60000610352</ele>
        <time>2025-08-10T11:29:08.000Z</time>
      </trkpt>
      <trkpt lat="43.08869" lon="0.2885">
        <ele>447.39999389648</ele>
        <time>2025-08-10T11:29:10.000Z</time>
      </trkpt>
      <trkpt lat="43.08867" lon="0.28848">
        <ele>446.60000610352</ele>
        <time>2025-08-10T11:29:12.000Z</time>
      </trkpt>
      <trkpt lat="43.08866" lon="0.28847">
        <ele>446.20001220703</ele>
        <time>2025-08-10T11:29:13.000Z</time>
      </trkpt>
      <trkpt lat="43.08862" lon="0.28843">
        <ele>445.39999389648</ele>
        <time>2025-08-10T11:29:17.000Z</time>
      </trkpt>
      <trkpt lat="43.08856" lon="0.2883">
        <ele>444.39999389648</ele>
        <time>2025-08-10T11:29:24.000Z</time>
      </trkpt>
      <trkpt lat="43.08854" lon="0.28826">
        <ele>444</ele>
        <time>2025-08-10T11:29:26.000Z</time>
      </trkpt>
      <trkpt lat="43.0885" lon="0.28817">
        <ele>443.20001220703</ele>
        <time>2025-08-10T11:29:30.000Z</time>
      </trkpt>
      <trkpt lat="43.08848" lon="0.28812">
        <ele>442.39999389648</ele>
        <time>2025-08-10T11:29:32.000Z</time>
      </trkpt>
      <trkpt lat="43.08846" lon="0.28805">
        <ele>442</ele>
        <time>2025-08-10T11:29:34.000Z</time>
      </trkpt>
      <trkpt lat="43.08842" lon="0.28794">
        <ele>441</ele>
        <time>2025-08-10T11:29:39.000Z</time>
      </trkpt>
      <trkpt lat="43.0884" lon="0.28792">
        <ele>441</ele>
        <time>2025-08-10T11:29:40.000Z</time>
      </trkpt>
      <trkpt lat="43.08834" lon="0.28768">
        <ele>440.20001220703</ele>
        <time>2025-08-10T11:29:47.000Z</time>
      </trkpt>
      <trkpt lat="43.08833" lon="0.28764">
        <ele>440</ele>
        <time>2025-08-10T11:29:48.000Z</time>
      </trkpt>
      <trkpt lat="43.08827" lon="0.28742">
        <ele>439.20001220703</ele>
        <time>2025-08-10T11:29:53.000Z</time>
      </trkpt>
      <trkpt lat="43.08818" lon="0.28717">
        <ele>438.60000610352</ele>
        <time>2025-08-10T11:29:58.000Z</time>
      </trkpt>
      <trkpt lat="43.08816" lon="0.2871">
        <ele>438</ele>
        <time>2025-08-10T11:30:00.000Z</time>
      </trkpt>
      <trkpt lat="43.08808" lon="0.28694">
        <ele>437.20001220703</ele>
        <time>2025-08-10T11:30:04.000Z</time>
      </trkpt>
      <trkpt lat="43.08806" lon="0.28691">
        <ele>437</ele>
        <time>2025-08-10T11:30:05.000Z</time>
      </trkpt>
      <trkpt lat="43.08793" lon="0.28671">
        <ele>436</ele>
        <time>2025-08-10T11:30:11.000Z</time>
      </trkpt>
      <trkpt lat="43.0879" lon="0.28668">
        <ele>435.79998779297</ele>
        <time>2025-08-10T11:30:12.000Z</time>
      </trkpt>
      <trkpt lat="43.08779" lon="0.28652">
        <ele>434.79998779297</ele>
        <time>2025-08-10T11:30:17.000Z</time>
      </trkpt>
      <trkpt lat="43.08769" lon="0.28637">
        <ele>433.79998779297</ele>
        <time>2025-08-10T11:30:22.000Z</time>
      </trkpt>
      <trkpt lat="43.08765" lon="0.28631">
        <ele>433</ele>
        <time>2025-08-10T11:30:24.000Z</time>
      </trkpt>
      <trkpt lat="43.08764" lon="0.28629">
        <ele>432.79998779297</ele>
        <time>2025-08-10T11:30:25.000Z</time>
      </trkpt>
      <trkpt lat="43.08756" lon="0.28617">
        <ele>431.60000610352</ele>
        <time>2025-08-10T11:30:29.000Z</time>
      </trkpt>
      <trkpt lat="43.08754" lon="0.28613">
        <ele>430.79998779297</ele>
        <time>2025-08-10T11:30:30.000Z</time>
      </trkpt>
      <trkpt lat="43.08751" lon="0.28605">
        <ele>430.39999389648</ele>
        <time>2025-08-10T11:30:32.000Z</time>
      </trkpt>
      <trkpt lat="43.08746" lon="0.28595">
        <ele>429.60000610352</ele>
        <time>2025-08-10T11:30:35.000Z</time>
      </trkpt>
      <trkpt lat="43.08743" lon="0.28588">
        <ele>428</ele>
        <time>2025-08-10T11:30:37.000Z</time>
      </trkpt>
      <trkpt lat="43.08737" lon="0.28576">
        <ele>426.39999389648</ele>
        <time>2025-08-10T11:30:40.000Z</time>
      </trkpt>
      <trkpt lat="43.08732" lon="0.28563">
        <ele>425.60000610352</ele>
        <time>2025-08-10T11:30:43.000Z</time>
      </trkpt>
      <trkpt lat="43.08731" lon="0.2856">
        <ele>425.39999389648</ele>
        <time>2025-08-10T11:30:44.000Z</time>
      </trkpt>
      <trkpt lat="43.0873" lon="0.28556">
        <ele>425</ele>
        <time>2025-08-10T11:30:45.000Z</time>
      </trkpt>
      <trkpt lat="43.08727" lon="0.28546">
        <ele>424</ele>
        <time>2025-08-10T11:30:48.000Z</time>
      </trkpt>
      <trkpt lat="43.08725" lon="0.28537">
        <ele>422.79998779297</ele>
        <time>2025-08-10T11:30:50.000Z</time>
      </trkpt>
      <trkpt lat="43.08724" lon="0.28532">
        <ele>422.60000610352</ele>
        <time>2025-08-10T11:30:51.000Z</time>
      </trkpt>
      <trkpt lat="43.08723" lon="0.28523">
        <ele>421.79998779297</ele>
        <time>2025-08-10T11:30:53.000Z</time>
      </trkpt>
      <trkpt lat="43.08718" lon="0.28503">
        <ele>420</ele>
        <time>2025-08-10T11:30:57.000Z</time>
      </trkpt>
      <trkpt lat="43.08716" lon="0.28494">
        <ele>419</ele>
        <time>2025-08-10T11:30:59.000Z</time>
      </trkpt>
      <trkpt lat="43.08715" lon="0.28491">
        <ele>418.79998779297</ele>
        <time>2025-08-10T11:31:00.000Z</time>
      </trkpt>
      <trkpt lat="43.08715" lon="0.28485">
        <ele>417.79998779297</ele>
        <time>2025-08-10T11:31:02.000Z</time>
      </trkpt>
      <trkpt lat="43.08714" lon="0.28481">
        <ele>416.60000610352</ele>
        <time>2025-08-10T11:31:04.000Z</time>
      </trkpt>
      <trkpt lat="43.08711" lon="0.2847">
        <ele>415</ele>
        <time>2025-08-10T11:31:08.000Z</time>
      </trkpt>
      <trkpt lat="43.08709" lon="0.28461">
        <ele>414</ele>
        <time>2025-08-10T11:31:11.000Z</time>
      </trkpt>
      <trkpt lat="43.08705" lon="0.28446">
        <ele>412.39999389648</ele>
        <time>2025-08-10T11:31:16.000Z</time>
      </trkpt>
      <trkpt lat="43.08705" lon="0.28445">
        <ele>412</ele>
        <time>2025-08-10T11:31:17.000Z</time>
      </trkpt>
      <trkpt lat="43.08704" lon="0.28441">
        <ele>411.39999389648</ele>
        <time>2025-08-10T11:31:19.000Z</time>
      </trkpt>
      <trkpt lat="43.08703" lon="0.28437">
        <ele>410.20001220703</ele>
        <time>2025-08-10T11:31:22.000Z</time>
      </trkpt>
      <trkpt lat="43.087" lon="0.28431">
        <ele>409.20001220703</ele>
        <time>2025-08-10T11:31:25.000Z</time>
      </trkpt>
      <trkpt lat="43.08696" lon="0.28424">
        <ele>408</ele>
        <time>2025-08-10T11:31:29.000Z</time>
      </trkpt>
      <trkpt lat="43.08695" lon="0.28419">
        <ele>407.20001220703</ele>
        <time>2025-08-10T11:31:32.000Z</time>
      </trkpt>
      <trkpt lat="43.08694" lon="0.28415">
        <ele>406.79998779297</ele>
        <time>2025-08-10T11:31:34.000Z</time>
      </trkpt>
      <trkpt lat="43.08693" lon="0.28414">
        <ele>406.60000610352</ele>
        <time>2025-08-10T11:31:35.000Z</time>
      </trkpt>
      <trkpt lat="43.08692" lon="0.28414">
        <ele>405.60000610352</ele>
        <time>2025-08-10T11:31:37.000Z</time>
      </trkpt>
      <trkpt lat="43.08692" lon="0.28414">
        <ele>405.39999389648</ele>
        <time>2025-08-10T11:31:38.000Z</time>
      </trkpt>
      <trkpt lat="43.0866" lon="0.2833">
        <ele>392.79998779297</ele>
        <time>2025-08-10T11:34:27.000Z</time>
      </trkpt>
      <trkpt lat="43.08659" lon="0.28328">
        <ele>392.60000610352</ele>
        <time>2025-08-10T11:34:28.000Z</time>
      </trkpt>
      <trkpt lat="43.08657" lon="0.28325">
        <ele>392.60000610352</ele>
        <time>2025-08-10T11:34:30.000Z</time>
      </trkpt>
      <trkpt lat="43.08654" lon="0.28321">
        <ele>391.79998779297</ele>
        <time>2025-08-10T11:34:34.000Z</time>
      </trkpt>
      <trkpt lat="43.08654" lon="0.2832">
        <ele>391.60000610352</ele>
        <time>2025-08-10T11:34:35.000Z</time>
      </trkpt>
      <trkpt lat="43.08653" lon="0.28318">
        <ele>391.39999389648</ele>
        <time>2025-08-10T11:34:36.000Z</time>
      </trkpt>
      <trkpt lat="43.08652" lon="0.28316">
        <ele>390.39999389648</ele>
        <time>2025-08-10T11:34:38.000Z</time>
      </trkpt>
      <trkpt lat="43.08647" lon="0.28311">
        <ele>389.20001220703</ele>
        <time>2025-08-10T11:34:43.000Z</time>
      </trkpt>
      <trkpt lat="43.08643" lon="0.28307">
        <ele>388.60000610352</ele>
        <time>2025-08-10T11:34:45.000Z</time>
      </trkpt>
      <trkpt lat="43.0864" lon="0.28304">
        <ele>388.39999389648</ele>
        <time>2025-08-10T11:34:47.000Z</time>
      </trkpt>
      <trkpt lat="43.08633" lon="0.28296">
        <ele>387.20001220703</ele>
        <time>2025-08-10T11:34:51.000Z</time>
      </trkpt>
      <trkpt lat="43.08631" lon="0.28294">
        <ele>386.79998779297</ele>
        <time>2025-08-10T11:34:52.000Z</time>
      </trkpt>
      <trkpt lat="43.0863" lon="0.28293">
        <ele>386.60000610352</ele>
        <time>2025-08-10T11:34:53.000Z</time>
      </trkpt>
      <trkpt lat="43.08627" lon="0.2829">
        <ele>386.20001220703</ele>
        <time>2025-08-10T11:34:55.000Z</time>
      </trkpt>
      <trkpt lat="43.08625" lon="0.28288">
        <ele>386</ele>
        <time>2025-08-10T11:34:56.000Z</time>
      </trkpt>
      <trkpt lat="43.08617" lon="0.28281">
        <ele>385</ele>
        <time>2025-08-10T11:34:59.000Z</time>
      </trkpt>
      <trkpt lat="43.08608" lon="0.28272">
        <ele>384.39999389648</ele>
        <time>2025-08-10T11:35:02.000Z</time>
      </trkpt>
      <trkpt lat="43.08603" lon="0.28266">
        <ele>383.60000610352</ele>
        <time>2025-08-10T11:35:04.000Z</time>
      </trkpt>
      <trkpt lat="43.08594" lon="0.28257">
        <ele>382.39999389648</ele>
        <time>2025-08-10T11:35:08.000Z</time>
      </trkpt>
      <trkpt lat="43.08592" lon="0.28255">
        <ele>381.79998779297</ele>
        <time>2025-08-10T11:35:09.000Z</time>
      </trkpt>
      <trkpt lat="43.08586" lon="0.28252">
        <ele>381</ele>
        <time>2025-08-10T11:35:11.000Z</time>
      </trkpt>
      <trkpt lat="43.08584" lon="0.28254">
        <ele>380.79998779297</ele>
        <time>2025-08-10T11:35:12.000Z</time>
      </trkpt>
      <trkpt lat="43.08578" lon="0.28257">
        <ele>379.79998779297</ele>
        <time>2025-08-10T11:35:14.000Z</time>
      </trkpt>
      <trkpt lat="43.08576" lon="0.28258">
        <ele>379.60000610352</ele>
        <time>2025-08-10T11:35:15.000Z</time>
      </trkpt>
      <trkpt lat="43.08575" lon="0.28264">
        <ele>378.60000610352</ele>
        <time>2025-08-10T11:35:17.000Z</time>
      </trkpt>
      <trkpt lat="43.08575" lon="0.28267">
        <ele>378.39999389648</ele>
        <time>2025-08-10T11:35:18.000Z</time>
      </trkpt>
      <trkpt lat="43.08578" lon="0.28277">
        <ele>377.60000610352</ele>
        <time>2025-08-10T11:35:21.000Z</time>
      </trkpt>
      <trkpt lat="43.08583" lon="0.28285">
        <ele>377</ele>
        <time>2025-08-10T11:35:24.000Z</time>
      </trkpt>
      <trkpt lat="43.08584" lon="0.28288">
        <ele>376.60000610352</ele>
        <time>2025-08-10T11:35:25.000Z</time>
      </trkpt>
      <trkpt lat="43.08586" lon="0.28295">
        <ele>375.20001220703</ele>
        <time>2025-08-10T11:35:28.000Z</time>
      </trkpt>
      <trkpt lat="43.08587" lon="0.283">
        <ele>374.60000610352</ele>
        <time>2025-08-10T11:35:30.000Z</time>
      </trkpt>
      <trkpt lat="43.08586" lon="0.28303">
        <ele>374</ele>
        <time>2025-08-10T11:35:31.000Z</time>
      </trkpt>
      <trkpt lat="43.08586" lon="0.28305">
        <ele>373.39999389648</ele>
        <time>2025-08-10T11:35:32.000Z</time>
      </trkpt>
      <trkpt lat="43.08582" lon="0.28308">
        <ele>373</ele>
        <time>2025-08-10T11:35:34.000Z</time>
      </trkpt>
      <trkpt lat="43.08577" lon="0.28307">
        <ele>372.60000610352</ele>
        <time>2025-08-10T11:35:36.000Z</time>
      </trkpt>
      <trkpt lat="43.08569" lon="0.28302">
        <ele>372.20001220703</ele>
        <time>2025-08-10T11:35:38.000Z</time>
      </trkpt>
      <trkpt lat="43.08565" lon="0.283">
        <ele>371.79998779297</ele>
        <time>2025-08-10T11:35:39.000Z</time>
      </trkpt>
      <trkpt lat="43.08554" lon="0.28294">
        <ele>371.20001220703</ele>
        <time>2025-08-10T11:35:43.000Z</time>
      </trkpt>
      <trkpt lat="43.08553" lon="0.28294">
        <ele>370.79998779297</ele>
        <time>2025-08-10T11:35:45.000Z</time>
      </trkpt>
      <trkpt lat="43.08553" lon="0.28294">
        <ele>370.60000610352</ele>
        <time>2025-08-10T11:35:46.000Z</time>
      </trkpt>
      <trkpt lat="43.08549" lon="0.2829">
        <ele>370.79998779297</ele>
        <time>2025-08-10T11:37:23.000Z</time>
      </trkpt>
      <trkpt lat="43.08546" lon="0.28286">
        <ele>370.60000610352</ele>
        <time>2025-08-10T11:37:25.000Z</time>
      </trkpt>
      <trkpt lat="43.08534" lon="0.28269">
        <ele>370.20001220703</ele>
        <time>2025-08-10T11:37:30.000Z</time>
      </trkpt>
      <trkpt lat="43.08532" lon="0.28266">
        <ele>370</ele>
        <time>2025-08-10T11:37:31.000Z</time>
      </trkpt>
      <trkpt lat="43.08521" lon="0.28252">
        <ele>368.60000610352</ele>
        <time>2025-08-10T11:37:35.000Z</time>
      </trkpt>
      <trkpt lat="43.08518" lon="0.28249">
        <ele>368.39999389648</ele>
        <time>2025-08-10T11:37:36.000Z</time>
      </trkpt>
      <trkpt lat="43.08509" lon="0.28239">
        <ele>368</ele>
        <time>2025-08-10T11:37:42.000Z</time>
      </trkpt>
      <trkpt lat="43.08508" lon="0.28239">
        <ele>367.79998779297</ele>
        <time>2025-08-10T11:37:45.000Z</time>
      </trkpt>
      <trkpt lat="43.08504" lon="0.28243">
        <ele>367</ele>
        <time>2025-08-10T11:38:34.000Z</time>
      </trkpt>
      <trkpt lat="43.08503" lon="0.28245">
        <ele>367</ele>
        <time>2025-08-10T11:38:35.000Z</time>
      </trkpt>
      <trkpt lat="43.08497" lon="0.28257">
        <ele>367</ele>
        <time>2025-08-10T11:38:41.000Z</time>
      </trkpt>
      <trkpt lat="43.08496" lon="0.28258">
        <ele>367</ele>
        <time>2025-08-10T11:38:42.000Z</time>
      </trkpt>
      <trkpt lat="43.08494" lon="0.28261">
        <ele>367</ele>
        <time>2025-08-10T11:38:44.000Z</time>
      </trkpt>
      <trkpt lat="43.08493" lon="0.28264">
        <ele>367</ele>
        <time>2025-08-10T11:38:46.000Z</time>
      </trkpt>
      <trkpt lat="43.08492" lon="0.28265">
        <ele>367</ele>
        <time>2025-08-10T11:38:47.000Z</time>
      </trkpt>
      <trkpt lat="43.0849" lon="0.28268">
        <ele>367.20001220703</ele>
        <time>2025-08-10T11:38:49.000Z</time>
      </trkpt>
      <trkpt lat="43.08486" lon="0.28272">
        <ele>367.60000610352</ele>
        <time>2025-08-10T11:38:52.000Z</time>
      </trkpt>
      <trkpt lat="43.08483" lon="0.28278">
        <ele>367.79998779297</ele>
        <time>2025-08-10T11:38:55.000Z</time>
      </trkpt>
      <trkpt lat="43.08476" lon="0.28288">
        <ele>368</ele>
        <time>2025-08-10T11:39:00.000Z</time>
      </trkpt>
      <trkpt lat="43.08473" lon="0.28294">
        <ele>368</ele>
        <time>2025-08-10T11:39:03.000Z</time>
      </trkpt>
      <trkpt lat="43.08473" lon="0.28294">
        <ele>368</ele>
        <time>2025-08-10T11:39:05.000Z</time>
      </trkpt>
      <trkpt lat="43.08473" lon="0.28294">
        <ele>368</ele>
        <time>2025-08-10T11:39:06.000Z</time>
      </trkpt>
      <trkpt lat="43.08479" lon="0.28283">
        <ele>368.39999389648</ele>
        <time>2025-08-10T11:39:31.000Z</time>
      </trkpt>
      <trkpt lat="43.08481" lon="0.2828">
        <ele>368.39999389648</ele>
        <time>2025-08-10T11:39:33.000Z</time>
      </trkpt>
      <trkpt lat="43.0849" lon="0.28266">
        <ele>368.39999389648</ele>
        <time>2025-08-10T11:39:39.000Z</time>
      </trkpt>
      <trkpt lat="43.08498" lon="0.2825">
        <ele>368.20001220703</ele>
        <time>2025-08-10T11:39:46.000Z</time>
      </trkpt>
      <trkpt lat="43.085" lon="0.28245">
        <ele>368.20001220703</ele>
        <time>2025-08-10T11:39:48.000Z</time>
      </trkpt>
      <trkpt lat="43.08505" lon="0.28238">
        <ele>368.20001220703</ele>
        <time>2025-08-10T11:39:51.000Z</time>
      </trkpt>
      <trkpt lat="43.08516" lon="0.2822">
        <ele>368</ele>
        <time>2025-08-10T11:39:56.000Z</time>
      </trkpt>
      <trkpt lat="43.08533" lon="0.28196">
        <ele>367.39999389648</ele>
        <time>2025-08-10T11:40:02.000Z</time>
      </trkpt>
      <trkpt lat="43.08539" lon="0.28187">
        <ele>367.39999389648</ele>
        <time>2025-08-10T11:40:03.000Z</time>
      </trkpt>
      <trkpt lat="43.08549" lon="0.2817">
        <ele>367</ele>
        <time>2025-08-10T11:40:08.000Z</time>
      </trkpt>
      <trkpt lat="43.08558" lon="0.28142">
        <ele>366.60000610352</ele>
        <time>2025-08-10T11:40:14.000Z</time>
      </trkpt>
      <trkpt lat="43.08563" lon="0.28128">
        <ele>366.39999389648</ele>
        <time>2025-08-10T11:40:19.000Z</time>
      </trkpt>
      <trkpt lat="43.08566" lon="0.28122">
        <ele>366.39999389648</ele>
        <time>2025-08-10T11:40:21.000Z</time>
      </trkpt>
      <trkpt lat="43.0857" lon="0.28114">
        <ele>366.20001220703</ele>
        <time>2025-08-10T11:40:27.000Z</time>
      </trkpt>
      <trkpt lat="43.08571" lon="0.28111">
        <ele>366.39999389648</ele>
        <time>2025-08-10T11:40:30.000Z</time>
      </trkpt>
      <trkpt lat="43.08571" lon="0.2811">
        <ele>366.39999389648</ele>
        <time>2025-08-10T11:40:33.000Z</time>
      </trkpt>
      <trkpt lat="43.08575" lon="0.281">
        <ele>366.39999389648</ele>
        <time>2025-08-10T11:40:40.000Z</time>
      </trkpt>
      <trkpt lat="43.08576" lon="0.28099">
        <ele>366.39999389648</ele>
        <time>2025-08-10T11:40:41.000Z</time>
      </trkpt>
      <trkpt lat="43.08577" lon="0.28101">
        <ele>366.39999389648</ele>
        <time>2025-08-10T11:40:43.000Z</time>
      </trkpt>
      <trkpt lat="43.08579" lon="0.28105">
        <ele>366.20001220703</ele>
        <time>2025-08-10T11:40:45.000Z</time>
      </trkpt>
      <trkpt lat="43.08582" lon="0.28107">
        <ele>366.20001220703</ele>
        <time>2025-08-10T11:40:47.000Z</time>
      </trkpt>
      <trkpt lat="43.08582" lon="0.28107">
        <ele>366</ele>
        <time>2025-08-10T11:40:48.000Z</time>
      </trkpt>
      <trkpt lat="43.08583" lon="0.28107">
        <ele>365.79998779297</ele>
        <time>2025-08-10T11:40:50.000Z</time>
      </trkpt>
      <trkpt lat="43.08589" lon="0.28023">
        <ele>373.20001220703</ele>
        <time>2025-08-10T13:18:20.000Z</time>
      </trkpt>
      <trkpt lat="43.08587" lon="0.28021">
        <ele>373.20001220703</ele>
        <time>2025-08-10T13:18:21.000Z</time>
      </trkpt>
      <trkpt lat="43.08586" lon="0.28018">
        <ele>373</ele>
        <time>2025-08-10T13:18:23.000Z</time>
      </trkpt>
      <trkpt lat="43.08583" lon="0.28012">
        <ele>373</ele>
        <time>2025-08-10T13:18:26.000Z</time>
      </trkpt>
      <trkpt lat="43.08582" lon="0.2801">
        <ele>373</ele>
        <time>2025-08-10T13:18:27.000Z</time>
      </trkpt>
      <trkpt lat="43.08574" lon="0.28002">
        <ele>373</ele>
        <time>2025-08-10T13:18:32.000Z</time>
      </trkpt>
      <trkpt lat="43.08566" lon="0.27991">
        <ele>373.60000610352</ele>
        <time>2025-08-10T13:18:38.000Z</time>
      </trkpt>
      <trkpt lat="43.08557" lon="0.27977">
        <ele>373.79998779297</ele>
        <time>2025-08-10T13:18:43.000Z</time>
      </trkpt>
      <trkpt lat="43.08557" lon="0.27973">
        <ele>374.20001220703</ele>
        <time>2025-08-10T13:18:45.000Z</time>
      </trkpt>
      <trkpt lat="43.08559" lon="0.27973">
        <ele>375.20001220703</ele>
        <time>2025-08-10T13:18:47.000Z</time>
      </trkpt>
      <trkpt lat="43.08562" lon="0.27973">
        <ele>376.39999389648</ele>
        <time>2025-08-10T13:18:50.000Z</time>
      </trkpt>
      <trkpt lat="43.08565" lon="0.27973">
        <ele>377</ele>
        <time>2025-08-10T13:18:52.000Z</time>
      </trkpt>
      <trkpt lat="43.08565" lon="0.27973">
        <ele>377</ele>
        <time>2025-08-10T13:18:53.000Z</time>
      </trkpt>
      <trkpt lat="43.08565" lon="0.27973">
        <ele>377.20001220703</ele>
        <time>2025-08-10T13:18:54.000Z</time>
      </trkpt>
      <trkpt lat="43.08578" lon="0.27962">
        <ele>377</ele>
        <time>2025-08-10T13:19:19.000Z</time>
      </trkpt>
      <trkpt lat="43.08581" lon="0.27961">
        <ele>376.60000610352</ele>
        <time>2025-08-10T13:19:22.000Z</time>
      </trkpt>
      <trkpt lat="43.08581" lon="0.2796">
        <ele>376.60000610352</ele>
        <time>2025-08-10T13:19:25.000Z</time>
      </trkpt>
      <trkpt lat="43.08587" lon="0.27952">
        <ele>376.79998779297</ele>
        <time>2025-08-10T13:20:05.000Z</time>
      </trkpt>
      <trkpt lat="43.08589" lon="0.27952">
        <ele>377</ele>
        <time>2025-08-10T13:20:07.000Z</time>
      </trkpt>
      <trkpt lat="43.0859" lon="0.27952">
        <ele>377</ele>
        <time>2025-08-10T13:20:08.000Z</time>
      </trkpt>
      <trkpt lat="43.08593" lon="0.27946">
        <ele>377</ele>
        <time>2025-08-10T13:20:14.000Z</time>
      </trkpt>
      <trkpt lat="43.08641" lon="0.27911">
        <ele>377.20001220703</ele>
        <time>2025-08-10T13:21:14.000Z</time>
      </trkpt>
      <trkpt lat="43.08644" lon="0.27909">
        <ele>377.20001220703</ele>
        <time>2025-08-10T13:21:17.000Z</time>
      </trkpt>
      <trkpt lat="43.08651" lon="0.27904">
        <ele>377.20001220703</ele>
        <time>2025-08-10T13:21:24.000Z</time>
      </trkpt>
      <trkpt lat="43.08652" lon="0.27902">
        <ele>377.20001220703</ele>
        <time>2025-08-10T13:21:25.000Z</time>
      </trkpt>
      <trkpt lat="43.08657" lon="0.27895">
        <ele>377.60000610352</ele>
        <time>2025-08-10T13:21:30.000Z</time>
      </trkpt>
      <trkpt lat="43.08658" lon="0.27894">
        <ele>377.60000610352</ele>
        <time>2025-08-10T13:21:32.000Z</time>
      </trkpt>
      <trkpt lat="43.0866" lon="0.27892">
        <ele>377.79998779297</ele>
        <time>2025-08-10T13:21:34.000Z</time>
      </trkpt>
      <trkpt lat="43.08663" lon="0.27891">
        <ele>378</ele>
        <time>2025-08-10T13:21:38.000Z</time>
      </trkpt>
      <trkpt lat="43.08664" lon="0.27891">
        <ele>378.20001220703</ele>
        <time>2025-08-10T13:21:39.000Z</time>
      </trkpt>
      <trkpt lat="43.08665" lon="0.2789">
        <ele>378.39999389648</ele>
        <time>2025-08-10T13:21:42.000Z</time>
      </trkpt>
      <trkpt lat="43.08815" lon="0.27573">
        <ele>401.39999389648</ele>
        <time>2025-08-10T13:34:02.000Z</time>
      </trkpt>
      <trkpt lat="43.08816" lon="0.2757">
        <ele>401.39999389648</ele>
        <time>2025-08-10T13:34:03.000Z</time>
      </trkpt>
      <trkpt lat="43.08829" lon="0.27549">
        <ele>401.39999389648</ele>
        <time>2025-08-10T13:34:09.000Z</time>
      </trkpt>
      <trkpt lat="43.08845" lon="0.27516">
        <ele>400.39999389648</ele>
        <time>2025-08-10T13:34:15.000Z</time>
      </trkpt>
      <trkpt lat="43.08848" lon="0.27509">
        <ele>400.39999389648</ele>
        <time>2025-08-10T13:34:16.000Z</time>
      </trkpt>
      <trkpt lat="43.08858" lon="0.27487">
        <ele>399.60000610352</ele>
        <time>2025-08-10T13:34:19.000Z</time>
      </trkpt>
      <trkpt lat="43.08862" lon="0.27479">
        <ele>399.39999389648</ele>
        <time>2025-08-10T13:34:20.000Z</time>
      </trkpt>
      <trkpt lat="43.08865" lon="0.27473">
        <ele>399.20001220703</ele>
        <time>2025-08-10T13:34:21.000Z</time>
      </trkpt>
      <trkpt lat="43.08872" lon="0.27458">
        <ele>398</ele>
        <time>2025-08-10T13:34:23.000Z</time>
      </trkpt>
      <trkpt lat="43.0888" lon="0.27444">
        <ele>396.79998779297</ele>
        <time>2025-08-10T13:34:25.000Z</time>
      </trkpt>
      <trkpt lat="43.08893" lon="0.27424">
        <ele>395.79998779297</ele>
        <time>2025-08-10T13:34:28.000Z</time>
      </trkpt>
      <trkpt lat="43.08909" lon="0.27404">
        <ele>394.39999389648</ele>
        <time>2025-08-10T13:34:31.000Z</time>
      </trkpt>
      <trkpt lat="43.08924" lon="0.27386">
        <ele>393.39999389648</ele>
        <time>2025-08-10T13:34:34.000Z</time>
      </trkpt>
      <trkpt lat="43.08933" lon="0.27376">
        <ele>392.79998779297</ele>
        <time>2025-08-10T13:34:36.000Z</time>
      </trkpt>
      <trkpt lat="43.08938" lon="0.27372">
        <ele>392.20001220703</ele>
        <time>2025-08-10T13:34:37.000Z</time>
      </trkpt>
      <trkpt lat="43.08947" lon="0.27363">
        <ele>390.79998779297</ele>
        <time>2025-08-10T13:34:39.000Z</time>
      </trkpt>
      <trkpt lat="43.08951" lon="0.27359">
        <ele>390.39999389648</ele>
        <time>2025-08-10T13:34:40.000Z</time>
      </trkpt>
      <trkpt lat="43.08955" lon="0.27354">
        <ele>389.60000610352</ele>
        <time>2025-08-10T13:34:41.000Z</time>
      </trkpt>
      <trkpt lat="43.08959" lon="0.27348">
        <ele>389.39999389648</ele>
        <time>2025-08-10T13:34:42.000Z</time>
      </trkpt>
      <trkpt lat="43.08961" lon="0.27342">
        <ele>388.79998779297</ele>
        <time>2025-08-10T13:34:43.000Z</time>
      </trkpt>
      <trkpt lat="43.08961" lon="0.27335">
        <ele>388.39999389648</ele>
        <time>2025-08-10T13:34:44.000Z</time>
      </trkpt>
      <trkpt lat="43.08956" lon="0.2732">
        <ele>387.39999389648</ele>
        <time>2025-08-10T13:34:46.000Z</time>
      </trkpt>
      <trkpt lat="43.08952" lon="0.27304">
        <ele>386.60000610352</ele>
        <time>2025-08-10T13:34:48.000Z</time>
      </trkpt>
      <trkpt lat="43.08952" lon="0.27296">
        <ele>386.20001220703</ele>
        <time>2025-08-10T13:34:49.000Z</time>
      </trkpt>
      <trkpt lat="43.08953" lon="0.27287">
        <ele>385.39999389648</ele>
        <time>2025-08-10T13:34:50.000Z</time>
      </trkpt>
      <trkpt lat="43.08956" lon="0.2728">
        <ele>384.79998779297</ele>
        <time>2025-08-10T13:34:51.000Z</time>
      </trkpt>
      <trkpt lat="43.0896" lon="0.27274">
        <ele>384.39999389648</ele>
        <time>2025-08-10T13:34:52.000Z</time>
      </trkpt>
      <trkpt lat="43.08969" lon="0.27263">
        <ele>383.60000610352</ele>
        <time>2025-08-10T13:34:54.000Z</time>
      </trkpt>
      <trkpt lat="43.08987" lon="0.27244">
        <ele>382.79998779297</ele>
        <time>2025-08-10T13:34:58.000Z</time>
      </trkpt>
      <trkpt lat="43.0899" lon="0.27239">
        <ele>382.79998779297</ele>
        <time>2025-08-10T13:34:59.000Z</time>
      </trkpt>
      <trkpt lat="43.09" lon="0.27224">
        <ele>382.60000610352</ele>
        <time>2025-08-10T13:35:02.000Z</time>
      </trkpt>
      <trkpt lat="43.09003" lon="0.27218">
        <ele>382.60000610352</ele>
        <time>2025-08-10T13:35:03.000Z</time>
      </trkpt>
      <trkpt lat="43.09008" lon="0.27206">
        <ele>382.60000610352</ele>
        <time>2025-08-10T13:35:05.000Z</time>
      </trkpt>
      <trkpt lat="43.09019" lon="0.27163">
        <ele>381.60000610352</ele>
        <time>2025-08-10T13:35:10.000Z</time>
      </trkpt>
      <trkpt lat="43.09024" lon="0.27124">
        <ele>380.60000610352</ele>
        <time>2025-08-10T13:35:14.000Z</time>
      </trkpt>
      <trkpt lat="43.09025" lon="0.27115">
        <ele>380.39999389648</ele>
        <time>2025-08-10T13:35:15.000Z</time>
      </trkpt>
      <trkpt lat="43.09027" lon="0.27105">
        <ele>379.79998779297</ele>
        <time>2025-08-10T13:35:16.000Z</time>
      </trkpt>
      <trkpt lat="43.09032" lon="0.27087">
        <ele>379.60000610352</ele>
        <time>2025-08-10T13:35:18.000Z</time>
      </trkpt>
      <trkpt lat="43.09042" lon="0.27051">
        <ele>378.60000610352</ele>
        <time>2025-08-10T13:35:22.000Z</time>
      </trkpt>
      <trkpt lat="43.09045" lon="0.27043">
        <ele>378.20001220703</ele>
        <time>2025-08-10T13:35:23.000Z</time>
      </trkpt>
      <trkpt lat="43.09055" lon="0.27009">
        <ele>377.20001220703</ele>
        <time>2025-08-10T13:35:27.000Z</time>
      </trkpt>
      <trkpt lat="43.09063" lon="0.26973">
        <ele>375.79998779297</ele>
        <time>2025-08-10T13:35:31.000Z</time>
      </trkpt>
      <trkpt lat="43.09073" lon="0.26921">
        <ele>374.60000610352</ele>
        <time>2025-08-10T13:35:37.000Z</time>
      </trkpt>
      <trkpt lat="43.09077" lon="0.26894">
        <ele>374.20001220703</ele>
        <time>2025-08-10T13:35:40.000Z</time>
      </trkpt>
      <trkpt lat="43.09081" lon="0.26833">
        <ele>373.79998779297</ele>
        <time>2025-08-10T13:35:47.000Z</time>
      </trkpt>
      <trkpt lat="43.09081" lon="0.26779">
        <ele>373.39999389648</ele>
        <time>2025-08-10T13:35:53.000Z</time>
      </trkpt>
      <trkpt lat="43.0908" lon="0.26753">
        <ele>372.79998779297</ele>
        <time>2025-08-10T13:35:56.000Z</time>
      </trkpt>
      <trkpt lat="43.09078" lon="0.26723">
        <ele>372.20001220703</ele>
        <time>2025-08-10T13:35:59.000Z</time>
      </trkpt>
      <trkpt lat="43.09078" lon="0.26703">
        <ele>371.60000610352</ele>
        <time>2025-08-10T13:36:01.000Z</time>
      </trkpt>
      <trkpt lat="43.09078" lon="0.26662">
        <ele>370.79998779297</ele>
        <time>2025-08-10T13:36:05.000Z</time>
      </trkpt>
      <trkpt lat="43.09079" lon="0.26652">
        <ele>370.60000610352</ele>
        <time>2025-08-10T13:36:06.000Z</time>
      </trkpt>
      <trkpt lat="43.09089" lon="0.26612">
        <ele>369.79998779297</ele>
        <time>2025-08-10T13:36:10.000Z</time>
      </trkpt>
      <trkpt lat="43.09093" lon="0.26603">
        <ele>369.60000610352</ele>
        <time>2025-08-10T13:36:11.000Z</time>
      </trkpt>
      <trkpt lat="43.09097" lon="0.26595">
        <ele>369.39999389648</ele>
        <time>2025-08-10T13:36:12.000Z</time>
      </trkpt>
      <trkpt lat="43.0911" lon="0.26569">
        <ele>368.79998779297</ele>
        <time>2025-08-10T13:36:16.000Z</time>
      </trkpt>
      <trkpt lat="43.09113" lon="0.26563">
        <ele>368.60000610352</ele>
        <time>2025-08-10T13:36:17.000Z</time>
      </trkpt>
      <trkpt lat="43.09118" lon="0.26542">
        <ele>368.39999389648</ele>
        <time>2025-08-10T13:36:20.000Z</time>
      </trkpt>
      <trkpt lat="43.09133" lon="0.26482">
        <ele>367.79998779297</ele>
        <time>2025-08-10T13:36:28.000Z</time>
      </trkpt>
      <trkpt lat="43.09142" lon="0.26451">
        <ele>367.60000610352</ele>
        <time>2025-08-10T13:36:33.000Z</time>
      </trkpt>
      <trkpt lat="43.09145" lon="0.26428">
        <ele>367.39999389648</ele>
        <time>2025-08-10T13:36:38.000Z</time>
      </trkpt>
      <trkpt lat="43.09147" lon="0.26408">
        <ele>367.39999389648</ele>
        <time>2025-08-10T13:36:42.000Z</time>
      </trkpt>
      <trkpt lat="43.09147" lon="0.26393">
        <ele>367.20001220703</ele>
        <time>2025-08-10T13:36:45.000Z</time>
      </trkpt>
      <trkpt lat="43.09149" lon="0.26358">
        <ele>367</ele>
        <time>2025-08-10T13:36:52.000Z</time>
      </trkpt>
      <trkpt lat="43.09149" lon="0.26324">
        <ele>367.20001220703</ele>
        <time>2025-08-10T13:36:59.000Z</time>
      </trkpt>
      <trkpt lat="43.0915" lon="0.26311">
        <ele>367.60000610352</ele>
        <time>2025-08-10T13:37:03.000Z</time>
      </trkpt>
      <trkpt lat="43.09151" lon="0.26296">
        <ele>367.79998779297</ele>
        <time>2025-08-10T13:37:08.000Z</time>
      </trkpt>
      <trkpt lat="43.09151" lon="0.26278">
        <ele>368.60000610352</ele>
        <time>2025-08-10T13:37:14.000Z</time>
      </trkpt>
      <trkpt lat="43.09153" lon="0.2627">
        <ele>369</ele>
        <time>2025-08-10T13:37:17.000Z</time>
      </trkpt>
      <trkpt lat="43.09154" lon="0.26253">
        <ele>369.60000610352</ele>
        <time>2025-08-10T13:37:23.000Z</time>
      </trkpt>
      <trkpt lat="43.09154" lon="0.2625">
        <ele>369.79998779297</ele>
        <time>2025-08-10T13:37:24.000Z</time>
      </trkpt>
      <trkpt lat="43.09155" lon="0.26214">
        <ele>370.20001220703</ele>
        <time>2025-08-10T13:37:34.000Z</time>
      </trkpt>
      <trkpt lat="43.09156" lon="0.26202">
        <ele>370.20001220703</ele>
        <time>2025-08-10T13:37:38.000Z</time>
      </trkpt>
      <trkpt lat="43.09153" lon="0.26197">
        <ele>370.20001220703</ele>
        <time>2025-08-10T13:37:40.000Z</time>
      </trkpt>
      <trkpt lat="43.09151" lon="0.26195">
        <ele>370.20001220703</ele>
        <time>2025-08-10T13:37:41.000Z</time>
      </trkpt>
      <trkpt lat="43.09144" lon="0.26194">
        <ele>370.20001220703</ele>
        <time>2025-08-10T13:37:44.000Z</time>
      </trkpt>
      <trkpt lat="43.09125" lon="0.26199">
        <ele>370.60000610352</ele>
        <time>2025-08-10T13:37:52.000Z</time>
      </trkpt>
      <trkpt lat="43.0911" lon="0.26206">
        <ele>370.79998779297</ele>
        <time>2025-08-10T13:37:59.000Z</time>
      </trkpt>
      <trkpt lat="43.09107" lon="0.26206">
        <ele>371</ele>
        <time>2025-08-10T13:38:00.000Z</time>
      </trkpt>
      <trkpt lat="43.09105" lon="0.26207">
        <ele>371</ele>
        <time>2025-08-10T13:38:01.000Z</time>
      </trkpt>
      <trkpt lat="43.09099" lon="0.26206">
        <ele>371.20001220703</ele>
        <time>2025-08-10T13:38:04.000Z</time>
      </trkpt>
      <trkpt lat="43.09097" lon="0.26203">
        <ele>371.20001220703</ele>
        <time>2025-08-10T13:38:05.000Z</time>
      </trkpt>
      <trkpt lat="43.0909" lon="0.26179">
        <ele>371.79998779297</ele>
        <time>2025-08-10T13:38:13.000Z</time>
      </trkpt>
      <trkpt lat="43.0909" lon="0.26173">
        <ele>372</ele>
        <time>2025-08-10T13:38:15.000Z</time>
      </trkpt>
      <trkpt lat="43.09089" lon="0.2617">
        <ele>372.20001220703</ele>
        <time>2025-08-10T13:38:16.000Z</time>
      </trkpt>
      <trkpt lat="43.09086" lon="0.26167">
        <ele>372.39999389648</ele>
        <time>2025-08-10T13:38:18.000Z</time>
      </trkpt>
      <trkpt lat="43.09082" lon="0.26164">
        <ele>372.60000610352</ele>
        <time>2025-08-10T13:38:20.000Z</time>
      </trkpt>
      <trkpt lat="43.0908" lon="0.26153">
        <ele>372.79998779297</ele>
        <time>2025-08-10T13:38:23.000Z</time>
      </trkpt>
      <trkpt lat="43.09083" lon="0.26124">
        <ele>372.60000610352</ele>
        <time>2025-08-10T13:38:30.000Z</time>
      </trkpt>
      <trkpt lat="43.09084" lon="0.26098">
        <ele>372.39999389648</ele>
        <time>2025-08-10T13:38:35.000Z</time>
      </trkpt>
      <trkpt lat="43.0909" lon="0.26073">
        <ele>372</ele>
        <time>2025-08-10T13:38:40.000Z</time>
      </trkpt>
      <trkpt lat="43.0909" lon="0.26061">
        <ele>371.39999389648</ele>
        <time>2025-08-10T13:38:43.000Z</time>
      </trkpt>
      <trkpt lat="43.09088" lon="0.26058">
        <ele>371</ele>
        <time>2025-08-10T13:38:44.000Z</time>
      </trkpt>
      <trkpt lat="43.09086" lon="0.26055">
        <ele>370.79998779297</ele>
        <time>2025-08-10T13:38:45.000Z</time>
      </trkpt>
      <trkpt lat="43.09072" lon="0.26041">
        <ele>370.20001220703</ele>
        <time>2025-08-10T13:38:50.000Z</time>
      </trkpt>
      <trkpt lat="43.0907" lon="0.26038">
        <ele>370.20001220703</ele>
        <time>2025-08-10T13:38:51.000Z</time>
      </trkpt>
      <trkpt lat="43.09064" lon="0.26024">
        <ele>370.20001220703</ele>
        <time>2025-08-10T13:38:55.000Z</time>
      </trkpt>
      <trkpt lat="43.09059" lon="0.26006">
        <ele>370.39999389648</ele>
        <time>2025-08-10T13:39:00.000Z</time>
      </trkpt>
      <trkpt lat="43.09052" lon="0.25978">
        <ele>371</ele>
        <time>2025-08-10T13:39:08.000Z</time>
      </trkpt>
      <trkpt lat="43.09042" lon="0.25963">
        <ele>371.60000610352</ele>
        <time>2025-08-10T13:39:14.000Z</time>
      </trkpt>
      <trkpt lat="43.09038" lon="0.25954">
        <ele>372</ele>
        <time>2025-08-10T13:39:18.000Z</time>
      </trkpt>
      <trkpt lat="43.09037" lon="0.25947">
        <ele>372.20001220703</ele>
        <time>2025-08-10T13:39:21.000Z</time>
      </trkpt>
      <trkpt lat="43.09036" lon="0.25932">
        <ele>372.79998779297</ele>
        <time>2025-08-10T13:39:27.000Z</time>
      </trkpt>
      <trkpt lat="43.09036" lon="0.25928">
        <ele>373.20001220703</ele>
        <time>2025-08-10T13:39:29.000Z</time>
      </trkpt>
      <trkpt lat="43.09037" lon="0.25914">
        <ele>373.79998779297</ele>
        <time>2025-08-10T13:39:34.000Z</time>
      </trkpt>
      <trkpt lat="43.09035" lon="0.25907">
        <ele>374</ele>
        <time>2025-08-10T13:39:37.000Z</time>
      </trkpt>
      <trkpt lat="43.09035" lon="0.25904">
        <ele>374.20001220703</ele>
        <time>2025-08-10T13:39:38.000Z</time>
      </trkpt>
      <trkpt lat="43.09036" lon="0.25901">
        <ele>374.39999389648</ele>
        <time>2025-08-10T13:39:39.000Z</time>
      </trkpt>
      <trkpt lat="43.09037" lon="0.25896">
        <ele>374.79998779297</ele>
        <time>2025-08-10T13:39:41.000Z</time>
      </trkpt>
      <trkpt lat="43.09034" lon="0.25889">
        <ele>375.20001220703</ele>
        <time>2025-08-10T13:39:44.000Z</time>
      </trkpt>
      <trkpt lat="43.09035" lon="0.25885">
        <ele>375.79998779297</ele>
        <time>2025-08-10T13:39:46.000Z</time>
      </trkpt>
      <trkpt lat="43.09035" lon="0.2588">
        <ele>376.39999389648</ele>
        <time>2025-08-10T13:39:48.000Z</time>
      </trkpt>
      <trkpt lat="43.09036" lon="0.2587">
        <ele>377.39999389648</ele>
        <time>2025-08-10T13:39:52.000Z</time>
      </trkpt>
      <trkpt lat="43.09037" lon="0.25866">
        <ele>378.39999389648</ele>
        <time>2025-08-10T13:39:54.000Z</time>
      </trkpt>
      <trkpt lat="43.09038" lon="0.25863">
        <ele>378.79998779297</ele>
        <time>2025-08-10T13:39:55.000Z</time>
      </trkpt>
      <trkpt lat="43.09039" lon="0.25859">
        <ele>379.79998779297</ele>
        <time>2025-08-10T13:40:00.000Z</time>
      </trkpt>
      <trkpt lat="43.09042" lon="0.25856">
        <ele>380.60000610352</ele>
        <time>2025-08-10T13:42:41.000Z</time>
      </trkpt>
      <trkpt lat="43.09046" lon="0.25849">
        <ele>380.60000610352</ele>
        <time>2025-08-10T13:42:44.000Z</time>
      </trkpt>
      <trkpt lat="43.09051" lon="0.25833">
        <ele>380.39999389648</ele>
        <time>2025-08-10T13:42:49.000Z</time>
      </trkpt>
      <trkpt lat="43.09053" lon="0.2581">
        <ele>379.79998779297</ele>
        <time>2025-08-10T13:42:54.000Z</time>
      </trkpt>
      <trkpt lat="43.09053" lon="0.25805">
        <ele>379.60000610352</ele>
        <time>2025-08-10T13:42:55.000Z</time>
      </trkpt>
      <trkpt lat="43.09051" lon="0.2578">
        <ele>378.39999389648</ele>
        <time>2025-08-10T13:42:59.000Z</time>
      </trkpt>
      <trkpt lat="43.0905" lon="0.25774">
        <ele>378</ele>
        <time>2025-08-10T13:43:00.000Z</time>
      </trkpt>
      <trkpt lat="43.09049" lon="0.25767">
        <ele>377.79998779297</ele>
        <time>2025-08-10T13:43:01.000Z</time>
      </trkpt>
      <trkpt lat="43.09044" lon="0.25748">
        <ele>377</ele>
        <time>2025-08-10T13:43:04.000Z</time>
      </trkpt>
      <trkpt lat="43.09039" lon="0.25729">
        <ele>375.39999389648</ele>
        <time>2025-08-10T13:43:07.000Z</time>
      </trkpt>
      <trkpt lat="43.09035" lon="0.25718">
        <ele>374.79998779297</ele>
        <time>2025-08-10T13:43:09.000Z</time>
      </trkpt>
      <trkpt lat="43.09033" lon="0.2571">
        <ele>374.60000610352</ele>
        <time>2025-08-10T13:43:10.000Z</time>
      </trkpt>
      <trkpt lat="43.09032" lon="0.25704">
        <ele>374.20001220703</ele>
        <time>2025-08-10T13:43:11.000Z</time>
      </trkpt>
      <trkpt lat="43.09031" lon="0.25696">
        <ele>374</ele>
        <time>2025-08-10T13:43:12.000Z</time>
      </trkpt>
      <trkpt lat="43.09031" lon="0.2568">
        <ele>372.79998779297</ele>
        <time>2025-08-10T13:43:14.000Z</time>
      </trkpt>
      <trkpt lat="43.09032" lon="0.25658">
        <ele>371.79998779297</ele>
        <time>2025-08-10T13:43:17.000Z</time>
      </trkpt>
      <trkpt lat="43.09031" lon="0.25636">
        <ele>371.39999389648</ele>
        <time>2025-08-10T13:43:20.000Z</time>
      </trkpt>
      <trkpt lat="43.09031" lon="0.25628">
        <ele>371.20001220703</ele>
        <time>2025-08-10T13:43:21.000Z</time>
      </trkpt>
      <trkpt lat="43.09025" lon="0.25602">
        <ele>370.79998779297</ele>
        <time>2025-08-10T13:43:25.000Z</time>
      </trkpt>
      <trkpt lat="43.09016" lon="0.25581">
        <ele>370.79998779297</ele>
        <time>2025-08-10T13:43:29.000Z</time>
      </trkpt>
      <trkpt lat="43.09014" lon="0.25575">
        <ele>370.79998779297</ele>
        <time>2025-08-10T13:43:30.000Z</time>
      </trkpt>
      <trkpt lat="43.08997" lon="0.25538">
        <ele>370.79998779297</ele>
        <time>2025-08-10T13:43:37.000Z</time>
      </trkpt>
      <trkpt lat="43.08979" lon="0.25491">
        <ele>370.79998779297</ele>
        <time>2025-08-10T13:43:46.000Z</time>
      </trkpt>
      <trkpt lat="43.08968" lon="0.2546">
        <ele>371.39999389648</ele>
        <time>2025-08-10T13:43:53.000Z</time>
      </trkpt>
      <trkpt lat="43.08965" lon="0.2544">
        <ele>371.79998779297</ele>
        <time>2025-08-10T13:43:58.000Z</time>
      </trkpt>
      <trkpt lat="43.0897" lon="0.2541">
        <ele>372</ele>
        <time>2025-08-10T13:44:04.000Z</time>
      </trkpt>
      <trkpt lat="43.08979" lon="0.25369">
        <ele>371.79998779297</ele>
        <time>2025-08-10T13:44:12.000Z</time>
      </trkpt>
      <trkpt lat="43.08985" lon="0.25334">
        <ele>371.79998779297</ele>
        <time>2025-08-10T13:44:19.000Z</time>
      </trkpt>
      <trkpt lat="43.08991" lon="0.25299">
        <ele>372</ele>
        <time>2025-08-10T13:44:26.000Z</time>
      </trkpt>
      <trkpt lat="43.09002" lon="0.25261">
        <ele>373</ele>
        <time>2025-08-10T13:44:34.000Z</time>
      </trkpt>
      <trkpt lat="43.09002" lon="0.25257">
        <ele>373</ele>
        <time>2025-08-10T13:44:35.000Z</time>
      </trkpt>
      <trkpt lat="43.09005" lon="0.2523">
        <ele>373.60000610352</ele>
        <time>2025-08-10T13:44:42.000Z</time>
      </trkpt>
      <trkpt lat="43.09007" lon="0.25217">
        <ele>374</ele>
        <time>2025-08-10T13:44:46.000Z</time>
      </trkpt>
      <trkpt lat="43.09008" lon="0.25207">
        <ele>374.20001220703</ele>
        <time>2025-08-10T13:44:49.000Z</time>
      </trkpt>
      <trkpt lat="43.09011" lon="0.25195">
        <ele>375</ele>
        <time>2025-08-10T13:44:53.000Z</time>
      </trkpt>
      <trkpt lat="43.09015" lon="0.25184">
        <ele>375.79998779297</ele>
        <time>2025-08-10T13:44:57.000Z</time>
      </trkpt>
      <trkpt lat="43.09018" lon="0.25176">
        <ele>376.20001220703</ele>
        <time>2025-08-10T13:45:00.000Z</time>
      </trkpt>
      <trkpt lat="43.09021" lon="0.25168">
        <ele>376.39999389648</ele>
        <time>2025-08-10T13:45:03.000Z</time>
      </trkpt>
      <trkpt lat="43.09022" lon="0.25167">
        <ele>376.60000610352</ele>
        <time>2025-08-10T13:45:04.000Z</time>
      </trkpt>
      <trkpt lat="43.09023" lon="0.25159">
        <ele>377</ele>
        <time>2025-08-10T13:45:07.000Z</time>
      </trkpt>
      <trkpt lat="43.09023" lon="0.25157">
        <ele>377.20001220703</ele>
        <time>2025-08-10T13:45:08.000Z</time>
      </trkpt>
      <trkpt lat="43.09026" lon="0.25149">
        <ele>378.20001220703</ele>
        <time>2025-08-10T13:45:12.000Z</time>
      </trkpt>
      <trkpt lat="43.09026" lon="0.25147">
        <ele>378.60000610352</ele>
        <time>2025-08-10T13:45:13.000Z</time>
      </trkpt>
      <trkpt lat="43.09025" lon="0.25134">
        <ele>379.60000610352</ele>
        <time>2025-08-10T13:45:18.000Z</time>
      </trkpt>
      <trkpt lat="43.09023" lon="0.25125">
        <ele>379.79998779297</ele>
        <time>2025-08-10T13:45:21.000Z</time>
      </trkpt>
      <trkpt lat="43.09014" lon="0.25101">
        <ele>380.39999389648</ele>
        <time>2025-08-10T13:45:30.000Z</time>
      </trkpt>
      <trkpt lat="43.09012" lon="0.25099">
        <ele>380.60000610352</ele>
        <time>2025-08-10T13:45:31.000Z</time>
      </trkpt>
      <trkpt lat="43.09001" lon="0.25082">
        <ele>380.79998779297</ele>
        <time>2025-08-10T13:45:36.000Z</time>
      </trkpt>
      <trkpt lat="43.08992" lon="0.25072">
        <ele>380.79998779297</ele>
        <time>2025-08-10T13:45:39.000Z</time>
      </trkpt>
      <trkpt lat="43.08973" lon="0.25055">
        <ele>380.60000610352</ele>
        <time>2025-08-10T13:45:45.000Z</time>
      </trkpt>
      <trkpt lat="43.08946" lon="0.25034">
        <ele>380.60000610352</ele>
        <time>2025-08-10T13:45:53.000Z</time>
      </trkpt>
      <trkpt lat="43.08911" lon="0.25008">
        <ele>380.60000610352</ele>
        <time>2025-08-10T13:46:03.000Z</time>
      </trkpt>
      <trkpt lat="43.08881" lon="0.24985">
        <ele>380.79998779297</ele>
        <time>2025-08-10T13:46:13.000Z</time>
      </trkpt>
      <trkpt lat="43.08851" lon="0.24974">
        <ele>380.79998779297</ele>
        <time>2025-08-10T13:46:21.000Z</time>
      </trkpt>
      <trkpt lat="43.08844" lon="0.24969">
        <ele>380.79998779297</ele>
        <time>2025-08-10T13:46:24.000Z</time>
      </trkpt>
      <trkpt lat="43.08844" lon="0.24966">
        <ele>380.79998779297</ele>
        <time>2025-08-10T13:46:25.000Z</time>
      </trkpt>
      <trkpt lat="43.08844" lon="0.24962">
        <ele>380.60000610352</ele>
        <time>2025-08-10T13:46:26.000Z</time>
      </trkpt>
      <trkpt lat="43.08847" lon="0.24957">
        <ele>380.60000610352</ele>
        <time>2025-08-10T13:46:28.000Z</time>
      </trkpt>
      <trkpt lat="43.08853" lon="0.24944">
        <ele>380.60000610352</ele>
        <time>2025-08-10T13:46:33.000Z</time>
      </trkpt>
      <trkpt lat="43.08855" lon="0.24936">
        <ele>380.79998779297</ele>
        <time>2025-08-10T13:46:38.000Z</time>
      </trkpt>
      <trkpt lat="43.08855" lon="0.24936">
        <ele>381.20001220703</ele>
        <time>2025-08-10T13:46:41.000Z</time>
      </trkpt>
      <trkpt lat="43.08712" lon="0.24633">
        <ele>432.20001220703</ele>
        <time>2025-08-10T14:12:04.000Z</time>
      </trkpt>
      <trkpt lat="43.08713" lon="0.24631">
        <ele>432.20001220703</ele>
        <time>2025-08-10T14:12:05.000Z</time>
      </trkpt>
      <trkpt lat="43.08718" lon="0.24616">
        <ele>432.39999389648</ele>
        <time>2025-08-10T14:12:12.000Z</time>
      </trkpt>
      <trkpt lat="43.08724" lon="0.246">
        <ele>433.20001220703</ele>
        <time>2025-08-10T14:12:19.000Z</time>
      </trkpt>
      <trkpt lat="43.08724" lon="0.24598">
        <ele>433.20001220703</ele>
        <time>2025-08-10T14:12:20.000Z</time>
      </trkpt>
      <trkpt lat="43.08726" lon="0.24587">
        <ele>433.79998779297</ele>
        <time>2025-08-10T14:12:26.000Z</time>
      </trkpt>
      <trkpt lat="43.08727" lon="0.24579">
        <ele>434.20001220703</ele>
        <time>2025-08-10T14:12:30.000Z</time>
      </trkpt>
      <trkpt lat="43.08727" lon="0.2457">
        <ele>434.79998779297</ele>
        <time>2025-08-10T14:12:34.000Z</time>
      </trkpt>
      <trkpt lat="43.08725" lon="0.24564">
        <ele>435.39999389648</ele>
        <time>2025-08-10T14:12:37.000Z</time>
      </trkpt>
      <trkpt lat="43.08721" lon="0.24552">
        <ele>436.20001220703</ele>
        <time>2025-08-10T14:12:42.000Z</time>
      </trkpt>
      <trkpt lat="43.08717" lon="0.24546">
        <ele>436.60000610352</ele>
        <time>2025-08-10T14:12:45.000Z</time>
      </trkpt>
      <trkpt lat="43.0871" lon="0.24538">
        <ele>437.20001220703</ele>
        <time>2025-08-10T14:12:50.000Z</time>
      </trkpt>
      <trkpt lat="43.08705" lon="0.24521">
        <ele>437.60000610352</ele>
        <time>2025-08-10T14:12:57.000Z</time>
      </trkpt>
      <trkpt lat="43.08704" lon="0.24519">
        <ele>437.60000610352</ele>
        <time>2025-08-10T14:12:58.000Z</time>
      </trkpt>
      <trkpt lat="43.08704" lon="0.24515">
        <ele>437.60000610352</ele>
        <time>2025-08-10T14:13:00.000Z</time>
      </trkpt>
      <trkpt lat="43.08704" lon="0.24515">
        <ele>437.60000610352</ele>
        <time>2025-08-10T14:13:02.000Z</time>
      </trkpt>
      <trkpt lat="43.08464" lon="0.24112">
        <ele>442.60000610352</ele>
        <time>2025-08-10T14:20:04.000Z</time>
      </trkpt>
      <trkpt lat="43.08443" lon="0.24096">
        <ele>446.60000610352</ele>
        <time>2025-08-10T14:20:09.000Z</time>
      </trkpt>
      <trkpt lat="43.08424" lon="0.24086">
        <ele>447</ele>
        <time>2025-08-10T14:20:15.000Z</time>
      </trkpt>
      <trkpt lat="43.08401" lon="0.24077">
        <ele>446.79998779297</ele>
        <time>2025-08-10T14:20:23.000Z</time>
      </trkpt>
      <trkpt lat="43.08393" lon="0.24075">
        <ele>447.20001220703</ele>
        <time>2025-08-10T14:20:26.000Z</time>
      </trkpt>
      <trkpt lat="43.08376" lon="0.24074">
        <ele>447.79998779297</ele>
        <time>2025-08-10T14:20:32.000Z</time>
      </trkpt>
      <trkpt lat="43.08364" lon="0.24075">
        <ele>448.20001220703</ele>
        <time>2025-08-10T14:20:37.000Z</time>
      </trkpt>
      <trkpt lat="43.08362" lon="0.24075">
        <ele>448.39999389648</ele>
        <time>2025-08-10T14:20:38.000Z</time>
      </trkpt>
      <trkpt lat="43.08354" lon="0.24075">
        <ele>449</ele>
        <time>2025-08-10T14:20:42.000Z</time>
      </trkpt>
      <trkpt lat="43.08349" lon="0.24077">
        <ele>449.39999389648</ele>
        <time>2025-08-10T14:20:45.000Z</time>
      </trkpt>
      <trkpt lat="43.08344" lon="0.24076">
        <ele>450</ele>
        <time>2025-08-10T14:20:48.000Z</time>
      </trkpt>
      <trkpt lat="43.08341" lon="0.24076">
        <ele>450.39999389648</ele>
        <time>2025-08-10T14:20:50.000Z</time>
      </trkpt>
      <trkpt lat="43.08336" lon="0.24079">
        <ele>450.79998779297</ele>
        <time>2025-08-10T14:20:53.000Z</time>
      </trkpt>
      <trkpt lat="43.08333" lon="0.24078">
        <ele>451.39999389648</ele>
        <time>2025-08-10T14:20:55.000Z</time>
      </trkpt>
      <trkpt lat="43.08332" lon="0.24078">
        <ele>451.79998779297</ele>
        <time>2025-08-10T14:20:58.000Z</time>
      </trkpt>
      <trkpt lat="43.08331" lon="0.24079">
        <ele>452.20001220703</ele>
        <time>2025-08-10T14:20:59.000Z</time>
      </trkpt>
      <trkpt lat="43.08329" lon="0.24079">
        <ele>452.60000610352</ele>
        <time>2025-08-10T14:21:01.000Z</time>
      </trkpt>
      <trkpt lat="43.08324" lon="0.24079">
        <ele>453</ele>
        <time>2025-08-10T14:21:05.000Z</time>
      </trkpt>
      <trkpt lat="43.0832" lon="0.2408">
        <ele>454</ele>
        <time>2025-08-10T14:21:09.000Z</time>
      </trkpt>
      <trkpt lat="43.08316" lon="0.2408">
        <ele>455</ele>
        <time>2025-08-10T14:21:13.000Z</time>
      </trkpt>
      <trkpt lat="43.08315" lon="0.24081">
        <ele>455.20001220703</ele>
        <time>2025-08-10T14:21:14.000Z</time>
      </trkpt>
      <trkpt lat="43.08312" lon="0.24081">
        <ele>455.60000610352</ele>
        <time>2025-08-10T14:21:17.000Z</time>
      </trkpt>
      <trkpt lat="43.0831" lon="0.24081">
        <ele>456</ele>
        <time>2025-08-10T14:21:19.000Z</time>
      </trkpt>
      <trkpt lat="43.08306" lon="0.24079">
        <ele>456.79998779297</ele>
        <time>2025-08-10T14:21:24.000Z</time>
      </trkpt>
      <trkpt lat="43.08302" lon="0.24078">
        <ele>457.20001220703</ele>
        <time>2025-08-10T14:21:29.000Z</time>
      </trkpt>
      <trkpt lat="43.08301" lon="0.24078">
        <ele>457.60000610352</ele>
        <time>2025-08-10T14:21:30.000Z</time>
      </trkpt>
      <trkpt lat="43.08301" lon="0.24076">
        <ele>458.60000610352</ele>
        <time>2025-08-10T14:21:32.000Z</time>
      </trkpt>
      <trkpt lat="43.08301" lon="0.24075">
        <ele>460.79998779297</ele>
        <time>2025-08-10T14:21:33.000Z</time>
      </trkpt>
      <trkpt lat="43.08301" lon="0.24074">
        <ele>463</ele>
        <time>2025-08-10T14:21:34.000Z</time>
      </trkpt>
      <trkpt lat="43.083" lon="0.24071">
        <ele>464</ele>
        <time>2025-08-10T14:21:36.000Z</time>
      </trkpt>
      <trkpt lat="43.08299" lon="0.2407">
        <ele>464.20001220703</ele>
        <time>2025-08-10T14:21:37.000Z</time>
      </trkpt>
      <trkpt lat="43.083" lon="0.24066">
        <ele>463.60000610352</ele>
        <time>2025-08-10T14:21:40.000Z</time>
      </trkpt>
      <trkpt lat="43.083" lon="0.24065">
        <ele>463</ele>
        <time>2025-08-10T14:21:41.000Z</time>
      </trkpt>
      <trkpt lat="43.08302" lon="0.24054">
        <ele>462</ele>
        <time>2025-08-10T14:21:48.000Z</time>
      </trkpt>
      <trkpt lat="43.08302" lon="0.24053">
        <ele>462.20001220703</ele>
        <time>2025-08-10T14:21:51.000Z</time>
      </trkpt>
      <trkpt lat="43.08296" lon="0.24014">
        <ele>464.20001220703</ele>
        <time>2025-08-10T14:22:19.000Z</time>
      </trkpt>
      <trkpt lat="43.08295" lon="0.24011">
        <ele>464.20001220703</ele>
        <time>2025-08-10T14:22:20.000Z</time>
      </trkpt>
      <trkpt lat="43.08294" lon="0.24009">
        <ele>464.20001220703</ele>
        <time>2025-08-10T14:22:21.000Z</time>
      </trkpt>
      <trkpt lat="43.08288" lon="0.23995">
        <ele>465</ele>
        <time>2025-08-10T14:22:28.000Z</time>
      </trkpt>
      <trkpt lat="43.08286" lon="0.23988">
        <ele>465.39999389648</ele>
        <time>2025-08-10T14:22:31.000Z</time>
      </trkpt>
      <trkpt lat="43.08282" lon="0.23981">
        <ele>466</ele>
        <time>2025-08-10T14:22:35.000Z</time>
      </trkpt>
      <trkpt lat="43.08275" lon="0.23971">
        <ele>466.60000610352</ele>
        <time>2025-08-10T14:22:41.000Z</time>
      </trkpt>
      <trkpt lat="43.08267" lon="0.23962">
        <ele>467.79998779297</ele>
        <time>2025-08-10T14:22:47.000Z</time>
      </trkpt>
      <trkpt lat="43.08264" lon="0.23958">
        <ele>468.39999389648</ele>
        <time>2025-08-10T14:22:50.000Z</time>
      </trkpt>
      <trkpt lat="43.08261" lon="0.23958">
        <ele>468.60000610352</ele>
        <time>2025-08-10T14:22:52.000Z</time>
      </trkpt>
      <trkpt lat="43.0826" lon="0.23957">
        <ele>468.79998779297</ele>
        <time>2025-08-10T14:22:53.000Z</time>
      </trkpt>
      <trkpt lat="43.0825" lon="0.23952">
        <ele>469.60000610352</ele>
        <time>2025-08-10T14:23:00.000Z</time>
      </trkpt>
      <trkpt lat="43.08245" lon="0.23949">
        <ele>470</ele>
        <time>2025-08-10T14:23:04.000Z</time>
      </trkpt>
      <trkpt lat="43.08244" lon="0.23948">
        <ele>470.39999389648</ele>
        <time>2025-08-10T14:23:05.000Z</time>
      </trkpt>
      <trkpt lat="43.08242" lon="0.23948">
        <ele>470.60000610352</ele>
        <time>2025-08-10T14:23:06.000Z</time>
      </trkpt>
      <trkpt lat="43.0824" lon="0.23946">
        <ele>471</ele>
        <time>2025-08-10T14:23:08.000Z</time>
      </trkpt>
      <trkpt lat="43.08238" lon="0.23945">
        <ele>471.39999389648</ele>
        <time>2025-08-10T14:23:09.000Z</time>
      </trkpt>
      <trkpt lat="43.08235" lon="0.23944">
        <ele>471.79998779297</ele>
        <time>2025-08-10T14:23:11.000Z</time>
      </trkpt>
      <trkpt lat="43.08234" lon="0.23944">
        <ele>471.79998779297</ele>
        <time>2025-08-10T14:23:12.000Z</time>
      </trkpt>
      <trkpt lat="43.08228" lon="0.23941">
        <ele>472.39999389648</ele>
        <time>2025-08-10T14:23:16.000Z</time>
      </trkpt>
      <trkpt lat="43.08225" lon="0.23941">
        <ele>472.60000610352</ele>
        <time>2025-08-10T14:23:18.000Z</time>
      </trkpt>
      <trkpt lat="43.08221" lon="0.2394">
        <ele>473.60000610352</ele>
        <time>2025-08-10T14:23:21.000Z</time>
      </trkpt>
      <trkpt lat="43.08219" lon="0.23939">
        <ele>474</ele>
        <time>2025-08-10T14:23:23.000Z</time>
      </trkpt>
      <trkpt lat="43.08206" lon="0.23939">
        <ele>474.79998779297</ele>
        <time>2025-08-10T14:23:30.000Z</time>
      </trkpt>
      <trkpt lat="43.08204" lon="0.23938">
        <ele>475</ele>
        <time>2025-08-10T14:23:31.000Z</time>
      </trkpt>
      <trkpt lat="43.08184" lon="0.23937">
        <ele>475.79998779297</ele>
        <time>2025-08-10T14:23:39.000Z</time>
      </trkpt>
      <trkpt lat="43.08178" lon="0.23936">
        <ele>475.79998779297</ele>
        <time>2025-08-10T14:23:41.000Z</time>
      </trkpt>
      <trkpt lat="43.0815" lon="0.23932">
        <ele>476.39999389648</ele>
        <time>2025-08-10T14:23:51.000Z</time>
      </trkpt>
      <trkpt lat="43.08121" lon="0.23928">
        <ele>476.79998779297</ele>
        <time>2025-08-10T14:24:01.000Z</time>
      </trkpt>
      <trkpt lat="43.08118" lon="0.23927">
        <ele>476.79998779297</ele>
        <time>2025-08-10T14:24:02.000Z</time>
      </trkpt>
      <trkpt lat="43.08094" lon="0.23918">
        <ele>477.60000610352</ele>
        <time>2025-08-10T14:24:11.000Z</time>
      </trkpt>
      <trkpt lat="43.08092" lon="0.23917">
        <ele>477.79998779297</ele>
        <time>2025-08-10T14:24:12.000Z</time>
      </trkpt>
      <trkpt lat="43.08085" lon="0.23915">
        <ele>478.39999389648</ele>
        <time>2025-08-10T14:24:15.000Z</time>
      </trkpt>
      <trkpt lat="43.08083" lon="0.23914">
        <ele>478.79998779297</ele>
        <time>2025-08-10T14:24:17.000Z</time>
      </trkpt>
      <trkpt lat="43.08083" lon="0.23914">
        <ele>478.79998779297</ele>
        <time>2025-08-10T14:24:18.000Z</time>
      </trkpt>
      <trkpt lat="43.08073" lon="0.23909">
        <ele>481.79998779297</ele>
        <time>2025-08-10T14:42:58.000Z</time>
      </trkpt>
      <trkpt lat="43.08069" lon="0.23909">
        <ele>481.60000610352</ele>
        <time>2025-08-10T14:43:00.000Z</time>
      </trkpt>
      <trkpt lat="43.08055" lon="0.23906">
        <ele>481.60000610352</ele>
        <time>2025-08-10T14:43:06.000Z</time>
      </trkpt>
      <trkpt lat="43.08034" lon="0.23902">
        <ele>481.39999389648</ele>
        <time>2025-08-10T14:43:13.000Z</time>
      </trkpt>
      <trkpt lat="43.08007" lon="0.23895">
        <ele>481.20001220703</ele>
        <time>2025-08-10T14:43:22.000Z</time>
      </trkpt>
      <trkpt lat="43.07986" lon="0.23888">
        <ele>481.39999389648</ele>
        <time>2025-08-10T14:43:30.000Z</time>
      </trkpt>
      <trkpt lat="43.07967" lon="0.23876">
        <ele>482</ele>
        <time>2025-08-10T14:43:39.000Z</time>
      </trkpt>
      <trkpt lat="43.07962" lon="0.23864">
        <ele>482.60000610352</ele>
        <time>2025-08-10T14:43:44.000Z</time>
      </trkpt>
      <trkpt lat="43.07962" lon="0.23854">
        <ele>483</ele>
        <time>2025-08-10T14:43:47.000Z</time>
      </trkpt>
      <trkpt lat="43.07963" lon="0.23841">
        <ele>483.39999389648</ele>
        <time>2025-08-10T14:43:51.000Z</time>
      </trkpt>
      <trkpt lat="43.07964" lon="0.23824">
        <ele>483.60000610352</ele>
        <time>2025-08-10T14:43:56.000Z</time>
      </trkpt>
      <trkpt lat="43.07957" lon="0.23803">
        <ele>483.79998779297</ele>
        <time>2025-08-10T14:44:02.000Z</time>
      </trkpt>
      <trkpt lat="43.07945" lon="0.23793">
        <ele>484</ele>
        <time>2025-08-10T14:44:08.000Z</time>
      </trkpt>
      <trkpt lat="43.07943" lon="0.23792">
        <ele>484</ele>
        <time>2025-08-10T14:44:09.000Z</time>
      </trkpt>
      <trkpt lat="43.07927" lon="0.23787">
        <ele>484.79998779297</ele>
        <time>2025-08-10T14:44:15.000Z</time>
      </trkpt>
      <trkpt lat="43.07909" lon="0.2378">
        <ele>485</ele>
        <time>2025-08-10T14:44:22.000Z</time>
      </trkpt>
      <trkpt lat="43.07902" lon="0.23777">
        <ele>485.20001220703</ele>
        <time>2025-08-10T14:44:24.000Z</time>
      </trkpt>
      <trkpt lat="43.07883" lon="0.23767">
        <ele>485.60000610352</ele>
        <time>2025-08-10T14:44:32.000Z</time>
      </trkpt>
      <trkpt lat="43.07875" lon="0.23762">
        <ele>486.20001220703</ele>
        <time>2025-08-10T14:44:36.000Z</time>
      </trkpt>
      <trkpt lat="43.07866" lon="0.23759">
        <ele>486.60000610352</ele>
        <time>2025-08-10T14:44:40.000Z</time>
      </trkpt>
      <trkpt lat="43.07858" lon="0.23755">
        <ele>487.20001220703</ele>
        <time>2025-08-10T14:44:44.000Z</time>
      </trkpt>
      <trkpt lat="43.07855" lon="0.23752">
        <ele>487.39999389648</ele>
        <time>2025-08-10T14:44:47.000Z</time>
      </trkpt>
      <trkpt lat="43.07844" lon="0.23746">
        <ele>488.20001220703</ele>
        <time>2025-08-10T14:44:53.000Z</time>
      </trkpt>
      <trkpt lat="43.07842" lon="0.23745">
        <ele>488.39999389648</ele>
        <time>2025-08-10T14:44:54.000Z</time>
      </trkpt>
      <trkpt lat="43.0784" lon="0.23744">
        <ele>488.60000610352</ele>
        <time>2025-08-10T14:44:55.000Z</time>
      </trkpt>
      <trkpt lat="43.07833" lon="0.2374">
        <ele>489.20001220703</ele>
        <time>2025-08-10T14:44:59.000Z</time>
      </trkpt>
      <trkpt lat="43.07823" lon="0.23733">
        <ele>490.39999389648</ele>
        <time>2025-08-10T14:45:05.000Z</time>
      </trkpt>
      <trkpt lat="43.07821" lon="0.23733">
        <ele>490.39999389648</ele>
        <time>2025-08-10T14:45:06.000Z</time>
      </trkpt>
      <trkpt lat="43.07814" lon="0.23725">
        <ele>491.39999389648</ele>
        <time>2025-08-10T14:45:12.000Z</time>
      </trkpt>
      <trkpt lat="43.07811" lon="0.23725">
        <ele>491.79998779297</ele>
        <time>2025-08-10T14:45:14.000Z</time>
      </trkpt>
      <trkpt lat="43.07807" lon="0.23721">
        <ele>492.60000610352</ele>
        <time>2025-08-10T14:45:18.000Z</time>
      </trkpt>
      <trkpt lat="43.07804" lon="0.23719">
        <ele>493</ele>
        <time>2025-08-10T14:45:21.000Z</time>
      </trkpt>
      <trkpt lat="43.07803" lon="0.23716">
        <ele>493.60000610352</ele>
        <time>2025-08-10T14:45:23.000Z</time>
      </trkpt>
      <trkpt lat="43.07801" lon="0.23716">
        <ele>493.60000610352</ele>
        <time>2025-08-10T14:45:24.000Z</time>
      </trkpt>
      <trkpt lat="43.07798" lon="0.23715">
        <ele>494.20001220703</ele>
        <time>2025-08-10T14:45:27.000Z</time>
      </trkpt>
      <trkpt lat="43.07797" lon="0.23715">
        <ele>494.20001220703</ele>
        <time>2025-08-10T14:45:28.000Z</time>
      </trkpt>
      <trkpt lat="43.07797" lon="0.23714">
        <ele>494.39999389648</ele>
        <time>2025-08-10T14:45:29.000Z</time>
      </trkpt>
      <trkpt lat="43.07795" lon="0.23713">
        <ele>494.60000610352</ele>
        <time>2025-08-10T14:45:31.000Z</time>
      </trkpt>
      <trkpt lat="43.07793" lon="0.23713">
        <ele>494.79998779297</ele>
        <time>2025-08-10T14:45:32.000Z</time>
      </trkpt>
      <trkpt lat="43.07792" lon="0.23711">
        <ele>495</ele>
        <time>2025-08-10T14:45:34.000Z</time>
      </trkpt>
      <trkpt lat="43.07789" lon="0.2371">
        <ele>495.39999389648</ele>
        <time>2025-08-10T14:45:36.000Z</time>
      </trkpt>
      <trkpt lat="43.07787" lon="0.23709">
        <ele>495.79998779297</ele>
        <time>2025-08-10T14:45:37.000Z</time>
      </trkpt>
      <trkpt lat="43.07778" lon="0.23702">
        <ele>496.79998779297</ele>
        <time>2025-08-10T14:45:44.000Z</time>
      </trkpt>
      <trkpt lat="43.07771" lon="0.23698">
        <ele>497.79998779297</ele>
        <time>2025-08-10T14:45:49.000Z</time>
      </trkpt>
      <trkpt lat="43.07765" lon="0.23695">
        <ele>498.20001220703</ele>
        <time>2025-08-10T14:45:53.000Z</time>
      </trkpt>
      <trkpt lat="43.07761" lon="0.23692">
        <ele>499</ele>
        <time>2025-08-10T14:45:56.000Z</time>
      </trkpt>
      <trkpt lat="43.07754" lon="0.23689">
        <ele>499.79998779297</ele>
        <time>2025-08-10T14:46:00.000Z</time>
      </trkpt>
      <trkpt lat="43.07753" lon="0.23688">
        <ele>500.20001220703</ele>
        <time>2025-08-10T14:46:01.000Z</time>
      </trkpt>
      <trkpt lat="43.07743" lon="0.23682">
        <ele>501</ele>
        <time>2025-08-10T14:46:08.000Z</time>
      </trkpt>
      <trkpt lat="43.0774" lon="0.23681">
        <ele>501.39999389648</ele>
        <time>2025-08-10T14:46:10.000Z</time>
      </trkpt>
      <trkpt lat="43.0773" lon="0.23676">
        <ele>502.39999389648</ele>
        <time>2025-08-10T14:46:16.000Z</time>
      </trkpt>
      <trkpt lat="43.07722" lon="0.23673">
        <ele>503</ele>
        <time>2025-08-10T14:46:21.000Z</time>
      </trkpt>
      <trkpt lat="43.07719" lon="0.23672">
        <ele>503.39999389648</ele>
        <time>2025-08-10T14:46:23.000Z</time>
      </trkpt>
      <trkpt lat="43.07718" lon="0.23671">
        <ele>503.60000610352</ele>
        <time>2025-08-10T14:46:24.000Z</time>
      </trkpt>
      <trkpt lat="43.07708" lon="0.23666">
        <ele>504.20001220703</ele>
        <time>2025-08-10T14:46:30.000Z</time>
      </trkpt>
      <trkpt lat="43.07703" lon="0.23664">
        <ele>504.39999389648</ele>
        <time>2025-08-10T14:46:33.000Z</time>
      </trkpt>
      <trkpt lat="43.07693" lon="0.2366">
        <ele>505.20001220703</ele>
        <time>2025-08-10T14:46:39.000Z</time>
      </trkpt>
      <trkpt lat="43.0769" lon="0.23658">
        <ele>505.60000610352</ele>
        <time>2025-08-10T14:46:41.000Z</time>
      </trkpt>
      <trkpt lat="43.0768" lon="0.2365">
        <ele>506</ele>
        <time>2025-08-10T14:46:47.000Z</time>
      </trkpt>
      <trkpt lat="43.07672" lon="0.2364">
        <ele>506.20001220703</ele>
        <time>2025-08-10T14:46:55.000Z</time>
      </trkpt>
      <trkpt lat="43.07657" lon="0.23472">
        <ele>526.59997558594</ele>
        <time>2025-08-10T14:49:42.000Z</time>
      </trkpt>
      <trkpt lat="43.0766" lon="0.23465">
        <ele>526.79998779297</ele>
        <time>2025-08-10T14:49:45.000Z</time>
      </trkpt>
      <trkpt lat="43.07666" lon="0.23436">
        <ele>527.20001220703</ele>
        <time>2025-08-10T14:49:55.000Z</time>
      </trkpt>
      <trkpt lat="43.07666" lon="0.23428">
        <ele>527.20001220703</ele>
        <time>2025-08-10T14:49:57.000Z</time>
      </trkpt>
      <trkpt lat="43.07663" lon="0.23423">
        <ele>527.20001220703</ele>
        <time>2025-08-10T14:49:59.000Z</time>
      </trkpt>
      <trkpt lat="43.07658" lon="0.23422">
        <ele>527.20001220703</ele>
        <time>2025-08-10T14:50:01.000Z</time>
      </trkpt>
      <trkpt lat="43.07654" lon="0.23424">
        <ele>527</ele>
        <time>2025-08-10T14:50:03.000Z</time>
      </trkpt>
      <trkpt lat="43.07643" lon="0.23435">
        <ele>525.20001220703</ele>
        <time>2025-08-10T14:50:10.000Z</time>
      </trkpt>
      <trkpt lat="43.07631" lon="0.23444">
        <ele>527.59997558594</ele>
        <time>2025-08-10T14:50:17.000Z</time>
      </trkpt>
      <trkpt lat="43.0763" lon="0.23445">
        <ele>527.79998779297</ele>
        <time>2025-08-10T14:50:18.000Z</time>
      </trkpt>
      <trkpt lat="43.0762" lon="0.23452">
        <ele>528.59997558594</ele>
        <time>2025-08-10T14:50:24.000Z</time>
      </trkpt>
      <trkpt lat="43.07614" lon="0.23456">
        <ele>529</ele>
        <time>2025-08-10T14:50:28.000Z</time>
      </trkpt>
      <trkpt lat="43.07605" lon="0.23462">
        <ele>529.59997558594</ele>
        <time>2025-08-10T14:50:34.000Z</time>
      </trkpt>
      <trkpt lat="43.07602" lon="0.23463">
        <ele>529.79998779297</ele>
        <time>2025-08-10T14:50:36.000Z</time>
      </trkpt>
      <trkpt lat="43.07592" lon="0.23471">
        <ele>530.59997558594</ele>
        <time>2025-08-10T14:50:43.000Z</time>
      </trkpt>
      <trkpt lat="43.07591" lon="0.23472">
        <ele>530.79998779297</ele>
        <time>2025-08-10T14:50:44.000Z</time>
      </trkpt>
      <trkpt lat="43.07581" lon="0.23481">
        <ele>531.59997558594</ele>
        <time>2025-08-10T14:50:52.000Z</time>
      </trkpt>
      <trkpt lat="43.07578" lon="0.23483">
        <ele>532</ele>
        <time>2025-08-10T14:50:54.000Z</time>
      </trkpt>
      <trkpt lat="43.07572" lon="0.23489">
        <ele>532.79998779297</ele>
        <time>2025-08-10T14:50:59.000Z</time>
      </trkpt>
      <trkpt lat="43.0757" lon="0.23492">
        <ele>533.20001220703</ele>
        <time>2025-08-10T14:51:01.000Z</time>
      </trkpt>
      <trkpt lat="43.07567" lon="0.23496">
        <ele>533.79998779297</ele>
        <time>2025-08-10T14:51:04.000Z</time>
      </trkpt>
      <trkpt lat="43.07562" lon="0.23498">
        <ele>534.20001220703</ele>
        <time>2025-08-10T14:51:07.000Z</time>
      </trkpt>
      <trkpt lat="43.07561" lon="0.23499">
        <ele>534.40002441406</ele>
        <time>2025-08-10T14:51:08.000Z</time>
      </trkpt>
      <trkpt lat="43.07552" lon="0.23508">
        <ele>535.40002441406</ele>
        <time>2025-08-10T14:51:15.000Z</time>
      </trkpt>
      <trkpt lat="43.07551" lon="0.2351">
        <ele>535.40002441406</ele>
        <time>2025-08-10T14:51:16.000Z</time>
      </trkpt>
      <trkpt lat="43.07544" lon="0.23516">
        <ele>536.20001220703</ele>
        <time>2025-08-10T14:51:22.000Z</time>
      </trkpt>
      <trkpt lat="43.07543" lon="0.23517">
        <ele>536.40002441406</ele>
        <time>2025-08-10T14:51:23.000Z</time>
      </trkpt>
      <trkpt lat="43.07535" lon="0.23524">
        <ele>537.20001220703</ele>
        <time>2025-08-10T14:51:29.000Z</time>
      </trkpt>
      <trkpt lat="43.0753" lon="0.23526">
        <ele>537.40002441406</ele>
        <time>2025-08-10T14:51:32.000Z</time>
      </trkpt>
      <trkpt lat="43.07522" lon="0.23528">
        <ele>538.20001220703</ele>
        <time>2025-08-10T14:51:37.000Z</time>
      </trkpt>
      <trkpt lat="43.07518" lon="0.23528">
        <ele>538.40002441406</ele>
        <time>2025-08-10T14:51:40.000Z</time>
      </trkpt>
      <trkpt lat="43.07516" lon="0.23528">
        <ele>539.20001220703</ele>
        <time>2025-08-10T14:51:44.000Z</time>
      </trkpt>
      <trkpt lat="43.07413" lon="0.23481">
        <ele>551</ele>
        <time>2025-08-10T14:53:29.000Z</time>
      </trkpt>
      <trkpt lat="43.07411" lon="0.23478">
        <ele>551.20001220703</ele>
        <time>2025-08-10T14:53:32.000Z</time>
      </trkpt>
      <trkpt lat="43.07403" lon="0.23467">
        <ele>552.20001220703</ele>
        <time>2025-08-10T14:53:42.000Z</time>
      </trkpt>
      <trkpt lat="43.07402" lon="0.23465">
        <ele>552.20001220703</ele>
        <time>2025-08-10T14:53:44.000Z</time>
      </trkpt>
      <trkpt lat="43.07401" lon="0.23465">
        <ele>552.40002441406</ele>
        <time>2025-08-10T14:53:46.000Z</time>
      </trkpt>
      <trkpt lat="43.07395" lon="0.2346">
        <ele>552.59997558594</ele>
        <time>2025-08-10T14:53:49.000Z</time>
      </trkpt>
      <trkpt lat="43.07373" lon="0.23447">
        <ele>552.40002441406</ele>
        <time>2025-08-10T14:53:54.000Z</time>
      </trkpt>
      <trkpt lat="43.07364" lon="0.23444">
        <ele>552</ele>
        <time>2025-08-10T14:53:56.000Z</time>
      </trkpt>
      <trkpt lat="43.07352" lon="0.23443">
        <ele>551.59997558594</ele>
        <time>2025-08-10T14:53:59.000Z</time>
      </trkpt>
      <trkpt lat="43.07344" lon="0.23442">
        <ele>551.40002441406</ele>
        <time>2025-08-10T14:54:01.000Z</time>
      </trkpt>
      <trkpt lat="43.07338" lon="0.23437">
        <ele>551.20001220703</ele>
        <time>2025-08-10T14:54:03.000Z</time>
      </trkpt>
      <trkpt lat="43.07334" lon="0.23429">
        <ele>551</ele>
        <time>2025-08-10T14:54:06.000Z</time>
      </trkpt>
      <trkpt lat="43.07334" lon="0.23427">
        <ele>551</ele>
        <time>2025-08-10T14:54:07.000Z</time>
      </trkpt>
      <trkpt lat="43.07331" lon="0.2341">
        <ele>551.59997558594</ele>
        <time>2025-08-10T14:54:14.000Z</time>
      </trkpt>
      <trkpt lat="43.07329" lon="0.23401">
        <ele>552.20001220703</ele>
        <time>2025-08-10T14:54:18.000Z</time>
      </trkpt>
      <trkpt lat="43.07328" lon="0.23396">
        <ele>552.59997558594</ele>
        <time>2025-08-10T14:54:20.000Z</time>
      </trkpt>
      <trkpt lat="43.07326" lon="0.23387">
        <ele>553</ele>
        <time>2025-08-10T14:54:24.000Z</time>
      </trkpt>
      <trkpt lat="43.07323" lon="0.23378">
        <ele>553.79998779297</ele>
        <time>2025-08-10T14:54:28.000Z</time>
      </trkpt>
      <trkpt lat="43.07322" lon="0.23376">
        <ele>554.20001220703</ele>
        <time>2025-08-10T14:54:29.000Z</time>
      </trkpt>
      <trkpt lat="43.0732" lon="0.23369">
        <ele>554.79998779297</ele>
        <time>2025-08-10T14:54:32.000Z</time>
      </trkpt>
      <trkpt lat="43.07318" lon="0.23365">
        <ele>555.20001220703</ele>
        <time>2025-08-10T14:54:34.000Z</time>
      </trkpt>
      <trkpt lat="43.07318" lon="0.23363">
        <ele>555.40002441406</ele>
        <time>2025-08-10T14:54:35.000Z</time>
      </trkpt>
      <trkpt lat="43.07315" lon="0.23352">
        <ele>556.40002441406</ele>
        <time>2025-08-10T14:54:40.000Z</time>
      </trkpt>
      <trkpt lat="43.07312" lon="0.23343">
        <ele>557.40002441406</ele>
        <time>2025-08-10T14:54:45.000Z</time>
      </trkpt>
      <trkpt lat="43.07312" lon="0.23343">
        <ele>557.79998779297</ele>
        <time>2025-08-10T14:54:46.000Z</time>
      </trkpt>
      <trkpt lat="43.07312" lon="0.23343">
        <ele>558</ele>
        <time>2025-08-10T14:54:47.000Z</time>
      </trkpt>
      <trkpt lat="43.07273" lon="0.23272">
        <ele>565.20001220703</ele>
        <time>2025-08-10T14:55:55.000Z</time>
      </trkpt>
      <trkpt lat="43.07272" lon="0.2327">
        <ele>565.20001220703</ele>
        <time>2025-08-10T14:55:56.000Z</time>
      </trkpt>
      <trkpt lat="43.0726" lon="0.23248">
        <ele>565.40002441406</ele>
        <time>2025-08-10T14:56:04.000Z</time>
      </trkpt>
      <trkpt lat="43.07243" lon="0.23223">
        <ele>566</ele>
        <time>2025-08-10T14:56:14.000Z</time>
      </trkpt>
      <trkpt lat="43.07233" lon="0.23205">
        <ele>566.40002441406</ele>
        <time>2025-08-10T14:56:21.000Z</time>
      </trkpt>
      <trkpt lat="43.07225" lon="0.2319">
        <ele>566.59997558594</ele>
        <time>2025-08-10T14:56:26.000Z</time>
      </trkpt>
      <trkpt lat="43.07221" lon="0.23182">
        <ele>567.40002441406</ele>
        <time>2025-08-10T14:56:32.000Z</time>
      </trkpt>
      <trkpt lat="43.0722" lon="0.2318">
        <ele>567.59997558594</ele>
        <time>2025-08-10T14:56:34.000Z</time>
      </trkpt>
      <trkpt lat="43.07218" lon="0.23179">
        <ele>568</ele>
        <time>2025-08-10T14:56:37.000Z</time>
      </trkpt>
      <trkpt lat="43.07218" lon="0.23179">
        <ele>568.40002441406</ele>
        <time>2025-08-10T14:56:39.000Z</time>
      </trkpt>
      <trkpt lat="43.07217" lon="0.23179">
        <ele>569</ele>
        <time>2025-08-10T14:56:42.000Z</time>
      </trkpt>
      <trkpt lat="43.07217" lon="0.23179">
        <ele>569</ele>
        <time>2025-08-10T14:56:43.000Z</time>
      </trkpt>
      <trkpt lat="43.07233" lon="0.23156">
        <ele>569.20001220703</ele>
        <time>2025-08-10T15:05:35.000Z</time>
      </trkpt>
      <trkpt lat="43.07235" lon="0.23152">
        <ele>569.20001220703</ele>
        <time>2025-08-10T15:05:37.000Z</time>
      </trkpt>
      <trkpt lat="43.07239" lon="0.23148">
        <ele>569.40002441406</ele>
        <time>2025-08-10T15:05:39.000Z</time>
      </trkpt>
      <trkpt lat="43.07241" lon="0.23145">
        <ele>569.40002441406</ele>
        <time>2025-08-10T15:05:41.000Z</time>
      </trkpt>
      <trkpt lat="43.07243" lon="0.23144">
        <ele>569.40002441406</ele>
        <time>2025-08-10T15:05:42.000Z</time>
      </trkpt>
      <trkpt lat="43.07243" lon="0.2314">
        <ele>569.40002441406</ele>
        <time>2025-08-10T15:05:44.000Z</time>
      </trkpt>
      <trkpt lat="43.07248" lon="0.23134">
        <ele>569.59997558594</ele>
        <time>2025-08-10T15:05:47.000Z</time>
      </trkpt>
      <trkpt lat="43.07251" lon="0.23131">
        <ele>569.79998779297</ele>
        <time>2025-08-10T15:05:49.000Z</time>
      </trkpt>
      <trkpt lat="43.07255" lon="0.23127">
        <ele>569.79998779297</ele>
        <time>2025-08-10T15:05:51.000Z</time>
      </trkpt>
      <trkpt lat="43.07258" lon="0.23124">
        <ele>570</ele>
        <time>2025-08-10T15:05:52.000Z</time>
      </trkpt>
      <trkpt lat="43.07263" lon="0.23118">
        <ele>570.20001220703</ele>
        <time>2025-08-10T15:05:56.000Z</time>
      </trkpt>
      <trkpt lat="43.07273" lon="0.23111">
        <ele>570.59997558594</ele>
        <time>2025-08-10T15:06:02.000Z</time>
      </trkpt>
      <trkpt lat="43.07284" lon="0.23101">
        <ele>571</ele>
        <time>2025-08-10T15:06:09.000Z</time>
      </trkpt>
      <trkpt lat="43.07295" lon="0.2309">
        <ele>571.20001220703</ele>
        <time>2025-08-10T15:06:16.000Z</time>
      </trkpt>
      <trkpt lat="43.07305" lon="0.2308">
        <ele>571.59997558594</ele>
        <time>2025-08-10T15:06:22.000Z</time>
      </trkpt>
      <trkpt lat="43.07315" lon="0.23072">
        <ele>571.59997558594</ele>
        <time>2025-08-10T15:06:28.000Z</time>
      </trkpt>
      <trkpt lat="43.0732" lon="0.23064">
        <ele>571.79998779297</ele>
        <time>2025-08-10T15:06:32.000Z</time>
      </trkpt>
      <trkpt lat="43.07327" lon="0.23056">
        <ele>571.79998779297</ele>
        <time>2025-08-10T15:06:36.000Z</time>
      </trkpt>
      <trkpt lat="43.07331" lon="0.23043">
        <ele>572</ele>
        <time>2025-08-10T15:06:41.000Z</time>
      </trkpt>
      <trkpt lat="43.07332" lon="0.2304">
        <ele>572</ele>
        <time>2025-08-10T15:06:42.000Z</time>
      </trkpt>
      <trkpt lat="43.07328" lon="0.2302">
        <ele>572.20001220703</ele>
        <time>2025-08-10T15:06:49.000Z</time>
      </trkpt>
      <trkpt lat="43.07321" lon="0.22999">
        <ele>572.40002441406</ele>
        <time>2025-08-10T15:06:56.000Z</time>
      </trkpt>
      <trkpt lat="43.07317" lon="0.2298">
        <ele>572.59997558594</ele>
        <time>2025-08-10T15:07:02.000Z</time>
      </trkpt>
      <trkpt lat="43.07315" lon="0.22973">
        <ele>572.79998779297</ele>
        <time>2025-08-10T15:07:05.000Z</time>
      </trkpt>
      <trkpt lat="43.07314" lon="0.22966">
        <ele>572.79998779297</ele>
        <time>2025-08-10T15:07:08.000Z</time>
      </trkpt>
      <trkpt lat="43.07312" lon="0.22956">
        <ele>573</ele>
        <time>2025-08-10T15:07:12.000Z</time>
      </trkpt>
      <trkpt lat="43.07312" lon="0.22953">
        <ele>573.20001220703</ele>
        <time>2025-08-10T15:07:13.000Z</time>
      </trkpt>
      <trkpt lat="43.07306" lon="0.22935">
        <ele>573.40002441406</ele>
        <time>2025-08-10T15:07:20.000Z</time>
      </trkpt>
      <trkpt lat="43.07298" lon="0.22912">
        <ele>574.20001220703</ele>
        <time>2025-08-10T15:07:29.000Z</time>
      </trkpt>
      <trkpt lat="43.07289" lon="0.22893">
        <ele>575</ele>
        <time>2025-08-10T15:07:37.000Z</time>
      </trkpt>
      <trkpt lat="43.07286" lon="0.22888">
        <ele>575.20001220703</ele>
        <time>2025-08-10T15:07:39.000Z</time>
      </trkpt>
      <trkpt lat="43.07274" lon="0.22875">
        <ele>575.79998779297</ele>
        <time>2025-08-10T15:07:47.000Z</time>
      </trkpt>
      <trkpt lat="43.07265" lon="0.22863">
        <ele>576.20001220703</ele>
        <time>2025-08-10T15:07:53.000Z</time>
      </trkpt>
      <trkpt lat="43.07261" lon="0.22859">
        <ele>576.40002441406</ele>
        <time>2025-08-10T15:07:56.000Z</time>
      </trkpt>
      <trkpt lat="43.07255" lon="0.2285">
        <ele>577.20001220703</ele>
        <time>2025-08-10T15:08:00.000Z</time>
      </trkpt>
      <trkpt lat="43.0725" lon="0.22841">
        <ele>577.59997558594</ele>
        <time>2025-08-10T15:08:05.000Z</time>
      </trkpt>
      <trkpt lat="43.07246" lon="0.2283">
        <ele>578</ele>
        <time>2025-08-10T15:08:11.000Z</time>
      </trkpt>
      <trkpt lat="43.07246" lon="0.22828">
        <ele>578</ele>
        <time>2025-08-10T15:08:12.000Z</time>
      </trkpt>
      <trkpt lat="43.07244" lon="0.22823">
        <ele>578.20001220703</ele>
        <time>2025-08-10T15:08:14.000Z</time>
      </trkpt>
      <trkpt lat="43.07243" lon="0.22818">
        <ele>578.40002441406</ele>
        <time>2025-08-10T15:08:16.000Z</time>
      </trkpt>
      <trkpt lat="43.07242" lon="0.22813">
        <ele>578.59997558594</ele>
        <time>2025-08-10T15:08:18.000Z</time>
      </trkpt>
      <trkpt lat="43.07236" lon="0.22799">
        <ele>579.20001220703</ele>
        <time>2025-08-10T15:08:24.000Z</time>
      </trkpt>
      <trkpt lat="43.07234" lon="0.22793">
        <ele>579.79998779297</ele>
        <time>2025-08-10T15:08:26.000Z</time>
      </trkpt>
      <trkpt lat="43.07222" lon="0.22774">
        <ele>580.20001220703</ele>
        <time>2025-08-10T15:08:33.000Z</time>
      </trkpt>
      <trkpt lat="43.0722" lon="0.22772">
        <ele>580.20001220703</ele>
        <time>2025-08-10T15:08:34.000Z</time>
      </trkpt>
      <trkpt lat="43.07212" lon="0.22764">
        <ele>580.79998779297</ele>
        <time>2025-08-10T15:08:39.000Z</time>
      </trkpt>
      <trkpt lat="43.07209" lon="0.22762">
        <ele>581</ele>
        <time>2025-08-10T15:08:41.000Z</time>
      </trkpt>
      <trkpt lat="43.07204" lon="0.22759">
        <ele>581.40002441406</ele>
        <time>2025-08-10T15:08:44.000Z</time>
      </trkpt>
      <trkpt lat="43.07202" lon="0.22758">
        <ele>581.40002441406</ele>
        <time>2025-08-10T15:08:45.000Z</time>
      </trkpt>
      <trkpt lat="43.07187" lon="0.22748">
        <ele>582</ele>
        <time>2025-08-10T15:08:53.000Z</time>
      </trkpt>
      <trkpt lat="43.07175" lon="0.22736">
        <ele>582.20001220703</ele>
        <time>2025-08-10T15:09:00.000Z</time>
      </trkpt>
      <trkpt lat="43.07164" lon="0.22725">
        <ele>582.40002441406</ele>
        <time>2025-08-10T15:09:06.000Z</time>
      </trkpt>
      <trkpt lat="43.07163" lon="0.22725">
        <ele>582.59997558594</ele>
        <time>2025-08-10T15:09:07.000Z</time>
      </trkpt>
      <trkpt lat="43.07157" lon="0.22717">
        <ele>582.59997558594</ele>
        <time>2025-08-10T15:09:11.000Z</time>
      </trkpt>
      <trkpt lat="43.07151" lon="0.22711">
        <ele>582.79998779297</ele>
        <time>2025-08-10T15:09:15.000Z</time>
      </trkpt>
      <trkpt lat="43.07146" lon="0.22709">
        <ele>583</ele>
        <time>2025-08-10T15:09:20.000Z</time>
      </trkpt>
      <trkpt lat="43.07145" lon="0.22709">
        <ele>583</ele>
        <time>2025-08-10T15:09:21.000Z</time>
      </trkpt>
      <trkpt lat="43.07144" lon="0.22708">
        <ele>583</ele>
        <time>2025-08-10T15:09:22.000Z</time>
      </trkpt>
      <trkpt lat="43.07142" lon="0.22707">
        <ele>583.20001220703</ele>
        <time>2025-08-10T15:09:24.000Z</time>
      </trkpt>
      <trkpt lat="43.07141" lon="0.22706">
        <ele>583.20001220703</ele>
        <time>2025-08-10T15:09:25.000Z</time>
      </trkpt>
      <trkpt lat="43.0714" lon="0.22705">
        <ele>583.40002441406</ele>
        <time>2025-08-10T15:09:26.000Z</time>
      </trkpt>
      <trkpt lat="43.07138" lon="0.22696">
        <ele>583.79998779297</ele>
        <time>2025-08-10T15:09:30.000Z</time>
      </trkpt>
      <trkpt lat="43.07139" lon="0.22692">
        <ele>584</ele>
        <time>2025-08-10T15:09:32.000Z</time>
      </trkpt>
      <trkpt lat="43.07143" lon="0.22687">
        <ele>584.20001220703</ele>
        <time>2025-08-10T15:09:35.000Z</time>
      </trkpt>
      <trkpt lat="43.07148" lon="0.22683">
        <ele>584.79998779297</ele>
        <time>2025-08-10T15:09:38.000Z</time>
      </trkpt>
      <trkpt lat="43.07155" lon="0.22678">
        <ele>585.20001220703</ele>
        <time>2025-08-10T15:09:42.000Z</time>
      </trkpt>
      <trkpt lat="43.07167" lon="0.22673">
        <ele>585.59997558594</ele>
        <time>2025-08-10T15:09:48.000Z</time>
      </trkpt>
      <trkpt lat="43.07178" lon="0.22667">
        <ele>585.79998779297</ele>
        <time>2025-08-10T15:09:54.000Z</time>
      </trkpt>
      <trkpt lat="43.07193" lon="0.2266">
        <ele>586</ele>
        <time>2025-08-10T15:10:02.000Z</time>
      </trkpt>
      <trkpt lat="43.07206" lon="0.22653">
        <ele>586.40002441406</ele>
        <time>2025-08-10T15:10:09.000Z</time>
      </trkpt>
      <trkpt lat="43.07222" lon="0.22646">
        <ele>586.79998779297</ele>
        <time>2025-08-10T15:10:17.000Z</time>
      </trkpt>
      <trkpt lat="43.07233" lon="0.22641">
        <ele>586.79998779297</ele>
        <time>2025-08-10T15:10:23.000Z</time>
      </trkpt>
      <trkpt lat="43.07235" lon="0.2264">
        <ele>587</ele>
        <time>2025-08-10T15:10:24.000Z</time>
      </trkpt>
      <trkpt lat="43.07248" lon="0.22636">
        <ele>587.40002441406</ele>
        <time>2025-08-10T15:10:31.000Z</time>
      </trkpt>
      <trkpt lat="43.07257" lon="0.22635">
        <ele>587.79998779297</ele>
        <time>2025-08-10T15:10:36.000Z</time>
      </trkpt>
      <trkpt lat="43.0726" lon="0.22633">
        <ele>588</ele>
        <time>2025-08-10T15:10:38.000Z</time>
      </trkpt>
      <trkpt lat="43.07267" lon="0.22632">
        <ele>588.40002441406</ele>
        <time>2025-08-10T15:10:42.000Z</time>
      </trkpt>
      <trkpt lat="43.07277" lon="0.22631">
        <ele>588.59997558594</ele>
        <time>2025-08-10T15:10:48.000Z</time>
      </trkpt>
      <trkpt lat="43.07279" lon="0.22631">
        <ele>588.59997558594</ele>
        <time>2025-08-10T15:10:49.000Z</time>
      </trkpt>
      <trkpt lat="43.07287" lon="0.22627">
        <ele>588.79998779297</ele>
        <time>2025-08-10T15:10:54.000Z</time>
      </trkpt>
      <trkpt lat="43.07291" lon="0.22625">
        <ele>589</ele>
        <time>2025-08-10T15:10:56.000Z</time>
      </trkpt>
      <trkpt lat="43.07304" lon="0.22621">
        <ele>589.20001220703</ele>
        <time>2025-08-10T15:11:04.000Z</time>
      </trkpt>
      <trkpt lat="43.07313" lon="0.22614">
        <ele>589.40002441406</ele>
        <time>2025-08-10T15:11:09.000Z</time>
      </trkpt>
      <trkpt lat="43.07326" lon="0.22602">
        <ele>589.59997558594</ele>
        <time>2025-08-10T15:11:17.000Z</time>
      </trkpt>
      <trkpt lat="43.07331" lon="0.22594">
        <ele>589.79998779297</ele>
        <time>2025-08-10T15:11:21.000Z</time>
      </trkpt>
      <trkpt lat="43.07335" lon="0.22586">
        <ele>590</ele>
        <time>2025-08-10T15:11:25.000Z</time>
      </trkpt>
      <trkpt lat="43.07337" lon="0.22581">
        <ele>590</ele>
        <time>2025-08-10T15:11:27.000Z</time>
      </trkpt>
      <trkpt lat="43.07342" lon="0.22565">
        <ele>590.20001220703</ele>
        <time>2025-08-10T15:11:34.000Z</time>
      </trkpt>
      <trkpt lat="43.07349" lon="0.22542">
        <ele>590.40002441406</ele>
        <time>2025-08-10T15:11:43.000Z</time>
      </trkpt>
      <trkpt lat="43.07349" lon="0.2252">
        <ele>590.59997558594</ele>
        <time>2025-08-10T15:11:51.000Z</time>
      </trkpt>
      <trkpt lat="43.07338" lon="0.22505">
        <ele>590.59997558594</ele>
        <time>2025-08-10T15:11:58.000Z</time>
      </trkpt>
      <trkpt lat="43.07321" lon="0.22493">
        <ele>591</ele>
        <time>2025-08-10T15:12:07.000Z</time>
      </trkpt>
      <trkpt lat="43.07304" lon="0.22483">
        <ele>591</ele>
        <time>2025-08-10T15:12:14.000Z</time>
      </trkpt>
      <trkpt lat="43.07302" lon="0.22482">
        <ele>591</ele>
        <time>2025-08-10T15:12:15.000Z</time>
      </trkpt>
      <trkpt lat="43.07279" lon="0.22457">
        <ele>591.59997558594</ele>
        <time>2025-08-10T15:12:26.000Z</time>
      </trkpt>
      <trkpt lat="43.07274" lon="0.22451">
        <ele>592</ele>
        <time>2025-08-10T15:12:29.000Z</time>
      </trkpt>
      <trkpt lat="43.07267" lon="0.22445">
        <ele>592.40002441406</ele>
        <time>2025-08-10T15:12:33.000Z</time>
      </trkpt>
      <trkpt lat="43.07258" lon="0.22432">
        <ele>592.79998779297</ele>
        <time>2025-08-10T15:12:39.000Z</time>
      </trkpt>
      <trkpt lat="43.07252" lon="0.22421">
        <ele>593</ele>
        <time>2025-08-10T15:12:43.000Z</time>
      </trkpt>
      <trkpt lat="43.07252" lon="0.22418">
        <ele>593.20001220703</ele>
        <time>2025-08-10T15:12:44.000Z</time>
      </trkpt>
      <trkpt lat="43.07252" lon="0.22414">
        <ele>593.20001220703</ele>
        <time>2025-08-10T15:12:45.000Z</time>
      </trkpt>
      <trkpt lat="43.07251" lon="0.22392">
        <ele>593.79998779297</ele>
        <time>2025-08-10T15:12:52.000Z</time>
      </trkpt>
      <trkpt lat="43.07252" lon="0.22382">
        <ele>594.20001220703</ele>
        <time>2025-08-10T15:12:55.000Z</time>
      </trkpt>
      <trkpt lat="43.07253" lon="0.22368">
        <ele>594.20001220703</ele>
        <time>2025-08-10T15:12:59.000Z</time>
      </trkpt>
      <trkpt lat="43.07259" lon="0.22343">
        <ele>594.59997558594</ele>
        <time>2025-08-10T15:13:07.000Z</time>
      </trkpt>
      <trkpt lat="43.07267" lon="0.22323">
        <ele>594.79998779297</ele>
        <time>2025-08-10T15:13:14.000Z</time>
      </trkpt>
      <trkpt lat="43.0727" lon="0.22306">
        <ele>595</ele>
        <time>2025-08-10T15:13:19.000Z</time>
      </trkpt>
      <trkpt lat="43.07269" lon="0.223">
        <ele>595</ele>
        <time>2025-08-10T15:13:21.000Z</time>
      </trkpt>
      <trkpt lat="43.07267" lon="0.22277">
        <ele>595</ele>
        <time>2025-08-10T15:13:28.000Z</time>
      </trkpt>
      <trkpt lat="43.07261" lon="0.22256">
        <ele>595.20001220703</ele>
        <time>2025-08-10T15:13:35.000Z</time>
      </trkpt>
      <trkpt lat="43.07254" lon="0.22232">
        <ele>595.79998779297</ele>
        <time>2025-08-10T15:13:43.000Z</time>
      </trkpt>
      <trkpt lat="43.07242" lon="0.22217">
        <ele>596</ele>
        <time>2025-08-10T15:13:51.000Z</time>
      </trkpt>
      <trkpt lat="43.07229" lon="0.22209">
        <ele>596.59997558594</ele>
        <time>2025-08-10T15:13:57.000Z</time>
      </trkpt>
      <trkpt lat="43.07222" lon="0.22205">
        <ele>597</ele>
        <time>2025-08-10T15:14:00.000Z</time>
      </trkpt>
      <trkpt lat="43.07211" lon="0.22198">
        <ele>597.20001220703</ele>
        <time>2025-08-10T15:14:05.000Z</time>
      </trkpt>
      <trkpt lat="43.072" lon="0.22189">
        <ele>597.59997558594</ele>
        <time>2025-08-10T15:14:10.000Z</time>
      </trkpt>
      <trkpt lat="43.07196" lon="0.22185">
        <ele>597.79998779297</ele>
        <time>2025-08-10T15:14:12.000Z</time>
      </trkpt>
      <trkpt lat="43.07182" lon="0.22175">
        <ele>598</ele>
        <time>2025-08-10T15:14:18.000Z</time>
      </trkpt>
      <trkpt lat="43.07171" lon="0.22168">
        <ele>598.40002441406</ele>
        <time>2025-08-10T15:14:24.000Z</time>
      </trkpt>
      <trkpt lat="43.0715" lon="0.22157">
        <ele>599</ele>
        <time>2025-08-10T15:14:32.000Z</time>
      </trkpt>
      <trkpt lat="43.07146" lon="0.22155">
        <ele>599</ele>
        <time>2025-08-10T15:14:34.000Z</time>
      </trkpt>
      <trkpt lat="43.07137" lon="0.22152">
        <ele>599.20001220703</ele>
        <time>2025-08-10T15:14:38.000Z</time>
      </trkpt>
      <trkpt lat="43.07122" lon="0.22146">
        <ele>599.59997558594</ele>
        <time>2025-08-10T15:14:44.000Z</time>
      </trkpt>
      <trkpt lat="43.07107" lon="0.22144">
        <ele>600</ele>
        <time>2025-08-10T15:14:50.000Z</time>
      </trkpt>
      <trkpt lat="43.07101" lon="0.22144">
        <ele>600.20001220703</ele>
        <time>2025-08-10T15:14:52.000Z</time>
      </trkpt>
      <trkpt lat="43.0709" lon="0.22144">
        <ele>600.40002441406</ele>
        <time>2025-08-10T15:14:56.000Z</time>
      </trkpt>
      <trkpt lat="43.07076" lon="0.22144">
        <ele>600.59997558594</ele>
        <time>2025-08-10T15:15:01.000Z</time>
      </trkpt>
      <trkpt lat="43.07058" lon="0.22146">
        <ele>600.59997558594</ele>
        <time>2025-08-10T15:15:09.000Z</time>
      </trkpt>
      <trkpt lat="43.07046" lon="0.22144">
        <ele>601.59997558594</ele>
        <time>2025-08-10T15:15:14.000Z</time>
      </trkpt>
      <trkpt lat="43.07041" lon="0.22144">
        <ele>602.20001220703</ele>
        <time>2025-08-10T15:15:16.000Z</time>
      </trkpt>
      <trkpt lat="43.07026" lon="0.22144">
        <ele>602.59997558594</ele>
        <time>2025-08-10T15:15:22.000Z</time>
      </trkpt>
      <trkpt lat="43.07021" lon="0.22145">
        <ele>602.59997558594</ele>
        <time>2025-08-10T15:15:24.000Z</time>
      </trkpt>
      <trkpt lat="43.06999" lon="0.22147">
        <ele>603.20001220703</ele>
        <time>2025-08-10T15:15:33.000Z</time>
      </trkpt>
      <trkpt lat="43.06982" lon="0.22155">
        <ele>603.40002441406</ele>
        <time>2025-08-10T15:15:40.000Z</time>
      </trkpt>
      <trkpt lat="43.06973" lon="0.22164">
        <ele>603.59997558594</ele>
        <time>2025-08-10T15:15:44.000Z</time>
      </trkpt>
      <trkpt lat="43.06964" lon="0.22177">
        <ele>604.20001220703</ele>
        <time>2025-08-10T15:15:49.000Z</time>
      </trkpt>
      <trkpt lat="43.06948" lon="0.222">
        <ele>604.79998779297</ele>
        <time>2025-08-10T15:15:57.000Z</time>
      </trkpt>
      <trkpt lat="43.06942" lon="0.22206">
        <ele>604.79998779297</ele>
        <time>2025-08-10T15:16:00.000Z</time>
      </trkpt>
      <trkpt lat="43.06933" lon="0.22206">
        <ele>604.59997558594</ele>
        <time>2025-08-10T15:16:04.000Z</time>
      </trkpt>
      <trkpt lat="43.06928" lon="0.22195">
        <ele>604.79998779297</ele>
        <time>2025-08-10T15:16:08.000Z</time>
      </trkpt>
      <trkpt lat="43.06922" lon="0.22167">
        <ele>605.20001220703</ele>
        <time>2025-08-10T15:16:15.000Z</time>
      </trkpt>
      <trkpt lat="43.06919" lon="0.22146">
        <ele>605.59997558594</ele>
        <time>2025-08-10T15:16:21.000Z</time>
      </trkpt>
      <trkpt lat="43.06919" lon="0.22143">
        <ele>605.79998779297</ele>
        <time>2025-08-10T15:16:22.000Z</time>
      </trkpt>
      <trkpt lat="43.06912" lon="0.22124">
        <ele>605.79998779297</ele>
        <time>2025-08-10T15:16:28.000Z</time>
      </trkpt>
      <trkpt lat="43.069" lon="0.22101">
        <ele>606.40002441406</ele>
        <time>2025-08-10T15:16:36.000Z</time>
      </trkpt>
      <trkpt lat="43.06898" lon="0.22096">
        <ele>606.40002441406</ele>
        <time>2025-08-10T15:16:38.000Z</time>
      </trkpt>
      <trkpt lat="43.06897" lon="0.22094">
        <ele>606.40002441406</ele>
        <time>2025-08-10T15:16:39.000Z</time>
      </trkpt>
      <trkpt lat="43.06896" lon="0.22089">
        <ele>606.59997558594</ele>
        <time>2025-08-10T15:16:41.000Z</time>
      </trkpt>
      <trkpt lat="43.06891" lon="0.22071">
        <ele>606.79998779297</ele>
        <time>2025-08-10T15:16:46.000Z</time>
      </trkpt>
      <trkpt lat="43.06887" lon="0.22049">
        <ele>607.20001220703</ele>
        <time>2025-08-10T15:16:52.000Z</time>
      </trkpt>
      <trkpt lat="43.06886" lon="0.22046">
        <ele>607.20001220703</ele>
        <time>2025-08-10T15:16:53.000Z</time>
      </trkpt>
      <trkpt lat="43.06881" lon="0.22026">
        <ele>607.79998779297</ele>
        <time>2025-08-10T15:16:59.000Z</time>
      </trkpt>
      <trkpt lat="43.06884" lon="0.22008">
        <ele>608.40002441406</ele>
        <time>2025-08-10T15:17:04.000Z</time>
      </trkpt>
      <trkpt lat="43.06893" lon="0.21997">
        <ele>608.79998779297</ele>
        <time>2025-08-10T15:17:09.000Z</time>
      </trkpt>
      <trkpt lat="43.06905" lon="0.22003">
        <ele>609</ele>
        <time>2025-08-10T15:17:13.000Z</time>
      </trkpt>
      <trkpt lat="43.0692" lon="0.22016">
        <ele>608.59997558594</ele>
        <time>2025-08-10T15:17:20.000Z</time>
      </trkpt>
      <trkpt lat="43.06932" lon="0.2201">
        <ele>608.59997558594</ele>
        <time>2025-08-10T15:17:24.000Z</time>
      </trkpt>
      <trkpt lat="43.06938" lon="0.21992">
        <ele>608.59997558594</ele>
        <time>2025-08-10T15:17:29.000Z</time>
      </trkpt>
      <trkpt lat="43.06939" lon="0.21971">
        <ele>608.40002441406</ele>
        <time>2025-08-10T15:17:35.000Z</time>
      </trkpt>
      <trkpt lat="43.06934" lon="0.21944">
        <ele>608.20001220703</ele>
        <time>2025-08-10T15:17:42.000Z</time>
      </trkpt>
      <trkpt lat="43.06925" lon="0.2192">
        <ele>608.20001220703</ele>
        <time>2025-08-10T15:17:48.000Z</time>
      </trkpt>
      <trkpt lat="43.0691" lon="0.21896">
        <ele>608.20001220703</ele>
        <time>2025-08-10T15:17:55.000Z</time>
      </trkpt>
      <trkpt lat="43.06907" lon="0.2189">
        <ele>608</ele>
        <time>2025-08-10T15:17:57.000Z</time>
      </trkpt>
      <trkpt lat="43.06903" lon="0.21881">
        <ele>608.20001220703</ele>
        <time>2025-08-10T15:18:00.000Z</time>
      </trkpt>
      <trkpt lat="43.06901" lon="0.21861">
        <ele>608.20001220703</ele>
        <time>2025-08-10T15:18:05.000Z</time>
      </trkpt>
      <trkpt lat="43.06903" lon="0.21858">
        <ele>608.20001220703</ele>
        <time>2025-08-10T15:18:06.000Z</time>
      </trkpt>
      <trkpt lat="43.0691" lon="0.21857">
        <ele>608.40002441406</ele>
        <time>2025-08-10T15:18:08.000Z</time>
      </trkpt>
      <trkpt lat="43.06928" lon="0.21859">
        <ele>608.59997558594</ele>
        <time>2025-08-10T15:18:14.000Z</time>
      </trkpt>
      <trkpt lat="43.06949" lon="0.21861">
        <ele>608.79998779297</ele>
        <time>2025-08-10T15:18:21.000Z</time>
      </trkpt>
      <trkpt lat="43.06966" lon="0.21858">
        <ele>609</ele>
        <time>2025-08-10T15:18:27.000Z</time>
      </trkpt>
      <trkpt lat="43.06969" lon="0.21856">
        <ele>609</ele>
        <time>2025-08-10T15:18:28.000Z</time>
      </trkpt>
      <trkpt lat="43.06983" lon="0.21842">
        <ele>609</ele>
        <time>2025-08-10T15:18:34.000Z</time>
      </trkpt>
      <trkpt lat="43.06991" lon="0.21818">
        <ele>609.20001220703</ele>
        <time>2025-08-10T15:18:41.000Z</time>
      </trkpt>
      <trkpt lat="43.06999" lon="0.218">
        <ele>609.59997558594</ele>
        <time>2025-08-10T15:18:46.000Z</time>
      </trkpt>
      <trkpt lat="43.07007" lon="0.2178">
        <ele>610</ele>
        <time>2025-08-10T15:18:52.000Z</time>
      </trkpt>
      <trkpt lat="43.07008" lon="0.21777">
        <ele>610.20001220703</ele>
        <time>2025-08-10T15:18:53.000Z</time>
      </trkpt>
      <trkpt lat="43.07014" lon="0.21764">
        <ele>610.59997558594</ele>
        <time>2025-08-10T15:18:57.000Z</time>
      </trkpt>
      <trkpt lat="43.07024" lon="0.21738">
        <ele>611</ele>
        <time>2025-08-10T15:19:04.000Z</time>
      </trkpt>
      <trkpt lat="43.07029" lon="0.21722">
        <ele>611.20001220703</ele>
        <time>2025-08-10T15:19:08.000Z</time>
      </trkpt>
      <trkpt lat="43.07032" lon="0.2171">
        <ele>611.20001220703</ele>
        <time>2025-08-10T15:19:11.000Z</time>
      </trkpt>
      <trkpt lat="43.07033" lon="0.21686">
        <ele>611.20001220703</ele>
        <time>2025-08-10T15:19:17.000Z</time>
      </trkpt>
      <trkpt lat="43.07039" lon="0.21656">
        <ele>611.59997558594</ele>
        <time>2025-08-10T15:19:25.000Z</time>
      </trkpt>
      <trkpt lat="43.07041" lon="0.21655">
        <ele>611.59997558594</ele>
        <time>2025-08-10T15:19:26.000Z</time>
      </trkpt>
      <trkpt lat="43.07046" lon="0.21656">
        <ele>611.79998779297</ele>
        <time>2025-08-10T15:19:28.000Z</time>
      </trkpt>
      <trkpt lat="43.0705" lon="0.21659">
        <ele>611.79998779297</ele>
        <time>2025-08-10T15:19:30.000Z</time>
      </trkpt>
      <trkpt lat="43.07058" lon="0.21667">
        <ele>612.20001220703</ele>
        <time>2025-08-10T15:19:34.000Z</time>
      </trkpt>
      <trkpt lat="43.0707" lon="0.21683">
        <ele>612.79998779297</ele>
        <time>2025-08-10T15:19:40.000Z</time>
      </trkpt>
      <trkpt lat="43.07078" lon="0.21694">
        <ele>613.20001220703</ele>
        <time>2025-08-10T15:19:44.000Z</time>
      </trkpt>
      <trkpt lat="43.07088" lon="0.21712">
        <ele>613.40002441406</ele>
        <time>2025-08-10T15:19:50.000Z</time>
      </trkpt>
      <trkpt lat="43.07093" lon="0.21725">
        <ele>613.79998779297</ele>
        <time>2025-08-10T15:19:54.000Z</time>
      </trkpt>
      <trkpt lat="43.07097" lon="0.21739">
        <ele>613.79998779297</ele>
        <time>2025-08-10T15:19:58.000Z</time>
      </trkpt>
      <trkpt lat="43.07105" lon="0.21771">
        <ele>614.59997558594</ele>
        <time>2025-08-10T15:20:07.000Z</time>
      </trkpt>
      <trkpt lat="43.07107" lon="0.21782">
        <ele>614.79998779297</ele>
        <time>2025-08-10T15:20:10.000Z</time>
      </trkpt>
      <trkpt lat="43.07115" lon="0.21802">
        <ele>615</ele>
        <time>2025-08-10T15:20:16.000Z</time>
      </trkpt>
      <trkpt lat="43.07117" lon="0.21804">
        <ele>615.20001220703</ele>
        <time>2025-08-10T15:20:17.000Z</time>
      </trkpt>
      <trkpt lat="43.07125" lon="0.21805">
        <ele>615.20001220703</ele>
        <time>2025-08-10T15:20:20.000Z</time>
      </trkpt>
      <trkpt lat="43.07146" lon="0.218">
        <ele>615.59997558594</ele>
        <time>2025-08-10T15:20:28.000Z</time>
      </trkpt>
      <trkpt lat="43.07151" lon="0.21798">
        <ele>615.79998779297</ele>
        <time>2025-08-10T15:20:30.000Z</time>
      </trkpt>
      <trkpt lat="43.07161" lon="0.21801">
        <ele>616</ele>
        <time>2025-08-10T15:20:34.000Z</time>
      </trkpt>
      <trkpt lat="43.07179" lon="0.2182">
        <ele>616.40002441406</ele>
        <time>2025-08-10T15:20:42.000Z</time>
      </trkpt>
      <trkpt lat="43.07194" lon="0.21829">
        <ele>616.79998779297</ele>
        <time>2025-08-10T15:20:48.000Z</time>
      </trkpt>
      <trkpt lat="43.07203" lon="0.21823">
        <ele>616.79998779297</ele>
        <time>2025-08-10T15:20:52.000Z</time>
      </trkpt>
      <trkpt lat="43.07205" lon="0.2182">
        <ele>617</ele>
        <time>2025-08-10T15:20:53.000Z</time>
      </trkpt>
      <trkpt lat="43.07214" lon="0.21792">
        <ele>617.40002441406</ele>
        <time>2025-08-10T15:21:01.000Z</time>
      </trkpt>
      <trkpt lat="43.07222" lon="0.21763">
        <ele>617.79998779297</ele>
        <time>2025-08-10T15:21:09.000Z</time>
      </trkpt>
      <trkpt lat="43.07222" lon="0.2176">
        <ele>618</ele>
        <time>2025-08-10T15:21:10.000Z</time>
      </trkpt>
      <trkpt lat="43.07228" lon="0.21734">
        <ele>618.59997558594</ele>
        <time>2025-08-10T15:21:17.000Z</time>
      </trkpt>
      <trkpt lat="43.07234" lon="0.21706">
        <ele>618.79998779297</ele>
        <time>2025-08-10T15:21:25.000Z</time>
      </trkpt>
      <trkpt lat="43.07238" lon="0.21687">
        <ele>619.20001220703</ele>
        <time>2025-08-10T15:21:30.000Z</time>
      </trkpt>
      <trkpt lat="43.07242" lon="0.21668">
        <ele>619.20001220703</ele>
        <time>2025-08-10T15:21:35.000Z</time>
      </trkpt>
      <trkpt lat="43.07248" lon="0.21642">
        <ele>619.59997558594</ele>
        <time>2025-08-10T15:21:42.000Z</time>
      </trkpt>
      <trkpt lat="43.07257" lon="0.21607">
        <ele>619.79998779297</ele>
        <time>2025-08-10T15:21:52.000Z</time>
      </trkpt>
      <trkpt lat="43.07261" lon="0.21593">
        <ele>620.20001220703</ele>
        <time>2025-08-10T15:21:56.000Z</time>
      </trkpt>
      <trkpt lat="43.07267" lon="0.21568">
        <ele>620.79998779297</ele>
        <time>2025-08-10T15:22:03.000Z</time>
      </trkpt>
      <trkpt lat="43.07271" lon="0.21546">
        <ele>620.79998779297</ele>
        <time>2025-08-10T15:22:09.000Z</time>
      </trkpt>
      <trkpt lat="43.07274" lon="0.21529">
        <ele>621</ele>
        <time>2025-08-10T15:22:14.000Z</time>
      </trkpt>
      <trkpt lat="43.07276" lon="0.21519">
        <ele>621.20001220703</ele>
        <time>2025-08-10T15:22:17.000Z</time>
      </trkpt>
      <trkpt lat="43.0728" lon="0.21505">
        <ele>621.59997558594</ele>
        <time>2025-08-10T15:22:21.000Z</time>
      </trkpt>
      <trkpt lat="43.0728" lon="0.21501">
        <ele>621.59997558594</ele>
        <time>2025-08-10T15:22:22.000Z</time>
      </trkpt>
      <trkpt lat="43.07283" lon="0.21481">
        <ele>622</ele>
        <time>2025-08-10T15:22:28.000Z</time>
      </trkpt>
      <trkpt lat="43.07286" lon="0.21463">
        <ele>622.40002441406</ele>
        <time>2025-08-10T15:22:33.000Z</time>
      </trkpt>
      <trkpt lat="43.07287" lon="0.21456">
        <ele>622.20001220703</ele>
        <time>2025-08-10T15:22:35.000Z</time>
      </trkpt>
      <trkpt lat="43.07295" lon="0.21425">
        <ele>623</ele>
        <time>2025-08-10T15:22:44.000Z</time>
      </trkpt>
      <trkpt lat="43.07297" lon="0.21419">
        <ele>623.20001220703</ele>
        <time>2025-08-10T15:22:46.000Z</time>
      </trkpt>
      <trkpt lat="43.07306" lon="0.21406">
        <ele>623.40002441406</ele>
        <time>2025-08-10T15:22:51.000Z</time>
      </trkpt>
      <trkpt lat="43.07313" lon="0.21398">
        <ele>623.59997558594</ele>
        <time>2025-08-10T15:22:54.000Z</time>
      </trkpt>
      <trkpt lat="43.07316" lon="0.21394">
        <ele>623.59997558594</ele>
        <time>2025-08-10T15:22:57.000Z</time>
      </trkpt>
      <trkpt lat="43.0732" lon="0.21381">
        <ele>623.40002441406</ele>
        <time>2025-08-10T15:23:04.000Z</time>
      </trkpt>
      <trkpt lat="43.07322" lon="0.21379">
        <ele>623.20001220703</ele>
        <time>2025-08-10T15:23:09.000Z</time>
      </trkpt>
      <trkpt lat="43.07311" lon="0.21383">
        <ele>624.59997558594</ele>
        <time>2025-08-10T15:31:15.000Z</time>
      </trkpt>
      <trkpt lat="43.07309" lon="0.21381">
        <ele>624.59997558594</ele>
        <time>2025-08-10T15:31:18.000Z</time>
      </trkpt>
      <trkpt lat="43.07309" lon="0.21375">
        <ele>625</ele>
        <time>2025-08-10T15:31:23.000Z</time>
      </trkpt>
      <trkpt lat="43.07309" lon="0.21373">
        <ele>625.40002441406</ele>
        <time>2025-08-10T15:31:25.000Z</time>
      </trkpt>
      <trkpt lat="43.0731" lon="0.2137">
        <ele>625.59997558594</ele>
        <time>2025-08-10T15:31:27.000Z</time>
      </trkpt>
      <trkpt lat="43.07312" lon="0.21363">
        <ele>626.20001220703</ele>
        <time>2025-08-10T15:31:32.000Z</time>
      </trkpt>
      <trkpt lat="43.07312" lon="0.2136">
        <ele>626.40002441406</ele>
        <time>2025-08-10T15:31:34.000Z</time>
      </trkpt>
      <trkpt lat="43.07313" lon="0.21351">
        <ele>626.79998779297</ele>
        <time>2025-08-10T15:31:41.000Z</time>
      </trkpt>
      <trkpt lat="43.07313" lon="0.2135">
        <ele>627</ele>
        <time>2025-08-10T15:31:44.000Z</time>
      </trkpt>
      <trkpt lat="43.07321" lon="0.21117">
        <ele>648.20001220703</ele>
        <time>2025-08-10T15:35:17.000Z</time>
      </trkpt>
      <trkpt lat="43.07321" lon="0.21117">
        <ele>648.20001220703</ele>
        <time>2025-08-10T15:35:18.000Z</time>
      </trkpt>
      <trkpt lat="43.07183" lon="0.21012">
        <ele>669.59997558594</ele>
        <time>2025-08-10T15:40:58.000Z</time>
      </trkpt>
      <trkpt lat="43.0718" lon="0.21019">
        <ele>669.40002441406</ele>
        <time>2025-08-10T15:41:00.000Z</time>
      </trkpt>
      <trkpt lat="43.07169" lon="0.21042">
        <ele>669.20001220703</ele>
        <time>2025-08-10T15:41:07.000Z</time>
      </trkpt>
      <trkpt lat="43.07154" lon="0.2106">
        <ele>668.79998779297</ele>
        <time>2025-08-10T15:41:14.000Z</time>
      </trkpt>
      <trkpt lat="43.07144" lon="0.21068">
        <ele>668.59997558594</ele>
        <time>2025-08-10T15:41:19.000Z</time>
      </trkpt>
      <trkpt lat="43.07143" lon="0.21069">
        <ele>668.40002441406</ele>
        <time>2025-08-10T15:41:20.000Z</time>
      </trkpt>
      <trkpt lat="43.07143" lon="0.21069">
        <ele>668.40002441406</ele>
        <time>2025-08-10T15:41:21.000Z</time>
      </trkpt>
      <trkpt lat="43.07138" lon="0.21069">
        <ele>667.20001220703</ele>
        <time>2025-08-10T15:41:48.000Z</time>
      </trkpt>
      <trkpt lat="43.07132" lon="0.21071">
        <ele>667.20001220703</ele>
        <time>2025-08-10T15:41:51.000Z</time>
      </trkpt>
      <trkpt lat="43.07114" lon="0.21075">
        <ele>666.20001220703</ele>
        <time>2025-08-10T15:42:01.000Z</time>
      </trkpt>
      <trkpt lat="43.07113" lon="0.21075">
        <ele>666.20001220703</ele>
        <time>2025-08-10T15:42:02.000Z</time>
      </trkpt>
      <trkpt lat="43.07107" lon="0.21077">
        <ele>666</ele>
        <time>2025-08-10T15:42:06.000Z</time>
      </trkpt>
      <trkpt lat="43.07105" lon="0.21078">
        <ele>665.79998779297</ele>
        <time>2025-08-10T15:42:09.000Z</time>
      </trkpt>
      <trkpt lat="43.07103" lon="0.21078">
        <ele>665.79998779297</ele>
        <time>2025-08-10T15:42:10.000Z</time>
      </trkpt>
      <trkpt lat="43.07096" lon="0.2108">
        <ele>665.59997558594</ele>
        <time>2025-08-10T15:42:16.000Z</time>
      </trkpt>
      <trkpt lat="43.07084" lon="0.21078">
        <ele>665.59997558594</ele>
        <time>2025-08-10T15:42:24.000Z</time>
      </trkpt>
      <trkpt lat="43.07077" lon="0.21076">
        <ele>666</ele>
        <time>2025-08-10T15:42:31.000Z</time>
      </trkpt>
      <trkpt lat="43.07066" lon="0.2107">
        <ele>666.20001220703</ele>
        <time>2025-08-10T15:42:39.000Z</time>
      </trkpt>
      <trkpt lat="43.07057" lon="0.21065">
        <ele>666</ele>
        <time>2025-08-10T15:42:45.000Z</time>
      </trkpt>
      <trkpt lat="43.07053" lon="0.21062">
        <ele>665.79998779297</ele>
        <time>2025-08-10T15:42:49.000Z</time>
      </trkpt>
      <trkpt lat="43.07049" lon="0.2106">
        <ele>665.79998779297</ele>
        <time>2025-08-10T15:42:52.000Z</time>
      </trkpt>
      <trkpt lat="43.07036" lon="0.21052">
        <ele>665.59997558594</ele>
        <time>2025-08-10T15:43:00.000Z</time>
      </trkpt>
      <trkpt lat="43.07025" lon="0.21047">
        <ele>665.59997558594</ele>
        <time>2025-08-10T15:43:07.000Z</time>
      </trkpt>
      <trkpt lat="43.07014" lon="0.21041">
        <ele>665.79998779297</ele>
        <time>2025-08-10T15:43:13.000Z</time>
      </trkpt>
      <trkpt lat="43.07" lon="0.21035">
        <ele>665.79998779297</ele>
        <time>2025-08-10T15:43:20.000Z</time>
      </trkpt>
      <trkpt lat="43.06992" lon="0.21029">
        <ele>665.79998779297</ele>
        <time>2025-08-10T15:43:25.000Z</time>
      </trkpt>
      <trkpt lat="43.06988" lon="0.21029">
        <ele>665.79998779297</ele>
        <time>2025-08-10T15:43:27.000Z</time>
      </trkpt>
      <trkpt lat="43.06971" lon="0.21025">
        <ele>665.40002441406</ele>
        <time>2025-08-10T15:43:35.000Z</time>
      </trkpt>
      <trkpt lat="43.06958" lon="0.21023">
        <ele>664.79998779297</ele>
        <time>2025-08-10T15:43:42.000Z</time>
      </trkpt>
      <trkpt lat="43.06957" lon="0.21023">
        <ele>664.79998779297</ele>
        <time>2025-08-10T15:43:43.000Z</time>
      </trkpt>
      <trkpt lat="43.06939" lon="0.21024">
        <ele>664.20001220703</ele>
        <time>2025-08-10T15:43:53.000Z</time>
      </trkpt>
      <trkpt lat="43.06934" lon="0.21024">
        <ele>663.79998779297</ele>
        <time>2025-08-10T15:43:56.000Z</time>
      </trkpt>
      <trkpt lat="43.06922" lon="0.21024">
        <ele>663</ele>
        <time>2025-08-10T15:44:03.000Z</time>
      </trkpt>
      <trkpt lat="43.06916" lon="0.21024">
        <ele>662.79998779297</ele>
        <time>2025-08-10T15:44:06.000Z</time>
      </trkpt>
      <trkpt lat="43.06905" lon="0.21024">
        <ele>662</ele>
        <time>2025-08-10T15:44:13.000Z</time>
      </trkpt>
      <trkpt lat="43.06896" lon="0.21025">
        <ele>661.79998779297</ele>
        <time>2025-08-10T15:44:17.000Z</time>
      </trkpt>
      <trkpt lat="43.06891" lon="0.21025">
        <ele>661.20001220703</ele>
        <time>2025-08-10T15:44:20.000Z</time>
      </trkpt>
      <trkpt lat="43.06879" lon="0.21027">
        <ele>660.79998779297</ele>
        <time>2025-08-10T15:44:26.000Z</time>
      </trkpt>
      <trkpt lat="43.06872" lon="0.21028">
        <ele>660.40002441406</ele>
        <time>2025-08-10T15:44:29.000Z</time>
      </trkpt>
      <trkpt lat="43.06866" lon="0.21029">
        <ele>659.79998779297</ele>
        <time>2025-08-10T15:44:32.000Z</time>
      </trkpt>
      <trkpt lat="43.06852" lon="0.2103">
        <ele>659</ele>
        <time>2025-08-10T15:44:38.000Z</time>
      </trkpt>
      <trkpt lat="43.0685" lon="0.2103">
        <ele>659</ele>
        <time>2025-08-10T15:44:39.000Z</time>
      </trkpt>
      <trkpt lat="43.06847" lon="0.21033">
        <ele>658.59997558594</ele>
        <time>2025-08-10T15:44:41.000Z</time>
      </trkpt>
      <trkpt lat="43.06843" lon="0.21033">
        <ele>658.40002441406</ele>
        <time>2025-08-10T15:44:43.000Z</time>
      </trkpt>
      <trkpt lat="43.06835" lon="0.21034">
        <ele>657.59997558594</ele>
        <time>2025-08-10T15:44:47.000Z</time>
      </trkpt>
      <trkpt lat="43.0683" lon="0.21035">
        <ele>656.59997558594</ele>
        <time>2025-08-10T15:44:50.000Z</time>
      </trkpt>
      <trkpt lat="43.06828" lon="0.21034">
        <ele>656.59997558594</ele>
        <time>2025-08-10T15:44:51.000Z</time>
      </trkpt>
      <trkpt lat="43.06823" lon="0.21035">
        <ele>655.59997558594</ele>
        <time>2025-08-10T15:44:54.000Z</time>
      </trkpt>
      <trkpt lat="43.0682" lon="0.21036">
        <ele>655.20001220703</ele>
        <time>2025-08-10T15:44:56.000Z</time>
      </trkpt>
      <trkpt lat="43.06812" lon="0.21036">
        <ele>654</ele>
        <time>2025-08-10T15:45:01.000Z</time>
      </trkpt>
      <trkpt lat="43.06803" lon="0.21036">
        <ele>653.20001220703</ele>
        <time>2025-08-10T15:45:05.000Z</time>
      </trkpt>
      <trkpt lat="43.068" lon="0.21037">
        <ele>652.79998779297</ele>
        <time>2025-08-10T15:45:06.000Z</time>
      </trkpt>
      <trkpt lat="43.0679" lon="0.21037">
        <ele>651.59997558594</ele>
        <time>2025-08-10T15:45:11.000Z</time>
      </trkpt>
      <trkpt lat="43.06787" lon="0.21036">
        <ele>651.20001220703</ele>
        <time>2025-08-10T15:45:13.000Z</time>
      </trkpt>
      <trkpt lat="43.06782" lon="0.21037">
        <ele>650.40002441406</ele>
        <time>2025-08-10T15:45:16.000Z</time>
      </trkpt>
      <trkpt lat="43.0678" lon="0.21037">
        <ele>650.20001220703</ele>
        <time>2025-08-10T15:45:17.000Z</time>
      </trkpt>
      <trkpt lat="43.06775" lon="0.21038">
        <ele>649.79998779297</ele>
        <time>2025-08-10T15:45:20.000Z</time>
      </trkpt>
      <trkpt lat="43.06772" lon="0.21038">
        <ele>649.40002441406</ele>
        <time>2025-08-10T15:45:23.000Z</time>
      </trkpt>
      <trkpt lat="43.06769" lon="0.21039">
        <ele>648.79998779297</ele>
        <time>2025-08-10T15:45:26.000Z</time>
      </trkpt>
      <trkpt lat="43.06768" lon="0.21039">
        <ele>648.20001220703</ele>
        <time>2025-08-10T15:45:28.000Z</time>
      </trkpt>
      <trkpt lat="43.06768" lon="0.21039">
        <ele>647.59997558594</ele>
        <time>2025-08-10T15:45:30.000Z</time>
      </trkpt>
      <trkpt lat="43.0667" lon="0.2102">
        <ele>635.79998779297</ele>
        <time>2025-08-10T15:47:55.000Z</time>
      </trkpt>
      <trkpt lat="43.06669" lon="0.2102">
        <ele>635.79998779297</ele>
        <time>2025-08-10T15:47:56.000Z</time>
      </trkpt>
      <trkpt lat="43.06661" lon="0.21028">
        <ele>635.20001220703</ele>
        <time>2025-08-10T15:48:04.000Z</time>
      </trkpt>
      <trkpt lat="43.06661" lon="0.21029">
        <ele>635</ele>
        <time>2025-08-10T15:48:05.000Z</time>
      </trkpt>
      <trkpt lat="43.0666" lon="0.21032">
        <ele>634.79998779297</ele>
        <time>2025-08-10T15:48:08.000Z</time>
      </trkpt>
      <trkpt lat="43.06659" lon="0.21032">
        <ele>634.40002441406</ele>
        <time>2025-08-10T15:48:11.000Z</time>
      </trkpt>
      <trkpt lat="43.06663" lon="0.21027">
        <ele>635</ele>
        <time>2025-08-10T15:54:09.000Z</time>
      </trkpt>
      <trkpt lat="43.06666" lon="0.21025">
        <ele>635</ele>
        <time>2025-08-10T15:54:11.000Z</time>
      </trkpt>
      <trkpt lat="43.06666" lon="0.21023">
        <ele>635.20001220703</ele>
        <time>2025-08-10T15:54:12.000Z</time>
      </trkpt>
      <trkpt lat="43.06668" lon="0.21022">
        <ele>635.20001220703</ele>
        <time>2025-08-10T15:54:13.000Z</time>
      </trkpt>
      <trkpt lat="43.06671" lon="0.21021">
        <ele>635.40002441406</ele>
        <time>2025-08-10T15:54:15.000Z</time>
      </trkpt>
      <trkpt lat="43.06672" lon="0.21018">
        <ele>635.59997558594</ele>
        <time>2025-08-10T15:54:17.000Z</time>
      </trkpt>
      <trkpt lat="43.06679" lon="0.21015">
        <ele>636.40002441406</ele>
        <time>2025-08-10T15:54:21.000Z</time>
      </trkpt>
      <trkpt lat="43.06686" lon="0.2101">
        <ele>636.59997558594</ele>
        <time>2025-08-10T15:54:26.000Z</time>
      </trkpt>
      <trkpt lat="43.06704" lon="0.21001">
        <ele>636.59997558594</ele>
        <time>2025-08-10T15:54:33.000Z</time>
      </trkpt>
      <trkpt lat="43.0672" lon="0.2099">
        <ele>636.40002441406</ele>
        <time>2025-08-10T15:54:36.000Z</time>
      </trkpt>
      <trkpt lat="43.06738" lon="0.20984">
        <ele>636</ele>
        <time>2025-08-10T15:54:39.000Z</time>
      </trkpt>
      <trkpt lat="43.06744" lon="0.20983">
        <ele>635.79998779297</ele>
        <time>2025-08-10T15:54:40.000Z</time>
      </trkpt>
      <trkpt lat="43.06757" lon="0.20979">
        <ele>635.59997558594</ele>
        <time>2025-08-10T15:54:43.000Z</time>
      </trkpt>
      <trkpt lat="43.06766" lon="0.20975">
        <ele>635.59997558594</ele>
        <time>2025-08-10T15:54:45.000Z</time>
      </trkpt>
      <trkpt lat="43.06774" lon="0.2097">
        <ele>635.59997558594</ele>
        <time>2025-08-10T15:54:47.000Z</time>
      </trkpt>
      <trkpt lat="43.06787" lon="0.20958">
        <ele>635.79998779297</ele>
        <time>2025-08-10T15:54:51.000Z</time>
      </trkpt>
      <trkpt lat="43.0679" lon="0.20955">
        <ele>636</ele>
        <time>2025-08-10T15:54:52.000Z</time>
      </trkpt>
      <trkpt lat="43.06807" lon="0.20936">
        <ele>636.40002441406</ele>
        <time>2025-08-10T15:54:58.000Z</time>
      </trkpt>
      <trkpt lat="43.06825" lon="0.20919">
        <ele>636.40002441406</ele>
        <time>2025-08-10T15:55:04.000Z</time>
      </trkpt>
      <trkpt lat="43.06837" lon="0.20906">
        <ele>636.59997558594</ele>
        <time>2025-08-10T15:55:09.000Z</time>
      </trkpt>
      <trkpt lat="43.06852" lon="0.2089">
        <ele>636.20001220703</ele>
        <time>2025-08-10T15:55:16.000Z</time>
      </trkpt>
      <trkpt lat="43.06868" lon="0.20878">
        <ele>635.59997558594</ele>
        <time>2025-08-10T15:55:21.000Z</time>
      </trkpt>
      <trkpt lat="43.06889" lon="0.20864">
        <ele>635.20001220703</ele>
        <time>2025-08-10T15:55:26.000Z</time>
      </trkpt>
      <trkpt lat="43.06893" lon="0.20862">
        <ele>635</ele>
        <time>2025-08-10T15:55:27.000Z</time>
      </trkpt>
      <trkpt lat="43.06898" lon="0.20859">
        <ele>634.79998779297</ele>
        <time>2025-08-10T15:55:28.000Z</time>
      </trkpt>
      <trkpt lat="43.06908" lon="0.20856">
        <ele>634</ele>
        <time>2025-08-10T15:55:30.000Z</time>
      </trkpt>
      <trkpt lat="43.06914" lon="0.20856">
        <ele>634</ele>
        <time>2025-08-10T15:55:31.000Z</time>
      </trkpt>
      <trkpt lat="43.06926" lon="0.20857">
        <ele>633.40002441406</ele>
        <time>2025-08-10T15:55:33.000Z</time>
      </trkpt>
      <trkpt lat="43.06932" lon="0.20858">
        <ele>633</ele>
        <time>2025-08-10T15:55:34.000Z</time>
      </trkpt>
      <trkpt lat="43.06951" lon="0.2086">
        <ele>631.59997558594</ele>
        <time>2025-08-10T15:55:37.000Z</time>
      </trkpt>
      <trkpt lat="43.06964" lon="0.20861">
        <ele>630</ele>
        <time>2025-08-10T15:55:39.000Z</time>
      </trkpt>
      <trkpt lat="43.0697" lon="0.20861">
        <ele>628.79998779297</ele>
        <time>2025-08-10T15:55:40.000Z</time>
      </trkpt>
      <trkpt lat="43.06982" lon="0.20859">
        <ele>627.59997558594</ele>
        <time>2025-08-10T15:55:42.000Z</time>
      </trkpt>
      <trkpt lat="43.06995" lon="0.20857">
        <ele>625.59997558594</ele>
        <time>2025-08-10T15:55:44.000Z</time>
      </trkpt>
      <trkpt lat="43.07001" lon="0.20856">
        <ele>624.40002441406</ele>
        <time>2025-08-10T15:55:45.000Z</time>
      </trkpt>
      <trkpt lat="43.07017" lon="0.20853">
        <ele>623.40002441406</ele>
        <time>2025-08-10T15:55:48.000Z</time>
      </trkpt>
      <trkpt lat="43.07022" lon="0.20853">
        <ele>622.79998779297</ele>
        <time>2025-08-10T15:55:49.000Z</time>
      </trkpt>
      <trkpt lat="43.07027" lon="0.20851">
        <ele>622.59997558594</ele>
        <time>2025-08-10T15:55:50.000Z</time>
      </trkpt>
      <trkpt lat="43.07033" lon="0.20848">
        <ele>621.79998779297</ele>
        <time>2025-08-10T15:55:51.000Z</time>
      </trkpt>
      <trkpt lat="43.07039" lon="0.20835">
        <ele>621</ele>
        <time>2025-08-10T15:55:53.000Z</time>
      </trkpt>
      <trkpt lat="43.07039" lon="0.20829">
        <ele>620.40002441406</ele>
        <time>2025-08-10T15:55:54.000Z</time>
      </trkpt>
      <trkpt lat="43.07038" lon="0.20822">
        <ele>620.20001220703</ele>
        <time>2025-08-10T15:55:55.000Z</time>
      </trkpt>
      <trkpt lat="43.07036" lon="0.20815">
        <ele>619.59997558594</ele>
        <time>2025-08-10T15:55:56.000Z</time>
      </trkpt>
      <trkpt lat="43.07034" lon="0.20808">
        <ele>619.59997558594</ele>
        <time>2025-08-10T15:55:57.000Z</time>
      </trkpt>
      <trkpt lat="43.07034" lon="0.20803">
        <ele>619.40002441406</ele>
        <time>2025-08-10T15:55:58.000Z</time>
      </trkpt>
      <trkpt lat="43.07035" lon="0.20799">
        <ele>619</ele>
        <time>2025-08-10T15:55:59.000Z</time>
      </trkpt>
      <trkpt lat="43.07035" lon="0.20799">
        <ele>618.59997558594</ele>
        <time>2025-08-10T15:56:02.000Z</time>
      </trkpt>
      <trkpt lat="43.07026" lon="0.20781">
        <ele>616.79998779297</ele>
        <time>2025-08-10T15:56:57.000Z</time>
      </trkpt>
      <trkpt lat="43.07024" lon="0.20775">
        <ele>616.79998779297</ele>
        <time>2025-08-10T15:56:59.000Z</time>
      </trkpt>
      <trkpt lat="43.07024" lon="0.20773">
        <ele>616.79998779297</ele>
        <time>2025-08-10T15:57:00.000Z</time>
      </trkpt>
      <trkpt lat="43.07025" lon="0.20764">
        <ele>616.40002441406</ele>
        <time>2025-08-10T15:57:03.000Z</time>
      </trkpt>
      <trkpt lat="43.0702" lon="0.20746">
        <ele>616.40002441406</ele>
        <time>2025-08-10T15:57:07.000Z</time>
      </trkpt>
      <trkpt lat="43.07011" lon="0.20725">
        <ele>616.40002441406</ele>
        <time>2025-08-10T15:57:12.000Z</time>
      </trkpt>
      <trkpt lat="43.07001" lon="0.20702">
        <ele>616.40002441406</ele>
        <time>2025-08-10T15:57:16.000Z</time>
      </trkpt>
      <trkpt lat="43.06989" lon="0.20684">
        <ele>616</ele>
        <time>2025-08-10T15:57:19.000Z</time>
      </trkpt>
      <trkpt lat="43.06977" lon="0.20665">
        <ele>615.59997558594</ele>
        <time>2025-08-10T15:57:22.000Z</time>
      </trkpt>
      <trkpt lat="43.06964" lon="0.20645">
        <ele>615.20001220703</ele>
        <time>2025-08-10T15:57:25.000Z</time>
      </trkpt>
      <trkpt lat="43.06953" lon="0.20629">
        <ele>614.59997558594</ele>
        <time>2025-08-10T15:57:28.000Z</time>
      </trkpt>
      <trkpt lat="43.0695" lon="0.20625">
        <ele>614.20001220703</ele>
        <time>2025-08-10T15:57:29.000Z</time>
      </trkpt>
      <trkpt lat="43.06938" lon="0.20601">
        <ele>613.40002441406</ele>
        <time>2025-08-10T15:57:33.000Z</time>
      </trkpt>
      <trkpt lat="43.06932" lon="0.20588">
        <ele>613</ele>
        <time>2025-08-10T15:57:35.000Z</time>
      </trkpt>
      <trkpt lat="43.0693" lon="0.20582">
        <ele>612.79998779297</ele>
        <time>2025-08-10T15:57:36.000Z</time>
      </trkpt>
      <trkpt lat="43.06927" lon="0.20568">
        <ele>612.59997558594</ele>
        <time>2025-08-10T15:57:38.000Z</time>
      </trkpt>
      <trkpt lat="43.06926" lon="0.20561">
        <ele>612.40002441406</ele>
        <time>2025-08-10T15:57:39.000Z</time>
      </trkpt>
      <trkpt lat="43.06925" lon="0.20553">
        <ele>612.20001220703</ele>
        <time>2025-08-10T15:57:40.000Z</time>
      </trkpt>
      <trkpt lat="43.06924" lon="0.20546">
        <ele>612</ele>
        <time>2025-08-10T15:57:41.000Z</time>
      </trkpt>
      <trkpt lat="43.06924" lon="0.20524">
        <ele>611.20001220703</ele>
        <time>2025-08-10T15:57:44.000Z</time>
      </trkpt>
      <trkpt lat="43.06925" lon="0.20519">
        <ele>611</ele>
        <time>2025-08-10T15:57:45.000Z</time>
      </trkpt>
      <trkpt lat="43.06925" lon="0.20504">
        <ele>610.59997558594</ele>
        <time>2025-08-10T15:57:47.000Z</time>
      </trkpt>
      <trkpt lat="43.06927" lon="0.20492">
        <ele>610</ele>
        <time>2025-08-10T15:57:49.000Z</time>
      </trkpt>
      <trkpt lat="43.06928" lon="0.20486">
        <ele>610.20001220703</ele>
        <time>2025-08-10T15:57:50.000Z</time>
      </trkpt>
      <trkpt lat="43.06933" lon="0.20458">
        <ele>609.79998779297</ele>
        <time>2025-08-10T15:57:54.000Z</time>
      </trkpt>
      <trkpt lat="43.06938" lon="0.20439">
        <ele>609.59997558594</ele>
        <time>2025-08-10T15:57:57.000Z</time>
      </trkpt>
      <trkpt lat="43.0694" lon="0.20427">
        <ele>609.20001220703</ele>
        <time>2025-08-10T15:57:59.000Z</time>
      </trkpt>
      <trkpt lat="43.06947" lon="0.20403">
        <ele>608.20001220703</ele>
        <time>2025-08-10T15:58:03.000Z</time>
      </trkpt>
      <trkpt lat="43.06955" lon="0.20382">
        <ele>607.40002441406</ele>
        <time>2025-08-10T15:58:06.000Z</time>
      </trkpt>
      <trkpt lat="43.0696" lon="0.2037">
        <ele>607</ele>
        <time>2025-08-10T15:58:08.000Z</time>
      </trkpt>
      <trkpt lat="43.06963" lon="0.20361">
        <ele>606.40002441406</ele>
        <time>2025-08-10T15:58:09.000Z</time>
      </trkpt>
      <trkpt lat="43.06964" lon="0.20355">
        <ele>606</ele>
        <time>2025-08-10T15:58:10.000Z</time>
      </trkpt>
      <trkpt lat="43.06967" lon="0.2034">
        <ele>605</ele>
        <time>2025-08-10T15:58:12.000Z</time>
      </trkpt>
      <trkpt lat="43.0697" lon="0.20332">
        <ele>604.40002441406</ele>
        <time>2025-08-10T15:58:13.000Z</time>
      </trkpt>
      <trkpt lat="43.06972" lon="0.20324">
        <ele>603.59997558594</ele>
        <time>2025-08-10T15:58:14.000Z</time>
      </trkpt>
      <trkpt lat="43.06974" lon="0.20315">
        <ele>603.20001220703</ele>
        <time>2025-08-10T15:58:15.000Z</time>
      </trkpt>
      <trkpt lat="43.06977" lon="0.20296">
        <ele>602.59997558594</ele>
        <time>2025-08-10T15:58:17.000Z</time>
      </trkpt>
      <trkpt lat="43.06978" lon="0.20286">
        <ele>601.79998779297</ele>
        <time>2025-08-10T15:58:18.000Z</time>
      </trkpt>
      <trkpt lat="43.06983" lon="0.20259">
        <ele>600.59997558594</ele>
        <time>2025-08-10T15:58:21.000Z</time>
      </trkpt>
      <trkpt lat="43.06987" lon="0.20248">
        <ele>600.20001220703</ele>
        <time>2025-08-10T15:58:22.000Z</time>
      </trkpt>
      <trkpt lat="43.06994" lon="0.20231">
        <ele>599.40002441406</ele>
        <time>2025-08-10T15:58:24.000Z</time>
      </trkpt>
      <trkpt lat="43.07008" lon="0.20199">
        <ele>598.40002441406</ele>
        <time>2025-08-10T15:58:28.000Z</time>
      </trkpt>
      <trkpt lat="43.07012" lon="0.20191">
        <ele>598.20001220703</ele>
        <time>2025-08-10T15:58:29.000Z</time>
      </trkpt>
      <trkpt lat="43.07037" lon="0.20142">
        <ele>597.40002441406</ele>
        <time>2025-08-10T15:58:36.000Z</time>
      </trkpt>
      <trkpt lat="43.0704" lon="0.20136">
        <ele>597.20001220703</ele>
        <time>2025-08-10T15:58:37.000Z</time>
      </trkpt>
      <trkpt lat="43.07056" lon="0.20108">
        <ele>597.20001220703</ele>
        <time>2025-08-10T15:58:42.000Z</time>
      </trkpt>
      <trkpt lat="43.07072" lon="0.20079">
        <ele>597.20001220703</ele>
        <time>2025-08-10T15:58:48.000Z</time>
      </trkpt>
      <trkpt lat="43.07074" lon="0.20075">
        <ele>597.20001220703</ele>
        <time>2025-08-10T15:58:49.000Z</time>
      </trkpt>
      <trkpt lat="43.07084" lon="0.20059">
        <ele>597.59997558594</ele>
        <time>2025-08-10T15:58:53.000Z</time>
      </trkpt>
      <trkpt lat="43.07091" lon="0.20046">
        <ele>598.40002441406</ele>
        <time>2025-08-10T15:58:57.000Z</time>
      </trkpt>
      <trkpt lat="43.07093" lon="0.20043">
        <ele>598.79998779297</ele>
        <time>2025-08-10T15:58:58.000Z</time>
      </trkpt>
      <trkpt lat="43.07107" lon="0.20019">
        <ele>599.20001220703</ele>
        <time>2025-08-10T15:59:05.000Z</time>
      </trkpt>
      <trkpt lat="43.07118" lon="0.19994">
        <ele>599.40002441406</ele>
        <time>2025-08-10T15:59:10.000Z</time>
      </trkpt>
      <trkpt lat="43.0712" lon="0.19989">
        <ele>599.20001220703</ele>
        <time>2025-08-10T15:59:11.000Z</time>
      </trkpt>
      <trkpt lat="43.07122" lon="0.19983">
        <ele>599.20001220703</ele>
        <time>2025-08-10T15:59:12.000Z</time>
      </trkpt>
      <trkpt lat="43.07124" lon="0.19977">
        <ele>599</ele>
        <time>2025-08-10T15:59:13.000Z</time>
      </trkpt>
      <trkpt lat="43.07128" lon="0.19966">
        <ele>598.79998779297</ele>
        <time>2025-08-10T15:59:15.000Z</time>
      </trkpt>
      <trkpt lat="43.07135" lon="0.1995">
        <ele>598.59997558594</ele>
        <time>2025-08-10T15:59:18.000Z</time>
      </trkpt>
      <trkpt lat="43.07139" lon="0.19942">
        <ele>598.40002441406</ele>
        <time>2025-08-10T15:59:20.000Z</time>
      </trkpt>
      <trkpt lat="43.07141" lon="0.19938">
        <ele>598</ele>
        <time>2025-08-10T15:59:21.000Z</time>
      </trkpt>
      <trkpt lat="43.07144" lon="0.19934">
        <ele>597.20001220703</ele>
        <time>2025-08-10T15:59:22.000Z</time>
      </trkpt>
      <trkpt lat="43.07153" lon="0.19921">
        <ele>595.79998779297</ele>
        <time>2025-08-10T15:59:26.000Z</time>
      </trkpt>
      <trkpt lat="43.07161" lon="0.19909">
        <ele>594.79998779297</ele>
        <time>2025-08-10T15:59:29.000Z</time>
      </trkpt>
      <trkpt lat="43.07167" lon="0.199">
        <ele>594.20001220703</ele>
        <time>2025-08-10T15:59:31.000Z</time>
      </trkpt>
      <trkpt lat="43.0717" lon="0.19897">
        <ele>594.20001220703</ele>
        <time>2025-08-10T15:59:32.000Z</time>
      </trkpt>
      <trkpt lat="43.07173" lon="0.19891">
        <ele>593.59997558594</ele>
        <time>2025-08-10T15:59:33.000Z</time>
      </trkpt>
      <trkpt lat="43.07181" lon="0.19874">
        <ele>592</ele>
        <time>2025-08-10T15:59:36.000Z</time>
      </trkpt>
      <trkpt lat="43.07186" lon="0.19862">
        <ele>591.40002441406</ele>
        <time>2025-08-10T15:59:38.000Z</time>
      </trkpt>
      <trkpt lat="43.07192" lon="0.19849">
        <ele>590.79998779297</ele>
        <time>2025-08-10T15:59:40.000Z</time>
      </trkpt>
      <trkpt lat="43.072" lon="0.19834">
        <ele>589.40002441406</ele>
        <time>2025-08-10T15:59:43.000Z</time>
      </trkpt>
      <trkpt lat="43.07209" lon="0.19816">
        <ele>588.59997558594</ele>
        <time>2025-08-10T15:59:46.000Z</time>
      </trkpt>
      <trkpt lat="43.07212" lon="0.1981">
        <ele>588.20001220703</ele>
        <time>2025-08-10T15:59:47.000Z</time>
      </trkpt>
      <trkpt lat="43.07226" lon="0.19782">
        <ele>587</ele>
        <time>2025-08-10T15:59:52.000Z</time>
      </trkpt>
      <trkpt lat="43.07229" lon="0.19776">
        <ele>586.79998779297</ele>
        <time>2025-08-10T15:59:53.000Z</time>
      </trkpt>
      <trkpt lat="43.0724" lon="0.1976">
        <ele>586.20001220703</ele>
        <time>2025-08-10T15:59:56.000Z</time>
      </trkpt>
      <trkpt lat="43.07248" lon="0.19749">
        <ele>585.79998779297</ele>
        <time>2025-08-10T15:59:58.000Z</time>
      </trkpt>
      <trkpt lat="43.07254" lon="0.19738">
        <ele>585</ele>
        <time>2025-08-10T16:00:00.000Z</time>
      </trkpt>
      <trkpt lat="43.07261" lon="0.19723">
        <ele>583.79998779297</ele>
        <time>2025-08-10T16:00:02.000Z</time>
      </trkpt>
      <trkpt lat="43.07264" lon="0.19716">
        <ele>583.40002441406</ele>
        <time>2025-08-10T16:00:03.000Z</time>
      </trkpt>
      <trkpt lat="43.07267" lon="0.19709">
        <ele>582.59997558594</ele>
        <time>2025-08-10T16:00:04.000Z</time>
      </trkpt>
      <trkpt lat="43.07272" lon="0.19695">
        <ele>581.40002441406</ele>
        <time>2025-08-10T16:00:06.000Z</time>
      </trkpt>
      <trkpt lat="43.07278" lon="0.19682">
        <ele>580</ele>
        <time>2025-08-10T16:00:08.000Z</time>
      </trkpt>
      <trkpt lat="43.07283" lon="0.19667">
        <ele>579.20001220703</ele>
        <time>2025-08-10T16:00:10.000Z</time>
      </trkpt>
      <trkpt lat="43.07285" lon="0.19659">
        <ele>578.59997558594</ele>
        <time>2025-08-10T16:00:11.000Z</time>
      </trkpt>
      <trkpt lat="43.07287" lon="0.19651">
        <ele>578.20001220703</ele>
        <time>2025-08-10T16:00:12.000Z</time>
      </trkpt>
      <trkpt lat="43.07289" lon="0.19642">
        <ele>577.40002441406</ele>
        <time>2025-08-10T16:00:13.000Z</time>
      </trkpt>
      <trkpt lat="43.07292" lon="0.19625">
        <ele>576.40002441406</ele>
        <time>2025-08-10T16:00:15.000Z</time>
      </trkpt>
      <trkpt lat="43.07293" lon="0.19615">
        <ele>575.79998779297</ele>
        <time>2025-08-10T16:00:16.000Z</time>
      </trkpt>
      <trkpt lat="43.07294" lon="0.19605">
        <ele>575.20001220703</ele>
        <time>2025-08-10T16:00:17.000Z</time>
      </trkpt>
      <trkpt lat="43.07295" lon="0.19597">
        <ele>574.20001220703</ele>
        <time>2025-08-10T16:00:18.000Z</time>
      </trkpt>
      <trkpt lat="43.07296" lon="0.19586">
        <ele>573.79998779297</ele>
        <time>2025-08-10T16:00:19.000Z</time>
      </trkpt>
      <trkpt lat="43.07297" lon="0.19568">
        <ele>572.59997558594</ele>
        <time>2025-08-10T16:00:21.000Z</time>
      </trkpt>
      <trkpt lat="43.07299" lon="0.19551">
        <ele>571.40002441406</ele>
        <time>2025-08-10T16:00:23.000Z</time>
      </trkpt>
      <trkpt lat="43.07301" lon="0.19543">
        <ele>571</ele>
        <time>2025-08-10T16:00:24.000Z</time>
      </trkpt>
      <trkpt lat="43.07302" lon="0.19535">
        <ele>570.59997558594</ele>
        <time>2025-08-10T16:00:25.000Z</time>
      </trkpt>
      <trkpt lat="43.07305" lon="0.19511">
        <ele>569.40002441406</ele>
        <time>2025-08-10T16:00:28.000Z</time>
      </trkpt>
      <trkpt lat="43.07305" lon="0.19502">
        <ele>569</ele>
        <time>2025-08-10T16:00:29.000Z</time>
      </trkpt>
      <trkpt lat="43.07306" lon="0.19491">
        <ele>568.59997558594</ele>
        <time>2025-08-10T16:00:30.000Z</time>
      </trkpt>
      <trkpt lat="43.07306" lon="0.19482">
        <ele>568.40002441406</ele>
        <time>2025-08-10T16:00:31.000Z</time>
      </trkpt>
      <trkpt lat="43.07305" lon="0.19462">
        <ele>567.59997558594</ele>
        <time>2025-08-10T16:00:33.000Z</time>
      </trkpt>
      <trkpt lat="43.07306" lon="0.19453">
        <ele>566.59997558594</ele>
        <time>2025-08-10T16:00:34.000Z</time>
      </trkpt>
      <trkpt lat="43.07306" lon="0.19435">
        <ele>565.79998779297</ele>
        <time>2025-08-10T16:00:36.000Z</time>
      </trkpt>
      <trkpt lat="43.07307" lon="0.19427">
        <ele>565.20001220703</ele>
        <time>2025-08-10T16:00:37.000Z</time>
      </trkpt>
      <trkpt lat="43.0731" lon="0.19412">
        <ele>564.20001220703</ele>
        <time>2025-08-10T16:00:39.000Z</time>
      </trkpt>
      <trkpt lat="43.07311" lon="0.19404">
        <ele>563.59997558594</ele>
        <time>2025-08-10T16:00:40.000Z</time>
      </trkpt>
      <trkpt lat="43.0731" lon="0.19397">
        <ele>563.40002441406</ele>
        <time>2025-08-10T16:00:41.000Z</time>
      </trkpt>
      <trkpt lat="43.07312" lon="0.19379">
        <ele>562.59997558594</ele>
        <time>2025-08-10T16:00:43.000Z</time>
      </trkpt>
      <trkpt lat="43.07314" lon="0.19366">
        <ele>561.79998779297</ele>
        <time>2025-08-10T16:00:45.000Z</time>
      </trkpt>
      <trkpt lat="43.07316" lon="0.19359">
        <ele>561.20001220703</ele>
        <time>2025-08-10T16:00:46.000Z</time>
      </trkpt>
      <trkpt lat="43.0732" lon="0.1934">
        <ele>560</ele>
        <time>2025-08-10T16:00:48.000Z</time>
      </trkpt>
      <trkpt lat="43.07323" lon="0.19334">
        <ele>559.40002441406</ele>
        <time>2025-08-10T16:00:49.000Z</time>
      </trkpt>
      <trkpt lat="43.07329" lon="0.19319">
        <ele>558.40002441406</ele>
        <time>2025-08-10T16:00:51.000Z</time>
      </trkpt>
      <trkpt lat="43.07342" lon="0.193">
        <ele>557</ele>
        <time>2025-08-10T16:00:54.000Z</time>
      </trkpt>
      <trkpt lat="43.07351" lon="0.1929">
        <ele>556.20001220703</ele>
        <time>2025-08-10T16:00:56.000Z</time>
      </trkpt>
      <trkpt lat="43.07355" lon="0.19284">
        <ele>555.79998779297</ele>
        <time>2025-08-10T16:00:57.000Z</time>
      </trkpt>
      <trkpt lat="43.07363" lon="0.19272">
        <ele>554.79998779297</ele>
        <time>2025-08-10T16:00:59.000Z</time>
      </trkpt>
      <trkpt lat="43.07371" lon="0.1926">
        <ele>553</ele>
        <time>2025-08-10T16:01:01.000Z</time>
      </trkpt>
      <trkpt lat="43.07382" lon="0.19247">
        <ele>552</ele>
        <time>2025-08-10T16:01:03.000Z</time>
      </trkpt>
      <trkpt lat="43.07395" lon="0.1923">
        <ele>550.79998779297</ele>
        <time>2025-08-10T16:01:06.000Z</time>
      </trkpt>
      <trkpt lat="43.07403" lon="0.19218">
        <ele>549.40002441406</ele>
        <time>2025-08-10T16:01:08.000Z</time>
      </trkpt>
      <trkpt lat="43.07406" lon="0.19212">
        <ele>549</ele>
        <time>2025-08-10T16:01:09.000Z</time>
      </trkpt>
      <trkpt lat="43.07413" lon="0.19203">
        <ele>548</ele>
        <time>2025-08-10T16:01:11.000Z</time>
      </trkpt>
      <trkpt lat="43.07417" lon="0.19196">
        <ele>547.59997558594</ele>
        <time>2025-08-10T16:01:12.000Z</time>
      </trkpt>
      <trkpt lat="43.07421" lon="0.1919">
        <ele>546.79998779297</ele>
        <time>2025-08-10T16:01:13.000Z</time>
      </trkpt>
      <trkpt lat="43.07433" lon="0.19167">
        <ele>545.40002441406</ele>
        <time>2025-08-10T16:01:16.000Z</time>
      </trkpt>
      <trkpt lat="43.0744" lon="0.19151">
        <ele>544.40002441406</ele>
        <time>2025-08-10T16:01:18.000Z</time>
      </trkpt>
      <trkpt lat="43.07447" lon="0.19136">
        <ele>543.40002441406</ele>
        <time>2025-08-10T16:01:20.000Z</time>
      </trkpt>
      <trkpt lat="43.07453" lon="0.19123">
        <ele>542.40002441406</ele>
        <time>2025-08-10T16:01:22.000Z</time>
      </trkpt>
      <trkpt lat="43.07462" lon="0.1911">
        <ele>541.20001220703</ele>
        <time>2025-08-10T16:01:24.000Z</time>
      </trkpt>
      <trkpt lat="43.07466" lon="0.19104">
        <ele>540.79998779297</ele>
        <time>2025-08-10T16:01:25.000Z</time>
      </trkpt>
      <trkpt lat="43.07469" lon="0.19096">
        <ele>540.20001220703</ele>
        <time>2025-08-10T16:01:26.000Z</time>
      </trkpt>
      <trkpt lat="43.07477" lon="0.1907">
        <ele>538.59997558594</ele>
        <time>2025-08-10T16:01:29.000Z</time>
      </trkpt>
      <trkpt lat="43.0748" lon="0.19065">
        <ele>538.20001220703</ele>
        <time>2025-08-10T16:01:30.000Z</time>
      </trkpt>
      <trkpt lat="43.07485" lon="0.19058">
        <ele>537.59997558594</ele>
        <time>2025-08-10T16:01:31.000Z</time>
      </trkpt>
      <trkpt lat="43.0749" lon="0.19046">
        <ele>536.59997558594</ele>
        <time>2025-08-10T16:01:33.000Z</time>
      </trkpt>
      <trkpt lat="43.07494" lon="0.1904">
        <ele>536</ele>
        <time>2025-08-10T16:01:34.000Z</time>
      </trkpt>
      <trkpt lat="43.07498" lon="0.19035">
        <ele>535.59997558594</ele>
        <time>2025-08-10T16:01:35.000Z</time>
      </trkpt>
      <trkpt lat="43.07504" lon="0.19022">
        <ele>534.40002441406</ele>
        <time>2025-08-10T16:01:37.000Z</time>
      </trkpt>
      <trkpt lat="43.07512" lon="0.19005">
        <ele>532.79998779297</ele>
        <time>2025-08-10T16:01:40.000Z</time>
      </trkpt>
      <trkpt lat="43.07515" lon="0.19">
        <ele>532.20001220703</ele>
        <time>2025-08-10T16:01:41.000Z</time>
      </trkpt>
      <trkpt lat="43.07522" lon="0.18995">
        <ele>531.40002441406</ele>
        <time>2025-08-10T16:01:43.000Z</time>
      </trkpt>
      <trkpt lat="43.07531" lon="0.18993">
        <ele>530.40002441406</ele>
        <time>2025-08-10T16:01:45.000Z</time>
      </trkpt>
      <trkpt lat="43.07535" lon="0.18995">
        <ele>530</ele>
        <time>2025-08-10T16:01:46.000Z</time>
      </trkpt>
      <trkpt lat="43.07539" lon="0.18998">
        <ele>529.59997558594</ele>
        <time>2025-08-10T16:01:47.000Z</time>
      </trkpt>
      <trkpt lat="43.07542" lon="0.19002">
        <ele>528.79998779297</ele>
        <time>2025-08-10T16:01:48.000Z</time>
      </trkpt>
      <trkpt lat="43.07546" lon="0.19006">
        <ele>528.40002441406</ele>
        <time>2025-08-10T16:01:49.000Z</time>
      </trkpt>
      <trkpt lat="43.07549" lon="0.19011">
        <ele>528.20001220703</ele>
        <time>2025-08-10T16:01:50.000Z</time>
      </trkpt>
      <trkpt lat="43.07551" lon="0.19016">
        <ele>527.79998779297</ele>
        <time>2025-08-10T16:01:51.000Z</time>
      </trkpt>
      <trkpt lat="43.07556" lon="0.19026">
        <ele>527</ele>
        <time>2025-08-10T16:01:53.000Z</time>
      </trkpt>
      <trkpt lat="43.07558" lon="0.19031">
        <ele>526.40002441406</ele>
        <time>2025-08-10T16:01:54.000Z</time>
      </trkpt>
      <trkpt lat="43.0756" lon="0.19037">
        <ele>525.79998779297</ele>
        <time>2025-08-10T16:01:55.000Z</time>
      </trkpt>
      <trkpt lat="43.07565" lon="0.1905">
        <ele>525.20001220703</ele>
        <time>2025-08-10T16:01:57.000Z</time>
      </trkpt>
      <trkpt lat="43.07569" lon="0.19062">
        <ele>524.20001220703</ele>
        <time>2025-08-10T16:01:59.000Z</time>
      </trkpt>
      <trkpt lat="43.07572" lon="0.19069">
        <ele>523.79998779297</ele>
        <time>2025-08-10T16:02:00.000Z</time>
      </trkpt>
      <trkpt lat="43.07573" lon="0.19074">
        <ele>523.59997558594</ele>
        <time>2025-08-10T16:02:01.000Z</time>
      </trkpt>
      <trkpt lat="43.07575" lon="0.19089">
        <ele>522.79998779297</ele>
        <time>2025-08-10T16:02:03.000Z</time>
      </trkpt>
      <trkpt lat="43.07576" lon="0.19096">
        <ele>522.20001220703</ele>
        <time>2025-08-10T16:02:04.000Z</time>
      </trkpt>
      <trkpt lat="43.07578" lon="0.19105">
        <ele>521.79998779297</ele>
        <time>2025-08-10T16:02:05.000Z</time>
      </trkpt>
      <trkpt lat="43.0758" lon="0.1912">
        <ele>520.79998779297</ele>
        <time>2025-08-10T16:02:07.000Z</time>
      </trkpt>
      <trkpt lat="43.07579" lon="0.19127">
        <ele>520.59997558594</ele>
        <time>2025-08-10T16:02:08.000Z</time>
      </trkpt>
      <trkpt lat="43.0758" lon="0.19149">
        <ele>519.40002441406</ele>
        <time>2025-08-10T16:02:11.000Z</time>
      </trkpt>
      <trkpt lat="43.07581" lon="0.19157">
        <ele>519.20001220703</ele>
        <time>2025-08-10T16:02:12.000Z</time>
      </trkpt>
      <trkpt lat="43.07581" lon="0.19173">
        <ele>518</ele>
        <time>2025-08-10T16:02:14.000Z</time>
      </trkpt>
      <trkpt lat="43.07584" lon="0.19194">
        <ele>516.79998779297</ele>
        <time>2025-08-10T16:02:17.000Z</time>
      </trkpt>
      <trkpt lat="43.07586" lon="0.19201">
        <ele>516</ele>
        <time>2025-08-10T16:02:18.000Z</time>
      </trkpt>
      <trkpt lat="43.07589" lon="0.19208">
        <ele>515.40002441406</ele>
        <time>2025-08-10T16:02:19.000Z</time>
      </trkpt>
      <trkpt lat="43.07596" lon="0.19224">
        <ele>513.79998779297</ele>
        <time>2025-08-10T16:02:21.000Z</time>
      </trkpt>
      <trkpt lat="43.07602" lon="0.19237">
        <ele>512</ele>
        <time>2025-08-10T16:02:23.000Z</time>
      </trkpt>
      <trkpt lat="43.07605" lon="0.19243">
        <ele>511.39999389648</ele>
        <time>2025-08-10T16:02:24.000Z</time>
      </trkpt>
      <trkpt lat="43.07608" lon="0.19248">
        <ele>510.60000610352</ele>
        <time>2025-08-10T16:02:25.000Z</time>
      </trkpt>
      <trkpt lat="43.07612" lon="0.19257">
        <ele>509.79998779297</ele>
        <time>2025-08-10T16:02:27.000Z</time>
      </trkpt>
      <trkpt lat="43.07616" lon="0.1926">
        <ele>509</ele>
        <time>2025-08-10T16:02:28.000Z</time>
      </trkpt>
      <trkpt lat="43.07621" lon="0.1926">
        <ele>508.79998779297</ele>
        <time>2025-08-10T16:02:29.000Z</time>
      </trkpt>
      <trkpt lat="43.07632" lon="0.19261">
        <ele>508.20001220703</ele>
        <time>2025-08-10T16:02:32.000Z</time>
      </trkpt>
      <trkpt lat="43.07647" lon="0.19267">
        <ele>508</ele>
        <time>2025-08-10T16:02:37.000Z</time>
      </trkpt>
      <trkpt lat="43.07652" lon="0.19276">
        <ele>508.20001220703</ele>
        <time>2025-08-10T16:02:42.000Z</time>
      </trkpt>
      <trkpt lat="43.07652" lon="0.19277">
        <ele>508.39999389648</ele>
        <time>2025-08-10T16:02:46.000Z</time>
      </trkpt>
      <trkpt lat="43.0765" lon="0.19283">
        <ele>508.79998779297</ele>
        <time>2025-08-10T16:02:49.000Z</time>
      </trkpt>
      <trkpt lat="43.07649" lon="0.19285">
        <ele>509</ele>
        <time>2025-08-10T16:02:51.000Z</time>
      </trkpt>
      <trkpt lat="43.07648" lon="0.19292">
        <ele>509.60000610352</ele>
        <time>2025-08-10T16:02:54.000Z</time>
      </trkpt>
      <trkpt lat="43.07647" lon="0.19294">
        <ele>509.60000610352</ele>
        <time>2025-08-10T16:02:55.000Z</time>
      </trkpt>
      <trkpt lat="43.07645" lon="0.19297">
        <ele>509.79998779297</ele>
        <time>2025-08-10T16:02:57.000Z</time>
      </trkpt>
      <trkpt lat="43.07644" lon="0.19299">
        <ele>510</ele>
        <time>2025-08-10T16:02:58.000Z</time>
      </trkpt>
      <trkpt lat="43.07644" lon="0.19301">
        <ele>510.20001220703</ele>
        <time>2025-08-10T16:02:59.000Z</time>
      </trkpt>
      <trkpt lat="43.07643" lon="0.19303">
        <ele>510.39999389648</ele>
        <time>2025-08-10T16:03:00.000Z</time>
      </trkpt>
      <trkpt lat="43.07641" lon="0.19307">
        <ele>510.79998779297</ele>
        <time>2025-08-10T16:03:02.000Z</time>
      </trkpt>
      <trkpt lat="43.0764" lon="0.19311">
        <ele>511.20001220703</ele>
        <time>2025-08-10T16:03:04.000Z</time>
      </trkpt>
      <trkpt lat="43.07638" lon="0.1932">
        <ele>511.60000610352</ele>
        <time>2025-08-10T16:03:07.000Z</time>
      </trkpt>
      <trkpt lat="43.07638" lon="0.19323">
        <ele>512</ele>
        <time>2025-08-10T16:03:08.000Z</time>
      </trkpt>
      <trkpt lat="43.07637" lon="0.19327">
        <ele>512.40002441406</ele>
        <time>2025-08-10T16:03:10.000Z</time>
      </trkpt>
      <trkpt lat="43.07637" lon="0.19328">
        <ele>512.59997558594</ele>
        <time>2025-08-10T16:03:11.000Z</time>
      </trkpt>
      <trkpt lat="43.07636" lon="0.19333">
        <ele>513.59997558594</ele>
        <time>2025-08-10T16:03:15.000Z</time>
      </trkpt>
      <trkpt lat="43.07635" lon="0.19334">
        <ele>513.59997558594</ele>
        <time>2025-08-10T16:03:16.000Z</time>
      </trkpt>
      <trkpt lat="43.07633" lon="0.1934">
        <ele>514</ele>
        <time>2025-08-10T16:03:19.000Z</time>
      </trkpt>
      <trkpt lat="43.07632" lon="0.19344">
        <ele>514.20001220703</ele>
        <time>2025-08-10T16:03:21.000Z</time>
      </trkpt>
      <trkpt lat="43.07632" lon="0.19347">
        <ele>514.59997558594</ele>
        <time>2025-08-10T16:03:22.000Z</time>
      </trkpt>
      <trkpt lat="43.07632" lon="0.1935">
        <ele>514.79998779297</ele>
        <time>2025-08-10T16:03:24.000Z</time>
      </trkpt>
      <trkpt lat="43.07633" lon="0.19354">
        <ele>515.59997558594</ele>
        <time>2025-08-10T16:03:27.000Z</time>
      </trkpt>
      <trkpt lat="43.07631" lon="0.19355">
        <ele>515.79998779297</ele>
        <time>2025-08-10T16:03:29.000Z</time>
      </trkpt>
      <trkpt lat="43.07631" lon="0.19357">
        <ele>515.79998779297</ele>
        <time>2025-08-10T16:03:30.000Z</time>
      </trkpt>
      <trkpt lat="43.07631" lon="0.19361">
        <ele>516.20001220703</ele>
        <time>2025-08-10T16:03:32.000Z</time>
      </trkpt>
      <trkpt lat="43.0763" lon="0.19373">
        <ele>517</ele>
        <time>2025-08-10T16:03:37.000Z</time>
      </trkpt>
      <trkpt lat="43.07628" lon="0.1938">
        <ele>517.59997558594</ele>
        <time>2025-08-10T16:03:41.000Z</time>
      </trkpt>
      <trkpt lat="43.0763" lon="0.19385">
        <ele>517.79998779297</ele>
        <time>2025-08-10T16:03:43.000Z</time>
      </trkpt>
      <trkpt lat="43.07631" lon="0.19387">
        <ele>518</ele>
        <time>2025-08-10T16:03:44.000Z</time>
      </trkpt>
      <trkpt lat="43.0763" lon="0.19389">
        <ele>518.20001220703</ele>
        <time>2025-08-10T16:03:46.000Z</time>
      </trkpt>
      <trkpt lat="43.07628" lon="0.19395">
        <ele>518.59997558594</ele>
        <time>2025-08-10T16:03:49.000Z</time>
      </trkpt>
      <trkpt lat="43.07623" lon="0.19404">
        <ele>519</ele>
        <time>2025-08-10T16:03:54.000Z</time>
      </trkpt>
      <trkpt lat="43.07618" lon="0.1941">
        <ele>519.20001220703</ele>
        <time>2025-08-10T16:03:57.000Z</time>
      </trkpt>
      <trkpt lat="43.07607" lon="0.1942">
        <ele>519.20001220703</ele>
        <time>2025-08-10T16:04:02.000Z</time>
      </trkpt>
      <trkpt lat="43.07599" lon="0.19431">
        <ele>519</ele>
        <time>2025-08-10T16:04:06.000Z</time>
      </trkpt>
      <trkpt lat="43.07598" lon="0.19435">
        <ele>518.79998779297</ele>
        <time>2025-08-10T16:04:07.000Z</time>
      </trkpt>
      <trkpt lat="43.07599" lon="0.19437">
        <ele>518.59997558594</ele>
        <time>2025-08-10T16:04:08.000Z</time>
      </trkpt>
      <trkpt lat="43.07601" lon="0.19438">
        <ele>518.40002441406</ele>
        <time>2025-08-10T16:04:10.000Z</time>
      </trkpt>
      <trkpt lat="43.07606" lon="0.19432">
        <ele>518.20001220703</ele>
        <time>2025-08-10T16:04:14.000Z</time>
      </trkpt>
      <trkpt lat="43.07611" lon="0.19427">
        <ele>518.40002441406</ele>
        <time>2025-08-10T16:04:18.000Z</time>
      </trkpt>
      <trkpt lat="43.07611" lon="0.19427">
        <ele>518.79998779297</ele>
        <time>2025-08-10T16:04:20.000Z</time>
      </trkpt>
      <trkpt lat="43.07611" lon="0.19427">
        <ele>518.79998779297</ele>
        <time>2025-08-10T16:04:21.000Z</time>
      </trkpt>
      <trkpt lat="43.07614" lon="0.1942">
        <ele>519.20001220703</ele>
        <time>2025-08-10T16:04:38.000Z</time>
      </trkpt>
      <trkpt lat="43.07616" lon="0.19416">
        <ele>519.20001220703</ele>
        <time>2025-08-10T16:04:40.000Z</time>
      </trkpt>
      <trkpt lat="43.07623" lon="0.19406">
        <ele>519.59997558594</ele>
        <time>2025-08-10T16:04:46.000Z</time>
      </trkpt>
      <trkpt lat="43.07624" lon="0.19403">
        <ele>519.59997558594</ele>
        <time>2025-08-10T16:04:47.000Z</time>
      </trkpt>
      <trkpt lat="43.07626" lon="0.19398">
        <ele>520</ele>
        <time>2025-08-10T16:04:50.000Z</time>
      </trkpt>
      <trkpt lat="43.07627" lon="0.19396">
        <ele>520.20001220703</ele>
        <time>2025-08-10T16:04:51.000Z</time>
      </trkpt>
      <trkpt lat="43.07631" lon="0.19389">
        <ele>521</ele>
        <time>2025-08-10T16:04:56.000Z</time>
      </trkpt>
      <trkpt lat="43.07634" lon="0.19381">
        <ele>521.40002441406</ele>
        <time>2025-08-10T16:05:00.000Z</time>
      </trkpt>
      <trkpt lat="43.07637" lon="0.19376">
        <ele>521.59997558594</ele>
        <time>2025-08-10T16:05:03.000Z</time>
      </trkpt>
      <trkpt lat="43.07644" lon="0.19366">
        <ele>522.40002441406</ele>
        <time>2025-08-10T16:05:10.000Z</time>
      </trkpt>
      <trkpt lat="43.0765" lon="0.19353">
        <ele>523.59997558594</ele>
        <time>2025-08-10T16:05:18.000Z</time>
      </trkpt>
      <trkpt lat="43.0765" lon="0.19351">
        <ele>523.79998779297</ele>
        <time>2025-08-10T16:05:19.000Z</time>
      </trkpt>
      <trkpt lat="43.07653" lon="0.19344">
        <ele>524.20001220703</ele>
        <time>2025-08-10T16:05:24.000Z</time>
      </trkpt>
      <trkpt lat="43.07654" lon="0.19343">
        <ele>524.20001220703</ele>
        <time>2025-08-10T16:05:25.000Z</time>
      </trkpt>
      <trkpt lat="43.07656" lon="0.19339">
        <ele>524.40002441406</ele>
        <time>2025-08-10T16:05:27.000Z</time>
      </trkpt>
      <trkpt lat="43.07658" lon="0.19336">
        <ele>524.20001220703</ele>
        <time>2025-08-10T16:05:29.000Z</time>
      </trkpt>
      <trkpt lat="43.07662" lon="0.19327">
        <ele>525</ele>
        <time>2025-08-10T16:05:34.000Z</time>
      </trkpt>
      <trkpt lat="43.07665" lon="0.19323">
        <ele>525.59997558594</ele>
        <time>2025-08-10T16:05:36.000Z</time>
      </trkpt>
      <trkpt lat="43.07674" lon="0.19315">
        <ele>526.20001220703</ele>
        <time>2025-08-10T16:05:43.000Z</time>
      </trkpt>
      <trkpt lat="43.07681" lon="0.19312">
        <ele>526.40002441406</ele>
        <time>2025-08-10T16:05:48.000Z</time>
      </trkpt>
      <trkpt lat="43.07683" lon="0.19311">
        <ele>526.59997558594</ele>
        <time>2025-08-10T16:05:49.000Z</time>
      </trkpt>
      <trkpt lat="43.07691" lon="0.19308">
        <ele>527.20001220703</ele>
        <time>2025-08-10T16:05:55.000Z</time>
      </trkpt>
      <trkpt lat="43.07691" lon="0.19308">
        <ele>527.79998779297</ele>
        <time>2025-08-10T16:05:58.000Z</time>
      </trkpt>
      <trkpt lat="43.07701" lon="0.19307">
        <ele>529</ele>
        <time>2025-08-10T16:09:27.000Z</time>
      </trkpt>
      <trkpt lat="43.07703" lon="0.19306">
        <ele>529</ele>
        <time>2025-08-10T16:09:28.000Z</time>
      </trkpt>
      <trkpt lat="43.07719" lon="0.19299">
        <ele>529.20001220703</ele>
        <time>2025-08-10T16:09:36.000Z</time>
      </trkpt>
      <trkpt lat="43.07722" lon="0.19297">
        <ele>529.59997558594</ele>
        <time>2025-08-10T16:09:38.000Z</time>
      </trkpt>
      <trkpt lat="43.07728" lon="0.19291">
        <ele>530.20001220703</ele>
        <time>2025-08-10T16:09:42.000Z</time>
      </trkpt>
      <trkpt lat="43.07739" lon="0.19282">
        <ele>530.79998779297</ele>
        <time>2025-08-10T16:09:49.000Z</time>
      </trkpt>
      <trkpt lat="43.0774" lon="0.1928">
        <ele>530.79998779297</ele>
        <time>2025-08-10T16:09:50.000Z</time>
      </trkpt>
      <trkpt lat="43.07748" lon="0.19271">
        <ele>531.59997558594</ele>
        <time>2025-08-10T16:09:56.000Z</time>
      </trkpt>
      <trkpt lat="43.07753" lon="0.19267">
        <ele>532</ele>
        <time>2025-08-10T16:09:59.000Z</time>
      </trkpt>
      <trkpt lat="43.07757" lon="0.19262">
        <ele>532.20001220703</ele>
        <time>2025-08-10T16:10:02.000Z</time>
      </trkpt>
      <trkpt lat="43.07771" lon="0.19256">
        <ele>533.20001220703</ele>
        <time>2025-08-10T16:10:11.000Z</time>
      </trkpt>
      <trkpt lat="43.07781" lon="0.19252">
        <ele>533.79998779297</ele>
        <time>2025-08-10T16:10:17.000Z</time>
      </trkpt>
      <trkpt lat="43.07789" lon="0.1925">
        <ele>534.20001220703</ele>
        <time>2025-08-10T16:10:22.000Z</time>
      </trkpt>
      <trkpt lat="43.07791" lon="0.19252">
        <ele>534.59997558594</ele>
        <time>2025-08-10T16:10:24.000Z</time>
      </trkpt>
      <trkpt lat="43.078" lon="0.19253">
        <ele>535.59997558594</ele>
        <time>2025-08-10T16:10:30.000Z</time>
      </trkpt>
      <trkpt lat="43.07802" lon="0.19253">
        <ele>535.59997558594</ele>
        <time>2025-08-10T16:10:31.000Z</time>
      </trkpt>
      <trkpt lat="43.07812" lon="0.19255">
        <ele>536.40002441406</ele>
        <time>2025-08-10T16:10:37.000Z</time>
      </trkpt>
      <trkpt lat="43.07816" lon="0.19254">
        <ele>536.59997558594</ele>
        <time>2025-08-10T16:10:39.000Z</time>
      </trkpt>
      <trkpt lat="43.07829" lon="0.1925">
        <ele>537</ele>
        <time>2025-08-10T16:10:47.000Z</time>
      </trkpt>
      <trkpt lat="43.07831" lon="0.1925">
        <ele>537.20001220703</ele>
        <time>2025-08-10T16:10:48.000Z</time>
      </trkpt>
      <trkpt lat="43.07833" lon="0.19243">
        <ele>537.40002441406</ele>
        <time>2025-08-10T16:10:51.000Z</time>
      </trkpt>
      <trkpt lat="43.07835" lon="0.19241">
        <ele>537.59997558594</ele>
        <time>2025-08-10T16:10:53.000Z</time>
      </trkpt>
      <trkpt lat="43.07835" lon="0.19236">
        <ele>538</ele>
        <time>2025-08-10T16:10:55.000Z</time>
      </trkpt>
      <trkpt lat="43.07835" lon="0.19234">
        <ele>538</ele>
        <time>2025-08-10T16:10:56.000Z</time>
      </trkpt>
      <trkpt lat="43.07837" lon="0.19231">
        <ele>538.59997558594</ele>
        <time>2025-08-10T16:10:58.000Z</time>
      </trkpt>
      <trkpt lat="43.07837" lon="0.1923">
        <ele>538.79998779297</ele>
        <time>2025-08-10T16:10:59.000Z</time>
      </trkpt>
      <trkpt lat="43.07836" lon="0.19225">
        <ele>539</ele>
        <time>2025-08-10T16:11:01.000Z</time>
      </trkpt>
      <trkpt lat="43.07836" lon="0.19223">
        <ele>539</ele>
        <time>2025-08-10T16:11:02.000Z</time>
      </trkpt>
      <trkpt lat="43.07838" lon="0.1922">
        <ele>539.20001220703</ele>
        <time>2025-08-10T16:11:04.000Z</time>
      </trkpt>
      <trkpt lat="43.0784" lon="0.19219">
        <ele>539.40002441406</ele>
        <time>2025-08-10T16:11:05.000Z</time>
      </trkpt>
      <trkpt lat="43.07838" lon="0.1921">
        <ele>539.59997558594</ele>
        <time>2025-08-10T16:11:09.000Z</time>
      </trkpt>
      <trkpt lat="43.07839" lon="0.19209">
        <ele>539.79998779297</ele>
        <time>2025-08-10T16:11:10.000Z</time>
      </trkpt>
      <trkpt lat="43.0784" lon="0.19208">
        <ele>539.79998779297</ele>
        <time>2025-08-10T16:11:11.000Z</time>
      </trkpt>
      <trkpt lat="43.07843" lon="0.19207">
        <ele>540</ele>
        <time>2025-08-10T16:11:13.000Z</time>
      </trkpt>
      <trkpt lat="43.07842" lon="0.192">
        <ele>540.59997558594</ele>
        <time>2025-08-10T16:11:16.000Z</time>
      </trkpt>
      <trkpt lat="43.07842" lon="0.19198">
        <ele>540.59997558594</ele>
        <time>2025-08-10T16:11:17.000Z</time>
      </trkpt>
      <trkpt lat="43.07846" lon="0.19196">
        <ele>541</ele>
        <time>2025-08-10T16:11:20.000Z</time>
      </trkpt>
      <trkpt lat="43.07848" lon="0.19194">
        <ele>541</ele>
        <time>2025-08-10T16:11:21.000Z</time>
      </trkpt>
      <trkpt lat="43.07848" lon="0.19192">
        <ele>541.20001220703</ele>
        <time>2025-08-10T16:11:22.000Z</time>
      </trkpt>
      <trkpt lat="43.07849" lon="0.19186">
        <ele>541.40002441406</ele>
        <time>2025-08-10T16:11:25.000Z</time>
      </trkpt>
      <trkpt lat="43.07854" lon="0.19178">
        <ele>542</ele>
        <time>2025-08-10T16:11:30.000Z</time>
      </trkpt>
      <trkpt lat="43.07857" lon="0.19173">
        <ele>542.20001220703</ele>
        <time>2025-08-10T16:11:33.000Z</time>
      </trkpt>
      <trkpt lat="43.07864" lon="0.19161">
        <ele>542.79998779297</ele>
        <time>2025-08-10T16:11:40.000Z</time>
      </trkpt>
      <trkpt lat="43.07867" lon="0.19156">
        <ele>543</ele>
        <time>2025-08-10T16:11:43.000Z</time>
      </trkpt>
      <trkpt lat="43.07873" lon="0.19148">
        <ele>543.40002441406</ele>
        <time>2025-08-10T16:11:49.000Z</time>
      </trkpt>
      <trkpt lat="43.07878" lon="0.19141">
        <ele>544.40002441406</ele>
        <time>2025-08-10T16:11:54.000Z</time>
      </trkpt>
      <trkpt lat="43.07879" lon="0.19139">
        <ele>544.40002441406</ele>
        <time>2025-08-10T16:11:55.000Z</time>
      </trkpt>
      <trkpt lat="43.07889" lon="0.19128">
        <ele>545.40002441406</ele>
        <time>2025-08-10T16:12:03.000Z</time>
      </trkpt>
      <trkpt lat="43.07891" lon="0.19125">
        <ele>545.59997558594</ele>
        <time>2025-08-10T16:12:05.000Z</time>
      </trkpt>
      <trkpt lat="43.07892" lon="0.19123">
        <ele>545.59997558594</ele>
        <time>2025-08-10T16:12:06.000Z</time>
      </trkpt>
      <trkpt lat="43.07894" lon="0.19121">
        <ele>545.79998779297</ele>
        <time>2025-08-10T16:12:08.000Z</time>
      </trkpt>
      <trkpt lat="43.07897" lon="0.1912">
        <ele>546.79998779297</ele>
        <time>2025-08-10T16:12:10.000Z</time>
      </trkpt>
      <trkpt lat="43.079" lon="0.19117">
        <ele>547.40002441406</ele>
        <time>2025-08-10T16:12:12.000Z</time>
      </trkpt>
      <trkpt lat="43.07912" lon="0.19107">
        <ele>547.59997558594</ele>
        <time>2025-08-10T16:12:21.000Z</time>
      </trkpt>
      <trkpt lat="43.07917" lon="0.19105">
        <ele>548</ele>
        <time>2025-08-10T16:12:24.000Z</time>
      </trkpt>
      <trkpt lat="43.0792" lon="0.19104">
        <ele>548.20001220703</ele>
        <time>2025-08-10T16:12:26.000Z</time>
      </trkpt>
      <trkpt lat="43.07921" lon="0.19102">
        <ele>548.20001220703</ele>
        <time>2025-08-10T16:12:27.000Z</time>
      </trkpt>
      <trkpt lat="43.07932" lon="0.19096">
        <ele>549.20001220703</ele>
        <time>2025-08-10T16:12:34.000Z</time>
      </trkpt>
      <trkpt lat="43.07933" lon="0.19095">
        <ele>549.20001220703</ele>
        <time>2025-08-10T16:12:35.000Z</time>
      </trkpt>
      <trkpt lat="43.07934" lon="0.19094">
        <ele>549.59997558594</ele>
        <time>2025-08-10T16:12:36.000Z</time>
      </trkpt>
      <trkpt lat="43.07938" lon="0.19091">
        <ele>550</ele>
        <time>2025-08-10T16:12:39.000Z</time>
      </trkpt>
      <trkpt lat="43.07941" lon="0.19089">
        <ele>550.40002441406</ele>
        <time>2025-08-10T16:12:41.000Z</time>
      </trkpt>
      <trkpt lat="43.07947" lon="0.19086">
        <ele>550.79998779297</ele>
        <time>2025-08-10T16:12:45.000Z</time>
      </trkpt>
      <trkpt lat="43.07952" lon="0.19086">
        <ele>551</ele>
        <time>2025-08-10T16:12:48.000Z</time>
      </trkpt>
      <trkpt lat="43.07959" lon="0.19079">
        <ele>551.40002441406</ele>
        <time>2025-08-10T16:12:53.000Z</time>
      </trkpt>
      <trkpt lat="43.07961" lon="0.19078">
        <ele>551.40002441406</ele>
        <time>2025-08-10T16:12:54.000Z</time>
      </trkpt>
      <trkpt lat="43.07974" lon="0.19074">
        <ele>552.40002441406</ele>
        <time>2025-08-10T16:13:02.000Z</time>
      </trkpt>
      <trkpt lat="43.07976" lon="0.19073">
        <ele>552.40002441406</ele>
        <time>2025-08-10T16:13:03.000Z</time>
      </trkpt>
      <trkpt lat="43.07977" lon="0.19071">
        <ele>552.59997558594</ele>
        <time>2025-08-10T16:13:04.000Z</time>
      </trkpt>
      <trkpt lat="43.07978" lon="0.1907">
        <ele>552.59997558594</ele>
        <time>2025-08-10T16:13:05.000Z</time>
      </trkpt>
      <trkpt lat="43.0798" lon="0.1907">
        <ele>552.79998779297</ele>
        <time>2025-08-10T16:13:06.000Z</time>
      </trkpt>
      <trkpt lat="43.07985" lon="0.1907">
        <ele>553.20001220703</ele>
        <time>2025-08-10T16:13:09.000Z</time>
      </trkpt>
      <trkpt lat="43.07987" lon="0.19067">
        <ele>553.20001220703</ele>
        <time>2025-08-10T16:13:11.000Z</time>
      </trkpt>
      <trkpt lat="43.07993" lon="0.19063">
        <ele>553.40002441406</ele>
        <time>2025-08-10T16:13:15.000Z</time>
      </trkpt>
      <trkpt lat="43.07995" lon="0.19063">
        <ele>553.40002441406</ele>
        <time>2025-08-10T16:13:16.000Z</time>
      </trkpt>
      <trkpt lat="43.07999" lon="0.19064">
        <ele>553.79998779297</ele>
        <time>2025-08-10T16:13:18.000Z</time>
      </trkpt>
      <trkpt lat="43.08" lon="0.19063">
        <ele>554</ele>
        <time>2025-08-10T16:13:19.000Z</time>
      </trkpt>
      <trkpt lat="43.08001" lon="0.1906">
        <ele>554</ele>
        <time>2025-08-10T16:13:20.000Z</time>
      </trkpt>
      <trkpt lat="43.08002" lon="0.19059">
        <ele>554</ele>
        <time>2025-08-10T16:13:21.000Z</time>
      </trkpt>
      <trkpt lat="43.08007" lon="0.1906">
        <ele>554.40002441406</ele>
        <time>2025-08-10T16:13:24.000Z</time>
      </trkpt>
      <trkpt lat="43.08011" lon="0.19062">
        <ele>554.40002441406</ele>
        <time>2025-08-10T16:13:26.000Z</time>
      </trkpt>
      <trkpt lat="43.08014" lon="0.19059">
        <ele>554.59997558594</ele>
        <time>2025-08-10T16:13:28.000Z</time>
      </trkpt>
      <trkpt lat="43.08024" lon="0.1905">
        <ele>555</ele>
        <time>2025-08-10T16:13:35.000Z</time>
      </trkpt>
      <trkpt lat="43.08028" lon="0.19048">
        <ele>555.20001220703</ele>
        <time>2025-08-10T16:13:37.000Z</time>
      </trkpt>
      <trkpt lat="43.08036" lon="0.19041">
        <ele>555.59997558594</ele>
        <time>2025-08-10T16:13:44.000Z</time>
      </trkpt>
      <trkpt lat="43.08038" lon="0.19039">
        <ele>555.59997558594</ele>
        <time>2025-08-10T16:13:46.000Z</time>
      </trkpt>
      <trkpt lat="43.08042" lon="0.19034">
        <ele>555.79998779297</ele>
        <time>2025-08-10T16:13:50.000Z</time>
      </trkpt>
      <trkpt lat="43.08044" lon="0.19032">
        <ele>555.79998779297</ele>
        <time>2025-08-10T16:13:51.000Z</time>
      </trkpt>
      <trkpt lat="43.08048" lon="0.19025">
        <ele>556</ele>
        <time>2025-08-10T16:13:55.000Z</time>
      </trkpt>
      <trkpt lat="43.08048" lon="0.19024">
        <ele>556</ele>
        <time>2025-08-10T16:13:56.000Z</time>
      </trkpt>
      <trkpt lat="43.08053" lon="0.19013">
        <ele>556.59997558594</ele>
        <time>2025-08-10T16:14:02.000Z</time>
      </trkpt>
      <trkpt lat="43.08057" lon="0.19007">
        <ele>557</ele>
        <time>2025-08-10T16:14:06.000Z</time>
      </trkpt>
      <trkpt lat="43.08058" lon="0.19002">
        <ele>557</ele>
        <time>2025-08-10T16:14:09.000Z</time>
      </trkpt>
      <trkpt lat="43.08058" lon="0.19">
        <ele>557.20001220703</ele>
        <time>2025-08-10T16:14:10.000Z</time>
      </trkpt>
      <trkpt lat="43.08059" lon="0.18998">
        <ele>557.20001220703</ele>
        <time>2025-08-10T16:14:11.000Z</time>
      </trkpt>
      <trkpt lat="43.08062" lon="0.18993">
        <ele>557.59997558594</ele>
        <time>2025-08-10T16:14:14.000Z</time>
      </trkpt>
      <trkpt lat="43.08068" lon="0.18981">
        <ele>558.40002441406</ele>
        <time>2025-08-10T16:14:20.000Z</time>
      </trkpt>
      <trkpt lat="43.08069" lon="0.18976">
        <ele>558.59997558594</ele>
        <time>2025-08-10T16:14:22.000Z</time>
      </trkpt>
      <trkpt lat="43.08072" lon="0.18963">
        <ele>559.20001220703</ele>
        <time>2025-08-10T16:14:28.000Z</time>
      </trkpt>
      <trkpt lat="43.08076" lon="0.18953">
        <ele>559.59997558594</ele>
        <time>2025-08-10T16:14:33.000Z</time>
      </trkpt>
      <trkpt lat="43.08078" lon="0.18946">
        <ele>559.79998779297</ele>
        <time>2025-08-10T16:14:36.000Z</time>
      </trkpt>
      <trkpt lat="43.08083" lon="0.18928">
        <ele>560.40002441406</ele>
        <time>2025-08-10T16:14:45.000Z</time>
      </trkpt>
      <trkpt lat="43.08083" lon="0.18921">
        <ele>560.59997558594</ele>
        <time>2025-08-10T16:14:48.000Z</time>
      </trkpt>
      <trkpt lat="43.08082" lon="0.18912">
        <ele>561</ele>
        <time>2025-08-10T16:14:52.000Z</time>
      </trkpt>
      <trkpt lat="43.08083" lon="0.18895">
        <ele>561.79998779297</ele>
        <time>2025-08-10T16:15:00.000Z</time>
      </trkpt>
      <trkpt lat="43.08083" lon="0.18893">
        <ele>561.79998779297</ele>
        <time>2025-08-10T16:15:01.000Z</time>
      </trkpt>
      <trkpt lat="43.08084" lon="0.18878">
        <ele>562.20001220703</ele>
        <time>2025-08-10T16:15:08.000Z</time>
      </trkpt>
      <trkpt lat="43.08084" lon="0.18877">
        <ele>562.40002441406</ele>
        <time>2025-08-10T16:15:09.000Z</time>
      </trkpt>
      <trkpt lat="43.08085" lon="0.18871">
        <ele>562.79998779297</ele>
        <time>2025-08-10T16:15:12.000Z</time>
      </trkpt>
      <trkpt lat="43.08084" lon="0.18867">
        <ele>563</ele>
        <time>2025-08-10T16:15:14.000Z</time>
      </trkpt>
      <trkpt lat="43.08085" lon="0.18865">
        <ele>563</ele>
        <time>2025-08-10T16:15:15.000Z</time>
      </trkpt>
      <trkpt lat="43.08088" lon="0.18853">
        <ele>563.40002441406</ele>
        <time>2025-08-10T16:15:22.000Z</time>
      </trkpt>
      <trkpt lat="43.08089" lon="0.18849">
        <ele>563.59997558594</ele>
        <time>2025-08-10T16:15:24.000Z</time>
      </trkpt>
      <trkpt lat="43.0809" lon="0.18843">
        <ele>563.79998779297</ele>
        <time>2025-08-10T16:15:27.000Z</time>
      </trkpt>
      <trkpt lat="43.08092" lon="0.18838">
        <ele>564</ele>
        <time>2025-08-10T16:15:30.000Z</time>
      </trkpt>
      <trkpt lat="43.08093" lon="0.18833">
        <ele>564.40002441406</ele>
        <time>2025-08-10T16:15:33.000Z</time>
      </trkpt>
      <trkpt lat="43.08094" lon="0.18831">
        <ele>564.40002441406</ele>
        <time>2025-08-10T16:15:34.000Z</time>
      </trkpt>
      <trkpt lat="43.08096" lon="0.18819">
        <ele>565</ele>
        <time>2025-08-10T16:15:40.000Z</time>
      </trkpt>
      <trkpt lat="43.08096" lon="0.18816">
        <ele>565</ele>
        <time>2025-08-10T16:15:41.000Z</time>
      </trkpt>
      <trkpt lat="43.08096" lon="0.18812">
        <ele>565.20001220703</ele>
        <time>2025-08-10T16:15:43.000Z</time>
      </trkpt>
      <trkpt lat="43.08096" lon="0.18802">
        <ele>566.20001220703</ele>
        <time>2025-08-10T16:15:48.000Z</time>
      </trkpt>
      <trkpt lat="43.08095" lon="0.18796">
        <ele>566.20001220703</ele>
        <time>2025-08-10T16:15:51.000Z</time>
      </trkpt>
      <trkpt lat="43.08093" lon="0.18781">
        <ele>567.20001220703</ele>
        <time>2025-08-10T16:15:59.000Z</time>
      </trkpt>
      <trkpt lat="43.08092" lon="0.18779">
        <ele>567.40002441406</ele>
        <time>2025-08-10T16:16:00.000Z</time>
      </trkpt>
      <trkpt lat="43.08092" lon="0.18765">
        <ele>567.79998779297</ele>
        <time>2025-08-10T16:16:07.000Z</time>
      </trkpt>
      <trkpt lat="43.08092" lon="0.18759">
        <ele>568</ele>
        <time>2025-08-10T16:16:10.000Z</time>
      </trkpt>
      <trkpt lat="43.08093" lon="0.18755">
        <ele>568.20001220703</ele>
        <time>2025-08-10T16:16:12.000Z</time>
      </trkpt>
      <trkpt lat="43.08094" lon="0.18747">
        <ele>568.40002441406</ele>
        <time>2025-08-10T16:16:16.000Z</time>
      </trkpt>
      <trkpt lat="43.08095" lon="0.18745">
        <ele>568.40002441406</ele>
        <time>2025-08-10T16:16:17.000Z</time>
      </trkpt>
      <trkpt lat="43.08096" lon="0.18744">
        <ele>568.40002441406</ele>
        <time>2025-08-10T16:16:18.000Z</time>
      </trkpt>
      <trkpt lat="43.081" lon="0.18734">
        <ele>568.79998779297</ele>
        <time>2025-08-10T16:16:24.000Z</time>
      </trkpt>
      <trkpt lat="43.08107" lon="0.18725">
        <ele>569.20001220703</ele>
        <time>2025-08-10T16:16:30.000Z</time>
      </trkpt>
      <trkpt lat="43.08114" lon="0.18721">
        <ele>569.59997558594</ele>
        <time>2025-08-10T16:16:34.000Z</time>
      </trkpt>
      <trkpt lat="43.08116" lon="0.18719">
        <ele>569.59997558594</ele>
        <time>2025-08-10T16:16:36.000Z</time>
      </trkpt>
      <trkpt lat="43.08129" lon="0.18711">
        <ele>570.59997558594</ele>
        <time>2025-08-10T16:16:45.000Z</time>
      </trkpt>
      <trkpt lat="43.08138" lon="0.18705">
        <ele>571.20001220703</ele>
        <time>2025-08-10T16:16:52.000Z</time>
      </trkpt>
      <trkpt lat="43.08143" lon="0.18705">
        <ele>571.59997558594</ele>
        <time>2025-08-10T16:16:55.000Z</time>
      </trkpt>
      <trkpt lat="43.08146" lon="0.18703">
        <ele>571.59997558594</ele>
        <time>2025-08-10T16:16:57.000Z</time>
      </trkpt>
      <trkpt lat="43.08148" lon="0.18702">
        <ele>571.79998779297</ele>
        <time>2025-08-10T16:16:58.000Z</time>
      </trkpt>
      <trkpt lat="43.08156" lon="0.18696">
        <ele>572.20001220703</ele>
        <time>2025-08-10T16:17:04.000Z</time>
      </trkpt>
      <trkpt lat="43.08162" lon="0.1869">
        <ele>572.79998779297</ele>
        <time>2025-08-10T16:17:09.000Z</time>
      </trkpt>
      <trkpt lat="43.08163" lon="0.18689">
        <ele>572.79998779297</ele>
        <time>2025-08-10T16:17:10.000Z</time>
      </trkpt>
      <trkpt lat="43.08167" lon="0.18678">
        <ele>573</ele>
        <time>2025-08-10T16:17:18.000Z</time>
      </trkpt>
      <trkpt lat="43.08168" lon="0.1867">
        <ele>573</ele>
        <time>2025-08-10T16:17:24.000Z</time>
      </trkpt>
      <trkpt lat="43.08168" lon="0.18667">
        <ele>572.79998779297</ele>
        <time>2025-08-10T16:17:27.000Z</time>
      </trkpt>
      <trkpt lat="43.08168" lon="0.18663">
        <ele>572.79998779297</ele>
        <time>2025-08-10T16:17:30.000Z</time>
      </trkpt>
      <trkpt lat="43.08168" lon="0.18661">
        <ele>572.79998779297</ele>
        <time>2025-08-10T16:17:32.000Z</time>
      </trkpt>
      <trkpt lat="43.08168" lon="0.18659">
        <ele>572.59997558594</ele>
        <time>2025-08-10T16:17:33.000Z</time>
      </trkpt>
      <trkpt lat="43.08168" lon="0.18648">
        <ele>572.59997558594</ele>
        <time>2025-08-10T16:17:40.000Z</time>
      </trkpt>
      <trkpt lat="43.08168" lon="0.18646">
        <ele>572.59997558594</ele>
        <time>2025-08-10T16:17:41.000Z</time>
      </trkpt>
      <trkpt lat="43.08167" lon="0.18639">
        <ele>572.20001220703</ele>
        <time>2025-08-10T16:17:45.000Z</time>
      </trkpt>
      <trkpt lat="43.08167" lon="0.18637">
        <ele>572.20001220703</ele>
        <time>2025-08-10T16:17:46.000Z</time>
      </trkpt>
      <trkpt lat="43.08166" lon="0.18633">
        <ele>572.20001220703</ele>
        <time>2025-08-10T16:17:48.000Z</time>
      </trkpt>
      <trkpt lat="43.08167" lon="0.18624">
        <ele>572.20001220703</ele>
        <time>2025-08-10T16:17:52.000Z</time>
      </trkpt>
      <trkpt lat="43.08165" lon="0.18607">
        <ele>572</ele>
        <time>2025-08-10T16:17:59.000Z</time>
      </trkpt>
      <trkpt lat="43.08165" lon="0.18602">
        <ele>571.79998779297</ele>
        <time>2025-08-10T16:18:01.000Z</time>
      </trkpt>
      <trkpt lat="43.08164" lon="0.18595">
        <ele>571.59997558594</ele>
        <time>2025-08-10T16:18:04.000Z</time>
      </trkpt>
      <trkpt lat="43.08162" lon="0.18591">
        <ele>571.40002441406</ele>
        <time>2025-08-10T16:18:06.000Z</time>
      </trkpt>
      <trkpt lat="43.08162" lon="0.18588">
        <ele>571.40002441406</ele>
        <time>2025-08-10T16:18:07.000Z</time>
      </trkpt>
      <trkpt lat="43.0816" lon="0.18578">
        <ele>571.20001220703</ele>
        <time>2025-08-10T16:18:11.000Z</time>
      </trkpt>
      <trkpt lat="43.08157" lon="0.18562">
        <ele>571</ele>
        <time>2025-08-10T16:18:17.000Z</time>
      </trkpt>
      <trkpt lat="43.08154" lon="0.18555">
        <ele>570.79998779297</ele>
        <time>2025-08-10T16:18:20.000Z</time>
      </trkpt>
      <trkpt lat="43.08154" lon="0.1855">
        <ele>570.59997558594</ele>
        <time>2025-08-10T16:18:22.000Z</time>
      </trkpt>
      <trkpt lat="43.08153" lon="0.18541">
        <ele>570.59997558594</ele>
        <time>2025-08-10T16:18:24.000Z</time>
      </trkpt>
      <trkpt lat="43.08151" lon="0.18527">
        <ele>570.40002441406</ele>
        <time>2025-08-10T16:18:28.000Z</time>
      </trkpt>
      <trkpt lat="43.08152" lon="0.18499">
        <ele>570</ele>
        <time>2025-08-10T16:18:37.000Z</time>
      </trkpt>
      <trkpt lat="43.08152" lon="0.18489">
        <ele>570</ele>
        <time>2025-08-10T16:18:40.000Z</time>
      </trkpt>
      <trkpt lat="43.08153" lon="0.18471">
        <ele>569.59997558594</ele>
        <time>2025-08-10T16:18:46.000Z</time>
      </trkpt>
      <trkpt lat="43.08153" lon="0.18468">
        <ele>569.59997558594</ele>
        <time>2025-08-10T16:18:47.000Z</time>
      </trkpt>
      <trkpt lat="43.08145" lon="0.18445">
        <ele>569.20001220703</ele>
        <time>2025-08-10T16:18:55.000Z</time>
      </trkpt>
      <trkpt lat="43.08139" lon="0.18437">
        <ele>569</ele>
        <time>2025-08-10T16:18:59.000Z</time>
      </trkpt>
      <trkpt lat="43.08135" lon="0.18432">
        <ele>568.79998779297</ele>
        <time>2025-08-10T16:19:02.000Z</time>
      </trkpt>
      <trkpt lat="43.08134" lon="0.1843">
        <ele>568.79998779297</ele>
        <time>2025-08-10T16:19:03.000Z</time>
      </trkpt>
      <trkpt lat="43.08133" lon="0.18427">
        <ele>568.79998779297</ele>
        <time>2025-08-10T16:19:05.000Z</time>
      </trkpt>
      <trkpt lat="43.08131" lon="0.18424">
        <ele>568.59997558594</ele>
        <time>2025-08-10T16:19:07.000Z</time>
      </trkpt>
      <trkpt lat="43.08123" lon="0.18411">
        <ele>568.20001220703</ele>
        <time>2025-08-10T16:19:14.000Z</time>
      </trkpt>
      <trkpt lat="43.08123" lon="0.18409">
        <ele>568.20001220703</ele>
        <time>2025-08-10T16:19:15.000Z</time>
      </trkpt>
      <trkpt lat="43.08113" lon="0.18391">
        <ele>568.20001220703</ele>
        <time>2025-08-10T16:19:22.000Z</time>
      </trkpt>
      <trkpt lat="43.08102" lon="0.18365">
        <ele>568.20001220703</ele>
        <time>2025-08-10T16:19:29.000Z</time>
      </trkpt>
      <trkpt lat="43.08095" lon="0.18351">
        <ele>568</ele>
        <time>2025-08-10T16:19:33.000Z</time>
      </trkpt>
      <trkpt lat="43.08091" lon="0.18339">
        <ele>567.79998779297</ele>
        <time>2025-08-10T16:19:35.000Z</time>
      </trkpt>
      <trkpt lat="43.08083" lon="0.18299">
        <ele>567.40002441406</ele>
        <time>2025-08-10T16:19:42.000Z</time>
      </trkpt>
      <trkpt lat="43.08084" lon="0.18294">
        <ele>567.40002441406</ele>
        <time>2025-08-10T16:19:43.000Z</time>
      </trkpt>
      <trkpt lat="43.08086" lon="0.18275">
        <ele>567.20001220703</ele>
        <time>2025-08-10T16:19:46.000Z</time>
      </trkpt>
      <trkpt lat="43.08087" lon="0.18266">
        <ele>566.79998779297</ele>
        <time>2025-08-10T16:19:48.000Z</time>
      </trkpt>
      <trkpt lat="43.08082" lon="0.18242">
        <ele>566.20001220703</ele>
        <time>2025-08-10T16:19:53.000Z</time>
      </trkpt>
      <trkpt lat="43.08069" lon="0.18217">
        <ele>565.79998779297</ele>
        <time>2025-08-10T16:19:58.000Z</time>
      </trkpt>
      <trkpt lat="43.08065" lon="0.18213">
        <ele>565.79998779297</ele>
        <time>2025-08-10T16:19:59.000Z</time>
      </trkpt>
      <trkpt lat="43.08049" lon="0.18203">
        <ele>565.40002441406</ele>
        <time>2025-08-10T16:20:04.000Z</time>
      </trkpt>
      <trkpt lat="43.08032" lon="0.18199">
        <ele>564.79998779297</ele>
        <time>2025-08-10T16:20:10.000Z</time>
      </trkpt>
      <trkpt lat="43.0803" lon="0.18197">
        <ele>564.59997558594</ele>
        <time>2025-08-10T16:20:11.000Z</time>
      </trkpt>
      <trkpt lat="43.08018" lon="0.18184">
        <ele>564.20001220703</ele>
        <time>2025-08-10T16:20:17.000Z</time>
      </trkpt>
      <trkpt lat="43.08012" lon="0.18166">
        <ele>564</ele>
        <time>2025-08-10T16:20:22.000Z</time>
      </trkpt>
      <trkpt lat="43.08009" lon="0.18153">
        <ele>563.79998779297</ele>
        <time>2025-08-10T16:20:25.000Z</time>
      </trkpt>
      <trkpt lat="43.08006" lon="0.18138">
        <ele>563.59997558594</ele>
        <time>2025-08-10T16:20:28.000Z</time>
      </trkpt>
      <trkpt lat="43.08002" lon="0.18122">
        <ele>563.20001220703</ele>
        <time>2025-08-10T16:20:32.000Z</time>
      </trkpt>
      <trkpt lat="43.07998" lon="0.18116">
        <ele>563.20001220703</ele>
        <time>2025-08-10T16:20:34.000Z</time>
      </trkpt>
      <trkpt lat="43.07995" lon="0.18107">
        <ele>563</ele>
        <time>2025-08-10T16:20:37.000Z</time>
      </trkpt>
      <trkpt lat="43.07993" lon="0.18105">
        <ele>563</ele>
        <time>2025-08-10T16:20:38.000Z</time>
      </trkpt>
      <trkpt lat="43.07992" lon="0.18104">
        <ele>563</ele>
        <time>2025-08-10T16:20:39.000Z</time>
      </trkpt>
      <trkpt lat="43.07992" lon="0.18103">
        <ele>562.79998779297</ele>
        <time>2025-08-10T16:20:42.000Z</time>
      </trkpt>
      <trkpt lat="43.07987" lon="0.18101">
        <ele>562</ele>
        <time>2025-08-10T16:21:04.000Z</time>
      </trkpt>
      <trkpt lat="43.07976" lon="0.18092">
        <ele>562</ele>
        <time>2025-08-10T16:21:08.000Z</time>
      </trkpt>
      <trkpt lat="43.07956" lon="0.1808">
        <ele>561.59997558594</ele>
        <time>2025-08-10T16:21:14.000Z</time>
      </trkpt>
      <trkpt lat="43.07929" lon="0.18065">
        <ele>561.20001220703</ele>
        <time>2025-08-10T16:21:21.000Z</time>
      </trkpt>
      <trkpt lat="43.07921" lon="0.18061">
        <ele>561</ele>
        <time>2025-08-10T16:21:23.000Z</time>
      </trkpt>
      <trkpt lat="43.07904" lon="0.18054">
        <ele>560.79998779297</ele>
        <time>2025-08-10T16:21:27.000Z</time>
      </trkpt>
      <trkpt lat="43.079" lon="0.18051">
        <ele>560.79998779297</ele>
        <time>2025-08-10T16:21:28.000Z</time>
      </trkpt>
      <trkpt lat="43.07892" lon="0.18043">
        <ele>560.59997558594</ele>
        <time>2025-08-10T16:21:30.000Z</time>
      </trkpt>
      <trkpt lat="43.07889" lon="0.1804">
        <ele>560.40002441406</ele>
        <time>2025-08-10T16:21:31.000Z</time>
      </trkpt>
      <trkpt lat="43.07882" lon="0.18031">
        <ele>560.20001220703</ele>
        <time>2025-08-10T16:21:33.000Z</time>
      </trkpt>
      <trkpt lat="43.07875" lon="0.18023">
        <ele>560</ele>
        <time>2025-08-10T16:21:35.000Z</time>
      </trkpt>
      <trkpt lat="43.07871" lon="0.1802">
        <ele>559.79998779297</ele>
        <time>2025-08-10T16:21:36.000Z</time>
      </trkpt>
      <trkpt lat="43.07867" lon="0.18017">
        <ele>559.79998779297</ele>
        <time>2025-08-10T16:21:37.000Z</time>
      </trkpt>
      <trkpt lat="43.07863" lon="0.18015">
        <ele>559.79998779297</ele>
        <time>2025-08-10T16:21:38.000Z</time>
      </trkpt>
      <trkpt lat="43.07854" lon="0.18009">
        <ele>559.59997558594</ele>
        <time>2025-08-10T16:21:40.000Z</time>
      </trkpt>
      <trkpt lat="43.07845" lon="0.18005">
        <ele>559.40002441406</ele>
        <time>2025-08-10T16:21:42.000Z</time>
      </trkpt>
      <trkpt lat="43.07835" lon="0.18003">
        <ele>559.20001220703</ele>
        <time>2025-08-10T16:21:44.000Z</time>
      </trkpt>
      <trkpt lat="43.07815" lon="0.18001">
        <ele>559</ele>
        <time>2025-08-10T16:21:48.000Z</time>
      </trkpt>
      <trkpt lat="43.0781" lon="0.18002">
        <ele>558.79998779297</ele>
        <time>2025-08-10T16:21:49.000Z</time>
      </trkpt>
      <trkpt lat="43.07804" lon="0.18001">
        <ele>558.79998779297</ele>
        <time>2025-08-10T16:21:50.000Z</time>
      </trkpt>
      <trkpt lat="43.07787" lon="0.17999">
        <ele>558.59997558594</ele>
        <time>2025-08-10T16:21:53.000Z</time>
      </trkpt>
      <trkpt lat="43.07748" lon="0.17994">
        <ele>557.59997558594</ele>
        <time>2025-08-10T16:21:59.000Z</time>
      </trkpt>
      <trkpt lat="43.07741" lon="0.17993">
        <ele>557.59997558594</ele>
        <time>2025-08-10T16:22:00.000Z</time>
      </trkpt>
      <trkpt lat="43.07728" lon="0.1799">
        <ele>557.40002441406</ele>
        <time>2025-08-10T16:22:02.000Z</time>
      </trkpt>
      <trkpt lat="43.07722" lon="0.17987">
        <ele>557.20001220703</ele>
        <time>2025-08-10T16:22:03.000Z</time>
      </trkpt>
      <trkpt lat="43.07718" lon="0.17981">
        <ele>557</ele>
        <time>2025-08-10T16:22:04.000Z</time>
      </trkpt>
      <trkpt lat="43.07711" lon="0.17967">
        <ele>556.79998779297</ele>
        <time>2025-08-10T16:22:06.000Z</time>
      </trkpt>
      <trkpt lat="43.07707" lon="0.1795">
        <ele>556.59997558594</ele>
        <time>2025-08-10T16:22:08.000Z</time>
      </trkpt>
      <trkpt lat="43.07696" lon="0.17918">
        <ele>555.79998779297</ele>
        <time>2025-08-10T16:22:12.000Z</time>
      </trkpt>
      <trkpt lat="43.07688" lon="0.17903">
        <ele>555.59997558594</ele>
        <time>2025-08-10T16:22:14.000Z</time>
      </trkpt>
      <trkpt lat="43.07673" lon="0.17884">
        <ele>555</ele>
        <time>2025-08-10T16:22:17.000Z</time>
      </trkpt>
      <trkpt lat="43.07669" lon="0.17878">
        <ele>554.79998779297</ele>
        <time>2025-08-10T16:22:18.000Z</time>
      </trkpt>
      <trkpt lat="43.07663" lon="0.17864">
        <ele>554.59997558594</ele>
        <time>2025-08-10T16:22:20.000Z</time>
      </trkpt>
      <trkpt lat="43.07663" lon="0.1785">
        <ele>554.40002441406</ele>
        <time>2025-08-10T16:22:22.000Z</time>
      </trkpt>
      <trkpt lat="43.07663" lon="0.17845">
        <ele>554.20001220703</ele>
        <time>2025-08-10T16:22:23.000Z</time>
      </trkpt>
      <trkpt lat="43.07662" lon="0.17818">
        <ele>553.59997558594</ele>
        <time>2025-08-10T16:22:27.000Z</time>
      </trkpt>
      <trkpt lat="43.07661" lon="0.17812">
        <ele>553.59997558594</ele>
        <time>2025-08-10T16:22:28.000Z</time>
      </trkpt>
      <trkpt lat="43.07661" lon="0.17807">
        <ele>553.59997558594</ele>
        <time>2025-08-10T16:22:29.000Z</time>
      </trkpt>
      <trkpt lat="43.0766" lon="0.17794">
        <ele>553.59997558594</ele>
        <time>2025-08-10T16:22:31.000Z</time>
      </trkpt>
      <trkpt lat="43.07652" lon="0.17761">
        <ele>553.40002441406</ele>
        <time>2025-08-10T16:22:36.000Z</time>
      </trkpt>
      <trkpt lat="43.07647" lon="0.17741">
        <ele>553.40002441406</ele>
        <time>2025-08-10T16:22:38.000Z</time>
      </trkpt>
      <trkpt lat="43.07645" lon="0.1772">
        <ele>553.40002441406</ele>
        <time>2025-08-10T16:22:40.000Z</time>
      </trkpt>
      <trkpt lat="43.07644" lon="0.17709">
        <ele>553</ele>
        <time>2025-08-10T16:22:41.000Z</time>
      </trkpt>
      <trkpt lat="43.07643" lon="0.17698">
        <ele>553</ele>
        <time>2025-08-10T16:22:42.000Z</time>
      </trkpt>
      <trkpt lat="43.07646" lon="0.17679">
        <ele>552.20001220703</ele>
        <time>2025-08-10T16:22:44.000Z</time>
      </trkpt>
      <trkpt lat="43.07649" lon="0.17673">
        <ele>552</ele>
        <time>2025-08-10T16:22:45.000Z</time>
      </trkpt>
      <trkpt lat="43.07654" lon="0.17671">
        <ele>551.79998779297</ele>
        <time>2025-08-10T16:22:46.000Z</time>
      </trkpt>
      <trkpt lat="43.0766" lon="0.17674">
        <ele>551.59997558594</ele>
        <time>2025-08-10T16:22:47.000Z</time>
      </trkpt>
      <trkpt lat="43.07664" lon="0.17678">
        <ele>551</ele>
        <time>2025-08-10T16:22:48.000Z</time>
      </trkpt>
      <trkpt lat="43.07669" lon="0.17683">
        <ele>550.79998779297</ele>
        <time>2025-08-10T16:22:49.000Z</time>
      </trkpt>
      <trkpt lat="43.07678" lon="0.17689">
        <ele>550.59997558594</ele>
        <time>2025-08-10T16:22:51.000Z</time>
      </trkpt>
      <trkpt lat="43.07688" lon="0.177">
        <ele>550.59997558594</ele>
        <time>2025-08-10T16:22:55.000Z</time>
      </trkpt>
      <trkpt lat="43.0769" lon="0.17702">
        <ele>550.59997558594</ele>
        <time>2025-08-10T16:22:56.000Z</time>
      </trkpt>
      <trkpt lat="43.07704" lon="0.17718">
        <ele>551.40002441406</ele>
        <time>2025-08-10T16:23:03.000Z</time>
      </trkpt>
      <trkpt lat="43.07706" lon="0.17723">
        <ele>552</ele>
        <time>2025-08-10T16:23:05.000Z</time>
      </trkpt>
      <trkpt lat="43.0771" lon="0.1773">
        <ele>552.40002441406</ele>
        <time>2025-08-10T16:23:08.000Z</time>
      </trkpt>
      <trkpt lat="43.07715" lon="0.17738">
        <ele>553.20001220703</ele>
        <time>2025-08-10T16:23:12.000Z</time>
      </trkpt>
      <trkpt lat="43.07716" lon="0.17743">
        <ele>553.40002441406</ele>
        <time>2025-08-10T16:23:14.000Z</time>
      </trkpt>
      <trkpt lat="43.07719" lon="0.17747">
        <ele>553.59997558594</ele>
        <time>2025-08-10T16:23:16.000Z</time>
      </trkpt>
      <trkpt lat="43.0772" lon="0.17749">
        <ele>553.79998779297</ele>
        <time>2025-08-10T16:23:17.000Z</time>
      </trkpt>
      <trkpt lat="43.07721" lon="0.17751">
        <ele>553.79998779297</ele>
        <time>2025-08-10T16:23:18.000Z</time>
      </trkpt>
      <trkpt lat="43.07723" lon="0.17757">
        <ele>554.20001220703</ele>
        <time>2025-08-10T16:23:21.000Z</time>
      </trkpt>
      <trkpt lat="43.07724" lon="0.17759">
        <ele>554.20001220703</ele>
        <time>2025-08-10T16:23:22.000Z</time>
      </trkpt>
      <trkpt lat="43.07728" lon="0.17766">
        <ele>554.59997558594</ele>
        <time>2025-08-10T16:23:26.000Z</time>
      </trkpt>
      <trkpt lat="43.0773" lon="0.17771">
        <ele>554.79998779297</ele>
        <time>2025-08-10T16:23:29.000Z</time>
      </trkpt>
      <trkpt lat="43.07729" lon="0.17775">
        <ele>555</ele>
        <time>2025-08-10T16:23:31.000Z</time>
      </trkpt>
      <trkpt lat="43.07729" lon="0.17778">
        <ele>555</ele>
        <time>2025-08-10T16:23:32.000Z</time>
      </trkpt>
      <trkpt lat="43.07732" lon="0.17784">
        <ele>555.20001220703</ele>
        <time>2025-08-10T16:23:35.000Z</time>
      </trkpt>
      <trkpt lat="43.07733" lon="0.17786">
        <ele>555.40002441406</ele>
        <time>2025-08-10T16:23:36.000Z</time>
      </trkpt>
      <trkpt lat="43.07735" lon="0.17791">
        <ele>555.79998779297</ele>
        <time>2025-08-10T16:23:39.000Z</time>
      </trkpt>
      <trkpt lat="43.07739" lon="0.17796">
        <ele>556</ele>
        <time>2025-08-10T16:23:42.000Z</time>
      </trkpt>
      <trkpt lat="43.07743" lon="0.17801">
        <ele>556.40002441406</ele>
        <time>2025-08-10T16:23:45.000Z</time>
      </trkpt>
      <trkpt lat="43.07751" lon="0.1781">
        <ele>557.20001220703</ele>
        <time>2025-08-10T16:23:50.000Z</time>
      </trkpt>
      <trkpt lat="43.07753" lon="0.17813">
        <ele>557.40002441406</ele>
        <time>2025-08-10T16:23:52.000Z</time>
      </trkpt>
      <trkpt lat="43.07762" lon="0.17824">
        <ele>558.40002441406</ele>
        <time>2025-08-10T16:23:58.000Z</time>
      </trkpt>
      <trkpt lat="43.07765" lon="0.17827">
        <ele>558.40002441406</ele>
        <time>2025-08-10T16:23:59.000Z</time>
      </trkpt>
      <trkpt lat="43.07769" lon="0.17827">
        <ele>559</ele>
        <time>2025-08-10T16:24:03.000Z</time>
      </trkpt>
      <trkpt lat="43.07771" lon="0.17825">
        <ele>559.20001220703</ele>
        <time>2025-08-10T16:24:04.000Z</time>
      </trkpt>
      <trkpt lat="43.07773" lon="0.17826">
        <ele>559.40002441406</ele>
        <time>2025-08-10T16:24:05.000Z</time>
      </trkpt>
      <trkpt lat="43.07775" lon="0.17828">
        <ele>559.59997558594</ele>
        <time>2025-08-10T16:24:06.000Z</time>
      </trkpt>
      <trkpt lat="43.07778" lon="0.17831">
        <ele>559.79998779297</ele>
        <time>2025-08-10T16:24:08.000Z</time>
      </trkpt>
      <trkpt lat="43.07779" lon="0.17832">
        <ele>559.79998779297</ele>
        <time>2025-08-10T16:24:09.000Z</time>
      </trkpt>
      <trkpt lat="43.07782" lon="0.1783">
        <ele>560.20001220703</ele>
        <time>2025-08-10T16:24:12.000Z</time>
      </trkpt>
      <trkpt lat="43.07791" lon="0.17828">
        <ele>560.59997558594</ele>
        <time>2025-08-10T16:24:17.000Z</time>
      </trkpt>
      <trkpt lat="43.07795" lon="0.17826">
        <ele>560.79998779297</ele>
        <time>2025-08-10T16:24:19.000Z</time>
      </trkpt>
      <trkpt lat="43.07803" lon="0.17826">
        <ele>561.40002441406</ele>
        <time>2025-08-10T16:24:23.000Z</time>
      </trkpt>
      <trkpt lat="43.07807" lon="0.17826">
        <ele>561.59997558594</ele>
        <time>2025-08-10T16:24:25.000Z</time>
      </trkpt>
      <trkpt lat="43.0781" lon="0.17826">
        <ele>561.59997558594</ele>
        <time>2025-08-10T16:24:26.000Z</time>
      </trkpt>
      <trkpt lat="43.07818" lon="0.17822">
        <ele>562.40002441406</ele>
        <time>2025-08-10T16:24:31.000Z</time>
      </trkpt>
      <trkpt lat="43.07824" lon="0.17822">
        <ele>562.79998779297</ele>
        <time>2025-08-10T16:24:34.000Z</time>
      </trkpt>
      <trkpt lat="43.07831" lon="0.1782">
        <ele>563.40002441406</ele>
        <time>2025-08-10T16:24:38.000Z</time>
      </trkpt>
      <trkpt lat="43.07837" lon="0.17817">
        <ele>563.79998779297</ele>
        <time>2025-08-10T16:24:42.000Z</time>
      </trkpt>
      <trkpt lat="43.07843" lon="0.17814">
        <ele>564.40002441406</ele>
        <time>2025-08-10T16:24:46.000Z</time>
      </trkpt>
      <trkpt lat="43.07848" lon="0.17813">
        <ele>564.79998779297</ele>
        <time>2025-08-10T16:24:49.000Z</time>
      </trkpt>
      <trkpt lat="43.07849" lon="0.17813">
        <ele>565</ele>
        <time>2025-08-10T16:24:50.000Z</time>
      </trkpt>
      <trkpt lat="43.07851" lon="0.17813">
        <ele>565</ele>
        <time>2025-08-10T16:24:51.000Z</time>
      </trkpt>
      <trkpt lat="43.07865" lon="0.17808">
        <ele>566</ele>
        <time>2025-08-10T16:24:59.000Z</time>
      </trkpt>
      <trkpt lat="43.07867" lon="0.17809">
        <ele>566</ele>
        <time>2025-08-10T16:25:00.000Z</time>
      </trkpt>
      <trkpt lat="43.07873" lon="0.17808">
        <ele>566.40002441406</ele>
        <time>2025-08-10T16:25:04.000Z</time>
      </trkpt>
      <trkpt lat="43.07882" lon="0.17809">
        <ele>567</ele>
        <time>2025-08-10T16:25:09.000Z</time>
      </trkpt>
      <trkpt lat="43.07883" lon="0.1781">
        <ele>567.20001220703</ele>
        <time>2025-08-10T16:25:10.000Z</time>
      </trkpt>
      <trkpt lat="43.07888" lon="0.17813">
        <ele>567.40002441406</ele>
        <time>2025-08-10T16:25:13.000Z</time>
      </trkpt>
      <trkpt lat="43.07892" lon="0.17813">
        <ele>567.79998779297</ele>
        <time>2025-08-10T16:25:16.000Z</time>
      </trkpt>
      <trkpt lat="43.07893" lon="0.17814">
        <ele>567.79998779297</ele>
        <time>2025-08-10T16:25:17.000Z</time>
      </trkpt>
      <trkpt lat="43.07897" lon="0.17816">
        <ele>568.20001220703</ele>
        <time>2025-08-10T16:25:20.000Z</time>
      </trkpt>
      <trkpt lat="43.07898" lon="0.17816">
        <ele>568.20001220703</ele>
        <time>2025-08-10T16:25:21.000Z</time>
      </trkpt>
      <trkpt lat="43.07901" lon="0.17815">
        <ele>568.40002441406</ele>
        <time>2025-08-10T16:25:23.000Z</time>
      </trkpt>
      <trkpt lat="43.07907" lon="0.1782">
        <ele>568.79998779297</ele>
        <time>2025-08-10T16:25:27.000Z</time>
      </trkpt>
      <trkpt lat="43.07909" lon="0.1782">
        <ele>569</ele>
        <time>2025-08-10T16:25:28.000Z</time>
      </trkpt>
      <trkpt lat="43.07912" lon="0.17819">
        <ele>569.20001220703</ele>
        <time>2025-08-10T16:25:30.000Z</time>
      </trkpt>
      <trkpt lat="43.07914" lon="0.17819">
        <ele>569.20001220703</ele>
        <time>2025-08-10T16:25:31.000Z</time>
      </trkpt>
      <trkpt lat="43.07917" lon="0.17823">
        <ele>569.59997558594</ele>
        <time>2025-08-10T16:25:34.000Z</time>
      </trkpt>
      <trkpt lat="43.0792" lon="0.17822">
        <ele>569.79998779297</ele>
        <time>2025-08-10T16:25:36.000Z</time>
      </trkpt>
      <trkpt lat="43.07927" lon="0.17822">
        <ele>570.20001220703</ele>
        <time>2025-08-10T16:25:40.000Z</time>
      </trkpt>
      <trkpt lat="43.07927" lon="0.17821">
        <ele>570.20001220703</ele>
        <time>2025-08-10T16:25:41.000Z</time>
      </trkpt>
      <trkpt lat="43.0793" lon="0.17817">
        <ele>570.40002441406</ele>
        <time>2025-08-10T16:25:44.000Z</time>
      </trkpt>
      <trkpt lat="43.07932" lon="0.17817">
        <ele>570.59997558594</ele>
        <time>2025-08-10T16:25:45.000Z</time>
      </trkpt>
      <trkpt lat="43.07935" lon="0.17816">
        <ele>570.79998779297</ele>
        <time>2025-08-10T16:25:48.000Z</time>
      </trkpt>
      <trkpt lat="43.07935" lon="0.17814">
        <ele>571.20001220703</ele>
        <time>2025-08-10T16:25:50.000Z</time>
      </trkpt>
      <trkpt lat="43.07936" lon="0.17812">
        <ele>571.20001220703</ele>
        <time>2025-08-10T16:25:51.000Z</time>
      </trkpt>
      <trkpt lat="43.07939" lon="0.17808">
        <ele>571.59997558594</ele>
        <time>2025-08-10T16:25:54.000Z</time>
      </trkpt>
      <trkpt lat="43.07939" lon="0.17805">
        <ele>571.59997558594</ele>
        <time>2025-08-10T16:25:55.000Z</time>
      </trkpt>
      <trkpt lat="43.07946" lon="0.17792">
        <ele>572</ele>
        <time>2025-08-10T16:26:02.000Z</time>
      </trkpt>
      <trkpt lat="43.07948" lon="0.17784">
        <ele>572.59997558594</ele>
        <time>2025-08-10T16:26:06.000Z</time>
      </trkpt>
      <trkpt lat="43.0795" lon="0.17782">
        <ele>572.59997558594</ele>
        <time>2025-08-10T16:26:07.000Z</time>
      </trkpt>
      <trkpt lat="43.07953" lon="0.17773">
        <ele>573</ele>
        <time>2025-08-10T16:26:11.000Z</time>
      </trkpt>
      <trkpt lat="43.07954" lon="0.17772">
        <ele>573.20001220703</ele>
        <time>2025-08-10T16:26:12.000Z</time>
      </trkpt>
      <trkpt lat="43.07959" lon="0.17768">
        <ele>573.59997558594</ele>
        <time>2025-08-10T16:26:15.000Z</time>
      </trkpt>
      <trkpt lat="43.07963" lon="0.17766">
        <ele>574</ele>
        <time>2025-08-10T16:26:17.000Z</time>
      </trkpt>
      <trkpt lat="43.07964" lon="0.17766">
        <ele>574</ele>
        <time>2025-08-10T16:26:18.000Z</time>
      </trkpt>
      <trkpt lat="43.07966" lon="0.17765">
        <ele>574</ele>
        <time>2025-08-10T16:26:19.000Z</time>
      </trkpt>
      <trkpt lat="43.07971" lon="0.17757">
        <ele>574.40002441406</ele>
        <time>2025-08-10T16:26:23.000Z</time>
      </trkpt>
      <trkpt lat="43.07972" lon="0.17757">
        <ele>574.40002441406</ele>
        <time>2025-08-10T16:26:24.000Z</time>
      </trkpt>
      <trkpt lat="43.07973" lon="0.17757">
        <ele>574.59997558594</ele>
        <time>2025-08-10T16:26:25.000Z</time>
      </trkpt>
      <trkpt lat="43.07983" lon="0.1776">
        <ele>575.79998779297</ele>
        <time>2025-08-10T16:26:32.000Z</time>
      </trkpt>
      <trkpt lat="43.07987" lon="0.17758">
        <ele>576</ele>
        <time>2025-08-10T16:26:34.000Z</time>
      </trkpt>
      <trkpt lat="43.07996" lon="0.17763">
        <ele>576.79998779297</ele>
        <time>2025-08-10T16:26:39.000Z</time>
      </trkpt>
      <trkpt lat="43.07997" lon="0.17764">
        <ele>576.79998779297</ele>
        <time>2025-08-10T16:26:40.000Z</time>
      </trkpt>
      <trkpt lat="43.08007" lon="0.17773">
        <ele>577.40002441406</ele>
        <time>2025-08-10T16:26:46.000Z</time>
      </trkpt>
      <trkpt lat="43.08012" lon="0.1778">
        <ele>577.79998779297</ele>
        <time>2025-08-10T16:26:50.000Z</time>
      </trkpt>
      <trkpt lat="43.08019" lon="0.17793">
        <ele>578.59997558594</ele>
        <time>2025-08-10T16:26:57.000Z</time>
      </trkpt>
      <trkpt lat="43.08022" lon="0.17797">
        <ele>579</ele>
        <time>2025-08-10T16:27:00.000Z</time>
      </trkpt>
      <trkpt lat="43.08028" lon="0.17807">
        <ele>579.40002441406</ele>
        <time>2025-08-10T16:27:05.000Z</time>
      </trkpt>
      <trkpt lat="43.08038" lon="0.17815">
        <ele>580</ele>
        <time>2025-08-10T16:27:12.000Z</time>
      </trkpt>
      <trkpt lat="43.0804" lon="0.17816">
        <ele>580</ele>
        <time>2025-08-10T16:27:13.000Z</time>
      </trkpt>
      <trkpt lat="43.08048" lon="0.17821">
        <ele>580.79998779297</ele>
        <time>2025-08-10T16:27:19.000Z</time>
      </trkpt>
      <trkpt lat="43.08053" lon="0.17824">
        <ele>581</ele>
        <time>2025-08-10T16:27:22.000Z</time>
      </trkpt>
      <trkpt lat="43.08063" lon="0.17825">
        <ele>581.40002441406</ele>
        <time>2025-08-10T16:27:27.000Z</time>
      </trkpt>
      <trkpt lat="43.08075" lon="0.1782">
        <ele>582</ele>
        <time>2025-08-10T16:27:34.000Z</time>
      </trkpt>
      <trkpt lat="43.0808" lon="0.17814">
        <ele>582.59997558594</ele>
        <time>2025-08-10T16:27:38.000Z</time>
      </trkpt>
      <trkpt lat="43.08083" lon="0.17811">
        <ele>583</ele>
        <time>2025-08-10T16:27:40.000Z</time>
      </trkpt>
      <trkpt lat="43.08084" lon="0.17809">
        <ele>583</ele>
        <time>2025-08-10T16:27:41.000Z</time>
      </trkpt>
      <trkpt lat="43.08085" lon="0.17807">
        <ele>583</ele>
        <time>2025-08-10T16:27:42.000Z</time>
      </trkpt>
      <trkpt lat="43.08094" lon="0.17801">
        <ele>583.59997558594</ele>
        <time>2025-08-10T16:27:48.000Z</time>
      </trkpt>
      <trkpt lat="43.08102" lon="0.17799">
        <ele>584.20001220703</ele>
        <time>2025-08-10T16:27:53.000Z</time>
      </trkpt>
      <trkpt lat="43.08107" lon="0.17797">
        <ele>584.40002441406</ele>
        <time>2025-08-10T16:27:56.000Z</time>
      </trkpt>
      <trkpt lat="43.08115" lon="0.17795">
        <ele>584.79998779297</ele>
        <time>2025-08-10T16:28:01.000Z</time>
      </trkpt>
      <trkpt lat="43.08121" lon="0.17795">
        <ele>585</ele>
        <time>2025-08-10T16:28:04.000Z</time>
      </trkpt>
      <trkpt lat="43.08123" lon="0.17795">
        <ele>585.20001220703</ele>
        <time>2025-08-10T16:28:05.000Z</time>
      </trkpt>
      <trkpt lat="43.08131" lon="0.17796">
        <ele>585.79998779297</ele>
        <time>2025-08-10T16:28:10.000Z</time>
      </trkpt>
      <trkpt lat="43.08138" lon="0.17801">
        <ele>586.40002441406</ele>
        <time>2025-08-10T16:28:15.000Z</time>
      </trkpt>
      <trkpt lat="43.0814" lon="0.17803">
        <ele>586.59997558594</ele>
        <time>2025-08-10T16:28:17.000Z</time>
      </trkpt>
      <trkpt lat="43.08148" lon="0.17813">
        <ele>587</ele>
        <time>2025-08-10T16:28:24.000Z</time>
      </trkpt>
      <trkpt lat="43.08151" lon="0.17816">
        <ele>587.40002441406</ele>
        <time>2025-08-10T16:28:27.000Z</time>
      </trkpt>
      <trkpt lat="43.08157" lon="0.17823">
        <ele>587.59997558594</ele>
        <time>2025-08-10T16:28:32.000Z</time>
      </trkpt>
      <trkpt lat="43.08164" lon="0.17831">
        <ele>588.40002441406</ele>
        <time>2025-08-10T16:28:38.000Z</time>
      </trkpt>
      <trkpt lat="43.08166" lon="0.17832">
        <ele>588.59997558594</ele>
        <time>2025-08-10T16:28:40.000Z</time>
      </trkpt>
      <trkpt lat="43.08168" lon="0.17831">
        <ele>588.79998779297</ele>
        <time>2025-08-10T16:28:42.000Z</time>
      </trkpt>
      <trkpt lat="43.08169" lon="0.17831">
        <ele>589</ele>
        <time>2025-08-10T16:28:43.000Z</time>
      </trkpt>
      <trkpt lat="43.08176" lon="0.17833">
        <ele>589.40002441406</ele>
        <time>2025-08-10T16:28:49.000Z</time>
      </trkpt>
      <trkpt lat="43.08177" lon="0.17832">
        <ele>589.40002441406</ele>
        <time>2025-08-10T16:28:50.000Z</time>
      </trkpt>
      <trkpt lat="43.08179" lon="0.17832">
        <ele>589.40002441406</ele>
        <time>2025-08-10T16:28:51.000Z</time>
      </trkpt>
      <trkpt lat="43.08185" lon="0.17831">
        <ele>589.79998779297</ele>
        <time>2025-08-10T16:28:55.000Z</time>
      </trkpt>
      <trkpt lat="43.08194" lon="0.17823">
        <ele>590.59997558594</ele>
        <time>2025-08-10T16:29:02.000Z</time>
      </trkpt>
      <trkpt lat="43.08195" lon="0.17822">
        <ele>590.59997558594</ele>
        <time>2025-08-10T16:29:03.000Z</time>
      </trkpt>
      <trkpt lat="43.08201" lon="0.1782">
        <ele>591</ele>
        <time>2025-08-10T16:29:07.000Z</time>
      </trkpt>
      <trkpt lat="43.08205" lon="0.17817">
        <ele>591.20001220703</ele>
        <time>2025-08-10T16:29:10.000Z</time>
      </trkpt>
      <trkpt lat="43.08207" lon="0.17815">
        <ele>591.20001220703</ele>
        <time>2025-08-10T16:29:12.000Z</time>
      </trkpt>
      <trkpt lat="43.08209" lon="0.17815">
        <ele>591.40002441406</ele>
        <time>2025-08-10T16:29:13.000Z</time>
      </trkpt>
      <trkpt lat="43.08218" lon="0.17812">
        <ele>591.59997558594</ele>
        <time>2025-08-10T16:29:18.000Z</time>
      </trkpt>
      <trkpt lat="43.08227" lon="0.17808">
        <ele>592</ele>
        <time>2025-08-10T16:29:23.000Z</time>
      </trkpt>
      <trkpt lat="43.08238" lon="0.17799">
        <ele>592.59997558594</ele>
        <time>2025-08-10T16:29:30.000Z</time>
      </trkpt>
      <trkpt lat="43.0825" lon="0.17795">
        <ele>593.40002441406</ele>
        <time>2025-08-10T16:29:37.000Z</time>
      </trkpt>
      <trkpt lat="43.08254" lon="0.1779">
        <ele>593.79998779297</ele>
        <time>2025-08-10T16:29:40.000Z</time>
      </trkpt>
      <trkpt lat="43.08259" lon="0.17788">
        <ele>594</ele>
        <time>2025-08-10T16:29:43.000Z</time>
      </trkpt>
      <trkpt lat="43.0827" lon="0.17784">
        <ele>594.79998779297</ele>
        <time>2025-08-10T16:29:50.000Z</time>
      </trkpt>
      <trkpt lat="43.08273" lon="0.17781">
        <ele>595</ele>
        <time>2025-08-10T16:29:52.000Z</time>
      </trkpt>
      <trkpt lat="43.08275" lon="0.17779">
        <ele>595.20001220703</ele>
        <time>2025-08-10T16:29:54.000Z</time>
      </trkpt>
      <trkpt lat="43.08278" lon="0.1778">
        <ele>595.40002441406</ele>
        <time>2025-08-10T16:29:56.000Z</time>
      </trkpt>
      <trkpt lat="43.08279" lon="0.17778">
        <ele>595.59997558594</ele>
        <time>2025-08-10T16:29:57.000Z</time>
      </trkpt>
      <trkpt lat="43.08281" lon="0.17775">
        <ele>595.59997558594</ele>
        <time>2025-08-10T16:29:59.000Z</time>
      </trkpt>
      <trkpt lat="43.08284" lon="0.17776">
        <ele>595.79998779297</ele>
        <time>2025-08-10T16:30:01.000Z</time>
      </trkpt>
      <trkpt lat="43.08286" lon="0.17776">
        <ele>596</ele>
        <time>2025-08-10T16:30:02.000Z</time>
      </trkpt>
      <trkpt lat="43.08289" lon="0.17771">
        <ele>596.40002441406</ele>
        <time>2025-08-10T16:30:05.000Z</time>
      </trkpt>
      <trkpt lat="43.08294" lon="0.17766">
        <ele>597</ele>
        <time>2025-08-10T16:30:09.000Z</time>
      </trkpt>
      <trkpt lat="43.08301" lon="0.17763">
        <ele>597.20001220703</ele>
        <time>2025-08-10T16:30:13.000Z</time>
      </trkpt>
      <trkpt lat="43.08307" lon="0.17752">
        <ele>597.79998779297</ele>
        <time>2025-08-10T16:30:19.000Z</time>
      </trkpt>
      <trkpt lat="43.08309" lon="0.17748">
        <ele>598</ele>
        <time>2025-08-10T16:30:21.000Z</time>
      </trkpt>
      <trkpt lat="43.08313" lon="0.17736">
        <ele>598.79998779297</ele>
        <time>2025-08-10T16:30:27.000Z</time>
      </trkpt>
      <trkpt lat="43.08314" lon="0.17732">
        <ele>599.20001220703</ele>
        <time>2025-08-10T16:30:29.000Z</time>
      </trkpt>
      <trkpt lat="43.08318" lon="0.17719">
        <ele>599.79998779297</ele>
        <time>2025-08-10T16:30:35.000Z</time>
      </trkpt>
      <trkpt lat="43.08319" lon="0.17708">
        <ele>600.40002441406</ele>
        <time>2025-08-10T16:30:40.000Z</time>
      </trkpt>
      <trkpt lat="43.08319" lon="0.17704">
        <ele>600.59997558594</ele>
        <time>2025-08-10T16:30:42.000Z</time>
      </trkpt>
      <trkpt lat="43.08318" lon="0.17684">
        <ele>601.20001220703</ele>
        <time>2025-08-10T16:30:51.000Z</time>
      </trkpt>
      <trkpt lat="43.08316" lon="0.17675">
        <ele>601.59997558594</ele>
        <time>2025-08-10T16:30:55.000Z</time>
      </trkpt>
      <trkpt lat="43.08315" lon="0.17669">
        <ele>601.79998779297</ele>
        <time>2025-08-10T16:30:58.000Z</time>
      </trkpt>
      <trkpt lat="43.08311" lon="0.17653">
        <ele>602.59997558594</ele>
        <time>2025-08-10T16:31:05.000Z</time>
      </trkpt>
      <trkpt lat="43.08311" lon="0.17651">
        <ele>602.59997558594</ele>
        <time>2025-08-10T16:31:06.000Z</time>
      </trkpt>
      <trkpt lat="43.08312" lon="0.1765">
        <ele>602.79998779297</ele>
        <time>2025-08-10T16:31:07.000Z</time>
      </trkpt>
      <trkpt lat="43.08311" lon="0.17647">
        <ele>603</ele>
        <time>2025-08-10T16:31:09.000Z</time>
      </trkpt>
      <trkpt lat="43.08309" lon="0.17645">
        <ele>603.20001220703</ele>
        <time>2025-08-10T16:31:11.000Z</time>
      </trkpt>
      <trkpt lat="43.0831" lon="0.17642">
        <ele>603.20001220703</ele>
        <time>2025-08-10T16:31:13.000Z</time>
      </trkpt>
      <trkpt lat="43.0831" lon="0.1764">
        <ele>603.40002441406</ele>
        <time>2025-08-10T16:31:14.000Z</time>
      </trkpt>
      <trkpt lat="43.08309" lon="0.17631">
        <ele>603.59997558594</ele>
        <time>2025-08-10T16:31:18.000Z</time>
      </trkpt>
      <trkpt lat="43.08305" lon="0.17612">
        <ele>604.59997558594</ele>
        <time>2025-08-10T16:31:27.000Z</time>
      </trkpt>
      <trkpt lat="43.08304" lon="0.17608">
        <ele>604.79998779297</ele>
        <time>2025-08-10T16:31:29.000Z</time>
      </trkpt>
      <trkpt lat="43.08303" lon="0.17597">
        <ele>605.20001220703</ele>
        <time>2025-08-10T16:31:34.000Z</time>
      </trkpt>
      <trkpt lat="43.083" lon="0.17581">
        <ele>605.79998779297</ele>
        <time>2025-08-10T16:31:41.000Z</time>
      </trkpt>
      <trkpt lat="43.08298" lon="0.17578">
        <ele>606</ele>
        <time>2025-08-10T16:31:43.000Z</time>
      </trkpt>
      <trkpt lat="43.08296" lon="0.17574">
        <ele>606.20001220703</ele>
        <time>2025-08-10T16:31:45.000Z</time>
      </trkpt>
      <trkpt lat="43.08297" lon="0.17568">
        <ele>606.40002441406</ele>
        <time>2025-08-10T16:31:48.000Z</time>
      </trkpt>
      <trkpt lat="43.08297" lon="0.17557">
        <ele>606.79998779297</ele>
        <time>2025-08-10T16:31:54.000Z</time>
      </trkpt>
      <trkpt lat="43.08296" lon="0.17555">
        <ele>606.79998779297</ele>
        <time>2025-08-10T16:31:55.000Z</time>
      </trkpt>
      <trkpt lat="43.08294" lon="0.17546">
        <ele>607.40002441406</ele>
        <time>2025-08-10T16:32:00.000Z</time>
      </trkpt>
      <trkpt lat="43.08291" lon="0.17532">
        <ele>607.79998779297</ele>
        <time>2025-08-10T16:32:08.000Z</time>
      </trkpt>
      <trkpt lat="43.0829" lon="0.17529">
        <ele>608</ele>
        <time>2025-08-10T16:32:10.000Z</time>
      </trkpt>
      <trkpt lat="43.08288" lon="0.17518">
        <ele>608.40002441406</ele>
        <time>2025-08-10T16:32:15.000Z</time>
      </trkpt>
      <trkpt lat="43.08286" lon="0.17503">
        <ele>608.79998779297</ele>
        <time>2025-08-10T16:32:22.000Z</time>
      </trkpt>
      <trkpt lat="43.08285" lon="0.17498">
        <ele>609</ele>
        <time>2025-08-10T16:32:24.000Z</time>
      </trkpt>
      <trkpt lat="43.08286" lon="0.17493">
        <ele>609.40002441406</ele>
        <time>2025-08-10T16:32:27.000Z</time>
      </trkpt>
      <trkpt lat="43.08285" lon="0.1749">
        <ele>609.59997558594</ele>
        <time>2025-08-10T16:32:28.000Z</time>
      </trkpt>
      <trkpt lat="43.08283" lon="0.17483">
        <ele>609.79998779297</ele>
        <time>2025-08-10T16:32:32.000Z</time>
      </trkpt>
      <trkpt lat="43.08283" lon="0.17481">
        <ele>610</ele>
        <time>2025-08-10T16:32:33.000Z</time>
      </trkpt>
      <trkpt lat="43.08284" lon="0.17479">
        <ele>610</ele>
        <time>2025-08-10T16:32:34.000Z</time>
      </trkpt>
      <trkpt lat="43.08283" lon="0.17477">
        <ele>610</ele>
        <time>2025-08-10T16:32:35.000Z</time>
      </trkpt>
      <trkpt lat="43.08281" lon="0.17471">
        <ele>610.40002441406</ele>
        <time>2025-08-10T16:32:38.000Z</time>
      </trkpt>
      <trkpt lat="43.08281" lon="0.17469">
        <ele>610.40002441406</ele>
        <time>2025-08-10T16:32:39.000Z</time>
      </trkpt>
      <trkpt lat="43.08281" lon="0.17462">
        <ele>610.59997558594</ele>
        <time>2025-08-10T16:32:42.000Z</time>
      </trkpt>
      <trkpt lat="43.0828" lon="0.1746">
        <ele>610.79998779297</ele>
        <time>2025-08-10T16:32:43.000Z</time>
      </trkpt>
      <trkpt lat="43.08279" lon="0.17453">
        <ele>611.20001220703</ele>
        <time>2025-08-10T16:32:47.000Z</time>
      </trkpt>
      <trkpt lat="43.08277" lon="0.17445">
        <ele>611.59997558594</ele>
        <time>2025-08-10T16:32:51.000Z</time>
      </trkpt>
      <trkpt lat="43.08275" lon="0.17433">
        <ele>612.20001220703</ele>
        <time>2025-08-10T16:32:57.000Z</time>
      </trkpt>
      <trkpt lat="43.08275" lon="0.17429">
        <ele>612.40002441406</ele>
        <time>2025-08-10T16:32:59.000Z</time>
      </trkpt>
      <trkpt lat="43.08273" lon="0.17416">
        <ele>613</ele>
        <time>2025-08-10T16:33:06.000Z</time>
      </trkpt>
      <trkpt lat="43.08273" lon="0.17412">
        <ele>613.20001220703</ele>
        <time>2025-08-10T16:33:08.000Z</time>
      </trkpt>
      <trkpt lat="43.08272" lon="0.1741">
        <ele>613.40002441406</ele>
        <time>2025-08-10T16:33:09.000Z</time>
      </trkpt>
      <trkpt lat="43.08271" lon="0.17407">
        <ele>613.40002441406</ele>
        <time>2025-08-10T16:33:11.000Z</time>
      </trkpt>
      <trkpt lat="43.08272" lon="0.17401">
        <ele>613.59997558594</ele>
        <time>2025-08-10T16:33:14.000Z</time>
      </trkpt>
      <trkpt lat="43.0827" lon="0.17397">
        <ele>613.59997558594</ele>
        <time>2025-08-10T16:33:16.000Z</time>
      </trkpt>
      <trkpt lat="43.08269" lon="0.17396">
        <ele>613.79998779297</ele>
        <time>2025-08-10T16:33:17.000Z</time>
      </trkpt>
      <trkpt lat="43.0827" lon="0.17391">
        <ele>614.20001220703</ele>
        <time>2025-08-10T16:33:20.000Z</time>
      </trkpt>
      <trkpt lat="43.08269" lon="0.17388">
        <ele>614.20001220703</ele>
        <time>2025-08-10T16:33:22.000Z</time>
      </trkpt>
      <trkpt lat="43.08269" lon="0.17386">
        <ele>614.40002441406</ele>
        <time>2025-08-10T16:33:23.000Z</time>
      </trkpt>
      <trkpt lat="43.08268" lon="0.17383">
        <ele>614.40002441406</ele>
        <time>2025-08-10T16:33:25.000Z</time>
      </trkpt>
      <trkpt lat="43.08267" lon="0.17382">
        <ele>614.40002441406</ele>
        <time>2025-08-10T16:33:26.000Z</time>
      </trkpt>
      <trkpt lat="43.08267" lon="0.17371">
        <ele>615</ele>
        <time>2025-08-10T16:33:31.000Z</time>
      </trkpt>
      <trkpt lat="43.08266" lon="0.17365">
        <ele>615.40002441406</ele>
        <time>2025-08-10T16:33:34.000Z</time>
      </trkpt>
      <trkpt lat="43.08264" lon="0.17355">
        <ele>615.79998779297</ele>
        <time>2025-08-10T16:33:39.000Z</time>
      </trkpt>
      <trkpt lat="43.08263" lon="0.17345">
        <ele>616.40002441406</ele>
        <time>2025-08-10T16:33:44.000Z</time>
      </trkpt>
      <trkpt lat="43.08264" lon="0.17341">
        <ele>616.40002441406</ele>
        <time>2025-08-10T16:33:46.000Z</time>
      </trkpt>
      <trkpt lat="43.08263" lon="0.17332">
        <ele>616.59997558594</ele>
        <time>2025-08-10T16:33:50.000Z</time>
      </trkpt>
      <trkpt lat="43.08263" lon="0.1733">
        <ele>616.79998779297</ele>
        <time>2025-08-10T16:33:51.000Z</time>
      </trkpt>
      <trkpt lat="43.08261" lon="0.1732">
        <ele>617</ele>
        <time>2025-08-10T16:33:57.000Z</time>
      </trkpt>
      <trkpt lat="43.08261" lon="0.17314">
        <ele>617.40002441406</ele>
        <time>2025-08-10T16:34:00.000Z</time>
      </trkpt>
      <trkpt lat="43.08261" lon="0.17312">
        <ele>617.40002441406</ele>
        <time>2025-08-10T16:34:01.000Z</time>
      </trkpt>
      <trkpt lat="43.08262" lon="0.17307">
        <ele>617.59997558594</ele>
        <time>2025-08-10T16:34:04.000Z</time>
      </trkpt>
      <trkpt lat="43.08262" lon="0.17293">
        <ele>618.20001220703</ele>
        <time>2025-08-10T16:34:11.000Z</time>
      </trkpt>
      <trkpt lat="43.08262" lon="0.1729">
        <ele>618.40002441406</ele>
        <time>2025-08-10T16:34:13.000Z</time>
      </trkpt>
      <trkpt lat="43.08262" lon="0.17288">
        <ele>618.59997558594</ele>
        <time>2025-08-10T16:34:14.000Z</time>
      </trkpt>
      <trkpt lat="43.08262" lon="0.17284">
        <ele>618.79998779297</ele>
        <time>2025-08-10T16:34:16.000Z</time>
      </trkpt>
      <trkpt lat="43.08263" lon="0.17279">
        <ele>619</ele>
        <time>2025-08-10T16:34:19.000Z</time>
      </trkpt>
      <trkpt lat="43.08265" lon="0.17267">
        <ele>619.59997558594</ele>
        <time>2025-08-10T16:34:25.000Z</time>
      </trkpt>
      <trkpt lat="43.08264" lon="0.17265">
        <ele>619.79998779297</ele>
        <time>2025-08-10T16:34:26.000Z</time>
      </trkpt>
      <trkpt lat="43.08264" lon="0.17259">
        <ele>619.79998779297</ele>
        <time>2025-08-10T16:34:29.000Z</time>
      </trkpt>
      <trkpt lat="43.08266" lon="0.17252">
        <ele>620.20001220703</ele>
        <time>2025-08-10T16:34:32.000Z</time>
      </trkpt>
      <trkpt lat="43.08267" lon="0.17238">
        <ele>620.59997558594</ele>
        <time>2025-08-10T16:34:38.000Z</time>
      </trkpt>
      <trkpt lat="43.08267" lon="0.17234">
        <ele>620.79998779297</ele>
        <time>2025-08-10T16:34:40.000Z</time>
      </trkpt>
      <trkpt lat="43.08271" lon="0.17221">
        <ele>621.59997558594</ele>
        <time>2025-08-10T16:34:46.000Z</time>
      </trkpt>
      <trkpt lat="43.08271" lon="0.17216">
        <ele>621.59997558594</ele>
        <time>2025-08-10T16:34:48.000Z</time>
      </trkpt>
      <trkpt lat="43.08273" lon="0.17206">
        <ele>622</ele>
        <time>2025-08-10T16:34:53.000Z</time>
      </trkpt>
      <trkpt lat="43.08275" lon="0.17192">
        <ele>622.79998779297</ele>
        <time>2025-08-10T16:34:59.000Z</time>
      </trkpt>
      <trkpt lat="43.08277" lon="0.17188">
        <ele>623</ele>
        <time>2025-08-10T16:35:01.000Z</time>
      </trkpt>
      <trkpt lat="43.0828" lon="0.17175">
        <ele>623.59997558594</ele>
        <time>2025-08-10T16:35:07.000Z</time>
      </trkpt>
      <trkpt lat="43.08283" lon="0.17169">
        <ele>623.79998779297</ele>
        <time>2025-08-10T16:35:10.000Z</time>
      </trkpt>
      <trkpt lat="43.08286" lon="0.17162">
        <ele>624.20001220703</ele>
        <time>2025-08-10T16:35:14.000Z</time>
      </trkpt>
      <trkpt lat="43.08292" lon="0.1715">
        <ele>624.59997558594</ele>
        <time>2025-08-10T16:35:21.000Z</time>
      </trkpt>
      <trkpt lat="43.08293" lon="0.17148">
        <ele>624.79998779297</ele>
        <time>2025-08-10T16:35:22.000Z</time>
      </trkpt>
      <trkpt lat="43.08294" lon="0.17147">
        <ele>624.79998779297</ele>
        <time>2025-08-10T16:35:23.000Z</time>
      </trkpt>
      <trkpt lat="43.08302" lon="0.17131">
        <ele>625.59997558594</ele>
        <time>2025-08-10T16:35:31.000Z</time>
      </trkpt>
      <trkpt lat="43.08305" lon="0.17128">
        <ele>626</ele>
        <time>2025-08-10T16:35:33.000Z</time>
      </trkpt>
      <trkpt lat="43.08311" lon="0.17119">
        <ele>626.59997558594</ele>
        <time>2025-08-10T16:35:38.000Z</time>
      </trkpt>
      <trkpt lat="43.08314" lon="0.17112">
        <ele>627</ele>
        <time>2025-08-10T16:35:42.000Z</time>
      </trkpt>
      <trkpt lat="43.08317" lon="0.17109">
        <ele>627.40002441406</ele>
        <time>2025-08-10T16:35:44.000Z</time>
      </trkpt>
      <trkpt lat="43.08324" lon="0.17099">
        <ele>628.20001220703</ele>
        <time>2025-08-10T16:35:50.000Z</time>
      </trkpt>
      <trkpt lat="43.08326" lon="0.17095">
        <ele>628.20001220703</ele>
        <time>2025-08-10T16:35:52.000Z</time>
      </trkpt>
      <trkpt lat="43.08333" lon="0.17083">
        <ele>628.40002441406</ele>
        <time>2025-08-10T16:35:58.000Z</time>
      </trkpt>
      <trkpt lat="43.08334" lon="0.17082">
        <ele>628.40002441406</ele>
        <time>2025-08-10T16:35:59.000Z</time>
      </trkpt>
      <trkpt lat="43.08338" lon="0.17073">
        <ele>628.79998779297</ele>
        <time>2025-08-10T16:36:03.000Z</time>
      </trkpt>
      <trkpt lat="43.08344" lon="0.17062">
        <ele>629.20001220703</ele>
        <time>2025-08-10T16:36:08.000Z</time>
      </trkpt>
      <trkpt lat="43.08347" lon="0.17053">
        <ele>629.79998779297</ele>
        <time>2025-08-10T16:36:12.000Z</time>
      </trkpt>
      <trkpt lat="43.08351" lon="0.17037">
        <ele>630.20001220703</ele>
        <time>2025-08-10T16:36:18.000Z</time>
      </trkpt>
      <trkpt lat="43.08352" lon="0.17032">
        <ele>630.40002441406</ele>
        <time>2025-08-10T16:36:20.000Z</time>
      </trkpt>
      <trkpt lat="43.08354" lon="0.17012">
        <ele>630.79998779297</ele>
        <time>2025-08-10T16:36:28.000Z</time>
      </trkpt>
      <trkpt lat="43.08352" lon="0.16993">
        <ele>631</ele>
        <time>2025-08-10T16:36:36.000Z</time>
      </trkpt>
      <trkpt lat="43.0835" lon="0.16981">
        <ele>631.20001220703</ele>
        <time>2025-08-10T16:36:41.000Z</time>
      </trkpt>
      <trkpt lat="43.08349" lon="0.16978">
        <ele>631.40002441406</ele>
        <time>2025-08-10T16:36:42.000Z</time>
      </trkpt>
      <trkpt lat="43.08337" lon="0.16964">
        <ele>631.79998779297</ele>
        <time>2025-08-10T16:36:50.000Z</time>
      </trkpt>
      <trkpt lat="43.08332" lon="0.16959">
        <ele>631.79998779297</ele>
        <time>2025-08-10T16:36:54.000Z</time>
      </trkpt>
      <trkpt lat="43.08329" lon="0.16955">
        <ele>631.79998779297</ele>
        <time>2025-08-10T16:36:57.000Z</time>
      </trkpt>
      <trkpt lat="43.08322" lon="0.16949">
        <ele>632.40002441406</ele>
        <time>2025-08-10T16:37:03.000Z</time>
      </trkpt>
      <trkpt lat="43.08321" lon="0.16948">
        <ele>632.59997558594</ele>
        <time>2025-08-10T16:37:04.000Z</time>
      </trkpt>
      <trkpt lat="43.08309" lon="0.16937">
        <ele>633.40002441406</ele>
        <time>2025-08-10T16:37:13.000Z</time>
      </trkpt>
      <trkpt lat="43.08299" lon="0.16927">
        <ele>634.40002441406</ele>
        <time>2025-08-10T16:37:21.000Z</time>
      </trkpt>
      <trkpt lat="43.08298" lon="0.16926">
        <ele>634.59997558594</ele>
        <time>2025-08-10T16:37:22.000Z</time>
      </trkpt>
      <trkpt lat="43.08296" lon="0.16925">
        <ele>634.59997558594</ele>
        <time>2025-08-10T16:37:23.000Z</time>
      </trkpt>
      <trkpt lat="43.08291" lon="0.1692">
        <ele>634.79998779297</ele>
        <time>2025-08-10T16:37:27.000Z</time>
      </trkpt>
      <trkpt lat="43.08281" lon="0.1691">
        <ele>635.20001220703</ele>
        <time>2025-08-10T16:37:35.000Z</time>
      </trkpt>
      <trkpt lat="43.08275" lon="0.16903">
        <ele>635.59997558594</ele>
        <time>2025-08-10T16:37:40.000Z</time>
      </trkpt>
      <trkpt lat="43.08271" lon="0.169">
        <ele>635.79998779297</ele>
        <time>2025-08-10T16:37:43.000Z</time>
      </trkpt>
      <trkpt lat="43.08258" lon="0.16887">
        <ele>636.20001220703</ele>
        <time>2025-08-10T16:37:52.000Z</time>
      </trkpt>
      <trkpt lat="43.08251" lon="0.16879">
        <ele>636.59997558594</ele>
        <time>2025-08-10T16:37:57.000Z</time>
      </trkpt>
      <trkpt lat="43.08245" lon="0.16872">
        <ele>636.79998779297</ele>
        <time>2025-08-10T16:38:01.000Z</time>
      </trkpt>
      <trkpt lat="43.08233" lon="0.16861">
        <ele>637.40002441406</ele>
        <time>2025-08-10T16:38:10.000Z</time>
      </trkpt>
      <trkpt lat="43.08229" lon="0.16858">
        <ele>637.59997558594</ele>
        <time>2025-08-10T16:38:13.000Z</time>
      </trkpt>
      <trkpt lat="43.08218" lon="0.16848">
        <ele>638.40002441406</ele>
        <time>2025-08-10T16:38:21.000Z</time>
      </trkpt>
      <trkpt lat="43.08212" lon="0.16841">
        <ele>638.59997558594</ele>
        <time>2025-08-10T16:38:26.000Z</time>
      </trkpt>
      <trkpt lat="43.08211" lon="0.1684">
        <ele>639</ele>
        <time>2025-08-10T16:38:28.000Z</time>
      </trkpt>
      <trkpt lat="43.08211" lon="0.1684">
        <ele>639</ele>
        <time>2025-08-10T16:38:29.000Z</time>
      </trkpt>
      <trkpt lat="43.08206" lon="0.16838">
        <ele>639.79998779297</ele>
        <time>2025-08-10T16:40:31.000Z</time>
      </trkpt>
      <trkpt lat="43.08202" lon="0.16834">
        <ele>639.59997558594</ele>
        <time>2025-08-10T16:40:33.000Z</time>
      </trkpt>
      <trkpt lat="43.08191" lon="0.16825">
        <ele>639.79998779297</ele>
        <time>2025-08-10T16:40:39.000Z</time>
      </trkpt>
      <trkpt lat="43.08179" lon="0.16812">
        <ele>640.40002441406</ele>
        <time>2025-08-10T16:40:46.000Z</time>
      </trkpt>
      <trkpt lat="43.0817" lon="0.16804">
        <ele>640.79998779297</ele>
        <time>2025-08-10T16:40:51.000Z</time>
      </trkpt>
      <trkpt lat="43.08169" lon="0.16802">
        <ele>640.79998779297</ele>
        <time>2025-08-10T16:40:52.000Z</time>
      </trkpt>
      <trkpt lat="43.08161" lon="0.16793">
        <ele>641.40002441406</ele>
        <time>2025-08-10T16:40:57.000Z</time>
      </trkpt>
      <trkpt lat="43.08159" lon="0.1679">
        <ele>641.59997558594</ele>
        <time>2025-08-10T16:40:59.000Z</time>
      </trkpt>
      <trkpt lat="43.0815" lon="0.16781">
        <ele>642</ele>
        <time>2025-08-10T16:41:05.000Z</time>
      </trkpt>
      <trkpt lat="43.08149" lon="0.1678">
        <ele>642</ele>
        <time>2025-08-10T16:41:06.000Z</time>
      </trkpt>
      <trkpt lat="43.08138" lon="0.16769">
        <ele>642.59997558594</ele>
        <time>2025-08-10T16:41:13.000Z</time>
      </trkpt>
      <trkpt lat="43.08129" lon="0.1676">
        <ele>643</ele>
        <time>2025-08-10T16:41:19.000Z</time>
      </trkpt>
      <trkpt lat="43.08126" lon="0.16756">
        <ele>643.20001220703</ele>
        <time>2025-08-10T16:41:21.000Z</time>
      </trkpt>
      <trkpt lat="43.08117" lon="0.16746">
        <ele>644</ele>
        <time>2025-08-10T16:41:26.000Z</time>
      </trkpt>
      <trkpt lat="43.08112" lon="0.1674">
        <ele>644.79998779297</ele>
        <time>2025-08-10T16:41:29.000Z</time>
      </trkpt>
      <trkpt lat="43.08108" lon="0.16736">
        <ele>645</ele>
        <time>2025-08-10T16:41:31.000Z</time>
      </trkpt>
      <trkpt lat="43.08096" lon="0.16723">
        <ele>645.79998779297</ele>
        <time>2025-08-10T16:41:38.000Z</time>
      </trkpt>
      <trkpt lat="43.08093" lon="0.16719">
        <ele>646.20001220703</ele>
        <time>2025-08-10T16:41:40.000Z</time>
      </trkpt>
      <trkpt lat="43.08086" lon="0.16709">
        <ele>646.79998779297</ele>
        <time>2025-08-10T16:41:45.000Z</time>
      </trkpt>
      <trkpt lat="43.08078" lon="0.16697">
        <ele>647.20001220703</ele>
        <time>2025-08-10T16:41:51.000Z</time>
      </trkpt>
      <trkpt lat="43.08076" lon="0.16694">
        <ele>647.20001220703</ele>
        <time>2025-08-10T16:41:52.000Z</time>
      </trkpt>
      <trkpt lat="43.08067" lon="0.16679">
        <ele>647.59997558594</ele>
        <time>2025-08-10T16:41:57.000Z</time>
      </trkpt>
      <trkpt lat="43.08061" lon="0.16673">
        <ele>647.20001220703</ele>
        <time>2025-08-10T16:42:01.000Z</time>
      </trkpt>
      <trkpt lat="43.08058" lon="0.16673">
        <ele>647.20001220703</ele>
        <time>2025-08-10T16:42:03.000Z</time>
      </trkpt>
      <trkpt lat="43.08049" lon="0.16673">
        <ele>647</ele>
        <time>2025-08-10T16:42:08.000Z</time>
      </trkpt>
      <trkpt lat="43.08046" lon="0.16669">
        <ele>647</ele>
        <time>2025-08-10T16:42:10.000Z</time>
      </trkpt>
      <trkpt lat="43.08043" lon="0.1666">
        <ele>646.79998779297</ele>
        <time>2025-08-10T16:42:16.000Z</time>
      </trkpt>
      <trkpt lat="43.08043" lon="0.1666">
        <ele>646.79998779297</ele>
        <time>2025-08-10T16:42:17.000Z</time>
      </trkpt>
      <trkpt lat="43.08039" lon="0.16649">
        <ele>647.20001220703</ele>
        <time>2025-08-10T16:42:36.000Z</time>
      </trkpt>
      <trkpt lat="43.08035" lon="0.16641">
        <ele>647.20001220703</ele>
        <time>2025-08-10T16:42:38.000Z</time>
      </trkpt>
      <trkpt lat="43.08024" lon="0.1661">
        <ele>646.20001220703</ele>
        <time>2025-08-10T16:42:44.000Z</time>
      </trkpt>
      <trkpt lat="43.08019" lon="0.16599">
        <ele>645.79998779297</ele>
        <time>2025-08-10T16:42:46.000Z</time>
      </trkpt>
      <trkpt lat="43.08009" lon="0.16576">
        <ele>645</ele>
        <time>2025-08-10T16:42:50.000Z</time>
      </trkpt>
      <trkpt lat="43.08006" lon="0.1657">
        <ele>644.40002441406</ele>
        <time>2025-08-10T16:42:51.000Z</time>
      </trkpt>
      <trkpt lat="43.07996" lon="0.16554">
        <ele>643.40002441406</ele>
        <time>2025-08-10T16:42:54.000Z</time>
      </trkpt>
      <trkpt lat="43.07984" lon="0.16532">
        <ele>642.20001220703</ele>
        <time>2025-08-10T16:42:58.000Z</time>
      </trkpt>
      <trkpt lat="43.07978" lon="0.16521">
        <ele>641.59997558594</ele>
        <time>2025-08-10T16:43:00.000Z</time>
      </trkpt>
      <trkpt lat="43.07971" lon="0.16511">
        <ele>641</ele>
        <time>2025-08-10T16:43:02.000Z</time>
      </trkpt>
      <trkpt lat="43.07957" lon="0.1649">
        <ele>639.59997558594</ele>
        <time>2025-08-10T16:43:06.000Z</time>
      </trkpt>
      <trkpt lat="43.07943" lon="0.1647">
        <ele>638.40002441406</ele>
        <time>2025-08-10T16:43:10.000Z</time>
      </trkpt>
      <trkpt lat="43.07937" lon="0.16461">
        <ele>637.59997558594</ele>
        <time>2025-08-10T16:43:12.000Z</time>
      </trkpt>
      <trkpt lat="43.07934" lon="0.16457">
        <ele>637.20001220703</ele>
        <time>2025-08-10T16:43:13.000Z</time>
      </trkpt>
      <trkpt lat="43.07931" lon="0.16453">
        <ele>636.79998779297</ele>
        <time>2025-08-10T16:43:14.000Z</time>
      </trkpt>
      <trkpt lat="43.07928" lon="0.16449">
        <ele>636.20001220703</ele>
        <time>2025-08-10T16:43:15.000Z</time>
      </trkpt>
      <trkpt lat="43.07925" lon="0.16444">
        <ele>635.79998779297</ele>
        <time>2025-08-10T16:43:16.000Z</time>
      </trkpt>
      <trkpt lat="43.07916" lon="0.1643">
        <ele>634.79998779297</ele>
        <time>2025-08-10T16:43:19.000Z</time>
      </trkpt>
      <trkpt lat="43.07903" lon="0.16411">
        <ele>633.59997558594</ele>
        <time>2025-08-10T16:43:23.000Z</time>
      </trkpt>
      <trkpt lat="43.07897" lon="0.16402">
        <ele>632.79998779297</ele>
        <time>2025-08-10T16:43:25.000Z</time>
      </trkpt>
      <trkpt lat="43.07894" lon="0.16398">
        <ele>632.40002441406</ele>
        <time>2025-08-10T16:43:26.000Z</time>
      </trkpt>
      <trkpt lat="43.07884" lon="0.16384">
        <ele>631.40002441406</ele>
        <time>2025-08-10T16:43:29.000Z</time>
      </trkpt>
      <trkpt lat="43.07871" lon="0.16363">
        <ele>630.20001220703</ele>
        <time>2025-08-10T16:43:33.000Z</time>
      </trkpt>
      <trkpt lat="43.07867" lon="0.16357">
        <ele>629.79998779297</ele>
        <time>2025-08-10T16:43:34.000Z</time>
      </trkpt>
      <trkpt lat="43.07857" lon="0.16341">
        <ele>629</ele>
        <time>2025-08-10T16:43:37.000Z</time>
      </trkpt>
      <trkpt lat="43.07847" lon="0.16326">
        <ele>628</ele>
        <time>2025-08-10T16:43:40.000Z</time>
      </trkpt>
      <trkpt lat="43.07844" lon="0.16321">
        <ele>627.59997558594</ele>
        <time>2025-08-10T16:43:41.000Z</time>
      </trkpt>
      <trkpt lat="43.07829" lon="0.16301">
        <ele>626.40002441406</ele>
        <time>2025-08-10T16:43:45.000Z</time>
      </trkpt>
      <trkpt lat="43.07817" lon="0.16284">
        <ele>625.20001220703</ele>
        <time>2025-08-10T16:43:48.000Z</time>
      </trkpt>
      <trkpt lat="43.07813" lon="0.16279">
        <ele>625.20001220703</ele>
        <time>2025-08-10T16:43:49.000Z</time>
      </trkpt>
      <trkpt lat="43.07801" lon="0.16263">
        <ele>623.79998779297</ele>
        <time>2025-08-10T16:43:52.000Z</time>
      </trkpt>
      <trkpt lat="43.07794" lon="0.16253">
        <ele>622.79998779297</ele>
        <time>2025-08-10T16:43:54.000Z</time>
      </trkpt>
      <trkpt lat="43.07783" lon="0.1624">
        <ele>621.40002441406</ele>
        <time>2025-08-10T16:43:57.000Z</time>
      </trkpt>
      <trkpt lat="43.07768" lon="0.16221">
        <ele>620</ele>
        <time>2025-08-10T16:44:02.000Z</time>
      </trkpt>
      <trkpt lat="43.07755" lon="0.16203">
        <ele>618.79998779297</ele>
        <time>2025-08-10T16:44:06.000Z</time>
      </trkpt>
      <trkpt lat="43.07744" lon="0.16189">
        <ele>617.59997558594</ele>
        <time>2025-08-10T16:44:09.000Z</time>
      </trkpt>
      <trkpt lat="43.07737" lon="0.1618">
        <ele>616.59997558594</ele>
        <time>2025-08-10T16:44:11.000Z</time>
      </trkpt>
      <trkpt lat="43.07722" lon="0.16161">
        <ele>615.59997558594</ele>
        <time>2025-08-10T16:44:15.000Z</time>
      </trkpt>
      <trkpt lat="43.07712" lon="0.16146">
        <ele>614.20001220703</ele>
        <time>2025-08-10T16:44:18.000Z</time>
      </trkpt>
      <trkpt lat="43.07708" lon="0.16143">
        <ele>613.79998779297</ele>
        <time>2025-08-10T16:44:20.000Z</time>
      </trkpt>
      <trkpt lat="43.07705" lon="0.16139">
        <ele>613.20001220703</ele>
        <time>2025-08-10T16:44:23.000Z</time>
      </trkpt>
      <trkpt lat="43.07704" lon="0.16137">
        <ele>613.20001220703</ele>
        <time>2025-08-10T16:44:24.000Z</time>
      </trkpt>
      <trkpt lat="43.07693" lon="0.16126">
        <ele>612.40002441406</ele>
        <time>2025-08-10T16:44:30.000Z</time>
      </trkpt>
      <trkpt lat="43.07687" lon="0.16123">
        <ele>612.20001220703</ele>
        <time>2025-08-10T16:44:32.000Z</time>
      </trkpt>
      <trkpt lat="43.07668" lon="0.16116">
        <ele>611.40002441406</ele>
        <time>2025-08-10T16:44:37.000Z</time>
      </trkpt>
      <trkpt lat="43.0766" lon="0.16115">
        <ele>611</ele>
        <time>2025-08-10T16:44:39.000Z</time>
      </trkpt>
      <trkpt lat="43.07657" lon="0.16115">
        <ele>610.20001220703</ele>
        <time>2025-08-10T16:44:42.000Z</time>
      </trkpt>
      <trkpt lat="43.07657" lon="0.16115">
        <ele>609.79998779297</ele>
        <time>2025-08-10T16:44:43.000Z</time>
      </trkpt>
      <trkpt lat="43.07657" lon="0.16115">
        <ele>609.40002441406</ele>
        <time>2025-08-10T16:44:44.000Z</time>
      </trkpt>
      <trkpt lat="43.07653" lon="0.16111">
        <ele>607.79998779297</ele>
        <time>2025-08-10T16:46:00.000Z</time>
      </trkpt>
      <trkpt lat="43.07651" lon="0.1611">
        <ele>607.79998779297</ele>
        <time>2025-08-10T16:46:01.000Z</time>
      </trkpt>
      <trkpt lat="43.0763" lon="0.161">
        <ele>607.40002441406</ele>
        <time>2025-08-10T16:46:07.000Z</time>
      </trkpt>
      <trkpt lat="43.07617" lon="0.16087">
        <ele>606.59997558594</ele>
        <time>2025-08-10T16:46:11.000Z</time>
      </trkpt>
      <trkpt lat="43.07612" lon="0.16078">
        <ele>606</ele>
        <time>2025-08-10T16:46:13.000Z</time>
      </trkpt>
      <trkpt lat="43.07608" lon="0.1607">
        <ele>605.40002441406</ele>
        <time>2025-08-10T16:46:15.000Z</time>
      </trkpt>
      <trkpt lat="43.07603" lon="0.16057">
        <ele>604.20001220703</ele>
        <time>2025-08-10T16:46:18.000Z</time>
      </trkpt>
      <trkpt lat="43.07601" lon="0.16052">
        <ele>603.79998779297</ele>
        <time>2025-08-10T16:46:19.000Z</time>
      </trkpt>
      <trkpt lat="43.07598" lon="0.16041">
        <ele>602.59997558594</ele>
        <time>2025-08-10T16:46:21.000Z</time>
      </trkpt>
      <trkpt lat="43.07595" lon="0.1603">
        <ele>601.59997558594</ele>
        <time>2025-08-10T16:46:23.000Z</time>
      </trkpt>
      <trkpt lat="43.07587" lon="0.16007">
        <ele>600.40002441406</ele>
        <time>2025-08-10T16:46:27.000Z</time>
      </trkpt>
      <trkpt lat="43.07584" lon="0.15995">
        <ele>599.59997558594</ele>
        <time>2025-08-10T16:46:29.000Z</time>
      </trkpt>
      <trkpt lat="43.07582" lon="0.15989">
        <ele>598.79998779297</ele>
        <time>2025-08-10T16:46:30.000Z</time>
      </trkpt>
      <trkpt lat="43.0758" lon="0.15983">
        <ele>598.40002441406</ele>
        <time>2025-08-10T16:46:31.000Z</time>
      </trkpt>
      <trkpt lat="43.07579" lon="0.15976">
        <ele>597.79998779297</ele>
        <time>2025-08-10T16:46:32.000Z</time>
      </trkpt>
      <trkpt lat="43.07578" lon="0.15969">
        <ele>597</ele>
        <time>2025-08-10T16:46:33.000Z</time>
      </trkpt>
      <trkpt lat="43.07577" lon="0.15961">
        <ele>596.59997558594</ele>
        <time>2025-08-10T16:46:34.000Z</time>
      </trkpt>
      <trkpt lat="43.07573" lon="0.15941">
        <ele>594.59997558594</ele>
        <time>2025-08-10T16:46:37.000Z</time>
      </trkpt>
      <trkpt lat="43.07568" lon="0.15927">
        <ele>593.79998779297</ele>
        <time>2025-08-10T16:46:39.000Z</time>
      </trkpt>
      <trkpt lat="43.07565" lon="0.15921">
        <ele>593.40002441406</ele>
        <time>2025-08-10T16:46:40.000Z</time>
      </trkpt>
      <trkpt lat="43.07557" lon="0.15912">
        <ele>592</ele>
        <time>2025-08-10T16:46:42.000Z</time>
      </trkpt>
      <trkpt lat="43.07548" lon="0.1591">
        <ele>590.79998779297</ele>
        <time>2025-08-10T16:46:44.000Z</time>
      </trkpt>
      <trkpt lat="43.07545" lon="0.15912">
        <ele>590.40002441406</ele>
        <time>2025-08-10T16:46:45.000Z</time>
      </trkpt>
      <trkpt lat="43.07538" lon="0.15919">
        <ele>589.40002441406</ele>
        <time>2025-08-10T16:46:47.000Z</time>
      </trkpt>
      <trkpt lat="43.07531" lon="0.15926">
        <ele>588.59997558594</ele>
        <time>2025-08-10T16:46:49.000Z</time>
      </trkpt>
      <trkpt lat="43.07528" lon="0.1593">
        <ele>588.20001220703</ele>
        <time>2025-08-10T16:46:50.000Z</time>
      </trkpt>
      <trkpt lat="43.07524" lon="0.15935">
        <ele>587.79998779297</ele>
        <time>2025-08-10T16:46:51.000Z</time>
      </trkpt>
      <trkpt lat="43.07515" lon="0.15942">
        <ele>586.79998779297</ele>
        <time>2025-08-10T16:46:53.000Z</time>
      </trkpt>
      <trkpt lat="43.07506" lon="0.15947">
        <ele>586</ele>
        <time>2025-08-10T16:46:55.000Z</time>
      </trkpt>
      <trkpt lat="43.07502" lon="0.15948">
        <ele>585.40002441406</ele>
        <time>2025-08-10T16:46:56.000Z</time>
      </trkpt>
      <trkpt lat="43.07498" lon="0.15948">
        <ele>585</ele>
        <time>2025-08-10T16:46:57.000Z</time>
      </trkpt>
      <trkpt lat="43.07492" lon="0.15946">
        <ele>584.40002441406</ele>
        <time>2025-08-10T16:46:58.000Z</time>
      </trkpt>
      <trkpt lat="43.07489" lon="0.15943">
        <ele>583.79998779297</ele>
        <time>2025-08-10T16:46:59.000Z</time>
      </trkpt>
      <trkpt lat="43.07485" lon="0.15939">
        <ele>583.59997558594</ele>
        <time>2025-08-10T16:47:00.000Z</time>
      </trkpt>
      <trkpt lat="43.0748" lon="0.15932">
        <ele>582</ele>
        <time>2025-08-10T16:47:02.000Z</time>
      </trkpt>
      <trkpt lat="43.07479" lon="0.15929">
        <ele>581</ele>
        <time>2025-08-10T16:47:03.000Z</time>
      </trkpt>
      <trkpt lat="43.07479" lon="0.15929">
        <ele>580</ele>
        <time>2025-08-10T16:47:05.000Z</time>
      </trkpt>
      <trkpt lat="43.07475" lon="0.15924">
        <ele>575.59997558594</ele>
        <time>2025-08-10T16:47:42.000Z</time>
      </trkpt>
      <trkpt lat="43.07464" lon="0.15923">
        <ele>575.59997558594</ele>
        <time>2025-08-10T16:47:45.000Z</time>
      </trkpt>
      <trkpt lat="43.0746" lon="0.15923">
        <ele>575.59997558594</ele>
        <time>2025-08-10T16:47:46.000Z</time>
      </trkpt>
      <trkpt lat="43.07448" lon="0.15923">
        <ele>575.59997558594</ele>
        <time>2025-08-10T16:47:48.000Z</time>
      </trkpt>
      <trkpt lat="43.07434" lon="0.15918">
        <ele>575.20001220703</ele>
        <time>2025-08-10T16:47:50.000Z</time>
      </trkpt>
      <trkpt lat="43.07412" lon="0.1591">
        <ele>574.40002441406</ele>
        <time>2025-08-10T16:47:53.000Z</time>
      </trkpt>
      <trkpt lat="43.07404" lon="0.15905">
        <ele>574</ele>
        <time>2025-08-10T16:47:54.000Z</time>
      </trkpt>
      <trkpt lat="43.07378" lon="0.15892">
        <ele>572.40002441406</ele>
        <time>2025-08-10T16:47:57.000Z</time>
      </trkpt>
      <trkpt lat="43.07362" lon="0.15889">
        <ele>571.40002441406</ele>
        <time>2025-08-10T16:47:59.000Z</time>
      </trkpt>
      <trkpt lat="43.07353" lon="0.1589">
        <ele>570.79998779297</ele>
        <time>2025-08-10T16:48:00.000Z</time>
      </trkpt>
      <trkpt lat="43.07344" lon="0.15893">
        <ele>570.40002441406</ele>
        <time>2025-08-10T16:48:01.000Z</time>
      </trkpt>
      <trkpt lat="43.07333" lon="0.15897">
        <ele>569.79998779297</ele>
        <time>2025-08-10T16:48:02.000Z</time>
      </trkpt>
      <trkpt lat="43.07326" lon="0.159">
        <ele>569.59997558594</ele>
        <time>2025-08-10T16:48:03.000Z</time>
      </trkpt>
      <trkpt lat="43.07309" lon="0.15907">
        <ele>568.20001220703</ele>
        <time>2025-08-10T16:48:05.000Z</time>
      </trkpt>
      <trkpt lat="43.07302" lon="0.1591">
        <ele>567.79998779297</ele>
        <time>2025-08-10T16:48:06.000Z</time>
      </trkpt>
      <trkpt lat="43.07294" lon="0.15911">
        <ele>567</ele>
        <time>2025-08-10T16:48:07.000Z</time>
      </trkpt>
      <trkpt lat="43.07286" lon="0.1591">
        <ele>566.40002441406</ele>
        <time>2025-08-10T16:48:08.000Z</time>
      </trkpt>
      <trkpt lat="43.07278" lon="0.15908">
        <ele>565.40002441406</ele>
        <time>2025-08-10T16:48:09.000Z</time>
      </trkpt>
      <trkpt lat="43.0727" lon="0.15905">
        <ele>564.79998779297</ele>
        <time>2025-08-10T16:48:10.000Z</time>
      </trkpt>
      <trkpt lat="43.0726" lon="0.15899">
        <ele>563.79998779297</ele>
        <time>2025-08-10T16:48:11.000Z</time>
      </trkpt>
      <trkpt lat="43.07255" lon="0.15894">
        <ele>562.79998779297</ele>
        <time>2025-08-10T16:48:12.000Z</time>
      </trkpt>
      <trkpt lat="43.07248" lon="0.15887">
        <ele>562.20001220703</ele>
        <time>2025-08-10T16:48:13.000Z</time>
      </trkpt>
      <trkpt lat="43.07241" lon="0.1588">
        <ele>561.20001220703</ele>
        <time>2025-08-10T16:48:14.000Z</time>
      </trkpt>
      <trkpt lat="43.07226" lon="0.15866">
        <ele>559.59997558594</ele>
        <time>2025-08-10T16:48:16.000Z</time>
      </trkpt>
      <trkpt lat="43.07211" lon="0.15851">
        <ele>558.20001220703</ele>
        <time>2025-08-10T16:48:18.000Z</time>
      </trkpt>
      <trkpt lat="43.07197" lon="0.15837">
        <ele>557</ele>
        <time>2025-08-10T16:48:20.000Z</time>
      </trkpt>
      <trkpt lat="43.0719" lon="0.15831">
        <ele>556.40002441406</ele>
        <time>2025-08-10T16:48:21.000Z</time>
      </trkpt>
      <trkpt lat="43.07183" lon="0.15824">
        <ele>556</ele>
        <time>2025-08-10T16:48:22.000Z</time>
      </trkpt>
      <trkpt lat="43.07164" lon="0.15806">
        <ele>554.59997558594</ele>
        <time>2025-08-10T16:48:25.000Z</time>
      </trkpt>
      <trkpt lat="43.07152" lon="0.15793">
        <ele>553.59997558594</ele>
        <time>2025-08-10T16:48:27.000Z</time>
      </trkpt>
      <trkpt lat="43.07134" lon="0.15775">
        <ele>552.40002441406</ele>
        <time>2025-08-10T16:48:30.000Z</time>
      </trkpt>
      <trkpt lat="43.07103" lon="0.15745">
        <ele>551.20001220703</ele>
        <time>2025-08-10T16:48:35.000Z</time>
      </trkpt>
      <trkpt lat="43.07073" lon="0.15717">
        <ele>550.20001220703</ele>
        <time>2025-08-10T16:48:40.000Z</time>
      </trkpt>
      <trkpt lat="43.07055" lon="0.15701">
        <ele>549.79998779297</ele>
        <time>2025-08-10T16:48:43.000Z</time>
      </trkpt>
      <trkpt lat="43.07029" lon="0.15677">
        <ele>549.20001220703</ele>
        <time>2025-08-10T16:48:48.000Z</time>
      </trkpt>
      <trkpt lat="43.07026" lon="0.15674">
        <ele>549.20001220703</ele>
        <time>2025-08-10T16:48:49.000Z</time>
      </trkpt>
      <trkpt lat="43.0702" lon="0.15666">
        <ele>548.79998779297</ele>
        <time>2025-08-10T16:48:52.000Z</time>
      </trkpt>
      <trkpt lat="43.07019" lon="0.15662">
        <ele>548.59997558594</ele>
        <time>2025-08-10T16:48:54.000Z</time>
      </trkpt>
      <trkpt lat="43.07022" lon="0.15655">
        <ele>548.20001220703</ele>
        <time>2025-08-10T16:48:56.000Z</time>
      </trkpt>
      <trkpt lat="43.07026" lon="0.15651">
        <ele>548.20001220703</ele>
        <time>2025-08-10T16:48:57.000Z</time>
      </trkpt>
      <trkpt lat="43.0703" lon="0.1565">
        <ele>548</ele>
        <time>2025-08-10T16:48:58.000Z</time>
      </trkpt>
      <trkpt lat="43.07035" lon="0.15649">
        <ele>547.79998779297</ele>
        <time>2025-08-10T16:48:59.000Z</time>
      </trkpt>
      <trkpt lat="43.07061" lon="0.15643">
        <ele>547.20001220703</ele>
        <time>2025-08-10T16:49:04.000Z</time>
      </trkpt>
      <trkpt lat="43.07071" lon="0.1564">
        <ele>547</ele>
        <time>2025-08-10T16:49:06.000Z</time>
      </trkpt>
      <trkpt lat="43.07076" lon="0.15638">
        <ele>546.79998779297</ele>
        <time>2025-08-10T16:49:07.000Z</time>
      </trkpt>
      <trkpt lat="43.07096" lon="0.15631">
        <ele>546.20001220703</ele>
        <time>2025-08-10T16:49:11.000Z</time>
      </trkpt>
      <trkpt lat="43.07102" lon="0.15629">
        <ele>546.20001220703</ele>
        <time>2025-08-10T16:49:12.000Z</time>
      </trkpt>
      <trkpt lat="43.07105" lon="0.15627">
        <ele>546</ele>
        <time>2025-08-10T16:49:13.000Z</time>
      </trkpt>
      <trkpt lat="43.07109" lon="0.15625">
        <ele>546</ele>
        <time>2025-08-10T16:49:14.000Z</time>
      </trkpt>
      <trkpt lat="43.07115" lon="0.15626">
        <ele>545.79998779297</ele>
        <time>2025-08-10T16:49:16.000Z</time>
      </trkpt>
      <trkpt lat="43.07117" lon="0.15627">
        <ele>545.79998779297</ele>
        <time>2025-08-10T16:49:17.000Z</time>
      </trkpt>
      <trkpt lat="43.07123" lon="0.1563">
        <ele>545.40002441406</ele>
        <time>2025-08-10T16:49:21.000Z</time>
      </trkpt>
      <trkpt lat="43.07129" lon="0.15641">
        <ele>545.20001220703</ele>
        <time>2025-08-10T16:49:28.000Z</time>
      </trkpt>
      <trkpt lat="43.07135" lon="0.15653">
        <ele>545.59997558594</ele>
        <time>2025-08-10T16:49:35.000Z</time>
      </trkpt>
      <trkpt lat="43.07142" lon="0.15668">
        <ele>545.79998779297</ele>
        <time>2025-08-10T16:49:42.000Z</time>
      </trkpt>
      <trkpt lat="43.07151" lon="0.15679">
        <ele>546.40002441406</ele>
        <time>2025-08-10T16:49:49.000Z</time>
      </trkpt>
      <trkpt lat="43.07151" lon="0.15683">
        <ele>546.59997558594</ele>
        <time>2025-08-10T16:49:51.000Z</time>
      </trkpt>
      <trkpt lat="43.0715" lon="0.15684">
        <ele>546.59997558594</ele>
        <time>2025-08-10T16:49:53.000Z</time>
      </trkpt>
      <trkpt lat="43.0715" lon="0.15684">
        <ele>546.79998779297</ele>
        <time>2025-08-10T16:49:56.000Z</time>
      </trkpt>
      <trkpt lat="43.06961" lon="0.15604">
        <ele>545.20001220703</ele>
        <time>2025-08-11T05:14:30.000Z</time>
      </trkpt>
      <trkpt lat="43.06961" lon="0.15604">
        <ele>545.59997558594</ele>
        <time>2025-08-11T05:14:31.000Z</time>
      </trkpt>
      <trkpt lat="43.06958" lon="0.15602">
        <ele>546</ele>
        <time>2025-08-11T05:14:52.000Z</time>
      </trkpt>
      <trkpt lat="43.06954" lon="0.15598">
        <ele>545.79998779297</ele>
        <time>2025-08-11T05:14:54.000Z</time>
      </trkpt>
      <trkpt lat="43.0694" lon="0.15584">
        <ele>545.79998779297</ele>
        <time>2025-08-11T05:15:00.000Z</time>
      </trkpt>
      <trkpt lat="43.0693" lon="0.15576">
        <ele>546</ele>
        <time>2025-08-11T05:15:04.000Z</time>
      </trkpt>
      <trkpt lat="43.06919" lon="0.15563">
        <ele>546.40002441406</ele>
        <time>2025-08-11T05:15:09.000Z</time>
      </trkpt>
      <trkpt lat="43.06902" lon="0.15545">
        <ele>546.59997558594</ele>
        <time>2025-08-11T05:15:16.000Z</time>
      </trkpt>
      <trkpt lat="43.06892" lon="0.15536">
        <ele>546.79998779297</ele>
        <time>2025-08-11T05:15:20.000Z</time>
      </trkpt>
      <trkpt lat="43.06877" lon="0.15525">
        <ele>546.79998779297</ele>
        <time>2025-08-11T05:15:25.000Z</time>
      </trkpt>
      <trkpt lat="43.06861" lon="0.15509">
        <ele>547.79998779297</ele>
        <time>2025-08-11T05:15:32.000Z</time>
      </trkpt>
      <trkpt lat="43.06858" lon="0.15507">
        <ele>547.79998779297</ele>
        <time>2025-08-11T05:15:33.000Z</time>
      </trkpt>
      <trkpt lat="43.06837" lon="0.15489">
        <ele>548</ele>
        <time>2025-08-11T05:15:41.000Z</time>
      </trkpt>
      <trkpt lat="43.06819" lon="0.15471">
        <ele>548.20001220703</ele>
        <time>2025-08-11T05:15:48.000Z</time>
      </trkpt>
      <trkpt lat="43.06801" lon="0.15453">
        <ele>548.59997558594</ele>
        <time>2025-08-11T05:15:55.000Z</time>
      </trkpt>
      <trkpt lat="43.06772" lon="0.15424">
        <ele>548.40002441406</ele>
        <time>2025-08-11T05:16:06.000Z</time>
      </trkpt>
      <trkpt lat="43.06759" lon="0.1541">
        <ele>548.79998779297</ele>
        <time>2025-08-11T05:16:11.000Z</time>
      </trkpt>
      <trkpt lat="43.06753" lon="0.15405">
        <ele>548.59997558594</ele>
        <time>2025-08-11T05:16:13.000Z</time>
      </trkpt>
      <trkpt lat="43.06734" lon="0.15387">
        <ele>549.20001220703</ele>
        <time>2025-08-11T05:16:20.000Z</time>
      </trkpt>
      <trkpt lat="43.06714" lon="0.15369">
        <ele>549.59997558594</ele>
        <time>2025-08-11T05:16:27.000Z</time>
      </trkpt>
      <trkpt lat="43.06708" lon="0.15363">
        <ele>549.79998779297</ele>
        <time>2025-08-11T05:16:29.000Z</time>
      </trkpt>
      <trkpt lat="43.06682" lon="0.15339">
        <ele>550</ele>
        <time>2025-08-11T05:16:38.000Z</time>
      </trkpt>
      <trkpt lat="43.06654" lon="0.15315">
        <ele>550.20001220703</ele>
        <time>2025-08-11T05:16:48.000Z</time>
      </trkpt>
      <trkpt lat="43.06636" lon="0.15299">
        <ele>550.59997558594</ele>
        <time>2025-08-11T05:16:56.000Z</time>
      </trkpt>
      <trkpt lat="43.06634" lon="0.15297">
        <ele>550.79998779297</ele>
        <time>2025-08-11T05:16:57.000Z</time>
      </trkpt>
      <trkpt lat="43.06621" lon="0.15279">
        <ele>550.79998779297</ele>
        <time>2025-08-11T05:17:03.000Z</time>
      </trkpt>
      <trkpt lat="43.06614" lon="0.15267">
        <ele>551</ele>
        <time>2025-08-11T05:17:07.000Z</time>
      </trkpt>
      <trkpt lat="43.0661" lon="0.1526">
        <ele>551</ele>
        <time>2025-08-11T05:17:09.000Z</time>
      </trkpt>
      <trkpt lat="43.06594" lon="0.15235">
        <ele>550.79998779297</ele>
        <time>2025-08-11T05:17:17.000Z</time>
      </trkpt>
      <trkpt lat="43.06582" lon="0.15214">
        <ele>550.40002441406</ele>
        <time>2025-08-11T05:17:23.000Z</time>
      </trkpt>
      <trkpt lat="43.06575" lon="0.15199">
        <ele>550.40002441406</ele>
        <time>2025-08-11T05:17:27.000Z</time>
      </trkpt>
      <trkpt lat="43.06562" lon="0.15162">
        <ele>551</ele>
        <time>2025-08-11T05:17:35.000Z</time>
      </trkpt>
      <trkpt lat="43.06551" lon="0.15126">
        <ele>551.20001220703</ele>
        <time>2025-08-11T05:17:43.000Z</time>
      </trkpt>
      <trkpt lat="43.06547" lon="0.15102">
        <ele>551.40002441406</ele>
        <time>2025-08-11T05:17:49.000Z</time>
      </trkpt>
      <trkpt lat="43.06544" lon="0.15088">
        <ele>551.59997558594</ele>
        <time>2025-08-11T05:17:54.000Z</time>
      </trkpt>
      <trkpt lat="43.06543" lon="0.15087">
        <ele>551.79998779297</ele>
        <time>2025-08-11T05:17:55.000Z</time>
      </trkpt>
      <trkpt lat="43.0654" lon="0.15078">
        <ele>552.20001220703</ele>
        <time>2025-08-11T05:17:59.000Z</time>
      </trkpt>
      <trkpt lat="43.06535" lon="0.1506">
        <ele>552.59997558594</ele>
        <time>2025-08-11T05:18:05.000Z</time>
      </trkpt>
      <trkpt lat="43.06529" lon="0.15041">
        <ele>552.59997558594</ele>
        <time>2025-08-11T05:18:11.000Z</time>
      </trkpt>
      <trkpt lat="43.06524" lon="0.15025">
        <ele>552.59997558594</ele>
        <time>2025-08-11T05:18:16.000Z</time>
      </trkpt>
      <trkpt lat="43.06522" lon="0.15018">
        <ele>552.79998779297</ele>
        <time>2025-08-11T05:18:18.000Z</time>
      </trkpt>
      <trkpt lat="43.06516" lon="0.15006">
        <ele>553</ele>
        <time>2025-08-11T05:18:22.000Z</time>
      </trkpt>
      <trkpt lat="43.06515" lon="0.15001">
        <ele>553.20001220703</ele>
        <time>2025-08-11T05:18:24.000Z</time>
      </trkpt>
      <trkpt lat="43.06512" lon="0.15">
        <ele>553.40002441406</ele>
        <time>2025-08-11T05:18:26.000Z</time>
      </trkpt>
      <trkpt lat="43.06511" lon="0.14998">
        <ele>553.40002441406</ele>
        <time>2025-08-11T05:18:27.000Z</time>
      </trkpt>
      <trkpt lat="43.06508" lon="0.14996">
        <ele>553.59997558594</ele>
        <time>2025-08-11T05:18:29.000Z</time>
      </trkpt>
      <trkpt lat="43.06506" lon="0.14997">
        <ele>553.59997558594</ele>
        <time>2025-08-11T05:18:30.000Z</time>
      </trkpt>
      <trkpt lat="43.06504" lon="0.14997">
        <ele>553.79998779297</ele>
        <time>2025-08-11T05:18:31.000Z</time>
      </trkpt>
      <trkpt lat="43.065" lon="0.14998">
        <ele>554</ele>
        <time>2025-08-11T05:18:35.000Z</time>
      </trkpt>
      <trkpt lat="43.06499" lon="0.14998">
        <ele>554</ele>
        <time>2025-08-11T05:18:36.000Z</time>
      </trkpt>
      <trkpt lat="43.06491" lon="0.15002">
        <ele>554.40002441406</ele>
        <time>2025-08-11T05:18:43.000Z</time>
      </trkpt>
      <trkpt lat="43.06491" lon="0.15003">
        <ele>554.40002441406</ele>
        <time>2025-08-11T05:18:45.000Z</time>
      </trkpt>
      <trkpt lat="43.06469" lon="0.14969">
        <ele>554.59997558594</ele>
        <time>2025-08-11T05:37:07.000Z</time>
      </trkpt>
      <trkpt lat="43.06471" lon="0.1497">
        <ele>554.59997558594</ele>
        <time>2025-08-11T05:37:08.000Z</time>
      </trkpt>
      <trkpt lat="43.06474" lon="0.14974">
        <ele>554.59997558594</ele>
        <time>2025-08-11T05:37:11.000Z</time>
      </trkpt>
      <trkpt lat="43.06477" lon="0.14978">
        <ele>554.59997558594</ele>
        <time>2025-08-11T05:37:13.000Z</time>
      </trkpt>
      <trkpt lat="43.06479" lon="0.14984">
        <ele>554.59997558594</ele>
        <time>2025-08-11T05:37:17.000Z</time>
      </trkpt>
      <trkpt lat="43.06479" lon="0.14984">
        <ele>554.59997558594</ele>
        <time>2025-08-11T05:37:18.000Z</time>
      </trkpt>
      <trkpt lat="43.06484" lon="0.14988">
        <ele>554.40002441406</ele>
        <time>2025-08-11T05:37:26.000Z</time>
      </trkpt>
      <trkpt lat="43.06488" lon="0.14987">
        <ele>554.40002441406</ele>
        <time>2025-08-11T05:37:28.000Z</time>
      </trkpt>
      <trkpt lat="43.06501" lon="0.14982">
        <ele>554.40002441406</ele>
        <time>2025-08-11T05:37:33.000Z</time>
      </trkpt>
      <trkpt lat="43.06518" lon="0.14977">
        <ele>554.20001220703</ele>
        <time>2025-08-11T05:37:38.000Z</time>
      </trkpt>
      <trkpt lat="43.06543" lon="0.14966">
        <ele>553.79998779297</ele>
        <time>2025-08-11T05:37:44.000Z</time>
      </trkpt>
      <trkpt lat="43.06547" lon="0.14964">
        <ele>553.79998779297</ele>
        <time>2025-08-11T05:37:45.000Z</time>
      </trkpt>
      <trkpt lat="43.06556" lon="0.1496">
        <ele>553.59997558594</ele>
        <time>2025-08-11T05:37:47.000Z</time>
      </trkpt>
      <trkpt lat="43.06567" lon="0.14955">
        <ele>553.40002441406</ele>
        <time>2025-08-11T05:37:49.000Z</time>
      </trkpt>
      <trkpt lat="43.06602" lon="0.14934">
        <ele>552.40002441406</ele>
        <time>2025-08-11T05:37:56.000Z</time>
      </trkpt>
      <trkpt lat="43.06612" lon="0.14927">
        <ele>552.20001220703</ele>
        <time>2025-08-11T05:37:58.000Z</time>
      </trkpt>
      <trkpt lat="43.06622" lon="0.1492">
        <ele>551.79998779297</ele>
        <time>2025-08-11T05:38:00.000Z</time>
      </trkpt>
      <trkpt lat="43.06639" lon="0.1491">
        <ele>551.40002441406</ele>
        <time>2025-08-11T05:38:03.000Z</time>
      </trkpt>
      <trkpt lat="43.06663" lon="0.14896">
        <ele>550.79998779297</ele>
        <time>2025-08-11T05:38:07.000Z</time>
      </trkpt>
      <trkpt lat="43.06681" lon="0.14886">
        <ele>550.20001220703</ele>
        <time>2025-08-11T05:38:10.000Z</time>
      </trkpt>
      <trkpt lat="43.067" lon="0.14877">
        <ele>549.79998779297</ele>
        <time>2025-08-11T05:38:13.000Z</time>
      </trkpt>
      <trkpt lat="43.06712" lon="0.1488">
        <ele>549.40002441406</ele>
        <time>2025-08-11T05:38:15.000Z</time>
      </trkpt>
      <trkpt lat="43.06717" lon="0.14885">
        <ele>549.40002441406</ele>
        <time>2025-08-11T05:38:16.000Z</time>
      </trkpt>
      <trkpt lat="43.0672" lon="0.14891">
        <ele>549.20001220703</ele>
        <time>2025-08-11T05:38:17.000Z</time>
      </trkpt>
      <trkpt lat="43.06724" lon="0.14898">
        <ele>549.20001220703</ele>
        <time>2025-08-11T05:38:18.000Z</time>
      </trkpt>
      <trkpt lat="43.0673" lon="0.14913">
        <ele>549</ele>
        <time>2025-08-11T05:38:20.000Z</time>
      </trkpt>
      <trkpt lat="43.06739" lon="0.14922">
        <ele>548.79998779297</ele>
        <time>2025-08-11T05:38:22.000Z</time>
      </trkpt>
      <trkpt lat="43.06745" lon="0.14921">
        <ele>548.79998779297</ele>
        <time>2025-08-11T05:38:23.000Z</time>
      </trkpt>
      <trkpt lat="43.06788" lon="0.14902">
        <ele>548.20001220703</ele>
        <time>2025-08-11T05:38:31.000Z</time>
      </trkpt>
      <trkpt lat="43.06794" lon="0.149">
        <ele>548</ele>
        <time>2025-08-11T05:38:32.000Z</time>
      </trkpt>
      <trkpt lat="43.0684" lon="0.14878">
        <ele>547.20001220703</ele>
        <time>2025-08-11T05:38:40.000Z</time>
      </trkpt>
      <trkpt lat="43.06846" lon="0.14876">
        <ele>547.20001220703</ele>
        <time>2025-08-11T05:38:41.000Z</time>
      </trkpt>
      <trkpt lat="43.06868" lon="0.14869">
        <ele>546.59997558594</ele>
        <time>2025-08-11T05:38:46.000Z</time>
      </trkpt>
      <trkpt lat="43.06876" lon="0.14868">
        <ele>546.20001220703</ele>
        <time>2025-08-11T05:38:48.000Z</time>
      </trkpt>
      <trkpt lat="43.06879" lon="0.14865">
        <ele>546</ele>
        <time>2025-08-11T05:38:49.000Z</time>
      </trkpt>
      <trkpt lat="43.06881" lon="0.1486">
        <ele>545.79998779297</ele>
        <time>2025-08-11T05:38:50.000Z</time>
      </trkpt>
      <trkpt lat="43.06879" lon="0.14845">
        <ele>545.40002441406</ele>
        <time>2025-08-11T05:38:53.000Z</time>
      </trkpt>
      <trkpt lat="43.06868" lon="0.14821">
        <ele>545.40002441406</ele>
        <time>2025-08-11T05:38:58.000Z</time>
      </trkpt>
      <trkpt lat="43.06856" lon="0.1479">
        <ele>545.40002441406</ele>
        <time>2025-08-11T05:39:04.000Z</time>
      </trkpt>
      <trkpt lat="43.06854" lon="0.14785">
        <ele>545.40002441406</ele>
        <time>2025-08-11T05:39:05.000Z</time>
      </trkpt>
      <trkpt lat="43.06844" lon="0.14759">
        <ele>545.59997558594</ele>
        <time>2025-08-11T05:39:10.000Z</time>
      </trkpt>
      <trkpt lat="43.06833" lon="0.14724">
        <ele>546</ele>
        <time>2025-08-11T05:39:17.000Z</time>
      </trkpt>
      <trkpt lat="43.06832" lon="0.14719">
        <ele>546</ele>
        <time>2025-08-11T05:39:18.000Z</time>
      </trkpt>
      <trkpt lat="43.06825" lon="0.14694">
        <ele>546.40002441406</ele>
        <time>2025-08-11T05:39:24.000Z</time>
      </trkpt>
      <trkpt lat="43.06826" lon="0.14691">
        <ele>546.40002441406</ele>
        <time>2025-08-11T05:39:25.000Z</time>
      </trkpt>
      <trkpt lat="43.06831" lon="0.14686">
        <ele>546.40002441406</ele>
        <time>2025-08-11T05:39:27.000Z</time>
      </trkpt>
      <trkpt lat="43.06854" lon="0.14672">
        <ele>546.20001220703</ele>
        <time>2025-08-11T05:39:33.000Z</time>
      </trkpt>
      <trkpt lat="43.06897" lon="0.14647">
        <ele>545.59997558594</ele>
        <time>2025-08-11T05:39:43.000Z</time>
      </trkpt>
      <trkpt lat="43.06936" lon="0.14623">
        <ele>545</ele>
        <time>2025-08-11T05:39:51.000Z</time>
      </trkpt>
      <trkpt lat="43.06946" lon="0.14617">
        <ele>545</ele>
        <time>2025-08-11T05:39:53.000Z</time>
      </trkpt>
      <trkpt lat="43.06982" lon="0.14595">
        <ele>544.20001220703</ele>
        <time>2025-08-11T05:40:00.000Z</time>
      </trkpt>
      <trkpt lat="43.06998" lon="0.14587">
        <ele>544</ele>
        <time>2025-08-11T05:40:03.000Z</time>
      </trkpt>
      <trkpt lat="43.07019" lon="0.14574">
        <ele>543.20001220703</ele>
        <time>2025-08-11T05:40:07.000Z</time>
      </trkpt>
      <trkpt lat="43.07051" lon="0.14556">
        <ele>542.79998779297</ele>
        <time>2025-08-11T05:40:13.000Z</time>
      </trkpt>
      <trkpt lat="43.07062" lon="0.14551">
        <ele>542.79998779297</ele>
        <time>2025-08-11T05:40:15.000Z</time>
      </trkpt>
      <trkpt lat="43.07111" lon="0.14522">
        <ele>542</ele>
        <time>2025-08-11T05:40:24.000Z</time>
      </trkpt>
      <trkpt lat="43.07116" lon="0.14519">
        <ele>542</ele>
        <time>2025-08-11T05:40:25.000Z</time>
      </trkpt>
      <trkpt lat="43.07156" lon="0.14496">
        <ele>541</ele>
        <time>2025-08-11T05:40:32.000Z</time>
      </trkpt>
      <trkpt lat="43.07167" lon="0.14488">
        <ele>540.40002441406</ele>
        <time>2025-08-11T05:40:34.000Z</time>
      </trkpt>
      <trkpt lat="43.0718" lon="0.14481">
        <ele>540</ele>
        <time>2025-08-11T05:40:37.000Z</time>
      </trkpt>
      <trkpt lat="43.07189" lon="0.14475">
        <ele>539.59997558594</ele>
        <time>2025-08-11T05:40:39.000Z</time>
      </trkpt>
      <trkpt lat="43.07207" lon="0.14463">
        <ele>539</ele>
        <time>2025-08-11T05:40:43.000Z</time>
      </trkpt>
      <trkpt lat="43.07243" lon="0.14442">
        <ele>537.79998779297</ele>
        <time>2025-08-11T05:40:50.000Z</time>
      </trkpt>
      <trkpt lat="43.07266" lon="0.14427">
        <ele>537.40002441406</ele>
        <time>2025-08-11T05:40:55.000Z</time>
      </trkpt>
      <trkpt lat="43.07276" lon="0.14421">
        <ele>537.20001220703</ele>
        <time>2025-08-11T05:40:57.000Z</time>
      </trkpt>
      <trkpt lat="43.07297" lon="0.14408">
        <ele>536.79998779297</ele>
        <time>2025-08-11T05:41:02.000Z</time>
      </trkpt>
      <trkpt lat="43.07304" lon="0.14405">
        <ele>536.59997558594</ele>
        <time>2025-08-11T05:41:04.000Z</time>
      </trkpt>
      <trkpt lat="43.07317" lon="0.14408">
        <ele>536.59997558594</ele>
        <time>2025-08-11T05:41:07.000Z</time>
      </trkpt>
      <trkpt lat="43.07321" lon="0.14407">
        <ele>536.59997558594</ele>
        <time>2025-08-11T05:41:08.000Z</time>
      </trkpt>
      <trkpt lat="43.07324" lon="0.14404">
        <ele>536.40002441406</ele>
        <time>2025-08-11T05:41:09.000Z</time>
      </trkpt>
      <trkpt lat="43.0733" lon="0.14396">
        <ele>536.20001220703</ele>
        <time>2025-08-11T05:41:11.000Z</time>
      </trkpt>
      <trkpt lat="43.07337" lon="0.14388">
        <ele>536.20001220703</ele>
        <time>2025-08-11T05:41:13.000Z</time>
      </trkpt>
      <trkpt lat="43.07348" lon="0.14381">
        <ele>536</ele>
        <time>2025-08-11T05:41:16.000Z</time>
      </trkpt>
      <trkpt lat="43.07354" lon="0.14379">
        <ele>535.79998779297</ele>
        <time>2025-08-11T05:41:18.000Z</time>
      </trkpt>
      <trkpt lat="43.07355" lon="0.14379">
        <ele>535.59997558594</ele>
        <time>2025-08-11T05:41:19.000Z</time>
      </trkpt>
      <trkpt lat="43.07355" lon="0.14379">
        <ele>535.59997558594</ele>
        <time>2025-08-11T05:41:21.000Z</time>
      </trkpt>
      <trkpt lat="43.0736" lon="0.14374">
        <ele>535</ele>
        <time>2025-08-11T05:42:24.000Z</time>
      </trkpt>
      <trkpt lat="43.07362" lon="0.14373">
        <ele>534.79998779297</ele>
        <time>2025-08-11T05:42:25.000Z</time>
      </trkpt>
      <trkpt lat="43.07369" lon="0.14368">
        <ele>534.79998779297</ele>
        <time>2025-08-11T05:42:28.000Z</time>
      </trkpt>
      <trkpt lat="43.07378" lon="0.14363">
        <ele>534.59997558594</ele>
        <time>2025-08-11T05:42:31.000Z</time>
      </trkpt>
      <trkpt lat="43.07401" lon="0.14349">
        <ele>534.59997558594</ele>
        <time>2025-08-11T05:42:37.000Z</time>
      </trkpt>
      <trkpt lat="43.07406" lon="0.14347">
        <ele>534.40002441406</ele>
        <time>2025-08-11T05:42:38.000Z</time>
      </trkpt>
      <trkpt lat="43.07429" lon="0.14334">
        <ele>534</ele>
        <time>2025-08-11T05:42:43.000Z</time>
      </trkpt>
      <trkpt lat="43.07439" lon="0.14328">
        <ele>533.79998779297</ele>
        <time>2025-08-11T05:42:45.000Z</time>
      </trkpt>
      <trkpt lat="43.07464" lon="0.14312">
        <ele>533.20001220703</ele>
        <time>2025-08-11T05:42:50.000Z</time>
      </trkpt>
      <trkpt lat="43.07481" lon="0.14302">
        <ele>532.79998779297</ele>
        <time>2025-08-11T05:42:53.000Z</time>
      </trkpt>
      <trkpt lat="43.0752" lon="0.14278">
        <ele>532</ele>
        <time>2025-08-11T05:43:00.000Z</time>
      </trkpt>
      <trkpt lat="43.07537" lon="0.14268">
        <ele>531.79998779297</ele>
        <time>2025-08-11T05:43:03.000Z</time>
      </trkpt>
      <trkpt lat="43.0756" lon="0.14254">
        <ele>531.40002441406</ele>
        <time>2025-08-11T05:43:07.000Z</time>
      </trkpt>
      <trkpt lat="43.07605" lon="0.14227">
        <ele>530.59997558594</ele>
        <time>2025-08-11T05:43:15.000Z</time>
      </trkpt>
      <trkpt lat="43.07616" lon="0.1422">
        <ele>530.40002441406</ele>
        <time>2025-08-11T05:43:17.000Z</time>
      </trkpt>
      <trkpt lat="43.07644" lon="0.14202">
        <ele>529.59997558594</ele>
        <time>2025-08-11T05:43:22.000Z</time>
      </trkpt>
      <trkpt lat="43.07649" lon="0.14199">
        <ele>529.40002441406</ele>
        <time>2025-08-11T05:43:23.000Z</time>
      </trkpt>
      <trkpt lat="43.07665" lon="0.1419">
        <ele>529</ele>
        <time>2025-08-11T05:43:26.000Z</time>
      </trkpt>
      <trkpt lat="43.07681" lon="0.14181">
        <ele>528.79998779297</ele>
        <time>2025-08-11T05:43:29.000Z</time>
      </trkpt>
      <trkpt lat="43.07686" lon="0.14178">
        <ele>528.40002441406</ele>
        <time>2025-08-11T05:43:30.000Z</time>
      </trkpt>
      <trkpt lat="43.07728" lon="0.14154">
        <ele>527.59997558594</ele>
        <time>2025-08-11T05:43:38.000Z</time>
      </trkpt>
      <trkpt lat="43.07739" lon="0.14148">
        <ele>527.40002441406</ele>
        <time>2025-08-11T05:43:40.000Z</time>
      </trkpt>
      <trkpt lat="43.07773" lon="0.14128">
        <ele>527</ele>
        <time>2025-08-11T05:43:46.000Z</time>
      </trkpt>
      <trkpt lat="43.07793" lon="0.14115">
        <ele>526.40002441406</ele>
        <time>2025-08-11T05:43:50.000Z</time>
      </trkpt>
      <trkpt lat="43.07813" lon="0.14102">
        <ele>526</ele>
        <time>2025-08-11T05:43:54.000Z</time>
      </trkpt>
      <trkpt lat="43.07826" lon="0.14099">
        <ele>525.59997558594</ele>
        <time>2025-08-11T05:43:57.000Z</time>
      </trkpt>
      <trkpt lat="43.0783" lon="0.141">
        <ele>525.59997558594</ele>
        <time>2025-08-11T05:43:58.000Z</time>
      </trkpt>
      <trkpt lat="43.07836" lon="0.14103">
        <ele>525.20001220703</ele>
        <time>2025-08-11T05:44:00.000Z</time>
      </trkpt>
      <trkpt lat="43.07843" lon="0.14102">
        <ele>525</ele>
        <time>2025-08-11T05:44:03.000Z</time>
      </trkpt>
      <trkpt lat="43.07844" lon="0.14102">
        <ele>524.79998779297</ele>
        <time>2025-08-11T05:44:05.000Z</time>
      </trkpt>
      <trkpt lat="43.07847" lon="0.14095">
        <ele>523.79998779297</ele>
        <time>2025-08-11T05:45:12.000Z</time>
      </trkpt>
      <trkpt lat="43.07855" lon="0.14079">
        <ele>523.79998779297</ele>
        <time>2025-08-11T05:45:16.000Z</time>
      </trkpt>
      <trkpt lat="43.07877" lon="0.14065">
        <ele>523.59997558594</ele>
        <time>2025-08-11T05:45:21.000Z</time>
      </trkpt>
      <trkpt lat="43.07911" lon="0.14045">
        <ele>523.20001220703</ele>
        <time>2025-08-11T05:45:28.000Z</time>
      </trkpt>
      <trkpt lat="43.07942" lon="0.14027">
        <ele>523</ele>
        <time>2025-08-11T05:45:34.000Z</time>
      </trkpt>
      <trkpt lat="43.07947" lon="0.14024">
        <ele>523</ele>
        <time>2025-08-11T05:45:35.000Z</time>
      </trkpt>
      <trkpt lat="43.07988" lon="0.13998">
        <ele>522.40002441406</ele>
        <time>2025-08-11T05:45:43.000Z</time>
      </trkpt>
      <trkpt lat="43.08029" lon="0.13971">
        <ele>522</ele>
        <time>2025-08-11T05:45:51.000Z</time>
      </trkpt>
      <trkpt lat="43.0804" lon="0.13964">
        <ele>521.79998779297</ele>
        <time>2025-08-11T05:45:53.000Z</time>
      </trkpt>
      <trkpt lat="43.08094" lon="0.13932">
        <ele>521</ele>
        <time>2025-08-11T05:46:03.000Z</time>
      </trkpt>
      <trkpt lat="43.0813" lon="0.13911">
        <ele>520.40002441406</ele>
        <time>2025-08-11T05:46:10.000Z</time>
      </trkpt>
      <trkpt lat="43.08156" lon="0.13895">
        <ele>520</ele>
        <time>2025-08-11T05:46:15.000Z</time>
      </trkpt>
      <trkpt lat="43.08172" lon="0.13885">
        <ele>519.79998779297</ele>
        <time>2025-08-11T05:46:18.000Z</time>
      </trkpt>
      <trkpt lat="43.08226" lon="0.13851">
        <ele>519.20001220703</ele>
        <time>2025-08-11T05:46:28.000Z</time>
      </trkpt>
      <trkpt lat="43.08232" lon="0.13848">
        <ele>519.20001220703</ele>
        <time>2025-08-11T05:46:29.000Z</time>
      </trkpt>
      <trkpt lat="43.08238" lon="0.13845">
        <ele>519</ele>
        <time>2025-08-11T05:46:30.000Z</time>
      </trkpt>
      <trkpt lat="43.0829" lon="0.13815">
        <ele>517.79998779297</ele>
        <time>2025-08-11T05:46:39.000Z</time>
      </trkpt>
      <trkpt lat="43.08296" lon="0.13812">
        <ele>517.79998779297</ele>
        <time>2025-08-11T05:46:40.000Z</time>
      </trkpt>
      <trkpt lat="43.08349" lon="0.1378">
        <ele>517</ele>
        <time>2025-08-11T05:46:49.000Z</time>
      </trkpt>
      <trkpt lat="43.08354" lon="0.13777">
        <ele>517</ele>
        <time>2025-08-11T05:46:50.000Z</time>
      </trkpt>
      <trkpt lat="43.0836" lon="0.13773">
        <ele>516.79998779297</ele>
        <time>2025-08-11T05:46:51.000Z</time>
      </trkpt>
      <trkpt lat="43.08407" lon="0.13745">
        <ele>515.79998779297</ele>
        <time>2025-08-11T05:46:59.000Z</time>
      </trkpt>
      <trkpt lat="43.08413" lon="0.13741">
        <ele>515.79998779297</ele>
        <time>2025-08-11T05:47:00.000Z</time>
      </trkpt>
      <trkpt lat="43.08466" lon="0.13708">
        <ele>515</ele>
        <time>2025-08-11T05:47:09.000Z</time>
      </trkpt>
      <trkpt lat="43.08472" lon="0.13704">
        <ele>515</ele>
        <time>2025-08-11T05:47:10.000Z</time>
      </trkpt>
      <trkpt lat="43.08484" lon="0.13697">
        <ele>514.79998779297</ele>
        <time>2025-08-11T05:47:12.000Z</time>
      </trkpt>
      <trkpt lat="43.08536" lon="0.13664">
        <ele>514</ele>
        <time>2025-08-11T05:47:21.000Z</time>
      </trkpt>
      <trkpt lat="43.08559" lon="0.1365">
        <ele>513.59997558594</ele>
        <time>2025-08-11T05:47:25.000Z</time>
      </trkpt>
      <trkpt lat="43.08586" lon="0.13632">
        <ele>513.40002441406</ele>
        <time>2025-08-11T05:47:30.000Z</time>
      </trkpt>
      <trkpt lat="43.08622" lon="0.13611">
        <ele>512.79998779297</ele>
        <time>2025-08-11T05:47:37.000Z</time>
      </trkpt>
      <trkpt lat="43.08634" lon="0.13604">
        <ele>512.59997558594</ele>
        <time>2025-08-11T05:47:39.000Z</time>
      </trkpt>
      <trkpt lat="43.08668" lon="0.13582">
        <ele>512</ele>
        <time>2025-08-11T05:47:45.000Z</time>
      </trkpt>
      <trkpt lat="43.08679" lon="0.13574">
        <ele>511.79998779297</ele>
        <time>2025-08-11T05:47:47.000Z</time>
      </trkpt>
      <trkpt lat="43.08691" lon="0.13568">
        <ele>511.60000610352</ele>
        <time>2025-08-11T05:47:49.000Z</time>
      </trkpt>
      <trkpt lat="43.08703" lon="0.13561">
        <ele>511.39999389648</ele>
        <time>2025-08-11T05:47:51.000Z</time>
      </trkpt>
      <trkpt lat="43.08748" lon="0.13535">
        <ele>510.79998779297</ele>
        <time>2025-08-11T05:47:59.000Z</time>
      </trkpt>
      <trkpt lat="43.0877" lon="0.1352">
        <ele>510.39999389648</ele>
        <time>2025-08-11T05:48:03.000Z</time>
      </trkpt>
      <trkpt lat="43.0878" lon="0.13514">
        <ele>510.39999389648</ele>
        <time>2025-08-11T05:48:05.000Z</time>
      </trkpt>
      <trkpt lat="43.08834" lon="0.13478">
        <ele>510</ele>
        <time>2025-08-11T05:48:15.000Z</time>
      </trkpt>
      <trkpt lat="43.08849" lon="0.13469">
        <ele>509.60000610352</ele>
        <time>2025-08-11T05:48:18.000Z</time>
      </trkpt>
      <trkpt lat="43.08876" lon="0.13452">
        <ele>509.39999389648</ele>
        <time>2025-08-11T05:48:23.000Z</time>
      </trkpt>
      <trkpt lat="43.08928" lon="0.13419">
        <ele>508.60000610352</ele>
        <time>2025-08-11T05:48:33.000Z</time>
      </trkpt>
      <trkpt lat="43.0898" lon="0.13385">
        <ele>508</ele>
        <time>2025-08-11T05:48:42.000Z</time>
      </trkpt>
      <trkpt lat="43.08985" lon="0.13382">
        <ele>508</ele>
        <time>2025-08-11T05:48:43.000Z</time>
      </trkpt>
      <trkpt lat="43.09032" lon="0.13351">
        <ele>507.60000610352</ele>
        <time>2025-08-11T05:48:51.000Z</time>
      </trkpt>
      <trkpt lat="43.09086" lon="0.13317">
        <ele>506.39999389648</ele>
        <time>2025-08-11T05:49:00.000Z</time>
      </trkpt>
      <trkpt lat="43.0909" lon="0.13314">
        <ele>506.39999389648</ele>
        <time>2025-08-11T05:49:01.000Z</time>
      </trkpt>
      <trkpt lat="43.09141" lon="0.13281">
        <ele>505.79998779297</ele>
        <time>2025-08-11T05:49:09.000Z</time>
      </trkpt>
      <trkpt lat="43.09153" lon="0.13274">
        <ele>505.60000610352</ele>
        <time>2025-08-11T05:49:11.000Z</time>
      </trkpt>
      <trkpt lat="43.09196" lon="0.13242">
        <ele>505</ele>
        <time>2025-08-11T05:49:18.000Z</time>
      </trkpt>
      <trkpt lat="43.09233" lon="0.13205">
        <ele>504.60000610352</ele>
        <time>2025-08-11T05:49:24.000Z</time>
      </trkpt>
      <trkpt lat="43.09249" lon="0.13188">
        <ele>504.39999389648</ele>
        <time>2025-08-11T05:49:27.000Z</time>
      </trkpt>
      <trkpt lat="43.09296" lon="0.13141">
        <ele>503.60000610352</ele>
        <time>2025-08-11T05:49:35.000Z</time>
      </trkpt>
      <trkpt lat="43.09302" lon="0.13135">
        <ele>503.60000610352</ele>
        <time>2025-08-11T05:49:36.000Z</time>
      </trkpt>
      <trkpt lat="43.09313" lon="0.13123">
        <ele>503.39999389648</ele>
        <time>2025-08-11T05:49:38.000Z</time>
      </trkpt>
      <trkpt lat="43.09354" lon="0.13082">
        <ele>502.60000610352</ele>
        <time>2025-08-11T05:49:45.000Z</time>
      </trkpt>
      <trkpt lat="43.09378" lon="0.13058">
        <ele>501.79998779297</ele>
        <time>2025-08-11T05:49:49.000Z</time>
      </trkpt>
      <trkpt lat="43.09395" lon="0.1304">
        <ele>501.39999389648</ele>
        <time>2025-08-11T05:49:52.000Z</time>
      </trkpt>
      <trkpt lat="43.09434" lon="0.13">
        <ele>500.79998779297</ele>
        <time>2025-08-11T05:49:59.000Z</time>
      </trkpt>
      <trkpt lat="43.09455" lon="0.12978">
        <ele>500.39999389648</ele>
        <time>2025-08-11T05:50:03.000Z</time>
      </trkpt>
      <trkpt lat="43.09482" lon="0.12951">
        <ele>499.39999389648</ele>
        <time>2025-08-11T05:50:08.000Z</time>
      </trkpt>
      <trkpt lat="43.09487" lon="0.12947">
        <ele>499.39999389648</ele>
        <time>2025-08-11T05:50:09.000Z</time>
      </trkpt>
      <trkpt lat="43.09525" lon="0.12908">
        <ele>499</ele>
        <time>2025-08-11T05:50:16.000Z</time>
      </trkpt>
      <trkpt lat="43.09535" lon="0.12899">
        <ele>498.60000610352</ele>
        <time>2025-08-11T05:50:18.000Z</time>
      </trkpt>
      <trkpt lat="43.09565" lon="0.12866">
        <ele>498.20001220703</ele>
        <time>2025-08-11T05:50:24.000Z</time>
      </trkpt>
      <trkpt lat="43.09612" lon="0.12819">
        <ele>497.60000610352</ele>
        <time>2025-08-11T05:50:33.000Z</time>
      </trkpt>
      <trkpt lat="43.09624" lon="0.12808">
        <ele>497.60000610352</ele>
        <time>2025-08-11T05:50:35.000Z</time>
      </trkpt>
      <trkpt lat="43.09628" lon="0.12804">
        <ele>497.39999389648</ele>
        <time>2025-08-11T05:50:36.000Z</time>
      </trkpt>
      <trkpt lat="43.09671" lon="0.1276">
        <ele>496.60000610352</ele>
        <time>2025-08-11T05:50:44.000Z</time>
      </trkpt>
      <trkpt lat="43.09683" lon="0.12747">
        <ele>496.20001220703</ele>
        <time>2025-08-11T05:50:46.000Z</time>
      </trkpt>
      <trkpt lat="43.09722" lon="0.12707">
        <ele>495.20001220703</ele>
        <time>2025-08-11T05:50:53.000Z</time>
      </trkpt>
      <trkpt lat="43.0974" lon="0.1269">
        <ele>494.79998779297</ele>
        <time>2025-08-11T05:50:56.000Z</time>
      </trkpt>
      <trkpt lat="43.09762" lon="0.12667">
        <ele>494.20001220703</ele>
        <time>2025-08-11T05:51:00.000Z</time>
      </trkpt>
      <trkpt lat="43.09769" lon="0.1266">
        <ele>494.20001220703</ele>
        <time>2025-08-11T05:51:01.000Z</time>
      </trkpt>
      <trkpt lat="43.09804" lon="0.12626">
        <ele>493.39999389648</ele>
        <time>2025-08-11T05:51:07.000Z</time>
      </trkpt>
      <trkpt lat="43.09811" lon="0.12618">
        <ele>493.39999389648</ele>
        <time>2025-08-11T05:51:08.000Z</time>
      </trkpt>
      <trkpt lat="43.09854" lon="0.12572">
        <ele>492.39999389648</ele>
        <time>2025-08-11T05:51:16.000Z</time>
      </trkpt>
      <trkpt lat="43.0986" lon="0.12567">
        <ele>492.39999389648</ele>
        <time>2025-08-11T05:51:17.000Z</time>
      </trkpt>
      <trkpt lat="43.09894" lon="0.12532">
        <ele>491.39999389648</ele>
        <time>2025-08-11T05:51:23.000Z</time>
      </trkpt>
      <trkpt lat="43.0991" lon="0.12516">
        <ele>491</ele>
        <time>2025-08-11T05:51:26.000Z</time>
      </trkpt>
      <trkpt lat="43.09954" lon="0.12472">
        <ele>490.20001220703</ele>
        <time>2025-08-11T05:51:34.000Z</time>
      </trkpt>
      <trkpt lat="43.09964" lon="0.12462">
        <ele>490</ele>
        <time>2025-08-11T05:51:36.000Z</time>
      </trkpt>
      <trkpt lat="43.10008" lon="0.12415">
        <ele>489.20001220703</ele>
        <time>2025-08-11T05:51:44.000Z</time>
      </trkpt>
      <trkpt lat="43.10013" lon="0.12411">
        <ele>489.20001220703</ele>
        <time>2025-08-11T05:51:45.000Z</time>
      </trkpt>
      <trkpt lat="43.1005" lon="0.12367">
        <ele>488.39999389648</ele>
        <time>2025-08-11T05:51:52.000Z</time>
      </trkpt>
      <trkpt lat="43.10055" lon="0.1236">
        <ele>488.20001220703</ele>
        <time>2025-08-11T05:51:53.000Z</time>
      </trkpt>
      <trkpt lat="43.10079" lon="0.12314">
        <ele>487.39999389648</ele>
        <time>2025-08-11T05:51:59.000Z</time>
      </trkpt>
      <trkpt lat="43.10089" lon="0.12291">
        <ele>487.20001220703</ele>
        <time>2025-08-11T05:52:02.000Z</time>
      </trkpt>
      <trkpt lat="43.101" lon="0.12263">
        <ele>486.39999389648</ele>
        <time>2025-08-11T05:52:05.000Z</time>
      </trkpt>
      <trkpt lat="43.10107" lon="0.12246">
        <ele>486</ele>
        <time>2025-08-11T05:52:07.000Z</time>
      </trkpt>
      <trkpt lat="43.10124" lon="0.12206">
        <ele>485</ele>
        <time>2025-08-11T05:52:12.000Z</time>
      </trkpt>
      <trkpt lat="43.10128" lon="0.12195">
        <ele>484.79998779297</ele>
        <time>2025-08-11T05:52:13.000Z</time>
      </trkpt>
      <trkpt lat="43.1015" lon="0.12144">
        <ele>484.20001220703</ele>
        <time>2025-08-11T05:52:19.000Z</time>
      </trkpt>
      <trkpt lat="43.10154" lon="0.12136">
        <ele>484</ele>
        <time>2025-08-11T05:52:20.000Z</time>
      </trkpt>
      <trkpt lat="43.10158" lon="0.12129">
        <ele>483.79998779297</ele>
        <time>2025-08-11T05:52:21.000Z</time>
      </trkpt>
      <trkpt lat="43.10169" lon="0.12108">
        <ele>483.39999389648</ele>
        <time>2025-08-11T05:52:25.000Z</time>
      </trkpt>
      <trkpt lat="43.10165" lon="0.12108">
        <ele>483.20001220703</ele>
        <time>2025-08-11T05:52:28.000Z</time>
      </trkpt>
      <trkpt lat="43.10164" lon="0.12111">
        <ele>483</ele>
        <time>2025-08-11T05:52:30.000Z</time>
      </trkpt>
      <trkpt lat="43.1016" lon="0.12109">
        <ele>483</ele>
        <time>2025-08-11T05:52:32.000Z</time>
      </trkpt>
      <trkpt lat="43.10157" lon="0.12091">
        <ele>482.79998779297</ele>
        <time>2025-08-11T05:52:36.000Z</time>
      </trkpt>
      <trkpt lat="43.10156" lon="0.12079">
        <ele>482.60000610352</ele>
        <time>2025-08-11T05:52:38.000Z</time>
      </trkpt>
      <trkpt lat="43.10156" lon="0.12062">
        <ele>482.60000610352</ele>
        <time>2025-08-11T05:52:41.000Z</time>
      </trkpt>
      <trkpt lat="43.10158" lon="0.12049">
        <ele>482.39999389648</ele>
        <time>2025-08-11T05:52:43.000Z</time>
      </trkpt>
      <trkpt lat="43.10158" lon="0.12029">
        <ele>482.39999389648</ele>
        <time>2025-08-11T05:52:46.000Z</time>
      </trkpt>
      <trkpt lat="43.10161" lon="0.12016">
        <ele>482.20001220703</ele>
        <time>2025-08-11T05:52:48.000Z</time>
      </trkpt>
      <trkpt lat="43.10168" lon="0.12006">
        <ele>482.20001220703</ele>
        <time>2025-08-11T05:52:50.000Z</time>
      </trkpt>
      <trkpt lat="43.10172" lon="0.12003">
        <ele>482</ele>
        <time>2025-08-11T05:52:51.000Z</time>
      </trkpt>
      <trkpt lat="43.10187" lon="0.11995">
        <ele>481.39999389648</ele>
        <time>2025-08-11T05:52:54.000Z</time>
      </trkpt>
      <trkpt lat="43.10206" lon="0.1198">
        <ele>481</ele>
        <time>2025-08-11T05:52:58.000Z</time>
      </trkpt>
      <trkpt lat="43.10217" lon="0.11969">
        <ele>480.79998779297</ele>
        <time>2025-08-11T05:53:01.000Z</time>
      </trkpt>
      <trkpt lat="43.10225" lon="0.11959">
        <ele>480.60000610352</ele>
        <time>2025-08-11T05:53:03.000Z</time>
      </trkpt>
      <trkpt lat="43.10254" lon="0.11931">
        <ele>480.39999389648</ele>
        <time>2025-08-11T05:53:10.000Z</time>
      </trkpt>
      <trkpt lat="43.10269" lon="0.11917">
        <ele>480.20001220703</ele>
        <time>2025-08-11T05:53:14.000Z</time>
      </trkpt>
      <trkpt lat="43.10277" lon="0.11907">
        <ele>480.20001220703</ele>
        <time>2025-08-11T05:53:16.000Z</time>
      </trkpt>
      <trkpt lat="43.10284" lon="0.119">
        <ele>480</ele>
        <time>2025-08-11T05:53:18.000Z</time>
      </trkpt>
      <trkpt lat="43.10287" lon="0.11898">
        <ele>480</ele>
        <time>2025-08-11T05:53:19.000Z</time>
      </trkpt>
      <trkpt lat="43.1029" lon="0.11897">
        <ele>480</ele>
        <time>2025-08-11T05:53:20.000Z</time>
      </trkpt>
      <trkpt lat="43.10303" lon="0.11888">
        <ele>479.60000610352</ele>
        <time>2025-08-11T05:53:24.000Z</time>
      </trkpt>
      <trkpt lat="43.10315" lon="0.11877">
        <ele>479.60000610352</ele>
        <time>2025-08-11T05:53:27.000Z</time>
      </trkpt>
      <trkpt lat="43.10325" lon="0.11869">
        <ele>479.39999389648</ele>
        <time>2025-08-11T05:53:29.000Z</time>
      </trkpt>
      <trkpt lat="43.10355" lon="0.11854">
        <ele>479</ele>
        <time>2025-08-11T05:53:35.000Z</time>
      </trkpt>
      <trkpt lat="43.10365" lon="0.11849">
        <ele>478.79998779297</ele>
        <time>2025-08-11T05:53:37.000Z</time>
      </trkpt>
      <trkpt lat="43.10394" lon="0.11834">
        <ele>478.39999389648</ele>
        <time>2025-08-11T05:53:43.000Z</time>
      </trkpt>
      <trkpt lat="43.10433" lon="0.11816">
        <ele>478</ele>
        <time>2025-08-11T05:53:51.000Z</time>
      </trkpt>
      <trkpt lat="43.10472" lon="0.11796">
        <ele>478</ele>
        <time>2025-08-11T05:53:59.000Z</time>
      </trkpt>
      <trkpt lat="43.10503" lon="0.11779">
        <ele>477.79998779297</ele>
        <time>2025-08-11T05:54:05.000Z</time>
      </trkpt>
      <trkpt lat="43.10513" lon="0.11774">
        <ele>477.60000610352</ele>
        <time>2025-08-11T05:54:07.000Z</time>
      </trkpt>
      <trkpt lat="43.10545" lon="0.11756">
        <ele>477</ele>
        <time>2025-08-11T05:54:13.000Z</time>
      </trkpt>
      <trkpt lat="43.10561" lon="0.11746">
        <ele>476.79998779297</ele>
        <time>2025-08-11T05:54:16.000Z</time>
      </trkpt>
      <trkpt lat="43.10582" lon="0.11732">
        <ele>476.60000610352</ele>
        <time>2025-08-11T05:54:20.000Z</time>
      </trkpt>
      <trkpt lat="43.10631" lon="0.11702">
        <ele>475.79998779297</ele>
        <time>2025-08-11T05:54:29.000Z</time>
      </trkpt>
      <trkpt lat="43.10642" lon="0.11694">
        <ele>475.79998779297</ele>
        <time>2025-08-11T05:54:31.000Z</time>
      </trkpt>
      <trkpt lat="43.10692" lon="0.11662">
        <ele>475.20001220703</ele>
        <time>2025-08-11T05:54:40.000Z</time>
      </trkpt>
      <trkpt lat="43.10697" lon="0.11659">
        <ele>475.39999389648</ele>
        <time>2025-08-11T05:54:41.000Z</time>
      </trkpt>
      <trkpt lat="43.10747" lon="0.11627">
        <ele>475.39999389648</ele>
        <time>2025-08-11T05:54:50.000Z</time>
      </trkpt>
      <trkpt lat="43.10753" lon="0.11623">
        <ele>475.39999389648</ele>
        <time>2025-08-11T05:54:51.000Z</time>
      </trkpt>
      <trkpt lat="43.10801" lon="0.11592">
        <ele>474.79998779297</ele>
        <time>2025-08-11T05:54:59.000Z</time>
      </trkpt>
      <trkpt lat="43.10813" lon="0.11585">
        <ele>474.60000610352</ele>
        <time>2025-08-11T05:55:01.000Z</time>
      </trkpt>
      <trkpt lat="43.10845" lon="0.11563">
        <ele>474.39999389648</ele>
        <time>2025-08-11T05:55:07.000Z</time>
      </trkpt>
      <trkpt lat="43.10877" lon="0.11543">
        <ele>474.20001220703</ele>
        <time>2025-08-11T05:55:13.000Z</time>
      </trkpt>
      <trkpt lat="43.10916" lon="0.11518">
        <ele>474</ele>
        <time>2025-08-11T05:55:20.000Z</time>
      </trkpt>
      <trkpt lat="43.10922" lon="0.11514">
        <ele>473.79998779297</ele>
        <time>2025-08-11T05:55:21.000Z</time>
      </trkpt>
      <trkpt lat="43.10963" lon="0.11488">
        <ele>473.20001220703</ele>
        <time>2025-08-11T05:55:28.000Z</time>
      </trkpt>
      <trkpt lat="43.10986" lon="0.11473">
        <ele>472.79998779297</ele>
        <time>2025-08-11T05:55:32.000Z</time>
      </trkpt>
      <trkpt lat="43.11" lon="0.11462">
        <ele>472.39999389648</ele>
        <time>2025-08-11T05:55:35.000Z</time>
      </trkpt>
      <trkpt lat="43.11009" lon="0.11457">
        <ele>472.20001220703</ele>
        <time>2025-08-11T05:55:37.000Z</time>
      </trkpt>
      <trkpt lat="43.11017" lon="0.11452">
        <ele>472.20001220703</ele>
        <time>2025-08-11T05:55:39.000Z</time>
      </trkpt>
      <trkpt lat="43.11032" lon="0.11444">
        <ele>472</ele>
        <time>2025-08-11T05:55:42.000Z</time>
      </trkpt>
      <trkpt lat="43.11048" lon="0.11434">
        <ele>471.60000610352</ele>
        <time>2025-08-11T05:55:45.000Z</time>
      </trkpt>
      <trkpt lat="43.11082" lon="0.11411">
        <ele>471</ele>
        <time>2025-08-11T05:55:51.000Z</time>
      </trkpt>
      <trkpt lat="43.11101" lon="0.11399">
        <ele>470.60000610352</ele>
        <time>2025-08-11T05:55:54.000Z</time>
      </trkpt>
      <trkpt lat="43.11118" lon="0.11387">
        <ele>470</ele>
        <time>2025-08-11T05:55:57.000Z</time>
      </trkpt>
      <trkpt lat="43.11131" lon="0.1138">
        <ele>469.39999389648</ele>
        <time>2025-08-11T05:55:59.000Z</time>
      </trkpt>
      <trkpt lat="43.11154" lon="0.11365">
        <ele>469.20001220703</ele>
        <time>2025-08-11T05:56:03.000Z</time>
      </trkpt>
      <trkpt lat="43.11188" lon="0.11343">
        <ele>468.60000610352</ele>
        <time>2025-08-11T05:56:09.000Z</time>
      </trkpt>
      <trkpt lat="43.112" lon="0.11335">
        <ele>468.39999389648</ele>
        <time>2025-08-11T05:56:11.000Z</time>
      </trkpt>
      <trkpt lat="43.11229" lon="0.11317">
        <ele>467.39999389648</ele>
        <time>2025-08-11T05:56:16.000Z</time>
      </trkpt>
      <trkpt lat="43.11252" lon="0.11303">
        <ele>467.20001220703</ele>
        <time>2025-08-11T05:56:20.000Z</time>
      </trkpt>
      <trkpt lat="43.11303" lon="0.11271">
        <ele>466.60000610352</ele>
        <time>2025-08-11T05:56:29.000Z</time>
      </trkpt>
      <trkpt lat="43.11355" lon="0.11237">
        <ele>465.60000610352</ele>
        <time>2025-08-11T05:56:38.000Z</time>
      </trkpt>
      <trkpt lat="43.1136" lon="0.11233">
        <ele>465.39999389648</ele>
        <time>2025-08-11T05:56:39.000Z</time>
      </trkpt>
      <trkpt lat="43.11366" lon="0.1123">
        <ele>465.39999389648</ele>
        <time>2025-08-11T05:56:40.000Z</time>
      </trkpt>
      <trkpt lat="43.11411" lon="0.11201">
        <ele>464.39999389648</ele>
        <time>2025-08-11T05:56:48.000Z</time>
      </trkpt>
      <trkpt lat="43.11422" lon="0.11194">
        <ele>464.39999389648</ele>
        <time>2025-08-11T05:56:50.000Z</time>
      </trkpt>
      <trkpt lat="43.11468" lon="0.11164">
        <ele>463.60000610352</ele>
        <time>2025-08-11T05:56:58.000Z</time>
      </trkpt>
      <trkpt lat="43.1148" lon="0.11157">
        <ele>463.20001220703</ele>
        <time>2025-08-11T05:57:00.000Z</time>
      </trkpt>
      <trkpt lat="43.11525" lon="0.11128">
        <ele>462.79998779297</ele>
        <time>2025-08-11T05:57:08.000Z</time>
      </trkpt>
      <trkpt lat="43.1154" lon="0.11118">
        <ele>462.79998779297</ele>
        <time>2025-08-11T05:57:11.000Z</time>
      </trkpt>
      <trkpt lat="43.11565" lon="0.11102">
        <ele>462.60000610352</ele>
        <time>2025-08-11T05:57:16.000Z</time>
      </trkpt>
      <trkpt lat="43.11569" lon="0.11099">
        <ele>462.39999389648</ele>
        <time>2025-08-11T05:57:17.000Z</time>
      </trkpt>
      <trkpt lat="43.11583" lon="0.11092">
        <ele>462.20001220703</ele>
        <time>2025-08-11T05:57:21.000Z</time>
      </trkpt>
      <trkpt lat="43.11589" lon="0.11091">
        <ele>462</ele>
        <time>2025-08-11T05:57:25.000Z</time>
      </trkpt>
      <trkpt lat="43.11589" lon="0.11091">
        <ele>462</ele>
        <time>2025-08-11T05:57:26.000Z</time>
      </trkpt>
      <trkpt lat="43.1159" lon="0.11091">
        <ele>461.79998779297</ele>
        <time>2025-08-11T05:57:30.000Z</time>
      </trkpt>
      <trkpt lat="43.116" lon="0.11079">
        <ele>461.39999389648</ele>
        <time>2025-08-11T06:06:10.000Z</time>
      </trkpt>
      <trkpt lat="43.11603" lon="0.11077">
        <ele>461.39999389648</ele>
        <time>2025-08-11T06:06:11.000Z</time>
      </trkpt>
      <trkpt lat="43.11618" lon="0.11067">
        <ele>461.20001220703</ele>
        <time>2025-08-11T06:06:16.000Z</time>
      </trkpt>
      <trkpt lat="43.11642" lon="0.1105">
        <ele>461</ele>
        <time>2025-08-11T06:06:23.000Z</time>
      </trkpt>
      <trkpt lat="43.11662" lon="0.11037">
        <ele>461.20001220703</ele>
        <time>2025-08-11T06:06:28.000Z</time>
      </trkpt>
      <trkpt lat="43.11671" lon="0.11031">
        <ele>461.20001220703</ele>
        <time>2025-08-11T06:06:30.000Z</time>
      </trkpt>
      <trkpt lat="43.11676" lon="0.1102">
        <ele>461.20001220703</ele>
        <time>2025-08-11T06:06:32.000Z</time>
      </trkpt>
      <trkpt lat="43.11676" lon="0.11014">
        <ele>461.20001220703</ele>
        <time>2025-08-11T06:06:33.000Z</time>
      </trkpt>
      <trkpt lat="43.11676" lon="0.11008">
        <ele>461.20001220703</ele>
        <time>2025-08-11T06:06:34.000Z</time>
      </trkpt>
      <trkpt lat="43.11674" lon="0.10985">
        <ele>461.20001220703</ele>
        <time>2025-08-11T06:06:38.000Z</time>
      </trkpt>
      <trkpt lat="43.11684" lon="0.10948">
        <ele>461.20001220703</ele>
        <time>2025-08-11T06:06:44.000Z</time>
      </trkpt>
      <trkpt lat="43.117" lon="0.10891">
        <ele>461.20001220703</ele>
        <time>2025-08-11T06:06:52.000Z</time>
      </trkpt>
      <trkpt lat="43.11722" lon="0.10817">
        <ele>460.79998779297</ele>
        <time>2025-08-11T06:07:02.000Z</time>
      </trkpt>
      <trkpt lat="43.11724" lon="0.1081">
        <ele>460.60000610352</ele>
        <time>2025-08-11T06:07:03.000Z</time>
      </trkpt>
      <trkpt lat="43.11735" lon="0.10774">
        <ele>460.39999389648</ele>
        <time>2025-08-11T06:07:08.000Z</time>
      </trkpt>
      <trkpt lat="43.11748" lon="0.10732">
        <ele>460.20001220703</ele>
        <time>2025-08-11T06:07:14.000Z</time>
      </trkpt>
      <trkpt lat="43.11764" lon="0.10679">
        <ele>459.79998779297</ele>
        <time>2025-08-11T06:07:22.000Z</time>
      </trkpt>
      <trkpt lat="43.11768" lon="0.10661">
        <ele>459.79998779297</ele>
        <time>2025-08-11T06:07:25.000Z</time>
      </trkpt>
      <trkpt lat="43.11769" lon="0.10644">
        <ele>459.79998779297</ele>
        <time>2025-08-11T06:07:28.000Z</time>
      </trkpt>
      <trkpt lat="43.11771" lon="0.10613">
        <ele>460.39999389648</ele>
        <time>2025-08-11T06:07:35.000Z</time>
      </trkpt>
      <trkpt lat="43.11771" lon="0.10589">
        <ele>461.60000610352</ele>
        <time>2025-08-11T06:07:42.000Z</time>
      </trkpt>
      <trkpt lat="43.1177" lon="0.10566">
        <ele>462.79998779297</ele>
        <time>2025-08-11T06:07:49.000Z</time>
      </trkpt>
      <trkpt lat="43.1177" lon="0.10559">
        <ele>462.79998779297</ele>
        <time>2025-08-11T06:07:51.000Z</time>
      </trkpt>
      <trkpt lat="43.1177" lon="0.10546">
        <ele>463.79998779297</ele>
        <time>2025-08-11T06:07:55.000Z</time>
      </trkpt>
      <trkpt lat="43.11771" lon="0.10533">
        <ele>464.39999389648</ele>
        <time>2025-08-11T06:07:59.000Z</time>
      </trkpt>
      <trkpt lat="43.1177" lon="0.10521">
        <ele>465</ele>
        <time>2025-08-11T06:08:03.000Z</time>
      </trkpt>
      <trkpt lat="43.11769" lon="0.10509">
        <ele>465.39999389648</ele>
        <time>2025-08-11T06:08:07.000Z</time>
      </trkpt>
      <trkpt lat="43.11769" lon="0.10503">
        <ele>465.79998779297</ele>
        <time>2025-08-11T06:08:09.000Z</time>
      </trkpt>
      <trkpt lat="43.11769" lon="0.10498">
        <ele>466</ele>
        <time>2025-08-11T06:08:11.000Z</time>
      </trkpt>
      <trkpt lat="43.11769" lon="0.1049">
        <ele>466.60000610352</ele>
        <time>2025-08-11T06:08:14.000Z</time>
      </trkpt>
      <trkpt lat="43.11769" lon="0.10478">
        <ele>467.20001220703</ele>
        <time>2025-08-11T06:08:18.000Z</time>
      </trkpt>
      <trkpt lat="43.11768" lon="0.10467">
        <ele>467.60000610352</ele>
        <time>2025-08-11T06:08:22.000Z</time>
      </trkpt>
      <trkpt lat="43.11766" lon="0.1045">
        <ele>468.20001220703</ele>
        <time>2025-08-11T06:08:28.000Z</time>
      </trkpt>
      <trkpt lat="43.11765" lon="0.10442">
        <ele>468.39999389648</ele>
        <time>2025-08-11T06:08:31.000Z</time>
      </trkpt>
      <trkpt lat="43.11763" lon="0.10426">
        <ele>468.79998779297</ele>
        <time>2025-08-11T06:08:37.000Z</time>
      </trkpt>
      <trkpt lat="43.1176" lon="0.10392">
        <ele>469.20001220703</ele>
        <time>2025-08-11T06:08:47.000Z</time>
      </trkpt>
      <trkpt lat="43.11755" lon="0.10358">
        <ele>469</ele>
        <time>2025-08-11T06:08:55.000Z</time>
      </trkpt>
      <trkpt lat="43.11749" lon="0.10315">
        <ele>469</ele>
        <time>2025-08-11T06:09:04.000Z</time>
      </trkpt>
      <trkpt lat="43.11738" lon="0.10278">
        <ele>469</ele>
        <time>2025-08-11T06:09:12.000Z</time>
      </trkpt>
      <trkpt lat="43.11716" lon="0.10246">
        <ele>469.20001220703</ele>
        <time>2025-08-11T06:09:21.000Z</time>
      </trkpt>
      <trkpt lat="43.11708" lon="0.10237">
        <ele>469.20001220703</ele>
        <time>2025-08-11T06:09:24.000Z</time>
      </trkpt>
      <trkpt lat="43.1169" lon="0.10218">
        <ele>470</ele>
        <time>2025-08-11T06:09:31.000Z</time>
      </trkpt>
      <trkpt lat="43.1168" lon="0.10207">
        <ele>470.20001220703</ele>
        <time>2025-08-11T06:09:35.000Z</time>
      </trkpt>
      <trkpt lat="43.11673" lon="0.10199">
        <ele>470.60000610352</ele>
        <time>2025-08-11T06:09:38.000Z</time>
      </trkpt>
      <trkpt lat="43.11655" lon="0.1018">
        <ele>471.39999389648</ele>
        <time>2025-08-11T06:09:46.000Z</time>
      </trkpt>
      <trkpt lat="43.11649" lon="0.10173">
        <ele>471.60000610352</ele>
        <time>2025-08-11T06:09:49.000Z</time>
      </trkpt>
      <trkpt lat="43.11642" lon="0.10165">
        <ele>472.39999389648</ele>
        <time>2025-08-11T06:09:52.000Z</time>
      </trkpt>
      <trkpt lat="43.11635" lon="0.10158">
        <ele>472.79998779297</ele>
        <time>2025-08-11T06:09:55.000Z</time>
      </trkpt>
      <trkpt lat="43.11626" lon="0.10139">
        <ele>473.20001220703</ele>
        <time>2025-08-11T06:10:01.000Z</time>
      </trkpt>
      <trkpt lat="43.11623" lon="0.10132">
        <ele>473.39999389648</ele>
        <time>2025-08-11T06:10:03.000Z</time>
      </trkpt>
      <trkpt lat="43.11618" lon="0.10109">
        <ele>474</ele>
        <time>2025-08-11T06:10:09.000Z</time>
      </trkpt>
      <trkpt lat="43.11617" lon="0.10097">
        <ele>474.39999389648</ele>
        <time>2025-08-11T06:10:12.000Z</time>
      </trkpt>
      <trkpt lat="43.11617" lon="0.10077">
        <ele>475.39999389648</ele>
        <time>2025-08-11T06:10:17.000Z</time>
      </trkpt>
      <trkpt lat="43.11616" lon="0.10067">
        <ele>475.60000610352</ele>
        <time>2025-08-11T06:10:20.000Z</time>
      </trkpt>
      <trkpt lat="43.11616" lon="0.10048">
        <ele>476.20001220703</ele>
        <time>2025-08-11T06:10:26.000Z</time>
      </trkpt>
      <trkpt lat="43.11617" lon="0.10034">
        <ele>476.60000610352</ele>
        <time>2025-08-11T06:10:30.000Z</time>
      </trkpt>
      <trkpt lat="43.11617" lon="0.10024">
        <ele>477</ele>
        <time>2025-08-11T06:10:33.000Z</time>
      </trkpt>
      <trkpt lat="43.11617" lon="0.09999">
        <ele>477.60000610352</ele>
        <time>2025-08-11T06:10:40.000Z</time>
      </trkpt>
      <trkpt lat="43.11617" lon="0.09995">
        <ele>477.60000610352</ele>
        <time>2025-08-11T06:10:41.000Z</time>
      </trkpt>
      <trkpt lat="43.11616" lon="0.0997">
        <ele>478.20001220703</ele>
        <time>2025-08-11T06:10:48.000Z</time>
      </trkpt>
      <trkpt lat="43.11617" lon="0.09948">
        <ele>478.60000610352</ele>
        <time>2025-08-11T06:10:54.000Z</time>
      </trkpt>
      <trkpt lat="43.11616" lon="0.09945">
        <ele>478.60000610352</ele>
        <time>2025-08-11T06:10:55.000Z</time>
      </trkpt>
      <trkpt lat="43.11616" lon="0.09913">
        <ele>479.20001220703</ele>
        <time>2025-08-11T06:11:03.000Z</time>
      </trkpt>
      <trkpt lat="43.11616" lon="0.09888">
        <ele>479.39999389648</ele>
        <time>2025-08-11T06:11:09.000Z</time>
      </trkpt>
      <trkpt lat="43.11615" lon="0.09852">
        <ele>479.60000610352</ele>
        <time>2025-08-11T06:11:17.000Z</time>
      </trkpt>
      <trkpt lat="43.11615" lon="0.09847">
        <ele>479.60000610352</ele>
        <time>2025-08-11T06:11:18.000Z</time>
      </trkpt>
      <trkpt lat="43.11615" lon="0.09803">
        <ele>480.20001220703</ele>
        <time>2025-08-11T06:11:27.000Z</time>
      </trkpt>
      <trkpt lat="43.11614" lon="0.09786">
        <ele>480.39999389648</ele>
        <time>2025-08-11T06:11:31.000Z</time>
      </trkpt>
      <trkpt lat="43.11615" lon="0.09762">
        <ele>480.60000610352</ele>
        <time>2025-08-11T06:11:37.000Z</time>
      </trkpt>
      <trkpt lat="43.11612" lon="0.09729">
        <ele>480.60000610352</ele>
        <time>2025-08-11T06:11:46.000Z</time>
      </trkpt>
      <trkpt lat="43.11613" lon="0.09717">
        <ele>480.79998779297</ele>
        <time>2025-08-11T06:11:50.000Z</time>
      </trkpt>
      <trkpt lat="43.11612" lon="0.09692">
        <ele>481.39999389648</ele>
        <time>2025-08-11T06:11:57.000Z</time>
      </trkpt>
      <trkpt lat="43.11613" lon="0.09677">
        <ele>482</ele>
        <time>2025-08-11T06:12:01.000Z</time>
      </trkpt>
      <trkpt lat="43.11614" lon="0.09665">
        <ele>482.39999389648</ele>
        <time>2025-08-11T06:12:04.000Z</time>
      </trkpt>
      <trkpt lat="43.11615" lon="0.09643">
        <ele>483.20001220703</ele>
        <time>2025-08-11T06:12:10.000Z</time>
      </trkpt>
      <trkpt lat="43.11616" lon="0.09639">
        <ele>483.39999389648</ele>
        <time>2025-08-11T06:12:11.000Z</time>
      </trkpt>
      <trkpt lat="43.11618" lon="0.09615">
        <ele>484.20001220703</ele>
        <time>2025-08-11T06:12:18.000Z</time>
      </trkpt>
      <trkpt lat="43.11619" lon="0.09608">
        <ele>484.79998779297</ele>
        <time>2025-08-11T06:12:20.000Z</time>
      </trkpt>
      <trkpt lat="43.11622" lon="0.09588">
        <ele>485.39999389648</ele>
        <time>2025-08-11T06:12:26.000Z</time>
      </trkpt>
      <trkpt lat="43.11625" lon="0.09567">
        <ele>486.39999389648</ele>
        <time>2025-08-11T06:12:33.000Z</time>
      </trkpt>
      <trkpt lat="43.11625" lon="0.09564">
        <ele>486.60000610352</ele>
        <time>2025-08-11T06:12:34.000Z</time>
      </trkpt>
      <trkpt lat="43.1163" lon="0.09542">
        <ele>487.39999389648</ele>
        <time>2025-08-11T06:12:42.000Z</time>
      </trkpt>
      <trkpt lat="43.1163" lon="0.09539">
        <ele>487.79998779297</ele>
        <time>2025-08-11T06:12:43.000Z</time>
      </trkpt>
      <trkpt lat="43.11635" lon="0.09515">
        <ele>489</ele>
        <time>2025-08-11T06:12:52.000Z</time>
      </trkpt>
      <trkpt lat="43.11636" lon="0.0951">
        <ele>489.39999389648</ele>
        <time>2025-08-11T06:12:54.000Z</time>
      </trkpt>
      <trkpt lat="43.11639" lon="0.09499">
        <ele>490.20001220703</ele>
        <time>2025-08-11T06:12:59.000Z</time>
      </trkpt>
      <trkpt lat="43.1164" lon="0.09494">
        <ele>490.60000610352</ele>
        <time>2025-08-11T06:13:01.000Z</time>
      </trkpt>
      <trkpt lat="43.11645" lon="0.09481">
        <ele>491.20001220703</ele>
        <time>2025-08-11T06:13:07.000Z</time>
      </trkpt>
      <trkpt lat="43.11647" lon="0.09474">
        <ele>491.79998779297</ele>
        <time>2025-08-11T06:13:10.000Z</time>
      </trkpt>
      <trkpt lat="43.11648" lon="0.09467">
        <ele>492.39999389648</ele>
        <time>2025-08-11T06:13:13.000Z</time>
      </trkpt>
      <trkpt lat="43.1165" lon="0.09458">
        <ele>492.79998779297</ele>
        <time>2025-08-11T06:13:17.000Z</time>
      </trkpt>
      <trkpt lat="43.11654" lon="0.09449">
        <ele>493.39999389648</ele>
        <time>2025-08-11T06:13:21.000Z</time>
      </trkpt>
      <trkpt lat="43.11655" lon="0.09445">
        <ele>493.79998779297</ele>
        <time>2025-08-11T06:13:23.000Z</time>
      </trkpt>
      <trkpt lat="43.11659" lon="0.09431">
        <ele>494.39999389648</ele>
        <time>2025-08-11T06:13:29.000Z</time>
      </trkpt>
      <trkpt lat="43.11662" lon="0.09425">
        <ele>494.79998779297</ele>
        <time>2025-08-11T06:13:32.000Z</time>
      </trkpt>
      <trkpt lat="43.11667" lon="0.09409">
        <ele>495.60000610352</ele>
        <time>2025-08-11T06:13:39.000Z</time>
      </trkpt>
      <trkpt lat="43.11672" lon="0.09398">
        <ele>496.20001220703</ele>
        <time>2025-08-11T06:13:45.000Z</time>
      </trkpt>
      <trkpt lat="43.11676" lon="0.09388">
        <ele>496.60000610352</ele>
        <time>2025-08-11T06:13:50.000Z</time>
      </trkpt>
      <trkpt lat="43.11679" lon="0.09383">
        <ele>497</ele>
        <time>2025-08-11T06:13:53.000Z</time>
      </trkpt>
      <trkpt lat="43.11685" lon="0.09373">
        <ele>497.79998779297</ele>
        <time>2025-08-11T06:13:59.000Z</time>
      </trkpt>
      <trkpt lat="43.11692" lon="0.09361">
        <ele>498.39999389648</ele>
        <time>2025-08-11T06:14:06.000Z</time>
      </trkpt>
      <trkpt lat="43.11696" lon="0.09355">
        <ele>498.79998779297</ele>
        <time>2025-08-11T06:14:10.000Z</time>
      </trkpt>
      <trkpt lat="43.11702" lon="0.09347">
        <ele>499.39999389648</ele>
        <time>2025-08-11T06:14:15.000Z</time>
      </trkpt>
      <trkpt lat="43.11706" lon="0.09343">
        <ele>499.79998779297</ele>
        <time>2025-08-11T06:14:18.000Z</time>
      </trkpt>
      <trkpt lat="43.11708" lon="0.0934">
        <ele>500</ele>
        <time>2025-08-11T06:14:20.000Z</time>
      </trkpt>
      <trkpt lat="43.11711" lon="0.09336">
        <ele>500.39999389648</ele>
        <time>2025-08-11T06:14:23.000Z</time>
      </trkpt>
      <trkpt lat="43.11715" lon="0.09331">
        <ele>500.79998779297</ele>
        <time>2025-08-11T06:14:27.000Z</time>
      </trkpt>
      <trkpt lat="43.11721" lon="0.09326">
        <ele>501.39999389648</ele>
        <time>2025-08-11T06:14:32.000Z</time>
      </trkpt>
      <trkpt lat="43.1173" lon="0.09318">
        <ele>502</ele>
        <time>2025-08-11T06:14:39.000Z</time>
      </trkpt>
      <trkpt lat="43.11732" lon="0.09315">
        <ele>502.20001220703</ele>
        <time>2025-08-11T06:14:41.000Z</time>
      </trkpt>
      <trkpt lat="43.1174" lon="0.09307">
        <ele>503</ele>
        <time>2025-08-11T06:14:47.000Z</time>
      </trkpt>
      <trkpt lat="43.11743" lon="0.09304">
        <ele>503.39999389648</ele>
        <time>2025-08-11T06:14:50.000Z</time>
      </trkpt>
      <trkpt lat="43.11749" lon="0.09299">
        <ele>504</ele>
        <time>2025-08-11T06:14:55.000Z</time>
      </trkpt>
      <trkpt lat="43.11754" lon="0.09295">
        <ele>504.39999389648</ele>
        <time>2025-08-11T06:14:58.000Z</time>
      </trkpt>
      <trkpt lat="43.11755" lon="0.09294">
        <ele>504.60000610352</ele>
        <time>2025-08-11T06:14:59.000Z</time>
      </trkpt>
      <trkpt lat="43.11762" lon="0.09288">
        <ele>505.20001220703</ele>
        <time>2025-08-11T06:15:04.000Z</time>
      </trkpt>
      <trkpt lat="43.11767" lon="0.09284">
        <ele>505.60000610352</ele>
        <time>2025-08-11T06:15:07.000Z</time>
      </trkpt>
      <trkpt lat="43.11773" lon="0.0928">
        <ele>506.39999389648</ele>
        <time>2025-08-11T06:15:11.000Z</time>
      </trkpt>
      <trkpt lat="43.11778" lon="0.09277">
        <ele>506.79998779297</ele>
        <time>2025-08-11T06:15:14.000Z</time>
      </trkpt>
      <trkpt lat="43.11784" lon="0.09274">
        <ele>507.39999389648</ele>
        <time>2025-08-11T06:15:18.000Z</time>
      </trkpt>
      <trkpt lat="43.1179" lon="0.09269">
        <ele>508</ele>
        <time>2025-08-11T06:15:22.000Z</time>
      </trkpt>
      <trkpt lat="43.11798" lon="0.09264">
        <ele>508.60000610352</ele>
        <time>2025-08-11T06:15:27.000Z</time>
      </trkpt>
      <trkpt lat="43.11807" lon="0.09258">
        <ele>509.60000610352</ele>
        <time>2025-08-11T06:15:33.000Z</time>
      </trkpt>
      <trkpt lat="43.11819" lon="0.09249">
        <ele>510.60000610352</ele>
        <time>2025-08-11T06:15:41.000Z</time>
      </trkpt>
      <trkpt lat="43.1182" lon="0.09248">
        <ele>510.60000610352</ele>
        <time>2025-08-11T06:15:42.000Z</time>
      </trkpt>
      <trkpt lat="43.11828" lon="0.09241">
        <ele>511.20001220703</ele>
        <time>2025-08-11T06:15:48.000Z</time>
      </trkpt>
      <trkpt lat="43.11834" lon="0.09236">
        <ele>511.79998779297</ele>
        <time>2025-08-11T06:15:53.000Z</time>
      </trkpt>
      <trkpt lat="43.1184" lon="0.0923">
        <ele>512.40002441406</ele>
        <time>2025-08-11T06:15:57.000Z</time>
      </trkpt>
      <trkpt lat="43.11844" lon="0.09226">
        <ele>512.79998779297</ele>
        <time>2025-08-11T06:16:00.000Z</time>
      </trkpt>
      <trkpt lat="43.1185" lon="0.0922">
        <ele>513.59997558594</ele>
        <time>2025-08-11T06:16:05.000Z</time>
      </trkpt>
      <trkpt lat="43.11854" lon="0.09215">
        <ele>513.79998779297</ele>
        <time>2025-08-11T06:16:08.000Z</time>
      </trkpt>
      <trkpt lat="43.11858" lon="0.09211">
        <ele>514.20001220703</ele>
        <time>2025-08-11T06:16:11.000Z</time>
      </trkpt>
      <trkpt lat="43.11864" lon="0.09206">
        <ele>514.79998779297</ele>
        <time>2025-08-11T06:16:15.000Z</time>
      </trkpt>
      <trkpt lat="43.11869" lon="0.092">
        <ele>515.59997558594</ele>
        <time>2025-08-11T06:16:19.000Z</time>
      </trkpt>
      <trkpt lat="43.11873" lon="0.09193">
        <ele>516</ele>
        <time>2025-08-11T06:16:24.000Z</time>
      </trkpt>
      <trkpt lat="43.11877" lon="0.09188">
        <ele>516</ele>
        <time>2025-08-11T06:16:27.000Z</time>
      </trkpt>
      <trkpt lat="43.11886" lon="0.09176">
        <ele>517</ele>
        <time>2025-08-11T06:16:34.000Z</time>
      </trkpt>
      <trkpt lat="43.11889" lon="0.09172">
        <ele>517.40002441406</ele>
        <time>2025-08-11T06:16:37.000Z</time>
      </trkpt>
      <trkpt lat="43.11892" lon="0.09169">
        <ele>517.59997558594</ele>
        <time>2025-08-11T06:16:39.000Z</time>
      </trkpt>
      <trkpt lat="43.11897" lon="0.09162">
        <ele>518</ele>
        <time>2025-08-11T06:16:43.000Z</time>
      </trkpt>
      <trkpt lat="43.11903" lon="0.09151">
        <ele>518.79998779297</ele>
        <time>2025-08-11T06:16:49.000Z</time>
      </trkpt>
      <trkpt lat="43.11905" lon="0.09146">
        <ele>519</ele>
        <time>2025-08-11T06:16:51.000Z</time>
      </trkpt>
      <trkpt lat="43.11908" lon="0.09129">
        <ele>519.59997558594</ele>
        <time>2025-08-11T06:16:58.000Z</time>
      </trkpt>
      <trkpt lat="43.11908" lon="0.09123">
        <ele>519.79998779297</ele>
        <time>2025-08-11T06:17:02.000Z</time>
      </trkpt>
      <trkpt lat="43.11908" lon="0.09118">
        <ele>520</ele>
        <time>2025-08-11T06:17:04.000Z</time>
      </trkpt>
      <trkpt lat="43.11907" lon="0.09105">
        <ele>520.59997558594</ele>
        <time>2025-08-11T06:17:09.000Z</time>
      </trkpt>
      <trkpt lat="43.11905" lon="0.09101">
        <ele>521</ele>
        <time>2025-08-11T06:17:11.000Z</time>
      </trkpt>
      <trkpt lat="43.11898" lon="0.09092">
        <ele>521.20001220703</ele>
        <time>2025-08-11T06:17:15.000Z</time>
      </trkpt>
      <trkpt lat="43.11886" lon="0.09081">
        <ele>521.40002441406</ele>
        <time>2025-08-11T06:17:21.000Z</time>
      </trkpt>
      <trkpt lat="43.11874" lon="0.0908">
        <ele>521.20001220703</ele>
        <time>2025-08-11T06:17:26.000Z</time>
      </trkpt>
      <trkpt lat="43.1186" lon="0.09087">
        <ele>521.79998779297</ele>
        <time>2025-08-11T06:17:32.000Z</time>
      </trkpt>
      <trkpt lat="43.11858" lon="0.09089">
        <ele>521.79998779297</ele>
        <time>2025-08-11T06:17:33.000Z</time>
      </trkpt>
      <trkpt lat="43.11843" lon="0.091">
        <ele>522.59997558594</ele>
        <time>2025-08-11T06:17:40.000Z</time>
      </trkpt>
      <trkpt lat="43.1184" lon="0.09102">
        <ele>523</ele>
        <time>2025-08-11T06:17:42.000Z</time>
      </trkpt>
      <trkpt lat="43.11824" lon="0.09108">
        <ele>524</ele>
        <time>2025-08-11T06:17:49.000Z</time>
      </trkpt>
      <trkpt lat="43.11812" lon="0.09099">
        <ele>524.79998779297</ele>
        <time>2025-08-11T06:17:55.000Z</time>
      </trkpt>
      <trkpt lat="43.11809" lon="0.09095">
        <ele>525.20001220703</ele>
        <time>2025-08-11T06:17:57.000Z</time>
      </trkpt>
      <trkpt lat="43.11806" lon="0.0909">
        <ele>525.40002441406</ele>
        <time>2025-08-11T06:17:59.000Z</time>
      </trkpt>
      <trkpt lat="43.11805" lon="0.09082">
        <ele>526</ele>
        <time>2025-08-11T06:18:02.000Z</time>
      </trkpt>
      <trkpt lat="43.11805" lon="0.09076">
        <ele>526.40002441406</ele>
        <time>2025-08-11T06:18:04.000Z</time>
      </trkpt>
      <trkpt lat="43.11805" lon="0.09071">
        <ele>526.59997558594</ele>
        <time>2025-08-11T06:18:06.000Z</time>
      </trkpt>
      <trkpt lat="43.11807" lon="0.09067">
        <ele>526.79998779297</ele>
        <time>2025-08-11T06:18:08.000Z</time>
      </trkpt>
      <trkpt lat="43.11808" lon="0.09062">
        <ele>527</ele>
        <time>2025-08-11T06:18:10.000Z</time>
      </trkpt>
      <trkpt lat="43.1181" lon="0.09055">
        <ele>527.40002441406</ele>
        <time>2025-08-11T06:18:13.000Z</time>
      </trkpt>
      <trkpt lat="43.1181" lon="0.09053">
        <ele>527.40002441406</ele>
        <time>2025-08-11T06:18:14.000Z</time>
      </trkpt>
      <trkpt lat="43.11815" lon="0.09023">
        <ele>528.20001220703</ele>
        <time>2025-08-11T06:18:24.000Z</time>
      </trkpt>
      <trkpt lat="43.11817" lon="0.09014">
        <ele>528.40002441406</ele>
        <time>2025-08-11T06:18:27.000Z</time>
      </trkpt>
      <trkpt lat="43.1182" lon="0.09002">
        <ele>528.79998779297</ele>
        <time>2025-08-11T06:18:31.000Z</time>
      </trkpt>
      <trkpt lat="43.11824" lon="0.08986">
        <ele>529.40002441406</ele>
        <time>2025-08-11T06:18:37.000Z</time>
      </trkpt>
      <trkpt lat="43.11825" lon="0.08982">
        <ele>529.59997558594</ele>
        <time>2025-08-11T06:18:38.000Z</time>
      </trkpt>
      <trkpt lat="43.11828" lon="0.08968">
        <ele>530.40002441406</ele>
        <time>2025-08-11T06:18:43.000Z</time>
      </trkpt>
      <trkpt lat="43.11832" lon="0.08946">
        <ele>531.40002441406</ele>
        <time>2025-08-11T06:18:51.000Z</time>
      </trkpt>
      <trkpt lat="43.11833" lon="0.08944">
        <ele>531.59997558594</ele>
        <time>2025-08-11T06:18:52.000Z</time>
      </trkpt>
      <trkpt lat="43.11836" lon="0.08926">
        <ele>532.40002441406</ele>
        <time>2025-08-11T06:18:59.000Z</time>
      </trkpt>
      <trkpt lat="43.11837" lon="0.08923">
        <ele>532.59997558594</ele>
        <time>2025-08-11T06:19:00.000Z</time>
      </trkpt>
      <trkpt lat="43.11838" lon="0.08916">
        <ele>532.79998779297</ele>
        <time>2025-08-11T06:19:02.000Z</time>
      </trkpt>
      <trkpt lat="43.11844" lon="0.08893">
        <ele>533.40002441406</ele>
        <time>2025-08-11T06:19:10.000Z</time>
      </trkpt>
      <trkpt lat="43.11846" lon="0.08885">
        <ele>533.79998779297</ele>
        <time>2025-08-11T06:19:13.000Z</time>
      </trkpt>
      <trkpt lat="43.11851" lon="0.08867">
        <ele>534.79998779297</ele>
        <time>2025-08-11T06:19:20.000Z</time>
      </trkpt>
      <trkpt lat="43.11851" lon="0.08864">
        <ele>535</ele>
        <time>2025-08-11T06:19:21.000Z</time>
      </trkpt>
      <trkpt lat="43.11854" lon="0.08845">
        <ele>535.59997558594</ele>
        <time>2025-08-11T06:19:28.000Z</time>
      </trkpt>
      <trkpt lat="43.11857" lon="0.08836">
        <ele>536.20001220703</ele>
        <time>2025-08-11T06:19:32.000Z</time>
      </trkpt>
      <trkpt lat="43.11858" lon="0.08831">
        <ele>536.40002441406</ele>
        <time>2025-08-11T06:19:34.000Z</time>
      </trkpt>
      <trkpt lat="43.1186" lon="0.08817">
        <ele>537</ele>
        <time>2025-08-11T06:19:40.000Z</time>
      </trkpt>
      <trkpt lat="43.1186" lon="0.08814">
        <ele>537</ele>
        <time>2025-08-11T06:19:41.000Z</time>
      </trkpt>
      <trkpt lat="43.11861" lon="0.0881">
        <ele>537.20001220703</ele>
        <time>2025-08-11T06:19:43.000Z</time>
      </trkpt>
      <trkpt lat="43.11865" lon="0.08796">
        <ele>538</ele>
        <time>2025-08-11T06:19:49.000Z</time>
      </trkpt>
      <trkpt lat="43.11866" lon="0.08792">
        <ele>538.20001220703</ele>
        <time>2025-08-11T06:19:51.000Z</time>
      </trkpt>
      <trkpt lat="43.11869" lon="0.08769">
        <ele>539.20001220703</ele>
        <time>2025-08-11T06:19:59.000Z</time>
      </trkpt>
      <trkpt lat="43.11869" lon="0.08767">
        <ele>539.40002441406</ele>
        <time>2025-08-11T06:20:00.000Z</time>
      </trkpt>
      <trkpt lat="43.11874" lon="0.0875">
        <ele>540.40002441406</ele>
        <time>2025-08-11T06:20:07.000Z</time>
      </trkpt>
      <trkpt lat="43.11874" lon="0.08735">
        <ele>541.40002441406</ele>
        <time>2025-08-11T06:20:13.000Z</time>
      </trkpt>
      <trkpt lat="43.11874" lon="0.08723">
        <ele>542.20001220703</ele>
        <time>2025-08-11T06:20:18.000Z</time>
      </trkpt>
      <trkpt lat="43.11874" lon="0.08715">
        <ele>542.59997558594</ele>
        <time>2025-08-11T06:20:21.000Z</time>
      </trkpt>
      <trkpt lat="43.11872" lon="0.08709">
        <ele>543</ele>
        <time>2025-08-11T06:20:24.000Z</time>
      </trkpt>
      <trkpt lat="43.11872" lon="0.08699">
        <ele>543.59997558594</ele>
        <time>2025-08-11T06:20:28.000Z</time>
      </trkpt>
      <trkpt lat="43.11872" lon="0.08697">
        <ele>543.79998779297</ele>
        <time>2025-08-11T06:20:29.000Z</time>
      </trkpt>
      <trkpt lat="43.11872" lon="0.08693">
        <ele>543.79998779297</ele>
        <time>2025-08-11T06:20:31.000Z</time>
      </trkpt>
      <trkpt lat="43.11871" lon="0.08679">
        <ele>544.40002441406</ele>
        <time>2025-08-11T06:20:36.000Z</time>
      </trkpt>
      <trkpt lat="43.1187" lon="0.08672">
        <ele>544.79998779297</ele>
        <time>2025-08-11T06:20:39.000Z</time>
      </trkpt>
      <trkpt lat="43.11868" lon="0.0866">
        <ele>545.40002441406</ele>
        <time>2025-08-11T06:20:44.000Z</time>
      </trkpt>
      <trkpt lat="43.11865" lon="0.08655">
        <ele>545.79998779297</ele>
        <time>2025-08-11T06:20:46.000Z</time>
      </trkpt>
      <trkpt lat="43.11858" lon="0.08639">
        <ele>546.59997558594</ele>
        <time>2025-08-11T06:20:53.000Z</time>
      </trkpt>
      <trkpt lat="43.11856" lon="0.08637">
        <ele>546.59997558594</ele>
        <time>2025-08-11T06:20:54.000Z</time>
      </trkpt>
      <trkpt lat="43.11848" lon="0.08628">
        <ele>547</ele>
        <time>2025-08-11T06:20:59.000Z</time>
      </trkpt>
      <trkpt lat="43.11842" lon="0.08626">
        <ele>547.20001220703</ele>
        <time>2025-08-11T06:21:02.000Z</time>
      </trkpt>
      <trkpt lat="43.11826" lon="0.08624">
        <ele>547.59997558594</ele>
        <time>2025-08-11T06:21:10.000Z</time>
      </trkpt>
      <trkpt lat="43.11818" lon="0.08621">
        <ele>547.79998779297</ele>
        <time>2025-08-11T06:21:14.000Z</time>
      </trkpt>
      <trkpt lat="43.11803" lon="0.08606">
        <ele>548.20001220703</ele>
        <time>2025-08-11T06:21:22.000Z</time>
      </trkpt>
      <trkpt lat="43.11799" lon="0.08596">
        <ele>548.40002441406</ele>
        <time>2025-08-11T06:21:26.000Z</time>
      </trkpt>
      <trkpt lat="43.11795" lon="0.08583">
        <ele>548.79998779297</ele>
        <time>2025-08-11T06:21:31.000Z</time>
      </trkpt>
      <trkpt lat="43.11794" lon="0.08567">
        <ele>549.40002441406</ele>
        <time>2025-08-11T06:21:36.000Z</time>
      </trkpt>
      <trkpt lat="43.11794" lon="0.08554">
        <ele>550</ele>
        <time>2025-08-11T06:21:40.000Z</time>
      </trkpt>
      <trkpt lat="43.11794" lon="0.0855">
        <ele>550</ele>
        <time>2025-08-11T06:21:41.000Z</time>
      </trkpt>
      <trkpt lat="43.11794" lon="0.08522">
        <ele>550.40002441406</ele>
        <time>2025-08-11T06:21:50.000Z</time>
      </trkpt>
      <trkpt lat="43.11797" lon="0.08504">
        <ele>550.79998779297</ele>
        <time>2025-08-11T06:21:57.000Z</time>
      </trkpt>
      <trkpt lat="43.11801" lon="0.08483">
        <ele>550.59997558594</ele>
        <time>2025-08-11T06:22:03.000Z</time>
      </trkpt>
      <trkpt lat="43.11808" lon="0.08453">
        <ele>550</ele>
        <time>2025-08-11T06:22:08.000Z</time>
      </trkpt>
      <trkpt lat="43.11814" lon="0.08429">
        <ele>549.40002441406</ele>
        <time>2025-08-11T06:22:11.000Z</time>
      </trkpt>
      <trkpt lat="43.11823" lon="0.08395">
        <ele>548.59997558594</ele>
        <time>2025-08-11T06:22:15.000Z</time>
      </trkpt>
      <trkpt lat="43.11825" lon="0.08386">
        <ele>548.40002441406</ele>
        <time>2025-08-11T06:22:16.000Z</time>
      </trkpt>
      <trkpt lat="43.11832" lon="0.08359">
        <ele>547.20001220703</ele>
        <time>2025-08-11T06:22:19.000Z</time>
      </trkpt>
      <trkpt lat="43.11839" lon="0.0833">
        <ele>546</ele>
        <time>2025-08-11T06:22:22.000Z</time>
      </trkpt>
      <trkpt lat="43.11846" lon="0.08299">
        <ele>544.59997558594</ele>
        <time>2025-08-11T06:22:25.000Z</time>
      </trkpt>
      <trkpt lat="43.11854" lon="0.08267">
        <ele>543.59997558594</ele>
        <time>2025-08-11T06:22:28.000Z</time>
      </trkpt>
      <trkpt lat="43.11856" lon="0.08256">
        <ele>543.20001220703</ele>
        <time>2025-08-11T06:22:29.000Z</time>
      </trkpt>
      <trkpt lat="43.11857" lon="0.08244">
        <ele>543</ele>
        <time>2025-08-11T06:22:30.000Z</time>
      </trkpt>
      <trkpt lat="43.11861" lon="0.08225">
        <ele>542.20001220703</ele>
        <time>2025-08-11T06:22:32.000Z</time>
      </trkpt>
      <trkpt lat="43.11866" lon="0.08177">
        <ele>540.40002441406</ele>
        <time>2025-08-11T06:22:36.000Z</time>
      </trkpt>
      <trkpt lat="43.11867" lon="0.08153">
        <ele>539.20001220703</ele>
        <time>2025-08-11T06:22:38.000Z</time>
      </trkpt>
      <trkpt lat="43.11868" lon="0.08131">
        <ele>538</ele>
        <time>2025-08-11T06:22:40.000Z</time>
      </trkpt>
      <trkpt lat="43.11869" lon="0.0811">
        <ele>537</ele>
        <time>2025-08-11T06:22:42.000Z</time>
      </trkpt>
      <trkpt lat="43.11869" lon="0.08099">
        <ele>536.20001220703</ele>
        <time>2025-08-11T06:22:43.000Z</time>
      </trkpt>
      <trkpt lat="43.11868" lon="0.08077">
        <ele>535</ele>
        <time>2025-08-11T06:22:45.000Z</time>
      </trkpt>
      <trkpt lat="43.11868" lon="0.08055">
        <ele>534</ele>
        <time>2025-08-11T06:22:47.000Z</time>
      </trkpt>
      <trkpt lat="43.11865" lon="0.08032">
        <ele>533</ele>
        <time>2025-08-11T06:22:49.000Z</time>
      </trkpt>
      <trkpt lat="43.11864" lon="0.0802">
        <ele>532</ele>
        <time>2025-08-11T06:22:50.000Z</time>
      </trkpt>
      <trkpt lat="43.11859" lon="0.07987">
        <ele>530.59997558594</ele>
        <time>2025-08-11T06:22:53.000Z</time>
      </trkpt>
      <trkpt lat="43.11853" lon="0.07961">
        <ele>529.40002441406</ele>
        <time>2025-08-11T06:22:55.000Z</time>
      </trkpt>
      <trkpt lat="43.11849" lon="0.07936">
        <ele>528.20001220703</ele>
        <time>2025-08-11T06:22:57.000Z</time>
      </trkpt>
      <trkpt lat="43.11842" lon="0.079">
        <ele>526.59997558594</ele>
        <time>2025-08-11T06:23:00.000Z</time>
      </trkpt>
      <trkpt lat="43.11837" lon="0.07876">
        <ele>525.20001220703</ele>
        <time>2025-08-11T06:23:02.000Z</time>
      </trkpt>
      <trkpt lat="43.11835" lon="0.07863">
        <ele>524.79998779297</ele>
        <time>2025-08-11T06:23:03.000Z</time>
      </trkpt>
      <trkpt lat="43.11833" lon="0.07853">
        <ele>523.79998779297</ele>
        <time>2025-08-11T06:23:04.000Z</time>
      </trkpt>
      <trkpt lat="43.11829" lon="0.07827">
        <ele>522.79998779297</ele>
        <time>2025-08-11T06:23:06.000Z</time>
      </trkpt>
      <trkpt lat="43.1183" lon="0.07803">
        <ele>521.79998779297</ele>
        <time>2025-08-11T06:23:08.000Z</time>
      </trkpt>
      <trkpt lat="43.11833" lon="0.07782">
        <ele>520.59997558594</ele>
        <time>2025-08-11T06:23:10.000Z</time>
      </trkpt>
      <trkpt lat="43.11837" lon="0.07768">
        <ele>519.79998779297</ele>
        <time>2025-08-11T06:23:11.000Z</time>
      </trkpt>
      <trkpt lat="43.11842" lon="0.07756">
        <ele>519.40002441406</ele>
        <time>2025-08-11T06:23:12.000Z</time>
      </trkpt>
      <trkpt lat="43.1185" lon="0.07734">
        <ele>517.59997558594</ele>
        <time>2025-08-11T06:23:14.000Z</time>
      </trkpt>
      <trkpt lat="43.1186" lon="0.07705">
        <ele>516.59997558594</ele>
        <time>2025-08-11T06:23:16.000Z</time>
      </trkpt>
      <trkpt lat="43.11863" lon="0.07691">
        <ele>516.40002441406</ele>
        <time>2025-08-11T06:23:17.000Z</time>
      </trkpt>
      <trkpt lat="43.11866" lon="0.07678">
        <ele>515.59997558594</ele>
        <time>2025-08-11T06:23:18.000Z</time>
      </trkpt>
      <trkpt lat="43.11867" lon="0.07664">
        <ele>515.20001220703</ele>
        <time>2025-08-11T06:23:19.000Z</time>
      </trkpt>
      <trkpt lat="43.11867" lon="0.07651">
        <ele>514.20001220703</ele>
        <time>2025-08-11T06:23:20.000Z</time>
      </trkpt>
      <trkpt lat="43.11866" lon="0.07639">
        <ele>513.79998779297</ele>
        <time>2025-08-11T06:23:21.000Z</time>
      </trkpt>
      <trkpt lat="43.11865" lon="0.07618">
        <ele>513.59997558594</ele>
        <time>2025-08-11T06:23:23.000Z</time>
      </trkpt>
      <trkpt lat="43.1186" lon="0.07576">
        <ele>513.79998779297</ele>
        <time>2025-08-11T06:23:28.000Z</time>
      </trkpt>
      <trkpt lat="43.11854" lon="0.07529">
        <ele>514.79998779297</ele>
        <time>2025-08-11T06:23:35.000Z</time>
      </trkpt>
      <trkpt lat="43.11853" lon="0.07523">
        <ele>514.79998779297</ele>
        <time>2025-08-11T06:23:36.000Z</time>
      </trkpt>
      <trkpt lat="43.11851" lon="0.07497">
        <ele>515.79998779297</ele>
        <time>2025-08-11T06:23:41.000Z</time>
      </trkpt>
      <trkpt lat="43.11847" lon="0.07463">
        <ele>516.79998779297</ele>
        <time>2025-08-11T06:23:49.000Z</time>
      </trkpt>
      <trkpt lat="43.11843" lon="0.07433">
        <ele>517.79998779297</ele>
        <time>2025-08-11T06:23:57.000Z</time>
      </trkpt>
      <trkpt lat="43.11842" lon="0.07429">
        <ele>518</ele>
        <time>2025-08-11T06:23:58.000Z</time>
      </trkpt>
      <trkpt lat="43.1184" lon="0.07406">
        <ele>518.79998779297</ele>
        <time>2025-08-11T06:24:04.000Z</time>
      </trkpt>
      <trkpt lat="43.11838" lon="0.07396">
        <ele>519</ele>
        <time>2025-08-11T06:24:07.000Z</time>
      </trkpt>
      <trkpt lat="43.11836" lon="0.07378">
        <ele>519.40002441406</ele>
        <time>2025-08-11T06:24:12.000Z</time>
      </trkpt>
      <trkpt lat="43.11835" lon="0.07361">
        <ele>520</ele>
        <time>2025-08-11T06:24:17.000Z</time>
      </trkpt>
      <trkpt lat="43.11835" lon="0.0735">
        <ele>520.40002441406</ele>
        <time>2025-08-11T06:24:21.000Z</time>
      </trkpt>
      <trkpt lat="43.11831" lon="0.07321">
        <ele>521.20001220703</ele>
        <time>2025-08-11T06:24:30.000Z</time>
      </trkpt>
      <trkpt lat="43.1183" lon="0.07318">
        <ele>521.40002441406</ele>
        <time>2025-08-11T06:24:31.000Z</time>
      </trkpt>
      <trkpt lat="43.11825" lon="0.07288">
        <ele>522.20001220703</ele>
        <time>2025-08-11T06:24:41.000Z</time>
      </trkpt>
      <trkpt lat="43.11825" lon="0.07285">
        <ele>522.20001220703</ele>
        <time>2025-08-11T06:24:42.000Z</time>
      </trkpt>
      <trkpt lat="43.11822" lon="0.07261">
        <ele>522.79998779297</ele>
        <time>2025-08-11T06:24:50.000Z</time>
      </trkpt>
      <trkpt lat="43.1182" lon="0.07249">
        <ele>523.40002441406</ele>
        <time>2025-08-11T06:24:54.000Z</time>
      </trkpt>
      <trkpt lat="43.11819" lon="0.07238">
        <ele>523.79998779297</ele>
        <time>2025-08-11T06:24:58.000Z</time>
      </trkpt>
      <trkpt lat="43.11818" lon="0.0722">
        <ele>524.40002441406</ele>
        <time>2025-08-11T06:25:05.000Z</time>
      </trkpt>
      <trkpt lat="43.11817" lon="0.07217">
        <ele>524.40002441406</ele>
        <time>2025-08-11T06:25:06.000Z</time>
      </trkpt>
      <trkpt lat="43.11814" lon="0.07199">
        <ele>524.79998779297</ele>
        <time>2025-08-11T06:25:12.000Z</time>
      </trkpt>
      <trkpt lat="43.11813" lon="0.07188">
        <ele>525.40002441406</ele>
        <time>2025-08-11T06:25:16.000Z</time>
      </trkpt>
      <trkpt lat="43.11812" lon="0.07183">
        <ele>525.59997558594</ele>
        <time>2025-08-11T06:25:18.000Z</time>
      </trkpt>
      <trkpt lat="43.11811" lon="0.07175">
        <ele>526</ele>
        <time>2025-08-11T06:25:21.000Z</time>
      </trkpt>
      <trkpt lat="43.1181" lon="0.07162">
        <ele>526.40002441406</ele>
        <time>2025-08-11T06:25:27.000Z</time>
      </trkpt>
      <trkpt lat="43.11809" lon="0.07154">
        <ele>526.59997558594</ele>
        <time>2025-08-11T06:25:30.000Z</time>
      </trkpt>
      <trkpt lat="43.11807" lon="0.07136">
        <ele>527</ele>
        <time>2025-08-11T06:25:36.000Z</time>
      </trkpt>
      <trkpt lat="43.11806" lon="0.07131">
        <ele>527.20001220703</ele>
        <time>2025-08-11T06:25:38.000Z</time>
      </trkpt>
      <trkpt lat="43.11804" lon="0.07118">
        <ele>527.59997558594</ele>
        <time>2025-08-11T06:25:43.000Z</time>
      </trkpt>
      <trkpt lat="43.11802" lon="0.07099">
        <ele>528.40002441406</ele>
        <time>2025-08-11T06:25:50.000Z</time>
      </trkpt>
      <trkpt lat="43.118" lon="0.07071">
        <ele>529.20001220703</ele>
        <time>2025-08-11T06:26:00.000Z</time>
      </trkpt>
      <trkpt lat="43.11799" lon="0.07063">
        <ele>529.40002441406</ele>
        <time>2025-08-11T06:26:03.000Z</time>
      </trkpt>
      <trkpt lat="43.11797" lon="0.07053">
        <ele>529.59997558594</ele>
        <time>2025-08-11T06:26:07.000Z</time>
      </trkpt>
      <trkpt lat="43.1179" lon="0.07034">
        <ele>530.20001220703</ele>
        <time>2025-08-11T06:26:15.000Z</time>
      </trkpt>
      <trkpt lat="43.11789" lon="0.07031">
        <ele>530.20001220703</ele>
        <time>2025-08-11T06:26:16.000Z</time>
      </trkpt>
      <trkpt lat="43.11787" lon="0.07029">
        <ele>530.40002441406</ele>
        <time>2025-08-11T06:26:17.000Z</time>
      </trkpt>
      <trkpt lat="43.11782" lon="0.0702">
        <ele>530.79998779297</ele>
        <time>2025-08-11T06:26:21.000Z</time>
      </trkpt>
      <trkpt lat="43.11767" lon="0.06999">
        <ele>531.40002441406</ele>
        <time>2025-08-11T06:26:32.000Z</time>
      </trkpt>
      <trkpt lat="43.11754" lon="0.06987">
        <ele>532.40002441406</ele>
        <time>2025-08-11T06:26:40.000Z</time>
      </trkpt>
      <trkpt lat="43.11753" lon="0.06986">
        <ele>532.59997558594</ele>
        <time>2025-08-11T06:26:41.000Z</time>
      </trkpt>
      <trkpt lat="43.1174" lon="0.06974">
        <ele>533</ele>
        <time>2025-08-11T06:26:49.000Z</time>
      </trkpt>
      <trkpt lat="43.11736" lon="0.06968">
        <ele>533.40002441406</ele>
        <time>2025-08-11T06:26:52.000Z</time>
      </trkpt>
      <trkpt lat="43.11735" lon="0.06967">
        <ele>533.59997558594</ele>
        <time>2025-08-11T06:26:53.000Z</time>
      </trkpt>
      <trkpt lat="43.11733" lon="0.06966">
        <ele>533.59997558594</ele>
        <time>2025-08-11T06:26:54.000Z</time>
      </trkpt>
      <trkpt lat="43.11722" lon="0.06954">
        <ele>534.59997558594</ele>
        <time>2025-08-11T06:27:02.000Z</time>
      </trkpt>
      <trkpt lat="43.1172" lon="0.06952">
        <ele>534.79998779297</ele>
        <time>2025-08-11T06:27:03.000Z</time>
      </trkpt>
      <trkpt lat="43.1171" lon="0.0694">
        <ele>535.20001220703</ele>
        <time>2025-08-11T06:27:11.000Z</time>
      </trkpt>
      <trkpt lat="43.11707" lon="0.06935">
        <ele>535.59997558594</ele>
        <time>2025-08-11T06:27:14.000Z</time>
      </trkpt>
      <trkpt lat="43.11699" lon="0.06924">
        <ele>536</ele>
        <time>2025-08-11T06:27:20.000Z</time>
      </trkpt>
      <trkpt lat="43.11691" lon="0.06911">
        <ele>536.40002441406</ele>
        <time>2025-08-11T06:27:27.000Z</time>
      </trkpt>
      <trkpt lat="43.11686" lon="0.06898">
        <ele>536.40002441406</ele>
        <time>2025-08-11T06:27:30.000Z</time>
      </trkpt>
      <trkpt lat="43.11684" lon="0.06892">
        <ele>536.40002441406</ele>
        <time>2025-08-11T06:27:31.000Z</time>
      </trkpt>
      <trkpt lat="43.1168" lon="0.06869">
        <ele>536.20001220703</ele>
        <time>2025-08-11T06:27:34.000Z</time>
      </trkpt>
      <trkpt lat="43.11679" lon="0.0686">
        <ele>536</ele>
        <time>2025-08-11T06:27:35.000Z</time>
      </trkpt>
      <trkpt lat="43.11673" lon="0.06825">
        <ele>534.59997558594</ele>
        <time>2025-08-11T06:27:39.000Z</time>
      </trkpt>
      <trkpt lat="43.11671" lon="0.06815">
        <ele>534</ele>
        <time>2025-08-11T06:27:40.000Z</time>
      </trkpt>
      <trkpt lat="43.1167" lon="0.06805">
        <ele>533.59997558594</ele>
        <time>2025-08-11T06:27:41.000Z</time>
      </trkpt>
      <trkpt lat="43.11668" lon="0.06793">
        <ele>533.20001220703</ele>
        <time>2025-08-11T06:27:42.000Z</time>
      </trkpt>
      <trkpt lat="43.11662" lon="0.06763">
        <ele>531.40002441406</ele>
        <time>2025-08-11T06:27:45.000Z</time>
      </trkpt>
      <trkpt lat="43.11657" lon="0.06733">
        <ele>530.20001220703</ele>
        <time>2025-08-11T06:27:48.000Z</time>
      </trkpt>
      <trkpt lat="43.11653" lon="0.06704">
        <ele>528.59997558594</ele>
        <time>2025-08-11T06:27:51.000Z</time>
      </trkpt>
      <trkpt lat="43.1165" lon="0.06676">
        <ele>527</ele>
        <time>2025-08-11T06:27:54.000Z</time>
      </trkpt>
      <trkpt lat="43.11645" lon="0.06648">
        <ele>525.59997558594</ele>
        <time>2025-08-11T06:27:57.000Z</time>
      </trkpt>
      <trkpt lat="43.11641" lon="0.06628">
        <ele>524</ele>
        <time>2025-08-11T06:27:59.000Z</time>
      </trkpt>
      <trkpt lat="43.11638" lon="0.06607">
        <ele>522.79998779297</ele>
        <time>2025-08-11T06:28:01.000Z</time>
      </trkpt>
      <trkpt lat="43.11634" lon="0.06584">
        <ele>522</ele>
        <time>2025-08-11T06:28:03.000Z</time>
      </trkpt>
      <trkpt lat="43.11632" lon="0.06575">
        <ele>521.79998779297</ele>
        <time>2025-08-11T06:28:04.000Z</time>
      </trkpt>
      <trkpt lat="43.11626" lon="0.0655">
        <ele>520.20001220703</ele>
        <time>2025-08-11T06:28:06.000Z</time>
      </trkpt>
      <trkpt lat="43.1162" lon="0.06528">
        <ele>518.79998779297</ele>
        <time>2025-08-11T06:28:08.000Z</time>
      </trkpt>
      <trkpt lat="43.11618" lon="0.06517">
        <ele>518.59997558594</ele>
        <time>2025-08-11T06:28:09.000Z</time>
      </trkpt>
      <trkpt lat="43.11616" lon="0.06508">
        <ele>517.79998779297</ele>
        <time>2025-08-11T06:28:10.000Z</time>
      </trkpt>
      <trkpt lat="43.11614" lon="0.06494">
        <ele>517.40002441406</ele>
        <time>2025-08-11T06:28:11.000Z</time>
      </trkpt>
      <trkpt lat="43.11614" lon="0.06485">
        <ele>516.40002441406</ele>
        <time>2025-08-11T06:28:12.000Z</time>
      </trkpt>
      <trkpt lat="43.11613" lon="0.06473">
        <ele>515.59997558594</ele>
        <time>2025-08-11T06:28:13.000Z</time>
      </trkpt>
      <trkpt lat="43.11614" lon="0.06461">
        <ele>515.40002441406</ele>
        <time>2025-08-11T06:28:14.000Z</time>
      </trkpt>
      <trkpt lat="43.11614" lon="0.06449">
        <ele>514.20001220703</ele>
        <time>2025-08-11T06:28:15.000Z</time>
      </trkpt>
      <trkpt lat="43.11616" lon="0.06421">
        <ele>513</ele>
        <time>2025-08-11T06:28:17.000Z</time>
      </trkpt>
      <trkpt lat="43.11617" lon="0.06397">
        <ele>511.79998779297</ele>
        <time>2025-08-11T06:28:19.000Z</time>
      </trkpt>
      <trkpt lat="43.11617" lon="0.06385">
        <ele>510.79998779297</ele>
        <time>2025-08-11T06:28:20.000Z</time>
      </trkpt>
      <trkpt lat="43.11618" lon="0.06373">
        <ele>510.20001220703</ele>
        <time>2025-08-11T06:28:21.000Z</time>
      </trkpt>
      <trkpt lat="43.11618" lon="0.06361">
        <ele>509.39999389648</ele>
        <time>2025-08-11T06:28:22.000Z</time>
      </trkpt>
      <trkpt lat="43.1162" lon="0.06336">
        <ele>508</ele>
        <time>2025-08-11T06:28:24.000Z</time>
      </trkpt>
      <trkpt lat="43.11622" lon="0.06313">
        <ele>507</ele>
        <time>2025-08-11T06:28:26.000Z</time>
      </trkpt>
      <trkpt lat="43.11624" lon="0.06288">
        <ele>505.79998779297</ele>
        <time>2025-08-11T06:28:28.000Z</time>
      </trkpt>
      <trkpt lat="43.11626" lon="0.06267">
        <ele>504.60000610352</ele>
        <time>2025-08-11T06:28:30.000Z</time>
      </trkpt>
      <trkpt lat="43.11627" lon="0.06259">
        <ele>503.60000610352</ele>
        <time>2025-08-11T06:28:31.000Z</time>
      </trkpt>
      <trkpt lat="43.11627" lon="0.06247">
        <ele>503.20001220703</ele>
        <time>2025-08-11T06:28:32.000Z</time>
      </trkpt>
      <trkpt lat="43.11623" lon="0.0623">
        <ele>501</ele>
        <time>2025-08-11T06:28:34.000Z</time>
      </trkpt>
      <trkpt lat="43.11621" lon="0.0622">
        <ele>500.39999389648</ele>
        <time>2025-08-11T06:28:35.000Z</time>
      </trkpt>
      <trkpt lat="43.11616" lon="0.06209">
        <ele>499.39999389648</ele>
        <time>2025-08-11T06:28:36.000Z</time>
      </trkpt>
      <trkpt lat="43.11606" lon="0.06192">
        <ele>498.20001220703</ele>
        <time>2025-08-11T06:28:38.000Z</time>
      </trkpt>
      <trkpt lat="43.11601" lon="0.06183">
        <ele>497.79998779297</ele>
        <time>2025-08-11T06:28:39.000Z</time>
      </trkpt>
      <trkpt lat="43.11596" lon="0.06175">
        <ele>497</ele>
        <time>2025-08-11T06:28:40.000Z</time>
      </trkpt>
      <trkpt lat="43.11589" lon="0.06157">
        <ele>496</ele>
        <time>2025-08-11T06:28:42.000Z</time>
      </trkpt>
      <trkpt lat="43.11587" lon="0.06146">
        <ele>495.20001220703</ele>
        <time>2025-08-11T06:28:43.000Z</time>
      </trkpt>
      <trkpt lat="43.11585" lon="0.06134">
        <ele>495</ele>
        <time>2025-08-11T06:28:44.000Z</time>
      </trkpt>
      <trkpt lat="43.11585" lon="0.06109">
        <ele>493.39999389648</ele>
        <time>2025-08-11T06:28:46.000Z</time>
      </trkpt>
      <trkpt lat="43.11585" lon="0.06097">
        <ele>493</ele>
        <time>2025-08-11T06:28:47.000Z</time>
      </trkpt>
      <trkpt lat="43.11585" lon="0.06085">
        <ele>492.20001220703</ele>
        <time>2025-08-11T06:28:48.000Z</time>
      </trkpt>
      <trkpt lat="43.11585" lon="0.06074">
        <ele>492</ele>
        <time>2025-08-11T06:28:49.000Z</time>
      </trkpt>
      <trkpt lat="43.11584" lon="0.06064">
        <ele>491.20001220703</ele>
        <time>2025-08-11T06:28:50.000Z</time>
      </trkpt>
      <trkpt lat="43.11582" lon="0.06055">
        <ele>490.60000610352</ele>
        <time>2025-08-11T06:28:51.000Z</time>
      </trkpt>
      <trkpt lat="43.1158" lon="0.06047">
        <ele>489.79998779297</ele>
        <time>2025-08-11T06:28:52.000Z</time>
      </trkpt>
      <trkpt lat="43.11576" lon="0.06041">
        <ele>489.20001220703</ele>
        <time>2025-08-11T06:28:53.000Z</time>
      </trkpt>
      <trkpt lat="43.11571" lon="0.06036">
        <ele>488.60000610352</ele>
        <time>2025-08-11T06:28:54.000Z</time>
      </trkpt>
      <trkpt lat="43.11556" lon="0.0602">
        <ele>487</ele>
        <time>2025-08-11T06:28:57.000Z</time>
      </trkpt>
      <trkpt lat="43.11551" lon="0.06012">
        <ele>486.79998779297</ele>
        <time>2025-08-11T06:28:58.000Z</time>
      </trkpt>
      <trkpt lat="43.11546" lon="0.06003">
        <ele>486.20001220703</ele>
        <time>2025-08-11T06:28:59.000Z</time>
      </trkpt>
      <trkpt lat="43.11541" lon="0.05994">
        <ele>485.20001220703</ele>
        <time>2025-08-11T06:29:00.000Z</time>
      </trkpt>
      <trkpt lat="43.11537" lon="0.05982">
        <ele>485</ele>
        <time>2025-08-11T06:29:01.000Z</time>
      </trkpt>
      <trkpt lat="43.11535" lon="0.05972">
        <ele>484</ele>
        <time>2025-08-11T06:29:02.000Z</time>
      </trkpt>
      <trkpt lat="43.11532" lon="0.05958">
        <ele>483.60000610352</ele>
        <time>2025-08-11T06:29:03.000Z</time>
      </trkpt>
      <trkpt lat="43.11529" lon="0.05947">
        <ele>483</ele>
        <time>2025-08-11T06:29:04.000Z</time>
      </trkpt>
      <trkpt lat="43.11521" lon="0.05929">
        <ele>482.20001220703</ele>
        <time>2025-08-11T06:29:06.000Z</time>
      </trkpt>
      <trkpt lat="43.11515" lon="0.05921">
        <ele>481.60000610352</ele>
        <time>2025-08-11T06:29:07.000Z</time>
      </trkpt>
      <trkpt lat="43.11508" lon="0.05914">
        <ele>481.20001220703</ele>
        <time>2025-08-11T06:29:08.000Z</time>
      </trkpt>
      <trkpt lat="43.11503" lon="0.0591">
        <ele>480.20001220703</ele>
        <time>2025-08-11T06:29:09.000Z</time>
      </trkpt>
      <trkpt lat="43.11483" lon="0.05889">
        <ele>479</ele>
        <time>2025-08-11T06:29:12.000Z</time>
      </trkpt>
      <trkpt lat="43.11476" lon="0.0588">
        <ele>478.20001220703</ele>
        <time>2025-08-11T06:29:13.000Z</time>
      </trkpt>
      <trkpt lat="43.11471" lon="0.05873">
        <ele>477.39999389648</ele>
        <time>2025-08-11T06:29:14.000Z</time>
      </trkpt>
      <trkpt lat="43.11456" lon="0.05854">
        <ele>476</ele>
        <time>2025-08-11T06:29:16.000Z</time>
      </trkpt>
      <trkpt lat="43.11444" lon="0.05837">
        <ele>474.79998779297</ele>
        <time>2025-08-11T06:29:18.000Z</time>
      </trkpt>
      <trkpt lat="43.11436" lon="0.05826">
        <ele>474.20001220703</ele>
        <time>2025-08-11T06:29:19.000Z</time>
      </trkpt>
      <trkpt lat="43.11429" lon="0.05817">
        <ele>473.39999389648</ele>
        <time>2025-08-11T06:29:20.000Z</time>
      </trkpt>
      <trkpt lat="43.11417" lon="0.058">
        <ele>472.20001220703</ele>
        <time>2025-08-11T06:29:22.000Z</time>
      </trkpt>
      <trkpt lat="43.11405" lon="0.05784">
        <ele>471</ele>
        <time>2025-08-11T06:29:24.000Z</time>
      </trkpt>
      <trkpt lat="43.114" lon="0.05777">
        <ele>469.79998779297</ele>
        <time>2025-08-11T06:29:25.000Z</time>
      </trkpt>
      <trkpt lat="43.11388" lon="0.05761">
        <ele>468.39999389648</ele>
        <time>2025-08-11T06:29:27.000Z</time>
      </trkpt>
      <trkpt lat="43.11377" lon="0.05746">
        <ele>467</ele>
        <time>2025-08-11T06:29:29.000Z</time>
      </trkpt>
      <trkpt lat="43.11365" lon="0.05731">
        <ele>465.79998779297</ele>
        <time>2025-08-11T06:29:31.000Z</time>
      </trkpt>
      <trkpt lat="43.11359" lon="0.05723">
        <ele>464.79998779297</ele>
        <time>2025-08-11T06:29:32.000Z</time>
      </trkpt>
      <trkpt lat="43.11353" lon="0.05715">
        <ele>464.60000610352</ele>
        <time>2025-08-11T06:29:33.000Z</time>
      </trkpt>
      <trkpt lat="43.11342" lon="0.057">
        <ele>463.20001220703</ele>
        <time>2025-08-11T06:29:35.000Z</time>
      </trkpt>
      <trkpt lat="43.11327" lon="0.05681">
        <ele>462.20001220703</ele>
        <time>2025-08-11T06:29:37.000Z</time>
      </trkpt>
      <trkpt lat="43.11306" lon="0.05659">
        <ele>460.79998779297</ele>
        <time>2025-08-11T06:29:40.000Z</time>
      </trkpt>
      <trkpt lat="43.113" lon="0.0565">
        <ele>459.79998779297</ele>
        <time>2025-08-11T06:29:41.000Z</time>
      </trkpt>
      <trkpt lat="43.11292" lon="0.0564">
        <ele>459</ele>
        <time>2025-08-11T06:29:42.000Z</time>
      </trkpt>
      <trkpt lat="43.11284" lon="0.05632">
        <ele>458.60000610352</ele>
        <time>2025-08-11T06:29:43.000Z</time>
      </trkpt>
      <trkpt lat="43.11269" lon="0.05622">
        <ele>456.79998779297</ele>
        <time>2025-08-11T06:29:45.000Z</time>
      </trkpt>
      <trkpt lat="43.11262" lon="0.05616">
        <ele>455.79998779297</ele>
        <time>2025-08-11T06:29:46.000Z</time>
      </trkpt>
      <trkpt lat="43.1125" lon="0.05604">
        <ele>454.60000610352</ele>
        <time>2025-08-11T06:29:48.000Z</time>
      </trkpt>
      <trkpt lat="43.11245" lon="0.05595">
        <ele>453.60000610352</ele>
        <time>2025-08-11T06:29:49.000Z</time>
      </trkpt>
      <trkpt lat="43.11239" lon="0.05585">
        <ele>453</ele>
        <time>2025-08-11T06:29:50.000Z</time>
      </trkpt>
      <trkpt lat="43.11235" lon="0.05572">
        <ele>452.20001220703</ele>
        <time>2025-08-11T06:29:51.000Z</time>
      </trkpt>
      <trkpt lat="43.11232" lon="0.05559">
        <ele>452</ele>
        <time>2025-08-11T06:29:52.000Z</time>
      </trkpt>
      <trkpt lat="43.1123" lon="0.05545">
        <ele>450.79998779297</ele>
        <time>2025-08-11T06:29:53.000Z</time>
      </trkpt>
      <trkpt lat="43.11228" lon="0.05519">
        <ele>449.39999389648</ele>
        <time>2025-08-11T06:29:55.000Z</time>
      </trkpt>
      <trkpt lat="43.11228" lon="0.05506">
        <ele>448.39999389648</ele>
        <time>2025-08-11T06:29:56.000Z</time>
      </trkpt>
      <trkpt lat="43.11228" lon="0.05495">
        <ele>448</ele>
        <time>2025-08-11T06:29:57.000Z</time>
      </trkpt>
      <trkpt lat="43.11229" lon="0.05482">
        <ele>447</ele>
        <time>2025-08-11T06:29:58.000Z</time>
      </trkpt>
      <trkpt lat="43.11231" lon="0.05456">
        <ele>445.39999389648</ele>
        <time>2025-08-11T06:30:00.000Z</time>
      </trkpt>
      <trkpt lat="43.11236" lon="0.05426">
        <ele>444</ele>
        <time>2025-08-11T06:30:02.000Z</time>
      </trkpt>
      <trkpt lat="43.11238" lon="0.05412">
        <ele>442.79998779297</ele>
        <time>2025-08-11T06:30:03.000Z</time>
      </trkpt>
      <trkpt lat="43.11244" lon="0.05383">
        <ele>441.20001220703</ele>
        <time>2025-08-11T06:30:05.000Z</time>
      </trkpt>
      <trkpt lat="43.1125" lon="0.05357">
        <ele>440</ele>
        <time>2025-08-11T06:30:07.000Z</time>
      </trkpt>
      <trkpt lat="43.11257" lon="0.05336">
        <ele>438.20001220703</ele>
        <time>2025-08-11T06:30:09.000Z</time>
      </trkpt>
      <trkpt lat="43.11261" lon="0.05325">
        <ele>437.20001220703</ele>
        <time>2025-08-11T06:30:10.000Z</time>
      </trkpt>
      <trkpt lat="43.1127" lon="0.05302">
        <ele>435.60000610352</ele>
        <time>2025-08-11T06:30:12.000Z</time>
      </trkpt>
      <trkpt lat="43.11279" lon="0.05282">
        <ele>434</ele>
        <time>2025-08-11T06:30:14.000Z</time>
      </trkpt>
      <trkpt lat="43.1129" lon="0.05263">
        <ele>432.39999389648</ele>
        <time>2025-08-11T06:30:16.000Z</time>
      </trkpt>
      <trkpt lat="43.11294" lon="0.05255">
        <ele>431.60000610352</ele>
        <time>2025-08-11T06:30:17.000Z</time>
      </trkpt>
      <trkpt lat="43.11301" lon="0.05247">
        <ele>431.20001220703</ele>
        <time>2025-08-11T06:30:18.000Z</time>
      </trkpt>
      <trkpt lat="43.11315" lon="0.05229">
        <ele>429.79998779297</ele>
        <time>2025-08-11T06:30:20.000Z</time>
      </trkpt>
      <trkpt lat="43.11321" lon="0.05222">
        <ele>428.60000610352</ele>
        <time>2025-08-11T06:30:21.000Z</time>
      </trkpt>
      <trkpt lat="43.11328" lon="0.05216">
        <ele>428.20001220703</ele>
        <time>2025-08-11T06:30:22.000Z</time>
      </trkpt>
      <trkpt lat="43.11335" lon="0.0521">
        <ele>427.20001220703</ele>
        <time>2025-08-11T06:30:23.000Z</time>
      </trkpt>
      <trkpt lat="43.11342" lon="0.05203">
        <ele>426.20001220703</ele>
        <time>2025-08-11T06:30:24.000Z</time>
      </trkpt>
      <trkpt lat="43.11349" lon="0.05196">
        <ele>425.79998779297</ele>
        <time>2025-08-11T06:30:25.000Z</time>
      </trkpt>
      <trkpt lat="43.11354" lon="0.05188">
        <ele>425</ele>
        <time>2025-08-11T06:30:26.000Z</time>
      </trkpt>
      <trkpt lat="43.11358" lon="0.05179">
        <ele>424.60000610352</ele>
        <time>2025-08-11T06:30:27.000Z</time>
      </trkpt>
      <trkpt lat="43.11361" lon="0.05169">
        <ele>423.79998779297</ele>
        <time>2025-08-11T06:30:28.000Z</time>
      </trkpt>
      <trkpt lat="43.11362" lon="0.05158">
        <ele>423.39999389648</ele>
        <time>2025-08-11T06:30:29.000Z</time>
      </trkpt>
      <trkpt lat="43.11363" lon="0.05147">
        <ele>422.60000610352</ele>
        <time>2025-08-11T06:30:30.000Z</time>
      </trkpt>
      <trkpt lat="43.11362" lon="0.05136">
        <ele>421.60000610352</ele>
        <time>2025-08-11T06:30:31.000Z</time>
      </trkpt>
      <trkpt lat="43.11361" lon="0.05125">
        <ele>421.20001220703</ele>
        <time>2025-08-11T06:30:32.000Z</time>
      </trkpt>
      <trkpt lat="43.11358" lon="0.05104">
        <ele>420.20001220703</ele>
        <time>2025-08-11T06:30:34.000Z</time>
      </trkpt>
      <trkpt lat="43.11359" lon="0.05081">
        <ele>419</ele>
        <time>2025-08-11T06:30:36.000Z</time>
      </trkpt>
      <trkpt lat="43.11361" lon="0.0507">
        <ele>418.20001220703</ele>
        <time>2025-08-11T06:30:37.000Z</time>
      </trkpt>
      <trkpt lat="43.11365" lon="0.05059">
        <ele>417.39999389648</ele>
        <time>2025-08-11T06:30:38.000Z</time>
      </trkpt>
      <trkpt lat="43.11376" lon="0.05038">
        <ele>416.20001220703</ele>
        <time>2025-08-11T06:30:40.000Z</time>
      </trkpt>
      <trkpt lat="43.11387" lon="0.0502">
        <ele>414.39999389648</ele>
        <time>2025-08-11T06:30:42.000Z</time>
      </trkpt>
      <trkpt lat="43.11399" lon="0.05">
        <ele>412.79998779297</ele>
        <time>2025-08-11T06:30:44.000Z</time>
      </trkpt>
      <trkpt lat="43.11404" lon="0.0499">
        <ele>411.79998779297</ele>
        <time>2025-08-11T06:30:45.000Z</time>
      </trkpt>
      <trkpt lat="43.11409" lon="0.04969">
        <ele>410.39999389648</ele>
        <time>2025-08-11T06:30:47.000Z</time>
      </trkpt>
      <trkpt lat="43.1141" lon="0.04958">
        <ele>410</ele>
        <time>2025-08-11T06:30:48.000Z</time>
      </trkpt>
      <trkpt lat="43.11411" lon="0.04934">
        <ele>409.20001220703</ele>
        <time>2025-08-11T06:30:50.000Z</time>
      </trkpt>
      <trkpt lat="43.11411" lon="0.04922">
        <ele>408.79998779297</ele>
        <time>2025-08-11T06:30:51.000Z</time>
      </trkpt>
      <trkpt lat="43.11408" lon="0.049">
        <ele>408.20001220703</ele>
        <time>2025-08-11T06:30:53.000Z</time>
      </trkpt>
      <trkpt lat="43.11398" lon="0.04866">
        <ele>406.79998779297</ele>
        <time>2025-08-11T06:30:56.000Z</time>
      </trkpt>
      <trkpt lat="43.11392" lon="0.04843">
        <ele>406</ele>
        <time>2025-08-11T06:30:58.000Z</time>
      </trkpt>
      <trkpt lat="43.11389" lon="0.04831">
        <ele>405.39999389648</ele>
        <time>2025-08-11T06:30:59.000Z</time>
      </trkpt>
      <trkpt lat="43.11387" lon="0.04819">
        <ele>405.39999389648</ele>
        <time>2025-08-11T06:31:00.000Z</time>
      </trkpt>
      <trkpt lat="43.11384" lon="0.04794">
        <ele>404.39999389648</ele>
        <time>2025-08-11T06:31:02.000Z</time>
      </trkpt>
      <trkpt lat="43.1138" lon="0.04755">
        <ele>403</ele>
        <time>2025-08-11T06:31:05.000Z</time>
      </trkpt>
      <trkpt lat="43.11372" lon="0.04731">
        <ele>402</ele>
        <time>2025-08-11T06:31:07.000Z</time>
      </trkpt>
      <trkpt lat="43.11368" lon="0.0472">
        <ele>401.39999389648</ele>
        <time>2025-08-11T06:31:08.000Z</time>
      </trkpt>
      <trkpt lat="43.11359" lon="0.04701">
        <ele>400.20001220703</ele>
        <time>2025-08-11T06:31:10.000Z</time>
      </trkpt>
      <trkpt lat="43.11342" lon="0.04663">
        <ele>399.60000610352</ele>
        <time>2025-08-11T06:31:14.000Z</time>
      </trkpt>
      <trkpt lat="43.11338" lon="0.04654">
        <ele>399.60000610352</ele>
        <time>2025-08-11T06:31:15.000Z</time>
      </trkpt>
      <trkpt lat="43.11321" lon="0.04615">
        <ele>399.39999389648</ele>
        <time>2025-08-11T06:31:20.000Z</time>
      </trkpt>
      <trkpt lat="43.11305" lon="0.04578">
        <ele>399.39999389648</ele>
        <time>2025-08-11T06:31:26.000Z</time>
      </trkpt>
      <trkpt lat="43.11301" lon="0.04572">
        <ele>399.39999389648</ele>
        <time>2025-08-11T06:31:28.000Z</time>
      </trkpt>
      <trkpt lat="43.113" lon="0.04574">
        <ele>399.20001220703</ele>
        <time>2025-08-11T06:31:29.000Z</time>
      </trkpt>
      <trkpt lat="43.11306" lon="0.04587">
        <ele>399.20001220703</ele>
        <time>2025-08-11T06:31:33.000Z</time>
      </trkpt>
      <trkpt lat="43.11318" lon="0.04617">
        <ele>399.20001220703</ele>
        <time>2025-08-11T06:31:39.000Z</time>
      </trkpt>
      <trkpt lat="43.11332" lon="0.04648">
        <ele>399</ele>
        <time>2025-08-11T06:31:45.000Z</time>
      </trkpt>
      <trkpt lat="43.11334" lon="0.04651">
        <ele>399.20001220703</ele>
        <time>2025-08-11T06:31:46.000Z</time>
      </trkpt>
      <trkpt lat="43.1134" lon="0.04659">
        <ele>399.20001220703</ele>
        <time>2025-08-11T06:31:48.000Z</time>
      </trkpt>
      <trkpt lat="43.11349" lon="0.04659">
        <ele>399</ele>
        <time>2025-08-11T06:31:50.000Z</time>
      </trkpt>
      <trkpt lat="43.11354" lon="0.04658">
        <ele>399</ele>
        <time>2025-08-11T06:31:51.000Z</time>
      </trkpt>
      <trkpt lat="43.1136" lon="0.04656">
        <ele>399</ele>
        <time>2025-08-11T06:31:52.000Z</time>
      </trkpt>
      <trkpt lat="43.11368" lon="0.04653">
        <ele>398.79998779297</ele>
        <time>2025-08-11T06:31:54.000Z</time>
      </trkpt>
      <trkpt lat="43.11379" lon="0.04646">
        <ele>398.20001220703</ele>
        <time>2025-08-11T06:31:59.000Z</time>
      </trkpt>
      <trkpt lat="43.11379" lon="0.04646">
        <ele>397.79998779297</ele>
        <time>2025-08-11T06:32:01.000Z</time>
      </trkpt>
      <trkpt lat="43.11379" lon="0.0464">
        <ele>397</ele>
        <time>2025-08-11T06:32:55.000Z</time>
      </trkpt>
      <trkpt lat="43.11378" lon="0.04638">
        <ele>397</ele>
        <time>2025-08-11T06:32:56.000Z</time>
      </trkpt>
      <trkpt lat="43.11379" lon="0.04636">
        <ele>397</ele>
        <time>2025-08-11T06:32:57.000Z</time>
      </trkpt>
      <trkpt lat="43.1138" lon="0.04635">
        <ele>397</ele>
        <time>2025-08-11T06:32:59.000Z</time>
      </trkpt>
      <trkpt lat="43.11382" lon="0.04636">
        <ele>397</ele>
        <time>2025-08-11T06:33:01.000Z</time>
      </trkpt>
      <trkpt lat="43.11382" lon="0.04637">
        <ele>397</ele>
        <time>2025-08-11T06:33:02.000Z</time>
      </trkpt>
      <trkpt lat="43.11382" lon="0.04638">
        <ele>397</ele>
        <time>2025-08-11T06:33:05.000Z</time>
      </trkpt>
      <trkpt lat="43.11376" lon="0.04645">
        <ele>397.20001220703</ele>
        <time>2025-08-11T06:34:26.000Z</time>
      </trkpt>
      <trkpt lat="43.1136" lon="0.04652">
        <ele>397.39999389648</ele>
        <time>2025-08-11T06:34:32.000Z</time>
      </trkpt>
      <trkpt lat="43.11344" lon="0.04657">
        <ele>397.79998779297</ele>
        <time>2025-08-11T06:34:39.000Z</time>
      </trkpt>
      <trkpt lat="43.11343" lon="0.04657">
        <ele>398.20001220703</ele>
        <time>2025-08-11T06:34:42.000Z</time>
      </trkpt>
      <trkpt lat="43.1134" lon="0.04653">
        <ele>398.39999389648</ele>
        <time>2025-08-11T06:34:51.000Z</time>
      </trkpt>
      <trkpt lat="43.11338" lon="0.0465">
        <ele>398.39999389648</ele>
        <time>2025-08-11T06:34:52.000Z</time>
      </trkpt>
      <trkpt lat="43.11331" lon="0.04634">
        <ele>398.39999389648</ele>
        <time>2025-08-11T06:34:56.000Z</time>
      </trkpt>
      <trkpt lat="43.11315" lon="0.04599">
        <ele>398.60000610352</ele>
        <time>2025-08-11T06:35:03.000Z</time>
      </trkpt>
      <trkpt lat="43.11293" lon="0.04549">
        <ele>398.60000610352</ele>
        <time>2025-08-11T06:35:12.000Z</time>
      </trkpt>
      <trkpt lat="43.11265" lon="0.04484">
        <ele>398.79998779297</ele>
        <time>2025-08-11T06:35:23.000Z</time>
      </trkpt>
      <trkpt lat="43.11236" lon="0.04421">
        <ele>399.20001220703</ele>
        <time>2025-08-11T06:35:34.000Z</time>
      </trkpt>
      <trkpt lat="43.11207" lon="0.04354">
        <ele>399.20001220703</ele>
        <time>2025-08-11T06:35:45.000Z</time>
      </trkpt>
      <trkpt lat="43.11205" lon="0.04348">
        <ele>399.20001220703</ele>
        <time>2025-08-11T06:35:46.000Z</time>
      </trkpt>
      <trkpt lat="43.11183" lon="0.04298">
        <ele>399.20001220703</ele>
        <time>2025-08-11T06:35:54.000Z</time>
      </trkpt>
      <trkpt lat="43.11157" lon="0.04238">
        <ele>399</ele>
        <time>2025-08-11T06:36:04.000Z</time>
      </trkpt>
      <trkpt lat="43.11132" lon="0.0418">
        <ele>399.20001220703</ele>
        <time>2025-08-11T06:36:14.000Z</time>
      </trkpt>
      <trkpt lat="43.11114" lon="0.04138">
        <ele>399.39999389648</ele>
        <time>2025-08-11T06:36:22.000Z</time>
      </trkpt>
      <trkpt lat="43.11092" lon="0.04085">
        <ele>399.60000610352</ele>
        <time>2025-08-11T06:36:32.000Z</time>
      </trkpt>
      <trkpt lat="43.11089" lon="0.0408">
        <ele>399.60000610352</ele>
        <time>2025-08-11T06:36:33.000Z</time>
      </trkpt>
      <trkpt lat="43.11072" lon="0.04039">
        <ele>399.79998779297</ele>
        <time>2025-08-11T06:36:41.000Z</time>
      </trkpt>
      <trkpt lat="43.11047" lon="0.03982">
        <ele>399.79998779297</ele>
        <time>2025-08-11T06:36:51.000Z</time>
      </trkpt>
      <trkpt lat="43.11042" lon="0.03971">
        <ele>399.79998779297</ele>
        <time>2025-08-11T06:36:53.000Z</time>
      </trkpt>
      <trkpt lat="43.11023" lon="0.03925">
        <ele>400</ele>
        <time>2025-08-11T06:37:01.000Z</time>
      </trkpt>
      <trkpt lat="43.10997" lon="0.03864">
        <ele>400</ele>
        <time>2025-08-11T06:37:12.000Z</time>
      </trkpt>
      <trkpt lat="43.1099" lon="0.03849">
        <ele>400</ele>
        <time>2025-08-11T06:37:15.000Z</time>
      </trkpt>
      <trkpt lat="43.10969" lon="0.038">
        <ele>400.20001220703</ele>
        <time>2025-08-11T06:37:24.000Z</time>
      </trkpt>
      <trkpt lat="43.10952" lon="0.03761">
        <ele>400.20001220703</ele>
        <time>2025-08-11T06:37:32.000Z</time>
      </trkpt>
      <trkpt lat="43.10938" lon="0.03727">
        <ele>400.60000610352</ele>
        <time>2025-08-11T06:37:40.000Z</time>
      </trkpt>
      <trkpt lat="43.10924" lon="0.03696">
        <ele>400.79998779297</ele>
        <time>2025-08-11T06:37:45.000Z</time>
      </trkpt>
      <trkpt lat="43.10917" lon="0.03678">
        <ele>401</ele>
        <time>2025-08-11T06:37:49.000Z</time>
      </trkpt>
      <trkpt lat="43.10894" lon="0.03628">
        <ele>401.39999389648</ele>
        <time>2025-08-11T06:37:59.000Z</time>
      </trkpt>
      <trkpt lat="43.10875" lon="0.03584">
        <ele>402</ele>
        <time>2025-08-11T06:38:08.000Z</time>
      </trkpt>
      <trkpt lat="43.10873" lon="0.0358">
        <ele>402</ele>
        <time>2025-08-11T06:38:09.000Z</time>
      </trkpt>
      <trkpt lat="43.1085" lon="0.03524">
        <ele>402.60000610352</ele>
        <time>2025-08-11T06:38:20.000Z</time>
      </trkpt>
      <trkpt lat="43.10829" lon="0.03474">
        <ele>402.60000610352</ele>
        <time>2025-08-11T06:38:29.000Z</time>
      </trkpt>
      <trkpt lat="43.10805" lon="0.03419">
        <ele>402.60000610352</ele>
        <time>2025-08-11T06:38:39.000Z</time>
      </trkpt>
      <trkpt lat="43.10777" lon="0.03361">
        <ele>402.60000610352</ele>
        <time>2025-08-11T06:38:50.000Z</time>
      </trkpt>
      <trkpt lat="43.10745" lon="0.03321">
        <ele>402.60000610352</ele>
        <time>2025-08-11T06:38:59.000Z</time>
      </trkpt>
      <trkpt lat="43.10699" lon="0.03283">
        <ele>402.60000610352</ele>
        <time>2025-08-11T06:39:11.000Z</time>
      </trkpt>
      <trkpt lat="43.10699" lon="0.03283">
        <ele>402.60000610352</ele>
        <time>2025-08-11T06:39:12.000Z</time>
      </trkpt>
      <trkpt lat="43.10654" lon="0.03258">
        <ele>402.39999389648</ele>
        <time>2025-08-11T06:39:20.000Z</time>
      </trkpt>
      <trkpt lat="43.10637" lon="0.0325">
        <ele>402.20001220703</ele>
        <time>2025-08-11T06:39:23.000Z</time>
      </trkpt>
      <trkpt lat="43.10624" lon="0.03245">
        <ele>402</ele>
        <time>2025-08-11T06:39:25.000Z</time>
      </trkpt>
      <trkpt lat="43.10575" lon="0.03225">
        <ele>401.39999389648</ele>
        <time>2025-08-11T06:39:32.000Z</time>
      </trkpt>
      <trkpt lat="43.10568" lon="0.03222">
        <ele>401.20001220703</ele>
        <time>2025-08-11T06:39:33.000Z</time>
      </trkpt>
      <trkpt lat="43.10541" lon="0.03205">
        <ele>400.39999389648</ele>
        <time>2025-08-11T06:39:37.000Z</time>
      </trkpt>
      <trkpt lat="43.10535" lon="0.03199">
        <ele>400.39999389648</ele>
        <time>2025-08-11T06:39:38.000Z</time>
      </trkpt>
      <trkpt lat="43.1053" lon="0.03191">
        <ele>400</ele>
        <time>2025-08-11T06:39:39.000Z</time>
      </trkpt>
      <trkpt lat="43.10522" lon="0.03173">
        <ele>399.39999389648</ele>
        <time>2025-08-11T06:39:41.000Z</time>
      </trkpt>
      <trkpt lat="43.10519" lon="0.03164">
        <ele>399.20001220703</ele>
        <time>2025-08-11T06:39:42.000Z</time>
      </trkpt>
      <trkpt lat="43.1051" lon="0.0313">
        <ele>398.79998779297</ele>
        <time>2025-08-11T06:39:46.000Z</time>
      </trkpt>
      <trkpt lat="43.10506" lon="0.03115">
        <ele>398.60000610352</ele>
        <time>2025-08-11T06:39:48.000Z</time>
      </trkpt>
      <trkpt lat="43.10501" lon="0.03103">
        <ele>398.39999389648</ele>
        <time>2025-08-11T06:39:50.000Z</time>
      </trkpt>
      <trkpt lat="43.10497" lon="0.03098">
        <ele>398.39999389648</ele>
        <time>2025-08-11T06:39:51.000Z</time>
      </trkpt>
      <trkpt lat="43.1049" lon="0.0309">
        <ele>398.39999389648</ele>
        <time>2025-08-11T06:39:53.000Z</time>
      </trkpt>
      <trkpt lat="43.10487" lon="0.03086">
        <ele>398.39999389648</ele>
        <time>2025-08-11T06:39:54.000Z</time>
      </trkpt>
      <trkpt lat="43.10479" lon="0.0308">
        <ele>398.60000610352</ele>
        <time>2025-08-11T06:39:56.000Z</time>
      </trkpt>
      <trkpt lat="43.10464" lon="0.03073">
        <ele>399.20001220703</ele>
        <time>2025-08-11T06:40:00.000Z</time>
      </trkpt>
      <trkpt lat="43.10448" lon="0.03069">
        <ele>399.79998779297</ele>
        <time>2025-08-11T06:40:04.000Z</time>
      </trkpt>
      <trkpt lat="43.1043" lon="0.03064">
        <ele>400.39999389648</ele>
        <time>2025-08-11T06:40:09.000Z</time>
      </trkpt>
      <trkpt lat="43.10411" lon="0.0306">
        <ele>401</ele>
        <time>2025-08-11T06:40:15.000Z</time>
      </trkpt>
      <trkpt lat="43.10407" lon="0.03059">
        <ele>401</ele>
        <time>2025-08-11T06:40:16.000Z</time>
      </trkpt>
      <trkpt lat="43.10375" lon="0.03052">
        <ele>401.79998779297</ele>
        <time>2025-08-11T06:40:26.000Z</time>
      </trkpt>
      <trkpt lat="43.10364" lon="0.0305">
        <ele>402.20001220703</ele>
        <time>2025-08-11T06:40:30.000Z</time>
      </trkpt>
      <trkpt lat="43.10349" lon="0.03046">
        <ele>403</ele>
        <time>2025-08-11T06:40:35.000Z</time>
      </trkpt>
      <trkpt lat="43.10341" lon="0.03044">
        <ele>403.39999389648</ele>
        <time>2025-08-11T06:40:38.000Z</time>
      </trkpt>
      <trkpt lat="43.10318" lon="0.03038">
        <ele>404.20001220703</ele>
        <time>2025-08-11T06:40:46.000Z</time>
      </trkpt>
      <trkpt lat="43.10316" lon="0.03038">
        <ele>404.39999389648</ele>
        <time>2025-08-11T06:40:47.000Z</time>
      </trkpt>
      <trkpt lat="43.10291" lon="0.03032">
        <ele>405.60000610352</ele>
        <time>2025-08-11T06:40:55.000Z</time>
      </trkpt>
      <trkpt lat="43.10277" lon="0.03029">
        <ele>406.20001220703</ele>
        <time>2025-08-11T06:41:00.000Z</time>
      </trkpt>
      <trkpt lat="43.10262" lon="0.03024">
        <ele>406.60000610352</ele>
        <time>2025-08-11T06:41:05.000Z</time>
      </trkpt>
      <trkpt lat="43.10248" lon="0.03018">
        <ele>407</ele>
        <time>2025-08-11T06:41:10.000Z</time>
      </trkpt>
      <trkpt lat="43.10242" lon="0.03016">
        <ele>407</ele>
        <time>2025-08-11T06:41:12.000Z</time>
      </trkpt>
      <trkpt lat="43.10227" lon="0.03007">
        <ele>407.60000610352</ele>
        <time>2025-08-11T06:41:17.000Z</time>
      </trkpt>
      <trkpt lat="43.10224" lon="0.03005">
        <ele>407.79998779297</ele>
        <time>2025-08-11T06:41:18.000Z</time>
      </trkpt>
      <trkpt lat="43.10201" lon="0.02988">
        <ele>408.39999389648</ele>
        <time>2025-08-11T06:41:26.000Z</time>
      </trkpt>
      <trkpt lat="43.10187" lon="0.02977">
        <ele>408.60000610352</ele>
        <time>2025-08-11T06:41:31.000Z</time>
      </trkpt>
      <trkpt lat="43.10179" lon="0.02969">
        <ele>408.79998779297</ele>
        <time>2025-08-11T06:41:34.000Z</time>
      </trkpt>
      <trkpt lat="43.10157" lon="0.02945">
        <ele>409.20001220703</ele>
        <time>2025-08-11T06:41:42.000Z</time>
      </trkpt>
      <trkpt lat="43.10141" lon="0.02923">
        <ele>409.20001220703</ele>
        <time>2025-08-11T06:41:47.000Z</time>
      </trkpt>
      <trkpt lat="43.10115" lon="0.02878">
        <ele>408.79998779297</ele>
        <time>2025-08-11T06:41:55.000Z</time>
      </trkpt>
      <trkpt lat="43.10092" lon="0.0282">
        <ele>408.60000610352</ele>
        <time>2025-08-11T06:42:05.000Z</time>
      </trkpt>
      <trkpt lat="43.10079" lon="0.02761">
        <ele>408.20001220703</ele>
        <time>2025-08-11T06:42:14.000Z</time>
      </trkpt>
      <trkpt lat="43.10066" lon="0.0271">
        <ele>408</ele>
        <time>2025-08-11T06:42:21.000Z</time>
      </trkpt>
      <trkpt lat="43.10044" lon="0.0267">
        <ele>407.60000610352</ele>
        <time>2025-08-11T06:42:27.000Z</time>
      </trkpt>
      <trkpt lat="43.10036" lon="0.02658">
        <ele>407.20001220703</ele>
        <time>2025-08-11T06:42:29.000Z</time>
      </trkpt>
      <trkpt lat="43.10007" lon="0.02622">
        <ele>406.39999389648</ele>
        <time>2025-08-11T06:42:36.000Z</time>
      </trkpt>
      <trkpt lat="43.09984" lon="0.02587">
        <ele>406.60000610352</ele>
        <time>2025-08-11T06:42:43.000Z</time>
      </trkpt>
      <trkpt lat="43.09982" lon="0.02582">
        <ele>406.60000610352</ele>
        <time>2025-08-11T06:42:44.000Z</time>
      </trkpt>
      <trkpt lat="43.0997" lon="0.02545">
        <ele>407.39999389648</ele>
        <time>2025-08-11T06:42:51.000Z</time>
      </trkpt>
      <trkpt lat="43.09963" lon="0.02511">
        <ele>408.39999389648</ele>
        <time>2025-08-11T06:42:58.000Z</time>
      </trkpt>
      <trkpt lat="43.09951" lon="0.02454">
        <ele>409</ele>
        <time>2025-08-11T06:43:09.000Z</time>
      </trkpt>
      <trkpt lat="43.09945" lon="0.02426">
        <ele>409.39999389648</ele>
        <time>2025-08-11T06:43:14.000Z</time>
      </trkpt>
      <trkpt lat="43.09939" lon="0.02398">
        <ele>409.79998779297</ele>
        <time>2025-08-11T06:43:19.000Z</time>
      </trkpt>
      <trkpt lat="43.09936" lon="0.02377">
        <ele>410</ele>
        <time>2025-08-11T06:43:23.000Z</time>
      </trkpt>
      <trkpt lat="43.09932" lon="0.0236">
        <ele>410.20001220703</ele>
        <time>2025-08-11T06:43:26.000Z</time>
      </trkpt>
      <trkpt lat="43.09924" lon="0.02318">
        <ele>410.39999389648</ele>
        <time>2025-08-11T06:43:34.000Z</time>
      </trkpt>
      <trkpt lat="43.09923" lon="0.02313">
        <ele>410.60000610352</ele>
        <time>2025-08-11T06:43:35.000Z</time>
      </trkpt>
      <trkpt lat="43.09913" lon="0.02266">
        <ele>410.79998779297</ele>
        <time>2025-08-11T06:43:44.000Z</time>
      </trkpt>
      <trkpt lat="43.09904" lon="0.02222">
        <ele>411.20001220703</ele>
        <time>2025-08-11T06:43:52.000Z</time>
      </trkpt>
      <trkpt lat="43.09895" lon="0.02178">
        <ele>411.60000610352</ele>
        <time>2025-08-11T06:44:00.000Z</time>
      </trkpt>
      <trkpt lat="43.09894" lon="0.02172">
        <ele>411.79998779297</ele>
        <time>2025-08-11T06:44:01.000Z</time>
      </trkpt>
      <trkpt lat="43.09886" lon="0.02131">
        <ele>412</ele>
        <time>2025-08-11T06:44:09.000Z</time>
      </trkpt>
      <trkpt lat="43.09876" lon="0.02081">
        <ele>412.60000610352</ele>
        <time>2025-08-11T06:44:19.000Z</time>
      </trkpt>
      <trkpt lat="43.09875" lon="0.02077">
        <ele>412.39999389648</ele>
        <time>2025-08-11T06:44:20.000Z</time>
      </trkpt>
      <trkpt lat="43.0987" lon="0.02047">
        <ele>413.20001220703</ele>
        <time>2025-08-11T06:44:27.000Z</time>
      </trkpt>
      <trkpt lat="43.09867" lon="0.02035">
        <ele>413.60000610352</ele>
        <time>2025-08-11T06:44:30.000Z</time>
      </trkpt>
      <trkpt lat="43.09866" lon="0.02023">
        <ele>414</ele>
        <time>2025-08-11T06:44:33.000Z</time>
      </trkpt>
      <trkpt lat="43.09861" lon="0.02">
        <ele>414.60000610352</ele>
        <time>2025-08-11T06:44:39.000Z</time>
      </trkpt>
      <trkpt lat="43.09858" lon="0.01988">
        <ele>415</ele>
        <time>2025-08-11T06:44:42.000Z</time>
      </trkpt>
      <trkpt lat="43.09852" lon="0.01958">
        <ele>415.60000610352</ele>
        <time>2025-08-11T06:44:50.000Z</time>
      </trkpt>
      <trkpt lat="43.09852" lon="0.01955">
        <ele>415.79998779297</ele>
        <time>2025-08-11T06:44:51.000Z</time>
      </trkpt>
      <trkpt lat="43.09839" lon="0.01923">
        <ele>416.60000610352</ele>
        <time>2025-08-11T06:44:59.000Z</time>
      </trkpt>
      <trkpt lat="43.09836" lon="0.01919">
        <ele>416.60000610352</ele>
        <time>2025-08-11T06:45:00.000Z</time>
      </trkpt>
      <trkpt lat="43.09824" lon="0.01898">
        <ele>417.20001220703</ele>
        <time>2025-08-11T06:45:05.000Z</time>
      </trkpt>
      <trkpt lat="43.09804" lon="0.0186">
        <ele>417.20001220703</ele>
        <time>2025-08-11T06:45:14.000Z</time>
      </trkpt>
      <trkpt lat="43.09782" lon="0.01817">
        <ele>417.39999389648</ele>
        <time>2025-08-11T06:45:24.000Z</time>
      </trkpt>
      <trkpt lat="43.09765" lon="0.01781">
        <ele>417.60000610352</ele>
        <time>2025-08-11T06:45:32.000Z</time>
      </trkpt>
      <trkpt lat="43.09757" lon="0.01761">
        <ele>417.79998779297</ele>
        <time>2025-08-11T06:45:36.000Z</time>
      </trkpt>
      <trkpt lat="43.09746" lon="0.01734">
        <ele>418</ele>
        <time>2025-08-11T06:45:42.000Z</time>
      </trkpt>
      <trkpt lat="43.09739" lon="0.01716">
        <ele>418.60000610352</ele>
        <time>2025-08-11T06:45:47.000Z</time>
      </trkpt>
      <trkpt lat="43.09735" lon="0.01709">
        <ele>418.79998779297</ele>
        <time>2025-08-11T06:45:49.000Z</time>
      </trkpt>
      <trkpt lat="43.09725" lon="0.01689">
        <ele>419.20001220703</ele>
        <time>2025-08-11T06:45:54.000Z</time>
      </trkpt>
      <trkpt lat="43.09723" lon="0.01684">
        <ele>419.39999389648</ele>
        <time>2025-08-11T06:45:55.000Z</time>
      </trkpt>
      <trkpt lat="43.09717" lon="0.01674">
        <ele>419.39999389648</ele>
        <time>2025-08-11T06:45:57.000Z</time>
      </trkpt>
      <trkpt lat="43.09714" lon="0.01668">
        <ele>419.39999389648</ele>
        <time>2025-08-11T06:45:58.000Z</time>
      </trkpt>
      <trkpt lat="43.09697" lon="0.01623">
        <ele>418.79998779297</ele>
        <time>2025-08-11T06:46:04.000Z</time>
      </trkpt>
      <trkpt lat="43.09678" lon="0.01569">
        <ele>417.60000610352</ele>
        <time>2025-08-11T06:46:10.000Z</time>
      </trkpt>
      <trkpt lat="43.09675" lon="0.0156">
        <ele>417.20001220703</ele>
        <time>2025-08-11T06:46:11.000Z</time>
      </trkpt>
      <trkpt lat="43.09666" lon="0.01536">
        <ele>416.39999389648</ele>
        <time>2025-08-11T06:46:14.000Z</time>
      </trkpt>
      <trkpt lat="43.09649" lon="0.01486">
        <ele>415.79998779297</ele>
        <time>2025-08-11T06:46:20.000Z</time>
      </trkpt>
      <trkpt lat="43.09643" lon="0.0146">
        <ele>415.60000610352</ele>
        <time>2025-08-11T06:46:23.000Z</time>
      </trkpt>
      <trkpt lat="43.09641" lon="0.01443">
        <ele>415.20001220703</ele>
        <time>2025-08-11T06:46:25.000Z</time>
      </trkpt>
      <trkpt lat="43.09641" lon="0.0139">
        <ele>414.60000610352</ele>
        <time>2025-08-11T06:46:32.000Z</time>
      </trkpt>
      <trkpt lat="43.09634" lon="0.01334">
        <ele>414.60000610352</ele>
        <time>2025-08-11T06:46:40.000Z</time>
      </trkpt>
      <trkpt lat="43.09631" lon="0.01323">
        <ele>414.79998779297</ele>
        <time>2025-08-11T06:46:42.000Z</time>
      </trkpt>
      <trkpt lat="43.09624" lon="0.01308">
        <ele>414.79998779297</ele>
        <time>2025-08-11T06:46:45.000Z</time>
      </trkpt>
      <trkpt lat="43.09604" lon="0.0127">
        <ele>415.39999389648</ele>
        <time>2025-08-11T06:46:53.000Z</time>
      </trkpt>
      <trkpt lat="43.09602" lon="0.01267">
        <ele>415.60000610352</ele>
        <time>2025-08-11T06:46:54.000Z</time>
      </trkpt>
      <trkpt lat="43.09588" lon="0.01242">
        <ele>416.79998779297</ele>
        <time>2025-08-11T06:47:00.000Z</time>
      </trkpt>
      <trkpt lat="43.09584" lon="0.01233">
        <ele>416.79998779297</ele>
        <time>2025-08-11T06:47:02.000Z</time>
      </trkpt>
      <trkpt lat="43.09571" lon="0.01208">
        <ele>417.20001220703</ele>
        <time>2025-08-11T06:47:08.000Z</time>
      </trkpt>
      <trkpt lat="43.09567" lon="0.012">
        <ele>417.20001220703</ele>
        <time>2025-08-11T06:47:10.000Z</time>
      </trkpt>
      <trkpt lat="43.09545" lon="0.01158">
        <ele>417.39999389648</ele>
        <time>2025-08-11T06:47:20.000Z</time>
      </trkpt>
      <trkpt lat="43.09529" lon="0.01128">
        <ele>417.79998779297</ele>
        <time>2025-08-11T06:47:28.000Z</time>
      </trkpt>
      <trkpt lat="43.09514" lon="0.01095">
        <ele>418.60000610352</ele>
        <time>2025-08-11T06:47:37.000Z</time>
      </trkpt>
      <trkpt lat="43.0951" lon="0.01087">
        <ele>418.79998779297</ele>
        <time>2025-08-11T06:47:39.000Z</time>
      </trkpt>
      <trkpt lat="43.09496" lon="0.01053">
        <ele>419.39999389648</ele>
        <time>2025-08-11T06:47:46.000Z</time>
      </trkpt>
      <trkpt lat="43.0948" lon="0.01018">
        <ele>419.20001220703</ele>
        <time>2025-08-11T06:47:52.000Z</time>
      </trkpt>
      <trkpt lat="43.09471" lon="0.0099">
        <ele>419</ele>
        <time>2025-08-11T06:47:56.000Z</time>
      </trkpt>
      <trkpt lat="43.09469" lon="0.00982">
        <ele>419</ele>
        <time>2025-08-11T06:47:57.000Z</time>
      </trkpt>
      <trkpt lat="43.09465" lon="0.00945">
        <ele>418.79998779297</ele>
        <time>2025-08-11T06:48:01.000Z</time>
      </trkpt>
      <trkpt lat="43.09465" lon="0.00935">
        <ele>418.79998779297</ele>
        <time>2025-08-11T06:48:02.000Z</time>
      </trkpt>
      <trkpt lat="43.09464" lon="0.00881">
        <ele>417.79998779297</ele>
        <time>2025-08-11T06:48:08.000Z</time>
      </trkpt>
      <trkpt lat="43.09464" lon="0.00872">
        <ele>417.79998779297</ele>
        <time>2025-08-11T06:48:09.000Z</time>
      </trkpt>
      <trkpt lat="43.09463" lon="0.00816">
        <ele>417.20001220703</ele>
        <time>2025-08-11T06:48:16.000Z</time>
      </trkpt>
      <trkpt lat="43.09462" lon="0.00767">
        <ele>418</ele>
        <time>2025-08-11T06:48:23.000Z</time>
      </trkpt>
      <trkpt lat="43.0946" lon="0.00721">
        <ele>418.79998779297</ele>
        <time>2025-08-11T06:48:30.000Z</time>
      </trkpt>
      <trkpt lat="43.0946" lon="0.00708">
        <ele>419</ele>
        <time>2025-08-11T06:48:32.000Z</time>
      </trkpt>
      <trkpt lat="43.09459" lon="0.00668">
        <ele>419.39999389648</ele>
        <time>2025-08-11T06:48:38.000Z</time>
      </trkpt>
      <trkpt lat="43.09459" lon="0.0059">
        <ele>420</ele>
        <time>2025-08-11T06:48:49.000Z</time>
      </trkpt>
      <trkpt lat="43.0946" lon="0.00522">
        <ele>420</ele>
        <time>2025-08-11T06:48:58.000Z</time>
      </trkpt>
      <trkpt lat="43.0946" lon="0.00474">
        <ele>419.39999389648</ele>
        <time>2025-08-11T06:49:04.000Z</time>
      </trkpt>
      <trkpt lat="43.09461" lon="0.00442">
        <ele>419</ele>
        <time>2025-08-11T06:49:08.000Z</time>
      </trkpt>
      <trkpt lat="43.09462" lon="0.00363">
        <ele>418.20001220703</ele>
        <time>2025-08-11T06:49:18.000Z</time>
      </trkpt>
      <trkpt lat="43.09464" lon="0.00298">
        <ele>418.20001220703</ele>
        <time>2025-08-11T06:49:26.000Z</time>
      </trkpt>
      <trkpt lat="43.09464" lon="0.0029">
        <ele>418.20001220703</ele>
        <time>2025-08-11T06:49:27.000Z</time>
      </trkpt>
      <trkpt lat="43.09466" lon="0.0021">
        <ele>418.60000610352</ele>
        <time>2025-08-11T06:49:37.000Z</time>
      </trkpt>
      <trkpt lat="43.09467" lon="0.00153">
        <ele>418.60000610352</ele>
        <time>2025-08-11T06:49:45.000Z</time>
      </trkpt>
      <trkpt lat="43.09467" lon="0.00106">
        <ele>418.79998779297</ele>
        <time>2025-08-11T06:49:52.000Z</time>
      </trkpt>
      <trkpt lat="43.09466" lon="0.00058">
        <ele>417.79998779297</ele>
        <time>2025-08-11T06:50:00.000Z</time>
      </trkpt>
      <trkpt lat="43.09466" lon="0.00052">
        <ele>417.79998779297</ele>
        <time>2025-08-11T06:50:01.000Z</time>
      </trkpt>
      <trkpt lat="43.09466" lon="0.00018">
        <ele>417.39999389648</ele>
        <time>2025-08-11T06:50:06.000Z</time>
      </trkpt>
      <trkpt lat="43.09467" lon="-0.00046">
        <ele>418.60000610352</ele>
        <time>2025-08-11T06:50:15.000Z</time>
      </trkpt>
      <trkpt lat="43.09467" lon="-0.00094">
        <ele>418.79998779297</ele>
        <time>2025-08-11T06:50:22.000Z</time>
      </trkpt>
      <trkpt lat="43.09468" lon="-0.00107">
        <ele>418.79998779297</ele>
        <time>2025-08-11T06:50:24.000Z</time>
      </trkpt>
      <trkpt lat="43.09467" lon="-0.00166">
        <ele>419</ele>
        <time>2025-08-11T06:50:34.000Z</time>
      </trkpt>
      <trkpt lat="43.09468" lon="-0.00224">
        <ele>419.20001220703</ele>
        <time>2025-08-11T06:50:44.000Z</time>
      </trkpt>
      <trkpt lat="43.09468" lon="-0.00243">
        <ele>419</ele>
        <time>2025-08-11T06:50:47.000Z</time>
      </trkpt>
      <trkpt lat="43.09468" lon="-0.00288">
        <ele>419.20001220703</ele>
        <time>2025-08-11T06:50:54.000Z</time>
      </trkpt>
      <trkpt lat="43.09468" lon="-0.00349">
        <ele>419</ele>
        <time>2025-08-11T06:51:04.000Z</time>
      </trkpt>
      <trkpt lat="43.09469" lon="-0.00419">
        <ele>418.60000610352</ele>
        <time>2025-08-11T06:51:16.000Z</time>
      </trkpt>
      <trkpt lat="43.09469" lon="-0.0048">
        <ele>419.20001220703</ele>
        <time>2025-08-11T06:51:27.000Z</time>
      </trkpt>
      <trkpt lat="43.0947" lon="-0.00548">
        <ele>419</ele>
        <time>2025-08-11T06:51:39.000Z</time>
      </trkpt>
      <trkpt lat="43.09471" lon="-0.006">
        <ele>419.20001220703</ele>
        <time>2025-08-11T06:51:48.000Z</time>
      </trkpt>
      <trkpt lat="43.09471" lon="-0.0064">
        <ele>419</ele>
        <time>2025-08-11T06:51:55.000Z</time>
      </trkpt>
      <trkpt lat="43.09471" lon="-0.00645">
        <ele>419</ele>
        <time>2025-08-11T06:51:56.000Z</time>
      </trkpt>
      <trkpt lat="43.09471" lon="-0.00686">
        <ele>419.60000610352</ele>
        <time>2025-08-11T06:52:04.000Z</time>
      </trkpt>
      <trkpt lat="43.09471" lon="-0.00697">
        <ele>419.60000610352</ele>
        <time>2025-08-11T06:52:06.000Z</time>
      </trkpt>
      <trkpt lat="43.09471" lon="-0.00742">
        <ele>419.79998779297</ele>
        <time>2025-08-11T06:52:14.000Z</time>
      </trkpt>
      <trkpt lat="43.09471" lon="-0.00818">
        <ele>420</ele>
        <time>2025-08-11T06:52:28.000Z</time>
      </trkpt>
      <trkpt lat="43.09471" lon="-0.00859">
        <ele>420</ele>
        <time>2025-08-11T06:52:36.000Z</time>
      </trkpt>
      <trkpt lat="43.09472" lon="-0.00912">
        <ele>419.79998779297</ele>
        <time>2025-08-11T06:52:46.000Z</time>
      </trkpt>
      <trkpt lat="43.09472" lon="-0.0097">
        <ele>420.20001220703</ele>
        <time>2025-08-11T06:52:57.000Z</time>
      </trkpt>
      <trkpt lat="43.09472" lon="-0.00994">
        <ele>420.39999389648</ele>
        <time>2025-08-11T06:53:01.000Z</time>
      </trkpt>
      <trkpt lat="43.09472" lon="-0.01012">
        <ele>420.39999389648</ele>
        <time>2025-08-11T06:53:04.000Z</time>
      </trkpt>
      <trkpt lat="43.09472" lon="-0.01018">
        <ele>420.39999389648</ele>
        <time>2025-08-11T06:53:05.000Z</time>
      </trkpt>
      <trkpt lat="43.09472" lon="-0.0107">
        <ele>420.39999389648</ele>
        <time>2025-08-11T06:53:14.000Z</time>
      </trkpt>
      <trkpt lat="43.09472" lon="-0.0113">
        <ele>420.39999389648</ele>
        <time>2025-08-11T06:53:25.000Z</time>
      </trkpt>
      <trkpt lat="43.09472" lon="-0.01186">
        <ele>420.39999389648</ele>
        <time>2025-08-11T06:53:35.000Z</time>
      </trkpt>
      <trkpt lat="43.09471" lon="-0.01236">
        <ele>420.39999389648</ele>
        <time>2025-08-11T06:53:43.000Z</time>
      </trkpt>
      <trkpt lat="43.09471" lon="-0.01279">
        <ele>420.79998779297</ele>
        <time>2025-08-11T06:53:50.000Z</time>
      </trkpt>
      <trkpt lat="43.09472" lon="-0.01297">
        <ele>421</ele>
        <time>2025-08-11T06:53:53.000Z</time>
      </trkpt>
      <trkpt lat="43.09472" lon="-0.01351">
        <ele>421</ele>
        <time>2025-08-11T06:54:03.000Z</time>
      </trkpt>
      <trkpt lat="43.09472" lon="-0.01385">
        <ele>421.20001220703</ele>
        <time>2025-08-11T06:54:09.000Z</time>
      </trkpt>
      <trkpt lat="43.09472" lon="-0.0141">
        <ele>421.39999389648</ele>
        <time>2025-08-11T06:54:14.000Z</time>
      </trkpt>
      <trkpt lat="43.09477" lon="-0.01453">
        <ele>422</ele>
        <time>2025-08-11T06:54:23.000Z</time>
      </trkpt>
      <trkpt lat="43.09477" lon="-0.01457">
        <ele>422.20001220703</ele>
        <time>2025-08-11T06:54:24.000Z</time>
      </trkpt>
      <trkpt lat="43.0949" lon="-0.01498">
        <ele>422.60000610352</ele>
        <time>2025-08-11T06:54:32.000Z</time>
      </trkpt>
      <trkpt lat="43.09505" lon="-0.01546">
        <ele>422.39999389648</ele>
        <time>2025-08-11T06:54:40.000Z</time>
      </trkpt>
      <trkpt lat="43.09518" lon="-0.01593">
        <ele>422</ele>
        <time>2025-08-11T06:54:48.000Z</time>
      </trkpt>
      <trkpt lat="43.09532" lon="-0.01656">
        <ele>422.20001220703</ele>
        <time>2025-08-11T06:54:58.000Z</time>
      </trkpt>
      <trkpt lat="43.09542" lon="-0.01712">
        <ele>422.39999389648</ele>
        <time>2025-08-11T06:55:07.000Z</time>
      </trkpt>
      <trkpt lat="43.09547" lon="-0.0177">
        <ele>422</ele>
        <time>2025-08-11T06:55:16.000Z</time>
      </trkpt>
      <trkpt lat="43.09554" lon="-0.01824">
        <ele>422</ele>
        <time>2025-08-11T06:55:24.000Z</time>
      </trkpt>
      <trkpt lat="43.09563" lon="-0.0189">
        <ele>422.20001220703</ele>
        <time>2025-08-11T06:55:34.000Z</time>
      </trkpt>
      <trkpt lat="43.09573" lon="-0.01963">
        <ele>422</ele>
        <time>2025-08-11T06:55:45.000Z</time>
      </trkpt>
      <trkpt lat="43.09575" lon="-0.01975">
        <ele>422</ele>
        <time>2025-08-11T06:55:47.000Z</time>
      </trkpt>
      <trkpt lat="43.09584" lon="-0.02049">
        <ele>422</ele>
        <time>2025-08-11T06:55:58.000Z</time>
      </trkpt>
      <trkpt lat="43.09585" lon="-0.02058">
        <ele>422</ele>
        <time>2025-08-11T06:55:59.000Z</time>
      </trkpt>
      <trkpt lat="43.09593" lon="-0.02114">
        <ele>422</ele>
        <time>2025-08-11T06:56:08.000Z</time>
      </trkpt>
      <trkpt lat="43.09602" lon="-0.02171">
        <ele>422.20001220703</ele>
        <time>2025-08-11T06:56:17.000Z</time>
      </trkpt>
      <trkpt lat="43.0961" lon="-0.02232">
        <ele>422.39999389648</ele>
        <time>2025-08-11T06:56:27.000Z</time>
      </trkpt>
      <trkpt lat="43.09611" lon="-0.02237">
        <ele>422.60000610352</ele>
        <time>2025-08-11T06:56:28.000Z</time>
      </trkpt>
      <trkpt lat="43.09615" lon="-0.02278">
        <ele>422.79998779297</ele>
        <time>2025-08-11T06:56:35.000Z</time>
      </trkpt>
      <trkpt lat="43.09618" lon="-0.02291">
        <ele>422.79998779297</ele>
        <time>2025-08-11T06:56:37.000Z</time>
      </trkpt>
      <trkpt lat="43.09629" lon="-0.02365">
        <ele>423</ele>
        <time>2025-08-11T06:56:49.000Z</time>
      </trkpt>
      <trkpt lat="43.09638" lon="-0.0242">
        <ele>423.20001220703</ele>
        <time>2025-08-11T06:56:58.000Z</time>
      </trkpt>
      <trkpt lat="43.0964" lon="-0.02431">
        <ele>423.20001220703</ele>
        <time>2025-08-11T06:57:00.000Z</time>
      </trkpt>
      <trkpt lat="43.09649" lon="-0.02485">
        <ele>423.39999389648</ele>
        <time>2025-08-11T06:57:09.000Z</time>
      </trkpt>
      <trkpt lat="43.09652" lon="-0.02514">
        <ele>423.39999389648</ele>
        <time>2025-08-11T06:57:14.000Z</time>
      </trkpt>
      <trkpt lat="43.09654" lon="-0.02541">
        <ele>423.39999389648</ele>
        <time>2025-08-11T06:57:18.000Z</time>
      </trkpt>
      <trkpt lat="43.09661" lon="-0.02598">
        <ele>424</ele>
        <time>2025-08-11T06:57:27.000Z</time>
      </trkpt>
      <trkpt lat="43.09662" lon="-0.02604">
        <ele>424</ele>
        <time>2025-08-11T06:57:28.000Z</time>
      </trkpt>
      <trkpt lat="43.09671" lon="-0.0263">
        <ele>423.79998779297</ele>
        <time>2025-08-11T06:57:33.000Z</time>
      </trkpt>
      <trkpt lat="43.09695" lon="-0.02671">
        <ele>423.79998779297</ele>
        <time>2025-08-11T06:57:41.000Z</time>
      </trkpt>
      <trkpt lat="43.09725" lon="-0.02722">
        <ele>423.60000610352</ele>
        <time>2025-08-11T06:57:52.000Z</time>
      </trkpt>
      <trkpt lat="43.09734" lon="-0.02766">
        <ele>423.39999389648</ele>
        <time>2025-08-11T06:57:59.000Z</time>
      </trkpt>
      <trkpt lat="43.09737" lon="-0.02816">
        <ele>423.20001220703</ele>
        <time>2025-08-11T06:58:06.000Z</time>
      </trkpt>
      <trkpt lat="43.09742" lon="-0.02829">
        <ele>423.20001220703</ele>
        <time>2025-08-11T06:58:08.000Z</time>
      </trkpt>
      <trkpt lat="43.09746" lon="-0.02835">
        <ele>423</ele>
        <time>2025-08-11T06:58:09.000Z</time>
      </trkpt>
      <trkpt lat="43.09753" lon="-0.02843">
        <ele>423</ele>
        <time>2025-08-11T06:58:11.000Z</time>
      </trkpt>
      <trkpt lat="43.09758" lon="-0.02852">
        <ele>422.60000610352</ele>
        <time>2025-08-11T06:58:13.000Z</time>
      </trkpt>
      <trkpt lat="43.09759" lon="-0.02857">
        <ele>422.39999389648</ele>
        <time>2025-08-11T06:58:14.000Z</time>
      </trkpt>
      <trkpt lat="43.0976" lon="-0.02865">
        <ele>422.39999389648</ele>
        <time>2025-08-11T06:58:15.000Z</time>
      </trkpt>
      <trkpt lat="43.09756" lon="-0.02882">
        <ele>422.20001220703</ele>
        <time>2025-08-11T06:58:18.000Z</time>
      </trkpt>
      <trkpt lat="43.09747" lon="-0.02906">
        <ele>421.79998779297</ele>
        <time>2025-08-11T06:58:22.000Z</time>
      </trkpt>
      <trkpt lat="43.09746" lon="-0.02913">
        <ele>421.60000610352</ele>
        <time>2025-08-11T06:58:23.000Z</time>
      </trkpt>
      <trkpt lat="43.09747" lon="-0.02945">
        <ele>421.20001220703</ele>
        <time>2025-08-11T06:58:27.000Z</time>
      </trkpt>
      <trkpt lat="43.09747" lon="-0.02952">
        <ele>421</ele>
        <time>2025-08-11T06:58:28.000Z</time>
      </trkpt>
      <trkpt lat="43.09748" lon="-0.02977">
        <ele>420.60000610352</ele>
        <time>2025-08-11T06:58:31.000Z</time>
      </trkpt>
      <trkpt lat="43.09748" lon="-0.02995">
        <ele>420.39999389648</ele>
        <time>2025-08-11T06:58:33.000Z</time>
      </trkpt>
      <trkpt lat="43.09747" lon="-0.03016">
        <ele>420</ele>
        <time>2025-08-11T06:58:35.000Z</time>
      </trkpt>
      <trkpt lat="43.09748" lon="-0.03035">
        <ele>419.60000610352</ele>
        <time>2025-08-11T06:58:37.000Z</time>
      </trkpt>
      <trkpt lat="43.09752" lon="-0.03066">
        <ele>419</ele>
        <time>2025-08-11T06:58:40.000Z</time>
      </trkpt>
      <trkpt lat="43.09758" lon="-0.03098">
        <ele>418</ele>
        <time>2025-08-11T06:58:43.000Z</time>
      </trkpt>
      <trkpt lat="43.09767" lon="-0.03129">
        <ele>416.60000610352</ele>
        <time>2025-08-11T06:58:46.000Z</time>
      </trkpt>
      <trkpt lat="43.09774" lon="-0.03147">
        <ele>415.79998779297</ele>
        <time>2025-08-11T06:58:48.000Z</time>
      </trkpt>
      <trkpt lat="43.09777" lon="-0.03154">
        <ele>415.20001220703</ele>
        <time>2025-08-11T06:58:49.000Z</time>
      </trkpt>
      <trkpt lat="43.09788" lon="-0.03178">
        <ele>413.60000610352</ele>
        <time>2025-08-11T06:58:53.000Z</time>
      </trkpt>
      <trkpt lat="43.09792" lon="-0.03184">
        <ele>413</ele>
        <time>2025-08-11T06:58:54.000Z</time>
      </trkpt>
      <trkpt lat="43.098" lon="-0.03186">
        <ele>412.39999389648</ele>
        <time>2025-08-11T06:58:56.000Z</time>
      </trkpt>
      <trkpt lat="43.09807" lon="-0.03187">
        <ele>412.20001220703</ele>
        <time>2025-08-11T06:58:58.000Z</time>
      </trkpt>
      <trkpt lat="43.09815" lon="-0.03192">
        <ele>412</ele>
        <time>2025-08-11T06:59:00.000Z</time>
      </trkpt>
      <trkpt lat="43.09818" lon="-0.03195">
        <ele>412</ele>
        <time>2025-08-11T06:59:01.000Z</time>
      </trkpt>
      <trkpt lat="43.09821" lon="-0.032">
        <ele>412</ele>
        <time>2025-08-11T06:59:02.000Z</time>
      </trkpt>
      <trkpt lat="43.09825" lon="-0.03209">
        <ele>412</ele>
        <time>2025-08-11T06:59:04.000Z</time>
      </trkpt>
      <trkpt lat="43.09826" lon="-0.03216">
        <ele>412</ele>
        <time>2025-08-11T06:59:05.000Z</time>
      </trkpt>
      <trkpt lat="43.09826" lon="-0.03222">
        <ele>412</ele>
        <time>2025-08-11T06:59:06.000Z</time>
      </trkpt>
      <trkpt lat="43.09823" lon="-0.03234">
        <ele>412</ele>
        <time>2025-08-11T06:59:08.000Z</time>
      </trkpt>
      <trkpt lat="43.09821" lon="-0.03239">
        <ele>412</ele>
        <time>2025-08-11T06:59:09.000Z</time>
      </trkpt>
      <trkpt lat="43.09818" lon="-0.03244">
        <ele>411.79998779297</ele>
        <time>2025-08-11T06:59:10.000Z</time>
      </trkpt>
      <trkpt lat="43.09809" lon="-0.03251">
        <ele>411.79998779297</ele>
        <time>2025-08-11T06:59:12.000Z</time>
      </trkpt>
      <trkpt lat="43.09805" lon="-0.03252">
        <ele>411.60000610352</ele>
        <time>2025-08-11T06:59:13.000Z</time>
      </trkpt>
      <trkpt lat="43.098" lon="-0.03252">
        <ele>411.60000610352</ele>
        <time>2025-08-11T06:59:14.000Z</time>
      </trkpt>
      <trkpt lat="43.0979" lon="-0.03247">
        <ele>411.39999389648</ele>
        <time>2025-08-11T06:59:16.000Z</time>
      </trkpt>
      <trkpt lat="43.09785" lon="-0.03244">
        <ele>411.20001220703</ele>
        <time>2025-08-11T06:59:17.000Z</time>
      </trkpt>
      <trkpt lat="43.0978" lon="-0.03241">
        <ele>411.20001220703</ele>
        <time>2025-08-11T06:59:18.000Z</time>
      </trkpt>
      <trkpt lat="43.09771" lon="-0.0324">
        <ele>411</ele>
        <time>2025-08-11T06:59:20.000Z</time>
      </trkpt>
      <trkpt lat="43.09766" lon="-0.03241">
        <ele>410.79998779297</ele>
        <time>2025-08-11T06:59:21.000Z</time>
      </trkpt>
      <trkpt lat="43.09725" lon="-0.03264">
        <ele>410.20001220703</ele>
        <time>2025-08-11T06:59:29.000Z</time>
      </trkpt>
      <trkpt lat="43.09719" lon="-0.03267">
        <ele>410.20001220703</ele>
        <time>2025-08-11T06:59:30.000Z</time>
      </trkpt>
      <trkpt lat="43.09686" lon="-0.03286">
        <ele>409.79998779297</ele>
        <time>2025-08-11T06:59:37.000Z</time>
      </trkpt>
      <trkpt lat="43.0965" lon="-0.0332">
        <ele>409.39999389648</ele>
        <time>2025-08-11T06:59:45.000Z</time>
      </trkpt>
      <trkpt lat="43.09623" lon="-0.03359">
        <ele>409</ele>
        <time>2025-08-11T06:59:52.000Z</time>
      </trkpt>
      <trkpt lat="43.0962" lon="-0.03364">
        <ele>409</ele>
        <time>2025-08-11T06:59:53.000Z</time>
      </trkpt>
      <trkpt lat="43.09609" lon="-0.03382">
        <ele>408.79998779297</ele>
        <time>2025-08-11T06:59:56.000Z</time>
      </trkpt>
      <trkpt lat="43.09602" lon="-0.03399">
        <ele>408.60000610352</ele>
        <time>2025-08-11T06:59:59.000Z</time>
      </trkpt>
      <trkpt lat="43.096" lon="-0.03405">
        <ele>408.60000610352</ele>
        <time>2025-08-11T07:00:00.000Z</time>
      </trkpt>
      <trkpt lat="43.09595" lon="-0.03421">
        <ele>408.60000610352</ele>
        <time>2025-08-11T07:00:03.000Z</time>
      </trkpt>
      <trkpt lat="43.09589" lon="-0.03442">
        <ele>408.20001220703</ele>
        <time>2025-08-11T07:00:07.000Z</time>
      </trkpt>
      <trkpt lat="43.09588" lon="-0.03446">
        <ele>408</ele>
        <time>2025-08-11T07:00:08.000Z</time>
      </trkpt>
      <trkpt lat="43.09585" lon="-0.03461">
        <ele>407.20001220703</ele>
        <time>2025-08-11T07:00:11.000Z</time>
      </trkpt>
      <trkpt lat="43.09584" lon="-0.03469">
        <ele>407</ele>
        <time>2025-08-11T07:00:14.000Z</time>
      </trkpt>
      <trkpt lat="43.09584" lon="-0.0347">
        <ele>407</ele>
        <time>2025-08-11T07:00:16.000Z</time>
      </trkpt>
      <trkpt lat="43.09582" lon="-0.03475">
        <ele>407.20001220703</ele>
        <time>2025-08-11T07:01:02.000Z</time>
      </trkpt>
      <trkpt lat="43.09581" lon="-0.03478">
        <ele>407.20001220703</ele>
        <time>2025-08-11T07:01:03.000Z</time>
      </trkpt>
      <trkpt lat="43.0958" lon="-0.03494">
        <ele>407</ele>
        <time>2025-08-11T07:01:07.000Z</time>
      </trkpt>
      <trkpt lat="43.09579" lon="-0.0353">
        <ele>407</ele>
        <time>2025-08-11T07:01:14.000Z</time>
      </trkpt>
      <trkpt lat="43.0958" lon="-0.0358">
        <ele>407.20001220703</ele>
        <time>2025-08-11T07:01:22.000Z</time>
      </trkpt>
      <trkpt lat="43.09587" lon="-0.03628">
        <ele>407.20001220703</ele>
        <time>2025-08-11T07:01:30.000Z</time>
      </trkpt>
      <trkpt lat="43.09597" lon="-0.03678">
        <ele>407</ele>
        <time>2025-08-11T07:01:38.000Z</time>
      </trkpt>
      <trkpt lat="43.09606" lon="-0.03719">
        <ele>407</ele>
        <time>2025-08-11T07:01:45.000Z</time>
      </trkpt>
      <trkpt lat="43.09609" lon="-0.0373">
        <ele>407</ele>
        <time>2025-08-11T07:01:47.000Z</time>
      </trkpt>
      <trkpt lat="43.09616" lon="-0.03752">
        <ele>407</ele>
        <time>2025-08-11T07:01:51.000Z</time>
      </trkpt>
      <trkpt lat="43.09619" lon="-0.03756">
        <ele>407.20001220703</ele>
        <time>2025-08-11T07:01:52.000Z</time>
      </trkpt>
      <trkpt lat="43.09622" lon="-0.0376">
        <ele>407.20001220703</ele>
        <time>2025-08-11T07:01:53.000Z</time>
      </trkpt>
      <trkpt lat="43.09638" lon="-0.03775">
        <ele>407.79998779297</ele>
        <time>2025-08-11T07:01:57.000Z</time>
      </trkpt>
      <trkpt lat="43.09642" lon="-0.03778">
        <ele>407.79998779297</ele>
        <time>2025-08-11T07:01:58.000Z</time>
      </trkpt>
      <trkpt lat="43.09657" lon="-0.0379">
        <ele>407.79998779297</ele>
        <time>2025-08-11T07:02:02.000Z</time>
      </trkpt>
      <trkpt lat="43.09683" lon="-0.03811">
        <ele>407.79998779297</ele>
        <time>2025-08-11T07:02:09.000Z</time>
      </trkpt>
      <trkpt lat="43.09706" lon="-0.03831">
        <ele>407</ele>
        <time>2025-08-11T07:02:16.000Z</time>
      </trkpt>
      <trkpt lat="43.09711" lon="-0.03835">
        <ele>406.79998779297</ele>
        <time>2025-08-11T07:02:19.000Z</time>
      </trkpt>
      <trkpt lat="43.09716" lon="-0.03839">
        <ele>406.60000610352</ele>
        <time>2025-08-11T07:02:21.000Z</time>
      </trkpt>
      <trkpt lat="43.0973" lon="-0.03842">
        <ele>406.60000610352</ele>
        <time>2025-08-11T07:02:26.000Z</time>
      </trkpt>
      <trkpt lat="43.09736" lon="-0.03844">
        <ele>406.60000610352</ele>
        <time>2025-08-11T07:02:28.000Z</time>
      </trkpt>
      <trkpt lat="43.09738" lon="-0.03846">
        <ele>406.60000610352</ele>
        <time>2025-08-11T07:02:29.000Z</time>
      </trkpt>
      <trkpt lat="43.09748" lon="-0.03864">
        <ele>406.60000610352</ele>
        <time>2025-08-11T07:02:33.000Z</time>
      </trkpt>
      <trkpt lat="43.09755" lon="-0.03873">
        <ele>406.60000610352</ele>
        <time>2025-08-11T07:02:35.000Z</time>
      </trkpt>
      <trkpt lat="43.09763" lon="-0.0388">
        <ele>406.39999389648</ele>
        <time>2025-08-11T07:02:37.000Z</time>
      </trkpt>
      <trkpt lat="43.0977" lon="-0.03889">
        <ele>406.20001220703</ele>
        <time>2025-08-11T07:02:39.000Z</time>
      </trkpt>
      <trkpt lat="43.09781" lon="-0.03903">
        <ele>406</ele>
        <time>2025-08-11T07:02:42.000Z</time>
      </trkpt>
      <trkpt lat="43.09787" lon="-0.03913">
        <ele>405.79998779297</ele>
        <time>2025-08-11T07:02:44.000Z</time>
      </trkpt>
      <trkpt lat="43.09803" lon="-0.03941">
        <ele>405.20001220703</ele>
        <time>2025-08-11T07:02:49.000Z</time>
      </trkpt>
      <trkpt lat="43.09806" lon="-0.03948">
        <ele>405.20001220703</ele>
        <time>2025-08-11T07:02:50.000Z</time>
      </trkpt>
      <trkpt lat="43.09809" lon="-0.03954">
        <ele>405.20001220703</ele>
        <time>2025-08-11T07:02:51.000Z</time>
      </trkpt>
      <trkpt lat="43.09825" lon="-0.03976">
        <ele>405</ele>
        <time>2025-08-11T07:02:55.000Z</time>
      </trkpt>
      <trkpt lat="43.09833" lon="-0.03988">
        <ele>404.79998779297</ele>
        <time>2025-08-11T07:02:57.000Z</time>
      </trkpt>
      <trkpt lat="43.09855" lon="-0.04031">
        <ele>403.79998779297</ele>
        <time>2025-08-11T07:03:04.000Z</time>
      </trkpt>
      <trkpt lat="43.0986" lon="-0.04044">
        <ele>403.79998779297</ele>
        <time>2025-08-11T07:03:06.000Z</time>
      </trkpt>
      <trkpt lat="43.09861" lon="-0.04051">
        <ele>403.60000610352</ele>
        <time>2025-08-11T07:03:07.000Z</time>
      </trkpt>
      <trkpt lat="43.09863" lon="-0.04066">
        <ele>403.60000610352</ele>
        <time>2025-08-11T07:03:09.000Z</time>
      </trkpt>
      <trkpt lat="43.09861" lon="-0.0408">
        <ele>403.39999389648</ele>
        <time>2025-08-11T07:03:11.000Z</time>
      </trkpt>
      <trkpt lat="43.09857" lon="-0.04101">
        <ele>403.20001220703</ele>
        <time>2025-08-11T07:03:14.000Z</time>
      </trkpt>
      <trkpt lat="43.09856" lon="-0.04108">
        <ele>403.20001220703</ele>
        <time>2025-08-11T07:03:15.000Z</time>
      </trkpt>
      <trkpt lat="43.09854" lon="-0.04115">
        <ele>403</ele>
        <time>2025-08-11T07:03:16.000Z</time>
      </trkpt>
      <trkpt lat="43.09847" lon="-0.04136">
        <ele>402.60000610352</ele>
        <time>2025-08-11T07:03:19.000Z</time>
      </trkpt>
      <trkpt lat="43.09844" lon="-0.04144">
        <ele>402.39999389648</ele>
        <time>2025-08-11T07:03:20.000Z</time>
      </trkpt>
      <trkpt lat="43.09835" lon="-0.04187">
        <ele>401.60000610352</ele>
        <time>2025-08-11T07:03:26.000Z</time>
      </trkpt>
      <trkpt lat="43.09835" lon="-0.04207">
        <ele>401.39999389648</ele>
        <time>2025-08-11T07:03:29.000Z</time>
      </trkpt>
      <trkpt lat="43.09836" lon="-0.04232">
        <ele>401.39999389648</ele>
        <time>2025-08-11T07:03:33.000Z</time>
      </trkpt>
      <trkpt lat="43.09838" lon="-0.04274">
        <ele>401.79998779297</ele>
        <time>2025-08-11T07:03:41.000Z</time>
      </trkpt>
      <trkpt lat="43.0984" lon="-0.04308">
        <ele>402.39999389648</ele>
        <time>2025-08-11T07:03:48.000Z</time>
      </trkpt>
      <trkpt lat="43.09842" lon="-0.04349">
        <ele>403.20001220703</ele>
        <time>2025-08-11T07:03:57.000Z</time>
      </trkpt>
      <trkpt lat="43.09842" lon="-0.04367">
        <ele>403.20001220703</ele>
        <time>2025-08-11T07:04:00.000Z</time>
      </trkpt>
      <trkpt lat="43.09844" lon="-0.04377">
        <ele>403.20001220703</ele>
        <time>2025-08-11T07:04:02.000Z</time>
      </trkpt>
      <trkpt lat="43.09845" lon="-0.04395">
        <ele>403</ele>
        <time>2025-08-11T07:04:05.000Z</time>
      </trkpt>
      <trkpt lat="43.09842" lon="-0.04408">
        <ele>402.79998779297</ele>
        <time>2025-08-11T07:04:07.000Z</time>
      </trkpt>
      <trkpt lat="43.09837" lon="-0.04421">
        <ele>402.39999389648</ele>
        <time>2025-08-11T07:04:09.000Z</time>
      </trkpt>
      <trkpt lat="43.09834" lon="-0.04426">
        <ele>401.79998779297</ele>
        <time>2025-08-11T07:04:10.000Z</time>
      </trkpt>
      <trkpt lat="43.09831" lon="-0.04432">
        <ele>401.60000610352</ele>
        <time>2025-08-11T07:04:11.000Z</time>
      </trkpt>
      <trkpt lat="43.09829" lon="-0.04436">
        <ele>401.39999389648</ele>
        <time>2025-08-11T07:04:12.000Z</time>
      </trkpt>
      <trkpt lat="43.09825" lon="-0.04444">
        <ele>401</ele>
        <time>2025-08-11T07:04:13.000Z</time>
      </trkpt>
      <trkpt lat="43.0982" lon="-0.04455">
        <ele>400.79998779297</ele>
        <time>2025-08-11T07:04:15.000Z</time>
      </trkpt>
      <trkpt lat="43.09812" lon="-0.04476">
        <ele>400.39999389648</ele>
        <time>2025-08-11T07:04:18.000Z</time>
      </trkpt>
      <trkpt lat="43.09808" lon="-0.04495">
        <ele>400</ele>
        <time>2025-08-11T07:04:21.000Z</time>
      </trkpt>
      <trkpt lat="43.09808" lon="-0.04514">
        <ele>399.60000610352</ele>
        <time>2025-08-11T07:04:24.000Z</time>
      </trkpt>
      <trkpt lat="43.09809" lon="-0.04531">
        <ele>399.60000610352</ele>
        <time>2025-08-11T07:04:27.000Z</time>
      </trkpt>
      <trkpt lat="43.09813" lon="-0.04554">
        <ele>399.60000610352</ele>
        <time>2025-08-11T07:04:32.000Z</time>
      </trkpt>
      <trkpt lat="43.09815" lon="-0.04577">
        <ele>399.60000610352</ele>
        <time>2025-08-11T07:04:37.000Z</time>
      </trkpt>
      <trkpt lat="43.09816" lon="-0.04603">
        <ele>399.39999389648</ele>
        <time>2025-08-11T07:04:42.000Z</time>
      </trkpt>
      <trkpt lat="43.09812" lon="-0.04636">
        <ele>398.60000610352</ele>
        <time>2025-08-11T07:04:48.000Z</time>
      </trkpt>
      <trkpt lat="43.09809" lon="-0.04666">
        <ele>398</ele>
        <time>2025-08-11T07:04:55.000Z</time>
      </trkpt>
      <trkpt lat="43.09807" lon="-0.04674">
        <ele>397.79998779297</ele>
        <time>2025-08-11T07:05:00.000Z</time>
      </trkpt>
      <trkpt lat="43.09806" lon="-0.04674">
        <ele>397.79998779297</ele>
        <time>2025-08-11T07:05:01.000Z</time>
      </trkpt>
      <trkpt lat="43.09804" lon="-0.04672">
        <ele>397.60000610352</ele>
        <time>2025-08-11T07:05:03.000Z</time>
      </trkpt>
      <trkpt lat="43.09804" lon="-0.04671">
        <ele>397.60000610352</ele>
        <time>2025-08-11T07:05:04.000Z</time>
      </trkpt>
      <trkpt lat="43.09801" lon="-0.04664">
        <ele>397.20001220703</ele>
        <time>2025-08-11T07:05:07.000Z</time>
      </trkpt>
      <trkpt lat="43.09801" lon="-0.04662">
        <ele>397</ele>
        <time>2025-08-11T07:05:08.000Z</time>
      </trkpt>
      <trkpt lat="43.09801" lon="-0.04661">
        <ele>397</ele>
        <time>2025-08-11T07:05:09.000Z</time>
      </trkpt>
      <trkpt lat="43.09801" lon="-0.04661">
        <ele>397</ele>
        <time>2025-08-11T07:05:10.000Z</time>
      </trkpt>
      <trkpt lat="43.09801" lon="-0.04661">
        <ele>397.20001220703</ele>
        <time>2025-08-11T07:05:13.000Z</time>
      </trkpt>
      <trkpt lat="43.09809" lon="-0.04674">
        <ele>397</ele>
        <time>2025-08-11T07:14:36.000Z</time>
      </trkpt>
      <trkpt lat="43.09809" lon="-0.04681">
        <ele>397</ele>
        <time>2025-08-11T07:14:38.000Z</time>
      </trkpt>
      <trkpt lat="43.09811" lon="-0.04702">
        <ele>396.79998779297</ele>
        <time>2025-08-11T07:14:44.000Z</time>
      </trkpt>
      <trkpt lat="43.09811" lon="-0.04729">
        <ele>396.39999389648</ele>
        <time>2025-08-11T07:14:50.000Z</time>
      </trkpt>
      <trkpt lat="43.09812" lon="-0.04748">
        <ele>396.39999389648</ele>
        <time>2025-08-11T07:14:54.000Z</time>
      </trkpt>
      <trkpt lat="43.09816" lon="-0.04771">
        <ele>396.20001220703</ele>
        <time>2025-08-11T07:15:00.000Z</time>
      </trkpt>
      <trkpt lat="43.09825" lon="-0.04793">
        <ele>396.39999389648</ele>
        <time>2025-08-11T07:15:06.000Z</time>
      </trkpt>
      <trkpt lat="43.09833" lon="-0.04816">
        <ele>396.20001220703</ele>
        <time>2025-08-11T07:15:12.000Z</time>
      </trkpt>
      <trkpt lat="43.09838" lon="-0.04841">
        <ele>396</ele>
        <time>2025-08-11T07:15:17.000Z</time>
      </trkpt>
      <trkpt lat="43.0984" lon="-0.04848">
        <ele>395.79998779297</ele>
        <time>2025-08-11T07:15:18.000Z</time>
      </trkpt>
      <trkpt lat="43.09841" lon="-0.04854">
        <ele>395.60000610352</ele>
        <time>2025-08-11T07:15:19.000Z</time>
      </trkpt>
      <trkpt lat="43.09843" lon="-0.04876">
        <ele>395</ele>
        <time>2025-08-11T07:15:23.000Z</time>
      </trkpt>
      <trkpt lat="43.09841" lon="-0.04882">
        <ele>394.79998779297</ele>
        <time>2025-08-11T07:15:24.000Z</time>
      </trkpt>
      <trkpt lat="43.09841" lon="-0.04888">
        <ele>394.60000610352</ele>
        <time>2025-08-11T07:15:25.000Z</time>
      </trkpt>
      <trkpt lat="43.09841" lon="-0.04897">
        <ele>394.39999389648</ele>
        <time>2025-08-11T07:15:27.000Z</time>
      </trkpt>
      <trkpt lat="43.09847" lon="-0.04915">
        <ele>393.60000610352</ele>
        <time>2025-08-11T07:15:31.000Z</time>
      </trkpt>
      <trkpt lat="43.09848" lon="-0.04919">
        <ele>393.39999389648</ele>
        <time>2025-08-11T07:15:32.000Z</time>
      </trkpt>
      <trkpt lat="43.09849" lon="-0.04929">
        <ele>393</ele>
        <time>2025-08-11T07:15:34.000Z</time>
      </trkpt>
      <trkpt lat="43.09849" lon="-0.04943">
        <ele>392.60000610352</ele>
        <time>2025-08-11T07:15:37.000Z</time>
      </trkpt>
      <trkpt lat="43.09842" lon="-0.04965">
        <ele>391.60000610352</ele>
        <time>2025-08-11T07:15:43.000Z</time>
      </trkpt>
      <trkpt lat="43.0984" lon="-0.04968">
        <ele>391.20001220703</ele>
        <time>2025-08-11T07:15:44.000Z</time>
      </trkpt>
      <trkpt lat="43.09836" lon="-0.04975">
        <ele>391</ele>
        <time>2025-08-11T07:15:46.000Z</time>
      </trkpt>
      <trkpt lat="43.09835" lon="-0.04978">
        <ele>391</ele>
        <time>2025-08-11T07:15:47.000Z</time>
      </trkpt>
      <trkpt lat="43.09832" lon="-0.04988">
        <ele>390.39999389648</ele>
        <time>2025-08-11T07:15:51.000Z</time>
      </trkpt>
      <trkpt lat="43.09832" lon="-0.04989">
        <ele>390.20001220703</ele>
        <time>2025-08-11T07:15:52.000Z</time>
      </trkpt>
      <trkpt lat="43.09832" lon="-0.04991">
        <ele>390</ele>
        <time>2025-08-11T07:15:53.000Z</time>
      </trkpt>
      <trkpt lat="43.09831" lon="-0.04993">
        <ele>389.79998779297</ele>
        <time>2025-08-11T07:15:55.000Z</time>
      </trkpt>
      <trkpt lat="43.09831" lon="-0.04997">
        <ele>389.20001220703</ele>
        <time>2025-08-11T07:15:57.000Z</time>
      </trkpt>
      <trkpt lat="43.09831" lon="-0.05">
        <ele>389</ele>
        <time>2025-08-11T07:15:58.000Z</time>
      </trkpt>
      <trkpt lat="43.09831" lon="-0.05004">
        <ele>388.79998779297</ele>
        <time>2025-08-11T07:15:59.000Z</time>
      </trkpt>
      <trkpt lat="43.09821" lon="-0.05032">
        <ele>388.60000610352</ele>
        <time>2025-08-11T07:16:04.000Z</time>
      </trkpt>
      <trkpt lat="43.09818" lon="-0.05067">
        <ele>388.20001220703</ele>
        <time>2025-08-11T07:16:10.000Z</time>
      </trkpt>
      <trkpt lat="43.09818" lon="-0.0508">
        <ele>388</ele>
        <time>2025-08-11T07:16:13.000Z</time>
      </trkpt>
      <trkpt lat="43.09815" lon="-0.05098">
        <ele>387.79998779297</ele>
        <time>2025-08-11T07:16:17.000Z</time>
      </trkpt>
      <trkpt lat="43.09811" lon="-0.0513">
        <ele>387.60000610352</ele>
        <time>2025-08-11T07:16:25.000Z</time>
      </trkpt>
      <trkpt lat="43.09809" lon="-0.05159">
        <ele>387.39999389648</ele>
        <time>2025-08-11T07:16:32.000Z</time>
      </trkpt>
      <trkpt lat="43.09806" lon="-0.0518">
        <ele>387</ele>
        <time>2025-08-11T07:16:37.000Z</time>
      </trkpt>
      <trkpt lat="43.09807" lon="-0.05182">
        <ele>386.79998779297</ele>
        <time>2025-08-11T07:16:38.000Z</time>
      </trkpt>
      <trkpt lat="43.09807" lon="-0.05183">
        <ele>386.60000610352</ele>
        <time>2025-08-11T07:16:39.000Z</time>
      </trkpt>
      <trkpt lat="43.09808" lon="-0.05184">
        <ele>386.39999389648</ele>
        <time>2025-08-11T07:16:43.000Z</time>
      </trkpt>
      <trkpt lat="43.09797" lon="-0.05172">
        <ele>386.60000610352</ele>
        <time>2025-08-11T07:31:27.000Z</time>
      </trkpt>
      <trkpt lat="43.09796" lon="-0.05173">
        <ele>386.79998779297</ele>
        <time>2025-08-11T07:31:28.000Z</time>
      </trkpt>
      <trkpt lat="43.0978" lon="-0.05188">
        <ele>387</ele>
        <time>2025-08-11T07:31:33.000Z</time>
      </trkpt>
      <trkpt lat="43.09757" lon="-0.05191">
        <ele>386.79998779297</ele>
        <time>2025-08-11T07:31:39.000Z</time>
      </trkpt>
      <trkpt lat="43.09733" lon="-0.05197">
        <ele>385.60000610352</ele>
        <time>2025-08-11T07:31:45.000Z</time>
      </trkpt>
      <trkpt lat="43.0971" lon="-0.05221">
        <ele>384.79998779297</ele>
        <time>2025-08-11T07:31:51.000Z</time>
      </trkpt>
      <trkpt lat="43.09703" lon="-0.05237">
        <ele>384.60000610352</ele>
        <time>2025-08-11T07:31:54.000Z</time>
      </trkpt>
      <trkpt lat="43.097" lon="-0.05247">
        <ele>384.60000610352</ele>
        <time>2025-08-11T07:31:56.000Z</time>
      </trkpt>
      <trkpt lat="43.09699" lon="-0.05253">
        <ele>384.60000610352</ele>
        <time>2025-08-11T07:31:57.000Z</time>
      </trkpt>
      <trkpt lat="43.09694" lon="-0.05287">
        <ele>384.79998779297</ele>
        <time>2025-08-11T07:32:04.000Z</time>
      </trkpt>
      <trkpt lat="43.09692" lon="-0.05307">
        <ele>385.20001220703</ele>
        <time>2025-08-11T07:32:08.000Z</time>
      </trkpt>
      <trkpt lat="43.09688" lon="-0.05336">
        <ele>385.60000610352</ele>
        <time>2025-08-11T07:32:14.000Z</time>
      </trkpt>
      <trkpt lat="43.09684" lon="-0.0538">
        <ele>386.60000610352</ele>
        <time>2025-08-11T07:32:24.000Z</time>
      </trkpt>
      <trkpt lat="43.09683" lon="-0.05388">
        <ele>386.60000610352</ele>
        <time>2025-08-11T07:32:26.000Z</time>
      </trkpt>
      <trkpt lat="43.09681" lon="-0.05407">
        <ele>387</ele>
        <time>2025-08-11T07:32:31.000Z</time>
      </trkpt>
      <trkpt lat="43.0968" lon="-0.05412">
        <ele>387.20001220703</ele>
        <time>2025-08-11T07:32:33.000Z</time>
      </trkpt>
      <trkpt lat="43.09679" lon="-0.05421">
        <ele>387.39999389648</ele>
        <time>2025-08-11T07:32:36.000Z</time>
      </trkpt>
      <trkpt lat="43.09673" lon="-0.05445">
        <ele>387.60000610352</ele>
        <time>2025-08-11T07:32:43.000Z</time>
      </trkpt>
      <trkpt lat="43.09667" lon="-0.05468">
        <ele>387.79998779297</ele>
        <time>2025-08-11T07:32:49.000Z</time>
      </trkpt>
      <trkpt lat="43.09666" lon="-0.05476">
        <ele>387.79998779297</ele>
        <time>2025-08-11T07:32:51.000Z</time>
      </trkpt>
      <trkpt lat="43.09664" lon="-0.0551">
        <ele>388.39999389648</ele>
        <time>2025-08-11T07:32:59.000Z</time>
      </trkpt>
      <trkpt lat="43.09661" lon="-0.0552">
        <ele>388.60000610352</ele>
        <time>2025-08-11T07:33:02.000Z</time>
      </trkpt>
      <trkpt lat="43.0966" lon="-0.05523">
        <ele>388.79998779297</ele>
        <time>2025-08-11T07:33:03.000Z</time>
      </trkpt>
      <trkpt lat="43.09663" lon="-0.05542">
        <ele>389</ele>
        <time>2025-08-11T07:33:09.000Z</time>
      </trkpt>
      <trkpt lat="43.09665" lon="-0.05562">
        <ele>389.20001220703</ele>
        <time>2025-08-11T07:33:15.000Z</time>
      </trkpt>
      <trkpt lat="43.09669" lon="-0.05581">
        <ele>389.79998779297</ele>
        <time>2025-08-11T07:33:22.000Z</time>
      </trkpt>
      <trkpt lat="43.0967" lon="-0.05586">
        <ele>389.79998779297</ele>
        <time>2025-08-11T07:33:24.000Z</time>
      </trkpt>
      <trkpt lat="43.09674" lon="-0.05605">
        <ele>390.79998779297</ele>
        <time>2025-08-11T07:33:31.000Z</time>
      </trkpt>
      <trkpt lat="43.09676" lon="-0.05618">
        <ele>391.60000610352</ele>
        <time>2025-08-11T07:33:36.000Z</time>
      </trkpt>
      <trkpt lat="43.09677" lon="-0.05621">
        <ele>391.79998779297</ele>
        <time>2025-08-11T07:33:37.000Z</time>
      </trkpt>
      <trkpt lat="43.09682" lon="-0.05642">
        <ele>393</ele>
        <time>2025-08-11T07:33:45.000Z</time>
      </trkpt>
      <trkpt lat="43.09685" lon="-0.05661">
        <ele>393.60000610352</ele>
        <time>2025-08-11T07:33:51.000Z</time>
      </trkpt>
      <trkpt lat="43.09687" lon="-0.05667">
        <ele>393.79998779297</ele>
        <time>2025-08-11T07:33:53.000Z</time>
      </trkpt>
      <trkpt lat="43.09687" lon="-0.05669">
        <ele>394.20001220703</ele>
        <time>2025-08-11T07:33:54.000Z</time>
      </trkpt>
      <trkpt lat="43.0969" lon="-0.05681">
        <ele>394.79998779297</ele>
        <time>2025-08-11T07:33:59.000Z</time>
      </trkpt>
      <trkpt lat="43.09693" lon="-0.0569">
        <ele>395.20001220703</ele>
        <time>2025-08-11T07:34:03.000Z</time>
      </trkpt>
      <trkpt lat="43.09695" lon="-0.05695">
        <ele>395.39999389648</ele>
        <time>2025-08-11T07:34:05.000Z</time>
      </trkpt>
      <trkpt lat="43.09697" lon="-0.05703">
        <ele>396.20001220703</ele>
        <time>2025-08-11T07:34:08.000Z</time>
      </trkpt>
      <trkpt lat="43.09698" lon="-0.05705">
        <ele>396.20001220703</ele>
        <time>2025-08-11T07:34:09.000Z</time>
      </trkpt>
      <trkpt lat="43.09699" lon="-0.05708">
        <ele>396.39999389648</ele>
        <time>2025-08-11T07:34:10.000Z</time>
      </trkpt>
      <trkpt lat="43.09705" lon="-0.05724">
        <ele>397.39999389648</ele>
        <time>2025-08-11T07:34:16.000Z</time>
      </trkpt>
      <trkpt lat="43.09707" lon="-0.05729">
        <ele>397.60000610352</ele>
        <time>2025-08-11T07:34:18.000Z</time>
      </trkpt>
      <trkpt lat="43.09712" lon="-0.05741">
        <ele>398</ele>
        <time>2025-08-11T07:34:22.000Z</time>
      </trkpt>
      <trkpt lat="43.09714" lon="-0.05745">
        <ele>398.60000610352</ele>
        <time>2025-08-11T07:34:24.000Z</time>
      </trkpt>
      <trkpt lat="43.09717" lon="-0.05752">
        <ele>399</ele>
        <time>2025-08-11T07:34:27.000Z</time>
      </trkpt>
      <trkpt lat="43.09722" lon="-0.05767">
        <ele>399.60000610352</ele>
        <time>2025-08-11T07:34:32.000Z</time>
      </trkpt>
      <trkpt lat="43.09724" lon="-0.05773">
        <ele>399.79998779297</ele>
        <time>2025-08-11T07:34:34.000Z</time>
      </trkpt>
      <trkpt lat="43.09728" lon="-0.05786">
        <ele>400.60000610352</ele>
        <time>2025-08-11T07:34:39.000Z</time>
      </trkpt>
      <trkpt lat="43.0973" lon="-0.05795">
        <ele>400.79998779297</ele>
        <time>2025-08-11T07:34:42.000Z</time>
      </trkpt>
      <trkpt lat="43.0973" lon="-0.05811">
        <ele>401.20001220703</ele>
        <time>2025-08-11T07:34:47.000Z</time>
      </trkpt>
      <trkpt lat="43.0973" lon="-0.05816">
        <ele>401.39999389648</ele>
        <time>2025-08-11T07:34:49.000Z</time>
      </trkpt>
      <trkpt lat="43.09728" lon="-0.05827">
        <ele>401.60000610352</ele>
        <time>2025-08-11T07:34:53.000Z</time>
      </trkpt>
      <trkpt lat="43.09728" lon="-0.05833">
        <ele>401.60000610352</ele>
        <time>2025-08-11T07:34:56.000Z</time>
      </trkpt>
      <trkpt lat="43.09727" lon="-0.05838">
        <ele>401.79998779297</ele>
        <time>2025-08-11T07:34:58.000Z</time>
      </trkpt>
      <trkpt lat="43.09725" lon="-0.05846">
        <ele>402</ele>
        <time>2025-08-11T07:35:01.000Z</time>
      </trkpt>
      <trkpt lat="43.09723" lon="-0.05867">
        <ele>402.60000610352</ele>
        <time>2025-08-11T07:35:09.000Z</time>
      </trkpt>
      <trkpt lat="43.09723" lon="-0.05873">
        <ele>402.79998779297</ele>
        <time>2025-08-11T07:35:11.000Z</time>
      </trkpt>
      <trkpt lat="43.09721" lon="-0.05884">
        <ele>403.60000610352</ele>
        <time>2025-08-11T07:35:16.000Z</time>
      </trkpt>
      <trkpt lat="43.09721" lon="-0.05889">
        <ele>403.79998779297</ele>
        <time>2025-08-11T07:35:18.000Z</time>
      </trkpt>
      <trkpt lat="43.09719" lon="-0.05901">
        <ele>404.39999389648</ele>
        <time>2025-08-11T07:35:23.000Z</time>
      </trkpt>
      <trkpt lat="43.09718" lon="-0.05909">
        <ele>405</ele>
        <time>2025-08-11T07:35:26.000Z</time>
      </trkpt>
      <trkpt lat="43.09717" lon="-0.05925">
        <ele>405.79998779297</ele>
        <time>2025-08-11T07:35:32.000Z</time>
      </trkpt>
      <trkpt lat="43.09717" lon="-0.05927">
        <ele>406</ele>
        <time>2025-08-11T07:35:33.000Z</time>
      </trkpt>
      <trkpt lat="43.09717" lon="-0.0594">
        <ele>406.79998779297</ele>
        <time>2025-08-11T07:35:38.000Z</time>
      </trkpt>
      <trkpt lat="43.09718" lon="-0.05954">
        <ele>407.20001220703</ele>
        <time>2025-08-11T07:35:43.000Z</time>
      </trkpt>
      <trkpt lat="43.09717" lon="-0.05961">
        <ele>407.39999389648</ele>
        <time>2025-08-11T07:35:45.000Z</time>
      </trkpt>
      <trkpt lat="43.09718" lon="-0.05971">
        <ele>408</ele>
        <time>2025-08-11T07:35:48.000Z</time>
      </trkpt>
      <trkpt lat="43.09718" lon="-0.05973">
        <ele>408.20001220703</ele>
        <time>2025-08-11T07:35:49.000Z</time>
      </trkpt>
      <trkpt lat="43.0972" lon="-0.05982">
        <ele>408.39999389648</ele>
        <time>2025-08-11T07:35:52.000Z</time>
      </trkpt>
      <trkpt lat="43.09724" lon="-0.05996">
        <ele>409</ele>
        <time>2025-08-11T07:35:57.000Z</time>
      </trkpt>
      <trkpt lat="43.09726" lon="-0.06001">
        <ele>409.20001220703</ele>
        <time>2025-08-11T07:35:59.000Z</time>
      </trkpt>
      <trkpt lat="43.09726" lon="-0.06004">
        <ele>409.20001220703</ele>
        <time>2025-08-11T07:36:00.000Z</time>
      </trkpt>
      <trkpt lat="43.09725" lon="-0.06016">
        <ele>409.60000610352</ele>
        <time>2025-08-11T07:36:04.000Z</time>
      </trkpt>
      <trkpt lat="43.09726" lon="-0.06037">
        <ele>410.20001220703</ele>
        <time>2025-08-11T07:36:12.000Z</time>
      </trkpt>
      <trkpt lat="43.09727" lon="-0.06039">
        <ele>410.39999389648</ele>
        <time>2025-08-11T07:36:13.000Z</time>
      </trkpt>
      <trkpt lat="43.09726" lon="-0.06054">
        <ele>410.60000610352</ele>
        <time>2025-08-11T07:36:18.000Z</time>
      </trkpt>
      <trkpt lat="43.09725" lon="-0.06069">
        <ele>410.79998779297</ele>
        <time>2025-08-11T07:36:24.000Z</time>
      </trkpt>
      <trkpt lat="43.09725" lon="-0.06086">
        <ele>411.20001220703</ele>
        <time>2025-08-11T07:36:30.000Z</time>
      </trkpt>
      <trkpt lat="43.09725" lon="-0.06089">
        <ele>411.39999389648</ele>
        <time>2025-08-11T07:36:31.000Z</time>
      </trkpt>
      <trkpt lat="43.09725" lon="-0.06095">
        <ele>411.60000610352</ele>
        <time>2025-08-11T07:36:33.000Z</time>
      </trkpt>
      <trkpt lat="43.09727" lon="-0.06111">
        <ele>411.79998779297</ele>
        <time>2025-08-11T07:36:37.000Z</time>
      </trkpt>
      <trkpt lat="43.09725" lon="-0.06127">
        <ele>412.20001220703</ele>
        <time>2025-08-11T07:36:42.000Z</time>
      </trkpt>
      <trkpt lat="43.09724" lon="-0.06132">
        <ele>412.20001220703</ele>
        <time>2025-08-11T07:36:44.000Z</time>
      </trkpt>
      <trkpt lat="43.09724" lon="-0.06135">
        <ele>412.20001220703</ele>
        <time>2025-08-11T07:36:46.000Z</time>
      </trkpt>
      <trkpt lat="43.09725" lon="-0.06141">
        <ele>412.39999389648</ele>
        <time>2025-08-11T07:36:49.000Z</time>
      </trkpt>
      <trkpt lat="43.09726" lon="-0.06144">
        <ele>412.60000610352</ele>
        <time>2025-08-11T07:36:50.000Z</time>
      </trkpt>
      <trkpt lat="43.09726" lon="-0.06162">
        <ele>412.79998779297</ele>
        <time>2025-08-11T07:36:56.000Z</time>
      </trkpt>
      <trkpt lat="43.0973" lon="-0.06189">
        <ele>413.20001220703</ele>
        <time>2025-08-11T07:37:04.000Z</time>
      </trkpt>
      <trkpt lat="43.09732" lon="-0.06197">
        <ele>413.60000610352</ele>
        <time>2025-08-11T07:37:08.000Z</time>
      </trkpt>
      <trkpt lat="43.09732" lon="-0.06199">
        <ele>413.60000610352</ele>
        <time>2025-08-11T07:37:09.000Z</time>
      </trkpt>
      <trkpt lat="43.09733" lon="-0.06202">
        <ele>413.60000610352</ele>
        <time>2025-08-11T07:37:10.000Z</time>
      </trkpt>
      <trkpt lat="43.09733" lon="-0.06203">
        <ele>413.79998779297</ele>
        <time>2025-08-11T07:37:11.000Z</time>
      </trkpt>
      <trkpt lat="43.09734" lon="-0.06208">
        <ele>414</ele>
        <time>2025-08-11T07:37:13.000Z</time>
      </trkpt>
      <trkpt lat="43.09734" lon="-0.0621">
        <ele>414.20001220703</ele>
        <time>2025-08-11T07:37:15.000Z</time>
      </trkpt>
      <trkpt lat="43.09735" lon="-0.06212">
        <ele>414.39999389648</ele>
        <time>2025-08-11T07:37:16.000Z</time>
      </trkpt>
      <trkpt lat="43.09738" lon="-0.0623">
        <ele>414.79998779297</ele>
        <time>2025-08-11T07:37:22.000Z</time>
      </trkpt>
      <trkpt lat="43.09742" lon="-0.06255">
        <ele>415.39999389648</ele>
        <time>2025-08-11T07:37:30.000Z</time>
      </trkpt>
      <trkpt lat="43.09743" lon="-0.0626">
        <ele>415.39999389648</ele>
        <time>2025-08-11T07:37:32.000Z</time>
      </trkpt>
      <trkpt lat="43.09744" lon="-0.0627">
        <ele>415.60000610352</ele>
        <time>2025-08-11T07:37:35.000Z</time>
      </trkpt>
      <trkpt lat="43.09745" lon="-0.06276">
        <ele>415.79998779297</ele>
        <time>2025-08-11T07:37:37.000Z</time>
      </trkpt>
      <trkpt lat="43.09751" lon="-0.06297">
        <ele>416.60000610352</ele>
        <time>2025-08-11T07:37:43.000Z</time>
      </trkpt>
      <trkpt lat="43.09751" lon="-0.06301">
        <ele>416.79998779297</ele>
        <time>2025-08-11T07:37:44.000Z</time>
      </trkpt>
      <trkpt lat="43.09755" lon="-0.06318">
        <ele>417.60000610352</ele>
        <time>2025-08-11T07:37:49.000Z</time>
      </trkpt>
      <trkpt lat="43.09756" lon="-0.06324">
        <ele>417.60000610352</ele>
        <time>2025-08-11T07:37:51.000Z</time>
      </trkpt>
      <trkpt lat="43.09763" lon="-0.06353">
        <ele>418</ele>
        <time>2025-08-11T07:37:58.000Z</time>
      </trkpt>
      <trkpt lat="43.09764" lon="-0.06357">
        <ele>418</ele>
        <time>2025-08-11T07:37:59.000Z</time>
      </trkpt>
      <trkpt lat="43.09772" lon="-0.06393">
        <ele>417.79998779297</ele>
        <time>2025-08-11T07:38:07.000Z</time>
      </trkpt>
      <trkpt lat="43.0978" lon="-0.0642">
        <ele>417.39999389648</ele>
        <time>2025-08-11T07:38:13.000Z</time>
      </trkpt>
      <trkpt lat="43.09785" lon="-0.06447">
        <ele>417</ele>
        <time>2025-08-11T07:38:18.000Z</time>
      </trkpt>
      <trkpt lat="43.09787" lon="-0.06452">
        <ele>416.79998779297</ele>
        <time>2025-08-11T07:38:19.000Z</time>
      </trkpt>
      <trkpt lat="43.09791" lon="-0.06465">
        <ele>416.39999389648</ele>
        <time>2025-08-11T07:38:21.000Z</time>
      </trkpt>
      <trkpt lat="43.09793" lon="-0.06478">
        <ele>416.20001220703</ele>
        <time>2025-08-11T07:38:23.000Z</time>
      </trkpt>
      <trkpt lat="43.09796" lon="-0.06483">
        <ele>416.20001220703</ele>
        <time>2025-08-11T07:38:24.000Z</time>
      </trkpt>
      <trkpt lat="43.09799" lon="-0.06488">
        <ele>416.20001220703</ele>
        <time>2025-08-11T07:38:25.000Z</time>
      </trkpt>
      <trkpt lat="43.09802" lon="-0.06493">
        <ele>416</ele>
        <time>2025-08-11T07:38:26.000Z</time>
      </trkpt>
      <trkpt lat="43.09817" lon="-0.06513">
        <ele>415.20001220703</ele>
        <time>2025-08-11T07:38:30.000Z</time>
      </trkpt>
      <trkpt lat="43.09832" lon="-0.06529">
        <ele>414</ele>
        <time>2025-08-11T07:38:34.000Z</time>
      </trkpt>
      <trkpt lat="43.09836" lon="-0.06534">
        <ele>413.79998779297</ele>
        <time>2025-08-11T07:38:35.000Z</time>
      </trkpt>
      <trkpt lat="43.09843" lon="-0.06545">
        <ele>413.39999389648</ele>
        <time>2025-08-11T07:38:37.000Z</time>
      </trkpt>
      <trkpt lat="43.09853" lon="-0.06566">
        <ele>412.79998779297</ele>
        <time>2025-08-11T07:38:40.000Z</time>
      </trkpt>
      <trkpt lat="43.09855" lon="-0.06573">
        <ele>412.60000610352</ele>
        <time>2025-08-11T07:38:41.000Z</time>
      </trkpt>
      <trkpt lat="43.0986" lon="-0.06598">
        <ele>411.79998779297</ele>
        <time>2025-08-11T07:38:44.000Z</time>
      </trkpt>
      <trkpt lat="43.09862" lon="-0.06615">
        <ele>411.20001220703</ele>
        <time>2025-08-11T07:38:46.000Z</time>
      </trkpt>
      <trkpt lat="43.09863" lon="-0.06633">
        <ele>410.60000610352</ele>
        <time>2025-08-11T07:38:48.000Z</time>
      </trkpt>
      <trkpt lat="43.09863" lon="-0.06642">
        <ele>410.39999389648</ele>
        <time>2025-08-11T07:38:49.000Z</time>
      </trkpt>
      <trkpt lat="43.09864" lon="-0.06671">
        <ele>409.79998779297</ele>
        <time>2025-08-11T07:38:52.000Z</time>
      </trkpt>
      <trkpt lat="43.09864" lon="-0.06681">
        <ele>409.39999389648</ele>
        <time>2025-08-11T07:38:53.000Z</time>
      </trkpt>
      <trkpt lat="43.09862" lon="-0.06701">
        <ele>408.79998779297</ele>
        <time>2025-08-11T07:38:55.000Z</time>
      </trkpt>
      <trkpt lat="43.09858" lon="-0.06718">
        <ele>408</ele>
        <time>2025-08-11T07:38:57.000Z</time>
      </trkpt>
      <trkpt lat="43.09851" lon="-0.06752">
        <ele>406.79998779297</ele>
        <time>2025-08-11T07:39:01.000Z</time>
      </trkpt>
      <trkpt lat="43.09843" lon="-0.06785">
        <ele>405.79998779297</ele>
        <time>2025-08-11T07:39:05.000Z</time>
      </trkpt>
      <trkpt lat="43.09841" lon="-0.06793">
        <ele>405.60000610352</ele>
        <time>2025-08-11T07:39:06.000Z</time>
      </trkpt>
      <trkpt lat="43.09833" lon="-0.0682">
        <ele>405</ele>
        <time>2025-08-11T07:39:09.000Z</time>
      </trkpt>
      <trkpt lat="43.09826" lon="-0.06836">
        <ele>404.39999389648</ele>
        <time>2025-08-11T07:39:11.000Z</time>
      </trkpt>
      <trkpt lat="43.09824" lon="-0.06842">
        <ele>404.39999389648</ele>
        <time>2025-08-11T07:39:12.000Z</time>
      </trkpt>
      <trkpt lat="43.09822" lon="-0.06846">
        <ele>404.20001220703</ele>
        <time>2025-08-11T07:39:13.000Z</time>
      </trkpt>
      <trkpt lat="43.09819" lon="-0.06853">
        <ele>404</ele>
        <time>2025-08-11T07:39:15.000Z</time>
      </trkpt>
      <trkpt lat="43.0981" lon="-0.06871">
        <ele>403.39999389648</ele>
        <time>2025-08-11T07:39:19.000Z</time>
      </trkpt>
      <trkpt lat="43.09807" lon="-0.06877">
        <ele>403.39999389648</ele>
        <time>2025-08-11T07:39:20.000Z</time>
      </trkpt>
      <trkpt lat="43.09802" lon="-0.06887">
        <ele>403.20001220703</ele>
        <time>2025-08-11T07:39:22.000Z</time>
      </trkpt>
      <trkpt lat="43.09793" lon="-0.069">
        <ele>403</ele>
        <time>2025-08-11T07:39:25.000Z</time>
      </trkpt>
      <trkpt lat="43.09765" lon="-0.06923">
        <ele>402.39999389648</ele>
        <time>2025-08-11T07:39:31.000Z</time>
      </trkpt>
      <trkpt lat="43.0975" lon="-0.06928">
        <ele>402.20001220703</ele>
        <time>2025-08-11T07:39:34.000Z</time>
      </trkpt>
      <trkpt lat="43.0974" lon="-0.0693">
        <ele>402</ele>
        <time>2025-08-11T07:39:36.000Z</time>
      </trkpt>
      <trkpt lat="43.0973" lon="-0.06926">
        <ele>401.79998779297</ele>
        <time>2025-08-11T07:39:38.000Z</time>
      </trkpt>
      <trkpt lat="43.0972" lon="-0.06921">
        <ele>401.60000610352</ele>
        <time>2025-08-11T07:39:40.000Z</time>
      </trkpt>
      <trkpt lat="43.0971" lon="-0.06915">
        <ele>401.39999389648</ele>
        <time>2025-08-11T07:39:42.000Z</time>
      </trkpt>
      <trkpt lat="43.09704" lon="-0.06914">
        <ele>401.20001220703</ele>
        <time>2025-08-11T07:39:43.000Z</time>
      </trkpt>
      <trkpt lat="43.09699" lon="-0.06915">
        <ele>401.20001220703</ele>
        <time>2025-08-11T07:39:44.000Z</time>
      </trkpt>
      <trkpt lat="43.09696" lon="-0.06916">
        <ele>401</ele>
        <time>2025-08-11T07:39:45.000Z</time>
      </trkpt>
      <trkpt lat="43.09692" lon="-0.06924">
        <ele>400.79998779297</ele>
        <time>2025-08-11T07:39:47.000Z</time>
      </trkpt>
      <trkpt lat="43.09699" lon="-0.06942">
        <ele>400.20001220703</ele>
        <time>2025-08-11T07:39:51.000Z</time>
      </trkpt>
      <trkpt lat="43.09702" lon="-0.06947">
        <ele>400</ele>
        <time>2025-08-11T07:39:52.000Z</time>
      </trkpt>
      <trkpt lat="43.09709" lon="-0.06954">
        <ele>399.60000610352</ele>
        <time>2025-08-11T07:39:54.000Z</time>
      </trkpt>
      <trkpt lat="43.09713" lon="-0.06956">
        <ele>399.39999389648</ele>
        <time>2025-08-11T07:39:55.000Z</time>
      </trkpt>
      <trkpt lat="43.09718" lon="-0.06958">
        <ele>399.20001220703</ele>
        <time>2025-08-11T07:39:56.000Z</time>
      </trkpt>
      <trkpt lat="43.09726" lon="-0.06959">
        <ele>398.39999389648</ele>
        <time>2025-08-11T07:39:59.000Z</time>
      </trkpt>
      <trkpt lat="43.09727" lon="-0.06959">
        <ele>398</ele>
        <time>2025-08-11T07:40:00.000Z</time>
      </trkpt>
      <trkpt lat="43.09727" lon="-0.06962">
        <ele>397.20001220703</ele>
        <time>2025-08-11T07:40:02.000Z</time>
      </trkpt>
      <trkpt lat="43.09726" lon="-0.06963">
        <ele>396.60000610352</ele>
        <time>2025-08-11T07:40:03.000Z</time>
      </trkpt>
      <trkpt lat="43.09725" lon="-0.06962">
        <ele>396.60000610352</ele>
        <time>2025-08-11T07:40:04.000Z</time>
      </trkpt>
      <trkpt lat="43.09724" lon="-0.06961">
        <ele>396.20001220703</ele>
        <time>2025-08-11T07:40:05.000Z</time>
      </trkpt>
      <trkpt lat="43.09722" lon="-0.0696">
        <ele>396</ele>
        <time>2025-08-11T07:40:06.000Z</time>
      </trkpt>
      <trkpt lat="43.09719" lon="-0.06959">
        <ele>395.79998779297</ele>
        <time>2025-08-11T07:40:10.000Z</time>
      </trkpt>
      <trkpt lat="43.09719" lon="-0.06959">
        <ele>395.79998779297</ele>
        <time>2025-08-11T07:40:11.000Z</time>
      </trkpt>
      <trkpt lat="43.09716" lon="-0.06957">
        <ele>395.79998779297</ele>
        <time>2025-08-11T07:41:21.000Z</time>
      </trkpt>
      <trkpt lat="43.09713" lon="-0.06956">
        <ele>395.79998779297</ele>
        <time>2025-08-11T07:41:23.000Z</time>
      </trkpt>
      <trkpt lat="43.09705" lon="-0.06954">
        <ele>395.79998779297</ele>
        <time>2025-08-11T07:41:27.000Z</time>
      </trkpt>
      <trkpt lat="43.09704" lon="-0.06951">
        <ele>396</ele>
        <time>2025-08-11T07:41:28.000Z</time>
      </trkpt>
      <trkpt lat="43.09702" lon="-0.06948">
        <ele>396</ele>
        <time>2025-08-11T07:41:29.000Z</time>
      </trkpt>
      <trkpt lat="43.09697" lon="-0.06943">
        <ele>396.39999389648</ele>
        <time>2025-08-11T07:41:32.000Z</time>
      </trkpt>
      <trkpt lat="43.09684" lon="-0.0693">
        <ele>397.39999389648</ele>
        <time>2025-08-11T07:41:39.000Z</time>
      </trkpt>
      <trkpt lat="43.09678" lon="-0.06929">
        <ele>397.60000610352</ele>
        <time>2025-08-11T07:41:42.000Z</time>
      </trkpt>
      <trkpt lat="43.09674" lon="-0.06931">
        <ele>397.79998779297</ele>
        <time>2025-08-11T07:41:44.000Z</time>
      </trkpt>
      <trkpt lat="43.09668" lon="-0.06945">
        <ele>398.39999389648</ele>
        <time>2025-08-11T07:41:49.000Z</time>
      </trkpt>
      <trkpt lat="43.09667" lon="-0.06955">
        <ele>398.39999389648</ele>
        <time>2025-08-11T07:41:52.000Z</time>
      </trkpt>
      <trkpt lat="43.09667" lon="-0.06968">
        <ele>398.79998779297</ele>
        <time>2025-08-11T07:41:56.000Z</time>
      </trkpt>
      <trkpt lat="43.09668" lon="-0.0698">
        <ele>399.39999389648</ele>
        <time>2025-08-11T07:42:00.000Z</time>
      </trkpt>
      <trkpt lat="43.09667" lon="-0.06987">
        <ele>399.60000610352</ele>
        <time>2025-08-11T07:42:02.000Z</time>
      </trkpt>
      <trkpt lat="43.09667" lon="-0.0699">
        <ele>399.60000610352</ele>
        <time>2025-08-11T07:42:03.000Z</time>
      </trkpt>
      <trkpt lat="43.09663" lon="-0.07003">
        <ele>400</ele>
        <time>2025-08-11T07:42:07.000Z</time>
      </trkpt>
      <trkpt lat="43.0966" lon="-0.0701">
        <ele>399.79998779297</ele>
        <time>2025-08-11T07:42:09.000Z</time>
      </trkpt>
      <trkpt lat="43.09653" lon="-0.07025">
        <ele>400.20001220703</ele>
        <time>2025-08-11T07:42:14.000Z</time>
      </trkpt>
      <trkpt lat="43.0965" lon="-0.0703">
        <ele>400.39999389648</ele>
        <time>2025-08-11T07:42:16.000Z</time>
      </trkpt>
      <trkpt lat="43.09645" lon="-0.07043">
        <ele>401.60000610352</ele>
        <time>2025-08-11T07:42:21.000Z</time>
      </trkpt>
      <trkpt lat="43.09644" lon="-0.07046">
        <ele>401.60000610352</ele>
        <time>2025-08-11T07:42:22.000Z</time>
      </trkpt>
      <trkpt lat="43.09641" lon="-0.07066">
        <ele>402.60000610352</ele>
        <time>2025-08-11T07:42:29.000Z</time>
      </trkpt>
      <trkpt lat="43.09637" lon="-0.07087">
        <ele>403.79998779297</ele>
        <time>2025-08-11T07:42:35.000Z</time>
      </trkpt>
      <trkpt lat="43.09636" lon="-0.0709">
        <ele>403.79998779297</ele>
        <time>2025-08-11T07:42:36.000Z</time>
      </trkpt>
      <trkpt lat="43.09632" lon="-0.07106">
        <ele>404.79998779297</ele>
        <time>2025-08-11T07:42:41.000Z</time>
      </trkpt>
      <trkpt lat="43.0963" lon="-0.07114">
        <ele>405.20001220703</ele>
        <time>2025-08-11T07:42:44.000Z</time>
      </trkpt>
      <trkpt lat="43.09627" lon="-0.07126">
        <ele>405.79998779297</ele>
        <time>2025-08-11T07:42:48.000Z</time>
      </trkpt>
      <trkpt lat="43.09625" lon="-0.07135">
        <ele>406.60000610352</ele>
        <time>2025-08-11T07:42:52.000Z</time>
      </trkpt>
      <trkpt lat="43.09623" lon="-0.0714">
        <ele>407</ele>
        <time>2025-08-11T07:42:54.000Z</time>
      </trkpt>
      <trkpt lat="43.09622" lon="-0.07145">
        <ele>407.39999389648</ele>
        <time>2025-08-11T07:42:56.000Z</time>
      </trkpt>
      <trkpt lat="43.09622" lon="-0.07148">
        <ele>407.60000610352</ele>
        <time>2025-08-11T07:42:57.000Z</time>
      </trkpt>
      <trkpt lat="43.09621" lon="-0.0715">
        <ele>407.60000610352</ele>
        <time>2025-08-11T07:42:58.000Z</time>
      </trkpt>
      <trkpt lat="43.09618" lon="-0.07152">
        <ele>408</ele>
        <time>2025-08-11T07:43:00.000Z</time>
      </trkpt>
      <trkpt lat="43.09616" lon="-0.07152">
        <ele>408.20001220703</ele>
        <time>2025-08-11T07:43:01.000Z</time>
      </trkpt>
      <trkpt lat="43.09615" lon="-0.07153">
        <ele>408.20001220703</ele>
        <time>2025-08-11T07:43:02.000Z</time>
      </trkpt>
      <trkpt lat="43.09613" lon="-0.07157">
        <ele>408.39999389648</ele>
        <time>2025-08-11T07:43:04.000Z</time>
      </trkpt>
      <trkpt lat="43.09612" lon="-0.07159">
        <ele>408.60000610352</ele>
        <time>2025-08-11T07:43:05.000Z</time>
      </trkpt>
      <trkpt lat="43.09608" lon="-0.07165">
        <ele>409</ele>
        <time>2025-08-11T07:43:08.000Z</time>
      </trkpt>
      <trkpt lat="43.09601" lon="-0.07173">
        <ele>409.79998779297</ele>
        <time>2025-08-11T07:43:13.000Z</time>
      </trkpt>
      <trkpt lat="43.09599" lon="-0.07173">
        <ele>410</ele>
        <time>2025-08-11T07:43:14.000Z</time>
      </trkpt>
      <trkpt lat="43.09597" lon="-0.07174">
        <ele>410.39999389648</ele>
        <time>2025-08-11T07:43:16.000Z</time>
      </trkpt>
      <trkpt lat="43.09596" lon="-0.07176">
        <ele>410.39999389648</ele>
        <time>2025-08-11T07:43:17.000Z</time>
      </trkpt>
      <trkpt lat="43.09596" lon="-0.07182">
        <ele>411.20001220703</ele>
        <time>2025-08-11T07:43:20.000Z</time>
      </trkpt>
      <trkpt lat="43.09595" lon="-0.07184">
        <ele>411.39999389648</ele>
        <time>2025-08-11T07:43:21.000Z</time>
      </trkpt>
      <trkpt lat="43.09594" lon="-0.07185">
        <ele>411.60000610352</ele>
        <time>2025-08-11T07:43:22.000Z</time>
      </trkpt>
      <trkpt lat="43.09591" lon="-0.07191">
        <ele>411.79998779297</ele>
        <time>2025-08-11T07:43:25.000Z</time>
      </trkpt>
      <trkpt lat="43.09591" lon="-0.07193">
        <ele>412</ele>
        <time>2025-08-11T07:43:26.000Z</time>
      </trkpt>
      <trkpt lat="43.09591" lon="-0.07199">
        <ele>412.39999389648</ele>
        <time>2025-08-11T07:43:29.000Z</time>
      </trkpt>
      <trkpt lat="43.0959" lon="-0.07201">
        <ele>412.39999389648</ele>
        <time>2025-08-11T07:43:30.000Z</time>
      </trkpt>
      <trkpt lat="43.09587" lon="-0.07204">
        <ele>413</ele>
        <time>2025-08-11T07:43:32.000Z</time>
      </trkpt>
      <trkpt lat="43.0959" lon="-0.07211">
        <ele>413.39999389648</ele>
        <time>2025-08-11T07:43:35.000Z</time>
      </trkpt>
      <trkpt lat="43.0959" lon="-0.07213">
        <ele>413.60000610352</ele>
        <time>2025-08-11T07:43:36.000Z</time>
      </trkpt>
      <trkpt lat="43.09589" lon="-0.07216">
        <ele>413.60000610352</ele>
        <time>2025-08-11T07:43:37.000Z</time>
      </trkpt>
      <trkpt lat="43.09586" lon="-0.0722">
        <ele>414</ele>
        <time>2025-08-11T07:43:40.000Z</time>
      </trkpt>
      <trkpt lat="43.09588" lon="-0.07226">
        <ele>414.20001220703</ele>
        <time>2025-08-11T07:43:42.000Z</time>
      </trkpt>
      <trkpt lat="43.09589" lon="-0.07229">
        <ele>414.60000610352</ele>
        <time>2025-08-11T07:43:44.000Z</time>
      </trkpt>
      <trkpt lat="43.09588" lon="-0.07231">
        <ele>414.60000610352</ele>
        <time>2025-08-11T07:43:45.000Z</time>
      </trkpt>
      <trkpt lat="43.09586" lon="-0.07236">
        <ele>414.60000610352</ele>
        <time>2025-08-11T07:43:48.000Z</time>
      </trkpt>
      <trkpt lat="43.09587" lon="-0.07239">
        <ele>414.79998779297</ele>
        <time>2025-08-11T07:43:49.000Z</time>
      </trkpt>
      <trkpt lat="43.09588" lon="-0.07243">
        <ele>415</ele>
        <time>2025-08-11T07:43:51.000Z</time>
      </trkpt>
      <trkpt lat="43.09588" lon="-0.07245">
        <ele>415.39999389648</ele>
        <time>2025-08-11T07:43:53.000Z</time>
      </trkpt>
      <trkpt lat="43.09587" lon="-0.07246">
        <ele>415.39999389648</ele>
        <time>2025-08-11T07:43:54.000Z</time>
      </trkpt>
      <trkpt lat="43.09587" lon="-0.07249">
        <ele>415.60000610352</ele>
        <time>2025-08-11T07:43:55.000Z</time>
      </trkpt>
      <trkpt lat="43.09587" lon="-0.07254">
        <ele>416</ele>
        <time>2025-08-11T07:43:57.000Z</time>
      </trkpt>
      <trkpt lat="43.09587" lon="-0.07257">
        <ele>416.20001220703</ele>
        <time>2025-08-11T07:43:59.000Z</time>
      </trkpt>
      <trkpt lat="43.09583" lon="-0.07258">
        <ele>416.39999389648</ele>
        <time>2025-08-11T07:44:01.000Z</time>
      </trkpt>
      <trkpt lat="43.0958" lon="-0.07262">
        <ele>416.39999389648</ele>
        <time>2025-08-11T07:44:03.000Z</time>
      </trkpt>
      <trkpt lat="43.09582" lon="-0.07265">
        <ele>416.60000610352</ele>
        <time>2025-08-11T07:44:04.000Z</time>
      </trkpt>
      <trkpt lat="43.09584" lon="-0.07267">
        <ele>416.60000610352</ele>
        <time>2025-08-11T07:44:05.000Z</time>
      </trkpt>
      <trkpt lat="43.09584" lon="-0.0727">
        <ele>416.60000610352</ele>
        <time>2025-08-11T07:44:06.000Z</time>
      </trkpt>
      <trkpt lat="43.09582" lon="-0.07273">
        <ele>417</ele>
        <time>2025-08-11T07:44:08.000Z</time>
      </trkpt>
      <trkpt lat="43.09581" lon="-0.07274">
        <ele>417.20001220703</ele>
        <time>2025-08-11T07:44:09.000Z</time>
      </trkpt>
      <trkpt lat="43.0958" lon="-0.07279">
        <ele>417.39999389648</ele>
        <time>2025-08-11T07:44:11.000Z</time>
      </trkpt>
      <trkpt lat="43.09581" lon="-0.07281">
        <ele>417.60000610352</ele>
        <time>2025-08-11T07:44:12.000Z</time>
      </trkpt>
      <trkpt lat="43.09581" lon="-0.07283">
        <ele>417.79998779297</ele>
        <time>2025-08-11T07:44:13.000Z</time>
      </trkpt>
      <trkpt lat="43.09578" lon="-0.0729">
        <ele>417.79998779297</ele>
        <time>2025-08-11T07:44:17.000Z</time>
      </trkpt>
      <trkpt lat="43.09579" lon="-0.07298">
        <ele>418.20001220703</ele>
        <time>2025-08-11T07:44:20.000Z</time>
      </trkpt>
      <trkpt lat="43.09578" lon="-0.07303">
        <ele>418.39999389648</ele>
        <time>2025-08-11T07:44:22.000Z</time>
      </trkpt>
      <trkpt lat="43.09577" lon="-0.07305">
        <ele>418.60000610352</ele>
        <time>2025-08-11T07:44:23.000Z</time>
      </trkpt>
      <trkpt lat="43.09571" lon="-0.07325">
        <ele>419.39999389648</ele>
        <time>2025-08-11T07:44:30.000Z</time>
      </trkpt>
      <trkpt lat="43.0957" lon="-0.0733">
        <ele>419.79998779297</ele>
        <time>2025-08-11T07:44:32.000Z</time>
      </trkpt>
      <trkpt lat="43.09569" lon="-0.07336">
        <ele>420</ele>
        <time>2025-08-11T07:44:34.000Z</time>
      </trkpt>
      <trkpt lat="43.09568" lon="-0.07345">
        <ele>420.60000610352</ele>
        <time>2025-08-11T07:44:38.000Z</time>
      </trkpt>
      <trkpt lat="43.09567" lon="-0.07347">
        <ele>421.20001220703</ele>
        <time>2025-08-11T07:44:39.000Z</time>
      </trkpt>
      <trkpt lat="43.09567" lon="-0.07352">
        <ele>421.79998779297</ele>
        <time>2025-08-11T07:44:41.000Z</time>
      </trkpt>
      <trkpt lat="43.09567" lon="-0.07357">
        <ele>422</ele>
        <time>2025-08-11T07:44:43.000Z</time>
      </trkpt>
      <trkpt lat="43.09566" lon="-0.07362">
        <ele>422.20001220703</ele>
        <time>2025-08-11T07:44:45.000Z</time>
      </trkpt>
      <trkpt lat="43.09567" lon="-0.0737">
        <ele>422.39999389648</ele>
        <time>2025-08-11T07:44:49.000Z</time>
      </trkpt>
      <trkpt lat="43.09567" lon="-0.07372">
        <ele>422.60000610352</ele>
        <time>2025-08-11T07:44:50.000Z</time>
      </trkpt>
      <trkpt lat="43.09567" lon="-0.07379">
        <ele>422.79998779297</ele>
        <time>2025-08-11T07:44:53.000Z</time>
      </trkpt>
      <trkpt lat="43.09568" lon="-0.07383">
        <ele>423.20001220703</ele>
        <time>2025-08-11T07:44:55.000Z</time>
      </trkpt>
      <trkpt lat="43.09568" lon="-0.07385">
        <ele>423.39999389648</ele>
        <time>2025-08-11T07:44:56.000Z</time>
      </trkpt>
      <trkpt lat="43.09566" lon="-0.07388">
        <ele>423.39999389648</ele>
        <time>2025-08-11T07:44:57.000Z</time>
      </trkpt>
      <trkpt lat="43.09567" lon="-0.07391">
        <ele>423.60000610352</ele>
        <time>2025-08-11T07:44:58.000Z</time>
      </trkpt>
      <trkpt lat="43.09568" lon="-0.07396">
        <ele>423.60000610352</ele>
        <time>2025-08-11T07:45:00.000Z</time>
      </trkpt>
      <trkpt lat="43.09568" lon="-0.07399">
        <ele>423.79998779297</ele>
        <time>2025-08-11T07:45:02.000Z</time>
      </trkpt>
      <trkpt lat="43.09566" lon="-0.07404">
        <ele>424.20001220703</ele>
        <time>2025-08-11T07:45:05.000Z</time>
      </trkpt>
      <trkpt lat="43.09564" lon="-0.07421">
        <ele>425.20001220703</ele>
        <time>2025-08-11T07:45:12.000Z</time>
      </trkpt>
      <trkpt lat="43.09565" lon="-0.07425">
        <ele>425.60000610352</ele>
        <time>2025-08-11T07:45:13.000Z</time>
      </trkpt>
      <trkpt lat="43.09566" lon="-0.07431">
        <ele>426</ele>
        <time>2025-08-11T07:45:16.000Z</time>
      </trkpt>
      <trkpt lat="43.09564" lon="-0.07435">
        <ele>426.20001220703</ele>
        <time>2025-08-11T07:45:18.000Z</time>
      </trkpt>
      <trkpt lat="43.09566" lon="-0.07439">
        <ele>426.39999389648</ele>
        <time>2025-08-11T07:45:19.000Z</time>
      </trkpt>
      <trkpt lat="43.09567" lon="-0.07441">
        <ele>426.60000610352</ele>
        <time>2025-08-11T07:45:20.000Z</time>
      </trkpt>
      <trkpt lat="43.09563" lon="-0.07459">
        <ele>427.39999389648</ele>
        <time>2025-08-11T07:45:27.000Z</time>
      </trkpt>
      <trkpt lat="43.09562" lon="-0.07461">
        <ele>427.39999389648</ele>
        <time>2025-08-11T07:45:28.000Z</time>
      </trkpt>
      <trkpt lat="43.09558" lon="-0.07477">
        <ele>428.20001220703</ele>
        <time>2025-08-11T07:45:34.000Z</time>
      </trkpt>
      <trkpt lat="43.09556" lon="-0.07485">
        <ele>428.60000610352</ele>
        <time>2025-08-11T07:45:38.000Z</time>
      </trkpt>
      <trkpt lat="43.09555" lon="-0.07489">
        <ele>429</ele>
        <time>2025-08-11T07:45:40.000Z</time>
      </trkpt>
      <trkpt lat="43.09552" lon="-0.07503">
        <ele>429.39999389648</ele>
        <time>2025-08-11T07:45:46.000Z</time>
      </trkpt>
      <trkpt lat="43.09552" lon="-0.07505">
        <ele>429.60000610352</ele>
        <time>2025-08-11T07:45:47.000Z</time>
      </trkpt>
      <trkpt lat="43.09547" lon="-0.0752">
        <ele>430.20001220703</ele>
        <time>2025-08-11T07:45:53.000Z</time>
      </trkpt>
      <trkpt lat="43.09544" lon="-0.07526">
        <ele>430.60000610352</ele>
        <time>2025-08-11T07:45:56.000Z</time>
      </trkpt>
      <trkpt lat="43.0954" lon="-0.07542">
        <ele>431.20001220703</ele>
        <time>2025-08-11T07:46:01.000Z</time>
      </trkpt>
      <trkpt lat="43.09536" lon="-0.07559">
        <ele>431.60000610352</ele>
        <time>2025-08-11T07:46:08.000Z</time>
      </trkpt>
      <trkpt lat="43.09528" lon="-0.07579">
        <ele>431.60000610352</ele>
        <time>2025-08-11T07:46:14.000Z</time>
      </trkpt>
      <trkpt lat="43.09518" lon="-0.07604">
        <ele>431.20001220703</ele>
        <time>2025-08-11T07:46:21.000Z</time>
      </trkpt>
      <trkpt lat="43.09511" lon="-0.07616">
        <ele>430.79998779297</ele>
        <time>2025-08-11T07:46:24.000Z</time>
      </trkpt>
      <trkpt lat="43.09504" lon="-0.07623">
        <ele>430.79998779297</ele>
        <time>2025-08-11T07:46:26.000Z</time>
      </trkpt>
      <trkpt lat="43.09493" lon="-0.0763">
        <ele>430.60000610352</ele>
        <time>2025-08-11T07:46:29.000Z</time>
      </trkpt>
      <trkpt lat="43.09487" lon="-0.07632">
        <ele>430.39999389648</ele>
        <time>2025-08-11T07:46:31.000Z</time>
      </trkpt>
      <trkpt lat="43.09472" lon="-0.07642">
        <ele>429.39999389648</ele>
        <time>2025-08-11T07:46:36.000Z</time>
      </trkpt>
      <trkpt lat="43.09467" lon="-0.07655">
        <ele>429</ele>
        <time>2025-08-11T07:46:38.000Z</time>
      </trkpt>
      <trkpt lat="43.09465" lon="-0.07663">
        <ele>428.79998779297</ele>
        <time>2025-08-11T07:46:39.000Z</time>
      </trkpt>
      <trkpt lat="43.09464" lon="-0.07671">
        <ele>428.79998779297</ele>
        <time>2025-08-11T07:46:40.000Z</time>
      </trkpt>
      <trkpt lat="43.09467" lon="-0.07694">
        <ele>428.20001220703</ele>
        <time>2025-08-11T07:46:43.000Z</time>
      </trkpt>
      <trkpt lat="43.09473" lon="-0.07706">
        <ele>428</ele>
        <time>2025-08-11T07:46:45.000Z</time>
      </trkpt>
      <trkpt lat="43.09481" lon="-0.07716">
        <ele>427.79998779297</ele>
        <time>2025-08-11T07:46:47.000Z</time>
      </trkpt>
      <trkpt lat="43.09497" lon="-0.07731">
        <ele>427.20001220703</ele>
        <time>2025-08-11T07:46:51.000Z</time>
      </trkpt>
      <trkpt lat="43.09508" lon="-0.07744">
        <ele>427</ele>
        <time>2025-08-11T07:46:54.000Z</time>
      </trkpt>
      <trkpt lat="43.09512" lon="-0.07749">
        <ele>427</ele>
        <time>2025-08-11T07:46:55.000Z</time>
      </trkpt>
      <trkpt lat="43.09525" lon="-0.07769">
        <ele>427</ele>
        <time>2025-08-11T07:46:59.000Z</time>
      </trkpt>
      <trkpt lat="43.09527" lon="-0.07775">
        <ele>427</ele>
        <time>2025-08-11T07:47:00.000Z</time>
      </trkpt>
      <trkpt lat="43.09531" lon="-0.07786">
        <ele>427</ele>
        <time>2025-08-11T07:47:02.000Z</time>
      </trkpt>
      <trkpt lat="43.09534" lon="-0.07797">
        <ele>427.20001220703</ele>
        <time>2025-08-11T07:47:04.000Z</time>
      </trkpt>
      <trkpt lat="43.09535" lon="-0.07802">
        <ele>427.20001220703</ele>
        <time>2025-08-11T07:47:05.000Z</time>
      </trkpt>
      <trkpt lat="43.09543" lon="-0.07829">
        <ele>427.60000610352</ele>
        <time>2025-08-11T07:47:10.000Z</time>
      </trkpt>
      <trkpt lat="43.09546" lon="-0.0786">
        <ele>427.60000610352</ele>
        <time>2025-08-11T07:47:15.000Z</time>
      </trkpt>
      <trkpt lat="43.0955" lon="-0.07873">
        <ele>427.60000610352</ele>
        <time>2025-08-11T07:47:17.000Z</time>
      </trkpt>
      <trkpt lat="43.09556" lon="-0.07886">
        <ele>427.20001220703</ele>
        <time>2025-08-11T07:47:19.000Z</time>
      </trkpt>
      <trkpt lat="43.09563" lon="-0.079">
        <ele>427</ele>
        <time>2025-08-11T07:47:21.000Z</time>
      </trkpt>
      <trkpt lat="43.09573" lon="-0.07923">
        <ele>426.39999389648</ele>
        <time>2025-08-11T07:47:24.000Z</time>
      </trkpt>
      <trkpt lat="43.09579" lon="-0.07938">
        <ele>425.79998779297</ele>
        <time>2025-08-11T07:47:26.000Z</time>
      </trkpt>
      <trkpt lat="43.09592" lon="-0.07975">
        <ele>425</ele>
        <time>2025-08-11T07:47:31.000Z</time>
      </trkpt>
      <trkpt lat="43.09594" lon="-0.07982">
        <ele>425</ele>
        <time>2025-08-11T07:47:32.000Z</time>
      </trkpt>
      <trkpt lat="43.096" lon="-0.08015">
        <ele>424.79998779297</ele>
        <time>2025-08-11T07:47:36.000Z</time>
      </trkpt>
      <trkpt lat="43.09602" lon="-0.08023">
        <ele>424.79998779297</ele>
        <time>2025-08-11T07:47:37.000Z</time>
      </trkpt>
      <trkpt lat="43.0961" lon="-0.08074">
        <ele>424</ele>
        <time>2025-08-11T07:47:43.000Z</time>
      </trkpt>
      <trkpt lat="43.09616" lon="-0.08107">
        <ele>423.39999389648</ele>
        <time>2025-08-11T07:47:47.000Z</time>
      </trkpt>
      <trkpt lat="43.09618" lon="-0.08115">
        <ele>423.39999389648</ele>
        <time>2025-08-11T07:47:48.000Z</time>
      </trkpt>
      <trkpt lat="43.0963" lon="-0.08172">
        <ele>422.79998779297</ele>
        <time>2025-08-11T07:47:55.000Z</time>
      </trkpt>
      <trkpt lat="43.09642" lon="-0.08222">
        <ele>422.60000610352</ele>
        <time>2025-08-11T07:48:02.000Z</time>
      </trkpt>
      <trkpt lat="43.09651" lon="-0.08258">
        <ele>423</ele>
        <time>2025-08-11T07:48:08.000Z</time>
      </trkpt>
      <trkpt lat="43.09659" lon="-0.08286">
        <ele>423.20001220703</ele>
        <time>2025-08-11T07:48:13.000Z</time>
      </trkpt>
      <trkpt lat="43.09661" lon="-0.08293">
        <ele>423.20001220703</ele>
        <time>2025-08-11T07:48:14.000Z</time>
      </trkpt>
      <trkpt lat="43.09668" lon="-0.08339">
        <ele>423.39999389648</ele>
        <time>2025-08-11T07:48:21.000Z</time>
      </trkpt>
      <trkpt lat="43.09669" lon="-0.08378">
        <ele>422.79998779297</ele>
        <time>2025-08-11T07:48:27.000Z</time>
      </trkpt>
      <trkpt lat="43.0967" lon="-0.08385">
        <ele>422.79998779297</ele>
        <time>2025-08-11T07:48:28.000Z</time>
      </trkpt>
      <trkpt lat="43.09669" lon="-0.08397">
        <ele>422.79998779297</ele>
        <time>2025-08-11T07:48:30.000Z</time>
      </trkpt>
      <trkpt lat="43.09667" lon="-0.08412">
        <ele>422.79998779297</ele>
        <time>2025-08-11T07:48:33.000Z</time>
      </trkpt>
      <trkpt lat="43.0967" lon="-0.08444">
        <ele>422.79998779297</ele>
        <time>2025-08-11T07:48:39.000Z</time>
      </trkpt>
      <trkpt lat="43.09675" lon="-0.08477">
        <ele>422.79998779297</ele>
        <time>2025-08-11T07:48:45.000Z</time>
      </trkpt>
      <trkpt lat="43.09678" lon="-0.08492">
        <ele>422.79998779297</ele>
        <time>2025-08-11T07:48:48.000Z</time>
      </trkpt>
      <trkpt lat="43.09684" lon="-0.08512">
        <ele>423</ele>
        <time>2025-08-11T07:48:52.000Z</time>
      </trkpt>
      <trkpt lat="43.09693" lon="-0.08545">
        <ele>423</ele>
        <time>2025-08-11T07:48:59.000Z</time>
      </trkpt>
      <trkpt lat="43.09699" lon="-0.0857">
        <ele>422.79998779297</ele>
        <time>2025-08-11T07:49:04.000Z</time>
      </trkpt>
      <trkpt lat="43.09705" lon="-0.08595">
        <ele>423</ele>
        <time>2025-08-11T07:49:10.000Z</time>
      </trkpt>
      <trkpt lat="43.09707" lon="-0.08599">
        <ele>423.20001220703</ele>
        <time>2025-08-11T07:49:11.000Z</time>
      </trkpt>
      <trkpt lat="43.09708" lon="-0.08611">
        <ele>423</ele>
        <time>2025-08-11T07:49:14.000Z</time>
      </trkpt>
      <trkpt lat="43.09713" lon="-0.08629">
        <ele>423</ele>
        <time>2025-08-11T07:49:19.000Z</time>
      </trkpt>
      <trkpt lat="43.09713" lon="-0.08654">
        <ele>423.60000610352</ele>
        <time>2025-08-11T07:49:25.000Z</time>
      </trkpt>
      <trkpt lat="43.09712" lon="-0.08664">
        <ele>423.60000610352</ele>
        <time>2025-08-11T07:49:27.000Z</time>
      </trkpt>
      <trkpt lat="43.09706" lon="-0.08688">
        <ele>424</ele>
        <time>2025-08-11T07:49:32.000Z</time>
      </trkpt>
      <trkpt lat="43.09701" lon="-0.08722">
        <ele>424.60000610352</ele>
        <time>2025-08-11T07:49:39.000Z</time>
      </trkpt>
      <trkpt lat="43.09695" lon="-0.08745">
        <ele>424.60000610352</ele>
        <time>2025-08-11T07:49:44.000Z</time>
      </trkpt>
      <trkpt lat="43.09693" lon="-0.0876">
        <ele>424.60000610352</ele>
        <time>2025-08-11T07:49:47.000Z</time>
      </trkpt>
      <trkpt lat="43.09693" lon="-0.08765">
        <ele>424.60000610352</ele>
        <time>2025-08-11T07:49:48.000Z</time>
      </trkpt>
      <trkpt lat="43.09692" lon="-0.08783">
        <ele>425</ele>
        <time>2025-08-11T07:49:53.000Z</time>
      </trkpt>
      <trkpt lat="43.09686" lon="-0.08826">
        <ele>425</ele>
        <time>2025-08-11T07:50:02.000Z</time>
      </trkpt>
      <trkpt lat="43.09682" lon="-0.08855">
        <ele>425</ele>
        <time>2025-08-11T07:50:07.000Z</time>
      </trkpt>
      <trkpt lat="43.09684" lon="-0.08881">
        <ele>424.60000610352</ele>
        <time>2025-08-11T07:50:12.000Z</time>
      </trkpt>
      <trkpt lat="43.09686" lon="-0.08906">
        <ele>424.79998779297</ele>
        <time>2025-08-11T07:50:17.000Z</time>
      </trkpt>
      <trkpt lat="43.09688" lon="-0.08939">
        <ele>425.20001220703</ele>
        <time>2025-08-11T07:50:24.000Z</time>
      </trkpt>
      <trkpt lat="43.09684" lon="-0.08968">
        <ele>425</ele>
        <time>2025-08-11T07:50:31.000Z</time>
      </trkpt>
      <trkpt lat="43.09679" lon="-0.08985">
        <ele>425</ele>
        <time>2025-08-11T07:50:36.000Z</time>
      </trkpt>
      <trkpt lat="43.09679" lon="-0.08989">
        <ele>425.20001220703</ele>
        <time>2025-08-11T07:50:37.000Z</time>
      </trkpt>
      <trkpt lat="43.09677" lon="-0.09004">
        <ele>425.60000610352</ele>
        <time>2025-08-11T07:50:42.000Z</time>
      </trkpt>
      <trkpt lat="43.09678" lon="-0.09032">
        <ele>426.20001220703</ele>
        <time>2025-08-11T07:50:49.000Z</time>
      </trkpt>
      <trkpt lat="43.09678" lon="-0.0904">
        <ele>426.39999389648</ele>
        <time>2025-08-11T07:50:51.000Z</time>
      </trkpt>
      <trkpt lat="43.09682" lon="-0.09062">
        <ele>426.20001220703</ele>
        <time>2025-08-11T07:50:56.000Z</time>
      </trkpt>
      <trkpt lat="43.09692" lon="-0.09091">
        <ele>426.20001220703</ele>
        <time>2025-08-11T07:51:02.000Z</time>
      </trkpt>
      <trkpt lat="43.09702" lon="-0.09135">
        <ele>425.60000610352</ele>
        <time>2025-08-11T07:51:09.000Z</time>
      </trkpt>
      <trkpt lat="43.09708" lon="-0.09164">
        <ele>425.39999389648</ele>
        <time>2025-08-11T07:51:14.000Z</time>
      </trkpt>
      <trkpt lat="43.09703" lon="-0.09217">
        <ele>425</ele>
        <time>2025-08-11T07:51:22.000Z</time>
      </trkpt>
      <trkpt lat="43.09704" lon="-0.0926">
        <ele>424.39999389648</ele>
        <time>2025-08-11T07:51:28.000Z</time>
      </trkpt>
      <trkpt lat="43.09705" lon="-0.09267">
        <ele>424</ele>
        <time>2025-08-11T07:51:29.000Z</time>
      </trkpt>
      <trkpt lat="43.09705" lon="-0.09274">
        <ele>424.20001220703</ele>
        <time>2025-08-11T07:51:30.000Z</time>
      </trkpt>
      <trkpt lat="43.09704" lon="-0.09289">
        <ele>423.60000610352</ele>
        <time>2025-08-11T07:51:32.000Z</time>
      </trkpt>
      <trkpt lat="43.09704" lon="-0.09296">
        <ele>423.60000610352</ele>
        <time>2025-08-11T07:51:33.000Z</time>
      </trkpt>
      <trkpt lat="43.09705" lon="-0.09338">
        <ele>422.79998779297</ele>
        <time>2025-08-11T07:51:39.000Z</time>
      </trkpt>
      <trkpt lat="43.09705" lon="-0.09351">
        <ele>422.60000610352</ele>
        <time>2025-08-11T07:51:41.000Z</time>
      </trkpt>
      <trkpt lat="43.09705" lon="-0.09358">
        <ele>422.60000610352</ele>
        <time>2025-08-11T07:51:42.000Z</time>
      </trkpt>
      <trkpt lat="43.09704" lon="-0.09371">
        <ele>422.39999389648</ele>
        <time>2025-08-11T07:51:44.000Z</time>
      </trkpt>
      <trkpt lat="43.09704" lon="-0.09383">
        <ele>422.39999389648</ele>
        <time>2025-08-11T07:51:46.000Z</time>
      </trkpt>
      <trkpt lat="43.09705" lon="-0.0939">
        <ele>422.39999389648</ele>
        <time>2025-08-11T07:51:47.000Z</time>
      </trkpt>
      <trkpt lat="43.09702" lon="-0.09418">
        <ele>422.20001220703</ele>
        <time>2025-08-11T07:51:51.000Z</time>
      </trkpt>
      <trkpt lat="43.097" lon="-0.0943">
        <ele>422</ele>
        <time>2025-08-11T07:51:53.000Z</time>
      </trkpt>
      <trkpt lat="43.09698" lon="-0.09447">
        <ele>421.60000610352</ele>
        <time>2025-08-11T07:51:56.000Z</time>
      </trkpt>
      <trkpt lat="43.09692" lon="-0.09484">
        <ele>421.39999389648</ele>
        <time>2025-08-11T07:52:02.000Z</time>
      </trkpt>
      <trkpt lat="43.09689" lon="-0.09494">
        <ele>421.39999389648</ele>
        <time>2025-08-11T07:52:04.000Z</time>
      </trkpt>
      <trkpt lat="43.09684" lon="-0.09508">
        <ele>421.39999389648</ele>
        <time>2025-08-11T07:52:06.000Z</time>
      </trkpt>
      <trkpt lat="43.09678" lon="-0.09539">
        <ele>421.79998779297</ele>
        <time>2025-08-11T07:52:12.000Z</time>
      </trkpt>
      <trkpt lat="43.09672" lon="-0.09576">
        <ele>422.20001220703</ele>
        <time>2025-08-11T07:52:20.000Z</time>
      </trkpt>
      <trkpt lat="43.0967" lon="-0.09588">
        <ele>422.39999389648</ele>
        <time>2025-08-11T07:52:23.000Z</time>
      </trkpt>
      <trkpt lat="43.09668" lon="-0.09598">
        <ele>422.79998779297</ele>
        <time>2025-08-11T07:52:26.000Z</time>
      </trkpt>
      <trkpt lat="43.09665" lon="-0.09623">
        <ele>423.60000610352</ele>
        <time>2025-08-11T07:52:32.000Z</time>
      </trkpt>
      <trkpt lat="43.09664" lon="-0.09648">
        <ele>424.20001220703</ele>
        <time>2025-08-11T07:52:38.000Z</time>
      </trkpt>
      <trkpt lat="43.09663" lon="-0.09658">
        <ele>424.60000610352</ele>
        <time>2025-08-11T07:52:41.000Z</time>
      </trkpt>
      <trkpt lat="43.09661" lon="-0.09666">
        <ele>424.60000610352</ele>
        <time>2025-08-11T07:52:44.000Z</time>
      </trkpt>
      <trkpt lat="43.09661" lon="-0.09687">
        <ele>425.79998779297</ele>
        <time>2025-08-11T07:52:51.000Z</time>
      </trkpt>
      <trkpt lat="43.09662" lon="-0.09706">
        <ele>426.60000610352</ele>
        <time>2025-08-11T07:52:57.000Z</time>
      </trkpt>
      <trkpt lat="43.09662" lon="-0.09708">
        <ele>426.79998779297</ele>
        <time>2025-08-11T07:52:58.000Z</time>
      </trkpt>
      <trkpt lat="43.09661" lon="-0.09721">
        <ele>427.60000610352</ele>
        <time>2025-08-11T07:53:03.000Z</time>
      </trkpt>
      <trkpt lat="43.09661" lon="-0.09725">
        <ele>427.79998779297</ele>
        <time>2025-08-11T07:53:04.000Z</time>
      </trkpt>
      <trkpt lat="43.0966" lon="-0.09737">
        <ele>428</ele>
        <time>2025-08-11T07:53:08.000Z</time>
      </trkpt>
      <trkpt lat="43.09659" lon="-0.09752">
        <ele>428.20001220703</ele>
        <time>2025-08-11T07:53:13.000Z</time>
      </trkpt>
      <trkpt lat="43.09659" lon="-0.09768">
        <ele>428.79998779297</ele>
        <time>2025-08-11T07:53:20.000Z</time>
      </trkpt>
      <trkpt lat="43.09659" lon="-0.0977">
        <ele>429</ele>
        <time>2025-08-11T07:53:21.000Z</time>
      </trkpt>
      <trkpt lat="43.09659" lon="-0.09785">
        <ele>429</ele>
        <time>2025-08-11T07:53:27.000Z</time>
      </trkpt>
      <trkpt lat="43.09659" lon="-0.09788">
        <ele>429.20001220703</ele>
        <time>2025-08-11T07:53:28.000Z</time>
      </trkpt>
      <trkpt lat="43.09659" lon="-0.09798">
        <ele>429.20001220703</ele>
        <time>2025-08-11T07:53:32.000Z</time>
      </trkpt>
      <trkpt lat="43.09658" lon="-0.09813">
        <ele>429.60000610352</ele>
        <time>2025-08-11T07:53:39.000Z</time>
      </trkpt>
      <trkpt lat="43.09657" lon="-0.09814">
        <ele>429.79998779297</ele>
        <time>2025-08-11T07:53:40.000Z</time>
      </trkpt>
      <trkpt lat="43.09657" lon="-0.09817">
        <ele>429.79998779297</ele>
        <time>2025-08-11T07:53:41.000Z</time>
      </trkpt>
      <trkpt lat="43.09656" lon="-0.09823">
        <ele>429.79998779297</ele>
        <time>2025-08-11T07:53:44.000Z</time>
      </trkpt>
      <trkpt lat="43.09656" lon="-0.09834">
        <ele>430</ele>
        <time>2025-08-11T07:53:47.000Z</time>
      </trkpt>
      <trkpt lat="43.09653" lon="-0.09857">
        <ele>430.39999389648</ele>
        <time>2025-08-11T07:53:55.000Z</time>
      </trkpt>
      <trkpt lat="43.09653" lon="-0.09861">
        <ele>430.79998779297</ele>
        <time>2025-08-11T07:53:58.000Z</time>
      </trkpt>
      <trkpt lat="43.09654" lon="-0.09864">
        <ele>431.20001220703</ele>
        <time>2025-08-11T07:54:01.000Z</time>
      </trkpt>
      <trkpt lat="43.09653" lon="-0.09867">
        <ele>431.20001220703</ele>
        <time>2025-08-11T07:54:02.000Z</time>
      </trkpt>
      <trkpt lat="43.09653" lon="-0.09869">
        <ele>431.20001220703</ele>
        <time>2025-08-11T07:54:03.000Z</time>
      </trkpt>
      <trkpt lat="43.09652" lon="-0.09878">
        <ele>431.60000610352</ele>
        <time>2025-08-11T07:54:07.000Z</time>
      </trkpt>
      <trkpt lat="43.09652" lon="-0.09879">
        <ele>431.79998779297</ele>
        <time>2025-08-11T07:54:08.000Z</time>
      </trkpt>
      <trkpt lat="43.09649" lon="-0.09895">
        <ele>432.79998779297</ele>
        <time>2025-08-11T07:54:15.000Z</time>
      </trkpt>
      <trkpt lat="43.09642" lon="-0.09916">
        <ele>434</ele>
        <time>2025-08-11T07:54:24.000Z</time>
      </trkpt>
      <trkpt lat="43.09634" lon="-0.09936">
        <ele>434.79998779297</ele>
        <time>2025-08-11T07:54:33.000Z</time>
      </trkpt>
      <trkpt lat="43.09631" lon="-0.0994">
        <ele>435</ele>
        <time>2025-08-11T07:54:35.000Z</time>
      </trkpt>
      <trkpt lat="43.09626" lon="-0.0995">
        <ele>435.20001220703</ele>
        <time>2025-08-11T07:54:40.000Z</time>
      </trkpt>
      <trkpt lat="43.09617" lon="-0.09968">
        <ele>435</ele>
        <time>2025-08-11T07:54:48.000Z</time>
      </trkpt>
      <trkpt lat="43.09615" lon="-0.09971">
        <ele>435</ele>
        <time>2025-08-11T07:54:50.000Z</time>
      </trkpt>
      <trkpt lat="43.09614" lon="-0.09975">
        <ele>435</ele>
        <time>2025-08-11T07:54:53.000Z</time>
      </trkpt>
      <trkpt lat="43.09614" lon="-0.09976">
        <ele>435</ele>
        <time>2025-08-11T07:54:54.000Z</time>
      </trkpt>
      <trkpt lat="43.09613" lon="-0.09978">
        <ele>435</ele>
        <time>2025-08-11T07:54:59.000Z</time>
      </trkpt>
      <trkpt lat="43.09609" lon="-0.09986">
        <ele>434.60000610352</ele>
        <time>2025-08-11T07:57:16.000Z</time>
      </trkpt>
      <trkpt lat="43.09604" lon="-0.09999">
        <ele>434.60000610352</ele>
        <time>2025-08-11T07:57:21.000Z</time>
      </trkpt>
      <trkpt lat="43.09595" lon="-0.10023">
        <ele>434</ele>
        <time>2025-08-11T07:57:27.000Z</time>
      </trkpt>
      <trkpt lat="43.09586" lon="-0.10044">
        <ele>433.39999389648</ele>
        <time>2025-08-11T07:57:31.000Z</time>
      </trkpt>
      <trkpt lat="43.09583" lon="-0.1005">
        <ele>433.20001220703</ele>
        <time>2025-08-11T07:57:32.000Z</time>
      </trkpt>
      <trkpt lat="43.09577" lon="-0.10063">
        <ele>432.39999389648</ele>
        <time>2025-08-11T07:57:34.000Z</time>
      </trkpt>
      <trkpt lat="43.09569" lon="-0.10082">
        <ele>431.79998779297</ele>
        <time>2025-08-11T07:57:37.000Z</time>
      </trkpt>
      <trkpt lat="43.09563" lon="-0.10096">
        <ele>431.39999389648</ele>
        <time>2025-08-11T07:57:39.000Z</time>
      </trkpt>
      <trkpt lat="43.09552" lon="-0.10121">
        <ele>431</ele>
        <time>2025-08-11T07:57:43.000Z</time>
      </trkpt>
      <trkpt lat="43.09538" lon="-0.10149">
        <ele>430.39999389648</ele>
        <time>2025-08-11T07:57:47.000Z</time>
      </trkpt>
      <trkpt lat="43.09526" lon="-0.10172">
        <ele>430.20001220703</ele>
        <time>2025-08-11T07:57:51.000Z</time>
      </trkpt>
      <trkpt lat="43.0952" lon="-0.10191">
        <ele>429.79998779297</ele>
        <time>2025-08-11T07:57:54.000Z</time>
      </trkpt>
      <trkpt lat="43.09514" lon="-0.10218">
        <ele>429.60000610352</ele>
        <time>2025-08-11T07:57:57.000Z</time>
      </trkpt>
      <trkpt lat="43.0951" lon="-0.10236">
        <ele>429.20001220703</ele>
        <time>2025-08-11T07:57:59.000Z</time>
      </trkpt>
      <trkpt lat="43.09507" lon="-0.10242">
        <ele>429</ele>
        <time>2025-08-11T07:58:00.000Z</time>
      </trkpt>
      <trkpt lat="43.09502" lon="-0.1026">
        <ele>428.79998779297</ele>
        <time>2025-08-11T07:58:02.000Z</time>
      </trkpt>
      <trkpt lat="43.0949" lon="-0.10294">
        <ele>428</ele>
        <time>2025-08-11T07:58:06.000Z</time>
      </trkpt>
      <trkpt lat="43.09481" lon="-0.10324">
        <ele>427.60000610352</ele>
        <time>2025-08-11T07:58:09.000Z</time>
      </trkpt>
      <trkpt lat="43.09471" lon="-0.10356">
        <ele>426.79998779297</ele>
        <time>2025-08-11T07:58:13.000Z</time>
      </trkpt>
      <trkpt lat="43.09464" lon="-0.10381">
        <ele>426.39999389648</ele>
        <time>2025-08-11T07:58:16.000Z</time>
      </trkpt>
      <trkpt lat="43.09458" lon="-0.10406">
        <ele>425.39999389648</ele>
        <time>2025-08-11T07:58:19.000Z</time>
      </trkpt>
      <trkpt lat="43.09458" lon="-0.10424">
        <ele>425.20001220703</ele>
        <time>2025-08-11T07:58:21.000Z</time>
      </trkpt>
      <trkpt lat="43.09462" lon="-0.10472">
        <ele>424.39999389648</ele>
        <time>2025-08-11T07:58:27.000Z</time>
      </trkpt>
      <trkpt lat="43.09464" lon="-0.10479">
        <ele>424.39999389648</ele>
        <time>2025-08-11T07:58:28.000Z</time>
      </trkpt>
      <trkpt lat="43.09466" lon="-0.10495">
        <ele>424.39999389648</ele>
        <time>2025-08-11T07:58:30.000Z</time>
      </trkpt>
      <trkpt lat="43.09472" lon="-0.1053">
        <ele>423.60000610352</ele>
        <time>2025-08-11T07:58:35.000Z</time>
      </trkpt>
      <trkpt lat="43.09473" lon="-0.10535">
        <ele>423.60000610352</ele>
        <time>2025-08-11T07:58:36.000Z</time>
      </trkpt>
      <trkpt lat="43.09475" lon="-0.10546">
        <ele>423.60000610352</ele>
        <time>2025-08-11T07:58:38.000Z</time>
      </trkpt>
      <trkpt lat="43.09477" lon="-0.10562">
        <ele>423.39999389648</ele>
        <time>2025-08-11T07:58:41.000Z</time>
      </trkpt>
      <trkpt lat="43.09477" lon="-0.10569">
        <ele>423.39999389648</ele>
        <time>2025-08-11T07:58:42.000Z</time>
      </trkpt>
      <trkpt lat="43.09481" lon="-0.10588">
        <ele>423</ele>
        <time>2025-08-11T07:58:45.000Z</time>
      </trkpt>
      <trkpt lat="43.09484" lon="-0.10601">
        <ele>422.79998779297</ele>
        <time>2025-08-11T07:58:47.000Z</time>
      </trkpt>
      <trkpt lat="43.09486" lon="-0.10613">
        <ele>422.60000610352</ele>
        <time>2025-08-11T07:58:49.000Z</time>
      </trkpt>
      <trkpt lat="43.09487" lon="-0.10623">
        <ele>422.39999389648</ele>
        <time>2025-08-11T07:58:51.000Z</time>
      </trkpt>
      <trkpt lat="43.09488" lon="-0.1063">
        <ele>422.39999389648</ele>
        <time>2025-08-11T07:58:52.000Z</time>
      </trkpt>
      <trkpt lat="43.09485" lon="-0.10684">
        <ele>421.60000610352</ele>
        <time>2025-08-11T07:58:59.000Z</time>
      </trkpt>
      <trkpt lat="43.09485" lon="-0.10693">
        <ele>421.60000610352</ele>
        <time>2025-08-11T07:59:00.000Z</time>
      </trkpt>
      <trkpt lat="43.09485" lon="-0.10721">
        <ele>420.60000610352</ele>
        <time>2025-08-11T07:59:04.000Z</time>
      </trkpt>
      <trkpt lat="43.09484" lon="-0.10744">
        <ele>420.39999389648</ele>
        <time>2025-08-11T07:59:07.000Z</time>
      </trkpt>
      <trkpt lat="43.09485" lon="-0.10769">
        <ele>419.79998779297</ele>
        <time>2025-08-11T07:59:10.000Z</time>
      </trkpt>
      <trkpt lat="43.09485" lon="-0.10778">
        <ele>419.60000610352</ele>
        <time>2025-08-11T07:59:11.000Z</time>
      </trkpt>
      <trkpt lat="43.09483" lon="-0.10802">
        <ele>419.20001220703</ele>
        <time>2025-08-11T07:59:14.000Z</time>
      </trkpt>
      <trkpt lat="43.09481" lon="-0.10829">
        <ele>418.60000610352</ele>
        <time>2025-08-11T07:59:17.000Z</time>
      </trkpt>
      <trkpt lat="43.09479" lon="-0.10852">
        <ele>418.20001220703</ele>
        <time>2025-08-11T07:59:20.000Z</time>
      </trkpt>
      <trkpt lat="43.09475" lon="-0.10872">
        <ele>417.60000610352</ele>
        <time>2025-08-11T07:59:23.000Z</time>
      </trkpt>
      <trkpt lat="43.09472" lon="-0.10886">
        <ele>417.20001220703</ele>
        <time>2025-08-11T07:59:25.000Z</time>
      </trkpt>
      <trkpt lat="43.09462" lon="-0.10923">
        <ele>416.39999389648</ele>
        <time>2025-08-11T07:59:30.000Z</time>
      </trkpt>
      <trkpt lat="43.09455" lon="-0.10945">
        <ele>416</ele>
        <time>2025-08-11T07:59:33.000Z</time>
      </trkpt>
      <trkpt lat="43.09442" lon="-0.10987">
        <ele>415.39999389648</ele>
        <time>2025-08-11T07:59:39.000Z</time>
      </trkpt>
      <trkpt lat="43.0944" lon="-0.10994">
        <ele>415.20001220703</ele>
        <time>2025-08-11T07:59:40.000Z</time>
      </trkpt>
      <trkpt lat="43.09431" lon="-0.11031">
        <ele>414.39999389648</ele>
        <time>2025-08-11T07:59:46.000Z</time>
      </trkpt>
      <trkpt lat="43.09429" lon="-0.1106">
        <ele>414.20001220703</ele>
        <time>2025-08-11T07:59:51.000Z</time>
      </trkpt>
      <trkpt lat="43.09429" lon="-0.11065">
        <ele>414.20001220703</ele>
        <time>2025-08-11T07:59:52.000Z</time>
      </trkpt>
      <trkpt lat="43.09429" lon="-0.1107">
        <ele>414.20001220703</ele>
        <time>2025-08-11T07:59:53.000Z</time>
      </trkpt>
      <trkpt lat="43.09431" lon="-0.11091">
        <ele>414.20001220703</ele>
        <time>2025-08-11T07:59:57.000Z</time>
      </trkpt>
      <trkpt lat="43.09441" lon="-0.1114">
        <ele>414</ele>
        <time>2025-08-11T08:00:06.000Z</time>
      </trkpt>
      <trkpt lat="43.09446" lon="-0.11171">
        <ele>413.60000610352</ele>
        <time>2025-08-11T08:00:10.000Z</time>
      </trkpt>
      <trkpt lat="43.09448" lon="-0.11178">
        <ele>413.60000610352</ele>
        <time>2025-08-11T08:00:11.000Z</time>
      </trkpt>
      <trkpt lat="43.0945" lon="-0.1119">
        <ele>413.39999389648</ele>
        <time>2025-08-11T08:00:13.000Z</time>
      </trkpt>
      <trkpt lat="43.09454" lon="-0.11206">
        <ele>413.39999389648</ele>
        <time>2025-08-11T08:00:16.000Z</time>
      </trkpt>
      <trkpt lat="43.09455" lon="-0.11213">
        <ele>413.20001220703</ele>
        <time>2025-08-11T08:00:17.000Z</time>
      </trkpt>
      <trkpt lat="43.09456" lon="-0.11219">
        <ele>413.20001220703</ele>
        <time>2025-08-11T08:00:18.000Z</time>
      </trkpt>
      <trkpt lat="43.09457" lon="-0.1123">
        <ele>413.20001220703</ele>
        <time>2025-08-11T08:00:20.000Z</time>
      </trkpt>
      <trkpt lat="43.09458" lon="-0.11236">
        <ele>413.20001220703</ele>
        <time>2025-08-11T08:00:21.000Z</time>
      </trkpt>
      <trkpt lat="43.0946" lon="-0.11243">
        <ele>413.20001220703</ele>
        <time>2025-08-11T08:00:22.000Z</time>
      </trkpt>
      <trkpt lat="43.09461" lon="-0.11249">
        <ele>413.20001220703</ele>
        <time>2025-08-11T08:00:23.000Z</time>
      </trkpt>
      <trkpt lat="43.09463" lon="-0.11262">
        <ele>413.20001220703</ele>
        <time>2025-08-11T08:00:25.000Z</time>
      </trkpt>
      <trkpt lat="43.09468" lon="-0.11283">
        <ele>412.79998779297</ele>
        <time>2025-08-11T08:00:28.000Z</time>
      </trkpt>
      <trkpt lat="43.09472" lon="-0.11297">
        <ele>412.60000610352</ele>
        <time>2025-08-11T08:00:30.000Z</time>
      </trkpt>
      <trkpt lat="43.09474" lon="-0.11304">
        <ele>412.39999389648</ele>
        <time>2025-08-11T08:00:31.000Z</time>
      </trkpt>
      <trkpt lat="43.09476" lon="-0.11309">
        <ele>412.20001220703</ele>
        <time>2025-08-11T08:00:32.000Z</time>
      </trkpt>
      <trkpt lat="43.09479" lon="-0.11317">
        <ele>412</ele>
        <time>2025-08-11T08:00:33.000Z</time>
      </trkpt>
      <trkpt lat="43.09481" lon="-0.11324">
        <ele>411.79998779297</ele>
        <time>2025-08-11T08:00:34.000Z</time>
      </trkpt>
      <trkpt lat="43.09488" lon="-0.11336">
        <ele>411.79998779297</ele>
        <time>2025-08-11T08:00:36.000Z</time>
      </trkpt>
      <trkpt lat="43.09493" lon="-0.11358">
        <ele>411.79998779297</ele>
        <time>2025-08-11T08:00:40.000Z</time>
      </trkpt>
      <trkpt lat="43.09493" lon="-0.11361">
        <ele>411.79998779297</ele>
        <time>2025-08-11T08:00:41.000Z</time>
      </trkpt>
      <trkpt lat="43.09496" lon="-0.11376">
        <ele>412</ele>
        <time>2025-08-11T08:00:45.000Z</time>
      </trkpt>
      <trkpt lat="43.095" lon="-0.11394">
        <ele>413.20001220703</ele>
        <time>2025-08-11T08:00:51.000Z</time>
      </trkpt>
      <trkpt lat="43.09505" lon="-0.1141">
        <ele>414.20001220703</ele>
        <time>2025-08-11T08:00:57.000Z</time>
      </trkpt>
      <trkpt lat="43.09512" lon="-0.11429">
        <ele>415.20001220703</ele>
        <time>2025-08-11T08:01:04.000Z</time>
      </trkpt>
      <trkpt lat="43.09512" lon="-0.11432">
        <ele>415.20001220703</ele>
        <time>2025-08-11T08:01:05.000Z</time>
      </trkpt>
      <trkpt lat="43.09518" lon="-0.11457">
        <ele>416.20001220703</ele>
        <time>2025-08-11T08:01:13.000Z</time>
      </trkpt>
      <trkpt lat="43.09515" lon="-0.11463">
        <ele>416.60000610352</ele>
        <time>2025-08-11T08:01:16.000Z</time>
      </trkpt>
      <trkpt lat="43.09513" lon="-0.11467">
        <ele>416.79998779297</ele>
        <time>2025-08-11T08:01:18.000Z</time>
      </trkpt>
      <trkpt lat="43.09513" lon="-0.11472">
        <ele>417</ele>
        <time>2025-08-11T08:01:20.000Z</time>
      </trkpt>
      <trkpt lat="43.09513" lon="-0.11477">
        <ele>417.39999389648</ele>
        <time>2025-08-11T08:01:22.000Z</time>
      </trkpt>
      <trkpt lat="43.09513" lon="-0.1148">
        <ele>417.39999389648</ele>
        <time>2025-08-11T08:01:23.000Z</time>
      </trkpt>
      <trkpt lat="43.09509" lon="-0.11496">
        <ele>418.39999389648</ele>
        <time>2025-08-11T08:01:29.000Z</time>
      </trkpt>
      <trkpt lat="43.09508" lon="-0.115">
        <ele>418.39999389648</ele>
        <time>2025-08-11T08:01:30.000Z</time>
      </trkpt>
      <trkpt lat="43.09503" lon="-0.11518">
        <ele>419.39999389648</ele>
        <time>2025-08-11T08:01:37.000Z</time>
      </trkpt>
      <trkpt lat="43.09501" lon="-0.11523">
        <ele>419.79998779297</ele>
        <time>2025-08-11T08:01:39.000Z</time>
      </trkpt>
      <trkpt lat="43.09498" lon="-0.11538">
        <ele>420.39999389648</ele>
        <time>2025-08-11T08:01:45.000Z</time>
      </trkpt>
      <trkpt lat="43.09498" lon="-0.1154">
        <ele>420.60000610352</ele>
        <time>2025-08-11T08:01:46.000Z</time>
      </trkpt>
      <trkpt lat="43.09503" lon="-0.11561">
        <ele>421</ele>
        <time>2025-08-11T08:01:52.000Z</time>
      </trkpt>
      <trkpt lat="43.09504" lon="-0.11567">
        <ele>420.79998779297</ele>
        <time>2025-08-11T08:01:53.000Z</time>
      </trkpt>
      <trkpt lat="43.09511" lon="-0.11597">
        <ele>420.60000610352</ele>
        <time>2025-08-11T08:01:58.000Z</time>
      </trkpt>
      <trkpt lat="43.09516" lon="-0.11636">
        <ele>419.60000610352</ele>
        <time>2025-08-11T08:02:04.000Z</time>
      </trkpt>
      <trkpt lat="43.09517" lon="-0.11641">
        <ele>419.60000610352</ele>
        <time>2025-08-11T08:02:05.000Z</time>
      </trkpt>
      <trkpt lat="43.09521" lon="-0.11655">
        <ele>419.60000610352</ele>
        <time>2025-08-11T08:02:09.000Z</time>
      </trkpt>
      <trkpt lat="43.09527" lon="-0.1167">
        <ele>419.79998779297</ele>
        <time>2025-08-11T08:02:15.000Z</time>
      </trkpt>
      <trkpt lat="43.09534" lon="-0.11679">
        <ele>420.60000610352</ele>
        <time>2025-08-11T08:02:19.000Z</time>
      </trkpt>
      <trkpt lat="43.09538" lon="-0.11689">
        <ele>421.20001220703</ele>
        <time>2025-08-11T08:02:23.000Z</time>
      </trkpt>
      <trkpt lat="43.09541" lon="-0.11695">
        <ele>421.60000610352</ele>
        <time>2025-08-11T08:02:26.000Z</time>
      </trkpt>
      <trkpt lat="43.09545" lon="-0.11704">
        <ele>422</ele>
        <time>2025-08-11T08:02:30.000Z</time>
      </trkpt>
      <trkpt lat="43.09547" lon="-0.11711">
        <ele>422.79998779297</ele>
        <time>2025-08-11T08:02:33.000Z</time>
      </trkpt>
      <trkpt lat="43.09549" lon="-0.11717">
        <ele>423.39999389648</ele>
        <time>2025-08-11T08:02:36.000Z</time>
      </trkpt>
      <trkpt lat="43.09551" lon="-0.11722">
        <ele>423.79998779297</ele>
        <time>2025-08-11T08:02:39.000Z</time>
      </trkpt>
      <trkpt lat="43.09552" lon="-0.11727">
        <ele>424.20001220703</ele>
        <time>2025-08-11T08:02:41.000Z</time>
      </trkpt>
      <trkpt lat="43.09556" lon="-0.11739">
        <ele>425</ele>
        <time>2025-08-11T08:02:46.000Z</time>
      </trkpt>
      <trkpt lat="43.09557" lon="-0.11741">
        <ele>425</ele>
        <time>2025-08-11T08:02:47.000Z</time>
      </trkpt>
      <trkpt lat="43.09559" lon="-0.11762">
        <ele>425.39999389648</ele>
        <time>2025-08-11T08:02:52.000Z</time>
      </trkpt>
      <trkpt lat="43.09562" lon="-0.11782">
        <ele>425.20001220703</ele>
        <time>2025-08-11T08:02:57.000Z</time>
      </trkpt>
      <trkpt lat="43.09559" lon="-0.11809">
        <ele>424</ele>
        <time>2025-08-11T08:03:04.000Z</time>
      </trkpt>
      <trkpt lat="43.09556" lon="-0.1182">
        <ele>423.60000610352</ele>
        <time>2025-08-11T08:03:06.000Z</time>
      </trkpt>
      <trkpt lat="43.09551" lon="-0.1183">
        <ele>422.79998779297</ele>
        <time>2025-08-11T08:03:09.000Z</time>
      </trkpt>
      <trkpt lat="43.09536" lon="-0.11861">
        <ele>421.79998779297</ele>
        <time>2025-08-11T08:03:16.000Z</time>
      </trkpt>
      <trkpt lat="43.09528" lon="-0.11879">
        <ele>421.39999389648</ele>
        <time>2025-08-11T08:03:19.000Z</time>
      </trkpt>
      <trkpt lat="43.09523" lon="-0.11892">
        <ele>421.20001220703</ele>
        <time>2025-08-11T08:03:21.000Z</time>
      </trkpt>
      <trkpt lat="43.09521" lon="-0.11899">
        <ele>420.79998779297</ele>
        <time>2025-08-11T08:03:22.000Z</time>
      </trkpt>
      <trkpt lat="43.0952" lon="-0.11916">
        <ele>420</ele>
        <time>2025-08-11T08:03:24.000Z</time>
      </trkpt>
      <trkpt lat="43.09523" lon="-0.11924">
        <ele>419.79998779297</ele>
        <time>2025-08-11T08:03:25.000Z</time>
      </trkpt>
      <trkpt lat="43.09528" lon="-0.1193">
        <ele>419.39999389648</ele>
        <time>2025-08-11T08:03:26.000Z</time>
      </trkpt>
      <trkpt lat="43.09533" lon="-0.11936">
        <ele>418.79998779297</ele>
        <time>2025-08-11T08:03:27.000Z</time>
      </trkpt>
      <trkpt lat="43.0954" lon="-0.11941">
        <ele>418.60000610352</ele>
        <time>2025-08-11T08:03:28.000Z</time>
      </trkpt>
      <trkpt lat="43.09559" lon="-0.11956">
        <ele>417.60000610352</ele>
        <time>2025-08-11T08:03:31.000Z</time>
      </trkpt>
      <trkpt lat="43.09566" lon="-0.11961">
        <ele>417.20001220703</ele>
        <time>2025-08-11T08:03:32.000Z</time>
      </trkpt>
      <trkpt lat="43.09579" lon="-0.11971">
        <ele>416.39999389648</ele>
        <time>2025-08-11T08:03:34.000Z</time>
      </trkpt>
      <trkpt lat="43.09591" lon="-0.11982">
        <ele>415.60000610352</ele>
        <time>2025-08-11T08:03:36.000Z</time>
      </trkpt>
      <trkpt lat="43.09596" lon="-0.11989">
        <ele>415.39999389648</ele>
        <time>2025-08-11T08:03:37.000Z</time>
      </trkpt>
      <trkpt lat="43.096" lon="-0.11996">
        <ele>415.20001220703</ele>
        <time>2025-08-11T08:03:38.000Z</time>
      </trkpt>
      <trkpt lat="43.09604" lon="-0.12005">
        <ele>415.20001220703</ele>
        <time>2025-08-11T08:03:39.000Z</time>
      </trkpt>
      <trkpt lat="43.09609" lon="-0.12024">
        <ele>414.60000610352</ele>
        <time>2025-08-11T08:03:41.000Z</time>
      </trkpt>
      <trkpt lat="43.09612" lon="-0.12044">
        <ele>414</ele>
        <time>2025-08-11T08:03:43.000Z</time>
      </trkpt>
      <trkpt lat="43.0961" lon="-0.12053">
        <ele>413.60000610352</ele>
        <time>2025-08-11T08:03:44.000Z</time>
      </trkpt>
      <trkpt lat="43.09609" lon="-0.12062">
        <ele>413.20001220703</ele>
        <time>2025-08-11T08:03:45.000Z</time>
      </trkpt>
      <trkpt lat="43.09605" lon="-0.12071">
        <ele>412.39999389648</ele>
        <time>2025-08-11T08:03:46.000Z</time>
      </trkpt>
      <trkpt lat="43.09596" lon="-0.12091">
        <ele>411</ele>
        <time>2025-08-11T08:03:48.000Z</time>
      </trkpt>
      <trkpt lat="43.09586" lon="-0.1211">
        <ele>409.60000610352</ele>
        <time>2025-08-11T08:03:50.000Z</time>
      </trkpt>
      <trkpt lat="43.09576" lon="-0.1213">
        <ele>408.39999389648</ele>
        <time>2025-08-11T08:03:52.000Z</time>
      </trkpt>
      <trkpt lat="43.0957" lon="-0.1214">
        <ele>407</ele>
        <time>2025-08-11T08:03:53.000Z</time>
      </trkpt>
      <trkpt lat="43.09565" lon="-0.12149">
        <ele>406.39999389648</ele>
        <time>2025-08-11T08:03:54.000Z</time>
      </trkpt>
      <trkpt lat="43.09561" lon="-0.12159">
        <ele>405.60000610352</ele>
        <time>2025-08-11T08:03:55.000Z</time>
      </trkpt>
      <trkpt lat="43.09558" lon="-0.1218">
        <ele>404</ele>
        <time>2025-08-11T08:03:57.000Z</time>
      </trkpt>
      <trkpt lat="43.09559" lon="-0.1219">
        <ele>403</ele>
        <time>2025-08-11T08:03:58.000Z</time>
      </trkpt>
      <trkpt lat="43.09562" lon="-0.12199">
        <ele>402.60000610352</ele>
        <time>2025-08-11T08:03:59.000Z</time>
      </trkpt>
      <trkpt lat="43.09566" lon="-0.12206">
        <ele>401.60000610352</ele>
        <time>2025-08-11T08:04:00.000Z</time>
      </trkpt>
      <trkpt lat="43.09572" lon="-0.12213">
        <ele>401.20001220703</ele>
        <time>2025-08-11T08:04:01.000Z</time>
      </trkpt>
      <trkpt lat="43.09584" lon="-0.12225">
        <ele>400.60000610352</ele>
        <time>2025-08-11T08:04:03.000Z</time>
      </trkpt>
      <trkpt lat="43.09589" lon="-0.12232">
        <ele>400</ele>
        <time>2025-08-11T08:04:04.000Z</time>
      </trkpt>
      <trkpt lat="43.09601" lon="-0.12257">
        <ele>398.60000610352</ele>
        <time>2025-08-11T08:04:07.000Z</time>
      </trkpt>
      <trkpt lat="43.09604" lon="-0.12266">
        <ele>398.39999389648</ele>
        <time>2025-08-11T08:04:08.000Z</time>
      </trkpt>
      <trkpt lat="43.09609" lon="-0.12305">
        <ele>397.79998779297</ele>
        <time>2025-08-11T08:04:12.000Z</time>
      </trkpt>
      <trkpt lat="43.09612" lon="-0.12335">
        <ele>397.39999389648</ele>
        <time>2025-08-11T08:04:15.000Z</time>
      </trkpt>
      <trkpt lat="43.09615" lon="-0.12365">
        <ele>396.39999389648</ele>
        <time>2025-08-11T08:04:18.000Z</time>
      </trkpt>
      <trkpt lat="43.09619" lon="-0.12413">
        <ele>395.39999389648</ele>
        <time>2025-08-11T08:04:23.000Z</time>
      </trkpt>
      <trkpt lat="43.09622" lon="-0.12431">
        <ele>395</ele>
        <time>2025-08-11T08:04:25.000Z</time>
      </trkpt>
      <trkpt lat="43.09624" lon="-0.1244">
        <ele>394.79998779297</ele>
        <time>2025-08-11T08:04:26.000Z</time>
      </trkpt>
      <trkpt lat="43.09635" lon="-0.12463">
        <ele>394.60000610352</ele>
        <time>2025-08-11T08:04:29.000Z</time>
      </trkpt>
      <trkpt lat="43.09647" lon="-0.12485">
        <ele>394.20001220703</ele>
        <time>2025-08-11T08:04:32.000Z</time>
      </trkpt>
      <trkpt lat="43.09656" lon="-0.12499">
        <ele>393.79998779297</ele>
        <time>2025-08-11T08:04:34.000Z</time>
      </trkpt>
      <trkpt lat="43.09678" lon="-0.12531">
        <ele>393.20001220703</ele>
        <time>2025-08-11T08:04:39.000Z</time>
      </trkpt>
      <trkpt lat="43.09684" lon="-0.12545">
        <ele>392.60000610352</ele>
        <time>2025-08-11T08:04:41.000Z</time>
      </trkpt>
      <trkpt lat="43.09696" lon="-0.12579">
        <ele>392</ele>
        <time>2025-08-11T08:04:45.000Z</time>
      </trkpt>
      <trkpt lat="43.09698" lon="-0.12585">
        <ele>391.79998779297</ele>
        <time>2025-08-11T08:04:46.000Z</time>
      </trkpt>
      <trkpt lat="43.09712" lon="-0.12616">
        <ele>391.39999389648</ele>
        <time>2025-08-11T08:04:50.000Z</time>
      </trkpt>
      <trkpt lat="43.09729" lon="-0.12669">
        <ele>391.20001220703</ele>
        <time>2025-08-11T08:04:57.000Z</time>
      </trkpt>
      <trkpt lat="43.09731" lon="-0.12676">
        <ele>391</ele>
        <time>2025-08-11T08:04:58.000Z</time>
      </trkpt>
      <trkpt lat="43.09736" lon="-0.12699">
        <ele>390.60000610352</ele>
        <time>2025-08-11T08:05:01.000Z</time>
      </trkpt>
      <trkpt lat="43.0974" lon="-0.12724">
        <ele>390</ele>
        <time>2025-08-11T08:05:04.000Z</time>
      </trkpt>
      <trkpt lat="43.09742" lon="-0.12734">
        <ele>389.60000610352</ele>
        <time>2025-08-11T08:05:05.000Z</time>
      </trkpt>
      <trkpt lat="43.09744" lon="-0.12741">
        <ele>389.39999389648</ele>
        <time>2025-08-11T08:05:06.000Z</time>
      </trkpt>
      <trkpt lat="43.09749" lon="-0.12759">
        <ele>388</ele>
        <time>2025-08-11T08:05:08.000Z</time>
      </trkpt>
      <trkpt lat="43.09753" lon="-0.12772">
        <ele>386.79998779297</ele>
        <time>2025-08-11T08:05:10.000Z</time>
      </trkpt>
      <trkpt lat="43.09758" lon="-0.1279">
        <ele>385.39999389648</ele>
        <time>2025-08-11T08:05:12.000Z</time>
      </trkpt>
      <trkpt lat="43.09761" lon="-0.12803">
        <ele>384.20001220703</ele>
        <time>2025-08-11T08:05:14.000Z</time>
      </trkpt>
      <trkpt lat="43.0977" lon="-0.1282">
        <ele>382.39999389648</ele>
        <time>2025-08-11T08:05:16.000Z</time>
      </trkpt>
      <trkpt lat="43.0978" lon="-0.12835">
        <ele>381.20001220703</ele>
        <time>2025-08-11T08:05:18.000Z</time>
      </trkpt>
      <trkpt lat="43.09789" lon="-0.12849">
        <ele>380</ele>
        <time>2025-08-11T08:05:20.000Z</time>
      </trkpt>
      <trkpt lat="43.09792" lon="-0.12856">
        <ele>379.39999389648</ele>
        <time>2025-08-11T08:05:21.000Z</time>
      </trkpt>
      <trkpt lat="43.09793" lon="-0.12862">
        <ele>378.79998779297</ele>
        <time>2025-08-11T08:05:22.000Z</time>
      </trkpt>
      <trkpt lat="43.09794" lon="-0.12868">
        <ele>378.60000610352</ele>
        <time>2025-08-11T08:05:23.000Z</time>
      </trkpt>
      <trkpt lat="43.09794" lon="-0.12889">
        <ele>378.39999389648</ele>
        <time>2025-08-11T08:05:28.000Z</time>
      </trkpt>
      <trkpt lat="43.09793" lon="-0.12911">
        <ele>379.20001220703</ele>
        <time>2025-08-11T08:05:35.000Z</time>
      </trkpt>
      <trkpt lat="43.09793" lon="-0.12934">
        <ele>380</ele>
        <time>2025-08-11T08:05:42.000Z</time>
      </trkpt>
      <trkpt lat="43.09793" lon="-0.12937">
        <ele>380.20001220703</ele>
        <time>2025-08-11T08:05:43.000Z</time>
      </trkpt>
      <trkpt lat="43.09794" lon="-0.12966">
        <ele>381</ele>
        <time>2025-08-11T08:05:52.000Z</time>
      </trkpt>
      <trkpt lat="43.09794" lon="-0.12976">
        <ele>381.39999389648</ele>
        <time>2025-08-11T08:05:55.000Z</time>
      </trkpt>
      <trkpt lat="43.09796" lon="-0.13005">
        <ele>381.79998779297</ele>
        <time>2025-08-11T08:06:02.000Z</time>
      </trkpt>
      <trkpt lat="43.09803" lon="-0.13034">
        <ele>381.79998779297</ele>
        <time>2025-08-11T08:06:08.000Z</time>
      </trkpt>
      <trkpt lat="43.09815" lon="-0.13067">
        <ele>381.20001220703</ele>
        <time>2025-08-11T08:06:14.000Z</time>
      </trkpt>
      <trkpt lat="43.09831" lon="-0.1311">
        <ele>380.39999389648</ele>
        <time>2025-08-11T08:06:21.000Z</time>
      </trkpt>
      <trkpt lat="43.09842" lon="-0.13126">
        <ele>379.79998779297</ele>
        <time>2025-08-11T08:06:25.000Z</time>
      </trkpt>
      <trkpt lat="43.09845" lon="-0.13132">
        <ele>379.60000610352</ele>
        <time>2025-08-11T08:06:26.000Z</time>
      </trkpt>
      <trkpt lat="43.0985" lon="-0.13144">
        <ele>379.39999389648</ele>
        <time>2025-08-11T08:06:28.000Z</time>
      </trkpt>
      <trkpt lat="43.09856" lon="-0.13161">
        <ele>378.60000610352</ele>
        <time>2025-08-11T08:06:31.000Z</time>
      </trkpt>
      <trkpt lat="43.09859" lon="-0.13167">
        <ele>378.39999389648</ele>
        <time>2025-08-11T08:06:32.000Z</time>
      </trkpt>
      <trkpt lat="43.09875" lon="-0.13194">
        <ele>377.20001220703</ele>
        <time>2025-08-11T08:06:36.000Z</time>
      </trkpt>
      <trkpt lat="43.0989" lon="-0.13217">
        <ele>375.79998779297</ele>
        <time>2025-08-11T08:06:39.000Z</time>
      </trkpt>
      <trkpt lat="43.09902" lon="-0.13231">
        <ele>375</ele>
        <time>2025-08-11T08:06:41.000Z</time>
      </trkpt>
      <trkpt lat="43.09914" lon="-0.13246">
        <ele>374.60000610352</ele>
        <time>2025-08-11T08:06:43.000Z</time>
      </trkpt>
      <trkpt lat="43.0992" lon="-0.13254">
        <ele>374.20001220703</ele>
        <time>2025-08-11T08:06:44.000Z</time>
      </trkpt>
      <trkpt lat="43.0993" lon="-0.1327">
        <ele>373.79998779297</ele>
        <time>2025-08-11T08:06:46.000Z</time>
      </trkpt>
      <trkpt lat="43.09935" lon="-0.13279">
        <ele>373.39999389648</ele>
        <time>2025-08-11T08:06:47.000Z</time>
      </trkpt>
      <trkpt lat="43.09952" lon="-0.13315">
        <ele>371.79998779297</ele>
        <time>2025-08-11T08:06:51.000Z</time>
      </trkpt>
      <trkpt lat="43.09955" lon="-0.13324">
        <ele>371.20001220703</ele>
        <time>2025-08-11T08:06:52.000Z</time>
      </trkpt>
      <trkpt lat="43.09957" lon="-0.13332">
        <ele>370.79998779297</ele>
        <time>2025-08-11T08:06:53.000Z</time>
      </trkpt>
      <trkpt lat="43.09959" lon="-0.13339">
        <ele>370.60000610352</ele>
        <time>2025-08-11T08:06:54.000Z</time>
      </trkpt>
      <trkpt lat="43.09961" lon="-0.13351">
        <ele>370.60000610352</ele>
        <time>2025-08-11T08:06:56.000Z</time>
      </trkpt>
      <trkpt lat="43.09965" lon="-0.13371">
        <ele>370.79998779297</ele>
        <time>2025-08-11T08:07:01.000Z</time>
      </trkpt>
      <trkpt lat="43.0997" lon="-0.13394">
        <ele>371.60000610352</ele>
        <time>2025-08-11T08:07:07.000Z</time>
      </trkpt>
      <trkpt lat="43.09974" lon="-0.13409">
        <ele>371.79998779297</ele>
        <time>2025-08-11T08:07:11.000Z</time>
      </trkpt>
      <trkpt lat="43.09978" lon="-0.1342">
        <ele>372</ele>
        <time>2025-08-11T08:07:14.000Z</time>
      </trkpt>
      <trkpt lat="43.0999" lon="-0.13446">
        <ele>372.39999389648</ele>
        <time>2025-08-11T08:07:22.000Z</time>
      </trkpt>
      <trkpt lat="43.10002" lon="-0.13475">
        <ele>372.39999389648</ele>
        <time>2025-08-11T08:07:30.000Z</time>
      </trkpt>
      <trkpt lat="43.10007" lon="-0.13506">
        <ele>372.39999389648</ele>
        <time>2025-08-11T08:07:38.000Z</time>
      </trkpt>
      <trkpt lat="43.10006" lon="-0.13536">
        <ele>372.39999389648</ele>
        <time>2025-08-11T08:07:46.000Z</time>
      </trkpt>
      <trkpt lat="43.10003" lon="-0.13551">
        <ele>372.39999389648</ele>
        <time>2025-08-11T08:07:51.000Z</time>
      </trkpt>
      <trkpt lat="43.10002" lon="-0.13554">
        <ele>372.39999389648</ele>
        <time>2025-08-11T08:07:52.000Z</time>
      </trkpt>
      <trkpt lat="43.09999" lon="-0.1356">
        <ele>372.79998779297</ele>
        <time>2025-08-11T08:07:55.000Z</time>
      </trkpt>
      <trkpt lat="43.09994" lon="-0.13573">
        <ele>373.20001220703</ele>
        <time>2025-08-11T08:08:00.000Z</time>
      </trkpt>
      <trkpt lat="43.09993" lon="-0.13575">
        <ele>373.39999389648</ele>
        <time>2025-08-11T08:08:01.000Z</time>
      </trkpt>
      <trkpt lat="43.09989" lon="-0.13593">
        <ele>373.60000610352</ele>
        <time>2025-08-11T08:08:07.000Z</time>
      </trkpt>
      <trkpt lat="43.09982" lon="-0.13621">
        <ele>373.39999389648</ele>
        <time>2025-08-11T08:08:14.000Z</time>
      </trkpt>
      <trkpt lat="43.09972" lon="-0.13659">
        <ele>373</ele>
        <time>2025-08-11T08:08:22.000Z</time>
      </trkpt>
      <trkpt lat="43.09966" lon="-0.1369">
        <ele>372.79998779297</ele>
        <time>2025-08-11T08:08:28.000Z</time>
      </trkpt>
      <trkpt lat="43.09963" lon="-0.137">
        <ele>372.79998779297</ele>
        <time>2025-08-11T08:08:30.000Z</time>
      </trkpt>
      <trkpt lat="43.09953" lon="-0.13761">
        <ele>372.39999389648</ele>
        <time>2025-08-11T08:08:40.000Z</time>
      </trkpt>
      <trkpt lat="43.09946" lon="-0.13818">
        <ele>371.79998779297</ele>
        <time>2025-08-11T08:08:49.000Z</time>
      </trkpt>
      <trkpt lat="43.09948" lon="-0.13829">
        <ele>371.79998779297</ele>
        <time>2025-08-11T08:08:51.000Z</time>
      </trkpt>
      <trkpt lat="43.09951" lon="-0.13834">
        <ele>371.79998779297</ele>
        <time>2025-08-11T08:08:52.000Z</time>
      </trkpt>
      <trkpt lat="43.09954" lon="-0.13836">
        <ele>371.79998779297</ele>
        <time>2025-08-11T08:08:53.000Z</time>
      </trkpt>
      <trkpt lat="43.09971" lon="-0.13842">
        <ele>371.60000610352</ele>
        <time>2025-08-11T08:08:57.000Z</time>
      </trkpt>
      <trkpt lat="43.09995" lon="-0.13842">
        <ele>372</ele>
        <time>2025-08-11T08:09:03.000Z</time>
      </trkpt>
      <trkpt lat="43.09999" lon="-0.13842">
        <ele>372</ele>
        <time>2025-08-11T08:09:04.000Z</time>
      </trkpt>
      <trkpt lat="43.10017" lon="-0.1385">
        <ele>372.60000610352</ele>
        <time>2025-08-11T08:09:10.000Z</time>
      </trkpt>
      <trkpt lat="43.10026" lon="-0.13873">
        <ele>373</ele>
        <time>2025-08-11T08:09:16.000Z</time>
      </trkpt>
      <trkpt lat="43.10022" lon="-0.13908">
        <ele>373</ele>
        <time>2025-08-11T08:09:23.000Z</time>
      </trkpt>
      <trkpt lat="43.10019" lon="-0.13952">
        <ele>372.60000610352</ele>
        <time>2025-08-11T08:09:31.000Z</time>
      </trkpt>
      <trkpt lat="43.1002" lon="-0.13992">
        <ele>372.20001220703</ele>
        <time>2025-08-11T08:09:38.000Z</time>
      </trkpt>
      <trkpt lat="43.10022" lon="-0.14017">
        <ele>371.79998779297</ele>
        <time>2025-08-11T08:09:42.000Z</time>
      </trkpt>
      <trkpt lat="43.10023" lon="-0.14024">
        <ele>371.60000610352</ele>
        <time>2025-08-11T08:09:43.000Z</time>
      </trkpt>
      <trkpt lat="43.10025" lon="-0.14051">
        <ele>371.20001220703</ele>
        <time>2025-08-11T08:09:47.000Z</time>
      </trkpt>
      <trkpt lat="43.10028" lon="-0.14066">
        <ele>371</ele>
        <time>2025-08-11T08:09:49.000Z</time>
      </trkpt>
      <trkpt lat="43.10032" lon="-0.14071">
        <ele>370.79998779297</ele>
        <time>2025-08-11T08:09:50.000Z</time>
      </trkpt>
      <trkpt lat="43.10035" lon="-0.14075">
        <ele>370.79998779297</ele>
        <time>2025-08-11T08:09:51.000Z</time>
      </trkpt>
      <trkpt lat="43.10037" lon="-0.14078">
        <ele>370.60000610352</ele>
        <time>2025-08-11T08:09:52.000Z</time>
      </trkpt>
      <trkpt lat="43.1005" lon="-0.14092">
        <ele>370.39999389648</ele>
        <time>2025-08-11T08:09:57.000Z</time>
      </trkpt>
      <trkpt lat="43.10055" lon="-0.14121">
        <ele>371</ele>
        <time>2025-08-11T08:10:03.000Z</time>
      </trkpt>
      <trkpt lat="43.10055" lon="-0.14146">
        <ele>371</ele>
        <time>2025-08-11T08:10:08.000Z</time>
      </trkpt>
      <trkpt lat="43.10054" lon="-0.14167">
        <ele>370.60000610352</ele>
        <time>2025-08-11T08:10:13.000Z</time>
      </trkpt>
      <trkpt lat="43.10055" lon="-0.14173">
        <ele>370.39999389648</ele>
        <time>2025-08-11T08:10:18.000Z</time>
      </trkpt>
      <trkpt lat="43.10057" lon="-0.14178">
        <ele>370.39999389648</ele>
        <time>2025-08-11T08:10:22.000Z</time>
      </trkpt>
      <trkpt lat="43.10061" lon="-0.14181">
        <ele>370.39999389648</ele>
        <time>2025-08-11T08:10:24.000Z</time>
      </trkpt>
      <trkpt lat="43.10073" lon="-0.14187">
        <ele>370.39999389648</ele>
        <time>2025-08-11T08:10:27.000Z</time>
      </trkpt>
      <trkpt lat="43.10076" lon="-0.14188">
        <ele>370.20001220703</ele>
        <time>2025-08-11T08:10:28.000Z</time>
      </trkpt>
      <trkpt lat="43.10094" lon="-0.14189">
        <ele>370.20001220703</ele>
        <time>2025-08-11T08:10:32.000Z</time>
      </trkpt>
      <trkpt lat="43.10103" lon="-0.1419">
        <ele>370</ele>
        <time>2025-08-11T08:10:34.000Z</time>
      </trkpt>
      <trkpt lat="43.10122" lon="-0.14191">
        <ele>369.79998779297</ele>
        <time>2025-08-11T08:10:38.000Z</time>
      </trkpt>
      <trkpt lat="43.10132" lon="-0.14193">
        <ele>369.39999389648</ele>
        <time>2025-08-11T08:10:40.000Z</time>
      </trkpt>
      <trkpt lat="43.10136" lon="-0.14194">
        <ele>369.39999389648</ele>
        <time>2025-08-11T08:10:41.000Z</time>
      </trkpt>
      <trkpt lat="43.10142" lon="-0.14197">
        <ele>369.20001220703</ele>
        <time>2025-08-11T08:10:42.000Z</time>
      </trkpt>
      <trkpt lat="43.10147" lon="-0.142">
        <ele>369</ele>
        <time>2025-08-11T08:10:43.000Z</time>
      </trkpt>
      <trkpt lat="43.10157" lon="-0.14207">
        <ele>368.79998779297</ele>
        <time>2025-08-11T08:10:45.000Z</time>
      </trkpt>
      <trkpt lat="43.10171" lon="-0.14219">
        <ele>368</ele>
        <time>2025-08-11T08:10:48.000Z</time>
      </trkpt>
      <trkpt lat="43.10178" lon="-0.14227">
        <ele>367.39999389648</ele>
        <time>2025-08-11T08:10:50.000Z</time>
      </trkpt>
      <trkpt lat="43.10182" lon="-0.14231">
        <ele>367</ele>
        <time>2025-08-11T08:10:51.000Z</time>
      </trkpt>
      <trkpt lat="43.10185" lon="-0.14236">
        <ele>366.60000610352</ele>
        <time>2025-08-11T08:10:52.000Z</time>
      </trkpt>
      <trkpt lat="43.10193" lon="-0.14248">
        <ele>365</ele>
        <time>2025-08-11T08:10:55.000Z</time>
      </trkpt>
      <trkpt lat="43.10196" lon="-0.14252">
        <ele>364.60000610352</ele>
        <time>2025-08-11T08:10:56.000Z</time>
      </trkpt>
      <trkpt lat="43.10199" lon="-0.14255">
        <ele>364</ele>
        <time>2025-08-11T08:10:57.000Z</time>
      </trkpt>
      <trkpt lat="43.10205" lon="-0.14264">
        <ele>362.79998779297</ele>
        <time>2025-08-11T08:11:00.000Z</time>
      </trkpt>
      <trkpt lat="43.10207" lon="-0.14266">
        <ele>362.39999389648</ele>
        <time>2025-08-11T08:11:01.000Z</time>
      </trkpt>
      <trkpt lat="43.10209" lon="-0.14269">
        <ele>361.60000610352</ele>
        <time>2025-08-11T08:11:02.000Z</time>
      </trkpt>
      <trkpt lat="43.10213" lon="-0.14276">
        <ele>360.60000610352</ele>
        <time>2025-08-11T08:11:05.000Z</time>
      </trkpt>
      <trkpt lat="43.10216" lon="-0.1428">
        <ele>360</ele>
        <time>2025-08-11T08:11:07.000Z</time>
      </trkpt>
      <trkpt lat="43.1022" lon="-0.14284">
        <ele>359.60000610352</ele>
        <time>2025-08-11T08:11:09.000Z</time>
      </trkpt>
      <trkpt lat="43.10235" lon="-0.143">
        <ele>358.79998779297</ele>
        <time>2025-08-11T08:11:15.000Z</time>
      </trkpt>
      <trkpt lat="43.10244" lon="-0.1431">
        <ele>359.20001220703</ele>
        <time>2025-08-11T08:11:21.000Z</time>
      </trkpt>
      <trkpt lat="43.10256" lon="-0.14323">
        <ele>359.20001220703</ele>
        <time>2025-08-11T08:11:26.000Z</time>
      </trkpt>
      <trkpt lat="43.10262" lon="-0.14333">
        <ele>359</ele>
        <time>2025-08-11T08:11:31.000Z</time>
      </trkpt>
      <trkpt lat="43.10273" lon="-0.1435">
        <ele>359</ele>
        <time>2025-08-11T08:11:36.000Z</time>
      </trkpt>
      <trkpt lat="43.1029" lon="-0.14384">
        <ele>358.60000610352</ele>
        <time>2025-08-11T08:11:42.000Z</time>
      </trkpt>
      <trkpt lat="43.10297" lon="-0.14397">
        <ele>358.20001220703</ele>
        <time>2025-08-11T08:11:45.000Z</time>
      </trkpt>
      <trkpt lat="43.103" lon="-0.14401">
        <ele>358</ele>
        <time>2025-08-11T08:11:46.000Z</time>
      </trkpt>
      <trkpt lat="43.10308" lon="-0.14416">
        <ele>358.39999389648</ele>
        <time>2025-08-11T08:11:51.000Z</time>
      </trkpt>
      <trkpt lat="43.10313" lon="-0.14421">
        <ele>358.60000610352</ele>
        <time>2025-08-11T08:11:55.000Z</time>
      </trkpt>
      <trkpt lat="43.10314" lon="-0.1442">
        <ele>358.79998779297</ele>
        <time>2025-08-11T08:11:56.000Z</time>
      </trkpt>
      <trkpt lat="43.10314" lon="-0.14417">
        <ele>359.20001220703</ele>
        <time>2025-08-11T08:11:58.000Z</time>
      </trkpt>
      <trkpt lat="43.10315" lon="-0.14415">
        <ele>359.39999389648</ele>
        <time>2025-08-11T08:12:00.000Z</time>
      </trkpt>
      <trkpt lat="43.10318" lon="-0.14415">
        <ele>359.79998779297</ele>
        <time>2025-08-11T08:12:03.000Z</time>
      </trkpt>
      <trkpt lat="43.10319" lon="-0.14413">
        <ele>359.79998779297</ele>
        <time>2025-08-11T08:12:04.000Z</time>
      </trkpt>
      <trkpt lat="43.10321" lon="-0.14409">
        <ele>360.20001220703</ele>
        <time>2025-08-11T08:12:07.000Z</time>
      </trkpt>
      <trkpt lat="43.10324" lon="-0.14409">
        <ele>360.60000610352</ele>
        <time>2025-08-11T08:12:09.000Z</time>
      </trkpt>
      <trkpt lat="43.10325" lon="-0.14407">
        <ele>361</ele>
        <time>2025-08-11T08:12:10.000Z</time>
      </trkpt>
      <trkpt lat="43.10326" lon="-0.14406">
        <ele>361</ele>
        <time>2025-08-11T08:12:11.000Z</time>
      </trkpt>
      <trkpt lat="43.10328" lon="-0.14404">
        <ele>361.39999389648</ele>
        <time>2025-08-11T08:12:13.000Z</time>
      </trkpt>
      <trkpt lat="43.1033" lon="-0.14403">
        <ele>362</ele>
        <time>2025-08-11T08:12:15.000Z</time>
      </trkpt>
      <trkpt lat="43.1033" lon="-0.14399">
        <ele>362.20001220703</ele>
        <time>2025-08-11T08:12:17.000Z</time>
      </trkpt>
      <trkpt lat="43.10331" lon="-0.14397">
        <ele>362.20001220703</ele>
        <time>2025-08-11T08:12:18.000Z</time>
      </trkpt>
      <trkpt lat="43.10334" lon="-0.14397">
        <ele>362.60000610352</ele>
        <time>2025-08-11T08:12:20.000Z</time>
      </trkpt>
      <trkpt lat="43.10336" lon="-0.14394">
        <ele>363</ele>
        <time>2025-08-11T08:12:22.000Z</time>
      </trkpt>
      <trkpt lat="43.10335" lon="-0.14392">
        <ele>363.20001220703</ele>
        <time>2025-08-11T08:12:23.000Z</time>
      </trkpt>
      <trkpt lat="43.10336" lon="-0.1439">
        <ele>363.20001220703</ele>
        <time>2025-08-11T08:12:24.000Z</time>
      </trkpt>
      <trkpt lat="43.10339" lon="-0.14389">
        <ele>363.39999389648</ele>
        <time>2025-08-11T08:12:26.000Z</time>
      </trkpt>
      <trkpt lat="43.10341" lon="-0.14387">
        <ele>363.60000610352</ele>
        <time>2025-08-11T08:12:27.000Z</time>
      </trkpt>
      <trkpt lat="43.1034" lon="-0.14383">
        <ele>363.79998779297</ele>
        <time>2025-08-11T08:12:29.000Z</time>
      </trkpt>
      <trkpt lat="43.10341" lon="-0.1438">
        <ele>364</ele>
        <time>2025-08-11T08:12:30.000Z</time>
      </trkpt>
      <trkpt lat="43.10344" lon="-0.1438">
        <ele>364</ele>
        <time>2025-08-11T08:12:32.000Z</time>
      </trkpt>
      <trkpt lat="43.10345" lon="-0.14379">
        <ele>364.20001220703</ele>
        <time>2025-08-11T08:12:33.000Z</time>
      </trkpt>
      <trkpt lat="43.10346" lon="-0.14374">
        <ele>364.39999389648</ele>
        <time>2025-08-11T08:12:35.000Z</time>
      </trkpt>
      <trkpt lat="43.1035" lon="-0.14362">
        <ele>365</ele>
        <time>2025-08-11T08:12:41.000Z</time>
      </trkpt>
      <trkpt lat="43.10351" lon="-0.14358">
        <ele>365</ele>
        <time>2025-08-11T08:12:42.000Z</time>
      </trkpt>
      <trkpt lat="43.10359" lon="-0.14349">
        <ele>365.60000610352</ele>
        <time>2025-08-11T08:12:47.000Z</time>
      </trkpt>
      <trkpt lat="43.10362" lon="-0.14349">
        <ele>365.60000610352</ele>
        <time>2025-08-11T08:12:48.000Z</time>
      </trkpt>
      <trkpt lat="43.10364" lon="-0.14352">
        <ele>365.79998779297</ele>
        <time>2025-08-11T08:12:49.000Z</time>
      </trkpt>
      <trkpt lat="43.10364" lon="-0.14359">
        <ele>366</ele>
        <time>2025-08-11T08:12:51.000Z</time>
      </trkpt>
      <trkpt lat="43.10364" lon="-0.14363">
        <ele>366.20001220703</ele>
        <time>2025-08-11T08:12:52.000Z</time>
      </trkpt>
      <trkpt lat="43.1036" lon="-0.14374">
        <ele>366.39999389648</ele>
        <time>2025-08-11T08:12:55.000Z</time>
      </trkpt>
      <trkpt lat="43.10349" lon="-0.14393">
        <ele>367.20001220703</ele>
        <time>2025-08-11T08:13:01.000Z</time>
      </trkpt>
      <trkpt lat="43.10348" lon="-0.14395">
        <ele>367.20001220703</ele>
        <time>2025-08-11T08:13:02.000Z</time>
      </trkpt>
      <trkpt lat="43.10337" lon="-0.14416">
        <ele>368</ele>
        <time>2025-08-11T08:13:09.000Z</time>
      </trkpt>
      <trkpt lat="43.10333" lon="-0.14425">
        <ele>368.20001220703</ele>
        <time>2025-08-11T08:13:12.000Z</time>
      </trkpt>
      <trkpt lat="43.10325" lon="-0.14439">
        <ele>369.20001220703</ele>
        <time>2025-08-11T08:13:17.000Z</time>
      </trkpt>
      <trkpt lat="43.10322" lon="-0.14444">
        <ele>369.39999389648</ele>
        <time>2025-08-11T08:13:19.000Z</time>
      </trkpt>
      <trkpt lat="43.10315" lon="-0.14458">
        <ele>369.79998779297</ele>
        <time>2025-08-11T08:13:24.000Z</time>
      </trkpt>
      <trkpt lat="43.10304" lon="-0.14474">
        <ele>370.20001220703</ele>
        <time>2025-08-11T08:13:30.000Z</time>
      </trkpt>
      <trkpt lat="43.10302" lon="-0.14477">
        <ele>370.39999389648</ele>
        <time>2025-08-11T08:13:31.000Z</time>
      </trkpt>
      <trkpt lat="43.10294" lon="-0.14491">
        <ele>370.60000610352</ele>
        <time>2025-08-11T08:13:36.000Z</time>
      </trkpt>
      <trkpt lat="43.10283" lon="-0.14508">
        <ele>371</ele>
        <time>2025-08-11T08:13:42.000Z</time>
      </trkpt>
      <trkpt lat="43.10265" lon="-0.14535">
        <ele>371</ele>
        <time>2025-08-11T08:13:51.000Z</time>
      </trkpt>
      <trkpt lat="43.1025" lon="-0.14558">
        <ele>371</ele>
        <time>2025-08-11T08:13:58.000Z</time>
      </trkpt>
      <trkpt lat="43.10233" lon="-0.14586">
        <ele>370.79998779297</ele>
        <time>2025-08-11T08:14:05.000Z</time>
      </trkpt>
      <trkpt lat="43.10229" lon="-0.14594">
        <ele>370.79998779297</ele>
        <time>2025-08-11T08:14:07.000Z</time>
      </trkpt>
      <trkpt lat="43.10219" lon="-0.14612">
        <ele>370.39999389648</ele>
        <time>2025-08-11T08:14:11.000Z</time>
      </trkpt>
      <trkpt lat="43.10202" lon="-0.14653">
        <ele>370</ele>
        <time>2025-08-11T08:14:18.000Z</time>
      </trkpt>
      <trkpt lat="43.1019" lon="-0.14685">
        <ele>369.60000610352</ele>
        <time>2025-08-11T08:14:23.000Z</time>
      </trkpt>
      <trkpt lat="43.10184" lon="-0.14706">
        <ele>369.39999389648</ele>
        <time>2025-08-11T08:14:26.000Z</time>
      </trkpt>
      <trkpt lat="43.10176" lon="-0.14734">
        <ele>369.20001220703</ele>
        <time>2025-08-11T08:14:30.000Z</time>
      </trkpt>
      <trkpt lat="43.10169" lon="-0.14771">
        <ele>369</ele>
        <time>2025-08-11T08:14:35.000Z</time>
      </trkpt>
      <trkpt lat="43.10158" lon="-0.14834">
        <ele>368.60000610352</ele>
        <time>2025-08-11T08:14:44.000Z</time>
      </trkpt>
      <trkpt lat="43.10155" lon="-0.14848">
        <ele>368.39999389648</ele>
        <time>2025-08-11T08:14:46.000Z</time>
      </trkpt>
      <trkpt lat="43.10151" lon="-0.1487">
        <ele>368.20001220703</ele>
        <time>2025-08-11T08:14:49.000Z</time>
      </trkpt>
      <trkpt lat="43.10143" lon="-0.14917">
        <ele>367.79998779297</ele>
        <time>2025-08-11T08:14:55.000Z</time>
      </trkpt>
      <trkpt lat="43.10135" lon="-0.14959">
        <ele>367</ele>
        <time>2025-08-11T08:15:00.000Z</time>
      </trkpt>
      <trkpt lat="43.10129" lon="-0.14992">
        <ele>366.60000610352</ele>
        <time>2025-08-11T08:15:04.000Z</time>
      </trkpt>
      <trkpt lat="43.10118" lon="-0.15053">
        <ele>366.20001220703</ele>
        <time>2025-08-11T08:15:12.000Z</time>
      </trkpt>
      <trkpt lat="43.10117" lon="-0.1506">
        <ele>366.20001220703</ele>
        <time>2025-08-11T08:15:13.000Z</time>
      </trkpt>
      <trkpt lat="43.10104" lon="-0.15133">
        <ele>366.20001220703</ele>
        <time>2025-08-11T08:15:23.000Z</time>
      </trkpt>
      <trkpt lat="43.10091" lon="-0.15202">
        <ele>366.20001220703</ele>
        <time>2025-08-11T08:15:33.000Z</time>
      </trkpt>
      <trkpt lat="43.10081" lon="-0.15256">
        <ele>366.79998779297</ele>
        <time>2025-08-11T08:15:42.000Z</time>
      </trkpt>
      <trkpt lat="43.10078" lon="-0.15271">
        <ele>367</ele>
        <time>2025-08-11T08:15:45.000Z</time>
      </trkpt>
      <trkpt lat="43.10077" lon="-0.15275">
        <ele>367.20001220703</ele>
        <time>2025-08-11T08:15:46.000Z</time>
      </trkpt>
      <trkpt lat="43.10076" lon="-0.1528">
        <ele>367.60000610352</ele>
        <time>2025-08-11T08:15:47.000Z</time>
      </trkpt>
      <trkpt lat="43.10071" lon="-0.15311">
        <ele>368.39999389648</ele>
        <time>2025-08-11T08:15:54.000Z</time>
      </trkpt>
      <trkpt lat="43.10071" lon="-0.15351">
        <ele>369</ele>
        <time>2025-08-11T08:16:02.000Z</time>
      </trkpt>
      <trkpt lat="43.10075" lon="-0.15374">
        <ele>369.20001220703</ele>
        <time>2025-08-11T08:16:06.000Z</time>
      </trkpt>
      <trkpt lat="43.10076" lon="-0.15382">
        <ele>369.20001220703</ele>
        <time>2025-08-11T08:16:07.000Z</time>
      </trkpt>
      <trkpt lat="43.10084" lon="-0.15442">
        <ele>369</ele>
        <time>2025-08-11T08:16:15.000Z</time>
      </trkpt>
      <trkpt lat="43.10091" lon="-0.15504">
        <ele>368.60000610352</ele>
        <time>2025-08-11T08:16:23.000Z</time>
      </trkpt>
      <trkpt lat="43.10096" lon="-0.15533">
        <ele>368.39999389648</ele>
        <time>2025-08-11T08:16:27.000Z</time>
      </trkpt>
      <trkpt lat="43.101" lon="-0.15556">
        <ele>368.20001220703</ele>
        <time>2025-08-11T08:16:30.000Z</time>
      </trkpt>
      <trkpt lat="43.10101" lon="-0.15564">
        <ele>368</ele>
        <time>2025-08-11T08:16:31.000Z</time>
      </trkpt>
      <trkpt lat="43.10115" lon="-0.15623">
        <ele>367.20001220703</ele>
        <time>2025-08-11T08:16:39.000Z</time>
      </trkpt>
      <trkpt lat="43.10122" lon="-0.1565">
        <ele>367</ele>
        <time>2025-08-11T08:16:43.000Z</time>
      </trkpt>
      <trkpt lat="43.10126" lon="-0.15663">
        <ele>366.79998779297</ele>
        <time>2025-08-11T08:16:45.000Z</time>
      </trkpt>
      <trkpt lat="43.10127" lon="-0.1567">
        <ele>366.79998779297</ele>
        <time>2025-08-11T08:16:46.000Z</time>
      </trkpt>
      <trkpt lat="43.1014" lon="-0.15719">
        <ele>366.39999389648</ele>
        <time>2025-08-11T08:16:54.000Z</time>
      </trkpt>
      <trkpt lat="43.1015" lon="-0.1575">
        <ele>367</ele>
        <time>2025-08-11T08:17:00.000Z</time>
      </trkpt>
      <trkpt lat="43.10164" lon="-0.15771">
        <ele>367.79998779297</ele>
        <time>2025-08-11T08:17:06.000Z</time>
      </trkpt>
      <trkpt lat="43.10171" lon="-0.1578">
        <ele>368.20001220703</ele>
        <time>2025-08-11T08:17:09.000Z</time>
      </trkpt>
      <trkpt lat="43.1018" lon="-0.15793">
        <ele>368.60000610352</ele>
        <time>2025-08-11T08:17:13.000Z</time>
      </trkpt>
      <trkpt lat="43.10196" lon="-0.15815">
        <ele>369.20001220703</ele>
        <time>2025-08-11T08:17:20.000Z</time>
      </trkpt>
      <trkpt lat="43.10197" lon="-0.15817">
        <ele>369.20001220703</ele>
        <time>2025-08-11T08:17:21.000Z</time>
      </trkpt>
      <trkpt lat="43.10206" lon="-0.15828">
        <ele>369.20001220703</ele>
        <time>2025-08-11T08:17:26.000Z</time>
      </trkpt>
      <trkpt lat="43.10222" lon="-0.15852">
        <ele>369</ele>
        <time>2025-08-11T08:17:34.000Z</time>
      </trkpt>
      <trkpt lat="43.10233" lon="-0.15864">
        <ele>369</ele>
        <time>2025-08-11T08:17:38.000Z</time>
      </trkpt>
      <trkpt lat="43.10241" lon="-0.15872">
        <ele>369</ele>
        <time>2025-08-11T08:17:41.000Z</time>
      </trkpt>
      <trkpt lat="43.10265" lon="-0.15892">
        <ele>369.20001220703</ele>
        <time>2025-08-11T08:17:48.000Z</time>
      </trkpt>
      <trkpt lat="43.10292" lon="-0.15911">
        <ele>368.79998779297</ele>
        <time>2025-08-11T08:17:56.000Z</time>
      </trkpt>
      <trkpt lat="43.10314" lon="-0.15914">
        <ele>368.79998779297</ele>
        <time>2025-08-11T08:18:02.000Z</time>
      </trkpt>
      <trkpt lat="43.10329" lon="-0.15913">
        <ele>369.20001220703</ele>
        <time>2025-08-11T08:18:08.000Z</time>
      </trkpt>
      <trkpt lat="43.10343" lon="-0.15914">
        <ele>369.39999389648</ele>
        <time>2025-08-11T08:18:15.000Z</time>
      </trkpt>
      <trkpt lat="43.10345" lon="-0.15915">
        <ele>369.39999389648</ele>
        <time>2025-08-11T08:18:17.000Z</time>
      </trkpt>
      <trkpt lat="43.10347" lon="-0.15917">
        <ele>369.39999389648</ele>
        <time>2025-08-11T08:18:19.000Z</time>
      </trkpt>
      <trkpt lat="43.10347" lon="-0.1592">
        <ele>369.39999389648</ele>
        <time>2025-08-11T08:18:24.000Z</time>
      </trkpt>
      <trkpt lat="43.10347" lon="-0.15947">
        <ele>367.60000610352</ele>
        <time>2025-08-11T08:50:12.000Z</time>
      </trkpt>
      <trkpt lat="43.10349" lon="-0.15955">
        <ele>367.39999389648</ele>
        <time>2025-08-11T08:50:14.000Z</time>
      </trkpt>
      <trkpt lat="43.10352" lon="-0.15976">
        <ele>367.39999389648</ele>
        <time>2025-08-11T08:50:19.000Z</time>
      </trkpt>
      <trkpt lat="43.10356" lon="-0.16003">
        <ele>367</ele>
        <time>2025-08-11T08:50:24.000Z</time>
      </trkpt>
      <trkpt lat="43.10366" lon="-0.16034">
        <ele>366.60000610352</ele>
        <time>2025-08-11T08:50:29.000Z</time>
      </trkpt>
      <trkpt lat="43.10373" lon="-0.16065">
        <ele>365.79998779297</ele>
        <time>2025-08-11T08:50:35.000Z</time>
      </trkpt>
      <trkpt lat="43.10373" lon="-0.16071">
        <ele>365.60000610352</ele>
        <time>2025-08-11T08:50:36.000Z</time>
      </trkpt>
      <trkpt lat="43.10373" lon="-0.16085">
        <ele>365.39999389648</ele>
        <time>2025-08-11T08:50:38.000Z</time>
      </trkpt>
      <trkpt lat="43.10373" lon="-0.16091">
        <ele>365.20001220703</ele>
        <time>2025-08-11T08:50:39.000Z</time>
      </trkpt>
      <trkpt lat="43.10368" lon="-0.16109">
        <ele>364.79998779297</ele>
        <time>2025-08-11T08:50:42.000Z</time>
      </trkpt>
      <trkpt lat="43.10364" lon="-0.16127">
        <ele>364</ele>
        <time>2025-08-11T08:50:45.000Z</time>
      </trkpt>
      <trkpt lat="43.10359" lon="-0.1615">
        <ele>363.79998779297</ele>
        <time>2025-08-11T08:50:49.000Z</time>
      </trkpt>
      <trkpt lat="43.10356" lon="-0.16156">
        <ele>363.60000610352</ele>
        <time>2025-08-11T08:50:50.000Z</time>
      </trkpt>
      <trkpt lat="43.10347" lon="-0.16178">
        <ele>363</ele>
        <time>2025-08-11T08:50:54.000Z</time>
      </trkpt>
      <trkpt lat="43.10345" lon="-0.16184">
        <ele>362.79998779297</ele>
        <time>2025-08-11T08:50:55.000Z</time>
      </trkpt>
      <trkpt lat="43.10339" lon="-0.16205">
        <ele>362</ele>
        <time>2025-08-11T08:50:59.000Z</time>
      </trkpt>
      <trkpt lat="43.10332" lon="-0.1623">
        <ele>361</ele>
        <time>2025-08-11T08:51:04.000Z</time>
      </trkpt>
      <trkpt lat="43.10327" lon="-0.16247">
        <ele>360.39999389648</ele>
        <time>2025-08-11T08:51:07.000Z</time>
      </trkpt>
      <trkpt lat="43.10322" lon="-0.16259">
        <ele>360.20001220703</ele>
        <time>2025-08-11T08:51:09.000Z</time>
      </trkpt>
      <trkpt lat="43.10314" lon="-0.16281">
        <ele>359.79998779297</ele>
        <time>2025-08-11T08:51:12.000Z</time>
      </trkpt>
      <trkpt lat="43.10301" lon="-0.16322">
        <ele>358.79998779297</ele>
        <time>2025-08-11T08:51:18.000Z</time>
      </trkpt>
      <trkpt lat="43.10295" lon="-0.16355">
        <ele>357.60000610352</ele>
        <time>2025-08-11T08:51:23.000Z</time>
      </trkpt>
      <trkpt lat="43.10293" lon="-0.16369">
        <ele>357.39999389648</ele>
        <time>2025-08-11T08:51:25.000Z</time>
      </trkpt>
      <trkpt lat="43.10288" lon="-0.16396">
        <ele>357.20001220703</ele>
        <time>2025-08-11T08:51:29.000Z</time>
      </trkpt>
      <trkpt lat="43.10288" lon="-0.16416">
        <ele>357</ele>
        <time>2025-08-11T08:51:32.000Z</time>
      </trkpt>
      <trkpt lat="43.10288" lon="-0.16426">
        <ele>356.79998779297</ele>
        <time>2025-08-11T08:51:35.000Z</time>
      </trkpt>
      <trkpt lat="43.10288" lon="-0.16427">
        <ele>356.60000610352</ele>
        <time>2025-08-11T08:51:37.000Z</time>
      </trkpt>
      <trkpt lat="43.10288" lon="-0.16427">
        <ele>356.60000610352</ele>
        <time>2025-08-11T08:51:38.000Z</time>
      </trkpt>
      <trkpt lat="43.10288" lon="-0.16432">
        <ele>356.20001220703</ele>
        <time>2025-08-11T08:51:45.000Z</time>
      </trkpt>
      <trkpt lat="43.10285" lon="-0.16454">
        <ele>356</ele>
        <time>2025-08-11T08:51:50.000Z</time>
      </trkpt>
      <trkpt lat="43.10285" lon="-0.16479">
        <ele>355.79998779297</ele>
        <time>2025-08-11T08:51:54.000Z</time>
      </trkpt>
      <trkpt lat="43.10284" lon="-0.16492">
        <ele>355.79998779297</ele>
        <time>2025-08-11T08:51:56.000Z</time>
      </trkpt>
      <trkpt lat="43.10279" lon="-0.1653">
        <ele>355.39999389648</ele>
        <time>2025-08-11T08:52:02.000Z</time>
      </trkpt>
      <trkpt lat="43.10276" lon="-0.16543">
        <ele>355.20001220703</ele>
        <time>2025-08-11T08:52:04.000Z</time>
      </trkpt>
      <trkpt lat="43.10266" lon="-0.16595">
        <ele>354.79998779297</ele>
        <time>2025-08-11T08:52:12.000Z</time>
      </trkpt>
      <trkpt lat="43.10266" lon="-0.166">
        <ele>354.60000610352</ele>
        <time>2025-08-11T08:52:13.000Z</time>
      </trkpt>
      <trkpt lat="43.10263" lon="-0.16615">
        <ele>354</ele>
        <time>2025-08-11T08:52:17.000Z</time>
      </trkpt>
      <trkpt lat="43.10259" lon="-0.16637">
        <ele>354</ele>
        <time>2025-08-11T08:52:22.000Z</time>
      </trkpt>
      <trkpt lat="43.10252" lon="-0.16668">
        <ele>354</ele>
        <time>2025-08-11T08:52:27.000Z</time>
      </trkpt>
      <trkpt lat="43.10243" lon="-0.16696">
        <ele>354</ele>
        <time>2025-08-11T08:52:33.000Z</time>
      </trkpt>
      <trkpt lat="43.10241" lon="-0.16692">
        <ele>354</ele>
        <time>2025-08-11T08:52:35.000Z</time>
      </trkpt>
      <trkpt lat="43.10242" lon="-0.16688">
        <ele>353.79998779297</ele>
        <time>2025-08-11T08:52:36.000Z</time>
      </trkpt>
      <trkpt lat="43.10244" lon="-0.16674">
        <ele>353.60000610352</ele>
        <time>2025-08-11T08:52:39.000Z</time>
      </trkpt>
      <trkpt lat="43.10244" lon="-0.16669">
        <ele>353.60000610352</ele>
        <time>2025-08-11T08:52:40.000Z</time>
      </trkpt>
      <trkpt lat="43.10237" lon="-0.16633">
        <ele>352.60000610352</ele>
        <time>2025-08-11T08:52:46.000Z</time>
      </trkpt>
      <trkpt lat="43.10232" lon="-0.16622">
        <ele>351.39999389648</ele>
        <time>2025-08-11T08:52:49.000Z</time>
      </trkpt>
      <trkpt lat="43.1023" lon="-0.16621">
        <ele>350.60000610352</ele>
        <time>2025-08-11T08:52:50.000Z</time>
      </trkpt>
      <trkpt lat="43.10227" lon="-0.16619">
        <ele>349.79998779297</ele>
        <time>2025-08-11T08:52:52.000Z</time>
      </trkpt>
      <trkpt lat="43.10224" lon="-0.16616">
        <ele>348.79998779297</ele>
        <time>2025-08-11T08:52:54.000Z</time>
      </trkpt>
      <trkpt lat="43.1022" lon="-0.16615">
        <ele>348.39999389648</ele>
        <time>2025-08-11T08:52:56.000Z</time>
      </trkpt>
      <trkpt lat="43.10205" lon="-0.16611">
        <ele>347.79998779297</ele>
        <time>2025-08-11T08:53:01.000Z</time>
      </trkpt>
      <trkpt lat="43.10197" lon="-0.16609">
        <ele>347.60000610352</ele>
        <time>2025-08-11T08:53:04.000Z</time>
      </trkpt>
      <trkpt lat="43.10177" lon="-0.16602">
        <ele>347.60000610352</ele>
        <time>2025-08-11T08:53:09.000Z</time>
      </trkpt>
      <trkpt lat="43.1016" lon="-0.16594">
        <ele>347.20001220703</ele>
        <time>2025-08-11T08:53:13.000Z</time>
      </trkpt>
      <trkpt lat="43.1015" lon="-0.16593">
        <ele>346.60000610352</ele>
        <time>2025-08-11T08:53:15.000Z</time>
      </trkpt>
      <trkpt lat="43.10131" lon="-0.16589">
        <ele>346</ele>
        <time>2025-08-11T08:53:21.000Z</time>
      </trkpt>
      <trkpt lat="43.10122" lon="-0.16589">
        <ele>346.20001220703</ele>
        <time>2025-08-11T08:53:25.000Z</time>
      </trkpt>
      <trkpt lat="43.1012" lon="-0.16588">
        <ele>346.39999389648</ele>
        <time>2025-08-11T08:53:26.000Z</time>
      </trkpt>
      <trkpt lat="43.10115" lon="-0.16589">
        <ele>346.79998779297</ele>
        <time>2025-08-11T08:53:28.000Z</time>
      </trkpt>
      <trkpt lat="43.10113" lon="-0.16593">
        <ele>347</ele>
        <time>2025-08-11T08:53:30.000Z</time>
      </trkpt>
      <trkpt lat="43.10109" lon="-0.16596">
        <ele>347.60000610352</ele>
        <time>2025-08-11T08:53:32.000Z</time>
      </trkpt>
      <trkpt lat="43.10101" lon="-0.16607">
        <ele>348.79998779297</ele>
        <time>2025-08-11T08:53:37.000Z</time>
      </trkpt>
      <trkpt lat="43.101" lon="-0.16609">
        <ele>349</ele>
        <time>2025-08-11T08:53:38.000Z</time>
      </trkpt>
      <trkpt lat="43.10089" lon="-0.16632">
        <ele>349.79998779297</ele>
        <time>2025-08-11T08:53:46.000Z</time>
      </trkpt>
      <trkpt lat="43.10088" lon="-0.16639">
        <ele>349.79998779297</ele>
        <time>2025-08-11T08:53:48.000Z</time>
      </trkpt>
      <trkpt lat="43.1008" lon="-0.16675">
        <ele>350</ele>
        <time>2025-08-11T08:53:56.000Z</time>
      </trkpt>
      <trkpt lat="43.1007" lon="-0.16715">
        <ele>349.39999389648</ele>
        <time>2025-08-11T08:54:03.000Z</time>
      </trkpt>
      <trkpt lat="43.10062" lon="-0.16745">
        <ele>348.79998779297</ele>
        <time>2025-08-11T08:54:08.000Z</time>
      </trkpt>
      <trkpt lat="43.10058" lon="-0.16756">
        <ele>348.60000610352</ele>
        <time>2025-08-11T08:54:10.000Z</time>
      </trkpt>
      <trkpt lat="43.10046" lon="-0.16796">
        <ele>348.39999389648</ele>
        <time>2025-08-11T08:54:16.000Z</time>
      </trkpt>
      <trkpt lat="43.10038" lon="-0.16821">
        <ele>348.39999389648</ele>
        <time>2025-08-11T08:54:20.000Z</time>
      </trkpt>
      <trkpt lat="43.10014" lon="-0.16882">
        <ele>348.60000610352</ele>
        <time>2025-08-11T08:54:29.000Z</time>
      </trkpt>
      <trkpt lat="43.09987" lon="-0.16929">
        <ele>348.20001220703</ele>
        <time>2025-08-11T08:54:36.000Z</time>
      </trkpt>
      <trkpt lat="43.09983" lon="-0.16935">
        <ele>348</ele>
        <time>2025-08-11T08:54:37.000Z</time>
      </trkpt>
      <trkpt lat="43.0996" lon="-0.16984">
        <ele>347.39999389648</ele>
        <time>2025-08-11T08:54:44.000Z</time>
      </trkpt>
      <trkpt lat="43.09949" lon="-0.17024">
        <ele>346.79998779297</ele>
        <time>2025-08-11T08:54:49.000Z</time>
      </trkpt>
      <trkpt lat="43.09946" lon="-0.1704">
        <ele>346.20001220703</ele>
        <time>2025-08-11T08:54:51.000Z</time>
      </trkpt>
      <trkpt lat="43.09942" lon="-0.17074">
        <ele>345.79998779297</ele>
        <time>2025-08-11T08:54:55.000Z</time>
      </trkpt>
      <trkpt lat="43.09936" lon="-0.17133">
        <ele>345</ele>
        <time>2025-08-11T08:55:02.000Z</time>
      </trkpt>
      <trkpt lat="43.09934" lon="-0.17159">
        <ele>344.60000610352</ele>
        <time>2025-08-11T08:55:05.000Z</time>
      </trkpt>
      <trkpt lat="43.09929" lon="-0.17204">
        <ele>344</ele>
        <time>2025-08-11T08:55:10.000Z</time>
      </trkpt>
      <trkpt lat="43.09927" lon="-0.17221">
        <ele>343.79998779297</ele>
        <time>2025-08-11T08:55:12.000Z</time>
      </trkpt>
      <trkpt lat="43.09924" lon="-0.17239">
        <ele>343.60000610352</ele>
        <time>2025-08-11T08:55:14.000Z</time>
      </trkpt>
      <trkpt lat="43.09917" lon="-0.17275">
        <ele>343.20001220703</ele>
        <time>2025-08-11T08:55:18.000Z</time>
      </trkpt>
      <trkpt lat="43.09909" lon="-0.1732">
        <ele>342.60000610352</ele>
        <time>2025-08-11T08:55:23.000Z</time>
      </trkpt>
      <trkpt lat="43.09912" lon="-0.17365">
        <ele>342.20001220703</ele>
        <time>2025-08-11T08:55:28.000Z</time>
      </trkpt>
      <trkpt lat="43.09914" lon="-0.17376">
        <ele>342</ele>
        <time>2025-08-11T08:55:29.000Z</time>
      </trkpt>
      <trkpt lat="43.09924" lon="-0.17422">
        <ele>342</ele>
        <time>2025-08-11T08:55:34.000Z</time>
      </trkpt>
      <trkpt lat="43.09926" lon="-0.1743">
        <ele>342</ele>
        <time>2025-08-11T08:55:35.000Z</time>
      </trkpt>
      <trkpt lat="43.09932" lon="-0.17445">
        <ele>342</ele>
        <time>2025-08-11T08:55:37.000Z</time>
      </trkpt>
      <trkpt lat="43.09936" lon="-0.17452">
        <ele>342</ele>
        <time>2025-08-11T08:55:38.000Z</time>
      </trkpt>
      <trkpt lat="43.09951" lon="-0.17475">
        <ele>342</ele>
        <time>2025-08-11T08:55:42.000Z</time>
      </trkpt>
      <trkpt lat="43.09956" lon="-0.1748">
        <ele>342</ele>
        <time>2025-08-11T08:55:43.000Z</time>
      </trkpt>
      <trkpt lat="43.09979" lon="-0.175">
        <ele>342</ele>
        <time>2025-08-11T08:55:48.000Z</time>
      </trkpt>
      <trkpt lat="43.09984" lon="-0.17504">
        <ele>342</ele>
        <time>2025-08-11T08:55:49.000Z</time>
      </trkpt>
      <trkpt lat="43.10004" lon="-0.17517">
        <ele>342.39999389648</ele>
        <time>2025-08-11T08:55:54.000Z</time>
      </trkpt>
      <trkpt lat="43.10028" lon="-0.17543">
        <ele>343</ele>
        <time>2025-08-11T08:56:01.000Z</time>
      </trkpt>
      <trkpt lat="43.10035" lon="-0.17555">
        <ele>343.20001220703</ele>
        <time>2025-08-11T08:56:04.000Z</time>
      </trkpt>
      <trkpt lat="43.10037" lon="-0.17561">
        <ele>343.39999389648</ele>
        <time>2025-08-11T08:56:06.000Z</time>
      </trkpt>
      <trkpt lat="43.10037" lon="-0.17565">
        <ele>343.60000610352</ele>
        <time>2025-08-11T08:56:07.000Z</time>
      </trkpt>
      <trkpt lat="43.10038" lon="-0.17586">
        <ele>344.20001220703</ele>
        <time>2025-08-11T08:56:12.000Z</time>
      </trkpt>
      <trkpt lat="43.10036" lon="-0.17602">
        <ele>344.79998779297</ele>
        <time>2025-08-11T08:56:16.000Z</time>
      </trkpt>
      <trkpt lat="43.10034" lon="-0.17609">
        <ele>345.20001220703</ele>
        <time>2025-08-11T08:56:18.000Z</time>
      </trkpt>
      <trkpt lat="43.10028" lon="-0.17639">
        <ele>345.79998779297</ele>
        <time>2025-08-11T08:56:25.000Z</time>
      </trkpt>
      <trkpt lat="43.10021" lon="-0.17669">
        <ele>346.79998779297</ele>
        <time>2025-08-11T08:56:33.000Z</time>
      </trkpt>
      <trkpt lat="43.10023" lon="-0.17696">
        <ele>347.79998779297</ele>
        <time>2025-08-11T08:56:40.000Z</time>
      </trkpt>
      <trkpt lat="43.10025" lon="-0.17704">
        <ele>347.79998779297</ele>
        <time>2025-08-11T08:56:42.000Z</time>
      </trkpt>
      <trkpt lat="43.10033" lon="-0.17725">
        <ele>348.20001220703</ele>
        <time>2025-08-11T08:56:47.000Z</time>
      </trkpt>
      <trkpt lat="43.10046" lon="-0.17756">
        <ele>348.39999389648</ele>
        <time>2025-08-11T08:56:54.000Z</time>
      </trkpt>
      <trkpt lat="43.10055" lon="-0.17783">
        <ele>348.60000610352</ele>
        <time>2025-08-11T08:57:00.000Z</time>
      </trkpt>
      <trkpt lat="43.10056" lon="-0.17787">
        <ele>348.60000610352</ele>
        <time>2025-08-11T08:57:01.000Z</time>
      </trkpt>
      <trkpt lat="43.10061" lon="-0.17823">
        <ele>348.79998779297</ele>
        <time>2025-08-11T08:57:09.000Z</time>
      </trkpt>
      <trkpt lat="43.10065" lon="-0.17855">
        <ele>349.39999389648</ele>
        <time>2025-08-11T08:57:16.000Z</time>
      </trkpt>
      <trkpt lat="43.10075" lon="-0.17901">
        <ele>350.39999389648</ele>
        <time>2025-08-11T08:57:26.000Z</time>
      </trkpt>
      <trkpt lat="43.10076" lon="-0.17905">
        <ele>350.60000610352</ele>
        <time>2025-08-11T08:57:27.000Z</time>
      </trkpt>
      <trkpt lat="43.10088" lon="-0.17933">
        <ele>351.39999389648</ele>
        <time>2025-08-11T08:57:34.000Z</time>
      </trkpt>
      <trkpt lat="43.10102" lon="-0.17965">
        <ele>351.60000610352</ele>
        <time>2025-08-11T08:57:42.000Z</time>
      </trkpt>
      <trkpt lat="43.10111" lon="-0.17987">
        <ele>351.60000610352</ele>
        <time>2025-08-11T08:57:46.000Z</time>
      </trkpt>
      <trkpt lat="43.10126" lon="-0.18018">
        <ele>351.20001220703</ele>
        <time>2025-08-11T08:57:50.000Z</time>
      </trkpt>
      <trkpt lat="43.10143" lon="-0.18046">
        <ele>350.20001220703</ele>
        <time>2025-08-11T08:57:53.000Z</time>
      </trkpt>
      <trkpt lat="43.1015" lon="-0.18056">
        <ele>349.79998779297</ele>
        <time>2025-08-11T08:57:54.000Z</time>
      </trkpt>
      <trkpt lat="43.10158" lon="-0.18066">
        <ele>349</ele>
        <time>2025-08-11T08:57:55.000Z</time>
      </trkpt>
      <trkpt lat="43.10173" lon="-0.18085">
        <ele>348</ele>
        <time>2025-08-11T08:57:57.000Z</time>
      </trkpt>
      <trkpt lat="43.10195" lon="-0.18112">
        <ele>346</ele>
        <time>2025-08-11T08:58:00.000Z</time>
      </trkpt>
      <trkpt lat="43.10208" lon="-0.1813">
        <ele>345</ele>
        <time>2025-08-11T08:58:02.000Z</time>
      </trkpt>
      <trkpt lat="43.10214" lon="-0.1814">
        <ele>344.60000610352</ele>
        <time>2025-08-11T08:58:03.000Z</time>
      </trkpt>
      <trkpt lat="43.10224" lon="-0.18159">
        <ele>344.20001220703</ele>
        <time>2025-08-11T08:58:05.000Z</time>
      </trkpt>
      <trkpt lat="43.10229" lon="-0.1817">
        <ele>344</ele>
        <time>2025-08-11T08:58:06.000Z</time>
      </trkpt>
      <trkpt lat="43.10233" lon="-0.18183">
        <ele>343.79998779297</ele>
        <time>2025-08-11T08:58:07.000Z</time>
      </trkpt>
      <trkpt lat="43.10238" lon="-0.18204">
        <ele>343.20001220703</ele>
        <time>2025-08-11T08:58:09.000Z</time>
      </trkpt>
      <trkpt lat="43.10242" lon="-0.18226">
        <ele>342.79998779297</ele>
        <time>2025-08-11T08:58:11.000Z</time>
      </trkpt>
      <trkpt lat="43.10243" lon="-0.1825">
        <ele>342.39999389648</ele>
        <time>2025-08-11T08:58:13.000Z</time>
      </trkpt>
      <trkpt lat="43.10242" lon="-0.1832">
        <ele>341.79998779297</ele>
        <time>2025-08-11T08:58:19.000Z</time>
      </trkpt>
      <trkpt lat="43.10241" lon="-0.18343">
        <ele>340.60000610352</ele>
        <time>2025-08-11T08:58:21.000Z</time>
      </trkpt>
      <trkpt lat="43.10241" lon="-0.18387">
        <ele>339.60000610352</ele>
        <time>2025-08-11T08:58:25.000Z</time>
      </trkpt>
      <trkpt lat="43.10241" lon="-0.18408">
        <ele>339.39999389648</ele>
        <time>2025-08-11T08:58:27.000Z</time>
      </trkpt>
      <trkpt lat="43.1024" lon="-0.1846">
        <ele>339</ele>
        <time>2025-08-11T08:58:33.000Z</time>
      </trkpt>
      <trkpt lat="43.10236" lon="-0.18496">
        <ele>338.79998779297</ele>
        <time>2025-08-11T08:58:38.000Z</time>
      </trkpt>
      <trkpt lat="43.10235" lon="-0.18502">
        <ele>338.79998779297</ele>
        <time>2025-08-11T08:58:39.000Z</time>
      </trkpt>
      <trkpt lat="43.10226" lon="-0.1855">
        <ele>338.79998779297</ele>
        <time>2025-08-11T08:58:46.000Z</time>
      </trkpt>
      <trkpt lat="43.10223" lon="-0.18571">
        <ele>338.60000610352</ele>
        <time>2025-08-11T08:58:49.000Z</time>
      </trkpt>
      <trkpt lat="43.10222" lon="-0.18586">
        <ele>338.39999389648</ele>
        <time>2025-08-11T08:58:51.000Z</time>
      </trkpt>
      <trkpt lat="43.10225" lon="-0.18615">
        <ele>337.79998779297</ele>
        <time>2025-08-11T08:58:55.000Z</time>
      </trkpt>
      <trkpt lat="43.10231" lon="-0.18643">
        <ele>337.39999389648</ele>
        <time>2025-08-11T08:58:59.000Z</time>
      </trkpt>
      <trkpt lat="43.10235" lon="-0.18657">
        <ele>337.39999389648</ele>
        <time>2025-08-11T08:59:01.000Z</time>
      </trkpt>
      <trkpt lat="43.10237" lon="-0.18664">
        <ele>337.20001220703</ele>
        <time>2025-08-11T08:59:02.000Z</time>
      </trkpt>
      <trkpt lat="43.10253" lon="-0.18718">
        <ele>336.79998779297</ele>
        <time>2025-08-11T08:59:10.000Z</time>
      </trkpt>
      <trkpt lat="43.10266" lon="-0.18752">
        <ele>336.39999389648</ele>
        <time>2025-08-11T08:59:15.000Z</time>
      </trkpt>
      <trkpt lat="43.10276" lon="-0.18775">
        <ele>336.20001220703</ele>
        <time>2025-08-11T08:59:19.000Z</time>
      </trkpt>
      <trkpt lat="43.10289" lon="-0.18797">
        <ele>336</ele>
        <time>2025-08-11T08:59:23.000Z</time>
      </trkpt>
      <trkpt lat="43.10297" lon="-0.18812">
        <ele>336</ele>
        <time>2025-08-11T08:59:26.000Z</time>
      </trkpt>
      <trkpt lat="43.10301" lon="-0.18816">
        <ele>336</ele>
        <time>2025-08-11T08:59:27.000Z</time>
      </trkpt>
      <trkpt lat="43.10312" lon="-0.18832">
        <ele>335.79998779297</ele>
        <time>2025-08-11T08:59:31.000Z</time>
      </trkpt>
      <trkpt lat="43.1032" lon="-0.18851">
        <ele>335.60000610352</ele>
        <time>2025-08-11T08:59:37.000Z</time>
      </trkpt>
      <trkpt lat="43.10323" lon="-0.18859">
        <ele>335.39999389648</ele>
        <time>2025-08-11T08:59:40.000Z</time>
      </trkpt>
      <trkpt lat="43.10326" lon="-0.18864">
        <ele>335.39999389648</ele>
        <time>2025-08-11T08:59:42.000Z</time>
      </trkpt>
      <trkpt lat="43.10341" lon="-0.18887">
        <ele>334.60000610352</ele>
        <time>2025-08-11T08:59:50.000Z</time>
      </trkpt>
      <trkpt lat="43.10347" lon="-0.18896">
        <ele>334.39999389648</ele>
        <time>2025-08-11T08:59:54.000Z</time>
      </trkpt>
      <trkpt lat="43.10351" lon="-0.18901">
        <ele>334.39999389648</ele>
        <time>2025-08-11T08:59:56.000Z</time>
      </trkpt>
      <trkpt lat="43.10369" lon="-0.18913">
        <ele>333.79998779297</ele>
        <time>2025-08-11T09:00:03.000Z</time>
      </trkpt>
      <trkpt lat="43.10388" lon="-0.18928">
        <ele>333.60000610352</ele>
        <time>2025-08-11T09:00:10.000Z</time>
      </trkpt>
      <trkpt lat="43.1039" lon="-0.18932">
        <ele>333.60000610352</ele>
        <time>2025-08-11T09:00:11.000Z</time>
      </trkpt>
      <trkpt lat="43.10403" lon="-0.18946">
        <ele>333.39999389648</ele>
        <time>2025-08-11T09:00:16.000Z</time>
      </trkpt>
      <trkpt lat="43.10418" lon="-0.18971">
        <ele>333.39999389648</ele>
        <time>2025-08-11T09:00:23.000Z</time>
      </trkpt>
      <trkpt lat="43.10424" lon="-0.18999">
        <ele>333.79998779297</ele>
        <time>2025-08-11T09:00:29.000Z</time>
      </trkpt>
      <trkpt lat="43.10437" lon="-0.19038">
        <ele>333.79998779297</ele>
        <time>2025-08-11T09:00:37.000Z</time>
      </trkpt>
      <trkpt lat="43.10455" lon="-0.19073">
        <ele>333.60000610352</ele>
        <time>2025-08-11T09:00:44.000Z</time>
      </trkpt>
      <trkpt lat="43.10467" lon="-0.19095">
        <ele>333.39999389648</ele>
        <time>2025-08-11T09:00:48.000Z</time>
      </trkpt>
      <trkpt lat="43.10469" lon="-0.19099">
        <ele>333.39999389648</ele>
        <time>2025-08-11T09:00:49.000Z</time>
      </trkpt>
      <trkpt lat="43.10472" lon="-0.19105">
        <ele>333.39999389648</ele>
        <time>2025-08-11T09:00:50.000Z</time>
      </trkpt>
      <trkpt lat="43.10478" lon="-0.19127">
        <ele>333.39999389648</ele>
        <time>2025-08-11T09:00:54.000Z</time>
      </trkpt>
      <trkpt lat="43.10479" lon="-0.19138">
        <ele>333.39999389648</ele>
        <time>2025-08-11T09:00:56.000Z</time>
      </trkpt>
      <trkpt lat="43.1048" lon="-0.19143">
        <ele>333.39999389648</ele>
        <time>2025-08-11T09:00:57.000Z</time>
      </trkpt>
      <trkpt lat="43.10482" lon="-0.19157">
        <ele>333.60000610352</ele>
        <time>2025-08-11T09:01:00.000Z</time>
      </trkpt>
      <trkpt lat="43.10488" lon="-0.19176">
        <ele>334.39999389648</ele>
        <time>2025-08-11T09:01:05.000Z</time>
      </trkpt>
      <trkpt lat="43.1049" lon="-0.19181">
        <ele>334.60000610352</ele>
        <time>2025-08-11T09:01:06.000Z</time>
      </trkpt>
      <trkpt lat="43.10508" lon="-0.19198">
        <ele>335</ele>
        <time>2025-08-11T09:01:12.000Z</time>
      </trkpt>
      <trkpt lat="43.10519" lon="-0.19204">
        <ele>335</ele>
        <time>2025-08-11T09:01:15.000Z</time>
      </trkpt>
      <trkpt lat="43.10529" lon="-0.19206">
        <ele>335</ele>
        <time>2025-08-11T09:01:17.000Z</time>
      </trkpt>
      <trkpt lat="43.10538" lon="-0.19209">
        <ele>334.60000610352</ele>
        <time>2025-08-11T09:01:19.000Z</time>
      </trkpt>
      <trkpt lat="43.10555" lon="-0.19214">
        <ele>334.39999389648</ele>
        <time>2025-08-11T09:01:22.000Z</time>
      </trkpt>
      <trkpt lat="43.10559" lon="-0.19215">
        <ele>334.39999389648</ele>
        <time>2025-08-11T09:01:23.000Z</time>
      </trkpt>
      <trkpt lat="43.1057" lon="-0.19218">
        <ele>334.20001220703</ele>
        <time>2025-08-11T09:01:25.000Z</time>
      </trkpt>
      <trkpt lat="43.10591" lon="-0.19224">
        <ele>333.60000610352</ele>
        <time>2025-08-11T09:01:29.000Z</time>
      </trkpt>
      <trkpt lat="43.10615" lon="-0.19231">
        <ele>333.20001220703</ele>
        <time>2025-08-11T09:01:33.000Z</time>
      </trkpt>
      <trkpt lat="43.10625" lon="-0.19233">
        <ele>333</ele>
        <time>2025-08-11T09:01:35.000Z</time>
      </trkpt>
      <trkpt lat="43.1063" lon="-0.19232">
        <ele>332.79998779297</ele>
        <time>2025-08-11T09:01:36.000Z</time>
      </trkpt>
      <trkpt lat="43.10635" lon="-0.19232">
        <ele>332.79998779297</ele>
        <time>2025-08-11T09:01:37.000Z</time>
      </trkpt>
      <trkpt lat="43.10663" lon="-0.19233">
        <ele>332.20001220703</ele>
        <time>2025-08-11T09:01:42.000Z</time>
      </trkpt>
      <trkpt lat="43.10673" lon="-0.19233">
        <ele>332</ele>
        <time>2025-08-11T09:01:44.000Z</time>
      </trkpt>
      <trkpt lat="43.10695" lon="-0.19234">
        <ele>331.39999389648</ele>
        <time>2025-08-11T09:01:48.000Z</time>
      </trkpt>
      <trkpt lat="43.10726" lon="-0.19237">
        <ele>331.20001220703</ele>
        <time>2025-08-11T09:01:54.000Z</time>
      </trkpt>
      <trkpt lat="43.10735" lon="-0.19237">
        <ele>331.20001220703</ele>
        <time>2025-08-11T09:01:56.000Z</time>
      </trkpt>
      <trkpt lat="43.10774" lon="-0.19238">
        <ele>331</ele>
        <time>2025-08-11T09:02:04.000Z</time>
      </trkpt>
      <trkpt lat="43.10778" lon="-0.19238">
        <ele>331</ele>
        <time>2025-08-11T09:02:05.000Z</time>
      </trkpt>
      <trkpt lat="43.10804" lon="-0.19238">
        <ele>331</ele>
        <time>2025-08-11T09:02:11.000Z</time>
      </trkpt>
      <trkpt lat="43.10808" lon="-0.19239">
        <ele>331</ele>
        <time>2025-08-11T09:02:12.000Z</time>
      </trkpt>
      <trkpt lat="43.10816" lon="-0.19242">
        <ele>331.20001220703</ele>
        <time>2025-08-11T09:02:14.000Z</time>
      </trkpt>
      <trkpt lat="43.10824" lon="-0.19252">
        <ele>331.39999389648</ele>
        <time>2025-08-11T09:02:17.000Z</time>
      </trkpt>
      <trkpt lat="43.10834" lon="-0.19268">
        <ele>332</ele>
        <time>2025-08-11T09:02:21.000Z</time>
      </trkpt>
      <trkpt lat="43.10841" lon="-0.19275">
        <ele>332.20001220703</ele>
        <time>2025-08-11T09:02:23.000Z</time>
      </trkpt>
      <trkpt lat="43.10854" lon="-0.19282">
        <ele>333.20001220703</ele>
        <time>2025-08-11T09:02:27.000Z</time>
      </trkpt>
      <trkpt lat="43.10861" lon="-0.19284">
        <ele>333.60000610352</ele>
        <time>2025-08-11T09:02:29.000Z</time>
      </trkpt>
      <trkpt lat="43.10885" lon="-0.1929">
        <ele>334.20001220703</ele>
        <time>2025-08-11T09:02:36.000Z</time>
      </trkpt>
      <trkpt lat="43.10898" lon="-0.19294">
        <ele>334.60000610352</ele>
        <time>2025-08-11T09:02:40.000Z</time>
      </trkpt>
      <trkpt lat="43.10912" lon="-0.19298">
        <ele>334.79998779297</ele>
        <time>2025-08-11T09:02:44.000Z</time>
      </trkpt>
      <trkpt lat="43.10939" lon="-0.19302">
        <ele>334.79998779297</ele>
        <time>2025-08-11T09:02:51.000Z</time>
      </trkpt>
      <trkpt lat="43.10971" lon="-0.1931">
        <ele>335.20001220703</ele>
        <time>2025-08-11T09:02:59.000Z</time>
      </trkpt>
      <trkpt lat="43.10984" lon="-0.19313">
        <ele>335</ele>
        <time>2025-08-11T09:03:02.000Z</time>
      </trkpt>
      <trkpt lat="43.11005" lon="-0.19318">
        <ele>334.79998779297</ele>
        <time>2025-08-11T09:03:07.000Z</time>
      </trkpt>
      <trkpt lat="43.11049" lon="-0.19327">
        <ele>334.39999389648</ele>
        <time>2025-08-11T09:03:17.000Z</time>
      </trkpt>
      <trkpt lat="43.11053" lon="-0.19328">
        <ele>334.39999389648</ele>
        <time>2025-08-11T09:03:18.000Z</time>
      </trkpt>
      <trkpt lat="43.11093" lon="-0.19334">
        <ele>334.20001220703</ele>
        <time>2025-08-11T09:03:27.000Z</time>
      </trkpt>
      <trkpt lat="43.1113" lon="-0.19339">
        <ele>334</ele>
        <time>2025-08-11T09:03:35.000Z</time>
      </trkpt>
      <trkpt lat="43.11139" lon="-0.1934">
        <ele>333.79998779297</ele>
        <time>2025-08-11T09:03:37.000Z</time>
      </trkpt>
      <trkpt lat="43.11148" lon="-0.19341">
        <ele>333.79998779297</ele>
        <time>2025-08-11T09:03:39.000Z</time>
      </trkpt>
      <trkpt lat="43.11183" lon="-0.19347">
        <ele>333.39999389648</ele>
        <time>2025-08-11T09:03:46.000Z</time>
      </trkpt>
      <trkpt lat="43.11223" lon="-0.19361">
        <ele>333.20001220703</ele>
        <time>2025-08-11T09:03:54.000Z</time>
      </trkpt>
      <trkpt lat="43.11256" lon="-0.19388">
        <ele>332.60000610352</ele>
        <time>2025-08-11T09:04:01.000Z</time>
      </trkpt>
      <trkpt lat="43.11303" lon="-0.19436">
        <ele>331.79998779297</ele>
        <time>2025-08-11T09:04:11.000Z</time>
      </trkpt>
      <trkpt lat="43.11344" lon="-0.19464">
        <ele>332</ele>
        <time>2025-08-11T09:04:20.000Z</time>
      </trkpt>
      <trkpt lat="43.1137" lon="-0.19475">
        <ele>331.79998779297</ele>
        <time>2025-08-11T09:04:25.000Z</time>
      </trkpt>
      <trkpt lat="43.11386" lon="-0.19481">
        <ele>331.60000610352</ele>
        <time>2025-08-11T09:04:28.000Z</time>
      </trkpt>
      <trkpt lat="43.11433" lon="-0.19499">
        <ele>330.60000610352</ele>
        <time>2025-08-11T09:04:36.000Z</time>
      </trkpt>
      <trkpt lat="43.11457" lon="-0.19507">
        <ele>330.20001220703</ele>
        <time>2025-08-11T09:04:40.000Z</time>
      </trkpt>
      <trkpt lat="43.11479" lon="-0.19513">
        <ele>329.79998779297</ele>
        <time>2025-08-11T09:04:44.000Z</time>
      </trkpt>
      <trkpt lat="43.11495" lon="-0.19518">
        <ele>329.60000610352</ele>
        <time>2025-08-11T09:04:47.000Z</time>
      </trkpt>
      <trkpt lat="43.11528" lon="-0.1953">
        <ele>329.39999389648</ele>
        <time>2025-08-11T09:04:53.000Z</time>
      </trkpt>
      <trkpt lat="43.11534" lon="-0.19532">
        <ele>329.39999389648</ele>
        <time>2025-08-11T09:04:54.000Z</time>
      </trkpt>
      <trkpt lat="43.11567" lon="-0.19544">
        <ele>329.39999389648</ele>
        <time>2025-08-11T09:05:00.000Z</time>
      </trkpt>
      <trkpt lat="43.11597" lon="-0.19559">
        <ele>329</ele>
        <time>2025-08-11T09:05:06.000Z</time>
      </trkpt>
      <trkpt lat="43.11601" lon="-0.19564">
        <ele>328.79998779297</ele>
        <time>2025-08-11T09:05:07.000Z</time>
      </trkpt>
      <trkpt lat="43.11612" lon="-0.19572">
        <ele>328.60000610352</ele>
        <time>2025-08-11T09:05:09.000Z</time>
      </trkpt>
      <trkpt lat="43.11633" lon="-0.19592">
        <ele>328.39999389648</ele>
        <time>2025-08-11T09:05:14.000Z</time>
      </trkpt>
      <trkpt lat="43.1164" lon="-0.19601">
        <ele>328.20001220703</ele>
        <time>2025-08-11T09:05:16.000Z</time>
      </trkpt>
      <trkpt lat="43.11659" lon="-0.19631">
        <ele>328</ele>
        <time>2025-08-11T09:05:22.000Z</time>
      </trkpt>
      <trkpt lat="43.11682" lon="-0.1967">
        <ele>328.20001220703</ele>
        <time>2025-08-11T09:05:30.000Z</time>
      </trkpt>
      <trkpt lat="43.11712" lon="-0.19719">
        <ele>328</ele>
        <time>2025-08-11T09:05:40.000Z</time>
      </trkpt>
      <trkpt lat="43.11729" lon="-0.19745">
        <ele>327.60000610352</ele>
        <time>2025-08-11T09:05:45.000Z</time>
      </trkpt>
      <trkpt lat="43.11742" lon="-0.19764">
        <ele>327.60000610352</ele>
        <time>2025-08-11T09:05:49.000Z</time>
      </trkpt>
      <trkpt lat="43.11746" lon="-0.19768">
        <ele>327.60000610352</ele>
        <time>2025-08-11T09:05:50.000Z</time>
      </trkpt>
      <trkpt lat="43.11764" lon="-0.19794">
        <ele>327.60000610352</ele>
        <time>2025-08-11T09:05:56.000Z</time>
      </trkpt>
      <trkpt lat="43.11791" lon="-0.19829">
        <ele>327.39999389648</ele>
        <time>2025-08-11T09:06:04.000Z</time>
      </trkpt>
      <trkpt lat="43.11817" lon="-0.19865">
        <ele>327</ele>
        <time>2025-08-11T09:06:12.000Z</time>
      </trkpt>
      <trkpt lat="43.11824" lon="-0.19882">
        <ele>327</ele>
        <time>2025-08-11T09:06:15.000Z</time>
      </trkpt>
      <trkpt lat="43.11831" lon="-0.19907">
        <ele>326.79998779297</ele>
        <time>2025-08-11T09:06:19.000Z</time>
      </trkpt>
      <trkpt lat="43.1184" lon="-0.19937">
        <ele>326</ele>
        <time>2025-08-11T09:06:24.000Z</time>
      </trkpt>
      <trkpt lat="43.11842" lon="-0.19948">
        <ele>325.79998779297</ele>
        <time>2025-08-11T09:06:26.000Z</time>
      </trkpt>
      <trkpt lat="43.11845" lon="-0.19973">
        <ele>325.60000610352</ele>
        <time>2025-08-11T09:06:30.000Z</time>
      </trkpt>
      <trkpt lat="43.11847" lon="-0.19992">
        <ele>325.20001220703</ele>
        <time>2025-08-11T09:06:33.000Z</time>
      </trkpt>
      <trkpt lat="43.11849" lon="-0.20008">
        <ele>324.79998779297</ele>
        <time>2025-08-11T09:06:35.000Z</time>
      </trkpt>
      <trkpt lat="43.11853" lon="-0.20025">
        <ele>324.20001220703</ele>
        <time>2025-08-11T09:06:37.000Z</time>
      </trkpt>
      <trkpt lat="43.11854" lon="-0.20032">
        <ele>323.79998779297</ele>
        <time>2025-08-11T09:06:38.000Z</time>
      </trkpt>
      <trkpt lat="43.11856" lon="-0.20038">
        <ele>323.79998779297</ele>
        <time>2025-08-11T09:06:39.000Z</time>
      </trkpt>
      <trkpt lat="43.11862" lon="-0.20056">
        <ele>323.39999389648</ele>
        <time>2025-08-11T09:06:42.000Z</time>
      </trkpt>
      <trkpt lat="43.11864" lon="-0.20061">
        <ele>323.20001220703</ele>
        <time>2025-08-11T09:06:43.000Z</time>
      </trkpt>
      <trkpt lat="43.11866" lon="-0.20068">
        <ele>323.20001220703</ele>
        <time>2025-08-11T09:06:44.000Z</time>
      </trkpt>
      <trkpt lat="43.11879" lon="-0.20109">
        <ele>322.39999389648</ele>
        <time>2025-08-11T09:06:49.000Z</time>
      </trkpt>
      <trkpt lat="43.11883" lon="-0.20125">
        <ele>322</ele>
        <time>2025-08-11T09:06:51.000Z</time>
      </trkpt>
      <trkpt lat="43.1189" lon="-0.20151">
        <ele>321</ele>
        <time>2025-08-11T09:06:55.000Z</time>
      </trkpt>
      <trkpt lat="43.11896" lon="-0.20175">
        <ele>320.79998779297</ele>
        <time>2025-08-11T09:06:59.000Z</time>
      </trkpt>
      <trkpt lat="43.11897" lon="-0.20185">
        <ele>320.79998779297</ele>
        <time>2025-08-11T09:07:01.000Z</time>
      </trkpt>
      <trkpt lat="43.11903" lon="-0.20204">
        <ele>321</ele>
        <time>2025-08-11T09:07:05.000Z</time>
      </trkpt>
      <trkpt lat="43.11906" lon="-0.20215">
        <ele>321.20001220703</ele>
        <time>2025-08-11T09:07:08.000Z</time>
      </trkpt>
      <trkpt lat="43.1191" lon="-0.20226">
        <ele>321.60000610352</ele>
        <time>2025-08-11T09:07:11.000Z</time>
      </trkpt>
      <trkpt lat="43.11918" lon="-0.20241">
        <ele>321.79998779297</ele>
        <time>2025-08-11T09:07:16.000Z</time>
      </trkpt>
      <trkpt lat="43.1193" lon="-0.20263">
        <ele>322.20001220703</ele>
        <time>2025-08-11T09:07:22.000Z</time>
      </trkpt>
      <trkpt lat="43.11942" lon="-0.20284">
        <ele>322.20001220703</ele>
        <time>2025-08-11T09:07:27.000Z</time>
      </trkpt>
      <trkpt lat="43.11961" lon="-0.20309">
        <ele>321.79998779297</ele>
        <time>2025-08-11T09:07:34.000Z</time>
      </trkpt>
      <trkpt lat="43.11982" lon="-0.20322">
        <ele>321.60000610352</ele>
        <time>2025-08-11T09:07:41.000Z</time>
      </trkpt>
      <trkpt lat="43.11998" lon="-0.20341">
        <ele>322</ele>
        <time>2025-08-11T09:07:47.000Z</time>
      </trkpt>
      <trkpt lat="43.12013" lon="-0.20358">
        <ele>322</ele>
        <time>2025-08-11T09:07:53.000Z</time>
      </trkpt>
      <trkpt lat="43.12026" lon="-0.20375">
        <ele>322</ele>
        <time>2025-08-11T09:07:58.000Z</time>
      </trkpt>
      <trkpt lat="43.12032" lon="-0.20383">
        <ele>322.20001220703</ele>
        <time>2025-08-11T09:08:00.000Z</time>
      </trkpt>
      <trkpt lat="43.12052" lon="-0.20402">
        <ele>322.20001220703</ele>
        <time>2025-08-11T09:08:06.000Z</time>
      </trkpt>
      <trkpt lat="43.12069" lon="-0.20425">
        <ele>322.20001220703</ele>
        <time>2025-08-11T09:08:12.000Z</time>
      </trkpt>
      <trkpt lat="43.1207" lon="-0.20426">
        <ele>322</ele>
        <time>2025-08-11T09:08:13.000Z</time>
      </trkpt>
      <trkpt lat="43.12075" lon="-0.20427">
        <ele>322.20001220703</ele>
        <time>2025-08-11T09:08:14.000Z</time>
      </trkpt>
      <trkpt lat="43.12078" lon="-0.20433">
        <ele>322.20001220703</ele>
        <time>2025-08-11T09:08:16.000Z</time>
      </trkpt>
      <trkpt lat="43.12089" lon="-0.20449">
        <ele>322.39999389648</ele>
        <time>2025-08-11T09:08:21.000Z</time>
      </trkpt>
      <trkpt lat="43.12099" lon="-0.20455">
        <ele>322.39999389648</ele>
        <time>2025-08-11T09:08:23.000Z</time>
      </trkpt>
      <trkpt lat="43.12108" lon="-0.20463">
        <ele>322.39999389648</ele>
        <time>2025-08-11T09:08:25.000Z</time>
      </trkpt>
      <trkpt lat="43.12125" lon="-0.20483">
        <ele>322.39999389648</ele>
        <time>2025-08-11T09:08:30.000Z</time>
      </trkpt>
      <trkpt lat="43.12145" lon="-0.20505">
        <ele>322.39999389648</ele>
        <time>2025-08-11T09:08:36.000Z</time>
      </trkpt>
      <trkpt lat="43.12148" lon="-0.20509">
        <ele>322.39999389648</ele>
        <time>2025-08-11T09:08:37.000Z</time>
      </trkpt>
      <trkpt lat="43.12169" lon="-0.20536">
        <ele>322.60000610352</ele>
        <time>2025-08-11T09:08:45.000Z</time>
      </trkpt>
      <trkpt lat="43.12191" lon="-0.20566">
        <ele>322.79998779297</ele>
        <time>2025-08-11T09:08:53.000Z</time>
      </trkpt>
      <trkpt lat="43.12213" lon="-0.20596">
        <ele>322.39999389648</ele>
        <time>2025-08-11T09:08:59.000Z</time>
      </trkpt>
      <trkpt lat="43.12244" lon="-0.2064">
        <ele>321</ele>
        <time>2025-08-11T09:09:06.000Z</time>
      </trkpt>
      <trkpt lat="43.12269" lon="-0.20669">
        <ele>320.20001220703</ele>
        <time>2025-08-11T09:09:12.000Z</time>
      </trkpt>
      <trkpt lat="43.12286" lon="-0.2069">
        <ele>320.20001220703</ele>
        <time>2025-08-11T09:09:18.000Z</time>
      </trkpt>
      <trkpt lat="43.12296" lon="-0.20699">
        <ele>320.39999389648</ele>
        <time>2025-08-11T09:09:23.000Z</time>
      </trkpt>
      <trkpt lat="43.12306" lon="-0.2071">
        <ele>320.20001220703</ele>
        <time>2025-08-11T09:09:28.000Z</time>
      </trkpt>
      <trkpt lat="43.12309" lon="-0.20713">
        <ele>319.79998779297</ele>
        <time>2025-08-11T09:09:29.000Z</time>
      </trkpt>
      <trkpt lat="43.12313" lon="-0.20714">
        <ele>319.60000610352</ele>
        <time>2025-08-11T09:09:30.000Z</time>
      </trkpt>
      <trkpt lat="43.12324" lon="-0.20718">
        <ele>319.20001220703</ele>
        <time>2025-08-11T09:09:32.000Z</time>
      </trkpt>
      <trkpt lat="43.1233" lon="-0.20719">
        <ele>319</ele>
        <time>2025-08-11T09:09:33.000Z</time>
      </trkpt>
      <trkpt lat="43.12336" lon="-0.20719">
        <ele>318.79998779297</ele>
        <time>2025-08-11T09:09:34.000Z</time>
      </trkpt>
      <trkpt lat="43.12348" lon="-0.2072">
        <ele>318</ele>
        <time>2025-08-11T09:09:36.000Z</time>
      </trkpt>
      <trkpt lat="43.12359" lon="-0.20722">
        <ele>317.60000610352</ele>
        <time>2025-08-11T09:09:38.000Z</time>
      </trkpt>
      <trkpt lat="43.12379" lon="-0.20723">
        <ele>317</ele>
        <time>2025-08-11T09:09:42.000Z</time>
      </trkpt>
      <trkpt lat="43.12386" lon="-0.20723">
        <ele>316.79998779297</ele>
        <time>2025-08-11T09:09:44.000Z</time>
      </trkpt>
      <trkpt lat="43.12394" lon="-0.20726">
        <ele>316.79998779297</ele>
        <time>2025-08-11T09:09:46.000Z</time>
      </trkpt>
      <trkpt lat="43.12426" lon="-0.20743">
        <ele>317.79998779297</ele>
        <time>2025-08-11T09:09:55.000Z</time>
      </trkpt>
      <trkpt lat="43.12445" lon="-0.20747">
        <ele>317.79998779297</ele>
        <time>2025-08-11T09:10:03.000Z</time>
      </trkpt>
      <trkpt lat="43.12465" lon="-0.20746">
        <ele>317.79998779297</ele>
        <time>2025-08-11T09:10:10.000Z</time>
      </trkpt>
      <trkpt lat="43.12483" lon="-0.20744">
        <ele>317.79998779297</ele>
        <time>2025-08-11T09:10:15.000Z</time>
      </trkpt>
      <trkpt lat="43.12505" lon="-0.20746">
        <ele>318</ele>
        <time>2025-08-11T09:10:21.000Z</time>
      </trkpt>
      <trkpt lat="43.12538" lon="-0.20747">
        <ele>318</ele>
        <time>2025-08-11T09:10:29.000Z</time>
      </trkpt>
      <trkpt lat="43.12579" lon="-0.20748">
        <ele>318.20001220703</ele>
        <time>2025-08-11T09:10:39.000Z</time>
      </trkpt>
      <trkpt lat="43.12618" lon="-0.20751">
        <ele>318.39999389648</ele>
        <time>2025-08-11T09:10:49.000Z</time>
      </trkpt>
      <trkpt lat="43.1263" lon="-0.20752">
        <ele>318.60000610352</ele>
        <time>2025-08-11T09:10:52.000Z</time>
      </trkpt>
      <trkpt lat="43.12651" lon="-0.20753">
        <ele>319</ele>
        <time>2025-08-11T09:10:58.000Z</time>
      </trkpt>
      <trkpt lat="43.12677" lon="-0.20753">
        <ele>319.60000610352</ele>
        <time>2025-08-11T09:11:05.000Z</time>
      </trkpt>
      <trkpt lat="43.12685" lon="-0.20753">
        <ele>319.79998779297</ele>
        <time>2025-08-11T09:11:07.000Z</time>
      </trkpt>
      <trkpt lat="43.12712" lon="-0.20752">
        <ele>320.39999389648</ele>
        <time>2025-08-11T09:11:15.000Z</time>
      </trkpt>
      <trkpt lat="43.12714" lon="-0.20752">
        <ele>320.60000610352</ele>
        <time>2025-08-11T09:11:20.000Z</time>
      </trkpt>
      <trkpt lat="43.12717" lon="-0.20759">
        <ele>321.20001220703</ele>
        <time>2025-08-11T09:12:02.000Z</time>
      </trkpt>
      <trkpt lat="43.1272" lon="-0.20764">
        <ele>321.20001220703</ele>
        <time>2025-08-11T09:12:04.000Z</time>
      </trkpt>
      <trkpt lat="43.12734" lon="-0.20774">
        <ele>321.39999389648</ele>
        <time>2025-08-11T09:12:09.000Z</time>
      </trkpt>
      <trkpt lat="43.1276" lon="-0.20789">
        <ele>321.60000610352</ele>
        <time>2025-08-11T09:12:17.000Z</time>
      </trkpt>
      <trkpt lat="43.12791" lon="-0.20812">
        <ele>321.39999389648</ele>
        <time>2025-08-11T09:12:26.000Z</time>
      </trkpt>
      <trkpt lat="43.12816" lon="-0.20827">
        <ele>321.20001220703</ele>
        <time>2025-08-11T09:12:32.000Z</time>
      </trkpt>
      <trkpt lat="43.12839" lon="-0.20845">
        <ele>321</ele>
        <time>2025-08-11T09:12:38.000Z</time>
      </trkpt>
      <trkpt lat="43.12843" lon="-0.20848">
        <ele>320.79998779297</ele>
        <time>2025-08-11T09:12:39.000Z</time>
      </trkpt>
      <trkpt lat="43.12869" lon="-0.20868">
        <ele>320.79998779297</ele>
        <time>2025-08-11T09:12:46.000Z</time>
      </trkpt>
      <trkpt lat="43.12899" lon="-0.20891">
        <ele>320.60000610352</ele>
        <time>2025-08-11T09:12:54.000Z</time>
      </trkpt>
      <trkpt lat="43.1291" lon="-0.20901">
        <ele>320.39999389648</ele>
        <time>2025-08-11T09:12:57.000Z</time>
      </trkpt>
      <trkpt lat="43.12918" lon="-0.20904">
        <ele>320.39999389648</ele>
        <time>2025-08-11T09:12:59.000Z</time>
      </trkpt>
      <trkpt lat="43.12953" lon="-0.20929">
        <ele>320</ele>
        <time>2025-08-11T09:13:08.000Z</time>
      </trkpt>
      <trkpt lat="43.12967" lon="-0.2094">
        <ele>320.20001220703</ele>
        <time>2025-08-11T09:13:12.000Z</time>
      </trkpt>
      <trkpt lat="43.12977" lon="-0.20949">
        <ele>320.20001220703</ele>
        <time>2025-08-11T09:13:15.000Z</time>
      </trkpt>
      <trkpt lat="43.12993" lon="-0.20965">
        <ele>320.20001220703</ele>
        <time>2025-08-11T09:13:20.000Z</time>
      </trkpt>
      <trkpt lat="43.13008" lon="-0.2098">
        <ele>320</ele>
        <time>2025-08-11T09:13:25.000Z</time>
      </trkpt>
      <trkpt lat="43.13011" lon="-0.20983">
        <ele>320</ele>
        <time>2025-08-11T09:13:26.000Z</time>
      </trkpt>
      <trkpt lat="43.13018" lon="-0.2099">
        <ele>319.79998779297</ele>
        <time>2025-08-11T09:13:29.000Z</time>
      </trkpt>
      <trkpt lat="43.13018" lon="-0.20992">
        <ele>319.79998779297</ele>
        <time>2025-08-11T09:13:30.000Z</time>
      </trkpt>
      <trkpt lat="43.1301" lon="-0.21006">
        <ele>319.60000610352</ele>
        <time>2025-08-11T09:13:35.000Z</time>
      </trkpt>
      <trkpt lat="43.12993" lon="-0.21038">
        <ele>319.20001220703</ele>
        <time>2025-08-11T09:13:44.000Z</time>
      </trkpt>
      <trkpt lat="43.12984" lon="-0.21056">
        <ele>319.39999389648</ele>
        <time>2025-08-11T09:13:49.000Z</time>
      </trkpt>
      <trkpt lat="43.12983" lon="-0.21068">
        <ele>319.60000610352</ele>
        <time>2025-08-11T09:13:52.000Z</time>
      </trkpt>
      <trkpt lat="43.12985" lon="-0.21072">
        <ele>319.79998779297</ele>
        <time>2025-08-11T09:13:53.000Z</time>
      </trkpt>
      <trkpt lat="43.13003" lon="-0.21096">
        <ele>319.79998779297</ele>
        <time>2025-08-11T09:14:00.000Z</time>
      </trkpt>
      <trkpt lat="43.13005" lon="-0.21098">
        <ele>319.79998779297</ele>
        <time>2025-08-11T09:14:01.000Z</time>
      </trkpt>
      <trkpt lat="43.13019" lon="-0.21111">
        <ele>319.60000610352</ele>
        <time>2025-08-11T09:14:06.000Z</time>
      </trkpt>
      <trkpt lat="43.13023" lon="-0.21115">
        <ele>319.39999389648</ele>
        <time>2025-08-11T09:14:10.000Z</time>
      </trkpt>
      <trkpt lat="43.13024" lon="-0.21116">
        <ele>319.39999389648</ele>
        <time>2025-08-11T09:14:11.000Z</time>
      </trkpt>
      <trkpt lat="43.13032" lon="-0.21122">
        <ele>319.20001220703</ele>
        <time>2025-08-11T09:14:15.000Z</time>
      </trkpt>
      <trkpt lat="43.13046" lon="-0.21136">
        <ele>319</ele>
        <time>2025-08-11T09:14:20.000Z</time>
      </trkpt>
      <trkpt lat="43.13051" lon="-0.21141">
        <ele>319</ele>
        <time>2025-08-11T09:14:21.000Z</time>
      </trkpt>
      <trkpt lat="43.13075" lon="-0.2117">
        <ele>317.60000610352</ele>
        <time>2025-08-11T09:14:27.000Z</time>
      </trkpt>
      <trkpt lat="43.13097" lon="-0.21196">
        <ele>316.60000610352</ele>
        <time>2025-08-11T09:14:32.000Z</time>
      </trkpt>
      <trkpt lat="43.13103" lon="-0.21205">
        <ele>316.39999389648</ele>
        <time>2025-08-11T09:14:34.000Z</time>
      </trkpt>
      <trkpt lat="43.13109" lon="-0.21214">
        <ele>316.20001220703</ele>
        <time>2025-08-11T09:14:36.000Z</time>
      </trkpt>
      <trkpt lat="43.13117" lon="-0.21232">
        <ele>315.79998779297</ele>
        <time>2025-08-11T09:14:40.000Z</time>
      </trkpt>
      <trkpt lat="43.1312" lon="-0.21245">
        <ele>315.60000610352</ele>
        <time>2025-08-11T09:14:42.000Z</time>
      </trkpt>
      <trkpt lat="43.13125" lon="-0.21279">
        <ele>315.20001220703</ele>
        <time>2025-08-11T09:14:47.000Z</time>
      </trkpt>
      <trkpt lat="43.13126" lon="-0.21297">
        <ele>314.79998779297</ele>
        <time>2025-08-11T09:14:50.000Z</time>
      </trkpt>
      <trkpt lat="43.13125" lon="-0.21322">
        <ele>314.60000610352</ele>
        <time>2025-08-11T09:14:54.000Z</time>
      </trkpt>
      <trkpt lat="43.13122" lon="-0.21365">
        <ele>314.39999389648</ele>
        <time>2025-08-11T09:15:01.000Z</time>
      </trkpt>
      <trkpt lat="43.13125" lon="-0.21416">
        <ele>313.79998779297</ele>
        <time>2025-08-11T09:15:09.000Z</time>
      </trkpt>
      <trkpt lat="43.13134" lon="-0.21469">
        <ele>313.79998779297</ele>
        <time>2025-08-11T09:15:18.000Z</time>
      </trkpt>
      <trkpt lat="43.13137" lon="-0.21481">
        <ele>314</ele>
        <time>2025-08-11T09:15:20.000Z</time>
      </trkpt>
      <trkpt lat="43.13145" lon="-0.21508">
        <ele>314</ele>
        <time>2025-08-11T09:15:25.000Z</time>
      </trkpt>
      <trkpt lat="43.13149" lon="-0.2154">
        <ele>313.79998779297</ele>
        <time>2025-08-11T09:15:29.000Z</time>
      </trkpt>
      <trkpt lat="43.13148" lon="-0.21548">
        <ele>313.60000610352</ele>
        <time>2025-08-11T09:15:30.000Z</time>
      </trkpt>
      <trkpt lat="43.13142" lon="-0.21583">
        <ele>312.79998779297</ele>
        <time>2025-08-11T09:15:35.000Z</time>
      </trkpt>
      <trkpt lat="43.13141" lon="-0.21589">
        <ele>312.79998779297</ele>
        <time>2025-08-11T09:15:36.000Z</time>
      </trkpt>
      <trkpt lat="43.1314" lon="-0.21596">
        <ele>312.60000610352</ele>
        <time>2025-08-11T09:15:37.000Z</time>
      </trkpt>
      <trkpt lat="43.13139" lon="-0.21609">
        <ele>312.60000610352</ele>
        <time>2025-08-11T09:15:39.000Z</time>
      </trkpt>
      <trkpt lat="43.13141" lon="-0.2162">
        <ele>312.60000610352</ele>
        <time>2025-08-11T09:15:41.000Z</time>
      </trkpt>
      <trkpt lat="43.13145" lon="-0.21644">
        <ele>312.39999389648</ele>
        <time>2025-08-11T09:15:46.000Z</time>
      </trkpt>
      <trkpt lat="43.13156" lon="-0.21679">
        <ele>312.79998779297</ele>
        <time>2025-08-11T09:15:53.000Z</time>
      </trkpt>
      <trkpt lat="43.13173" lon="-0.21719">
        <ele>313.39999389648</ele>
        <time>2025-08-11T09:16:02.000Z</time>
      </trkpt>
      <trkpt lat="43.13185" lon="-0.21747">
        <ele>313.79998779297</ele>
        <time>2025-08-11T09:16:09.000Z</time>
      </trkpt>
      <trkpt lat="43.13187" lon="-0.21751">
        <ele>313.79998779297</ele>
        <time>2025-08-11T09:16:10.000Z</time>
      </trkpt>
      <trkpt lat="43.13191" lon="-0.21772">
        <ele>314.39999389648</ele>
        <time>2025-08-11T09:16:16.000Z</time>
      </trkpt>
      <trkpt lat="43.13193" lon="-0.2179">
        <ele>315.20001220703</ele>
        <time>2025-08-11T09:16:21.000Z</time>
      </trkpt>
      <trkpt lat="43.13193" lon="-0.21802">
        <ele>315.79998779297</ele>
        <time>2025-08-11T09:16:24.000Z</time>
      </trkpt>
      <trkpt lat="43.13192" lon="-0.21836">
        <ele>316.20001220703</ele>
        <time>2025-08-11T09:16:33.000Z</time>
      </trkpt>
      <trkpt lat="43.13194" lon="-0.2185">
        <ele>316.60000610352</ele>
        <time>2025-08-11T09:16:37.000Z</time>
      </trkpt>
      <trkpt lat="43.132" lon="-0.21868">
        <ele>317.20001220703</ele>
        <time>2025-08-11T09:16:42.000Z</time>
      </trkpt>
      <trkpt lat="43.13201" lon="-0.2187">
        <ele>317.60000610352</ele>
        <time>2025-08-11T09:16:43.000Z</time>
      </trkpt>
      <trkpt lat="43.1321" lon="-0.21886">
        <ele>317.79998779297</ele>
        <time>2025-08-11T09:16:47.000Z</time>
      </trkpt>
      <trkpt lat="43.13228" lon="-0.21906">
        <ele>318</ele>
        <time>2025-08-11T09:16:53.000Z</time>
      </trkpt>
      <trkpt lat="43.13251" lon="-0.21933">
        <ele>318</ele>
        <time>2025-08-11T09:17:01.000Z</time>
      </trkpt>
      <trkpt lat="43.13275" lon="-0.21966">
        <ele>317.60000610352</ele>
        <time>2025-08-11T09:17:10.000Z</time>
      </trkpt>
      <trkpt lat="43.13295" lon="-0.21981">
        <ele>317.60000610352</ele>
        <time>2025-08-11T09:17:16.000Z</time>
      </trkpt>
      <trkpt lat="43.13321" lon="-0.21987">
        <ele>318</ele>
        <time>2025-08-11T09:17:24.000Z</time>
      </trkpt>
      <trkpt lat="43.13352" lon="-0.21997">
        <ele>318.39999389648</ele>
        <time>2025-08-11T09:17:33.000Z</time>
      </trkpt>
      <trkpt lat="43.1338" lon="-0.22009">
        <ele>318.39999389648</ele>
        <time>2025-08-11T09:17:40.000Z</time>
      </trkpt>
      <trkpt lat="43.13408" lon="-0.22021">
        <ele>318.20001220703</ele>
        <time>2025-08-11T09:17:48.000Z</time>
      </trkpt>
      <trkpt lat="43.13435" lon="-0.22035">
        <ele>318.20001220703</ele>
        <time>2025-08-11T09:17:56.000Z</time>
      </trkpt>
      <trkpt lat="43.13449" lon="-0.22052">
        <ele>318.20001220703</ele>
        <time>2025-08-11T09:18:00.000Z</time>
      </trkpt>
      <trkpt lat="43.13453" lon="-0.22055">
        <ele>318</ele>
        <time>2025-08-11T09:18:01.000Z</time>
      </trkpt>
      <trkpt lat="43.13457" lon="-0.22058">
        <ele>318</ele>
        <time>2025-08-11T09:18:02.000Z</time>
      </trkpt>
      <trkpt lat="43.13469" lon="-0.22065">
        <ele>317.60000610352</ele>
        <time>2025-08-11T09:18:05.000Z</time>
      </trkpt>
      <trkpt lat="43.13473" lon="-0.22066">
        <ele>317.60000610352</ele>
        <time>2025-08-11T09:18:06.000Z</time>
      </trkpt>
      <trkpt lat="43.13476" lon="-0.22067">
        <ele>317.39999389648</ele>
        <time>2025-08-11T09:18:07.000Z</time>
      </trkpt>
      <trkpt lat="43.1349" lon="-0.22072">
        <ele>317.20001220703</ele>
        <time>2025-08-11T09:18:11.000Z</time>
      </trkpt>
      <trkpt lat="43.13524" lon="-0.22081">
        <ele>317.79998779297</ele>
        <time>2025-08-11T09:18:20.000Z</time>
      </trkpt>
      <trkpt lat="43.13541" lon="-0.22089">
        <ele>317.79998779297</ele>
        <time>2025-08-11T09:18:25.000Z</time>
      </trkpt>
      <trkpt lat="43.13569" lon="-0.22103">
        <ele>317.60000610352</ele>
        <time>2025-08-11T09:18:32.000Z</time>
      </trkpt>
      <trkpt lat="43.13603" lon="-0.22127">
        <ele>317</ele>
        <time>2025-08-11T09:18:39.000Z</time>
      </trkpt>
      <trkpt lat="43.13607" lon="-0.2213">
        <ele>316.79998779297</ele>
        <time>2025-08-11T09:18:40.000Z</time>
      </trkpt>
      <trkpt lat="43.13629" lon="-0.22149">
        <ele>316.20001220703</ele>
        <time>2025-08-11T09:18:46.000Z</time>
      </trkpt>
      <trkpt lat="43.13633" lon="-0.22151">
        <ele>316</ele>
        <time>2025-08-11T09:18:47.000Z</time>
      </trkpt>
      <trkpt lat="43.13652" lon="-0.22164">
        <ele>315.79998779297</ele>
        <time>2025-08-11T09:18:52.000Z</time>
      </trkpt>
      <trkpt lat="43.13679" lon="-0.22183">
        <ele>316</ele>
        <time>2025-08-11T09:19:00.000Z</time>
      </trkpt>
      <trkpt lat="43.13699" lon="-0.22198">
        <ele>316</ele>
        <time>2025-08-11T09:19:07.000Z</time>
      </trkpt>
      <trkpt lat="43.13706" lon="-0.22205">
        <ele>316</ele>
        <time>2025-08-11T09:19:09.000Z</time>
      </trkpt>
      <trkpt lat="43.13717" lon="-0.22217">
        <ele>315.79998779297</ele>
        <time>2025-08-11T09:19:12.000Z</time>
      </trkpt>
      <trkpt lat="43.13728" lon="-0.22229">
        <ele>315.79998779297</ele>
        <time>2025-08-11T09:19:15.000Z</time>
      </trkpt>
      <trkpt lat="43.13746" lon="-0.22244">
        <ele>315.60000610352</ele>
        <time>2025-08-11T09:19:20.000Z</time>
      </trkpt>
      <trkpt lat="43.1377" lon="-0.22264">
        <ele>315.39999389648</ele>
        <time>2025-08-11T09:19:27.000Z</time>
      </trkpt>
      <trkpt lat="43.13807" lon="-0.22292">
        <ele>315</ele>
        <time>2025-08-11T09:19:37.000Z</time>
      </trkpt>
      <trkpt lat="43.1384" lon="-0.22318">
        <ele>315</ele>
        <time>2025-08-11T09:19:46.000Z</time>
      </trkpt>
      <trkpt lat="43.13867" lon="-0.22341">
        <ele>315.20001220703</ele>
        <time>2025-08-11T09:19:54.000Z</time>
      </trkpt>
      <trkpt lat="43.13875" lon="-0.22347">
        <ele>315.20001220703</ele>
        <time>2025-08-11T09:19:56.000Z</time>
      </trkpt>
      <trkpt lat="43.13898" lon="-0.2237">
        <ele>315</ele>
        <time>2025-08-11T09:20:03.000Z</time>
      </trkpt>
      <trkpt lat="43.13905" lon="-0.22377">
        <ele>315</ele>
        <time>2025-08-11T09:20:05.000Z</time>
      </trkpt>
      <trkpt lat="43.13912" lon="-0.22381">
        <ele>314.79998779297</ele>
        <time>2025-08-11T09:20:07.000Z</time>
      </trkpt>
      <trkpt lat="43.13929" lon="-0.22391">
        <ele>315</ele>
        <time>2025-08-11T09:20:11.000Z</time>
      </trkpt>
      <trkpt lat="43.13938" lon="-0.22394">
        <ele>315</ele>
        <time>2025-08-11T09:20:13.000Z</time>
      </trkpt>
      <trkpt lat="43.1395" lon="-0.22399">
        <ele>315</ele>
        <time>2025-08-11T09:20:16.000Z</time>
      </trkpt>
      <trkpt lat="43.13963" lon="-0.22403">
        <ele>314.79998779297</ele>
        <time>2025-08-11T09:20:19.000Z</time>
      </trkpt>
      <trkpt lat="43.14004" lon="-0.22416">
        <ele>314.39999389648</ele>
        <time>2025-08-11T09:20:28.000Z</time>
      </trkpt>
      <trkpt lat="43.14017" lon="-0.2242">
        <ele>314.20001220703</ele>
        <time>2025-08-11T09:20:31.000Z</time>
      </trkpt>
      <trkpt lat="43.14036" lon="-0.22428">
        <ele>314.20001220703</ele>
        <time>2025-08-11T09:20:35.000Z</time>
      </trkpt>
      <trkpt lat="43.14079" lon="-0.22443">
        <ele>314.20001220703</ele>
        <time>2025-08-11T09:20:45.000Z</time>
      </trkpt>
      <trkpt lat="43.14101" lon="-0.22453">
        <ele>314</ele>
        <time>2025-08-11T09:20:50.000Z</time>
      </trkpt>
      <trkpt lat="43.1411" lon="-0.22457">
        <ele>314</ele>
        <time>2025-08-11T09:20:52.000Z</time>
      </trkpt>
      <trkpt lat="43.14114" lon="-0.22459">
        <ele>314</ele>
        <time>2025-08-11T09:20:53.000Z</time>
      </trkpt>
      <trkpt lat="43.14154" lon="-0.22476">
        <ele>313.79998779297</ele>
        <time>2025-08-11T09:21:02.000Z</time>
      </trkpt>
      <trkpt lat="43.14158" lon="-0.22478">
        <ele>313.79998779297</ele>
        <time>2025-08-11T09:21:03.000Z</time>
      </trkpt>
      <trkpt lat="43.14176" lon="-0.22486">
        <ele>313.39999389648</ele>
        <time>2025-08-11T09:21:07.000Z</time>
      </trkpt>
      <trkpt lat="43.14214" lon="-0.22503">
        <ele>313.39999389648</ele>
        <time>2025-08-11T09:21:16.000Z</time>
      </trkpt>
      <trkpt lat="43.14238" lon="-0.22513">
        <ele>313.39999389648</ele>
        <time>2025-08-11T09:21:22.000Z</time>
      </trkpt>
      <trkpt lat="43.1425" lon="-0.2252">
        <ele>313.39999389648</ele>
        <time>2025-08-11T09:21:25.000Z</time>
      </trkpt>
      <trkpt lat="43.14269" lon="-0.2253">
        <ele>313.20001220703</ele>
        <time>2025-08-11T09:21:30.000Z</time>
      </trkpt>
      <trkpt lat="43.14277" lon="-0.22533">
        <ele>313.20001220703</ele>
        <time>2025-08-11T09:21:32.000Z</time>
      </trkpt>
      <trkpt lat="43.14313" lon="-0.22549">
        <ele>313.20001220703</ele>
        <time>2025-08-11T09:21:40.000Z</time>
      </trkpt>
      <trkpt lat="43.14327" lon="-0.22555">
        <ele>313.20001220703</ele>
        <time>2025-08-11T09:21:43.000Z</time>
      </trkpt>
      <trkpt lat="43.1434" lon="-0.22561">
        <ele>313</ele>
        <time>2025-08-11T09:21:46.000Z</time>
      </trkpt>
      <trkpt lat="43.14377" lon="-0.22578">
        <ele>312.39999389648</ele>
        <time>2025-08-11T09:21:55.000Z</time>
      </trkpt>
      <trkpt lat="43.14386" lon="-0.22582">
        <ele>312.20001220703</ele>
        <time>2025-08-11T09:21:57.000Z</time>
      </trkpt>
      <trkpt lat="43.14414" lon="-0.22597">
        <ele>311.79998779297</ele>
        <time>2025-08-11T09:22:04.000Z</time>
      </trkpt>
      <trkpt lat="43.14442" lon="-0.22611">
        <ele>311.60000610352</ele>
        <time>2025-08-11T09:22:11.000Z</time>
      </trkpt>
      <trkpt lat="43.14465" lon="-0.22625">
        <ele>311.79998779297</ele>
        <time>2025-08-11T09:22:18.000Z</time>
      </trkpt>
      <trkpt lat="43.14495" lon="-0.22639">
        <ele>311.60000610352</ele>
        <time>2025-08-11T09:22:25.000Z</time>
      </trkpt>
      <trkpt lat="43.14505" lon="-0.2265">
        <ele>311.60000610352</ele>
        <time>2025-08-11T09:22:28.000Z</time>
      </trkpt>
      <trkpt lat="43.1451" lon="-0.22659">
        <ele>311.39999389648</ele>
        <time>2025-08-11T09:22:30.000Z</time>
      </trkpt>
      <trkpt lat="43.14529" lon="-0.22699">
        <ele>311.60000610352</ele>
        <time>2025-08-11T09:22:38.000Z</time>
      </trkpt>
      <trkpt lat="43.1453" lon="-0.22705">
        <ele>311.60000610352</ele>
        <time>2025-08-11T09:22:39.000Z</time>
      </trkpt>
      <trkpt lat="43.14539" lon="-0.2274">
        <ele>311.60000610352</ele>
        <time>2025-08-11T09:22:46.000Z</time>
      </trkpt>
      <trkpt lat="43.1456" lon="-0.22792">
        <ele>311.60000610352</ele>
        <time>2025-08-11T09:22:56.000Z</time>
      </trkpt>
      <trkpt lat="43.14562" lon="-0.22796">
        <ele>311.60000610352</ele>
        <time>2025-08-11T09:22:57.000Z</time>
      </trkpt>
      <trkpt lat="43.14568" lon="-0.22807">
        <ele>311.39999389648</ele>
        <time>2025-08-11T09:22:59.000Z</time>
      </trkpt>
      <trkpt lat="43.14574" lon="-0.22818">
        <ele>311.39999389648</ele>
        <time>2025-08-11T09:23:01.000Z</time>
      </trkpt>
      <trkpt lat="43.14576" lon="-0.22824">
        <ele>311.39999389648</ele>
        <time>2025-08-11T09:23:02.000Z</time>
      </trkpt>
      <trkpt lat="43.14594" lon="-0.22853">
        <ele>311</ele>
        <time>2025-08-11T09:23:08.000Z</time>
      </trkpt>
      <trkpt lat="43.14604" lon="-0.22869">
        <ele>310.79998779297</ele>
        <time>2025-08-11T09:23:11.000Z</time>
      </trkpt>
      <trkpt lat="43.14616" lon="-0.22887">
        <ele>310.60000610352</ele>
        <time>2025-08-11T09:23:15.000Z</time>
      </trkpt>
      <trkpt lat="43.14627" lon="-0.22906">
        <ele>310.39999389648</ele>
        <time>2025-08-11T09:23:19.000Z</time>
      </trkpt>
      <trkpt lat="43.1463" lon="-0.2291">
        <ele>310.39999389648</ele>
        <time>2025-08-11T09:23:20.000Z</time>
      </trkpt>
      <trkpt lat="43.14632" lon="-0.22914">
        <ele>310.20001220703</ele>
        <time>2025-08-11T09:23:21.000Z</time>
      </trkpt>
      <trkpt lat="43.14644" lon="-0.22931">
        <ele>309.79998779297</ele>
        <time>2025-08-11T09:23:25.000Z</time>
      </trkpt>
      <trkpt lat="43.14655" lon="-0.22947">
        <ele>309.60000610352</ele>
        <time>2025-08-11T09:23:29.000Z</time>
      </trkpt>
      <trkpt lat="43.14666" lon="-0.22967">
        <ele>309.20001220703</ele>
        <time>2025-08-11T09:23:34.000Z</time>
      </trkpt>
      <trkpt lat="43.14669" lon="-0.22977">
        <ele>309.20001220703</ele>
        <time>2025-08-11T09:23:36.000Z</time>
      </trkpt>
      <trkpt lat="43.14685" lon="-0.23004">
        <ele>309</ele>
        <time>2025-08-11T09:23:42.000Z</time>
      </trkpt>
      <trkpt lat="43.1471" lon="-0.2303">
        <ele>308.39999389648</ele>
        <time>2025-08-11T09:23:50.000Z</time>
      </trkpt>
      <trkpt lat="43.14713" lon="-0.23034">
        <ele>308.39999389648</ele>
        <time>2025-08-11T09:23:51.000Z</time>
      </trkpt>
      <trkpt lat="43.14716" lon="-0.23038">
        <ele>308.39999389648</ele>
        <time>2025-08-11T09:23:52.000Z</time>
      </trkpt>
      <trkpt lat="43.14723" lon="-0.23058">
        <ele>308.39999389648</ele>
        <time>2025-08-11T09:23:56.000Z</time>
      </trkpt>
      <trkpt lat="43.14731" lon="-0.23081">
        <ele>308.39999389648</ele>
        <time>2025-08-11T09:24:01.000Z</time>
      </trkpt>
      <trkpt lat="43.14741" lon="-0.23107">
        <ele>308.39999389648</ele>
        <time>2025-08-11T09:24:06.000Z</time>
      </trkpt>
      <trkpt lat="43.14746" lon="-0.23116">
        <ele>308.20001220703</ele>
        <time>2025-08-11T09:24:08.000Z</time>
      </trkpt>
      <trkpt lat="43.14758" lon="-0.23139">
        <ele>308</ele>
        <time>2025-08-11T09:24:14.000Z</time>
      </trkpt>
      <trkpt lat="43.14768" lon="-0.23175">
        <ele>307.79998779297</ele>
        <time>2025-08-11T09:24:22.000Z</time>
      </trkpt>
      <trkpt lat="43.1477" lon="-0.2318">
        <ele>307.79998779297</ele>
        <time>2025-08-11T09:24:25.000Z</time>
      </trkpt>
      <trkpt lat="43.1477" lon="-0.2318">
        <ele>307.79998779297</ele>
        <time>2025-08-11T09:24:26.000Z</time>
      </trkpt>
      <trkpt lat="43.1477" lon="-0.2318">
        <ele>307.60000610352</ele>
        <time>2025-08-11T09:24:28.000Z</time>
      </trkpt>
      <trkpt lat="43.14771" lon="-0.23191">
        <ele>307.60000610352</ele>
        <time>2025-08-11T09:27:17.000Z</time>
      </trkpt>
      <trkpt lat="43.14771" lon="-0.23194">
        <ele>307.60000610352</ele>
        <time>2025-08-11T09:27:18.000Z</time>
      </trkpt>
      <trkpt lat="43.14775" lon="-0.23211">
        <ele>307.60000610352</ele>
        <time>2025-08-11T09:27:22.000Z</time>
      </trkpt>
      <trkpt lat="43.14784" lon="-0.23241">
        <ele>307.20001220703</ele>
        <time>2025-08-11T09:27:28.000Z</time>
      </trkpt>
      <trkpt lat="43.14794" lon="-0.23281">
        <ele>307</ele>
        <time>2025-08-11T09:27:35.000Z</time>
      </trkpt>
      <trkpt lat="43.14799" lon="-0.23327">
        <ele>307</ele>
        <time>2025-08-11T09:27:43.000Z</time>
      </trkpt>
      <trkpt lat="43.14805" lon="-0.23373">
        <ele>306.79998779297</ele>
        <time>2025-08-11T09:27:51.000Z</time>
      </trkpt>
      <trkpt lat="43.14806" lon="-0.23379">
        <ele>306.79998779297</ele>
        <time>2025-08-11T09:27:52.000Z</time>
      </trkpt>
      <trkpt lat="43.14813" lon="-0.23434">
        <ele>306.39999389648</ele>
        <time>2025-08-11T09:28:01.000Z</time>
      </trkpt>
      <trkpt lat="43.1481" lon="-0.2346">
        <ele>306.20001220703</ele>
        <time>2025-08-11T09:28:05.000Z</time>
      </trkpt>
      <trkpt lat="43.14809" lon="-0.23466">
        <ele>306.20001220703</ele>
        <time>2025-08-11T09:28:06.000Z</time>
      </trkpt>
      <trkpt lat="43.14802" lon="-0.23518">
        <ele>305.79998779297</ele>
        <time>2025-08-11T09:28:15.000Z</time>
      </trkpt>
      <trkpt lat="43.148" lon="-0.23528">
        <ele>306</ele>
        <time>2025-08-11T09:28:17.000Z</time>
      </trkpt>
      <trkpt lat="43.14799" lon="-0.2355">
        <ele>306</ele>
        <time>2025-08-11T09:28:21.000Z</time>
      </trkpt>
      <trkpt lat="43.14797" lon="-0.23586">
        <ele>306</ele>
        <time>2025-08-11T09:28:28.000Z</time>
      </trkpt>
      <trkpt lat="43.14795" lon="-0.23622">
        <ele>305.79998779297</ele>
        <time>2025-08-11T09:28:34.000Z</time>
      </trkpt>
      <trkpt lat="43.14796" lon="-0.23644">
        <ele>305.79998779297</ele>
        <time>2025-08-11T09:28:37.000Z</time>
      </trkpt>
      <trkpt lat="43.14798" lon="-0.23668">
        <ele>305.60000610352</ele>
        <time>2025-08-11T09:28:41.000Z</time>
      </trkpt>
      <trkpt lat="43.14803" lon="-0.23678">
        <ele>305.39999389648</ele>
        <time>2025-08-11T09:28:43.000Z</time>
      </trkpt>
      <trkpt lat="43.14809" lon="-0.2368">
        <ele>305.39999389648</ele>
        <time>2025-08-11T09:28:44.000Z</time>
      </trkpt>
      <trkpt lat="43.14815" lon="-0.2368">
        <ele>305.39999389648</ele>
        <time>2025-08-11T09:28:45.000Z</time>
      </trkpt>
      <trkpt lat="43.14832" lon="-0.23677">
        <ele>305.20001220703</ele>
        <time>2025-08-11T09:28:48.000Z</time>
      </trkpt>
      <trkpt lat="43.14851" lon="-0.23669">
        <ele>304.60000610352</ele>
        <time>2025-08-11T09:28:52.000Z</time>
      </trkpt>
      <trkpt lat="43.14865" lon="-0.23664">
        <ele>304.39999389648</ele>
        <time>2025-08-11T09:28:55.000Z</time>
      </trkpt>
      <trkpt lat="43.14899" lon="-0.23648">
        <ele>303.79998779297</ele>
        <time>2025-08-11T09:29:03.000Z</time>
      </trkpt>
      <trkpt lat="43.14904" lon="-0.23646">
        <ele>303.79998779297</ele>
        <time>2025-08-11T09:29:04.000Z</time>
      </trkpt>
      <trkpt lat="43.14908" lon="-0.23644">
        <ele>303.60000610352</ele>
        <time>2025-08-11T09:29:05.000Z</time>
      </trkpt>
      <trkpt lat="43.14925" lon="-0.23635">
        <ele>303.20001220703</ele>
        <time>2025-08-11T09:29:09.000Z</time>
      </trkpt>
      <trkpt lat="43.14929" lon="-0.23634">
        <ele>303</ele>
        <time>2025-08-11T09:29:10.000Z</time>
      </trkpt>
      <trkpt lat="43.14937" lon="-0.23631">
        <ele>302.79998779297</ele>
        <time>2025-08-11T09:29:12.000Z</time>
      </trkpt>
      <trkpt lat="43.14955" lon="-0.23619">
        <ele>302.60000610352</ele>
        <time>2025-08-11T09:29:17.000Z</time>
      </trkpt>
      <trkpt lat="43.14994" lon="-0.23596">
        <ele>302.20001220703</ele>
        <time>2025-08-11T09:29:25.000Z</time>
      </trkpt>
      <trkpt lat="43.15042" lon="-0.23566">
        <ele>302</ele>
        <time>2025-08-11T09:29:36.000Z</time>
      </trkpt>
      <trkpt lat="43.15077" lon="-0.23546">
        <ele>301.79998779297</ele>
        <time>2025-08-11T09:29:44.000Z</time>
      </trkpt>
      <trkpt lat="43.15081" lon="-0.23543">
        <ele>301.79998779297</ele>
        <time>2025-08-11T09:29:45.000Z</time>
      </trkpt>
      <trkpt lat="43.15118" lon="-0.23518">
        <ele>301.60000610352</ele>
        <time>2025-08-11T09:29:53.000Z</time>
      </trkpt>
      <trkpt lat="43.15122" lon="-0.23515">
        <ele>301.39999389648</ele>
        <time>2025-08-11T09:29:54.000Z</time>
      </trkpt>
      <trkpt lat="43.15162" lon="-0.23492">
        <ele>301.20001220703</ele>
        <time>2025-08-11T09:30:03.000Z</time>
      </trkpt>
      <trkpt lat="43.15186" lon="-0.23482">
        <ele>301.39999389648</ele>
        <time>2025-08-11T09:30:09.000Z</time>
      </trkpt>
      <trkpt lat="43.15223" lon="-0.23467">
        <ele>301.60000610352</ele>
        <time>2025-08-11T09:30:17.000Z</time>
      </trkpt>
      <trkpt lat="43.15254" lon="-0.23455">
        <ele>301.39999389648</ele>
        <time>2025-08-11T09:30:23.000Z</time>
      </trkpt>
      <trkpt lat="43.15269" lon="-0.23448">
        <ele>301.20001220703</ele>
        <time>2025-08-11T09:30:26.000Z</time>
      </trkpt>
      <trkpt lat="43.15298" lon="-0.23436">
        <ele>301.39999389648</ele>
        <time>2025-08-11T09:30:32.000Z</time>
      </trkpt>
      <trkpt lat="43.15326" lon="-0.23421">
        <ele>301.60000610352</ele>
        <time>2025-08-11T09:30:39.000Z</time>
      </trkpt>
      <trkpt lat="43.15343" lon="-0.23408">
        <ele>301.60000610352</ele>
        <time>2025-08-11T09:30:45.000Z</time>
      </trkpt>
      <trkpt lat="43.15363" lon="-0.23391">
        <ele>301.79998779297</ele>
        <time>2025-08-11T09:30:52.000Z</time>
      </trkpt>
      <trkpt lat="43.15395" lon="-0.23369">
        <ele>301.79998779297</ele>
        <time>2025-08-11T09:31:01.000Z</time>
      </trkpt>
      <trkpt lat="43.15427" lon="-0.23358">
        <ele>301.39999389648</ele>
        <time>2025-08-11T09:31:09.000Z</time>
      </trkpt>
      <trkpt lat="43.15446" lon="-0.23345">
        <ele>301.20001220703</ele>
        <time>2025-08-11T09:31:15.000Z</time>
      </trkpt>
      <trkpt lat="43.15459" lon="-0.23332">
        <ele>301.60000610352</ele>
        <time>2025-08-11T09:31:20.000Z</time>
      </trkpt>
      <trkpt lat="43.15479" lon="-0.23307">
        <ele>302</ele>
        <time>2025-08-11T09:31:27.000Z</time>
      </trkpt>
      <trkpt lat="43.15506" lon="-0.23276">
        <ele>301.79998779297</ele>
        <time>2025-08-11T09:31:36.000Z</time>
      </trkpt>
      <trkpt lat="43.15521" lon="-0.2327">
        <ele>301.60000610352</ele>
        <time>2025-08-11T09:31:41.000Z</time>
      </trkpt>
      <trkpt lat="43.15529" lon="-0.23266">
        <ele>301.39999389648</ele>
        <time>2025-08-11T09:31:43.000Z</time>
      </trkpt>
      <trkpt lat="43.15538" lon="-0.23259">
        <ele>300.79998779297</ele>
        <time>2025-08-11T09:31:45.000Z</time>
      </trkpt>
      <trkpt lat="43.15545" lon="-0.23254">
        <ele>300.39999389648</ele>
        <time>2025-08-11T09:31:47.000Z</time>
      </trkpt>
      <trkpt lat="43.15553" lon="-0.23251">
        <ele>299.60000610352</ele>
        <time>2025-08-11T09:31:49.000Z</time>
      </trkpt>
      <trkpt lat="43.15556" lon="-0.23252">
        <ele>299.20001220703</ele>
        <time>2025-08-11T09:31:50.000Z</time>
      </trkpt>
      <trkpt lat="43.15562" lon="-0.23259">
        <ele>298.39999389648</ele>
        <time>2025-08-11T09:31:52.000Z</time>
      </trkpt>
      <trkpt lat="43.1557" lon="-0.23283">
        <ele>297.39999389648</ele>
        <time>2025-08-11T09:31:56.000Z</time>
      </trkpt>
      <trkpt lat="43.15572" lon="-0.23289">
        <ele>297</ele>
        <time>2025-08-11T09:31:57.000Z</time>
      </trkpt>
      <trkpt lat="43.15578" lon="-0.23306">
        <ele>296</ele>
        <time>2025-08-11T09:32:00.000Z</time>
      </trkpt>
      <trkpt lat="43.15582" lon="-0.23317">
        <ele>295.60000610352</ele>
        <time>2025-08-11T09:32:02.000Z</time>
      </trkpt>
      <trkpt lat="43.15583" lon="-0.23322">
        <ele>295.60000610352</ele>
        <time>2025-08-11T09:32:03.000Z</time>
      </trkpt>
      <trkpt lat="43.15588" lon="-0.23337">
        <ele>295.39999389648</ele>
        <time>2025-08-11T09:32:06.000Z</time>
      </trkpt>
      <trkpt lat="43.15594" lon="-0.23357">
        <ele>295.20001220703</ele>
        <time>2025-08-11T09:32:10.000Z</time>
      </trkpt>
      <trkpt lat="43.156" lon="-0.23389">
        <ele>294.79998779297</ele>
        <time>2025-08-11T09:32:16.000Z</time>
      </trkpt>
      <trkpt lat="43.15602" lon="-0.23399">
        <ele>294.79998779297</ele>
        <time>2025-08-11T09:32:18.000Z</time>
      </trkpt>
      <trkpt lat="43.15609" lon="-0.2343">
        <ele>294.39999389648</ele>
        <time>2025-08-11T09:32:25.000Z</time>
      </trkpt>
      <trkpt lat="43.15619" lon="-0.23438">
        <ele>294</ele>
        <time>2025-08-11T09:32:29.000Z</time>
      </trkpt>
      <trkpt lat="43.15617" lon="-0.23439">
        <ele>294</ele>
        <time>2025-08-11T09:32:31.000Z</time>
      </trkpt>
      <trkpt lat="43.15616" lon="-0.23438">
        <ele>293.79998779297</ele>
        <time>2025-08-11T09:32:32.000Z</time>
      </trkpt>
      <trkpt lat="43.15603" lon="-0.23433">
        <ele>293.20001220703</ele>
        <time>2025-08-11T09:32:38.000Z</time>
      </trkpt>
      <trkpt lat="43.15591" lon="-0.23433">
        <ele>292.79998779297</ele>
        <time>2025-08-11T09:32:42.000Z</time>
      </trkpt>
      <trkpt lat="43.15585" lon="-0.23436">
        <ele>292.79998779297</ele>
        <time>2025-08-11T09:32:44.000Z</time>
      </trkpt>
      <trkpt lat="43.15575" lon="-0.23446">
        <ele>292.79998779297</ele>
        <time>2025-08-11T09:32:48.000Z</time>
      </trkpt>
      <trkpt lat="43.15574" lon="-0.2345">
        <ele>292.79998779297</ele>
        <time>2025-08-11T09:32:49.000Z</time>
      </trkpt>
      <trkpt lat="43.15577" lon="-0.23471">
        <ele>292.79998779297</ele>
        <time>2025-08-11T09:32:54.000Z</time>
      </trkpt>
      <trkpt lat="43.1558" lon="-0.23478">
        <ele>293</ele>
        <time>2025-08-11T09:32:56.000Z</time>
      </trkpt>
      <trkpt lat="43.15583" lon="-0.2348">
        <ele>293</ele>
        <time>2025-08-11T09:32:57.000Z</time>
      </trkpt>
      <trkpt lat="43.15608" lon="-0.23494">
        <ele>293.20001220703</ele>
        <time>2025-08-11T09:33:04.000Z</time>
      </trkpt>
      <trkpt lat="43.15627" lon="-0.23513">
        <ele>293.20001220703</ele>
        <time>2025-08-11T09:33:11.000Z</time>
      </trkpt>
      <trkpt lat="43.15648" lon="-0.23534">
        <ele>293.20001220703</ele>
        <time>2025-08-11T09:33:18.000Z</time>
      </trkpt>
      <trkpt lat="43.15673" lon="-0.23557">
        <ele>293</ele>
        <time>2025-08-11T09:33:26.000Z</time>
      </trkpt>
      <trkpt lat="43.157" lon="-0.23577">
        <ele>292.39999389648</ele>
        <time>2025-08-11T09:33:34.000Z</time>
      </trkpt>
      <trkpt lat="43.1573" lon="-0.23592">
        <ele>292.39999389648</ele>
        <time>2025-08-11T09:33:43.000Z</time>
      </trkpt>
      <trkpt lat="43.15748" lon="-0.23595">
        <ele>292</ele>
        <time>2025-08-11T09:33:48.000Z</time>
      </trkpt>
      <trkpt lat="43.1576" lon="-0.23597">
        <ele>291.79998779297</ele>
        <time>2025-08-11T09:33:52.000Z</time>
      </trkpt>
      <trkpt lat="43.15779" lon="-0.23597">
        <ele>291.39999389648</ele>
        <time>2025-08-11T09:33:57.000Z</time>
      </trkpt>
      <trkpt lat="43.15797" lon="-0.23597">
        <ele>291</ele>
        <time>2025-08-11T09:34:02.000Z</time>
      </trkpt>
      <trkpt lat="43.15803" lon="-0.23598">
        <ele>290.79998779297</ele>
        <time>2025-08-11T09:34:04.000Z</time>
      </trkpt>
      <trkpt lat="43.15837" lon="-0.23609">
        <ele>290.60000610352</ele>
        <time>2025-08-11T09:34:13.000Z</time>
      </trkpt>
      <trkpt lat="43.15874" lon="-0.2362">
        <ele>290.39999389648</ele>
        <time>2025-08-11T09:34:23.000Z</time>
      </trkpt>
      <trkpt lat="43.15907" lon="-0.23626">
        <ele>290.39999389648</ele>
        <time>2025-08-11T09:34:31.000Z</time>
      </trkpt>
      <trkpt lat="43.15942" lon="-0.23634">
        <ele>290.20001220703</ele>
        <time>2025-08-11T09:34:39.000Z</time>
      </trkpt>
      <trkpt lat="43.15971" lon="-0.23639">
        <ele>289.79998779297</ele>
        <time>2025-08-11T09:34:45.000Z</time>
      </trkpt>
      <trkpt lat="43.1598" lon="-0.23641">
        <ele>289.60000610352</ele>
        <time>2025-08-11T09:34:47.000Z</time>
      </trkpt>
      <trkpt lat="43.15992" lon="-0.23646">
        <ele>289.39999389648</ele>
        <time>2025-08-11T09:34:50.000Z</time>
      </trkpt>
      <trkpt lat="43.16005" lon="-0.23651">
        <ele>289.20001220703</ele>
        <time>2025-08-11T09:34:53.000Z</time>
      </trkpt>
      <trkpt lat="43.16028" lon="-0.23659">
        <ele>289.20001220703</ele>
        <time>2025-08-11T09:35:00.000Z</time>
      </trkpt>
      <trkpt lat="43.16031" lon="-0.23663">
        <ele>289.20001220703</ele>
        <time>2025-08-11T09:35:02.000Z</time>
      </trkpt>
      <trkpt lat="43.1603" lon="-0.2367">
        <ele>289.20001220703</ele>
        <time>2025-08-11T09:35:04.000Z</time>
      </trkpt>
      <trkpt lat="43.16022" lon="-0.23703">
        <ele>289</ele>
        <time>2025-08-11T09:35:12.000Z</time>
      </trkpt>
      <trkpt lat="43.16019" lon="-0.23725">
        <ele>288.79998779297</ele>
        <time>2025-08-11T09:35:18.000Z</time>
      </trkpt>
      <trkpt lat="43.16015" lon="-0.23754">
        <ele>288.60000610352</ele>
        <time>2025-08-11T09:35:24.000Z</time>
      </trkpt>
      <trkpt lat="43.16011" lon="-0.23782">
        <ele>288</ele>
        <time>2025-08-11T09:35:29.000Z</time>
      </trkpt>
      <trkpt lat="43.16009" lon="-0.23798">
        <ele>287.79998779297</ele>
        <time>2025-08-11T09:35:32.000Z</time>
      </trkpt>
      <trkpt lat="43.16001" lon="-0.23843">
        <ele>287.79998779297</ele>
        <time>2025-08-11T09:35:41.000Z</time>
      </trkpt>
      <trkpt lat="43.15992" lon="-0.23863">
        <ele>288.60000610352</ele>
        <time>2025-08-11T09:35:48.000Z</time>
      </trkpt>
      <trkpt lat="43.15987" lon="-0.23878">
        <ele>289</ele>
        <time>2025-08-11T09:35:53.000Z</time>
      </trkpt>
      <trkpt lat="43.15985" lon="-0.23883">
        <ele>289.20001220703</ele>
        <time>2025-08-11T09:35:55.000Z</time>
      </trkpt>
      <trkpt lat="43.15979" lon="-0.23909">
        <ele>289.20001220703</ele>
        <time>2025-08-11T09:36:01.000Z</time>
      </trkpt>
      <trkpt lat="43.1598" lon="-0.23914">
        <ele>289.20001220703</ele>
        <time>2025-08-11T09:36:02.000Z</time>
      </trkpt>
      <trkpt lat="43.15985" lon="-0.23923">
        <ele>289.20001220703</ele>
        <time>2025-08-11T09:36:04.000Z</time>
      </trkpt>
      <trkpt lat="43.16002" lon="-0.23925">
        <ele>288.39999389648</ele>
        <time>2025-08-11T09:36:08.000Z</time>
      </trkpt>
      <trkpt lat="43.16014" lon="-0.23925">
        <ele>288</ele>
        <time>2025-08-11T09:36:11.000Z</time>
      </trkpt>
      <trkpt lat="43.16025" lon="-0.2393">
        <ele>288</ele>
        <time>2025-08-11T09:36:14.000Z</time>
      </trkpt>
      <trkpt lat="43.16051" lon="-0.23949">
        <ele>288.20001220703</ele>
        <time>2025-08-11T09:36:21.000Z</time>
      </trkpt>
      <trkpt lat="43.16063" lon="-0.2396">
        <ele>288</ele>
        <time>2025-08-11T09:36:24.000Z</time>
      </trkpt>
      <trkpt lat="43.16073" lon="-0.23973">
        <ele>287.79998779297</ele>
        <time>2025-08-11T09:36:27.000Z</time>
      </trkpt>
      <trkpt lat="43.16088" lon="-0.24001">
        <ele>287.39999389648</ele>
        <time>2025-08-11T09:36:33.000Z</time>
      </trkpt>
      <trkpt lat="43.16101" lon="-0.24027">
        <ele>287.20001220703</ele>
        <time>2025-08-11T09:36:39.000Z</time>
      </trkpt>
      <trkpt lat="43.16121" lon="-0.24048">
        <ele>287.20001220703</ele>
        <time>2025-08-11T09:36:45.000Z</time>
      </trkpt>
      <trkpt lat="43.16125" lon="-0.24051">
        <ele>287.20001220703</ele>
        <time>2025-08-11T09:36:46.000Z</time>
      </trkpt>
      <trkpt lat="43.16137" lon="-0.2406">
        <ele>287.20001220703</ele>
        <time>2025-08-11T09:36:49.000Z</time>
      </trkpt>
      <trkpt lat="43.16149" lon="-0.2407">
        <ele>286.79998779297</ele>
        <time>2025-08-11T09:36:52.000Z</time>
      </trkpt>
      <trkpt lat="43.1615" lon="-0.24073">
        <ele>286.79998779297</ele>
        <time>2025-08-11T09:36:53.000Z</time>
      </trkpt>
      <trkpt lat="43.1615" lon="-0.24076">
        <ele>286.79998779297</ele>
        <time>2025-08-11T09:36:54.000Z</time>
      </trkpt>
      <trkpt lat="43.16144" lon="-0.24088">
        <ele>286.60000610352</ele>
        <time>2025-08-11T09:36:59.000Z</time>
      </trkpt>
      <trkpt lat="43.16138" lon="-0.24108">
        <ele>286.60000610352</ele>
        <time>2025-08-11T09:37:05.000Z</time>
      </trkpt>
      <trkpt lat="43.16133" lon="-0.24126">
        <ele>286.60000610352</ele>
        <time>2025-08-11T09:37:11.000Z</time>
      </trkpt>
      <trkpt lat="43.16134" lon="-0.24154">
        <ele>287.79998779297</ele>
        <time>2025-08-11T09:37:19.000Z</time>
      </trkpt>
      <trkpt lat="43.16134" lon="-0.24172">
        <ele>288</ele>
        <time>2025-08-11T09:37:24.000Z</time>
      </trkpt>
      <trkpt lat="43.16134" lon="-0.24176">
        <ele>288</ele>
        <time>2025-08-11T09:37:25.000Z</time>
      </trkpt>
      <trkpt lat="43.16136" lon="-0.24211">
        <ele>288.60000610352</ele>
        <time>2025-08-11T09:37:34.000Z</time>
      </trkpt>
      <trkpt lat="43.16139" lon="-0.24245">
        <ele>289.39999389648</ele>
        <time>2025-08-11T09:37:41.000Z</time>
      </trkpt>
      <trkpt lat="43.16136" lon="-0.24259">
        <ele>289.60000610352</ele>
        <time>2025-08-11T09:37:44.000Z</time>
      </trkpt>
      <trkpt lat="43.16137" lon="-0.24299">
        <ele>290</ele>
        <time>2025-08-11T09:37:53.000Z</time>
      </trkpt>
      <trkpt lat="43.16137" lon="-0.2431">
        <ele>290.39999389648</ele>
        <time>2025-08-11T09:37:56.000Z</time>
      </trkpt>
      <trkpt lat="43.16137" lon="-0.24326">
        <ele>291</ele>
        <time>2025-08-11T09:38:01.000Z</time>
      </trkpt>
      <trkpt lat="43.16136" lon="-0.24335">
        <ele>291.39999389648</ele>
        <time>2025-08-11T09:38:04.000Z</time>
      </trkpt>
      <trkpt lat="43.16133" lon="-0.24347">
        <ele>292.20001220703</ele>
        <time>2025-08-11T09:38:08.000Z</time>
      </trkpt>
      <trkpt lat="43.16132" lon="-0.24351">
        <ele>292.60000610352</ele>
        <time>2025-08-11T09:38:10.000Z</time>
      </trkpt>
      <trkpt lat="43.16131" lon="-0.24363">
        <ele>293.20001220703</ele>
        <time>2025-08-11T09:38:15.000Z</time>
      </trkpt>
      <trkpt lat="43.16129" lon="-0.24371">
        <ele>293.79998779297</ele>
        <time>2025-08-11T09:38:18.000Z</time>
      </trkpt>
      <trkpt lat="43.16129" lon="-0.24383">
        <ele>294</ele>
        <time>2025-08-11T09:38:22.000Z</time>
      </trkpt>
      <trkpt lat="43.1613" lon="-0.24407">
        <ele>294.60000610352</ele>
        <time>2025-08-11T09:38:29.000Z</time>
      </trkpt>
      <trkpt lat="43.1613" lon="-0.24411">
        <ele>294.60000610352</ele>
        <time>2025-08-11T09:38:30.000Z</time>
      </trkpt>
      <trkpt lat="43.1613" lon="-0.24425">
        <ele>294.79998779297</ele>
        <time>2025-08-11T09:38:34.000Z</time>
      </trkpt>
      <trkpt lat="43.1613" lon="-0.2443">
        <ele>294.79998779297</ele>
        <time>2025-08-11T09:38:35.000Z</time>
      </trkpt>
      <trkpt lat="43.16133" lon="-0.24441">
        <ele>295.20001220703</ele>
        <time>2025-08-11T09:38:40.000Z</time>
      </trkpt>
      <trkpt lat="43.16134" lon="-0.2445">
        <ele>295.60000610352</ele>
        <time>2025-08-11T09:38:44.000Z</time>
      </trkpt>
      <trkpt lat="43.16135" lon="-0.24455">
        <ele>295.79998779297</ele>
        <time>2025-08-11T09:38:46.000Z</time>
      </trkpt>
      <trkpt lat="43.16141" lon="-0.24456">
        <ele>296.79998779297</ele>
        <time>2025-08-11T09:38:49.000Z</time>
      </trkpt>
      <trkpt lat="43.16143" lon="-0.24456">
        <ele>297</ele>
        <time>2025-08-11T09:38:50.000Z</time>
      </trkpt>
      <trkpt lat="43.16144" lon="-0.24456">
        <ele>297.39999389648</ele>
        <time>2025-08-11T09:38:51.000Z</time>
      </trkpt>
      <trkpt lat="43.16153" lon="-0.24454">
        <ele>298</ele>
        <time>2025-08-11T09:38:56.000Z</time>
      </trkpt>
      <trkpt lat="43.16158" lon="-0.24454">
        <ele>298</ele>
        <time>2025-08-11T09:38:59.000Z</time>
      </trkpt>
      <trkpt lat="43.16177" lon="-0.24453">
        <ele>298</ele>
        <time>2025-08-11T09:39:06.000Z</time>
      </trkpt>
      <trkpt lat="43.16202" lon="-0.24448">
        <ele>297.60000610352</ele>
        <time>2025-08-11T09:39:13.000Z</time>
      </trkpt>
      <trkpt lat="43.16221" lon="-0.24443">
        <ele>297.20001220703</ele>
        <time>2025-08-11T09:39:19.000Z</time>
      </trkpt>
      <trkpt lat="43.16244" lon="-0.24438">
        <ele>297.20001220703</ele>
        <time>2025-08-11T09:39:24.000Z</time>
      </trkpt>
      <trkpt lat="43.16276" lon="-0.24432">
        <ele>297.39999389648</ele>
        <time>2025-08-11T09:39:31.000Z</time>
      </trkpt>
      <trkpt lat="43.16299" lon="-0.24427">
        <ele>297</ele>
        <time>2025-08-11T09:39:36.000Z</time>
      </trkpt>
      <trkpt lat="43.16308" lon="-0.24424">
        <ele>297</ele>
        <time>2025-08-11T09:39:38.000Z</time>
      </trkpt>
      <trkpt lat="43.16317" lon="-0.24422">
        <ele>296.60000610352</ele>
        <time>2025-08-11T09:39:40.000Z</time>
      </trkpt>
      <trkpt lat="43.16333" lon="-0.24415">
        <ele>296.20001220703</ele>
        <time>2025-08-11T09:39:43.000Z</time>
      </trkpt>
      <trkpt lat="43.16361" lon="-0.24406">
        <ele>295.79998779297</ele>
        <time>2025-08-11T09:39:48.000Z</time>
      </trkpt>
      <trkpt lat="43.16367" lon="-0.24404">
        <ele>295.79998779297</ele>
        <time>2025-08-11T09:39:49.000Z</time>
      </trkpt>
      <trkpt lat="43.16373" lon="-0.24401">
        <ele>295.60000610352</ele>
        <time>2025-08-11T09:39:50.000Z</time>
      </trkpt>
      <trkpt lat="43.16397" lon="-0.24391">
        <ele>294.79998779297</ele>
        <time>2025-08-11T09:39:54.000Z</time>
      </trkpt>
      <trkpt lat="43.16403" lon="-0.24389">
        <ele>294.60000610352</ele>
        <time>2025-08-11T09:39:55.000Z</time>
      </trkpt>
      <trkpt lat="43.16415" lon="-0.24385">
        <ele>294.20001220703</ele>
        <time>2025-08-11T09:39:57.000Z</time>
      </trkpt>
      <trkpt lat="43.16425" lon="-0.24385">
        <ele>294</ele>
        <time>2025-08-11T09:39:59.000Z</time>
      </trkpt>
      <trkpt lat="43.16438" lon="-0.24384">
        <ele>293.79998779297</ele>
        <time>2025-08-11T09:40:01.000Z</time>
      </trkpt>
      <trkpt lat="43.16445" lon="-0.24384">
        <ele>293.60000610352</ele>
        <time>2025-08-11T09:40:02.000Z</time>
      </trkpt>
      <trkpt lat="43.16451" lon="-0.24385">
        <ele>293.60000610352</ele>
        <time>2025-08-11T09:40:03.000Z</time>
      </trkpt>
      <trkpt lat="43.16457" lon="-0.24386">
        <ele>293.39999389648</ele>
        <time>2025-08-11T09:40:04.000Z</time>
      </trkpt>
      <trkpt lat="43.1647" lon="-0.24388">
        <ele>293.20001220703</ele>
        <time>2025-08-11T09:40:06.000Z</time>
      </trkpt>
      <trkpt lat="43.16492" lon="-0.24392">
        <ele>292.79998779297</ele>
        <time>2025-08-11T09:40:09.000Z</time>
      </trkpt>
      <trkpt lat="43.16508" lon="-0.24396">
        <ele>292.20001220703</ele>
        <time>2025-08-11T09:40:11.000Z</time>
      </trkpt>
      <trkpt lat="43.1653" lon="-0.24404">
        <ele>291.39999389648</ele>
        <time>2025-08-11T09:40:14.000Z</time>
      </trkpt>
      <trkpt lat="43.16535" lon="-0.24407">
        <ele>291.39999389648</ele>
        <time>2025-08-11T09:40:15.000Z</time>
      </trkpt>
      <trkpt lat="43.16542" lon="-0.24409">
        <ele>291</ele>
        <time>2025-08-11T09:40:16.000Z</time>
      </trkpt>
      <trkpt lat="43.16579" lon="-0.24419">
        <ele>290.20001220703</ele>
        <time>2025-08-11T09:40:21.000Z</time>
      </trkpt>
      <trkpt lat="43.16595" lon="-0.2443">
        <ele>289.79998779297</ele>
        <time>2025-08-11T09:40:24.000Z</time>
      </trkpt>
      <trkpt lat="43.16605" lon="-0.24435">
        <ele>289.60000610352</ele>
        <time>2025-08-11T09:40:26.000Z</time>
      </trkpt>
      <trkpt lat="43.1661" lon="-0.24437">
        <ele>289.39999389648</ele>
        <time>2025-08-11T09:40:27.000Z</time>
      </trkpt>
      <trkpt lat="43.16624" lon="-0.24443">
        <ele>289.39999389648</ele>
        <time>2025-08-11T09:40:30.000Z</time>
      </trkpt>
      <trkpt lat="43.16631" lon="-0.24449">
        <ele>289.39999389648</ele>
        <time>2025-08-11T09:40:32.000Z</time>
      </trkpt>
      <trkpt lat="43.16642" lon="-0.24458">
        <ele>289.39999389648</ele>
        <time>2025-08-11T09:40:35.000Z</time>
      </trkpt>
      <trkpt lat="43.16665" lon="-0.24481">
        <ele>289.39999389648</ele>
        <time>2025-08-11T09:40:41.000Z</time>
      </trkpt>
      <trkpt lat="43.16681" lon="-0.24495">
        <ele>289</ele>
        <time>2025-08-11T09:40:45.000Z</time>
      </trkpt>
      <trkpt lat="43.16687" lon="-0.245">
        <ele>289</ele>
        <time>2025-08-11T09:40:46.000Z</time>
      </trkpt>
      <trkpt lat="43.16699" lon="-0.24507">
        <ele>288.79998779297</ele>
        <time>2025-08-11T09:40:48.000Z</time>
      </trkpt>
      <trkpt lat="43.16705" lon="-0.2451">
        <ele>288.79998779297</ele>
        <time>2025-08-11T09:40:49.000Z</time>
      </trkpt>
      <trkpt lat="43.16709" lon="-0.24515">
        <ele>288.60000610352</ele>
        <time>2025-08-11T09:40:50.000Z</time>
      </trkpt>
      <trkpt lat="43.16714" lon="-0.2452">
        <ele>288.60000610352</ele>
        <time>2025-08-11T09:40:51.000Z</time>
      </trkpt>
      <trkpt lat="43.16725" lon="-0.2453">
        <ele>288.39999389648</ele>
        <time>2025-08-11T09:40:53.000Z</time>
      </trkpt>
      <trkpt lat="43.16744" lon="-0.24547">
        <ele>287.79998779297</ele>
        <time>2025-08-11T09:40:57.000Z</time>
      </trkpt>
      <trkpt lat="43.16749" lon="-0.24551">
        <ele>287.60000610352</ele>
        <time>2025-08-11T09:40:58.000Z</time>
      </trkpt>
      <trkpt lat="43.16763" lon="-0.24565">
        <ele>287.20001220703</ele>
        <time>2025-08-11T09:41:01.000Z</time>
      </trkpt>
      <trkpt lat="43.16774" lon="-0.2457">
        <ele>287</ele>
        <time>2025-08-11T09:41:03.000Z</time>
      </trkpt>
      <trkpt lat="43.16785" lon="-0.24578">
        <ele>286.79998779297</ele>
        <time>2025-08-11T09:41:05.000Z</time>
      </trkpt>
      <trkpt lat="43.16792" lon="-0.24587">
        <ele>286.60000610352</ele>
        <time>2025-08-11T09:41:07.000Z</time>
      </trkpt>
      <trkpt lat="43.168" lon="-0.24597">
        <ele>286.39999389648</ele>
        <time>2025-08-11T09:41:09.000Z</time>
      </trkpt>
      <trkpt lat="43.16804" lon="-0.24601">
        <ele>286.20001220703</ele>
        <time>2025-08-11T09:41:10.000Z</time>
      </trkpt>
      <trkpt lat="43.16812" lon="-0.24609">
        <ele>286.20001220703</ele>
        <time>2025-08-11T09:41:12.000Z</time>
      </trkpt>
      <trkpt lat="43.16819" lon="-0.24618">
        <ele>286</ele>
        <time>2025-08-11T09:41:14.000Z</time>
      </trkpt>
      <trkpt lat="43.16837" lon="-0.24638">
        <ele>285.79998779297</ele>
        <time>2025-08-11T09:41:19.000Z</time>
      </trkpt>
      <trkpt lat="43.16841" lon="-0.24641">
        <ele>285.79998779297</ele>
        <time>2025-08-11T09:41:20.000Z</time>
      </trkpt>
      <trkpt lat="43.16845" lon="-0.24645">
        <ele>285.79998779297</ele>
        <time>2025-08-11T09:41:21.000Z</time>
      </trkpt>
      <trkpt lat="43.16859" lon="-0.24663">
        <ele>285.79998779297</ele>
        <time>2025-08-11T09:41:25.000Z</time>
      </trkpt>
      <trkpt lat="43.16863" lon="-0.24666">
        <ele>285.79998779297</ele>
        <time>2025-08-11T09:41:26.000Z</time>
      </trkpt>
      <trkpt lat="43.16873" lon="-0.24674">
        <ele>285.79998779297</ele>
        <time>2025-08-11T09:41:28.000Z</time>
      </trkpt>
      <trkpt lat="43.16886" lon="-0.24689">
        <ele>286</ele>
        <time>2025-08-11T09:41:31.000Z</time>
      </trkpt>
      <trkpt lat="43.16911" lon="-0.24729">
        <ele>285.79998779297</ele>
        <time>2025-08-11T09:41:38.000Z</time>
      </trkpt>
      <trkpt lat="43.16916" lon="-0.2474">
        <ele>285.60000610352</ele>
        <time>2025-08-11T09:41:40.000Z</time>
      </trkpt>
      <trkpt lat="43.1692" lon="-0.24747">
        <ele>285.39999389648</ele>
        <time>2025-08-11T09:41:41.000Z</time>
      </trkpt>
      <trkpt lat="43.16928" lon="-0.24758">
        <ele>285</ele>
        <time>2025-08-11T09:41:43.000Z</time>
      </trkpt>
      <trkpt lat="43.16933" lon="-0.24764">
        <ele>285.20001220703</ele>
        <time>2025-08-11T09:41:44.000Z</time>
      </trkpt>
      <trkpt lat="43.16939" lon="-0.24776">
        <ele>285</ele>
        <time>2025-08-11T09:41:46.000Z</time>
      </trkpt>
      <trkpt lat="43.16951" lon="-0.24794">
        <ele>284.39999389648</ele>
        <time>2025-08-11T09:41:49.000Z</time>
      </trkpt>
      <trkpt lat="43.16955" lon="-0.248">
        <ele>284.20001220703</ele>
        <time>2025-08-11T09:41:50.000Z</time>
      </trkpt>
      <trkpt lat="43.16964" lon="-0.24812">
        <ele>284.20001220703</ele>
        <time>2025-08-11T09:41:52.000Z</time>
      </trkpt>
      <trkpt lat="43.16974" lon="-0.24821">
        <ele>284</ele>
        <time>2025-08-11T09:41:54.000Z</time>
      </trkpt>
      <trkpt lat="43.1698" lon="-0.24825">
        <ele>283.79998779297</ele>
        <time>2025-08-11T09:41:55.000Z</time>
      </trkpt>
      <trkpt lat="43.17002" lon="-0.24837">
        <ele>283.39999389648</ele>
        <time>2025-08-11T09:41:59.000Z</time>
      </trkpt>
      <trkpt lat="43.17012" lon="-0.24843">
        <ele>283.20001220703</ele>
        <time>2025-08-11T09:42:01.000Z</time>
      </trkpt>
      <trkpt lat="43.17037" lon="-0.2486">
        <ele>282.39999389648</ele>
        <time>2025-08-11T09:42:07.000Z</time>
      </trkpt>
      <trkpt lat="43.17052" lon="-0.24872">
        <ele>282.20001220703</ele>
        <time>2025-08-11T09:42:11.000Z</time>
      </trkpt>
      <trkpt lat="43.1706" lon="-0.24877">
        <ele>282</ele>
        <time>2025-08-11T09:42:13.000Z</time>
      </trkpt>
      <trkpt lat="43.17064" lon="-0.2488">
        <ele>282</ele>
        <time>2025-08-11T09:42:14.000Z</time>
      </trkpt>
      <trkpt lat="43.17075" lon="-0.24888">
        <ele>282</ele>
        <time>2025-08-11T09:42:17.000Z</time>
      </trkpt>
      <trkpt lat="43.17086" lon="-0.24896">
        <ele>281.79998779297</ele>
        <time>2025-08-11T09:42:20.000Z</time>
      </trkpt>
      <trkpt lat="43.171" lon="-0.24905">
        <ele>281.79998779297</ele>
        <time>2025-08-11T09:42:24.000Z</time>
      </trkpt>
      <trkpt lat="43.17112" lon="-0.24911">
        <ele>281.60000610352</ele>
        <time>2025-08-11T09:42:27.000Z</time>
      </trkpt>
      <trkpt lat="43.17116" lon="-0.24913">
        <ele>281.60000610352</ele>
        <time>2025-08-11T09:42:28.000Z</time>
      </trkpt>
      <trkpt lat="43.17123" lon="-0.24916">
        <ele>281.79998779297</ele>
        <time>2025-08-11T09:42:30.000Z</time>
      </trkpt>
      <trkpt lat="43.1714" lon="-0.24918">
        <ele>281.79998779297</ele>
        <time>2025-08-11T09:42:34.000Z</time>
      </trkpt>
      <trkpt lat="43.17144" lon="-0.24918">
        <ele>281.60000610352</ele>
        <time>2025-08-11T09:42:35.000Z</time>
      </trkpt>
      <trkpt lat="43.17159" lon="-0.24915">
        <ele>281.60000610352</ele>
        <time>2025-08-11T09:42:39.000Z</time>
      </trkpt>
      <trkpt lat="43.17186" lon="-0.24905">
        <ele>281.39999389648</ele>
        <time>2025-08-11T09:42:46.000Z</time>
      </trkpt>
      <trkpt lat="43.17217" lon="-0.24892">
        <ele>281.39999389648</ele>
        <time>2025-08-11T09:42:54.000Z</time>
      </trkpt>
      <trkpt lat="43.17242" lon="-0.24877">
        <ele>281.60000610352</ele>
        <time>2025-08-11T09:43:01.000Z</time>
      </trkpt>
      <trkpt lat="43.17271" lon="-0.24856">
        <ele>281.60000610352</ele>
        <time>2025-08-11T09:43:09.000Z</time>
      </trkpt>
      <trkpt lat="43.17296" lon="-0.24827">
        <ele>281.79998779297</ele>
        <time>2025-08-11T09:43:17.000Z</time>
      </trkpt>
      <trkpt lat="43.17302" lon="-0.24821">
        <ele>281.79998779297</ele>
        <time>2025-08-11T09:43:19.000Z</time>
      </trkpt>
      <trkpt lat="43.17309" lon="-0.24821">
        <ele>281.79998779297</ele>
        <time>2025-08-11T09:43:21.000Z</time>
      </trkpt>
      <trkpt lat="43.17313" lon="-0.24834">
        <ele>282</ele>
        <time>2025-08-11T09:43:24.000Z</time>
      </trkpt>
      <trkpt lat="43.17319" lon="-0.24876">
        <ele>282.39999389648</ele>
        <time>2025-08-11T09:43:32.000Z</time>
      </trkpt>
      <trkpt lat="43.17329" lon="-0.24932">
        <ele>282.39999389648</ele>
        <time>2025-08-11T09:43:42.000Z</time>
      </trkpt>
      <trkpt lat="43.17336" lon="-0.2497">
        <ele>282.60000610352</ele>
        <time>2025-08-11T09:43:49.000Z</time>
      </trkpt>
      <trkpt lat="43.17336" lon="-0.24976">
        <ele>282.60000610352</ele>
        <time>2025-08-11T09:43:50.000Z</time>
      </trkpt>
      <trkpt lat="43.17337" lon="-0.2498">
        <ele>282.60000610352</ele>
        <time>2025-08-11T09:43:51.000Z</time>
      </trkpt>
      <trkpt lat="43.17341" lon="-0.25022">
        <ele>282.79998779297</ele>
        <time>2025-08-11T09:43:58.000Z</time>
      </trkpt>
      <trkpt lat="43.17346" lon="-0.25068">
        <ele>282.60000610352</ele>
        <time>2025-08-11T09:44:06.000Z</time>
      </trkpt>
      <trkpt lat="43.17355" lon="-0.25123">
        <ele>282.60000610352</ele>
        <time>2025-08-11T09:44:16.000Z</time>
      </trkpt>
      <trkpt lat="43.17361" lon="-0.25179">
        <ele>282.39999389648</ele>
        <time>2025-08-11T09:44:26.000Z</time>
      </trkpt>
      <trkpt lat="43.17366" lon="-0.25226">
        <ele>282.20001220703</ele>
        <time>2025-08-11T09:44:34.000Z</time>
      </trkpt>
      <trkpt lat="43.17369" lon="-0.25258">
        <ele>282</ele>
        <time>2025-08-11T09:44:40.000Z</time>
      </trkpt>
      <trkpt lat="43.17368" lon="-0.2528">
        <ele>282</ele>
        <time>2025-08-11T09:44:45.000Z</time>
      </trkpt>
      <trkpt lat="43.17363" lon="-0.25315">
        <ele>281.79998779297</ele>
        <time>2025-08-11T09:44:51.000Z</time>
      </trkpt>
      <trkpt lat="43.17362" lon="-0.25334">
        <ele>281.79998779297</ele>
        <time>2025-08-11T09:44:54.000Z</time>
      </trkpt>
      <trkpt lat="43.17362" lon="-0.25339">
        <ele>281.79998779297</ele>
        <time>2025-08-11T09:44:55.000Z</time>
      </trkpt>
      <trkpt lat="43.17359" lon="-0.25358">
        <ele>281.39999389648</ele>
        <time>2025-08-11T09:44:58.000Z</time>
      </trkpt>
      <trkpt lat="43.17352" lon="-0.25391">
        <ele>281</ele>
        <time>2025-08-11T09:45:04.000Z</time>
      </trkpt>
      <trkpt lat="43.17351" lon="-0.25396">
        <ele>280.79998779297</ele>
        <time>2025-08-11T09:45:05.000Z</time>
      </trkpt>
      <trkpt lat="43.17348" lon="-0.25407">
        <ele>280.79998779297</ele>
        <time>2025-08-11T09:45:07.000Z</time>
      </trkpt>
      <trkpt lat="43.17337" lon="-0.25431">
        <ele>280.60000610352</ele>
        <time>2025-08-11T09:45:11.000Z</time>
      </trkpt>
      <trkpt lat="43.17322" lon="-0.25457">
        <ele>280.20001220703</ele>
        <time>2025-08-11T09:45:16.000Z</time>
      </trkpt>
      <trkpt lat="43.17319" lon="-0.25471">
        <ele>280.20001220703</ele>
        <time>2025-08-11T09:45:18.000Z</time>
      </trkpt>
      <trkpt lat="43.1732" lon="-0.25491">
        <ele>279.60000610352</ele>
        <time>2025-08-11T09:45:21.000Z</time>
      </trkpt>
      <trkpt lat="43.17324" lon="-0.25514">
        <ele>279</ele>
        <time>2025-08-11T09:45:25.000Z</time>
      </trkpt>
      <trkpt lat="43.17331" lon="-0.25532">
        <ele>278.79998779297</ele>
        <time>2025-08-11T09:45:29.000Z</time>
      </trkpt>
      <trkpt lat="43.17338" lon="-0.25547">
        <ele>279</ele>
        <time>2025-08-11T09:45:33.000Z</time>
      </trkpt>
      <trkpt lat="43.1736" lon="-0.25568">
        <ele>279.39999389648</ele>
        <time>2025-08-11T09:45:41.000Z</time>
      </trkpt>
      <trkpt lat="43.17386" lon="-0.2559">
        <ele>280</ele>
        <time>2025-08-11T09:45:50.000Z</time>
      </trkpt>
      <trkpt lat="43.17406" lon="-0.25597">
        <ele>280</ele>
        <time>2025-08-11T09:45:56.000Z</time>
      </trkpt>
      <trkpt lat="43.17424" lon="-0.25609">
        <ele>279.79998779297</ele>
        <time>2025-08-11T09:46:03.000Z</time>
      </trkpt>
      <trkpt lat="43.17425" lon="-0.25612">
        <ele>279.60000610352</ele>
        <time>2025-08-11T09:46:04.000Z</time>
      </trkpt>
      <trkpt lat="43.17423" lon="-0.25618">
        <ele>279.60000610352</ele>
        <time>2025-08-11T09:46:06.000Z</time>
      </trkpt>
      <trkpt lat="43.17416" lon="-0.25638">
        <ele>279.39999389648</ele>
        <time>2025-08-11T09:46:11.000Z</time>
      </trkpt>
      <trkpt lat="43.17397" lon="-0.25685">
        <ele>279</ele>
        <time>2025-08-11T09:46:21.000Z</time>
      </trkpt>
      <trkpt lat="43.17395" lon="-0.25691">
        <ele>278.79998779297</ele>
        <time>2025-08-11T09:46:22.000Z</time>
      </trkpt>
      <trkpt lat="43.17394" lon="-0.25697">
        <ele>278.39999389648</ele>
        <time>2025-08-11T09:46:23.000Z</time>
      </trkpt>
      <trkpt lat="43.17392" lon="-0.25707">
        <ele>277.79998779297</ele>
        <time>2025-08-11T09:46:25.000Z</time>
      </trkpt>
      <trkpt lat="43.17388" lon="-0.25715">
        <ele>276.79998779297</ele>
        <time>2025-08-11T09:46:27.000Z</time>
      </trkpt>
      <trkpt lat="43.17386" lon="-0.2572">
        <ele>276.39999389648</ele>
        <time>2025-08-11T09:46:28.000Z</time>
      </trkpt>
      <trkpt lat="43.17386" lon="-0.25725">
        <ele>276</ele>
        <time>2025-08-11T09:46:29.000Z</time>
      </trkpt>
      <trkpt lat="43.17388" lon="-0.25734">
        <ele>275.60000610352</ele>
        <time>2025-08-11T09:46:31.000Z</time>
      </trkpt>
      <trkpt lat="43.17391" lon="-0.25741">
        <ele>275.60000610352</ele>
        <time>2025-08-11T09:46:32.000Z</time>
      </trkpt>
      <trkpt lat="43.17404" lon="-0.2576">
        <ele>275.20001220703</ele>
        <time>2025-08-11T09:46:36.000Z</time>
      </trkpt>
      <trkpt lat="43.17411" lon="-0.25767">
        <ele>275</ele>
        <time>2025-08-11T09:46:38.000Z</time>
      </trkpt>
      <trkpt lat="43.17427" lon="-0.25784">
        <ele>274.60000610352</ele>
        <time>2025-08-11T09:46:42.000Z</time>
      </trkpt>
      <trkpt lat="43.17434" lon="-0.25794">
        <ele>274.60000610352</ele>
        <time>2025-08-11T09:46:44.000Z</time>
      </trkpt>
      <trkpt lat="43.17441" lon="-0.25803">
        <ele>274.60000610352</ele>
        <time>2025-08-11T09:46:46.000Z</time>
      </trkpt>
      <trkpt lat="43.17456" lon="-0.25821">
        <ele>274.60000610352</ele>
        <time>2025-08-11T09:46:50.000Z</time>
      </trkpt>
      <trkpt lat="43.17467" lon="-0.2583">
        <ele>274.39999389648</ele>
        <time>2025-08-11T09:46:53.000Z</time>
      </trkpt>
      <trkpt lat="43.17491" lon="-0.25843">
        <ele>274.39999389648</ele>
        <time>2025-08-11T09:46:59.000Z</time>
      </trkpt>
      <trkpt lat="43.17495" lon="-0.25846">
        <ele>274.39999389648</ele>
        <time>2025-08-11T09:47:00.000Z</time>
      </trkpt>
      <trkpt lat="43.17503" lon="-0.25851">
        <ele>274.60000610352</ele>
        <time>2025-08-11T09:47:02.000Z</time>
      </trkpt>
      <trkpt lat="43.17513" lon="-0.25861">
        <ele>274.60000610352</ele>
        <time>2025-08-11T09:47:05.000Z</time>
      </trkpt>
      <trkpt lat="43.17525" lon="-0.25869">
        <ele>274.39999389648</ele>
        <time>2025-08-11T09:47:08.000Z</time>
      </trkpt>
      <trkpt lat="43.17532" lon="-0.25874">
        <ele>274.39999389648</ele>
        <time>2025-08-11T09:47:10.000Z</time>
      </trkpt>
      <trkpt lat="43.17536" lon="-0.25878">
        <ele>274.39999389648</ele>
        <time>2025-08-11T09:47:11.000Z</time>
      </trkpt>
      <trkpt lat="43.17542" lon="-0.25884">
        <ele>274.20001220703</ele>
        <time>2025-08-11T09:47:13.000Z</time>
      </trkpt>
      <trkpt lat="43.17553" lon="-0.25891">
        <ele>274</ele>
        <time>2025-08-11T09:47:16.000Z</time>
      </trkpt>
      <trkpt lat="43.17557" lon="-0.25894">
        <ele>274</ele>
        <time>2025-08-11T09:47:17.000Z</time>
      </trkpt>
      <trkpt lat="43.1758" lon="-0.25908">
        <ele>273.79998779297</ele>
        <time>2025-08-11T09:47:23.000Z</time>
      </trkpt>
      <trkpt lat="43.17598" lon="-0.25915">
        <ele>273.79998779297</ele>
        <time>2025-08-11T09:47:27.000Z</time>
      </trkpt>
      <trkpt lat="43.17607" lon="-0.25918">
        <ele>273.79998779297</ele>
        <time>2025-08-11T09:47:29.000Z</time>
      </trkpt>
      <trkpt lat="43.17612" lon="-0.25919">
        <ele>273.60000610352</ele>
        <time>2025-08-11T09:47:30.000Z</time>
      </trkpt>
      <trkpt lat="43.17634" lon="-0.25925">
        <ele>273.20001220703</ele>
        <time>2025-08-11T09:47:35.000Z</time>
      </trkpt>
      <trkpt lat="43.17648" lon="-0.25929">
        <ele>272.79998779297</ele>
        <time>2025-08-11T09:47:38.000Z</time>
      </trkpt>
      <trkpt lat="43.17657" lon="-0.25932">
        <ele>272.79998779297</ele>
        <time>2025-08-11T09:47:40.000Z</time>
      </trkpt>
      <trkpt lat="43.1768" lon="-0.25937">
        <ele>272.60000610352</ele>
        <time>2025-08-11T09:47:45.000Z</time>
      </trkpt>
      <trkpt lat="43.17708" lon="-0.2594">
        <ele>272.20001220703</ele>
        <time>2025-08-11T09:47:51.000Z</time>
      </trkpt>
      <trkpt lat="43.17722" lon="-0.2594">
        <ele>272.20001220703</ele>
        <time>2025-08-11T09:47:54.000Z</time>
      </trkpt>
      <trkpt lat="43.17755" lon="-0.25942">
        <ele>272.20001220703</ele>
        <time>2025-08-11T09:48:01.000Z</time>
      </trkpt>
      <trkpt lat="43.17792" lon="-0.25942">
        <ele>271.79998779297</ele>
        <time>2025-08-11T09:48:09.000Z</time>
      </trkpt>
      <trkpt lat="43.17797" lon="-0.25942">
        <ele>271.79998779297</ele>
        <time>2025-08-11T09:48:10.000Z</time>
      </trkpt>
      <trkpt lat="43.17838" lon="-0.25942">
        <ele>271.60000610352</ele>
        <time>2025-08-11T09:48:19.000Z</time>
      </trkpt>
      <trkpt lat="43.17848" lon="-0.25942">
        <ele>271.60000610352</ele>
        <time>2025-08-11T09:48:21.000Z</time>
      </trkpt>
      <trkpt lat="43.17864" lon="-0.2594">
        <ele>271.60000610352</ele>
        <time>2025-08-11T09:48:25.000Z</time>
      </trkpt>
      <trkpt lat="43.17882" lon="-0.25934">
        <ele>272.20001220703</ele>
        <time>2025-08-11T09:48:30.000Z</time>
      </trkpt>
      <trkpt lat="43.17902" lon="-0.25909">
        <ele>271.79998779297</ele>
        <time>2025-08-11T09:48:37.000Z</time>
      </trkpt>
      <trkpt lat="43.17922" lon="-0.25889">
        <ele>272</ele>
        <time>2025-08-11T09:48:44.000Z</time>
      </trkpt>
      <trkpt lat="43.17931" lon="-0.25881">
        <ele>272</ele>
        <time>2025-08-11T09:48:47.000Z</time>
      </trkpt>
      <trkpt lat="43.17935" lon="-0.25877">
        <ele>272</ele>
        <time>2025-08-11T09:48:50.000Z</time>
      </trkpt>
      <trkpt lat="43.17939" lon="-0.25877">
        <ele>272</ele>
        <time>2025-08-11T09:48:54.000Z</time>
      </trkpt>
      <trkpt lat="43.17941" lon="-0.25878">
        <ele>272</ele>
        <time>2025-08-11T09:48:55.000Z</time>
      </trkpt>
      <trkpt lat="43.17953" lon="-0.2588">
        <ele>272</ele>
        <time>2025-08-11T09:49:00.000Z</time>
      </trkpt>
      <trkpt lat="43.17962" lon="-0.25894">
        <ele>272.39999389648</ele>
        <time>2025-08-11T09:49:05.000Z</time>
      </trkpt>
      <trkpt lat="43.17964" lon="-0.25905">
        <ele>273</ele>
        <time>2025-08-11T09:49:08.000Z</time>
      </trkpt>
      <trkpt lat="43.17965" lon="-0.25917">
        <ele>273.20001220703</ele>
        <time>2025-08-11T09:49:11.000Z</time>
      </trkpt>
      <trkpt lat="43.17967" lon="-0.25941">
        <ele>274.20001220703</ele>
        <time>2025-08-11T09:49:17.000Z</time>
      </trkpt>
      <trkpt lat="43.17968" lon="-0.25957">
        <ele>274.79998779297</ele>
        <time>2025-08-11T09:49:21.000Z</time>
      </trkpt>
      <trkpt lat="43.17969" lon="-0.25968">
        <ele>275.39999389648</ele>
        <time>2025-08-11T09:49:24.000Z</time>
      </trkpt>
      <trkpt lat="43.1797" lon="-0.25985">
        <ele>275.60000610352</ele>
        <time>2025-08-11T09:49:28.000Z</time>
      </trkpt>
      <trkpt lat="43.1797" lon="-0.25989">
        <ele>275.79998779297</ele>
        <time>2025-08-11T09:49:29.000Z</time>
      </trkpt>
      <trkpt lat="43.17973" lon="-0.2603">
        <ele>275.79998779297</ele>
        <time>2025-08-11T09:49:37.000Z</time>
      </trkpt>
      <trkpt lat="43.17977" lon="-0.2607">
        <ele>275.20001220703</ele>
        <time>2025-08-11T09:49:44.000Z</time>
      </trkpt>
      <trkpt lat="43.1798" lon="-0.26079">
        <ele>275</ele>
        <time>2025-08-11T09:49:46.000Z</time>
      </trkpt>
      <trkpt lat="43.17983" lon="-0.2608">
        <ele>275</ele>
        <time>2025-08-11T09:49:47.000Z</time>
      </trkpt>
      <trkpt lat="43.17989" lon="-0.2608">
        <ele>274.60000610352</ele>
        <time>2025-08-11T09:49:50.000Z</time>
      </trkpt>
      <trkpt lat="43.17989" lon="-0.2608">
        <ele>274.39999389648</ele>
        <time>2025-08-11T09:49:51.000Z</time>
      </trkpt>
      <trkpt lat="43.17991" lon="-0.26079">
        <ele>273.79998779297</ele>
        <time>2025-08-11T09:49:57.000Z</time>
      </trkpt>
      <trkpt lat="43.17996" lon="-0.26077">
        <ele>273.60000610352</ele>
        <time>2025-08-11T09:50:08.000Z</time>
      </trkpt>
      <trkpt lat="43.17998" lon="-0.26077">
        <ele>273.39999389648</ele>
        <time>2025-08-11T09:50:10.000Z</time>
      </trkpt>
      <trkpt lat="43.17998" lon="-0.26077">
        <ele>273.39999389648</ele>
        <time>2025-08-11T09:50:11.000Z</time>
      </trkpt>
      <trkpt lat="43.17998" lon="-0.26062">
        <ele>272.60000610352</ele>
        <time>2025-08-11T09:50:24.000Z</time>
      </trkpt>
      <trkpt lat="43.17998" lon="-0.26047">
        <ele>272.60000610352</ele>
        <time>2025-08-11T09:50:30.000Z</time>
      </trkpt>
      <trkpt lat="43.18002" lon="-0.26037">
        <ele>272.60000610352</ele>
        <time>2025-08-11T09:50:37.000Z</time>
      </trkpt>
      <trkpt lat="43.18002" lon="-0.26037">
        <ele>272.60000610352</ele>
        <time>2025-08-11T09:50:38.000Z</time>
      </trkpt>
      <trkpt lat="43.18009" lon="-0.26034">
        <ele>272</ele>
        <time>2025-08-11T09:51:08.000Z</time>
      </trkpt>
      <trkpt lat="43.18017" lon="-0.26033">
        <ele>272</ele>
        <time>2025-08-11T09:51:10.000Z</time>
      </trkpt>
      <trkpt lat="43.18033" lon="-0.26028">
        <ele>271.79998779297</ele>
        <time>2025-08-11T09:51:13.000Z</time>
      </trkpt>
      <trkpt lat="43.18039" lon="-0.26027">
        <ele>271.60000610352</ele>
        <time>2025-08-11T09:51:14.000Z</time>
      </trkpt>
      <trkpt lat="43.18063" lon="-0.26023">
        <ele>271</ele>
        <time>2025-08-11T09:51:18.000Z</time>
      </trkpt>
      <trkpt lat="43.1808" lon="-0.26021">
        <ele>270.60000610352</ele>
        <time>2025-08-11T09:51:21.000Z</time>
      </trkpt>
      <trkpt lat="43.18096" lon="-0.26017">
        <ele>269.79998779297</ele>
        <time>2025-08-11T09:51:24.000Z</time>
      </trkpt>
      <trkpt lat="43.1812" lon="-0.26013">
        <ele>269.39999389648</ele>
        <time>2025-08-11T09:51:29.000Z</time>
      </trkpt>
      <trkpt lat="43.18128" lon="-0.26013">
        <ele>269.39999389648</ele>
        <time>2025-08-11T09:51:31.000Z</time>
      </trkpt>
      <trkpt lat="43.18137" lon="-0.26015">
        <ele>269.39999389648</ele>
        <time>2025-08-11T09:51:33.000Z</time>
      </trkpt>
      <trkpt lat="43.18143" lon="-0.26017">
        <ele>269.20001220703</ele>
        <time>2025-08-11T09:51:35.000Z</time>
      </trkpt>
      <trkpt lat="43.18159" lon="-0.26019">
        <ele>269.39999389648</ele>
        <time>2025-08-11T09:51:40.000Z</time>
      </trkpt>
      <trkpt lat="43.18189" lon="-0.26008">
        <ele>269.79998779297</ele>
        <time>2025-08-11T09:51:49.000Z</time>
      </trkpt>
      <trkpt lat="43.18206" lon="-0.25998">
        <ele>269.79998779297</ele>
        <time>2025-08-11T09:51:54.000Z</time>
      </trkpt>
      <trkpt lat="43.18238" lon="-0.25993">
        <ele>269.39999389648</ele>
        <time>2025-08-11T09:52:03.000Z</time>
      </trkpt>
      <trkpt lat="43.18246" lon="-0.25994">
        <ele>269.20001220703</ele>
        <time>2025-08-11T09:52:05.000Z</time>
      </trkpt>
      <trkpt lat="43.18258" lon="-0.25991">
        <ele>269</ele>
        <time>2025-08-11T09:52:08.000Z</time>
      </trkpt>
      <trkpt lat="43.1827" lon="-0.25989">
        <ele>269</ele>
        <time>2025-08-11T09:52:11.000Z</time>
      </trkpt>
      <trkpt lat="43.18283" lon="-0.25987">
        <ele>268.79998779297</ele>
        <time>2025-08-11T09:52:14.000Z</time>
      </trkpt>
      <trkpt lat="43.18287" lon="-0.25987">
        <ele>268.79998779297</ele>
        <time>2025-08-11T09:52:15.000Z</time>
      </trkpt>
      <trkpt lat="43.18308" lon="-0.25983">
        <ele>268.39999389648</ele>
        <time>2025-08-11T09:52:20.000Z</time>
      </trkpt>
      <trkpt lat="43.18317" lon="-0.2598">
        <ele>268.39999389648</ele>
        <time>2025-08-11T09:52:22.000Z</time>
      </trkpt>
      <trkpt lat="43.18339" lon="-0.25974">
        <ele>268.39999389648</ele>
        <time>2025-08-11T09:52:27.000Z</time>
      </trkpt>
      <trkpt lat="43.18347" lon="-0.25971">
        <ele>268.20001220703</ele>
        <time>2025-08-11T09:52:29.000Z</time>
      </trkpt>
      <trkpt lat="43.18351" lon="-0.25969">
        <ele>268.20001220703</ele>
        <time>2025-08-11T09:52:30.000Z</time>
      </trkpt>
      <trkpt lat="43.18364" lon="-0.25966">
        <ele>268.20001220703</ele>
        <time>2025-08-11T09:52:34.000Z</time>
      </trkpt>
      <trkpt lat="43.18371" lon="-0.25962">
        <ele>268</ele>
        <time>2025-08-11T09:52:37.000Z</time>
      </trkpt>
      <trkpt lat="43.18372" lon="-0.25961">
        <ele>268</ele>
        <time>2025-08-11T09:52:38.000Z</time>
      </trkpt>
      <trkpt lat="43.18389" lon="-0.25957">
        <ele>268</ele>
        <time>2025-08-11T09:52:44.000Z</time>
      </trkpt>
      <trkpt lat="43.18415" lon="-0.25947">
        <ele>268</ele>
        <time>2025-08-11T09:52:51.000Z</time>
      </trkpt>
      <trkpt lat="43.18431" lon="-0.2594">
        <ele>268</ele>
        <time>2025-08-11T09:52:55.000Z</time>
      </trkpt>
      <trkpt lat="43.18448" lon="-0.25931">
        <ele>268</ele>
        <time>2025-08-11T09:53:00.000Z</time>
      </trkpt>
      <trkpt lat="43.18462" lon="-0.2592">
        <ele>268.20001220703</ele>
        <time>2025-08-11T09:53:05.000Z</time>
      </trkpt>
      <trkpt lat="43.18493" lon="-0.25895">
        <ele>268.20001220703</ele>
        <time>2025-08-11T09:53:15.000Z</time>
      </trkpt>
      <trkpt lat="43.18518" lon="-0.25877">
        <ele>268.20001220703</ele>
        <time>2025-08-11T09:53:23.000Z</time>
      </trkpt>
      <trkpt lat="43.18538" lon="-0.25865">
        <ele>268.20001220703</ele>
        <time>2025-08-11T09:53:29.000Z</time>
      </trkpt>
      <trkpt lat="43.18562" lon="-0.25848">
        <ele>268.20001220703</ele>
        <time>2025-08-11T09:53:37.000Z</time>
      </trkpt>
      <trkpt lat="43.18582" lon="-0.25833">
        <ele>268.39999389648</ele>
        <time>2025-08-11T09:53:43.000Z</time>
      </trkpt>
      <trkpt lat="43.18612" lon="-0.25806">
        <ele>268.60000610352</ele>
        <time>2025-08-11T09:53:52.000Z</time>
      </trkpt>
      <trkpt lat="43.18639" lon="-0.25779">
        <ele>268.79998779297</ele>
        <time>2025-08-11T09:54:00.000Z</time>
      </trkpt>
      <trkpt lat="43.18665" lon="-0.25753">
        <ele>268.79998779297</ele>
        <time>2025-08-11T09:54:08.000Z</time>
      </trkpt>
      <trkpt lat="43.18683" lon="-0.25731">
        <ele>268.79998779297</ele>
        <time>2025-08-11T09:54:14.000Z</time>
      </trkpt>
      <trkpt lat="43.187" lon="-0.25713">
        <ele>268.60000610352</ele>
        <time>2025-08-11T09:54:19.000Z</time>
      </trkpt>
      <trkpt lat="43.18711" lon="-0.25704">
        <ele>268.60000610352</ele>
        <time>2025-08-11T09:54:22.000Z</time>
      </trkpt>
      <trkpt lat="43.1874" lon="-0.25681">
        <ele>268.20001220703</ele>
        <time>2025-08-11T09:54:30.000Z</time>
      </trkpt>
      <trkpt lat="43.18744" lon="-0.25679">
        <ele>268.20001220703</ele>
        <time>2025-08-11T09:54:31.000Z</time>
      </trkpt>
      <trkpt lat="43.18765" lon="-0.25659">
        <ele>268.20001220703</ele>
        <time>2025-08-11T09:54:37.000Z</time>
      </trkpt>
      <trkpt lat="43.18778" lon="-0.25646">
        <ele>268</ele>
        <time>2025-08-11T09:54:41.000Z</time>
      </trkpt>
      <trkpt lat="43.18785" lon="-0.25638">
        <ele>267.79998779297</ele>
        <time>2025-08-11T09:54:43.000Z</time>
      </trkpt>
      <trkpt lat="43.18796" lon="-0.25628">
        <ele>267.60000610352</ele>
        <time>2025-08-11T09:54:46.000Z</time>
      </trkpt>
      <trkpt lat="43.18823" lon="-0.25603">
        <ele>267</ele>
        <time>2025-08-11T09:54:53.000Z</time>
      </trkpt>
      <trkpt lat="43.1883" lon="-0.25595">
        <ele>267</ele>
        <time>2025-08-11T09:54:55.000Z</time>
      </trkpt>
      <trkpt lat="43.18834" lon="-0.25592">
        <ele>267</ele>
        <time>2025-08-11T09:54:56.000Z</time>
      </trkpt>
      <trkpt lat="43.18842" lon="-0.25583">
        <ele>267</ele>
        <time>2025-08-11T09:54:58.000Z</time>
      </trkpt>
      <trkpt lat="43.18845" lon="-0.25578">
        <ele>266.79998779297</ele>
        <time>2025-08-11T09:54:59.000Z</time>
      </trkpt>
      <trkpt lat="43.1885" lon="-0.25569">
        <ele>266.79998779297</ele>
        <time>2025-08-11T09:55:01.000Z</time>
      </trkpt>
      <trkpt lat="43.18858" lon="-0.25561">
        <ele>266.60000610352</ele>
        <time>2025-08-11T09:55:03.000Z</time>
      </trkpt>
      <trkpt lat="43.18862" lon="-0.25559">
        <ele>266.60000610352</ele>
        <time>2025-08-11T09:55:04.000Z</time>
      </trkpt>
      <trkpt lat="43.18888" lon="-0.25542">
        <ele>266</ele>
        <time>2025-08-11T09:55:10.000Z</time>
      </trkpt>
      <trkpt lat="43.18895" lon="-0.25535">
        <ele>266</ele>
        <time>2025-08-11T09:55:12.000Z</time>
      </trkpt>
      <trkpt lat="43.189" lon="-0.25533">
        <ele>265.79998779297</ele>
        <time>2025-08-11T09:55:13.000Z</time>
      </trkpt>
      <trkpt lat="43.18908" lon="-0.25535">
        <ele>265.79998779297</ele>
        <time>2025-08-11T09:55:15.000Z</time>
      </trkpt>
      <trkpt lat="43.18917" lon="-0.25543">
        <ele>265.60000610352</ele>
        <time>2025-08-11T09:55:17.000Z</time>
      </trkpt>
      <trkpt lat="43.18924" lon="-0.25547">
        <ele>265.60000610352</ele>
        <time>2025-08-11T09:55:19.000Z</time>
      </trkpt>
      <trkpt lat="43.18942" lon="-0.25549">
        <ele>265.60000610352</ele>
        <time>2025-08-11T09:55:23.000Z</time>
      </trkpt>
      <trkpt lat="43.18979" lon="-0.25553">
        <ele>265.20001220703</ele>
        <time>2025-08-11T09:55:31.000Z</time>
      </trkpt>
      <trkpt lat="43.19" lon="-0.25559">
        <ele>265.39999389648</ele>
        <time>2025-08-11T09:55:36.000Z</time>
      </trkpt>
      <trkpt lat="43.19023" lon="-0.25571">
        <ele>265.39999389648</ele>
        <time>2025-08-11T09:55:41.000Z</time>
      </trkpt>
      <trkpt lat="43.19049" lon="-0.25591">
        <ele>265.39999389648</ele>
        <time>2025-08-11T09:55:45.000Z</time>
      </trkpt>
      <trkpt lat="43.19052" lon="-0.25597">
        <ele>265.39999389648</ele>
        <time>2025-08-11T09:55:46.000Z</time>
      </trkpt>
      <trkpt lat="43.1907" lon="-0.25615">
        <ele>265.20001220703</ele>
        <time>2025-08-11T09:55:51.000Z</time>
      </trkpt>
      <trkpt lat="43.19077" lon="-0.25621">
        <ele>265.20001220703</ele>
        <time>2025-08-11T09:55:53.000Z</time>
      </trkpt>
      <trkpt lat="43.19096" lon="-0.25638">
        <ele>265.20001220703</ele>
        <time>2025-08-11T09:55:58.000Z</time>
      </trkpt>
      <trkpt lat="43.191" lon="-0.25642">
        <ele>265</ele>
        <time>2025-08-11T09:55:59.000Z</time>
      </trkpt>
      <trkpt lat="43.19121" lon="-0.25662">
        <ele>265</ele>
        <time>2025-08-11T09:56:04.000Z</time>
      </trkpt>
      <trkpt lat="43.19124" lon="-0.25667">
        <ele>265</ele>
        <time>2025-08-11T09:56:05.000Z</time>
      </trkpt>
      <trkpt lat="43.19134" lon="-0.25682">
        <ele>264.79998779297</ele>
        <time>2025-08-11T09:56:08.000Z</time>
      </trkpt>
      <trkpt lat="43.19145" lon="-0.25696">
        <ele>264.79998779297</ele>
        <time>2025-08-11T09:56:11.000Z</time>
      </trkpt>
      <trkpt lat="43.19165" lon="-0.25723">
        <ele>264.79998779297</ele>
        <time>2025-08-11T09:56:17.000Z</time>
      </trkpt>
      <trkpt lat="43.19173" lon="-0.2573">
        <ele>264.79998779297</ele>
        <time>2025-08-11T09:56:19.000Z</time>
      </trkpt>
      <trkpt lat="43.1918" lon="-0.25738">
        <ele>265</ele>
        <time>2025-08-11T09:56:21.000Z</time>
      </trkpt>
      <trkpt lat="43.19186" lon="-0.25747">
        <ele>265</ele>
        <time>2025-08-11T09:56:23.000Z</time>
      </trkpt>
      <trkpt lat="43.19201" lon="-0.25779">
        <ele>264.79998779297</ele>
        <time>2025-08-11T09:56:28.000Z</time>
      </trkpt>
      <trkpt lat="43.19219" lon="-0.25794">
        <ele>264.60000610352</ele>
        <time>2025-08-11T09:56:32.000Z</time>
      </trkpt>
      <trkpt lat="43.19231" lon="-0.25802">
        <ele>264.39999389648</ele>
        <time>2025-08-11T09:56:35.000Z</time>
      </trkpt>
      <trkpt lat="43.19239" lon="-0.25809">
        <ele>264.20001220703</ele>
        <time>2025-08-11T09:56:37.000Z</time>
      </trkpt>
      <trkpt lat="43.19257" lon="-0.25821">
        <ele>264.20001220703</ele>
        <time>2025-08-11T09:56:41.000Z</time>
      </trkpt>
      <trkpt lat="43.1927" lon="-0.25828">
        <ele>264</ele>
        <time>2025-08-11T09:56:44.000Z</time>
      </trkpt>
      <trkpt lat="43.19274" lon="-0.2583">
        <ele>264</ele>
        <time>2025-08-11T09:56:45.000Z</time>
      </trkpt>
      <trkpt lat="43.19292" lon="-0.25839">
        <ele>263.79998779297</ele>
        <time>2025-08-11T09:56:49.000Z</time>
      </trkpt>
      <trkpt lat="43.19297" lon="-0.25841">
        <ele>263.79998779297</ele>
        <time>2025-08-11T09:56:50.000Z</time>
      </trkpt>
      <trkpt lat="43.19324" lon="-0.25866">
        <ele>263.79998779297</ele>
        <time>2025-08-11T09:56:57.000Z</time>
      </trkpt>
      <trkpt lat="43.19331" lon="-0.25875">
        <ele>263.79998779297</ele>
        <time>2025-08-11T09:56:59.000Z</time>
      </trkpt>
      <trkpt lat="43.1934" lon="-0.25889">
        <ele>263.79998779297</ele>
        <time>2025-08-11T09:57:02.000Z</time>
      </trkpt>
      <trkpt lat="43.19343" lon="-0.25894">
        <ele>263.79998779297</ele>
        <time>2025-08-11T09:57:03.000Z</time>
      </trkpt>
      <trkpt lat="43.19356" lon="-0.25913">
        <ele>263.60000610352</ele>
        <time>2025-08-11T09:57:07.000Z</time>
      </trkpt>
      <trkpt lat="43.19368" lon="-0.25924">
        <ele>263.60000610352</ele>
        <time>2025-08-11T09:57:10.000Z</time>
      </trkpt>
      <trkpt lat="43.19376" lon="-0.25929">
        <ele>263.39999389648</ele>
        <time>2025-08-11T09:57:12.000Z</time>
      </trkpt>
      <trkpt lat="43.19381" lon="-0.25931">
        <ele>263.39999389648</ele>
        <time>2025-08-11T09:57:13.000Z</time>
      </trkpt>
      <trkpt lat="43.19394" lon="-0.25934">
        <ele>263.20001220703</ele>
        <time>2025-08-11T09:57:16.000Z</time>
      </trkpt>
      <trkpt lat="43.19408" lon="-0.2594">
        <ele>263.20001220703</ele>
        <time>2025-08-11T09:57:19.000Z</time>
      </trkpt>
      <trkpt lat="43.19418" lon="-0.25947">
        <ele>263.20001220703</ele>
        <time>2025-08-11T09:57:21.000Z</time>
      </trkpt>
      <trkpt lat="43.19423" lon="-0.25951">
        <ele>263.20001220703</ele>
        <time>2025-08-11T09:57:22.000Z</time>
      </trkpt>
      <trkpt lat="43.19427" lon="-0.25955">
        <ele>263</ele>
        <time>2025-08-11T09:57:23.000Z</time>
      </trkpt>
      <trkpt lat="43.1945" lon="-0.25987">
        <ele>263.20001220703</ele>
        <time>2025-08-11T09:57:29.000Z</time>
      </trkpt>
      <trkpt lat="43.19454" lon="-0.25991">
        <ele>263.20001220703</ele>
        <time>2025-08-11T09:57:30.000Z</time>
      </trkpt>
      <trkpt lat="43.19463" lon="-0.26008">
        <ele>263.20001220703</ele>
        <time>2025-08-11T09:57:33.000Z</time>
      </trkpt>
      <trkpt lat="43.19464" lon="-0.26014">
        <ele>263</ele>
        <time>2025-08-11T09:57:34.000Z</time>
      </trkpt>
      <trkpt lat="43.19465" lon="-0.26021">
        <ele>263</ele>
        <time>2025-08-11T09:57:35.000Z</time>
      </trkpt>
      <trkpt lat="43.19465" lon="-0.26041">
        <ele>262.60000610352</ele>
        <time>2025-08-11T09:57:38.000Z</time>
      </trkpt>
      <trkpt lat="43.19466" lon="-0.26048">
        <ele>262.60000610352</ele>
        <time>2025-08-11T09:57:39.000Z</time>
      </trkpt>
      <trkpt lat="43.19469" lon="-0.26062">
        <ele>262.39999389648</ele>
        <time>2025-08-11T09:57:41.000Z</time>
      </trkpt>
      <trkpt lat="43.19474" lon="-0.26073">
        <ele>262.39999389648</ele>
        <time>2025-08-11T09:57:43.000Z</time>
      </trkpt>
      <trkpt lat="43.19479" lon="-0.26076">
        <ele>262.39999389648</ele>
        <time>2025-08-11T09:57:44.000Z</time>
      </trkpt>
      <trkpt lat="43.19513" lon="-0.26101">
        <ele>262.20001220703</ele>
        <time>2025-08-11T09:57:52.000Z</time>
      </trkpt>
      <trkpt lat="43.19524" lon="-0.26112">
        <ele>262.20001220703</ele>
        <time>2025-08-11T09:57:55.000Z</time>
      </trkpt>
      <trkpt lat="43.19547" lon="-0.26134">
        <ele>262.20001220703</ele>
        <time>2025-08-11T09:58:01.000Z</time>
      </trkpt>
      <trkpt lat="43.19554" lon="-0.26143">
        <ele>262.20001220703</ele>
        <time>2025-08-11T09:58:03.000Z</time>
      </trkpt>
      <trkpt lat="43.19567" lon="-0.26173">
        <ele>262.20001220703</ele>
        <time>2025-08-11T09:58:08.000Z</time>
      </trkpt>
      <trkpt lat="43.19573" lon="-0.26198">
        <ele>262</ele>
        <time>2025-08-11T09:58:12.000Z</time>
      </trkpt>
      <trkpt lat="43.19575" lon="-0.26203">
        <ele>262</ele>
        <time>2025-08-11T09:58:14.000Z</time>
      </trkpt>
      <trkpt lat="43.19575" lon="-0.26203">
        <ele>261.79998779297</ele>
        <time>2025-08-11T09:58:17.000Z</time>
      </trkpt>
      <trkpt lat="43.19582" lon="-0.26219">
        <ele>261.39999389648</ele>
        <time>2025-08-11T09:59:29.000Z</time>
      </trkpt>
      <trkpt lat="43.19586" lon="-0.26223">
        <ele>261.60000610352</ele>
        <time>2025-08-11T09:59:31.000Z</time>
      </trkpt>
      <trkpt lat="43.19599" lon="-0.26246">
        <ele>261.60000610352</ele>
        <time>2025-08-11T09:59:38.000Z</time>
      </trkpt>
      <trkpt lat="43.19611" lon="-0.26264">
        <ele>261.79998779297</ele>
        <time>2025-08-11T09:59:45.000Z</time>
      </trkpt>
      <trkpt lat="43.19626" lon="-0.26284">
        <ele>261.79998779297</ele>
        <time>2025-08-11T09:59:52.000Z</time>
      </trkpt>
      <trkpt lat="43.19634" lon="-0.26299">
        <ele>261.79998779297</ele>
        <time>2025-08-11T09:59:58.000Z</time>
      </trkpt>
      <trkpt lat="43.19643" lon="-0.26319">
        <ele>261.79998779297</ele>
        <time>2025-08-11T10:00:05.000Z</time>
      </trkpt>
      <trkpt lat="43.19646" lon="-0.26337">
        <ele>261.79998779297</ele>
        <time>2025-08-11T10:00:11.000Z</time>
      </trkpt>
      <trkpt lat="43.19649" lon="-0.2636">
        <ele>261.60000610352</ele>
        <time>2025-08-11T10:00:18.000Z</time>
      </trkpt>
      <trkpt lat="43.19654" lon="-0.26381">
        <ele>261.20001220703</ele>
        <time>2025-08-11T10:00:24.000Z</time>
      </trkpt>
      <trkpt lat="43.19667" lon="-0.26402">
        <ele>261.20001220703</ele>
        <time>2025-08-11T10:00:31.000Z</time>
      </trkpt>
      <trkpt lat="43.19668" lon="-0.26403">
        <ele>261.20001220703</ele>
        <time>2025-08-11T10:00:32.000Z</time>
      </trkpt>
      <trkpt lat="43.19672" lon="-0.26401">
        <ele>261.20001220703</ele>
        <time>2025-08-11T10:00:34.000Z</time>
      </trkpt>
      <trkpt lat="43.19685" lon="-0.26407">
        <ele>261</ele>
        <time>2025-08-11T10:00:40.000Z</time>
      </trkpt>
      <trkpt lat="43.19706" lon="-0.26417">
        <ele>261.20001220703</ele>
        <time>2025-08-11T10:00:48.000Z</time>
      </trkpt>
      <trkpt lat="43.19728" lon="-0.26422">
        <ele>261.60000610352</ele>
        <time>2025-08-11T10:00:55.000Z</time>
      </trkpt>
      <trkpt lat="43.19747" lon="-0.26429">
        <ele>261.60000610352</ele>
        <time>2025-08-11T10:01:00.000Z</time>
      </trkpt>
      <trkpt lat="43.19773" lon="-0.26437">
        <ele>261.60000610352</ele>
        <time>2025-08-11T10:01:06.000Z</time>
      </trkpt>
      <trkpt lat="43.19803" lon="-0.26442">
        <ele>261.39999389648</ele>
        <time>2025-08-11T10:01:13.000Z</time>
      </trkpt>
      <trkpt lat="43.19823" lon="-0.26441">
        <ele>261.79998779297</ele>
        <time>2025-08-11T10:01:19.000Z</time>
      </trkpt>
      <trkpt lat="43.19853" lon="-0.26439">
        <ele>262.60000610352</ele>
        <time>2025-08-11T10:01:27.000Z</time>
      </trkpt>
      <trkpt lat="43.19877" lon="-0.26439">
        <ele>262.79998779297</ele>
        <time>2025-08-11T10:01:34.000Z</time>
      </trkpt>
      <trkpt lat="43.1988" lon="-0.2644">
        <ele>263</ele>
        <time>2025-08-11T10:01:35.000Z</time>
      </trkpt>
      <trkpt lat="43.19898" lon="-0.26434">
        <ele>263.39999389648</ele>
        <time>2025-08-11T10:01:41.000Z</time>
      </trkpt>
      <trkpt lat="43.19915" lon="-0.26426">
        <ele>263.39999389648</ele>
        <time>2025-08-11T10:01:45.000Z</time>
      </trkpt>
      <trkpt lat="43.19919" lon="-0.26426">
        <ele>263.20001220703</ele>
        <time>2025-08-11T10:01:46.000Z</time>
      </trkpt>
      <trkpt lat="43.19948" lon="-0.26426">
        <ele>262.60000610352</ele>
        <time>2025-08-11T10:01:52.000Z</time>
      </trkpt>
      <trkpt lat="43.19968" lon="-0.26429">
        <ele>262.20001220703</ele>
        <time>2025-08-11T10:01:56.000Z</time>
      </trkpt>
      <trkpt lat="43.19977" lon="-0.26432">
        <ele>262.20001220703</ele>
        <time>2025-08-11T10:01:58.000Z</time>
      </trkpt>
      <trkpt lat="43.20002" lon="-0.26436">
        <ele>262</ele>
        <time>2025-08-11T10:02:03.000Z</time>
      </trkpt>
      <trkpt lat="43.20024" lon="-0.26441">
        <ele>261.60000610352</ele>
        <time>2025-08-11T10:02:07.000Z</time>
      </trkpt>
      <trkpt lat="43.20038" lon="-0.26445">
        <ele>261.60000610352</ele>
        <time>2025-08-11T10:02:10.000Z</time>
      </trkpt>
      <trkpt lat="43.20041" lon="-0.26446">
        <ele>261.60000610352</ele>
        <time>2025-08-11T10:02:12.000Z</time>
      </trkpt>
      <trkpt lat="43.20041" lon="-0.26446">
        <ele>261.60000610352</ele>
        <time>2025-08-11T10:02:13.000Z</time>
      </trkpt>
      <trkpt lat="43.20061" lon="-0.26449">
        <ele>263</ele>
        <time>2025-08-11T10:45:53.000Z</time>
      </trkpt>
      <trkpt lat="43.20065" lon="-0.26449">
        <ele>263</ele>
        <time>2025-08-11T10:45:55.000Z</time>
      </trkpt>
      <trkpt lat="43.20078" lon="-0.26452">
        <ele>263</ele>
        <time>2025-08-11T10:46:00.000Z</time>
      </trkpt>
      <trkpt lat="43.20094" lon="-0.26455">
        <ele>262.79998779297</ele>
        <time>2025-08-11T10:46:06.000Z</time>
      </trkpt>
      <trkpt lat="43.20111" lon="-0.26458">
        <ele>263</ele>
        <time>2025-08-11T10:46:12.000Z</time>
      </trkpt>
      <trkpt lat="43.20132" lon="-0.26462">
        <ele>263.39999389648</ele>
        <time>2025-08-11T10:46:19.000Z</time>
      </trkpt>
      <trkpt lat="43.20151" lon="-0.26467">
        <ele>263.79998779297</ele>
        <time>2025-08-11T10:46:26.000Z</time>
      </trkpt>
      <trkpt lat="43.20174" lon="-0.26473">
        <ele>264</ele>
        <time>2025-08-11T10:46:32.000Z</time>
      </trkpt>
      <trkpt lat="43.20179" lon="-0.26474">
        <ele>264</ele>
        <time>2025-08-11T10:46:33.000Z</time>
      </trkpt>
      <trkpt lat="43.20195" lon="-0.26475">
        <ele>263.79998779297</ele>
        <time>2025-08-11T10:46:36.000Z</time>
      </trkpt>
      <trkpt lat="43.20201" lon="-0.26475">
        <ele>263.79998779297</ele>
        <time>2025-08-11T10:46:37.000Z</time>
      </trkpt>
      <trkpt lat="43.20214" lon="-0.26477">
        <ele>263.60000610352</ele>
        <time>2025-08-11T10:46:39.000Z</time>
      </trkpt>
      <trkpt lat="43.20226" lon="-0.26484">
        <ele>263.20001220703</ele>
        <time>2025-08-11T10:46:41.000Z</time>
      </trkpt>
      <trkpt lat="43.20258" lon="-0.26512">
        <ele>262.20001220703</ele>
        <time>2025-08-11T10:46:47.000Z</time>
      </trkpt>
      <trkpt lat="43.20262" lon="-0.26516">
        <ele>262.20001220703</ele>
        <time>2025-08-11T10:46:48.000Z</time>
      </trkpt>
      <trkpt lat="43.20276" lon="-0.26531">
        <ele>262</ele>
        <time>2025-08-11T10:46:51.000Z</time>
      </trkpt>
      <trkpt lat="43.20283" lon="-0.26543">
        <ele>262</ele>
        <time>2025-08-11T10:46:53.000Z</time>
      </trkpt>
      <trkpt lat="43.20285" lon="-0.2655">
        <ele>261.79998779297</ele>
        <time>2025-08-11T10:46:54.000Z</time>
      </trkpt>
      <trkpt lat="43.20285" lon="-0.26555">
        <ele>261.79998779297</ele>
        <time>2025-08-11T10:46:55.000Z</time>
      </trkpt>
      <trkpt lat="43.20284" lon="-0.26562">
        <ele>261.79998779297</ele>
        <time>2025-08-11T10:46:56.000Z</time>
      </trkpt>
      <trkpt lat="43.2028" lon="-0.26567">
        <ele>261.79998779297</ele>
        <time>2025-08-11T10:46:57.000Z</time>
      </trkpt>
      <trkpt lat="43.20269" lon="-0.26574">
        <ele>261.60000610352</ele>
        <time>2025-08-11T10:46:59.000Z</time>
      </trkpt>
      <trkpt lat="43.20254" lon="-0.26577">
        <ele>261.39999389648</ele>
        <time>2025-08-11T10:47:02.000Z</time>
      </trkpt>
      <trkpt lat="43.20249" lon="-0.26577">
        <ele>261.20001220703</ele>
        <time>2025-08-11T10:47:03.000Z</time>
      </trkpt>
      <trkpt lat="43.20209" lon="-0.26581">
        <ele>260.60000610352</ele>
        <time>2025-08-11T10:47:10.000Z</time>
      </trkpt>
      <trkpt lat="43.202" lon="-0.26587">
        <ele>260.60000610352</ele>
        <time>2025-08-11T10:47:12.000Z</time>
      </trkpt>
      <trkpt lat="43.20197" lon="-0.26591">
        <ele>260.60000610352</ele>
        <time>2025-08-11T10:47:13.000Z</time>
      </trkpt>
      <trkpt lat="43.20194" lon="-0.26596">
        <ele>260.39999389648</ele>
        <time>2025-08-11T10:47:14.000Z</time>
      </trkpt>
      <trkpt lat="43.20188" lon="-0.26606">
        <ele>260.39999389648</ele>
        <time>2025-08-11T10:47:16.000Z</time>
      </trkpt>
      <trkpt lat="43.2018" lon="-0.26612">
        <ele>260.60000610352</ele>
        <time>2025-08-11T10:47:18.000Z</time>
      </trkpt>
      <trkpt lat="43.20157" lon="-0.26612">
        <ele>260.60000610352</ele>
        <time>2025-08-11T10:47:23.000Z</time>
      </trkpt>
      <trkpt lat="43.2013" lon="-0.26624">
        <ele>260.39999389648</ele>
        <time>2025-08-11T10:47:29.000Z</time>
      </trkpt>
      <trkpt lat="43.20125" lon="-0.26624">
        <ele>260.20001220703</ele>
        <time>2025-08-11T10:47:30.000Z</time>
      </trkpt>
      <trkpt lat="43.20121" lon="-0.26624">
        <ele>260.20001220703</ele>
        <time>2025-08-11T10:47:31.000Z</time>
      </trkpt>
      <trkpt lat="43.20112" lon="-0.2662">
        <ele>260.20001220703</ele>
        <time>2025-08-11T10:47:33.000Z</time>
      </trkpt>
      <trkpt lat="43.20105" lon="-0.26615">
        <ele>260.39999389648</ele>
        <time>2025-08-11T10:47:35.000Z</time>
      </trkpt>
      <trkpt lat="43.20094" lon="-0.26606">
        <ele>260.39999389648</ele>
        <time>2025-08-11T10:47:38.000Z</time>
      </trkpt>
      <trkpt lat="43.20083" lon="-0.26597">
        <ele>260.39999389648</ele>
        <time>2025-08-11T10:47:41.000Z</time>
      </trkpt>
      <trkpt lat="43.20076" lon="-0.26592">
        <ele>260.60000610352</ele>
        <time>2025-08-11T10:47:43.000Z</time>
      </trkpt>
      <trkpt lat="43.20069" lon="-0.26588">
        <ele>260.79998779297</ele>
        <time>2025-08-11T10:47:45.000Z</time>
      </trkpt>
      <trkpt lat="43.20065" lon="-0.26587">
        <ele>260.79998779297</ele>
        <time>2025-08-11T10:47:46.000Z</time>
      </trkpt>
      <trkpt lat="43.20057" lon="-0.26589">
        <ele>261</ele>
        <time>2025-08-11T10:47:48.000Z</time>
      </trkpt>
      <trkpt lat="43.20052" lon="-0.2659">
        <ele>261</ele>
        <time>2025-08-11T10:47:49.000Z</time>
      </trkpt>
      <trkpt lat="43.20048" lon="-0.26592">
        <ele>261.20001220703</ele>
        <time>2025-08-11T10:47:50.000Z</time>
      </trkpt>
      <trkpt lat="43.2004" lon="-0.26599">
        <ele>261.20001220703</ele>
        <time>2025-08-11T10:47:52.000Z</time>
      </trkpt>
      <trkpt lat="43.20037" lon="-0.26604">
        <ele>261.20001220703</ele>
        <time>2025-08-11T10:47:53.000Z</time>
      </trkpt>
      <trkpt lat="43.2002" lon="-0.26627">
        <ele>261.20001220703</ele>
        <time>2025-08-11T10:47:58.000Z</time>
      </trkpt>
      <trkpt lat="43.20011" lon="-0.26634">
        <ele>261.20001220703</ele>
        <time>2025-08-11T10:48:00.000Z</time>
      </trkpt>
      <trkpt lat="43.19973" lon="-0.26659">
        <ele>260.79998779297</ele>
        <time>2025-08-11T10:48:09.000Z</time>
      </trkpt>
      <trkpt lat="43.19957" lon="-0.26671">
        <ele>260.79998779297</ele>
        <time>2025-08-11T10:48:13.000Z</time>
      </trkpt>
      <trkpt lat="43.19952" lon="-0.26681">
        <ele>260.79998779297</ele>
        <time>2025-08-11T10:48:15.000Z</time>
      </trkpt>
      <trkpt lat="43.19948" lon="-0.26707">
        <ele>260.79998779297</ele>
        <time>2025-08-11T10:48:19.000Z</time>
      </trkpt>
      <trkpt lat="43.19946" lon="-0.26713">
        <ele>260.79998779297</ele>
        <time>2025-08-11T10:48:20.000Z</time>
      </trkpt>
      <trkpt lat="43.19944" lon="-0.26719">
        <ele>260.79998779297</ele>
        <time>2025-08-11T10:48:21.000Z</time>
      </trkpt>
      <trkpt lat="43.19938" lon="-0.26728">
        <ele>260.79998779297</ele>
        <time>2025-08-11T10:48:23.000Z</time>
      </trkpt>
      <trkpt lat="43.19935" lon="-0.26732">
        <ele>260.79998779297</ele>
        <time>2025-08-11T10:48:24.000Z</time>
      </trkpt>
      <trkpt lat="43.19918" lon="-0.26754">
        <ele>260.79998779297</ele>
        <time>2025-08-11T10:48:29.000Z</time>
      </trkpt>
      <trkpt lat="43.19913" lon="-0.26765">
        <ele>260.79998779297</ele>
        <time>2025-08-11T10:48:31.000Z</time>
      </trkpt>
      <trkpt lat="43.19911" lon="-0.26771">
        <ele>260.79998779297</ele>
        <time>2025-08-11T10:48:32.000Z</time>
      </trkpt>
      <trkpt lat="43.19909" lon="-0.26789">
        <ele>261</ele>
        <time>2025-08-11T10:48:36.000Z</time>
      </trkpt>
      <trkpt lat="43.19914" lon="-0.26807">
        <ele>261.20001220703</ele>
        <time>2025-08-11T10:48:41.000Z</time>
      </trkpt>
      <trkpt lat="43.19926" lon="-0.26816">
        <ele>261.39999389648</ele>
        <time>2025-08-11T10:48:45.000Z</time>
      </trkpt>
      <trkpt lat="43.1993" lon="-0.26817">
        <ele>261.39999389648</ele>
        <time>2025-08-11T10:48:46.000Z</time>
      </trkpt>
      <trkpt lat="43.19953" lon="-0.26824">
        <ele>261.39999389648</ele>
        <time>2025-08-11T10:48:52.000Z</time>
      </trkpt>
      <trkpt lat="43.19984" lon="-0.26831">
        <ele>261.39999389648</ele>
        <time>2025-08-11T10:48:59.000Z</time>
      </trkpt>
      <trkpt lat="43.19988" lon="-0.26833">
        <ele>261.39999389648</ele>
        <time>2025-08-11T10:49:00.000Z</time>
      </trkpt>
      <trkpt lat="43.20022" lon="-0.26844">
        <ele>261.20001220703</ele>
        <time>2025-08-11T10:49:07.000Z</time>
      </trkpt>
      <trkpt lat="43.20026" lon="-0.26846">
        <ele>261.20001220703</ele>
        <time>2025-08-11T10:49:08.000Z</time>
      </trkpt>
      <trkpt lat="43.20063" lon="-0.26864">
        <ele>260.79998779297</ele>
        <time>2025-08-11T10:49:16.000Z</time>
      </trkpt>
      <trkpt lat="43.20093" lon="-0.26882">
        <ele>260.79998779297</ele>
        <time>2025-08-11T10:49:23.000Z</time>
      </trkpt>
      <trkpt lat="43.20113" lon="-0.26898">
        <ele>261</ele>
        <time>2025-08-11T10:49:28.000Z</time>
      </trkpt>
      <trkpt lat="43.20116" lon="-0.26903">
        <ele>261</ele>
        <time>2025-08-11T10:49:29.000Z</time>
      </trkpt>
      <trkpt lat="43.20118" lon="-0.26909">
        <ele>261</ele>
        <time>2025-08-11T10:49:30.000Z</time>
      </trkpt>
      <trkpt lat="43.20126" lon="-0.26943">
        <ele>260.60000610352</ele>
        <time>2025-08-11T10:49:35.000Z</time>
      </trkpt>
      <trkpt lat="43.20136" lon="-0.26995">
        <ele>259.79998779297</ele>
        <time>2025-08-11T10:49:43.000Z</time>
      </trkpt>
      <trkpt lat="43.20136" lon="-0.27022">
        <ele>259.60000610352</ele>
        <time>2025-08-11T10:49:47.000Z</time>
      </trkpt>
      <trkpt lat="43.20134" lon="-0.27035">
        <ele>259.39999389648</ele>
        <time>2025-08-11T10:49:49.000Z</time>
      </trkpt>
      <trkpt lat="43.20133" lon="-0.27041">
        <ele>259.39999389648</ele>
        <time>2025-08-11T10:49:50.000Z</time>
      </trkpt>
      <trkpt lat="43.20131" lon="-0.27047">
        <ele>259.39999389648</ele>
        <time>2025-08-11T10:49:51.000Z</time>
      </trkpt>
      <trkpt lat="43.20124" lon="-0.27064">
        <ele>259.39999389648</ele>
        <time>2025-08-11T10:49:54.000Z</time>
      </trkpt>
      <trkpt lat="43.20123" lon="-0.2707">
        <ele>259.39999389648</ele>
        <time>2025-08-11T10:49:55.000Z</time>
      </trkpt>
      <trkpt lat="43.2012" lon="-0.27098">
        <ele>259.60000610352</ele>
        <time>2025-08-11T10:49:59.000Z</time>
      </trkpt>
      <trkpt lat="43.20121" lon="-0.27112">
        <ele>259.60000610352</ele>
        <time>2025-08-11T10:50:01.000Z</time>
      </trkpt>
      <trkpt lat="43.20121" lon="-0.27141">
        <ele>259.39999389648</ele>
        <time>2025-08-11T10:50:05.000Z</time>
      </trkpt>
      <trkpt lat="43.20118" lon="-0.27153">
        <ele>259.39999389648</ele>
        <time>2025-08-11T10:50:07.000Z</time>
      </trkpt>
      <trkpt lat="43.20112" lon="-0.27161">
        <ele>259.39999389648</ele>
        <time>2025-08-11T10:50:09.000Z</time>
      </trkpt>
      <trkpt lat="43.20107" lon="-0.27164">
        <ele>259.39999389648</ele>
        <time>2025-08-11T10:50:10.000Z</time>
      </trkpt>
      <trkpt lat="43.20075" lon="-0.27181">
        <ele>259.79998779297</ele>
        <time>2025-08-11T10:50:18.000Z</time>
      </trkpt>
      <trkpt lat="43.20044" lon="-0.27195">
        <ele>260.39999389648</ele>
        <time>2025-08-11T10:50:26.000Z</time>
      </trkpt>
      <trkpt lat="43.20016" lon="-0.27222">
        <ele>260.20001220703</ele>
        <time>2025-08-11T10:50:34.000Z</time>
      </trkpt>
      <trkpt lat="43.20001" lon="-0.27236">
        <ele>260</ele>
        <time>2025-08-11T10:50:38.000Z</time>
      </trkpt>
      <trkpt lat="43.1999" lon="-0.27244">
        <ele>260.20001220703</ele>
        <time>2025-08-11T10:50:41.000Z</time>
      </trkpt>
      <trkpt lat="43.19979" lon="-0.27254">
        <ele>260.39999389648</ele>
        <time>2025-08-11T10:50:44.000Z</time>
      </trkpt>
      <trkpt lat="43.19966" lon="-0.27269">
        <ele>260.39999389648</ele>
        <time>2025-08-11T10:50:48.000Z</time>
      </trkpt>
      <trkpt lat="43.19941" lon="-0.2731">
        <ele>260.39999389648</ele>
        <time>2025-08-11T10:50:57.000Z</time>
      </trkpt>
      <trkpt lat="43.19915" lon="-0.27343">
        <ele>260.39999389648</ele>
        <time>2025-08-11T10:51:05.000Z</time>
      </trkpt>
      <trkpt lat="43.19889" lon="-0.2737">
        <ele>260.20001220703</ele>
        <time>2025-08-11T10:51:13.000Z</time>
      </trkpt>
      <trkpt lat="43.19889" lon="-0.27379">
        <ele>260.20001220703</ele>
        <time>2025-08-11T10:51:15.000Z</time>
      </trkpt>
      <trkpt lat="43.19892" lon="-0.27383">
        <ele>260.39999389648</ele>
        <time>2025-08-11T10:51:16.000Z</time>
      </trkpt>
      <trkpt lat="43.19919" lon="-0.27414">
        <ele>260.79998779297</ele>
        <time>2025-08-11T10:51:24.000Z</time>
      </trkpt>
      <trkpt lat="43.19927" lon="-0.27422">
        <ele>260.79998779297</ele>
        <time>2025-08-11T10:51:26.000Z</time>
      </trkpt>
      <trkpt lat="43.19961" lon="-0.27462">
        <ele>260.79998779297</ele>
        <time>2025-08-11T10:51:36.000Z</time>
      </trkpt>
      <trkpt lat="43.19988" lon="-0.27495">
        <ele>260.79998779297</ele>
        <time>2025-08-11T10:51:44.000Z</time>
      </trkpt>
      <trkpt lat="43.20018" lon="-0.27527">
        <ele>260.60000610352</ele>
        <time>2025-08-11T10:51:52.000Z</time>
      </trkpt>
      <trkpt lat="43.20022" lon="-0.27531">
        <ele>260.60000610352</ele>
        <time>2025-08-11T10:51:53.000Z</time>
      </trkpt>
      <trkpt lat="43.20036" lon="-0.27545">
        <ele>260.20001220703</ele>
        <time>2025-08-11T10:51:57.000Z</time>
      </trkpt>
      <trkpt lat="43.2004" lon="-0.27549">
        <ele>260.20001220703</ele>
        <time>2025-08-11T10:51:58.000Z</time>
      </trkpt>
      <trkpt lat="43.20048" lon="-0.27546">
        <ele>260</ele>
        <time>2025-08-11T10:52:00.000Z</time>
      </trkpt>
      <trkpt lat="43.20058" lon="-0.27537">
        <ele>260</ele>
        <time>2025-08-11T10:52:03.000Z</time>
      </trkpt>
      <trkpt lat="43.20071" lon="-0.27524">
        <ele>259.60000610352</ele>
        <time>2025-08-11T10:52:07.000Z</time>
      </trkpt>
      <trkpt lat="43.201" lon="-0.27496">
        <ele>259</ele>
        <time>2025-08-11T10:52:15.000Z</time>
      </trkpt>
      <trkpt lat="43.20116" lon="-0.27475">
        <ele>258.60000610352</ele>
        <time>2025-08-11T10:52:19.000Z</time>
      </trkpt>
      <trkpt lat="43.20121" lon="-0.27471">
        <ele>258.39999389648</ele>
        <time>2025-08-11T10:52:20.000Z</time>
      </trkpt>
      <trkpt lat="43.20152" lon="-0.27445">
        <ele>257.60000610352</ele>
        <time>2025-08-11T10:52:27.000Z</time>
      </trkpt>
      <trkpt lat="43.20189" lon="-0.27413">
        <ele>257.39999389648</ele>
        <time>2025-08-11T10:52:36.000Z</time>
      </trkpt>
      <trkpt lat="43.20198" lon="-0.27409">
        <ele>257.39999389648</ele>
        <time>2025-08-11T10:52:38.000Z</time>
      </trkpt>
      <trkpt lat="43.20206" lon="-0.27409">
        <ele>257.39999389648</ele>
        <time>2025-08-11T10:52:40.000Z</time>
      </trkpt>
      <trkpt lat="43.20209" lon="-0.27417">
        <ele>257.39999389648</ele>
        <time>2025-08-11T10:52:42.000Z</time>
      </trkpt>
      <trkpt lat="43.20209" lon="-0.27423">
        <ele>257.60000610352</ele>
        <time>2025-08-11T10:52:43.000Z</time>
      </trkpt>
      <trkpt lat="43.20215" lon="-0.27468">
        <ele>258</ele>
        <time>2025-08-11T10:52:50.000Z</time>
      </trkpt>
      <trkpt lat="43.20219" lon="-0.27517">
        <ele>258</ele>
        <time>2025-08-11T10:52:57.000Z</time>
      </trkpt>
      <trkpt lat="43.20224" lon="-0.27559">
        <ele>257.79998779297</ele>
        <time>2025-08-11T10:53:03.000Z</time>
      </trkpt>
      <trkpt lat="43.20224" lon="-0.27566">
        <ele>257.79998779297</ele>
        <time>2025-08-11T10:53:04.000Z</time>
      </trkpt>
      <trkpt lat="43.20222" lon="-0.27574">
        <ele>257.60000610352</ele>
        <time>2025-08-11T10:53:05.000Z</time>
      </trkpt>
      <trkpt lat="43.20219" lon="-0.27589">
        <ele>257.60000610352</ele>
        <time>2025-08-11T10:53:07.000Z</time>
      </trkpt>
      <trkpt lat="43.20219" lon="-0.27596">
        <ele>257.60000610352</ele>
        <time>2025-08-11T10:53:08.000Z</time>
      </trkpt>
      <trkpt lat="43.20222" lon="-0.27602">
        <ele>257.60000610352</ele>
        <time>2025-08-11T10:53:09.000Z</time>
      </trkpt>
      <trkpt lat="43.20229" lon="-0.27609">
        <ele>257.60000610352</ele>
        <time>2025-08-11T10:53:11.000Z</time>
      </trkpt>
      <trkpt lat="43.20257" lon="-0.27625">
        <ele>257.60000610352</ele>
        <time>2025-08-11T10:53:17.000Z</time>
      </trkpt>
      <trkpt lat="43.20279" lon="-0.27633">
        <ele>257.79998779297</ele>
        <time>2025-08-11T10:53:22.000Z</time>
      </trkpt>
      <trkpt lat="43.20287" lon="-0.27637">
        <ele>257.79998779297</ele>
        <time>2025-08-11T10:53:24.000Z</time>
      </trkpt>
      <trkpt lat="43.20294" lon="-0.27642">
        <ele>258</ele>
        <time>2025-08-11T10:53:26.000Z</time>
      </trkpt>
      <trkpt lat="43.20304" lon="-0.27654">
        <ele>258</ele>
        <time>2025-08-11T10:53:29.000Z</time>
      </trkpt>
      <trkpt lat="43.20323" lon="-0.27673">
        <ele>258.20001220703</ele>
        <time>2025-08-11T10:53:34.000Z</time>
      </trkpt>
      <trkpt lat="43.20331" lon="-0.27681">
        <ele>258.20001220703</ele>
        <time>2025-08-11T10:53:36.000Z</time>
      </trkpt>
      <trkpt lat="43.20355" lon="-0.27712">
        <ele>258.20001220703</ele>
        <time>2025-08-11T10:53:43.000Z</time>
      </trkpt>
      <trkpt lat="43.20369" lon="-0.27734">
        <ele>258.20001220703</ele>
        <time>2025-08-11T10:53:47.000Z</time>
      </trkpt>
      <trkpt lat="43.20388" lon="-0.27776">
        <ele>258</ele>
        <time>2025-08-11T10:53:54.000Z</time>
      </trkpt>
      <trkpt lat="43.2039" lon="-0.27781">
        <ele>258</ele>
        <time>2025-08-11T10:53:55.000Z</time>
      </trkpt>
      <trkpt lat="43.20391" lon="-0.27793">
        <ele>258</ele>
        <time>2025-08-11T10:53:58.000Z</time>
      </trkpt>
      <trkpt lat="43.2039" lon="-0.27801">
        <ele>258</ele>
        <time>2025-08-11T10:54:01.000Z</time>
      </trkpt>
      <trkpt lat="43.20387" lon="-0.27805">
        <ele>258.39999389648</ele>
        <time>2025-08-11T10:54:03.000Z</time>
      </trkpt>
      <trkpt lat="43.20384" lon="-0.2781">
        <ele>258.79998779297</ele>
        <time>2025-08-11T10:54:05.000Z</time>
      </trkpt>
      <trkpt lat="43.20376" lon="-0.27822">
        <ele>259.39999389648</ele>
        <time>2025-08-11T10:54:10.000Z</time>
      </trkpt>
      <trkpt lat="43.20368" lon="-0.27838">
        <ele>260</ele>
        <time>2025-08-11T10:54:16.000Z</time>
      </trkpt>
      <trkpt lat="43.20364" lon="-0.27846">
        <ele>260.39999389648</ele>
        <time>2025-08-11T10:54:19.000Z</time>
      </trkpt>
      <trkpt lat="43.20357" lon="-0.27862">
        <ele>261.20001220703</ele>
        <time>2025-08-11T10:54:25.000Z</time>
      </trkpt>
      <trkpt lat="43.20353" lon="-0.2787">
        <ele>261.39999389648</ele>
        <time>2025-08-11T10:54:28.000Z</time>
      </trkpt>
      <trkpt lat="43.20346" lon="-0.2788">
        <ele>262.39999389648</ele>
        <time>2025-08-11T10:54:33.000Z</time>
      </trkpt>
      <trkpt lat="43.20343" lon="-0.27885">
        <ele>262.60000610352</ele>
        <time>2025-08-11T10:54:35.000Z</time>
      </trkpt>
      <trkpt lat="43.20331" lon="-0.27899">
        <ele>263.60000610352</ele>
        <time>2025-08-11T10:54:42.000Z</time>
      </trkpt>
      <trkpt lat="43.20328" lon="-0.27903">
        <ele>263.79998779297</ele>
        <time>2025-08-11T10:54:44.000Z</time>
      </trkpt>
      <trkpt lat="43.20314" lon="-0.27932">
        <ele>264.39999389648</ele>
        <time>2025-08-11T10:54:55.000Z</time>
      </trkpt>
      <trkpt lat="43.20302" lon="-0.27966">
        <ele>264.39999389648</ele>
        <time>2025-08-11T10:55:04.000Z</time>
      </trkpt>
      <trkpt lat="43.20289" lon="-0.28002">
        <ele>264.60000610352</ele>
        <time>2025-08-11T10:55:12.000Z</time>
      </trkpt>
      <trkpt lat="43.20283" lon="-0.28022">
        <ele>264.60000610352</ele>
        <time>2025-08-11T10:55:16.000Z</time>
      </trkpt>
      <trkpt lat="43.20275" lon="-0.28048">
        <ele>265</ele>
        <time>2025-08-11T10:55:21.000Z</time>
      </trkpt>
      <trkpt lat="43.20269" lon="-0.28063">
        <ele>265</ele>
        <time>2025-08-11T10:55:24.000Z</time>
      </trkpt>
      <trkpt lat="43.20258" lon="-0.28095">
        <ele>265</ele>
        <time>2025-08-11T10:55:30.000Z</time>
      </trkpt>
      <trkpt lat="43.20237" lon="-0.28155">
        <ele>264.79998779297</ele>
        <time>2025-08-11T10:55:41.000Z</time>
      </trkpt>
      <trkpt lat="43.20221" lon="-0.28194">
        <ele>264.79998779297</ele>
        <time>2025-08-11T10:55:49.000Z</time>
      </trkpt>
      <trkpt lat="43.20218" lon="-0.28199">
        <ele>264.79998779297</ele>
        <time>2025-08-11T10:55:50.000Z</time>
      </trkpt>
      <trkpt lat="43.20216" lon="-0.28202">
        <ele>264.79998779297</ele>
        <time>2025-08-11T10:55:51.000Z</time>
      </trkpt>
      <trkpt lat="43.20209" lon="-0.28207">
        <ele>264.79998779297</ele>
        <time>2025-08-11T10:55:53.000Z</time>
      </trkpt>
      <trkpt lat="43.20205" lon="-0.28209">
        <ele>264.79998779297</ele>
        <time>2025-08-11T10:55:54.000Z</time>
      </trkpt>
      <trkpt lat="43.20201" lon="-0.2821">
        <ele>264.79998779297</ele>
        <time>2025-08-11T10:55:55.000Z</time>
      </trkpt>
      <trkpt lat="43.20177" lon="-0.28213">
        <ele>265</ele>
        <time>2025-08-11T10:56:01.000Z</time>
      </trkpt>
      <trkpt lat="43.20169" lon="-0.28217">
        <ele>265</ele>
        <time>2025-08-11T10:56:03.000Z</time>
      </trkpt>
      <trkpt lat="43.20163" lon="-0.28227">
        <ele>265</ele>
        <time>2025-08-11T10:56:05.000Z</time>
      </trkpt>
      <trkpt lat="43.20149" lon="-0.28266">
        <ele>265</ele>
        <time>2025-08-11T10:56:12.000Z</time>
      </trkpt>
      <trkpt lat="43.20138" lon="-0.28296">
        <ele>265</ele>
        <time>2025-08-11T10:56:18.000Z</time>
      </trkpt>
      <trkpt lat="43.20127" lon="-0.28331">
        <ele>264.79998779297</ele>
        <time>2025-08-11T10:56:25.000Z</time>
      </trkpt>
      <trkpt lat="43.20108" lon="-0.2839">
        <ele>264.60000610352</ele>
        <time>2025-08-11T10:56:35.000Z</time>
      </trkpt>
      <trkpt lat="43.20093" lon="-0.28435">
        <ele>264.79998779297</ele>
        <time>2025-08-11T10:56:43.000Z</time>
      </trkpt>
      <trkpt lat="43.20076" lon="-0.28482">
        <ele>265</ele>
        <time>2025-08-11T10:56:52.000Z</time>
      </trkpt>
      <trkpt lat="43.20073" lon="-0.28494">
        <ele>265</ele>
        <time>2025-08-11T10:56:54.000Z</time>
      </trkpt>
      <trkpt lat="43.20063" lon="-0.28521">
        <ele>265.20001220703</ele>
        <time>2025-08-11T10:56:59.000Z</time>
      </trkpt>
      <trkpt lat="43.20041" lon="-0.28579">
        <ele>265.39999389648</ele>
        <time>2025-08-11T10:57:10.000Z</time>
      </trkpt>
      <trkpt lat="43.20037" lon="-0.28588">
        <ele>265.39999389648</ele>
        <time>2025-08-11T10:57:12.000Z</time>
      </trkpt>
      <trkpt lat="43.20039" lon="-0.28592">
        <ele>265.79998779297</ele>
        <time>2025-08-11T10:57:14.000Z</time>
      </trkpt>
      <trkpt lat="43.20057" lon="-0.28595">
        <ele>266</ele>
        <time>2025-08-11T10:57:19.000Z</time>
      </trkpt>
      <trkpt lat="43.20085" lon="-0.28611">
        <ele>265.79998779297</ele>
        <time>2025-08-11T10:57:26.000Z</time>
      </trkpt>
      <trkpt lat="43.20101" lon="-0.28621">
        <ele>265.79998779297</ele>
        <time>2025-08-11T10:57:30.000Z</time>
      </trkpt>
      <trkpt lat="43.20108" lon="-0.28625">
        <ele>265.79998779297</ele>
        <time>2025-08-11T10:57:32.000Z</time>
      </trkpt>
      <trkpt lat="43.20134" lon="-0.28642">
        <ele>265.79998779297</ele>
        <time>2025-08-11T10:57:40.000Z</time>
      </trkpt>
      <trkpt lat="43.20155" lon="-0.28664">
        <ele>265.79998779297</ele>
        <time>2025-08-11T10:57:47.000Z</time>
      </trkpt>
      <trkpt lat="43.20173" lon="-0.28674">
        <ele>265.79998779297</ele>
        <time>2025-08-11T10:57:52.000Z</time>
      </trkpt>
      <trkpt lat="43.20201" lon="-0.28688">
        <ele>266</ele>
        <time>2025-08-11T10:57:59.000Z</time>
      </trkpt>
      <trkpt lat="43.20237" lon="-0.28715">
        <ele>266</ele>
        <time>2025-08-11T10:58:08.000Z</time>
      </trkpt>
      <trkpt lat="43.20265" lon="-0.28738">
        <ele>265.39999389648</ele>
        <time>2025-08-11T10:58:15.000Z</time>
      </trkpt>
      <trkpt lat="43.203" lon="-0.2877">
        <ele>265.39999389648</ele>
        <time>2025-08-11T10:58:24.000Z</time>
      </trkpt>
      <trkpt lat="43.20332" lon="-0.2879">
        <ele>265.39999389648</ele>
        <time>2025-08-11T10:58:32.000Z</time>
      </trkpt>
      <trkpt lat="43.20351" lon="-0.28802">
        <ele>265</ele>
        <time>2025-08-11T10:58:37.000Z</time>
      </trkpt>
      <trkpt lat="43.20359" lon="-0.28807">
        <ele>265</ele>
        <time>2025-08-11T10:58:39.000Z</time>
      </trkpt>
      <trkpt lat="43.20362" lon="-0.2881">
        <ele>264.79998779297</ele>
        <time>2025-08-11T10:58:40.000Z</time>
      </trkpt>
      <trkpt lat="43.20372" lon="-0.28819">
        <ele>264.79998779297</ele>
        <time>2025-08-11T10:58:43.000Z</time>
      </trkpt>
      <trkpt lat="43.20387" lon="-0.2883">
        <ele>264.79998779297</ele>
        <time>2025-08-11T10:58:47.000Z</time>
      </trkpt>
      <trkpt lat="43.20412" lon="-0.28865">
        <ele>264.39999389648</ele>
        <time>2025-08-11T10:58:55.000Z</time>
      </trkpt>
      <trkpt lat="43.20437" lon="-0.28894">
        <ele>264</ele>
        <time>2025-08-11T10:59:02.000Z</time>
      </trkpt>
      <trkpt lat="43.2044" lon="-0.28898">
        <ele>263.79998779297</ele>
        <time>2025-08-11T10:59:03.000Z</time>
      </trkpt>
      <trkpt lat="43.20467" lon="-0.28926">
        <ele>263</ele>
        <time>2025-08-11T10:59:10.000Z</time>
      </trkpt>
      <trkpt lat="43.20471" lon="-0.28929">
        <ele>263</ele>
        <time>2025-08-11T10:59:11.000Z</time>
      </trkpt>
      <trkpt lat="43.20507" lon="-0.28957">
        <ele>262.79998779297</ele>
        <time>2025-08-11T10:59:20.000Z</time>
      </trkpt>
      <trkpt lat="43.20544" lon="-0.28985">
        <ele>263</ele>
        <time>2025-08-11T10:59:29.000Z</time>
      </trkpt>
      <trkpt lat="43.20578" lon="-0.29007">
        <ele>263</ele>
        <time>2025-08-11T10:59:37.000Z</time>
      </trkpt>
      <trkpt lat="43.20622" lon="-0.29033">
        <ele>262.39999389648</ele>
        <time>2025-08-11T10:59:47.000Z</time>
      </trkpt>
      <trkpt lat="43.20663" lon="-0.29063">
        <ele>262.39999389648</ele>
        <time>2025-08-11T10:59:56.000Z</time>
      </trkpt>
      <trkpt lat="43.20668" lon="-0.29067">
        <ele>262.20001220703</ele>
        <time>2025-08-11T10:59:57.000Z</time>
      </trkpt>
      <trkpt lat="43.20677" lon="-0.29074">
        <ele>262</ele>
        <time>2025-08-11T10:59:59.000Z</time>
      </trkpt>
      <trkpt lat="43.20707" lon="-0.29098">
        <ele>261.60000610352</ele>
        <time>2025-08-11T11:00:06.000Z</time>
      </trkpt>
      <trkpt lat="43.20714" lon="-0.29105">
        <ele>261.39999389648</ele>
        <time>2025-08-11T11:00:08.000Z</time>
      </trkpt>
      <trkpt lat="43.20725" lon="-0.29119">
        <ele>261.39999389648</ele>
        <time>2025-08-11T11:00:11.000Z</time>
      </trkpt>
      <trkpt lat="43.20751" lon="-0.29139">
        <ele>261.20001220703</ele>
        <time>2025-08-11T11:00:17.000Z</time>
      </trkpt>
      <trkpt lat="43.20797" lon="-0.29174">
        <ele>261</ele>
        <time>2025-08-11T11:00:28.000Z</time>
      </trkpt>
      <trkpt lat="43.20809" lon="-0.29184">
        <ele>261</ele>
        <time>2025-08-11T11:00:31.000Z</time>
      </trkpt>
      <trkpt lat="43.2082" lon="-0.29194">
        <ele>261</ele>
        <time>2025-08-11T11:00:34.000Z</time>
      </trkpt>
      <trkpt lat="43.20823" lon="-0.29198">
        <ele>261</ele>
        <time>2025-08-11T11:00:35.000Z</time>
      </trkpt>
      <trkpt lat="43.20826" lon="-0.29202">
        <ele>261</ele>
        <time>2025-08-11T11:00:36.000Z</time>
      </trkpt>
      <trkpt lat="43.20833" lon="-0.2921">
        <ele>260.79998779297</ele>
        <time>2025-08-11T11:00:39.000Z</time>
      </trkpt>
      <trkpt lat="43.20855" lon="-0.29224">
        <ele>260.39999389648</ele>
        <time>2025-08-11T11:00:45.000Z</time>
      </trkpt>
      <trkpt lat="43.20889" lon="-0.29242">
        <ele>260</ele>
        <time>2025-08-11T11:00:53.000Z</time>
      </trkpt>
      <trkpt lat="43.20928" lon="-0.29261">
        <ele>259.60000610352</ele>
        <time>2025-08-11T11:01:02.000Z</time>
      </trkpt>
      <trkpt lat="43.20958" lon="-0.29277">
        <ele>259.60000610352</ele>
        <time>2025-08-11T11:01:09.000Z</time>
      </trkpt>
      <trkpt lat="43.20962" lon="-0.29278">
        <ele>259.60000610352</ele>
        <time>2025-08-11T11:01:10.000Z</time>
      </trkpt>
      <trkpt lat="43.20974" lon="-0.29282">
        <ele>259.39999389648</ele>
        <time>2025-08-11T11:01:13.000Z</time>
      </trkpt>
      <trkpt lat="43.20992" lon="-0.29287">
        <ele>259.20001220703</ele>
        <time>2025-08-11T11:01:17.000Z</time>
      </trkpt>
      <trkpt lat="43.21" lon="-0.29288">
        <ele>259.20001220703</ele>
        <time>2025-08-11T11:01:19.000Z</time>
      </trkpt>
      <trkpt lat="43.21031" lon="-0.29292">
        <ele>259</ele>
        <time>2025-08-11T11:01:26.000Z</time>
      </trkpt>
      <trkpt lat="43.21072" lon="-0.29308">
        <ele>259</ele>
        <time>2025-08-11T11:01:35.000Z</time>
      </trkpt>
      <trkpt lat="43.21112" lon="-0.2932">
        <ele>259</ele>
        <time>2025-08-11T11:01:44.000Z</time>
      </trkpt>
      <trkpt lat="43.2116" lon="-0.29336">
        <ele>258.39999389648</ele>
        <time>2025-08-11T11:01:54.000Z</time>
      </trkpt>
      <trkpt lat="43.21177" lon="-0.29345">
        <ele>258.20001220703</ele>
        <time>2025-08-11T11:01:58.000Z</time>
      </trkpt>
      <trkpt lat="43.21185" lon="-0.2935">
        <ele>258</ele>
        <time>2025-08-11T11:02:00.000Z</time>
      </trkpt>
      <trkpt lat="43.21194" lon="-0.29354">
        <ele>258.20001220703</ele>
        <time>2025-08-11T11:02:02.000Z</time>
      </trkpt>
      <trkpt lat="43.21236" lon="-0.2938">
        <ele>257.79998779297</ele>
        <time>2025-08-11T11:02:12.000Z</time>
      </trkpt>
      <trkpt lat="43.21267" lon="-0.29409">
        <ele>257.60000610352</ele>
        <time>2025-08-11T11:02:20.000Z</time>
      </trkpt>
      <trkpt lat="43.21293" lon="-0.2944">
        <ele>257.39999389648</ele>
        <time>2025-08-11T11:02:27.000Z</time>
      </trkpt>
      <trkpt lat="43.21305" lon="-0.29451">
        <ele>256.79998779297</ele>
        <time>2025-08-11T11:02:30.000Z</time>
      </trkpt>
      <trkpt lat="43.21331" lon="-0.29477">
        <ele>256.39999389648</ele>
        <time>2025-08-11T11:02:38.000Z</time>
      </trkpt>
      <trkpt lat="43.21349" lon="-0.29495">
        <ele>256.39999389648</ele>
        <time>2025-08-11T11:02:45.000Z</time>
      </trkpt>
      <trkpt lat="43.21369" lon="-0.29518">
        <ele>256.39999389648</ele>
        <time>2025-08-11T11:02:52.000Z</time>
      </trkpt>
      <trkpt lat="43.21372" lon="-0.29522">
        <ele>256.39999389648</ele>
        <time>2025-08-11T11:02:53.000Z</time>
      </trkpt>
      <trkpt lat="43.21387" lon="-0.2954">
        <ele>256.20001220703</ele>
        <time>2025-08-11T11:02:58.000Z</time>
      </trkpt>
      <trkpt lat="43.21396" lon="-0.29551">
        <ele>256.20001220703</ele>
        <time>2025-08-11T11:03:01.000Z</time>
      </trkpt>
      <trkpt lat="43.21429" lon="-0.29591">
        <ele>256</ele>
        <time>2025-08-11T11:03:12.000Z</time>
      </trkpt>
      <trkpt lat="43.21432" lon="-0.29596">
        <ele>255.80000305176</ele>
        <time>2025-08-11T11:03:13.000Z</time>
      </trkpt>
      <trkpt lat="43.21445" lon="-0.29619">
        <ele>255.80000305176</ele>
        <time>2025-08-11T11:03:18.000Z</time>
      </trkpt>
      <trkpt lat="43.21448" lon="-0.29623">
        <ele>255.80000305176</ele>
        <time>2025-08-11T11:03:19.000Z</time>
      </trkpt>
      <trkpt lat="43.21451" lon="-0.29628">
        <ele>255.80000305176</ele>
        <time>2025-08-11T11:03:20.000Z</time>
      </trkpt>
      <trkpt lat="43.21457" lon="-0.29645">
        <ele>255.80000305176</ele>
        <time>2025-08-11T11:03:23.000Z</time>
      </trkpt>
      <trkpt lat="43.21459" lon="-0.29651">
        <ele>255.60000610352</ele>
        <time>2025-08-11T11:03:24.000Z</time>
      </trkpt>
      <trkpt lat="43.21465" lon="-0.2968">
        <ele>255.19999694824</ele>
        <time>2025-08-11T11:03:29.000Z</time>
      </trkpt>
      <trkpt lat="43.21469" lon="-0.29695">
        <ele>255</ele>
        <time>2025-08-11T11:03:32.000Z</time>
      </trkpt>
      <trkpt lat="43.21481" lon="-0.29708">
        <ele>254.80000305176</ele>
        <time>2025-08-11T11:03:37.000Z</time>
      </trkpt>
      <trkpt lat="43.21498" lon="-0.29729">
        <ele>254.60000610352</ele>
        <time>2025-08-11T11:03:44.000Z</time>
      </trkpt>
      <trkpt lat="43.21507" lon="-0.29742">
        <ele>254.60000610352</ele>
        <time>2025-08-11T11:03:50.000Z</time>
      </trkpt>
      <trkpt lat="43.21507" lon="-0.29743">
        <ele>254.60000610352</ele>
        <time>2025-08-11T11:03:52.000Z</time>
      </trkpt>
      <trkpt lat="43.21511" lon="-0.29736">
        <ele>253.39999389648</ele>
        <time>2025-08-11T11:14:03.000Z</time>
      </trkpt>
      <trkpt lat="43.21512" lon="-0.29733">
        <ele>253.19999694824</ele>
        <time>2025-08-11T11:14:04.000Z</time>
      </trkpt>
      <trkpt lat="43.2152" lon="-0.29715">
        <ele>253</ele>
        <time>2025-08-11T11:14:10.000Z</time>
      </trkpt>
      <trkpt lat="43.21533" lon="-0.29682">
        <ele>253</ele>
        <time>2025-08-11T11:14:19.000Z</time>
      </trkpt>
      <trkpt lat="43.21549" lon="-0.29643">
        <ele>253</ele>
        <time>2025-08-11T11:14:28.000Z</time>
      </trkpt>
      <trkpt lat="43.21562" lon="-0.29624">
        <ele>253</ele>
        <time>2025-08-11T11:14:34.000Z</time>
      </trkpt>
      <trkpt lat="43.21572" lon="-0.29628">
        <ele>253.19999694824</ele>
        <time>2025-08-11T11:14:37.000Z</time>
      </trkpt>
      <trkpt lat="43.21601" lon="-0.29662">
        <ele>253.60000610352</ele>
        <time>2025-08-11T11:14:47.000Z</time>
      </trkpt>
      <trkpt lat="43.21619" lon="-0.29691">
        <ele>253.80000305176</ele>
        <time>2025-08-11T11:14:54.000Z</time>
      </trkpt>
      <trkpt lat="43.21637" lon="-0.29713">
        <ele>253.80000305176</ele>
        <time>2025-08-11T11:15:00.000Z</time>
      </trkpt>
      <trkpt lat="43.2167" lon="-0.29739">
        <ele>253.60000610352</ele>
        <time>2025-08-11T11:15:09.000Z</time>
      </trkpt>
      <trkpt lat="43.21674" lon="-0.29742">
        <ele>253.60000610352</ele>
        <time>2025-08-11T11:15:10.000Z</time>
      </trkpt>
      <trkpt lat="43.21678" lon="-0.29743">
        <ele>253.39999389648</ele>
        <time>2025-08-11T11:15:11.000Z</time>
      </trkpt>
      <trkpt lat="43.21683" lon="-0.29743">
        <ele>253.39999389648</ele>
        <time>2025-08-11T11:15:12.000Z</time>
      </trkpt>
      <trkpt lat="43.2169" lon="-0.29739">
        <ele>253.19999694824</ele>
        <time>2025-08-11T11:15:14.000Z</time>
      </trkpt>
      <trkpt lat="43.2172" lon="-0.29719">
        <ele>252.60000610352</ele>
        <time>2025-08-11T11:15:22.000Z</time>
      </trkpt>
      <trkpt lat="43.21724" lon="-0.29719">
        <ele>252.60000610352</ele>
        <time>2025-08-11T11:15:23.000Z</time>
      </trkpt>
      <trkpt lat="43.21728" lon="-0.2972">
        <ele>252.60000610352</ele>
        <time>2025-08-11T11:15:24.000Z</time>
      </trkpt>
      <trkpt lat="43.21742" lon="-0.2973">
        <ele>252.80000305176</ele>
        <time>2025-08-11T11:15:28.000Z</time>
      </trkpt>
      <trkpt lat="43.21763" lon="-0.29748">
        <ele>252.80000305176</ele>
        <time>2025-08-11T11:15:34.000Z</time>
      </trkpt>
      <trkpt lat="43.21796" lon="-0.29781">
        <ele>252.80000305176</ele>
        <time>2025-08-11T11:15:43.000Z</time>
      </trkpt>
      <trkpt lat="43.21838" lon="-0.29821">
        <ele>252.60000610352</ele>
        <time>2025-08-11T11:15:53.000Z</time>
      </trkpt>
      <trkpt lat="43.21842" lon="-0.29825">
        <ele>252.39999389648</ele>
        <time>2025-08-11T11:15:54.000Z</time>
      </trkpt>
      <trkpt lat="43.21856" lon="-0.29838">
        <ele>252.19999694824</ele>
        <time>2025-08-11T11:15:57.000Z</time>
      </trkpt>
      <trkpt lat="43.21872" lon="-0.29857">
        <ele>251.80000305176</ele>
        <time>2025-08-11T11:16:01.000Z</time>
      </trkpt>
      <trkpt lat="43.21896" lon="-0.29895">
        <ele>251.60000610352</ele>
        <time>2025-08-11T11:16:08.000Z</time>
      </trkpt>
      <trkpt lat="43.21902" lon="-0.29904">
        <ele>251.39999389648</ele>
        <time>2025-08-11T11:16:10.000Z</time>
      </trkpt>
      <trkpt lat="43.21909" lon="-0.29914">
        <ele>251.39999389648</ele>
        <time>2025-08-11T11:16:12.000Z</time>
      </trkpt>
      <trkpt lat="43.21923" lon="-0.29933">
        <ele>251.39999389648</ele>
        <time>2025-08-11T11:16:16.000Z</time>
      </trkpt>
      <trkpt lat="43.21956" lon="-0.29982">
        <ele>251.19999694824</ele>
        <time>2025-08-11T11:16:26.000Z</time>
      </trkpt>
      <trkpt lat="43.2199" lon="-0.30015">
        <ele>251.19999694824</ele>
        <time>2025-08-11T11:16:35.000Z</time>
      </trkpt>
      <trkpt lat="43.22027" lon="-0.30037">
        <ele>251.39999389648</ele>
        <time>2025-08-11T11:16:43.000Z</time>
      </trkpt>
      <trkpt lat="43.22065" lon="-0.30067">
        <ele>251.19999694824</ele>
        <time>2025-08-11T11:16:52.000Z</time>
      </trkpt>
      <trkpt lat="43.221" lon="-0.30095">
        <ele>251.19999694824</ele>
        <time>2025-08-11T11:17:00.000Z</time>
      </trkpt>
      <trkpt lat="43.22113" lon="-0.30104">
        <ele>251.19999694824</ele>
        <time>2025-08-11T11:17:03.000Z</time>
      </trkpt>
      <trkpt lat="43.22127" lon="-0.30112">
        <ele>251</ele>
        <time>2025-08-11T11:17:06.000Z</time>
      </trkpt>
      <trkpt lat="43.22152" lon="-0.3012">
        <ele>250.60000610352</ele>
        <time>2025-08-11T11:17:11.000Z</time>
      </trkpt>
      <trkpt lat="43.22163" lon="-0.30123">
        <ele>250.60000610352</ele>
        <time>2025-08-11T11:17:13.000Z</time>
      </trkpt>
      <trkpt lat="43.22168" lon="-0.30126">
        <ele>250.39999389648</ele>
        <time>2025-08-11T11:17:14.000Z</time>
      </trkpt>
      <trkpt lat="43.22185" lon="-0.30139">
        <ele>250.19999694824</ele>
        <time>2025-08-11T11:17:18.000Z</time>
      </trkpt>
      <trkpt lat="43.22224" lon="-0.30163">
        <ele>250.19999694824</ele>
        <time>2025-08-11T11:17:26.000Z</time>
      </trkpt>
      <trkpt lat="43.22267" lon="-0.3018">
        <ele>250</ele>
        <time>2025-08-11T11:17:35.000Z</time>
      </trkpt>
      <trkpt lat="43.22301" lon="-0.30199">
        <ele>250</ele>
        <time>2025-08-11T11:17:42.000Z</time>
      </trkpt>
      <trkpt lat="43.2234" lon="-0.30221">
        <ele>249.80000305176</ele>
        <time>2025-08-11T11:17:50.000Z</time>
      </trkpt>
      <trkpt lat="43.22345" lon="-0.30223">
        <ele>249.60000610352</ele>
        <time>2025-08-11T11:17:51.000Z</time>
      </trkpt>
      <trkpt lat="43.22373" lon="-0.30237">
        <ele>249.19999694824</ele>
        <time>2025-08-11T11:17:57.000Z</time>
      </trkpt>
      <trkpt lat="43.22425" lon="-0.30262">
        <ele>248.80000305176</ele>
        <time>2025-08-11T11:18:07.000Z</time>
      </trkpt>
      <trkpt lat="43.22435" lon="-0.30266">
        <ele>248.60000610352</ele>
        <time>2025-08-11T11:18:09.000Z</time>
      </trkpt>
      <trkpt lat="43.22445" lon="-0.3027">
        <ele>248.39999389648</ele>
        <time>2025-08-11T11:18:11.000Z</time>
      </trkpt>
      <trkpt lat="43.22494" lon="-0.3029">
        <ele>248</ele>
        <time>2025-08-11T11:18:21.000Z</time>
      </trkpt>
      <trkpt lat="43.2252" lon="-0.30308">
        <ele>248.19999694824</ele>
        <time>2025-08-11T11:18:27.000Z</time>
      </trkpt>
      <trkpt lat="43.22523" lon="-0.30311">
        <ele>248.19999694824</ele>
        <time>2025-08-11T11:18:28.000Z</time>
      </trkpt>
      <trkpt lat="43.22539" lon="-0.30338">
        <ele>247.80000305176</ele>
        <time>2025-08-11T11:18:34.000Z</time>
      </trkpt>
      <trkpt lat="43.22541" lon="-0.30343">
        <ele>247.80000305176</ele>
        <time>2025-08-11T11:18:35.000Z</time>
      </trkpt>
      <trkpt lat="43.22551" lon="-0.30364">
        <ele>247.60000610352</ele>
        <time>2025-08-11T11:18:39.000Z</time>
      </trkpt>
      <trkpt lat="43.22558" lon="-0.30379">
        <ele>247.19999694824</ele>
        <time>2025-08-11T11:18:42.000Z</time>
      </trkpt>
      <trkpt lat="43.22564" lon="-0.30388">
        <ele>247.39999389648</ele>
        <time>2025-08-11T11:18:44.000Z</time>
      </trkpt>
      <trkpt lat="43.22592" lon="-0.30411">
        <ele>247</ele>
        <time>2025-08-11T11:18:51.000Z</time>
      </trkpt>
      <trkpt lat="43.22628" lon="-0.3043">
        <ele>246.80000305176</ele>
        <time>2025-08-11T11:18:59.000Z</time>
      </trkpt>
      <trkpt lat="43.22667" lon="-0.30445">
        <ele>246.80000305176</ele>
        <time>2025-08-11T11:19:08.000Z</time>
      </trkpt>
      <trkpt lat="43.22696" lon="-0.30449">
        <ele>246.60000610352</ele>
        <time>2025-08-11T11:19:14.000Z</time>
      </trkpt>
      <trkpt lat="43.22701" lon="-0.3045">
        <ele>246.60000610352</ele>
        <time>2025-08-11T11:19:15.000Z</time>
      </trkpt>
      <trkpt lat="43.2271" lon="-0.3045">
        <ele>246.39999389648</ele>
        <time>2025-08-11T11:19:17.000Z</time>
      </trkpt>
      <trkpt lat="43.22728" lon="-0.30456">
        <ele>246.19999694824</ele>
        <time>2025-08-11T11:19:21.000Z</time>
      </trkpt>
      <trkpt lat="43.22736" lon="-0.30461">
        <ele>246.19999694824</ele>
        <time>2025-08-11T11:19:23.000Z</time>
      </trkpt>
      <trkpt lat="43.22751" lon="-0.30473">
        <ele>246.19999694824</ele>
        <time>2025-08-11T11:19:27.000Z</time>
      </trkpt>
      <trkpt lat="43.22758" lon="-0.30479">
        <ele>246.19999694824</ele>
        <time>2025-08-11T11:19:29.000Z</time>
      </trkpt>
      <trkpt lat="43.22766" lon="-0.30484">
        <ele>246</ele>
        <time>2025-08-11T11:19:31.000Z</time>
      </trkpt>
      <trkpt lat="43.22774" lon="-0.30487">
        <ele>246</ele>
        <time>2025-08-11T11:19:33.000Z</time>
      </trkpt>
      <trkpt lat="43.22778" lon="-0.30488">
        <ele>246</ele>
        <time>2025-08-11T11:19:34.000Z</time>
      </trkpt>
      <trkpt lat="43.228" lon="-0.30489">
        <ele>246</ele>
        <time>2025-08-11T11:19:39.000Z</time>
      </trkpt>
      <trkpt lat="43.22839" lon="-0.30491">
        <ele>246.19999694824</ele>
        <time>2025-08-11T11:19:48.000Z</time>
      </trkpt>
      <trkpt lat="43.22847" lon="-0.30492">
        <ele>245.80000305176</ele>
        <time>2025-08-11T11:19:50.000Z</time>
      </trkpt>
      <trkpt lat="43.22865" lon="-0.30493">
        <ele>245.80000305176</ele>
        <time>2025-08-11T11:19:54.000Z</time>
      </trkpt>
      <trkpt lat="43.22892" lon="-0.30496">
        <ele>245.80000305176</ele>
        <time>2025-08-11T11:20:00.000Z</time>
      </trkpt>
      <trkpt lat="43.22901" lon="-0.30498">
        <ele>245.60000610352</ele>
        <time>2025-08-11T11:20:02.000Z</time>
      </trkpt>
      <trkpt lat="43.22905" lon="-0.305">
        <ele>245.60000610352</ele>
        <time>2025-08-11T11:20:03.000Z</time>
      </trkpt>
      <trkpt lat="43.22939" lon="-0.30526">
        <ele>245.19999694824</ele>
        <time>2025-08-11T11:20:12.000Z</time>
      </trkpt>
      <trkpt lat="43.22942" lon="-0.30529">
        <ele>245.19999694824</ele>
        <time>2025-08-11T11:20:13.000Z</time>
      </trkpt>
      <trkpt lat="43.22947" lon="-0.30534">
        <ele>245.19999694824</ele>
        <time>2025-08-11T11:20:15.000Z</time>
      </trkpt>
      <trkpt lat="43.22947" lon="-0.30537">
        <ele>245</ele>
        <time>2025-08-11T11:20:16.000Z</time>
      </trkpt>
      <trkpt lat="43.22946" lon="-0.30541">
        <ele>245</ele>
        <time>2025-08-11T11:20:17.000Z</time>
      </trkpt>
      <trkpt lat="43.2294" lon="-0.30552">
        <ele>244.80000305176</ele>
        <time>2025-08-11T11:20:20.000Z</time>
      </trkpt>
      <trkpt lat="43.22925" lon="-0.30582">
        <ele>244</ele>
        <time>2025-08-11T11:20:27.000Z</time>
      </trkpt>
      <trkpt lat="43.22909" lon="-0.30611">
        <ele>243.60000610352</ele>
        <time>2025-08-11T11:20:33.000Z</time>
      </trkpt>
      <trkpt lat="43.22906" lon="-0.30615">
        <ele>243.60000610352</ele>
        <time>2025-08-11T11:20:34.000Z</time>
      </trkpt>
      <trkpt lat="43.22878" lon="-0.30649">
        <ele>243</ele>
        <time>2025-08-11T11:20:42.000Z</time>
      </trkpt>
      <trkpt lat="43.22871" lon="-0.30656">
        <ele>242.80000305176</ele>
        <time>2025-08-11T11:20:44.000Z</time>
      </trkpt>
      <trkpt lat="43.22868" lon="-0.30666">
        <ele>242.39999389648</ele>
        <time>2025-08-11T11:20:46.000Z</time>
      </trkpt>
      <trkpt lat="43.22868" lon="-0.30671">
        <ele>242.39999389648</ele>
        <time>2025-08-11T11:20:47.000Z</time>
      </trkpt>
      <trkpt lat="43.22869" lon="-0.30677">
        <ele>242.39999389648</ele>
        <time>2025-08-11T11:20:48.000Z</time>
      </trkpt>
      <trkpt lat="43.22874" lon="-0.30693">
        <ele>241.39999389648</ele>
        <time>2025-08-11T11:20:51.000Z</time>
      </trkpt>
      <trkpt lat="43.22875" lon="-0.30699">
        <ele>241.39999389648</ele>
        <time>2025-08-11T11:20:52.000Z</time>
      </trkpt>
      <trkpt lat="43.22874" lon="-0.30704">
        <ele>241.19999694824</ele>
        <time>2025-08-11T11:20:53.000Z</time>
      </trkpt>
      <trkpt lat="43.22869" lon="-0.30711">
        <ele>241.19999694824</ele>
        <time>2025-08-11T11:20:55.000Z</time>
      </trkpt>
      <trkpt lat="43.22859" lon="-0.30721">
        <ele>241</ele>
        <time>2025-08-11T11:20:58.000Z</time>
      </trkpt>
      <trkpt lat="43.22856" lon="-0.30725">
        <ele>241</ele>
        <time>2025-08-11T11:20:59.000Z</time>
      </trkpt>
      <trkpt lat="43.22854" lon="-0.30739">
        <ele>241</ele>
        <time>2025-08-11T11:21:02.000Z</time>
      </trkpt>
      <trkpt lat="43.22857" lon="-0.30742">
        <ele>241</ele>
        <time>2025-08-11T11:21:03.000Z</time>
      </trkpt>
      <trkpt lat="43.22874" lon="-0.30751">
        <ele>241.60000610352</ele>
        <time>2025-08-11T11:21:08.000Z</time>
      </trkpt>
      <trkpt lat="43.22913" lon="-0.30755">
        <ele>242.19999694824</ele>
        <time>2025-08-11T11:21:17.000Z</time>
      </trkpt>
      <trkpt lat="43.22923" lon="-0.30755">
        <ele>242.19999694824</ele>
        <time>2025-08-11T11:21:19.000Z</time>
      </trkpt>
      <trkpt lat="43.22934" lon="-0.30751">
        <ele>242.19999694824</ele>
        <time>2025-08-11T11:21:21.000Z</time>
      </trkpt>
      <trkpt lat="43.22945" lon="-0.30751">
        <ele>242.19999694824</ele>
        <time>2025-08-11T11:21:23.000Z</time>
      </trkpt>
      <trkpt lat="43.22957" lon="-0.30753">
        <ele>241.80000305176</ele>
        <time>2025-08-11T11:21:25.000Z</time>
      </trkpt>
      <trkpt lat="43.22998" lon="-0.3076">
        <ele>240.60000610352</ele>
        <time>2025-08-11T11:21:32.000Z</time>
      </trkpt>
      <trkpt lat="43.23015" lon="-0.30762">
        <ele>240.39999389648</ele>
        <time>2025-08-11T11:21:35.000Z</time>
      </trkpt>
      <trkpt lat="43.23036" lon="-0.30763">
        <ele>240.19999694824</ele>
        <time>2025-08-11T11:21:39.000Z</time>
      </trkpt>
      <trkpt lat="43.2308" lon="-0.30758">
        <ele>240.39999389648</ele>
        <time>2025-08-11T11:21:48.000Z</time>
      </trkpt>
      <trkpt lat="43.23089" lon="-0.30756">
        <ele>240.60000610352</ele>
        <time>2025-08-11T11:21:50.000Z</time>
      </trkpt>
      <trkpt lat="43.23104" lon="-0.30752">
        <ele>240.60000610352</ele>
        <time>2025-08-11T11:21:54.000Z</time>
      </trkpt>
      <trkpt lat="43.23108" lon="-0.30751">
        <ele>240.80000305176</ele>
        <time>2025-08-11T11:21:55.000Z</time>
      </trkpt>
      <trkpt lat="43.23121" lon="-0.30749">
        <ele>241.19999694824</ele>
        <time>2025-08-11T11:21:59.000Z</time>
      </trkpt>
      <trkpt lat="43.23127" lon="-0.30747">
        <ele>241.39999389648</ele>
        <time>2025-08-11T11:22:01.000Z</time>
      </trkpt>
      <trkpt lat="43.23142" lon="-0.30745">
        <ele>242</ele>
        <time>2025-08-11T11:22:06.000Z</time>
      </trkpt>
      <trkpt lat="43.23151" lon="-0.30744">
        <ele>242.39999389648</ele>
        <time>2025-08-11T11:22:09.000Z</time>
      </trkpt>
      <trkpt lat="43.23159" lon="-0.30743">
        <ele>243</ele>
        <time>2025-08-11T11:22:12.000Z</time>
      </trkpt>
      <trkpt lat="43.23167" lon="-0.30743">
        <ele>243.60000610352</ele>
        <time>2025-08-11T11:22:15.000Z</time>
      </trkpt>
      <trkpt lat="43.23177" lon="-0.30742">
        <ele>243.80000305176</ele>
        <time>2025-08-11T11:22:19.000Z</time>
      </trkpt>
      <trkpt lat="43.23192" lon="-0.30744">
        <ele>244.60000610352</ele>
        <time>2025-08-11T11:22:25.000Z</time>
      </trkpt>
      <trkpt lat="43.232" lon="-0.30743">
        <ele>244.80000305176</ele>
        <time>2025-08-11T11:22:28.000Z</time>
      </trkpt>
      <trkpt lat="43.2322" lon="-0.30745">
        <ele>245.19999694824</ele>
        <time>2025-08-11T11:22:35.000Z</time>
      </trkpt>
      <trkpt lat="43.2325" lon="-0.30749">
        <ele>245.39999389648</ele>
        <time>2025-08-11T11:22:44.000Z</time>
      </trkpt>
      <trkpt lat="43.23283" lon="-0.30751">
        <ele>245.39999389648</ele>
        <time>2025-08-11T11:22:52.000Z</time>
      </trkpt>
      <trkpt lat="43.23306" lon="-0.30754">
        <ele>245.19999694824</ele>
        <time>2025-08-11T11:22:57.000Z</time>
      </trkpt>
      <trkpt lat="43.23314" lon="-0.30754">
        <ele>245.19999694824</ele>
        <time>2025-08-11T11:22:59.000Z</time>
      </trkpt>
      <trkpt lat="43.23335" lon="-0.30755">
        <ele>245.39999389648</ele>
        <time>2025-08-11T11:23:05.000Z</time>
      </trkpt>
      <trkpt lat="43.23341" lon="-0.30756">
        <ele>245.60000610352</ele>
        <time>2025-08-11T11:23:07.000Z</time>
      </trkpt>
      <trkpt lat="43.23353" lon="-0.30757">
        <ele>246</ele>
        <time>2025-08-11T11:23:11.000Z</time>
      </trkpt>
      <trkpt lat="43.23362" lon="-0.30759">
        <ele>246.60000610352</ele>
        <time>2025-08-11T11:23:14.000Z</time>
      </trkpt>
      <trkpt lat="43.23378" lon="-0.30759">
        <ele>247.39999389648</ele>
        <time>2025-08-11T11:23:20.000Z</time>
      </trkpt>
      <trkpt lat="43.23393" lon="-0.3076">
        <ele>247.60000610352</ele>
        <time>2025-08-11T11:23:25.000Z</time>
      </trkpt>
      <trkpt lat="43.23399" lon="-0.3076">
        <ele>247.80000305176</ele>
        <time>2025-08-11T11:23:27.000Z</time>
      </trkpt>
      <trkpt lat="43.23426" lon="-0.30763">
        <ele>248.60000610352</ele>
        <time>2025-08-11T11:23:36.000Z</time>
      </trkpt>
      <trkpt lat="43.23429" lon="-0.30763">
        <ele>248.80000305176</ele>
        <time>2025-08-11T11:23:37.000Z</time>
      </trkpt>
      <trkpt lat="43.23449" lon="-0.30764">
        <ele>249.19999694824</ele>
        <time>2025-08-11T11:23:44.000Z</time>
      </trkpt>
      <trkpt lat="43.23466" lon="-0.30767">
        <ele>249.80000305176</ele>
        <time>2025-08-11T11:23:50.000Z</time>
      </trkpt>
      <trkpt lat="43.23474" lon="-0.3077">
        <ele>250</ele>
        <time>2025-08-11T11:23:53.000Z</time>
      </trkpt>
      <trkpt lat="43.23502" lon="-0.30775">
        <ele>250.80000305176</ele>
        <time>2025-08-11T11:24:03.000Z</time>
      </trkpt>
      <trkpt lat="43.23507" lon="-0.30776">
        <ele>251</ele>
        <time>2025-08-11T11:24:05.000Z</time>
      </trkpt>
      <trkpt lat="43.23521" lon="-0.30777">
        <ele>251.39999389648</ele>
        <time>2025-08-11T11:24:10.000Z</time>
      </trkpt>
      <trkpt lat="43.23536" lon="-0.30778">
        <ele>252.19999694824</ele>
        <time>2025-08-11T11:24:16.000Z</time>
      </trkpt>
      <trkpt lat="43.23539" lon="-0.30779">
        <ele>252.19999694824</ele>
        <time>2025-08-11T11:24:17.000Z</time>
      </trkpt>
      <trkpt lat="43.2356" lon="-0.30778">
        <ele>253.19999694824</ele>
        <time>2025-08-11T11:24:26.000Z</time>
      </trkpt>
      <trkpt lat="43.2358" lon="-0.30779">
        <ele>253.80000305176</ele>
        <time>2025-08-11T11:24:34.000Z</time>
      </trkpt>
      <trkpt lat="43.23588" lon="-0.30781">
        <ele>254.19999694824</ele>
        <time>2025-08-11T11:24:37.000Z</time>
      </trkpt>
      <trkpt lat="43.23598" lon="-0.30787">
        <ele>254.60000610352</ele>
        <time>2025-08-11T11:24:41.000Z</time>
      </trkpt>
      <trkpt lat="43.23612" lon="-0.30797">
        <ele>255.19999694824</ele>
        <time>2025-08-11T11:24:47.000Z</time>
      </trkpt>
      <trkpt lat="43.23615" lon="-0.30798">
        <ele>255.19999694824</ele>
        <time>2025-08-11T11:24:48.000Z</time>
      </trkpt>
      <trkpt lat="43.23648" lon="-0.30815">
        <ele>255.80000305176</ele>
        <time>2025-08-11T11:25:00.000Z</time>
      </trkpt>
      <trkpt lat="43.23671" lon="-0.30813">
        <ele>255.80000305176</ele>
        <time>2025-08-11T11:25:06.000Z</time>
      </trkpt>
      <trkpt lat="43.23694" lon="-0.30805">
        <ele>255.60000610352</ele>
        <time>2025-08-11T11:25:11.000Z</time>
      </trkpt>
      <trkpt lat="43.23704" lon="-0.30801">
        <ele>255.60000610352</ele>
        <time>2025-08-11T11:25:13.000Z</time>
      </trkpt>
      <trkpt lat="43.2372" lon="-0.30794">
        <ele>255</ele>
        <time>2025-08-11T11:25:16.000Z</time>
      </trkpt>
      <trkpt lat="43.23752" lon="-0.30781">
        <ele>254</ele>
        <time>2025-08-11T11:25:21.000Z</time>
      </trkpt>
      <trkpt lat="43.23758" lon="-0.30779">
        <ele>253.80000305176</ele>
        <time>2025-08-11T11:25:22.000Z</time>
      </trkpt>
      <trkpt lat="43.23787" lon="-0.30778">
        <ele>253</ele>
        <time>2025-08-11T11:25:26.000Z</time>
      </trkpt>
      <trkpt lat="43.238" lon="-0.30779">
        <ele>252.60000610352</ele>
        <time>2025-08-11T11:25:28.000Z</time>
      </trkpt>
      <trkpt lat="43.23818" lon="-0.30784">
        <ele>251.80000305176</ele>
        <time>2025-08-11T11:25:31.000Z</time>
      </trkpt>
      <trkpt lat="43.23835" lon="-0.30792">
        <ele>251.19999694824</ele>
        <time>2025-08-11T11:25:34.000Z</time>
      </trkpt>
      <trkpt lat="43.23868" lon="-0.30817">
        <ele>250.80000305176</ele>
        <time>2025-08-11T11:25:41.000Z</time>
      </trkpt>
      <trkpt lat="43.23872" lon="-0.30821">
        <ele>250.60000610352</ele>
        <time>2025-08-11T11:25:42.000Z</time>
      </trkpt>
      <trkpt lat="43.23905" lon="-0.3085">
        <ele>249.60000610352</ele>
        <time>2025-08-11T11:25:50.000Z</time>
      </trkpt>
      <trkpt lat="43.23932" lon="-0.30867">
        <ele>249.19999694824</ele>
        <time>2025-08-11T11:25:55.000Z</time>
      </trkpt>
      <trkpt lat="43.2396" lon="-0.30881">
        <ele>248.60000610352</ele>
        <time>2025-08-11T11:25:59.000Z</time>
      </trkpt>
      <trkpt lat="43.23976" lon="-0.30889">
        <ele>248.19999694824</ele>
        <time>2025-08-11T11:26:01.000Z</time>
      </trkpt>
      <trkpt lat="43.23994" lon="-0.30898">
        <ele>247.39999389648</ele>
        <time>2025-08-11T11:26:03.000Z</time>
      </trkpt>
      <trkpt lat="43.24002" lon="-0.30902">
        <ele>247</ele>
        <time>2025-08-11T11:26:04.000Z</time>
      </trkpt>
      <trkpt lat="43.24018" lon="-0.30909">
        <ele>246.39999389648</ele>
        <time>2025-08-11T11:26:06.000Z</time>
      </trkpt>
      <trkpt lat="43.24034" lon="-0.30918">
        <ele>246</ele>
        <time>2025-08-11T11:26:08.000Z</time>
      </trkpt>
      <trkpt lat="43.24049" lon="-0.30926">
        <ele>245.39999389648</ele>
        <time>2025-08-11T11:26:10.000Z</time>
      </trkpt>
      <trkpt lat="43.24076" lon="-0.3094">
        <ele>244.39999389648</ele>
        <time>2025-08-11T11:26:14.000Z</time>
      </trkpt>
      <trkpt lat="43.24089" lon="-0.30946">
        <ele>244.19999694824</ele>
        <time>2025-08-11T11:26:16.000Z</time>
      </trkpt>
      <trkpt lat="43.2412" lon="-0.30962">
        <ele>244</ele>
        <time>2025-08-11T11:26:21.000Z</time>
      </trkpt>
      <trkpt lat="43.24162" lon="-0.30984">
        <ele>243.60000610352</ele>
        <time>2025-08-11T11:26:28.000Z</time>
      </trkpt>
      <trkpt lat="43.24184" lon="-0.31">
        <ele>243</ele>
        <time>2025-08-11T11:26:32.000Z</time>
      </trkpt>
      <trkpt lat="43.24195" lon="-0.3101">
        <ele>242.60000610352</ele>
        <time>2025-08-11T11:26:34.000Z</time>
      </trkpt>
      <trkpt lat="43.24201" lon="-0.31017">
        <ele>242.39999389648</ele>
        <time>2025-08-11T11:26:35.000Z</time>
      </trkpt>
      <trkpt lat="43.24213" lon="-0.31033">
        <ele>241.80000305176</ele>
        <time>2025-08-11T11:26:37.000Z</time>
      </trkpt>
      <trkpt lat="43.24219" lon="-0.3104">
        <ele>241.60000610352</ele>
        <time>2025-08-11T11:26:38.000Z</time>
      </trkpt>
      <trkpt lat="43.24227" lon="-0.31047">
        <ele>240.80000305176</ele>
        <time>2025-08-11T11:26:39.000Z</time>
      </trkpt>
      <trkpt lat="43.24236" lon="-0.31053">
        <ele>240.19999694824</ele>
        <time>2025-08-11T11:26:40.000Z</time>
      </trkpt>
      <trkpt lat="43.24254" lon="-0.31062">
        <ele>239.19999694824</ele>
        <time>2025-08-11T11:26:42.000Z</time>
      </trkpt>
      <trkpt lat="43.24264" lon="-0.31064">
        <ele>239</ele>
        <time>2025-08-11T11:26:43.000Z</time>
      </trkpt>
      <trkpt lat="43.24282" lon="-0.31066">
        <ele>238.19999694824</ele>
        <time>2025-08-11T11:26:45.000Z</time>
      </trkpt>
      <trkpt lat="43.24299" lon="-0.31066">
        <ele>237</ele>
        <time>2025-08-11T11:26:47.000Z</time>
      </trkpt>
      <trkpt lat="43.24307" lon="-0.31067">
        <ele>236.80000305176</ele>
        <time>2025-08-11T11:26:48.000Z</time>
      </trkpt>
      <trkpt lat="43.24325" lon="-0.3107">
        <ele>236</ele>
        <time>2025-08-11T11:26:51.000Z</time>
      </trkpt>
      <trkpt lat="43.2433" lon="-0.31068">
        <ele>235.80000305176</ele>
        <time>2025-08-11T11:26:52.000Z</time>
      </trkpt>
      <trkpt lat="43.24332" lon="-0.31065">
        <ele>235.60000610352</ele>
        <time>2025-08-11T11:26:53.000Z</time>
      </trkpt>
      <trkpt lat="43.24337" lon="-0.31049">
        <ele>235.19999694824</ele>
        <time>2025-08-11T11:26:55.000Z</time>
      </trkpt>
      <trkpt lat="43.24339" lon="-0.31042">
        <ele>234.80000305176</ele>
        <time>2025-08-11T11:26:56.000Z</time>
      </trkpt>
      <trkpt lat="43.24345" lon="-0.31017">
        <ele>234.19999694824</ele>
        <time>2025-08-11T11:26:59.000Z</time>
      </trkpt>
      <trkpt lat="43.24347" lon="-0.3101">
        <ele>233.80000305176</ele>
        <time>2025-08-11T11:27:00.000Z</time>
      </trkpt>
      <trkpt lat="43.24351" lon="-0.30995">
        <ele>233.39999389648</ele>
        <time>2025-08-11T11:27:02.000Z</time>
      </trkpt>
      <trkpt lat="43.24352" lon="-0.30987">
        <ele>232.80000305176</ele>
        <time>2025-08-11T11:27:03.000Z</time>
      </trkpt>
      <trkpt lat="43.24352" lon="-0.30974">
        <ele>232.39999389648</ele>
        <time>2025-08-11T11:27:05.000Z</time>
      </trkpt>
      <trkpt lat="43.24351" lon="-0.30966">
        <ele>231.80000305176</ele>
        <time>2025-08-11T11:27:08.000Z</time>
      </trkpt>
      <trkpt lat="43.2435" lon="-0.30962">
        <ele>231.80000305176</ele>
        <time>2025-08-11T11:27:10.000Z</time>
      </trkpt>
      <trkpt lat="43.24352" lon="-0.30958">
        <ele>231.80000305176</ele>
        <time>2025-08-11T11:27:12.000Z</time>
      </trkpt>
      <trkpt lat="43.24353" lon="-0.30956">
        <ele>231.80000305176</ele>
        <time>2025-08-11T11:27:13.000Z</time>
      </trkpt>
      <trkpt lat="43.24354" lon="-0.30956">
        <ele>231.80000305176</ele>
        <time>2025-08-11T11:27:17.000Z</time>
      </trkpt>
      <trkpt lat="43.24353" lon="-0.30956">
        <ele>232</ele>
        <time>2025-08-11T11:27:21.000Z</time>
      </trkpt>
      <trkpt lat="43.24363" lon="-0.30955">
        <ele>232.19999694824</ele>
        <time>2025-08-11T11:27:45.000Z</time>
      </trkpt>
      <trkpt lat="43.24366" lon="-0.30956">
        <ele>232.39999389648</ele>
        <time>2025-08-11T11:27:46.000Z</time>
      </trkpt>
      <trkpt lat="43.24389" lon="-0.30959">
        <ele>232.19999694824</ele>
        <time>2025-08-11T11:27:54.000Z</time>
      </trkpt>
      <trkpt lat="43.24408" lon="-0.30952">
        <ele>232.19999694824</ele>
        <time>2025-08-11T11:28:01.000Z</time>
      </trkpt>
      <trkpt lat="43.24416" lon="-0.30947">
        <ele>232.60000610352</ele>
        <time>2025-08-11T11:28:06.000Z</time>
      </trkpt>
      <trkpt lat="43.24418" lon="-0.30945">
        <ele>232.60000610352</ele>
        <time>2025-08-11T11:28:07.000Z</time>
      </trkpt>
      <trkpt lat="43.24427" lon="-0.30934">
        <ele>233</ele>
        <time>2025-08-11T11:28:13.000Z</time>
      </trkpt>
      <trkpt lat="43.24442" lon="-0.30928">
        <ele>233.19999694824</ele>
        <time>2025-08-11T11:28:17.000Z</time>
      </trkpt>
      <trkpt lat="43.2445" lon="-0.30922">
        <ele>233</ele>
        <time>2025-08-11T11:28:19.000Z</time>
      </trkpt>
      <trkpt lat="43.24461" lon="-0.30911">
        <ele>233</ele>
        <time>2025-08-11T11:28:22.000Z</time>
      </trkpt>
      <trkpt lat="43.24487" lon="-0.30879">
        <ele>232.19999694824</ele>
        <time>2025-08-11T11:28:30.000Z</time>
      </trkpt>
      <trkpt lat="43.24489" lon="-0.30875">
        <ele>232.39999389648</ele>
        <time>2025-08-11T11:28:31.000Z</time>
      </trkpt>
      <trkpt lat="43.24492" lon="-0.3087">
        <ele>232.19999694824</ele>
        <time>2025-08-11T11:28:32.000Z</time>
      </trkpt>
      <trkpt lat="43.245" lon="-0.30851">
        <ele>232</ele>
        <time>2025-08-11T11:28:36.000Z</time>
      </trkpt>
      <trkpt lat="43.24505" lon="-0.30842">
        <ele>231.80000305176</ele>
        <time>2025-08-11T11:28:37.000Z</time>
      </trkpt>
      <trkpt lat="43.2452" lon="-0.30835">
        <ele>231.60000610352</ele>
        <time>2025-08-11T11:28:42.000Z</time>
      </trkpt>
      <trkpt lat="43.24537" lon="-0.30836">
        <ele>231.60000610352</ele>
        <time>2025-08-11T11:28:47.000Z</time>
      </trkpt>
      <trkpt lat="43.24556" lon="-0.3083">
        <ele>231.80000305176</ele>
        <time>2025-08-11T11:28:52.000Z</time>
      </trkpt>
      <trkpt lat="43.24579" lon="-0.30822">
        <ele>232.39999389648</ele>
        <time>2025-08-11T11:28:59.000Z</time>
      </trkpt>
      <trkpt lat="43.24616" lon="-0.30806">
        <ele>233</ele>
        <time>2025-08-11T11:29:08.000Z</time>
      </trkpt>
      <trkpt lat="43.24657" lon="-0.30785">
        <ele>233</ele>
        <time>2025-08-11T11:29:19.000Z</time>
      </trkpt>
      <trkpt lat="43.24683" lon="-0.30767">
        <ele>233</ele>
        <time>2025-08-11T11:29:26.000Z</time>
      </trkpt>
      <trkpt lat="43.24713" lon="-0.30742">
        <ele>232.39999389648</ele>
        <time>2025-08-11T11:29:34.000Z</time>
      </trkpt>
      <trkpt lat="43.24748" lon="-0.30711">
        <ele>232.19999694824</ele>
        <time>2025-08-11T11:29:44.000Z</time>
      </trkpt>
      <trkpt lat="43.24766" lon="-0.30696">
        <ele>232.19999694824</ele>
        <time>2025-08-11T11:29:51.000Z</time>
      </trkpt>
      <trkpt lat="43.24768" lon="-0.30695">
        <ele>232.19999694824</ele>
        <time>2025-08-11T11:29:55.000Z</time>
      </trkpt>
      <trkpt lat="43.24775" lon="-0.30693">
        <ele>232.80000305176</ele>
        <time>2025-08-11T11:37:59.000Z</time>
      </trkpt>
      <trkpt lat="43.24787" lon="-0.30695">
        <ele>232.60000610352</ele>
        <time>2025-08-11T11:38:03.000Z</time>
      </trkpt>
      <trkpt lat="43.24796" lon="-0.30697">
        <ele>232.60000610352</ele>
        <time>2025-08-11T11:38:05.000Z</time>
      </trkpt>
      <trkpt lat="43.24805" lon="-0.30695">
        <ele>232.19999694824</ele>
        <time>2025-08-11T11:38:07.000Z</time>
      </trkpt>
      <trkpt lat="43.24816" lon="-0.30685">
        <ele>231.80000305176</ele>
        <time>2025-08-11T11:38:10.000Z</time>
      </trkpt>
      <trkpt lat="43.2482" lon="-0.30681">
        <ele>231.80000305176</ele>
        <time>2025-08-11T11:38:11.000Z</time>
      </trkpt>
      <trkpt lat="43.24826" lon="-0.30672">
        <ele>231.39999389648</ele>
        <time>2025-08-11T11:38:13.000Z</time>
      </trkpt>
      <trkpt lat="43.24835" lon="-0.30654">
        <ele>231.19999694824</ele>
        <time>2025-08-11T11:38:17.000Z</time>
      </trkpt>
      <trkpt lat="43.24842" lon="-0.30634">
        <ele>231.19999694824</ele>
        <time>2025-08-11T11:38:21.000Z</time>
      </trkpt>
      <trkpt lat="43.24854" lon="-0.3062">
        <ele>231.19999694824</ele>
        <time>2025-08-11T11:38:25.000Z</time>
      </trkpt>
      <trkpt lat="43.24875" lon="-0.30618">
        <ele>231.19999694824</ele>
        <time>2025-08-11T11:38:30.000Z</time>
      </trkpt>
      <trkpt lat="43.249" lon="-0.30625">
        <ele>231.19999694824</ele>
        <time>2025-08-11T11:38:37.000Z</time>
      </trkpt>
      <trkpt lat="43.24922" lon="-0.30634">
        <ele>231.39999389648</ele>
        <time>2025-08-11T11:38:44.000Z</time>
      </trkpt>
      <trkpt lat="43.24942" lon="-0.30643">
        <ele>231.60000610352</ele>
        <time>2025-08-11T11:38:51.000Z</time>
      </trkpt>
      <trkpt lat="43.24959" lon="-0.30659">
        <ele>231.60000610352</ele>
        <time>2025-08-11T11:38:57.000Z</time>
      </trkpt>
      <trkpt lat="43.24968" lon="-0.30682">
        <ele>231.39999389648</ele>
        <time>2025-08-11T11:39:01.000Z</time>
      </trkpt>
      <trkpt lat="43.24971" lon="-0.30689">
        <ele>231.19999694824</ele>
        <time>2025-08-11T11:39:02.000Z</time>
      </trkpt>
      <trkpt lat="43.24974" lon="-0.30696">
        <ele>231</ele>
        <time>2025-08-11T11:39:03.000Z</time>
      </trkpt>
      <trkpt lat="43.2498" lon="-0.30709">
        <ele>230.19999694824</ele>
        <time>2025-08-11T11:39:05.000Z</time>
      </trkpt>
      <trkpt lat="43.2499" lon="-0.30728">
        <ele>230</ele>
        <time>2025-08-11T11:39:08.000Z</time>
      </trkpt>
      <trkpt lat="43.24997" lon="-0.3074">
        <ele>229.60000610352</ele>
        <time>2025-08-11T11:39:10.000Z</time>
      </trkpt>
      <trkpt lat="43.25005" lon="-0.30748">
        <ele>229.60000610352</ele>
        <time>2025-08-11T11:39:12.000Z</time>
      </trkpt>
      <trkpt lat="43.25013" lon="-0.30755">
        <ele>229.39999389648</ele>
        <time>2025-08-11T11:39:14.000Z</time>
      </trkpt>
      <trkpt lat="43.25016" lon="-0.30759">
        <ele>229.39999389648</ele>
        <time>2025-08-11T11:39:15.000Z</time>
      </trkpt>
      <trkpt lat="43.2502" lon="-0.30766">
        <ele>229.39999389648</ele>
        <time>2025-08-11T11:39:17.000Z</time>
      </trkpt>
      <trkpt lat="43.25028" lon="-0.30782">
        <ele>229.39999389648</ele>
        <time>2025-08-11T11:39:21.000Z</time>
      </trkpt>
      <trkpt lat="43.25032" lon="-0.30786">
        <ele>229.39999389648</ele>
        <time>2025-08-11T11:39:22.000Z</time>
      </trkpt>
      <trkpt lat="43.25052" lon="-0.30791">
        <ele>229.80000305176</ele>
        <time>2025-08-11T11:39:27.000Z</time>
      </trkpt>
      <trkpt lat="43.25075" lon="-0.30799">
        <ele>230</ele>
        <time>2025-08-11T11:39:33.000Z</time>
      </trkpt>
      <trkpt lat="43.25085" lon="-0.30816">
        <ele>230</ele>
        <time>2025-08-11T11:39:37.000Z</time>
      </trkpt>
      <trkpt lat="43.25092" lon="-0.30825">
        <ele>230</ele>
        <time>2025-08-11T11:39:39.000Z</time>
      </trkpt>
      <trkpt lat="43.25099" lon="-0.30831">
        <ele>230</ele>
        <time>2025-08-11T11:39:41.000Z</time>
      </trkpt>
      <trkpt lat="43.25103" lon="-0.30833">
        <ele>230</ele>
        <time>2025-08-11T11:39:42.000Z</time>
      </trkpt>
      <trkpt lat="43.2513" lon="-0.30839">
        <ele>229.80000305176</ele>
        <time>2025-08-11T11:39:49.000Z</time>
      </trkpt>
      <trkpt lat="43.25151" lon="-0.30856">
        <ele>229.80000305176</ele>
        <time>2025-08-11T11:39:55.000Z</time>
      </trkpt>
      <trkpt lat="43.25166" lon="-0.30877">
        <ele>229.60000610352</ele>
        <time>2025-08-11T11:40:00.000Z</time>
      </trkpt>
      <trkpt lat="43.2517" lon="-0.30886">
        <ele>229.60000610352</ele>
        <time>2025-08-11T11:40:02.000Z</time>
      </trkpt>
      <trkpt lat="43.25174" lon="-0.30911">
        <ele>229.39999389648</ele>
        <time>2025-08-11T11:40:07.000Z</time>
      </trkpt>
      <trkpt lat="43.25173" lon="-0.30919">
        <ele>229.19999694824</ele>
        <time>2025-08-11T11:40:09.000Z</time>
      </trkpt>
      <trkpt lat="43.25171" lon="-0.30924">
        <ele>229.19999694824</ele>
        <time>2025-08-11T11:40:10.000Z</time>
      </trkpt>
      <trkpt lat="43.25156" lon="-0.30948">
        <ele>229</ele>
        <time>2025-08-11T11:40:17.000Z</time>
      </trkpt>
      <trkpt lat="43.25139" lon="-0.30975">
        <ele>229</ele>
        <time>2025-08-11T11:40:25.000Z</time>
      </trkpt>
      <trkpt lat="43.25133" lon="-0.30986">
        <ele>229.39999389648</ele>
        <time>2025-08-11T11:40:30.000Z</time>
      </trkpt>
      <trkpt lat="43.25126" lon="-0.30998">
        <ele>229.39999389648</ele>
        <time>2025-08-11T11:40:37.000Z</time>
      </trkpt>
      <trkpt lat="43.25124" lon="-0.31001">
        <ele>229.39999389648</ele>
        <time>2025-08-11T11:40:38.000Z</time>
      </trkpt>
      <trkpt lat="43.25121" lon="-0.3101">
        <ele>229.39999389648</ele>
        <time>2025-08-11T11:40:41.000Z</time>
      </trkpt>
      <trkpt lat="43.25125" lon="-0.31034">
        <ele>229.19999694824</ele>
        <time>2025-08-11T11:40:46.000Z</time>
      </trkpt>
      <trkpt lat="43.25133" lon="-0.31058">
        <ele>229</ele>
        <time>2025-08-11T11:40:51.000Z</time>
      </trkpt>
      <trkpt lat="43.25152" lon="-0.31076">
        <ele>229</ele>
        <time>2025-08-11T11:40:57.000Z</time>
      </trkpt>
      <trkpt lat="43.25182" lon="-0.311">
        <ele>228.80000305176</ele>
        <time>2025-08-11T11:41:05.000Z</time>
      </trkpt>
      <trkpt lat="43.25195" lon="-0.31123">
        <ele>228.60000610352</ele>
        <time>2025-08-11T11:41:10.000Z</time>
      </trkpt>
      <trkpt lat="43.25205" lon="-0.31141">
        <ele>228.39999389648</ele>
        <time>2025-08-11T11:41:14.000Z</time>
      </trkpt>
      <trkpt lat="43.25213" lon="-0.31152">
        <ele>228.39999389648</ele>
        <time>2025-08-11T11:41:17.000Z</time>
      </trkpt>
      <trkpt lat="43.2523" lon="-0.3118">
        <ele>228.19999694824</ele>
        <time>2025-08-11T11:41:24.000Z</time>
      </trkpt>
      <trkpt lat="43.2525" lon="-0.31213">
        <ele>228.19999694824</ele>
        <time>2025-08-11T11:41:31.000Z</time>
      </trkpt>
      <trkpt lat="43.25258" lon="-0.31234">
        <ele>228.19999694824</ele>
        <time>2025-08-11T11:41:35.000Z</time>
      </trkpt>
      <trkpt lat="43.25266" lon="-0.3125">
        <ele>228.19999694824</ele>
        <time>2025-08-11T11:41:38.000Z</time>
      </trkpt>
      <trkpt lat="43.25282" lon="-0.31291">
        <ele>227.60000610352</ele>
        <time>2025-08-11T11:41:45.000Z</time>
      </trkpt>
      <trkpt lat="43.2529" lon="-0.31315">
        <ele>227.39999389648</ele>
        <time>2025-08-11T11:41:49.000Z</time>
      </trkpt>
      <trkpt lat="43.25302" lon="-0.31343">
        <ele>227.19999694824</ele>
        <time>2025-08-11T11:41:54.000Z</time>
      </trkpt>
      <trkpt lat="43.25305" lon="-0.31349">
        <ele>227.19999694824</ele>
        <time>2025-08-11T11:41:55.000Z</time>
      </trkpt>
      <trkpt lat="43.2533" lon="-0.31391">
        <ele>227.19999694824</ele>
        <time>2025-08-11T11:42:03.000Z</time>
      </trkpt>
      <trkpt lat="43.25358" lon="-0.31427">
        <ele>227.19999694824</ele>
        <time>2025-08-11T11:42:11.000Z</time>
      </trkpt>
      <trkpt lat="43.25385" lon="-0.3146">
        <ele>227.60000610352</ele>
        <time>2025-08-11T11:42:19.000Z</time>
      </trkpt>
      <trkpt lat="43.25396" lon="-0.31474">
        <ele>227.60000610352</ele>
        <time>2025-08-11T11:42:23.000Z</time>
      </trkpt>
      <trkpt lat="43.25402" lon="-0.31483">
        <ele>227.39999389648</ele>
        <time>2025-08-11T11:42:25.000Z</time>
      </trkpt>
      <trkpt lat="43.25403" lon="-0.31487">
        <ele>227.39999389648</ele>
        <time>2025-08-11T11:42:26.000Z</time>
      </trkpt>
      <trkpt lat="43.25408" lon="-0.31508">
        <ele>227.80000305176</ele>
        <time>2025-08-11T11:42:31.000Z</time>
      </trkpt>
      <trkpt lat="43.25408" lon="-0.31528">
        <ele>227.80000305176</ele>
        <time>2025-08-11T11:42:34.000Z</time>
      </trkpt>
      <trkpt lat="43.25408" lon="-0.31535">
        <ele>227.80000305176</ele>
        <time>2025-08-11T11:42:35.000Z</time>
      </trkpt>
      <trkpt lat="43.2541" lon="-0.31542">
        <ele>227.80000305176</ele>
        <time>2025-08-11T11:42:36.000Z</time>
      </trkpt>
      <trkpt lat="43.25415" lon="-0.3155">
        <ele>227.80000305176</ele>
        <time>2025-08-11T11:42:38.000Z</time>
      </trkpt>
      <trkpt lat="43.2544" lon="-0.31569">
        <ele>228</ele>
        <time>2025-08-11T11:42:45.000Z</time>
      </trkpt>
      <trkpt lat="43.25472" lon="-0.31594">
        <ele>228.19999694824</ele>
        <time>2025-08-11T11:42:54.000Z</time>
      </trkpt>
      <trkpt lat="43.2549" lon="-0.31607">
        <ele>228.60000610352</ele>
        <time>2025-08-11T11:43:00.000Z</time>
      </trkpt>
      <trkpt lat="43.2551" lon="-0.31626">
        <ele>228.60000610352</ele>
        <time>2025-08-11T11:43:05.000Z</time>
      </trkpt>
      <trkpt lat="43.25514" lon="-0.31631">
        <ele>228.60000610352</ele>
        <time>2025-08-11T11:43:06.000Z</time>
      </trkpt>
      <trkpt lat="43.25534" lon="-0.31664">
        <ele>228</ele>
        <time>2025-08-11T11:43:12.000Z</time>
      </trkpt>
      <trkpt lat="43.25538" lon="-0.31669">
        <ele>227.80000305176</ele>
        <time>2025-08-11T11:43:13.000Z</time>
      </trkpt>
      <trkpt lat="43.25548" lon="-0.31675">
        <ele>227.60000610352</ele>
        <time>2025-08-11T11:43:15.000Z</time>
      </trkpt>
      <trkpt lat="43.25558" lon="-0.31672">
        <ele>227.39999389648</ele>
        <time>2025-08-11T11:43:17.000Z</time>
      </trkpt>
      <trkpt lat="43.25562" lon="-0.31671">
        <ele>227.39999389648</ele>
        <time>2025-08-11T11:43:18.000Z</time>
      </trkpt>
      <trkpt lat="43.25567" lon="-0.31671">
        <ele>227.19999694824</ele>
        <time>2025-08-11T11:43:19.000Z</time>
      </trkpt>
      <trkpt lat="43.25577" lon="-0.31674">
        <ele>227.19999694824</ele>
        <time>2025-08-11T11:43:21.000Z</time>
      </trkpt>
      <trkpt lat="43.25582" lon="-0.31677">
        <ele>227</ele>
        <time>2025-08-11T11:43:22.000Z</time>
      </trkpt>
      <trkpt lat="43.256" lon="-0.31686">
        <ele>226.80000305176</ele>
        <time>2025-08-11T11:43:27.000Z</time>
      </trkpt>
      <trkpt lat="43.25624" lon="-0.31703">
        <ele>227</ele>
        <time>2025-08-11T11:43:34.000Z</time>
      </trkpt>
      <trkpt lat="43.25649" lon="-0.31712">
        <ele>227</ele>
        <time>2025-08-11T11:43:40.000Z</time>
      </trkpt>
      <trkpt lat="43.25652" lon="-0.31715">
        <ele>227</ele>
        <time>2025-08-11T11:43:41.000Z</time>
      </trkpt>
      <trkpt lat="43.25669" lon="-0.31738">
        <ele>226.80000305176</ele>
        <time>2025-08-11T11:43:47.000Z</time>
      </trkpt>
      <trkpt lat="43.25672" lon="-0.3176">
        <ele>226.60000610352</ele>
        <time>2025-08-11T11:43:51.000Z</time>
      </trkpt>
      <trkpt lat="43.25671" lon="-0.3177">
        <ele>226.39999389648</ele>
        <time>2025-08-11T11:43:53.000Z</time>
      </trkpt>
      <trkpt lat="43.25669" lon="-0.31785">
        <ele>226.39999389648</ele>
        <time>2025-08-11T11:43:56.000Z</time>
      </trkpt>
      <trkpt lat="43.25671" lon="-0.31808">
        <ele>226.19999694824</ele>
        <time>2025-08-11T11:44:01.000Z</time>
      </trkpt>
      <trkpt lat="43.25679" lon="-0.31835">
        <ele>226.39999389648</ele>
        <time>2025-08-11T11:44:06.000Z</time>
      </trkpt>
      <trkpt lat="43.25685" lon="-0.31868">
        <ele>226.39999389648</ele>
        <time>2025-08-11T11:44:12.000Z</time>
      </trkpt>
      <trkpt lat="43.25694" lon="-0.319">
        <ele>226</ele>
        <time>2025-08-11T11:44:18.000Z</time>
      </trkpt>
      <trkpt lat="43.25702" lon="-0.31925">
        <ele>226</ele>
        <time>2025-08-11T11:44:23.000Z</time>
      </trkpt>
      <trkpt lat="43.25708" lon="-0.3194">
        <ele>226</ele>
        <time>2025-08-11T11:44:26.000Z</time>
      </trkpt>
      <trkpt lat="43.25709" lon="-0.31948">
        <ele>226</ele>
        <time>2025-08-11T11:44:27.000Z</time>
      </trkpt>
      <trkpt lat="43.25711" lon="-0.31968">
        <ele>226</ele>
        <time>2025-08-11T11:44:30.000Z</time>
      </trkpt>
      <trkpt lat="43.25713" lon="-0.31973">
        <ele>226</ele>
        <time>2025-08-11T11:44:31.000Z</time>
      </trkpt>
      <trkpt lat="43.25725" lon="-0.31991">
        <ele>225.60000610352</ele>
        <time>2025-08-11T11:44:37.000Z</time>
      </trkpt>
      <trkpt lat="43.2573" lon="-0.31998">
        <ele>225.39999389648</ele>
        <time>2025-08-11T11:44:39.000Z</time>
      </trkpt>
      <trkpt lat="43.25749" lon="-0.32024">
        <ele>225</ele>
        <time>2025-08-11T11:44:46.000Z</time>
      </trkpt>
      <trkpt lat="43.25771" lon="-0.32042">
        <ele>224.80000305176</ele>
        <time>2025-08-11T11:44:52.000Z</time>
      </trkpt>
      <trkpt lat="43.25775" lon="-0.32043">
        <ele>224.80000305176</ele>
        <time>2025-08-11T11:44:53.000Z</time>
      </trkpt>
      <trkpt lat="43.25783" lon="-0.32047">
        <ele>224.80000305176</ele>
        <time>2025-08-11T11:44:55.000Z</time>
      </trkpt>
      <trkpt lat="43.25798" lon="-0.32053">
        <ele>224.80000305176</ele>
        <time>2025-08-11T11:44:59.000Z</time>
      </trkpt>
      <trkpt lat="43.25805" lon="-0.32059">
        <ele>225</ele>
        <time>2025-08-11T11:45:01.000Z</time>
      </trkpt>
      <trkpt lat="43.25817" lon="-0.32068">
        <ele>225.19999694824</ele>
        <time>2025-08-11T11:45:04.000Z</time>
      </trkpt>
      <trkpt lat="43.2583" lon="-0.32075">
        <ele>225.39999389648</ele>
        <time>2025-08-11T11:45:07.000Z</time>
      </trkpt>
      <trkpt lat="43.2584" lon="-0.32075">
        <ele>225.39999389648</ele>
        <time>2025-08-11T11:45:09.000Z</time>
      </trkpt>
      <trkpt lat="43.25845" lon="-0.32076">
        <ele>225.39999389648</ele>
        <time>2025-08-11T11:45:10.000Z</time>
      </trkpt>
      <trkpt lat="43.25864" lon="-0.32082">
        <ele>225.39999389648</ele>
        <time>2025-08-11T11:45:13.000Z</time>
      </trkpt>
      <trkpt lat="43.25882" lon="-0.32092">
        <ele>224.39999389648</ele>
        <time>2025-08-11T11:45:16.000Z</time>
      </trkpt>
      <trkpt lat="43.25893" lon="-0.32098">
        <ele>224</ele>
        <time>2025-08-11T11:45:18.000Z</time>
      </trkpt>
      <trkpt lat="43.25898" lon="-0.32101">
        <ele>224</ele>
        <time>2025-08-11T11:45:19.000Z</time>
      </trkpt>
      <trkpt lat="43.25908" lon="-0.32103">
        <ele>223.80000305176</ele>
        <time>2025-08-11T11:45:21.000Z</time>
      </trkpt>
      <trkpt lat="43.25912" lon="-0.32102">
        <ele>223.60000610352</ele>
        <time>2025-08-11T11:45:22.000Z</time>
      </trkpt>
      <trkpt lat="43.25928" lon="-0.32099">
        <ele>223.39999389648</ele>
        <time>2025-08-11T11:45:25.000Z</time>
      </trkpt>
      <trkpt lat="43.2594" lon="-0.32103">
        <ele>223.39999389648</ele>
        <time>2025-08-11T11:45:27.000Z</time>
      </trkpt>
      <trkpt lat="43.25946" lon="-0.32107">
        <ele>223.19999694824</ele>
        <time>2025-08-11T11:45:28.000Z</time>
      </trkpt>
      <trkpt lat="43.25961" lon="-0.32117">
        <ele>223</ele>
        <time>2025-08-11T11:45:31.000Z</time>
      </trkpt>
      <trkpt lat="43.25973" lon="-0.32122">
        <ele>223</ele>
        <time>2025-08-11T11:45:35.000Z</time>
      </trkpt>
      <trkpt lat="43.26001" lon="-0.3214">
        <ele>224.39999389648</ele>
        <time>2025-08-11T11:45:44.000Z</time>
      </trkpt>
      <trkpt lat="43.26024" lon="-0.32161">
        <ele>224.39999389648</ele>
        <time>2025-08-11T11:45:51.000Z</time>
      </trkpt>
      <trkpt lat="43.26039" lon="-0.32192">
        <ele>224.39999389648</ele>
        <time>2025-08-11T11:45:58.000Z</time>
      </trkpt>
      <trkpt lat="43.26061" lon="-0.32222">
        <ele>224.39999389648</ele>
        <time>2025-08-11T11:46:05.000Z</time>
      </trkpt>
      <trkpt lat="43.26068" lon="-0.32225">
        <ele>224.39999389648</ele>
        <time>2025-08-11T11:46:07.000Z</time>
      </trkpt>
      <trkpt lat="43.26087" lon="-0.32233">
        <ele>224.39999389648</ele>
        <time>2025-08-11T11:46:12.000Z</time>
      </trkpt>
      <trkpt lat="43.26091" lon="-0.32237">
        <ele>224.39999389648</ele>
        <time>2025-08-11T11:46:13.000Z</time>
      </trkpt>
      <trkpt lat="43.26112" lon="-0.32271">
        <ele>224.39999389648</ele>
        <time>2025-08-11T11:46:21.000Z</time>
      </trkpt>
      <trkpt lat="43.26128" lon="-0.32292">
        <ele>224.39999389648</ele>
        <time>2025-08-11T11:46:26.000Z</time>
      </trkpt>
      <trkpt lat="43.26133" lon="-0.32297">
        <ele>224.39999389648</ele>
        <time>2025-08-11T11:46:28.000Z</time>
      </trkpt>
      <trkpt lat="43.26137" lon="-0.32302">
        <ele>224.39999389648</ele>
        <time>2025-08-11T11:46:29.000Z</time>
      </trkpt>
      <trkpt lat="43.26149" lon="-0.32326">
        <ele>224.19999694824</ele>
        <time>2025-08-11T11:46:34.000Z</time>
      </trkpt>
      <trkpt lat="43.26155" lon="-0.32335">
        <ele>224</ele>
        <time>2025-08-11T11:46:36.000Z</time>
      </trkpt>
      <trkpt lat="43.26165" lon="-0.32348">
        <ele>224</ele>
        <time>2025-08-11T11:46:39.000Z</time>
      </trkpt>
      <trkpt lat="43.26168" lon="-0.32358">
        <ele>223.80000305176</ele>
        <time>2025-08-11T11:46:41.000Z</time>
      </trkpt>
      <trkpt lat="43.26169" lon="-0.32368">
        <ele>223.60000610352</ele>
        <time>2025-08-11T11:46:43.000Z</time>
      </trkpt>
      <trkpt lat="43.26169" lon="-0.32385">
        <ele>223.60000610352</ele>
        <time>2025-08-11T11:46:46.000Z</time>
      </trkpt>
      <trkpt lat="43.26169" lon="-0.32419">
        <ele>223.60000610352</ele>
        <time>2025-08-11T11:46:53.000Z</time>
      </trkpt>
      <trkpt lat="43.26165" lon="-0.32451">
        <ele>223.39999389648</ele>
        <time>2025-08-11T11:46:59.000Z</time>
      </trkpt>
      <trkpt lat="43.26164" lon="-0.32478">
        <ele>223.39999389648</ele>
        <time>2025-08-11T11:47:04.000Z</time>
      </trkpt>
      <trkpt lat="43.26176" lon="-0.32495">
        <ele>223.39999389648</ele>
        <time>2025-08-11T11:47:08.000Z</time>
      </trkpt>
      <trkpt lat="43.2618" lon="-0.32498">
        <ele>223.39999389648</ele>
        <time>2025-08-11T11:47:09.000Z</time>
      </trkpt>
      <trkpt lat="43.26204" lon="-0.3252">
        <ele>223</ele>
        <time>2025-08-11T11:47:16.000Z</time>
      </trkpt>
      <trkpt lat="43.26217" lon="-0.32533">
        <ele>223.19999694824</ele>
        <time>2025-08-11T11:47:20.000Z</time>
      </trkpt>
      <trkpt lat="43.26226" lon="-0.32545">
        <ele>223.19999694824</ele>
        <time>2025-08-11T11:47:23.000Z</time>
      </trkpt>
      <trkpt lat="43.26244" lon="-0.32566">
        <ele>223</ele>
        <time>2025-08-11T11:47:29.000Z</time>
      </trkpt>
      <trkpt lat="43.2627" lon="-0.32576">
        <ele>222.39999389648</ele>
        <time>2025-08-11T11:47:35.000Z</time>
      </trkpt>
      <trkpt lat="43.26278" lon="-0.32581">
        <ele>222.39999389648</ele>
        <time>2025-08-11T11:47:37.000Z</time>
      </trkpt>
      <trkpt lat="43.26302" lon="-0.32594">
        <ele>222.39999389648</ele>
        <time>2025-08-11T11:47:43.000Z</time>
      </trkpt>
      <trkpt lat="43.26329" lon="-0.32608">
        <ele>222.39999389648</ele>
        <time>2025-08-11T11:47:50.000Z</time>
      </trkpt>
      <trkpt lat="43.26341" lon="-0.32614">
        <ele>222.19999694824</ele>
        <time>2025-08-11T11:47:53.000Z</time>
      </trkpt>
      <trkpt lat="43.26344" lon="-0.32616">
        <ele>222.19999694824</ele>
        <time>2025-08-11T11:47:54.000Z</time>
      </trkpt>
      <trkpt lat="43.26359" lon="-0.32626">
        <ele>222.39999389648</ele>
        <time>2025-08-11T11:47:58.000Z</time>
      </trkpt>
      <trkpt lat="43.26391" lon="-0.3265">
        <ele>222.19999694824</ele>
        <time>2025-08-11T11:48:06.000Z</time>
      </trkpt>
      <trkpt lat="43.2642" lon="-0.32673">
        <ele>221.60000610352</ele>
        <time>2025-08-11T11:48:13.000Z</time>
      </trkpt>
      <trkpt lat="43.26446" lon="-0.32702">
        <ele>221.39999389648</ele>
        <time>2025-08-11T11:48:20.000Z</time>
      </trkpt>
      <trkpt lat="43.26467" lon="-0.32718">
        <ele>221.39999389648</ele>
        <time>2025-08-11T11:48:25.000Z</time>
      </trkpt>
      <trkpt lat="43.26472" lon="-0.32717">
        <ele>221.39999389648</ele>
        <time>2025-08-11T11:48:26.000Z</time>
      </trkpt>
      <trkpt lat="43.26484" lon="-0.32711">
        <ele>221.19999694824</ele>
        <time>2025-08-11T11:48:30.000Z</time>
      </trkpt>
      <trkpt lat="43.26488" lon="-0.32712">
        <ele>221.19999694824</ele>
        <time>2025-08-11T11:48:31.000Z</time>
      </trkpt>
      <trkpt lat="43.26495" lon="-0.32717">
        <ele>221.19999694824</ele>
        <time>2025-08-11T11:48:33.000Z</time>
      </trkpt>
      <trkpt lat="43.26513" lon="-0.32743">
        <ele>221.39999389648</ele>
        <time>2025-08-11T11:48:39.000Z</time>
      </trkpt>
      <trkpt lat="43.26533" lon="-0.32771">
        <ele>221.19999694824</ele>
        <time>2025-08-11T11:48:45.000Z</time>
      </trkpt>
      <trkpt lat="43.26537" lon="-0.32776">
        <ele>221.19999694824</ele>
        <time>2025-08-11T11:48:46.000Z</time>
      </trkpt>
      <trkpt lat="43.26545" lon="-0.32786">
        <ele>221.19999694824</ele>
        <time>2025-08-11T11:48:48.000Z</time>
      </trkpt>
      <trkpt lat="43.26549" lon="-0.32789">
        <ele>221.19999694824</ele>
        <time>2025-08-11T11:48:49.000Z</time>
      </trkpt>
      <trkpt lat="43.26562" lon="-0.32798">
        <ele>220.80000305176</ele>
        <time>2025-08-11T11:48:52.000Z</time>
      </trkpt>
      <trkpt lat="43.26571" lon="-0.32807">
        <ele>220.80000305176</ele>
        <time>2025-08-11T11:48:54.000Z</time>
      </trkpt>
      <trkpt lat="43.26574" lon="-0.32812">
        <ele>220.60000610352</ele>
        <time>2025-08-11T11:48:55.000Z</time>
      </trkpt>
      <trkpt lat="43.26587" lon="-0.32828">
        <ele>220.60000610352</ele>
        <time>2025-08-11T11:48:59.000Z</time>
      </trkpt>
      <trkpt lat="43.26597" lon="-0.3284">
        <ele>220.39999389648</ele>
        <time>2025-08-11T11:49:02.000Z</time>
      </trkpt>
      <trkpt lat="43.26631" lon="-0.32882">
        <ele>220.39999389648</ele>
        <time>2025-08-11T11:49:12.000Z</time>
      </trkpt>
      <trkpt lat="43.2664" lon="-0.32894">
        <ele>220.60000610352</ele>
        <time>2025-08-11T11:49:15.000Z</time>
      </trkpt>
      <trkpt lat="43.26655" lon="-0.32912">
        <ele>220.60000610352</ele>
        <time>2025-08-11T11:49:19.000Z</time>
      </trkpt>
      <trkpt lat="43.26681" lon="-0.32942">
        <ele>220.19999694824</ele>
        <time>2025-08-11T11:49:26.000Z</time>
      </trkpt>
      <trkpt lat="43.26684" lon="-0.32946">
        <ele>220.19999694824</ele>
        <time>2025-08-11T11:49:27.000Z</time>
      </trkpt>
      <trkpt lat="43.2671" lon="-0.32986">
        <ele>220</ele>
        <time>2025-08-11T11:49:35.000Z</time>
      </trkpt>
      <trkpt lat="43.26732" lon="-0.33012">
        <ele>219.60000610352</ele>
        <time>2025-08-11T11:49:41.000Z</time>
      </trkpt>
      <trkpt lat="43.26738" lon="-0.33019">
        <ele>219.60000610352</ele>
        <time>2025-08-11T11:49:43.000Z</time>
      </trkpt>
      <trkpt lat="43.26762" lon="-0.33048">
        <ele>219.39999389648</ele>
        <time>2025-08-11T11:49:51.000Z</time>
      </trkpt>
      <trkpt lat="43.26787" lon="-0.33075">
        <ele>219.19999694824</ele>
        <time>2025-08-11T11:49:58.000Z</time>
      </trkpt>
      <trkpt lat="43.26792" lon="-0.33086">
        <ele>218.80000305176</ele>
        <time>2025-08-11T11:50:01.000Z</time>
      </trkpt>
      <trkpt lat="43.26792" lon="-0.33088">
        <ele>218.80000305176</ele>
        <time>2025-08-11T11:50:02.000Z</time>
      </trkpt>
      <trkpt lat="43.26791" lon="-0.3309">
        <ele>218.80000305176</ele>
        <time>2025-08-11T11:50:03.000Z</time>
      </trkpt>
      <trkpt lat="43.26787" lon="-0.33094">
        <ele>218.60000610352</ele>
        <time>2025-08-11T11:50:06.000Z</time>
      </trkpt>
      <trkpt lat="43.26775" lon="-0.3311">
        <ele>218.80000305176</ele>
        <time>2025-08-11T11:50:12.000Z</time>
      </trkpt>
      <trkpt lat="43.26762" lon="-0.3313">
        <ele>219.60000610352</ele>
        <time>2025-08-11T11:50:19.000Z</time>
      </trkpt>
      <trkpt lat="43.2676" lon="-0.33134">
        <ele>219.60000610352</ele>
        <time>2025-08-11T11:50:20.000Z</time>
      </trkpt>
      <trkpt lat="43.26756" lon="-0.33154">
        <ele>219.39999389648</ele>
        <time>2025-08-11T11:50:25.000Z</time>
      </trkpt>
      <trkpt lat="43.26765" lon="-0.33172">
        <ele>219.39999389648</ele>
        <time>2025-08-11T11:50:30.000Z</time>
      </trkpt>
      <trkpt lat="43.2678" lon="-0.33197">
        <ele>219.19999694824</ele>
        <time>2025-08-11T11:50:37.000Z</time>
      </trkpt>
      <trkpt lat="43.26791" lon="-0.33213">
        <ele>219.19999694824</ele>
        <time>2025-08-11T11:50:42.000Z</time>
      </trkpt>
      <trkpt lat="43.26821" lon="-0.33232">
        <ele>219</ele>
        <time>2025-08-11T11:50:51.000Z</time>
      </trkpt>
      <trkpt lat="43.2685" lon="-0.3325">
        <ele>219</ele>
        <time>2025-08-11T11:50:59.000Z</time>
      </trkpt>
      <trkpt lat="43.26888" lon="-0.33271">
        <ele>219</ele>
        <time>2025-08-11T11:51:09.000Z</time>
      </trkpt>
      <trkpt lat="43.26915" lon="-0.33283">
        <ele>219.19999694824</ele>
        <time>2025-08-11T11:51:16.000Z</time>
      </trkpt>
      <trkpt lat="43.26919" lon="-0.33283">
        <ele>219.19999694824</ele>
        <time>2025-08-11T11:51:17.000Z</time>
      </trkpt>
      <trkpt lat="43.26923" lon="-0.33281">
        <ele>219.19999694824</ele>
        <time>2025-08-11T11:51:18.000Z</time>
      </trkpt>
      <trkpt lat="43.26929" lon="-0.33274">
        <ele>219.19999694824</ele>
        <time>2025-08-11T11:51:20.000Z</time>
      </trkpt>
      <trkpt lat="43.26957" lon="-0.33232">
        <ele>218.80000305176</ele>
        <time>2025-08-11T11:51:30.000Z</time>
      </trkpt>
      <trkpt lat="43.26962" lon="-0.33225">
        <ele>218.80000305176</ele>
        <time>2025-08-11T11:51:32.000Z</time>
      </trkpt>
      <trkpt lat="43.2697" lon="-0.33224">
        <ele>218.80000305176</ele>
        <time>2025-08-11T11:51:34.000Z</time>
      </trkpt>
      <trkpt lat="43.2698" lon="-0.33232">
        <ele>219</ele>
        <time>2025-08-11T11:51:37.000Z</time>
      </trkpt>
      <trkpt lat="43.2699" lon="-0.33242">
        <ele>219</ele>
        <time>2025-08-11T11:51:40.000Z</time>
      </trkpt>
      <trkpt lat="43.27019" lon="-0.3327">
        <ele>218.80000305176</ele>
        <time>2025-08-11T11:51:48.000Z</time>
      </trkpt>
      <trkpt lat="43.27048" lon="-0.33298">
        <ele>218.80000305176</ele>
        <time>2025-08-11T11:51:56.000Z</time>
      </trkpt>
      <trkpt lat="43.27066" lon="-0.33314">
        <ele>218.39999389648</ele>
        <time>2025-08-11T11:52:01.000Z</time>
      </trkpt>
      <trkpt lat="43.27081" lon="-0.33328">
        <ele>218.19999694824</ele>
        <time>2025-08-11T11:52:05.000Z</time>
      </trkpt>
      <trkpt lat="43.27109" lon="-0.33356">
        <ele>218</ele>
        <time>2025-08-11T11:52:13.000Z</time>
      </trkpt>
      <trkpt lat="43.27116" lon="-0.33363">
        <ele>217.80000305176</ele>
        <time>2025-08-11T11:52:15.000Z</time>
      </trkpt>
      <trkpt lat="43.27154" lon="-0.33396">
        <ele>217.39999389648</ele>
        <time>2025-08-11T11:52:25.000Z</time>
      </trkpt>
      <trkpt lat="43.27157" lon="-0.33399">
        <ele>217.39999389648</ele>
        <time>2025-08-11T11:52:26.000Z</time>
      </trkpt>
      <trkpt lat="43.27171" lon="-0.3341">
        <ele>217.19999694824</ele>
        <time>2025-08-11T11:52:30.000Z</time>
      </trkpt>
      <trkpt lat="43.27178" lon="-0.33416">
        <ele>217.39999389648</ele>
        <time>2025-08-11T11:52:32.000Z</time>
      </trkpt>
      <trkpt lat="43.27181" lon="-0.33418">
        <ele>217.39999389648</ele>
        <time>2025-08-11T11:52:33.000Z</time>
      </trkpt>
      <trkpt lat="43.27186" lon="-0.3342">
        <ele>217.39999389648</ele>
        <time>2025-08-11T11:52:34.000Z</time>
      </trkpt>
      <trkpt lat="43.2719" lon="-0.3342">
        <ele>217.39999389648</ele>
        <time>2025-08-11T11:52:35.000Z</time>
      </trkpt>
      <trkpt lat="43.27195" lon="-0.33421">
        <ele>217.39999389648</ele>
        <time>2025-08-11T11:52:36.000Z</time>
      </trkpt>
      <trkpt lat="43.27199" lon="-0.33422">
        <ele>217.19999694824</ele>
        <time>2025-08-11T11:52:37.000Z</time>
      </trkpt>
      <trkpt lat="43.27204" lon="-0.33425">
        <ele>217.19999694824</ele>
        <time>2025-08-11T11:52:38.000Z</time>
      </trkpt>
      <trkpt lat="43.27215" lon="-0.33437">
        <ele>217</ele>
        <time>2025-08-11T11:52:41.000Z</time>
      </trkpt>
      <trkpt lat="43.2722" lon="-0.33441">
        <ele>217</ele>
        <time>2025-08-11T11:52:42.000Z</time>
      </trkpt>
      <trkpt lat="43.27229" lon="-0.33446">
        <ele>216.80000305176</ele>
        <time>2025-08-11T11:52:44.000Z</time>
      </trkpt>
      <trkpt lat="43.27237" lon="-0.33452">
        <ele>216.80000305176</ele>
        <time>2025-08-11T11:52:46.000Z</time>
      </trkpt>
      <trkpt lat="43.27244" lon="-0.33462">
        <ele>216.60000610352</ele>
        <time>2025-08-11T11:52:48.000Z</time>
      </trkpt>
      <trkpt lat="43.27251" lon="-0.3347">
        <ele>216.39999389648</ele>
        <time>2025-08-11T11:52:50.000Z</time>
      </trkpt>
      <trkpt lat="43.27255" lon="-0.33475">
        <ele>216.39999389648</ele>
        <time>2025-08-11T11:52:51.000Z</time>
      </trkpt>
      <trkpt lat="43.27259" lon="-0.33479">
        <ele>216.19999694824</ele>
        <time>2025-08-11T11:52:52.000Z</time>
      </trkpt>
      <trkpt lat="43.27281" lon="-0.33498">
        <ele>216.19999694824</ele>
        <time>2025-08-11T11:52:58.000Z</time>
      </trkpt>
      <trkpt lat="43.27307" lon="-0.33526">
        <ele>216.60000610352</ele>
        <time>2025-08-11T11:53:06.000Z</time>
      </trkpt>
      <trkpt lat="43.27313" lon="-0.33534">
        <ele>216.80000305176</ele>
        <time>2025-08-11T11:53:08.000Z</time>
      </trkpt>
      <trkpt lat="43.27322" lon="-0.33536">
        <ele>216.80000305176</ele>
        <time>2025-08-11T11:53:10.000Z</time>
      </trkpt>
      <trkpt lat="43.27327" lon="-0.33535">
        <ele>216.80000305176</ele>
        <time>2025-08-11T11:53:11.000Z</time>
      </trkpt>
      <trkpt lat="43.27364" lon="-0.3354">
        <ele>216.80000305176</ele>
        <time>2025-08-11T11:53:19.000Z</time>
      </trkpt>
      <trkpt lat="43.27376" lon="-0.33547">
        <ele>216.60000610352</ele>
        <time>2025-08-11T11:53:22.000Z</time>
      </trkpt>
      <trkpt lat="43.27387" lon="-0.33556">
        <ele>216.39999389648</ele>
        <time>2025-08-11T11:53:25.000Z</time>
      </trkpt>
      <trkpt lat="43.27416" lon="-0.33588">
        <ele>216</ele>
        <time>2025-08-11T11:53:33.000Z</time>
      </trkpt>
      <trkpt lat="43.27441" lon="-0.33623">
        <ele>216</ele>
        <time>2025-08-11T11:53:41.000Z</time>
      </trkpt>
      <trkpt lat="43.27466" lon="-0.33655">
        <ele>215.39999389648</ele>
        <time>2025-08-11T11:53:49.000Z</time>
      </trkpt>
      <trkpt lat="43.27478" lon="-0.33673">
        <ele>215.19999694824</ele>
        <time>2025-08-11T11:53:53.000Z</time>
      </trkpt>
      <trkpt lat="43.27485" lon="-0.33687">
        <ele>215.19999694824</ele>
        <time>2025-08-11T11:53:56.000Z</time>
      </trkpt>
      <trkpt lat="43.27509" lon="-0.33732">
        <ele>214.60000610352</ele>
        <time>2025-08-11T11:54:05.000Z</time>
      </trkpt>
      <trkpt lat="43.27529" lon="-0.33772">
        <ele>214.60000610352</ele>
        <time>2025-08-11T11:54:13.000Z</time>
      </trkpt>
      <trkpt lat="43.27534" lon="-0.3378">
        <ele>214.60000610352</ele>
        <time>2025-08-11T11:54:15.000Z</time>
      </trkpt>
      <trkpt lat="43.27552" lon="-0.33813">
        <ele>214.80000305176</ele>
        <time>2025-08-11T11:54:22.000Z</time>
      </trkpt>
      <trkpt lat="43.27558" lon="-0.3382">
        <ele>214.80000305176</ele>
        <time>2025-08-11T11:54:24.000Z</time>
      </trkpt>
      <trkpt lat="43.27568" lon="-0.33828">
        <ele>214.80000305176</ele>
        <time>2025-08-11T11:54:27.000Z</time>
      </trkpt>
      <trkpt lat="43.27596" lon="-0.33853">
        <ele>214.80000305176</ele>
        <time>2025-08-11T11:54:35.000Z</time>
      </trkpt>
      <trkpt lat="43.27609" lon="-0.33865">
        <ele>214.80000305176</ele>
        <time>2025-08-11T11:54:39.000Z</time>
      </trkpt>
      <trkpt lat="43.27628" lon="-0.33881">
        <ele>214.80000305176</ele>
        <time>2025-08-11T11:54:44.000Z</time>
      </trkpt>
      <trkpt lat="43.27658" lon="-0.33907">
        <ele>214.80000305176</ele>
        <time>2025-08-11T11:54:52.000Z</time>
      </trkpt>
      <trkpt lat="43.27663" lon="-0.3391">
        <ele>214.80000305176</ele>
        <time>2025-08-11T11:54:53.000Z</time>
      </trkpt>
      <trkpt lat="43.27678" lon="-0.3392">
        <ele>215</ele>
        <time>2025-08-11T11:54:57.000Z</time>
      </trkpt>
      <trkpt lat="43.27688" lon="-0.33931">
        <ele>215</ele>
        <time>2025-08-11T11:55:00.000Z</time>
      </trkpt>
      <trkpt lat="43.27693" lon="-0.3394">
        <ele>215</ele>
        <time>2025-08-11T11:55:02.000Z</time>
      </trkpt>
      <trkpt lat="43.27698" lon="-0.33956">
        <ele>215</ele>
        <time>2025-08-11T11:55:05.000Z</time>
      </trkpt>
      <trkpt lat="43.27698" lon="-0.33961">
        <ele>215</ele>
        <time>2025-08-11T11:55:06.000Z</time>
      </trkpt>
      <trkpt lat="43.27697" lon="-0.33965">
        <ele>215</ele>
        <time>2025-08-11T11:55:07.000Z</time>
      </trkpt>
      <trkpt lat="43.27693" lon="-0.33976">
        <ele>215.19999694824</ele>
        <time>2025-08-11T11:55:09.000Z</time>
      </trkpt>
      <trkpt lat="43.2769" lon="-0.33981">
        <ele>215.19999694824</ele>
        <time>2025-08-11T11:55:10.000Z</time>
      </trkpt>
      <trkpt lat="43.27686" lon="-0.33995">
        <ele>215.19999694824</ele>
        <time>2025-08-11T11:55:13.000Z</time>
      </trkpt>
      <trkpt lat="43.27686" lon="-0.34">
        <ele>215.19999694824</ele>
        <time>2025-08-11T11:55:14.000Z</time>
      </trkpt>
      <trkpt lat="43.27688" lon="-0.34028">
        <ele>215.19999694824</ele>
        <time>2025-08-11T11:55:20.000Z</time>
      </trkpt>
      <trkpt lat="43.27688" lon="-0.34031">
        <ele>215.19999694824</ele>
        <time>2025-08-11T11:55:22.000Z</time>
      </trkpt>
      <trkpt lat="43.27688" lon="-0.34035">
        <ele>215.19999694824</ele>
        <time>2025-08-11T11:55:25.000Z</time>
      </trkpt>
      <trkpt lat="43.27687" lon="-0.34041">
        <ele>215</ele>
        <time>2025-08-11T11:55:28.000Z</time>
      </trkpt>
      <trkpt lat="43.27687" lon="-0.34046">
        <ele>215</ele>
        <time>2025-08-11T11:55:30.000Z</time>
      </trkpt>
      <trkpt lat="43.27688" lon="-0.34049">
        <ele>215</ele>
        <time>2025-08-11T11:55:31.000Z</time>
      </trkpt>
      <trkpt lat="43.27693" lon="-0.34062">
        <ele>215</ele>
        <time>2025-08-11T11:55:35.000Z</time>
      </trkpt>
      <trkpt lat="43.27706" lon="-0.34079">
        <ele>214.80000305176</ele>
        <time>2025-08-11T11:55:42.000Z</time>
      </trkpt>
      <trkpt lat="43.27729" lon="-0.34082">
        <ele>214.60000610352</ele>
        <time>2025-08-11T11:55:49.000Z</time>
      </trkpt>
      <trkpt lat="43.27748" lon="-0.34083">
        <ele>214.80000305176</ele>
        <time>2025-08-11T11:55:54.000Z</time>
      </trkpt>
      <trkpt lat="43.27771" lon="-0.34091">
        <ele>214.80000305176</ele>
        <time>2025-08-11T11:56:00.000Z</time>
      </trkpt>
      <trkpt lat="43.27782" lon="-0.34107">
        <ele>214.60000610352</ele>
        <time>2025-08-11T11:56:04.000Z</time>
      </trkpt>
      <trkpt lat="43.27789" lon="-0.34113">
        <ele>214.39999389648</ele>
        <time>2025-08-11T11:56:06.000Z</time>
      </trkpt>
      <trkpt lat="43.27804" lon="-0.34123">
        <ele>214.39999389648</ele>
        <time>2025-08-11T11:56:10.000Z</time>
      </trkpt>
      <trkpt lat="43.27811" lon="-0.34131">
        <ele>214.39999389648</ele>
        <time>2025-08-11T11:56:12.000Z</time>
      </trkpt>
      <trkpt lat="43.27832" lon="-0.34156">
        <ele>214.60000610352</ele>
        <time>2025-08-11T11:56:19.000Z</time>
      </trkpt>
      <trkpt lat="43.27839" lon="-0.34164">
        <ele>214.39999389648</ele>
        <time>2025-08-11T11:56:21.000Z</time>
      </trkpt>
      <trkpt lat="43.27848" lon="-0.3418">
        <ele>214.39999389648</ele>
        <time>2025-08-11T11:56:25.000Z</time>
      </trkpt>
      <trkpt lat="43.27867" lon="-0.34207">
        <ele>214</ele>
        <time>2025-08-11T11:56:32.000Z</time>
      </trkpt>
      <trkpt lat="43.27886" lon="-0.34229">
        <ele>214</ele>
        <time>2025-08-11T11:56:38.000Z</time>
      </trkpt>
      <trkpt lat="43.27905" lon="-0.34242">
        <ele>214.19999694824</ele>
        <time>2025-08-11T11:56:43.000Z</time>
      </trkpt>
      <trkpt lat="43.27916" lon="-0.34263">
        <ele>214</ele>
        <time>2025-08-11T11:56:48.000Z</time>
      </trkpt>
      <trkpt lat="43.27934" lon="-0.34282">
        <ele>214</ele>
        <time>2025-08-11T11:56:54.000Z</time>
      </trkpt>
      <trkpt lat="43.2795" lon="-0.34297">
        <ele>213.60000610352</ele>
        <time>2025-08-11T11:56:58.000Z</time>
      </trkpt>
      <trkpt lat="43.27953" lon="-0.34301">
        <ele>213.60000610352</ele>
        <time>2025-08-11T11:56:59.000Z</time>
      </trkpt>
      <trkpt lat="43.27955" lon="-0.34305">
        <ele>213.60000610352</ele>
        <time>2025-08-11T11:57:00.000Z</time>
      </trkpt>
      <trkpt lat="43.27957" lon="-0.34311">
        <ele>213.39999389648</ele>
        <time>2025-08-11T11:57:01.000Z</time>
      </trkpt>
      <trkpt lat="43.2796" lon="-0.34322">
        <ele>213.19999694824</ele>
        <time>2025-08-11T11:57:03.000Z</time>
      </trkpt>
      <trkpt lat="43.27966" lon="-0.34332">
        <ele>213</ele>
        <time>2025-08-11T11:57:05.000Z</time>
      </trkpt>
      <trkpt lat="43.27972" lon="-0.34337">
        <ele>213</ele>
        <time>2025-08-11T11:57:07.000Z</time>
      </trkpt>
      <trkpt lat="43.27983" lon="-0.34344">
        <ele>212.60000610352</ele>
        <time>2025-08-11T11:57:10.000Z</time>
      </trkpt>
      <trkpt lat="43.27987" lon="-0.34347">
        <ele>212.39999389648</ele>
        <time>2025-08-11T11:57:11.000Z</time>
      </trkpt>
      <trkpt lat="43.27995" lon="-0.34352">
        <ele>212.39999389648</ele>
        <time>2025-08-11T11:57:13.000Z</time>
      </trkpt>
      <trkpt lat="43.28012" lon="-0.34368">
        <ele>211.80000305176</ele>
        <time>2025-08-11T11:57:18.000Z</time>
      </trkpt>
      <trkpt lat="43.28045" lon="-0.34401">
        <ele>212.19999694824</ele>
        <time>2025-08-11T11:57:28.000Z</time>
      </trkpt>
      <trkpt lat="43.28062" lon="-0.34408">
        <ele>212.80000305176</ele>
        <time>2025-08-11T11:57:33.000Z</time>
      </trkpt>
      <trkpt lat="43.28089" lon="-0.34414">
        <ele>213.19999694824</ele>
        <time>2025-08-11T11:57:41.000Z</time>
      </trkpt>
      <trkpt lat="43.28104" lon="-0.34423">
        <ele>213.39999389648</ele>
        <time>2025-08-11T11:57:47.000Z</time>
      </trkpt>
      <trkpt lat="43.28113" lon="-0.34434">
        <ele>213.80000305176</ele>
        <time>2025-08-11T11:57:51.000Z</time>
      </trkpt>
      <trkpt lat="43.28117" lon="-0.34438">
        <ele>213.80000305176</ele>
        <time>2025-08-11T11:57:52.000Z</time>
      </trkpt>
      <trkpt lat="43.28136" lon="-0.3446">
        <ele>214</ele>
        <time>2025-08-11T11:57:58.000Z</time>
      </trkpt>
      <trkpt lat="43.28159" lon="-0.34488">
        <ele>213.60000610352</ele>
        <time>2025-08-11T11:58:05.000Z</time>
      </trkpt>
      <trkpt lat="43.28179" lon="-0.34515">
        <ele>213.19999694824</ele>
        <time>2025-08-11T11:58:11.000Z</time>
      </trkpt>
      <trkpt lat="43.28199" lon="-0.34545">
        <ele>213.19999694824</ele>
        <time>2025-08-11T11:58:18.000Z</time>
      </trkpt>
      <trkpt lat="43.28214" lon="-0.34578">
        <ele>213.19999694824</ele>
        <time>2025-08-11T11:58:25.000Z</time>
      </trkpt>
      <trkpt lat="43.28219" lon="-0.34604">
        <ele>213</ele>
        <time>2025-08-11T11:58:30.000Z</time>
      </trkpt>
      <trkpt lat="43.2823" lon="-0.34633">
        <ele>212.80000305176</ele>
        <time>2025-08-11T11:58:35.000Z</time>
      </trkpt>
      <trkpt lat="43.28232" lon="-0.34636">
        <ele>212.80000305176</ele>
        <time>2025-08-11T11:58:36.000Z</time>
      </trkpt>
      <trkpt lat="43.2824" lon="-0.34665">
        <ele>212.60000610352</ele>
        <time>2025-08-11T11:58:42.000Z</time>
      </trkpt>
      <trkpt lat="43.28245" lon="-0.34693">
        <ele>212.19999694824</ele>
        <time>2025-08-11T11:58:47.000Z</time>
      </trkpt>
      <trkpt lat="43.28257" lon="-0.34725">
        <ele>212.19999694824</ele>
        <time>2025-08-11T11:58:54.000Z</time>
      </trkpt>
      <trkpt lat="43.28283" lon="-0.34767">
        <ele>212.19999694824</ele>
        <time>2025-08-11T11:59:04.000Z</time>
      </trkpt>
      <trkpt lat="43.28304" lon="-0.34807">
        <ele>212.19999694824</ele>
        <time>2025-08-11T11:59:13.000Z</time>
      </trkpt>
      <trkpt lat="43.28315" lon="-0.34829">
        <ele>212.19999694824</ele>
        <time>2025-08-11T11:59:18.000Z</time>
      </trkpt>
      <trkpt lat="43.28318" lon="-0.34838">
        <ele>212.39999389648</ele>
        <time>2025-08-11T11:59:20.000Z</time>
      </trkpt>
      <trkpt lat="43.28334" lon="-0.34876">
        <ele>212.60000610352</ele>
        <time>2025-08-11T11:59:28.000Z</time>
      </trkpt>
      <trkpt lat="43.28354" lon="-0.34915">
        <ele>212.39999389648</ele>
        <time>2025-08-11T11:59:36.000Z</time>
      </trkpt>
      <trkpt lat="43.28358" lon="-0.34926">
        <ele>212.39999389648</ele>
        <time>2025-08-11T11:59:38.000Z</time>
      </trkpt>
      <trkpt lat="43.2836" lon="-0.34936">
        <ele>212.19999694824</ele>
        <time>2025-08-11T11:59:40.000Z</time>
      </trkpt>
      <trkpt lat="43.28362" lon="-0.34942">
        <ele>212.19999694824</ele>
        <time>2025-08-11T11:59:41.000Z</time>
      </trkpt>
      <trkpt lat="43.28365" lon="-0.34946">
        <ele>212.19999694824</ele>
        <time>2025-08-11T11:59:42.000Z</time>
      </trkpt>
      <trkpt lat="43.28373" lon="-0.34955">
        <ele>212</ele>
        <time>2025-08-11T11:59:45.000Z</time>
      </trkpt>
      <trkpt lat="43.284" lon="-0.34973">
        <ele>211.80000305176</ele>
        <time>2025-08-11T11:59:53.000Z</time>
      </trkpt>
      <trkpt lat="43.28422" lon="-0.34985">
        <ele>211.60000610352</ele>
        <time>2025-08-11T12:00:00.000Z</time>
      </trkpt>
      <trkpt lat="43.28443" lon="-0.35001">
        <ele>212.19999694824</ele>
        <time>2025-08-11T12:00:08.000Z</time>
      </trkpt>
      <trkpt lat="43.28445" lon="-0.35003">
        <ele>212.19999694824</ele>
        <time>2025-08-11T12:00:10.000Z</time>
      </trkpt>
      <trkpt lat="43.28445" lon="-0.35003">
        <ele>212.19999694824</ele>
        <time>2025-08-11T12:00:12.000Z</time>
      </trkpt>
      <trkpt lat="43.28445" lon="-0.35003">
        <ele>212</ele>
        <time>2025-08-11T12:00:13.000Z</time>
      </trkpt>
      <trkpt lat="43.28467" lon="-0.34982">
        <ele>214.60000610352</ele>
        <time>2025-08-11T12:04:40.000Z</time>
      </trkpt>
      <trkpt lat="43.28471" lon="-0.34978">
        <ele>215</ele>
        <time>2025-08-11T12:04:42.000Z</time>
      </trkpt>
      <trkpt lat="43.28484" lon="-0.34966">
        <ele>215.39999389648</ele>
        <time>2025-08-11T12:04:49.000Z</time>
      </trkpt>
      <trkpt lat="43.28497" lon="-0.34953">
        <ele>215.60000610352</ele>
        <time>2025-08-11T12:04:55.000Z</time>
      </trkpt>
      <trkpt lat="43.28515" lon="-0.34933">
        <ele>215.80000305176</ele>
        <time>2025-08-11T12:05:03.000Z</time>
      </trkpt>
      <trkpt lat="43.28524" lon="-0.34924">
        <ele>215.80000305176</ele>
        <time>2025-08-11T12:05:07.000Z</time>
      </trkpt>
      <trkpt lat="43.2853" lon="-0.34917">
        <ele>216</ele>
        <time>2025-08-11T12:05:10.000Z</time>
      </trkpt>
      <trkpt lat="43.28548" lon="-0.34896">
        <ele>216</ele>
        <time>2025-08-11T12:05:18.000Z</time>
      </trkpt>
      <trkpt lat="43.28559" lon="-0.34887">
        <ele>216.39999389648</ele>
        <time>2025-08-11T12:05:24.000Z</time>
      </trkpt>
      <trkpt lat="43.28561" lon="-0.34888">
        <ele>216.39999389648</ele>
        <time>2025-08-11T12:05:29.000Z</time>
      </trkpt>
      <trkpt lat="43.28565" lon="-0.34896">
        <ele>216.39999389648</ele>
        <time>2025-08-11T12:05:33.000Z</time>
      </trkpt>
      <trkpt lat="43.28569" lon="-0.34894">
        <ele>216.39999389648</ele>
        <time>2025-08-11T12:05:37.000Z</time>
      </trkpt>
      <trkpt lat="43.2857" lon="-0.34894">
        <ele>216.39999389648</ele>
        <time>2025-08-11T12:05:38.000Z</time>
      </trkpt>
      <trkpt lat="43.2857" lon="-0.34896">
        <ele>216.39999389648</ele>
        <time>2025-08-11T12:05:39.000Z</time>
      </trkpt>
      <trkpt lat="43.28571" lon="-0.34902">
        <ele>216.39999389648</ele>
        <time>2025-08-11T12:05:42.000Z</time>
      </trkpt>
      <trkpt lat="43.28575" lon="-0.34916">
        <ele>216.19999694824</ele>
        <time>2025-08-11T12:05:48.000Z</time>
      </trkpt>
      <trkpt lat="43.28575" lon="-0.34917">
        <ele>216.19999694824</ele>
        <time>2025-08-11T12:05:51.000Z</time>
      </trkpt>
      <trkpt lat="43.28583" lon="-0.34925">
        <ele>216.60000610352</ele>
        <time>2025-08-11T12:06:25.000Z</time>
      </trkpt>
      <trkpt lat="43.28585" lon="-0.34927">
        <ele>216.60000610352</ele>
        <time>2025-08-11T12:06:26.000Z</time>
      </trkpt>
      <trkpt lat="43.28598" lon="-0.34939">
        <ele>216.39999389648</ele>
        <time>2025-08-11T12:06:33.000Z</time>
      </trkpt>
      <trkpt lat="43.2861" lon="-0.34957">
        <ele>216.19999694824</ele>
        <time>2025-08-11T12:06:40.000Z</time>
      </trkpt>
      <trkpt lat="43.28623" lon="-0.34978">
        <ele>216.19999694824</ele>
        <time>2025-08-11T12:06:47.000Z</time>
      </trkpt>
      <trkpt lat="43.28629" lon="-0.34993">
        <ele>216.60000610352</ele>
        <time>2025-08-11T12:06:52.000Z</time>
      </trkpt>
      <trkpt lat="43.28634" lon="-0.35022">
        <ele>216.80000305176</ele>
        <time>2025-08-11T12:06:59.000Z</time>
      </trkpt>
      <trkpt lat="43.28639" lon="-0.35063">
        <ele>216.60000610352</ele>
        <time>2025-08-11T12:07:08.000Z</time>
      </trkpt>
      <trkpt lat="43.28641" lon="-0.35095">
        <ele>216.60000610352</ele>
        <time>2025-08-11T12:07:15.000Z</time>
      </trkpt>
      <trkpt lat="43.28649" lon="-0.35125">
        <ele>216.39999389648</ele>
        <time>2025-08-11T12:07:22.000Z</time>
      </trkpt>
      <trkpt lat="43.28664" lon="-0.35157">
        <ele>216.19999694824</ele>
        <time>2025-08-11T12:07:30.000Z</time>
      </trkpt>
      <trkpt lat="43.2868" lon="-0.35174">
        <ele>216</ele>
        <time>2025-08-11T12:07:36.000Z</time>
      </trkpt>
      <trkpt lat="43.28689" lon="-0.35179">
        <ele>216</ele>
        <time>2025-08-11T12:07:39.000Z</time>
      </trkpt>
      <trkpt lat="43.28702" lon="-0.35192">
        <ele>215.80000305176</ele>
        <time>2025-08-11T12:07:44.000Z</time>
      </trkpt>
      <trkpt lat="43.28706" lon="-0.35207">
        <ele>215.80000305176</ele>
        <time>2025-08-11T12:07:48.000Z</time>
      </trkpt>
      <trkpt lat="43.28704" lon="-0.35231">
        <ele>215.39999389648</ele>
        <time>2025-08-11T12:07:54.000Z</time>
      </trkpt>
      <trkpt lat="43.287" lon="-0.35258">
        <ele>215.19999694824</ele>
        <time>2025-08-11T12:08:00.000Z</time>
      </trkpt>
      <trkpt lat="43.28702" lon="-0.35285">
        <ele>215.19999694824</ele>
        <time>2025-08-11T12:08:06.000Z</time>
      </trkpt>
      <trkpt lat="43.28702" lon="-0.35317">
        <ele>215</ele>
        <time>2025-08-11T12:08:13.000Z</time>
      </trkpt>
      <trkpt lat="43.28693" lon="-0.35343">
        <ele>214.80000305176</ele>
        <time>2025-08-11T12:08:18.000Z</time>
      </trkpt>
      <trkpt lat="43.28691" lon="-0.35349">
        <ele>214.80000305176</ele>
        <time>2025-08-11T12:08:19.000Z</time>
      </trkpt>
      <trkpt lat="43.28687" lon="-0.35371">
        <ele>214.39999389648</ele>
        <time>2025-08-11T12:08:22.000Z</time>
      </trkpt>
      <trkpt lat="43.28687" lon="-0.35408">
        <ele>213.60000610352</ele>
        <time>2025-08-11T12:08:27.000Z</time>
      </trkpt>
      <trkpt lat="43.28688" lon="-0.35415">
        <ele>213.39999389648</ele>
        <time>2025-08-11T12:08:28.000Z</time>
      </trkpt>
      <trkpt lat="43.28689" lon="-0.35421">
        <ele>213.19999694824</ele>
        <time>2025-08-11T12:08:29.000Z</time>
      </trkpt>
      <trkpt lat="43.28692" lon="-0.35433">
        <ele>213</ele>
        <time>2025-08-11T12:08:31.000Z</time>
      </trkpt>
      <trkpt lat="43.28696" lon="-0.35443">
        <ele>213.19999694824</ele>
        <time>2025-08-11T12:08:33.000Z</time>
      </trkpt>
      <trkpt lat="43.287" lon="-0.3546">
        <ele>213.19999694824</ele>
        <time>2025-08-11T12:08:37.000Z</time>
      </trkpt>
      <trkpt lat="43.28703" lon="-0.35494">
        <ele>213.19999694824</ele>
        <time>2025-08-11T12:08:44.000Z</time>
      </trkpt>
      <trkpt lat="43.28705" lon="-0.35524">
        <ele>213.19999694824</ele>
        <time>2025-08-11T12:08:50.000Z</time>
      </trkpt>
      <trkpt lat="43.28708" lon="-0.35543">
        <ele>213.19999694824</ele>
        <time>2025-08-11T12:08:54.000Z</time>
      </trkpt>
      <trkpt lat="43.28715" lon="-0.35581">
        <ele>213</ele>
        <time>2025-08-11T12:09:02.000Z</time>
      </trkpt>
      <trkpt lat="43.28722" lon="-0.35611">
        <ele>213</ele>
        <time>2025-08-11T12:09:09.000Z</time>
      </trkpt>
      <trkpt lat="43.28726" lon="-0.35631">
        <ele>212.80000305176</ele>
        <time>2025-08-11T12:09:14.000Z</time>
      </trkpt>
      <trkpt lat="43.2873" lon="-0.35644">
        <ele>212.60000610352</ele>
        <time>2025-08-11T12:09:17.000Z</time>
      </trkpt>
      <trkpt lat="43.28736" lon="-0.35677">
        <ele>212.19999694824</ele>
        <time>2025-08-11T12:09:24.000Z</time>
      </trkpt>
      <trkpt lat="43.28744" lon="-0.35724">
        <ele>212</ele>
        <time>2025-08-11T12:09:33.000Z</time>
      </trkpt>
      <trkpt lat="43.28747" lon="-0.35757">
        <ele>211.80000305176</ele>
        <time>2025-08-11T12:09:39.000Z</time>
      </trkpt>
      <trkpt lat="43.28749" lon="-0.35772">
        <ele>211.60000610352</ele>
        <time>2025-08-11T12:09:42.000Z</time>
      </trkpt>
      <trkpt lat="43.28753" lon="-0.35804">
        <ele>211.39999389648</ele>
        <time>2025-08-11T12:09:48.000Z</time>
      </trkpt>
      <trkpt lat="43.2876" lon="-0.35842">
        <ele>211</ele>
        <time>2025-08-11T12:09:55.000Z</time>
      </trkpt>
      <trkpt lat="43.28763" lon="-0.35864">
        <ele>211</ele>
        <time>2025-08-11T12:09:59.000Z</time>
      </trkpt>
      <trkpt lat="43.28762" lon="-0.35884">
        <ele>210.80000305176</ele>
        <time>2025-08-11T12:10:03.000Z</time>
      </trkpt>
      <trkpt lat="43.28761" lon="-0.35889">
        <ele>210.80000305176</ele>
        <time>2025-08-11T12:10:04.000Z</time>
      </trkpt>
      <trkpt lat="43.28754" lon="-0.35899">
        <ele>210.60000610352</ele>
        <time>2025-08-11T12:10:07.000Z</time>
      </trkpt>
      <trkpt lat="43.28751" lon="-0.35906">
        <ele>210.60000610352</ele>
        <time>2025-08-11T12:10:10.000Z</time>
      </trkpt>
      <trkpt lat="43.28751" lon="-0.35908">
        <ele>210.60000610352</ele>
        <time>2025-08-11T12:10:11.000Z</time>
      </trkpt>
      <trkpt lat="43.28759" lon="-0.3591">
        <ele>210.60000610352</ele>
        <time>2025-08-11T12:10:15.000Z</time>
      </trkpt>
      <trkpt lat="43.28774" lon="-0.3592">
        <ele>210.19999694824</ele>
        <time>2025-08-11T12:10:20.000Z</time>
      </trkpt>
      <trkpt lat="43.28801" lon="-0.35943">
        <ele>210</ele>
        <time>2025-08-11T12:10:29.000Z</time>
      </trkpt>
      <trkpt lat="43.28826" lon="-0.35962">
        <ele>210</ele>
        <time>2025-08-11T12:10:37.000Z</time>
      </trkpt>
      <trkpt lat="43.28841" lon="-0.35975">
        <ele>209.80000305176</ele>
        <time>2025-08-11T12:10:42.000Z</time>
      </trkpt>
      <trkpt lat="43.28844" lon="-0.35977">
        <ele>209.80000305176</ele>
        <time>2025-08-11T12:10:43.000Z</time>
      </trkpt>
      <trkpt lat="43.28851" lon="-0.35982">
        <ele>209.80000305176</ele>
        <time>2025-08-11T12:10:45.000Z</time>
      </trkpt>
      <trkpt lat="43.28866" lon="-0.35994">
        <ele>209.60000610352</ele>
        <time>2025-08-11T12:10:50.000Z</time>
      </trkpt>
      <trkpt lat="43.28892" lon="-0.36016">
        <ele>209.80000305176</ele>
        <time>2025-08-11T12:10:59.000Z</time>
      </trkpt>
      <trkpt lat="43.28908" lon="-0.36039">
        <ele>209.80000305176</ele>
        <time>2025-08-11T12:11:06.000Z</time>
      </trkpt>
      <trkpt lat="43.28927" lon="-0.36061">
        <ele>209.60000610352</ele>
        <time>2025-08-11T12:11:14.000Z</time>
      </trkpt>
      <trkpt lat="43.28938" lon="-0.36064">
        <ele>209.60000610352</ele>
        <time>2025-08-11T12:11:18.000Z</time>
      </trkpt>
      <trkpt lat="43.28958" lon="-0.3607">
        <ele>210.19999694824</ele>
        <time>2025-08-11T12:11:25.000Z</time>
      </trkpt>
      <trkpt lat="43.28966" lon="-0.36089">
        <ele>210.19999694824</ele>
        <time>2025-08-11T12:11:30.000Z</time>
      </trkpt>
      <trkpt lat="43.28976" lon="-0.36111">
        <ele>210</ele>
        <time>2025-08-11T12:11:36.000Z</time>
      </trkpt>
      <trkpt lat="43.28977" lon="-0.36112">
        <ele>210</ele>
        <time>2025-08-11T12:11:37.000Z</time>
      </trkpt>
      <trkpt lat="43.28981" lon="-0.36113">
        <ele>210</ele>
        <time>2025-08-11T12:11:39.000Z</time>
      </trkpt>
      <trkpt lat="43.28991" lon="-0.36121">
        <ele>209.80000305176</ele>
        <time>2025-08-11T12:11:44.000Z</time>
      </trkpt>
      <trkpt lat="43.29009" lon="-0.36133">
        <ele>209.60000610352</ele>
        <time>2025-08-11T12:11:50.000Z</time>
      </trkpt>
      <trkpt lat="43.29039" lon="-0.36156">
        <ele>209.39999389648</ele>
        <time>2025-08-11T12:12:00.000Z</time>
      </trkpt>
      <trkpt lat="43.29063" lon="-0.36177">
        <ele>209.60000610352</ele>
        <time>2025-08-11T12:12:08.000Z</time>
      </trkpt>
      <trkpt lat="43.2909" lon="-0.36198">
        <ele>209.80000305176</ele>
        <time>2025-08-11T12:12:16.000Z</time>
      </trkpt>
      <trkpt lat="43.29124" lon="-0.36226">
        <ele>210</ele>
        <time>2025-08-11T12:12:27.000Z</time>
      </trkpt>
      <trkpt lat="43.29148" lon="-0.36252">
        <ele>209.60000610352</ele>
        <time>2025-08-11T12:12:35.000Z</time>
      </trkpt>
      <trkpt lat="43.2916" lon="-0.36279">
        <ele>209.60000610352</ele>
        <time>2025-08-11T12:12:41.000Z</time>
      </trkpt>
      <trkpt lat="43.29183" lon="-0.36321">
        <ele>209.39999389648</ele>
        <time>2025-08-11T12:12:52.000Z</time>
      </trkpt>
      <trkpt lat="43.29186" lon="-0.36327">
        <ele>209.60000610352</ele>
        <time>2025-08-11T12:12:56.000Z</time>
      </trkpt>
      <trkpt lat="43.29188" lon="-0.36333">
        <ele>210.19999694824</ele>
        <time>2025-08-11T12:13:48.000Z</time>
      </trkpt>
      <trkpt lat="43.29191" lon="-0.3634">
        <ele>210.19999694824</ele>
        <time>2025-08-11T12:13:50.000Z</time>
      </trkpt>
      <trkpt lat="43.29195" lon="-0.36345">
        <ele>210.19999694824</ele>
        <time>2025-08-11T12:13:52.000Z</time>
      </trkpt>
      <trkpt lat="43.29201" lon="-0.3635">
        <ele>210.19999694824</ele>
        <time>2025-08-11T12:13:54.000Z</time>
      </trkpt>
      <trkpt lat="43.29217" lon="-0.36356">
        <ele>210.39999389648</ele>
        <time>2025-08-11T12:13:59.000Z</time>
      </trkpt>
      <trkpt lat="43.29237" lon="-0.36361">
        <ele>210.39999389648</ele>
        <time>2025-08-11T12:14:06.000Z</time>
      </trkpt>
      <trkpt lat="43.29238" lon="-0.36361">
        <ele>210.39999389648</ele>
        <time>2025-08-11T12:14:08.000Z</time>
      </trkpt>
      <trkpt lat="43.29239" lon="-0.36361">
        <ele>210.39999389648</ele>
        <time>2025-08-11T12:14:11.000Z</time>
      </trkpt>
      <trkpt lat="43.29243" lon="-0.36366">
        <ele>209.80000305176</ele>
        <time>2025-08-11T12:14:16.000Z</time>
      </trkpt>
      <trkpt lat="43.29244" lon="-0.36373">
        <ele>209.80000305176</ele>
        <time>2025-08-11T12:14:18.000Z</time>
      </trkpt>
      <trkpt lat="43.2924" lon="-0.36396">
        <ele>209.60000610352</ele>
        <time>2025-08-11T12:14:23.000Z</time>
      </trkpt>
      <trkpt lat="43.29234" lon="-0.36427">
        <ele>209.39999389648</ele>
        <time>2025-08-11T12:14:29.000Z</time>
      </trkpt>
      <trkpt lat="43.29228" lon="-0.36469">
        <ele>209.60000610352</ele>
        <time>2025-08-11T12:14:37.000Z</time>
      </trkpt>
      <trkpt lat="43.2923" lon="-0.3648">
        <ele>209.60000610352</ele>
        <time>2025-08-11T12:14:39.000Z</time>
      </trkpt>
      <trkpt lat="43.29232" lon="-0.36484">
        <ele>209.60000610352</ele>
        <time>2025-08-11T12:14:40.000Z</time>
      </trkpt>
      <trkpt lat="43.29242" lon="-0.3649">
        <ele>209.80000305176</ele>
        <time>2025-08-11T12:14:43.000Z</time>
      </trkpt>
      <trkpt lat="43.29254" lon="-0.36493">
        <ele>210</ele>
        <time>2025-08-11T12:14:48.000Z</time>
      </trkpt>
      <trkpt lat="43.29267" lon="-0.36494">
        <ele>210.60000610352</ele>
        <time>2025-08-11T12:14:54.000Z</time>
      </trkpt>
      <trkpt lat="43.29282" lon="-0.36499">
        <ele>211.19999694824</ele>
        <time>2025-08-11T12:15:01.000Z</time>
      </trkpt>
      <trkpt lat="43.29287" lon="-0.36498">
        <ele>211.39999389648</ele>
        <time>2025-08-11T12:15:03.000Z</time>
      </trkpt>
      <trkpt lat="43.29295" lon="-0.36496">
        <ele>211.60000610352</ele>
        <time>2025-08-11T12:15:07.000Z</time>
      </trkpt>
      <trkpt lat="43.29305" lon="-0.36491">
        <ele>212.60000610352</ele>
        <time>2025-08-11T12:15:13.000Z</time>
      </trkpt>
      <trkpt lat="43.29307" lon="-0.36489">
        <ele>212.60000610352</ele>
        <time>2025-08-11T12:15:14.000Z</time>
      </trkpt>
      <trkpt lat="43.29315" lon="-0.36474">
        <ele>213.39999389648</ele>
        <time>2025-08-11T12:15:20.000Z</time>
      </trkpt>
      <trkpt lat="43.29316" lon="-0.36471">
        <ele>213.39999389648</ele>
        <time>2025-08-11T12:15:21.000Z</time>
      </trkpt>
      <trkpt lat="43.29318" lon="-0.3646">
        <ele>213.60000610352</ele>
        <time>2025-08-11T12:15:25.000Z</time>
      </trkpt>
      <trkpt lat="43.29318" lon="-0.36455">
        <ele>213.60000610352</ele>
        <time>2025-08-11T12:15:27.000Z</time>
      </trkpt>
      <trkpt lat="43.29319" lon="-0.36436">
        <ele>213.80000305176</ele>
        <time>2025-08-11T12:15:34.000Z</time>
      </trkpt>
      <trkpt lat="43.29324" lon="-0.36419">
        <ele>214.39999389648</ele>
        <time>2025-08-11T12:15:40.000Z</time>
      </trkpt>
      <trkpt lat="43.29325" lon="-0.36412">
        <ele>214.60000610352</ele>
        <time>2025-08-11T12:15:42.000Z</time>
      </trkpt>
      <trkpt lat="43.29328" lon="-0.36398">
        <ele>214.80000305176</ele>
        <time>2025-08-11T12:15:47.000Z</time>
      </trkpt>
      <trkpt lat="43.29334" lon="-0.36374">
        <ele>215.39999389648</ele>
        <time>2025-08-11T12:15:55.000Z</time>
      </trkpt>
      <trkpt lat="43.29339" lon="-0.36369">
        <ele>215.60000610352</ele>
        <time>2025-08-11T12:15:58.000Z</time>
      </trkpt>
      <trkpt lat="43.29346" lon="-0.36364">
        <ele>216</ele>
        <time>2025-08-11T12:16:02.000Z</time>
      </trkpt>
      <trkpt lat="43.29352" lon="-0.36362">
        <ele>216.19999694824</ele>
        <time>2025-08-11T12:16:05.000Z</time>
      </trkpt>
      <trkpt lat="43.29354" lon="-0.36364">
        <ele>216.19999694824</ele>
        <time>2025-08-11T12:16:06.000Z</time>
      </trkpt>
      <trkpt lat="43.29358" lon="-0.36366">
        <ele>216.60000610352</ele>
        <time>2025-08-11T12:16:08.000Z</time>
      </trkpt>
      <trkpt lat="43.29361" lon="-0.36369">
        <ele>216.80000305176</ele>
        <time>2025-08-11T12:16:10.000Z</time>
      </trkpt>
      <trkpt lat="43.29364" lon="-0.36373">
        <ele>217</ele>
        <time>2025-08-11T12:16:12.000Z</time>
      </trkpt>
      <trkpt lat="43.2937" lon="-0.3639">
        <ele>217.19999694824</ele>
        <time>2025-08-11T12:16:19.000Z</time>
      </trkpt>
      <trkpt lat="43.2937" lon="-0.36392">
        <ele>217.39999389648</ele>
        <time>2025-08-11T12:16:20.000Z</time>
      </trkpt>
      <trkpt lat="43.2937" lon="-0.364">
        <ele>217.60000610352</ele>
        <time>2025-08-11T12:16:23.000Z</time>
      </trkpt>
      <trkpt lat="43.2937" lon="-0.36406">
        <ele>217.60000610352</ele>
        <time>2025-08-11T12:16:25.000Z</time>
      </trkpt>
      <trkpt lat="43.29369" lon="-0.36409">
        <ele>217.60000610352</ele>
        <time>2025-08-11T12:16:26.000Z</time>
      </trkpt>
      <trkpt lat="43.29367" lon="-0.36413">
        <ele>217.80000305176</ele>
        <time>2025-08-11T12:16:28.000Z</time>
      </trkpt>
      <trkpt lat="43.29366" lon="-0.36427">
        <ele>218.19999694824</ele>
        <time>2025-08-11T12:16:33.000Z</time>
      </trkpt>
      <trkpt lat="43.29366" lon="-0.36441">
        <ele>218.80000305176</ele>
        <time>2025-08-11T12:16:38.000Z</time>
      </trkpt>
      <trkpt lat="43.29365" lon="-0.36446">
        <ele>218.80000305176</ele>
        <time>2025-08-11T12:16:40.000Z</time>
      </trkpt>
      <trkpt lat="43.29365" lon="-0.36456">
        <ele>219.19999694824</ele>
        <time>2025-08-11T12:16:44.000Z</time>
      </trkpt>
      <trkpt lat="43.29364" lon="-0.36462">
        <ele>219.19999694824</ele>
        <time>2025-08-11T12:16:46.000Z</time>
      </trkpt>
      <trkpt lat="43.29363" lon="-0.36474">
        <ele>219.80000305176</ele>
        <time>2025-08-11T12:16:50.000Z</time>
      </trkpt>
      <trkpt lat="43.29361" lon="-0.36483">
        <ele>220.19999694824</ele>
        <time>2025-08-11T12:16:54.000Z</time>
      </trkpt>
      <trkpt lat="43.29362" lon="-0.36498">
        <ele>220.80000305176</ele>
        <time>2025-08-11T12:17:00.000Z</time>
      </trkpt>
      <trkpt lat="43.29362" lon="-0.36504">
        <ele>221</ele>
        <time>2025-08-11T12:17:02.000Z</time>
      </trkpt>
      <trkpt lat="43.2936" lon="-0.36509">
        <ele>221.19999694824</ele>
        <time>2025-08-11T12:17:04.000Z</time>
      </trkpt>
      <trkpt lat="43.29357" lon="-0.3652">
        <ele>221.80000305176</ele>
        <time>2025-08-11T12:17:09.000Z</time>
      </trkpt>
      <trkpt lat="43.29356" lon="-0.36526">
        <ele>222</ele>
        <time>2025-08-11T12:17:11.000Z</time>
      </trkpt>
      <trkpt lat="43.29352" lon="-0.36545">
        <ele>222.60000610352</ele>
        <time>2025-08-11T12:17:18.000Z</time>
      </trkpt>
      <trkpt lat="43.29353" lon="-0.3655">
        <ele>222.80000305176</ele>
        <time>2025-08-11T12:17:20.000Z</time>
      </trkpt>
      <trkpt lat="43.29354" lon="-0.36552">
        <ele>223</ele>
        <time>2025-08-11T12:17:21.000Z</time>
      </trkpt>
      <trkpt lat="43.29356" lon="-0.36554">
        <ele>223.19999694824</ele>
        <time>2025-08-11T12:17:23.000Z</time>
      </trkpt>
      <trkpt lat="43.29356" lon="-0.36554">
        <ele>223.19999694824</ele>
        <time>2025-08-11T12:17:25.000Z</time>
      </trkpt>
      <trkpt lat="43.29355" lon="-0.36556">
        <ele>223.19999694824</ele>
        <time>2025-08-11T12:17:44.000Z</time>
      </trkpt>
      <trkpt lat="43.29355" lon="-0.36555">
        <ele>223.19999694824</ele>
        <time>2025-08-11T12:17:45.000Z</time>
      </trkpt>
      <trkpt lat="43.29357" lon="-0.36553">
        <ele>223.39999389648</ele>
        <time>2025-08-11T12:17:48.000Z</time>
      </trkpt>
      <trkpt lat="43.29357" lon="-0.36551">
        <ele>223.39999389648</ele>
        <time>2025-08-11T12:17:50.000Z</time>
      </trkpt>
      <trkpt lat="43.29357" lon="-0.3655">
        <ele>223.80000305176</ele>
        <time>2025-08-11T12:17:52.000Z</time>
      </trkpt>
      <trkpt lat="43.29357" lon="-0.3655">
        <ele>224</ele>
        <time>2025-08-11T12:17:53.000Z</time>
      </trkpt>
      <trkpt lat="43.29359" lon="-0.3654">
        <ele>225.39999389648</ele>
        <time>2025-08-11T12:21:55.000Z</time>
      </trkpt>
      <trkpt lat="43.29363" lon="-0.3652">
        <ele>225.39999389648</ele>
        <time>2025-08-11T12:22:02.000Z</time>
      </trkpt>
      <trkpt lat="43.29369" lon="-0.3649">
        <ele>225.39999389648</ele>
        <time>2025-08-11T12:22:13.000Z</time>
      </trkpt>
      <trkpt lat="43.29371" lon="-0.36474">
        <ele>225.80000305176</ele>
        <time>2025-08-11T12:22:19.000Z</time>
      </trkpt>
      <trkpt lat="43.29375" lon="-0.36449">
        <ele>226.39999389648</ele>
        <time>2025-08-11T12:22:28.000Z</time>
      </trkpt>
      <trkpt lat="43.29375" lon="-0.36447">
        <ele>226.39999389648</ele>
        <time>2025-08-11T12:22:29.000Z</time>
      </trkpt>
      <trkpt lat="43.29377" lon="-0.36428">
        <ele>227.19999694824</ele>
        <time>2025-08-11T12:22:36.000Z</time>
      </trkpt>
      <trkpt lat="43.2938" lon="-0.36421">
        <ele>227.39999389648</ele>
        <time>2025-08-11T12:22:39.000Z</time>
      </trkpt>
      <trkpt lat="43.29382" lon="-0.36407">
        <ele>227.80000305176</ele>
        <time>2025-08-11T12:22:44.000Z</time>
      </trkpt>
      <trkpt lat="43.29386" lon="-0.3639">
        <ele>228.39999389648</ele>
        <time>2025-08-11T12:22:51.000Z</time>
      </trkpt>
      <trkpt lat="43.29386" lon="-0.36387">
        <ele>228.60000610352</ele>
        <time>2025-08-11T12:22:52.000Z</time>
      </trkpt>
      <trkpt lat="43.29387" lon="-0.36375">
        <ele>229.19999694824</ele>
        <time>2025-08-11T12:22:59.000Z</time>
      </trkpt>
      <trkpt lat="43.2939" lon="-0.36364">
        <ele>229.60000610352</ele>
        <time>2025-08-11T12:23:04.000Z</time>
      </trkpt>
      <trkpt lat="43.29391" lon="-0.36362">
        <ele>229.60000610352</ele>
        <time>2025-08-11T12:23:05.000Z</time>
      </trkpt>
      <trkpt lat="43.29395" lon="-0.36354">
        <ele>230</ele>
        <time>2025-08-11T12:23:08.000Z</time>
      </trkpt>
      <trkpt lat="43.29398" lon="-0.36349">
        <ele>230.19999694824</ele>
        <time>2025-08-11T12:23:11.000Z</time>
      </trkpt>
      <trkpt lat="43.29399" lon="-0.36348">
        <ele>230.19999694824</ele>
        <time>2025-08-11T12:23:12.000Z</time>
      </trkpt>
      <trkpt lat="43.29403" lon="-0.36349">
        <ele>230.60000610352</ele>
        <time>2025-08-11T12:23:14.000Z</time>
      </trkpt>
      <trkpt lat="43.29417" lon="-0.36351">
        <ele>231.60000610352</ele>
        <time>2025-08-11T12:23:19.000Z</time>
      </trkpt>
      <trkpt lat="43.29426" lon="-0.36365">
        <ele>232</ele>
        <time>2025-08-11T12:23:25.000Z</time>
      </trkpt>
      <trkpt lat="43.29428" lon="-0.3637">
        <ele>232.19999694824</ele>
        <time>2025-08-11T12:23:27.000Z</time>
      </trkpt>
      <trkpt lat="43.29428" lon="-0.36377">
        <ele>232.60000610352</ele>
        <time>2025-08-11T12:23:29.000Z</time>
      </trkpt>
      <trkpt lat="43.29428" lon="-0.3638">
        <ele>232.60000610352</ele>
        <time>2025-08-11T12:23:30.000Z</time>
      </trkpt>
      <trkpt lat="43.29429" lon="-0.36395">
        <ele>233.60000610352</ele>
        <time>2025-08-11T12:23:35.000Z</time>
      </trkpt>
      <trkpt lat="43.29428" lon="-0.36399">
        <ele>233.80000305176</ele>
        <time>2025-08-11T12:23:36.000Z</time>
      </trkpt>
      <trkpt lat="43.29431" lon="-0.36418">
        <ele>234.19999694824</ele>
        <time>2025-08-11T12:23:42.000Z</time>
      </trkpt>
      <trkpt lat="43.29432" lon="-0.36427">
        <ele>234.39999389648</ele>
        <time>2025-08-11T12:23:45.000Z</time>
      </trkpt>
      <trkpt lat="43.29439" lon="-0.36443">
        <ele>234.80000305176</ele>
        <time>2025-08-11T12:23:50.000Z</time>
      </trkpt>
      <trkpt lat="43.2944" lon="-0.36449">
        <ele>234.80000305176</ele>
        <time>2025-08-11T12:23:52.000Z</time>
      </trkpt>
      <trkpt lat="43.29441" lon="-0.3646">
        <ele>235.19999694824</ele>
        <time>2025-08-11T12:23:56.000Z</time>
      </trkpt>
      <trkpt lat="43.29444" lon="-0.36466">
        <ele>235.39999389648</ele>
        <time>2025-08-11T12:23:58.000Z</time>
      </trkpt>
      <trkpt lat="43.2945" lon="-0.3648">
        <ele>235.60000610352</ele>
        <time>2025-08-11T12:24:03.000Z</time>
      </trkpt>
      <trkpt lat="43.29468" lon="-0.36504">
        <ele>236.60000610352</ele>
        <time>2025-08-11T12:24:11.000Z</time>
      </trkpt>
      <trkpt lat="43.29478" lon="-0.36515">
        <ele>237.80000305176</ele>
        <time>2025-08-11T12:24:15.000Z</time>
      </trkpt>
      <trkpt lat="43.29482" lon="-0.36516">
        <ele>237.80000305176</ele>
        <time>2025-08-11T12:24:16.000Z</time>
      </trkpt>
      <trkpt lat="43.2949" lon="-0.3651">
        <ele>238.39999389648</ele>
        <time>2025-08-11T12:24:18.000Z</time>
      </trkpt>
      <trkpt lat="43.29488" lon="-0.36506">
        <ele>238.39999389648</ele>
        <time>2025-08-11T12:24:20.000Z</time>
      </trkpt>
      <trkpt lat="43.29478" lon="-0.36493">
        <ele>238.60000610352</ele>
        <time>2025-08-11T12:24:23.000Z</time>
      </trkpt>
      <trkpt lat="43.29478" lon="-0.36491">
        <ele>238.60000610352</ele>
        <time>2025-08-11T12:24:24.000Z</time>
      </trkpt>
      <trkpt lat="43.29478" lon="-0.3649">
        <ele>238.39999389648</ele>
        <time>2025-08-11T12:24:26.000Z</time>
      </trkpt>
      <trkpt lat="43.29477" lon="-0.36485">
        <ele>239</ele>
        <time>2025-08-11T12:26:01.000Z</time>
      </trkpt>
      <trkpt lat="43.29476" lon="-0.36476">
        <ele>238.60000610352</ele>
        <time>2025-08-11T12:26:04.000Z</time>
      </trkpt>
      <trkpt lat="43.29474" lon="-0.36455">
        <ele>238.39999389648</ele>
        <time>2025-08-11T12:26:10.000Z</time>
      </trkpt>
      <trkpt lat="43.29468" lon="-0.3643">
        <ele>238.19999694824</ele>
        <time>2025-08-11T12:26:17.000Z</time>
      </trkpt>
      <trkpt lat="43.29462" lon="-0.36402">
        <ele>238.19999694824</ele>
        <time>2025-08-11T12:26:24.000Z</time>
      </trkpt>
      <trkpt lat="43.29452" lon="-0.36365">
        <ele>238</ele>
        <time>2025-08-11T12:26:32.000Z</time>
      </trkpt>
      <trkpt lat="43.29439" lon="-0.3633">
        <ele>237.80000305176</ele>
        <time>2025-08-11T12:26:39.000Z</time>
      </trkpt>
      <trkpt lat="43.29437" lon="-0.36325">
        <ele>237.80000305176</ele>
        <time>2025-08-11T12:26:40.000Z</time>
      </trkpt>
      <trkpt lat="43.29435" lon="-0.36316">
        <ele>237.60000610352</ele>
        <time>2025-08-11T12:26:42.000Z</time>
      </trkpt>
      <trkpt lat="43.29436" lon="-0.36312">
        <ele>237.60000610352</ele>
        <time>2025-08-11T12:26:43.000Z</time>
      </trkpt>
      <trkpt lat="43.29438" lon="-0.3631">
        <ele>237.39999389648</ele>
        <time>2025-08-11T12:26:44.000Z</time>
      </trkpt>
      <trkpt lat="43.29444" lon="-0.36309">
        <ele>237.39999389648</ele>
        <time>2025-08-11T12:26:46.000Z</time>
      </trkpt>
      <trkpt lat="43.29457" lon="-0.36307">
        <ele>237.39999389648</ele>
        <time>2025-08-11T12:26:51.000Z</time>
      </trkpt>
      <trkpt lat="43.29473" lon="-0.36298">
        <ele>237.80000305176</ele>
        <time>2025-08-11T12:26:57.000Z</time>
      </trkpt>
      <trkpt lat="43.29486" lon="-0.36281">
        <ele>238.60000610352</ele>
        <time>2025-08-11T12:27:03.000Z</time>
      </trkpt>
      <trkpt lat="43.29497" lon="-0.3626">
        <ele>238.80000305176</ele>
        <time>2025-08-11T12:27:10.000Z</time>
      </trkpt>
      <trkpt lat="43.29499" lon="-0.36256">
        <ele>238.80000305176</ele>
        <time>2025-08-11T12:27:11.000Z</time>
      </trkpt>
      <trkpt lat="43.2951" lon="-0.36235">
        <ele>239</ele>
        <time>2025-08-11T12:27:17.000Z</time>
      </trkpt>
      <trkpt lat="43.29523" lon="-0.36214">
        <ele>239.19999694824</ele>
        <time>2025-08-11T12:27:23.000Z</time>
      </trkpt>
      <trkpt lat="43.29537" lon="-0.36195">
        <ele>239.19999694824</ele>
        <time>2025-08-11T12:27:29.000Z</time>
      </trkpt>
      <trkpt lat="43.29563" lon="-0.36176">
        <ele>239.80000305176</ele>
        <time>2025-08-11T12:27:38.000Z</time>
      </trkpt>
      <trkpt lat="43.2957" lon="-0.36172">
        <ele>240</ele>
        <time>2025-08-11T12:27:40.000Z</time>
      </trkpt>
      <trkpt lat="43.29583" lon="-0.36168">
        <ele>240.19999694824</ele>
        <time>2025-08-11T12:27:45.000Z</time>
      </trkpt>
      <trkpt lat="43.2961" lon="-0.36164">
        <ele>240.39999389648</ele>
        <time>2025-08-11T12:27:53.000Z</time>
      </trkpt>
      <trkpt lat="43.29631" lon="-0.36162">
        <ele>240.60000610352</ele>
        <time>2025-08-11T12:28:00.000Z</time>
      </trkpt>
      <trkpt lat="43.2966" lon="-0.36156">
        <ele>240.80000305176</ele>
        <time>2025-08-11T12:28:07.000Z</time>
      </trkpt>
      <trkpt lat="43.29683" lon="-0.36138">
        <ele>240.80000305176</ele>
        <time>2025-08-11T12:28:14.000Z</time>
      </trkpt>
      <trkpt lat="43.29698" lon="-0.36113">
        <ele>240.60000610352</ele>
        <time>2025-08-11T12:28:21.000Z</time>
      </trkpt>
      <trkpt lat="43.29708" lon="-0.36081">
        <ele>240.19999694824</ele>
        <time>2025-08-11T12:28:29.000Z</time>
      </trkpt>
      <trkpt lat="43.29711" lon="-0.3605">
        <ele>240.60000610352</ele>
        <time>2025-08-11T12:28:35.000Z</time>
      </trkpt>
      <trkpt lat="43.29707" lon="-0.36014">
        <ele>240.80000305176</ele>
        <time>2025-08-11T12:28:42.000Z</time>
      </trkpt>
      <trkpt lat="43.29693" lon="-0.35976">
        <ele>241</ele>
        <time>2025-08-11T12:28:51.000Z</time>
      </trkpt>
      <trkpt lat="43.29682" lon="-0.35956">
        <ele>241</ele>
        <time>2025-08-11T12:28:56.000Z</time>
      </trkpt>
      <trkpt lat="43.29679" lon="-0.35945">
        <ele>240.80000305176</ele>
        <time>2025-08-11T12:28:59.000Z</time>
      </trkpt>
      <trkpt lat="43.29678" lon="-0.35943">
        <ele>241</ele>
        <time>2025-08-11T12:29:00.000Z</time>
      </trkpt>
      <trkpt lat="43.29672" lon="-0.35926">
        <ele>241</ele>
        <time>2025-08-11T12:29:06.000Z</time>
      </trkpt>
      <trkpt lat="43.29667" lon="-0.35917">
        <ele>241</ele>
        <time>2025-08-11T12:29:09.000Z</time>
      </trkpt>
      <trkpt lat="43.29666" lon="-0.35906">
        <ele>241</ele>
        <time>2025-08-11T12:29:12.000Z</time>
      </trkpt>
      <trkpt lat="43.29671" lon="-0.35887">
        <ele>241.39999389648</ele>
        <time>2025-08-11T12:29:18.000Z</time>
      </trkpt>
      <trkpt lat="43.29671" lon="-0.35875">
        <ele>241.60000610352</ele>
        <time>2025-08-11T12:29:22.000Z</time>
      </trkpt>
      <trkpt lat="43.2967" lon="-0.35872">
        <ele>241.19999694824</ele>
        <time>2025-08-11T12:29:24.000Z</time>
      </trkpt>
      <trkpt lat="43.29667" lon="-0.3587">
        <ele>241.19999694824</ele>
        <time>2025-08-11T12:29:26.000Z</time>
      </trkpt>
      <trkpt lat="43.29664" lon="-0.3587">
        <ele>240.80000305176</ele>
        <time>2025-08-11T12:29:30.000Z</time>
      </trkpt>
      <trkpt lat="43.29662" lon="-0.35865">
        <ele>240.60000610352</ele>
        <time>2025-08-11T12:29:33.000Z</time>
      </trkpt>
      <trkpt lat="43.29665" lon="-0.35859">
        <ele>240.60000610352</ele>
        <time>2025-08-11T12:29:35.000Z</time>
      </trkpt>
      <trkpt lat="43.29667" lon="-0.35858">
        <ele>240.60000610352</ele>
        <time>2025-08-11T12:29:36.000Z</time>
      </trkpt>
      <trkpt lat="43.29685" lon="-0.35853">
        <ele>240.80000305176</ele>
        <time>2025-08-11T12:29:42.000Z</time>
      </trkpt>
      <trkpt lat="43.29706" lon="-0.35851">
        <ele>241</ele>
        <time>2025-08-11T12:29:48.000Z</time>
      </trkpt>
      <trkpt lat="43.29732" lon="-0.35847">
        <ele>241.19999694824</ele>
        <time>2025-08-11T12:29:55.000Z</time>
      </trkpt>
      <trkpt lat="43.29768" lon="-0.35841">
        <ele>241.39999389648</ele>
        <time>2025-08-11T12:30:05.000Z</time>
      </trkpt>
      <trkpt lat="43.29771" lon="-0.35841">
        <ele>241.60000610352</ele>
        <time>2025-08-11T12:30:09.000Z</time>
      </trkpt>
      <trkpt lat="43.29771" lon="-0.35841">
        <ele>241.60000610352</ele>
        <time>2025-08-11T12:30:10.000Z</time>
      </trkpt>
      <trkpt lat="43.29776" lon="-0.3584">
        <ele>242</ele>
        <time>2025-08-11T12:31:05.000Z</time>
      </trkpt>
      <trkpt lat="43.2978" lon="-0.35839">
        <ele>242</ele>
        <time>2025-08-11T12:31:07.000Z</time>
      </trkpt>
      <trkpt lat="43.29796" lon="-0.35836">
        <ele>241.80000305176</ele>
        <time>2025-08-11T12:31:13.000Z</time>
      </trkpt>
      <trkpt lat="43.29812" lon="-0.35834">
        <ele>241.60000610352</ele>
        <time>2025-08-11T12:31:18.000Z</time>
      </trkpt>
      <trkpt lat="43.29823" lon="-0.35826">
        <ele>241.60000610352</ele>
        <time>2025-08-11T12:31:23.000Z</time>
      </trkpt>
      <trkpt lat="43.29825" lon="-0.35819">
        <ele>241.60000610352</ele>
        <time>2025-08-11T12:31:28.000Z</time>
      </trkpt>
      <trkpt lat="43.29825" lon="-0.35819">
        <ele>241.60000610352</ele>
        <time>2025-08-11T12:31:29.000Z</time>
      </trkpt>
      <trkpt lat="43.29828" lon="-0.35817">
        <ele>241.39999389648</ele>
        <time>2025-08-11T12:31:36.000Z</time>
      </trkpt>
      <trkpt lat="43.29831" lon="-0.35818">
        <ele>241.39999389648</ele>
        <time>2025-08-11T12:31:38.000Z</time>
      </trkpt>
      <trkpt lat="43.29832" lon="-0.35819">
        <ele>241.39999389648</ele>
        <time>2025-08-11T12:31:39.000Z</time>
      </trkpt>
      <trkpt lat="43.29836" lon="-0.35827">
        <ele>241.39999389648</ele>
        <time>2025-08-11T12:31:42.000Z</time>
      </trkpt>
      <trkpt lat="43.29846" lon="-0.35831">
        <ele>241.19999694824</ele>
        <time>2025-08-11T12:31:47.000Z</time>
      </trkpt>
      <trkpt lat="43.29868" lon="-0.35827">
        <ele>241.19999694824</ele>
        <time>2025-08-11T12:31:54.000Z</time>
      </trkpt>
      <trkpt lat="43.29892" lon="-0.35824">
        <ele>241</ele>
        <time>2025-08-11T12:32:00.000Z</time>
      </trkpt>
      <trkpt lat="43.29922" lon="-0.3582">
        <ele>241</ele>
        <time>2025-08-11T12:32:07.000Z</time>
      </trkpt>
      <trkpt lat="43.29926" lon="-0.35819">
        <ele>241</ele>
        <time>2025-08-11T12:32:08.000Z</time>
      </trkpt>
      <trkpt lat="43.2993" lon="-0.35818">
        <ele>241</ele>
        <time>2025-08-11T12:32:09.000Z</time>
      </trkpt>
      <trkpt lat="43.29938" lon="-0.35816">
        <ele>241</ele>
        <time>2025-08-11T12:32:11.000Z</time>
      </trkpt>
      <trkpt lat="43.29951" lon="-0.35815">
        <ele>241</ele>
        <time>2025-08-11T12:32:14.000Z</time>
      </trkpt>
      <trkpt lat="43.29989" lon="-0.35811">
        <ele>240.80000305176</ele>
        <time>2025-08-11T12:32:23.000Z</time>
      </trkpt>
      <trkpt lat="43.30014" lon="-0.35806">
        <ele>240.39999389648</ele>
        <time>2025-08-11T12:32:29.000Z</time>
      </trkpt>
      <trkpt lat="43.30022" lon="-0.35803">
        <ele>240.39999389648</ele>
        <time>2025-08-11T12:32:31.000Z</time>
      </trkpt>
      <trkpt lat="43.30039" lon="-0.35796">
        <ele>240.19999694824</ele>
        <time>2025-08-11T12:32:36.000Z</time>
      </trkpt>
      <trkpt lat="43.3005" lon="-0.35802">
        <ele>240</ele>
        <time>2025-08-11T12:32:40.000Z</time>
      </trkpt>
      <trkpt lat="43.30068" lon="-0.358">
        <ele>240</ele>
        <time>2025-08-11T12:32:46.000Z</time>
      </trkpt>
      <trkpt lat="43.30091" lon="-0.35797">
        <ele>240.39999389648</ele>
        <time>2025-08-11T12:32:53.000Z</time>
      </trkpt>
      <trkpt lat="43.3011" lon="-0.35793">
        <ele>240.60000610352</ele>
        <time>2025-08-11T12:32:59.000Z</time>
      </trkpt>
      <trkpt lat="43.30127" lon="-0.35788">
        <ele>240.80000305176</ele>
        <time>2025-08-11T12:33:05.000Z</time>
      </trkpt>
      <trkpt lat="43.30128" lon="-0.35786">
        <ele>241</ele>
        <time>2025-08-11T12:33:06.000Z</time>
      </trkpt>
      <trkpt lat="43.30132" lon="-0.35776">
        <ele>241</ele>
        <time>2025-08-11T12:33:10.000Z</time>
      </trkpt>
      <trkpt lat="43.30142" lon="-0.35766">
        <ele>241</ele>
        <time>2025-08-11T12:33:16.000Z</time>
      </trkpt>
      <trkpt lat="43.30145" lon="-0.35762">
        <ele>241.19999694824</ele>
        <time>2025-08-11T12:33:18.000Z</time>
      </trkpt>
      <trkpt lat="43.30148" lon="-0.35748">
        <ele>241.19999694824</ele>
        <time>2025-08-11T12:33:22.000Z</time>
      </trkpt>
      <trkpt lat="43.3015" lon="-0.35739">
        <ele>241.39999389648</ele>
        <time>2025-08-11T12:33:24.000Z</time>
      </trkpt>
      <trkpt lat="43.30148" lon="-0.35728">
        <ele>241.39999389648</ele>
        <time>2025-08-11T12:33:26.000Z</time>
      </trkpt>
      <trkpt lat="43.30149" lon="-0.35723">
        <ele>241.39999389648</ele>
        <time>2025-08-11T12:33:27.000Z</time>
      </trkpt>
      <trkpt lat="43.30154" lon="-0.35718">
        <ele>241.39999389648</ele>
        <time>2025-08-11T12:33:29.000Z</time>
      </trkpt>
      <trkpt lat="43.30159" lon="-0.35724">
        <ele>241.39999389648</ele>
        <time>2025-08-11T12:33:31.000Z</time>
      </trkpt>
      <trkpt lat="43.30161" lon="-0.35746">
        <ele>241.19999694824</ele>
        <time>2025-08-11T12:33:35.000Z</time>
      </trkpt>
      <trkpt lat="43.30166" lon="-0.35773">
        <ele>240.80000305176</ele>
        <time>2025-08-11T12:33:40.000Z</time>
      </trkpt>
      <trkpt lat="43.30168" lon="-0.35796">
        <ele>240.80000305176</ele>
        <time>2025-08-11T12:33:44.000Z</time>
      </trkpt>
      <trkpt lat="43.30175" lon="-0.35821">
        <ele>240.80000305176</ele>
        <time>2025-08-11T12:33:48.000Z</time>
      </trkpt>
      <trkpt lat="43.30175" lon="-0.35826">
        <ele>240.80000305176</ele>
        <time>2025-08-11T12:33:49.000Z</time>
      </trkpt>
      <trkpt lat="43.30176" lon="-0.35832">
        <ele>240.80000305176</ele>
        <time>2025-08-11T12:33:50.000Z</time>
      </trkpt>
      <trkpt lat="43.30175" lon="-0.35852">
        <ele>240.80000305176</ele>
        <time>2025-08-11T12:33:54.000Z</time>
      </trkpt>
      <trkpt lat="43.30181" lon="-0.35863">
        <ele>240.80000305176</ele>
        <time>2025-08-11T12:33:56.000Z</time>
      </trkpt>
      <trkpt lat="43.30184" lon="-0.35868">
        <ele>240.80000305176</ele>
        <time>2025-08-11T12:33:57.000Z</time>
      </trkpt>
      <trkpt lat="43.30198" lon="-0.35901">
        <ele>241</ele>
        <time>2025-08-11T12:34:03.000Z</time>
      </trkpt>
      <trkpt lat="43.30204" lon="-0.35924">
        <ele>241.19999694824</ele>
        <time>2025-08-11T12:34:08.000Z</time>
      </trkpt>
      <trkpt lat="43.30213" lon="-0.35948">
        <ele>241.19999694824</ele>
        <time>2025-08-11T12:34:13.000Z</time>
      </trkpt>
      <trkpt lat="43.30231" lon="-0.35992">
        <ele>241.19999694824</ele>
        <time>2025-08-11T12:34:21.000Z</time>
      </trkpt>
      <trkpt lat="43.30241" lon="-0.36017">
        <ele>241</ele>
        <time>2025-08-11T12:34:28.000Z</time>
      </trkpt>
      <trkpt lat="43.30243" lon="-0.36018">
        <ele>241</ele>
        <time>2025-08-11T12:34:29.000Z</time>
      </trkpt>
      <trkpt lat="43.30243" lon="-0.36018">
        <ele>241</ele>
        <time>2025-08-11T12:34:31.000Z</time>
      </trkpt>
      <trkpt lat="43.30243" lon="-0.36018">
        <ele>240.80000305176</ele>
        <time>2025-08-11T12:34:32.000Z</time>
      </trkpt>
      <trkpt lat="43.30243" lon="-0.36024">
        <ele>239.80000305176</ele>
        <time>2025-08-11T12:34:59.000Z</time>
      </trkpt>
      <trkpt lat="43.30245" lon="-0.36031">
        <ele>239.60000610352</ele>
        <time>2025-08-11T12:35:02.000Z</time>
      </trkpt>
      <trkpt lat="43.3025" lon="-0.36055">
        <ele>239.60000610352</ele>
        <time>2025-08-11T12:35:08.000Z</time>
      </trkpt>
      <trkpt lat="43.30257" lon="-0.36086">
        <ele>239.60000610352</ele>
        <time>2025-08-11T12:35:14.000Z</time>
      </trkpt>
      <trkpt lat="43.30265" lon="-0.36117">
        <ele>239.39999389648</ele>
        <time>2025-08-11T12:35:20.000Z</time>
      </trkpt>
      <trkpt lat="43.30271" lon="-0.36145">
        <ele>239.19999694824</ele>
        <time>2025-08-11T12:35:26.000Z</time>
      </trkpt>
      <trkpt lat="43.30274" lon="-0.36148">
        <ele>239.19999694824</ele>
        <time>2025-08-11T12:35:28.000Z</time>
      </trkpt>
      <trkpt lat="43.30276" lon="-0.36149">
        <ele>239.19999694824</ele>
        <time>2025-08-11T12:35:29.000Z</time>
      </trkpt>
      <trkpt lat="43.30278" lon="-0.36148">
        <ele>239.19999694824</ele>
        <time>2025-08-11T12:35:30.000Z</time>
      </trkpt>
      <trkpt lat="43.30286" lon="-0.36142">
        <ele>239.39999389648</ele>
        <time>2025-08-11T12:35:34.000Z</time>
      </trkpt>
      <trkpt lat="43.30305" lon="-0.36133">
        <ele>239.80000305176</ele>
        <time>2025-08-11T12:35:40.000Z</time>
      </trkpt>
      <trkpt lat="43.30319" lon="-0.36124">
        <ele>240.19999694824</ele>
        <time>2025-08-11T12:35:45.000Z</time>
      </trkpt>
      <trkpt lat="43.3032" lon="-0.36124">
        <ele>240.19999694824</ele>
        <time>2025-08-11T12:35:48.000Z</time>
      </trkpt>
      <trkpt lat="43.30328" lon="-0.36129">
        <ele>240.19999694824</ele>
        <time>2025-08-11T12:35:55.000Z</time>
      </trkpt>
      <trkpt lat="43.30345" lon="-0.36122">
        <ele>240</ele>
        <time>2025-08-11T12:36:00.000Z</time>
      </trkpt>
      <trkpt lat="43.30362" lon="-0.3611">
        <ele>240.19999694824</ele>
        <time>2025-08-11T12:36:06.000Z</time>
      </trkpt>
      <trkpt lat="43.30382" lon="-0.361">
        <ele>240.60000610352</ele>
        <time>2025-08-11T12:36:12.000Z</time>
      </trkpt>
      <trkpt lat="43.30387" lon="-0.36097">
        <ele>240.60000610352</ele>
        <time>2025-08-11T12:36:14.000Z</time>
      </trkpt>
      <trkpt lat="43.3041" lon="-0.36084">
        <ele>240.80000305176</ele>
        <time>2025-08-11T12:36:21.000Z</time>
      </trkpt>
      <trkpt lat="43.30414" lon="-0.36082">
        <ele>241</ele>
        <time>2025-08-11T12:36:23.000Z</time>
      </trkpt>
      <trkpt lat="43.30424" lon="-0.36075">
        <ele>241</ele>
        <time>2025-08-11T12:36:26.000Z</time>
      </trkpt>
      <trkpt lat="43.30427" lon="-0.36066">
        <ele>241.19999694824</ele>
        <time>2025-08-11T12:36:28.000Z</time>
      </trkpt>
      <trkpt lat="43.3043" lon="-0.3606">
        <ele>241.19999694824</ele>
        <time>2025-08-11T12:36:30.000Z</time>
      </trkpt>
      <trkpt lat="43.30433" lon="-0.36059">
        <ele>241.39999389648</ele>
        <time>2025-08-11T12:36:31.000Z</time>
      </trkpt>
      <trkpt lat="43.30444" lon="-0.36063">
        <ele>241.19999694824</ele>
        <time>2025-08-11T12:36:35.000Z</time>
      </trkpt>
      <trkpt lat="43.30465" lon="-0.36073">
        <ele>241</ele>
        <time>2025-08-11T12:36:41.000Z</time>
      </trkpt>
      <trkpt lat="43.30481" lon="-0.3608">
        <ele>240.80000305176</ele>
        <time>2025-08-11T12:36:46.000Z</time>
      </trkpt>
      <trkpt lat="43.30507" lon="-0.36093">
        <ele>240.60000610352</ele>
        <time>2025-08-11T12:36:54.000Z</time>
      </trkpt>
      <trkpt lat="43.30521" lon="-0.36098">
        <ele>240.19999694824</ele>
        <time>2025-08-11T12:37:00.000Z</time>
      </trkpt>
      <trkpt lat="43.30533" lon="-0.36102">
        <ele>239.39999389648</ele>
        <time>2025-08-11T12:37:05.000Z</time>
      </trkpt>
      <trkpt lat="43.30545" lon="-0.36104">
        <ele>239</ele>
        <time>2025-08-11T12:37:09.000Z</time>
      </trkpt>
      <trkpt lat="43.30562" lon="-0.36107">
        <ele>238.60000610352</ele>
        <time>2025-08-11T12:37:15.000Z</time>
      </trkpt>
      <trkpt lat="43.30584" lon="-0.36104">
        <ele>238.80000305176</ele>
        <time>2025-08-11T12:37:22.000Z</time>
      </trkpt>
      <trkpt lat="43.30607" lon="-0.36097">
        <ele>239.39999389648</ele>
        <time>2025-08-11T12:37:29.000Z</time>
      </trkpt>
      <trkpt lat="43.30638" lon="-0.36087">
        <ele>240</ele>
        <time>2025-08-11T12:37:38.000Z</time>
      </trkpt>
      <trkpt lat="43.30657" lon="-0.36081">
        <ele>240.19999694824</ele>
        <time>2025-08-11T12:37:44.000Z</time>
      </trkpt>
      <trkpt lat="43.30678" lon="-0.36075">
        <ele>240.19999694824</ele>
        <time>2025-08-11T12:37:51.000Z</time>
      </trkpt>
      <trkpt lat="43.30701" lon="-0.36071">
        <ele>240</ele>
        <time>2025-08-11T12:37:57.000Z</time>
      </trkpt>
      <trkpt lat="43.30734" lon="-0.36067">
        <ele>240</ele>
        <time>2025-08-11T12:38:04.000Z</time>
      </trkpt>
      <trkpt lat="43.30756" lon="-0.36061">
        <ele>240</ele>
        <time>2025-08-11T12:38:09.000Z</time>
      </trkpt>
      <trkpt lat="43.30766" lon="-0.36058">
        <ele>240</ele>
        <time>2025-08-11T12:38:11.000Z</time>
      </trkpt>
      <trkpt lat="43.30799" lon="-0.36047">
        <ele>239.60000610352</ele>
        <time>2025-08-11T12:38:20.000Z</time>
      </trkpt>
      <trkpt lat="43.30814" lon="-0.36047">
        <ele>239.39999389648</ele>
        <time>2025-08-11T12:38:25.000Z</time>
      </trkpt>
      <trkpt lat="43.30819" lon="-0.36065">
        <ele>239.39999389648</ele>
        <time>2025-08-11T12:38:29.000Z</time>
      </trkpt>
      <trkpt lat="43.30823" lon="-0.36095">
        <ele>239.19999694824</ele>
        <time>2025-08-11T12:38:35.000Z</time>
      </trkpt>
      <trkpt lat="43.3083" lon="-0.36126">
        <ele>238.80000305176</ele>
        <time>2025-08-11T12:38:41.000Z</time>
      </trkpt>
      <trkpt lat="43.30839" lon="-0.36153">
        <ele>238.60000610352</ele>
        <time>2025-08-11T12:38:47.000Z</time>
      </trkpt>
      <trkpt lat="43.30842" lon="-0.36181">
        <ele>238.39999389648</ele>
        <time>2025-08-11T12:38:53.000Z</time>
      </trkpt>
      <trkpt lat="43.30844" lon="-0.36207">
        <ele>238.39999389648</ele>
        <time>2025-08-11T12:38:58.000Z</time>
      </trkpt>
      <trkpt lat="43.30847" lon="-0.36232">
        <ele>238.39999389648</ele>
        <time>2025-08-11T12:39:03.000Z</time>
      </trkpt>
      <trkpt lat="43.30851" lon="-0.36266">
        <ele>238.39999389648</ele>
        <time>2025-08-11T12:39:09.000Z</time>
      </trkpt>
      <trkpt lat="43.30861" lon="-0.36322">
        <ele>238.39999389648</ele>
        <time>2025-08-11T12:39:19.000Z</time>
      </trkpt>
      <trkpt lat="43.30864" lon="-0.36341">
        <ele>238.19999694824</ele>
        <time>2025-08-11T12:39:23.000Z</time>
      </trkpt>
      <trkpt lat="43.30866" lon="-0.36353">
        <ele>238.19999694824</ele>
        <time>2025-08-11T12:39:26.000Z</time>
      </trkpt>
      <trkpt lat="43.30869" lon="-0.36372">
        <ele>238.19999694824</ele>
        <time>2025-08-11T12:39:32.000Z</time>
      </trkpt>
      <trkpt lat="43.3087" lon="-0.36373">
        <ele>238.19999694824</ele>
        <time>2025-08-11T12:39:33.000Z</time>
      </trkpt>
      <trkpt lat="43.30874" lon="-0.36373">
        <ele>238</ele>
        <time>2025-08-11T12:39:36.000Z</time>
      </trkpt>
      <trkpt lat="43.30887" lon="-0.36369">
        <ele>237.80000305176</ele>
        <time>2025-08-11T12:39:41.000Z</time>
      </trkpt>
      <trkpt lat="43.309" lon="-0.36363">
        <ele>237.80000305176</ele>
        <time>2025-08-11T12:39:45.000Z</time>
      </trkpt>
      <trkpt lat="43.30906" lon="-0.36359">
        <ele>237.80000305176</ele>
        <time>2025-08-11T12:39:47.000Z</time>
      </trkpt>
      <trkpt lat="43.30927" lon="-0.3635">
        <ele>238</ele>
        <time>2025-08-11T12:39:53.000Z</time>
      </trkpt>
      <trkpt lat="43.30937" lon="-0.36345">
        <ele>238.39999389648</ele>
        <time>2025-08-11T12:39:57.000Z</time>
      </trkpt>
      <trkpt lat="43.30939" lon="-0.36346">
        <ele>238.39999389648</ele>
        <time>2025-08-11T12:40:01.000Z</time>
      </trkpt>
      <trkpt lat="43.30941" lon="-0.3635">
        <ele>238.19999694824</ele>
        <time>2025-08-11T12:40:07.000Z</time>
      </trkpt>
      <trkpt lat="43.30942" lon="-0.36354">
        <ele>238</ele>
        <time>2025-08-11T12:40:09.000Z</time>
      </trkpt>
      <trkpt lat="43.30941" lon="-0.36371">
        <ele>238</ele>
        <time>2025-08-11T12:40:15.000Z</time>
      </trkpt>
      <trkpt lat="43.30943" lon="-0.36389">
        <ele>238</ele>
        <time>2025-08-11T12:40:23.000Z</time>
      </trkpt>
      <trkpt lat="43.30943" lon="-0.36389">
        <ele>238</ele>
        <time>2025-08-11T12:40:25.000Z</time>
      </trkpt>
      <trkpt lat="43.30944" lon="-0.36395">
        <ele>237.60000610352</ele>
        <time>2025-08-11T12:40:38.000Z</time>
      </trkpt>
      <trkpt lat="43.30944" lon="-0.36398">
        <ele>237.60000610352</ele>
        <time>2025-08-11T12:40:39.000Z</time>
      </trkpt>
      <trkpt lat="43.30946" lon="-0.36408">
        <ele>237.60000610352</ele>
        <time>2025-08-11T12:40:43.000Z</time>
      </trkpt>
      <trkpt lat="43.30946" lon="-0.36409">
        <ele>237.60000610352</ele>
        <time>2025-08-11T12:40:44.000Z</time>
      </trkpt>
      <trkpt lat="43.30944" lon="-0.36413">
        <ele>237.60000610352</ele>
        <time>2025-08-11T12:40:47.000Z</time>
      </trkpt>
      <trkpt lat="43.30944" lon="-0.36415">
        <ele>237.60000610352</ele>
        <time>2025-08-11T12:40:48.000Z</time>
      </trkpt>
      <trkpt lat="43.30944" lon="-0.3643">
        <ele>237.39999389648</ele>
        <time>2025-08-11T12:40:54.000Z</time>
      </trkpt>
      <trkpt lat="43.30943" lon="-0.36456">
        <ele>237.19999694824</ele>
        <time>2025-08-11T12:41:01.000Z</time>
      </trkpt>
      <trkpt lat="43.30947" lon="-0.36481">
        <ele>237.39999389648</ele>
        <time>2025-08-11T12:41:07.000Z</time>
      </trkpt>
      <trkpt lat="43.30949" lon="-0.36485">
        <ele>237.39999389648</ele>
        <time>2025-08-11T12:41:09.000Z</time>
      </trkpt>
      <trkpt lat="43.30952" lon="-0.36487">
        <ele>237.39999389648</ele>
        <time>2025-08-11T12:41:11.000Z</time>
      </trkpt>
      <trkpt lat="43.30952" lon="-0.36493">
        <ele>237.39999389648</ele>
        <time>2025-08-11T12:41:14.000Z</time>
      </trkpt>
      <trkpt lat="43.30952" lon="-0.36499">
        <ele>237.19999694824</ele>
        <time>2025-08-11T12:41:16.000Z</time>
      </trkpt>
      <trkpt lat="43.30952" lon="-0.36521">
        <ele>237</ele>
        <time>2025-08-11T12:41:22.000Z</time>
      </trkpt>
      <trkpt lat="43.30954" lon="-0.36549">
        <ele>237</ele>
        <time>2025-08-11T12:41:28.000Z</time>
      </trkpt>
      <trkpt lat="43.30959" lon="-0.36582">
        <ele>237</ele>
        <time>2025-08-11T12:41:35.000Z</time>
      </trkpt>
      <trkpt lat="43.30962" lon="-0.36605">
        <ele>237</ele>
        <time>2025-08-11T12:41:40.000Z</time>
      </trkpt>
      <trkpt lat="43.3096" lon="-0.36608">
        <ele>237</ele>
        <time>2025-08-11T12:41:41.000Z</time>
      </trkpt>
      <trkpt lat="43.30949" lon="-0.36618">
        <ele>237.19999694824</ele>
        <time>2025-08-11T12:41:46.000Z</time>
      </trkpt>
      <trkpt lat="43.30932" lon="-0.36622">
        <ele>237.39999389648</ele>
        <time>2025-08-11T12:41:51.000Z</time>
      </trkpt>
      <trkpt lat="43.30928" lon="-0.36623">
        <ele>237.39999389648</ele>
        <time>2025-08-11T12:41:52.000Z</time>
      </trkpt>
      <trkpt lat="43.30907" lon="-0.3663">
        <ele>237.19999694824</ele>
        <time>2025-08-11T12:41:58.000Z</time>
      </trkpt>
      <trkpt lat="43.309" lon="-0.36632">
        <ele>237.19999694824</ele>
        <time>2025-08-11T12:42:00.000Z</time>
      </trkpt>
      <trkpt lat="43.30896" lon="-0.36641">
        <ele>237.19999694824</ele>
        <time>2025-08-11T12:42:02.000Z</time>
      </trkpt>
      <trkpt lat="43.30895" lon="-0.36656">
        <ele>237.19999694824</ele>
        <time>2025-08-11T12:42:05.000Z</time>
      </trkpt>
      <trkpt lat="43.30891" lon="-0.3666">
        <ele>237.19999694824</ele>
        <time>2025-08-11T12:42:07.000Z</time>
      </trkpt>
      <trkpt lat="43.30873" lon="-0.36663">
        <ele>237.19999694824</ele>
        <time>2025-08-11T12:42:13.000Z</time>
      </trkpt>
      <trkpt lat="43.30872" lon="-0.36663">
        <ele>237.39999389648</ele>
        <time>2025-08-11T12:42:14.000Z</time>
      </trkpt>
      <trkpt lat="43.30871" lon="-0.36659">
        <ele>237.39999389648</ele>
        <time>2025-08-11T12:42:16.000Z</time>
      </trkpt>
      <trkpt lat="43.3087" lon="-0.36649">
        <ele>237.39999389648</ele>
        <time>2025-08-11T12:42:20.000Z</time>
      </trkpt>
      <trkpt lat="43.30869" lon="-0.36647">
        <ele>237.19999694824</ele>
        <time>2025-08-11T12:42:21.000Z</time>
      </trkpt>
      <trkpt lat="43.30865" lon="-0.36627">
        <ele>237.19999694824</ele>
        <time>2025-08-11T12:42:27.000Z</time>
      </trkpt>
      <trkpt lat="43.30864" lon="-0.36621">
        <ele>237</ele>
        <time>2025-08-11T12:42:29.000Z</time>
      </trkpt>
      <trkpt lat="43.3086" lon="-0.36609">
        <ele>237</ele>
        <time>2025-08-11T12:42:32.000Z</time>
      </trkpt>
      <trkpt lat="43.30855" lon="-0.36588">
        <ele>236.60000610352</ele>
        <time>2025-08-11T12:42:40.000Z</time>
      </trkpt>
      <trkpt lat="43.30855" lon="-0.36581">
        <ele>236.60000610352</ele>
        <time>2025-08-11T12:42:46.000Z</time>
      </trkpt>
      <trkpt lat="43.30855" lon="-0.36579">
        <ele>237</ele>
        <time>2025-08-11T12:42:51.000Z</time>
      </trkpt>
      <trkpt lat="43.30854" lon="-0.36588">
        <ele>237.80000305176</ele>
        <time>2025-08-11T12:46:24.000Z</time>
      </trkpt>
      <trkpt lat="43.30854" lon="-0.36591">
        <ele>237.80000305176</ele>
        <time>2025-08-11T12:46:25.000Z</time>
      </trkpt>
      <trkpt lat="43.30854" lon="-0.36605">
        <ele>237.60000610352</ele>
        <time>2025-08-11T12:46:31.000Z</time>
      </trkpt>
      <trkpt lat="43.30856" lon="-0.36625">
        <ele>237.39999389648</ele>
        <time>2025-08-11T12:46:37.000Z</time>
      </trkpt>
      <trkpt lat="43.30859" lon="-0.36649">
        <ele>237.19999694824</ele>
        <time>2025-08-11T12:46:44.000Z</time>
      </trkpt>
      <trkpt lat="43.30859" lon="-0.36656">
        <ele>237.19999694824</ele>
        <time>2025-08-11T12:46:46.000Z</time>
      </trkpt>
      <trkpt lat="43.30856" lon="-0.36659">
        <ele>237.19999694824</ele>
        <time>2025-08-11T12:46:48.000Z</time>
      </trkpt>
      <trkpt lat="43.30843" lon="-0.36668">
        <ele>237</ele>
        <time>2025-08-11T12:46:53.000Z</time>
      </trkpt>
      <trkpt lat="43.30823" lon="-0.36675">
        <ele>236.60000610352</ele>
        <time>2025-08-11T12:47:00.000Z</time>
      </trkpt>
      <trkpt lat="43.30805" lon="-0.36681">
        <ele>236.19999694824</ele>
        <time>2025-08-11T12:47:06.000Z</time>
      </trkpt>
      <trkpt lat="43.30774" lon="-0.36689">
        <ele>236.39999389648</ele>
        <time>2025-08-11T12:47:16.000Z</time>
      </trkpt>
      <trkpt lat="43.30744" lon="-0.36696">
        <ele>236.60000610352</ele>
        <time>2025-08-11T12:47:25.000Z</time>
      </trkpt>
      <trkpt lat="43.30719" lon="-0.36702">
        <ele>237</ele>
        <time>2025-08-11T12:47:32.000Z</time>
      </trkpt>
      <trkpt lat="43.30684" lon="-0.36709">
        <ele>237.19999694824</ele>
        <time>2025-08-11T12:47:42.000Z</time>
      </trkpt>
      <trkpt lat="43.30649" lon="-0.36702">
        <ele>237.19999694824</ele>
        <time>2025-08-11T12:47:51.000Z</time>
      </trkpt>
      <trkpt lat="43.30625" lon="-0.36694">
        <ele>237</ele>
        <time>2025-08-11T12:47:58.000Z</time>
      </trkpt>
      <trkpt lat="43.30623" lon="-0.36692">
        <ele>237</ele>
        <time>2025-08-11T12:47:59.000Z</time>
      </trkpt>
      <trkpt lat="43.30622" lon="-0.36687">
        <ele>237</ele>
        <time>2025-08-11T12:48:01.000Z</time>
      </trkpt>
      <trkpt lat="43.30627" lon="-0.36674">
        <ele>237</ele>
        <time>2025-08-11T12:48:06.000Z</time>
      </trkpt>
      <trkpt lat="43.30637" lon="-0.36653">
        <ele>237.19999694824</ele>
        <time>2025-08-11T12:48:12.000Z</time>
      </trkpt>
      <trkpt lat="43.30641" lon="-0.36646">
        <ele>237.19999694824</ele>
        <time>2025-08-11T12:48:14.000Z</time>
      </trkpt>
      <trkpt lat="43.30649" lon="-0.36625">
        <ele>237.39999389648</ele>
        <time>2025-08-11T12:48:20.000Z</time>
      </trkpt>
      <trkpt lat="43.30657" lon="-0.36605">
        <ele>237.60000610352</ele>
        <time>2025-08-11T12:48:25.000Z</time>
      </trkpt>
      <trkpt lat="43.30667" lon="-0.36588">
        <ele>237.60000610352</ele>
        <time>2025-08-11T12:48:31.000Z</time>
      </trkpt>
      <trkpt lat="43.30668" lon="-0.36587">
        <ele>238</ele>
        <time>2025-08-11T12:48:35.000Z</time>
      </trkpt>
      <trkpt lat="43.30671" lon="-0.36582">
        <ele>238</ele>
        <time>2025-08-11T12:48:37.000Z</time>
      </trkpt>
      <trkpt lat="43.30679" lon="-0.36572">
        <ele>238.19999694824</ele>
        <time>2025-08-11T12:48:41.000Z</time>
      </trkpt>
      <trkpt lat="43.30694" lon="-0.36555">
        <ele>238.60000610352</ele>
        <time>2025-08-11T12:48:47.000Z</time>
      </trkpt>
      <trkpt lat="43.30715" lon="-0.36541">
        <ele>239.19999694824</ele>
        <time>2025-08-11T12:48:54.000Z</time>
      </trkpt>
      <trkpt lat="43.30724" lon="-0.36535">
        <ele>239.19999694824</ele>
        <time>2025-08-11T12:48:57.000Z</time>
      </trkpt>
      <trkpt lat="43.30734" lon="-0.36527">
        <ele>239</ele>
        <time>2025-08-11T12:49:01.000Z</time>
      </trkpt>
      <trkpt lat="43.30769" lon="-0.36506">
        <ele>239.19999694824</ele>
        <time>2025-08-11T12:49:13.000Z</time>
      </trkpt>
      <trkpt lat="43.30787" lon="-0.36493">
        <ele>239.19999694824</ele>
        <time>2025-08-11T12:49:20.000Z</time>
      </trkpt>
      <trkpt lat="43.30815" lon="-0.36477">
        <ele>239.19999694824</ele>
        <time>2025-08-11T12:49:29.000Z</time>
      </trkpt>
      <trkpt lat="43.30826" lon="-0.36472">
        <ele>239.19999694824</ele>
        <time>2025-08-11T12:49:34.000Z</time>
      </trkpt>
      <trkpt lat="43.30827" lon="-0.36472">
        <ele>239.19999694824</ele>
        <time>2025-08-11T12:49:35.000Z</time>
      </trkpt>
      <trkpt lat="43.30827" lon="-0.36472">
        <ele>239</ele>
        <time>2025-08-11T12:49:37.000Z</time>
      </trkpt>
      <trkpt lat="43.30829" lon="-0.3649">
        <ele>238.80000305176</ele>
        <time>2025-08-11T12:50:23.000Z</time>
      </trkpt>
      <trkpt lat="43.30829" lon="-0.36492">
        <ele>238.80000305176</ele>
        <time>2025-08-11T12:50:24.000Z</time>
      </trkpt>
      <trkpt lat="43.30832" lon="-0.36502">
        <ele>238.80000305176</ele>
        <time>2025-08-11T12:50:29.000Z</time>
      </trkpt>
      <trkpt lat="43.30832" lon="-0.36504">
        <ele>238.80000305176</ele>
        <time>2025-08-11T12:50:30.000Z</time>
      </trkpt>
      <trkpt lat="43.30831" lon="-0.3651">
        <ele>238.60000610352</ele>
        <time>2025-08-11T12:50:34.000Z</time>
      </trkpt>
      <trkpt lat="43.30831" lon="-0.36514">
        <ele>238.60000610352</ele>
        <time>2025-08-11T12:50:36.000Z</time>
      </trkpt>
      <trkpt lat="43.30831" lon="-0.36517">
        <ele>238.60000610352</ele>
        <time>2025-08-11T12:50:41.000Z</time>
      </trkpt>
      <trkpt lat="43.30677" lon="-0.3657">
        <ele>209.60000610352</ele>
        <time>2025-08-12T06:21:31.000Z</time>
      </trkpt>
      <trkpt lat="43.30662" lon="-0.36592">
        <ele>214.60000610352</ele>
        <time>2025-08-12T06:21:36.000Z</time>
      </trkpt>
      <trkpt lat="43.30657" lon="-0.36602">
        <ele>214.60000610352</ele>
        <time>2025-08-12T06:21:38.000Z</time>
      </trkpt>
      <trkpt lat="43.30646" lon="-0.36621">
        <ele>214.39999389648</ele>
        <time>2025-08-12T06:21:42.000Z</time>
      </trkpt>
      <trkpt lat="43.30643" lon="-0.36626">
        <ele>214.39999389648</ele>
        <time>2025-08-12T06:21:43.000Z</time>
      </trkpt>
      <trkpt lat="43.30627" lon="-0.36666">
        <ele>214.60000610352</ele>
        <time>2025-08-12T06:21:50.000Z</time>
      </trkpt>
      <trkpt lat="43.30621" lon="-0.36678">
        <ele>214.60000610352</ele>
        <time>2025-08-12T06:21:52.000Z</time>
      </trkpt>
      <trkpt lat="43.30599" lon="-0.36725">
        <ele>214.39999389648</ele>
        <time>2025-08-12T06:22:00.000Z</time>
      </trkpt>
      <trkpt lat="43.3059" lon="-0.36742">
        <ele>214.19999694824</ele>
        <time>2025-08-12T06:22:03.000Z</time>
      </trkpt>
      <trkpt lat="43.30582" lon="-0.36757">
        <ele>214</ele>
        <time>2025-08-12T06:22:06.000Z</time>
      </trkpt>
      <trkpt lat="43.30575" lon="-0.36768">
        <ele>214</ele>
        <time>2025-08-12T06:22:08.000Z</time>
      </trkpt>
      <trkpt lat="43.30566" lon="-0.36777">
        <ele>214</ele>
        <time>2025-08-12T06:22:10.000Z</time>
      </trkpt>
      <trkpt lat="43.30542" lon="-0.36797">
        <ele>213.80000305176</ele>
        <time>2025-08-12T06:22:15.000Z</time>
      </trkpt>
      <trkpt lat="43.30532" lon="-0.36802">
        <ele>213.80000305176</ele>
        <time>2025-08-12T06:22:17.000Z</time>
      </trkpt>
      <trkpt lat="43.30495" lon="-0.36815">
        <ele>213.39999389648</ele>
        <time>2025-08-12T06:22:24.000Z</time>
      </trkpt>
      <trkpt lat="43.3049" lon="-0.36817">
        <ele>213.39999389648</ele>
        <time>2025-08-12T06:22:25.000Z</time>
      </trkpt>
      <trkpt lat="43.30455" lon="-0.36829">
        <ele>213</ele>
        <time>2025-08-12T06:22:32.000Z</time>
      </trkpt>
      <trkpt lat="43.30445" lon="-0.36829">
        <ele>213</ele>
        <time>2025-08-12T06:22:34.000Z</time>
      </trkpt>
      <trkpt lat="43.30441" lon="-0.3683">
        <ele>212.80000305176</ele>
        <time>2025-08-12T06:22:35.000Z</time>
      </trkpt>
      <trkpt lat="43.30427" lon="-0.36833">
        <ele>212.80000305176</ele>
        <time>2025-08-12T06:22:38.000Z</time>
      </trkpt>
      <trkpt lat="43.30422" lon="-0.36835">
        <ele>212.80000305176</ele>
        <time>2025-08-12T06:22:39.000Z</time>
      </trkpt>
      <trkpt lat="43.30375" lon="-0.36853">
        <ele>213.19999694824</ele>
        <time>2025-08-12T06:22:49.000Z</time>
      </trkpt>
      <trkpt lat="43.30334" lon="-0.36867">
        <ele>213.60000610352</ele>
        <time>2025-08-12T06:22:58.000Z</time>
      </trkpt>
      <trkpt lat="43.30287" lon="-0.36882">
        <ele>213.80000305176</ele>
        <time>2025-08-12T06:23:08.000Z</time>
      </trkpt>
      <trkpt lat="43.30269" lon="-0.36891">
        <ele>213.80000305176</ele>
        <time>2025-08-12T06:23:12.000Z</time>
      </trkpt>
      <trkpt lat="43.30256" lon="-0.36895">
        <ele>213.80000305176</ele>
        <time>2025-08-12T06:23:15.000Z</time>
      </trkpt>
      <trkpt lat="43.30233" lon="-0.36901">
        <ele>214.19999694824</ele>
        <time>2025-08-12T06:23:20.000Z</time>
      </trkpt>
      <trkpt lat="43.30229" lon="-0.36901">
        <ele>214.19999694824</ele>
        <time>2025-08-12T06:23:21.000Z</time>
      </trkpt>
      <trkpt lat="43.30212" lon="-0.36905">
        <ele>214.19999694824</ele>
        <time>2025-08-12T06:23:25.000Z</time>
      </trkpt>
      <trkpt lat="43.30203" lon="-0.36909">
        <ele>214</ele>
        <time>2025-08-12T06:23:27.000Z</time>
      </trkpt>
      <trkpt lat="43.30194" lon="-0.36911">
        <ele>213.80000305176</ele>
        <time>2025-08-12T06:23:29.000Z</time>
      </trkpt>
      <trkpt lat="43.30182" lon="-0.36915">
        <ele>213.80000305176</ele>
        <time>2025-08-12T06:23:32.000Z</time>
      </trkpt>
      <trkpt lat="43.30162" lon="-0.36922">
        <ele>213.80000305176</ele>
        <time>2025-08-12T06:23:36.000Z</time>
      </trkpt>
      <trkpt lat="43.30153" lon="-0.36926">
        <ele>213.80000305176</ele>
        <time>2025-08-12T06:23:38.000Z</time>
      </trkpt>
      <trkpt lat="43.30136" lon="-0.36933">
        <ele>213.60000610352</ele>
        <time>2025-08-12T06:23:42.000Z</time>
      </trkpt>
      <trkpt lat="43.30128" lon="-0.36936">
        <ele>213.60000610352</ele>
        <time>2025-08-12T06:23:44.000Z</time>
      </trkpt>
      <trkpt lat="43.30097" lon="-0.36945">
        <ele>213.80000305176</ele>
        <time>2025-08-12T06:23:51.000Z</time>
      </trkpt>
      <trkpt lat="43.30084" lon="-0.36951">
        <ele>214</ele>
        <time>2025-08-12T06:23:54.000Z</time>
      </trkpt>
      <trkpt lat="43.3008" lon="-0.36953">
        <ele>214</ele>
        <time>2025-08-12T06:23:55.000Z</time>
      </trkpt>
      <trkpt lat="43.30064" lon="-0.36958">
        <ele>214</ele>
        <time>2025-08-12T06:24:00.000Z</time>
      </trkpt>
      <trkpt lat="43.30051" lon="-0.36965">
        <ele>214</ele>
        <time>2025-08-12T06:24:06.000Z</time>
      </trkpt>
      <trkpt lat="43.30047" lon="-0.36969">
        <ele>214</ele>
        <time>2025-08-12T06:24:09.000Z</time>
      </trkpt>
      <trkpt lat="43.30046" lon="-0.36971">
        <ele>214</ele>
        <time>2025-08-12T06:24:10.000Z</time>
      </trkpt>
      <trkpt lat="43.30045" lon="-0.36971">
        <ele>214</ele>
        <time>2025-08-12T06:24:13.000Z</time>
      </trkpt>
      <trkpt lat="43.3004" lon="-0.36973">
        <ele>213.60000610352</ele>
        <time>2025-08-12T06:24:28.000Z</time>
      </trkpt>
      <trkpt lat="43.30038" lon="-0.36973">
        <ele>213.60000610352</ele>
        <time>2025-08-12T06:24:29.000Z</time>
      </trkpt>
      <trkpt lat="43.30034" lon="-0.36975">
        <ele>213.60000610352</ele>
        <time>2025-08-12T06:24:35.000Z</time>
      </trkpt>
      <trkpt lat="43.30027" lon="-0.36976">
        <ele>213.39999389648</ele>
        <time>2025-08-12T06:24:49.000Z</time>
      </trkpt>
      <trkpt lat="43.30009" lon="-0.36984">
        <ele>213.39999389648</ele>
        <time>2025-08-12T06:24:52.000Z</time>
      </trkpt>
      <trkpt lat="43.29996" lon="-0.3699">
        <ele>213.39999389648</ele>
        <time>2025-08-12T06:24:54.000Z</time>
      </trkpt>
      <trkpt lat="43.29979" lon="-0.36997">
        <ele>213.39999389648</ele>
        <time>2025-08-12T06:24:57.000Z</time>
      </trkpt>
      <trkpt lat="43.29974" lon="-0.36999">
        <ele>213.39999389648</ele>
        <time>2025-08-12T06:24:58.000Z</time>
      </trkpt>
      <trkpt lat="43.29963" lon="-0.37002">
        <ele>213.39999389648</ele>
        <time>2025-08-12T06:25:00.000Z</time>
      </trkpt>
      <trkpt lat="43.29951" lon="-0.37006">
        <ele>213</ele>
        <time>2025-08-12T06:25:02.000Z</time>
      </trkpt>
      <trkpt lat="43.29945" lon="-0.37007">
        <ele>213</ele>
        <time>2025-08-12T06:25:03.000Z</time>
      </trkpt>
      <trkpt lat="43.29935" lon="-0.37009">
        <ele>212.80000305176</ele>
        <time>2025-08-12T06:25:05.000Z</time>
      </trkpt>
      <trkpt lat="43.29922" lon="-0.37012">
        <ele>212.60000610352</ele>
        <time>2025-08-12T06:25:07.000Z</time>
      </trkpt>
      <trkpt lat="43.29894" lon="-0.37022">
        <ele>212.60000610352</ele>
        <time>2025-08-12T06:25:12.000Z</time>
      </trkpt>
      <trkpt lat="43.29883" lon="-0.37029">
        <ele>212.60000610352</ele>
        <time>2025-08-12T06:25:14.000Z</time>
      </trkpt>
      <trkpt lat="43.29878" lon="-0.37033">
        <ele>212.60000610352</ele>
        <time>2025-08-12T06:25:15.000Z</time>
      </trkpt>
      <trkpt lat="43.29862" lon="-0.37048">
        <ele>212.39999389648</ele>
        <time>2025-08-12T06:25:18.000Z</time>
      </trkpt>
      <trkpt lat="43.29844" lon="-0.37039">
        <ele>212</ele>
        <time>2025-08-12T06:25:22.000Z</time>
      </trkpt>
      <trkpt lat="43.29824" lon="-0.37028">
        <ele>212</ele>
        <time>2025-08-12T06:25:27.000Z</time>
      </trkpt>
      <trkpt lat="43.29804" lon="-0.37011">
        <ele>211.80000305176</ele>
        <time>2025-08-12T06:25:32.000Z</time>
      </trkpt>
      <trkpt lat="43.298" lon="-0.37008">
        <ele>211.60000610352</ele>
        <time>2025-08-12T06:25:33.000Z</time>
      </trkpt>
      <trkpt lat="43.29796" lon="-0.37005">
        <ele>211.39999389648</ele>
        <time>2025-08-12T06:25:34.000Z</time>
      </trkpt>
      <trkpt lat="43.29789" lon="-0.36997">
        <ele>211.39999389648</ele>
        <time>2025-08-12T06:25:36.000Z</time>
      </trkpt>
      <trkpt lat="43.29781" lon="-0.36989">
        <ele>211.19999694824</ele>
        <time>2025-08-12T06:25:38.000Z</time>
      </trkpt>
      <trkpt lat="43.29761" lon="-0.36969">
        <ele>210.60000610352</ele>
        <time>2025-08-12T06:25:43.000Z</time>
      </trkpt>
      <trkpt lat="43.29752" lon="-0.36962">
        <ele>210.39999389648</ele>
        <time>2025-08-12T06:25:45.000Z</time>
      </trkpt>
      <trkpt lat="43.29748" lon="-0.36958">
        <ele>210.19999694824</ele>
        <time>2025-08-12T06:25:46.000Z</time>
      </trkpt>
      <trkpt lat="43.29739" lon="-0.36949">
        <ele>210</ele>
        <time>2025-08-12T06:25:48.000Z</time>
      </trkpt>
      <trkpt lat="43.29731" lon="-0.3694">
        <ele>210</ele>
        <time>2025-08-12T06:25:50.000Z</time>
      </trkpt>
      <trkpt lat="43.29715" lon="-0.36923">
        <ele>209.80000305176</ele>
        <time>2025-08-12T06:25:54.000Z</time>
      </trkpt>
      <trkpt lat="43.29706" lon="-0.36916">
        <ele>209.80000305176</ele>
        <time>2025-08-12T06:25:56.000Z</time>
      </trkpt>
      <trkpt lat="43.29703" lon="-0.36912">
        <ele>209.80000305176</ele>
        <time>2025-08-12T06:25:57.000Z</time>
      </trkpt>
      <trkpt lat="43.29691" lon="-0.36903">
        <ele>210.19999694824</ele>
        <time>2025-08-12T06:26:00.000Z</time>
      </trkpt>
      <trkpt lat="43.29672" lon="-0.36885">
        <ele>210.60000610352</ele>
        <time>2025-08-12T06:26:06.000Z</time>
      </trkpt>
      <trkpt lat="43.2966" lon="-0.36876">
        <ele>211.19999694824</ele>
        <time>2025-08-12T06:26:10.000Z</time>
      </trkpt>
      <trkpt lat="43.29649" lon="-0.36866">
        <ele>211.80000305176</ele>
        <time>2025-08-12T06:26:14.000Z</time>
      </trkpt>
      <trkpt lat="43.29637" lon="-0.36852">
        <ele>212.19999694824</ele>
        <time>2025-08-12T06:26:20.000Z</time>
      </trkpt>
      <trkpt lat="43.29633" lon="-0.36849">
        <ele>212.19999694824</ele>
        <time>2025-08-12T06:26:22.000Z</time>
      </trkpt>
      <trkpt lat="43.2963" lon="-0.36848">
        <ele>212.39999389648</ele>
        <time>2025-08-12T06:26:25.000Z</time>
      </trkpt>
      <trkpt lat="43.2963" lon="-0.36846">
        <ele>212.80000305176</ele>
        <time>2025-08-12T06:26:26.000Z</time>
      </trkpt>
      <trkpt lat="43.29625" lon="-0.36842">
        <ele>212.80000305176</ele>
        <time>2025-08-12T06:26:30.000Z</time>
      </trkpt>
      <trkpt lat="43.29619" lon="-0.36835">
        <ele>213.19999694824</ele>
        <time>2025-08-12T06:26:37.000Z</time>
      </trkpt>
      <trkpt lat="43.29617" lon="-0.36838">
        <ele>213.19999694824</ele>
        <time>2025-08-12T06:27:11.000Z</time>
      </trkpt>
      <trkpt lat="43.29618" lon="-0.36846">
        <ele>213.19999694824</ele>
        <time>2025-08-12T06:27:14.000Z</time>
      </trkpt>
      <trkpt lat="43.29619" lon="-0.3685">
        <ele>213.19999694824</ele>
        <time>2025-08-12T06:27:15.000Z</time>
      </trkpt>
      <trkpt lat="43.29619" lon="-0.36864">
        <ele>213.19999694824</ele>
        <time>2025-08-12T06:27:19.000Z</time>
      </trkpt>
      <trkpt lat="43.29623" lon="-0.36878">
        <ele>213</ele>
        <time>2025-08-12T06:27:23.000Z</time>
      </trkpt>
      <trkpt lat="43.29618" lon="-0.36902">
        <ele>213</ele>
        <time>2025-08-12T06:27:29.000Z</time>
      </trkpt>
      <trkpt lat="43.2961" lon="-0.36929">
        <ele>212.80000305176</ele>
        <time>2025-08-12T06:27:35.000Z</time>
      </trkpt>
      <trkpt lat="43.296" lon="-0.36966">
        <ele>212.60000610352</ele>
        <time>2025-08-12T06:27:43.000Z</time>
      </trkpt>
      <trkpt lat="43.29596" lon="-0.36971">
        <ele>212.60000610352</ele>
        <time>2025-08-12T06:27:45.000Z</time>
      </trkpt>
      <trkpt lat="43.29593" lon="-0.36972">
        <ele>212.60000610352</ele>
        <time>2025-08-12T06:27:46.000Z</time>
      </trkpt>
      <trkpt lat="43.29585" lon="-0.36983">
        <ele>212.80000305176</ele>
        <time>2025-08-12T06:27:50.000Z</time>
      </trkpt>
      <trkpt lat="43.29579" lon="-0.37011">
        <ele>212.60000610352</ele>
        <time>2025-08-12T06:27:56.000Z</time>
      </trkpt>
      <trkpt lat="43.29576" lon="-0.37037">
        <ele>212.39999389648</ele>
        <time>2025-08-12T06:28:01.000Z</time>
      </trkpt>
      <trkpt lat="43.29572" lon="-0.37059">
        <ele>212.19999694824</ele>
        <time>2025-08-12T06:28:05.000Z</time>
      </trkpt>
      <trkpt lat="43.2957" lon="-0.37064">
        <ele>212.19999694824</ele>
        <time>2025-08-12T06:28:06.000Z</time>
      </trkpt>
      <trkpt lat="43.29567" lon="-0.37091">
        <ele>211.80000305176</ele>
        <time>2025-08-12T06:28:11.000Z</time>
      </trkpt>
      <trkpt lat="43.29559" lon="-0.37123">
        <ele>211.60000610352</ele>
        <time>2025-08-12T06:28:17.000Z</time>
      </trkpt>
      <trkpt lat="43.29553" lon="-0.37151">
        <ele>211.39999389648</ele>
        <time>2025-08-12T06:28:22.000Z</time>
      </trkpt>
      <trkpt lat="43.29551" lon="-0.37168">
        <ele>211.19999694824</ele>
        <time>2025-08-12T06:28:25.000Z</time>
      </trkpt>
      <trkpt lat="43.29548" lon="-0.37201">
        <ele>210.80000305176</ele>
        <time>2025-08-12T06:28:30.000Z</time>
      </trkpt>
      <trkpt lat="43.29547" lon="-0.37208">
        <ele>210.80000305176</ele>
        <time>2025-08-12T06:28:31.000Z</time>
      </trkpt>
      <trkpt lat="43.29542" lon="-0.37238">
        <ele>210.39999389648</ele>
        <time>2025-08-12T06:28:35.000Z</time>
      </trkpt>
      <trkpt lat="43.2954" lon="-0.37251">
        <ele>210.19999694824</ele>
        <time>2025-08-12T06:28:37.000Z</time>
      </trkpt>
      <trkpt lat="43.2954" lon="-0.37258">
        <ele>210.19999694824</ele>
        <time>2025-08-12T06:28:38.000Z</time>
      </trkpt>
      <trkpt lat="43.29537" lon="-0.37269">
        <ele>210</ele>
        <time>2025-08-12T06:28:40.000Z</time>
      </trkpt>
      <trkpt lat="43.29534" lon="-0.3729">
        <ele>210</ele>
        <time>2025-08-12T06:28:44.000Z</time>
      </trkpt>
      <trkpt lat="43.29533" lon="-0.37295">
        <ele>210</ele>
        <time>2025-08-12T06:28:45.000Z</time>
      </trkpt>
      <trkpt lat="43.29529" lon="-0.37328">
        <ele>210</ele>
        <time>2025-08-12T06:28:51.000Z</time>
      </trkpt>
      <trkpt lat="43.29526" lon="-0.37338">
        <ele>210.19999694824</ele>
        <time>2025-08-12T06:28:53.000Z</time>
      </trkpt>
      <trkpt lat="43.29525" lon="-0.37341">
        <ele>210.19999694824</ele>
        <time>2025-08-12T06:28:54.000Z</time>
      </trkpt>
      <trkpt lat="43.29521" lon="-0.37353">
        <ele>210.39999389648</ele>
        <time>2025-08-12T06:28:58.000Z</time>
      </trkpt>
      <trkpt lat="43.29521" lon="-0.37355">
        <ele>210.60000610352</ele>
        <time>2025-08-12T06:28:59.000Z</time>
      </trkpt>
      <trkpt lat="43.29521" lon="-0.3736">
        <ele>210.80000305176</ele>
        <time>2025-08-12T06:29:01.000Z</time>
      </trkpt>
      <trkpt lat="43.29521" lon="-0.37361">
        <ele>210.80000305176</ele>
        <time>2025-08-12T06:29:02.000Z</time>
      </trkpt>
      <trkpt lat="43.29519" lon="-0.37373">
        <ele>210.80000305176</ele>
        <time>2025-08-12T06:29:06.000Z</time>
      </trkpt>
      <trkpt lat="43.29518" lon="-0.37374">
        <ele>210.80000305176</ele>
        <time>2025-08-12T06:29:07.000Z</time>
      </trkpt>
      <trkpt lat="43.29518" lon="-0.37375">
        <ele>210.80000305176</ele>
        <time>2025-08-12T06:29:11.000Z</time>
      </trkpt>
      <trkpt lat="43.29517" lon="-0.37387">
        <ele>210.39999389648</ele>
        <time>2025-08-12T06:30:33.000Z</time>
      </trkpt>
      <trkpt lat="43.29516" lon="-0.37394">
        <ele>210.39999389648</ele>
        <time>2025-08-12T06:30:35.000Z</time>
      </trkpt>
      <trkpt lat="43.29513" lon="-0.37402">
        <ele>210.39999389648</ele>
        <time>2025-08-12T06:30:38.000Z</time>
      </trkpt>
      <trkpt lat="43.29513" lon="-0.37407">
        <ele>210.39999389648</ele>
        <time>2025-08-12T06:30:40.000Z</time>
      </trkpt>
      <trkpt lat="43.29512" lon="-0.3741">
        <ele>210.39999389648</ele>
        <time>2025-08-12T06:30:44.000Z</time>
      </trkpt>
      <trkpt lat="43.29508" lon="-0.37411">
        <ele>210.39999389648</ele>
        <time>2025-08-12T06:30:53.000Z</time>
      </trkpt>
      <trkpt lat="43.29499" lon="-0.37411">
        <ele>210.60000610352</ele>
        <time>2025-08-12T06:30:58.000Z</time>
      </trkpt>
      <trkpt lat="43.29498" lon="-0.37411">
        <ele>210.60000610352</ele>
        <time>2025-08-12T06:30:59.000Z</time>
      </trkpt>
      <trkpt lat="43.29481" lon="-0.37408">
        <ele>211.19999694824</ele>
        <time>2025-08-12T06:31:06.000Z</time>
      </trkpt>
      <trkpt lat="43.29478" lon="-0.37408">
        <ele>211.19999694824</ele>
        <time>2025-08-12T06:31:07.000Z</time>
      </trkpt>
      <trkpt lat="43.2947" lon="-0.37407">
        <ele>211.39999389648</ele>
        <time>2025-08-12T06:31:10.000Z</time>
      </trkpt>
      <trkpt lat="43.29463" lon="-0.37408">
        <ele>212</ele>
        <time>2025-08-12T06:31:15.000Z</time>
      </trkpt>
      <trkpt lat="43.29463" lon="-0.37408">
        <ele>212.19999694824</ele>
        <time>2025-08-12T06:31:21.000Z</time>
      </trkpt>
      <trkpt lat="43.29462" lon="-0.37416">
        <ele>212</ele>
        <time>2025-08-12T06:31:35.000Z</time>
      </trkpt>
      <trkpt lat="43.29466" lon="-0.37424">
        <ele>212</ele>
        <time>2025-08-12T06:31:38.000Z</time>
      </trkpt>
      <trkpt lat="43.29465" lon="-0.37428">
        <ele>212</ele>
        <time>2025-08-12T06:31:39.000Z</time>
      </trkpt>
      <trkpt lat="43.29463" lon="-0.37447">
        <ele>211.60000610352</ele>
        <time>2025-08-12T06:31:44.000Z</time>
      </trkpt>
      <trkpt lat="43.29458" lon="-0.37462">
        <ele>211</ele>
        <time>2025-08-12T06:31:49.000Z</time>
      </trkpt>
      <trkpt lat="43.29449" lon="-0.37471">
        <ele>210.60000610352</ele>
        <time>2025-08-12T06:31:53.000Z</time>
      </trkpt>
      <trkpt lat="43.29447" lon="-0.37472">
        <ele>210.60000610352</ele>
        <time>2025-08-12T06:31:54.000Z</time>
      </trkpt>
      <trkpt lat="43.29441" lon="-0.37474">
        <ele>210.39999389648</ele>
        <time>2025-08-12T06:31:56.000Z</time>
      </trkpt>
      <trkpt lat="43.29438" lon="-0.37471">
        <ele>210.39999389648</ele>
        <time>2025-08-12T06:31:58.000Z</time>
      </trkpt>
      <trkpt lat="43.29433" lon="-0.37459">
        <ele>210</ele>
        <time>2025-08-12T06:32:03.000Z</time>
      </trkpt>
      <trkpt lat="43.29425" lon="-0.37445">
        <ele>209.39999389648</ele>
        <time>2025-08-12T06:32:07.000Z</time>
      </trkpt>
      <trkpt lat="43.29423" lon="-0.3744">
        <ele>209.19999694824</ele>
        <time>2025-08-12T06:32:08.000Z</time>
      </trkpt>
      <trkpt lat="43.29418" lon="-0.3743">
        <ele>209</ele>
        <time>2025-08-12T06:32:11.000Z</time>
      </trkpt>
      <trkpt lat="43.29415" lon="-0.37427">
        <ele>209</ele>
        <time>2025-08-12T06:32:12.000Z</time>
      </trkpt>
      <trkpt lat="43.29407" lon="-0.37413">
        <ele>208.19999694824</ele>
        <time>2025-08-12T06:32:16.000Z</time>
      </trkpt>
      <trkpt lat="43.29407" lon="-0.37409">
        <ele>208</ele>
        <time>2025-08-12T06:32:17.000Z</time>
      </trkpt>
      <trkpt lat="43.29407" lon="-0.37404">
        <ele>207.80000305176</ele>
        <time>2025-08-12T06:32:19.000Z</time>
      </trkpt>
      <trkpt lat="43.29405" lon="-0.374">
        <ele>207.39999389648</ele>
        <time>2025-08-12T06:32:21.000Z</time>
      </trkpt>
      <trkpt lat="43.294" lon="-0.374">
        <ele>207</ele>
        <time>2025-08-12T06:32:24.000Z</time>
      </trkpt>
      <trkpt lat="43.29395" lon="-0.37402">
        <ele>206.39999389648</ele>
        <time>2025-08-12T06:32:28.000Z</time>
      </trkpt>
      <trkpt lat="43.29394" lon="-0.37403">
        <ele>206.19999694824</ele>
        <time>2025-08-12T06:32:29.000Z</time>
      </trkpt>
      <trkpt lat="43.29394" lon="-0.37404">
        <ele>206.19999694824</ele>
        <time>2025-08-12T06:32:33.000Z</time>
      </trkpt>
      <trkpt lat="43.29394" lon="-0.37404">
        <ele>206</ele>
        <time>2025-08-12T06:32:36.000Z</time>
      </trkpt>
      <trkpt lat="43.29394" lon="-0.37412">
        <ele>205.60000610352</ele>
        <time>2025-08-12T06:33:12.000Z</time>
      </trkpt>
      <trkpt lat="43.29396" lon="-0.37415">
        <ele>205.60000610352</ele>
        <time>2025-08-12T06:33:14.000Z</time>
      </trkpt>
      <trkpt lat="43.29398" lon="-0.37417">
        <ele>205.60000610352</ele>
        <time>2025-08-12T06:33:18.000Z</time>
      </trkpt>
      <trkpt lat="43.29398" lon="-0.37418">
        <ele>205.60000610352</ele>
        <time>2025-08-12T06:33:20.000Z</time>
      </trkpt>
      <trkpt lat="43.29398" lon="-0.37418">
        <ele>205.39999389648</ele>
        <time>2025-08-12T06:33:21.000Z</time>
      </trkpt>
      <trkpt lat="43.29407" lon="-0.37427">
        <ele>205.19999694824</ele>
        <time>2025-08-12T06:33:57.000Z</time>
      </trkpt>
      <trkpt lat="43.2941" lon="-0.37433">
        <ele>205.19999694824</ele>
        <time>2025-08-12T06:33:59.000Z</time>
      </trkpt>
      <trkpt lat="43.29419" lon="-0.37453">
        <ele>205</ele>
        <time>2025-08-12T06:34:04.000Z</time>
      </trkpt>
      <trkpt lat="43.29431" lon="-0.37478">
        <ele>204.60000610352</ele>
        <time>2025-08-12T06:34:10.000Z</time>
      </trkpt>
      <trkpt lat="43.29439" lon="-0.37495">
        <ele>203.80000305176</ele>
        <time>2025-08-12T06:34:15.000Z</time>
      </trkpt>
      <trkpt lat="43.2944" lon="-0.37496">
        <ele>203.80000305176</ele>
        <time>2025-08-12T06:34:16.000Z</time>
      </trkpt>
      <trkpt lat="43.2944" lon="-0.37496">
        <ele>203.60000610352</ele>
        <time>2025-08-12T06:34:17.000Z</time>
      </trkpt>
      <trkpt lat="43.2944" lon="-0.37496">
        <ele>203.39999389648</ele>
        <time>2025-08-12T06:34:18.000Z</time>
      </trkpt>
      <trkpt lat="43.2944" lon="-0.37535">
        <ele>199.39999389648</ele>
        <time>2025-08-12T06:35:16.000Z</time>
      </trkpt>
      <trkpt lat="43.29441" lon="-0.37537">
        <ele>199.39999389648</ele>
        <time>2025-08-12T06:35:17.000Z</time>
      </trkpt>
      <trkpt lat="43.29445" lon="-0.37551">
        <ele>199.19999694824</ele>
        <time>2025-08-12T06:35:24.000Z</time>
      </trkpt>
      <trkpt lat="43.2945" lon="-0.37564">
        <ele>199</ele>
        <time>2025-08-12T06:35:32.000Z</time>
      </trkpt>
      <trkpt lat="43.29449" lon="-0.37568">
        <ele>199</ele>
        <time>2025-08-12T06:35:34.000Z</time>
      </trkpt>
      <trkpt lat="43.29447" lon="-0.3757">
        <ele>199</ele>
        <time>2025-08-12T06:35:36.000Z</time>
      </trkpt>
      <trkpt lat="43.29443" lon="-0.37571">
        <ele>198.80000305176</ele>
        <time>2025-08-12T06:35:41.000Z</time>
      </trkpt>
      <trkpt lat="43.29443" lon="-0.37571">
        <ele>198.80000305176</ele>
        <time>2025-08-12T06:35:43.000Z</time>
      </trkpt>
      <trkpt lat="43.29443" lon="-0.37571">
        <ele>198.80000305176</ele>
        <time>2025-08-12T06:35:45.000Z</time>
      </trkpt>
      <trkpt lat="43.29437" lon="-0.37565">
        <ele>198.80000305176</ele>
        <time>2025-08-12T06:35:58.000Z</time>
      </trkpt>
      <trkpt lat="43.29438" lon="-0.37564">
        <ele>198.80000305176</ele>
        <time>2025-08-12T06:35:59.000Z</time>
      </trkpt>
      <trkpt lat="43.29438" lon="-0.37563">
        <ele>198.80000305176</ele>
        <time>2025-08-12T06:36:00.000Z</time>
      </trkpt>
      <trkpt lat="43.29437" lon="-0.37562">
        <ele>198.60000610352</ele>
        <time>2025-08-12T06:36:01.000Z</time>
      </trkpt>
      <trkpt lat="43.29434" lon="-0.37562">
        <ele>198.60000610352</ele>
        <time>2025-08-12T06:36:02.000Z</time>
      </trkpt>
      <trkpt lat="43.29429" lon="-0.37562">
        <ele>198.60000610352</ele>
        <time>2025-08-12T06:36:04.000Z</time>
      </trkpt>
      <trkpt lat="43.29412" lon="-0.37574">
        <ele>183.39999389648</ele>
        <time>2025-08-12T06:37:45.000Z</time>
      </trkpt>
      <trkpt lat="43.29411" lon="-0.37567">
        <ele>183.39999389648</ele>
        <time>2025-08-12T06:37:46.000Z</time>
      </trkpt>
      <trkpt lat="43.29405" lon="-0.37555">
        <ele>183.39999389648</ele>
        <time>2025-08-12T06:37:55.000Z</time>
      </trkpt>
      <trkpt lat="43.29404" lon="-0.37551">
        <ele>183.39999389648</ele>
        <time>2025-08-12T06:37:57.000Z</time>
      </trkpt>
      <trkpt lat="43.29402" lon="-0.3755">
        <ele>183.60000610352</ele>
        <time>2025-08-12T06:37:59.000Z</time>
      </trkpt>
      <trkpt lat="43.29402" lon="-0.3755">
        <ele>183.60000610352</ele>
        <time>2025-08-12T06:38:00.000Z</time>
      </trkpt>
      <trkpt lat="43.29398" lon="-0.3755">
        <ele>183.60000610352</ele>
        <time>2025-08-12T06:38:02.000Z</time>
      </trkpt>
      <trkpt lat="43.29404" lon="-0.37551">
        <ele>183.60000610352</ele>
        <time>2025-08-12T06:38:06.000Z</time>
      </trkpt>
      <trkpt lat="43.29405" lon="-0.37554">
        <ele>183.80000305176</ele>
        <time>2025-08-12T06:38:32.000Z</time>
      </trkpt>
      <trkpt lat="43.29406" lon="-0.37556">
        <ele>183.80000305176</ele>
        <time>2025-08-12T06:38:34.000Z</time>
      </trkpt>
      <trkpt lat="43.29406" lon="-0.37558">
        <ele>183.80000305176</ele>
        <time>2025-08-12T06:38:35.000Z</time>
      </trkpt>
      <trkpt lat="43.2941" lon="-0.37571">
        <ele>183.60000610352</ele>
        <time>2025-08-12T06:38:40.000Z</time>
      </trkpt>
      <trkpt lat="43.29414" lon="-0.37592">
        <ele>183.39999389648</ele>
        <time>2025-08-12T06:38:46.000Z</time>
      </trkpt>
      <trkpt lat="43.2942" lon="-0.37622">
        <ele>183.39999389648</ele>
        <time>2025-08-12T06:38:53.000Z</time>
      </trkpt>
      <trkpt lat="43.29426" lon="-0.37656">
        <ele>183.39999389648</ele>
        <time>2025-08-12T06:39:01.000Z</time>
      </trkpt>
      <trkpt lat="43.29432" lon="-0.37686">
        <ele>183.39999389648</ele>
        <time>2025-08-12T06:39:08.000Z</time>
      </trkpt>
      <trkpt lat="43.29434" lon="-0.37703">
        <ele>183.80000305176</ele>
        <time>2025-08-12T06:39:14.000Z</time>
      </trkpt>
      <trkpt lat="43.29434" lon="-0.37704">
        <ele>184.19999694824</ele>
        <time>2025-08-12T06:39:17.000Z</time>
      </trkpt>
      <trkpt lat="43.29435" lon="-0.37713">
        <ele>184.39999389648</ele>
        <time>2025-08-12T06:39:21.000Z</time>
      </trkpt>
      <trkpt lat="43.29433" lon="-0.37721">
        <ele>184.39999389648</ele>
        <time>2025-08-12T06:39:23.000Z</time>
      </trkpt>
      <trkpt lat="43.29427" lon="-0.37728">
        <ele>184.39999389648</ele>
        <time>2025-08-12T06:39:25.000Z</time>
      </trkpt>
      <trkpt lat="43.29424" lon="-0.37731">
        <ele>184.39999389648</ele>
        <time>2025-08-12T06:39:26.000Z</time>
      </trkpt>
      <trkpt lat="43.29418" lon="-0.37734">
        <ele>184.39999389648</ele>
        <time>2025-08-12T06:39:28.000Z</time>
      </trkpt>
      <trkpt lat="43.29396" lon="-0.37742">
        <ele>184.39999389648</ele>
        <time>2025-08-12T06:39:34.000Z</time>
      </trkpt>
      <trkpt lat="43.2939" lon="-0.37745">
        <ele>184.60000610352</ele>
        <time>2025-08-12T06:39:36.000Z</time>
      </trkpt>
      <trkpt lat="43.29369" lon="-0.37757">
        <ele>185</ele>
        <time>2025-08-12T06:39:42.000Z</time>
      </trkpt>
      <trkpt lat="43.29343" lon="-0.3777">
        <ele>185.60000610352</ele>
        <time>2025-08-12T06:39:50.000Z</time>
      </trkpt>
      <trkpt lat="43.29328" lon="-0.37778">
        <ele>185.80000305176</ele>
        <time>2025-08-12T06:39:55.000Z</time>
      </trkpt>
      <trkpt lat="43.2932" lon="-0.37782">
        <ele>185.80000305176</ele>
        <time>2025-08-12T06:39:57.000Z</time>
      </trkpt>
      <trkpt lat="43.29293" lon="-0.37794">
        <ele>185.60000610352</ele>
        <time>2025-08-12T06:40:04.000Z</time>
      </trkpt>
      <trkpt lat="43.29278" lon="-0.378">
        <ele>185</ele>
        <time>2025-08-12T06:40:08.000Z</time>
      </trkpt>
      <trkpt lat="43.2927" lon="-0.37807">
        <ele>184.60000610352</ele>
        <time>2025-08-12T06:40:11.000Z</time>
      </trkpt>
      <trkpt lat="43.29269" lon="-0.3781">
        <ele>184.60000610352</ele>
        <time>2025-08-12T06:40:12.000Z</time>
      </trkpt>
      <trkpt lat="43.2927" lon="-0.37815">
        <ele>184.39999389648</ele>
        <time>2025-08-12T06:40:13.000Z</time>
      </trkpt>
      <trkpt lat="43.29273" lon="-0.37827">
        <ele>184.19999694824</ele>
        <time>2025-08-12T06:40:15.000Z</time>
      </trkpt>
      <trkpt lat="43.29274" lon="-0.37834">
        <ele>184</ele>
        <time>2025-08-12T06:40:16.000Z</time>
      </trkpt>
      <trkpt lat="43.29277" lon="-0.37853">
        <ele>183.39999389648</ele>
        <time>2025-08-12T06:40:18.000Z</time>
      </trkpt>
      <trkpt lat="43.29283" lon="-0.37877">
        <ele>182.60000610352</ele>
        <time>2025-08-12T06:40:21.000Z</time>
      </trkpt>
      <trkpt lat="43.29285" lon="-0.37886">
        <ele>182.19999694824</ele>
        <time>2025-08-12T06:40:22.000Z</time>
      </trkpt>
      <trkpt lat="43.29294" lon="-0.37922">
        <ele>181.19999694824</ele>
        <time>2025-08-12T06:40:27.000Z</time>
      </trkpt>
      <trkpt lat="43.29301" lon="-0.37955">
        <ele>180.80000305176</ele>
        <time>2025-08-12T06:40:31.000Z</time>
      </trkpt>
      <trkpt lat="43.29302" lon="-0.37961">
        <ele>180.60000610352</ele>
        <time>2025-08-12T06:40:32.000Z</time>
      </trkpt>
      <trkpt lat="43.29301" lon="-0.38">
        <ele>180.39999389648</ele>
        <time>2025-08-12T06:40:38.000Z</time>
      </trkpt>
      <trkpt lat="43.29301" lon="-0.38008">
        <ele>180.39999389648</ele>
        <time>2025-08-12T06:40:39.000Z</time>
      </trkpt>
      <trkpt lat="43.29304" lon="-0.38031">
        <ele>180.39999389648</ele>
        <time>2025-08-12T06:40:43.000Z</time>
      </trkpt>
      <trkpt lat="43.29311" lon="-0.38068">
        <ele>180.19999694824</ele>
        <time>2025-08-12T06:40:49.000Z</time>
      </trkpt>
      <trkpt lat="43.29312" lon="-0.38074">
        <ele>180.19999694824</ele>
        <time>2025-08-12T06:40:50.000Z</time>
      </trkpt>
      <trkpt lat="43.29313" lon="-0.38081">
        <ele>180</ele>
        <time>2025-08-12T06:40:51.000Z</time>
      </trkpt>
      <trkpt lat="43.29318" lon="-0.3811">
        <ele>180</ele>
        <time>2025-08-12T06:40:56.000Z</time>
      </trkpt>
      <trkpt lat="43.29327" lon="-0.38154">
        <ele>179.80000305176</ele>
        <time>2025-08-12T06:41:04.000Z</time>
      </trkpt>
      <trkpt lat="43.29335" lon="-0.38193">
        <ele>179.60000610352</ele>
        <time>2025-08-12T06:41:11.000Z</time>
      </trkpt>
      <trkpt lat="43.29338" lon="-0.38209">
        <ele>179.60000610352</ele>
        <time>2025-08-12T06:41:14.000Z</time>
      </trkpt>
      <trkpt lat="43.29342" lon="-0.38227">
        <ele>179.60000610352</ele>
        <time>2025-08-12T06:41:19.000Z</time>
      </trkpt>
      <trkpt lat="43.2935" lon="-0.38251">
        <ele>179.60000610352</ele>
        <time>2025-08-12T06:41:27.000Z</time>
      </trkpt>
      <trkpt lat="43.29352" lon="-0.38259">
        <ele>179.60000610352</ele>
        <time>2025-08-12T06:41:30.000Z</time>
      </trkpt>
      <trkpt lat="43.29354" lon="-0.38264">
        <ele>179.60000610352</ele>
        <time>2025-08-12T06:41:32.000Z</time>
      </trkpt>
      <trkpt lat="43.29357" lon="-0.38272">
        <ele>179.80000305176</ele>
        <time>2025-08-12T06:41:37.000Z</time>
      </trkpt>
      <trkpt lat="43.29361" lon="-0.38286">
        <ele>179.80000305176</ele>
        <time>2025-08-12T06:41:44.000Z</time>
      </trkpt>
      <trkpt lat="43.29367" lon="-0.38306">
        <ele>179.80000305176</ele>
        <time>2025-08-12T06:41:49.000Z</time>
      </trkpt>
      <trkpt lat="43.29378" lon="-0.38331">
        <ele>179.80000305176</ele>
        <time>2025-08-12T06:41:55.000Z</time>
      </trkpt>
      <trkpt lat="43.29385" lon="-0.38356">
        <ele>179.60000610352</ele>
        <time>2025-08-12T06:42:01.000Z</time>
      </trkpt>
      <trkpt lat="43.29385" lon="-0.38386">
        <ele>179.39999389648</ele>
        <time>2025-08-12T06:42:07.000Z</time>
      </trkpt>
      <trkpt lat="43.29379" lon="-0.3842">
        <ele>179.39999389648</ele>
        <time>2025-08-12T06:42:14.000Z</time>
      </trkpt>
      <trkpt lat="43.29371" lon="-0.38456">
        <ele>179.60000610352</ele>
        <time>2025-08-12T06:42:21.000Z</time>
      </trkpt>
      <trkpt lat="43.29366" lon="-0.38498">
        <ele>179.60000610352</ele>
        <time>2025-08-12T06:42:29.000Z</time>
      </trkpt>
      <trkpt lat="43.29364" lon="-0.38518">
        <ele>179.39999389648</ele>
        <time>2025-08-12T06:42:33.000Z</time>
      </trkpt>
      <trkpt lat="43.29363" lon="-0.38538">
        <ele>179.39999389648</ele>
        <time>2025-08-12T06:42:37.000Z</time>
      </trkpt>
      <trkpt lat="43.29364" lon="-0.38547">
        <ele>179.39999389648</ele>
        <time>2025-08-12T06:42:39.000Z</time>
      </trkpt>
      <trkpt lat="43.29367" lon="-0.38551">
        <ele>179.39999389648</ele>
        <time>2025-08-12T06:42:40.000Z</time>
      </trkpt>
      <trkpt lat="43.29385" lon="-0.38568">
        <ele>179.19999694824</ele>
        <time>2025-08-12T06:42:46.000Z</time>
      </trkpt>
      <trkpt lat="43.29406" lon="-0.38592">
        <ele>179</ele>
        <time>2025-08-12T06:42:53.000Z</time>
      </trkpt>
      <trkpt lat="43.29406" lon="-0.38605">
        <ele>178.60000610352</ele>
        <time>2025-08-12T06:42:56.000Z</time>
      </trkpt>
      <trkpt lat="43.29405" lon="-0.3861">
        <ele>178.39999389648</ele>
        <time>2025-08-12T06:42:57.000Z</time>
      </trkpt>
      <trkpt lat="43.29401" lon="-0.38641">
        <ele>177.39999389648</ele>
        <time>2025-08-12T06:43:02.000Z</time>
      </trkpt>
      <trkpt lat="43.294" lon="-0.38648">
        <ele>177.19999694824</ele>
        <time>2025-08-12T06:43:03.000Z</time>
      </trkpt>
      <trkpt lat="43.29399" lon="-0.38654">
        <ele>177</ele>
        <time>2025-08-12T06:43:04.000Z</time>
      </trkpt>
      <trkpt lat="43.29397" lon="-0.38665">
        <ele>177</ele>
        <time>2025-08-12T06:43:06.000Z</time>
      </trkpt>
      <trkpt lat="43.29395" lon="-0.38671">
        <ele>176.80000305176</ele>
        <time>2025-08-12T06:43:07.000Z</time>
      </trkpt>
      <trkpt lat="43.29392" lon="-0.38674">
        <ele>176.80000305176</ele>
        <time>2025-08-12T06:43:09.000Z</time>
      </trkpt>
      <trkpt lat="43.29389" lon="-0.38673">
        <ele>176.80000305176</ele>
        <time>2025-08-12T06:43:10.000Z</time>
      </trkpt>
      <trkpt lat="43.29371" lon="-0.3867">
        <ele>176.80000305176</ele>
        <time>2025-08-12T06:43:16.000Z</time>
      </trkpt>
      <trkpt lat="43.29358" lon="-0.38667">
        <ele>177.19999694824</ele>
        <time>2025-08-12T06:43:20.000Z</time>
      </trkpt>
      <trkpt lat="43.29356" lon="-0.38668">
        <ele>177.19999694824</ele>
        <time>2025-08-12T06:43:21.000Z</time>
      </trkpt>
      <trkpt lat="43.29354" lon="-0.38668">
        <ele>177.39999389648</ele>
        <time>2025-08-12T06:43:23.000Z</time>
      </trkpt>
      <trkpt lat="43.29347" lon="-0.38713">
        <ele>177.39999389648</ele>
        <time>2025-08-12T06:43:30.000Z</time>
      </trkpt>
      <trkpt lat="43.29338" lon="-0.38754">
        <ele>177.39999389648</ele>
        <time>2025-08-12T06:43:37.000Z</time>
      </trkpt>
      <trkpt lat="43.29324" lon="-0.38799">
        <ele>176.80000305176</ele>
        <time>2025-08-12T06:43:45.000Z</time>
      </trkpt>
      <trkpt lat="43.2932" lon="-0.38823">
        <ele>176.60000610352</ele>
        <time>2025-08-12T06:43:49.000Z</time>
      </trkpt>
      <trkpt lat="43.29319" lon="-0.38835">
        <ele>176.60000610352</ele>
        <time>2025-08-12T06:43:51.000Z</time>
      </trkpt>
      <trkpt lat="43.29316" lon="-0.38844">
        <ele>176.80000305176</ele>
        <time>2025-08-12T06:43:53.000Z</time>
      </trkpt>
      <trkpt lat="43.29313" lon="-0.38846">
        <ele>176.80000305176</ele>
        <time>2025-08-12T06:43:54.000Z</time>
      </trkpt>
      <trkpt lat="43.29302" lon="-0.3885">
        <ele>176.80000305176</ele>
        <time>2025-08-12T06:43:58.000Z</time>
      </trkpt>
      <trkpt lat="43.29302" lon="-0.38864">
        <ele>177.39999389648</ele>
        <time>2025-08-12T06:44:02.000Z</time>
      </trkpt>
      <trkpt lat="43.29296" lon="-0.38898">
        <ele>177.80000305176</ele>
        <time>2025-08-12T06:44:10.000Z</time>
      </trkpt>
      <trkpt lat="43.29285" lon="-0.38925">
        <ele>177.80000305176</ele>
        <time>2025-08-12T06:44:16.000Z</time>
      </trkpt>
      <trkpt lat="43.29267" lon="-0.38963">
        <ele>177.39999389648</ele>
        <time>2025-08-12T06:44:24.000Z</time>
      </trkpt>
      <trkpt lat="43.29262" lon="-0.38973">
        <ele>177.39999389648</ele>
        <time>2025-08-12T06:44:26.000Z</time>
      </trkpt>
      <trkpt lat="43.29252" lon="-0.38995">
        <ele>177.39999389648</ele>
        <time>2025-08-12T06:44:30.000Z</time>
      </trkpt>
      <trkpt lat="43.29245" lon="-0.3901">
        <ele>177.39999389648</ele>
        <time>2025-08-12T06:44:33.000Z</time>
      </trkpt>
      <trkpt lat="43.29236" lon="-0.39033">
        <ele>177.39999389648</ele>
        <time>2025-08-12T06:44:37.000Z</time>
      </trkpt>
      <trkpt lat="43.2922" lon="-0.39082">
        <ele>177.19999694824</ele>
        <time>2025-08-12T06:44:45.000Z</time>
      </trkpt>
      <trkpt lat="43.29202" lon="-0.39138">
        <ele>177.19999694824</ele>
        <time>2025-08-12T06:44:54.000Z</time>
      </trkpt>
      <trkpt lat="43.29187" lon="-0.39199">
        <ele>177.39999389648</ele>
        <time>2025-08-12T06:45:03.000Z</time>
      </trkpt>
      <trkpt lat="43.29181" lon="-0.39252">
        <ele>177.19999694824</ele>
        <time>2025-08-12T06:45:10.000Z</time>
      </trkpt>
      <trkpt lat="43.29182" lon="-0.39324">
        <ele>176.80000305176</ele>
        <time>2025-08-12T06:45:19.000Z</time>
      </trkpt>
      <trkpt lat="43.29191" lon="-0.3938">
        <ele>176.39999389648</ele>
        <time>2025-08-12T06:45:26.000Z</time>
      </trkpt>
      <trkpt lat="43.29192" lon="-0.39388">
        <ele>176.39999389648</ele>
        <time>2025-08-12T06:45:27.000Z</time>
      </trkpt>
      <trkpt lat="43.29212" lon="-0.3945">
        <ele>176</ele>
        <time>2025-08-12T06:45:35.000Z</time>
      </trkpt>
      <trkpt lat="43.29236" lon="-0.39517">
        <ele>175.39999389648</ele>
        <time>2025-08-12T06:45:44.000Z</time>
      </trkpt>
      <trkpt lat="43.29239" lon="-0.39525">
        <ele>175.39999389648</ele>
        <time>2025-08-12T06:45:45.000Z</time>
      </trkpt>
      <trkpt lat="43.29246" lon="-0.39547">
        <ele>175.19999694824</ele>
        <time>2025-08-12T06:45:48.000Z</time>
      </trkpt>
      <trkpt lat="43.29267" lon="-0.39604">
        <ele>175</ele>
        <time>2025-08-12T06:45:56.000Z</time>
      </trkpt>
      <trkpt lat="43.29275" lon="-0.39631">
        <ele>175.39999389648</ele>
        <time>2025-08-12T06:46:00.000Z</time>
      </trkpt>
      <trkpt lat="43.29278" lon="-0.39636">
        <ele>175.39999389648</ele>
        <time>2025-08-12T06:46:01.000Z</time>
      </trkpt>
      <trkpt lat="43.29282" lon="-0.3964">
        <ele>175.19999694824</ele>
        <time>2025-08-12T06:46:02.000Z</time>
      </trkpt>
      <trkpt lat="43.2929" lon="-0.39648">
        <ele>175.19999694824</ele>
        <time>2025-08-12T06:46:04.000Z</time>
      </trkpt>
      <trkpt lat="43.29296" lon="-0.39659">
        <ele>175.19999694824</ele>
        <time>2025-08-12T06:46:06.000Z</time>
      </trkpt>
      <trkpt lat="43.29299" lon="-0.3967">
        <ele>175.39999389648</ele>
        <time>2025-08-12T06:46:08.000Z</time>
      </trkpt>
      <trkpt lat="43.29297" lon="-0.39681">
        <ele>175.60000610352</ele>
        <time>2025-08-12T06:46:10.000Z</time>
      </trkpt>
      <trkpt lat="43.29286" lon="-0.39698">
        <ele>175.60000610352</ele>
        <time>2025-08-12T06:46:14.000Z</time>
      </trkpt>
      <trkpt lat="43.2928" lon="-0.39709">
        <ele>175.60000610352</ele>
        <time>2025-08-12T06:46:17.000Z</time>
      </trkpt>
      <trkpt lat="43.29279" lon="-0.39715">
        <ele>175.60000610352</ele>
        <time>2025-08-12T06:46:18.000Z</time>
      </trkpt>
      <trkpt lat="43.29274" lon="-0.39732">
        <ele>175.39999389648</ele>
        <time>2025-08-12T06:46:22.000Z</time>
      </trkpt>
      <trkpt lat="43.29273" lon="-0.39731">
        <ele>175.39999389648</ele>
        <time>2025-08-12T06:46:23.000Z</time>
      </trkpt>
      <trkpt lat="43.29278" lon="-0.3972">
        <ele>175</ele>
        <time>2025-08-12T06:46:27.000Z</time>
      </trkpt>
      <trkpt lat="43.29283" lon="-0.39705">
        <ele>175</ele>
        <time>2025-08-12T06:46:32.000Z</time>
      </trkpt>
      <trkpt lat="43.2929" lon="-0.39693">
        <ele>175</ele>
        <time>2025-08-12T06:46:36.000Z</time>
      </trkpt>
      <trkpt lat="43.29292" lon="-0.39694">
        <ele>175</ele>
        <time>2025-08-12T06:46:37.000Z</time>
      </trkpt>
      <trkpt lat="43.293" lon="-0.39714">
        <ele>175</ele>
        <time>2025-08-12T06:46:44.000Z</time>
      </trkpt>
      <trkpt lat="43.2931" lon="-0.39716">
        <ele>174.60000610352</ele>
        <time>2025-08-12T06:46:48.000Z</time>
      </trkpt>
      <trkpt lat="43.2933" lon="-0.39721">
        <ele>174.39999389648</ele>
        <time>2025-08-12T06:46:54.000Z</time>
      </trkpt>
      <trkpt lat="43.29341" lon="-0.39727">
        <ele>174.19999694824</ele>
        <time>2025-08-12T06:46:59.000Z</time>
      </trkpt>
      <trkpt lat="43.29353" lon="-0.39735">
        <ele>173.60000610352</ele>
        <time>2025-08-12T06:47:05.000Z</time>
      </trkpt>
      <trkpt lat="43.29365" lon="-0.39751">
        <ele>173.80000305176</ele>
        <time>2025-08-12T06:47:11.000Z</time>
      </trkpt>
      <trkpt lat="43.29381" lon="-0.39776">
        <ele>174</ele>
        <time>2025-08-12T06:47:18.000Z</time>
      </trkpt>
      <trkpt lat="43.29394" lon="-0.39817">
        <ele>174</ele>
        <time>2025-08-12T06:47:26.000Z</time>
      </trkpt>
      <trkpt lat="43.29403" lon="-0.39852">
        <ele>174</ele>
        <time>2025-08-12T06:47:33.000Z</time>
      </trkpt>
      <trkpt lat="43.29409" lon="-0.39879">
        <ele>173.80000305176</ele>
        <time>2025-08-12T06:47:37.000Z</time>
      </trkpt>
      <trkpt lat="43.2941" lon="-0.39885">
        <ele>174</ele>
        <time>2025-08-12T06:47:38.000Z</time>
      </trkpt>
      <trkpt lat="43.29413" lon="-0.39898">
        <ele>174</ele>
        <time>2025-08-12T06:47:40.000Z</time>
      </trkpt>
      <trkpt lat="43.29415" lon="-0.39915">
        <ele>173.60000610352</ele>
        <time>2025-08-12T06:47:43.000Z</time>
      </trkpt>
      <trkpt lat="43.29415" lon="-0.39921">
        <ele>173.39999389648</ele>
        <time>2025-08-12T06:47:44.000Z</time>
      </trkpt>
      <trkpt lat="43.29417" lon="-0.39955">
        <ele>173.39999389648</ele>
        <time>2025-08-12T06:47:50.000Z</time>
      </trkpt>
      <trkpt lat="43.29418" lon="-0.39996">
        <ele>173.60000610352</ele>
        <time>2025-08-12T06:47:57.000Z</time>
      </trkpt>
      <trkpt lat="43.29414" lon="-0.40019">
        <ele>173.39999389648</ele>
        <time>2025-08-12T06:48:01.000Z</time>
      </trkpt>
      <trkpt lat="43.29408" lon="-0.40028">
        <ele>173.39999389648</ele>
        <time>2025-08-12T06:48:03.000Z</time>
      </trkpt>
      <trkpt lat="43.29396" lon="-0.40047">
        <ele>173.39999389648</ele>
        <time>2025-08-12T06:48:08.000Z</time>
      </trkpt>
      <trkpt lat="43.29392" lon="-0.40076">
        <ele>173.39999389648</ele>
        <time>2025-08-12T06:48:14.000Z</time>
      </trkpt>
      <trkpt lat="43.29389" lon="-0.40095">
        <ele>173.39999389648</ele>
        <time>2025-08-12T06:48:18.000Z</time>
      </trkpt>
      <trkpt lat="43.2938" lon="-0.40116">
        <ele>173.80000305176</ele>
        <time>2025-08-12T06:48:23.000Z</time>
      </trkpt>
      <trkpt lat="43.29376" lon="-0.40135">
        <ele>174.60000610352</ele>
        <time>2025-08-12T06:48:29.000Z</time>
      </trkpt>
      <trkpt lat="43.29376" lon="-0.40151">
        <ele>175</ele>
        <time>2025-08-12T06:48:34.000Z</time>
      </trkpt>
      <trkpt lat="43.29378" lon="-0.40154">
        <ele>175</ele>
        <time>2025-08-12T06:48:35.000Z</time>
      </trkpt>
      <trkpt lat="43.29395" lon="-0.40165">
        <ele>174.80000305176</ele>
        <time>2025-08-12T06:48:42.000Z</time>
      </trkpt>
      <trkpt lat="43.2941" lon="-0.40173">
        <ele>174.80000305176</ele>
        <time>2025-08-12T06:48:49.000Z</time>
      </trkpt>
      <trkpt lat="43.29417" lon="-0.40177">
        <ele>174.80000305176</ele>
        <time>2025-08-12T06:48:55.000Z</time>
      </trkpt>
      <trkpt lat="43.29431" lon="-0.40186">
        <ele>174.80000305176</ele>
        <time>2025-08-12T06:49:01.000Z</time>
      </trkpt>
      <trkpt lat="43.29448" lon="-0.40195">
        <ele>174.80000305176</ele>
        <time>2025-08-12T06:49:08.000Z</time>
      </trkpt>
      <trkpt lat="43.2946" lon="-0.40201">
        <ele>175</ele>
        <time>2025-08-12T06:49:14.000Z</time>
      </trkpt>
      <trkpt lat="43.2946" lon="-0.40203">
        <ele>175</ele>
        <time>2025-08-12T06:49:15.000Z</time>
      </trkpt>
      <trkpt lat="43.29459" lon="-0.40212">
        <ele>175</ele>
        <time>2025-08-12T06:49:17.000Z</time>
      </trkpt>
      <trkpt lat="43.29456" lon="-0.40221">
        <ele>175</ele>
        <time>2025-08-12T06:49:19.000Z</time>
      </trkpt>
      <trkpt lat="43.29447" lon="-0.40239">
        <ele>174.80000305176</ele>
        <time>2025-08-12T06:49:23.000Z</time>
      </trkpt>
      <trkpt lat="43.29437" lon="-0.40268">
        <ele>174</ele>
        <time>2025-08-12T06:49:29.000Z</time>
      </trkpt>
      <trkpt lat="43.29434" lon="-0.40292">
        <ele>173.80000305176</ele>
        <time>2025-08-12T06:49:33.000Z</time>
      </trkpt>
      <trkpt lat="43.29433" lon="-0.40296">
        <ele>173.80000305176</ele>
        <time>2025-08-12T06:49:34.000Z</time>
      </trkpt>
      <trkpt lat="43.29429" lon="-0.4031">
        <ele>173.80000305176</ele>
        <time>2025-08-12T06:49:37.000Z</time>
      </trkpt>
      <trkpt lat="43.29421" lon="-0.40339">
        <ele>173.80000305176</ele>
        <time>2025-08-12T06:49:42.000Z</time>
      </trkpt>
      <trkpt lat="43.29416" lon="-0.40368">
        <ele>173.39999389648</ele>
        <time>2025-08-12T06:49:47.000Z</time>
      </trkpt>
      <trkpt lat="43.29407" lon="-0.40402">
        <ele>173.19999694824</ele>
        <time>2025-08-12T06:49:52.000Z</time>
      </trkpt>
      <trkpt lat="43.294" lon="-0.40427">
        <ele>172.80000305176</ele>
        <time>2025-08-12T06:49:57.000Z</time>
      </trkpt>
      <trkpt lat="43.29396" lon="-0.40442">
        <ele>172.60000610352</ele>
        <time>2025-08-12T06:50:00.000Z</time>
      </trkpt>
      <trkpt lat="43.29389" lon="-0.40471">
        <ele>172.39999389648</ele>
        <time>2025-08-12T06:50:06.000Z</time>
      </trkpt>
      <trkpt lat="43.29383" lon="-0.40494">
        <ele>172.19999694824</ele>
        <time>2025-08-12T06:50:12.000Z</time>
      </trkpt>
      <trkpt lat="43.29383" lon="-0.40494">
        <ele>172.19999694824</ele>
        <time>2025-08-12T06:50:15.000Z</time>
      </trkpt>
      <trkpt lat="43.29382" lon="-0.40497">
        <ele>169.39999389648</ele>
        <time>2025-08-12T06:51:47.000Z</time>
      </trkpt>
      <trkpt lat="43.29381" lon="-0.40504">
        <ele>172</ele>
        <time>2025-08-12T06:51:50.000Z</time>
      </trkpt>
      <trkpt lat="43.29375" lon="-0.40519">
        <ele>172</ele>
        <time>2025-08-12T06:51:55.000Z</time>
      </trkpt>
      <trkpt lat="43.2937" lon="-0.40537">
        <ele>172</ele>
        <time>2025-08-12T06:52:00.000Z</time>
      </trkpt>
      <trkpt lat="43.29367" lon="-0.40556">
        <ele>172</ele>
        <time>2025-08-12T06:52:04.000Z</time>
      </trkpt>
      <trkpt lat="43.29367" lon="-0.40581">
        <ele>172</ele>
        <time>2025-08-12T06:52:09.000Z</time>
      </trkpt>
      <trkpt lat="43.29367" lon="-0.40603">
        <ele>171.80000305176</ele>
        <time>2025-08-12T06:52:14.000Z</time>
      </trkpt>
      <trkpt lat="43.29367" lon="-0.40607">
        <ele>171.80000305176</ele>
        <time>2025-08-12T06:52:15.000Z</time>
      </trkpt>
      <trkpt lat="43.29364" lon="-0.40625">
        <ele>171.39999389648</ele>
        <time>2025-08-12T06:52:20.000Z</time>
      </trkpt>
      <trkpt lat="43.29363" lon="-0.40626">
        <ele>171.39999389648</ele>
        <time>2025-08-12T06:52:21.000Z</time>
      </trkpt>
      <trkpt lat="43.29357" lon="-0.40638">
        <ele>170.80000305176</ele>
        <time>2025-08-12T06:52:27.000Z</time>
      </trkpt>
      <trkpt lat="43.29357" lon="-0.40638">
        <ele>170.80000305176</ele>
        <time>2025-08-12T06:52:28.000Z</time>
      </trkpt>
      <trkpt lat="43.29355" lon="-0.40646">
        <ele>170.80000305176</ele>
        <time>2025-08-12T06:52:49.000Z</time>
      </trkpt>
      <trkpt lat="43.29355" lon="-0.40656">
        <ele>170.39999389648</ele>
        <time>2025-08-12T06:52:51.000Z</time>
      </trkpt>
      <trkpt lat="43.29352" lon="-0.40693">
        <ele>170.39999389648</ele>
        <time>2025-08-12T06:52:58.000Z</time>
      </trkpt>
      <trkpt lat="43.29348" lon="-0.4071">
        <ele>170.39999389648</ele>
        <time>2025-08-12T06:53:02.000Z</time>
      </trkpt>
      <trkpt lat="43.29343" lon="-0.40743">
        <ele>170</ele>
        <time>2025-08-12T06:53:09.000Z</time>
      </trkpt>
      <trkpt lat="43.29342" lon="-0.40775">
        <ele>170</ele>
        <time>2025-08-12T06:53:15.000Z</time>
      </trkpt>
      <trkpt lat="43.29349" lon="-0.40809">
        <ele>169.80000305176</ele>
        <time>2025-08-12T06:53:22.000Z</time>
      </trkpt>
      <trkpt lat="43.29359" lon="-0.40848">
        <ele>169.80000305176</ele>
        <time>2025-08-12T06:53:30.000Z</time>
      </trkpt>
      <trkpt lat="43.29368" lon="-0.40877">
        <ele>170</ele>
        <time>2025-08-12T06:53:36.000Z</time>
      </trkpt>
      <trkpt lat="43.29379" lon="-0.40906">
        <ele>170.19999694824</ele>
        <time>2025-08-12T06:53:43.000Z</time>
      </trkpt>
      <trkpt lat="43.29389" lon="-0.40933">
        <ele>170.19999694824</ele>
        <time>2025-08-12T06:53:50.000Z</time>
      </trkpt>
      <trkpt lat="43.29397" lon="-0.40954">
        <ele>170</ele>
        <time>2025-08-12T06:53:55.000Z</time>
      </trkpt>
      <trkpt lat="43.29398" lon="-0.40956">
        <ele>170</ele>
        <time>2025-08-12T06:53:58.000Z</time>
      </trkpt>
      <trkpt lat="43.29404" lon="-0.40965">
        <ele>169.60000610352</ele>
        <time>2025-08-12T06:54:30.000Z</time>
      </trkpt>
      <trkpt lat="43.29407" lon="-0.4097">
        <ele>169.60000610352</ele>
        <time>2025-08-12T06:54:32.000Z</time>
      </trkpt>
      <trkpt lat="43.29423" lon="-0.40986">
        <ele>169.60000610352</ele>
        <time>2025-08-12T06:54:39.000Z</time>
      </trkpt>
      <trkpt lat="43.29438" lon="-0.41009">
        <ele>169.80000305176</ele>
        <time>2025-08-12T06:54:46.000Z</time>
      </trkpt>
      <trkpt lat="43.2945" lon="-0.41025">
        <ele>169.80000305176</ele>
        <time>2025-08-12T06:54:51.000Z</time>
      </trkpt>
      <trkpt lat="43.29474" lon="-0.41043">
        <ele>170</ele>
        <time>2025-08-12T06:54:59.000Z</time>
      </trkpt>
      <trkpt lat="43.29489" lon="-0.41058">
        <ele>170.19999694824</ele>
        <time>2025-08-12T06:55:05.000Z</time>
      </trkpt>
      <trkpt lat="43.29506" lon="-0.41086">
        <ele>170</ele>
        <time>2025-08-12T06:55:12.000Z</time>
      </trkpt>
      <trkpt lat="43.29522" lon="-0.4112">
        <ele>169.80000305176</ele>
        <time>2025-08-12T06:55:20.000Z</time>
      </trkpt>
      <trkpt lat="43.29537" lon="-0.41134">
        <ele>169.80000305176</ele>
        <time>2025-08-12T06:55:25.000Z</time>
      </trkpt>
      <trkpt lat="43.29552" lon="-0.41135">
        <ele>169.60000610352</ele>
        <time>2025-08-12T06:55:29.000Z</time>
      </trkpt>
      <trkpt lat="43.29558" lon="-0.41132">
        <ele>169.39999389648</ele>
        <time>2025-08-12T06:55:31.000Z</time>
      </trkpt>
      <trkpt lat="43.29577" lon="-0.41125">
        <ele>169.19999694824</ele>
        <time>2025-08-12T06:55:36.000Z</time>
      </trkpt>
      <trkpt lat="43.29602" lon="-0.41132">
        <ele>169</ele>
        <time>2025-08-12T06:55:42.000Z</time>
      </trkpt>
      <trkpt lat="43.29633" lon="-0.41144">
        <ele>168.60000610352</ele>
        <time>2025-08-12T06:55:50.000Z</time>
      </trkpt>
      <trkpt lat="43.29647" lon="-0.41145">
        <ele>168.60000610352</ele>
        <time>2025-08-12T06:55:55.000Z</time>
      </trkpt>
      <trkpt lat="43.29653" lon="-0.41143">
        <ele>168.80000305176</ele>
        <time>2025-08-12T06:55:58.000Z</time>
      </trkpt>
      <trkpt lat="43.29657" lon="-0.41144">
        <ele>169</ele>
        <time>2025-08-12T06:56:00.000Z</time>
      </trkpt>
      <trkpt lat="43.2967" lon="-0.41141">
        <ele>170.19999694824</ele>
        <time>2025-08-12T06:56:06.000Z</time>
      </trkpt>
      <trkpt lat="43.29672" lon="-0.41142">
        <ele>170.80000305176</ele>
        <time>2025-08-12T06:56:07.000Z</time>
      </trkpt>
      <trkpt lat="43.29674" lon="-0.41143">
        <ele>171.19999694824</ele>
        <time>2025-08-12T06:56:10.000Z</time>
      </trkpt>
      <trkpt lat="43.29678" lon="-0.41145">
        <ele>171.60000610352</ele>
        <time>2025-08-12T06:56:23.000Z</time>
      </trkpt>
      <trkpt lat="43.29689" lon="-0.41157">
        <ele>171.39999389648</ele>
        <time>2025-08-12T06:56:29.000Z</time>
      </trkpt>
      <trkpt lat="43.29697" lon="-0.41166">
        <ele>171.39999389648</ele>
        <time>2025-08-12T06:56:33.000Z</time>
      </trkpt>
      <trkpt lat="43.29701" lon="-0.41179">
        <ele>171.60000610352</ele>
        <time>2025-08-12T06:56:37.000Z</time>
      </trkpt>
      <trkpt lat="43.29702" lon="-0.41198">
        <ele>171.80000305176</ele>
        <time>2025-08-12T06:56:42.000Z</time>
      </trkpt>
      <trkpt lat="43.29703" lon="-0.41206">
        <ele>171.80000305176</ele>
        <time>2025-08-12T06:56:44.000Z</time>
      </trkpt>
      <trkpt lat="43.29706" lon="-0.41225">
        <ele>171.60000610352</ele>
        <time>2025-08-12T06:56:50.000Z</time>
      </trkpt>
      <trkpt lat="43.29706" lon="-0.41228">
        <ele>171.39999389648</ele>
        <time>2025-08-12T06:56:52.000Z</time>
      </trkpt>
      <trkpt lat="43.29704" lon="-0.41236">
        <ele>171.39999389648</ele>
        <time>2025-08-12T06:56:55.000Z</time>
      </trkpt>
      <trkpt lat="43.29704" lon="-0.41239">
        <ele>171.39999389648</ele>
        <time>2025-08-12T06:56:56.000Z</time>
      </trkpt>
      <trkpt lat="43.29709" lon="-0.41255">
        <ele>171.39999389648</ele>
        <time>2025-08-12T06:57:01.000Z</time>
      </trkpt>
      <trkpt lat="43.2972" lon="-0.41266">
        <ele>171</ele>
        <time>2025-08-12T06:57:08.000Z</time>
      </trkpt>
      <trkpt lat="43.29721" lon="-0.41267">
        <ele>171</ele>
        <time>2025-08-12T06:57:11.000Z</time>
      </trkpt>
      <trkpt lat="43.29728" lon="-0.41273">
        <ele>170.60000610352</ele>
        <time>2025-08-12T06:57:17.000Z</time>
      </trkpt>
      <trkpt lat="43.29735" lon="-0.41278">
        <ele>170.60000610352</ele>
        <time>2025-08-12T06:57:19.000Z</time>
      </trkpt>
      <trkpt lat="43.29743" lon="-0.4128">
        <ele>170.39999389648</ele>
        <time>2025-08-12T06:57:21.000Z</time>
      </trkpt>
      <trkpt lat="43.29762" lon="-0.4128">
        <ele>170</ele>
        <time>2025-08-12T06:57:26.000Z</time>
      </trkpt>
      <trkpt lat="43.29767" lon="-0.4127">
        <ele>170</ele>
        <time>2025-08-12T06:57:30.000Z</time>
      </trkpt>
      <trkpt lat="43.29772" lon="-0.41259">
        <ele>170.39999389648</ele>
        <time>2025-08-12T06:57:35.000Z</time>
      </trkpt>
      <trkpt lat="43.29772" lon="-0.41256">
        <ele>170.60000610352</ele>
        <time>2025-08-12T06:57:36.000Z</time>
      </trkpt>
      <trkpt lat="43.2977" lon="-0.41253">
        <ele>170.80000305176</ele>
        <time>2025-08-12T06:57:38.000Z</time>
      </trkpt>
      <trkpt lat="43.29768" lon="-0.41253">
        <ele>171</ele>
        <time>2025-08-12T06:57:39.000Z</time>
      </trkpt>
      <trkpt lat="43.29767" lon="-0.41254">
        <ele>171.19999694824</ele>
        <time>2025-08-12T06:57:40.000Z</time>
      </trkpt>
      <trkpt lat="43.29762" lon="-0.41259">
        <ele>171.80000305176</ele>
        <time>2025-08-12T06:57:43.000Z</time>
      </trkpt>
      <trkpt lat="43.29761" lon="-0.41261">
        <ele>172</ele>
        <time>2025-08-12T06:57:44.000Z</time>
      </trkpt>
      <trkpt lat="43.29749" lon="-0.41279">
        <ele>172.39999389648</ele>
        <time>2025-08-12T06:57:50.000Z</time>
      </trkpt>
      <trkpt lat="43.29728" lon="-0.4131">
        <ele>172.80000305176</ele>
        <time>2025-08-12T06:57:59.000Z</time>
      </trkpt>
      <trkpt lat="43.29708" lon="-0.4134">
        <ele>173</ele>
        <time>2025-08-12T06:58:07.000Z</time>
      </trkpt>
      <trkpt lat="43.29684" lon="-0.41374">
        <ele>173</ele>
        <time>2025-08-12T06:58:16.000Z</time>
      </trkpt>
      <trkpt lat="43.29662" lon="-0.41406">
        <ele>173</ele>
        <time>2025-08-12T06:58:24.000Z</time>
      </trkpt>
      <trkpt lat="43.29643" lon="-0.41438">
        <ele>173</ele>
        <time>2025-08-12T06:58:32.000Z</time>
      </trkpt>
      <trkpt lat="43.29628" lon="-0.41465">
        <ele>173.39999389648</ele>
        <time>2025-08-12T06:58:39.000Z</time>
      </trkpt>
      <trkpt lat="43.29629" lon="-0.41467">
        <ele>173.39999389648</ele>
        <time>2025-08-12T06:58:40.000Z</time>
      </trkpt>
      <trkpt lat="43.2963" lon="-0.4147">
        <ele>173.39999389648</ele>
        <time>2025-08-12T06:58:41.000Z</time>
      </trkpt>
      <trkpt lat="43.29635" lon="-0.41471">
        <ele>173.39999389648</ele>
        <time>2025-08-12T06:58:43.000Z</time>
      </trkpt>
      <trkpt lat="43.29648" lon="-0.41472">
        <ele>173.39999389648</ele>
        <time>2025-08-12T06:58:46.000Z</time>
      </trkpt>
      <trkpt lat="43.29653" lon="-0.41469">
        <ele>173.39999389648</ele>
        <time>2025-08-12T06:58:47.000Z</time>
      </trkpt>
      <trkpt lat="43.29662" lon="-0.41461">
        <ele>172.80000305176</ele>
        <time>2025-08-12T06:58:49.000Z</time>
      </trkpt>
      <trkpt lat="43.29668" lon="-0.41457">
        <ele>172.19999694824</ele>
        <time>2025-08-12T06:58:50.000Z</time>
      </trkpt>
      <trkpt lat="43.29673" lon="-0.41454">
        <ele>171.60000610352</ele>
        <time>2025-08-12T06:58:51.000Z</time>
      </trkpt>
      <trkpt lat="43.29679" lon="-0.41451">
        <ele>171</ele>
        <time>2025-08-12T06:58:52.000Z</time>
      </trkpt>
      <trkpt lat="43.29685" lon="-0.41449">
        <ele>170.60000610352</ele>
        <time>2025-08-12T06:58:53.000Z</time>
      </trkpt>
      <trkpt lat="43.29695" lon="-0.41449">
        <ele>170</ele>
        <time>2025-08-12T06:58:55.000Z</time>
      </trkpt>
      <trkpt lat="43.297" lon="-0.41452">
        <ele>169.80000305176</ele>
        <time>2025-08-12T06:58:56.000Z</time>
      </trkpt>
      <trkpt lat="43.29703" lon="-0.41457">
        <ele>169.39999389648</ele>
        <time>2025-08-12T06:58:57.000Z</time>
      </trkpt>
      <trkpt lat="43.29705" lon="-0.4146">
        <ele>169.19999694824</ele>
        <time>2025-08-12T06:58:58.000Z</time>
      </trkpt>
      <trkpt lat="43.29708" lon="-0.41466">
        <ele>169</ele>
        <time>2025-08-12T06:58:59.000Z</time>
      </trkpt>
      <trkpt lat="43.29711" lon="-0.41471">
        <ele>168.80000305176</ele>
        <time>2025-08-12T06:59:00.000Z</time>
      </trkpt>
      <trkpt lat="43.29718" lon="-0.41482">
        <ele>168.39999389648</ele>
        <time>2025-08-12T06:59:02.000Z</time>
      </trkpt>
      <trkpt lat="43.29721" lon="-0.41485">
        <ele>168.19999694824</ele>
        <time>2025-08-12T06:59:03.000Z</time>
      </trkpt>
      <trkpt lat="43.2975" lon="-0.41521">
        <ele>168</ele>
        <time>2025-08-12T06:59:11.000Z</time>
      </trkpt>
      <trkpt lat="43.29763" lon="-0.4154">
        <ele>168</ele>
        <time>2025-08-12T06:59:15.000Z</time>
      </trkpt>
      <trkpt lat="43.29768" lon="-0.4155">
        <ele>168</ele>
        <time>2025-08-12T06:59:17.000Z</time>
      </trkpt>
      <trkpt lat="43.2977" lon="-0.41561">
        <ele>168</ele>
        <time>2025-08-12T06:59:19.000Z</time>
      </trkpt>
      <trkpt lat="43.2977" lon="-0.41573">
        <ele>167.80000305176</ele>
        <time>2025-08-12T06:59:21.000Z</time>
      </trkpt>
      <trkpt lat="43.29776" lon="-0.4159">
        <ele>168</ele>
        <time>2025-08-12T06:59:25.000Z</time>
      </trkpt>
      <trkpt lat="43.29783" lon="-0.41603">
        <ele>168.19999694824</ele>
        <time>2025-08-12T06:59:29.000Z</time>
      </trkpt>
      <trkpt lat="43.29793" lon="-0.41633">
        <ele>169.19999694824</ele>
        <time>2025-08-12T06:59:36.000Z</time>
      </trkpt>
      <trkpt lat="43.29797" lon="-0.41663">
        <ele>169</ele>
        <time>2025-08-12T06:59:42.000Z</time>
      </trkpt>
      <trkpt lat="43.29801" lon="-0.41697">
        <ele>169</ele>
        <time>2025-08-12T06:59:48.000Z</time>
      </trkpt>
      <trkpt lat="43.29808" lon="-0.41721">
        <ele>169</ele>
        <time>2025-08-12T06:59:53.000Z</time>
      </trkpt>
      <trkpt lat="43.29813" lon="-0.41743">
        <ele>169.19999694824</ele>
        <time>2025-08-12T06:59:57.000Z</time>
      </trkpt>
      <trkpt lat="43.29815" lon="-0.4175">
        <ele>169.19999694824</ele>
        <time>2025-08-12T06:59:58.000Z</time>
      </trkpt>
      <trkpt lat="43.29815" lon="-0.41755">
        <ele>169.19999694824</ele>
        <time>2025-08-12T06:59:59.000Z</time>
      </trkpt>
      <trkpt lat="43.29816" lon="-0.41767">
        <ele>169</ele>
        <time>2025-08-12T07:00:01.000Z</time>
      </trkpt>
      <trkpt lat="43.29816" lon="-0.41778">
        <ele>169</ele>
        <time>2025-08-12T07:00:03.000Z</time>
      </trkpt>
      <trkpt lat="43.29813" lon="-0.41794">
        <ele>169</ele>
        <time>2025-08-12T07:00:05.000Z</time>
      </trkpt>
      <trkpt lat="43.29817" lon="-0.41805">
        <ele>168.80000305176</ele>
        <time>2025-08-12T07:00:07.000Z</time>
      </trkpt>
      <trkpt lat="43.29823" lon="-0.41812">
        <ele>168.80000305176</ele>
        <time>2025-08-12T07:00:09.000Z</time>
      </trkpt>
      <trkpt lat="43.29835" lon="-0.41822">
        <ele>169</ele>
        <time>2025-08-12T07:00:12.000Z</time>
      </trkpt>
      <trkpt lat="43.29841" lon="-0.41829">
        <ele>168.80000305176</ele>
        <time>2025-08-12T07:00:14.000Z</time>
      </trkpt>
      <trkpt lat="43.29845" lon="-0.4184">
        <ele>168.80000305176</ele>
        <time>2025-08-12T07:00:16.000Z</time>
      </trkpt>
      <trkpt lat="43.29854" lon="-0.41868">
        <ele>168.80000305176</ele>
        <time>2025-08-12T07:00:22.000Z</time>
      </trkpt>
      <trkpt lat="43.29858" lon="-0.41894">
        <ele>168.60000610352</ele>
        <time>2025-08-12T07:00:26.000Z</time>
      </trkpt>
      <trkpt lat="43.29861" lon="-0.41905">
        <ele>168.39999389648</ele>
        <time>2025-08-12T07:00:28.000Z</time>
      </trkpt>
      <trkpt lat="43.29869" lon="-0.41921">
        <ele>168</ele>
        <time>2025-08-12T07:00:31.000Z</time>
      </trkpt>
      <trkpt lat="43.29892" lon="-0.41951">
        <ele>167.80000305176</ele>
        <time>2025-08-12T07:00:37.000Z</time>
      </trkpt>
      <trkpt lat="43.29906" lon="-0.4197">
        <ele>167.39999389648</ele>
        <time>2025-08-12T07:00:41.000Z</time>
      </trkpt>
      <trkpt lat="43.29913" lon="-0.41979">
        <ele>167.39999389648</ele>
        <time>2025-08-12T07:00:43.000Z</time>
      </trkpt>
      <trkpt lat="43.29919" lon="-0.41988">
        <ele>167.39999389648</ele>
        <time>2025-08-12T07:00:45.000Z</time>
      </trkpt>
      <trkpt lat="43.29923" lon="-0.41998">
        <ele>167.19999694824</ele>
        <time>2025-08-12T07:00:47.000Z</time>
      </trkpt>
      <trkpt lat="43.29935" lon="-0.42024">
        <ele>167</ele>
        <time>2025-08-12T07:00:51.000Z</time>
      </trkpt>
      <trkpt lat="43.29942" lon="-0.42038">
        <ele>166.80000305176</ele>
        <time>2025-08-12T07:00:53.000Z</time>
      </trkpt>
      <trkpt lat="43.29945" lon="-0.42045">
        <ele>166.60000610352</ele>
        <time>2025-08-12T07:00:54.000Z</time>
      </trkpt>
      <trkpt lat="43.29956" lon="-0.42067">
        <ele>166.39999389648</ele>
        <time>2025-08-12T07:00:58.000Z</time>
      </trkpt>
      <trkpt lat="43.29957" lon="-0.42087">
        <ele>166.19999694824</ele>
        <time>2025-08-12T07:01:01.000Z</time>
      </trkpt>
      <trkpt lat="43.29958" lon="-0.42093">
        <ele>166.19999694824</ele>
        <time>2025-08-12T07:01:02.000Z</time>
      </trkpt>
      <trkpt lat="43.2996" lon="-0.42099">
        <ele>166</ele>
        <time>2025-08-12T07:01:03.000Z</time>
      </trkpt>
      <trkpt lat="43.29972" lon="-0.42127">
        <ele>165.80000305176</ele>
        <time>2025-08-12T07:01:08.000Z</time>
      </trkpt>
      <trkpt lat="43.2998" lon="-0.4215">
        <ele>165.60000610352</ele>
        <time>2025-08-12T07:01:12.000Z</time>
      </trkpt>
      <trkpt lat="43.29987" lon="-0.42175">
        <ele>165.39999389648</ele>
        <time>2025-08-12T07:01:16.000Z</time>
      </trkpt>
      <trkpt lat="43.29989" lon="-0.42181">
        <ele>165.39999389648</ele>
        <time>2025-08-12T07:01:17.000Z</time>
      </trkpt>
      <trkpt lat="43.29992" lon="-0.42205">
        <ele>165.19999694824</ele>
        <time>2025-08-12T07:01:21.000Z</time>
      </trkpt>
      <trkpt lat="43.29994" lon="-0.42237">
        <ele>165.19999694824</ele>
        <time>2025-08-12T07:01:26.000Z</time>
      </trkpt>
      <trkpt lat="43.29994" lon="-0.42243">
        <ele>165.19999694824</ele>
        <time>2025-08-12T07:01:27.000Z</time>
      </trkpt>
      <trkpt lat="43.29993" lon="-0.42256">
        <ele>165.19999694824</ele>
        <time>2025-08-12T07:01:29.000Z</time>
      </trkpt>
      <trkpt lat="43.29996" lon="-0.42274">
        <ele>165.19999694824</ele>
        <time>2025-08-12T07:01:32.000Z</time>
      </trkpt>
      <trkpt lat="43.29997" lon="-0.4228">
        <ele>165.19999694824</ele>
        <time>2025-08-12T07:01:33.000Z</time>
      </trkpt>
      <trkpt lat="43.30004" lon="-0.42301">
        <ele>165.19999694824</ele>
        <time>2025-08-12T07:01:37.000Z</time>
      </trkpt>
      <trkpt lat="43.30005" lon="-0.42306">
        <ele>165.19999694824</ele>
        <time>2025-08-12T07:01:38.000Z</time>
      </trkpt>
      <trkpt lat="43.30013" lon="-0.42332">
        <ele>165.19999694824</ele>
        <time>2025-08-12T07:01:43.000Z</time>
      </trkpt>
      <trkpt lat="43.30015" lon="-0.42349">
        <ele>165.19999694824</ele>
        <time>2025-08-12T07:01:46.000Z</time>
      </trkpt>
      <trkpt lat="43.30018" lon="-0.4236">
        <ele>165.39999389648</ele>
        <time>2025-08-12T07:01:48.000Z</time>
      </trkpt>
      <trkpt lat="43.30022" lon="-0.42375">
        <ele>165.39999389648</ele>
        <time>2025-08-12T07:01:51.000Z</time>
      </trkpt>
      <trkpt lat="43.30023" lon="-0.4238">
        <ele>165.39999389648</ele>
        <time>2025-08-12T07:01:52.000Z</time>
      </trkpt>
      <trkpt lat="43.30025" lon="-0.42384">
        <ele>165.39999389648</ele>
        <time>2025-08-12T07:01:53.000Z</time>
      </trkpt>
      <trkpt lat="43.30033" lon="-0.42403">
        <ele>165.60000610352</ele>
        <time>2025-08-12T07:01:57.000Z</time>
      </trkpt>
      <trkpt lat="43.30043" lon="-0.42432">
        <ele>165.60000610352</ele>
        <time>2025-08-12T07:02:03.000Z</time>
      </trkpt>
      <trkpt lat="43.30052" lon="-0.42459">
        <ele>165.60000610352</ele>
        <time>2025-08-12T07:02:08.000Z</time>
      </trkpt>
      <trkpt lat="43.30067" lon="-0.42498">
        <ele>165.60000610352</ele>
        <time>2025-08-12T07:02:15.000Z</time>
      </trkpt>
      <trkpt lat="43.30079" lon="-0.42518">
        <ele>165.60000610352</ele>
        <time>2025-08-12T07:02:19.000Z</time>
      </trkpt>
      <trkpt lat="43.30084" lon="-0.42529">
        <ele>165.60000610352</ele>
        <time>2025-08-12T07:02:21.000Z</time>
      </trkpt>
      <trkpt lat="43.30095" lon="-0.42556">
        <ele>165.39999389648</ele>
        <time>2025-08-12T07:02:26.000Z</time>
      </trkpt>
      <trkpt lat="43.301" lon="-0.42569">
        <ele>165.19999694824</ele>
        <time>2025-08-12T07:02:28.000Z</time>
      </trkpt>
      <trkpt lat="43.30103" lon="-0.42581">
        <ele>165.19999694824</ele>
        <time>2025-08-12T07:02:30.000Z</time>
      </trkpt>
      <trkpt lat="43.30108" lon="-0.42597">
        <ele>165</ele>
        <time>2025-08-12T07:02:33.000Z</time>
      </trkpt>
      <trkpt lat="43.3011" lon="-0.42603">
        <ele>165</ele>
        <time>2025-08-12T07:02:34.000Z</time>
      </trkpt>
      <trkpt lat="43.30121" lon="-0.42635">
        <ele>165</ele>
        <time>2025-08-12T07:02:40.000Z</time>
      </trkpt>
      <trkpt lat="43.30124" lon="-0.42647">
        <ele>165</ele>
        <time>2025-08-12T07:02:42.000Z</time>
      </trkpt>
      <trkpt lat="43.30131" lon="-0.42669">
        <ele>165</ele>
        <time>2025-08-12T07:02:46.000Z</time>
      </trkpt>
      <trkpt lat="43.30135" lon="-0.42682">
        <ele>165</ele>
        <time>2025-08-12T07:02:48.000Z</time>
      </trkpt>
      <trkpt lat="43.30137" lon="-0.42688">
        <ele>165</ele>
        <time>2025-08-12T07:02:49.000Z</time>
      </trkpt>
      <trkpt lat="43.30145" lon="-0.42725">
        <ele>164.80000305176</ele>
        <time>2025-08-12T07:02:55.000Z</time>
      </trkpt>
      <trkpt lat="43.30148" lon="-0.42736">
        <ele>164.80000305176</ele>
        <time>2025-08-12T07:02:57.000Z</time>
      </trkpt>
      <trkpt lat="43.3015" lon="-0.42742">
        <ele>164.80000305176</ele>
        <time>2025-08-12T07:02:58.000Z</time>
      </trkpt>
      <trkpt lat="43.30151" lon="-0.42747">
        <ele>164.80000305176</ele>
        <time>2025-08-12T07:02:59.000Z</time>
      </trkpt>
      <trkpt lat="43.30154" lon="-0.42759">
        <ele>164.80000305176</ele>
        <time>2025-08-12T07:03:02.000Z</time>
      </trkpt>
      <trkpt lat="43.30159" lon="-0.42787">
        <ele>164.80000305176</ele>
        <time>2025-08-12T07:03:08.000Z</time>
      </trkpt>
      <trkpt lat="43.30169" lon="-0.4282">
        <ele>164.60000610352</ele>
        <time>2025-08-12T07:03:14.000Z</time>
      </trkpt>
      <trkpt lat="43.30174" lon="-0.42863">
        <ele>164.60000610352</ele>
        <time>2025-08-12T07:03:21.000Z</time>
      </trkpt>
      <trkpt lat="43.30183" lon="-0.42889">
        <ele>164.60000610352</ele>
        <time>2025-08-12T07:03:26.000Z</time>
      </trkpt>
      <trkpt lat="43.30191" lon="-0.42923">
        <ele>164.60000610352</ele>
        <time>2025-08-12T07:03:32.000Z</time>
      </trkpt>
      <trkpt lat="43.30206" lon="-0.42961">
        <ele>164.60000610352</ele>
        <time>2025-08-12T07:03:38.000Z</time>
      </trkpt>
      <trkpt lat="43.30208" lon="-0.42966">
        <ele>164.60000610352</ele>
        <time>2025-08-12T07:03:39.000Z</time>
      </trkpt>
      <trkpt lat="43.30217" lon="-0.42989">
        <ele>164.39999389648</ele>
        <time>2025-08-12T07:03:43.000Z</time>
      </trkpt>
      <trkpt lat="43.30224" lon="-0.43005">
        <ele>164.19999694824</ele>
        <time>2025-08-12T07:03:46.000Z</time>
      </trkpt>
      <trkpt lat="43.30226" lon="-0.43019">
        <ele>164</ele>
        <time>2025-08-12T07:03:48.000Z</time>
      </trkpt>
      <trkpt lat="43.30233" lon="-0.43048">
        <ele>163.60000610352</ele>
        <time>2025-08-12T07:03:53.000Z</time>
      </trkpt>
      <trkpt lat="43.30233" lon="-0.43054">
        <ele>163.60000610352</ele>
        <time>2025-08-12T07:03:54.000Z</time>
      </trkpt>
      <trkpt lat="43.30243" lon="-0.43101">
        <ele>163.39999389648</ele>
        <time>2025-08-12T07:04:02.000Z</time>
      </trkpt>
      <trkpt lat="43.30248" lon="-0.4312">
        <ele>163.60000610352</ele>
        <time>2025-08-12T07:04:06.000Z</time>
      </trkpt>
      <trkpt lat="43.30251" lon="-0.43128">
        <ele>163.60000610352</ele>
        <time>2025-08-12T07:04:08.000Z</time>
      </trkpt>
      <trkpt lat="43.30259" lon="-0.43156">
        <ele>163.80000305176</ele>
        <time>2025-08-12T07:04:14.000Z</time>
      </trkpt>
      <trkpt lat="43.30268" lon="-0.43205">
        <ele>163.80000305176</ele>
        <time>2025-08-12T07:04:23.000Z</time>
      </trkpt>
      <trkpt lat="43.30273" lon="-0.43235">
        <ele>163.80000305176</ele>
        <time>2025-08-12T07:04:29.000Z</time>
      </trkpt>
      <trkpt lat="43.30273" lon="-0.43235">
        <ele>163.80000305176</ele>
        <time>2025-08-12T07:04:32.000Z</time>
      </trkpt>
      <trkpt lat="43.30275" lon="-0.43242">
        <ele>163.19999694824</ele>
        <time>2025-08-12T07:04:52.000Z</time>
      </trkpt>
      <trkpt lat="43.30278" lon="-0.4325">
        <ele>163.19999694824</ele>
        <time>2025-08-12T07:04:55.000Z</time>
      </trkpt>
      <trkpt lat="43.30279" lon="-0.43253">
        <ele>163.19999694824</ele>
        <time>2025-08-12T07:04:58.000Z</time>
      </trkpt>
      <trkpt lat="43.30283" lon="-0.43257">
        <ele>163.19999694824</ele>
        <time>2025-08-12T07:05:03.000Z</time>
      </trkpt>
      <trkpt lat="43.30289" lon="-0.43272">
        <ele>163</ele>
        <time>2025-08-12T07:05:08.000Z</time>
      </trkpt>
      <trkpt lat="43.30297" lon="-0.43288">
        <ele>163</ele>
        <time>2025-08-12T07:05:12.000Z</time>
      </trkpt>
      <trkpt lat="43.30302" lon="-0.43296">
        <ele>163</ele>
        <time>2025-08-12T07:05:14.000Z</time>
      </trkpt>
      <trkpt lat="43.30318" lon="-0.43323">
        <ele>162.80000305176</ele>
        <time>2025-08-12T07:05:20.000Z</time>
      </trkpt>
      <trkpt lat="43.30332" lon="-0.43354">
        <ele>162.80000305176</ele>
        <time>2025-08-12T07:05:27.000Z</time>
      </trkpt>
      <trkpt lat="43.30343" lon="-0.43386">
        <ele>162.80000305176</ele>
        <time>2025-08-12T07:05:33.000Z</time>
      </trkpt>
      <trkpt lat="43.30352" lon="-0.43408">
        <ele>162.80000305176</ele>
        <time>2025-08-12T07:05:37.000Z</time>
      </trkpt>
      <trkpt lat="43.30362" lon="-0.43429">
        <ele>162.80000305176</ele>
        <time>2025-08-12T07:05:42.000Z</time>
      </trkpt>
      <trkpt lat="43.30377" lon="-0.43457">
        <ele>162.60000610352</ele>
        <time>2025-08-12T07:05:48.000Z</time>
      </trkpt>
      <trkpt lat="43.30379" lon="-0.43491">
        <ele>162.39999389648</ele>
        <time>2025-08-12T07:05:54.000Z</time>
      </trkpt>
      <trkpt lat="43.30369" lon="-0.43507">
        <ele>162.39999389648</ele>
        <time>2025-08-12T07:05:58.000Z</time>
      </trkpt>
      <trkpt lat="43.30366" lon="-0.43523">
        <ele>162.39999389648</ele>
        <time>2025-08-12T07:06:02.000Z</time>
      </trkpt>
      <trkpt lat="43.30376" lon="-0.43546">
        <ele>163</ele>
        <time>2025-08-12T07:06:08.000Z</time>
      </trkpt>
      <trkpt lat="43.30386" lon="-0.43563">
        <ele>163.80000305176</ele>
        <time>2025-08-12T07:06:13.000Z</time>
      </trkpt>
      <trkpt lat="43.30388" lon="-0.43566">
        <ele>164.19999694824</ele>
        <time>2025-08-12T07:06:14.000Z</time>
      </trkpt>
      <trkpt lat="43.30403" lon="-0.43599">
        <ele>164.60000610352</ele>
        <time>2025-08-12T07:06:21.000Z</time>
      </trkpt>
      <trkpt lat="43.30413" lon="-0.43632">
        <ele>164.19999694824</ele>
        <time>2025-08-12T07:06:27.000Z</time>
      </trkpt>
      <trkpt lat="43.30421" lon="-0.43655">
        <ele>164</ele>
        <time>2025-08-12T07:06:32.000Z</time>
      </trkpt>
      <trkpt lat="43.30424" lon="-0.43656">
        <ele>164</ele>
        <time>2025-08-12T07:06:33.000Z</time>
      </trkpt>
      <trkpt lat="43.30432" lon="-0.4367">
        <ele>164</ele>
        <time>2025-08-12T07:06:37.000Z</time>
      </trkpt>
      <trkpt lat="43.30447" lon="-0.43713">
        <ele>163.60000610352</ele>
        <time>2025-08-12T07:06:46.000Z</time>
      </trkpt>
      <trkpt lat="43.30462" lon="-0.43745">
        <ele>163.39999389648</ele>
        <time>2025-08-12T07:06:53.000Z</time>
      </trkpt>
      <trkpt lat="43.30478" lon="-0.43774">
        <ele>163.39999389648</ele>
        <time>2025-08-12T07:07:00.000Z</time>
      </trkpt>
      <trkpt lat="43.30484" lon="-0.43808">
        <ele>163.19999694824</ele>
        <time>2025-08-12T07:07:06.000Z</time>
      </trkpt>
      <trkpt lat="43.30485" lon="-0.43815">
        <ele>163.19999694824</ele>
        <time>2025-08-12T07:07:07.000Z</time>
      </trkpt>
      <trkpt lat="43.3049" lon="-0.43834">
        <ele>163.19999694824</ele>
        <time>2025-08-12T07:07:10.000Z</time>
      </trkpt>
      <trkpt lat="43.30492" lon="-0.4384">
        <ele>163.19999694824</ele>
        <time>2025-08-12T07:07:11.000Z</time>
      </trkpt>
      <trkpt lat="43.30511" lon="-0.4388">
        <ele>162.80000305176</ele>
        <time>2025-08-12T07:07:18.000Z</time>
      </trkpt>
      <trkpt lat="43.30516" lon="-0.43891">
        <ele>162.80000305176</ele>
        <time>2025-08-12T07:07:20.000Z</time>
      </trkpt>
      <trkpt lat="43.30529" lon="-0.43914">
        <ele>162.60000610352</ele>
        <time>2025-08-12T07:07:24.000Z</time>
      </trkpt>
      <trkpt lat="43.3055" lon="-0.43953">
        <ele>162.19999694824</ele>
        <time>2025-08-12T07:07:31.000Z</time>
      </trkpt>
      <trkpt lat="43.30573" lon="-0.43996">
        <ele>161.80000305176</ele>
        <time>2025-08-12T07:07:38.000Z</time>
      </trkpt>
      <trkpt lat="43.30577" lon="-0.44002">
        <ele>161.60000610352</ele>
        <time>2025-08-12T07:07:39.000Z</time>
      </trkpt>
      <trkpt lat="43.30581" lon="-0.44007">
        <ele>161.39999389648</ele>
        <time>2025-08-12T07:07:40.000Z</time>
      </trkpt>
      <trkpt lat="43.30602" lon="-0.44038">
        <ele>161</ele>
        <time>2025-08-12T07:07:45.000Z</time>
      </trkpt>
      <trkpt lat="43.30632" lon="-0.44079">
        <ele>160.60000610352</ele>
        <time>2025-08-12T07:07:52.000Z</time>
      </trkpt>
      <trkpt lat="43.3064" lon="-0.44092">
        <ele>160.39999389648</ele>
        <time>2025-08-12T07:07:54.000Z</time>
      </trkpt>
      <trkpt lat="43.30649" lon="-0.44103">
        <ele>160.39999389648</ele>
        <time>2025-08-12T07:07:56.000Z</time>
      </trkpt>
      <trkpt lat="43.30655" lon="-0.44115">
        <ele>160.39999389648</ele>
        <time>2025-08-12T07:07:58.000Z</time>
      </trkpt>
      <trkpt lat="43.30662" lon="-0.44127">
        <ele>160.19999694824</ele>
        <time>2025-08-12T07:08:00.000Z</time>
      </trkpt>
      <trkpt lat="43.30669" lon="-0.44138">
        <ele>160.19999694824</ele>
        <time>2025-08-12T07:08:02.000Z</time>
      </trkpt>
      <trkpt lat="43.30694" lon="-0.44181">
        <ele>159.80000305176</ele>
        <time>2025-08-12T07:08:09.000Z</time>
      </trkpt>
      <trkpt lat="43.30718" lon="-0.44227">
        <ele>159.60000610352</ele>
        <time>2025-08-12T07:08:16.000Z</time>
      </trkpt>
      <trkpt lat="43.30721" lon="-0.44234">
        <ele>159.60000610352</ele>
        <time>2025-08-12T07:08:17.000Z</time>
      </trkpt>
      <trkpt lat="43.30726" lon="-0.44249">
        <ele>159.60000610352</ele>
        <time>2025-08-12T07:08:19.000Z</time>
      </trkpt>
      <trkpt lat="43.30731" lon="-0.44264">
        <ele>159.39999389648</ele>
        <time>2025-08-12T07:08:21.000Z</time>
      </trkpt>
      <trkpt lat="43.30733" lon="-0.44271">
        <ele>159.39999389648</ele>
        <time>2025-08-12T07:08:22.000Z</time>
      </trkpt>
      <trkpt lat="43.30736" lon="-0.44278">
        <ele>159.19999694824</ele>
        <time>2025-08-12T07:08:23.000Z</time>
      </trkpt>
      <trkpt lat="43.30742" lon="-0.44298">
        <ele>159.19999694824</ele>
        <time>2025-08-12T07:08:26.000Z</time>
      </trkpt>
      <trkpt lat="43.3075" lon="-0.4433">
        <ele>159.39999389648</ele>
        <time>2025-08-12T07:08:31.000Z</time>
      </trkpt>
      <trkpt lat="43.30751" lon="-0.44337">
        <ele>159.39999389648</ele>
        <time>2025-08-12T07:08:32.000Z</time>
      </trkpt>
      <trkpt lat="43.30763" lon="-0.44388">
        <ele>159.19999694824</ele>
        <time>2025-08-12T07:08:40.000Z</time>
      </trkpt>
      <trkpt lat="43.30764" lon="-0.44402">
        <ele>159</ele>
        <time>2025-08-12T07:08:42.000Z</time>
      </trkpt>
      <trkpt lat="43.30766" lon="-0.44415">
        <ele>159</ele>
        <time>2025-08-12T07:08:44.000Z</time>
      </trkpt>
      <trkpt lat="43.30769" lon="-0.44433">
        <ele>158.80000305176</ele>
        <time>2025-08-12T07:08:47.000Z</time>
      </trkpt>
      <trkpt lat="43.30777" lon="-0.44479">
        <ele>158.60000610352</ele>
        <time>2025-08-12T07:08:54.000Z</time>
      </trkpt>
      <trkpt lat="43.30781" lon="-0.44492">
        <ele>158.60000610352</ele>
        <time>2025-08-12T07:08:56.000Z</time>
      </trkpt>
      <trkpt lat="43.30787" lon="-0.44511">
        <ele>158.39999389648</ele>
        <time>2025-08-12T07:08:59.000Z</time>
      </trkpt>
      <trkpt lat="43.30792" lon="-0.44537">
        <ele>158.39999389648</ele>
        <time>2025-08-12T07:09:03.000Z</time>
      </trkpt>
      <trkpt lat="43.30794" lon="-0.44542">
        <ele>158.39999389648</ele>
        <time>2025-08-12T07:09:04.000Z</time>
      </trkpt>
      <trkpt lat="43.30807" lon="-0.4457">
        <ele>158.19999694824</ele>
        <time>2025-08-12T07:09:10.000Z</time>
      </trkpt>
      <trkpt lat="43.30819" lon="-0.44597">
        <ele>158.19999694824</ele>
        <time>2025-08-12T07:09:16.000Z</time>
      </trkpt>
      <trkpt lat="43.30827" lon="-0.4462">
        <ele>159</ele>
        <time>2025-08-12T07:09:23.000Z</time>
      </trkpt>
      <trkpt lat="43.3083" lon="-0.44628">
        <ele>159.60000610352</ele>
        <time>2025-08-12T07:09:25.000Z</time>
      </trkpt>
      <trkpt lat="43.30839" lon="-0.44641">
        <ele>159.80000305176</ele>
        <time>2025-08-12T07:09:29.000Z</time>
      </trkpt>
      <trkpt lat="43.30848" lon="-0.44655">
        <ele>160</ele>
        <time>2025-08-12T07:09:32.000Z</time>
      </trkpt>
      <trkpt lat="43.30852" lon="-0.44663">
        <ele>159.80000305176</ele>
        <time>2025-08-12T07:09:33.000Z</time>
      </trkpt>
      <trkpt lat="43.30862" lon="-0.44677">
        <ele>159.39999389648</ele>
        <time>2025-08-12T07:09:36.000Z</time>
      </trkpt>
      <trkpt lat="43.3087" lon="-0.44689">
        <ele>158.60000610352</ele>
        <time>2025-08-12T07:09:38.000Z</time>
      </trkpt>
      <trkpt lat="43.30873" lon="-0.44694">
        <ele>158.39999389648</ele>
        <time>2025-08-12T07:09:39.000Z</time>
      </trkpt>
      <trkpt lat="43.30884" lon="-0.44713">
        <ele>157.80000305176</ele>
        <time>2025-08-12T07:09:43.000Z</time>
      </trkpt>
      <trkpt lat="43.30887" lon="-0.44718">
        <ele>157.80000305176</ele>
        <time>2025-08-12T07:09:44.000Z</time>
      </trkpt>
      <trkpt lat="43.309" lon="-0.44733">
        <ele>157.80000305176</ele>
        <time>2025-08-12T07:09:48.000Z</time>
      </trkpt>
      <trkpt lat="43.30912" lon="-0.44743">
        <ele>157.60000610352</ele>
        <time>2025-08-12T07:09:51.000Z</time>
      </trkpt>
      <trkpt lat="43.30936" lon="-0.44758">
        <ele>157.39999389648</ele>
        <time>2025-08-12T07:09:56.000Z</time>
      </trkpt>
      <trkpt lat="43.30943" lon="-0.44765">
        <ele>157.39999389648</ele>
        <time>2025-08-12T07:09:58.000Z</time>
      </trkpt>
      <trkpt lat="43.30946" lon="-0.4477">
        <ele>157.39999389648</ele>
        <time>2025-08-12T07:09:59.000Z</time>
      </trkpt>
      <trkpt lat="43.30953" lon="-0.44781">
        <ele>157.39999389648</ele>
        <time>2025-08-12T07:10:01.000Z</time>
      </trkpt>
      <trkpt lat="43.30955" lon="-0.44786">
        <ele>157.19999694824</ele>
        <time>2025-08-12T07:10:02.000Z</time>
      </trkpt>
      <trkpt lat="43.30958" lon="-0.44792">
        <ele>157.19999694824</ele>
        <time>2025-08-12T07:10:03.000Z</time>
      </trkpt>
      <trkpt lat="43.30984" lon="-0.4484">
        <ele>157</ele>
        <time>2025-08-12T07:10:12.000Z</time>
      </trkpt>
      <trkpt lat="43.31011" lon="-0.44868">
        <ele>156.80000305176</ele>
        <time>2025-08-12T07:10:19.000Z</time>
      </trkpt>
      <trkpt lat="43.31037" lon="-0.4489">
        <ele>156.80000305176</ele>
        <time>2025-08-12T07:10:26.000Z</time>
      </trkpt>
      <trkpt lat="43.31045" lon="-0.44898">
        <ele>156.80000305176</ele>
        <time>2025-08-12T07:10:28.000Z</time>
      </trkpt>
      <trkpt lat="43.31052" lon="-0.44904">
        <ele>156.80000305176</ele>
        <time>2025-08-12T07:10:30.000Z</time>
      </trkpt>
      <trkpt lat="43.3108" lon="-0.44922">
        <ele>156.80000305176</ele>
        <time>2025-08-12T07:10:36.000Z</time>
      </trkpt>
      <trkpt lat="43.31112" lon="-0.44943">
        <ele>156.39999389648</ele>
        <time>2025-08-12T07:10:43.000Z</time>
      </trkpt>
      <trkpt lat="43.31143" lon="-0.44969">
        <ele>156.39999389648</ele>
        <time>2025-08-12T07:10:51.000Z</time>
      </trkpt>
      <trkpt lat="43.31178" lon="-0.44998">
        <ele>156.60000610352</ele>
        <time>2025-08-12T07:11:00.000Z</time>
      </trkpt>
      <trkpt lat="43.31206" lon="-0.45022">
        <ele>156.60000610352</ele>
        <time>2025-08-12T07:11:08.000Z</time>
      </trkpt>
      <trkpt lat="43.31233" lon="-0.45043">
        <ele>156.39999389648</ele>
        <time>2025-08-12T07:11:15.000Z</time>
      </trkpt>
      <trkpt lat="43.31255" lon="-0.45056">
        <ele>156</ele>
        <time>2025-08-12T07:11:20.000Z</time>
      </trkpt>
      <trkpt lat="43.31281" lon="-0.45072">
        <ele>155.80000305176</ele>
        <time>2025-08-12T07:11:26.000Z</time>
      </trkpt>
      <trkpt lat="43.31286" lon="-0.45075">
        <ele>155.80000305176</ele>
        <time>2025-08-12T07:11:27.000Z</time>
      </trkpt>
      <trkpt lat="43.31309" lon="-0.45089">
        <ele>155.80000305176</ele>
        <time>2025-08-12T07:11:32.000Z</time>
      </trkpt>
      <trkpt lat="43.31323" lon="-0.45101">
        <ele>155.80000305176</ele>
        <time>2025-08-12T07:11:36.000Z</time>
      </trkpt>
      <trkpt lat="43.3135" lon="-0.4511">
        <ele>156</ele>
        <time>2025-08-12T07:11:42.000Z</time>
      </trkpt>
      <trkpt lat="43.31377" lon="-0.45119">
        <ele>156.19999694824</ele>
        <time>2025-08-12T07:11:47.000Z</time>
      </trkpt>
      <trkpt lat="43.31388" lon="-0.45122">
        <ele>156</ele>
        <time>2025-08-12T07:11:49.000Z</time>
      </trkpt>
      <trkpt lat="43.31412" lon="-0.45129">
        <ele>156.19999694824</ele>
        <time>2025-08-12T07:11:54.000Z</time>
      </trkpt>
      <trkpt lat="43.31422" lon="-0.45131">
        <ele>156.39999389648</ele>
        <time>2025-08-12T07:11:56.000Z</time>
      </trkpt>
      <trkpt lat="43.31435" lon="-0.45137">
        <ele>156.19999694824</ele>
        <time>2025-08-12T07:11:59.000Z</time>
      </trkpt>
      <trkpt lat="43.31439" lon="-0.4514">
        <ele>156.19999694824</ele>
        <time>2025-08-12T07:12:00.000Z</time>
      </trkpt>
      <trkpt lat="43.31455" lon="-0.45153">
        <ele>156.60000610352</ele>
        <time>2025-08-12T07:12:05.000Z</time>
      </trkpt>
      <trkpt lat="43.31467" lon="-0.4516">
        <ele>157.19999694824</ele>
        <time>2025-08-12T07:12:08.000Z</time>
      </trkpt>
      <trkpt lat="43.31476" lon="-0.45162">
        <ele>157.80000305176</ele>
        <time>2025-08-12T07:12:10.000Z</time>
      </trkpt>
      <trkpt lat="43.31493" lon="-0.45162">
        <ele>157.80000305176</ele>
        <time>2025-08-12T07:12:14.000Z</time>
      </trkpt>
      <trkpt lat="43.31498" lon="-0.45165">
        <ele>157.80000305176</ele>
        <time>2025-08-12T07:12:15.000Z</time>
      </trkpt>
      <trkpt lat="43.31529" lon="-0.45179">
        <ele>157.60000610352</ele>
        <time>2025-08-12T07:12:21.000Z</time>
      </trkpt>
      <trkpt lat="43.31537" lon="-0.45183">
        <ele>157.60000610352</ele>
        <time>2025-08-12T07:12:23.000Z</time>
      </trkpt>
      <trkpt lat="43.31546" lon="-0.4519">
        <ele>157.60000610352</ele>
        <time>2025-08-12T07:12:25.000Z</time>
      </trkpt>
      <trkpt lat="43.31553" lon="-0.45195">
        <ele>157.60000610352</ele>
        <time>2025-08-12T07:12:27.000Z</time>
      </trkpt>
      <trkpt lat="43.31571" lon="-0.45195">
        <ele>157.39999389648</ele>
        <time>2025-08-12T07:12:31.000Z</time>
      </trkpt>
      <trkpt lat="43.31607" lon="-0.45193">
        <ele>157.39999389648</ele>
        <time>2025-08-12T07:12:38.000Z</time>
      </trkpt>
      <trkpt lat="43.31611" lon="-0.45193">
        <ele>157.39999389648</ele>
        <time>2025-08-12T07:12:39.000Z</time>
      </trkpt>
      <trkpt lat="43.31638" lon="-0.45187">
        <ele>157.39999389648</ele>
        <time>2025-08-12T07:12:44.000Z</time>
      </trkpt>
      <trkpt lat="43.31648" lon="-0.45184">
        <ele>157.39999389648</ele>
        <time>2025-08-12T07:12:46.000Z</time>
      </trkpt>
      <trkpt lat="43.31669" lon="-0.4518">
        <ele>157.19999694824</ele>
        <time>2025-08-12T07:12:50.000Z</time>
      </trkpt>
      <trkpt lat="43.31709" lon="-0.45186">
        <ele>156.80000305176</ele>
        <time>2025-08-12T07:12:58.000Z</time>
      </trkpt>
      <trkpt lat="43.3175" lon="-0.45203">
        <ele>156.39999389648</ele>
        <time>2025-08-12T07:13:06.000Z</time>
      </trkpt>
      <trkpt lat="43.31793" lon="-0.45227">
        <ele>156.19999694824</ele>
        <time>2025-08-12T07:13:15.000Z</time>
      </trkpt>
      <trkpt lat="43.31801" lon="-0.45235">
        <ele>156.19999694824</ele>
        <time>2025-08-12T07:13:17.000Z</time>
      </trkpt>
      <trkpt lat="43.31806" lon="-0.45245">
        <ele>156.19999694824</ele>
        <time>2025-08-12T07:13:19.000Z</time>
      </trkpt>
      <trkpt lat="43.31808" lon="-0.45254">
        <ele>156.19999694824</ele>
        <time>2025-08-12T07:13:21.000Z</time>
      </trkpt>
      <trkpt lat="43.31808" lon="-0.45264">
        <ele>156.19999694824</ele>
        <time>2025-08-12T07:13:23.000Z</time>
      </trkpt>
      <trkpt lat="43.31814" lon="-0.45298">
        <ele>156</ele>
        <time>2025-08-12T07:13:28.000Z</time>
      </trkpt>
      <trkpt lat="43.31819" lon="-0.45311">
        <ele>156</ele>
        <time>2025-08-12T07:13:30.000Z</time>
      </trkpt>
      <trkpt lat="43.31827" lon="-0.45324">
        <ele>156</ele>
        <time>2025-08-12T07:13:32.000Z</time>
      </trkpt>
      <trkpt lat="43.31837" lon="-0.45334">
        <ele>155.80000305176</ele>
        <time>2025-08-12T07:13:34.000Z</time>
      </trkpt>
      <trkpt lat="43.31847" lon="-0.4534">
        <ele>155.60000610352</ele>
        <time>2025-08-12T07:13:36.000Z</time>
      </trkpt>
      <trkpt lat="43.31862" lon="-0.45348">
        <ele>155.39999389648</ele>
        <time>2025-08-12T07:13:40.000Z</time>
      </trkpt>
      <trkpt lat="43.31868" lon="-0.45354">
        <ele>155.39999389648</ele>
        <time>2025-08-12T07:13:41.000Z</time>
      </trkpt>
      <trkpt lat="43.31875" lon="-0.45367">
        <ele>155.39999389648</ele>
        <time>2025-08-12T07:13:43.000Z</time>
      </trkpt>
      <trkpt lat="43.31877" lon="-0.45372">
        <ele>155.39999389648</ele>
        <time>2025-08-12T07:13:44.000Z</time>
      </trkpt>
      <trkpt lat="43.31893" lon="-0.45398">
        <ele>155.39999389648</ele>
        <time>2025-08-12T07:13:49.000Z</time>
      </trkpt>
      <trkpt lat="43.31898" lon="-0.45409">
        <ele>155.39999389648</ele>
        <time>2025-08-12T07:13:51.000Z</time>
      </trkpt>
      <trkpt lat="43.31904" lon="-0.45417">
        <ele>155.39999389648</ele>
        <time>2025-08-12T07:13:53.000Z</time>
      </trkpt>
      <trkpt lat="43.31911" lon="-0.45423">
        <ele>155.60000610352</ele>
        <time>2025-08-12T07:13:55.000Z</time>
      </trkpt>
      <trkpt lat="43.3195" lon="-0.45451">
        <ele>155.80000305176</ele>
        <time>2025-08-12T07:14:04.000Z</time>
      </trkpt>
      <trkpt lat="43.31987" lon="-0.45471">
        <ele>155.60000610352</ele>
        <time>2025-08-12T07:14:12.000Z</time>
      </trkpt>
      <trkpt lat="43.32017" lon="-0.45489">
        <ele>155.60000610352</ele>
        <time>2025-08-12T07:14:19.000Z</time>
      </trkpt>
      <trkpt lat="43.32039" lon="-0.45499">
        <ele>155.80000305176</ele>
        <time>2025-08-12T07:14:24.000Z</time>
      </trkpt>
      <trkpt lat="43.32048" lon="-0.45503">
        <ele>156</ele>
        <time>2025-08-12T07:14:26.000Z</time>
      </trkpt>
      <trkpt lat="43.32068" lon="-0.45516">
        <ele>155.80000305176</ele>
        <time>2025-08-12T07:14:31.000Z</time>
      </trkpt>
      <trkpt lat="43.32099" lon="-0.45533">
        <ele>155.80000305176</ele>
        <time>2025-08-12T07:14:38.000Z</time>
      </trkpt>
      <trkpt lat="43.32119" lon="-0.4554">
        <ele>155.80000305176</ele>
        <time>2025-08-12T07:14:42.000Z</time>
      </trkpt>
      <trkpt lat="43.32139" lon="-0.45547">
        <ele>155.80000305176</ele>
        <time>2025-08-12T07:14:46.000Z</time>
      </trkpt>
      <trkpt lat="43.3219" lon="-0.45573">
        <ele>155.39999389648</ele>
        <time>2025-08-12T07:14:57.000Z</time>
      </trkpt>
      <trkpt lat="43.32228" lon="-0.45601">
        <ele>155.80000305176</ele>
        <time>2025-08-12T07:15:06.000Z</time>
      </trkpt>
      <trkpt lat="43.32263" lon="-0.45626">
        <ele>155.80000305176</ele>
        <time>2025-08-12T07:15:14.000Z</time>
      </trkpt>
      <trkpt lat="43.32304" lon="-0.45657">
        <ele>155.80000305176</ele>
        <time>2025-08-12T07:15:23.000Z</time>
      </trkpt>
      <trkpt lat="43.32341" lon="-0.45685">
        <ele>155.60000610352</ele>
        <time>2025-08-12T07:15:31.000Z</time>
      </trkpt>
      <trkpt lat="43.3236" lon="-0.45697">
        <ele>155.19999694824</ele>
        <time>2025-08-12T07:15:35.000Z</time>
      </trkpt>
      <trkpt lat="43.32402" lon="-0.45722">
        <ele>155</ele>
        <time>2025-08-12T07:15:44.000Z</time>
      </trkpt>
      <trkpt lat="43.32416" lon="-0.4573">
        <ele>154.80000305176</ele>
        <time>2025-08-12T07:15:47.000Z</time>
      </trkpt>
      <trkpt lat="43.32428" lon="-0.4574">
        <ele>154.60000610352</ele>
        <time>2025-08-12T07:15:50.000Z</time>
      </trkpt>
      <trkpt lat="43.32441" lon="-0.45752">
        <ele>154.39999389648</ele>
        <time>2025-08-12T07:15:53.000Z</time>
      </trkpt>
      <trkpt lat="43.32445" lon="-0.45756">
        <ele>154.39999389648</ele>
        <time>2025-08-12T07:15:54.000Z</time>
      </trkpt>
      <trkpt lat="43.32456" lon="-0.45771">
        <ele>154.39999389648</ele>
        <time>2025-08-12T07:15:57.000Z</time>
      </trkpt>
      <trkpt lat="43.32482" lon="-0.45807">
        <ele>154.19999694824</ele>
        <time>2025-08-12T07:16:04.000Z</time>
      </trkpt>
      <trkpt lat="43.32486" lon="-0.45811">
        <ele>154.19999694824</ele>
        <time>2025-08-12T07:16:05.000Z</time>
      </trkpt>
      <trkpt lat="43.32495" lon="-0.45818">
        <ele>154.19999694824</ele>
        <time>2025-08-12T07:16:07.000Z</time>
      </trkpt>
      <trkpt lat="43.32499" lon="-0.45824">
        <ele>154.19999694824</ele>
        <time>2025-08-12T07:16:08.000Z</time>
      </trkpt>
      <trkpt lat="43.32503" lon="-0.45828">
        <ele>154.19999694824</ele>
        <time>2025-08-12T07:16:09.000Z</time>
      </trkpt>
      <trkpt lat="43.32527" lon="-0.4585">
        <ele>154</ele>
        <time>2025-08-12T07:16:14.000Z</time>
      </trkpt>
      <trkpt lat="43.32531" lon="-0.45855">
        <ele>154</ele>
        <time>2025-08-12T07:16:15.000Z</time>
      </trkpt>
      <trkpt lat="43.32539" lon="-0.45863">
        <ele>154</ele>
        <time>2025-08-12T07:16:17.000Z</time>
      </trkpt>
      <trkpt lat="43.32543" lon="-0.45868">
        <ele>153.80000305176</ele>
        <time>2025-08-12T07:16:18.000Z</time>
      </trkpt>
      <trkpt lat="43.32568" lon="-0.45893">
        <ele>154</ele>
        <time>2025-08-12T07:16:24.000Z</time>
      </trkpt>
      <trkpt lat="43.32592" lon="-0.45919">
        <ele>153.80000305176</ele>
        <time>2025-08-12T07:16:30.000Z</time>
      </trkpt>
      <trkpt lat="43.326" lon="-0.45926">
        <ele>153.80000305176</ele>
        <time>2025-08-12T07:16:32.000Z</time>
      </trkpt>
      <trkpt lat="43.32632" lon="-0.45955">
        <ele>153.80000305176</ele>
        <time>2025-08-12T07:16:40.000Z</time>
      </trkpt>
      <trkpt lat="43.32654" lon="-0.45975">
        <ele>154</ele>
        <time>2025-08-12T07:16:46.000Z</time>
      </trkpt>
      <trkpt lat="43.32673" lon="-0.45997">
        <ele>153.80000305176</ele>
        <time>2025-08-12T07:16:51.000Z</time>
      </trkpt>
      <trkpt lat="43.3268" lon="-0.46007">
        <ele>153.60000610352</ele>
        <time>2025-08-12T07:16:53.000Z</time>
      </trkpt>
      <trkpt lat="43.32707" lon="-0.46044">
        <ele>153.39999389648</ele>
        <time>2025-08-12T07:17:00.000Z</time>
      </trkpt>
      <trkpt lat="43.32727" lon="-0.46075">
        <ele>153.39999389648</ele>
        <time>2025-08-12T07:17:06.000Z</time>
      </trkpt>
      <trkpt lat="43.32754" lon="-0.46114">
        <ele>153</ele>
        <time>2025-08-12T07:17:14.000Z</time>
      </trkpt>
      <trkpt lat="43.32757" lon="-0.4612">
        <ele>152.80000305176</ele>
        <time>2025-08-12T07:17:15.000Z</time>
      </trkpt>
      <trkpt lat="43.32773" lon="-0.46153">
        <ele>153</ele>
        <time>2025-08-12T07:17:22.000Z</time>
      </trkpt>
      <trkpt lat="43.32783" lon="-0.46173">
        <ele>153.39999389648</ele>
        <time>2025-08-12T07:17:27.000Z</time>
      </trkpt>
      <trkpt lat="43.32795" lon="-0.46199">
        <ele>153.60000610352</ele>
        <time>2025-08-12T07:17:32.000Z</time>
      </trkpt>
      <trkpt lat="43.32813" lon="-0.4622">
        <ele>153.39999389648</ele>
        <time>2025-08-12T07:17:37.000Z</time>
      </trkpt>
      <trkpt lat="43.32844" lon="-0.46262">
        <ele>153.39999389648</ele>
        <time>2025-08-12T07:17:46.000Z</time>
      </trkpt>
      <trkpt lat="43.32849" lon="-0.46289">
        <ele>153.39999389648</ele>
        <time>2025-08-12T07:17:50.000Z</time>
      </trkpt>
      <trkpt lat="43.32853" lon="-0.46315">
        <ele>153.19999694824</ele>
        <time>2025-08-12T07:17:54.000Z</time>
      </trkpt>
      <trkpt lat="43.32858" lon="-0.46328">
        <ele>153.19999694824</ele>
        <time>2025-08-12T07:17:56.000Z</time>
      </trkpt>
      <trkpt lat="43.32879" lon="-0.46351">
        <ele>152.60000610352</ele>
        <time>2025-08-12T07:18:01.000Z</time>
      </trkpt>
      <trkpt lat="43.32883" lon="-0.46355">
        <ele>152.60000610352</ele>
        <time>2025-08-12T07:18:02.000Z</time>
      </trkpt>
      <trkpt lat="43.32903" lon="-0.46375">
        <ele>152.39999389648</ele>
        <time>2025-08-12T07:18:07.000Z</time>
      </trkpt>
      <trkpt lat="43.32933" lon="-0.46407">
        <ele>152.19999694824</ele>
        <time>2025-08-12T07:18:15.000Z</time>
      </trkpt>
      <trkpt lat="43.32936" lon="-0.46412">
        <ele>152.19999694824</ele>
        <time>2025-08-12T07:18:16.000Z</time>
      </trkpt>
      <trkpt lat="43.32948" lon="-0.46423">
        <ele>152.19999694824</ele>
        <time>2025-08-12T07:18:19.000Z</time>
      </trkpt>
      <trkpt lat="43.3295" lon="-0.46428">
        <ele>152.19999694824</ele>
        <time>2025-08-12T07:18:20.000Z</time>
      </trkpt>
      <trkpt lat="43.32973" lon="-0.4647">
        <ele>152.19999694824</ele>
        <time>2025-08-12T07:18:28.000Z</time>
      </trkpt>
      <trkpt lat="43.32981" lon="-0.46478">
        <ele>152.39999389648</ele>
        <time>2025-08-12T07:18:30.000Z</time>
      </trkpt>
      <trkpt lat="43.3299" lon="-0.46483">
        <ele>152.19999694824</ele>
        <time>2025-08-12T07:18:32.000Z</time>
      </trkpt>
      <trkpt lat="43.33022" lon="-0.46495">
        <ele>152.19999694824</ele>
        <time>2025-08-12T07:18:39.000Z</time>
      </trkpt>
      <trkpt lat="43.33039" lon="-0.46503">
        <ele>152.19999694824</ele>
        <time>2025-08-12T07:18:43.000Z</time>
      </trkpt>
      <trkpt lat="43.33048" lon="-0.46507">
        <ele>152.19999694824</ele>
        <time>2025-08-12T07:18:45.000Z</time>
      </trkpt>
      <trkpt lat="43.33077" lon="-0.46513">
        <ele>152.19999694824</ele>
        <time>2025-08-12T07:18:51.000Z</time>
      </trkpt>
      <trkpt lat="43.33081" lon="-0.46516">
        <ele>152.19999694824</ele>
        <time>2025-08-12T07:18:52.000Z</time>
      </trkpt>
      <trkpt lat="43.33085" lon="-0.4652">
        <ele>152.19999694824</ele>
        <time>2025-08-12T07:18:53.000Z</time>
      </trkpt>
      <trkpt lat="43.33091" lon="-0.46529">
        <ele>152.19999694824</ele>
        <time>2025-08-12T07:18:55.000Z</time>
      </trkpt>
      <trkpt lat="43.33094" lon="-0.46535">
        <ele>152</ele>
        <time>2025-08-12T07:18:56.000Z</time>
      </trkpt>
      <trkpt lat="43.33097" lon="-0.46541">
        <ele>152</ele>
        <time>2025-08-12T07:18:57.000Z</time>
      </trkpt>
      <trkpt lat="43.33111" lon="-0.46564">
        <ele>151.60000610352</ele>
        <time>2025-08-12T07:19:01.000Z</time>
      </trkpt>
      <trkpt lat="43.33113" lon="-0.46572">
        <ele>151.39999389648</ele>
        <time>2025-08-12T07:19:02.000Z</time>
      </trkpt>
      <trkpt lat="43.33116" lon="-0.46594">
        <ele>151.19999694824</ele>
        <time>2025-08-12T07:19:05.000Z</time>
      </trkpt>
      <trkpt lat="43.33115" lon="-0.46599">
        <ele>151.19999694824</ele>
        <time>2025-08-12T07:19:06.000Z</time>
      </trkpt>
      <trkpt lat="43.33113" lon="-0.46609">
        <ele>151.19999694824</ele>
        <time>2025-08-12T07:19:08.000Z</time>
      </trkpt>
      <trkpt lat="43.33101" lon="-0.46623">
        <ele>151.19999694824</ele>
        <time>2025-08-12T07:19:12.000Z</time>
      </trkpt>
      <trkpt lat="43.33076" lon="-0.46647">
        <ele>151.39999389648</ele>
        <time>2025-08-12T07:19:19.000Z</time>
      </trkpt>
      <trkpt lat="43.33071" lon="-0.46659">
        <ele>151.39999389648</ele>
        <time>2025-08-12T07:19:21.000Z</time>
      </trkpt>
      <trkpt lat="43.33066" lon="-0.46671">
        <ele>151.39999389648</ele>
        <time>2025-08-12T07:19:23.000Z</time>
      </trkpt>
      <trkpt lat="43.33059" lon="-0.4669">
        <ele>151.39999389648</ele>
        <time>2025-08-12T07:19:26.000Z</time>
      </trkpt>
      <trkpt lat="43.33054" lon="-0.46702">
        <ele>151.39999389648</ele>
        <time>2025-08-12T07:19:28.000Z</time>
      </trkpt>
      <trkpt lat="43.33046" lon="-0.46712">
        <ele>151.19999694824</ele>
        <time>2025-08-12T07:19:30.000Z</time>
      </trkpt>
      <trkpt lat="43.33037" lon="-0.46719">
        <ele>151</ele>
        <time>2025-08-12T07:19:32.000Z</time>
      </trkpt>
      <trkpt lat="43.33025" lon="-0.46728">
        <ele>150.80000305176</ele>
        <time>2025-08-12T07:19:35.000Z</time>
      </trkpt>
      <trkpt lat="43.33017" lon="-0.46733">
        <ele>150.80000305176</ele>
        <time>2025-08-12T07:19:37.000Z</time>
      </trkpt>
      <trkpt lat="43.33014" lon="-0.46736">
        <ele>150.80000305176</ele>
        <time>2025-08-12T07:19:38.000Z</time>
      </trkpt>
      <trkpt lat="43.32991" lon="-0.4676">
        <ele>151.39999389648</ele>
        <time>2025-08-12T07:19:45.000Z</time>
      </trkpt>
      <trkpt lat="43.32983" lon="-0.46767">
        <ele>151.39999389648</ele>
        <time>2025-08-12T07:19:47.000Z</time>
      </trkpt>
      <trkpt lat="43.32977" lon="-0.46774">
        <ele>151.60000610352</ele>
        <time>2025-08-12T07:19:49.000Z</time>
      </trkpt>
      <trkpt lat="43.3297" lon="-0.46784">
        <ele>151.39999389648</ele>
        <time>2025-08-12T07:19:51.000Z</time>
      </trkpt>
      <trkpt lat="43.32953" lon="-0.46813">
        <ele>151.39999389648</ele>
        <time>2025-08-12T07:19:57.000Z</time>
      </trkpt>
      <trkpt lat="43.32939" lon="-0.4683">
        <ele>151.39999389648</ele>
        <time>2025-08-12T07:20:01.000Z</time>
      </trkpt>
      <trkpt lat="43.32924" lon="-0.46844">
        <ele>151.39999389648</ele>
        <time>2025-08-12T07:20:05.000Z</time>
      </trkpt>
      <trkpt lat="43.32897" lon="-0.46864">
        <ele>151.19999694824</ele>
        <time>2025-08-12T07:20:12.000Z</time>
      </trkpt>
      <trkpt lat="43.32875" lon="-0.46896">
        <ele>151.19999694824</ele>
        <time>2025-08-12T07:20:19.000Z</time>
      </trkpt>
      <trkpt lat="43.32855" lon="-0.46932">
        <ele>151.39999389648</ele>
        <time>2025-08-12T07:20:26.000Z</time>
      </trkpt>
      <trkpt lat="43.32852" lon="-0.46937">
        <ele>151.39999389648</ele>
        <time>2025-08-12T07:20:27.000Z</time>
      </trkpt>
      <trkpt lat="43.32847" lon="-0.46945">
        <ele>151.39999389648</ele>
        <time>2025-08-12T07:20:29.000Z</time>
      </trkpt>
      <trkpt lat="43.32841" lon="-0.4696">
        <ele>151.39999389648</ele>
        <time>2025-08-12T07:20:32.000Z</time>
      </trkpt>
      <trkpt lat="43.32838" lon="-0.46966">
        <ele>151.39999389648</ele>
        <time>2025-08-12T07:20:33.000Z</time>
      </trkpt>
      <trkpt lat="43.32832" lon="-0.46982">
        <ele>151.39999389648</ele>
        <time>2025-08-12T07:20:36.000Z</time>
      </trkpt>
      <trkpt lat="43.32826" lon="-0.46999">
        <ele>151.19999694824</ele>
        <time>2025-08-12T07:20:39.000Z</time>
      </trkpt>
      <trkpt lat="43.32824" lon="-0.47005">
        <ele>151.19999694824</ele>
        <time>2025-08-12T07:20:40.000Z</time>
      </trkpt>
      <trkpt lat="43.32811" lon="-0.47043">
        <ele>151</ele>
        <time>2025-08-12T07:20:47.000Z</time>
      </trkpt>
      <trkpt lat="43.3281" lon="-0.47049">
        <ele>151</ele>
        <time>2025-08-12T07:20:48.000Z</time>
      </trkpt>
      <trkpt lat="43.32808" lon="-0.47066">
        <ele>151</ele>
        <time>2025-08-12T07:20:51.000Z</time>
      </trkpt>
      <trkpt lat="43.32808" lon="-0.47072">
        <ele>151</ele>
        <time>2025-08-12T07:20:52.000Z</time>
      </trkpt>
      <trkpt lat="43.32811" lon="-0.47111">
        <ele>151</ele>
        <time>2025-08-12T07:20:59.000Z</time>
      </trkpt>
      <trkpt lat="43.32812" lon="-0.47116">
        <ele>151</ele>
        <time>2025-08-12T07:21:00.000Z</time>
      </trkpt>
      <trkpt lat="43.32816" lon="-0.47157">
        <ele>151</ele>
        <time>2025-08-12T07:21:06.000Z</time>
      </trkpt>
      <trkpt lat="43.32813" lon="-0.47192">
        <ele>150.60000610352</ele>
        <time>2025-08-12T07:21:11.000Z</time>
      </trkpt>
      <trkpt lat="43.32812" lon="-0.47198">
        <ele>150.60000610352</ele>
        <time>2025-08-12T07:21:12.000Z</time>
      </trkpt>
      <trkpt lat="43.32812" lon="-0.47204">
        <ele>150.39999389648</ele>
        <time>2025-08-12T07:21:13.000Z</time>
      </trkpt>
      <trkpt lat="43.32811" lon="-0.4723">
        <ele>150.39999389648</ele>
        <time>2025-08-12T07:21:17.000Z</time>
      </trkpt>
      <trkpt lat="43.32811" lon="-0.47236">
        <ele>150.39999389648</ele>
        <time>2025-08-12T07:21:18.000Z</time>
      </trkpt>
      <trkpt lat="43.32815" lon="-0.47262">
        <ele>150.39999389648</ele>
        <time>2025-08-12T07:21:22.000Z</time>
      </trkpt>
      <trkpt lat="43.32817" lon="-0.47276">
        <ele>150.19999694824</ele>
        <time>2025-08-12T07:21:24.000Z</time>
      </trkpt>
      <trkpt lat="43.32822" lon="-0.47305">
        <ele>150</ele>
        <time>2025-08-12T07:21:28.000Z</time>
      </trkpt>
      <trkpt lat="43.32822" lon="-0.47312">
        <ele>150</ele>
        <time>2025-08-12T07:21:29.000Z</time>
      </trkpt>
      <trkpt lat="43.3283" lon="-0.47359">
        <ele>149.60000610352</ele>
        <time>2025-08-12T07:21:35.000Z</time>
      </trkpt>
      <trkpt lat="43.32832" lon="-0.47374">
        <ele>149.39999389648</ele>
        <time>2025-08-12T07:21:37.000Z</time>
      </trkpt>
      <trkpt lat="43.32838" lon="-0.47411">
        <ele>149</ele>
        <time>2025-08-12T07:21:42.000Z</time>
      </trkpt>
      <trkpt lat="43.32839" lon="-0.47419">
        <ele>149</ele>
        <time>2025-08-12T07:21:43.000Z</time>
      </trkpt>
      <trkpt lat="43.3284" lon="-0.47426">
        <ele>149</ele>
        <time>2025-08-12T07:21:44.000Z</time>
      </trkpt>
      <trkpt lat="43.32845" lon="-0.47447">
        <ele>149</ele>
        <time>2025-08-12T07:21:47.000Z</time>
      </trkpt>
      <trkpt lat="43.32847" lon="-0.47453">
        <ele>148.80000305176</ele>
        <time>2025-08-12T07:21:48.000Z</time>
      </trkpt>
      <trkpt lat="43.32852" lon="-0.47466">
        <ele>148.80000305176</ele>
        <time>2025-08-12T07:21:50.000Z</time>
      </trkpt>
      <trkpt lat="43.3286" lon="-0.47482">
        <ele>148.80000305176</ele>
        <time>2025-08-12T07:21:53.000Z</time>
      </trkpt>
      <trkpt lat="43.32868" lon="-0.47497">
        <ele>148.80000305176</ele>
        <time>2025-08-12T07:21:56.000Z</time>
      </trkpt>
      <trkpt lat="43.32868" lon="-0.47508">
        <ele>149.19999694824</ele>
        <time>2025-08-12T07:21:58.000Z</time>
      </trkpt>
      <trkpt lat="43.32862" lon="-0.47516">
        <ele>149.19999694824</ele>
        <time>2025-08-12T07:22:00.000Z</time>
      </trkpt>
      <trkpt lat="43.32858" lon="-0.47519">
        <ele>149.19999694824</ele>
        <time>2025-08-12T07:22:01.000Z</time>
      </trkpt>
      <trkpt lat="43.32833" lon="-0.47534">
        <ele>149.60000610352</ele>
        <time>2025-08-12T07:22:08.000Z</time>
      </trkpt>
      <trkpt lat="43.32821" lon="-0.47537">
        <ele>149.19999694824</ele>
        <time>2025-08-12T07:22:14.000Z</time>
      </trkpt>
      <trkpt lat="43.32807" lon="-0.47541">
        <ele>148.80000305176</ele>
        <time>2025-08-12T07:22:20.000Z</time>
      </trkpt>
      <trkpt lat="43.32806" lon="-0.47543">
        <ele>148.80000305176</ele>
        <time>2025-08-12T07:22:21.000Z</time>
      </trkpt>
      <trkpt lat="43.32806" lon="-0.47546">
        <ele>148.80000305176</ele>
        <time>2025-08-12T07:22:23.000Z</time>
      </trkpt>
      <trkpt lat="43.32805" lon="-0.47552">
        <ele>148.19999694824</ele>
        <time>2025-08-12T07:22:28.000Z</time>
      </trkpt>
      <trkpt lat="43.32789" lon="-0.47566">
        <ele>149</ele>
        <time>2025-08-12T07:23:13.000Z</time>
      </trkpt>
      <trkpt lat="43.32783" lon="-0.47561">
        <ele>149.19999694824</ele>
        <time>2025-08-12T07:23:16.000Z</time>
      </trkpt>
      <trkpt lat="43.32772" lon="-0.47546">
        <ele>149.19999694824</ele>
        <time>2025-08-12T07:23:21.000Z</time>
      </trkpt>
      <trkpt lat="43.32768" lon="-0.47514">
        <ele>149.19999694824</ele>
        <time>2025-08-12T07:23:28.000Z</time>
      </trkpt>
      <trkpt lat="43.32758" lon="-0.47477">
        <ele>149.39999389648</ele>
        <time>2025-08-12T07:23:35.000Z</time>
      </trkpt>
      <trkpt lat="43.32749" lon="-0.47452">
        <ele>149.39999389648</ele>
        <time>2025-08-12T07:23:40.000Z</time>
      </trkpt>
      <trkpt lat="43.32746" lon="-0.47449">
        <ele>149.39999389648</ele>
        <time>2025-08-12T07:23:41.000Z</time>
      </trkpt>
      <trkpt lat="43.32743" lon="-0.47447">
        <ele>149.60000610352</ele>
        <time>2025-08-12T07:23:42.000Z</time>
      </trkpt>
      <trkpt lat="43.32737" lon="-0.47449">
        <ele>149.60000610352</ele>
        <time>2025-08-12T07:23:44.000Z</time>
      </trkpt>
      <trkpt lat="43.32719" lon="-0.47462">
        <ele>149.80000305176</ele>
        <time>2025-08-12T07:23:50.000Z</time>
      </trkpt>
      <trkpt lat="43.32707" lon="-0.47464">
        <ele>149.60000610352</ele>
        <time>2025-08-12T07:23:55.000Z</time>
      </trkpt>
      <trkpt lat="43.32701" lon="-0.47469">
        <ele>149.60000610352</ele>
        <time>2025-08-12T07:23:58.000Z</time>
      </trkpt>
      <trkpt lat="43.32699" lon="-0.47475">
        <ele>149.60000610352</ele>
        <time>2025-08-12T07:24:00.000Z</time>
      </trkpt>
      <trkpt lat="43.32687" lon="-0.47489">
        <ele>149.39999389648</ele>
        <time>2025-08-12T07:24:05.000Z</time>
      </trkpt>
      <trkpt lat="43.32678" lon="-0.47503">
        <ele>149.39999389648</ele>
        <time>2025-08-12T07:24:09.000Z</time>
      </trkpt>
      <trkpt lat="43.32672" lon="-0.47537">
        <ele>149.60000610352</ele>
        <time>2025-08-12T07:24:16.000Z</time>
      </trkpt>
      <trkpt lat="43.32671" lon="-0.47542">
        <ele>149.60000610352</ele>
        <time>2025-08-12T07:24:17.000Z</time>
      </trkpt>
      <trkpt lat="43.32667" lon="-0.47547">
        <ele>149.80000305176</ele>
        <time>2025-08-12T07:24:19.000Z</time>
      </trkpt>
      <trkpt lat="43.32653" lon="-0.47561">
        <ele>150</ele>
        <time>2025-08-12T07:24:24.000Z</time>
      </trkpt>
      <trkpt lat="43.3263" lon="-0.47576">
        <ele>149.80000305176</ele>
        <time>2025-08-12T07:24:30.000Z</time>
      </trkpt>
      <trkpt lat="43.32627" lon="-0.47578">
        <ele>149.80000305176</ele>
        <time>2025-08-12T07:24:31.000Z</time>
      </trkpt>
      <trkpt lat="43.32623" lon="-0.47581">
        <ele>149.80000305176</ele>
        <time>2025-08-12T07:24:32.000Z</time>
      </trkpt>
      <trkpt lat="43.326" lon="-0.47594">
        <ele>149.80000305176</ele>
        <time>2025-08-12T07:24:37.000Z</time>
      </trkpt>
      <trkpt lat="43.32569" lon="-0.47614">
        <ele>149.80000305176</ele>
        <time>2025-08-12T07:24:44.000Z</time>
      </trkpt>
      <trkpt lat="43.32555" lon="-0.47622">
        <ele>149.80000305176</ele>
        <time>2025-08-12T07:24:47.000Z</time>
      </trkpt>
      <trkpt lat="43.32537" lon="-0.47628">
        <ele>149.80000305176</ele>
        <time>2025-08-12T07:24:51.000Z</time>
      </trkpt>
      <trkpt lat="43.32526" lon="-0.47636">
        <ele>149.39999389648</ele>
        <time>2025-08-12T07:24:55.000Z</time>
      </trkpt>
      <trkpt lat="43.32524" lon="-0.47639">
        <ele>149.39999389648</ele>
        <time>2025-08-12T07:24:57.000Z</time>
      </trkpt>
      <trkpt lat="43.3252" lon="-0.47639">
        <ele>149.39999389648</ele>
        <time>2025-08-12T07:24:59.000Z</time>
      </trkpt>
      <trkpt lat="43.32518" lon="-0.4764">
        <ele>149.39999389648</ele>
        <time>2025-08-12T07:25:00.000Z</time>
      </trkpt>
      <trkpt lat="43.32512" lon="-0.47648">
        <ele>149.19999694824</ele>
        <time>2025-08-12T07:25:03.000Z</time>
      </trkpt>
      <trkpt lat="43.32504" lon="-0.47659">
        <ele>149.39999389648</ele>
        <time>2025-08-12T07:25:06.000Z</time>
      </trkpt>
      <trkpt lat="43.32497" lon="-0.47666">
        <ele>149.39999389648</ele>
        <time>2025-08-12T07:25:08.000Z</time>
      </trkpt>
      <trkpt lat="43.32487" lon="-0.47677">
        <ele>149.39999389648</ele>
        <time>2025-08-12T07:25:11.000Z</time>
      </trkpt>
      <trkpt lat="43.32472" lon="-0.4769">
        <ele>149.39999389648</ele>
        <time>2025-08-12T07:25:15.000Z</time>
      </trkpt>
      <trkpt lat="43.32461" lon="-0.47701">
        <ele>149.60000610352</ele>
        <time>2025-08-12T07:25:18.000Z</time>
      </trkpt>
      <trkpt lat="43.3245" lon="-0.47707">
        <ele>149.80000305176</ele>
        <time>2025-08-12T07:25:21.000Z</time>
      </trkpt>
      <trkpt lat="43.32442" lon="-0.4771">
        <ele>149.80000305176</ele>
        <time>2025-08-12T07:25:23.000Z</time>
      </trkpt>
      <trkpt lat="43.32433" lon="-0.47709">
        <ele>150</ele>
        <time>2025-08-12T07:25:25.000Z</time>
      </trkpt>
      <trkpt lat="43.32429" lon="-0.47708">
        <ele>150</ele>
        <time>2025-08-12T07:25:26.000Z</time>
      </trkpt>
      <trkpt lat="43.32425" lon="-0.47705">
        <ele>150.19999694824</ele>
        <time>2025-08-12T07:25:27.000Z</time>
      </trkpt>
      <trkpt lat="43.32414" lon="-0.47695">
        <ele>150.19999694824</ele>
        <time>2025-08-12T07:25:30.000Z</time>
      </trkpt>
      <trkpt lat="43.3241" lon="-0.47692">
        <ele>150.19999694824</ele>
        <time>2025-08-12T07:25:31.000Z</time>
      </trkpt>
      <trkpt lat="43.32405" lon="-0.4769">
        <ele>150.19999694824</ele>
        <time>2025-08-12T07:25:32.000Z</time>
      </trkpt>
      <trkpt lat="43.32396" lon="-0.47687">
        <ele>150</ele>
        <time>2025-08-12T07:25:34.000Z</time>
      </trkpt>
      <trkpt lat="43.32387" lon="-0.47688">
        <ele>150</ele>
        <time>2025-08-12T07:25:36.000Z</time>
      </trkpt>
      <trkpt lat="43.3235" lon="-0.47703">
        <ele>150.19999694824</ele>
        <time>2025-08-12T07:25:45.000Z</time>
      </trkpt>
      <trkpt lat="43.32331" lon="-0.47712">
        <ele>150.39999389648</ele>
        <time>2025-08-12T07:25:49.000Z</time>
      </trkpt>
      <trkpt lat="43.32323" lon="-0.47719">
        <ele>150.39999389648</ele>
        <time>2025-08-12T07:25:51.000Z</time>
      </trkpt>
      <trkpt lat="43.3232" lon="-0.47724">
        <ele>150.39999389648</ele>
        <time>2025-08-12T07:25:52.000Z</time>
      </trkpt>
      <trkpt lat="43.32301" lon="-0.47751">
        <ele>150.60000610352</ele>
        <time>2025-08-12T07:25:59.000Z</time>
      </trkpt>
      <trkpt lat="43.32296" lon="-0.47759">
        <ele>150.80000305176</ele>
        <time>2025-08-12T07:26:02.000Z</time>
      </trkpt>
      <trkpt lat="43.32291" lon="-0.47766">
        <ele>151.39999389648</ele>
        <time>2025-08-12T07:26:05.000Z</time>
      </trkpt>
      <trkpt lat="43.32285" lon="-0.47773">
        <ele>151.80000305176</ele>
        <time>2025-08-12T07:26:08.000Z</time>
      </trkpt>
      <trkpt lat="43.3228" lon="-0.47781">
        <ele>152.19999694824</ele>
        <time>2025-08-12T07:26:11.000Z</time>
      </trkpt>
      <trkpt lat="43.3228" lon="-0.47783">
        <ele>152.39999389648</ele>
        <time>2025-08-12T07:26:12.000Z</time>
      </trkpt>
      <trkpt lat="43.32281" lon="-0.47789">
        <ele>152.80000305176</ele>
        <time>2025-08-12T07:26:14.000Z</time>
      </trkpt>
      <trkpt lat="43.32283" lon="-0.47792">
        <ele>153</ele>
        <time>2025-08-12T07:26:15.000Z</time>
      </trkpt>
      <trkpt lat="43.32294" lon="-0.47815">
        <ele>153.80000305176</ele>
        <time>2025-08-12T07:26:21.000Z</time>
      </trkpt>
      <trkpt lat="43.32297" lon="-0.47825">
        <ele>154</ele>
        <time>2025-08-12T07:26:23.000Z</time>
      </trkpt>
      <trkpt lat="43.323" lon="-0.47846">
        <ele>154.39999389648</ele>
        <time>2025-08-12T07:26:27.000Z</time>
      </trkpt>
      <trkpt lat="43.32305" lon="-0.47876">
        <ele>154.60000610352</ele>
        <time>2025-08-12T07:26:32.000Z</time>
      </trkpt>
      <trkpt lat="43.32315" lon="-0.47927">
        <ele>154.60000610352</ele>
        <time>2025-08-12T07:26:40.000Z</time>
      </trkpt>
      <trkpt lat="43.32317" lon="-0.47933">
        <ele>154.60000610352</ele>
        <time>2025-08-12T07:26:41.000Z</time>
      </trkpt>
      <trkpt lat="43.32322" lon="-0.47944">
        <ele>154.60000610352</ele>
        <time>2025-08-12T07:26:43.000Z</time>
      </trkpt>
      <trkpt lat="43.32329" lon="-0.47954">
        <ele>154.60000610352</ele>
        <time>2025-08-12T07:26:45.000Z</time>
      </trkpt>
      <trkpt lat="43.32336" lon="-0.47962">
        <ele>154.60000610352</ele>
        <time>2025-08-12T07:26:47.000Z</time>
      </trkpt>
      <trkpt lat="43.32356" lon="-0.47981">
        <ele>154.80000305176</ele>
        <time>2025-08-12T07:26:52.000Z</time>
      </trkpt>
      <trkpt lat="43.32385" lon="-0.48007">
        <ele>154.60000610352</ele>
        <time>2025-08-12T07:26:59.000Z</time>
      </trkpt>
      <trkpt lat="43.32393" lon="-0.48015">
        <ele>154.60000610352</ele>
        <time>2025-08-12T07:27:01.000Z</time>
      </trkpt>
      <trkpt lat="43.32406" lon="-0.48035">
        <ele>154.39999389648</ele>
        <time>2025-08-12T07:27:05.000Z</time>
      </trkpt>
      <trkpt lat="43.32424" lon="-0.48089">
        <ele>154.39999389648</ele>
        <time>2025-08-12T07:27:13.000Z</time>
      </trkpt>
      <trkpt lat="43.32442" lon="-0.48148">
        <ele>154</ele>
        <time>2025-08-12T07:27:21.000Z</time>
      </trkpt>
      <trkpt lat="43.32445" lon="-0.48191">
        <ele>154</ele>
        <time>2025-08-12T07:27:27.000Z</time>
      </trkpt>
      <trkpt lat="43.32444" lon="-0.48198">
        <ele>154</ele>
        <time>2025-08-12T07:27:28.000Z</time>
      </trkpt>
      <trkpt lat="43.32438" lon="-0.4823">
        <ele>154.19999694824</ele>
        <time>2025-08-12T07:27:33.000Z</time>
      </trkpt>
      <trkpt lat="43.32425" lon="-0.48274">
        <ele>154.39999389648</ele>
        <time>2025-08-12T07:27:40.000Z</time>
      </trkpt>
      <trkpt lat="43.32407" lon="-0.48318">
        <ele>154.19999694824</ele>
        <time>2025-08-12T07:27:47.000Z</time>
      </trkpt>
      <trkpt lat="43.32383" lon="-0.48356">
        <ele>153.60000610352</ele>
        <time>2025-08-12T07:27:53.000Z</time>
      </trkpt>
      <trkpt lat="43.32371" lon="-0.48373">
        <ele>153.39999389648</ele>
        <time>2025-08-12T07:27:56.000Z</time>
      </trkpt>
      <trkpt lat="43.32364" lon="-0.48383">
        <ele>153.39999389648</ele>
        <time>2025-08-12T07:27:58.000Z</time>
      </trkpt>
      <trkpt lat="43.32361" lon="-0.48388">
        <ele>153.39999389648</ele>
        <time>2025-08-12T07:27:59.000Z</time>
      </trkpt>
      <trkpt lat="43.32341" lon="-0.48417">
        <ele>153.80000305176</ele>
        <time>2025-08-12T07:28:05.000Z</time>
      </trkpt>
      <trkpt lat="43.3232" lon="-0.48456">
        <ele>154</ele>
        <time>2025-08-12T07:28:12.000Z</time>
      </trkpt>
      <trkpt lat="43.32292" lon="-0.485">
        <ele>154</ele>
        <time>2025-08-12T07:28:20.000Z</time>
      </trkpt>
      <trkpt lat="43.32267" lon="-0.48536">
        <ele>154.19999694824</ele>
        <time>2025-08-12T07:28:27.000Z</time>
      </trkpt>
      <trkpt lat="43.32261" lon="-0.48548">
        <ele>154.19999694824</ele>
        <time>2025-08-12T07:28:29.000Z</time>
      </trkpt>
      <trkpt lat="43.32257" lon="-0.48569">
        <ele>154.19999694824</ele>
        <time>2025-08-12T07:28:32.000Z</time>
      </trkpt>
      <trkpt lat="43.32257" lon="-0.48606">
        <ele>154.19999694824</ele>
        <time>2025-08-12T07:28:37.000Z</time>
      </trkpt>
      <trkpt lat="43.32257" lon="-0.48614">
        <ele>154.19999694824</ele>
        <time>2025-08-12T07:28:38.000Z</time>
      </trkpt>
      <trkpt lat="43.32257" lon="-0.48674">
        <ele>154.19999694824</ele>
        <time>2025-08-12T07:28:46.000Z</time>
      </trkpt>
      <trkpt lat="43.32257" lon="-0.48718">
        <ele>154.19999694824</ele>
        <time>2025-08-12T07:28:52.000Z</time>
      </trkpt>
      <trkpt lat="43.32258" lon="-0.48733">
        <ele>154.19999694824</ele>
        <time>2025-08-12T07:28:54.000Z</time>
      </trkpt>
      <trkpt lat="43.3226" lon="-0.48741">
        <ele>154.19999694824</ele>
        <time>2025-08-12T07:28:55.000Z</time>
      </trkpt>
      <trkpt lat="43.32262" lon="-0.48749">
        <ele>154.19999694824</ele>
        <time>2025-08-12T07:28:56.000Z</time>
      </trkpt>
      <trkpt lat="43.32268" lon="-0.48762">
        <ele>154</ele>
        <time>2025-08-12T07:28:58.000Z</time>
      </trkpt>
      <trkpt lat="43.32272" lon="-0.48767">
        <ele>153.80000305176</ele>
        <time>2025-08-12T07:28:59.000Z</time>
      </trkpt>
      <trkpt lat="43.32277" lon="-0.48772">
        <ele>153.80000305176</ele>
        <time>2025-08-12T07:29:00.000Z</time>
      </trkpt>
      <trkpt lat="43.32297" lon="-0.48786">
        <ele>153.60000610352</ele>
        <time>2025-08-12T07:29:04.000Z</time>
      </trkpt>
      <trkpt lat="43.32339" lon="-0.4881">
        <ele>153.39999389648</ele>
        <time>2025-08-12T07:29:12.000Z</time>
      </trkpt>
      <trkpt lat="43.32344" lon="-0.48815">
        <ele>153.39999389648</ele>
        <time>2025-08-12T07:29:13.000Z</time>
      </trkpt>
      <trkpt lat="43.32359" lon="-0.48838">
        <ele>153.60000610352</ele>
        <time>2025-08-12T07:29:17.000Z</time>
      </trkpt>
      <trkpt lat="43.32366" lon="-0.48851">
        <ele>153.60000610352</ele>
        <time>2025-08-12T07:29:19.000Z</time>
      </trkpt>
      <trkpt lat="43.3238" lon="-0.48875">
        <ele>153.60000610352</ele>
        <time>2025-08-12T07:29:23.000Z</time>
      </trkpt>
      <trkpt lat="43.32412" lon="-0.48931">
        <ele>153.39999389648</ele>
        <time>2025-08-12T07:29:32.000Z</time>
      </trkpt>
      <trkpt lat="43.32419" lon="-0.48943">
        <ele>153.19999694824</ele>
        <time>2025-08-12T07:29:34.000Z</time>
      </trkpt>
      <trkpt lat="43.32439" lon="-0.4898">
        <ele>153</ele>
        <time>2025-08-12T07:29:40.000Z</time>
      </trkpt>
      <trkpt lat="43.32472" lon="-0.49039">
        <ele>152.60000610352</ele>
        <time>2025-08-12T07:29:50.000Z</time>
      </trkpt>
      <trkpt lat="43.32476" lon="-0.49045">
        <ele>152.39999389648</ele>
        <time>2025-08-12T07:29:51.000Z</time>
      </trkpt>
      <trkpt lat="43.32501" lon="-0.49093">
        <ele>152.39999389648</ele>
        <time>2025-08-12T07:29:59.000Z</time>
      </trkpt>
      <trkpt lat="43.32503" lon="-0.49099">
        <ele>152.39999389648</ele>
        <time>2025-08-12T07:30:00.000Z</time>
      </trkpt>
      <trkpt lat="43.32514" lon="-0.49133">
        <ele>152.39999389648</ele>
        <time>2025-08-12T07:30:05.000Z</time>
      </trkpt>
      <trkpt lat="43.32535" lon="-0.492">
        <ele>152.39999389648</ele>
        <time>2025-08-12T07:30:15.000Z</time>
      </trkpt>
      <trkpt lat="43.32551" lon="-0.49252">
        <ele>152.39999389648</ele>
        <time>2025-08-12T07:30:23.000Z</time>
      </trkpt>
      <trkpt lat="43.32567" lon="-0.49305">
        <ele>152.60000610352</ele>
        <time>2025-08-12T07:30:31.000Z</time>
      </trkpt>
      <trkpt lat="43.32588" lon="-0.49368">
        <ele>152.39999389648</ele>
        <time>2025-08-12T07:30:41.000Z</time>
      </trkpt>
      <trkpt lat="43.32594" lon="-0.49379">
        <ele>152.39999389648</ele>
        <time>2025-08-12T07:30:43.000Z</time>
      </trkpt>
      <trkpt lat="43.3261" lon="-0.49399">
        <ele>152.39999389648</ele>
        <time>2025-08-12T07:30:47.000Z</time>
      </trkpt>
      <trkpt lat="43.32626" lon="-0.49418">
        <ele>152.19999694824</ele>
        <time>2025-08-12T07:30:51.000Z</time>
      </trkpt>
      <trkpt lat="43.3265" lon="-0.49447">
        <ele>151.80000305176</ele>
        <time>2025-08-12T07:30:57.000Z</time>
      </trkpt>
      <trkpt lat="43.32663" lon="-0.49469">
        <ele>151.80000305176</ele>
        <time>2025-08-12T07:31:01.000Z</time>
      </trkpt>
      <trkpt lat="43.32668" lon="-0.49482">
        <ele>151.60000610352</ele>
        <time>2025-08-12T07:31:03.000Z</time>
      </trkpt>
      <trkpt lat="43.3269" lon="-0.49542">
        <ele>151.60000610352</ele>
        <time>2025-08-12T07:31:12.000Z</time>
      </trkpt>
      <trkpt lat="43.32717" lon="-0.49597">
        <ele>151.39999389648</ele>
        <time>2025-08-12T07:31:21.000Z</time>
      </trkpt>
      <trkpt lat="43.3272" lon="-0.49603">
        <ele>151.19999694824</ele>
        <time>2025-08-12T07:31:22.000Z</time>
      </trkpt>
      <trkpt lat="43.32747" lon="-0.49659">
        <ele>150.80000305176</ele>
        <time>2025-08-12T07:31:31.000Z</time>
      </trkpt>
      <trkpt lat="43.32763" lon="-0.49706">
        <ele>150.60000610352</ele>
        <time>2025-08-12T07:31:38.000Z</time>
      </trkpt>
      <trkpt lat="43.32765" lon="-0.49721">
        <ele>150.39999389648</ele>
        <time>2025-08-12T07:31:40.000Z</time>
      </trkpt>
      <trkpt lat="43.32769" lon="-0.49756">
        <ele>150.39999389648</ele>
        <time>2025-08-12T07:31:45.000Z</time>
      </trkpt>
      <trkpt lat="43.32771" lon="-0.4977">
        <ele>150.19999694824</ele>
        <time>2025-08-12T07:31:47.000Z</time>
      </trkpt>
      <trkpt lat="43.32776" lon="-0.49812">
        <ele>150.19999694824</ele>
        <time>2025-08-12T07:31:53.000Z</time>
      </trkpt>
      <trkpt lat="43.32781" lon="-0.4986">
        <ele>150.60000610352</ele>
        <time>2025-08-12T07:32:00.000Z</time>
      </trkpt>
      <trkpt lat="43.32794" lon="-0.49926">
        <ele>151.19999694824</ele>
        <time>2025-08-12T07:32:10.000Z</time>
      </trkpt>
      <trkpt lat="43.32805" lon="-0.49959">
        <ele>151.39999389648</ele>
        <time>2025-08-12T07:32:16.000Z</time>
      </trkpt>
      <trkpt lat="43.32807" lon="-0.49964">
        <ele>151.60000610352</ele>
        <time>2025-08-12T07:32:17.000Z</time>
      </trkpt>
      <trkpt lat="43.32823" lon="-0.50013">
        <ele>152.60000610352</ele>
        <time>2025-08-12T07:32:27.000Z</time>
      </trkpt>
      <trkpt lat="43.3283" lon="-0.50037">
        <ele>152.80000305176</ele>
        <time>2025-08-12T07:32:32.000Z</time>
      </trkpt>
      <trkpt lat="43.32837" lon="-0.50061">
        <ele>153.19999694824</ele>
        <time>2025-08-12T07:32:37.000Z</time>
      </trkpt>
      <trkpt lat="43.32844" lon="-0.50084">
        <ele>153.60000610352</ele>
        <time>2025-08-12T07:32:42.000Z</time>
      </trkpt>
      <trkpt lat="43.32855" lon="-0.50118">
        <ele>154.39999389648</ele>
        <time>2025-08-12T07:32:49.000Z</time>
      </trkpt>
      <trkpt lat="43.32868" lon="-0.50163">
        <ele>154.39999389648</ele>
        <time>2025-08-12T07:32:57.000Z</time>
      </trkpt>
      <trkpt lat="43.32876" lon="-0.50188">
        <ele>154.39999389648</ele>
        <time>2025-08-12T07:33:01.000Z</time>
      </trkpt>
      <trkpt lat="43.32886" lon="-0.50205">
        <ele>154.39999389648</ele>
        <time>2025-08-12T07:33:04.000Z</time>
      </trkpt>
      <trkpt lat="43.32913" lon="-0.50239">
        <ele>154</ele>
        <time>2025-08-12T07:33:11.000Z</time>
      </trkpt>
      <trkpt lat="43.32924" lon="-0.50254">
        <ele>153.60000610352</ele>
        <time>2025-08-12T07:33:14.000Z</time>
      </trkpt>
      <trkpt lat="43.32935" lon="-0.50272">
        <ele>153.39999389648</ele>
        <time>2025-08-12T07:33:17.000Z</time>
      </trkpt>
      <trkpt lat="43.32958" lon="-0.50317">
        <ele>152.80000305176</ele>
        <time>2025-08-12T07:33:24.000Z</time>
      </trkpt>
      <trkpt lat="43.32971" lon="-0.50343">
        <ele>152.39999389648</ele>
        <time>2025-08-12T07:33:28.000Z</time>
      </trkpt>
      <trkpt lat="43.32975" lon="-0.50349">
        <ele>152.39999389648</ele>
        <time>2025-08-12T07:33:29.000Z</time>
      </trkpt>
      <trkpt lat="43.32984" lon="-0.5036">
        <ele>152.19999694824</ele>
        <time>2025-08-12T07:33:31.000Z</time>
      </trkpt>
      <trkpt lat="43.33013" lon="-0.50385">
        <ele>151.39999389648</ele>
        <time>2025-08-12T07:33:37.000Z</time>
      </trkpt>
      <trkpt lat="43.33018" lon="-0.50389">
        <ele>151.39999389648</ele>
        <time>2025-08-12T07:33:38.000Z</time>
      </trkpt>
      <trkpt lat="43.33027" lon="-0.50395">
        <ele>151.19999694824</ele>
        <time>2025-08-12T07:33:40.000Z</time>
      </trkpt>
      <trkpt lat="43.33037" lon="-0.50398">
        <ele>151</ele>
        <time>2025-08-12T07:33:42.000Z</time>
      </trkpt>
      <trkpt lat="43.33043" lon="-0.50399">
        <ele>151</ele>
        <time>2025-08-12T07:33:43.000Z</time>
      </trkpt>
      <trkpt lat="43.33077" lon="-0.5039">
        <ele>150.39999389648</ele>
        <time>2025-08-12T07:33:49.000Z</time>
      </trkpt>
      <trkpt lat="43.33089" lon="-0.50387">
        <ele>150.39999389648</ele>
        <time>2025-08-12T07:33:51.000Z</time>
      </trkpt>
      <trkpt lat="43.33107" lon="-0.50385">
        <ele>150</ele>
        <time>2025-08-12T07:33:54.000Z</time>
      </trkpt>
      <trkpt lat="43.33119" lon="-0.50387">
        <ele>149.80000305176</ele>
        <time>2025-08-12T07:33:56.000Z</time>
      </trkpt>
      <trkpt lat="43.33131" lon="-0.50391">
        <ele>149.19999694824</ele>
        <time>2025-08-12T07:33:58.000Z</time>
      </trkpt>
      <trkpt lat="43.33168" lon="-0.50403">
        <ele>148.60000610352</ele>
        <time>2025-08-12T07:34:04.000Z</time>
      </trkpt>
      <trkpt lat="43.33221" lon="-0.50423">
        <ele>148.39999389648</ele>
        <time>2025-08-12T07:34:13.000Z</time>
      </trkpt>
      <trkpt lat="43.33227" lon="-0.50425">
        <ele>148.39999389648</ele>
        <time>2025-08-12T07:34:14.000Z</time>
      </trkpt>
      <trkpt lat="43.33233" lon="-0.50428">
        <ele>148.39999389648</ele>
        <time>2025-08-12T07:34:15.000Z</time>
      </trkpt>
      <trkpt lat="43.33239" lon="-0.5043">
        <ele>148.19999694824</ele>
        <time>2025-08-12T07:34:16.000Z</time>
      </trkpt>
      <trkpt lat="43.33253" lon="-0.50437">
        <ele>147.60000610352</ele>
        <time>2025-08-12T07:34:19.000Z</time>
      </trkpt>
      <trkpt lat="43.33274" lon="-0.50447">
        <ele>147</ele>
        <time>2025-08-12T07:34:23.000Z</time>
      </trkpt>
      <trkpt lat="43.33291" lon="-0.50454">
        <ele>146.39999389648</ele>
        <time>2025-08-12T07:34:26.000Z</time>
      </trkpt>
      <trkpt lat="43.33315" lon="-0.50469">
        <ele>146</ele>
        <time>2025-08-12T07:34:30.000Z</time>
      </trkpt>
      <trkpt lat="43.33327" lon="-0.50476">
        <ele>145.60000610352</ele>
        <time>2025-08-12T07:34:32.000Z</time>
      </trkpt>
      <trkpt lat="43.33363" lon="-0.50497">
        <ele>144.80000305176</ele>
        <time>2025-08-12T07:34:38.000Z</time>
      </trkpt>
      <trkpt lat="43.33374" lon="-0.50504">
        <ele>144.60000610352</ele>
        <time>2025-08-12T07:34:40.000Z</time>
      </trkpt>
      <trkpt lat="43.33385" lon="-0.50511">
        <ele>144.60000610352</ele>
        <time>2025-08-12T07:34:42.000Z</time>
      </trkpt>
      <trkpt lat="43.33395" lon="-0.50515">
        <ele>144.39999389648</ele>
        <time>2025-08-12T07:34:44.000Z</time>
      </trkpt>
      <trkpt lat="43.334" lon="-0.50518">
        <ele>144.39999389648</ele>
        <time>2025-08-12T07:34:45.000Z</time>
      </trkpt>
      <trkpt lat="43.3341" lon="-0.50524">
        <ele>144.39999389648</ele>
        <time>2025-08-12T07:34:47.000Z</time>
      </trkpt>
      <trkpt lat="43.33424" lon="-0.50536">
        <ele>144.39999389648</ele>
        <time>2025-08-12T07:34:50.000Z</time>
      </trkpt>
      <trkpt lat="43.33432" lon="-0.50545">
        <ele>144.39999389648</ele>
        <time>2025-08-12T07:34:52.000Z</time>
      </trkpt>
      <trkpt lat="43.33441" lon="-0.50545">
        <ele>144.39999389648</ele>
        <time>2025-08-12T07:34:54.000Z</time>
      </trkpt>
      <trkpt lat="43.33466" lon="-0.5053">
        <ele>144</ele>
        <time>2025-08-12T07:34:59.000Z</time>
      </trkpt>
      <trkpt lat="43.3348" lon="-0.50522">
        <ele>143.80000305176</ele>
        <time>2025-08-12T07:35:02.000Z</time>
      </trkpt>
      <trkpt lat="43.33492" lon="-0.50517">
        <ele>143.80000305176</ele>
        <time>2025-08-12T07:35:04.000Z</time>
      </trkpt>
      <trkpt lat="43.33501" lon="-0.50514">
        <ele>144</ele>
        <time>2025-08-12T07:35:06.000Z</time>
      </trkpt>
      <trkpt lat="43.33542" lon="-0.50499">
        <ele>143.80000305176</ele>
        <time>2025-08-12T07:35:14.000Z</time>
      </trkpt>
      <trkpt lat="43.33551" lon="-0.50496">
        <ele>143.80000305176</ele>
        <time>2025-08-12T07:35:16.000Z</time>
      </trkpt>
      <trkpt lat="43.33565" lon="-0.50495">
        <ele>143.80000305176</ele>
        <time>2025-08-12T07:35:19.000Z</time>
      </trkpt>
      <trkpt lat="43.33607" lon="-0.50492">
        <ele>143.80000305176</ele>
        <time>2025-08-12T07:35:28.000Z</time>
      </trkpt>
      <trkpt lat="43.33634" lon="-0.50487">
        <ele>143.80000305176</ele>
        <time>2025-08-12T07:35:34.000Z</time>
      </trkpt>
      <trkpt lat="43.33639" lon="-0.50487">
        <ele>143.80000305176</ele>
        <time>2025-08-12T07:35:35.000Z</time>
      </trkpt>
      <trkpt lat="43.33643" lon="-0.50488">
        <ele>143.80000305176</ele>
        <time>2025-08-12T07:35:36.000Z</time>
      </trkpt>
      <trkpt lat="43.33653" lon="-0.50492">
        <ele>143.80000305176</ele>
        <time>2025-08-12T07:35:38.000Z</time>
      </trkpt>
      <trkpt lat="43.33661" lon="-0.50499">
        <ele>143.80000305176</ele>
        <time>2025-08-12T07:35:40.000Z</time>
      </trkpt>
      <trkpt lat="43.33685" lon="-0.50522">
        <ele>143.80000305176</ele>
        <time>2025-08-12T07:35:46.000Z</time>
      </trkpt>
      <trkpt lat="43.3369" lon="-0.50524">
        <ele>143.80000305176</ele>
        <time>2025-08-12T07:35:47.000Z</time>
      </trkpt>
      <trkpt lat="43.33694" lon="-0.50525">
        <ele>143.80000305176</ele>
        <time>2025-08-12T07:35:48.000Z</time>
      </trkpt>
      <trkpt lat="43.33703" lon="-0.50526">
        <ele>143.80000305176</ele>
        <time>2025-08-12T07:35:50.000Z</time>
      </trkpt>
      <trkpt lat="43.33711" lon="-0.50529">
        <ele>143.80000305176</ele>
        <time>2025-08-12T07:35:52.000Z</time>
      </trkpt>
      <trkpt lat="43.33733" lon="-0.50533">
        <ele>143.80000305176</ele>
        <time>2025-08-12T07:35:58.000Z</time>
      </trkpt>
      <trkpt lat="43.33766" lon="-0.50537">
        <ele>143.39999389648</ele>
        <time>2025-08-12T07:36:07.000Z</time>
      </trkpt>
      <trkpt lat="43.33781" lon="-0.50537">
        <ele>143.39999389648</ele>
        <time>2025-08-12T07:36:12.000Z</time>
      </trkpt>
      <trkpt lat="43.33798" lon="-0.50532">
        <ele>143.60000610352</ele>
        <time>2025-08-12T07:36:17.000Z</time>
      </trkpt>
      <trkpt lat="43.33805" lon="-0.50538">
        <ele>143.19999694824</ele>
        <time>2025-08-12T07:36:20.000Z</time>
      </trkpt>
      <trkpt lat="43.33809" lon="-0.50542">
        <ele>143</ele>
        <time>2025-08-12T07:36:21.000Z</time>
      </trkpt>
      <trkpt lat="43.33826" lon="-0.50553">
        <ele>143.19999694824</ele>
        <time>2025-08-12T07:36:28.000Z</time>
      </trkpt>
      <trkpt lat="43.33848" lon="-0.50554">
        <ele>143.60000610352</ele>
        <time>2025-08-12T07:36:34.000Z</time>
      </trkpt>
      <trkpt lat="43.33879" lon="-0.50551">
        <ele>143.60000610352</ele>
        <time>2025-08-12T07:36:42.000Z</time>
      </trkpt>
      <trkpt lat="43.3391" lon="-0.50543">
        <ele>143.39999389648</ele>
        <time>2025-08-12T07:36:50.000Z</time>
      </trkpt>
      <trkpt lat="43.33936" lon="-0.50539">
        <ele>143.39999389648</ele>
        <time>2025-08-12T07:36:56.000Z</time>
      </trkpt>
      <trkpt lat="43.33945" lon="-0.50539">
        <ele>143.39999389648</ele>
        <time>2025-08-12T07:36:58.000Z</time>
      </trkpt>
      <trkpt lat="43.33978" lon="-0.50542">
        <ele>143.19999694824</ele>
        <time>2025-08-12T07:37:06.000Z</time>
      </trkpt>
      <trkpt lat="43.34018" lon="-0.50548">
        <ele>143.19999694824</ele>
        <time>2025-08-12T07:37:15.000Z</time>
      </trkpt>
      <trkpt lat="43.34058" lon="-0.50544">
        <ele>143.19999694824</ele>
        <time>2025-08-12T07:37:24.000Z</time>
      </trkpt>
      <trkpt lat="43.34098" lon="-0.50538">
        <ele>143</ele>
        <time>2025-08-12T07:37:33.000Z</time>
      </trkpt>
      <trkpt lat="43.34106" lon="-0.50537">
        <ele>143</ele>
        <time>2025-08-12T07:37:35.000Z</time>
      </trkpt>
      <trkpt lat="43.34129" lon="-0.50538">
        <ele>143.19999694824</ele>
        <time>2025-08-12T07:37:40.000Z</time>
      </trkpt>
      <trkpt lat="43.3417" lon="-0.50542">
        <ele>143.19999694824</ele>
        <time>2025-08-12T07:37:49.000Z</time>
      </trkpt>
      <trkpt lat="43.34202" lon="-0.50543">
        <ele>143</ele>
        <time>2025-08-12T07:37:56.000Z</time>
      </trkpt>
      <trkpt lat="43.34253" lon="-0.50544">
        <ele>142.80000305176</ele>
        <time>2025-08-12T07:38:07.000Z</time>
      </trkpt>
      <trkpt lat="43.34289" lon="-0.50533">
        <ele>142.60000610352</ele>
        <time>2025-08-12T07:38:15.000Z</time>
      </trkpt>
      <trkpt lat="43.34307" lon="-0.50523">
        <ele>142.39999389648</ele>
        <time>2025-08-12T07:38:21.000Z</time>
      </trkpt>
      <trkpt lat="43.34308" lon="-0.50523">
        <ele>142.39999389648</ele>
        <time>2025-08-12T07:38:22.000Z</time>
      </trkpt>
      <trkpt lat="43.34307" lon="-0.50522">
        <ele>142.19999694824</ele>
        <time>2025-08-12T07:38:23.000Z</time>
      </trkpt>
      <trkpt lat="43.34306" lon="-0.50521">
        <ele>142</ele>
        <time>2025-08-12T07:38:24.000Z</time>
      </trkpt>
      <trkpt lat="43.34299" lon="-0.50525">
        <ele>142</ele>
        <time>2025-08-12T07:38:29.000Z</time>
      </trkpt>
      <trkpt lat="43.3429" lon="-0.50529">
        <ele>142</ele>
        <time>2025-08-12T07:38:33.000Z</time>
      </trkpt>
      <trkpt lat="43.34288" lon="-0.50531">
        <ele>142</ele>
        <time>2025-08-12T07:38:34.000Z</time>
      </trkpt>
      <trkpt lat="43.34288" lon="-0.50531">
        <ele>142</ele>
        <time>2025-08-12T07:38:35.000Z</time>
      </trkpt>
      <trkpt lat="43.34289" lon="-0.50532">
        <ele>142</ele>
        <time>2025-08-12T07:38:38.000Z</time>
      </trkpt>
      <trkpt lat="43.34289" lon="-0.50532">
        <ele>142</ele>
        <time>2025-08-12T07:38:39.000Z</time>
      </trkpt>
      <trkpt lat="43.34296" lon="-0.50527">
        <ele>142.60000610352</ele>
        <time>2025-08-12T07:39:35.000Z</time>
      </trkpt>
      <trkpt lat="43.34302" lon="-0.50525">
        <ele>142.39999389648</ele>
        <time>2025-08-12T07:39:37.000Z</time>
      </trkpt>
      <trkpt lat="43.34319" lon="-0.50512">
        <ele>142</ele>
        <time>2025-08-12T07:39:43.000Z</time>
      </trkpt>
      <trkpt lat="43.34348" lon="-0.50492">
        <ele>142</ele>
        <time>2025-08-12T07:39:52.000Z</time>
      </trkpt>
      <trkpt lat="43.34366" lon="-0.50493">
        <ele>142</ele>
        <time>2025-08-12T07:39:57.000Z</time>
      </trkpt>
      <trkpt lat="43.34378" lon="-0.50496">
        <ele>142</ele>
        <time>2025-08-12T07:40:00.000Z</time>
      </trkpt>
      <trkpt lat="43.34387" lon="-0.50501">
        <ele>142.19999694824</ele>
        <time>2025-08-12T07:40:02.000Z</time>
      </trkpt>
      <trkpt lat="43.34401" lon="-0.50509">
        <ele>142.19999694824</ele>
        <time>2025-08-12T07:40:05.000Z</time>
      </trkpt>
      <trkpt lat="43.34413" lon="-0.50519">
        <ele>142</ele>
        <time>2025-08-12T07:40:08.000Z</time>
      </trkpt>
      <trkpt lat="43.34417" lon="-0.50524">
        <ele>142</ele>
        <time>2025-08-12T07:40:09.000Z</time>
      </trkpt>
      <trkpt lat="43.34442" lon="-0.50558">
        <ele>142</ele>
        <time>2025-08-12T07:40:16.000Z</time>
      </trkpt>
      <trkpt lat="43.34446" lon="-0.50562">
        <ele>142</ele>
        <time>2025-08-12T07:40:17.000Z</time>
      </trkpt>
      <trkpt lat="43.34483" lon="-0.50594">
        <ele>142.19999694824</ele>
        <time>2025-08-12T07:40:26.000Z</time>
      </trkpt>
      <trkpt lat="43.34513" lon="-0.50629">
        <ele>142.19999694824</ele>
        <time>2025-08-12T07:40:34.000Z</time>
      </trkpt>
      <trkpt lat="43.34547" lon="-0.50681">
        <ele>141.80000305176</ele>
        <time>2025-08-12T07:40:44.000Z</time>
      </trkpt>
      <trkpt lat="43.34578" lon="-0.50718">
        <ele>141.60000610352</ele>
        <time>2025-08-12T07:40:52.000Z</time>
      </trkpt>
      <trkpt lat="43.34597" lon="-0.5074">
        <ele>141.60000610352</ele>
        <time>2025-08-12T07:40:57.000Z</time>
      </trkpt>
      <trkpt lat="43.34603" lon="-0.50752">
        <ele>141.39999389648</ele>
        <time>2025-08-12T07:40:59.000Z</time>
      </trkpt>
      <trkpt lat="43.34606" lon="-0.50758">
        <ele>141.39999389648</ele>
        <time>2025-08-12T07:41:00.000Z</time>
      </trkpt>
      <trkpt lat="43.34608" lon="-0.50765">
        <ele>141.39999389648</ele>
        <time>2025-08-12T07:41:01.000Z</time>
      </trkpt>
      <trkpt lat="43.3462" lon="-0.50798">
        <ele>141.19999694824</ele>
        <time>2025-08-12T07:41:06.000Z</time>
      </trkpt>
      <trkpt lat="43.34641" lon="-0.50829">
        <ele>141.19999694824</ele>
        <time>2025-08-12T07:41:12.000Z</time>
      </trkpt>
      <trkpt lat="43.34657" lon="-0.50848">
        <ele>141.19999694824</ele>
        <time>2025-08-12T07:41:16.000Z</time>
      </trkpt>
      <trkpt lat="43.3467" lon="-0.50862">
        <ele>141.19999694824</ele>
        <time>2025-08-12T07:41:19.000Z</time>
      </trkpt>
      <trkpt lat="43.34693" lon="-0.50903">
        <ele>141</ele>
        <time>2025-08-12T07:41:26.000Z</time>
      </trkpt>
      <trkpt lat="43.34703" lon="-0.50929">
        <ele>141</ele>
        <time>2025-08-12T07:41:30.000Z</time>
      </trkpt>
      <trkpt lat="43.34714" lon="-0.50946">
        <ele>140.80000305176</ele>
        <time>2025-08-12T07:41:33.000Z</time>
      </trkpt>
      <trkpt lat="43.34724" lon="-0.50962">
        <ele>140.80000305176</ele>
        <time>2025-08-12T07:41:36.000Z</time>
      </trkpt>
      <trkpt lat="43.34728" lon="-0.50975">
        <ele>140.80000305176</ele>
        <time>2025-08-12T07:41:38.000Z</time>
      </trkpt>
      <trkpt lat="43.34734" lon="-0.50988">
        <ele>140.80000305176</ele>
        <time>2025-08-12T07:41:40.000Z</time>
      </trkpt>
      <trkpt lat="43.34747" lon="-0.5101">
        <ele>140.80000305176</ele>
        <time>2025-08-12T07:41:44.000Z</time>
      </trkpt>
      <trkpt lat="43.3475" lon="-0.51015">
        <ele>140.80000305176</ele>
        <time>2025-08-12T07:41:45.000Z</time>
      </trkpt>
      <trkpt lat="43.34754" lon="-0.51027">
        <ele>140.80000305176</ele>
        <time>2025-08-12T07:41:47.000Z</time>
      </trkpt>
      <trkpt lat="43.34754" lon="-0.51034">
        <ele>140.80000305176</ele>
        <time>2025-08-12T07:41:48.000Z</time>
      </trkpt>
      <trkpt lat="43.34754" lon="-0.5104">
        <ele>140.80000305176</ele>
        <time>2025-08-12T07:41:49.000Z</time>
      </trkpt>
      <trkpt lat="43.34748" lon="-0.51058">
        <ele>140.80000305176</ele>
        <time>2025-08-12T07:41:52.000Z</time>
      </trkpt>
      <trkpt lat="43.34738" lon="-0.51081">
        <ele>140.80000305176</ele>
        <time>2025-08-12T07:41:56.000Z</time>
      </trkpt>
      <trkpt lat="43.34737" lon="-0.51095">
        <ele>140.80000305176</ele>
        <time>2025-08-12T07:41:58.000Z</time>
      </trkpt>
      <trkpt lat="43.34736" lon="-0.51109">
        <ele>140.80000305176</ele>
        <time>2025-08-12T07:42:00.000Z</time>
      </trkpt>
      <trkpt lat="43.34731" lon="-0.51128">
        <ele>140.80000305176</ele>
        <time>2025-08-12T07:42:03.000Z</time>
      </trkpt>
      <trkpt lat="43.34714" lon="-0.51171">
        <ele>140.60000610352</ele>
        <time>2025-08-12T07:42:10.000Z</time>
      </trkpt>
      <trkpt lat="43.34704" lon="-0.51203">
        <ele>140.60000610352</ele>
        <time>2025-08-12T07:42:15.000Z</time>
      </trkpt>
      <trkpt lat="43.34702" lon="-0.5121">
        <ele>140.60000610352</ele>
        <time>2025-08-12T07:42:16.000Z</time>
      </trkpt>
      <trkpt lat="43.34696" lon="-0.51238">
        <ele>140.39999389648</ele>
        <time>2025-08-12T07:42:20.000Z</time>
      </trkpt>
      <trkpt lat="43.34696" lon="-0.51244">
        <ele>140.19999694824</ele>
        <time>2025-08-12T07:42:21.000Z</time>
      </trkpt>
      <trkpt lat="43.34698" lon="-0.51253">
        <ele>140.19999694824</ele>
        <time>2025-08-12T07:42:23.000Z</time>
      </trkpt>
      <trkpt lat="43.34701" lon="-0.51255">
        <ele>140.19999694824</ele>
        <time>2025-08-12T07:42:24.000Z</time>
      </trkpt>
      <trkpt lat="43.34721" lon="-0.51259">
        <ele>140.39999389648</ele>
        <time>2025-08-12T07:42:29.000Z</time>
      </trkpt>
      <trkpt lat="43.3475" lon="-0.51273">
        <ele>140.39999389648</ele>
        <time>2025-08-12T07:42:36.000Z</time>
      </trkpt>
      <trkpt lat="43.3479" lon="-0.5129">
        <ele>140.39999389648</ele>
        <time>2025-08-12T07:42:45.000Z</time>
      </trkpt>
      <trkpt lat="43.34824" lon="-0.51302">
        <ele>140.19999694824</ele>
        <time>2025-08-12T07:42:52.000Z</time>
      </trkpt>
      <trkpt lat="43.34855" lon="-0.51321">
        <ele>140</ele>
        <time>2025-08-12T07:42:59.000Z</time>
      </trkpt>
      <trkpt lat="43.34878" lon="-0.51341">
        <ele>139.80000305176</ele>
        <time>2025-08-12T07:43:05.000Z</time>
      </trkpt>
      <trkpt lat="43.34886" lon="-0.51349">
        <ele>139.80000305176</ele>
        <time>2025-08-12T07:43:07.000Z</time>
      </trkpt>
      <trkpt lat="43.34918" lon="-0.51369">
        <ele>139.60000610352</ele>
        <time>2025-08-12T07:43:14.000Z</time>
      </trkpt>
      <trkpt lat="43.34923" lon="-0.51371">
        <ele>139.39999389648</ele>
        <time>2025-08-12T07:43:15.000Z</time>
      </trkpt>
      <trkpt lat="43.34941" lon="-0.51385">
        <ele>139.60000610352</ele>
        <time>2025-08-12T07:43:19.000Z</time>
      </trkpt>
      <trkpt lat="43.34972" lon="-0.51406">
        <ele>139.60000610352</ele>
        <time>2025-08-12T07:43:27.000Z</time>
      </trkpt>
      <trkpt lat="43.34978" lon="-0.5141">
        <ele>139.60000610352</ele>
        <time>2025-08-12T07:43:29.000Z</time>
      </trkpt>
      <trkpt lat="43.34987" lon="-0.51416">
        <ele>139.60000610352</ele>
        <time>2025-08-12T07:43:32.000Z</time>
      </trkpt>
      <trkpt lat="43.35003" lon="-0.51422">
        <ele>139.60000610352</ele>
        <time>2025-08-12T07:43:36.000Z</time>
      </trkpt>
      <trkpt lat="43.35008" lon="-0.51422">
        <ele>139.60000610352</ele>
        <time>2025-08-12T07:43:37.000Z</time>
      </trkpt>
      <trkpt lat="43.35012" lon="-0.51421">
        <ele>139.60000610352</ele>
        <time>2025-08-12T07:43:38.000Z</time>
      </trkpt>
      <trkpt lat="43.35025" lon="-0.51411">
        <ele>139.60000610352</ele>
        <time>2025-08-12T07:43:41.000Z</time>
      </trkpt>
      <trkpt lat="43.35043" lon="-0.51397">
        <ele>139.39999389648</ele>
        <time>2025-08-12T07:43:45.000Z</time>
      </trkpt>
      <trkpt lat="43.35052" lon="-0.51396">
        <ele>139.39999389648</ele>
        <time>2025-08-12T07:43:47.000Z</time>
      </trkpt>
      <trkpt lat="43.3506" lon="-0.51401">
        <ele>139.39999389648</ele>
        <time>2025-08-12T07:43:49.000Z</time>
      </trkpt>
      <trkpt lat="43.35063" lon="-0.51404">
        <ele>139.39999389648</ele>
        <time>2025-08-12T07:43:50.000Z</time>
      </trkpt>
      <trkpt lat="43.35068" lon="-0.51425">
        <ele>139.60000610352</ele>
        <time>2025-08-12T07:43:54.000Z</time>
      </trkpt>
      <trkpt lat="43.35075" lon="-0.51449">
        <ele>139.80000305176</ele>
        <time>2025-08-12T07:43:58.000Z</time>
      </trkpt>
      <trkpt lat="43.3508" lon="-0.5146">
        <ele>140</ele>
        <time>2025-08-12T07:44:00.000Z</time>
      </trkpt>
      <trkpt lat="43.35083" lon="-0.51465">
        <ele>140</ele>
        <time>2025-08-12T07:44:01.000Z</time>
      </trkpt>
      <trkpt lat="43.35087" lon="-0.5147">
        <ele>140</ele>
        <time>2025-08-12T07:44:02.000Z</time>
      </trkpt>
      <trkpt lat="43.35105" lon="-0.51493">
        <ele>139.80000305176</ele>
        <time>2025-08-12T07:44:07.000Z</time>
      </trkpt>
      <trkpt lat="43.35112" lon="-0.51503">
        <ele>139.80000305176</ele>
        <time>2025-08-12T07:44:09.000Z</time>
      </trkpt>
      <trkpt lat="43.3512" lon="-0.5151">
        <ele>139.80000305176</ele>
        <time>2025-08-12T07:44:11.000Z</time>
      </trkpt>
      <trkpt lat="43.35125" lon="-0.51512">
        <ele>139.80000305176</ele>
        <time>2025-08-12T07:44:12.000Z</time>
      </trkpt>
      <trkpt lat="43.35129" lon="-0.51514">
        <ele>139.60000610352</ele>
        <time>2025-08-12T07:44:13.000Z</time>
      </trkpt>
      <trkpt lat="43.35141" lon="-0.51514">
        <ele>139.60000610352</ele>
        <time>2025-08-12T07:44:16.000Z</time>
      </trkpt>
      <trkpt lat="43.35164" lon="-0.51517">
        <ele>139.60000610352</ele>
        <time>2025-08-12T07:44:21.000Z</time>
      </trkpt>
      <trkpt lat="43.35191" lon="-0.51512">
        <ele>139.60000610352</ele>
        <time>2025-08-12T07:44:27.000Z</time>
      </trkpt>
      <trkpt lat="43.35202" lon="-0.51506">
        <ele>139.60000610352</ele>
        <time>2025-08-12T07:44:29.000Z</time>
      </trkpt>
      <trkpt lat="43.35212" lon="-0.51497">
        <ele>139.60000610352</ele>
        <time>2025-08-12T07:44:31.000Z</time>
      </trkpt>
      <trkpt lat="43.35223" lon="-0.51496">
        <ele>139.19999694824</ele>
        <time>2025-08-12T07:44:33.000Z</time>
      </trkpt>
      <trkpt lat="43.35229" lon="-0.515">
        <ele>139</ele>
        <time>2025-08-12T07:44:34.000Z</time>
      </trkpt>
      <trkpt lat="43.35234" lon="-0.51504">
        <ele>139</ele>
        <time>2025-08-12T07:44:35.000Z</time>
      </trkpt>
      <trkpt lat="43.35251" lon="-0.51526">
        <ele>138.39999389648</ele>
        <time>2025-08-12T07:44:39.000Z</time>
      </trkpt>
      <trkpt lat="43.35255" lon="-0.5153">
        <ele>138.39999389648</ele>
        <time>2025-08-12T07:44:40.000Z</time>
      </trkpt>
      <trkpt lat="43.35259" lon="-0.51534">
        <ele>138.39999389648</ele>
        <time>2025-08-12T07:44:41.000Z</time>
      </trkpt>
      <trkpt lat="43.3527" lon="-0.51547">
        <ele>138.39999389648</ele>
        <time>2025-08-12T07:44:44.000Z</time>
      </trkpt>
      <trkpt lat="43.35296" lon="-0.51577">
        <ele>138.39999389648</ele>
        <time>2025-08-12T07:44:51.000Z</time>
      </trkpt>
      <trkpt lat="43.353" lon="-0.51581">
        <ele>138.39999389648</ele>
        <time>2025-08-12T07:44:52.000Z</time>
      </trkpt>
      <trkpt lat="43.35326" lon="-0.51607">
        <ele>138.39999389648</ele>
        <time>2025-08-12T07:44:59.000Z</time>
      </trkpt>
      <trkpt lat="43.3533" lon="-0.5161">
        <ele>138.39999389648</ele>
        <time>2025-08-12T07:45:00.000Z</time>
      </trkpt>
      <trkpt lat="43.35345" lon="-0.51621">
        <ele>138.60000610352</ele>
        <time>2025-08-12T07:45:04.000Z</time>
      </trkpt>
      <trkpt lat="43.35363" lon="-0.51631">
        <ele>138.80000305176</ele>
        <time>2025-08-12T07:45:09.000Z</time>
      </trkpt>
      <trkpt lat="43.35383" lon="-0.51647">
        <ele>138.80000305176</ele>
        <time>2025-08-12T07:45:14.000Z</time>
      </trkpt>
      <trkpt lat="43.35408" lon="-0.51665">
        <ele>139</ele>
        <time>2025-08-12T07:45:20.000Z</time>
      </trkpt>
      <trkpt lat="43.35427" lon="-0.51684">
        <ele>139.60000610352</ele>
        <time>2025-08-12T07:45:26.000Z</time>
      </trkpt>
      <trkpt lat="43.35427" lon="-0.51687">
        <ele>139.60000610352</ele>
        <time>2025-08-12T07:45:27.000Z</time>
      </trkpt>
      <trkpt lat="43.35428" lon="-0.51694">
        <ele>139.80000305176</ele>
        <time>2025-08-12T07:45:29.000Z</time>
      </trkpt>
      <trkpt lat="43.35429" lon="-0.51697">
        <ele>140.19999694824</ele>
        <time>2025-08-12T07:45:30.000Z</time>
      </trkpt>
      <trkpt lat="43.35433" lon="-0.51717">
        <ele>140.39999389648</ele>
        <time>2025-08-12T07:45:33.000Z</time>
      </trkpt>
      <trkpt lat="43.35433" lon="-0.51725">
        <ele>140.39999389648</ele>
        <time>2025-08-12T07:45:34.000Z</time>
      </trkpt>
      <trkpt lat="43.35435" lon="-0.51733">
        <ele>140.39999389648</ele>
        <time>2025-08-12T07:45:35.000Z</time>
      </trkpt>
      <trkpt lat="43.35441" lon="-0.51764">
        <ele>139.39999389648</ele>
        <time>2025-08-12T07:45:39.000Z</time>
      </trkpt>
      <trkpt lat="43.35447" lon="-0.51774">
        <ele>139.19999694824</ele>
        <time>2025-08-12T07:45:41.000Z</time>
      </trkpt>
      <trkpt lat="43.3545" lon="-0.51778">
        <ele>139</ele>
        <time>2025-08-12T07:45:42.000Z</time>
      </trkpt>
      <trkpt lat="43.35454" lon="-0.51782">
        <ele>139</ele>
        <time>2025-08-12T07:45:43.000Z</time>
      </trkpt>
      <trkpt lat="43.3546" lon="-0.51791">
        <ele>138.80000305176</ele>
        <time>2025-08-12T07:45:45.000Z</time>
      </trkpt>
      <trkpt lat="43.35463" lon="-0.51796">
        <ele>138.60000610352</ele>
        <time>2025-08-12T07:45:46.000Z</time>
      </trkpt>
      <trkpt lat="43.35466" lon="-0.51801">
        <ele>138.60000610352</ele>
        <time>2025-08-12T07:45:47.000Z</time>
      </trkpt>
      <trkpt lat="43.35475" lon="-0.51818">
        <ele>138.60000610352</ele>
        <time>2025-08-12T07:45:50.000Z</time>
      </trkpt>
      <trkpt lat="43.35487" lon="-0.51831">
        <ele>138.39999389648</ele>
        <time>2025-08-12T07:45:53.000Z</time>
      </trkpt>
      <trkpt lat="43.35516" lon="-0.51865">
        <ele>138.19999694824</ele>
        <time>2025-08-12T07:46:01.000Z</time>
      </trkpt>
      <trkpt lat="43.35536" lon="-0.51897">
        <ele>138</ele>
        <time>2025-08-12T07:46:07.000Z</time>
      </trkpt>
      <trkpt lat="43.35543" lon="-0.51904">
        <ele>138</ele>
        <time>2025-08-12T07:46:09.000Z</time>
      </trkpt>
      <trkpt lat="43.35553" lon="-0.51911">
        <ele>137.80000305176</ele>
        <time>2025-08-12T07:46:12.000Z</time>
      </trkpt>
      <trkpt lat="43.35563" lon="-0.51922">
        <ele>137.80000305176</ele>
        <time>2025-08-12T07:46:15.000Z</time>
      </trkpt>
      <trkpt lat="43.35578" lon="-0.51947">
        <ele>137.60000610352</ele>
        <time>2025-08-12T07:46:20.000Z</time>
      </trkpt>
      <trkpt lat="43.35582" lon="-0.51952">
        <ele>137.39999389648</ele>
        <time>2025-08-12T07:46:21.000Z</time>
      </trkpt>
      <trkpt lat="43.3559" lon="-0.51968">
        <ele>137.39999389648</ele>
        <time>2025-08-12T07:46:24.000Z</time>
      </trkpt>
      <trkpt lat="43.35601" lon="-0.51987">
        <ele>137.19999694824</ele>
        <time>2025-08-12T07:46:28.000Z</time>
      </trkpt>
      <trkpt lat="43.35605" lon="-0.51997">
        <ele>137</ele>
        <time>2025-08-12T07:46:30.000Z</time>
      </trkpt>
      <trkpt lat="43.35615" lon="-0.52018">
        <ele>137</ele>
        <time>2025-08-12T07:46:34.000Z</time>
      </trkpt>
      <trkpt lat="43.35625" lon="-0.52039">
        <ele>137</ele>
        <time>2025-08-12T07:46:38.000Z</time>
      </trkpt>
      <trkpt lat="43.35629" lon="-0.52051">
        <ele>137</ele>
        <time>2025-08-12T07:46:40.000Z</time>
      </trkpt>
      <trkpt lat="43.35644" lon="-0.52089">
        <ele>137</ele>
        <time>2025-08-12T07:46:47.000Z</time>
      </trkpt>
      <trkpt lat="43.35646" lon="-0.52095">
        <ele>137</ele>
        <time>2025-08-12T07:46:48.000Z</time>
      </trkpt>
      <trkpt lat="43.35648" lon="-0.52108">
        <ele>137.19999694824</ele>
        <time>2025-08-12T07:46:50.000Z</time>
      </trkpt>
      <trkpt lat="43.35648" lon="-0.52127">
        <ele>137.19999694824</ele>
        <time>2025-08-12T07:46:53.000Z</time>
      </trkpt>
      <trkpt lat="43.35646" lon="-0.52146">
        <ele>137.19999694824</ele>
        <time>2025-08-12T07:46:56.000Z</time>
      </trkpt>
      <trkpt lat="43.35643" lon="-0.52164">
        <ele>137</ele>
        <time>2025-08-12T07:46:59.000Z</time>
      </trkpt>
      <trkpt lat="43.35641" lon="-0.52171">
        <ele>137</ele>
        <time>2025-08-12T07:47:00.000Z</time>
      </trkpt>
      <trkpt lat="43.35637" lon="-0.52183">
        <ele>136.80000305176</ele>
        <time>2025-08-12T07:47:02.000Z</time>
      </trkpt>
      <trkpt lat="43.35634" lon="-0.52188">
        <ele>136.80000305176</ele>
        <time>2025-08-12T07:47:03.000Z</time>
      </trkpt>
      <trkpt lat="43.3563" lon="-0.52193">
        <ele>136.80000305176</ele>
        <time>2025-08-12T07:47:04.000Z</time>
      </trkpt>
      <trkpt lat="43.35622" lon="-0.52199">
        <ele>136.80000305176</ele>
        <time>2025-08-12T07:47:06.000Z</time>
      </trkpt>
      <trkpt lat="43.35618" lon="-0.52201">
        <ele>136.80000305176</ele>
        <time>2025-08-12T07:47:07.000Z</time>
      </trkpt>
      <trkpt lat="43.35613" lon="-0.52202">
        <ele>136.80000305176</ele>
        <time>2025-08-12T07:47:08.000Z</time>
      </trkpt>
      <trkpt lat="43.35602" lon="-0.52201">
        <ele>137</ele>
        <time>2025-08-12T07:47:10.000Z</time>
      </trkpt>
      <trkpt lat="43.35597" lon="-0.52199">
        <ele>137</ele>
        <time>2025-08-12T07:47:11.000Z</time>
      </trkpt>
      <trkpt lat="43.35568" lon="-0.52187">
        <ele>137.19999694824</ele>
        <time>2025-08-12T07:47:18.000Z</time>
      </trkpt>
      <trkpt lat="43.3556" lon="-0.52188">
        <ele>137.19999694824</ele>
        <time>2025-08-12T07:47:20.000Z</time>
      </trkpt>
      <trkpt lat="43.35548" lon="-0.52192">
        <ele>137</ele>
        <time>2025-08-12T07:47:23.000Z</time>
      </trkpt>
      <trkpt lat="43.35529" lon="-0.52211">
        <ele>137.19999694824</ele>
        <time>2025-08-12T07:47:29.000Z</time>
      </trkpt>
      <trkpt lat="43.35508" lon="-0.52247">
        <ele>137.19999694824</ele>
        <time>2025-08-12T07:47:37.000Z</time>
      </trkpt>
      <trkpt lat="43.35505" lon="-0.52257">
        <ele>137.19999694824</ele>
        <time>2025-08-12T07:47:39.000Z</time>
      </trkpt>
      <trkpt lat="43.35497" lon="-0.52283">
        <ele>137.19999694824</ele>
        <time>2025-08-12T07:47:44.000Z</time>
      </trkpt>
      <trkpt lat="43.35483" lon="-0.52332">
        <ele>137.39999389648</ele>
        <time>2025-08-12T07:47:53.000Z</time>
      </trkpt>
      <trkpt lat="43.3547" lon="-0.52387">
        <ele>137.19999694824</ele>
        <time>2025-08-12T07:48:02.000Z</time>
      </trkpt>
      <trkpt lat="43.35468" lon="-0.52399">
        <ele>137.19999694824</ele>
        <time>2025-08-12T07:48:04.000Z</time>
      </trkpt>
      <trkpt lat="43.35465" lon="-0.52438">
        <ele>137</ele>
        <time>2025-08-12T07:48:10.000Z</time>
      </trkpt>
      <trkpt lat="43.35465" lon="-0.52491">
        <ele>137</ele>
        <time>2025-08-12T07:48:18.000Z</time>
      </trkpt>
      <trkpt lat="43.3547" lon="-0.52546">
        <ele>136.80000305176</ele>
        <time>2025-08-12T07:48:26.000Z</time>
      </trkpt>
      <trkpt lat="43.35479" lon="-0.52613">
        <ele>136.80000305176</ele>
        <time>2025-08-12T07:48:36.000Z</time>
      </trkpt>
      <trkpt lat="43.35491" lon="-0.52674">
        <ele>136.80000305176</ele>
        <time>2025-08-12T07:48:45.000Z</time>
      </trkpt>
      <trkpt lat="43.35494" lon="-0.52688">
        <ele>136.60000610352</ele>
        <time>2025-08-12T07:48:47.000Z</time>
      </trkpt>
      <trkpt lat="43.35501" lon="-0.5273">
        <ele>136.39999389648</ele>
        <time>2025-08-12T07:48:53.000Z</time>
      </trkpt>
      <trkpt lat="43.35511" lon="-0.528">
        <ele>136.39999389648</ele>
        <time>2025-08-12T07:49:03.000Z</time>
      </trkpt>
      <trkpt lat="43.35511" lon="-0.52875">
        <ele>136.39999389648</ele>
        <time>2025-08-12T07:49:14.000Z</time>
      </trkpt>
      <trkpt lat="43.35508" lon="-0.52944">
        <ele>136</ele>
        <time>2025-08-12T07:49:24.000Z</time>
      </trkpt>
      <trkpt lat="43.35508" lon="-0.52992">
        <ele>136</ele>
        <time>2025-08-12T07:49:31.000Z</time>
      </trkpt>
      <trkpt lat="43.35512" lon="-0.53019">
        <ele>135.80000305176</ele>
        <time>2025-08-12T07:49:36.000Z</time>
      </trkpt>
      <trkpt lat="43.35522" lon="-0.53038">
        <ele>135.80000305176</ele>
        <time>2025-08-12T07:49:40.000Z</time>
      </trkpt>
      <trkpt lat="43.35527" lon="-0.53049">
        <ele>135.80000305176</ele>
        <time>2025-08-12T07:49:42.000Z</time>
      </trkpt>
      <trkpt lat="43.35529" lon="-0.53055">
        <ele>135.80000305176</ele>
        <time>2025-08-12T07:49:43.000Z</time>
      </trkpt>
      <trkpt lat="43.3554" lon="-0.53093">
        <ele>135.80000305176</ele>
        <time>2025-08-12T07:49:49.000Z</time>
      </trkpt>
      <trkpt lat="43.35542" lon="-0.53106">
        <ele>135.80000305176</ele>
        <time>2025-08-12T07:49:51.000Z</time>
      </trkpt>
      <trkpt lat="43.3555" lon="-0.53148">
        <ele>135.80000305176</ele>
        <time>2025-08-12T07:49:57.000Z</time>
      </trkpt>
      <trkpt lat="43.35552" lon="-0.53155">
        <ele>135.80000305176</ele>
        <time>2025-08-12T07:49:58.000Z</time>
      </trkpt>
      <trkpt lat="43.35561" lon="-0.53198">
        <ele>135.80000305176</ele>
        <time>2025-08-12T07:50:04.000Z</time>
      </trkpt>
      <trkpt lat="43.35572" lon="-0.53247">
        <ele>135.60000610352</ele>
        <time>2025-08-12T07:50:11.000Z</time>
      </trkpt>
      <trkpt lat="43.35589" lon="-0.53293">
        <ele>135.60000610352</ele>
        <time>2025-08-12T07:50:18.000Z</time>
      </trkpt>
      <trkpt lat="43.35614" lon="-0.53341">
        <ele>135.19999694824</ele>
        <time>2025-08-12T07:50:26.000Z</time>
      </trkpt>
      <trkpt lat="43.35633" lon="-0.53377">
        <ele>135</ele>
        <time>2025-08-12T07:50:32.000Z</time>
      </trkpt>
      <trkpt lat="43.3564" lon="-0.53388">
        <ele>135</ele>
        <time>2025-08-12T07:50:34.000Z</time>
      </trkpt>
      <trkpt lat="43.35667" lon="-0.53437">
        <ele>134.60000610352</ele>
        <time>2025-08-12T07:50:43.000Z</time>
      </trkpt>
      <trkpt lat="43.35688" lon="-0.53482">
        <ele>134.80000305176</ele>
        <time>2025-08-12T07:50:51.000Z</time>
      </trkpt>
      <trkpt lat="43.35704" lon="-0.53534">
        <ele>134.80000305176</ele>
        <time>2025-08-12T07:50:59.000Z</time>
      </trkpt>
      <trkpt lat="43.35708" lon="-0.5359">
        <ele>134.39999389648</ele>
        <time>2025-08-12T07:51:07.000Z</time>
      </trkpt>
      <trkpt lat="43.35714" lon="-0.53654">
        <ele>134</ele>
        <time>2025-08-12T07:51:16.000Z</time>
      </trkpt>
      <trkpt lat="43.35715" lon="-0.53668">
        <ele>134</ele>
        <time>2025-08-12T07:51:18.000Z</time>
      </trkpt>
      <trkpt lat="43.35718" lon="-0.53702">
        <ele>133.80000305176</ele>
        <time>2025-08-12T07:51:23.000Z</time>
      </trkpt>
      <trkpt lat="43.35719" lon="-0.53709">
        <ele>133.80000305176</ele>
        <time>2025-08-12T07:51:24.000Z</time>
      </trkpt>
      <trkpt lat="43.35723" lon="-0.53723">
        <ele>133.80000305176</ele>
        <time>2025-08-12T07:51:26.000Z</time>
      </trkpt>
      <trkpt lat="43.35732" lon="-0.53741">
        <ele>133.60000610352</ele>
        <time>2025-08-12T07:51:29.000Z</time>
      </trkpt>
      <trkpt lat="43.35756" lon="-0.53785">
        <ele>133.60000610352</ele>
        <time>2025-08-12T07:51:37.000Z</time>
      </trkpt>
      <trkpt lat="43.3578" lon="-0.53828">
        <ele>133.80000305176</ele>
        <time>2025-08-12T07:51:45.000Z</time>
      </trkpt>
      <trkpt lat="43.35807" lon="-0.53865">
        <ele>133.80000305176</ele>
        <time>2025-08-12T07:51:52.000Z</time>
      </trkpt>
      <trkpt lat="43.35838" lon="-0.53906">
        <ele>133.60000610352</ele>
        <time>2025-08-12T07:52:00.000Z</time>
      </trkpt>
      <trkpt lat="43.35856" lon="-0.53936">
        <ele>133.60000610352</ele>
        <time>2025-08-12T07:52:05.000Z</time>
      </trkpt>
      <trkpt lat="43.35865" lon="-0.53956">
        <ele>133.39999389648</ele>
        <time>2025-08-12T07:52:08.000Z</time>
      </trkpt>
      <trkpt lat="43.35867" lon="-0.53963">
        <ele>133.39999389648</ele>
        <time>2025-08-12T07:52:09.000Z</time>
      </trkpt>
      <trkpt lat="43.35878" lon="-0.53999">
        <ele>133.39999389648</ele>
        <time>2025-08-12T07:52:14.000Z</time>
      </trkpt>
      <trkpt lat="43.35883" lon="-0.54021">
        <ele>133.19999694824</ele>
        <time>2025-08-12T07:52:17.000Z</time>
      </trkpt>
      <trkpt lat="43.35888" lon="-0.54051">
        <ele>133</ele>
        <time>2025-08-12T07:52:21.000Z</time>
      </trkpt>
      <trkpt lat="43.35894" lon="-0.54081">
        <ele>132.80000305176</ele>
        <time>2025-08-12T07:52:25.000Z</time>
      </trkpt>
      <trkpt lat="43.35898" lon="-0.54095">
        <ele>132.80000305176</ele>
        <time>2025-08-12T07:52:27.000Z</time>
      </trkpt>
      <trkpt lat="43.359" lon="-0.54101">
        <ele>132.80000305176</ele>
        <time>2025-08-12T07:52:28.000Z</time>
      </trkpt>
      <trkpt lat="43.3591" lon="-0.54121">
        <ele>132.80000305176</ele>
        <time>2025-08-12T07:52:32.000Z</time>
      </trkpt>
      <trkpt lat="43.35917" lon="-0.54128">
        <ele>132.80000305176</ele>
        <time>2025-08-12T07:52:34.000Z</time>
      </trkpt>
      <trkpt lat="43.3592" lon="-0.54131">
        <ele>132.80000305176</ele>
        <time>2025-08-12T07:52:35.000Z</time>
      </trkpt>
      <trkpt lat="43.35942" lon="-0.54147">
        <ele>132.60000610352</ele>
        <time>2025-08-12T07:52:40.000Z</time>
      </trkpt>
      <trkpt lat="43.35971" lon="-0.54177">
        <ele>132.39999389648</ele>
        <time>2025-08-12T07:52:47.000Z</time>
      </trkpt>
      <trkpt lat="43.3599" lon="-0.54206">
        <ele>132.19999694824</ele>
        <time>2025-08-12T07:52:52.000Z</time>
      </trkpt>
      <trkpt lat="43.35995" lon="-0.54212">
        <ele>132.19999694824</ele>
        <time>2025-08-12T07:52:53.000Z</time>
      </trkpt>
      <trkpt lat="43.35999" lon="-0.54217">
        <ele>132.19999694824</ele>
        <time>2025-08-12T07:52:54.000Z</time>
      </trkpt>
      <trkpt lat="43.36013" lon="-0.54239">
        <ele>132</ele>
        <time>2025-08-12T07:52:58.000Z</time>
      </trkpt>
      <trkpt lat="43.36016" lon="-0.54246">
        <ele>132</ele>
        <time>2025-08-12T07:52:59.000Z</time>
      </trkpt>
      <trkpt lat="43.36026" lon="-0.5427">
        <ele>132</ele>
        <time>2025-08-12T07:53:03.000Z</time>
      </trkpt>
      <trkpt lat="43.36033" lon="-0.54279">
        <ele>132.19999694824</ele>
        <time>2025-08-12T07:53:05.000Z</time>
      </trkpt>
      <trkpt lat="43.36057" lon="-0.54311">
        <ele>132.60000610352</ele>
        <time>2025-08-12T07:53:12.000Z</time>
      </trkpt>
      <trkpt lat="43.36061" lon="-0.54316">
        <ele>132.60000610352</ele>
        <time>2025-08-12T07:53:13.000Z</time>
      </trkpt>
      <trkpt lat="43.36078" lon="-0.54342">
        <ele>132.60000610352</ele>
        <time>2025-08-12T07:53:19.000Z</time>
      </trkpt>
      <trkpt lat="43.36089" lon="-0.5436">
        <ele>132.60000610352</ele>
        <time>2025-08-12T07:53:23.000Z</time>
      </trkpt>
      <trkpt lat="43.36098" lon="-0.54373">
        <ele>132.60000610352</ele>
        <time>2025-08-12T07:53:26.000Z</time>
      </trkpt>
      <trkpt lat="43.3613" lon="-0.54432">
        <ele>132.60000610352</ele>
        <time>2025-08-12T07:53:39.000Z</time>
      </trkpt>
      <trkpt lat="43.36145" lon="-0.5446">
        <ele>132.39999389648</ele>
        <time>2025-08-12T07:53:45.000Z</time>
      </trkpt>
      <trkpt lat="43.36151" lon="-0.5447">
        <ele>132.19999694824</ele>
        <time>2025-08-12T07:53:47.000Z</time>
      </trkpt>
      <trkpt lat="43.36154" lon="-0.54473">
        <ele>132.19999694824</ele>
        <time>2025-08-12T07:53:48.000Z</time>
      </trkpt>
      <trkpt lat="43.36165" lon="-0.54483">
        <ele>132.19999694824</ele>
        <time>2025-08-12T07:53:51.000Z</time>
      </trkpt>
      <trkpt lat="43.36172" lon="-0.5449">
        <ele>132</ele>
        <time>2025-08-12T07:53:53.000Z</time>
      </trkpt>
      <trkpt lat="43.36189" lon="-0.545">
        <ele>132</ele>
        <time>2025-08-12T07:53:57.000Z</time>
      </trkpt>
      <trkpt lat="43.36196" lon="-0.54509">
        <ele>132</ele>
        <time>2025-08-12T07:53:59.000Z</time>
      </trkpt>
      <trkpt lat="43.362" lon="-0.54522">
        <ele>132</ele>
        <time>2025-08-12T07:54:01.000Z</time>
      </trkpt>
      <trkpt lat="43.36204" lon="-0.54543">
        <ele>132</ele>
        <time>2025-08-12T07:54:05.000Z</time>
      </trkpt>
      <trkpt lat="43.36208" lon="-0.54578">
        <ele>132.39999389648</ele>
        <time>2025-08-12T07:54:12.000Z</time>
      </trkpt>
      <trkpt lat="43.3621" lon="-0.54614">
        <ele>133.19999694824</ele>
        <time>2025-08-12T07:54:18.000Z</time>
      </trkpt>
      <trkpt lat="43.3621" lon="-0.54627">
        <ele>133.19999694824</ele>
        <time>2025-08-12T07:54:20.000Z</time>
      </trkpt>
      <trkpt lat="43.36211" lon="-0.54642">
        <ele>133.19999694824</ele>
        <time>2025-08-12T07:54:22.000Z</time>
      </trkpt>
      <trkpt lat="43.36212" lon="-0.54647">
        <ele>133.19999694824</ele>
        <time>2025-08-12T07:54:23.000Z</time>
      </trkpt>
      <trkpt lat="43.36212" lon="-0.54654">
        <ele>133.19999694824</ele>
        <time>2025-08-12T07:54:24.000Z</time>
      </trkpt>
      <trkpt lat="43.36213" lon="-0.54687">
        <ele>132.60000610352</ele>
        <time>2025-08-12T07:54:28.000Z</time>
      </trkpt>
      <trkpt lat="43.36213" lon="-0.54719">
        <ele>132</ele>
        <time>2025-08-12T07:54:32.000Z</time>
      </trkpt>
      <trkpt lat="43.36216" lon="-0.54733">
        <ele>132</ele>
        <time>2025-08-12T07:54:34.000Z</time>
      </trkpt>
      <trkpt lat="43.36224" lon="-0.54778">
        <ele>131.80000305176</ele>
        <time>2025-08-12T07:54:41.000Z</time>
      </trkpt>
      <trkpt lat="43.36225" lon="-0.54784">
        <ele>131.80000305176</ele>
        <time>2025-08-12T07:54:42.000Z</time>
      </trkpt>
      <trkpt lat="43.36241" lon="-0.54828">
        <ele>132.19999694824</ele>
        <time>2025-08-12T07:54:49.000Z</time>
      </trkpt>
      <trkpt lat="43.36258" lon="-0.54867">
        <ele>132</ele>
        <time>2025-08-12T07:54:55.000Z</time>
      </trkpt>
      <trkpt lat="43.36259" lon="-0.54872">
        <ele>132</ele>
        <time>2025-08-12T07:54:56.000Z</time>
      </trkpt>
      <trkpt lat="43.36263" lon="-0.54889">
        <ele>132</ele>
        <time>2025-08-12T07:54:58.000Z</time>
      </trkpt>
      <trkpt lat="43.36265" lon="-0.54917">
        <ele>131.60000610352</ele>
        <time>2025-08-12T07:55:02.000Z</time>
      </trkpt>
      <trkpt lat="43.36265" lon="-0.54938">
        <ele>131.60000610352</ele>
        <time>2025-08-12T07:55:05.000Z</time>
      </trkpt>
      <trkpt lat="43.36264" lon="-0.54946">
        <ele>131.60000610352</ele>
        <time>2025-08-12T07:55:06.000Z</time>
      </trkpt>
      <trkpt lat="43.36263" lon="-0.54962">
        <ele>131.39999389648</ele>
        <time>2025-08-12T07:55:08.000Z</time>
      </trkpt>
      <trkpt lat="43.36262" lon="-0.55009">
        <ele>131.39999389648</ele>
        <time>2025-08-12T07:55:15.000Z</time>
      </trkpt>
      <trkpt lat="43.36263" lon="-0.55015">
        <ele>131.39999389648</ele>
        <time>2025-08-12T07:55:16.000Z</time>
      </trkpt>
      <trkpt lat="43.36264" lon="-0.5503">
        <ele>131.39999389648</ele>
        <time>2025-08-12T07:55:18.000Z</time>
      </trkpt>
      <trkpt lat="43.36274" lon="-0.55062">
        <ele>131.39999389648</ele>
        <time>2025-08-12T07:55:23.000Z</time>
      </trkpt>
      <trkpt lat="43.36284" lon="-0.55085">
        <ele>131.39999389648</ele>
        <time>2025-08-12T07:55:27.000Z</time>
      </trkpt>
      <trkpt lat="43.36292" lon="-0.55095">
        <ele>131.39999389648</ele>
        <time>2025-08-12T07:55:29.000Z</time>
      </trkpt>
      <trkpt lat="43.36321" lon="-0.5514">
        <ele>131.39999389648</ele>
        <time>2025-08-12T07:55:37.000Z</time>
      </trkpt>
      <trkpt lat="43.36344" lon="-0.55165">
        <ele>131.39999389648</ele>
        <time>2025-08-12T07:55:43.000Z</time>
      </trkpt>
      <trkpt lat="43.36364" lon="-0.55186">
        <ele>131.60000610352</ele>
        <time>2025-08-12T07:55:48.000Z</time>
      </trkpt>
      <trkpt lat="43.36369" lon="-0.55192">
        <ele>131.60000610352</ele>
        <time>2025-08-12T07:55:49.000Z</time>
      </trkpt>
      <trkpt lat="43.36403" lon="-0.55235">
        <ele>131.80000305176</ele>
        <time>2025-08-12T07:55:59.000Z</time>
      </trkpt>
      <trkpt lat="43.36407" lon="-0.55239">
        <ele>131.80000305176</ele>
        <time>2025-08-12T07:56:00.000Z</time>
      </trkpt>
      <trkpt lat="43.36426" lon="-0.5526">
        <ele>131.80000305176</ele>
        <time>2025-08-12T07:56:05.000Z</time>
      </trkpt>
      <trkpt lat="43.36463" lon="-0.55294">
        <ele>131.60000610352</ele>
        <time>2025-08-12T07:56:14.000Z</time>
      </trkpt>
      <trkpt lat="43.3649" lon="-0.55329">
        <ele>131.39999389648</ele>
        <time>2025-08-12T07:56:21.000Z</time>
      </trkpt>
      <trkpt lat="43.36493" lon="-0.55332">
        <ele>131.19999694824</ele>
        <time>2025-08-12T07:56:22.000Z</time>
      </trkpt>
      <trkpt lat="43.36501" lon="-0.55342">
        <ele>131</ele>
        <time>2025-08-12T07:56:24.000Z</time>
      </trkpt>
      <trkpt lat="43.36507" lon="-0.55352">
        <ele>130.80000305176</ele>
        <time>2025-08-12T07:56:26.000Z</time>
      </trkpt>
      <trkpt lat="43.36513" lon="-0.55366">
        <ele>130.80000305176</ele>
        <time>2025-08-12T07:56:28.000Z</time>
      </trkpt>
      <trkpt lat="43.36516" lon="-0.5537">
        <ele>130.60000610352</ele>
        <time>2025-08-12T07:56:29.000Z</time>
      </trkpt>
      <trkpt lat="43.3654" lon="-0.55417">
        <ele>130.39999389648</ele>
        <time>2025-08-12T07:56:37.000Z</time>
      </trkpt>
      <trkpt lat="43.36561" lon="-0.5546">
        <ele>130.60000610352</ele>
        <time>2025-08-12T07:56:45.000Z</time>
      </trkpt>
      <trkpt lat="43.36564" lon="-0.55465">
        <ele>130.60000610352</ele>
        <time>2025-08-12T07:56:46.000Z</time>
      </trkpt>
      <trkpt lat="43.36595" lon="-0.55526">
        <ele>130.80000305176</ele>
        <time>2025-08-12T07:56:57.000Z</time>
      </trkpt>
      <trkpt lat="43.36598" lon="-0.55533">
        <ele>130.80000305176</ele>
        <time>2025-08-12T07:56:58.000Z</time>
      </trkpt>
      <trkpt lat="43.36614" lon="-0.55567">
        <ele>130.80000305176</ele>
        <time>2025-08-12T07:57:04.000Z</time>
      </trkpt>
      <trkpt lat="43.36627" lon="-0.55594">
        <ele>130.80000305176</ele>
        <time>2025-08-12T07:57:09.000Z</time>
      </trkpt>
      <trkpt lat="43.36638" lon="-0.55616">
        <ele>131</ele>
        <time>2025-08-12T07:57:13.000Z</time>
      </trkpt>
      <trkpt lat="43.36663" lon="-0.55659">
        <ele>130.60000610352</ele>
        <time>2025-08-12T07:57:21.000Z</time>
      </trkpt>
      <trkpt lat="43.36685" lon="-0.55694">
        <ele>130.60000610352</ele>
        <time>2025-08-12T07:57:28.000Z</time>
      </trkpt>
      <trkpt lat="43.36688" lon="-0.55697">
        <ele>130.60000610352</ele>
        <time>2025-08-12T07:57:29.000Z</time>
      </trkpt>
      <trkpt lat="43.36714" lon="-0.55722">
        <ele>130.19999694824</ele>
        <time>2025-08-12T07:57:36.000Z</time>
      </trkpt>
      <trkpt lat="43.36722" lon="-0.55728">
        <ele>130</ele>
        <time>2025-08-12T07:57:38.000Z</time>
      </trkpt>
      <trkpt lat="43.36731" lon="-0.55734">
        <ele>129.80000305176</ele>
        <time>2025-08-12T07:57:40.000Z</time>
      </trkpt>
      <trkpt lat="43.36735" lon="-0.55737">
        <ele>129.80000305176</ele>
        <time>2025-08-12T07:57:41.000Z</time>
      </trkpt>
      <trkpt lat="43.3674" lon="-0.55742">
        <ele>129.60000610352</ele>
        <time>2025-08-12T07:57:42.000Z</time>
      </trkpt>
      <trkpt lat="43.36778" lon="-0.55773">
        <ele>129</ele>
        <time>2025-08-12T07:57:51.000Z</time>
      </trkpt>
      <trkpt lat="43.36817" lon="-0.55805">
        <ele>128.80000305176</ele>
        <time>2025-08-12T07:58:00.000Z</time>
      </trkpt>
      <trkpt lat="43.36823" lon="-0.5581">
        <ele>128.80000305176</ele>
        <time>2025-08-12T07:58:01.000Z</time>
      </trkpt>
      <trkpt lat="43.36844" lon="-0.55827">
        <ele>128.60000610352</ele>
        <time>2025-08-12T07:58:06.000Z</time>
      </trkpt>
      <trkpt lat="43.36849" lon="-0.55828">
        <ele>128.60000610352</ele>
        <time>2025-08-12T07:58:07.000Z</time>
      </trkpt>
      <trkpt lat="43.36854" lon="-0.55828">
        <ele>128.60000610352</ele>
        <time>2025-08-12T07:58:08.000Z</time>
      </trkpt>
      <trkpt lat="43.36863" lon="-0.55823">
        <ele>128.60000610352</ele>
        <time>2025-08-12T07:58:10.000Z</time>
      </trkpt>
      <trkpt lat="43.36866" lon="-0.55821">
        <ele>128.60000610352</ele>
        <time>2025-08-12T07:58:11.000Z</time>
      </trkpt>
      <trkpt lat="43.36871" lon="-0.55819">
        <ele>128.60000610352</ele>
        <time>2025-08-12T07:58:12.000Z</time>
      </trkpt>
      <trkpt lat="43.3688" lon="-0.5582">
        <ele>128.60000610352</ele>
        <time>2025-08-12T07:58:14.000Z</time>
      </trkpt>
      <trkpt lat="43.36889" lon="-0.55828">
        <ele>128.80000305176</ele>
        <time>2025-08-12T07:58:16.000Z</time>
      </trkpt>
      <trkpt lat="43.36895" lon="-0.55838">
        <ele>128.80000305176</ele>
        <time>2025-08-12T07:58:18.000Z</time>
      </trkpt>
      <trkpt lat="43.36907" lon="-0.5586">
        <ele>128.60000610352</ele>
        <time>2025-08-12T07:58:22.000Z</time>
      </trkpt>
      <trkpt lat="43.36915" lon="-0.55881">
        <ele>128.80000305176</ele>
        <time>2025-08-12T07:58:25.000Z</time>
      </trkpt>
      <trkpt lat="43.36926" lon="-0.55912">
        <ele>128.60000610352</ele>
        <time>2025-08-12T07:58:31.000Z</time>
      </trkpt>
      <trkpt lat="43.36927" lon="-0.55917">
        <ele>128.60000610352</ele>
        <time>2025-08-12T07:58:35.000Z</time>
      </trkpt>
      <trkpt lat="43.36927" lon="-0.55917">
        <ele>128.60000610352</ele>
        <time>2025-08-12T07:58:36.000Z</time>
      </trkpt>
      <trkpt lat="43.3693" lon="-0.55928">
        <ele>128.39999389648</ele>
        <time>2025-08-12T07:58:51.000Z</time>
      </trkpt>
      <trkpt lat="43.36933" lon="-0.55931">
        <ele>128.39999389648</ele>
        <time>2025-08-12T07:58:53.000Z</time>
      </trkpt>
      <trkpt lat="43.3694" lon="-0.55946">
        <ele>128.39999389648</ele>
        <time>2025-08-12T07:58:58.000Z</time>
      </trkpt>
      <trkpt lat="43.36953" lon="-0.5598">
        <ele>128.39999389648</ele>
        <time>2025-08-12T07:59:06.000Z</time>
      </trkpt>
      <trkpt lat="43.3697" lon="-0.56015">
        <ele>128.60000610352</ele>
        <time>2025-08-12T07:59:13.000Z</time>
      </trkpt>
      <trkpt lat="43.36993" lon="-0.56053">
        <ele>128.19999694824</ele>
        <time>2025-08-12T07:59:21.000Z</time>
      </trkpt>
      <trkpt lat="43.37013" lon="-0.56082">
        <ele>128</ele>
        <time>2025-08-12T07:59:27.000Z</time>
      </trkpt>
      <trkpt lat="43.37017" lon="-0.56089">
        <ele>128</ele>
        <time>2025-08-12T07:59:28.000Z</time>
      </trkpt>
      <trkpt lat="43.3704" lon="-0.56127">
        <ele>128</ele>
        <time>2025-08-12T07:59:36.000Z</time>
      </trkpt>
      <trkpt lat="43.37046" lon="-0.56136">
        <ele>127.80000305176</ele>
        <time>2025-08-12T07:59:38.000Z</time>
      </trkpt>
      <trkpt lat="43.37056" lon="-0.56156">
        <ele>128</ele>
        <time>2025-08-12T07:59:42.000Z</time>
      </trkpt>
      <trkpt lat="43.3706" lon="-0.56162">
        <ele>128</ele>
        <time>2025-08-12T07:59:43.000Z</time>
      </trkpt>
      <trkpt lat="43.37071" lon="-0.56189">
        <ele>128.19999694824</ele>
        <time>2025-08-12T07:59:48.000Z</time>
      </trkpt>
      <trkpt lat="43.37073" lon="-0.56197">
        <ele>128.19999694824</ele>
        <time>2025-08-12T07:59:49.000Z</time>
      </trkpt>
      <trkpt lat="43.37077" lon="-0.56217">
        <ele>128.39999389648</ele>
        <time>2025-08-12T07:59:52.000Z</time>
      </trkpt>
      <trkpt lat="43.37079" lon="-0.5624">
        <ele>128.39999389648</ele>
        <time>2025-08-12T07:59:55.000Z</time>
      </trkpt>
      <trkpt lat="43.37079" lon="-0.56298">
        <ele>128</ele>
        <time>2025-08-12T08:00:02.000Z</time>
      </trkpt>
      <trkpt lat="43.3708" lon="-0.56305">
        <ele>128</ele>
        <time>2025-08-12T08:00:03.000Z</time>
      </trkpt>
      <trkpt lat="43.37082" lon="-0.56324">
        <ele>127.80000305176</ele>
        <time>2025-08-12T08:00:05.000Z</time>
      </trkpt>
      <trkpt lat="43.37083" lon="-0.56339">
        <ele>127.80000305176</ele>
        <time>2025-08-12T08:00:07.000Z</time>
      </trkpt>
      <trkpt lat="43.37082" lon="-0.56404">
        <ele>127.40000152588</ele>
        <time>2025-08-12T08:00:15.000Z</time>
      </trkpt>
      <trkpt lat="43.37081" lon="-0.56414">
        <ele>127.40000152588</ele>
        <time>2025-08-12T08:00:16.000Z</time>
      </trkpt>
      <trkpt lat="43.37078" lon="-0.56445">
        <ele>127.40000152588</ele>
        <time>2025-08-12T08:00:20.000Z</time>
      </trkpt>
      <trkpt lat="43.37074" lon="-0.56476">
        <ele>127.19999694824</ele>
        <time>2025-08-12T08:00:24.000Z</time>
      </trkpt>
      <trkpt lat="43.3707" lon="-0.56518">
        <ele>127</ele>
        <time>2025-08-12T08:00:29.000Z</time>
      </trkpt>
      <trkpt lat="43.37071" lon="-0.56532">
        <ele>127</ele>
        <time>2025-08-12T08:00:31.000Z</time>
      </trkpt>
      <trkpt lat="43.37075" lon="-0.56555">
        <ele>127.19999694824</ele>
        <time>2025-08-12T08:00:34.000Z</time>
      </trkpt>
      <trkpt lat="43.37082" lon="-0.56576">
        <ele>127.19999694824</ele>
        <time>2025-08-12T08:00:37.000Z</time>
      </trkpt>
      <trkpt lat="43.37089" lon="-0.56589">
        <ele>127.19999694824</ele>
        <time>2025-08-12T08:00:39.000Z</time>
      </trkpt>
      <trkpt lat="43.37102" lon="-0.56607">
        <ele>127</ele>
        <time>2025-08-12T08:00:42.000Z</time>
      </trkpt>
      <trkpt lat="43.37111" lon="-0.56617">
        <ele>127</ele>
        <time>2025-08-12T08:00:44.000Z</time>
      </trkpt>
      <trkpt lat="43.37148" lon="-0.56651">
        <ele>126.59999847412</ele>
        <time>2025-08-12T08:00:52.000Z</time>
      </trkpt>
      <trkpt lat="43.37185" lon="-0.56696">
        <ele>126.40000152588</ele>
        <time>2025-08-12T08:01:01.000Z</time>
      </trkpt>
      <trkpt lat="43.37206" lon="-0.56723">
        <ele>126.40000152588</ele>
        <time>2025-08-12T08:01:06.000Z</time>
      </trkpt>
      <trkpt lat="43.37219" lon="-0.56738">
        <ele>126.19999694824</ele>
        <time>2025-08-12T08:01:09.000Z</time>
      </trkpt>
      <trkpt lat="43.37228" lon="-0.56748">
        <ele>126</ele>
        <time>2025-08-12T08:01:11.000Z</time>
      </trkpt>
      <trkpt lat="43.37236" lon="-0.56766">
        <ele>126</ele>
        <time>2025-08-12T08:01:14.000Z</time>
      </trkpt>
      <trkpt lat="43.3724" lon="-0.56779">
        <ele>126</ele>
        <time>2025-08-12T08:01:16.000Z</time>
      </trkpt>
      <trkpt lat="43.37243" lon="-0.56798">
        <ele>126.19999694824</ele>
        <time>2025-08-12T08:01:19.000Z</time>
      </trkpt>
      <trkpt lat="43.37244" lon="-0.56804">
        <ele>126.19999694824</ele>
        <time>2025-08-12T08:01:20.000Z</time>
      </trkpt>
      <trkpt lat="43.37252" lon="-0.56837">
        <ele>126.59999847412</ele>
        <time>2025-08-12T08:01:25.000Z</time>
      </trkpt>
      <trkpt lat="43.37266" lon="-0.5688">
        <ele>126.59999847412</ele>
        <time>2025-08-12T08:01:31.000Z</time>
      </trkpt>
      <trkpt lat="43.37283" lon="-0.56936">
        <ele>126.19999694824</ele>
        <time>2025-08-12T08:01:39.000Z</time>
      </trkpt>
      <trkpt lat="43.37294" lon="-0.56973">
        <ele>126.19999694824</ele>
        <time>2025-08-12T08:01:45.000Z</time>
      </trkpt>
      <trkpt lat="43.37299" lon="-0.56984">
        <ele>126.19999694824</ele>
        <time>2025-08-12T08:01:47.000Z</time>
      </trkpt>
      <trkpt lat="43.37306" lon="-0.56995">
        <ele>126.19999694824</ele>
        <time>2025-08-12T08:01:49.000Z</time>
      </trkpt>
      <trkpt lat="43.37313" lon="-0.57029">
        <ele>126.19999694824</ele>
        <time>2025-08-12T08:01:54.000Z</time>
      </trkpt>
      <trkpt lat="43.3732" lon="-0.57053">
        <ele>125.80000305176</ele>
        <time>2025-08-12T08:01:57.000Z</time>
      </trkpt>
      <trkpt lat="43.37326" lon="-0.57069">
        <ele>125.40000152588</ele>
        <time>2025-08-12T08:01:59.000Z</time>
      </trkpt>
      <trkpt lat="43.3733" lon="-0.57076">
        <ele>125.19999694824</ele>
        <time>2025-08-12T08:02:00.000Z</time>
      </trkpt>
      <trkpt lat="43.37351" lon="-0.57105">
        <ele>124.59999847412</ele>
        <time>2025-08-12T08:02:05.000Z</time>
      </trkpt>
      <trkpt lat="43.37377" lon="-0.57134">
        <ele>124.40000152588</ele>
        <time>2025-08-12T08:02:11.000Z</time>
      </trkpt>
      <trkpt lat="43.3742" lon="-0.57179">
        <ele>124.19999694824</ele>
        <time>2025-08-12T08:02:21.000Z</time>
      </trkpt>
      <trkpt lat="43.37462" lon="-0.57225">
        <ele>124.19999694824</ele>
        <time>2025-08-12T08:02:31.000Z</time>
      </trkpt>
      <trkpt lat="43.37487" lon="-0.57255">
        <ele>124.40000152588</ele>
        <time>2025-08-12T08:02:37.000Z</time>
      </trkpt>
      <trkpt lat="43.37491" lon="-0.57261">
        <ele>124.40000152588</ele>
        <time>2025-08-12T08:02:38.000Z</time>
      </trkpt>
      <trkpt lat="43.37508" lon="-0.5729">
        <ele>124.40000152588</ele>
        <time>2025-08-12T08:02:43.000Z</time>
      </trkpt>
      <trkpt lat="43.3752" lon="-0.57308">
        <ele>124.40000152588</ele>
        <time>2025-08-12T08:02:46.000Z</time>
      </trkpt>
      <trkpt lat="43.37558" lon="-0.5737">
        <ele>124.40000152588</ele>
        <time>2025-08-12T08:02:56.000Z</time>
      </trkpt>
      <trkpt lat="43.37591" lon="-0.57425">
        <ele>124.40000152588</ele>
        <time>2025-08-12T08:03:05.000Z</time>
      </trkpt>
      <trkpt lat="43.37616" lon="-0.57467">
        <ele>124.59999847412</ele>
        <time>2025-08-12T08:03:12.000Z</time>
      </trkpt>
      <trkpt lat="43.37652" lon="-0.57526">
        <ele>125</ele>
        <time>2025-08-12T08:03:22.000Z</time>
      </trkpt>
      <trkpt lat="43.37682" lon="-0.57574">
        <ele>124.80000305176</ele>
        <time>2025-08-12T08:03:30.000Z</time>
      </trkpt>
      <trkpt lat="43.37686" lon="-0.5758">
        <ele>124.80000305176</ele>
        <time>2025-08-12T08:03:31.000Z</time>
      </trkpt>
      <trkpt lat="43.37689" lon="-0.57587">
        <ele>124.80000305176</ele>
        <time>2025-08-12T08:03:32.000Z</time>
      </trkpt>
      <trkpt lat="43.377" lon="-0.57606">
        <ele>124.80000305176</ele>
        <time>2025-08-12T08:03:35.000Z</time>
      </trkpt>
      <trkpt lat="43.37724" lon="-0.57649">
        <ele>125</ele>
        <time>2025-08-12T08:03:42.000Z</time>
      </trkpt>
      <trkpt lat="43.37754" lon="-0.57701">
        <ele>124.80000305176</ele>
        <time>2025-08-12T08:03:50.000Z</time>
      </trkpt>
      <trkpt lat="43.37771" lon="-0.57751">
        <ele>124.59999847412</ele>
        <time>2025-08-12T08:03:57.000Z</time>
      </trkpt>
      <trkpt lat="43.37795" lon="-0.57824">
        <ele>124.40000152588</ele>
        <time>2025-08-12T08:04:07.000Z</time>
      </trkpt>
      <trkpt lat="43.37811" lon="-0.57872">
        <ele>124.59999847412</ele>
        <time>2025-08-12T08:04:14.000Z</time>
      </trkpt>
      <trkpt lat="43.37834" lon="-0.57939">
        <ele>124.59999847412</ele>
        <time>2025-08-12T08:04:24.000Z</time>
      </trkpt>
      <trkpt lat="43.37836" lon="-0.57946">
        <ele>124.59999847412</ele>
        <time>2025-08-12T08:04:25.000Z</time>
      </trkpt>
      <trkpt lat="43.37854" lon="-0.58">
        <ele>124.59999847412</ele>
        <time>2025-08-12T08:04:33.000Z</time>
      </trkpt>
      <trkpt lat="43.37865" lon="-0.58035">
        <ele>124.59999847412</ele>
        <time>2025-08-12T08:04:38.000Z</time>
      </trkpt>
      <trkpt lat="43.37872" lon="-0.58057">
        <ele>124.59999847412</ele>
        <time>2025-08-12T08:04:41.000Z</time>
      </trkpt>
      <trkpt lat="43.37887" lon="-0.58098">
        <ele>124.40000152588</ele>
        <time>2025-08-12T08:04:47.000Z</time>
      </trkpt>
      <trkpt lat="43.37892" lon="-0.58112">
        <ele>124.19999694824</ele>
        <time>2025-08-12T08:04:49.000Z</time>
      </trkpt>
      <trkpt lat="43.37912" lon="-0.58174">
        <ele>124</ele>
        <time>2025-08-12T08:04:58.000Z</time>
      </trkpt>
      <trkpt lat="43.37936" lon="-0.58244">
        <ele>124</ele>
        <time>2025-08-12T08:05:08.000Z</time>
      </trkpt>
      <trkpt lat="43.37951" lon="-0.58287">
        <ele>123.80000305176</ele>
        <time>2025-08-12T08:05:14.000Z</time>
      </trkpt>
      <trkpt lat="43.37958" lon="-0.583">
        <ele>123.80000305176</ele>
        <time>2025-08-12T08:05:16.000Z</time>
      </trkpt>
      <trkpt lat="43.37981" lon="-0.58326">
        <ele>123.40000152588</ele>
        <time>2025-08-12T08:05:21.000Z</time>
      </trkpt>
      <trkpt lat="43.37986" lon="-0.5833">
        <ele>123.40000152588</ele>
        <time>2025-08-12T08:05:22.000Z</time>
      </trkpt>
      <trkpt lat="43.37991" lon="-0.58334">
        <ele>123.40000152588</ele>
        <time>2025-08-12T08:05:23.000Z</time>
      </trkpt>
      <trkpt lat="43.38008" lon="-0.58341">
        <ele>123.40000152588</ele>
        <time>2025-08-12T08:05:26.000Z</time>
      </trkpt>
      <trkpt lat="43.38054" lon="-0.58357">
        <ele>123.19999694824</ele>
        <time>2025-08-12T08:05:34.000Z</time>
      </trkpt>
      <trkpt lat="43.38084" lon="-0.58381">
        <ele>123.19999694824</ele>
        <time>2025-08-12T08:05:40.000Z</time>
      </trkpt>
      <trkpt lat="43.38114" lon="-0.58417">
        <ele>123</ele>
        <time>2025-08-12T08:05:47.000Z</time>
      </trkpt>
      <trkpt lat="43.38148" lon="-0.5846">
        <ele>123</ele>
        <time>2025-08-12T08:05:55.000Z</time>
      </trkpt>
      <trkpt lat="43.38173" lon="-0.58491">
        <ele>122.59999847412</ele>
        <time>2025-08-12T08:06:01.000Z</time>
      </trkpt>
      <trkpt lat="43.38203" lon="-0.58524">
        <ele>122.80000305176</ele>
        <time>2025-08-12T08:06:08.000Z</time>
      </trkpt>
      <trkpt lat="43.38237" lon="-0.58565">
        <ele>122.59999847412</ele>
        <time>2025-08-12T08:06:16.000Z</time>
      </trkpt>
      <trkpt lat="43.38249" lon="-0.58581">
        <ele>122.59999847412</ele>
        <time>2025-08-12T08:06:19.000Z</time>
      </trkpt>
      <trkpt lat="43.38276" lon="-0.5862">
        <ele>122.19999694824</ele>
        <time>2025-08-12T08:06:26.000Z</time>
      </trkpt>
      <trkpt lat="43.38316" lon="-0.58678">
        <ele>122.40000152588</ele>
        <time>2025-08-12T08:06:37.000Z</time>
      </trkpt>
      <trkpt lat="43.38343" lon="-0.58718">
        <ele>122.40000152588</ele>
        <time>2025-08-12T08:06:45.000Z</time>
      </trkpt>
      <trkpt lat="43.38373" lon="-0.58759">
        <ele>122.40000152588</ele>
        <time>2025-08-12T08:06:53.000Z</time>
      </trkpt>
      <trkpt lat="43.38393" lon="-0.58776">
        <ele>122.40000152588</ele>
        <time>2025-08-12T08:06:58.000Z</time>
      </trkpt>
      <trkpt lat="43.38398" lon="-0.58779">
        <ele>122.40000152588</ele>
        <time>2025-08-12T08:06:59.000Z</time>
      </trkpt>
      <trkpt lat="43.38408" lon="-0.58782">
        <ele>122.40000152588</ele>
        <time>2025-08-12T08:07:01.000Z</time>
      </trkpt>
      <trkpt lat="43.3842" lon="-0.58783">
        <ele>122.40000152588</ele>
        <time>2025-08-12T08:07:03.000Z</time>
      </trkpt>
      <trkpt lat="43.38446" lon="-0.58777">
        <ele>122.19999694824</ele>
        <time>2025-08-12T08:07:08.000Z</time>
      </trkpt>
      <trkpt lat="43.38451" lon="-0.58774">
        <ele>122.19999694824</ele>
        <time>2025-08-12T08:07:09.000Z</time>
      </trkpt>
      <trkpt lat="43.38466" lon="-0.58762">
        <ele>122.19999694824</ele>
        <time>2025-08-12T08:07:12.000Z</time>
      </trkpt>
      <trkpt lat="43.38472" lon="-0.58754">
        <ele>122.40000152588</ele>
        <time>2025-08-12T08:07:14.000Z</time>
      </trkpt>
      <trkpt lat="43.38476" lon="-0.58748">
        <ele>122.40000152588</ele>
        <time>2025-08-12T08:07:15.000Z</time>
      </trkpt>
      <trkpt lat="43.38494" lon="-0.5872">
        <ele>122.40000152588</ele>
        <time>2025-08-12T08:07:21.000Z</time>
      </trkpt>
      <trkpt lat="43.38503" lon="-0.58721">
        <ele>122.40000152588</ele>
        <time>2025-08-12T08:07:24.000Z</time>
      </trkpt>
      <trkpt lat="43.38509" lon="-0.58731">
        <ele>122.19999694824</ele>
        <time>2025-08-12T08:07:27.000Z</time>
      </trkpt>
      <trkpt lat="43.38509" lon="-0.58737">
        <ele>122</ele>
        <time>2025-08-12T08:07:28.000Z</time>
      </trkpt>
      <trkpt lat="43.38507" lon="-0.58743">
        <ele>122</ele>
        <time>2025-08-12T08:07:29.000Z</time>
      </trkpt>
      <trkpt lat="43.38501" lon="-0.58754">
        <ele>121.80000305176</ele>
        <time>2025-08-12T08:07:31.000Z</time>
      </trkpt>
      <trkpt lat="43.38497" lon="-0.58759">
        <ele>121.80000305176</ele>
        <time>2025-08-12T08:07:32.000Z</time>
      </trkpt>
      <trkpt lat="43.38488" lon="-0.5877">
        <ele>121.59999847412</ele>
        <time>2025-08-12T08:07:34.000Z</time>
      </trkpt>
      <trkpt lat="43.38473" lon="-0.58785">
        <ele>120.80000305176</ele>
        <time>2025-08-12T08:07:37.000Z</time>
      </trkpt>
      <trkpt lat="43.38461" lon="-0.58799">
        <ele>120.40000152588</ele>
        <time>2025-08-12T08:07:40.000Z</time>
      </trkpt>
      <trkpt lat="43.38452" lon="-0.58809">
        <ele>120.59999847412</ele>
        <time>2025-08-12T08:07:42.000Z</time>
      </trkpt>
      <trkpt lat="43.38444" lon="-0.58818">
        <ele>120.40000152588</ele>
        <time>2025-08-12T08:07:44.000Z</time>
      </trkpt>
      <trkpt lat="43.38425" lon="-0.58849">
        <ele>120.19999694824</ele>
        <time>2025-08-12T08:07:50.000Z</time>
      </trkpt>
      <trkpt lat="43.38421" lon="-0.58856">
        <ele>120.40000152588</ele>
        <time>2025-08-12T08:07:51.000Z</time>
      </trkpt>
      <trkpt lat="43.38419" lon="-0.58863">
        <ele>120.40000152588</ele>
        <time>2025-08-12T08:07:52.000Z</time>
      </trkpt>
      <trkpt lat="43.38419" lon="-0.58875">
        <ele>120.40000152588</ele>
        <time>2025-08-12T08:07:54.000Z</time>
      </trkpt>
      <trkpt lat="43.38425" lon="-0.58883">
        <ele>120.40000152588</ele>
        <time>2025-08-12T08:07:56.000Z</time>
      </trkpt>
      <trkpt lat="43.38429" lon="-0.58887">
        <ele>120.59999847412</ele>
        <time>2025-08-12T08:07:57.000Z</time>
      </trkpt>
      <trkpt lat="43.38469" lon="-0.58919">
        <ele>120.59999847412</ele>
        <time>2025-08-12T08:08:06.000Z</time>
      </trkpt>
      <trkpt lat="43.38497" lon="-0.58943">
        <ele>120.40000152588</ele>
        <time>2025-08-12T08:08:12.000Z</time>
      </trkpt>
      <trkpt lat="43.38503" lon="-0.58946">
        <ele>120.40000152588</ele>
        <time>2025-08-12T08:08:13.000Z</time>
      </trkpt>
      <trkpt lat="43.38513" lon="-0.58953">
        <ele>120.19999694824</ele>
        <time>2025-08-12T08:08:15.000Z</time>
      </trkpt>
      <trkpt lat="43.38517" lon="-0.58964">
        <ele>120.19999694824</ele>
        <time>2025-08-12T08:08:17.000Z</time>
      </trkpt>
      <trkpt lat="43.38518" lon="-0.58976">
        <ele>120.19999694824</ele>
        <time>2025-08-12T08:08:20.000Z</time>
      </trkpt>
      <trkpt lat="43.3852" lon="-0.58977">
        <ele>120.40000152588</ele>
        <time>2025-08-12T08:08:24.000Z</time>
      </trkpt>
      <trkpt lat="43.38524" lon="-0.58974">
        <ele>120.40000152588</ele>
        <time>2025-08-12T08:08:27.000Z</time>
      </trkpt>
      <trkpt lat="43.38527" lon="-0.58967">
        <ele>120.40000152588</ele>
        <time>2025-08-12T08:08:29.000Z</time>
      </trkpt>
      <trkpt lat="43.38533" lon="-0.5897">
        <ele>120.40000152588</ele>
        <time>2025-08-12T08:08:31.000Z</time>
      </trkpt>
      <trkpt lat="43.38534" lon="-0.58974">
        <ele>120.40000152588</ele>
        <time>2025-08-12T08:08:32.000Z</time>
      </trkpt>
      <trkpt lat="43.38538" lon="-0.59016">
        <ele>120.40000152588</ele>
        <time>2025-08-12T08:08:39.000Z</time>
      </trkpt>
      <trkpt lat="43.38543" lon="-0.59074">
        <ele>120.19999694824</ele>
        <time>2025-08-12T08:08:47.000Z</time>
      </trkpt>
      <trkpt lat="43.38544" lon="-0.59124">
        <ele>120</ele>
        <time>2025-08-12T08:08:54.000Z</time>
      </trkpt>
      <trkpt lat="43.38539" lon="-0.59166">
        <ele>120</ele>
        <time>2025-08-12T08:09:00.000Z</time>
      </trkpt>
      <trkpt lat="43.3854" lon="-0.5918">
        <ele>120</ele>
        <time>2025-08-12T08:09:02.000Z</time>
      </trkpt>
      <trkpt lat="43.38545" lon="-0.59196">
        <ele>120</ele>
        <time>2025-08-12T08:09:04.000Z</time>
      </trkpt>
      <trkpt lat="43.38559" lon="-0.59211">
        <ele>120</ele>
        <time>2025-08-12T08:09:07.000Z</time>
      </trkpt>
      <trkpt lat="43.3859" lon="-0.59241">
        <ele>119.80000305176</ele>
        <time>2025-08-12T08:09:14.000Z</time>
      </trkpt>
      <trkpt lat="43.38615" lon="-0.59276">
        <ele>119.80000305176</ele>
        <time>2025-08-12T08:09:21.000Z</time>
      </trkpt>
      <trkpt lat="43.3864" lon="-0.59326">
        <ele>119.59999847412</ele>
        <time>2025-08-12T08:09:29.000Z</time>
      </trkpt>
      <trkpt lat="43.38643" lon="-0.59333">
        <ele>119.59999847412</ele>
        <time>2025-08-12T08:09:30.000Z</time>
      </trkpt>
      <trkpt lat="43.38659" lon="-0.59364">
        <ele>119.40000152588</ele>
        <time>2025-08-12T08:09:35.000Z</time>
      </trkpt>
      <trkpt lat="43.38682" lon="-0.59399">
        <ele>119.40000152588</ele>
        <time>2025-08-12T08:09:41.000Z</time>
      </trkpt>
      <trkpt lat="43.38686" lon="-0.59402">
        <ele>119.40000152588</ele>
        <time>2025-08-12T08:09:42.000Z</time>
      </trkpt>
      <trkpt lat="43.38697" lon="-0.59411">
        <ele>119.19999694824</ele>
        <time>2025-08-12T08:09:44.000Z</time>
      </trkpt>
      <trkpt lat="43.38712" lon="-0.59418">
        <ele>119.19999694824</ele>
        <time>2025-08-12T08:09:47.000Z</time>
      </trkpt>
      <trkpt lat="43.38756" lon="-0.59439">
        <ele>119.59999847412</ele>
        <time>2025-08-12T08:09:55.000Z</time>
      </trkpt>
      <trkpt lat="43.38783" lon="-0.59455">
        <ele>119.59999847412</ele>
        <time>2025-08-12T08:10:00.000Z</time>
      </trkpt>
      <trkpt lat="43.38792" lon="-0.59462">
        <ele>119.59999847412</ele>
        <time>2025-08-12T08:10:02.000Z</time>
      </trkpt>
      <trkpt lat="43.38831" lon="-0.59493">
        <ele>119.19999694824</ele>
        <time>2025-08-12T08:10:10.000Z</time>
      </trkpt>
      <trkpt lat="43.38865" lon="-0.59523">
        <ele>119</ele>
        <time>2025-08-12T08:10:17.000Z</time>
      </trkpt>
      <trkpt lat="43.3887" lon="-0.59529">
        <ele>118.80000305176</ele>
        <time>2025-08-12T08:10:18.000Z</time>
      </trkpt>
      <trkpt lat="43.38882" lon="-0.59554">
        <ele>118.59999847412</ele>
        <time>2025-08-12T08:10:22.000Z</time>
      </trkpt>
      <trkpt lat="43.38885" lon="-0.59559">
        <ele>118.59999847412</ele>
        <time>2025-08-12T08:10:23.000Z</time>
      </trkpt>
      <trkpt lat="43.38893" lon="-0.59587">
        <ele>118.59999847412</ele>
        <time>2025-08-12T08:10:27.000Z</time>
      </trkpt>
      <trkpt lat="43.3891" lon="-0.59647">
        <ele>118.19999694824</ele>
        <time>2025-08-12T08:10:35.000Z</time>
      </trkpt>
      <trkpt lat="43.38927" lon="-0.59676">
        <ele>118.19999694824</ele>
        <time>2025-08-12T08:10:40.000Z</time>
      </trkpt>
      <trkpt lat="43.38931" lon="-0.59681">
        <ele>118.19999694824</ele>
        <time>2025-08-12T08:10:41.000Z</time>
      </trkpt>
      <trkpt lat="43.38953" lon="-0.59705">
        <ele>117.80000305176</ele>
        <time>2025-08-12T08:10:46.000Z</time>
      </trkpt>
      <trkpt lat="43.38958" lon="-0.5971">
        <ele>117.59999847412</ele>
        <time>2025-08-12T08:10:47.000Z</time>
      </trkpt>
      <trkpt lat="43.38966" lon="-0.59719">
        <ele>117.40000152588</ele>
        <time>2025-08-12T08:10:49.000Z</time>
      </trkpt>
      <trkpt lat="43.38974" lon="-0.59726">
        <ele>117.40000152588</ele>
        <time>2025-08-12T08:10:51.000Z</time>
      </trkpt>
      <trkpt lat="43.3899" lon="-0.59734">
        <ele>117.19999694824</ele>
        <time>2025-08-12T08:10:54.000Z</time>
      </trkpt>
      <trkpt lat="43.38995" lon="-0.59736">
        <ele>117</ele>
        <time>2025-08-12T08:10:55.000Z</time>
      </trkpt>
      <trkpt lat="43.39004" lon="-0.59743">
        <ele>117</ele>
        <time>2025-08-12T08:10:57.000Z</time>
      </trkpt>
      <trkpt lat="43.39013" lon="-0.59752">
        <ele>116.80000305176</ele>
        <time>2025-08-12T08:10:59.000Z</time>
      </trkpt>
      <trkpt lat="43.39027" lon="-0.59768">
        <ele>116.80000305176</ele>
        <time>2025-08-12T08:11:03.000Z</time>
      </trkpt>
      <trkpt lat="43.39034" lon="-0.5978">
        <ele>116.80000305176</ele>
        <time>2025-08-12T08:11:05.000Z</time>
      </trkpt>
      <trkpt lat="43.39036" lon="-0.59785">
        <ele>116.80000305176</ele>
        <time>2025-08-12T08:11:06.000Z</time>
      </trkpt>
      <trkpt lat="43.39039" lon="-0.59792">
        <ele>116.80000305176</ele>
        <time>2025-08-12T08:11:07.000Z</time>
      </trkpt>
      <trkpt lat="43.39042" lon="-0.59819">
        <ele>116.80000305176</ele>
        <time>2025-08-12T08:11:11.000Z</time>
      </trkpt>
      <trkpt lat="43.39052" lon="-0.59875">
        <ele>117.19999694824</ele>
        <time>2025-08-12T08:11:20.000Z</time>
      </trkpt>
      <trkpt lat="43.39056" lon="-0.59893">
        <ele>117.40000152588</ele>
        <time>2025-08-12T08:11:23.000Z</time>
      </trkpt>
      <trkpt lat="43.39063" lon="-0.59915">
        <ele>117.59999847412</ele>
        <time>2025-08-12T08:11:27.000Z</time>
      </trkpt>
      <trkpt lat="43.39067" lon="-0.59934">
        <ele>117.59999847412</ele>
        <time>2025-08-12T08:11:30.000Z</time>
      </trkpt>
      <trkpt lat="43.39073" lon="-0.59954">
        <ele>117.40000152588</ele>
        <time>2025-08-12T08:11:33.000Z</time>
      </trkpt>
      <trkpt lat="43.39094" lon="-0.60008">
        <ele>117.40000152588</ele>
        <time>2025-08-12T08:11:42.000Z</time>
      </trkpt>
      <trkpt lat="43.39097" lon="-0.60014">
        <ele>117.40000152588</ele>
        <time>2025-08-12T08:11:43.000Z</time>
      </trkpt>
      <trkpt lat="43.39105" lon="-0.60032">
        <ele>117.40000152588</ele>
        <time>2025-08-12T08:11:46.000Z</time>
      </trkpt>
      <trkpt lat="43.39107" lon="-0.60038">
        <ele>117.40000152588</ele>
        <time>2025-08-12T08:11:47.000Z</time>
      </trkpt>
      <trkpt lat="43.39113" lon="-0.60055">
        <ele>117.40000152588</ele>
        <time>2025-08-12T08:11:50.000Z</time>
      </trkpt>
      <trkpt lat="43.39119" lon="-0.60075">
        <ele>117.40000152588</ele>
        <time>2025-08-12T08:11:53.000Z</time>
      </trkpt>
      <trkpt lat="43.39127" lon="-0.60112">
        <ele>117.59999847412</ele>
        <time>2025-08-12T08:11:59.000Z</time>
      </trkpt>
      <trkpt lat="43.39128" lon="-0.60126">
        <ele>117.59999847412</ele>
        <time>2025-08-12T08:12:01.000Z</time>
      </trkpt>
      <trkpt lat="43.39127" lon="-0.60139">
        <ele>117.59999847412</ele>
        <time>2025-08-12T08:12:03.000Z</time>
      </trkpt>
      <trkpt lat="43.3912" lon="-0.60172">
        <ele>117.59999847412</ele>
        <time>2025-08-12T08:12:08.000Z</time>
      </trkpt>
      <trkpt lat="43.39117" lon="-0.60184">
        <ele>117.59999847412</ele>
        <time>2025-08-12T08:12:10.000Z</time>
      </trkpt>
      <trkpt lat="43.39114" lon="-0.60196">
        <ele>117.59999847412</ele>
        <time>2025-08-12T08:12:12.000Z</time>
      </trkpt>
      <trkpt lat="43.39106" lon="-0.60227">
        <ele>117.59999847412</ele>
        <time>2025-08-12T08:12:17.000Z</time>
      </trkpt>
      <trkpt lat="43.39089" lon="-0.60303">
        <ele>117.19999694824</ele>
        <time>2025-08-12T08:12:29.000Z</time>
      </trkpt>
      <trkpt lat="43.3908" lon="-0.60342">
        <ele>117.19999694824</ele>
        <time>2025-08-12T08:12:35.000Z</time>
      </trkpt>
      <trkpt lat="43.39074" lon="-0.60361">
        <ele>117.19999694824</ele>
        <time>2025-08-12T08:12:38.000Z</time>
      </trkpt>
      <trkpt lat="43.39068" lon="-0.60379">
        <ele>117.19999694824</ele>
        <time>2025-08-12T08:12:41.000Z</time>
      </trkpt>
      <trkpt lat="43.3906" lon="-0.60406">
        <ele>117.19999694824</ele>
        <time>2025-08-12T08:12:45.000Z</time>
      </trkpt>
      <trkpt lat="43.39045" lon="-0.60449">
        <ele>117.19999694824</ele>
        <time>2025-08-12T08:12:52.000Z</time>
      </trkpt>
      <trkpt lat="43.39033" lon="-0.605">
        <ele>117.19999694824</ele>
        <time>2025-08-12T08:13:00.000Z</time>
      </trkpt>
      <trkpt lat="43.39026" lon="-0.60548">
        <ele>117.19999694824</ele>
        <time>2025-08-12T08:13:07.000Z</time>
      </trkpt>
      <trkpt lat="43.3902" lon="-0.60609">
        <ele>117.19999694824</ele>
        <time>2025-08-12T08:13:16.000Z</time>
      </trkpt>
      <trkpt lat="43.39016" lon="-0.60658">
        <ele>117.40000152588</ele>
        <time>2025-08-12T08:13:23.000Z</time>
      </trkpt>
      <trkpt lat="43.39014" lon="-0.60685">
        <ele>117.19999694824</ele>
        <time>2025-08-12T08:13:27.000Z</time>
      </trkpt>
      <trkpt lat="43.39011" lon="-0.60715">
        <ele>117.19999694824</ele>
        <time>2025-08-12T08:13:31.000Z</time>
      </trkpt>
      <trkpt lat="43.3901" lon="-0.60724">
        <ele>117.19999694824</ele>
        <time>2025-08-12T08:13:32.000Z</time>
      </trkpt>
      <trkpt lat="43.39002" lon="-0.60784">
        <ele>116.80000305176</ele>
        <time>2025-08-12T08:13:40.000Z</time>
      </trkpt>
      <trkpt lat="43.38998" lon="-0.60814">
        <ele>116.59999847412</ele>
        <time>2025-08-12T08:13:44.000Z</time>
      </trkpt>
      <trkpt lat="43.38998" lon="-0.60832">
        <ele>116.40000152588</ele>
        <time>2025-08-12T08:13:46.000Z</time>
      </trkpt>
      <trkpt lat="43.38997" lon="-0.6084">
        <ele>116.40000152588</ele>
        <time>2025-08-12T08:13:47.000Z</time>
      </trkpt>
      <trkpt lat="43.3899" lon="-0.60886">
        <ele>116</ele>
        <time>2025-08-12T08:13:53.000Z</time>
      </trkpt>
      <trkpt lat="43.38984" lon="-0.60908">
        <ele>116.19999694824</ele>
        <time>2025-08-12T08:13:56.000Z</time>
      </trkpt>
      <trkpt lat="43.38975" lon="-0.60966">
        <ele>116.19999694824</ele>
        <time>2025-08-12T08:14:04.000Z</time>
      </trkpt>
      <trkpt lat="43.38973" lon="-0.60992">
        <ele>116</ele>
        <time>2025-08-12T08:14:09.000Z</time>
      </trkpt>
      <trkpt lat="43.38973" lon="-0.60994">
        <ele>116</ele>
        <time>2025-08-12T08:14:12.000Z</time>
      </trkpt>
      <trkpt lat="43.38975" lon="-0.61003">
        <ele>115.59999847412</ele>
        <time>2025-08-12T08:14:23.000Z</time>
      </trkpt>
      <trkpt lat="43.38974" lon="-0.61011">
        <ele>115.59999847412</ele>
        <time>2025-08-12T08:14:25.000Z</time>
      </trkpt>
      <trkpt lat="43.38973" lon="-0.61017">
        <ele>116</ele>
        <time>2025-08-12T08:14:26.000Z</time>
      </trkpt>
      <trkpt lat="43.38973" lon="-0.6104">
        <ele>116</ele>
        <time>2025-08-12T08:14:30.000Z</time>
      </trkpt>
      <trkpt lat="43.38974" lon="-0.61095">
        <ele>116.19999694824</ele>
        <time>2025-08-12T08:14:38.000Z</time>
      </trkpt>
      <trkpt lat="43.38974" lon="-0.61109">
        <ele>116.19999694824</ele>
        <time>2025-08-12T08:14:40.000Z</time>
      </trkpt>
      <trkpt lat="43.38975" lon="-0.61122">
        <ele>116.19999694824</ele>
        <time>2025-08-12T08:14:42.000Z</time>
      </trkpt>
      <trkpt lat="43.38977" lon="-0.61129">
        <ele>116.19999694824</ele>
        <time>2025-08-12T08:14:43.000Z</time>
      </trkpt>
      <trkpt lat="43.38987" lon="-0.6117">
        <ele>116</ele>
        <time>2025-08-12T08:14:49.000Z</time>
      </trkpt>
      <trkpt lat="43.38988" lon="-0.61179">
        <ele>116</ele>
        <time>2025-08-12T08:14:50.000Z</time>
      </trkpt>
      <trkpt lat="43.38988" lon="-0.61201">
        <ele>116</ele>
        <time>2025-08-12T08:14:53.000Z</time>
      </trkpt>
      <trkpt lat="43.38987" lon="-0.61208">
        <ele>116</ele>
        <time>2025-08-12T08:14:54.000Z</time>
      </trkpt>
      <trkpt lat="43.38985" lon="-0.61214">
        <ele>116</ele>
        <time>2025-08-12T08:14:55.000Z</time>
      </trkpt>
      <trkpt lat="43.38975" lon="-0.61242">
        <ele>116</ele>
        <time>2025-08-12T08:14:59.000Z</time>
      </trkpt>
      <trkpt lat="43.38956" lon="-0.61268">
        <ele>115.80000305176</ele>
        <time>2025-08-12T08:15:04.000Z</time>
      </trkpt>
      <trkpt lat="43.38938" lon="-0.61288">
        <ele>115.80000305176</ele>
        <time>2025-08-12T08:15:08.000Z</time>
      </trkpt>
      <trkpt lat="43.38933" lon="-0.61299">
        <ele>115.80000305176</ele>
        <time>2025-08-12T08:15:10.000Z</time>
      </trkpt>
      <trkpt lat="43.38915" lon="-0.61328">
        <ele>115.59999847412</ele>
        <time>2025-08-12T08:15:15.000Z</time>
      </trkpt>
      <trkpt lat="43.38908" lon="-0.61337">
        <ele>115.59999847412</ele>
        <time>2025-08-12T08:15:17.000Z</time>
      </trkpt>
      <trkpt lat="43.38885" lon="-0.61367">
        <ele>115.40000152588</ele>
        <time>2025-08-12T08:15:23.000Z</time>
      </trkpt>
      <trkpt lat="43.38882" lon="-0.61373">
        <ele>115.19999694824</ele>
        <time>2025-08-12T08:15:24.000Z</time>
      </trkpt>
      <trkpt lat="43.38861" lon="-0.61412">
        <ele>115</ele>
        <time>2025-08-12T08:15:31.000Z</time>
      </trkpt>
      <trkpt lat="43.38856" lon="-0.61431">
        <ele>114.80000305176</ele>
        <time>2025-08-12T08:15:34.000Z</time>
      </trkpt>
      <trkpt lat="43.38856" lon="-0.61438">
        <ele>114.80000305176</ele>
        <time>2025-08-12T08:15:35.000Z</time>
      </trkpt>
      <trkpt lat="43.38853" lon="-0.61475">
        <ele>114.40000152588</ele>
        <time>2025-08-12T08:15:40.000Z</time>
      </trkpt>
      <trkpt lat="43.38853" lon="-0.61482">
        <ele>114.40000152588</ele>
        <time>2025-08-12T08:15:41.000Z</time>
      </trkpt>
      <trkpt lat="43.38852" lon="-0.61489">
        <ele>114.19999694824</ele>
        <time>2025-08-12T08:15:42.000Z</time>
      </trkpt>
      <trkpt lat="43.38848" lon="-0.61509">
        <ele>114.19999694824</ele>
        <time>2025-08-12T08:15:45.000Z</time>
      </trkpt>
      <trkpt lat="43.3885" lon="-0.61521">
        <ele>114.19999694824</ele>
        <time>2025-08-12T08:15:47.000Z</time>
      </trkpt>
      <trkpt lat="43.38865" lon="-0.61551">
        <ele>114.19999694824</ele>
        <time>2025-08-12T08:15:52.000Z</time>
      </trkpt>
      <trkpt lat="43.38883" lon="-0.61588">
        <ele>114.19999694824</ele>
        <time>2025-08-12T08:15:58.000Z</time>
      </trkpt>
      <trkpt lat="43.38887" lon="-0.61596">
        <ele>114</ele>
        <time>2025-08-12T08:15:59.000Z</time>
      </trkpt>
      <trkpt lat="43.38891" lon="-0.616">
        <ele>114</ele>
        <time>2025-08-12T08:16:00.000Z</time>
      </trkpt>
      <trkpt lat="43.38904" lon="-0.61612">
        <ele>114</ele>
        <time>2025-08-12T08:16:03.000Z</time>
      </trkpt>
      <trkpt lat="43.38911" lon="-0.61617">
        <ele>114</ele>
        <time>2025-08-12T08:16:05.000Z</time>
      </trkpt>
      <trkpt lat="43.38913" lon="-0.61622">
        <ele>114</ele>
        <time>2025-08-12T08:16:06.000Z</time>
      </trkpt>
      <trkpt lat="43.38912" lon="-0.61634">
        <ele>114</ele>
        <time>2025-08-12T08:16:08.000Z</time>
      </trkpt>
      <trkpt lat="43.38909" lon="-0.61641">
        <ele>114</ele>
        <time>2025-08-12T08:16:09.000Z</time>
      </trkpt>
      <trkpt lat="43.38902" lon="-0.61658">
        <ele>114</ele>
        <time>2025-08-12T08:16:12.000Z</time>
      </trkpt>
      <trkpt lat="43.38893" lon="-0.61676">
        <ele>114</ele>
        <time>2025-08-12T08:16:15.000Z</time>
      </trkpt>
      <trkpt lat="43.38882" lon="-0.61687">
        <ele>114</ele>
        <time>2025-08-12T08:16:18.000Z</time>
      </trkpt>
      <trkpt lat="43.38875" lon="-0.61692">
        <ele>114</ele>
        <time>2025-08-12T08:16:20.000Z</time>
      </trkpt>
      <trkpt lat="43.38857" lon="-0.617">
        <ele>114.19999694824</ele>
        <time>2025-08-12T08:16:24.000Z</time>
      </trkpt>
      <trkpt lat="43.38849" lon="-0.61707">
        <ele>114.19999694824</ele>
        <time>2025-08-12T08:16:26.000Z</time>
      </trkpt>
      <trkpt lat="43.38845" lon="-0.61711">
        <ele>114.19999694824</ele>
        <time>2025-08-12T08:16:27.000Z</time>
      </trkpt>
      <trkpt lat="43.38824" lon="-0.61746">
        <ele>114</ele>
        <time>2025-08-12T08:16:33.000Z</time>
      </trkpt>
      <trkpt lat="43.38799" lon="-0.61795">
        <ele>113.59999847412</ele>
        <time>2025-08-12T08:16:41.000Z</time>
      </trkpt>
      <trkpt lat="43.38776" lon="-0.61832">
        <ele>113.59999847412</ele>
        <time>2025-08-12T08:16:48.000Z</time>
      </trkpt>
      <trkpt lat="43.38758" lon="-0.61862">
        <ele>114</ele>
        <time>2025-08-12T08:16:54.000Z</time>
      </trkpt>
      <trkpt lat="43.38754" lon="-0.61864">
        <ele>114</ele>
        <time>2025-08-12T08:16:55.000Z</time>
      </trkpt>
      <trkpt lat="43.38742" lon="-0.61861">
        <ele>114.19999694824</ele>
        <time>2025-08-12T08:16:58.000Z</time>
      </trkpt>
      <trkpt lat="43.38714" lon="-0.61847">
        <ele>114.80000305176</ele>
        <time>2025-08-12T08:17:05.000Z</time>
      </trkpt>
      <trkpt lat="43.38702" lon="-0.61843">
        <ele>115</ele>
        <time>2025-08-12T08:17:08.000Z</time>
      </trkpt>
      <trkpt lat="43.38692" lon="-0.61844">
        <ele>115.19999694824</ele>
        <time>2025-08-12T08:17:10.000Z</time>
      </trkpt>
      <trkpt lat="43.38679" lon="-0.61852">
        <ele>115.40000152588</ele>
        <time>2025-08-12T08:17:13.000Z</time>
      </trkpt>
      <trkpt lat="43.38675" lon="-0.61853">
        <ele>115.40000152588</ele>
        <time>2025-08-12T08:17:14.000Z</time>
      </trkpt>
      <trkpt lat="43.3867" lon="-0.61853">
        <ele>115.59999847412</ele>
        <time>2025-08-12T08:17:15.000Z</time>
      </trkpt>
      <trkpt lat="43.38666" lon="-0.61852">
        <ele>115.59999847412</ele>
        <time>2025-08-12T08:17:16.000Z</time>
      </trkpt>
      <trkpt lat="43.38643" lon="-0.61846">
        <ele>115.80000305176</ele>
        <time>2025-08-12T08:17:21.000Z</time>
      </trkpt>
      <trkpt lat="43.3861" lon="-0.61826">
        <ele>115.80000305176</ele>
        <time>2025-08-12T08:17:29.000Z</time>
      </trkpt>
      <trkpt lat="43.38579" lon="-0.61803">
        <ele>116.19999694824</ele>
        <time>2025-08-12T08:17:37.000Z</time>
      </trkpt>
      <trkpt lat="43.38556" lon="-0.61785">
        <ele>116.19999694824</ele>
        <time>2025-08-12T08:17:43.000Z</time>
      </trkpt>
      <trkpt lat="43.38547" lon="-0.61783">
        <ele>116.19999694824</ele>
        <time>2025-08-12T08:17:45.000Z</time>
      </trkpt>
      <trkpt lat="43.38538" lon="-0.61787">
        <ele>116.19999694824</ele>
        <time>2025-08-12T08:17:47.000Z</time>
      </trkpt>
      <trkpt lat="43.38536" lon="-0.61791">
        <ele>116.40000152588</ele>
        <time>2025-08-12T08:17:48.000Z</time>
      </trkpt>
      <trkpt lat="43.38519" lon="-0.61826">
        <ele>116.59999847412</ele>
        <time>2025-08-12T08:17:55.000Z</time>
      </trkpt>
      <trkpt lat="43.38515" lon="-0.61836">
        <ele>116.80000305176</ele>
        <time>2025-08-12T08:17:57.000Z</time>
      </trkpt>
      <trkpt lat="43.38508" lon="-0.61849">
        <ele>116.80000305176</ele>
        <time>2025-08-12T08:18:00.000Z</time>
      </trkpt>
      <trkpt lat="43.385" lon="-0.61859">
        <ele>117</ele>
        <time>2025-08-12T08:18:03.000Z</time>
      </trkpt>
      <trkpt lat="43.38481" lon="-0.61867">
        <ele>117.59999847412</ele>
        <time>2025-08-12T08:18:09.000Z</time>
      </trkpt>
      <trkpt lat="43.38475" lon="-0.61869">
        <ele>117.80000305176</ele>
        <time>2025-08-12T08:18:11.000Z</time>
      </trkpt>
      <trkpt lat="43.38468" lon="-0.6187">
        <ele>117.80000305176</ele>
        <time>2025-08-12T08:18:13.000Z</time>
      </trkpt>
      <trkpt lat="43.38438" lon="-0.61878">
        <ele>118</ele>
        <time>2025-08-12T08:18:21.000Z</time>
      </trkpt>
      <trkpt lat="43.38411" lon="-0.61881">
        <ele>118</ele>
        <time>2025-08-12T08:18:27.000Z</time>
      </trkpt>
      <trkpt lat="43.38373" lon="-0.61879">
        <ele>118</ele>
        <time>2025-08-12T08:18:36.000Z</time>
      </trkpt>
      <trkpt lat="43.38331" lon="-0.61884">
        <ele>117.80000305176</ele>
        <time>2025-08-12T08:18:45.000Z</time>
      </trkpt>
      <trkpt lat="43.38319" lon="-0.61885">
        <ele>117.59999847412</ele>
        <time>2025-08-12T08:18:48.000Z</time>
      </trkpt>
      <trkpt lat="43.38307" lon="-0.61887">
        <ele>117.59999847412</ele>
        <time>2025-08-12T08:18:51.000Z</time>
      </trkpt>
      <trkpt lat="43.38281" lon="-0.61895">
        <ele>117.80000305176</ele>
        <time>2025-08-12T08:18:58.000Z</time>
      </trkpt>
      <trkpt lat="43.38251" lon="-0.61911">
        <ele>118</ele>
        <time>2025-08-12T08:19:06.000Z</time>
      </trkpt>
      <trkpt lat="43.38229" lon="-0.6192">
        <ele>118</ele>
        <time>2025-08-12T08:19:12.000Z</time>
      </trkpt>
      <trkpt lat="43.38207" lon="-0.61925">
        <ele>118.19999694824</ele>
        <time>2025-08-12T08:19:18.000Z</time>
      </trkpt>
      <trkpt lat="43.38168" lon="-0.61936">
        <ele>118.19999694824</ele>
        <time>2025-08-12T08:19:27.000Z</time>
      </trkpt>
      <trkpt lat="43.38139" lon="-0.61945">
        <ele>118.40000152588</ele>
        <time>2025-08-12T08:19:34.000Z</time>
      </trkpt>
      <trkpt lat="43.38103" lon="-0.61954">
        <ele>118.59999847412</ele>
        <time>2025-08-12T08:19:42.000Z</time>
      </trkpt>
      <trkpt lat="43.38099" lon="-0.61954">
        <ele>118.59999847412</ele>
        <time>2025-08-12T08:19:43.000Z</time>
      </trkpt>
      <trkpt lat="43.38089" lon="-0.6195">
        <ele>118.59999847412</ele>
        <time>2025-08-12T08:19:45.000Z</time>
      </trkpt>
      <trkpt lat="43.38085" lon="-0.61948">
        <ele>118.59999847412</ele>
        <time>2025-08-12T08:19:46.000Z</time>
      </trkpt>
      <trkpt lat="43.38063" lon="-0.61933">
        <ele>118.80000305176</ele>
        <time>2025-08-12T08:19:52.000Z</time>
      </trkpt>
      <trkpt lat="43.38041" lon="-0.61914">
        <ele>118.80000305176</ele>
        <time>2025-08-12T08:19:58.000Z</time>
      </trkpt>
      <trkpt lat="43.38034" lon="-0.61907">
        <ele>118.80000305176</ele>
        <time>2025-08-12T08:20:00.000Z</time>
      </trkpt>
      <trkpt lat="43.38027" lon="-0.619">
        <ele>118.80000305176</ele>
        <time>2025-08-12T08:20:02.000Z</time>
      </trkpt>
      <trkpt lat="43.3802" lon="-0.61893">
        <ele>118.80000305176</ele>
        <time>2025-08-12T08:20:04.000Z</time>
      </trkpt>
      <trkpt lat="43.37993" lon="-0.61868">
        <ele>118.80000305176</ele>
        <time>2025-08-12T08:20:12.000Z</time>
      </trkpt>
      <trkpt lat="43.37987" lon="-0.61865">
        <ele>118.80000305176</ele>
        <time>2025-08-12T08:20:14.000Z</time>
      </trkpt>
      <trkpt lat="43.37984" lon="-0.61866">
        <ele>118.80000305176</ele>
        <time>2025-08-12T08:20:15.000Z</time>
      </trkpt>
      <trkpt lat="43.3798" lon="-0.61877">
        <ele>119</ele>
        <time>2025-08-12T08:20:18.000Z</time>
      </trkpt>
      <trkpt lat="43.37975" lon="-0.61885">
        <ele>119</ele>
        <time>2025-08-12T08:20:20.000Z</time>
      </trkpt>
      <trkpt lat="43.37955" lon="-0.61926">
        <ele>119.19999694824</ele>
        <time>2025-08-12T08:20:29.000Z</time>
      </trkpt>
      <trkpt lat="43.37935" lon="-0.61965">
        <ele>119.40000152588</ele>
        <time>2025-08-12T08:20:38.000Z</time>
      </trkpt>
      <trkpt lat="43.37915" lon="-0.62005">
        <ele>119.40000152588</ele>
        <time>2025-08-12T08:20:46.000Z</time>
      </trkpt>
      <trkpt lat="43.37905" lon="-0.62026">
        <ele>119.40000152588</ele>
        <time>2025-08-12T08:20:50.000Z</time>
      </trkpt>
      <trkpt lat="43.37899" lon="-0.62037">
        <ele>119.40000152588</ele>
        <time>2025-08-12T08:20:53.000Z</time>
      </trkpt>
      <trkpt lat="43.37885" lon="-0.62067">
        <ele>119.80000305176</ele>
        <time>2025-08-12T08:21:00.000Z</time>
      </trkpt>
      <trkpt lat="43.37864" lon="-0.62104">
        <ele>119.80000305176</ele>
        <time>2025-08-12T08:21:08.000Z</time>
      </trkpt>
      <trkpt lat="43.3785" lon="-0.62126">
        <ele>119.80000305176</ele>
        <time>2025-08-12T08:21:13.000Z</time>
      </trkpt>
      <trkpt lat="43.37838" lon="-0.62143">
        <ele>119.80000305176</ele>
        <time>2025-08-12T08:21:17.000Z</time>
      </trkpt>
      <trkpt lat="43.37828" lon="-0.62155">
        <ele>119.80000305176</ele>
        <time>2025-08-12T08:21:20.000Z</time>
      </trkpt>
      <trkpt lat="43.37813" lon="-0.62169">
        <ele>120</ele>
        <time>2025-08-12T08:21:24.000Z</time>
      </trkpt>
      <trkpt lat="43.37802" lon="-0.6218">
        <ele>120</ele>
        <time>2025-08-12T08:21:27.000Z</time>
      </trkpt>
      <trkpt lat="43.37788" lon="-0.62192">
        <ele>120.40000152588</ele>
        <time>2025-08-12T08:21:31.000Z</time>
      </trkpt>
      <trkpt lat="43.37761" lon="-0.62214">
        <ele>120.59999847412</ele>
        <time>2025-08-12T08:21:39.000Z</time>
      </trkpt>
      <trkpt lat="43.37748" lon="-0.62236">
        <ele>120.40000152588</ele>
        <time>2025-08-12T08:21:44.000Z</time>
      </trkpt>
      <trkpt lat="43.37745" lon="-0.62241">
        <ele>120.40000152588</ele>
        <time>2025-08-12T08:21:45.000Z</time>
      </trkpt>
      <trkpt lat="43.37739" lon="-0.6225">
        <ele>120.59999847412</ele>
        <time>2025-08-12T08:21:47.000Z</time>
      </trkpt>
      <trkpt lat="43.37735" lon="-0.62252">
        <ele>120.59999847412</ele>
        <time>2025-08-12T08:21:48.000Z</time>
      </trkpt>
      <trkpt lat="43.37731" lon="-0.62253">
        <ele>120.59999847412</ele>
        <time>2025-08-12T08:21:49.000Z</time>
      </trkpt>
      <trkpt lat="43.37716" lon="-0.62253">
        <ele>120.59999847412</ele>
        <time>2025-08-12T08:21:52.000Z</time>
      </trkpt>
      <trkpt lat="43.3768" lon="-0.62256">
        <ele>120.59999847412</ele>
        <time>2025-08-12T08:21:59.000Z</time>
      </trkpt>
      <trkpt lat="43.37637" lon="-0.62264">
        <ele>120.59999847412</ele>
        <time>2025-08-12T08:22:07.000Z</time>
      </trkpt>
      <trkpt lat="43.37591" lon="-0.62284">
        <ele>120.59999847412</ele>
        <time>2025-08-12T08:22:16.000Z</time>
      </trkpt>
      <trkpt lat="43.37556" lon="-0.62305">
        <ele>120.59999847412</ele>
        <time>2025-08-12T08:22:23.000Z</time>
      </trkpt>
      <trkpt lat="43.37548" lon="-0.62313">
        <ele>120.59999847412</ele>
        <time>2025-08-12T08:22:25.000Z</time>
      </trkpt>
      <trkpt lat="43.37506" lon="-0.62345">
        <ele>120.80000305176</ele>
        <time>2025-08-12T08:22:34.000Z</time>
      </trkpt>
      <trkpt lat="43.37462" lon="-0.62374">
        <ele>120.80000305176</ele>
        <time>2025-08-12T08:22:43.000Z</time>
      </trkpt>
      <trkpt lat="43.37426" lon="-0.62402">
        <ele>120.40000152588</ele>
        <time>2025-08-12T08:22:51.000Z</time>
      </trkpt>
      <trkpt lat="43.37422" lon="-0.62407">
        <ele>120.40000152588</ele>
        <time>2025-08-12T08:22:52.000Z</time>
      </trkpt>
      <trkpt lat="43.3742" lon="-0.62413">
        <ele>120.40000152588</ele>
        <time>2025-08-12T08:22:53.000Z</time>
      </trkpt>
      <trkpt lat="43.37416" lon="-0.62426">
        <ele>120.19999694824</ele>
        <time>2025-08-12T08:22:55.000Z</time>
      </trkpt>
      <trkpt lat="43.37413" lon="-0.62431">
        <ele>120.40000152588</ele>
        <time>2025-08-12T08:22:56.000Z</time>
      </trkpt>
      <trkpt lat="43.37409" lon="-0.62436">
        <ele>120.19999694824</ele>
        <time>2025-08-12T08:22:57.000Z</time>
      </trkpt>
      <trkpt lat="43.374" lon="-0.6244">
        <ele>120.19999694824</ele>
        <time>2025-08-12T08:22:59.000Z</time>
      </trkpt>
      <trkpt lat="43.3739" lon="-0.62441">
        <ele>120.19999694824</ele>
        <time>2025-08-12T08:23:01.000Z</time>
      </trkpt>
      <trkpt lat="43.37375" lon="-0.62449">
        <ele>120</ele>
        <time>2025-08-12T08:23:04.000Z</time>
      </trkpt>
      <trkpt lat="43.37337" lon="-0.62476">
        <ele>120</ele>
        <time>2025-08-12T08:23:12.000Z</time>
      </trkpt>
      <trkpt lat="43.37316" lon="-0.62496">
        <ele>120</ele>
        <time>2025-08-12T08:23:17.000Z</time>
      </trkpt>
      <trkpt lat="43.37309" lon="-0.62507">
        <ele>120</ele>
        <time>2025-08-12T08:23:19.000Z</time>
      </trkpt>
      <trkpt lat="43.37296" lon="-0.62535">
        <ele>120</ele>
        <time>2025-08-12T08:23:24.000Z</time>
      </trkpt>
      <trkpt lat="43.37294" lon="-0.6254">
        <ele>120</ele>
        <time>2025-08-12T08:23:25.000Z</time>
      </trkpt>
      <trkpt lat="43.37294" lon="-0.6256">
        <ele>120.19999694824</ele>
        <time>2025-08-12T08:23:29.000Z</time>
      </trkpt>
      <trkpt lat="43.37303" lon="-0.62579">
        <ele>120.19999694824</ele>
        <time>2025-08-12T08:23:33.000Z</time>
      </trkpt>
      <trkpt lat="43.37299" lon="-0.62586">
        <ele>120.19999694824</ele>
        <time>2025-08-12T08:23:35.000Z</time>
      </trkpt>
      <trkpt lat="43.37285" lon="-0.62583">
        <ele>120</ele>
        <time>2025-08-12T08:23:39.000Z</time>
      </trkpt>
      <trkpt lat="43.37263" lon="-0.62575">
        <ele>120.19999694824</ele>
        <time>2025-08-12T08:23:45.000Z</time>
      </trkpt>
      <trkpt lat="43.37252" lon="-0.62556">
        <ele>120.40000152588</ele>
        <time>2025-08-12T08:23:49.000Z</time>
      </trkpt>
      <trkpt lat="43.37248" lon="-0.62546">
        <ele>120.40000152588</ele>
        <time>2025-08-12T08:23:51.000Z</time>
      </trkpt>
      <trkpt lat="43.37242" lon="-0.62541">
        <ele>120.40000152588</ele>
        <time>2025-08-12T08:23:53.000Z</time>
      </trkpt>
      <trkpt lat="43.37237" lon="-0.6254">
        <ele>120.40000152588</ele>
        <time>2025-08-12T08:23:56.000Z</time>
      </trkpt>
      <trkpt lat="43.37237" lon="-0.6254">
        <ele>120.40000152588</ele>
        <time>2025-08-12T08:23:58.000Z</time>
      </trkpt>
      <trkpt lat="43.37232" lon="-0.62538">
        <ele>120.80000305176</ele>
        <time>2025-08-12T08:24:51.000Z</time>
      </trkpt>
      <trkpt lat="43.37229" lon="-0.62538">
        <ele>120.80000305176</ele>
        <time>2025-08-12T08:24:52.000Z</time>
      </trkpt>
      <trkpt lat="43.37214" lon="-0.62533">
        <ele>120.80000305176</ele>
        <time>2025-08-12T08:24:56.000Z</time>
      </trkpt>
      <trkpt lat="43.37196" lon="-0.62529">
        <ele>120.80000305176</ele>
        <time>2025-08-12T08:25:00.000Z</time>
      </trkpt>
      <trkpt lat="43.37187" lon="-0.62531">
        <ele>120.80000305176</ele>
        <time>2025-08-12T08:25:02.000Z</time>
      </trkpt>
      <trkpt lat="43.37176" lon="-0.62539">
        <ele>120.59999847412</ele>
        <time>2025-08-12T08:25:05.000Z</time>
      </trkpt>
      <trkpt lat="43.37169" lon="-0.62546">
        <ele>120.59999847412</ele>
        <time>2025-08-12T08:25:07.000Z</time>
      </trkpt>
      <trkpt lat="43.37154" lon="-0.62557">
        <ele>120.80000305176</ele>
        <time>2025-08-12T08:25:12.000Z</time>
      </trkpt>
      <trkpt lat="43.37138" lon="-0.6256">
        <ele>121.19999694824</ele>
        <time>2025-08-12T08:25:17.000Z</time>
      </trkpt>
      <trkpt lat="43.37135" lon="-0.62559">
        <ele>121.40000152588</ele>
        <time>2025-08-12T08:25:18.000Z</time>
      </trkpt>
      <trkpt lat="43.37122" lon="-0.62552">
        <ele>122.19999694824</ele>
        <time>2025-08-12T08:25:23.000Z</time>
      </trkpt>
      <trkpt lat="43.37116" lon="-0.62548">
        <ele>122.59999847412</ele>
        <time>2025-08-12T08:25:25.000Z</time>
      </trkpt>
      <trkpt lat="43.37099" lon="-0.62534">
        <ele>123.59999847412</ele>
        <time>2025-08-12T08:25:31.000Z</time>
      </trkpt>
      <trkpt lat="43.37096" lon="-0.62533">
        <ele>123.80000305176</ele>
        <time>2025-08-12T08:25:32.000Z</time>
      </trkpt>
      <trkpt lat="43.37076" lon="-0.62525">
        <ele>124.19999694824</ele>
        <time>2025-08-12T08:25:38.000Z</time>
      </trkpt>
      <trkpt lat="43.3705" lon="-0.62521">
        <ele>124.80000305176</ele>
        <time>2025-08-12T08:25:45.000Z</time>
      </trkpt>
      <trkpt lat="43.37047" lon="-0.62521">
        <ele>124.80000305176</ele>
        <time>2025-08-12T08:25:46.000Z</time>
      </trkpt>
      <trkpt lat="43.37004" lon="-0.62515">
        <ele>125.19999694824</ele>
        <time>2025-08-12T08:25:57.000Z</time>
      </trkpt>
      <trkpt lat="43.36955" lon="-0.62508">
        <ele>125.40000152588</ele>
        <time>2025-08-12T08:26:09.000Z</time>
      </trkpt>
      <trkpt lat="43.36919" lon="-0.62505">
        <ele>125.59999847412</ele>
        <time>2025-08-12T08:26:17.000Z</time>
      </trkpt>
      <trkpt lat="43.36908" lon="-0.62508">
        <ele>125.59999847412</ele>
        <time>2025-08-12T08:26:20.000Z</time>
      </trkpt>
      <trkpt lat="43.36899" lon="-0.62512">
        <ele>125.80000305176</ele>
        <time>2025-08-12T08:26:22.000Z</time>
      </trkpt>
      <trkpt lat="43.36888" lon="-0.62521">
        <ele>125.80000305176</ele>
        <time>2025-08-12T08:26:25.000Z</time>
      </trkpt>
      <trkpt lat="43.36879" lon="-0.62533">
        <ele>126</ele>
        <time>2025-08-12T08:26:28.000Z</time>
      </trkpt>
      <trkpt lat="43.36872" lon="-0.62546">
        <ele>126</ele>
        <time>2025-08-12T08:26:31.000Z</time>
      </trkpt>
      <trkpt lat="43.36867" lon="-0.6256">
        <ele>126.19999694824</ele>
        <time>2025-08-12T08:26:34.000Z</time>
      </trkpt>
      <trkpt lat="43.36865" lon="-0.62565">
        <ele>126.19999694824</ele>
        <time>2025-08-12T08:26:35.000Z</time>
      </trkpt>
      <trkpt lat="43.36855" lon="-0.62598">
        <ele>126.80000305176</ele>
        <time>2025-08-12T08:26:42.000Z</time>
      </trkpt>
      <trkpt lat="43.36842" lon="-0.62633">
        <ele>127.40000152588</ele>
        <time>2025-08-12T08:26:50.000Z</time>
      </trkpt>
      <trkpt lat="43.36832" lon="-0.62664">
        <ele>127.80000305176</ele>
        <time>2025-08-12T08:26:57.000Z</time>
      </trkpt>
      <trkpt lat="43.3683" lon="-0.62668">
        <ele>127.80000305176</ele>
        <time>2025-08-12T08:26:58.000Z</time>
      </trkpt>
      <trkpt lat="43.36822" lon="-0.62694">
        <ele>128.19999694824</ele>
        <time>2025-08-12T08:27:04.000Z</time>
      </trkpt>
      <trkpt lat="43.36812" lon="-0.62726">
        <ele>128.60000610352</ele>
        <time>2025-08-12T08:27:11.000Z</time>
      </trkpt>
      <trkpt lat="43.36813" lon="-0.6273">
        <ele>128.60000610352</ele>
        <time>2025-08-12T08:27:12.000Z</time>
      </trkpt>
      <trkpt lat="43.36817" lon="-0.62739">
        <ele>128.80000305176</ele>
        <time>2025-08-12T08:27:15.000Z</time>
      </trkpt>
      <trkpt lat="43.36828" lon="-0.6275">
        <ele>129.60000610352</ele>
        <time>2025-08-12T08:27:20.000Z</time>
      </trkpt>
      <trkpt lat="43.36833" lon="-0.62753">
        <ele>129.80000305176</ele>
        <time>2025-08-12T08:27:22.000Z</time>
      </trkpt>
      <trkpt lat="43.36848" lon="-0.62764">
        <ele>130.80000305176</ele>
        <time>2025-08-12T08:27:28.000Z</time>
      </trkpt>
      <trkpt lat="43.3685" lon="-0.62766">
        <ele>131</ele>
        <time>2025-08-12T08:27:29.000Z</time>
      </trkpt>
      <trkpt lat="43.36866" lon="-0.62781">
        <ele>132.19999694824</ele>
        <time>2025-08-12T08:27:36.000Z</time>
      </trkpt>
      <trkpt lat="43.3687" lon="-0.62785">
        <ele>132.60000610352</ele>
        <time>2025-08-12T08:27:38.000Z</time>
      </trkpt>
      <trkpt lat="43.36877" lon="-0.62792">
        <ele>133.19999694824</ele>
        <time>2025-08-12T08:27:41.000Z</time>
      </trkpt>
      <trkpt lat="43.36889" lon="-0.62808">
        <ele>134</ele>
        <time>2025-08-12T08:27:47.000Z</time>
      </trkpt>
      <trkpt lat="43.36892" lon="-0.62812">
        <ele>134.19999694824</ele>
        <time>2025-08-12T08:27:48.000Z</time>
      </trkpt>
      <trkpt lat="43.36913" lon="-0.62843">
        <ele>135.19999694824</ele>
        <time>2025-08-12T08:27:58.000Z</time>
      </trkpt>
      <trkpt lat="43.36934" lon="-0.62873">
        <ele>135.80000305176</ele>
        <time>2025-08-12T08:28:06.000Z</time>
      </trkpt>
      <trkpt lat="43.36961" lon="-0.62912">
        <ele>136</ele>
        <time>2025-08-12T08:28:15.000Z</time>
      </trkpt>
      <trkpt lat="43.36977" lon="-0.62938">
        <ele>136.19999694824</ele>
        <time>2025-08-12T08:28:21.000Z</time>
      </trkpt>
      <trkpt lat="43.36983" lon="-0.62946">
        <ele>136.39999389648</ele>
        <time>2025-08-12T08:28:23.000Z</time>
      </trkpt>
      <trkpt lat="43.36987" lon="-0.6295">
        <ele>136.39999389648</ele>
        <time>2025-08-12T08:28:24.000Z</time>
      </trkpt>
      <trkpt lat="43.37014" lon="-0.6299">
        <ele>137.19999694824</ele>
        <time>2025-08-12T08:28:34.000Z</time>
      </trkpt>
      <trkpt lat="43.37022" lon="-0.63001">
        <ele>137.60000610352</ele>
        <time>2025-08-12T08:28:37.000Z</time>
      </trkpt>
      <trkpt lat="43.3704" lon="-0.63026">
        <ele>138.19999694824</ele>
        <time>2025-08-12T08:28:44.000Z</time>
      </trkpt>
      <trkpt lat="43.37047" lon="-0.63036">
        <ele>138.60000610352</ele>
        <time>2025-08-12T08:28:47.000Z</time>
      </trkpt>
      <trkpt lat="43.37059" lon="-0.63056">
        <ele>139</ele>
        <time>2025-08-12T08:28:52.000Z</time>
      </trkpt>
      <trkpt lat="43.37081" lon="-0.63088">
        <ele>139.60000610352</ele>
        <time>2025-08-12T08:29:01.000Z</time>
      </trkpt>
      <trkpt lat="43.37083" lon="-0.63092">
        <ele>139.60000610352</ele>
        <time>2025-08-12T08:29:02.000Z</time>
      </trkpt>
      <trkpt lat="43.37099" lon="-0.6311">
        <ele>140</ele>
        <time>2025-08-12T08:29:08.000Z</time>
      </trkpt>
      <trkpt lat="43.37122" lon="-0.63142">
        <ele>140.39999389648</ele>
        <time>2025-08-12T08:29:17.000Z</time>
      </trkpt>
      <trkpt lat="43.3714" lon="-0.63166">
        <ele>140.60000610352</ele>
        <time>2025-08-12T08:29:24.000Z</time>
      </trkpt>
      <trkpt lat="43.37142" lon="-0.63169">
        <ele>140.60000610352</ele>
        <time>2025-08-12T08:29:25.000Z</time>
      </trkpt>
      <trkpt lat="43.37156" lon="-0.63189">
        <ele>141</ele>
        <time>2025-08-12T08:29:31.000Z</time>
      </trkpt>
      <trkpt lat="43.37162" lon="-0.63195">
        <ele>141.39999389648</ele>
        <time>2025-08-12T08:29:34.000Z</time>
      </trkpt>
      <trkpt lat="43.37165" lon="-0.63196">
        <ele>141.60000610352</ele>
        <time>2025-08-12T08:29:35.000Z</time>
      </trkpt>
      <trkpt lat="43.37167" lon="-0.63197">
        <ele>141.80000305176</ele>
        <time>2025-08-12T08:29:36.000Z</time>
      </trkpt>
      <trkpt lat="43.37173" lon="-0.63206">
        <ele>142</ele>
        <time>2025-08-12T08:29:40.000Z</time>
      </trkpt>
      <trkpt lat="43.37187" lon="-0.6323">
        <ele>142.80000305176</ele>
        <time>2025-08-12T08:29:48.000Z</time>
      </trkpt>
      <trkpt lat="43.37201" lon="-0.63249">
        <ele>143.60000610352</ele>
        <time>2025-08-12T08:29:55.000Z</time>
      </trkpt>
      <trkpt lat="43.37206" lon="-0.63257">
        <ele>144</ele>
        <time>2025-08-12T08:29:58.000Z</time>
      </trkpt>
      <trkpt lat="43.37214" lon="-0.63265">
        <ele>144.60000610352</ele>
        <time>2025-08-12T08:30:02.000Z</time>
      </trkpt>
      <trkpt lat="43.37216" lon="-0.6327">
        <ele>144.80000305176</ele>
        <time>2025-08-12T08:30:04.000Z</time>
      </trkpt>
      <trkpt lat="43.37219" lon="-0.63275">
        <ele>145</ele>
        <time>2025-08-12T08:30:06.000Z</time>
      </trkpt>
      <trkpt lat="43.37223" lon="-0.6328">
        <ele>145.19999694824</ele>
        <time>2025-08-12T08:30:08.000Z</time>
      </trkpt>
      <trkpt lat="43.37236" lon="-0.63292">
        <ele>145.60000610352</ele>
        <time>2025-08-12T08:30:14.000Z</time>
      </trkpt>
      <trkpt lat="43.37246" lon="-0.63306">
        <ele>146.19999694824</ele>
        <time>2025-08-12T08:30:19.000Z</time>
      </trkpt>
      <trkpt lat="43.3725" lon="-0.63311">
        <ele>146.39999389648</ele>
        <time>2025-08-12T08:30:21.000Z</time>
      </trkpt>
      <trkpt lat="43.37268" lon="-0.63333">
        <ele>147</ele>
        <time>2025-08-12T08:30:29.000Z</time>
      </trkpt>
      <trkpt lat="43.37272" lon="-0.63338">
        <ele>147.19999694824</ele>
        <time>2025-08-12T08:30:31.000Z</time>
      </trkpt>
      <trkpt lat="43.37279" lon="-0.6335">
        <ele>147.39999389648</ele>
        <time>2025-08-12T08:30:35.000Z</time>
      </trkpt>
      <trkpt lat="43.37296" lon="-0.6337">
        <ele>147.60000610352</ele>
        <time>2025-08-12T08:30:43.000Z</time>
      </trkpt>
      <trkpt lat="43.37316" lon="-0.63394">
        <ele>147.39999389648</ele>
        <time>2025-08-12T08:30:50.000Z</time>
      </trkpt>
      <trkpt lat="43.37328" lon="-0.63411">
        <ele>147.19999694824</ele>
        <time>2025-08-12T08:30:55.000Z</time>
      </trkpt>
      <trkpt lat="43.37347" lon="-0.63438">
        <ele>146.60000610352</ele>
        <time>2025-08-12T08:31:02.000Z</time>
      </trkpt>
      <trkpt lat="43.3736" lon="-0.63455">
        <ele>146.60000610352</ele>
        <time>2025-08-12T08:31:08.000Z</time>
      </trkpt>
      <trkpt lat="43.37373" lon="-0.63472">
        <ele>147.60000610352</ele>
        <time>2025-08-12T08:31:15.000Z</time>
      </trkpt>
      <trkpt lat="43.37379" lon="-0.6348">
        <ele>148.39999389648</ele>
        <time>2025-08-12T08:31:19.000Z</time>
      </trkpt>
      <trkpt lat="43.37383" lon="-0.63485">
        <ele>148.80000305176</ele>
        <time>2025-08-12T08:31:21.000Z</time>
      </trkpt>
      <trkpt lat="43.37388" lon="-0.63489">
        <ele>149.19999694824</ele>
        <time>2025-08-12T08:31:24.000Z</time>
      </trkpt>
      <trkpt lat="43.37389" lon="-0.63492">
        <ele>149.39999389648</ele>
        <time>2025-08-12T08:31:25.000Z</time>
      </trkpt>
      <trkpt lat="43.37391" lon="-0.63494">
        <ele>149.80000305176</ele>
        <time>2025-08-12T08:31:26.000Z</time>
      </trkpt>
      <trkpt lat="43.37393" lon="-0.63496">
        <ele>150</ele>
        <time>2025-08-12T08:31:27.000Z</time>
      </trkpt>
      <trkpt lat="43.37398" lon="-0.63502">
        <ele>150.60000610352</ele>
        <time>2025-08-12T08:31:30.000Z</time>
      </trkpt>
      <trkpt lat="43.37405" lon="-0.63511">
        <ele>151.19999694824</ele>
        <time>2025-08-12T08:31:34.000Z</time>
      </trkpt>
      <trkpt lat="43.37409" lon="-0.63517">
        <ele>151.80000305176</ele>
        <time>2025-08-12T08:31:37.000Z</time>
      </trkpt>
      <trkpt lat="43.37417" lon="-0.63527">
        <ele>152.80000305176</ele>
        <time>2025-08-12T08:31:42.000Z</time>
      </trkpt>
      <trkpt lat="43.37424" lon="-0.63534">
        <ele>153.80000305176</ele>
        <time>2025-08-12T08:31:46.000Z</time>
      </trkpt>
      <trkpt lat="43.37425" lon="-0.63536">
        <ele>154</ele>
        <time>2025-08-12T08:31:47.000Z</time>
      </trkpt>
      <trkpt lat="43.37426" lon="-0.63538">
        <ele>154</ele>
        <time>2025-08-12T08:31:48.000Z</time>
      </trkpt>
      <trkpt lat="43.37429" lon="-0.63543">
        <ele>154.60000610352</ele>
        <time>2025-08-12T08:31:51.000Z</time>
      </trkpt>
      <trkpt lat="43.3743" lon="-0.63545">
        <ele>154.60000610352</ele>
        <time>2025-08-12T08:31:52.000Z</time>
      </trkpt>
      <trkpt lat="43.37433" lon="-0.63546">
        <ele>155</ele>
        <time>2025-08-12T08:31:54.000Z</time>
      </trkpt>
      <trkpt lat="43.37435" lon="-0.63548">
        <ele>155.19999694824</ele>
        <time>2025-08-12T08:31:55.000Z</time>
      </trkpt>
      <trkpt lat="43.37437" lon="-0.63551">
        <ele>155.39999389648</ele>
        <time>2025-08-12T08:31:57.000Z</time>
      </trkpt>
      <trkpt lat="43.37446" lon="-0.63559">
        <ele>156.39999389648</ele>
        <time>2025-08-12T08:32:02.000Z</time>
      </trkpt>
      <trkpt lat="43.37451" lon="-0.63564">
        <ele>156.80000305176</ele>
        <time>2025-08-12T08:32:05.000Z</time>
      </trkpt>
      <trkpt lat="43.37459" lon="-0.63573">
        <ele>157.39999389648</ele>
        <time>2025-08-12T08:32:10.000Z</time>
      </trkpt>
      <trkpt lat="43.37463" lon="-0.63576">
        <ele>157.60000610352</ele>
        <time>2025-08-12T08:32:12.000Z</time>
      </trkpt>
      <trkpt lat="43.37482" lon="-0.63599">
        <ele>158.39999389648</ele>
        <time>2025-08-12T08:32:22.000Z</time>
      </trkpt>
      <trkpt lat="43.37501" lon="-0.6362">
        <ele>158.39999389648</ele>
        <time>2025-08-12T08:32:29.000Z</time>
      </trkpt>
      <trkpt lat="43.37518" lon="-0.63639">
        <ele>158.19999694824</ele>
        <time>2025-08-12T08:32:36.000Z</time>
      </trkpt>
      <trkpt lat="43.37534" lon="-0.63655">
        <ele>158</ele>
        <time>2025-08-12T08:32:44.000Z</time>
      </trkpt>
      <trkpt lat="43.37548" lon="-0.63668">
        <ele>158</ele>
        <time>2025-08-12T08:32:51.000Z</time>
      </trkpt>
      <trkpt lat="43.37568" lon="-0.63688">
        <ele>158.39999389648</ele>
        <time>2025-08-12T08:33:02.000Z</time>
      </trkpt>
      <trkpt lat="43.37585" lon="-0.63703">
        <ele>158.39999389648</ele>
        <time>2025-08-12T08:33:08.000Z</time>
      </trkpt>
      <trkpt lat="43.37607" lon="-0.63722">
        <ele>158</ele>
        <time>2025-08-12T08:33:14.000Z</time>
      </trkpt>
      <trkpt lat="43.37624" lon="-0.63738">
        <ele>158</ele>
        <time>2025-08-12T08:33:19.000Z</time>
      </trkpt>
      <trkpt lat="43.37632" lon="-0.63741">
        <ele>158</ele>
        <time>2025-08-12T08:33:21.000Z</time>
      </trkpt>
      <trkpt lat="43.37636" lon="-0.63742">
        <ele>158.19999694824</ele>
        <time>2025-08-12T08:33:22.000Z</time>
      </trkpt>
      <trkpt lat="43.37644" lon="-0.63746">
        <ele>158.19999694824</ele>
        <time>2025-08-12T08:33:25.000Z</time>
      </trkpt>
      <trkpt lat="43.37657" lon="-0.63754">
        <ele>158.60000610352</ele>
        <time>2025-08-12T08:33:30.000Z</time>
      </trkpt>
      <trkpt lat="43.37662" lon="-0.6376">
        <ele>158.80000305176</ele>
        <time>2025-08-12T08:33:33.000Z</time>
      </trkpt>
      <trkpt lat="43.37665" lon="-0.63761">
        <ele>159</ele>
        <time>2025-08-12T08:33:34.000Z</time>
      </trkpt>
      <trkpt lat="43.37669" lon="-0.63763">
        <ele>159.39999389648</ele>
        <time>2025-08-12T08:33:36.000Z</time>
      </trkpt>
      <trkpt lat="43.3767" lon="-0.63765">
        <ele>159.60000610352</ele>
        <time>2025-08-12T08:33:37.000Z</time>
      </trkpt>
      <trkpt lat="43.37673" lon="-0.63767">
        <ele>159.80000305176</ele>
        <time>2025-08-12T08:33:38.000Z</time>
      </trkpt>
      <trkpt lat="43.37677" lon="-0.63767">
        <ele>160.19999694824</ele>
        <time>2025-08-12T08:33:40.000Z</time>
      </trkpt>
      <trkpt lat="43.3768" lon="-0.63769">
        <ele>160.39999389648</ele>
        <time>2025-08-12T08:33:42.000Z</time>
      </trkpt>
      <trkpt lat="43.37685" lon="-0.63771">
        <ele>161</ele>
        <time>2025-08-12T08:33:45.000Z</time>
      </trkpt>
      <trkpt lat="43.37691" lon="-0.63776">
        <ele>162</ele>
        <time>2025-08-12T08:33:49.000Z</time>
      </trkpt>
      <trkpt lat="43.37698" lon="-0.63778">
        <ele>163</ele>
        <time>2025-08-12T08:33:54.000Z</time>
      </trkpt>
      <trkpt lat="43.37699" lon="-0.63779">
        <ele>163.19999694824</ele>
        <time>2025-08-12T08:33:55.000Z</time>
      </trkpt>
      <trkpt lat="43.37701" lon="-0.63781">
        <ele>163.39999389648</ele>
        <time>2025-08-12T08:33:56.000Z</time>
      </trkpt>
      <trkpt lat="43.37704" lon="-0.63786">
        <ele>164.39999389648</ele>
        <time>2025-08-12T08:34:00.000Z</time>
      </trkpt>
      <trkpt lat="43.37706" lon="-0.63787">
        <ele>164.60000610352</ele>
        <time>2025-08-12T08:34:01.000Z</time>
      </trkpt>
      <trkpt lat="43.37712" lon="-0.63793">
        <ele>165.60000610352</ele>
        <time>2025-08-12T08:34:06.000Z</time>
      </trkpt>
      <trkpt lat="43.37715" lon="-0.63796">
        <ele>166.19999694824</ele>
        <time>2025-08-12T08:34:09.000Z</time>
      </trkpt>
      <trkpt lat="43.37721" lon="-0.63802">
        <ele>166.60000610352</ele>
        <time>2025-08-12T08:34:13.000Z</time>
      </trkpt>
      <trkpt lat="43.37725" lon="-0.63811">
        <ele>167.39999389648</ele>
        <time>2025-08-12T08:34:17.000Z</time>
      </trkpt>
      <trkpt lat="43.37727" lon="-0.63813">
        <ele>167.60000610352</ele>
        <time>2025-08-12T08:34:18.000Z</time>
      </trkpt>
      <trkpt lat="43.37737" lon="-0.6382">
        <ele>168.60000610352</ele>
        <time>2025-08-12T08:34:23.000Z</time>
      </trkpt>
      <trkpt lat="43.37739" lon="-0.63822">
        <ele>168.60000610352</ele>
        <time>2025-08-12T08:34:24.000Z</time>
      </trkpt>
      <trkpt lat="43.3775" lon="-0.63832">
        <ele>169.60000610352</ele>
        <time>2025-08-12T08:34:30.000Z</time>
      </trkpt>
      <trkpt lat="43.37757" lon="-0.63838">
        <ele>170</ele>
        <time>2025-08-12T08:34:34.000Z</time>
      </trkpt>
      <trkpt lat="43.37761" lon="-0.6384">
        <ele>170</ele>
        <time>2025-08-12T08:34:36.000Z</time>
      </trkpt>
      <trkpt lat="43.37778" lon="-0.63854">
        <ele>170.39999389648</ele>
        <time>2025-08-12T08:34:44.000Z</time>
      </trkpt>
      <trkpt lat="43.37793" lon="-0.63865">
        <ele>170.39999389648</ele>
        <time>2025-08-12T08:34:50.000Z</time>
      </trkpt>
      <trkpt lat="43.37809" lon="-0.63883">
        <ele>170.39999389648</ele>
        <time>2025-08-12T08:34:56.000Z</time>
      </trkpt>
      <trkpt lat="43.37813" lon="-0.63887">
        <ele>170.39999389648</ele>
        <time>2025-08-12T08:34:57.000Z</time>
      </trkpt>
      <trkpt lat="43.3782" lon="-0.63898">
        <ele>170.19999694824</ele>
        <time>2025-08-12T08:34:59.000Z</time>
      </trkpt>
      <trkpt lat="43.37829" lon="-0.63908">
        <ele>170.19999694824</ele>
        <time>2025-08-12T08:35:01.000Z</time>
      </trkpt>
      <trkpt lat="43.37853" lon="-0.63936">
        <ele>169.39999389648</ele>
        <time>2025-08-12T08:35:06.000Z</time>
      </trkpt>
      <trkpt lat="43.37865" lon="-0.6395">
        <ele>169</ele>
        <time>2025-08-12T08:35:08.000Z</time>
      </trkpt>
      <trkpt lat="43.37887" lon="-0.63975">
        <ele>168.19999694824</ele>
        <time>2025-08-12T08:35:11.000Z</time>
      </trkpt>
      <trkpt lat="43.37894" lon="-0.63983">
        <ele>167.39999389648</ele>
        <time>2025-08-12T08:35:12.000Z</time>
      </trkpt>
      <trkpt lat="43.37918" lon="-0.64005">
        <ele>166</ele>
        <time>2025-08-12T08:35:15.000Z</time>
      </trkpt>
      <trkpt lat="43.37939" lon="-0.64025">
        <ele>164.80000305176</ele>
        <time>2025-08-12T08:35:18.000Z</time>
      </trkpt>
      <trkpt lat="43.37971" lon="-0.6406">
        <ele>164.19999694824</ele>
        <time>2025-08-12T08:35:23.000Z</time>
      </trkpt>
      <trkpt lat="43.37989" lon="-0.64084">
        <ele>163.80000305176</ele>
        <time>2025-08-12T08:35:26.000Z</time>
      </trkpt>
      <trkpt lat="43.38019" lon="-0.64125">
        <ele>163.39999389648</ele>
        <time>2025-08-12T08:35:31.000Z</time>
      </trkpt>
      <trkpt lat="43.38043" lon="-0.64156">
        <ele>163.19999694824</ele>
        <time>2025-08-12T08:35:36.000Z</time>
      </trkpt>
      <trkpt lat="43.38056" lon="-0.64172">
        <ele>163.39999389648</ele>
        <time>2025-08-12T08:35:40.000Z</time>
      </trkpt>
      <trkpt lat="43.38066" lon="-0.64185">
        <ele>164.60000610352</ele>
        <time>2025-08-12T08:35:45.000Z</time>
      </trkpt>
      <trkpt lat="43.3807" lon="-0.6419">
        <ele>165</ele>
        <time>2025-08-12T08:35:47.000Z</time>
      </trkpt>
      <trkpt lat="43.38077" lon="-0.64199">
        <ele>166</ele>
        <time>2025-08-12T08:35:51.000Z</time>
      </trkpt>
      <trkpt lat="43.3808" lon="-0.64201">
        <ele>166.39999389648</ele>
        <time>2025-08-12T08:35:52.000Z</time>
      </trkpt>
      <trkpt lat="43.38089" lon="-0.6421">
        <ele>167.39999389648</ele>
        <time>2025-08-12T08:35:57.000Z</time>
      </trkpt>
      <trkpt lat="43.38095" lon="-0.64217">
        <ele>167.80000305176</ele>
        <time>2025-08-12T08:36:00.000Z</time>
      </trkpt>
      <trkpt lat="43.381" lon="-0.64223">
        <ele>168.39999389648</ele>
        <time>2025-08-12T08:36:03.000Z</time>
      </trkpt>
      <trkpt lat="43.38111" lon="-0.64234">
        <ele>169.39999389648</ele>
        <time>2025-08-12T08:36:08.000Z</time>
      </trkpt>
      <trkpt lat="43.38113" lon="-0.64236">
        <ele>169.60000610352</ele>
        <time>2025-08-12T08:36:09.000Z</time>
      </trkpt>
      <trkpt lat="43.38124" lon="-0.64249">
        <ele>170.80000305176</ele>
        <time>2025-08-12T08:36:15.000Z</time>
      </trkpt>
      <trkpt lat="43.38127" lon="-0.64252">
        <ele>170.80000305176</ele>
        <time>2025-08-12T08:36:16.000Z</time>
      </trkpt>
      <trkpt lat="43.38143" lon="-0.64268">
        <ele>171.60000610352</ele>
        <time>2025-08-12T08:36:23.000Z</time>
      </trkpt>
      <trkpt lat="43.38145" lon="-0.6427">
        <ele>171.80000305176</ele>
        <time>2025-08-12T08:36:24.000Z</time>
      </trkpt>
      <trkpt lat="43.38159" lon="-0.64286">
        <ele>172.19999694824</ele>
        <time>2025-08-12T08:36:30.000Z</time>
      </trkpt>
      <trkpt lat="43.3818" lon="-0.64308">
        <ele>172.39999389648</ele>
        <time>2025-08-12T08:36:37.000Z</time>
      </trkpt>
      <trkpt lat="43.38205" lon="-0.64339">
        <ele>172.19999694824</ele>
        <time>2025-08-12T08:36:45.000Z</time>
      </trkpt>
      <trkpt lat="43.38229" lon="-0.64376">
        <ele>171.80000305176</ele>
        <time>2025-08-12T08:36:52.000Z</time>
      </trkpt>
      <trkpt lat="43.38252" lon="-0.64412">
        <ele>171</ele>
        <time>2025-08-12T08:36:57.000Z</time>
      </trkpt>
      <trkpt lat="43.38262" lon="-0.64427">
        <ele>170.60000610352</ele>
        <time>2025-08-12T08:36:59.000Z</time>
      </trkpt>
      <trkpt lat="43.38286" lon="-0.64465">
        <ele>169.60000610352</ele>
        <time>2025-08-12T08:37:04.000Z</time>
      </trkpt>
      <trkpt lat="43.38312" lon="-0.64502">
        <ele>169.19999694824</ele>
        <time>2025-08-12T08:37:10.000Z</time>
      </trkpt>
      <trkpt lat="43.38319" lon="-0.6451">
        <ele>169.19999694824</ele>
        <time>2025-08-12T08:37:12.000Z</time>
      </trkpt>
      <trkpt lat="43.38328" lon="-0.64518">
        <ele>169.19999694824</ele>
        <time>2025-08-12T08:37:15.000Z</time>
      </trkpt>
      <trkpt lat="43.38342" lon="-0.64529">
        <ele>170.19999694824</ele>
        <time>2025-08-12T08:37:21.000Z</time>
      </trkpt>
      <trkpt lat="43.38349" lon="-0.64532">
        <ele>171</ele>
        <time>2025-08-12T08:37:24.000Z</time>
      </trkpt>
      <trkpt lat="43.38355" lon="-0.64534">
        <ele>171.80000305176</ele>
        <time>2025-08-12T08:37:27.000Z</time>
      </trkpt>
      <trkpt lat="43.3836" lon="-0.64535">
        <ele>172</ele>
        <time>2025-08-12T08:37:29.000Z</time>
      </trkpt>
      <trkpt lat="43.3837" lon="-0.64539">
        <ele>173.19999694824</ele>
        <time>2025-08-12T08:37:34.000Z</time>
      </trkpt>
      <trkpt lat="43.38379" lon="-0.64543">
        <ele>174.19999694824</ele>
        <time>2025-08-12T08:37:38.000Z</time>
      </trkpt>
      <trkpt lat="43.38386" lon="-0.64546">
        <ele>175.19999694824</ele>
        <time>2025-08-12T08:37:41.000Z</time>
      </trkpt>
      <trkpt lat="43.38388" lon="-0.64546">
        <ele>175.60000610352</ele>
        <time>2025-08-12T08:37:42.000Z</time>
      </trkpt>
      <trkpt lat="43.38398" lon="-0.64549">
        <ele>176.60000610352</ele>
        <time>2025-08-12T08:37:47.000Z</time>
      </trkpt>
      <trkpt lat="43.384" lon="-0.6455">
        <ele>176.80000305176</ele>
        <time>2025-08-12T08:37:48.000Z</time>
      </trkpt>
      <trkpt lat="43.38409" lon="-0.64555">
        <ele>177.60000610352</ele>
        <time>2025-08-12T08:37:53.000Z</time>
      </trkpt>
      <trkpt lat="43.38413" lon="-0.64556">
        <ele>178.19999694824</ele>
        <time>2025-08-12T08:37:55.000Z</time>
      </trkpt>
      <trkpt lat="43.3842" lon="-0.64559">
        <ele>178.80000305176</ele>
        <time>2025-08-12T08:37:58.000Z</time>
      </trkpt>
      <trkpt lat="43.38428" lon="-0.64563">
        <ele>179.80000305176</ele>
        <time>2025-08-12T08:38:02.000Z</time>
      </trkpt>
      <trkpt lat="43.3843" lon="-0.64564">
        <ele>180.39999389648</ele>
        <time>2025-08-12T08:38:03.000Z</time>
      </trkpt>
      <trkpt lat="43.38439" lon="-0.64569">
        <ele>181.19999694824</ele>
        <time>2025-08-12T08:38:07.000Z</time>
      </trkpt>
      <trkpt lat="43.38443" lon="-0.64571">
        <ele>181.60000610352</ele>
        <time>2025-08-12T08:38:09.000Z</time>
      </trkpt>
      <trkpt lat="43.38456" lon="-0.64578">
        <ele>182.19999694824</ele>
        <time>2025-08-12T08:38:14.000Z</time>
      </trkpt>
      <trkpt lat="43.38465" lon="-0.64581">
        <ele>182.80000305176</ele>
        <time>2025-08-12T08:38:17.000Z</time>
      </trkpt>
      <trkpt lat="43.38479" lon="-0.64588">
        <ele>182.80000305176</ele>
        <time>2025-08-12T08:38:21.000Z</time>
      </trkpt>
      <trkpt lat="43.38499" lon="-0.646">
        <ele>182.80000305176</ele>
        <time>2025-08-12T08:38:25.000Z</time>
      </trkpt>
      <trkpt lat="43.38503" lon="-0.64603">
        <ele>182.60000610352</ele>
        <time>2025-08-12T08:38:26.000Z</time>
      </trkpt>
      <trkpt lat="43.38535" lon="-0.64626">
        <ele>181.19999694824</ele>
        <time>2025-08-12T08:38:30.000Z</time>
      </trkpt>
      <trkpt lat="43.38558" lon="-0.64642">
        <ele>179.80000305176</ele>
        <time>2025-08-12T08:38:33.000Z</time>
      </trkpt>
      <trkpt lat="43.38568" lon="-0.6465">
        <ele>178.39999389648</ele>
        <time>2025-08-12T08:38:35.000Z</time>
      </trkpt>
      <trkpt lat="43.38575" lon="-0.64655">
        <ele>176.80000305176</ele>
        <time>2025-08-12T08:38:36.000Z</time>
      </trkpt>
      <trkpt lat="43.38585" lon="-0.64662">
        <ele>175.19999694824</ele>
        <time>2025-08-12T08:38:38.000Z</time>
      </trkpt>
      <trkpt lat="43.38595" lon="-0.6467">
        <ele>174.19999694824</ele>
        <time>2025-08-12T08:38:40.000Z</time>
      </trkpt>
      <trkpt lat="43.3861" lon="-0.64684">
        <ele>173</ele>
        <time>2025-08-12T08:38:43.000Z</time>
      </trkpt>
      <trkpt lat="43.38634" lon="-0.64706">
        <ele>172</ele>
        <time>2025-08-12T08:38:47.000Z</time>
      </trkpt>
      <trkpt lat="43.38638" lon="-0.6471">
        <ele>171.80000305176</ele>
        <time>2025-08-12T08:38:48.000Z</time>
      </trkpt>
      <trkpt lat="43.38681" lon="-0.64741">
        <ele>171.19999694824</ele>
        <time>2025-08-12T08:38:55.000Z</time>
      </trkpt>
      <trkpt lat="43.38711" lon="-0.64764">
        <ele>171.39999389648</ele>
        <time>2025-08-12T08:39:01.000Z</time>
      </trkpt>
      <trkpt lat="43.3873" lon="-0.64777">
        <ele>172</ele>
        <time>2025-08-12T08:39:06.000Z</time>
      </trkpt>
      <trkpt lat="43.38734" lon="-0.6478">
        <ele>172</ele>
        <time>2025-08-12T08:39:07.000Z</time>
      </trkpt>
      <trkpt lat="43.38742" lon="-0.64786">
        <ele>172.19999694824</ele>
        <time>2025-08-12T08:39:09.000Z</time>
      </trkpt>
      <trkpt lat="43.38759" lon="-0.64798">
        <ele>172.19999694824</ele>
        <time>2025-08-12T08:39:13.000Z</time>
      </trkpt>
      <trkpt lat="43.38801" lon="-0.64829">
        <ele>172.60000610352</ele>
        <time>2025-08-12T08:39:23.000Z</time>
      </trkpt>
      <trkpt lat="43.38826" lon="-0.64848">
        <ele>172.60000610352</ele>
        <time>2025-08-12T08:39:29.000Z</time>
      </trkpt>
      <trkpt lat="43.3884" lon="-0.64858">
        <ele>172.39999389648</ele>
        <time>2025-08-12T08:39:32.000Z</time>
      </trkpt>
      <trkpt lat="43.38876" lon="-0.64878">
        <ele>172.19999694824</ele>
        <time>2025-08-12T08:39:40.000Z</time>
      </trkpt>
      <trkpt lat="43.38904" lon="-0.64896">
        <ele>172.39999389648</ele>
        <time>2025-08-12T08:39:47.000Z</time>
      </trkpt>
      <trkpt lat="43.38908" lon="-0.64905">
        <ele>172.39999389648</ele>
        <time>2025-08-12T08:39:49.000Z</time>
      </trkpt>
      <trkpt lat="43.38907" lon="-0.64911">
        <ele>172.39999389648</ele>
        <time>2025-08-12T08:39:50.000Z</time>
      </trkpt>
      <trkpt lat="43.38899" lon="-0.64925">
        <ele>172.19999694824</ele>
        <time>2025-08-12T08:39:53.000Z</time>
      </trkpt>
      <trkpt lat="43.38891" lon="-0.6493">
        <ele>172.19999694824</ele>
        <time>2025-08-12T08:39:55.000Z</time>
      </trkpt>
      <trkpt lat="43.38879" lon="-0.6493">
        <ele>172.19999694824</ele>
        <time>2025-08-12T08:39:57.000Z</time>
      </trkpt>
      <trkpt lat="43.38875" lon="-0.64928">
        <ele>172.19999694824</ele>
        <time>2025-08-12T08:39:58.000Z</time>
      </trkpt>
      <trkpt lat="43.38844" lon="-0.64909">
        <ele>171.19999694824</ele>
        <time>2025-08-12T08:40:03.000Z</time>
      </trkpt>
      <trkpt lat="43.38838" lon="-0.64906">
        <ele>171</ele>
        <time>2025-08-12T08:40:04.000Z</time>
      </trkpt>
      <trkpt lat="43.3883" lon="-0.64902">
        <ele>171</ele>
        <time>2025-08-12T08:40:05.000Z</time>
      </trkpt>
      <trkpt lat="43.38806" lon="-0.64895">
        <ele>169.80000305176</ele>
        <time>2025-08-12T08:40:09.000Z</time>
      </trkpt>
      <trkpt lat="43.38778" lon="-0.64886">
        <ele>168.60000610352</ele>
        <time>2025-08-12T08:40:13.000Z</time>
      </trkpt>
      <trkpt lat="43.38759" lon="-0.64874">
        <ele>168</ele>
        <time>2025-08-12T08:40:16.000Z</time>
      </trkpt>
      <trkpt lat="43.38746" lon="-0.64866">
        <ele>167.39999389648</ele>
        <time>2025-08-12T08:40:18.000Z</time>
      </trkpt>
      <trkpt lat="43.38726" lon="-0.64854">
        <ele>166.39999389648</ele>
        <time>2025-08-12T08:40:21.000Z</time>
      </trkpt>
      <trkpt lat="43.38718" lon="-0.6485">
        <ele>166.19999694824</ele>
        <time>2025-08-12T08:40:22.000Z</time>
      </trkpt>
      <trkpt lat="43.38713" lon="-0.64848">
        <ele>165.80000305176</ele>
        <time>2025-08-12T08:40:23.000Z</time>
      </trkpt>
      <trkpt lat="43.38704" lon="-0.64845">
        <ele>165.39999389648</ele>
        <time>2025-08-12T08:40:24.000Z</time>
      </trkpt>
      <trkpt lat="43.38696" lon="-0.64845">
        <ele>165.19999694824</ele>
        <time>2025-08-12T08:40:25.000Z</time>
      </trkpt>
      <trkpt lat="43.38681" lon="-0.64844">
        <ele>164.80000305176</ele>
        <time>2025-08-12T08:40:27.000Z</time>
      </trkpt>
      <trkpt lat="43.38665" lon="-0.64843">
        <ele>164</ele>
        <time>2025-08-12T08:40:29.000Z</time>
      </trkpt>
      <trkpt lat="43.38639" lon="-0.64836">
        <ele>162.60000610352</ele>
        <time>2025-08-12T08:40:32.000Z</time>
      </trkpt>
      <trkpt lat="43.38614" lon="-0.64821">
        <ele>161.60000610352</ele>
        <time>2025-08-12T08:40:35.000Z</time>
      </trkpt>
      <trkpt lat="43.38606" lon="-0.64815">
        <ele>161.39999389648</ele>
        <time>2025-08-12T08:40:36.000Z</time>
      </trkpt>
      <trkpt lat="43.38591" lon="-0.64801">
        <ele>160.60000610352</ele>
        <time>2025-08-12T08:40:38.000Z</time>
      </trkpt>
      <trkpt lat="43.38585" lon="-0.64798">
        <ele>160</ele>
        <time>2025-08-12T08:40:39.000Z</time>
      </trkpt>
      <trkpt lat="43.38575" lon="-0.64796">
        <ele>159.60000610352</ele>
        <time>2025-08-12T08:40:40.000Z</time>
      </trkpt>
      <trkpt lat="43.3856" lon="-0.64797">
        <ele>158.60000610352</ele>
        <time>2025-08-12T08:40:42.000Z</time>
      </trkpt>
      <trkpt lat="43.38547" lon="-0.64801">
        <ele>157.80000305176</ele>
        <time>2025-08-12T08:40:44.000Z</time>
      </trkpt>
      <trkpt lat="43.38541" lon="-0.64803">
        <ele>157.60000610352</ele>
        <time>2025-08-12T08:40:45.000Z</time>
      </trkpt>
      <trkpt lat="43.38535" lon="-0.64804">
        <ele>157.19999694824</ele>
        <time>2025-08-12T08:40:46.000Z</time>
      </trkpt>
      <trkpt lat="43.38532" lon="-0.64803">
        <ele>156.80000305176</ele>
        <time>2025-08-12T08:40:47.000Z</time>
      </trkpt>
      <trkpt lat="43.38524" lon="-0.64802">
        <ele>156</ele>
        <time>2025-08-12T08:40:49.000Z</time>
      </trkpt>
      <trkpt lat="43.38517" lon="-0.648">
        <ele>155</ele>
        <time>2025-08-12T08:40:51.000Z</time>
      </trkpt>
      <trkpt lat="43.38506" lon="-0.64797">
        <ele>154.19999694824</ele>
        <time>2025-08-12T08:40:53.000Z</time>
      </trkpt>
      <trkpt lat="43.385" lon="-0.64795">
        <ele>154</ele>
        <time>2025-08-12T08:40:54.000Z</time>
      </trkpt>
      <trkpt lat="43.38488" lon="-0.64791">
        <ele>153.39999389648</ele>
        <time>2025-08-12T08:40:56.000Z</time>
      </trkpt>
      <trkpt lat="43.38481" lon="-0.64788">
        <ele>153.19999694824</ele>
        <time>2025-08-12T08:40:57.000Z</time>
      </trkpt>
      <trkpt lat="43.38474" lon="-0.64783">
        <ele>152.80000305176</ele>
        <time>2025-08-12T08:40:58.000Z</time>
      </trkpt>
      <trkpt lat="43.38456" lon="-0.64774">
        <ele>152.19999694824</ele>
        <time>2025-08-12T08:41:01.000Z</time>
      </trkpt>
      <trkpt lat="43.3845" lon="-0.64772">
        <ele>152</ele>
        <time>2025-08-12T08:41:02.000Z</time>
      </trkpt>
      <trkpt lat="43.38445" lon="-0.6477">
        <ele>151.60000610352</ele>
        <time>2025-08-12T08:41:03.000Z</time>
      </trkpt>
      <trkpt lat="43.38439" lon="-0.64768">
        <ele>151.39999389648</ele>
        <time>2025-08-12T08:41:04.000Z</time>
      </trkpt>
      <trkpt lat="43.3843" lon="-0.64768">
        <ele>150.60000610352</ele>
        <time>2025-08-12T08:41:06.000Z</time>
      </trkpt>
      <trkpt lat="43.38413" lon="-0.6477">
        <ele>149.19999694824</ele>
        <time>2025-08-12T08:41:09.000Z</time>
      </trkpt>
      <trkpt lat="43.38401" lon="-0.64771">
        <ele>148.39999389648</ele>
        <time>2025-08-12T08:41:11.000Z</time>
      </trkpt>
      <trkpt lat="43.38397" lon="-0.64771">
        <ele>148</ele>
        <time>2025-08-12T08:41:12.000Z</time>
      </trkpt>
      <trkpt lat="43.38384" lon="-0.64772">
        <ele>146.80000305176</ele>
        <time>2025-08-12T08:41:14.000Z</time>
      </trkpt>
      <trkpt lat="43.38377" lon="-0.64774">
        <ele>145.80000305176</ele>
        <time>2025-08-12T08:41:15.000Z</time>
      </trkpt>
      <trkpt lat="43.38371" lon="-0.64775">
        <ele>145.19999694824</ele>
        <time>2025-08-12T08:41:16.000Z</time>
      </trkpt>
      <trkpt lat="43.38362" lon="-0.64777">
        <ele>144</ele>
        <time>2025-08-12T08:41:17.000Z</time>
      </trkpt>
      <trkpt lat="43.38346" lon="-0.64785">
        <ele>142.80000305176</ele>
        <time>2025-08-12T08:41:19.000Z</time>
      </trkpt>
      <trkpt lat="43.38331" lon="-0.6479">
        <ele>141</ele>
        <time>2025-08-12T08:41:21.000Z</time>
      </trkpt>
      <trkpt lat="43.38322" lon="-0.64793">
        <ele>139.60000610352</ele>
        <time>2025-08-12T08:41:22.000Z</time>
      </trkpt>
      <trkpt lat="43.38304" lon="-0.64799">
        <ele>137</ele>
        <time>2025-08-12T08:41:24.000Z</time>
      </trkpt>
      <trkpt lat="43.38297" lon="-0.64802">
        <ele>136.19999694824</ele>
        <time>2025-08-12T08:41:25.000Z</time>
      </trkpt>
      <trkpt lat="43.38286" lon="-0.64805">
        <ele>134.80000305176</ele>
        <time>2025-08-12T08:41:26.000Z</time>
      </trkpt>
      <trkpt lat="43.38278" lon="-0.6481">
        <ele>134</ele>
        <time>2025-08-12T08:41:27.000Z</time>
      </trkpt>
      <trkpt lat="43.38272" lon="-0.64815">
        <ele>132.60000610352</ele>
        <time>2025-08-12T08:41:28.000Z</time>
      </trkpt>
      <trkpt lat="43.38265" lon="-0.64824">
        <ele>131.39999389648</ele>
        <time>2025-08-12T08:41:29.000Z</time>
      </trkpt>
      <trkpt lat="43.38256" lon="-0.64839">
        <ele>129.80000305176</ele>
        <time>2025-08-12T08:41:31.000Z</time>
      </trkpt>
      <trkpt lat="43.38248" lon="-0.64857">
        <ele>128.80000305176</ele>
        <time>2025-08-12T08:41:33.000Z</time>
      </trkpt>
      <trkpt lat="43.38245" lon="-0.64863">
        <ele>128.60000610352</ele>
        <time>2025-08-12T08:41:34.000Z</time>
      </trkpt>
      <trkpt lat="43.38236" lon="-0.64886">
        <ele>127.59999847412</ele>
        <time>2025-08-12T08:41:37.000Z</time>
      </trkpt>
      <trkpt lat="43.38233" lon="-0.64896">
        <ele>127.19999694824</ele>
        <time>2025-08-12T08:41:38.000Z</time>
      </trkpt>
      <trkpt lat="43.38228" lon="-0.64933">
        <ele>126.59999847412</ele>
        <time>2025-08-12T08:41:43.000Z</time>
      </trkpt>
      <trkpt lat="43.38229" lon="-0.64939">
        <ele>126.59999847412</ele>
        <time>2025-08-12T08:41:44.000Z</time>
      </trkpt>
      <trkpt lat="43.3823" lon="-0.64945">
        <ele>126.40000152588</ele>
        <time>2025-08-12T08:41:45.000Z</time>
      </trkpt>
      <trkpt lat="43.38237" lon="-0.64956">
        <ele>126.59999847412</ele>
        <time>2025-08-12T08:41:47.000Z</time>
      </trkpt>
      <trkpt lat="43.3825" lon="-0.64966">
        <ele>126.59999847412</ele>
        <time>2025-08-12T08:41:50.000Z</time>
      </trkpt>
      <trkpt lat="43.38263" lon="-0.64975">
        <ele>127</ele>
        <time>2025-08-12T08:41:53.000Z</time>
      </trkpt>
      <trkpt lat="43.38306" lon="-0.64996">
        <ele>127</ele>
        <time>2025-08-12T08:42:02.000Z</time>
      </trkpt>
      <trkpt lat="43.38349" lon="-0.65016">
        <ele>126.80000305176</ele>
        <time>2025-08-12T08:42:11.000Z</time>
      </trkpt>
      <trkpt lat="43.38382" lon="-0.65043">
        <ele>126.59999847412</ele>
        <time>2025-08-12T08:42:18.000Z</time>
      </trkpt>
      <trkpt lat="43.38417" lon="-0.65075">
        <ele>126</ele>
        <time>2025-08-12T08:42:25.000Z</time>
      </trkpt>
      <trkpt lat="43.38427" lon="-0.65083">
        <ele>126</ele>
        <time>2025-08-12T08:42:27.000Z</time>
      </trkpt>
      <trkpt lat="43.38435" lon="-0.65089">
        <ele>125.80000305176</ele>
        <time>2025-08-12T08:42:29.000Z</time>
      </trkpt>
      <trkpt lat="43.38453" lon="-0.65102">
        <ele>126</ele>
        <time>2025-08-12T08:42:33.000Z</time>
      </trkpt>
      <trkpt lat="43.38462" lon="-0.65109">
        <ele>125.80000305176</ele>
        <time>2025-08-12T08:42:35.000Z</time>
      </trkpt>
      <trkpt lat="43.38495" lon="-0.65132">
        <ele>125.80000305176</ele>
        <time>2025-08-12T08:42:42.000Z</time>
      </trkpt>
      <trkpt lat="43.38509" lon="-0.65142">
        <ele>125.59999847412</ele>
        <time>2025-08-12T08:42:45.000Z</time>
      </trkpt>
      <trkpt lat="43.38528" lon="-0.65156">
        <ele>125.40000152588</ele>
        <time>2025-08-12T08:42:49.000Z</time>
      </trkpt>
      <trkpt lat="43.38565" lon="-0.65185">
        <ele>125.19999694824</ele>
        <time>2025-08-12T08:42:57.000Z</time>
      </trkpt>
      <trkpt lat="43.38594" lon="-0.65215">
        <ele>125</ele>
        <time>2025-08-12T08:43:04.000Z</time>
      </trkpt>
      <trkpt lat="43.38598" lon="-0.6522">
        <ele>125</ele>
        <time>2025-08-12T08:43:05.000Z</time>
      </trkpt>
      <trkpt lat="43.3861" lon="-0.65242">
        <ele>125</ele>
        <time>2025-08-12T08:43:09.000Z</time>
      </trkpt>
      <trkpt lat="43.38619" lon="-0.65273">
        <ele>125</ele>
        <time>2025-08-12T08:43:14.000Z</time>
      </trkpt>
      <trkpt lat="43.38632" lon="-0.65308">
        <ele>125.19999694824</ele>
        <time>2025-08-12T08:43:20.000Z</time>
      </trkpt>
      <trkpt lat="43.3864" lon="-0.65327">
        <ele>125.40000152588</ele>
        <time>2025-08-12T08:43:23.000Z</time>
      </trkpt>
      <trkpt lat="43.38653" lon="-0.65363">
        <ele>125.59999847412</ele>
        <time>2025-08-12T08:43:29.000Z</time>
      </trkpt>
      <trkpt lat="43.38661" lon="-0.65382">
        <ele>125.59999847412</ele>
        <time>2025-08-12T08:43:32.000Z</time>
      </trkpt>
      <trkpt lat="43.38663" lon="-0.65386">
        <ele>125.59999847412</ele>
        <time>2025-08-12T08:43:33.000Z</time>
      </trkpt>
      <trkpt lat="43.38666" lon="-0.65391">
        <ele>125.59999847412</ele>
        <time>2025-08-12T08:43:34.000Z</time>
      </trkpt>
      <trkpt lat="43.38676" lon="-0.65409">
        <ele>125.80000305176</ele>
        <time>2025-08-12T08:43:38.000Z</time>
      </trkpt>
      <trkpt lat="43.38691" lon="-0.65432">
        <ele>126.19999694824</ele>
        <time>2025-08-12T08:43:44.000Z</time>
      </trkpt>
      <trkpt lat="43.38693" lon="-0.65437">
        <ele>126.19999694824</ele>
        <time>2025-08-12T08:43:45.000Z</time>
      </trkpt>
      <trkpt lat="43.38713" lon="-0.65469">
        <ele>126.19999694824</ele>
        <time>2025-08-12T08:43:52.000Z</time>
      </trkpt>
      <trkpt lat="43.38725" lon="-0.65489">
        <ele>126</ele>
        <time>2025-08-12T08:43:56.000Z</time>
      </trkpt>
      <trkpt lat="43.38737" lon="-0.65508">
        <ele>126</ele>
        <time>2025-08-12T08:44:00.000Z</time>
      </trkpt>
      <trkpt lat="43.38761" lon="-0.65534">
        <ele>125.59999847412</ele>
        <time>2025-08-12T08:44:05.000Z</time>
      </trkpt>
      <trkpt lat="43.38786" lon="-0.65559">
        <ele>125.19999694824</ele>
        <time>2025-08-12T08:44:10.000Z</time>
      </trkpt>
      <trkpt lat="43.3883" lon="-0.65602">
        <ele>124.80000305176</ele>
        <time>2025-08-12T08:44:20.000Z</time>
      </trkpt>
      <trkpt lat="43.38846" lon="-0.65621">
        <ele>124.80000305176</ele>
        <time>2025-08-12T08:44:24.000Z</time>
      </trkpt>
      <trkpt lat="43.38856" lon="-0.65635">
        <ele>124.80000305176</ele>
        <time>2025-08-12T08:44:27.000Z</time>
      </trkpt>
      <trkpt lat="43.38882" lon="-0.65673">
        <ele>124.80000305176</ele>
        <time>2025-08-12T08:44:34.000Z</time>
      </trkpt>
      <trkpt lat="43.38897" lon="-0.65693">
        <ele>124.59999847412</ele>
        <time>2025-08-12T08:44:38.000Z</time>
      </trkpt>
      <trkpt lat="43.38914" lon="-0.65717">
        <ele>124.40000152588</ele>
        <time>2025-08-12T08:44:43.000Z</time>
      </trkpt>
      <trkpt lat="43.38938" lon="-0.65747">
        <ele>125.19999694824</ele>
        <time>2025-08-12T08:44:51.000Z</time>
      </trkpt>
      <trkpt lat="43.38957" lon="-0.65771">
        <ele>125.59999847412</ele>
        <time>2025-08-12T08:44:58.000Z</time>
      </trkpt>
      <trkpt lat="43.38966" lon="-0.6579">
        <ele>126</ele>
        <time>2025-08-12T08:45:02.000Z</time>
      </trkpt>
      <trkpt lat="43.38967" lon="-0.65797">
        <ele>126</ele>
        <time>2025-08-12T08:45:03.000Z</time>
      </trkpt>
      <trkpt lat="43.38969" lon="-0.65804">
        <ele>126</ele>
        <time>2025-08-12T08:45:04.000Z</time>
      </trkpt>
      <trkpt lat="43.38973" lon="-0.65833">
        <ele>125.59999847412</ele>
        <time>2025-08-12T08:45:08.000Z</time>
      </trkpt>
      <trkpt lat="43.38974" lon="-0.6584">
        <ele>125.59999847412</ele>
        <time>2025-08-12T08:45:09.000Z</time>
      </trkpt>
      <trkpt lat="43.38975" lon="-0.65858">
        <ele>125</ele>
        <time>2025-08-12T08:45:12.000Z</time>
      </trkpt>
      <trkpt lat="43.38978" lon="-0.65892">
        <ele>124.80000305176</ele>
        <time>2025-08-12T08:45:18.000Z</time>
      </trkpt>
      <trkpt lat="43.3898" lon="-0.65916">
        <ele>125.19999694824</ele>
        <time>2025-08-12T08:45:22.000Z</time>
      </trkpt>
      <trkpt lat="43.38988" lon="-0.65946">
        <ele>125.40000152588</ele>
        <time>2025-08-12T08:45:27.000Z</time>
      </trkpt>
      <trkpt lat="43.39002" lon="-0.65961">
        <ele>125.40000152588</ele>
        <time>2025-08-12T08:45:31.000Z</time>
      </trkpt>
      <trkpt lat="43.39028" lon="-0.65973">
        <ele>125.59999847412</ele>
        <time>2025-08-12T08:45:37.000Z</time>
      </trkpt>
      <trkpt lat="43.39065" lon="-0.65984">
        <ele>125.19999694824</ele>
        <time>2025-08-12T08:45:44.000Z</time>
      </trkpt>
      <trkpt lat="43.39076" lon="-0.65988">
        <ele>124.80000305176</ele>
        <time>2025-08-12T08:45:46.000Z</time>
      </trkpt>
      <trkpt lat="43.3908" lon="-0.65992">
        <ele>124.59999847412</ele>
        <time>2025-08-12T08:45:47.000Z</time>
      </trkpt>
      <trkpt lat="43.3909" lon="-0.66">
        <ele>124.40000152588</ele>
        <time>2025-08-12T08:45:49.000Z</time>
      </trkpt>
      <trkpt lat="43.39107" lon="-0.66018">
        <ele>124</ele>
        <time>2025-08-12T08:45:53.000Z</time>
      </trkpt>
      <trkpt lat="43.39111" lon="-0.66022">
        <ele>123.80000305176</ele>
        <time>2025-08-12T08:45:54.000Z</time>
      </trkpt>
      <trkpt lat="43.39123" lon="-0.66028">
        <ele>123.80000305176</ele>
        <time>2025-08-12T08:45:56.000Z</time>
      </trkpt>
      <trkpt lat="43.39134" lon="-0.66028">
        <ele>123.59999847412</ele>
        <time>2025-08-12T08:45:58.000Z</time>
      </trkpt>
      <trkpt lat="43.39158" lon="-0.66019">
        <ele>123</ele>
        <time>2025-08-12T08:46:03.000Z</time>
      </trkpt>
      <trkpt lat="43.3917" lon="-0.66015">
        <ele>122.80000305176</ele>
        <time>2025-08-12T08:46:05.000Z</time>
      </trkpt>
      <trkpt lat="43.3918" lon="-0.66015">
        <ele>122.59999847412</ele>
        <time>2025-08-12T08:46:07.000Z</time>
      </trkpt>
      <trkpt lat="43.39185" lon="-0.66017">
        <ele>122.40000152588</ele>
        <time>2025-08-12T08:46:08.000Z</time>
      </trkpt>
      <trkpt lat="43.39189" lon="-0.66019">
        <ele>122.40000152588</ele>
        <time>2025-08-12T08:46:09.000Z</time>
      </trkpt>
      <trkpt lat="43.39196" lon="-0.66028">
        <ele>122.19999694824</ele>
        <time>2025-08-12T08:46:11.000Z</time>
      </trkpt>
      <trkpt lat="43.39198" lon="-0.66035">
        <ele>122.19999694824</ele>
        <time>2025-08-12T08:46:12.000Z</time>
      </trkpt>
      <trkpt lat="43.392" lon="-0.66042">
        <ele>122.19999694824</ele>
        <time>2025-08-12T08:46:13.000Z</time>
      </trkpt>
      <trkpt lat="43.39201" lon="-0.66067">
        <ele>122</ele>
        <time>2025-08-12T08:46:16.000Z</time>
      </trkpt>
      <trkpt lat="43.39201" lon="-0.66113">
        <ele>121.40000152588</ele>
        <time>2025-08-12T08:46:22.000Z</time>
      </trkpt>
      <trkpt lat="43.39201" lon="-0.66129">
        <ele>121.19999694824</ele>
        <time>2025-08-12T08:46:24.000Z</time>
      </trkpt>
      <trkpt lat="43.39201" lon="-0.6616">
        <ele>121</ele>
        <time>2025-08-12T08:46:29.000Z</time>
      </trkpt>
      <trkpt lat="43.39201" lon="-0.66198">
        <ele>122</ele>
        <time>2025-08-12T08:46:36.000Z</time>
      </trkpt>
      <trkpt lat="43.39207" lon="-0.66227">
        <ele>122.40000152588</ele>
        <time>2025-08-12T08:46:41.000Z</time>
      </trkpt>
      <trkpt lat="43.39209" lon="-0.66232">
        <ele>122.59999847412</ele>
        <time>2025-08-12T08:46:42.000Z</time>
      </trkpt>
      <trkpt lat="43.39227" lon="-0.6627">
        <ele>122.80000305176</ele>
        <time>2025-08-12T08:46:49.000Z</time>
      </trkpt>
      <trkpt lat="43.39252" lon="-0.66312">
        <ele>123.59999847412</ele>
        <time>2025-08-12T08:46:56.000Z</time>
      </trkpt>
      <trkpt lat="43.39268" lon="-0.6633">
        <ele>123.59999847412</ele>
        <time>2025-08-12T08:46:59.000Z</time>
      </trkpt>
      <trkpt lat="43.39273" lon="-0.66339">
        <ele>123.80000305176</ele>
        <time>2025-08-12T08:47:01.000Z</time>
      </trkpt>
      <trkpt lat="43.39276" lon="-0.66345">
        <ele>123.80000305176</ele>
        <time>2025-08-12T08:47:02.000Z</time>
      </trkpt>
      <trkpt lat="43.3928" lon="-0.66349">
        <ele>123.80000305176</ele>
        <time>2025-08-12T08:47:03.000Z</time>
      </trkpt>
      <trkpt lat="43.393" lon="-0.66379">
        <ele>124</ele>
        <time>2025-08-12T08:47:09.000Z</time>
      </trkpt>
      <trkpt lat="43.39314" lon="-0.66393">
        <ele>123.80000305176</ele>
        <time>2025-08-12T08:47:12.000Z</time>
      </trkpt>
      <trkpt lat="43.39324" lon="-0.66405">
        <ele>123.40000152588</ele>
        <time>2025-08-12T08:47:14.000Z</time>
      </trkpt>
      <trkpt lat="43.39361" lon="-0.66442">
        <ele>122.40000152588</ele>
        <time>2025-08-12T08:47:23.000Z</time>
      </trkpt>
      <trkpt lat="43.39375" lon="-0.66457">
        <ele>122.19999694824</ele>
        <time>2025-08-12T08:47:26.000Z</time>
      </trkpt>
      <trkpt lat="43.39403" lon="-0.66491">
        <ele>121.59999847412</ele>
        <time>2025-08-12T08:47:33.000Z</time>
      </trkpt>
      <trkpt lat="43.39426" lon="-0.66538">
        <ele>121.59999847412</ele>
        <time>2025-08-12T08:47:41.000Z</time>
      </trkpt>
      <trkpt lat="43.39448" lon="-0.66591">
        <ele>122</ele>
        <time>2025-08-12T08:47:50.000Z</time>
      </trkpt>
      <trkpt lat="43.3945" lon="-0.66597">
        <ele>122.19999694824</ele>
        <time>2025-08-12T08:47:51.000Z</time>
      </trkpt>
      <trkpt lat="43.39466" lon="-0.66652">
        <ele>122.59999847412</ele>
        <time>2025-08-12T08:48:00.000Z</time>
      </trkpt>
      <trkpt lat="43.39488" lon="-0.66713">
        <ele>122.80000305176</ele>
        <time>2025-08-12T08:48:09.000Z</time>
      </trkpt>
      <trkpt lat="43.39508" lon="-0.66758">
        <ele>122.19999694824</ele>
        <time>2025-08-12T08:48:15.000Z</time>
      </trkpt>
      <trkpt lat="43.39528" lon="-0.668">
        <ele>121.80000305176</ele>
        <time>2025-08-12T08:48:22.000Z</time>
      </trkpt>
      <trkpt lat="43.3955" lon="-0.66853">
        <ele>122</ele>
        <time>2025-08-12T08:48:30.000Z</time>
      </trkpt>
      <trkpt lat="43.39566" lon="-0.66891">
        <ele>122.19999694824</ele>
        <time>2025-08-12T08:48:37.000Z</time>
      </trkpt>
      <trkpt lat="43.39591" lon="-0.66955">
        <ele>122.80000305176</ele>
        <time>2025-08-12T08:48:48.000Z</time>
      </trkpt>
      <trkpt lat="43.39602" lon="-0.66984">
        <ele>123.19999694824</ele>
        <time>2025-08-12T08:48:54.000Z</time>
      </trkpt>
      <trkpt lat="43.39608" lon="-0.66994">
        <ele>123.40000152588</ele>
        <time>2025-08-12T08:48:57.000Z</time>
      </trkpt>
      <trkpt lat="43.39615" lon="-0.67006">
        <ele>123.80000305176</ele>
        <time>2025-08-12T08:49:00.000Z</time>
      </trkpt>
      <trkpt lat="43.39624" lon="-0.67022">
        <ele>124.40000152588</ele>
        <time>2025-08-12T08:49:05.000Z</time>
      </trkpt>
      <trkpt lat="43.39634" lon="-0.67037">
        <ele>124.80000305176</ele>
        <time>2025-08-12T08:49:10.000Z</time>
      </trkpt>
      <trkpt lat="43.39642" lon="-0.6705">
        <ele>125.40000152588</ele>
        <time>2025-08-12T08:49:15.000Z</time>
      </trkpt>
      <trkpt lat="43.39645" lon="-0.67055">
        <ele>125.80000305176</ele>
        <time>2025-08-12T08:49:17.000Z</time>
      </trkpt>
      <trkpt lat="43.39652" lon="-0.67069">
        <ele>126.59999847412</ele>
        <time>2025-08-12T08:49:22.000Z</time>
      </trkpt>
      <trkpt lat="43.39653" lon="-0.67071">
        <ele>127</ele>
        <time>2025-08-12T08:49:23.000Z</time>
      </trkpt>
      <trkpt lat="43.39656" lon="-0.6708">
        <ele>127.80000305176</ele>
        <time>2025-08-12T08:49:26.000Z</time>
      </trkpt>
      <trkpt lat="43.39656" lon="-0.6709">
        <ele>128.60000610352</ele>
        <time>2025-08-12T08:49:29.000Z</time>
      </trkpt>
      <trkpt lat="43.39657" lon="-0.67093">
        <ele>129</ele>
        <time>2025-08-12T08:49:30.000Z</time>
      </trkpt>
      <trkpt lat="43.39658" lon="-0.67095">
        <ele>129.19999694824</ele>
        <time>2025-08-12T08:49:31.000Z</time>
      </trkpt>
      <trkpt lat="43.39657" lon="-0.671">
        <ele>129.60000610352</ele>
        <time>2025-08-12T08:49:33.000Z</time>
      </trkpt>
      <trkpt lat="43.39658" lon="-0.67105">
        <ele>129.80000305176</ele>
        <time>2025-08-12T08:49:35.000Z</time>
      </trkpt>
      <trkpt lat="43.39657" lon="-0.67107">
        <ele>130</ele>
        <time>2025-08-12T08:49:36.000Z</time>
      </trkpt>
      <trkpt lat="43.39656" lon="-0.67109">
        <ele>130.39999389648</ele>
        <time>2025-08-12T08:49:37.000Z</time>
      </trkpt>
      <trkpt lat="43.39657" lon="-0.67115">
        <ele>130.80000305176</ele>
        <time>2025-08-12T08:49:40.000Z</time>
      </trkpt>
      <trkpt lat="43.39657" lon="-0.67117">
        <ele>131</ele>
        <time>2025-08-12T08:49:41.000Z</time>
      </trkpt>
      <trkpt lat="43.39658" lon="-0.67123">
        <ele>131.39999389648</ele>
        <time>2025-08-12T08:49:43.000Z</time>
      </trkpt>
      <trkpt lat="43.39658" lon="-0.67127">
        <ele>131.60000610352</ele>
        <time>2025-08-12T08:49:45.000Z</time>
      </trkpt>
      <trkpt lat="43.39661" lon="-0.67135">
        <ele>132.19999694824</ele>
        <time>2025-08-12T08:49:48.000Z</time>
      </trkpt>
      <trkpt lat="43.39668" lon="-0.67152">
        <ele>132.60000610352</ele>
        <time>2025-08-12T08:49:53.000Z</time>
      </trkpt>
      <trkpt lat="43.39679" lon="-0.67176">
        <ele>132.19999694824</ele>
        <time>2025-08-12T08:49:58.000Z</time>
      </trkpt>
      <trkpt lat="43.39681" lon="-0.67182">
        <ele>132.19999694824</ele>
        <time>2025-08-12T08:49:59.000Z</time>
      </trkpt>
      <trkpt lat="43.39691" lon="-0.6722">
        <ele>131.39999389648</ele>
        <time>2025-08-12T08:50:04.000Z</time>
      </trkpt>
      <trkpt lat="43.39694" lon="-0.6723">
        <ele>130.39999389648</ele>
        <time>2025-08-12T08:50:05.000Z</time>
      </trkpt>
      <trkpt lat="43.39702" lon="-0.67245">
        <ele>129</ele>
        <time>2025-08-12T08:50:07.000Z</time>
      </trkpt>
      <trkpt lat="43.39708" lon="-0.67252">
        <ele>128.60000610352</ele>
        <time>2025-08-12T08:50:08.000Z</time>
      </trkpt>
      <trkpt lat="43.39715" lon="-0.67258">
        <ele>128</ele>
        <time>2025-08-12T08:50:09.000Z</time>
      </trkpt>
      <trkpt lat="43.39728" lon="-0.67264">
        <ele>127.19999694824</ele>
        <time>2025-08-12T08:50:11.000Z</time>
      </trkpt>
      <trkpt lat="43.39734" lon="-0.67266">
        <ele>126.80000305176</ele>
        <time>2025-08-12T08:50:12.000Z</time>
      </trkpt>
      <trkpt lat="43.39747" lon="-0.67272">
        <ele>126.59999847412</ele>
        <time>2025-08-12T08:50:15.000Z</time>
      </trkpt>
      <trkpt lat="43.39757" lon="-0.67279">
        <ele>126.80000305176</ele>
        <time>2025-08-12T08:50:19.000Z</time>
      </trkpt>
      <trkpt lat="43.39765" lon="-0.67287">
        <ele>128.19999694824</ele>
        <time>2025-08-12T08:50:23.000Z</time>
      </trkpt>
      <trkpt lat="43.39768" lon="-0.67291">
        <ele>129</ele>
        <time>2025-08-12T08:50:25.000Z</time>
      </trkpt>
      <trkpt lat="43.39769" lon="-0.67293">
        <ele>129.39999389648</ele>
        <time>2025-08-12T08:50:26.000Z</time>
      </trkpt>
      <trkpt lat="43.39775" lon="-0.67302">
        <ele>130.60000610352</ele>
        <time>2025-08-12T08:50:30.000Z</time>
      </trkpt>
      <trkpt lat="43.39776" lon="-0.67305">
        <ele>130.80000305176</ele>
        <time>2025-08-12T08:50:31.000Z</time>
      </trkpt>
      <trkpt lat="43.39784" lon="-0.67313">
        <ele>131.80000305176</ele>
        <time>2025-08-12T08:50:35.000Z</time>
      </trkpt>
      <trkpt lat="43.39785" lon="-0.67315">
        <ele>131.80000305176</ele>
        <time>2025-08-12T08:50:36.000Z</time>
      </trkpt>
      <trkpt lat="43.39786" lon="-0.67317">
        <ele>132</ele>
        <time>2025-08-12T08:50:37.000Z</time>
      </trkpt>
      <trkpt lat="43.39788" lon="-0.6732">
        <ele>132.39999389648</ele>
        <time>2025-08-12T08:50:39.000Z</time>
      </trkpt>
      <trkpt lat="43.3979" lon="-0.67322">
        <ele>132.80000305176</ele>
        <time>2025-08-12T08:50:41.000Z</time>
      </trkpt>
      <trkpt lat="43.39791" lon="-0.67323">
        <ele>132.80000305176</ele>
        <time>2025-08-12T08:50:42.000Z</time>
      </trkpt>
      <trkpt lat="43.39803" lon="-0.67332">
        <ele>133.60000610352</ele>
        <time>2025-08-12T08:50:49.000Z</time>
      </trkpt>
      <trkpt lat="43.39814" lon="-0.67342">
        <ele>133.60000610352</ele>
        <time>2025-08-12T08:50:55.000Z</time>
      </trkpt>
      <trkpt lat="43.3983" lon="-0.67359">
        <ele>133.39999389648</ele>
        <time>2025-08-12T08:51:01.000Z</time>
      </trkpt>
      <trkpt lat="43.39845" lon="-0.67374">
        <ele>133</ele>
        <time>2025-08-12T08:51:06.000Z</time>
      </trkpt>
      <trkpt lat="43.3986" lon="-0.67392">
        <ele>132.80000305176</ele>
        <time>2025-08-12T08:51:12.000Z</time>
      </trkpt>
      <trkpt lat="43.39873" lon="-0.67405">
        <ele>132.80000305176</ele>
        <time>2025-08-12T08:51:17.000Z</time>
      </trkpt>
      <trkpt lat="43.39889" lon="-0.67423">
        <ele>133</ele>
        <time>2025-08-12T08:51:24.000Z</time>
      </trkpt>
      <trkpt lat="43.39903" lon="-0.67441">
        <ele>132.60000610352</ele>
        <time>2025-08-12T08:51:30.000Z</time>
      </trkpt>
      <trkpt lat="43.39911" lon="-0.67455">
        <ele>132.19999694824</ele>
        <time>2025-08-12T08:51:33.000Z</time>
      </trkpt>
      <trkpt lat="43.39913" lon="-0.67463">
        <ele>132.19999694824</ele>
        <time>2025-08-12T08:51:34.000Z</time>
      </trkpt>
      <trkpt lat="43.39916" lon="-0.67482">
        <ele>131.80000305176</ele>
        <time>2025-08-12T08:51:36.000Z</time>
      </trkpt>
      <trkpt lat="43.39918" lon="-0.67492">
        <ele>131.60000610352</ele>
        <time>2025-08-12T08:51:37.000Z</time>
      </trkpt>
      <trkpt lat="43.39928" lon="-0.67514">
        <ele>130.39999389648</ele>
        <time>2025-08-12T08:51:39.000Z</time>
      </trkpt>
      <trkpt lat="43.39932" lon="-0.6752">
        <ele>129.80000305176</ele>
        <time>2025-08-12T08:51:40.000Z</time>
      </trkpt>
      <trkpt lat="43.39938" lon="-0.67525">
        <ele>129.39999389648</ele>
        <time>2025-08-12T08:51:41.000Z</time>
      </trkpt>
      <trkpt lat="43.39943" lon="-0.67529">
        <ele>128.80000305176</ele>
        <time>2025-08-12T08:51:42.000Z</time>
      </trkpt>
      <trkpt lat="43.39949" lon="-0.67533">
        <ele>128.60000610352</ele>
        <time>2025-08-12T08:51:43.000Z</time>
      </trkpt>
      <trkpt lat="43.39962" lon="-0.67543">
        <ele>128.60000610352</ele>
        <time>2025-08-12T08:51:47.000Z</time>
      </trkpt>
      <trkpt lat="43.39969" lon="-0.67551">
        <ele>129.19999694824</ele>
        <time>2025-08-12T08:51:51.000Z</time>
      </trkpt>
      <trkpt lat="43.39971" lon="-0.67558">
        <ele>130</ele>
        <time>2025-08-12T08:51:54.000Z</time>
      </trkpt>
      <trkpt lat="43.39976" lon="-0.67563">
        <ele>130.60000610352</ele>
        <time>2025-08-12T08:51:57.000Z</time>
      </trkpt>
      <trkpt lat="43.39978" lon="-0.67569">
        <ele>131.19999694824</ele>
        <time>2025-08-12T08:51:59.000Z</time>
      </trkpt>
      <trkpt lat="43.39987" lon="-0.67585">
        <ele>132.39999389648</ele>
        <time>2025-08-12T08:52:05.000Z</time>
      </trkpt>
      <trkpt lat="43.3999" lon="-0.6759">
        <ele>132.60000610352</ele>
        <time>2025-08-12T08:52:07.000Z</time>
      </trkpt>
      <trkpt lat="43.39994" lon="-0.67599">
        <ele>133.39999389648</ele>
        <time>2025-08-12T08:52:10.000Z</time>
      </trkpt>
      <trkpt lat="43.40003" lon="-0.67616">
        <ele>134.19999694824</ele>
        <time>2025-08-12T08:52:16.000Z</time>
      </trkpt>
      <trkpt lat="43.40007" lon="-0.67629">
        <ele>134.39999389648</ele>
        <time>2025-08-12T08:52:20.000Z</time>
      </trkpt>
      <trkpt lat="43.40009" lon="-0.67637">
        <ele>134.60000610352</ele>
        <time>2025-08-12T08:52:22.000Z</time>
      </trkpt>
      <trkpt lat="43.40015" lon="-0.67661">
        <ele>134.60000610352</ele>
        <time>2025-08-12T08:52:28.000Z</time>
      </trkpt>
      <trkpt lat="43.40031" lon="-0.67696">
        <ele>134.60000610352</ele>
        <time>2025-08-12T08:52:36.000Z</time>
      </trkpt>
      <trkpt lat="43.40052" lon="-0.67718">
        <ele>134.60000610352</ele>
        <time>2025-08-12T08:52:42.000Z</time>
      </trkpt>
      <trkpt lat="43.4006" lon="-0.67725">
        <ele>134.39999389648</ele>
        <time>2025-08-12T08:52:44.000Z</time>
      </trkpt>
      <trkpt lat="43.40081" lon="-0.67743">
        <ele>133.80000305176</ele>
        <time>2025-08-12T08:52:49.000Z</time>
      </trkpt>
      <trkpt lat="43.40093" lon="-0.67753">
        <ele>133.19999694824</ele>
        <time>2025-08-12T08:52:52.000Z</time>
      </trkpt>
      <trkpt lat="43.40107" lon="-0.67768">
        <ele>132.80000305176</ele>
        <time>2025-08-12T08:52:55.000Z</time>
      </trkpt>
      <trkpt lat="43.40117" lon="-0.6778">
        <ele>132.39999389648</ele>
        <time>2025-08-12T08:52:57.000Z</time>
      </trkpt>
      <trkpt lat="43.40135" lon="-0.67801">
        <ele>131</ele>
        <time>2025-08-12T08:53:00.000Z</time>
      </trkpt>
      <trkpt lat="43.40148" lon="-0.67816">
        <ele>129.60000610352</ele>
        <time>2025-08-12T08:53:02.000Z</time>
      </trkpt>
      <trkpt lat="43.4016" lon="-0.67831">
        <ele>127.59999847412</ele>
        <time>2025-08-12T08:53:04.000Z</time>
      </trkpt>
      <trkpt lat="43.40166" lon="-0.67838">
        <ele>126</ele>
        <time>2025-08-12T08:53:05.000Z</time>
      </trkpt>
      <trkpt lat="43.40179" lon="-0.67854">
        <ele>124.19999694824</ele>
        <time>2025-08-12T08:53:07.000Z</time>
      </trkpt>
      <trkpt lat="43.40185" lon="-0.67862">
        <ele>123.40000152588</ele>
        <time>2025-08-12T08:53:08.000Z</time>
      </trkpt>
      <trkpt lat="43.40192" lon="-0.67871">
        <ele>122.19999694824</ele>
        <time>2025-08-12T08:53:09.000Z</time>
      </trkpt>
      <trkpt lat="43.402" lon="-0.67884">
        <ele>120.19999694824</ele>
        <time>2025-08-12T08:53:11.000Z</time>
      </trkpt>
      <trkpt lat="43.40207" lon="-0.67897">
        <ele>118.80000305176</ele>
        <time>2025-08-12T08:53:13.000Z</time>
      </trkpt>
      <trkpt lat="43.4021" lon="-0.67904">
        <ele>118.19999694824</ele>
        <time>2025-08-12T08:53:14.000Z</time>
      </trkpt>
      <trkpt lat="43.4021" lon="-0.67918">
        <ele>117.59999847412</ele>
        <time>2025-08-12T08:53:16.000Z</time>
      </trkpt>
      <trkpt lat="43.40207" lon="-0.67928">
        <ele>117.19999694824</ele>
        <time>2025-08-12T08:53:18.000Z</time>
      </trkpt>
      <trkpt lat="43.40204" lon="-0.67932">
        <ele>117.19999694824</ele>
        <time>2025-08-12T08:53:19.000Z</time>
      </trkpt>
      <trkpt lat="43.40176" lon="-0.67948">
        <ele>116.59999847412</ele>
        <time>2025-08-12T08:53:25.000Z</time>
      </trkpt>
      <trkpt lat="43.40133" lon="-0.67974">
        <ele>117</ele>
        <time>2025-08-12T08:53:34.000Z</time>
      </trkpt>
      <trkpt lat="43.40104" lon="-0.67996">
        <ele>116.59999847412</ele>
        <time>2025-08-12T08:53:41.000Z</time>
      </trkpt>
      <trkpt lat="43.401" lon="-0.68">
        <ele>116.40000152588</ele>
        <time>2025-08-12T08:53:42.000Z</time>
      </trkpt>
      <trkpt lat="43.40069" lon="-0.68032">
        <ele>116.40000152588</ele>
        <time>2025-08-12T08:53:51.000Z</time>
      </trkpt>
      <trkpt lat="43.40048" lon="-0.68056">
        <ele>117.19999694824</ele>
        <time>2025-08-12T08:53:59.000Z</time>
      </trkpt>
      <trkpt lat="43.4004" lon="-0.68072">
        <ele>117.59999847412</ele>
        <time>2025-08-12T08:54:04.000Z</time>
      </trkpt>
      <trkpt lat="43.40039" lon="-0.68077">
        <ele>117.80000305176</ele>
        <time>2025-08-12T08:54:05.000Z</time>
      </trkpt>
      <trkpt lat="43.40043" lon="-0.68093">
        <ele>118.19999694824</ele>
        <time>2025-08-12T08:54:09.000Z</time>
      </trkpt>
      <trkpt lat="43.40051" lon="-0.68113">
        <ele>119</ele>
        <time>2025-08-12T08:54:15.000Z</time>
      </trkpt>
      <trkpt lat="43.40054" lon="-0.68119">
        <ele>119.19999694824</ele>
        <time>2025-08-12T08:54:17.000Z</time>
      </trkpt>
      <trkpt lat="43.40065" lon="-0.68144">
        <ele>119.80000305176</ele>
        <time>2025-08-12T08:54:25.000Z</time>
      </trkpt>
      <trkpt lat="43.40069" lon="-0.68151">
        <ele>120</ele>
        <time>2025-08-12T08:54:27.000Z</time>
      </trkpt>
      <trkpt lat="43.4008" lon="-0.68176">
        <ele>121</ele>
        <time>2025-08-12T08:54:35.000Z</time>
      </trkpt>
      <trkpt lat="43.40084" lon="-0.68182">
        <ele>121.19999694824</ele>
        <time>2025-08-12T08:54:36.000Z</time>
      </trkpt>
      <trkpt lat="43.40094" lon="-0.68205">
        <ele>122.19999694824</ele>
        <time>2025-08-12T08:54:43.000Z</time>
      </trkpt>
      <trkpt lat="43.40094" lon="-0.68205">
        <ele>122.19999694824</ele>
        <time>2025-08-12T08:54:44.000Z</time>
      </trkpt>
      <trkpt lat="43.4011" lon="-0.6824">
        <ele>122.40000152588</ele>
        <time>2025-08-12T08:54:51.000Z</time>
      </trkpt>
      <trkpt lat="43.40128" lon="-0.6828">
        <ele>121.80000305176</ele>
        <time>2025-08-12T08:54:58.000Z</time>
      </trkpt>
      <trkpt lat="43.40138" lon="-0.68298">
        <ele>121.80000305176</ele>
        <time>2025-08-12T08:55:03.000Z</time>
      </trkpt>
      <trkpt lat="43.4015" lon="-0.68312">
        <ele>122.40000152588</ele>
        <time>2025-08-12T08:55:09.000Z</time>
      </trkpt>
      <trkpt lat="43.40153" lon="-0.68316">
        <ele>123.19999694824</ele>
        <time>2025-08-12T08:55:11.000Z</time>
      </trkpt>
      <trkpt lat="43.40162" lon="-0.68325">
        <ele>124.40000152588</ele>
        <time>2025-08-12T08:55:16.000Z</time>
      </trkpt>
      <trkpt lat="43.40175" lon="-0.68335">
        <ele>125.40000152588</ele>
        <time>2025-08-12T08:55:22.000Z</time>
      </trkpt>
      <trkpt lat="43.40181" lon="-0.6834">
        <ele>126</ele>
        <time>2025-08-12T08:55:25.000Z</time>
      </trkpt>
      <trkpt lat="43.40192" lon="-0.6835">
        <ele>126.40000152588</ele>
        <time>2025-08-12T08:55:30.000Z</time>
      </trkpt>
      <trkpt lat="43.402" lon="-0.68357">
        <ele>126.59999847412</ele>
        <time>2025-08-12T08:55:33.000Z</time>
      </trkpt>
      <trkpt lat="43.40221" lon="-0.68376">
        <ele>126.59999847412</ele>
        <time>2025-08-12T08:55:38.000Z</time>
      </trkpt>
      <trkpt lat="43.40254" lon="-0.68407">
        <ele>125.59999847412</ele>
        <time>2025-08-12T08:55:45.000Z</time>
      </trkpt>
      <trkpt lat="43.40259" lon="-0.6841">
        <ele>125.40000152588</ele>
        <time>2025-08-12T08:55:46.000Z</time>
      </trkpt>
      <trkpt lat="43.40288" lon="-0.68438">
        <ele>125.19999694824</ele>
        <time>2025-08-12T08:55:53.000Z</time>
      </trkpt>
      <trkpt lat="43.40319" lon="-0.68483">
        <ele>125</ele>
        <time>2025-08-12T08:56:01.000Z</time>
      </trkpt>
      <trkpt lat="43.40327" lon="-0.68495">
        <ele>124.59999847412</ele>
        <time>2025-08-12T08:56:03.000Z</time>
      </trkpt>
      <trkpt lat="43.40349" lon="-0.68528">
        <ele>124</ele>
        <time>2025-08-12T08:56:08.000Z</time>
      </trkpt>
      <trkpt lat="43.40369" lon="-0.68557">
        <ele>123.59999847412</ele>
        <time>2025-08-12T08:56:14.000Z</time>
      </trkpt>
      <trkpt lat="43.40391" lon="-0.68586">
        <ele>124</ele>
        <time>2025-08-12T08:56:21.000Z</time>
      </trkpt>
      <trkpt lat="43.4042" lon="-0.68625">
        <ele>124</ele>
        <time>2025-08-12T08:56:29.000Z</time>
      </trkpt>
      <trkpt lat="43.40441" lon="-0.68654">
        <ele>123.59999847412</ele>
        <time>2025-08-12T08:56:34.000Z</time>
      </trkpt>
      <trkpt lat="43.4045" lon="-0.68667">
        <ele>123</ele>
        <time>2025-08-12T08:56:36.000Z</time>
      </trkpt>
      <trkpt lat="43.4047" lon="-0.68693">
        <ele>122</ele>
        <time>2025-08-12T08:56:40.000Z</time>
      </trkpt>
      <trkpt lat="43.4048" lon="-0.68707">
        <ele>121.80000305176</ele>
        <time>2025-08-12T08:56:42.000Z</time>
      </trkpt>
      <trkpt lat="43.40498" lon="-0.68736">
        <ele>121</ele>
        <time>2025-08-12T08:56:46.000Z</time>
      </trkpt>
      <trkpt lat="43.40512" lon="-0.68766">
        <ele>120.59999847412</ele>
        <time>2025-08-12T08:56:50.000Z</time>
      </trkpt>
      <trkpt lat="43.40533" lon="-0.68814">
        <ele>120</ele>
        <time>2025-08-12T08:56:57.000Z</time>
      </trkpt>
      <trkpt lat="43.40552" lon="-0.6886">
        <ele>120.19999694824</ele>
        <time>2025-08-12T08:57:03.000Z</time>
      </trkpt>
      <trkpt lat="43.40567" lon="-0.68894">
        <ele>119.59999847412</ele>
        <time>2025-08-12T08:57:07.000Z</time>
      </trkpt>
      <trkpt lat="43.4057" lon="-0.68902">
        <ele>119.40000152588</ele>
        <time>2025-08-12T08:57:08.000Z</time>
      </trkpt>
      <trkpt lat="43.40593" lon="-0.68957">
        <ele>118.80000305176</ele>
        <time>2025-08-12T08:57:15.000Z</time>
      </trkpt>
      <trkpt lat="43.40613" lon="-0.69017">
        <ele>119</ele>
        <time>2025-08-12T08:57:23.000Z</time>
      </trkpt>
      <trkpt lat="43.40626" lon="-0.69058">
        <ele>119.40000152588</ele>
        <time>2025-08-12T08:57:30.000Z</time>
      </trkpt>
      <trkpt lat="43.40639" lon="-0.69098">
        <ele>120.80000305176</ele>
        <time>2025-08-12T08:57:38.000Z</time>
      </trkpt>
      <trkpt lat="43.40641" lon="-0.69103">
        <ele>121</ele>
        <time>2025-08-12T08:57:39.000Z</time>
      </trkpt>
      <trkpt lat="43.4065" lon="-0.69136">
        <ele>121.40000152588</ele>
        <time>2025-08-12T08:57:45.000Z</time>
      </trkpt>
      <trkpt lat="43.40658" lon="-0.69158">
        <ele>121.40000152588</ele>
        <time>2025-08-12T08:57:49.000Z</time>
      </trkpt>
      <trkpt lat="43.40674" lon="-0.692">
        <ele>121.40000152588</ele>
        <time>2025-08-12T08:57:55.000Z</time>
      </trkpt>
      <trkpt lat="43.40695" lon="-0.69238">
        <ele>121</ele>
        <time>2025-08-12T08:57:59.000Z</time>
      </trkpt>
      <trkpt lat="43.40725" lon="-0.6929">
        <ele>119.80000305176</ele>
        <time>2025-08-12T08:58:04.000Z</time>
      </trkpt>
      <trkpt lat="43.40749" lon="-0.69331">
        <ele>119.19999694824</ele>
        <time>2025-08-12T08:58:09.000Z</time>
      </trkpt>
      <trkpt lat="43.40767" lon="-0.69362">
        <ele>119.40000152588</ele>
        <time>2025-08-12T08:58:14.000Z</time>
      </trkpt>
      <trkpt lat="43.40786" lon="-0.69391">
        <ele>120.80000305176</ele>
        <time>2025-08-12T08:58:20.000Z</time>
      </trkpt>
      <trkpt lat="43.40801" lon="-0.69417">
        <ele>122</ele>
        <time>2025-08-12T08:58:27.000Z</time>
      </trkpt>
      <trkpt lat="43.40815" lon="-0.6944">
        <ele>123.40000152588</ele>
        <time>2025-08-12T08:58:34.000Z</time>
      </trkpt>
      <trkpt lat="43.40819" lon="-0.69446">
        <ele>123.40000152588</ele>
        <time>2025-08-12T08:58:36.000Z</time>
      </trkpt>
      <trkpt lat="43.40834" lon="-0.69472">
        <ele>124.40000152588</ele>
        <time>2025-08-12T08:58:44.000Z</time>
      </trkpt>
      <trkpt lat="43.40852" lon="-0.69497">
        <ele>124.40000152588</ele>
        <time>2025-08-12T08:58:50.000Z</time>
      </trkpt>
      <trkpt lat="43.40879" lon="-0.69523">
        <ele>124.40000152588</ele>
        <time>2025-08-12T08:58:57.000Z</time>
      </trkpt>
      <trkpt lat="43.40892" lon="-0.69532">
        <ele>124.40000152588</ele>
        <time>2025-08-12T08:59:00.000Z</time>
      </trkpt>
      <trkpt lat="43.40903" lon="-0.69538">
        <ele>124.40000152588</ele>
        <time>2025-08-12T08:59:03.000Z</time>
      </trkpt>
      <trkpt lat="43.40919" lon="-0.69546">
        <ele>125.19999694824</ele>
        <time>2025-08-12T08:59:09.000Z</time>
      </trkpt>
      <trkpt lat="43.40923" lon="-0.69548">
        <ele>125.59999847412</ele>
        <time>2025-08-12T08:59:11.000Z</time>
      </trkpt>
      <trkpt lat="43.40933" lon="-0.69552">
        <ele>126.40000152588</ele>
        <time>2025-08-12T08:59:15.000Z</time>
      </trkpt>
      <trkpt lat="43.40936" lon="-0.69554">
        <ele>126.59999847412</ele>
        <time>2025-08-12T08:59:16.000Z</time>
      </trkpt>
      <trkpt lat="43.40947" lon="-0.6956">
        <ele>126.80000305176</ele>
        <time>2025-08-12T08:59:21.000Z</time>
      </trkpt>
      <trkpt lat="43.4095" lon="-0.69562">
        <ele>127</ele>
        <time>2025-08-12T08:59:25.000Z</time>
      </trkpt>
      <trkpt lat="43.4095" lon="-0.69562">
        <ele>127</ele>
        <time>2025-08-12T08:59:26.000Z</time>
      </trkpt>
      <trkpt lat="43.40953" lon="-0.69564">
        <ele>127.80000305176</ele>
        <time>2025-08-12T09:05:20.000Z</time>
      </trkpt>
      <trkpt lat="43.40958" lon="-0.69568">
        <ele>127.80000305176</ele>
        <time>2025-08-12T09:05:23.000Z</time>
      </trkpt>
      <trkpt lat="43.40972" lon="-0.69576">
        <ele>127.40000152588</ele>
        <time>2025-08-12T09:05:30.000Z</time>
      </trkpt>
      <trkpt lat="43.40988" lon="-0.69589">
        <ele>127</ele>
        <time>2025-08-12T09:05:37.000Z</time>
      </trkpt>
      <trkpt lat="43.41009" lon="-0.69606">
        <ele>126.40000152588</ele>
        <time>2025-08-12T09:05:45.000Z</time>
      </trkpt>
      <trkpt lat="43.41014" lon="-0.69611">
        <ele>126.19999694824</ele>
        <time>2025-08-12T09:05:47.000Z</time>
      </trkpt>
      <trkpt lat="43.41036" lon="-0.6963">
        <ele>125.19999694824</ele>
        <time>2025-08-12T09:05:54.000Z</time>
      </trkpt>
      <trkpt lat="43.41065" lon="-0.69656">
        <ele>124.59999847412</ele>
        <time>2025-08-12T09:06:02.000Z</time>
      </trkpt>
      <trkpt lat="43.41087" lon="-0.69676">
        <ele>124.19999694824</ele>
        <time>2025-08-12T09:06:08.000Z</time>
      </trkpt>
      <trkpt lat="43.41105" lon="-0.69693">
        <ele>123.80000305176</ele>
        <time>2025-08-12T09:06:13.000Z</time>
      </trkpt>
      <trkpt lat="43.41125" lon="-0.69711">
        <ele>123.19999694824</ele>
        <time>2025-08-12T09:06:18.000Z</time>
      </trkpt>
      <trkpt lat="43.41132" lon="-0.69718">
        <ele>123</ele>
        <time>2025-08-12T09:06:20.000Z</time>
      </trkpt>
      <trkpt lat="43.41165" lon="-0.69746">
        <ele>122</ele>
        <time>2025-08-12T09:06:28.000Z</time>
      </trkpt>
      <trkpt lat="43.41196" lon="-0.69775">
        <ele>121.59999847412</ele>
        <time>2025-08-12T09:06:37.000Z</time>
      </trkpt>
      <trkpt lat="43.41224" lon="-0.698">
        <ele>120.80000305176</ele>
        <time>2025-08-12T09:06:44.000Z</time>
      </trkpt>
      <trkpt lat="43.41229" lon="-0.69804">
        <ele>120.40000152588</ele>
        <time>2025-08-12T09:06:45.000Z</time>
      </trkpt>
      <trkpt lat="43.41236" lon="-0.69811">
        <ele>119.80000305176</ele>
        <time>2025-08-12T09:06:47.000Z</time>
      </trkpt>
      <trkpt lat="43.41263" lon="-0.69834">
        <ele>118.59999847412</ele>
        <time>2025-08-12T09:06:52.000Z</time>
      </trkpt>
      <trkpt lat="43.41284" lon="-0.6985">
        <ele>117.40000152588</ele>
        <time>2025-08-12T09:06:55.000Z</time>
      </trkpt>
      <trkpt lat="43.41302" lon="-0.69864">
        <ele>116.80000305176</ele>
        <time>2025-08-12T09:06:58.000Z</time>
      </trkpt>
      <trkpt lat="43.41307" lon="-0.69868">
        <ele>116.19999694824</ele>
        <time>2025-08-12T09:06:59.000Z</time>
      </trkpt>
      <trkpt lat="43.41319" lon="-0.69877">
        <ele>115.59999847412</ele>
        <time>2025-08-12T09:07:02.000Z</time>
      </trkpt>
      <trkpt lat="43.41327" lon="-0.69882">
        <ele>115.59999847412</ele>
        <time>2025-08-12T09:07:04.000Z</time>
      </trkpt>
      <trkpt lat="43.41344" lon="-0.6989">
        <ele>116</ele>
        <time>2025-08-12T09:07:08.000Z</time>
      </trkpt>
      <trkpt lat="43.41348" lon="-0.69892">
        <ele>116.19999694824</ele>
        <time>2025-08-12T09:07:09.000Z</time>
      </trkpt>
      <trkpt lat="43.41369" lon="-0.69897">
        <ele>116.19999694824</ele>
        <time>2025-08-12T09:07:14.000Z</time>
      </trkpt>
      <trkpt lat="43.41399" lon="-0.69911">
        <ele>116</ele>
        <time>2025-08-12T09:07:22.000Z</time>
      </trkpt>
      <trkpt lat="43.41421" lon="-0.69931">
        <ele>115.80000305176</ele>
        <time>2025-08-12T09:07:29.000Z</time>
      </trkpt>
      <trkpt lat="43.41453" lon="-0.69965">
        <ele>116.19999694824</ele>
        <time>2025-08-12T09:07:39.000Z</time>
      </trkpt>
      <trkpt lat="43.41482" lon="-0.69998">
        <ele>116</ele>
        <time>2025-08-12T09:07:48.000Z</time>
      </trkpt>
      <trkpt lat="43.41507" lon="-0.70025">
        <ele>116.19999694824</ele>
        <time>2025-08-12T09:07:56.000Z</time>
      </trkpt>
      <trkpt lat="43.41527" lon="-0.70044">
        <ele>116</ele>
        <time>2025-08-12T09:08:01.000Z</time>
      </trkpt>
      <trkpt lat="43.41559" lon="-0.70064">
        <ele>115.40000152588</ele>
        <time>2025-08-12T09:08:08.000Z</time>
      </trkpt>
      <trkpt lat="43.41586" lon="-0.70075">
        <ele>115.40000152588</ele>
        <time>2025-08-12T09:08:15.000Z</time>
      </trkpt>
      <trkpt lat="43.41603" lon="-0.70081">
        <ele>115.40000152588</ele>
        <time>2025-08-12T09:08:19.000Z</time>
      </trkpt>
      <trkpt lat="43.41617" lon="-0.70087">
        <ele>115.40000152588</ele>
        <time>2025-08-12T09:08:22.000Z</time>
      </trkpt>
      <trkpt lat="43.41634" lon="-0.70092">
        <ele>115.19999694824</ele>
        <time>2025-08-12T09:08:25.000Z</time>
      </trkpt>
      <trkpt lat="43.41658" lon="-0.70102">
        <ele>114.59999847412</ele>
        <time>2025-08-12T09:08:30.000Z</time>
      </trkpt>
      <trkpt lat="43.41677" lon="-0.7011">
        <ele>114.40000152588</ele>
        <time>2025-08-12T09:08:34.000Z</time>
      </trkpt>
      <trkpt lat="43.41703" lon="-0.70116">
        <ele>114.19999694824</ele>
        <time>2025-08-12T09:08:39.000Z</time>
      </trkpt>
      <trkpt lat="43.41714" lon="-0.70115">
        <ele>113.80000305176</ele>
        <time>2025-08-12T09:08:41.000Z</time>
      </trkpt>
      <trkpt lat="43.41731" lon="-0.70111">
        <ele>113.80000305176</ele>
        <time>2025-08-12T09:08:45.000Z</time>
      </trkpt>
      <trkpt lat="43.41757" lon="-0.70109">
        <ele>113.19999694824</ele>
        <time>2025-08-12T09:08:50.000Z</time>
      </trkpt>
      <trkpt lat="43.41761" lon="-0.70109">
        <ele>113.19999694824</ele>
        <time>2025-08-12T09:08:51.000Z</time>
      </trkpt>
      <trkpt lat="43.41807" lon="-0.70115">
        <ele>112.40000152588</ele>
        <time>2025-08-12T09:08:59.000Z</time>
      </trkpt>
      <trkpt lat="43.41811" lon="-0.70116">
        <ele>112.19999694824</ele>
        <time>2025-08-12T09:09:00.000Z</time>
      </trkpt>
      <trkpt lat="43.41851" lon="-0.70127">
        <ele>111.19999694824</ele>
        <time>2025-08-12T09:09:07.000Z</time>
      </trkpt>
      <trkpt lat="43.41856" lon="-0.7013">
        <ele>111.19999694824</ele>
        <time>2025-08-12T09:09:08.000Z</time>
      </trkpt>
      <trkpt lat="43.41889" lon="-0.70148">
        <ele>110.19999694824</ele>
        <time>2025-08-12T09:09:14.000Z</time>
      </trkpt>
      <trkpt lat="43.41894" lon="-0.70151">
        <ele>110</ele>
        <time>2025-08-12T09:09:15.000Z</time>
      </trkpt>
      <trkpt lat="43.41941" lon="-0.70179">
        <ele>109.19999694824</ele>
        <time>2025-08-12T09:09:23.000Z</time>
      </trkpt>
      <trkpt lat="43.41946" lon="-0.70182">
        <ele>109</ele>
        <time>2025-08-12T09:09:24.000Z</time>
      </trkpt>
      <trkpt lat="43.41987" lon="-0.70207">
        <ele>108.59999847412</ele>
        <time>2025-08-12T09:09:32.000Z</time>
      </trkpt>
      <trkpt lat="43.42017" lon="-0.70229">
        <ele>108.59999847412</ele>
        <time>2025-08-12T09:09:39.000Z</time>
      </trkpt>
      <trkpt lat="43.42046" lon="-0.70246">
        <ele>109</ele>
        <time>2025-08-12T09:09:46.000Z</time>
      </trkpt>
      <trkpt lat="43.42083" lon="-0.70258">
        <ele>109.59999847412</ele>
        <time>2025-08-12T09:09:55.000Z</time>
      </trkpt>
      <trkpt lat="43.4209" lon="-0.7026">
        <ele>109.59999847412</ele>
        <time>2025-08-12T09:09:57.000Z</time>
      </trkpt>
      <trkpt lat="43.4211" lon="-0.70263">
        <ele>110</ele>
        <time>2025-08-12T09:10:02.000Z</time>
      </trkpt>
      <trkpt lat="43.42122" lon="-0.70265">
        <ele>110.19999694824</ele>
        <time>2025-08-12T09:10:05.000Z</time>
      </trkpt>
      <trkpt lat="43.42142" lon="-0.7027">
        <ele>110.59999847412</ele>
        <time>2025-08-12T09:10:10.000Z</time>
      </trkpt>
      <trkpt lat="43.42165" lon="-0.70275">
        <ele>111.40000152588</ele>
        <time>2025-08-12T09:10:17.000Z</time>
      </trkpt>
      <trkpt lat="43.42174" lon="-0.70277">
        <ele>111.59999847412</ele>
        <time>2025-08-12T09:10:19.000Z</time>
      </trkpt>
      <trkpt lat="43.42201" lon="-0.70285">
        <ele>111.59999847412</ele>
        <time>2025-08-12T09:10:25.000Z</time>
      </trkpt>
      <trkpt lat="43.42233" lon="-0.70296">
        <ele>110.80000305176</ele>
        <time>2025-08-12T09:10:31.000Z</time>
      </trkpt>
      <trkpt lat="43.42242" lon="-0.703">
        <ele>110</ele>
        <time>2025-08-12T09:10:33.000Z</time>
      </trkpt>
      <trkpt lat="43.42269" lon="-0.70313">
        <ele>109.19999694824</ele>
        <time>2025-08-12T09:10:39.000Z</time>
      </trkpt>
      <trkpt lat="43.42294" lon="-0.70318">
        <ele>109.19999694824</ele>
        <time>2025-08-12T09:10:45.000Z</time>
      </trkpt>
      <trkpt lat="43.42311" lon="-0.70322">
        <ele>109.19999694824</ele>
        <time>2025-08-12T09:10:50.000Z</time>
      </trkpt>
      <trkpt lat="43.4235" lon="-0.7033">
        <ele>109.59999847412</ele>
        <time>2025-08-12T09:10:59.000Z</time>
      </trkpt>
      <trkpt lat="43.42378" lon="-0.70336">
        <ele>109</ele>
        <time>2025-08-12T09:11:05.000Z</time>
      </trkpt>
      <trkpt lat="43.42393" lon="-0.70338">
        <ele>108.80000305176</ele>
        <time>2025-08-12T09:11:08.000Z</time>
      </trkpt>
      <trkpt lat="43.42438" lon="-0.70337">
        <ele>108.40000152588</ele>
        <time>2025-08-12T09:11:17.000Z</time>
      </trkpt>
      <trkpt lat="43.42458" lon="-0.70338">
        <ele>108</ele>
        <time>2025-08-12T09:11:21.000Z</time>
      </trkpt>
      <trkpt lat="43.42488" lon="-0.70342">
        <ele>108</ele>
        <time>2025-08-12T09:11:27.000Z</time>
      </trkpt>
      <trkpt lat="43.42536" lon="-0.70352">
        <ele>107.40000152588</ele>
        <time>2025-08-12T09:11:37.000Z</time>
      </trkpt>
      <trkpt lat="43.42555" lon="-0.70353">
        <ele>107.19999694824</ele>
        <time>2025-08-12T09:11:41.000Z</time>
      </trkpt>
      <trkpt lat="43.42573" lon="-0.70353">
        <ele>107</ele>
        <time>2025-08-12T09:11:45.000Z</time>
      </trkpt>
      <trkpt lat="43.42598" lon="-0.70358">
        <ele>107.19999694824</ele>
        <time>2025-08-12T09:11:51.000Z</time>
      </trkpt>
      <trkpt lat="43.42602" lon="-0.7036">
        <ele>107.19999694824</ele>
        <time>2025-08-12T09:11:52.000Z</time>
      </trkpt>
      <trkpt lat="43.42613" lon="-0.70366">
        <ele>107.59999847412</ele>
        <time>2025-08-12T09:11:56.000Z</time>
      </trkpt>
      <trkpt lat="43.42624" lon="-0.70373">
        <ele>108.40000152588</ele>
        <time>2025-08-12T09:12:00.000Z</time>
      </trkpt>
      <trkpt lat="43.42633" lon="-0.7038">
        <ele>108.59999847412</ele>
        <time>2025-08-12T09:12:03.000Z</time>
      </trkpt>
      <trkpt lat="43.42659" lon="-0.70399">
        <ele>109.19999694824</ele>
        <time>2025-08-12T09:12:12.000Z</time>
      </trkpt>
      <trkpt lat="43.42663" lon="-0.70401">
        <ele>109.59999847412</ele>
        <time>2025-08-12T09:12:13.000Z</time>
      </trkpt>
      <trkpt lat="43.42694" lon="-0.70422">
        <ele>110</ele>
        <time>2025-08-12T09:12:22.000Z</time>
      </trkpt>
      <trkpt lat="43.42734" lon="-0.70444">
        <ele>110.19999694824</ele>
        <time>2025-08-12T09:12:33.000Z</time>
      </trkpt>
      <trkpt lat="43.42754" lon="-0.70454">
        <ele>110.59999847412</ele>
        <time>2025-08-12T09:12:39.000Z</time>
      </trkpt>
      <trkpt lat="43.42763" lon="-0.70459">
        <ele>110.80000305176</ele>
        <time>2025-08-12T09:12:42.000Z</time>
      </trkpt>
      <trkpt lat="43.42797" lon="-0.70479">
        <ele>111.40000152588</ele>
        <time>2025-08-12T09:12:52.000Z</time>
      </trkpt>
      <trkpt lat="43.42817" lon="-0.70484">
        <ele>111.40000152588</ele>
        <time>2025-08-12T09:12:58.000Z</time>
      </trkpt>
      <trkpt lat="43.42845" lon="-0.70481">
        <ele>111.19999694824</ele>
        <time>2025-08-12T09:13:05.000Z</time>
      </trkpt>
      <trkpt lat="43.42876" lon="-0.70473">
        <ele>110.80000305176</ele>
        <time>2025-08-12T09:13:12.000Z</time>
      </trkpt>
      <trkpt lat="43.42916" lon="-0.70459">
        <ele>110.59999847412</ele>
        <time>2025-08-12T09:13:21.000Z</time>
      </trkpt>
      <trkpt lat="43.4295" lon="-0.70444">
        <ele>110.59999847412</ele>
        <time>2025-08-12T09:13:29.000Z</time>
      </trkpt>
      <trkpt lat="43.4298" lon="-0.70426">
        <ele>110.59999847412</ele>
        <time>2025-08-12T09:13:36.000Z</time>
      </trkpt>
      <trkpt lat="43.42989" lon="-0.70418">
        <ele>110.59999847412</ele>
        <time>2025-08-12T09:13:38.000Z</time>
      </trkpt>
      <trkpt lat="43.4301" lon="-0.70396">
        <ele>110.40000152588</ele>
        <time>2025-08-12T09:13:42.000Z</time>
      </trkpt>
      <trkpt lat="43.43041" lon="-0.70364">
        <ele>109.19999694824</ele>
        <time>2025-08-12T09:13:47.000Z</time>
      </trkpt>
      <trkpt lat="43.43054" lon="-0.70351">
        <ele>108.80000305176</ele>
        <time>2025-08-12T09:13:49.000Z</time>
      </trkpt>
      <trkpt lat="43.43062" lon="-0.70343">
        <ele>107.59999847412</ele>
        <time>2025-08-12T09:13:50.000Z</time>
      </trkpt>
      <trkpt lat="43.4308" lon="-0.70325">
        <ele>106.59999847412</ele>
        <time>2025-08-12T09:13:53.000Z</time>
      </trkpt>
      <trkpt lat="43.43086" lon="-0.70318">
        <ele>106</ele>
        <time>2025-08-12T09:13:54.000Z</time>
      </trkpt>
      <trkpt lat="43.431" lon="-0.70294">
        <ele>105.40000152588</ele>
        <time>2025-08-12T09:13:57.000Z</time>
      </trkpt>
      <trkpt lat="43.43107" lon="-0.70278">
        <ele>105</ele>
        <time>2025-08-12T09:13:59.000Z</time>
      </trkpt>
      <trkpt lat="43.43117" lon="-0.70253">
        <ele>104.80000305176</ele>
        <time>2025-08-12T09:14:02.000Z</time>
      </trkpt>
      <trkpt lat="43.43123" lon="-0.70228">
        <ele>104.59999847412</ele>
        <time>2025-08-12T09:14:05.000Z</time>
      </trkpt>
      <trkpt lat="43.43136" lon="-0.70189">
        <ele>104.19999694824</ele>
        <time>2025-08-12T09:14:10.000Z</time>
      </trkpt>
      <trkpt lat="43.43147" lon="-0.70159">
        <ele>104</ele>
        <time>2025-08-12T09:14:14.000Z</time>
      </trkpt>
      <trkpt lat="43.43171" lon="-0.70113">
        <ele>103.59999847412</ele>
        <time>2025-08-12T09:14:21.000Z</time>
      </trkpt>
      <trkpt lat="43.43199" lon="-0.70083">
        <ele>103.40000152588</ele>
        <time>2025-08-12T09:14:27.000Z</time>
      </trkpt>
      <trkpt lat="43.43209" lon="-0.70074">
        <ele>103.19999694824</ele>
        <time>2025-08-12T09:14:29.000Z</time>
      </trkpt>
      <trkpt lat="43.43236" lon="-0.70042">
        <ele>102.59999847412</ele>
        <time>2025-08-12T09:14:35.000Z</time>
      </trkpt>
      <trkpt lat="43.43255" lon="-0.70015">
        <ele>102.40000152588</ele>
        <time>2025-08-12T09:14:40.000Z</time>
      </trkpt>
      <trkpt lat="43.43259" lon="-0.70011">
        <ele>102.40000152588</ele>
        <time>2025-08-12T09:14:41.000Z</time>
      </trkpt>
      <trkpt lat="43.43263" lon="-0.70007">
        <ele>102.40000152588</ele>
        <time>2025-08-12T09:14:42.000Z</time>
      </trkpt>
      <trkpt lat="43.43281" lon="-0.69997">
        <ele>102.40000152588</ele>
        <time>2025-08-12T09:14:46.000Z</time>
      </trkpt>
      <trkpt lat="43.43299" lon="-0.69982">
        <ele>102.59999847412</ele>
        <time>2025-08-12T09:14:50.000Z</time>
      </trkpt>
      <trkpt lat="43.43307" lon="-0.69972">
        <ele>102.59999847412</ele>
        <time>2025-08-12T09:14:52.000Z</time>
      </trkpt>
      <trkpt lat="43.43333" lon="-0.69934">
        <ele>102.59999847412</ele>
        <time>2025-08-12T09:14:59.000Z</time>
      </trkpt>
      <trkpt lat="43.43351" lon="-0.69907">
        <ele>102.59999847412</ele>
        <time>2025-08-12T09:15:04.000Z</time>
      </trkpt>
      <trkpt lat="43.43362" lon="-0.6989">
        <ele>102.59999847412</ele>
        <time>2025-08-12T09:15:07.000Z</time>
      </trkpt>
      <trkpt lat="43.43376" lon="-0.69868">
        <ele>102.59999847412</ele>
        <time>2025-08-12T09:15:11.000Z</time>
      </trkpt>
      <trkpt lat="43.43384" lon="-0.69858">
        <ele>102.59999847412</ele>
        <time>2025-08-12T09:15:13.000Z</time>
      </trkpt>
      <trkpt lat="43.43393" lon="-0.69849">
        <ele>102.59999847412</ele>
        <time>2025-08-12T09:15:15.000Z</time>
      </trkpt>
      <trkpt lat="43.43404" lon="-0.69844">
        <ele>102.59999847412</ele>
        <time>2025-08-12T09:15:17.000Z</time>
      </trkpt>
      <trkpt lat="43.43414" lon="-0.69842">
        <ele>102.40000152588</ele>
        <time>2025-08-12T09:15:19.000Z</time>
      </trkpt>
      <trkpt lat="43.43431" lon="-0.69845">
        <ele>102.40000152588</ele>
        <time>2025-08-12T09:15:22.000Z</time>
      </trkpt>
      <trkpt lat="43.4348" lon="-0.69856">
        <ele>102.19999694824</ele>
        <time>2025-08-12T09:15:31.000Z</time>
      </trkpt>
      <trkpt lat="43.4349" lon="-0.6986">
        <ele>102.19999694824</ele>
        <time>2025-08-12T09:15:33.000Z</time>
      </trkpt>
      <trkpt lat="43.4351" lon="-0.69873">
        <ele>102.19999694824</ele>
        <time>2025-08-12T09:15:37.000Z</time>
      </trkpt>
      <trkpt lat="43.43545" lon="-0.69891">
        <ele>101.80000305176</ele>
        <time>2025-08-12T09:15:44.000Z</time>
      </trkpt>
      <trkpt lat="43.4357" lon="-0.69901">
        <ele>101.80000305176</ele>
        <time>2025-08-12T09:15:49.000Z</time>
      </trkpt>
      <trkpt lat="43.43575" lon="-0.69905">
        <ele>101.80000305176</ele>
        <time>2025-08-12T09:15:50.000Z</time>
      </trkpt>
      <trkpt lat="43.436" lon="-0.69933">
        <ele>102</ele>
        <time>2025-08-12T09:15:56.000Z</time>
      </trkpt>
      <trkpt lat="43.43605" lon="-0.69936">
        <ele>101.80000305176</ele>
        <time>2025-08-12T09:15:57.000Z</time>
      </trkpt>
      <trkpt lat="43.43616" lon="-0.69942">
        <ele>102</ele>
        <time>2025-08-12T09:15:59.000Z</time>
      </trkpt>
      <trkpt lat="43.43632" lon="-0.69946">
        <ele>102</ele>
        <time>2025-08-12T09:16:02.000Z</time>
      </trkpt>
      <trkpt lat="43.43644" lon="-0.69946">
        <ele>102</ele>
        <time>2025-08-12T09:16:04.000Z</time>
      </trkpt>
      <trkpt lat="43.43666" lon="-0.6994">
        <ele>101.80000305176</ele>
        <time>2025-08-12T09:16:08.000Z</time>
      </trkpt>
      <trkpt lat="43.43715" lon="-0.69925">
        <ele>101.59999847412</ele>
        <time>2025-08-12T09:16:17.000Z</time>
      </trkpt>
      <trkpt lat="43.43758" lon="-0.69905">
        <ele>101</ele>
        <time>2025-08-12T09:16:25.000Z</time>
      </trkpt>
      <trkpt lat="43.43803" lon="-0.69882">
        <ele>100.80000305176</ele>
        <time>2025-08-12T09:16:34.000Z</time>
      </trkpt>
      <trkpt lat="43.43831" lon="-0.69867">
        <ele>100.80000305176</ele>
        <time>2025-08-12T09:16:40.000Z</time>
      </trkpt>
      <trkpt lat="43.43855" lon="-0.69858">
        <ele>100.40000152588</ele>
        <time>2025-08-12T09:16:45.000Z</time>
      </trkpt>
      <trkpt lat="43.43866" lon="-0.69855">
        <ele>100.40000152588</ele>
        <time>2025-08-12T09:16:47.000Z</time>
      </trkpt>
      <trkpt lat="43.43907" lon="-0.69843">
        <ele>100.59999847412</ele>
        <time>2025-08-12T09:16:55.000Z</time>
      </trkpt>
      <trkpt lat="43.43922" lon="-0.69837">
        <ele>100.59999847412</ele>
        <time>2025-08-12T09:16:58.000Z</time>
      </trkpt>
      <trkpt lat="43.43931" lon="-0.6983">
        <ele>100.59999847412</ele>
        <time>2025-08-12T09:17:00.000Z</time>
      </trkpt>
      <trkpt lat="43.43939" lon="-0.69823">
        <ele>100.59999847412</ele>
        <time>2025-08-12T09:17:02.000Z</time>
      </trkpt>
      <trkpt lat="43.43945" lon="-0.69823">
        <ele>100.59999847412</ele>
        <time>2025-08-12T09:17:04.000Z</time>
      </trkpt>
      <trkpt lat="43.43952" lon="-0.69829">
        <ele>100.59999847412</ele>
        <time>2025-08-12T09:17:09.000Z</time>
      </trkpt>
      <trkpt lat="43.43952" lon="-0.69829">
        <ele>100.40000152588</ele>
        <time>2025-08-12T09:17:11.000Z</time>
      </trkpt>
      <trkpt lat="43.43954" lon="-0.69835">
        <ele>100.19999694824</ele>
        <time>2025-08-12T09:17:25.000Z</time>
      </trkpt>
      <trkpt lat="43.43954" lon="-0.69838">
        <ele>100.19999694824</ele>
        <time>2025-08-12T09:17:26.000Z</time>
      </trkpt>
      <trkpt lat="43.4396" lon="-0.69849">
        <ele>100.40000152588</ele>
        <time>2025-08-12T09:17:31.000Z</time>
      </trkpt>
      <trkpt lat="43.4397" lon="-0.69863">
        <ele>100.40000152588</ele>
        <time>2025-08-12T09:17:38.000Z</time>
      </trkpt>
      <trkpt lat="43.43983" lon="-0.69884">
        <ele>100.59999847412</ele>
        <time>2025-08-12T09:17:45.000Z</time>
      </trkpt>
      <trkpt lat="43.43999" lon="-0.69907">
        <ele>100.59999847412</ele>
        <time>2025-08-12T09:17:52.000Z</time>
      </trkpt>
      <trkpt lat="43.44007" lon="-0.69928">
        <ele>100.59999847412</ele>
        <time>2025-08-12T09:17:57.000Z</time>
      </trkpt>
      <trkpt lat="43.44004" lon="-0.69965">
        <ele>100.59999847412</ele>
        <time>2025-08-12T09:18:04.000Z</time>
      </trkpt>
      <trkpt lat="43.43997" lon="-0.70025">
        <ele>100.59999847412</ele>
        <time>2025-08-12T09:18:15.000Z</time>
      </trkpt>
      <trkpt lat="43.43993" lon="-0.70056">
        <ele>100.80000305176</ele>
        <time>2025-08-12T09:18:21.000Z</time>
      </trkpt>
      <trkpt lat="43.43987" lon="-0.70102">
        <ele>101</ele>
        <time>2025-08-12T09:18:30.000Z</time>
      </trkpt>
      <trkpt lat="43.43979" lon="-0.70153">
        <ele>101</ele>
        <time>2025-08-12T09:18:40.000Z</time>
      </trkpt>
      <trkpt lat="43.43973" lon="-0.70196">
        <ele>100.80000305176</ele>
        <time>2025-08-12T09:18:49.000Z</time>
      </trkpt>
      <trkpt lat="43.43963" lon="-0.70243">
        <ele>101</ele>
        <time>2025-08-12T09:18:58.000Z</time>
      </trkpt>
      <trkpt lat="43.43967" lon="-0.70256">
        <ele>101</ele>
        <time>2025-08-12T09:19:01.000Z</time>
      </trkpt>
      <trkpt lat="43.43991" lon="-0.70276">
        <ele>100.80000305176</ele>
        <time>2025-08-12T09:19:08.000Z</time>
      </trkpt>
      <trkpt lat="43.44008" lon="-0.70286">
        <ele>100.59999847412</ele>
        <time>2025-08-12T09:19:12.000Z</time>
      </trkpt>
      <trkpt lat="43.44016" lon="-0.70291">
        <ele>100.59999847412</ele>
        <time>2025-08-12T09:19:14.000Z</time>
      </trkpt>
      <trkpt lat="43.44055" lon="-0.70316">
        <ele>100.59999847412</ele>
        <time>2025-08-12T09:19:23.000Z</time>
      </trkpt>
      <trkpt lat="43.44063" lon="-0.70321">
        <ele>100.59999847412</ele>
        <time>2025-08-12T09:19:25.000Z</time>
      </trkpt>
      <trkpt lat="43.4408" lon="-0.7033">
        <ele>100.59999847412</ele>
        <time>2025-08-12T09:19:29.000Z</time>
      </trkpt>
      <trkpt lat="43.44127" lon="-0.7036">
        <ele>100.59999847412</ele>
        <time>2025-08-12T09:19:40.000Z</time>
      </trkpt>
      <trkpt lat="43.44165" lon="-0.70382">
        <ele>100.40000152588</ele>
        <time>2025-08-12T09:19:48.000Z</time>
      </trkpt>
      <trkpt lat="43.44207" lon="-0.70409">
        <ele>100.40000152588</ele>
        <time>2025-08-12T09:19:57.000Z</time>
      </trkpt>
      <trkpt lat="43.44249" lon="-0.70434">
        <ele>100</ele>
        <time>2025-08-12T09:20:05.000Z</time>
      </trkpt>
      <trkpt lat="43.44261" lon="-0.70439">
        <ele>99.800003051758</ele>
        <time>2025-08-12T09:20:07.000Z</time>
      </trkpt>
      <trkpt lat="43.44299" lon="-0.7045">
        <ele>99.400001525879</ele>
        <time>2025-08-12T09:20:14.000Z</time>
      </trkpt>
      <trkpt lat="43.44342" lon="-0.70462">
        <ele>99.199996948242</ele>
        <time>2025-08-12T09:20:22.000Z</time>
      </trkpt>
      <trkpt lat="43.44363" lon="-0.70467">
        <ele>99</ele>
        <time>2025-08-12T09:20:26.000Z</time>
      </trkpt>
      <trkpt lat="43.44371" lon="-0.70474">
        <ele>99</ele>
        <time>2025-08-12T09:20:28.000Z</time>
      </trkpt>
      <trkpt lat="43.44374" lon="-0.70486">
        <ele>99</ele>
        <time>2025-08-12T09:20:30.000Z</time>
      </trkpt>
      <trkpt lat="43.44375" lon="-0.70493">
        <ele>99</ele>
        <time>2025-08-12T09:20:31.000Z</time>
      </trkpt>
      <trkpt lat="43.44375" lon="-0.70499">
        <ele>99</ele>
        <time>2025-08-12T09:20:32.000Z</time>
      </trkpt>
      <trkpt lat="43.44376" lon="-0.70547">
        <ele>99.199996948242</ele>
        <time>2025-08-12T09:20:39.000Z</time>
      </trkpt>
      <trkpt lat="43.44373" lon="-0.70583">
        <ele>99.199996948242</ele>
        <time>2025-08-12T09:20:44.000Z</time>
      </trkpt>
      <trkpt lat="43.44371" lon="-0.70598">
        <ele>99.400001525879</ele>
        <time>2025-08-12T09:20:46.000Z</time>
      </trkpt>
      <trkpt lat="43.44357" lon="-0.70669">
        <ele>99.199996948242</ele>
        <time>2025-08-12T09:20:56.000Z</time>
      </trkpt>
      <trkpt lat="43.44354" lon="-0.70684">
        <ele>99.400001525879</ele>
        <time>2025-08-12T09:20:58.000Z</time>
      </trkpt>
      <trkpt lat="43.44343" lon="-0.70721">
        <ele>99.400001525879</ele>
        <time>2025-08-12T09:21:04.000Z</time>
      </trkpt>
      <trkpt lat="43.44329" lon="-0.70758">
        <ele>99.599998474121</ele>
        <time>2025-08-12T09:21:10.000Z</time>
      </trkpt>
      <trkpt lat="43.44328" lon="-0.70763">
        <ele>99.599998474121</ele>
        <time>2025-08-12T09:21:11.000Z</time>
      </trkpt>
      <trkpt lat="43.44328" lon="-0.70769">
        <ele>99.599998474121</ele>
        <time>2025-08-12T09:21:12.000Z</time>
      </trkpt>
      <trkpt lat="43.44332" lon="-0.70781">
        <ele>99.800003051758</ele>
        <time>2025-08-12T09:21:14.000Z</time>
      </trkpt>
      <trkpt lat="43.4436" lon="-0.70814">
        <ele>99.599998474121</ele>
        <time>2025-08-12T09:21:21.000Z</time>
      </trkpt>
      <trkpt lat="43.44394" lon="-0.70857">
        <ele>99.199996948242</ele>
        <time>2025-08-12T09:21:30.000Z</time>
      </trkpt>
      <trkpt lat="43.44431" lon="-0.70908">
        <ele>99.400001525879</ele>
        <time>2025-08-12T09:21:40.000Z</time>
      </trkpt>
      <trkpt lat="43.44448" lon="-0.70939">
        <ele>99.199996948242</ele>
        <time>2025-08-12T09:21:46.000Z</time>
      </trkpt>
      <trkpt lat="43.44471" lon="-0.70977">
        <ele>99</ele>
        <time>2025-08-12T09:21:53.000Z</time>
      </trkpt>
      <trkpt lat="43.44491" lon="-0.70999">
        <ele>98.800003051758</ele>
        <time>2025-08-12T09:21:58.000Z</time>
      </trkpt>
      <trkpt lat="43.44534" lon="-0.71033">
        <ele>98.599998474121</ele>
        <time>2025-08-12T09:22:08.000Z</time>
      </trkpt>
      <trkpt lat="43.44581" lon="-0.71072">
        <ele>98.400001525879</ele>
        <time>2025-08-12T09:22:19.000Z</time>
      </trkpt>
      <trkpt lat="43.44594" lon="-0.71085">
        <ele>98.400001525879</ele>
        <time>2025-08-12T09:22:22.000Z</time>
      </trkpt>
      <trkpt lat="43.446" lon="-0.71095">
        <ele>98.199996948242</ele>
        <time>2025-08-12T09:22:24.000Z</time>
      </trkpt>
      <trkpt lat="43.44602" lon="-0.711">
        <ele>98.199996948242</ele>
        <time>2025-08-12T09:22:25.000Z</time>
      </trkpt>
      <trkpt lat="43.44609" lon="-0.71125">
        <ele>98.199996948242</ele>
        <time>2025-08-12T09:22:29.000Z</time>
      </trkpt>
      <trkpt lat="43.44611" lon="-0.71131">
        <ele>98.199996948242</ele>
        <time>2025-08-12T09:22:30.000Z</time>
      </trkpt>
      <trkpt lat="43.44614" lon="-0.71136">
        <ele>98.199996948242</ele>
        <time>2025-08-12T09:22:31.000Z</time>
      </trkpt>
      <trkpt lat="43.44629" lon="-0.7115">
        <ele>98</ele>
        <time>2025-08-12T09:22:35.000Z</time>
      </trkpt>
      <trkpt lat="43.44652" lon="-0.71169">
        <ele>97.800003051758</ele>
        <time>2025-08-12T09:22:41.000Z</time>
      </trkpt>
      <trkpt lat="43.44656" lon="-0.71173">
        <ele>97.800003051758</ele>
        <time>2025-08-12T09:22:42.000Z</time>
      </trkpt>
      <trkpt lat="43.44667" lon="-0.71187">
        <ele>97.800003051758</ele>
        <time>2025-08-12T09:22:46.000Z</time>
      </trkpt>
      <trkpt lat="43.44674" lon="-0.71193">
        <ele>97.800003051758</ele>
        <time>2025-08-12T09:22:48.000Z</time>
      </trkpt>
      <trkpt lat="43.44677" lon="-0.71196">
        <ele>97.800003051758</ele>
        <time>2025-08-12T09:22:49.000Z</time>
      </trkpt>
      <trkpt lat="43.44693" lon="-0.71203">
        <ele>98</ele>
        <time>2025-08-12T09:22:53.000Z</time>
      </trkpt>
      <trkpt lat="43.44732" lon="-0.71217">
        <ele>98.199996948242</ele>
        <time>2025-08-12T09:23:02.000Z</time>
      </trkpt>
      <trkpt lat="43.44744" lon="-0.71223">
        <ele>98.199996948242</ele>
        <time>2025-08-12T09:23:05.000Z</time>
      </trkpt>
      <trkpt lat="43.44766" lon="-0.7123">
        <ele>97.800003051758</ele>
        <time>2025-08-12T09:23:10.000Z</time>
      </trkpt>
      <trkpt lat="43.44775" lon="-0.71231">
        <ele>97.800003051758</ele>
        <time>2025-08-12T09:23:12.000Z</time>
      </trkpt>
      <trkpt lat="43.44782" lon="-0.71226">
        <ele>97.599998474121</ele>
        <time>2025-08-12T09:23:14.000Z</time>
      </trkpt>
      <trkpt lat="43.44786" lon="-0.71222">
        <ele>97.599998474121</ele>
        <time>2025-08-12T09:23:15.000Z</time>
      </trkpt>
      <trkpt lat="43.44791" lon="-0.71212">
        <ele>97.599998474121</ele>
        <time>2025-08-12T09:23:17.000Z</time>
      </trkpt>
      <trkpt lat="43.44792" lon="-0.71205">
        <ele>97.599998474121</ele>
        <time>2025-08-12T09:23:18.000Z</time>
      </trkpt>
      <trkpt lat="43.44804" lon="-0.71162">
        <ele>97.400001525879</ele>
        <time>2025-08-12T09:23:26.000Z</time>
      </trkpt>
      <trkpt lat="43.4482" lon="-0.71124">
        <ele>97.199996948242</ele>
        <time>2025-08-12T09:23:33.000Z</time>
      </trkpt>
      <trkpt lat="43.44822" lon="-0.71118">
        <ele>97.199996948242</ele>
        <time>2025-08-12T09:23:34.000Z</time>
      </trkpt>
      <trkpt lat="43.44828" lon="-0.71108">
        <ele>97</ele>
        <time>2025-08-12T09:23:36.000Z</time>
      </trkpt>
      <trkpt lat="43.44837" lon="-0.711">
        <ele>97.199996948242</ele>
        <time>2025-08-12T09:23:38.000Z</time>
      </trkpt>
      <trkpt lat="43.44847" lon="-0.71101">
        <ele>96.800003051758</ele>
        <time>2025-08-12T09:23:40.000Z</time>
      </trkpt>
      <trkpt lat="43.44852" lon="-0.71105">
        <ele>96.800003051758</ele>
        <time>2025-08-12T09:23:41.000Z</time>
      </trkpt>
      <trkpt lat="43.44888" lon="-0.71141">
        <ele>96.400001525879</ele>
        <time>2025-08-12T09:23:50.000Z</time>
      </trkpt>
      <trkpt lat="43.44896" lon="-0.71149">
        <ele>96.400001525879</ele>
        <time>2025-08-12T09:23:52.000Z</time>
      </trkpt>
      <trkpt lat="43.44921" lon="-0.71174">
        <ele>96.400001525879</ele>
        <time>2025-08-12T09:23:58.000Z</time>
      </trkpt>
      <trkpt lat="43.44949" lon="-0.71206">
        <ele>96.199996948242</ele>
        <time>2025-08-12T09:24:05.000Z</time>
      </trkpt>
      <trkpt lat="43.44952" lon="-0.71212">
        <ele>96.199996948242</ele>
        <time>2025-08-12T09:24:06.000Z</time>
      </trkpt>
      <trkpt lat="43.44961" lon="-0.71229">
        <ele>96</ele>
        <time>2025-08-12T09:24:09.000Z</time>
      </trkpt>
      <trkpt lat="43.44964" lon="-0.71241">
        <ele>96</ele>
        <time>2025-08-12T09:24:11.000Z</time>
      </trkpt>
      <trkpt lat="43.44964" lon="-0.71247">
        <ele>96</ele>
        <time>2025-08-12T09:24:12.000Z</time>
      </trkpt>
      <trkpt lat="43.44962" lon="-0.71252">
        <ele>96</ele>
        <time>2025-08-12T09:24:13.000Z</time>
      </trkpt>
      <trkpt lat="43.44956" lon="-0.71261">
        <ele>96</ele>
        <time>2025-08-12T09:24:15.000Z</time>
      </trkpt>
      <trkpt lat="43.44946" lon="-0.71274">
        <ele>96</ele>
        <time>2025-08-12T09:24:18.000Z</time>
      </trkpt>
      <trkpt lat="43.44942" lon="-0.71286">
        <ele>96.199996948242</ele>
        <time>2025-08-12T09:24:20.000Z</time>
      </trkpt>
      <trkpt lat="43.44948" lon="-0.7131">
        <ele>96.400001525879</ele>
        <time>2025-08-12T09:24:24.000Z</time>
      </trkpt>
      <trkpt lat="43.44955" lon="-0.71333">
        <ele>96.599998474121</ele>
        <time>2025-08-12T09:24:28.000Z</time>
      </trkpt>
      <trkpt lat="43.4496" lon="-0.71343">
        <ele>96.800003051758</ele>
        <time>2025-08-12T09:24:30.000Z</time>
      </trkpt>
      <trkpt lat="43.44978" lon="-0.71398">
        <ele>97</ele>
        <time>2025-08-12T09:24:39.000Z</time>
      </trkpt>
      <trkpt lat="43.44983" lon="-0.7141">
        <ele>97</ele>
        <time>2025-08-12T09:24:41.000Z</time>
      </trkpt>
      <trkpt lat="43.44995" lon="-0.71432">
        <ele>97</ele>
        <time>2025-08-12T09:24:45.000Z</time>
      </trkpt>
      <trkpt lat="43.45024" lon="-0.7149">
        <ele>96.599998474121</ele>
        <time>2025-08-12T09:24:55.000Z</time>
      </trkpt>
      <trkpt lat="43.45045" lon="-0.71536">
        <ele>96.599998474121</ele>
        <time>2025-08-12T09:25:03.000Z</time>
      </trkpt>
      <trkpt lat="43.45066" lon="-0.71586">
        <ele>96.599998474121</ele>
        <time>2025-08-12T09:25:11.000Z</time>
      </trkpt>
      <trkpt lat="43.45092" lon="-0.71626">
        <ele>96.400001525879</ele>
        <time>2025-08-12T09:25:18.000Z</time>
      </trkpt>
      <trkpt lat="43.45122" lon="-0.71679">
        <ele>96</ele>
        <time>2025-08-12T09:25:27.000Z</time>
      </trkpt>
      <trkpt lat="43.45158" lon="-0.71742">
        <ele>96.199996948242</ele>
        <time>2025-08-12T09:25:38.000Z</time>
      </trkpt>
      <trkpt lat="43.45188" lon="-0.71793">
        <ele>96</ele>
        <time>2025-08-12T09:25:47.000Z</time>
      </trkpt>
      <trkpt lat="43.4519" lon="-0.71799">
        <ele>95.800003051758</ele>
        <time>2025-08-12T09:25:48.000Z</time>
      </trkpt>
      <trkpt lat="43.45191" lon="-0.71812">
        <ele>95.800003051758</ele>
        <time>2025-08-12T09:25:50.000Z</time>
      </trkpt>
      <trkpt lat="43.45186" lon="-0.71823">
        <ele>95.800003051758</ele>
        <time>2025-08-12T09:25:52.000Z</time>
      </trkpt>
      <trkpt lat="43.4518" lon="-0.71832">
        <ele>95.800003051758</ele>
        <time>2025-08-12T09:25:54.000Z</time>
      </trkpt>
      <trkpt lat="43.45174" lon="-0.71841">
        <ele>95.800003051758</ele>
        <time>2025-08-12T09:25:56.000Z</time>
      </trkpt>
      <trkpt lat="43.45171" lon="-0.71852">
        <ele>95.800003051758</ele>
        <time>2025-08-12T09:25:58.000Z</time>
      </trkpt>
      <trkpt lat="43.45174" lon="-0.71864">
        <ele>96</ele>
        <time>2025-08-12T09:26:00.000Z</time>
      </trkpt>
      <trkpt lat="43.45177" lon="-0.7187">
        <ele>96</ele>
        <time>2025-08-12T09:26:01.000Z</time>
      </trkpt>
      <trkpt lat="43.45198" lon="-0.71919">
        <ele>96</ele>
        <time>2025-08-12T09:26:09.000Z</time>
      </trkpt>
      <trkpt lat="43.45223" lon="-0.71978">
        <ele>95.800003051758</ele>
        <time>2025-08-12T09:26:18.000Z</time>
      </trkpt>
      <trkpt lat="43.45234" lon="-0.72003">
        <ele>95.800003051758</ele>
        <time>2025-08-12T09:26:22.000Z</time>
      </trkpt>
      <trkpt lat="43.4524" lon="-0.72016">
        <ele>95.599998474121</ele>
        <time>2025-08-12T09:26:24.000Z</time>
      </trkpt>
      <trkpt lat="43.45269" lon="-0.72086">
        <ele>95.400001525879</ele>
        <time>2025-08-12T09:26:35.000Z</time>
      </trkpt>
      <trkpt lat="43.45289" lon="-0.72135">
        <ele>95.400001525879</ele>
        <time>2025-08-12T09:26:43.000Z</time>
      </trkpt>
      <trkpt lat="43.45317" lon="-0.72206">
        <ele>95.199996948242</ele>
        <time>2025-08-12T09:26:54.000Z</time>
      </trkpt>
      <trkpt lat="43.45319" lon="-0.72214">
        <ele>95.199996948242</ele>
        <time>2025-08-12T09:26:55.000Z</time>
      </trkpt>
      <trkpt lat="43.45328" lon="-0.72249">
        <ele>95.199996948242</ele>
        <time>2025-08-12T09:27:00.000Z</time>
      </trkpt>
      <trkpt lat="43.45337" lon="-0.72276">
        <ele>95.199996948242</ele>
        <time>2025-08-12T09:27:04.000Z</time>
      </trkpt>
      <trkpt lat="43.45359" lon="-0.72345">
        <ele>95</ele>
        <time>2025-08-12T09:27:14.000Z</time>
      </trkpt>
      <trkpt lat="43.45362" lon="-0.72351">
        <ele>95</ele>
        <time>2025-08-12T09:27:15.000Z</time>
      </trkpt>
      <trkpt lat="43.45371" lon="-0.72359">
        <ele>95</ele>
        <time>2025-08-12T09:27:17.000Z</time>
      </trkpt>
      <trkpt lat="43.4538" lon="-0.72365">
        <ele>95</ele>
        <time>2025-08-12T09:27:19.000Z</time>
      </trkpt>
      <trkpt lat="43.45383" lon="-0.72369">
        <ele>95</ele>
        <time>2025-08-12T09:27:20.000Z</time>
      </trkpt>
      <trkpt lat="43.45385" lon="-0.72374">
        <ele>94.800003051758</ele>
        <time>2025-08-12T09:27:21.000Z</time>
      </trkpt>
      <trkpt lat="43.45385" lon="-0.72378">
        <ele>94.800003051758</ele>
        <time>2025-08-12T09:27:22.000Z</time>
      </trkpt>
      <trkpt lat="43.45383" lon="-0.72383">
        <ele>94.800003051758</ele>
        <time>2025-08-12T09:27:23.000Z</time>
      </trkpt>
      <trkpt lat="43.45377" lon="-0.72391">
        <ele>94.800003051758</ele>
        <time>2025-08-12T09:27:25.000Z</time>
      </trkpt>
      <trkpt lat="43.45368" lon="-0.72396">
        <ele>94.599998474121</ele>
        <time>2025-08-12T09:27:27.000Z</time>
      </trkpt>
      <trkpt lat="43.45364" lon="-0.72399">
        <ele>94.599998474121</ele>
        <time>2025-08-12T09:27:28.000Z</time>
      </trkpt>
      <trkpt lat="43.45351" lon="-0.72404">
        <ele>94.599998474121</ele>
        <time>2025-08-12T09:27:31.000Z</time>
      </trkpt>
      <trkpt lat="43.45343" lon="-0.72407">
        <ele>94.599998474121</ele>
        <time>2025-08-12T09:27:33.000Z</time>
      </trkpt>
      <trkpt lat="43.45307" lon="-0.72423">
        <ele>94.800003051758</ele>
        <time>2025-08-12T09:27:42.000Z</time>
      </trkpt>
      <trkpt lat="43.45264" lon="-0.72445">
        <ele>95.400001525879</ele>
        <time>2025-08-12T09:27:54.000Z</time>
      </trkpt>
      <trkpt lat="43.45231" lon="-0.72465">
        <ele>95.800003051758</ele>
        <time>2025-08-12T09:28:04.000Z</time>
      </trkpt>
      <trkpt lat="43.45203" lon="-0.72479">
        <ele>96</ele>
        <time>2025-08-12T09:28:12.000Z</time>
      </trkpt>
      <trkpt lat="43.45189" lon="-0.72486">
        <ele>96</ele>
        <time>2025-08-12T09:28:16.000Z</time>
      </trkpt>
      <trkpt lat="43.45165" lon="-0.72503">
        <ele>96.199996948242</ele>
        <time>2025-08-12T09:28:23.000Z</time>
      </trkpt>
      <trkpt lat="43.45137" lon="-0.72525">
        <ele>96</ele>
        <time>2025-08-12T09:28:31.000Z</time>
      </trkpt>
      <trkpt lat="43.45119" lon="-0.72537">
        <ele>96</ele>
        <time>2025-08-12T09:28:36.000Z</time>
      </trkpt>
      <trkpt lat="43.45112" lon="-0.7254">
        <ele>96</ele>
        <time>2025-08-12T09:28:38.000Z</time>
      </trkpt>
      <trkpt lat="43.45108" lon="-0.72541">
        <ele>96</ele>
        <time>2025-08-12T09:28:39.000Z</time>
      </trkpt>
      <trkpt lat="43.45098" lon="-0.72545">
        <ele>96</ele>
        <time>2025-08-12T09:28:42.000Z</time>
      </trkpt>
      <trkpt lat="43.45097" lon="-0.72548">
        <ele>96</ele>
        <time>2025-08-12T09:28:43.000Z</time>
      </trkpt>
      <trkpt lat="43.45096" lon="-0.72554">
        <ele>96.199996948242</ele>
        <time>2025-08-12T09:28:45.000Z</time>
      </trkpt>
      <trkpt lat="43.45099" lon="-0.72561">
        <ele>96.199996948242</ele>
        <time>2025-08-12T09:28:48.000Z</time>
      </trkpt>
      <trkpt lat="43.45101" lon="-0.72563">
        <ele>96.199996948242</ele>
        <time>2025-08-12T09:28:49.000Z</time>
      </trkpt>
      <trkpt lat="43.45114" lon="-0.72565">
        <ele>95.800003051758</ele>
        <time>2025-08-12T09:28:55.000Z</time>
      </trkpt>
      <trkpt lat="43.45115" lon="-0.72565">
        <ele>95.800003051758</ele>
        <time>2025-08-12T09:28:56.000Z</time>
      </trkpt>
      <trkpt lat="43.45116" lon="-0.72564">
        <ele>96</ele>
        <time>2025-08-12T09:28:59.000Z</time>
      </trkpt>
      <trkpt lat="43.45124" lon="-0.72567">
        <ele>96.599998474121</ele>
        <time>2025-08-12T09:35:32.000Z</time>
      </trkpt>
      <trkpt lat="43.45129" lon="-0.72568">
        <ele>96.599998474121</ele>
        <time>2025-08-12T09:35:34.000Z</time>
      </trkpt>
      <trkpt lat="43.45142" lon="-0.7257">
        <ele>96.599998474121</ele>
        <time>2025-08-12T09:35:40.000Z</time>
      </trkpt>
      <trkpt lat="43.45161" lon="-0.72575">
        <ele>96.400001525879</ele>
        <time>2025-08-12T09:35:48.000Z</time>
      </trkpt>
      <trkpt lat="43.45179" lon="-0.72579">
        <ele>96.199996948242</ele>
        <time>2025-08-12T09:35:55.000Z</time>
      </trkpt>
      <trkpt lat="43.45192" lon="-0.72584">
        <ele>96.199996948242</ele>
        <time>2025-08-12T09:36:00.000Z</time>
      </trkpt>
      <trkpt lat="43.45206" lon="-0.72594">
        <ele>96.199996948242</ele>
        <time>2025-08-12T09:36:05.000Z</time>
      </trkpt>
      <trkpt lat="43.45216" lon="-0.72616">
        <ele>96.199996948242</ele>
        <time>2025-08-12T09:36:11.000Z</time>
      </trkpt>
      <trkpt lat="43.45221" lon="-0.72644">
        <ele>96</ele>
        <time>2025-08-12T09:36:17.000Z</time>
      </trkpt>
      <trkpt lat="43.45224" lon="-0.72663">
        <ele>96</ele>
        <time>2025-08-12T09:36:22.000Z</time>
      </trkpt>
      <trkpt lat="43.45225" lon="-0.72695">
        <ele>96.199996948242</ele>
        <time>2025-08-12T09:36:29.000Z</time>
      </trkpt>
      <trkpt lat="43.45231" lon="-0.72712">
        <ele>96</ele>
        <time>2025-08-12T09:36:34.000Z</time>
      </trkpt>
      <trkpt lat="43.45248" lon="-0.72731">
        <ele>96</ele>
        <time>2025-08-12T09:36:41.000Z</time>
      </trkpt>
      <trkpt lat="43.45265" lon="-0.72745">
        <ele>96</ele>
        <time>2025-08-12T09:36:47.000Z</time>
      </trkpt>
      <trkpt lat="43.45285" lon="-0.72761">
        <ele>96.400001525879</ele>
        <time>2025-08-12T09:36:54.000Z</time>
      </trkpt>
      <trkpt lat="43.45308" lon="-0.7278">
        <ele>96.199996948242</ele>
        <time>2025-08-12T09:37:02.000Z</time>
      </trkpt>
      <trkpt lat="43.45319" lon="-0.72796">
        <ele>96.199996948242</ele>
        <time>2025-08-12T09:37:06.000Z</time>
      </trkpt>
      <trkpt lat="43.4534" lon="-0.72824">
        <ele>96.199996948242</ele>
        <time>2025-08-12T09:37:13.000Z</time>
      </trkpt>
      <trkpt lat="43.45363" lon="-0.72854">
        <ele>96</ele>
        <time>2025-08-12T09:37:21.000Z</time>
      </trkpt>
      <trkpt lat="43.45386" lon="-0.7288">
        <ele>95.800003051758</ele>
        <time>2025-08-12T09:37:29.000Z</time>
      </trkpt>
      <trkpt lat="43.45406" lon="-0.72905">
        <ele>95.599998474121</ele>
        <time>2025-08-12T09:37:36.000Z</time>
      </trkpt>
      <trkpt lat="43.45424" lon="-0.72931">
        <ele>95.599998474121</ele>
        <time>2025-08-12T09:37:43.000Z</time>
      </trkpt>
      <trkpt lat="43.4544" lon="-0.72962">
        <ele>95.599998474121</ele>
        <time>2025-08-12T09:37:50.000Z</time>
      </trkpt>
      <trkpt lat="43.45452" lon="-0.72992">
        <ele>95.199996948242</ele>
        <time>2025-08-12T09:37:57.000Z</time>
      </trkpt>
      <trkpt lat="43.45453" lon="-0.73">
        <ele>95</ele>
        <time>2025-08-12T09:37:59.000Z</time>
      </trkpt>
      <trkpt lat="43.45453" lon="-0.73019">
        <ele>94.599998474121</ele>
        <time>2025-08-12T09:38:04.000Z</time>
      </trkpt>
      <trkpt lat="43.45445" lon="-0.73046">
        <ele>94.400001525879</ele>
        <time>2025-08-12T09:38:11.000Z</time>
      </trkpt>
      <trkpt lat="43.45443" lon="-0.73072">
        <ele>94.400001525879</ele>
        <time>2025-08-12T09:38:16.000Z</time>
      </trkpt>
      <trkpt lat="43.45457" lon="-0.73097">
        <ele>94.400001525879</ele>
        <time>2025-08-12T09:38:22.000Z</time>
      </trkpt>
      <trkpt lat="43.4547" lon="-0.73121">
        <ele>94.199996948242</ele>
        <time>2025-08-12T09:38:28.000Z</time>
      </trkpt>
      <trkpt lat="43.45474" lon="-0.73128">
        <ele>94.199996948242</ele>
        <time>2025-08-12T09:38:30.000Z</time>
      </trkpt>
      <trkpt lat="43.45488" lon="-0.73143">
        <ele>94</ele>
        <time>2025-08-12T09:38:35.000Z</time>
      </trkpt>
      <trkpt lat="43.45509" lon="-0.7316">
        <ele>94</ele>
        <time>2025-08-12T09:38:42.000Z</time>
      </trkpt>
      <trkpt lat="43.45529" lon="-0.73182">
        <ele>94</ele>
        <time>2025-08-12T09:38:49.000Z</time>
      </trkpt>
      <trkpt lat="43.45544" lon="-0.73225">
        <ele>94.199996948242</ele>
        <time>2025-08-12T09:38:57.000Z</time>
      </trkpt>
      <trkpt lat="43.45556" lon="-0.73254">
        <ele>94.199996948242</ele>
        <time>2025-08-12T09:39:03.000Z</time>
      </trkpt>
      <trkpt lat="43.45562" lon="-0.73262">
        <ele>94.199996948242</ele>
        <time>2025-08-12T09:39:05.000Z</time>
      </trkpt>
      <trkpt lat="43.45565" lon="-0.73266">
        <ele>94.199996948242</ele>
        <time>2025-08-12T09:39:06.000Z</time>
      </trkpt>
      <trkpt lat="43.45575" lon="-0.7328">
        <ele>94</ele>
        <time>2025-08-12T09:39:10.000Z</time>
      </trkpt>
      <trkpt lat="43.45601" lon="-0.73301">
        <ele>93.800003051758</ele>
        <time>2025-08-12T09:39:17.000Z</time>
      </trkpt>
      <trkpt lat="43.45609" lon="-0.73305">
        <ele>93.800003051758</ele>
        <time>2025-08-12T09:39:19.000Z</time>
      </trkpt>
      <trkpt lat="43.4563" lon="-0.7332">
        <ele>93.599998474121</ele>
        <time>2025-08-12T09:39:24.000Z</time>
      </trkpt>
      <trkpt lat="43.45654" lon="-0.73345">
        <ele>93.599998474121</ele>
        <time>2025-08-12T09:39:30.000Z</time>
      </trkpt>
      <trkpt lat="43.45676" lon="-0.73372">
        <ele>93.400001525879</ele>
        <time>2025-08-12T09:39:36.000Z</time>
      </trkpt>
      <trkpt lat="43.45694" lon="-0.73395">
        <ele>93.400001525879</ele>
        <time>2025-08-12T09:39:41.000Z</time>
      </trkpt>
      <trkpt lat="43.45699" lon="-0.73404">
        <ele>93.400001525879</ele>
        <time>2025-08-12T09:39:43.000Z</time>
      </trkpt>
      <trkpt lat="43.45702" lon="-0.73411">
        <ele>93.400001525879</ele>
        <time>2025-08-12T09:39:44.000Z</time>
      </trkpt>
      <trkpt lat="43.45705" lon="-0.73423">
        <ele>93.400001525879</ele>
        <time>2025-08-12T09:39:46.000Z</time>
      </trkpt>
      <trkpt lat="43.45706" lon="-0.73435">
        <ele>93.400001525879</ele>
        <time>2025-08-12T09:39:48.000Z</time>
      </trkpt>
      <trkpt lat="43.45708" lon="-0.73441">
        <ele>93.400001525879</ele>
        <time>2025-08-12T09:39:49.000Z</time>
      </trkpt>
      <trkpt lat="43.45714" lon="-0.7345">
        <ele>93.400001525879</ele>
        <time>2025-08-12T09:39:51.000Z</time>
      </trkpt>
      <trkpt lat="43.45749" lon="-0.73479">
        <ele>93.199996948242</ele>
        <time>2025-08-12T09:39:59.000Z</time>
      </trkpt>
      <trkpt lat="43.4577" lon="-0.73495">
        <ele>93</ele>
        <time>2025-08-12T09:40:04.000Z</time>
      </trkpt>
      <trkpt lat="43.45784" lon="-0.73504">
        <ele>93</ele>
        <time>2025-08-12T09:40:07.000Z</time>
      </trkpt>
      <trkpt lat="43.45817" lon="-0.73525">
        <ele>93</ele>
        <time>2025-08-12T09:40:14.000Z</time>
      </trkpt>
      <trkpt lat="43.45853" lon="-0.73542">
        <ele>92.599998474121</ele>
        <time>2025-08-12T09:40:22.000Z</time>
      </trkpt>
      <trkpt lat="43.45878" lon="-0.7355">
        <ele>92.800003051758</ele>
        <time>2025-08-12T09:40:27.000Z</time>
      </trkpt>
      <trkpt lat="43.45887" lon="-0.73557">
        <ele>92.599998474121</ele>
        <time>2025-08-12T09:40:29.000Z</time>
      </trkpt>
      <trkpt lat="43.4591" lon="-0.73592">
        <ele>92.400001525879</ele>
        <time>2025-08-12T09:40:36.000Z</time>
      </trkpt>
      <trkpt lat="43.45919" lon="-0.73609">
        <ele>92.199996948242</ele>
        <time>2025-08-12T09:40:39.000Z</time>
      </trkpt>
      <trkpt lat="43.45931" lon="-0.73632">
        <ele>92.199996948242</ele>
        <time>2025-08-12T09:40:43.000Z</time>
      </trkpt>
      <trkpt lat="43.45934" lon="-0.73637">
        <ele>92.199996948242</ele>
        <time>2025-08-12T09:40:44.000Z</time>
      </trkpt>
      <trkpt lat="43.45949" lon="-0.73656">
        <ele>92</ele>
        <time>2025-08-12T09:40:48.000Z</time>
      </trkpt>
      <trkpt lat="43.45958" lon="-0.73661">
        <ele>91.800003051758</ele>
        <time>2025-08-12T09:40:50.000Z</time>
      </trkpt>
      <trkpt lat="43.45967" lon="-0.73662">
        <ele>91.800003051758</ele>
        <time>2025-08-12T09:40:52.000Z</time>
      </trkpt>
      <trkpt lat="43.46007" lon="-0.73654">
        <ele>91.199996948242</ele>
        <time>2025-08-12T09:41:00.000Z</time>
      </trkpt>
      <trkpt lat="43.46047" lon="-0.73657">
        <ele>91</ele>
        <time>2025-08-12T09:41:08.000Z</time>
      </trkpt>
      <trkpt lat="43.46079" lon="-0.7366">
        <ele>91</ele>
        <time>2025-08-12T09:41:15.000Z</time>
      </trkpt>
      <trkpt lat="43.46132" lon="-0.73662">
        <ele>90.599998474121</ele>
        <time>2025-08-12T09:41:26.000Z</time>
      </trkpt>
      <trkpt lat="43.46145" lon="-0.73662">
        <ele>90.599998474121</ele>
        <time>2025-08-12T09:41:29.000Z</time>
      </trkpt>
      <trkpt lat="43.46166" lon="-0.73661">
        <ele>90.400001525879</ele>
        <time>2025-08-12T09:41:34.000Z</time>
      </trkpt>
      <trkpt lat="43.4621" lon="-0.73664">
        <ele>90.599998474121</ele>
        <time>2025-08-12T09:41:44.000Z</time>
      </trkpt>
      <trkpt lat="43.46222" lon="-0.73667">
        <ele>90.599998474121</ele>
        <time>2025-08-12T09:41:47.000Z</time>
      </trkpt>
      <trkpt lat="43.4624" lon="-0.73667">
        <ele>90.599998474121</ele>
        <time>2025-08-12T09:41:51.000Z</time>
      </trkpt>
      <trkpt lat="43.46244" lon="-0.73666">
        <ele>90.599998474121</ele>
        <time>2025-08-12T09:41:52.000Z</time>
      </trkpt>
      <trkpt lat="43.46246" lon="-0.73664">
        <ele>90.400001525879</ele>
        <time>2025-08-12T09:41:53.000Z</time>
      </trkpt>
      <trkpt lat="43.46254" lon="-0.7366">
        <ele>90.199996948242</ele>
        <time>2025-08-12T09:41:56.000Z</time>
      </trkpt>
      <trkpt lat="43.46258" lon="-0.73656">
        <ele>90.199996948242</ele>
        <time>2025-08-12T09:41:58.000Z</time>
      </trkpt>
      <trkpt lat="43.46257" lon="-0.73649">
        <ele>90</ele>
        <time>2025-08-12T09:42:00.000Z</time>
      </trkpt>
      <trkpt lat="43.46257" lon="-0.73645">
        <ele>90</ele>
        <time>2025-08-12T09:42:01.000Z</time>
      </trkpt>
      <trkpt lat="43.46258" lon="-0.73641">
        <ele>90</ele>
        <time>2025-08-12T09:42:02.000Z</time>
      </trkpt>
      <trkpt lat="43.46261" lon="-0.73636">
        <ele>90</ele>
        <time>2025-08-12T09:42:04.000Z</time>
      </trkpt>
      <trkpt lat="43.46269" lon="-0.73621">
        <ele>89.800003051758</ele>
        <time>2025-08-12T09:42:09.000Z</time>
      </trkpt>
      <trkpt lat="43.4628" lon="-0.73597">
        <ele>90.199996948242</ele>
        <time>2025-08-12T09:42:15.000Z</time>
      </trkpt>
      <trkpt lat="43.46294" lon="-0.73569">
        <ele>90</ele>
        <time>2025-08-12T09:42:21.000Z</time>
      </trkpt>
      <trkpt lat="43.46299" lon="-0.73556">
        <ele>90</ele>
        <time>2025-08-12T09:42:23.000Z</time>
      </trkpt>
      <trkpt lat="43.46303" lon="-0.73537">
        <ele>89.599998474121</ele>
        <time>2025-08-12T09:42:26.000Z</time>
      </trkpt>
      <trkpt lat="43.46308" lon="-0.7353">
        <ele>89.199996948242</ele>
        <time>2025-08-12T09:42:28.000Z</time>
      </trkpt>
      <trkpt lat="43.46312" lon="-0.73527">
        <ele>89</ele>
        <time>2025-08-12T09:42:29.000Z</time>
      </trkpt>
      <trkpt lat="43.46317" lon="-0.73526">
        <ele>88.800003051758</ele>
        <time>2025-08-12T09:42:30.000Z</time>
      </trkpt>
      <trkpt lat="43.46332" lon="-0.73523">
        <ele>88.599998474121</ele>
        <time>2025-08-12T09:42:33.000Z</time>
      </trkpt>
      <trkpt lat="43.46337" lon="-0.73524">
        <ele>88.599998474121</ele>
        <time>2025-08-12T09:42:34.000Z</time>
      </trkpt>
      <trkpt lat="43.46352" lon="-0.73527">
        <ele>88</ele>
        <time>2025-08-12T09:42:37.000Z</time>
      </trkpt>
      <trkpt lat="43.4637" lon="-0.73531">
        <ele>87.599998474121</ele>
        <time>2025-08-12T09:42:40.000Z</time>
      </trkpt>
      <trkpt lat="43.46408" lon="-0.73534">
        <ele>87</ele>
        <time>2025-08-12T09:42:47.000Z</time>
      </trkpt>
      <trkpt lat="43.46413" lon="-0.73536">
        <ele>87</ele>
        <time>2025-08-12T09:42:48.000Z</time>
      </trkpt>
      <trkpt lat="43.46422" lon="-0.73537">
        <ele>86.800003051758</ele>
        <time>2025-08-12T09:42:50.000Z</time>
      </trkpt>
      <trkpt lat="43.4643" lon="-0.73532">
        <ele>86.599998474121</ele>
        <time>2025-08-12T09:42:52.000Z</time>
      </trkpt>
      <trkpt lat="43.46434" lon="-0.7353">
        <ele>86.599998474121</ele>
        <time>2025-08-12T09:42:53.000Z</time>
      </trkpt>
      <trkpt lat="43.46454" lon="-0.7352">
        <ele>87</ele>
        <time>2025-08-12T09:42:58.000Z</time>
      </trkpt>
      <trkpt lat="43.46461" lon="-0.73518">
        <ele>87</ele>
        <time>2025-08-12T09:43:00.000Z</time>
      </trkpt>
      <trkpt lat="43.46471" lon="-0.73512">
        <ele>87.599998474121</ele>
        <time>2025-08-12T09:43:03.000Z</time>
      </trkpt>
      <trkpt lat="43.46474" lon="-0.7351">
        <ele>87.800003051758</ele>
        <time>2025-08-12T09:43:04.000Z</time>
      </trkpt>
      <trkpt lat="43.46479" lon="-0.73506">
        <ele>88.199996948242</ele>
        <time>2025-08-12T09:43:06.000Z</time>
      </trkpt>
      <trkpt lat="43.46482" lon="-0.73505">
        <ele>88.199996948242</ele>
        <time>2025-08-12T09:43:07.000Z</time>
      </trkpt>
      <trkpt lat="43.46491" lon="-0.73499">
        <ele>89.199996948242</ele>
        <time>2025-08-12T09:43:10.000Z</time>
      </trkpt>
      <trkpt lat="43.46494" lon="-0.73498">
        <ele>89.400001525879</ele>
        <time>2025-08-12T09:43:11.000Z</time>
      </trkpt>
      <trkpt lat="43.46497" lon="-0.73496">
        <ele>89.400001525879</ele>
        <time>2025-08-12T09:43:12.000Z</time>
      </trkpt>
      <trkpt lat="43.46502" lon="-0.7349">
        <ele>90</ele>
        <time>2025-08-12T09:43:14.000Z</time>
      </trkpt>
      <trkpt lat="43.46508" lon="-0.73487">
        <ele>90.400001525879</ele>
        <time>2025-08-12T09:43:16.000Z</time>
      </trkpt>
      <trkpt lat="43.46517" lon="-0.73481">
        <ele>91.800003051758</ele>
        <time>2025-08-12T09:43:20.000Z</time>
      </trkpt>
      <trkpt lat="43.46533" lon="-0.73472">
        <ele>92.599998474121</ele>
        <time>2025-08-12T09:43:27.000Z</time>
      </trkpt>
      <trkpt lat="43.46537" lon="-0.73469">
        <ele>92.800003051758</ele>
        <time>2025-08-12T09:43:29.000Z</time>
      </trkpt>
      <trkpt lat="43.46557" lon="-0.73454">
        <ele>93.199996948242</ele>
        <time>2025-08-12T09:43:38.000Z</time>
      </trkpt>
      <trkpt lat="43.46558" lon="-0.73453">
        <ele>93.199996948242</ele>
        <time>2025-08-12T09:43:39.000Z</time>
      </trkpt>
      <trkpt lat="43.46561" lon="-0.7345">
        <ele>93.400001525879</ele>
        <time>2025-08-12T09:43:42.000Z</time>
      </trkpt>
      <trkpt lat="43.46562" lon="-0.73449">
        <ele>93.199996948242</ele>
        <time>2025-08-12T09:43:45.000Z</time>
      </trkpt>
      <trkpt lat="43.46567" lon="-0.73446">
        <ele>93.199996948242</ele>
        <time>2025-08-12T09:44:03.000Z</time>
      </trkpt>
      <trkpt lat="43.46569" lon="-0.73446">
        <ele>93.199996948242</ele>
        <time>2025-08-12T09:44:04.000Z</time>
      </trkpt>
      <trkpt lat="43.46583" lon="-0.73435">
        <ele>93.199996948242</ele>
        <time>2025-08-12T09:44:10.000Z</time>
      </trkpt>
      <trkpt lat="43.46598" lon="-0.73424">
        <ele>93</ele>
        <time>2025-08-12T09:44:16.000Z</time>
      </trkpt>
      <trkpt lat="43.46602" lon="-0.73424">
        <ele>92.800003051758</ele>
        <time>2025-08-12T09:44:18.000Z</time>
      </trkpt>
      <trkpt lat="43.46603" lon="-0.73425">
        <ele>92.599998474121</ele>
        <time>2025-08-12T09:44:19.000Z</time>
      </trkpt>
      <trkpt lat="43.46603" lon="-0.73434">
        <ele>92.199996948242</ele>
        <time>2025-08-12T09:44:24.000Z</time>
      </trkpt>
      <trkpt lat="43.46602" lon="-0.73436">
        <ele>92.199996948242</ele>
        <time>2025-08-12T09:44:26.000Z</time>
      </trkpt>
      <trkpt lat="43.46601" lon="-0.73438">
        <ele>92.199996948242</ele>
        <time>2025-08-12T09:44:27.000Z</time>
      </trkpt>
      <trkpt lat="43.46598" lon="-0.73443">
        <ele>91.400001525879</ele>
        <time>2025-08-12T09:44:30.000Z</time>
      </trkpt>
      <trkpt lat="43.46594" lon="-0.7345">
        <ele>91</ele>
        <time>2025-08-12T09:44:32.000Z</time>
      </trkpt>
      <trkpt lat="43.46591" lon="-0.73467">
        <ele>90.400001525879</ele>
        <time>2025-08-12T09:44:36.000Z</time>
      </trkpt>
      <trkpt lat="43.46593" lon="-0.73479">
        <ele>89.800003051758</ele>
        <time>2025-08-12T09:44:38.000Z</time>
      </trkpt>
      <trkpt lat="43.46597" lon="-0.73491">
        <ele>88.800003051758</ele>
        <time>2025-08-12T09:44:40.000Z</time>
      </trkpt>
      <trkpt lat="43.46599" lon="-0.73497">
        <ele>88.599998474121</ele>
        <time>2025-08-12T09:44:41.000Z</time>
      </trkpt>
      <trkpt lat="43.46612" lon="-0.73529">
        <ele>87.599998474121</ele>
        <time>2025-08-12T09:44:47.000Z</time>
      </trkpt>
      <trkpt lat="43.46627" lon="-0.73567">
        <ele>87.400001525879</ele>
        <time>2025-08-12T09:44:55.000Z</time>
      </trkpt>
      <trkpt lat="43.46643" lon="-0.73611">
        <ele>87</ele>
        <time>2025-08-12T09:45:03.000Z</time>
      </trkpt>
      <trkpt lat="43.46656" lon="-0.73647">
        <ele>86.800003051758</ele>
        <time>2025-08-12T09:45:10.000Z</time>
      </trkpt>
      <trkpt lat="43.46658" lon="-0.73652">
        <ele>86.800003051758</ele>
        <time>2025-08-12T09:45:11.000Z</time>
      </trkpt>
      <trkpt lat="43.46672" lon="-0.73692">
        <ele>86.599998474121</ele>
        <time>2025-08-12T09:45:19.000Z</time>
      </trkpt>
      <trkpt lat="43.46693" lon="-0.73756">
        <ele>87</ele>
        <time>2025-08-12T09:45:31.000Z</time>
      </trkpt>
      <trkpt lat="43.46708" lon="-0.73805">
        <ele>86.800003051758</ele>
        <time>2025-08-12T09:45:40.000Z</time>
      </trkpt>
      <trkpt lat="43.46716" lon="-0.73832">
        <ele>86.800003051758</ele>
        <time>2025-08-12T09:45:45.000Z</time>
      </trkpt>
      <trkpt lat="43.46727" lon="-0.73864">
        <ele>86.800003051758</ele>
        <time>2025-08-12T09:45:51.000Z</time>
      </trkpt>
      <trkpt lat="43.46746" lon="-0.73924">
        <ele>86.800003051758</ele>
        <time>2025-08-12T09:46:02.000Z</time>
      </trkpt>
      <trkpt lat="43.46766" lon="-0.73996">
        <ele>86.800003051758</ele>
        <time>2025-08-12T09:46:15.000Z</time>
      </trkpt>
      <trkpt lat="43.46786" lon="-0.74068">
        <ele>86.599998474121</ele>
        <time>2025-08-12T09:46:27.000Z</time>
      </trkpt>
      <trkpt lat="43.46802" lon="-0.74122">
        <ele>86.199996948242</ele>
        <time>2025-08-12T09:46:36.000Z</time>
      </trkpt>
      <trkpt lat="43.46817" lon="-0.74179">
        <ele>86.400001525879</ele>
        <time>2025-08-12T09:46:46.000Z</time>
      </trkpt>
      <trkpt lat="43.46834" lon="-0.74237">
        <ele>86.199996948242</ele>
        <time>2025-08-12T09:46:56.000Z</time>
      </trkpt>
      <trkpt lat="43.46853" lon="-0.74302">
        <ele>86.400001525879</ele>
        <time>2025-08-12T09:47:08.000Z</time>
      </trkpt>
      <trkpt lat="43.4687" lon="-0.74363">
        <ele>86.199996948242</ele>
        <time>2025-08-12T09:47:18.000Z</time>
      </trkpt>
      <trkpt lat="43.46881" lon="-0.744">
        <ele>86.199996948242</ele>
        <time>2025-08-12T09:47:25.000Z</time>
      </trkpt>
      <trkpt lat="43.46883" lon="-0.74408">
        <ele>86.199996948242</ele>
        <time>2025-08-12T09:47:26.000Z</time>
      </trkpt>
      <trkpt lat="43.46885" lon="-0.74425">
        <ele>86</ele>
        <time>2025-08-12T09:47:29.000Z</time>
      </trkpt>
      <trkpt lat="43.46886" lon="-0.74431">
        <ele>85.800003051758</ele>
        <time>2025-08-12T09:47:30.000Z</time>
      </trkpt>
      <trkpt lat="43.46888" lon="-0.74436">
        <ele>85.800003051758</ele>
        <time>2025-08-12T09:47:31.000Z</time>
      </trkpt>
      <trkpt lat="43.46892" lon="-0.74442">
        <ele>85.800003051758</ele>
        <time>2025-08-12T09:47:32.000Z</time>
      </trkpt>
      <trkpt lat="43.46898" lon="-0.7445">
        <ele>85.599998474121</ele>
        <time>2025-08-12T09:47:34.000Z</time>
      </trkpt>
      <trkpt lat="43.46901" lon="-0.74456">
        <ele>85.599998474121</ele>
        <time>2025-08-12T09:47:35.000Z</time>
      </trkpt>
      <trkpt lat="43.46915" lon="-0.74483">
        <ele>85.400001525879</ele>
        <time>2025-08-12T09:47:41.000Z</time>
      </trkpt>
      <trkpt lat="43.46919" lon="-0.74487">
        <ele>85.400001525879</ele>
        <time>2025-08-12T09:47:42.000Z</time>
      </trkpt>
      <trkpt lat="43.46924" lon="-0.74492">
        <ele>85.400001525879</ele>
        <time>2025-08-12T09:47:44.000Z</time>
      </trkpt>
      <trkpt lat="43.4694" lon="-0.74504">
        <ele>85.400001525879</ele>
        <time>2025-08-12T09:47:49.000Z</time>
      </trkpt>
      <trkpt lat="43.46966" lon="-0.74522">
        <ele>85.400001525879</ele>
        <time>2025-08-12T09:47:56.000Z</time>
      </trkpt>
      <trkpt lat="43.4697" lon="-0.74524">
        <ele>85.400001525879</ele>
        <time>2025-08-12T09:47:57.000Z</time>
      </trkpt>
      <trkpt lat="43.46992" lon="-0.74527">
        <ele>85.199996948242</ele>
        <time>2025-08-12T09:48:02.000Z</time>
      </trkpt>
      <trkpt lat="43.46996" lon="-0.74528">
        <ele>85.199996948242</ele>
        <time>2025-08-12T09:48:03.000Z</time>
      </trkpt>
      <trkpt lat="43.47006" lon="-0.74532">
        <ele>84.800003051758</ele>
        <time>2025-08-12T09:48:06.000Z</time>
      </trkpt>
      <trkpt lat="43.47009" lon="-0.74534">
        <ele>84.800003051758</ele>
        <time>2025-08-12T09:48:07.000Z</time>
      </trkpt>
      <trkpt lat="43.47021" lon="-0.74539">
        <ele>84.599998474121</ele>
        <time>2025-08-12T09:48:12.000Z</time>
      </trkpt>
      <trkpt lat="43.47025" lon="-0.7454">
        <ele>84.800003051758</ele>
        <time>2025-08-12T09:48:14.000Z</time>
      </trkpt>
      <trkpt lat="43.4703" lon="-0.74545">
        <ele>84.800003051758</ele>
        <time>2025-08-12T09:48:17.000Z</time>
      </trkpt>
      <trkpt lat="43.47042" lon="-0.74558">
        <ele>85</ele>
        <time>2025-08-12T09:48:23.000Z</time>
      </trkpt>
      <trkpt lat="43.47059" lon="-0.7458">
        <ele>85.199996948242</ele>
        <time>2025-08-12T09:48:30.000Z</time>
      </trkpt>
      <trkpt lat="43.47068" lon="-0.74604">
        <ele>85.199996948242</ele>
        <time>2025-08-12T09:48:36.000Z</time>
      </trkpt>
      <trkpt lat="43.47073" lon="-0.74627">
        <ele>85.400001525879</ele>
        <time>2025-08-12T09:48:42.000Z</time>
      </trkpt>
      <trkpt lat="43.47072" lon="-0.74628">
        <ele>85.400001525879</ele>
        <time>2025-08-12T09:48:47.000Z</time>
      </trkpt>
      <trkpt lat="43.47073" lon="-0.7463">
        <ele>85.199996948242</ele>
        <time>2025-08-12T09:49:25.000Z</time>
      </trkpt>
      <trkpt lat="43.47074" lon="-0.74635">
        <ele>85.199996948242</ele>
        <time>2025-08-12T09:49:27.000Z</time>
      </trkpt>
      <trkpt lat="43.47073" lon="-0.74641">
        <ele>85.199996948242</ele>
        <time>2025-08-12T09:49:30.000Z</time>
      </trkpt>
      <trkpt lat="43.47073" lon="-0.74642">
        <ele>85.199996948242</ele>
        <time>2025-08-12T09:49:32.000Z</time>
      </trkpt>
      <trkpt lat="43.47073" lon="-0.74642">
        <ele>85</ele>
        <time>2025-08-12T09:49:33.000Z</time>
      </trkpt>
      <trkpt lat="43.47077" lon="-0.74654">
        <ele>84.800003051758</ele>
        <time>2025-08-12T09:50:05.000Z</time>
      </trkpt>
      <trkpt lat="43.47078" lon="-0.74659">
        <ele>84.800003051758</ele>
        <time>2025-08-12T09:50:07.000Z</time>
      </trkpt>
      <trkpt lat="43.4708" lon="-0.74675">
        <ele>84.800003051758</ele>
        <time>2025-08-12T09:50:12.000Z</time>
      </trkpt>
      <trkpt lat="43.47081" lon="-0.74693">
        <ele>84.800003051758</ele>
        <time>2025-08-12T09:50:17.000Z</time>
      </trkpt>
      <trkpt lat="43.47079" lon="-0.74699">
        <ele>85</ele>
        <time>2025-08-12T09:50:20.000Z</time>
      </trkpt>
      <trkpt lat="43.47076" lon="-0.74702">
        <ele>85</ele>
        <time>2025-08-12T09:50:22.000Z</time>
      </trkpt>
      <trkpt lat="43.47071" lon="-0.74706">
        <ele>85</ele>
        <time>2025-08-12T09:50:25.000Z</time>
      </trkpt>
      <trkpt lat="43.47069" lon="-0.74711">
        <ele>85.199996948242</ele>
        <time>2025-08-12T09:50:27.000Z</time>
      </trkpt>
      <trkpt lat="43.47069" lon="-0.74717">
        <ele>85.199996948242</ele>
        <time>2025-08-12T09:50:29.000Z</time>
      </trkpt>
      <trkpt lat="43.47071" lon="-0.74731">
        <ele>85.199996948242</ele>
        <time>2025-08-12T09:50:33.000Z</time>
      </trkpt>
      <trkpt lat="43.4707" lon="-0.74749">
        <ele>85</ele>
        <time>2025-08-12T09:50:39.000Z</time>
      </trkpt>
      <trkpt lat="43.47066" lon="-0.74769">
        <ele>85.400001525879</ele>
        <time>2025-08-12T09:50:45.000Z</time>
      </trkpt>
      <trkpt lat="43.47065" lon="-0.74786">
        <ele>85.800003051758</ele>
        <time>2025-08-12T09:50:50.000Z</time>
      </trkpt>
      <trkpt lat="43.47063" lon="-0.74793">
        <ele>86</ele>
        <time>2025-08-12T09:50:52.000Z</time>
      </trkpt>
      <trkpt lat="43.47056" lon="-0.74812">
        <ele>86.199996948242</ele>
        <time>2025-08-12T09:50:57.000Z</time>
      </trkpt>
      <trkpt lat="43.47052" lon="-0.74835">
        <ele>86</ele>
        <time>2025-08-12T09:51:02.000Z</time>
      </trkpt>
      <trkpt lat="43.47047" lon="-0.7486">
        <ele>86</ele>
        <time>2025-08-12T09:51:08.000Z</time>
      </trkpt>
      <trkpt lat="43.4704" lon="-0.74887">
        <ele>85.800003051758</ele>
        <time>2025-08-12T09:51:15.000Z</time>
      </trkpt>
      <trkpt lat="43.47035" lon="-0.74924">
        <ele>86</ele>
        <time>2025-08-12T09:51:23.000Z</time>
      </trkpt>
      <trkpt lat="43.47034" lon="-0.7494">
        <ele>86</ele>
        <time>2025-08-12T09:51:26.000Z</time>
      </trkpt>
      <trkpt lat="43.47033" lon="-0.74955">
        <ele>86</ele>
        <time>2025-08-12T09:51:29.000Z</time>
      </trkpt>
      <trkpt lat="43.4703" lon="-0.74983">
        <ele>85.800003051758</ele>
        <time>2025-08-12T09:51:34.000Z</time>
      </trkpt>
      <trkpt lat="43.47021" lon="-0.75003">
        <ele>85.599998474121</ele>
        <time>2025-08-12T09:51:39.000Z</time>
      </trkpt>
      <trkpt lat="43.47015" lon="-0.75024">
        <ele>85.400001525879</ele>
        <time>2025-08-12T09:51:43.000Z</time>
      </trkpt>
      <trkpt lat="43.47017" lon="-0.75054">
        <ele>85.400001525879</ele>
        <time>2025-08-12T09:51:49.000Z</time>
      </trkpt>
      <trkpt lat="43.47021" lon="-0.75084">
        <ele>85.599998474121</ele>
        <time>2025-08-12T09:51:56.000Z</time>
      </trkpt>
      <trkpt lat="43.47024" lon="-0.75105">
        <ele>86.199996948242</ele>
        <time>2025-08-12T09:52:02.000Z</time>
      </trkpt>
      <trkpt lat="43.47026" lon="-0.75118">
        <ele>86.800003051758</ele>
        <time>2025-08-12T09:52:07.000Z</time>
      </trkpt>
      <trkpt lat="43.4703" lon="-0.75135">
        <ele>87.199996948242</ele>
        <time>2025-08-12T09:52:12.000Z</time>
      </trkpt>
      <trkpt lat="43.47031" lon="-0.75138">
        <ele>87.400001525879</ele>
        <time>2025-08-12T09:52:13.000Z</time>
      </trkpt>
      <trkpt lat="43.4704" lon="-0.75164">
        <ele>87.599998474121</ele>
        <time>2025-08-12T09:52:19.000Z</time>
      </trkpt>
      <trkpt lat="43.47049" lon="-0.7519">
        <ele>87.599998474121</ele>
        <time>2025-08-12T09:52:24.000Z</time>
      </trkpt>
      <trkpt lat="43.47057" lon="-0.75216">
        <ele>87.599998474121</ele>
        <time>2025-08-12T09:52:29.000Z</time>
      </trkpt>
      <trkpt lat="43.47065" lon="-0.75253">
        <ele>87.400001525879</ele>
        <time>2025-08-12T09:52:35.000Z</time>
      </trkpt>
      <trkpt lat="43.47078" lon="-0.75288">
        <ele>87.599998474121</ele>
        <time>2025-08-12T09:52:41.000Z</time>
      </trkpt>
      <trkpt lat="43.47087" lon="-0.75321">
        <ele>87.400001525879</ele>
        <time>2025-08-12T09:52:48.000Z</time>
      </trkpt>
      <trkpt lat="43.47096" lon="-0.7534">
        <ele>87.400001525879</ele>
        <time>2025-08-12T09:52:53.000Z</time>
      </trkpt>
      <trkpt lat="43.47113" lon="-0.75377">
        <ele>87.599998474121</ele>
        <time>2025-08-12T09:53:00.000Z</time>
      </trkpt>
      <trkpt lat="43.47133" lon="-0.75426">
        <ele>87</ele>
        <time>2025-08-12T09:53:09.000Z</time>
      </trkpt>
      <trkpt lat="43.4715" lon="-0.75462">
        <ele>86.800003051758</ele>
        <time>2025-08-12T09:53:16.000Z</time>
      </trkpt>
      <trkpt lat="43.47167" lon="-0.75495">
        <ele>87</ele>
        <time>2025-08-12T09:53:23.000Z</time>
      </trkpt>
      <trkpt lat="43.47186" lon="-0.75534">
        <ele>87.199996948242</ele>
        <time>2025-08-12T09:53:31.000Z</time>
      </trkpt>
      <trkpt lat="43.472" lon="-0.75564">
        <ele>87.199996948242</ele>
        <time>2025-08-12T09:53:38.000Z</time>
      </trkpt>
      <trkpt lat="43.47215" lon="-0.75587">
        <ele>87.599998474121</ele>
        <time>2025-08-12T09:53:44.000Z</time>
      </trkpt>
      <trkpt lat="43.47232" lon="-0.75616">
        <ele>87.599998474121</ele>
        <time>2025-08-12T09:53:51.000Z</time>
      </trkpt>
      <trkpt lat="43.47245" lon="-0.7564">
        <ele>87.400001525879</ele>
        <time>2025-08-12T09:53:57.000Z</time>
      </trkpt>
      <trkpt lat="43.47254" lon="-0.75652">
        <ele>87.199996948242</ele>
        <time>2025-08-12T09:54:02.000Z</time>
      </trkpt>
      <trkpt lat="43.47255" lon="-0.75652">
        <ele>87.199996948242</ele>
        <time>2025-08-12T09:54:03.000Z</time>
      </trkpt>
      <trkpt lat="43.47255" lon="-0.7565">
        <ele>87</ele>
        <time>2025-08-12T09:54:05.000Z</time>
      </trkpt>
      <trkpt lat="43.47247" lon="-0.75642">
        <ele>86.800003051758</ele>
        <time>2025-08-12T09:54:09.000Z</time>
      </trkpt>
      <trkpt lat="43.47241" lon="-0.75634">
        <ele>86.800003051758</ele>
        <time>2025-08-12T09:54:11.000Z</time>
      </trkpt>
      <trkpt lat="43.47234" lon="-0.75622">
        <ele>86.800003051758</ele>
        <time>2025-08-12T09:54:14.000Z</time>
      </trkpt>
      <trkpt lat="43.47226" lon="-0.75612">
        <ele>86.599998474121</ele>
        <time>2025-08-12T09:54:18.000Z</time>
      </trkpt>
      <trkpt lat="43.47223" lon="-0.7561">
        <ele>86.599998474121</ele>
        <time>2025-08-12T09:54:23.000Z</time>
      </trkpt>
      <trkpt lat="43.47271" lon="-0.75665">
        <ele>88.599998474121</ele>
        <time>2025-08-12T10:11:55.000Z</time>
      </trkpt>
      <trkpt lat="43.47272" lon="-0.75669">
        <ele>88.599998474121</ele>
        <time>2025-08-12T10:11:57.000Z</time>
      </trkpt>
      <trkpt lat="43.47271" lon="-0.75678">
        <ele>88.599998474121</ele>
        <time>2025-08-12T10:12:02.000Z</time>
      </trkpt>
      <trkpt lat="43.4727" lon="-0.75684">
        <ele>88.599998474121</ele>
        <time>2025-08-12T10:12:05.000Z</time>
      </trkpt>
      <trkpt lat="43.4727" lon="-0.75686">
        <ele>88.599998474121</ele>
        <time>2025-08-12T10:12:07.000Z</time>
      </trkpt>
      <trkpt lat="43.47271" lon="-0.75688">
        <ele>88.800003051758</ele>
        <time>2025-08-12T10:12:09.000Z</time>
      </trkpt>
      <trkpt lat="43.47275" lon="-0.75696">
        <ele>88.800003051758</ele>
        <time>2025-08-12T10:12:13.000Z</time>
      </trkpt>
      <trkpt lat="43.47287" lon="-0.75715">
        <ele>88.599998474121</ele>
        <time>2025-08-12T10:12:19.000Z</time>
      </trkpt>
      <trkpt lat="43.47296" lon="-0.75731">
        <ele>88.199996948242</ele>
        <time>2025-08-12T10:12:23.000Z</time>
      </trkpt>
      <trkpt lat="43.47306" lon="-0.75747">
        <ele>87.800003051758</ele>
        <time>2025-08-12T10:12:27.000Z</time>
      </trkpt>
      <trkpt lat="43.47322" lon="-0.75779">
        <ele>87.800003051758</ele>
        <time>2025-08-12T10:12:35.000Z</time>
      </trkpt>
      <trkpt lat="43.4734" lon="-0.7582">
        <ele>87.800003051758</ele>
        <time>2025-08-12T10:12:44.000Z</time>
      </trkpt>
      <trkpt lat="43.47352" lon="-0.75849">
        <ele>87.800003051758</ele>
        <time>2025-08-12T10:12:51.000Z</time>
      </trkpt>
      <trkpt lat="43.47367" lon="-0.7586">
        <ele>87.800003051758</ele>
        <time>2025-08-12T10:12:56.000Z</time>
      </trkpt>
      <trkpt lat="43.47392" lon="-0.75874">
        <ele>88</ele>
        <time>2025-08-12T10:13:03.000Z</time>
      </trkpt>
      <trkpt lat="43.47401" lon="-0.75892">
        <ele>88</ele>
        <time>2025-08-12T10:13:07.000Z</time>
      </trkpt>
      <trkpt lat="43.47399" lon="-0.75919">
        <ele>88</ele>
        <time>2025-08-12T10:13:12.000Z</time>
      </trkpt>
      <trkpt lat="43.47395" lon="-0.75946">
        <ele>87.800003051758</ele>
        <time>2025-08-12T10:13:18.000Z</time>
      </trkpt>
      <trkpt lat="43.47396" lon="-0.75961">
        <ele>87.800003051758</ele>
        <time>2025-08-12T10:13:22.000Z</time>
      </trkpt>
      <trkpt lat="43.47405" lon="-0.7598">
        <ele>87.800003051758</ele>
        <time>2025-08-12T10:13:28.000Z</time>
      </trkpt>
      <trkpt lat="43.47414" lon="-0.75994">
        <ele>88</ele>
        <time>2025-08-12T10:13:33.000Z</time>
      </trkpt>
      <trkpt lat="43.47431" lon="-0.7602">
        <ele>88</ele>
        <time>2025-08-12T10:13:41.000Z</time>
      </trkpt>
      <trkpt lat="43.47448" lon="-0.76046">
        <ele>88</ele>
        <time>2025-08-12T10:13:50.000Z</time>
      </trkpt>
      <trkpt lat="43.47456" lon="-0.7606">
        <ele>88.199996948242</ele>
        <time>2025-08-12T10:13:55.000Z</time>
      </trkpt>
      <trkpt lat="43.47457" lon="-0.76063">
        <ele>88.199996948242</ele>
        <time>2025-08-12T10:13:58.000Z</time>
      </trkpt>
      <trkpt lat="43.47461" lon="-0.76064">
        <ele>87.800003051758</ele>
        <time>2025-08-12T10:14:27.000Z</time>
      </trkpt>
      <trkpt lat="43.47464" lon="-0.76065">
        <ele>87.800003051758</ele>
        <time>2025-08-12T10:14:29.000Z</time>
      </trkpt>
      <trkpt lat="43.47466" lon="-0.76069">
        <ele>88</ele>
        <time>2025-08-12T10:14:31.000Z</time>
      </trkpt>
      <trkpt lat="43.47478" lon="-0.76081">
        <ele>88.199996948242</ele>
        <time>2025-08-12T10:14:36.000Z</time>
      </trkpt>
      <trkpt lat="43.47496" lon="-0.7609">
        <ele>88.800003051758</ele>
        <time>2025-08-12T10:14:42.000Z</time>
      </trkpt>
      <trkpt lat="43.47514" lon="-0.76098">
        <ele>89.199996948242</ele>
        <time>2025-08-12T10:14:47.000Z</time>
      </trkpt>
      <trkpt lat="43.47545" lon="-0.76111">
        <ele>89.400001525879</ele>
        <time>2025-08-12T10:14:56.000Z</time>
      </trkpt>
      <trkpt lat="43.4756" lon="-0.76118">
        <ele>89.199996948242</ele>
        <time>2025-08-12T10:15:02.000Z</time>
      </trkpt>
      <trkpt lat="43.47575" lon="-0.76124">
        <ele>89.199996948242</ele>
        <time>2025-08-12T10:15:08.000Z</time>
      </trkpt>
      <trkpt lat="43.47591" lon="-0.76131">
        <ele>89.400001525879</ele>
        <time>2025-08-12T10:15:14.000Z</time>
      </trkpt>
      <trkpt lat="43.47617" lon="-0.76142">
        <ele>89.400001525879</ele>
        <time>2025-08-12T10:15:22.000Z</time>
      </trkpt>
      <trkpt lat="43.4764" lon="-0.76153">
        <ele>89.400001525879</ele>
        <time>2025-08-12T10:15:28.000Z</time>
      </trkpt>
      <trkpt lat="43.47661" lon="-0.76165">
        <ele>89.199996948242</ele>
        <time>2025-08-12T10:15:35.000Z</time>
      </trkpt>
      <trkpt lat="43.47684" lon="-0.76174">
        <ele>89.199996948242</ele>
        <time>2025-08-12T10:15:41.000Z</time>
      </trkpt>
      <trkpt lat="43.47711" lon="-0.76181">
        <ele>89</ele>
        <time>2025-08-12T10:15:48.000Z</time>
      </trkpt>
      <trkpt lat="43.47721" lon="-0.76185">
        <ele>89.199996948242</ele>
        <time>2025-08-12T10:15:52.000Z</time>
      </trkpt>
      <trkpt lat="43.47722" lon="-0.76188">
        <ele>89.199996948242</ele>
        <time>2025-08-12T10:15:53.000Z</time>
      </trkpt>
      <trkpt lat="43.47719" lon="-0.762">
        <ele>89.199996948242</ele>
        <time>2025-08-12T10:15:58.000Z</time>
      </trkpt>
      <trkpt lat="43.47718" lon="-0.76204">
        <ele>89.400001525879</ele>
        <time>2025-08-12T10:16:00.000Z</time>
      </trkpt>
      <trkpt lat="43.47719" lon="-0.7621">
        <ele>89.400001525879</ele>
        <time>2025-08-12T10:16:02.000Z</time>
      </trkpt>
      <trkpt lat="43.47722" lon="-0.76222">
        <ele>89.400001525879</ele>
        <time>2025-08-12T10:16:06.000Z</time>
      </trkpt>
      <trkpt lat="43.47721" lon="-0.76225">
        <ele>89.599998474121</ele>
        <time>2025-08-12T10:16:07.000Z</time>
      </trkpt>
      <trkpt lat="43.4772" lon="-0.7623">
        <ele>89.599998474121</ele>
        <time>2025-08-12T10:16:09.000Z</time>
      </trkpt>
      <trkpt lat="43.47722" lon="-0.76235">
        <ele>89.800003051758</ele>
        <time>2025-08-12T10:16:11.000Z</time>
      </trkpt>
      <trkpt lat="43.47736" lon="-0.76244">
        <ele>90.400001525879</ele>
        <time>2025-08-12T10:16:16.000Z</time>
      </trkpt>
      <trkpt lat="43.47752" lon="-0.76249">
        <ele>90.800003051758</ele>
        <time>2025-08-12T10:16:21.000Z</time>
      </trkpt>
      <trkpt lat="43.47773" lon="-0.76249">
        <ele>90.800003051758</ele>
        <time>2025-08-12T10:16:27.000Z</time>
      </trkpt>
      <trkpt lat="43.47789" lon="-0.76264">
        <ele>90.800003051758</ele>
        <time>2025-08-12T10:16:32.000Z</time>
      </trkpt>
      <trkpt lat="43.47815" lon="-0.76294">
        <ele>90.800003051758</ele>
        <time>2025-08-12T10:16:40.000Z</time>
      </trkpt>
      <trkpt lat="43.47824" lon="-0.76305">
        <ele>90.800003051758</ele>
        <time>2025-08-12T10:16:43.000Z</time>
      </trkpt>
      <trkpt lat="43.47837" lon="-0.76321">
        <ele>90.800003051758</ele>
        <time>2025-08-12T10:16:47.000Z</time>
      </trkpt>
      <trkpt lat="43.47848" lon="-0.76339">
        <ele>90.800003051758</ele>
        <time>2025-08-12T10:16:51.000Z</time>
      </trkpt>
      <trkpt lat="43.47858" lon="-0.7635">
        <ele>90.800003051758</ele>
        <time>2025-08-12T10:16:54.000Z</time>
      </trkpt>
      <trkpt lat="43.47862" lon="-0.76355">
        <ele>90.599998474121</ele>
        <time>2025-08-12T10:16:55.000Z</time>
      </trkpt>
      <trkpt lat="43.47894" lon="-0.76398">
        <ele>90.400001525879</ele>
        <time>2025-08-12T10:17:05.000Z</time>
      </trkpt>
      <trkpt lat="43.47897" lon="-0.76402">
        <ele>90.400001525879</ele>
        <time>2025-08-12T10:17:06.000Z</time>
      </trkpt>
      <trkpt lat="43.47912" lon="-0.76421">
        <ele>90.400001525879</ele>
        <time>2025-08-12T10:17:11.000Z</time>
      </trkpt>
      <trkpt lat="43.47927" lon="-0.76441">
        <ele>90.800003051758</ele>
        <time>2025-08-12T10:17:17.000Z</time>
      </trkpt>
      <trkpt lat="43.47939" lon="-0.76454">
        <ele>91.400001525879</ele>
        <time>2025-08-12T10:17:23.000Z</time>
      </trkpt>
      <trkpt lat="43.47944" lon="-0.76459">
        <ele>91.800003051758</ele>
        <time>2025-08-12T10:17:25.000Z</time>
      </trkpt>
      <trkpt lat="43.47954" lon="-0.76469">
        <ele>92.199996948242</ele>
        <time>2025-08-12T10:17:30.000Z</time>
      </trkpt>
      <trkpt lat="43.47959" lon="-0.76482">
        <ele>92.800003051758</ele>
        <time>2025-08-12T10:17:35.000Z</time>
      </trkpt>
      <trkpt lat="43.47959" lon="-0.76499">
        <ele>93.400001525879</ele>
        <time>2025-08-12T10:17:41.000Z</time>
      </trkpt>
      <trkpt lat="43.47963" lon="-0.76511">
        <ele>93.599998474121</ele>
        <time>2025-08-12T10:17:45.000Z</time>
      </trkpt>
      <trkpt lat="43.47965" lon="-0.76512">
        <ele>93.599998474121</ele>
        <time>2025-08-12T10:17:46.000Z</time>
      </trkpt>
      <trkpt lat="43.47976" lon="-0.7652">
        <ele>93.800003051758</ele>
        <time>2025-08-12T10:17:51.000Z</time>
      </trkpt>
      <trkpt lat="43.47984" lon="-0.76539">
        <ele>93.800003051758</ele>
        <time>2025-08-12T10:17:56.000Z</time>
      </trkpt>
      <trkpt lat="43.47985" lon="-0.76543">
        <ele>94</ele>
        <time>2025-08-12T10:17:57.000Z</time>
      </trkpt>
      <trkpt lat="43.47994" lon="-0.76564">
        <ele>94</ele>
        <time>2025-08-12T10:18:03.000Z</time>
      </trkpt>
      <trkpt lat="43.4801" lon="-0.76597">
        <ele>94.199996948242</ele>
        <time>2025-08-12T10:18:11.000Z</time>
      </trkpt>
      <trkpt lat="43.48018" lon="-0.76635">
        <ele>94.199996948242</ele>
        <time>2025-08-12T10:18:18.000Z</time>
      </trkpt>
      <trkpt lat="43.4803" lon="-0.76683">
        <ele>94.599998474121</ele>
        <time>2025-08-12T10:18:27.000Z</time>
      </trkpt>
      <trkpt lat="43.48038" lon="-0.7671">
        <ele>94.599998474121</ele>
        <time>2025-08-12T10:18:32.000Z</time>
      </trkpt>
      <trkpt lat="43.48041" lon="-0.76725">
        <ele>94.800003051758</ele>
        <time>2025-08-12T10:18:35.000Z</time>
      </trkpt>
      <trkpt lat="43.48045" lon="-0.76741">
        <ele>95</ele>
        <time>2025-08-12T10:18:38.000Z</time>
      </trkpt>
      <trkpt lat="43.48048" lon="-0.76758">
        <ele>95</ele>
        <time>2025-08-12T10:18:41.000Z</time>
      </trkpt>
      <trkpt lat="43.48052" lon="-0.76775">
        <ele>95</ele>
        <time>2025-08-12T10:18:44.000Z</time>
      </trkpt>
      <trkpt lat="43.48062" lon="-0.76813">
        <ele>95</ele>
        <time>2025-08-12T10:18:51.000Z</time>
      </trkpt>
      <trkpt lat="43.48074" lon="-0.76864">
        <ele>95</ele>
        <time>2025-08-12T10:19:00.000Z</time>
      </trkpt>
      <trkpt lat="43.48084" lon="-0.76909">
        <ele>95.400001525879</ele>
        <time>2025-08-12T10:19:08.000Z</time>
      </trkpt>
      <trkpt lat="43.48089" lon="-0.76929">
        <ele>96</ele>
        <time>2025-08-12T10:19:12.000Z</time>
      </trkpt>
      <trkpt lat="43.48095" lon="-0.76949">
        <ele>96.400001525879</ele>
        <time>2025-08-12T10:19:16.000Z</time>
      </trkpt>
      <trkpt lat="43.48099" lon="-0.76968">
        <ele>97</ele>
        <time>2025-08-12T10:19:20.000Z</time>
      </trkpt>
      <trkpt lat="43.48105" lon="-0.76992">
        <ele>97.599998474121</ele>
        <time>2025-08-12T10:19:25.000Z</time>
      </trkpt>
      <trkpt lat="43.48111" lon="-0.77016">
        <ele>98</ele>
        <time>2025-08-12T10:19:30.000Z</time>
      </trkpt>
      <trkpt lat="43.48114" lon="-0.7703">
        <ele>98.599998474121</ele>
        <time>2025-08-12T10:19:33.000Z</time>
      </trkpt>
      <trkpt lat="43.48118" lon="-0.77043">
        <ele>99.199996948242</ele>
        <time>2025-08-12T10:19:36.000Z</time>
      </trkpt>
      <trkpt lat="43.48125" lon="-0.77072">
        <ele>99.400001525879</ele>
        <time>2025-08-12T10:19:42.000Z</time>
      </trkpt>
      <trkpt lat="43.48133" lon="-0.77102">
        <ele>99.599998474121</ele>
        <time>2025-08-12T10:19:48.000Z</time>
      </trkpt>
      <trkpt lat="43.48145" lon="-0.77147">
        <ele>99.800003051758</ele>
        <time>2025-08-12T10:19:56.000Z</time>
      </trkpt>
      <trkpt lat="43.48159" lon="-0.77194">
        <ele>99.599998474121</ele>
        <time>2025-08-12T10:20:04.000Z</time>
      </trkpt>
      <trkpt lat="43.48175" lon="-0.77255">
        <ele>99.800003051758</ele>
        <time>2025-08-12T10:20:14.000Z</time>
      </trkpt>
      <trkpt lat="43.48182" lon="-0.77282">
        <ele>99.800003051758</ele>
        <time>2025-08-12T10:20:19.000Z</time>
      </trkpt>
      <trkpt lat="43.48186" lon="-0.77299">
        <ele>99.599998474121</ele>
        <time>2025-08-12T10:20:22.000Z</time>
      </trkpt>
      <trkpt lat="43.48199" lon="-0.77345">
        <ele>99.599998474121</ele>
        <time>2025-08-12T10:20:30.000Z</time>
      </trkpt>
      <trkpt lat="43.48203" lon="-0.77355">
        <ele>99.400001525879</ele>
        <time>2025-08-12T10:20:32.000Z</time>
      </trkpt>
      <trkpt lat="43.48208" lon="-0.77369">
        <ele>99.199996948242</ele>
        <time>2025-08-12T10:20:35.000Z</time>
      </trkpt>
      <trkpt lat="43.48214" lon="-0.77387">
        <ele>99</ele>
        <time>2025-08-12T10:20:40.000Z</time>
      </trkpt>
      <trkpt lat="43.48218" lon="-0.77395">
        <ele>98.599998474121</ele>
        <time>2025-08-12T10:20:44.000Z</time>
      </trkpt>
      <trkpt lat="43.48219" lon="-0.77396">
        <ele>98.599998474121</ele>
        <time>2025-08-12T10:20:46.000Z</time>
      </trkpt>
      <trkpt lat="43.4822" lon="-0.77395">
        <ele>98.599998474121</ele>
        <time>2025-08-12T10:20:47.000Z</time>
      </trkpt>
      <trkpt lat="43.48221" lon="-0.77394">
        <ele>98.599998474121</ele>
        <time>2025-08-12T10:20:50.000Z</time>
      </trkpt>
      <trkpt lat="43.48223" lon="-0.77393">
        <ele>98.400001525879</ele>
        <time>2025-08-12T10:20:52.000Z</time>
      </trkpt>
      <trkpt lat="43.48226" lon="-0.7739">
        <ele>98.400001525879</ele>
        <time>2025-08-12T10:20:55.000Z</time>
      </trkpt>
      <trkpt lat="43.48226" lon="-0.7739">
        <ele>98.400001525879</ele>
        <time>2025-08-12T10:20:58.000Z</time>
      </trkpt>
      <trkpt lat="43.4823" lon="-0.77388">
        <ele>98.599998474121</ele>
        <time>2025-08-12T10:27:53.000Z</time>
      </trkpt>
      <trkpt lat="43.48231" lon="-0.77387">
        <ele>98.599998474121</ele>
        <time>2025-08-12T10:27:54.000Z</time>
      </trkpt>
      <trkpt lat="43.48243" lon="-0.77377">
        <ele>98.800003051758</ele>
        <time>2025-08-12T10:27:59.000Z</time>
      </trkpt>
      <trkpt lat="43.48256" lon="-0.77369">
        <ele>98.599998474121</ele>
        <time>2025-08-12T10:28:03.000Z</time>
      </trkpt>
      <trkpt lat="43.48262" lon="-0.77364">
        <ele>98.400001525879</ele>
        <time>2025-08-12T10:28:05.000Z</time>
      </trkpt>
      <trkpt lat="43.48281" lon="-0.7735">
        <ele>97.800003051758</ele>
        <time>2025-08-12T10:28:10.000Z</time>
      </trkpt>
      <trkpt lat="43.4829" lon="-0.77344">
        <ele>97.400001525879</ele>
        <time>2025-08-12T10:28:12.000Z</time>
      </trkpt>
      <trkpt lat="43.48293" lon="-0.7734">
        <ele>97</ele>
        <time>2025-08-12T10:28:13.000Z</time>
      </trkpt>
      <trkpt lat="43.48295" lon="-0.77334">
        <ele>96.599998474121</ele>
        <time>2025-08-12T10:28:14.000Z</time>
      </trkpt>
      <trkpt lat="43.48296" lon="-0.77328">
        <ele>96.400001525879</ele>
        <time>2025-08-12T10:28:15.000Z</time>
      </trkpt>
      <trkpt lat="43.48293" lon="-0.77317">
        <ele>95.599998474121</ele>
        <time>2025-08-12T10:28:17.000Z</time>
      </trkpt>
      <trkpt lat="43.48292" lon="-0.77311">
        <ele>95</ele>
        <time>2025-08-12T10:28:18.000Z</time>
      </trkpt>
      <trkpt lat="43.48293" lon="-0.77291">
        <ele>93.800003051758</ele>
        <time>2025-08-12T10:28:21.000Z</time>
      </trkpt>
      <trkpt lat="43.48295" lon="-0.7728">
        <ele>92.599998474121</ele>
        <time>2025-08-12T10:28:23.000Z</time>
      </trkpt>
      <trkpt lat="43.48302" lon="-0.77274">
        <ele>91.599998474121</ele>
        <time>2025-08-12T10:28:25.000Z</time>
      </trkpt>
      <trkpt lat="43.48306" lon="-0.77271">
        <ele>91.400001525879</ele>
        <time>2025-08-12T10:28:26.000Z</time>
      </trkpt>
      <trkpt lat="43.48322" lon="-0.77259">
        <ele>90.199996948242</ele>
        <time>2025-08-12T10:28:30.000Z</time>
      </trkpt>
      <trkpt lat="43.48326" lon="-0.77257">
        <ele>90</ele>
        <time>2025-08-12T10:28:31.000Z</time>
      </trkpt>
      <trkpt lat="43.4833" lon="-0.77258">
        <ele>89.800003051758</ele>
        <time>2025-08-12T10:28:32.000Z</time>
      </trkpt>
      <trkpt lat="43.48335" lon="-0.77266">
        <ele>89.599998474121</ele>
        <time>2025-08-12T10:28:34.000Z</time>
      </trkpt>
      <trkpt lat="43.48348" lon="-0.77292">
        <ele>89.400001525879</ele>
        <time>2025-08-12T10:28:39.000Z</time>
      </trkpt>
      <trkpt lat="43.48352" lon="-0.77302">
        <ele>89.400001525879</ele>
        <time>2025-08-12T10:28:41.000Z</time>
      </trkpt>
      <trkpt lat="43.48365" lon="-0.77335">
        <ele>89.199996948242</ele>
        <time>2025-08-12T10:28:47.000Z</time>
      </trkpt>
      <trkpt lat="43.48366" lon="-0.7734">
        <ele>89.199996948242</ele>
        <time>2025-08-12T10:28:48.000Z</time>
      </trkpt>
      <trkpt lat="43.4837" lon="-0.77356">
        <ele>89.199996948242</ele>
        <time>2025-08-12T10:28:50.000Z</time>
      </trkpt>
      <trkpt lat="43.48375" lon="-0.77368">
        <ele>89</ele>
        <time>2025-08-12T10:28:52.000Z</time>
      </trkpt>
      <trkpt lat="43.48378" lon="-0.77373">
        <ele>88.800003051758</ele>
        <time>2025-08-12T10:28:53.000Z</time>
      </trkpt>
      <trkpt lat="43.48383" lon="-0.77385">
        <ele>88.599998474121</ele>
        <time>2025-08-12T10:28:56.000Z</time>
      </trkpt>
      <trkpt lat="43.48397" lon="-0.77407">
        <ele>88.400001525879</ele>
        <time>2025-08-12T10:29:03.000Z</time>
      </trkpt>
      <trkpt lat="43.48399" lon="-0.77409">
        <ele>88.400001525879</ele>
        <time>2025-08-12T10:29:05.000Z</time>
      </trkpt>
      <trkpt lat="43.48403" lon="-0.77409">
        <ele>88.400001525879</ele>
        <time>2025-08-12T10:29:07.000Z</time>
      </trkpt>
      <trkpt lat="43.48405" lon="-0.7741">
        <ele>88.400001525879</ele>
        <time>2025-08-12T10:29:08.000Z</time>
      </trkpt>
      <trkpt lat="43.48411" lon="-0.77419">
        <ele>88.400001525879</ele>
        <time>2025-08-12T10:29:11.000Z</time>
      </trkpt>
      <trkpt lat="43.48423" lon="-0.77448">
        <ele>88.400001525879</ele>
        <time>2025-08-12T10:29:19.000Z</time>
      </trkpt>
      <trkpt lat="43.48432" lon="-0.77467">
        <ele>89.400001525879</ele>
        <time>2025-08-12T10:29:25.000Z</time>
      </trkpt>
      <trkpt lat="43.48447" lon="-0.7748">
        <ele>90.199996948242</ele>
        <time>2025-08-12T10:29:31.000Z</time>
      </trkpt>
      <trkpt lat="43.48451" lon="-0.7748">
        <ele>90.199996948242</ele>
        <time>2025-08-12T10:29:32.000Z</time>
      </trkpt>
      <trkpt lat="43.48463" lon="-0.77475">
        <ele>91</ele>
        <time>2025-08-12T10:29:36.000Z</time>
      </trkpt>
      <trkpt lat="43.48472" lon="-0.77469">
        <ele>91.400001525879</ele>
        <time>2025-08-12T10:29:40.000Z</time>
      </trkpt>
      <trkpt lat="43.48473" lon="-0.7747">
        <ele>91.400001525879</ele>
        <time>2025-08-12T10:29:41.000Z</time>
      </trkpt>
      <trkpt lat="43.48474" lon="-0.77471">
        <ele>91.199996948242</ele>
        <time>2025-08-12T10:29:42.000Z</time>
      </trkpt>
      <trkpt lat="43.48476" lon="-0.77475">
        <ele>91.400001525879</ele>
        <time>2025-08-12T10:29:44.000Z</time>
      </trkpt>
      <trkpt lat="43.48479" lon="-0.77475">
        <ele>91.599998474121</ele>
        <time>2025-08-12T10:29:46.000Z</time>
      </trkpt>
      <trkpt lat="43.48494" lon="-0.77464">
        <ele>92</ele>
        <time>2025-08-12T10:29:52.000Z</time>
      </trkpt>
      <trkpt lat="43.48511" lon="-0.77454">
        <ele>92.199996948242</ele>
        <time>2025-08-12T10:29:59.000Z</time>
      </trkpt>
      <trkpt lat="43.48515" lon="-0.77452">
        <ele>92.199996948242</ele>
        <time>2025-08-12T10:30:01.000Z</time>
      </trkpt>
      <trkpt lat="43.48521" lon="-0.77448">
        <ele>92.400001525879</ele>
        <time>2025-08-12T10:30:06.000Z</time>
      </trkpt>
      <trkpt lat="43.48528" lon="-0.77444">
        <ele>92.400001525879</ele>
        <time>2025-08-12T10:30:12.000Z</time>
      </trkpt>
      <trkpt lat="43.4853" lon="-0.77443">
        <ele>92.400001525879</ele>
        <time>2025-08-12T10:30:14.000Z</time>
      </trkpt>
      <trkpt lat="43.48538" lon="-0.7744">
        <ele>92.599998474121</ele>
        <time>2025-08-12T10:30:22.000Z</time>
      </trkpt>
      <trkpt lat="43.48539" lon="-0.77439">
        <ele>92.800003051758</ele>
        <time>2025-08-12T10:30:25.000Z</time>
      </trkpt>
      <trkpt lat="43.48543" lon="-0.77436">
        <ele>92.800003051758</ele>
        <time>2025-08-12T10:31:25.000Z</time>
      </trkpt>
      <trkpt lat="43.48544" lon="-0.77435">
        <ele>92.800003051758</ele>
        <time>2025-08-12T10:31:26.000Z</time>
      </trkpt>
      <trkpt lat="43.48559" lon="-0.77425">
        <ele>93</ele>
        <time>2025-08-12T10:31:34.000Z</time>
      </trkpt>
      <trkpt lat="43.48583" lon="-0.77412">
        <ele>93</ele>
        <time>2025-08-12T10:31:43.000Z</time>
      </trkpt>
      <trkpt lat="43.48605" lon="-0.77399">
        <ele>93.199996948242</ele>
        <time>2025-08-12T10:31:51.000Z</time>
      </trkpt>
      <trkpt lat="43.48634" lon="-0.77382">
        <ele>93.199996948242</ele>
        <time>2025-08-12T10:32:02.000Z</time>
      </trkpt>
      <trkpt lat="43.48641" lon="-0.77379">
        <ele>93.199996948242</ele>
        <time>2025-08-12T10:32:05.000Z</time>
      </trkpt>
      <trkpt lat="43.48645" lon="-0.77376">
        <ele>93.199996948242</ele>
        <time>2025-08-12T10:32:07.000Z</time>
      </trkpt>
      <trkpt lat="43.48665" lon="-0.77362">
        <ele>93.400001525879</ele>
        <time>2025-08-12T10:32:16.000Z</time>
      </trkpt>
      <trkpt lat="43.48676" lon="-0.77357">
        <ele>93.800003051758</ele>
        <time>2025-08-12T10:32:21.000Z</time>
      </trkpt>
      <trkpt lat="43.48679" lon="-0.77354">
        <ele>94</ele>
        <time>2025-08-12T10:32:23.000Z</time>
      </trkpt>
      <trkpt lat="43.48681" lon="-0.77354">
        <ele>94</ele>
        <time>2025-08-12T10:32:24.000Z</time>
      </trkpt>
      <trkpt lat="43.48683" lon="-0.77354">
        <ele>94</ele>
        <time>2025-08-12T10:32:25.000Z</time>
      </trkpt>
      <trkpt lat="43.48687" lon="-0.77354">
        <ele>94.199996948242</ele>
        <time>2025-08-12T10:32:28.000Z</time>
      </trkpt>
      <trkpt lat="43.48695" lon="-0.7736">
        <ele>95</ele>
        <time>2025-08-12T10:32:33.000Z</time>
      </trkpt>
      <trkpt lat="43.48697" lon="-0.77362">
        <ele>95</ele>
        <time>2025-08-12T10:32:34.000Z</time>
      </trkpt>
      <trkpt lat="43.487" lon="-0.77368">
        <ele>95.400001525879</ele>
        <time>2025-08-12T10:32:39.000Z</time>
      </trkpt>
      <trkpt lat="43.48704" lon="-0.77368">
        <ele>95.599998474121</ele>
        <time>2025-08-12T10:32:42.000Z</time>
      </trkpt>
      <trkpt lat="43.48708" lon="-0.77366">
        <ele>95.599998474121</ele>
        <time>2025-08-12T10:32:44.000Z</time>
      </trkpt>
      <trkpt lat="43.48721" lon="-0.7736">
        <ele>95.599998474121</ele>
        <time>2025-08-12T10:32:49.000Z</time>
      </trkpt>
      <trkpt lat="43.48741" lon="-0.77348">
        <ele>95.599998474121</ele>
        <time>2025-08-12T10:32:57.000Z</time>
      </trkpt>
      <trkpt lat="43.4875" lon="-0.7734">
        <ele>96</ele>
        <time>2025-08-12T10:33:02.000Z</time>
      </trkpt>
      <trkpt lat="43.48751" lon="-0.77338">
        <ele>96</ele>
        <time>2025-08-12T10:33:03.000Z</time>
      </trkpt>
      <trkpt lat="43.48755" lon="-0.77334">
        <ele>96</ele>
        <time>2025-08-12T10:33:07.000Z</time>
      </trkpt>
      <trkpt lat="43.48756" lon="-0.77331">
        <ele>96</ele>
        <time>2025-08-12T10:33:09.000Z</time>
      </trkpt>
      <trkpt lat="43.48756" lon="-0.77327">
        <ele>95.800003051758</ele>
        <time>2025-08-12T10:33:11.000Z</time>
      </trkpt>
      <trkpt lat="43.48756" lon="-0.77325">
        <ele>95.800003051758</ele>
        <time>2025-08-12T10:33:12.000Z</time>
      </trkpt>
      <trkpt lat="43.48756" lon="-0.77321">
        <ele>95.800003051758</ele>
        <time>2025-08-12T10:33:14.000Z</time>
      </trkpt>
      <trkpt lat="43.48756" lon="-0.7732">
        <ele>95.800003051758</ele>
        <time>2025-08-12T10:33:17.000Z</time>
      </trkpt>
      <trkpt lat="43.48789" lon="-0.77336">
        <ele>103</ele>
        <time>2025-08-12T11:48:40.000Z</time>
      </trkpt>
      <trkpt lat="43.48789" lon="-0.77336">
        <ele>103</ele>
        <time>2025-08-12T11:48:41.000Z</time>
      </trkpt>
      <trkpt lat="43.48787" lon="-0.77334">
        <ele>102.40000152588</ele>
        <time>2025-08-12T11:49:00.000Z</time>
      </trkpt>
      <trkpt lat="43.48785" lon="-0.77333">
        <ele>102.40000152588</ele>
        <time>2025-08-12T11:49:01.000Z</time>
      </trkpt>
      <trkpt lat="43.48783" lon="-0.77337">
        <ele>102.40000152588</ele>
        <time>2025-08-12T11:49:03.000Z</time>
      </trkpt>
      <trkpt lat="43.48785" lon="-0.77337">
        <ele>102.40000152588</ele>
        <time>2025-08-12T11:49:04.000Z</time>
      </trkpt>
      <trkpt lat="43.48782" lon="-0.77339">
        <ele>102.40000152588</ele>
        <time>2025-08-12T11:49:05.000Z</time>
      </trkpt>
      <trkpt lat="43.48782" lon="-0.77339">
        <ele>102.40000152588</ele>
        <time>2025-08-12T11:49:07.000Z</time>
      </trkpt>
      <trkpt lat="43.48776" lon="-0.77341">
        <ele>101.59999847412</ele>
        <time>2025-08-12T11:49:24.000Z</time>
      </trkpt>
      <trkpt lat="43.48772" lon="-0.77337">
        <ele>101.59999847412</ele>
        <time>2025-08-12T11:49:26.000Z</time>
      </trkpt>
      <trkpt lat="43.48757" lon="-0.77319">
        <ele>101.40000152588</ele>
        <time>2025-08-12T11:49:33.000Z</time>
      </trkpt>
      <trkpt lat="43.48752" lon="-0.77312">
        <ele>101.19999694824</ele>
        <time>2025-08-12T11:49:36.000Z</time>
      </trkpt>
      <trkpt lat="43.48747" lon="-0.77313">
        <ele>101.19999694824</ele>
        <time>2025-08-12T11:49:38.000Z</time>
      </trkpt>
      <trkpt lat="43.48728" lon="-0.77325">
        <ele>101</ele>
        <time>2025-08-12T11:49:43.000Z</time>
      </trkpt>
      <trkpt lat="43.48711" lon="-0.77339">
        <ele>101</ele>
        <time>2025-08-12T11:49:48.000Z</time>
      </trkpt>
      <trkpt lat="43.48709" lon="-0.77344">
        <ele>101</ele>
        <time>2025-08-12T11:49:49.000Z</time>
      </trkpt>
      <trkpt lat="43.48697" lon="-0.77353">
        <ele>101</ele>
        <time>2025-08-12T11:49:53.000Z</time>
      </trkpt>
      <trkpt lat="43.48681" lon="-0.77351">
        <ele>100.59999847412</ele>
        <time>2025-08-12T11:49:57.000Z</time>
      </trkpt>
      <trkpt lat="43.48677" lon="-0.77352">
        <ele>100.59999847412</ele>
        <time>2025-08-12T11:49:58.000Z</time>
      </trkpt>
      <trkpt lat="43.48672" lon="-0.77355">
        <ele>100.59999847412</ele>
        <time>2025-08-12T11:49:59.000Z</time>
      </trkpt>
      <trkpt lat="43.4865" lon="-0.77368">
        <ele>100.19999694824</ele>
        <time>2025-08-12T11:50:03.000Z</time>
      </trkpt>
      <trkpt lat="43.48621" lon="-0.77383">
        <ele>99.400001525879</ele>
        <time>2025-08-12T11:50:08.000Z</time>
      </trkpt>
      <trkpt lat="43.48609" lon="-0.7739">
        <ele>99</ele>
        <time>2025-08-12T11:50:10.000Z</time>
      </trkpt>
      <trkpt lat="43.48593" lon="-0.77401">
        <ele>98.599998474121</ele>
        <time>2025-08-12T11:50:13.000Z</time>
      </trkpt>
      <trkpt lat="43.48583" lon="-0.77408">
        <ele>98.400001525879</ele>
        <time>2025-08-12T11:50:15.000Z</time>
      </trkpt>
      <trkpt lat="43.48568" lon="-0.77418">
        <ele>98.400001525879</ele>
        <time>2025-08-12T11:50:18.000Z</time>
      </trkpt>
      <trkpt lat="43.4853" lon="-0.7744">
        <ele>98</ele>
        <time>2025-08-12T11:50:26.000Z</time>
      </trkpt>
      <trkpt lat="43.48493" lon="-0.77462">
        <ele>98</ele>
        <time>2025-08-12T11:50:34.000Z</time>
      </trkpt>
      <trkpt lat="43.48484" lon="-0.77469">
        <ele>97.599998474121</ele>
        <time>2025-08-12T11:50:36.000Z</time>
      </trkpt>
      <trkpt lat="43.48475" lon="-0.77476">
        <ele>97.400001525879</ele>
        <time>2025-08-12T11:50:38.000Z</time>
      </trkpt>
      <trkpt lat="43.48469" lon="-0.77481">
        <ele>97.400001525879</ele>
        <time>2025-08-12T11:50:40.000Z</time>
      </trkpt>
      <trkpt lat="43.48464" lon="-0.77498">
        <ele>97</ele>
        <time>2025-08-12T11:50:44.000Z</time>
      </trkpt>
      <trkpt lat="43.48466" lon="-0.77519">
        <ele>96.599998474121</ele>
        <time>2025-08-12T11:50:48.000Z</time>
      </trkpt>
      <trkpt lat="43.48469" lon="-0.77526">
        <ele>96.199996948242</ele>
        <time>2025-08-12T11:50:50.000Z</time>
      </trkpt>
      <trkpt lat="43.48473" lon="-0.77537">
        <ele>95</ele>
        <time>2025-08-12T11:50:53.000Z</time>
      </trkpt>
      <trkpt lat="43.48475" lon="-0.77541">
        <ele>94.800003051758</ele>
        <time>2025-08-12T11:50:54.000Z</time>
      </trkpt>
      <trkpt lat="43.48479" lon="-0.77557">
        <ele>94.199996948242</ele>
        <time>2025-08-12T11:50:58.000Z</time>
      </trkpt>
      <trkpt lat="43.48478" lon="-0.7756">
        <ele>94</ele>
        <time>2025-08-12T11:50:59.000Z</time>
      </trkpt>
      <trkpt lat="43.48477" lon="-0.77565">
        <ele>94</ele>
        <time>2025-08-12T11:51:01.000Z</time>
      </trkpt>
      <trkpt lat="43.48479" lon="-0.77572">
        <ele>94</ele>
        <time>2025-08-12T11:51:04.000Z</time>
      </trkpt>
      <trkpt lat="43.4848" lon="-0.77575">
        <ele>94</ele>
        <time>2025-08-12T11:51:05.000Z</time>
      </trkpt>
      <trkpt lat="43.48482" lon="-0.77585">
        <ele>94</ele>
        <time>2025-08-12T11:51:08.000Z</time>
      </trkpt>
      <trkpt lat="43.48489" lon="-0.77606">
        <ele>94</ele>
        <time>2025-08-12T11:51:14.000Z</time>
      </trkpt>
      <trkpt lat="43.48496" lon="-0.77629">
        <ele>94.800003051758</ele>
        <time>2025-08-12T11:51:21.000Z</time>
      </trkpt>
      <trkpt lat="43.48497" lon="-0.7764">
        <ele>95.199996948242</ele>
        <time>2025-08-12T11:51:25.000Z</time>
      </trkpt>
      <trkpt lat="43.48496" lon="-0.77642">
        <ele>95.199996948242</ele>
        <time>2025-08-12T11:51:26.000Z</time>
      </trkpt>
      <trkpt lat="43.48496" lon="-0.77644">
        <ele>95.199996948242</ele>
        <time>2025-08-12T11:51:27.000Z</time>
      </trkpt>
      <trkpt lat="43.48495" lon="-0.77653">
        <ele>95.800003051758</ele>
        <time>2025-08-12T11:51:31.000Z</time>
      </trkpt>
      <trkpt lat="43.48496" lon="-0.77654">
        <ele>96</ele>
        <time>2025-08-12T11:51:32.000Z</time>
      </trkpt>
      <trkpt lat="43.48496" lon="-0.77657">
        <ele>96</ele>
        <time>2025-08-12T11:51:34.000Z</time>
      </trkpt>
      <trkpt lat="43.48495" lon="-0.77661">
        <ele>96.400001525879</ele>
        <time>2025-08-12T11:51:37.000Z</time>
      </trkpt>
      <trkpt lat="43.48495" lon="-0.77675">
        <ele>97.199996948242</ele>
        <time>2025-08-12T11:51:42.000Z</time>
      </trkpt>
      <trkpt lat="43.48498" lon="-0.77689">
        <ele>97.400001525879</ele>
        <time>2025-08-12T11:51:46.000Z</time>
      </trkpt>
      <trkpt lat="43.48498" lon="-0.77693">
        <ele>97.599998474121</ele>
        <time>2025-08-12T11:51:47.000Z</time>
      </trkpt>
      <trkpt lat="43.48503" lon="-0.77723">
        <ele>97.800003051758</ele>
        <time>2025-08-12T11:51:54.000Z</time>
      </trkpt>
      <trkpt lat="43.48505" lon="-0.77734">
        <ele>98</ele>
        <time>2025-08-12T11:51:56.000Z</time>
      </trkpt>
      <trkpt lat="43.48508" lon="-0.77745">
        <ele>98</ele>
        <time>2025-08-12T11:51:58.000Z</time>
      </trkpt>
      <trkpt lat="43.48511" lon="-0.77751">
        <ele>98</ele>
        <time>2025-08-12T11:51:59.000Z</time>
      </trkpt>
      <trkpt lat="43.48515" lon="-0.77763">
        <ele>97.800003051758</ele>
        <time>2025-08-12T11:52:01.000Z</time>
      </trkpt>
      <trkpt lat="43.48523" lon="-0.7779">
        <ele>97.599998474121</ele>
        <time>2025-08-12T11:52:06.000Z</time>
      </trkpt>
      <trkpt lat="43.48543" lon="-0.77859">
        <ele>97.599998474121</ele>
        <time>2025-08-12T11:52:18.000Z</time>
      </trkpt>
      <trkpt lat="43.48552" lon="-0.77881">
        <ele>97.599998474121</ele>
        <time>2025-08-12T11:52:22.000Z</time>
      </trkpt>
      <trkpt lat="43.48556" lon="-0.77893">
        <ele>97.400001525879</ele>
        <time>2025-08-12T11:52:24.000Z</time>
      </trkpt>
      <trkpt lat="43.48559" lon="-0.77904">
        <ele>97.400001525879</ele>
        <time>2025-08-12T11:52:26.000Z</time>
      </trkpt>
      <trkpt lat="43.48564" lon="-0.77926">
        <ele>97.400001525879</ele>
        <time>2025-08-12T11:52:30.000Z</time>
      </trkpt>
      <trkpt lat="43.48565" lon="-0.77937">
        <ele>97.199996948242</ele>
        <time>2025-08-12T11:52:32.000Z</time>
      </trkpt>
      <trkpt lat="43.48562" lon="-0.77949">
        <ele>97.199996948242</ele>
        <time>2025-08-12T11:52:34.000Z</time>
      </trkpt>
      <trkpt lat="43.4856" lon="-0.77954">
        <ele>97.199996948242</ele>
        <time>2025-08-12T11:52:35.000Z</time>
      </trkpt>
      <trkpt lat="43.48542" lon="-0.78003">
        <ele>96.800003051758</ele>
        <time>2025-08-12T11:52:44.000Z</time>
      </trkpt>
      <trkpt lat="43.48536" lon="-0.78029">
        <ele>96.599998474121</ele>
        <time>2025-08-12T11:52:49.000Z</time>
      </trkpt>
      <trkpt lat="43.48534" lon="-0.7804">
        <ele>96.800003051758</ele>
        <time>2025-08-12T11:52:51.000Z</time>
      </trkpt>
      <trkpt lat="43.4853" lon="-0.7807">
        <ele>97</ele>
        <time>2025-08-12T11:52:57.000Z</time>
      </trkpt>
      <trkpt lat="43.48529" lon="-0.78088">
        <ele>97.199996948242</ele>
        <time>2025-08-12T11:53:01.000Z</time>
      </trkpt>
      <trkpt lat="43.48529" lon="-0.78113">
        <ele>97.800003051758</ele>
        <time>2025-08-12T11:53:07.000Z</time>
      </trkpt>
      <trkpt lat="43.48529" lon="-0.7812">
        <ele>98</ele>
        <time>2025-08-12T11:53:09.000Z</time>
      </trkpt>
      <trkpt lat="43.4853" lon="-0.78133">
        <ele>98.400001525879</ele>
        <time>2025-08-12T11:53:12.000Z</time>
      </trkpt>
      <trkpt lat="43.4853" lon="-0.78137">
        <ele>98.599998474121</ele>
        <time>2025-08-12T11:53:13.000Z</time>
      </trkpt>
      <trkpt lat="43.48529" lon="-0.78164">
        <ele>99.199996948242</ele>
        <time>2025-08-12T11:53:20.000Z</time>
      </trkpt>
      <trkpt lat="43.48526" lon="-0.78175">
        <ele>99.599998474121</ele>
        <time>2025-08-12T11:53:23.000Z</time>
      </trkpt>
      <trkpt lat="43.48521" lon="-0.78197">
        <ele>100</ele>
        <time>2025-08-12T11:53:29.000Z</time>
      </trkpt>
      <trkpt lat="43.48519" lon="-0.78219">
        <ele>100.80000305176</ele>
        <time>2025-08-12T11:53:35.000Z</time>
      </trkpt>
      <trkpt lat="43.48519" lon="-0.78242">
        <ele>101.40000152588</ele>
        <time>2025-08-12T11:53:42.000Z</time>
      </trkpt>
      <trkpt lat="43.48519" lon="-0.78262">
        <ele>101.80000305176</ele>
        <time>2025-08-12T11:53:47.000Z</time>
      </trkpt>
      <trkpt lat="43.48519" lon="-0.78269">
        <ele>102.19999694824</ele>
        <time>2025-08-12T11:53:49.000Z</time>
      </trkpt>
      <trkpt lat="43.48519" lon="-0.78272">
        <ele>102.40000152588</ele>
        <time>2025-08-12T11:53:50.000Z</time>
      </trkpt>
      <trkpt lat="43.48521" lon="-0.7829">
        <ele>102.80000305176</ele>
        <time>2025-08-12T11:53:55.000Z</time>
      </trkpt>
      <trkpt lat="43.48519" lon="-0.78298">
        <ele>103</ele>
        <time>2025-08-12T11:53:57.000Z</time>
      </trkpt>
      <trkpt lat="43.48518" lon="-0.78313">
        <ele>103.19999694824</ele>
        <time>2025-08-12T11:54:01.000Z</time>
      </trkpt>
      <trkpt lat="43.48517" lon="-0.78344">
        <ele>103.80000305176</ele>
        <time>2025-08-12T11:54:09.000Z</time>
      </trkpt>
      <trkpt lat="43.48515" lon="-0.78351">
        <ele>104</ele>
        <time>2025-08-12T11:54:11.000Z</time>
      </trkpt>
      <trkpt lat="43.48514" lon="-0.78369">
        <ele>104.40000152588</ele>
        <time>2025-08-12T11:54:16.000Z</time>
      </trkpt>
      <trkpt lat="43.48511" lon="-0.78391">
        <ele>104.59999847412</ele>
        <time>2025-08-12T11:54:22.000Z</time>
      </trkpt>
      <trkpt lat="43.4851" lon="-0.78402">
        <ele>105</ele>
        <time>2025-08-12T11:54:25.000Z</time>
      </trkpt>
      <trkpt lat="43.4851" lon="-0.78422">
        <ele>105.40000152588</ele>
        <time>2025-08-12T11:54:30.000Z</time>
      </trkpt>
      <trkpt lat="43.48509" lon="-0.78434">
        <ele>105.59999847412</ele>
        <time>2025-08-12T11:54:33.000Z</time>
      </trkpt>
      <trkpt lat="43.48508" lon="-0.78469">
        <ele>105.80000305176</ele>
        <time>2025-08-12T11:54:43.000Z</time>
      </trkpt>
      <trkpt lat="43.48508" lon="-0.78473">
        <ele>106</ele>
        <time>2025-08-12T11:54:44.000Z</time>
      </trkpt>
      <trkpt lat="43.48508" lon="-0.78507">
        <ele>106.80000305176</ele>
        <time>2025-08-12T11:54:53.000Z</time>
      </trkpt>
      <trkpt lat="43.48509" lon="-0.78519">
        <ele>107</ele>
        <time>2025-08-12T11:54:56.000Z</time>
      </trkpt>
      <trkpt lat="43.48509" lon="-0.78535">
        <ele>107.40000152588</ele>
        <time>2025-08-12T11:55:00.000Z</time>
      </trkpt>
      <trkpt lat="43.4851" lon="-0.78555">
        <ele>107.59999847412</ele>
        <time>2025-08-12T11:55:05.000Z</time>
      </trkpt>
      <trkpt lat="43.4851" lon="-0.7856">
        <ele>107.59999847412</ele>
        <time>2025-08-12T11:55:06.000Z</time>
      </trkpt>
      <trkpt lat="43.48509" lon="-0.78596">
        <ele>108.19999694824</ele>
        <time>2025-08-12T11:55:15.000Z</time>
      </trkpt>
      <trkpt lat="43.48508" lon="-0.78599">
        <ele>108.19999694824</ele>
        <time>2025-08-12T11:55:16.000Z</time>
      </trkpt>
      <trkpt lat="43.48507" lon="-0.78637">
        <ele>109</ele>
        <time>2025-08-12T11:55:27.000Z</time>
      </trkpt>
      <trkpt lat="43.48506" lon="-0.78644">
        <ele>109.19999694824</ele>
        <time>2025-08-12T11:55:29.000Z</time>
      </trkpt>
      <trkpt lat="43.48506" lon="-0.78663">
        <ele>110.19999694824</ele>
        <time>2025-08-12T11:55:35.000Z</time>
      </trkpt>
      <trkpt lat="43.48506" lon="-0.78669">
        <ele>110.40000152588</ele>
        <time>2025-08-12T11:55:37.000Z</time>
      </trkpt>
      <trkpt lat="43.48504" lon="-0.78695">
        <ele>111.40000152588</ele>
        <time>2025-08-12T11:55:45.000Z</time>
      </trkpt>
      <trkpt lat="43.48504" lon="-0.78698">
        <ele>111.40000152588</ele>
        <time>2025-08-12T11:55:46.000Z</time>
      </trkpt>
      <trkpt lat="43.48504" lon="-0.78702">
        <ele>111.59999847412</ele>
        <time>2025-08-12T11:55:47.000Z</time>
      </trkpt>
      <trkpt lat="43.48504" lon="-0.78729">
        <ele>112.19999694824</ele>
        <time>2025-08-12T11:55:55.000Z</time>
      </trkpt>
      <trkpt lat="43.48504" lon="-0.78746">
        <ele>112.40000152588</ele>
        <time>2025-08-12T11:56:00.000Z</time>
      </trkpt>
      <trkpt lat="43.48506" lon="-0.78757">
        <ele>112.59999847412</ele>
        <time>2025-08-12T11:56:04.000Z</time>
      </trkpt>
      <trkpt lat="43.48509" lon="-0.78773">
        <ele>113</ele>
        <time>2025-08-12T11:56:10.000Z</time>
      </trkpt>
      <trkpt lat="43.48511" lon="-0.78798">
        <ele>113.40000152588</ele>
        <time>2025-08-12T11:56:17.000Z</time>
      </trkpt>
      <trkpt lat="43.48512" lon="-0.78823">
        <ele>114</ele>
        <time>2025-08-12T11:56:24.000Z</time>
      </trkpt>
      <trkpt lat="43.48511" lon="-0.78851">
        <ele>114.19999694824</ele>
        <time>2025-08-12T11:56:31.000Z</time>
      </trkpt>
      <trkpt lat="43.48503" lon="-0.7889">
        <ele>114.19999694824</ele>
        <time>2025-08-12T11:56:39.000Z</time>
      </trkpt>
      <trkpt lat="43.48492" lon="-0.7893">
        <ele>114</ele>
        <time>2025-08-12T11:56:46.000Z</time>
      </trkpt>
      <trkpt lat="43.48472" lon="-0.78981">
        <ele>113.80000305176</ele>
        <time>2025-08-12T11:56:54.000Z</time>
      </trkpt>
      <trkpt lat="43.48457" lon="-0.7902">
        <ele>113.80000305176</ele>
        <time>2025-08-12T11:57:01.000Z</time>
      </trkpt>
      <trkpt lat="43.48445" lon="-0.79047">
        <ele>114.19999694824</ele>
        <time>2025-08-12T11:57:07.000Z</time>
      </trkpt>
      <trkpt lat="43.48436" lon="-0.79068">
        <ele>114.80000305176</ele>
        <time>2025-08-12T11:57:12.000Z</time>
      </trkpt>
      <trkpt lat="43.48433" lon="-0.79076">
        <ele>115</ele>
        <time>2025-08-12T11:57:14.000Z</time>
      </trkpt>
      <trkpt lat="43.48425" lon="-0.79103">
        <ele>115.80000305176</ele>
        <time>2025-08-12T11:57:20.000Z</time>
      </trkpt>
      <trkpt lat="43.48421" lon="-0.79117">
        <ele>116</ele>
        <time>2025-08-12T11:57:23.000Z</time>
      </trkpt>
      <trkpt lat="43.4841" lon="-0.79156">
        <ele>116</ele>
        <time>2025-08-12T11:57:30.000Z</time>
      </trkpt>
      <trkpt lat="43.48403" lon="-0.79178">
        <ele>115.80000305176</ele>
        <time>2025-08-12T11:57:34.000Z</time>
      </trkpt>
      <trkpt lat="43.484" lon="-0.79196">
        <ele>115.80000305176</ele>
        <time>2025-08-12T11:57:37.000Z</time>
      </trkpt>
      <trkpt lat="43.48398" lon="-0.79205">
        <ele>115.80000305176</ele>
        <time>2025-08-12T11:57:39.000Z</time>
      </trkpt>
      <trkpt lat="43.48395" lon="-0.7922">
        <ele>115.80000305176</ele>
        <time>2025-08-12T11:57:42.000Z</time>
      </trkpt>
      <trkpt lat="43.48394" lon="-0.79232">
        <ele>115.80000305176</ele>
        <time>2025-08-12T11:57:44.000Z</time>
      </trkpt>
      <trkpt lat="43.4839" lon="-0.79268">
        <ele>116.40000152588</ele>
        <time>2025-08-12T11:57:52.000Z</time>
      </trkpt>
      <trkpt lat="43.48389" lon="-0.79287">
        <ele>116.80000305176</ele>
        <time>2025-08-12T11:57:56.000Z</time>
      </trkpt>
      <trkpt lat="43.48387" lon="-0.79308">
        <ele>117.40000152588</ele>
        <time>2025-08-12T11:58:01.000Z</time>
      </trkpt>
      <trkpt lat="43.48387" lon="-0.79341">
        <ele>118</ele>
        <time>2025-08-12T11:58:09.000Z</time>
      </trkpt>
      <trkpt lat="43.48387" lon="-0.79344">
        <ele>118.19999694824</ele>
        <time>2025-08-12T11:58:10.000Z</time>
      </trkpt>
      <trkpt lat="43.48385" lon="-0.79364">
        <ele>119</ele>
        <time>2025-08-12T11:58:17.000Z</time>
      </trkpt>
      <trkpt lat="43.48384" lon="-0.79378">
        <ele>120</ele>
        <time>2025-08-12T11:58:22.000Z</time>
      </trkpt>
      <trkpt lat="43.48381" lon="-0.79392">
        <ele>121</ele>
        <time>2025-08-12T11:58:27.000Z</time>
      </trkpt>
      <trkpt lat="43.4838" lon="-0.79398">
        <ele>121.19999694824</ele>
        <time>2025-08-12T11:58:29.000Z</time>
      </trkpt>
      <trkpt lat="43.48374" lon="-0.79415">
        <ele>122.19999694824</ele>
        <time>2025-08-12T11:58:35.000Z</time>
      </trkpt>
      <trkpt lat="43.48367" lon="-0.79434">
        <ele>123.59999847412</ele>
        <time>2025-08-12T11:58:42.000Z</time>
      </trkpt>
      <trkpt lat="43.48364" lon="-0.79442">
        <ele>124</ele>
        <time>2025-08-12T11:58:45.000Z</time>
      </trkpt>
      <trkpt lat="43.48357" lon="-0.79459">
        <ele>124.40000152588</ele>
        <time>2025-08-12T11:58:50.000Z</time>
      </trkpt>
      <trkpt lat="43.48353" lon="-0.79466">
        <ele>124.40000152588</ele>
        <time>2025-08-12T11:58:52.000Z</time>
      </trkpt>
      <trkpt lat="43.48344" lon="-0.79497">
        <ele>124.40000152588</ele>
        <time>2025-08-12T11:58:59.000Z</time>
      </trkpt>
      <trkpt lat="43.48344" lon="-0.79501">
        <ele>124.80000305176</ele>
        <time>2025-08-12T11:59:00.000Z</time>
      </trkpt>
      <trkpt lat="43.48341" lon="-0.79533">
        <ele>125.19999694824</ele>
        <time>2025-08-12T11:59:07.000Z</time>
      </trkpt>
      <trkpt lat="43.48341" lon="-0.79568">
        <ele>125.19999694824</ele>
        <time>2025-08-12T11:59:14.000Z</time>
      </trkpt>
      <trkpt lat="43.48345" lon="-0.79586">
        <ele>125.40000152588</ele>
        <time>2025-08-12T11:59:18.000Z</time>
      </trkpt>
      <trkpt lat="43.48354" lon="-0.79619">
        <ele>125.80000305176</ele>
        <time>2025-08-12T11:59:25.000Z</time>
      </trkpt>
      <trkpt lat="43.48355" lon="-0.79622">
        <ele>125.80000305176</ele>
        <time>2025-08-12T11:59:26.000Z</time>
      </trkpt>
      <trkpt lat="43.48363" lon="-0.7965">
        <ele>126.40000152588</ele>
        <time>2025-08-12T11:59:33.000Z</time>
      </trkpt>
      <trkpt lat="43.48366" lon="-0.79665">
        <ele>126.80000305176</ele>
        <time>2025-08-12T11:59:37.000Z</time>
      </trkpt>
      <trkpt lat="43.4837" lon="-0.79681">
        <ele>127</ele>
        <time>2025-08-12T11:59:41.000Z</time>
      </trkpt>
      <trkpt lat="43.48372" lon="-0.79694">
        <ele>128</ele>
        <time>2025-08-12T11:59:44.000Z</time>
      </trkpt>
      <trkpt lat="43.48375" lon="-0.7971">
        <ele>128.39999389648</ele>
        <time>2025-08-12T11:59:47.000Z</time>
      </trkpt>
      <trkpt lat="43.48377" lon="-0.79755">
        <ele>128.19999694824</ele>
        <time>2025-08-12T11:59:53.000Z</time>
      </trkpt>
      <trkpt lat="43.48372" lon="-0.79808">
        <ele>127</ele>
        <time>2025-08-12T11:59:59.000Z</time>
      </trkpt>
      <trkpt lat="43.48371" lon="-0.79817">
        <ele>126.80000305176</ele>
        <time>2025-08-12T12:00:00.000Z</time>
      </trkpt>
      <trkpt lat="43.48361" lon="-0.7987">
        <ele>126.40000152588</ele>
        <time>2025-08-12T12:00:07.000Z</time>
      </trkpt>
      <trkpt lat="43.48359" lon="-0.79885">
        <ele>126.19999694824</ele>
        <time>2025-08-12T12:00:09.000Z</time>
      </trkpt>
      <trkpt lat="43.48354" lon="-0.79908">
        <ele>126</ele>
        <time>2025-08-12T12:00:12.000Z</time>
      </trkpt>
      <trkpt lat="43.48351" lon="-0.79915">
        <ele>125.80000305176</ele>
        <time>2025-08-12T12:00:13.000Z</time>
      </trkpt>
      <trkpt lat="43.48348" lon="-0.79923">
        <ele>125.80000305176</ele>
        <time>2025-08-12T12:00:14.000Z</time>
      </trkpt>
      <trkpt lat="43.48339" lon="-0.79937">
        <ele>125.59999847412</ele>
        <time>2025-08-12T12:00:16.000Z</time>
      </trkpt>
      <trkpt lat="43.48333" lon="-0.79946">
        <ele>125.19999694824</ele>
        <time>2025-08-12T12:00:17.000Z</time>
      </trkpt>
      <trkpt lat="43.48322" lon="-0.79958">
        <ele>124.59999847412</ele>
        <time>2025-08-12T12:00:19.000Z</time>
      </trkpt>
      <trkpt lat="43.48302" lon="-0.79981">
        <ele>123.80000305176</ele>
        <time>2025-08-12T12:00:22.000Z</time>
      </trkpt>
      <trkpt lat="43.48286" lon="-0.79997">
        <ele>123.19999694824</ele>
        <time>2025-08-12T12:00:24.000Z</time>
      </trkpt>
      <trkpt lat="43.4827" lon="-0.80015">
        <ele>122.19999694824</ele>
        <time>2025-08-12T12:00:26.000Z</time>
      </trkpt>
      <trkpt lat="43.48253" lon="-0.80033">
        <ele>121.59999847412</ele>
        <time>2025-08-12T12:00:28.000Z</time>
      </trkpt>
      <trkpt lat="43.48245" lon="-0.80042">
        <ele>121.19999694824</ele>
        <time>2025-08-12T12:00:29.000Z</time>
      </trkpt>
      <trkpt lat="43.48228" lon="-0.8006">
        <ele>120</ele>
        <time>2025-08-12T12:00:31.000Z</time>
      </trkpt>
      <trkpt lat="43.48205" lon="-0.80085">
        <ele>118.19999694824</ele>
        <time>2025-08-12T12:00:34.000Z</time>
      </trkpt>
      <trkpt lat="43.48191" lon="-0.80103">
        <ele>116.59999847412</ele>
        <time>2025-08-12T12:00:36.000Z</time>
      </trkpt>
      <trkpt lat="43.48171" lon="-0.80128">
        <ele>115.19999694824</ele>
        <time>2025-08-12T12:00:39.000Z</time>
      </trkpt>
      <trkpt lat="43.48146" lon="-0.80165">
        <ele>114.19999694824</ele>
        <time>2025-08-12T12:00:44.000Z</time>
      </trkpt>
      <trkpt lat="43.48142" lon="-0.80171">
        <ele>114.19999694824</ele>
        <time>2025-08-12T12:00:45.000Z</time>
      </trkpt>
      <trkpt lat="43.48127" lon="-0.802">
        <ele>114.19999694824</ele>
        <time>2025-08-12T12:00:49.000Z</time>
      </trkpt>
      <trkpt lat="43.48107" lon="-0.80239">
        <ele>114</ele>
        <time>2025-08-12T12:00:54.000Z</time>
      </trkpt>
      <trkpt lat="43.48103" lon="-0.80246">
        <ele>113.80000305176</ele>
        <time>2025-08-12T12:00:55.000Z</time>
      </trkpt>
      <trkpt lat="43.48074" lon="-0.80282">
        <ele>113.40000152588</ele>
        <time>2025-08-12T12:01:01.000Z</time>
      </trkpt>
      <trkpt lat="43.48059" lon="-0.80299">
        <ele>113.19999694824</ele>
        <time>2025-08-12T12:01:04.000Z</time>
      </trkpt>
      <trkpt lat="43.48035" lon="-0.80324">
        <ele>113</ele>
        <time>2025-08-12T12:01:09.000Z</time>
      </trkpt>
      <trkpt lat="43.47983" lon="-0.80363">
        <ele>112.40000152588</ele>
        <time>2025-08-12T12:01:18.000Z</time>
      </trkpt>
      <trkpt lat="43.47976" lon="-0.80368">
        <ele>112.19999694824</ele>
        <time>2025-08-12T12:01:19.000Z</time>
      </trkpt>
      <trkpt lat="43.47937" lon="-0.80397">
        <ele>110.80000305176</ele>
        <time>2025-08-12T12:01:25.000Z</time>
      </trkpt>
      <trkpt lat="43.47909" lon="-0.80413">
        <ele>109.80000305176</ele>
        <time>2025-08-12T12:01:29.000Z</time>
      </trkpt>
      <trkpt lat="43.47893" lon="-0.80422">
        <ele>109.19999694824</ele>
        <time>2025-08-12T12:01:31.000Z</time>
      </trkpt>
      <trkpt lat="43.47885" lon="-0.80427">
        <ele>108.59999847412</ele>
        <time>2025-08-12T12:01:32.000Z</time>
      </trkpt>
      <trkpt lat="43.4786" lon="-0.80439">
        <ele>107.59999847412</ele>
        <time>2025-08-12T12:01:35.000Z</time>
      </trkpt>
      <trkpt lat="43.47836" lon="-0.8045">
        <ele>106.40000152588</ele>
        <time>2025-08-12T12:01:38.000Z</time>
      </trkpt>
      <trkpt lat="43.4782" lon="-0.80458">
        <ele>105</ele>
        <time>2025-08-12T12:01:40.000Z</time>
      </trkpt>
      <trkpt lat="43.47793" lon="-0.80472">
        <ele>104</ele>
        <time>2025-08-12T12:01:44.000Z</time>
      </trkpt>
      <trkpt lat="43.47771" lon="-0.80489">
        <ele>103.40000152588</ele>
        <time>2025-08-12T12:01:48.000Z</time>
      </trkpt>
      <trkpt lat="43.47767" lon="-0.80494">
        <ele>103</ele>
        <time>2025-08-12T12:01:49.000Z</time>
      </trkpt>
      <trkpt lat="43.47765" lon="-0.80498">
        <ele>103</ele>
        <time>2025-08-12T12:01:50.000Z</time>
      </trkpt>
      <trkpt lat="43.47762" lon="-0.80503">
        <ele>103</ele>
        <time>2025-08-12T12:01:51.000Z</time>
      </trkpt>
      <trkpt lat="43.47755" lon="-0.80522">
        <ele>102.80000305176</ele>
        <time>2025-08-12T12:01:54.000Z</time>
      </trkpt>
      <trkpt lat="43.47749" lon="-0.80536">
        <ele>102.59999847412</ele>
        <time>2025-08-12T12:01:56.000Z</time>
      </trkpt>
      <trkpt lat="43.47741" lon="-0.80556">
        <ele>102</ele>
        <time>2025-08-12T12:01:59.000Z</time>
      </trkpt>
      <trkpt lat="43.47738" lon="-0.80562">
        <ele>101.80000305176</ele>
        <time>2025-08-12T12:02:00.000Z</time>
      </trkpt>
      <trkpt lat="43.4773" lon="-0.80571">
        <ele>101.40000152588</ele>
        <time>2025-08-12T12:02:02.000Z</time>
      </trkpt>
      <trkpt lat="43.47725" lon="-0.80574">
        <ele>100.40000152588</ele>
        <time>2025-08-12T12:02:03.000Z</time>
      </trkpt>
      <trkpt lat="43.47707" lon="-0.80586">
        <ele>99</ele>
        <time>2025-08-12T12:02:06.000Z</time>
      </trkpt>
      <trkpt lat="43.47701" lon="-0.80591">
        <ele>98.800003051758</ele>
        <time>2025-08-12T12:02:07.000Z</time>
      </trkpt>
      <trkpt lat="43.47684" lon="-0.806">
        <ele>97.599998474121</ele>
        <time>2025-08-12T12:02:10.000Z</time>
      </trkpt>
      <trkpt lat="43.47677" lon="-0.80602">
        <ele>96.800003051758</ele>
        <time>2025-08-12T12:02:11.000Z</time>
      </trkpt>
      <trkpt lat="43.47672" lon="-0.80603">
        <ele>96.599998474121</ele>
        <time>2025-08-12T12:02:12.000Z</time>
      </trkpt>
      <trkpt lat="43.47665" lon="-0.80604">
        <ele>96.400001525879</ele>
        <time>2025-08-12T12:02:13.000Z</time>
      </trkpt>
      <trkpt lat="43.47652" lon="-0.80606">
        <ele>95.400001525879</ele>
        <time>2025-08-12T12:02:15.000Z</time>
      </trkpt>
      <trkpt lat="43.47645" lon="-0.80607">
        <ele>95.199996948242</ele>
        <time>2025-08-12T12:02:16.000Z</time>
      </trkpt>
      <trkpt lat="43.47641" lon="-0.80607">
        <ele>94.599998474121</ele>
        <time>2025-08-12T12:02:17.000Z</time>
      </trkpt>
      <trkpt lat="43.47636" lon="-0.80609">
        <ele>94</ele>
        <time>2025-08-12T12:02:18.000Z</time>
      </trkpt>
      <trkpt lat="43.47618" lon="-0.80616">
        <ele>93</ele>
        <time>2025-08-12T12:02:22.000Z</time>
      </trkpt>
      <trkpt lat="43.47614" lon="-0.80618">
        <ele>93</ele>
        <time>2025-08-12T12:02:23.000Z</time>
      </trkpt>
      <trkpt lat="43.47609" lon="-0.80621">
        <ele>93</ele>
        <time>2025-08-12T12:02:24.000Z</time>
      </trkpt>
      <trkpt lat="43.47605" lon="-0.80625">
        <ele>92.800003051758</ele>
        <time>2025-08-12T12:02:25.000Z</time>
      </trkpt>
      <trkpt lat="43.47597" lon="-0.80632">
        <ele>93</ele>
        <time>2025-08-12T12:02:27.000Z</time>
      </trkpt>
      <trkpt lat="43.47587" lon="-0.80643">
        <ele>93</ele>
        <time>2025-08-12T12:02:31.000Z</time>
      </trkpt>
      <trkpt lat="43.47579" lon="-0.8065">
        <ele>93.199996948242</ele>
        <time>2025-08-12T12:02:35.000Z</time>
      </trkpt>
      <trkpt lat="43.47569" lon="-0.80658">
        <ele>93.800003051758</ele>
        <time>2025-08-12T12:02:40.000Z</time>
      </trkpt>
      <trkpt lat="43.47562" lon="-0.80663">
        <ele>94.199996948242</ele>
        <time>2025-08-12T12:02:43.000Z</time>
      </trkpt>
      <trkpt lat="43.47555" lon="-0.80668">
        <ele>94.400001525879</ele>
        <time>2025-08-12T12:02:46.000Z</time>
      </trkpt>
      <trkpt lat="43.47551" lon="-0.80683">
        <ele>94.599998474121</ele>
        <time>2025-08-12T12:02:51.000Z</time>
      </trkpt>
      <trkpt lat="43.47561" lon="-0.807">
        <ele>94.599998474121</ele>
        <time>2025-08-12T12:02:55.000Z</time>
      </trkpt>
      <trkpt lat="43.47582" lon="-0.80732">
        <ele>94.400001525879</ele>
        <time>2025-08-12T12:03:00.000Z</time>
      </trkpt>
      <trkpt lat="43.47586" lon="-0.80742">
        <ele>94.400001525879</ele>
        <time>2025-08-12T12:03:01.000Z</time>
      </trkpt>
      <trkpt lat="43.47593" lon="-0.80758">
        <ele>93.599998474121</ele>
        <time>2025-08-12T12:03:03.000Z</time>
      </trkpt>
      <trkpt lat="43.47597" lon="-0.8077">
        <ele>93.599998474121</ele>
        <time>2025-08-12T12:03:04.000Z</time>
      </trkpt>
      <trkpt lat="43.476" lon="-0.80789">
        <ele>93.199996948242</ele>
        <time>2025-08-12T12:03:06.000Z</time>
      </trkpt>
      <trkpt lat="43.476" lon="-0.8081">
        <ele>92.599998474121</ele>
        <time>2025-08-12T12:03:08.000Z</time>
      </trkpt>
      <trkpt lat="43.47599" lon="-0.80829">
        <ele>92</ele>
        <time>2025-08-12T12:03:10.000Z</time>
      </trkpt>
      <trkpt lat="43.47594" lon="-0.80895">
        <ele>91.400001525879</ele>
        <time>2025-08-12T12:03:17.000Z</time>
      </trkpt>
      <trkpt lat="43.47588" lon="-0.8094">
        <ele>91.199996948242</ele>
        <time>2025-08-12T12:03:23.000Z</time>
      </trkpt>
      <trkpt lat="43.47582" lon="-0.8098">
        <ele>91.400001525879</ele>
        <time>2025-08-12T12:03:29.000Z</time>
      </trkpt>
      <trkpt lat="43.47582" lon="-0.80987">
        <ele>91.400001525879</ele>
        <time>2025-08-12T12:03:30.000Z</time>
      </trkpt>
      <trkpt lat="43.47574" lon="-0.81037">
        <ele>92</ele>
        <time>2025-08-12T12:03:39.000Z</time>
      </trkpt>
      <trkpt lat="43.47573" lon="-0.81072">
        <ele>92.199996948242</ele>
        <time>2025-08-12T12:03:46.000Z</time>
      </trkpt>
      <trkpt lat="43.47577" lon="-0.81094">
        <ele>92.400001525879</ele>
        <time>2025-08-12T12:03:51.000Z</time>
      </trkpt>
      <trkpt lat="43.47591" lon="-0.81119">
        <ele>92.400001525879</ele>
        <time>2025-08-12T12:03:57.000Z</time>
      </trkpt>
      <trkpt lat="43.47612" lon="-0.81147">
        <ele>92.400001525879</ele>
        <time>2025-08-12T12:04:05.000Z</time>
      </trkpt>
      <trkpt lat="43.47628" lon="-0.81168">
        <ele>92.599998474121</ele>
        <time>2025-08-12T12:04:12.000Z</time>
      </trkpt>
      <trkpt lat="43.47651" lon="-0.81199">
        <ele>93</ele>
        <time>2025-08-12T12:04:20.000Z</time>
      </trkpt>
      <trkpt lat="43.47677" lon="-0.81234">
        <ele>93</ele>
        <time>2025-08-12T12:04:29.000Z</time>
      </trkpt>
      <trkpt lat="43.47709" lon="-0.81268">
        <ele>93</ele>
        <time>2025-08-12T12:04:38.000Z</time>
      </trkpt>
      <trkpt lat="43.47738" lon="-0.8129">
        <ele>92.599998474121</ele>
        <time>2025-08-12T12:04:46.000Z</time>
      </trkpt>
      <trkpt lat="43.47745" lon="-0.81295">
        <ele>92.599998474121</ele>
        <time>2025-08-12T12:04:48.000Z</time>
      </trkpt>
      <trkpt lat="43.47759" lon="-0.81307">
        <ele>92.400001525879</ele>
        <time>2025-08-12T12:04:52.000Z</time>
      </trkpt>
      <trkpt lat="43.47782" lon="-0.81325">
        <ele>92.199996948242</ele>
        <time>2025-08-12T12:04:59.000Z</time>
      </trkpt>
      <trkpt lat="43.47803" lon="-0.81358">
        <ele>92</ele>
        <time>2025-08-12T12:05:07.000Z</time>
      </trkpt>
      <trkpt lat="43.47806" lon="-0.81362">
        <ele>92</ele>
        <time>2025-08-12T12:05:08.000Z</time>
      </trkpt>
      <trkpt lat="43.47811" lon="-0.8137">
        <ele>92</ele>
        <time>2025-08-12T12:05:10.000Z</time>
      </trkpt>
      <trkpt lat="43.47817" lon="-0.81385">
        <ele>91.800003051758</ele>
        <time>2025-08-12T12:05:14.000Z</time>
      </trkpt>
      <trkpt lat="43.47811" lon="-0.81396">
        <ele>91.599998474121</ele>
        <time>2025-08-12T12:05:19.000Z</time>
      </trkpt>
      <trkpt lat="43.47804" lon="-0.814">
        <ele>91.400001525879</ele>
        <time>2025-08-12T12:05:22.000Z</time>
      </trkpt>
      <trkpt lat="43.47803" lon="-0.81402">
        <ele>91.400001525879</ele>
        <time>2025-08-12T12:05:23.000Z</time>
      </trkpt>
      <trkpt lat="43.47802" lon="-0.81406">
        <ele>91.199996948242</ele>
        <time>2025-08-12T12:05:25.000Z</time>
      </trkpt>
      <trkpt lat="43.47803" lon="-0.81411">
        <ele>91.199996948242</ele>
        <time>2025-08-12T12:05:29.000Z</time>
      </trkpt>
      <trkpt lat="43.47805" lon="-0.81411">
        <ele>91.199996948242</ele>
        <time>2025-08-12T12:05:34.000Z</time>
      </trkpt>
      <trkpt lat="43.47807" lon="-0.81401">
        <ele>91.599998474121</ele>
        <time>2025-08-12T12:12:48.000Z</time>
      </trkpt>
      <trkpt lat="43.47808" lon="-0.81396">
        <ele>91.599998474121</ele>
        <time>2025-08-12T12:12:50.000Z</time>
      </trkpt>
      <trkpt lat="43.47813" lon="-0.81392">
        <ele>91.599998474121</ele>
        <time>2025-08-12T12:12:52.000Z</time>
      </trkpt>
      <trkpt lat="43.47819" lon="-0.81393">
        <ele>91.800003051758</ele>
        <time>2025-08-12T12:12:55.000Z</time>
      </trkpt>
      <trkpt lat="43.47833" lon="-0.81406">
        <ele>92.400001525879</ele>
        <time>2025-08-12T12:13:01.000Z</time>
      </trkpt>
      <trkpt lat="43.47846" lon="-0.81423">
        <ele>92.800003051758</ele>
        <time>2025-08-12T12:13:07.000Z</time>
      </trkpt>
      <trkpt lat="43.47849" lon="-0.81431">
        <ele>92.800003051758</ele>
        <time>2025-08-12T12:13:09.000Z</time>
      </trkpt>
      <trkpt lat="43.47864" lon="-0.81453">
        <ele>93</ele>
        <time>2025-08-12T12:13:15.000Z</time>
      </trkpt>
      <trkpt lat="43.47881" lon="-0.81479">
        <ele>93</ele>
        <time>2025-08-12T12:13:21.000Z</time>
      </trkpt>
      <trkpt lat="43.47883" lon="-0.81483">
        <ele>93</ele>
        <time>2025-08-12T12:13:22.000Z</time>
      </trkpt>
      <trkpt lat="43.47907" lon="-0.81523">
        <ele>93</ele>
        <time>2025-08-12T12:13:30.000Z</time>
      </trkpt>
      <trkpt lat="43.47929" lon="-0.81549">
        <ele>93</ele>
        <time>2025-08-12T12:13:36.000Z</time>
      </trkpt>
      <trkpt lat="43.47936" lon="-0.81556">
        <ele>93.199996948242</ele>
        <time>2025-08-12T12:13:38.000Z</time>
      </trkpt>
      <trkpt lat="43.47971" lon="-0.81598">
        <ele>93.199996948242</ele>
        <time>2025-08-12T12:13:47.000Z</time>
      </trkpt>
      <trkpt lat="43.47975" lon="-0.81605">
        <ele>93.199996948242</ele>
        <time>2025-08-12T12:13:48.000Z</time>
      </trkpt>
      <trkpt lat="43.47992" lon="-0.8164">
        <ele>93.199996948242</ele>
        <time>2025-08-12T12:13:54.000Z</time>
      </trkpt>
      <trkpt lat="43.48008" lon="-0.81688">
        <ele>93</ele>
        <time>2025-08-12T12:14:01.000Z</time>
      </trkpt>
      <trkpt lat="43.48024" lon="-0.81749">
        <ele>92.599998474121</ele>
        <time>2025-08-12T12:14:10.000Z</time>
      </trkpt>
      <trkpt lat="43.48043" lon="-0.81794">
        <ele>92.400001525879</ele>
        <time>2025-08-12T12:14:17.000Z</time>
      </trkpt>
      <trkpt lat="43.48056" lon="-0.81818">
        <ele>92.400001525879</ele>
        <time>2025-08-12T12:14:21.000Z</time>
      </trkpt>
      <trkpt lat="43.48065" lon="-0.8183">
        <ele>92.400001525879</ele>
        <time>2025-08-12T12:14:23.000Z</time>
      </trkpt>
      <trkpt lat="43.48082" lon="-0.81848">
        <ele>92.199996948242</ele>
        <time>2025-08-12T12:14:27.000Z</time>
      </trkpt>
      <trkpt lat="43.48091" lon="-0.81857">
        <ele>92</ele>
        <time>2025-08-12T12:14:29.000Z</time>
      </trkpt>
      <trkpt lat="43.481" lon="-0.81866">
        <ele>92</ele>
        <time>2025-08-12T12:14:31.000Z</time>
      </trkpt>
      <trkpt lat="43.48145" lon="-0.8191">
        <ele>91.800003051758</ele>
        <time>2025-08-12T12:14:41.000Z</time>
      </trkpt>
      <trkpt lat="43.48149" lon="-0.81913">
        <ele>92</ele>
        <time>2025-08-12T12:14:42.000Z</time>
      </trkpt>
      <trkpt lat="43.48186" lon="-0.8196">
        <ele>91.800003051758</ele>
        <time>2025-08-12T12:14:51.000Z</time>
      </trkpt>
      <trkpt lat="43.48196" lon="-0.81975">
        <ele>91.800003051758</ele>
        <time>2025-08-12T12:14:54.000Z</time>
      </trkpt>
      <trkpt lat="43.48223" lon="-0.82018">
        <ele>92</ele>
        <time>2025-08-12T12:15:02.000Z</time>
      </trkpt>
      <trkpt lat="43.48248" lon="-0.82059">
        <ele>92.599998474121</ele>
        <time>2025-08-12T12:15:10.000Z</time>
      </trkpt>
      <trkpt lat="43.48276" lon="-0.82101">
        <ele>92.800003051758</ele>
        <time>2025-08-12T12:15:19.000Z</time>
      </trkpt>
      <trkpt lat="43.48288" lon="-0.82114">
        <ele>92.800003051758</ele>
        <time>2025-08-12T12:15:22.000Z</time>
      </trkpt>
      <trkpt lat="43.48309" lon="-0.82141">
        <ele>93</ele>
        <time>2025-08-12T12:15:28.000Z</time>
      </trkpt>
      <trkpt lat="43.48345" lon="-0.82179">
        <ele>93</ele>
        <time>2025-08-12T12:15:37.000Z</time>
      </trkpt>
      <trkpt lat="43.48381" lon="-0.82218">
        <ele>92.800003051758</ele>
        <time>2025-08-12T12:15:46.000Z</time>
      </trkpt>
      <trkpt lat="43.48398" lon="-0.82236">
        <ele>92.599998474121</ele>
        <time>2025-08-12T12:15:50.000Z</time>
      </trkpt>
      <trkpt lat="43.48414" lon="-0.82253">
        <ele>92.400001525879</ele>
        <time>2025-08-12T12:15:54.000Z</time>
      </trkpt>
      <trkpt lat="43.48449" lon="-0.8229">
        <ele>92.199996948242</ele>
        <time>2025-08-12T12:16:02.000Z</time>
      </trkpt>
      <trkpt lat="43.48491" lon="-0.82324">
        <ele>91.800003051758</ele>
        <time>2025-08-12T12:16:10.000Z</time>
      </trkpt>
      <trkpt lat="43.48508" lon="-0.82337">
        <ele>91.599998474121</ele>
        <time>2025-08-12T12:16:13.000Z</time>
      </trkpt>
      <trkpt lat="43.48514" lon="-0.82342">
        <ele>91.400001525879</ele>
        <time>2025-08-12T12:16:14.000Z</time>
      </trkpt>
      <trkpt lat="43.48524" lon="-0.82354">
        <ele>91.199996948242</ele>
        <time>2025-08-12T12:16:16.000Z</time>
      </trkpt>
      <trkpt lat="43.48544" lon="-0.8239">
        <ele>90.400001525879</ele>
        <time>2025-08-12T12:16:21.000Z</time>
      </trkpt>
      <trkpt lat="43.48563" lon="-0.8243">
        <ele>90</ele>
        <time>2025-08-12T12:16:27.000Z</time>
      </trkpt>
      <trkpt lat="43.48569" lon="-0.82439">
        <ele>90</ele>
        <time>2025-08-12T12:16:29.000Z</time>
      </trkpt>
      <trkpt lat="43.48573" lon="-0.82447">
        <ele>90</ele>
        <time>2025-08-12T12:16:30.000Z</time>
      </trkpt>
      <trkpt lat="43.48581" lon="-0.82465">
        <ele>90</ele>
        <time>2025-08-12T12:16:33.000Z</time>
      </trkpt>
      <trkpt lat="43.48594" lon="-0.82488">
        <ele>90</ele>
        <time>2025-08-12T12:16:37.000Z</time>
      </trkpt>
      <trkpt lat="43.48603" lon="-0.82497">
        <ele>90</ele>
        <time>2025-08-12T12:16:39.000Z</time>
      </trkpt>
      <trkpt lat="43.48611" lon="-0.82502">
        <ele>90</ele>
        <time>2025-08-12T12:16:41.000Z</time>
      </trkpt>
      <trkpt lat="43.48629" lon="-0.82507">
        <ele>90.400001525879</ele>
        <time>2025-08-12T12:16:44.000Z</time>
      </trkpt>
      <trkpt lat="43.48659" lon="-0.82522">
        <ele>90</ele>
        <time>2025-08-12T12:16:49.000Z</time>
      </trkpt>
      <trkpt lat="43.48681" lon="-0.82537">
        <ele>89.400001525879</ele>
        <time>2025-08-12T12:16:53.000Z</time>
      </trkpt>
      <trkpt lat="43.48686" lon="-0.82539">
        <ele>89.400001525879</ele>
        <time>2025-08-12T12:16:54.000Z</time>
      </trkpt>
      <trkpt lat="43.48691" lon="-0.82541">
        <ele>89.400001525879</ele>
        <time>2025-08-12T12:16:55.000Z</time>
      </trkpt>
      <trkpt lat="43.48713" lon="-0.82545">
        <ele>89.400001525879</ele>
        <time>2025-08-12T12:17:00.000Z</time>
      </trkpt>
      <trkpt lat="43.48736" lon="-0.82544">
        <ele>90.400001525879</ele>
        <time>2025-08-12T12:17:06.000Z</time>
      </trkpt>
      <trkpt lat="43.48742" lon="-0.82545">
        <ele>90.800003051758</ele>
        <time>2025-08-12T12:17:08.000Z</time>
      </trkpt>
      <trkpt lat="43.48758" lon="-0.82551">
        <ele>91.199996948242</ele>
        <time>2025-08-12T12:17:12.000Z</time>
      </trkpt>
      <trkpt lat="43.48767" lon="-0.82556">
        <ele>91.199996948242</ele>
        <time>2025-08-12T12:17:14.000Z</time>
      </trkpt>
      <trkpt lat="43.4878" lon="-0.82561">
        <ele>91.199996948242</ele>
        <time>2025-08-12T12:17:17.000Z</time>
      </trkpt>
      <trkpt lat="43.48809" lon="-0.82567">
        <ele>90.800003051758</ele>
        <time>2025-08-12T12:17:23.000Z</time>
      </trkpt>
      <trkpt lat="43.48813" lon="-0.82567">
        <ele>90.800003051758</ele>
        <time>2025-08-12T12:17:24.000Z</time>
      </trkpt>
      <trkpt lat="43.48821" lon="-0.82569">
        <ele>90.800003051758</ele>
        <time>2025-08-12T12:17:26.000Z</time>
      </trkpt>
      <trkpt lat="43.48832" lon="-0.82572">
        <ele>90.599998474121</ele>
        <time>2025-08-12T12:17:29.000Z</time>
      </trkpt>
      <trkpt lat="43.48855" lon="-0.82576">
        <ele>90.400001525879</ele>
        <time>2025-08-12T12:17:35.000Z</time>
      </trkpt>
      <trkpt lat="43.48866" lon="-0.82574">
        <ele>90.400001525879</ele>
        <time>2025-08-12T12:17:37.000Z</time>
      </trkpt>
      <trkpt lat="43.48878" lon="-0.82576">
        <ele>90.199996948242</ele>
        <time>2025-08-12T12:17:39.000Z</time>
      </trkpt>
      <trkpt lat="43.48895" lon="-0.82585">
        <ele>90</ele>
        <time>2025-08-12T12:17:42.000Z</time>
      </trkpt>
      <trkpt lat="43.48905" lon="-0.82594">
        <ele>89.599998474121</ele>
        <time>2025-08-12T12:17:44.000Z</time>
      </trkpt>
      <trkpt lat="43.48922" lon="-0.8261">
        <ele>89.599998474121</ele>
        <time>2025-08-12T12:17:49.000Z</time>
      </trkpt>
      <trkpt lat="43.48938" lon="-0.82628">
        <ele>90.199996948242</ele>
        <time>2025-08-12T12:17:55.000Z</time>
      </trkpt>
      <trkpt lat="43.4895" lon="-0.82639">
        <ele>90.599998474121</ele>
        <time>2025-08-12T12:18:00.000Z</time>
      </trkpt>
      <trkpt lat="43.48955" lon="-0.82642">
        <ele>91</ele>
        <time>2025-08-12T12:18:02.000Z</time>
      </trkpt>
      <trkpt lat="43.48969" lon="-0.8266">
        <ele>91.400001525879</ele>
        <time>2025-08-12T12:18:09.000Z</time>
      </trkpt>
      <trkpt lat="43.48981" lon="-0.82672">
        <ele>91.599998474121</ele>
        <time>2025-08-12T12:18:14.000Z</time>
      </trkpt>
      <trkpt lat="43.48986" lon="-0.82674">
        <ele>92</ele>
        <time>2025-08-12T12:18:16.000Z</time>
      </trkpt>
      <trkpt lat="43.48995" lon="-0.82679">
        <ele>92.800003051758</ele>
        <time>2025-08-12T12:18:20.000Z</time>
      </trkpt>
      <trkpt lat="43.49005" lon="-0.82686">
        <ele>93</ele>
        <time>2025-08-12T12:18:24.000Z</time>
      </trkpt>
      <trkpt lat="43.4901" lon="-0.82689">
        <ele>93</ele>
        <time>2025-08-12T12:18:26.000Z</time>
      </trkpt>
      <trkpt lat="43.49024" lon="-0.82698">
        <ele>93.599998474121</ele>
        <time>2025-08-12T12:18:32.000Z</time>
      </trkpt>
      <trkpt lat="43.49032" lon="-0.82703">
        <ele>93.800003051758</ele>
        <time>2025-08-12T12:18:36.000Z</time>
      </trkpt>
      <trkpt lat="43.49034" lon="-0.82705">
        <ele>93.800003051758</ele>
        <time>2025-08-12T12:18:37.000Z</time>
      </trkpt>
      <trkpt lat="43.49038" lon="-0.82709">
        <ele>94.199996948242</ele>
        <time>2025-08-12T12:18:39.000Z</time>
      </trkpt>
      <trkpt lat="43.49042" lon="-0.8271">
        <ele>94.400001525879</ele>
        <time>2025-08-12T12:18:41.000Z</time>
      </trkpt>
      <trkpt lat="43.49044" lon="-0.82714">
        <ele>94.599998474121</ele>
        <time>2025-08-12T12:18:43.000Z</time>
      </trkpt>
      <trkpt lat="43.49046" lon="-0.82716">
        <ele>94.800003051758</ele>
        <time>2025-08-12T12:18:44.000Z</time>
      </trkpt>
      <trkpt lat="43.49048" lon="-0.82715">
        <ele>95</ele>
        <time>2025-08-12T12:18:45.000Z</time>
      </trkpt>
      <trkpt lat="43.4905" lon="-0.82715">
        <ele>95.400001525879</ele>
        <time>2025-08-12T12:18:46.000Z</time>
      </trkpt>
      <trkpt lat="43.49053" lon="-0.82721">
        <ele>96</ele>
        <time>2025-08-12T12:18:49.000Z</time>
      </trkpt>
      <trkpt lat="43.49056" lon="-0.82722">
        <ele>96.199996948242</ele>
        <time>2025-08-12T12:18:50.000Z</time>
      </trkpt>
      <trkpt lat="43.49066" lon="-0.82728">
        <ele>97.199996948242</ele>
        <time>2025-08-12T12:18:55.000Z</time>
      </trkpt>
      <trkpt lat="43.49069" lon="-0.82731">
        <ele>97.199996948242</ele>
        <time>2025-08-12T12:18:56.000Z</time>
      </trkpt>
      <trkpt lat="43.49088" lon="-0.82745">
        <ele>98</ele>
        <time>2025-08-12T12:19:04.000Z</time>
      </trkpt>
      <trkpt lat="43.4911" lon="-0.82762">
        <ele>98.199996948242</ele>
        <time>2025-08-12T12:19:11.000Z</time>
      </trkpt>
      <trkpt lat="43.49116" lon="-0.82767">
        <ele>98.400001525879</ele>
        <time>2025-08-12T12:19:13.000Z</time>
      </trkpt>
      <trkpt lat="43.49153" lon="-0.82798">
        <ele>98.800003051758</ele>
        <time>2025-08-12T12:19:25.000Z</time>
      </trkpt>
      <trkpt lat="43.49172" lon="-0.82814">
        <ele>99.199996948242</ele>
        <time>2025-08-12T12:19:32.000Z</time>
      </trkpt>
      <trkpt lat="43.49175" lon="-0.82816">
        <ele>99.400001525879</ele>
        <time>2025-08-12T12:19:33.000Z</time>
      </trkpt>
      <trkpt lat="43.49186" lon="-0.82825">
        <ele>100</ele>
        <time>2025-08-12T12:19:38.000Z</time>
      </trkpt>
      <trkpt lat="43.49198" lon="-0.82832">
        <ele>100.40000152588</ele>
        <time>2025-08-12T12:19:43.000Z</time>
      </trkpt>
      <trkpt lat="43.49202" lon="-0.82835">
        <ele>100.59999847412</ele>
        <time>2025-08-12T12:19:45.000Z</time>
      </trkpt>
      <trkpt lat="43.49213" lon="-0.82841">
        <ele>101.40000152588</ele>
        <time>2025-08-12T12:19:51.000Z</time>
      </trkpt>
      <trkpt lat="43.49217" lon="-0.82845">
        <ele>101.59999847412</ele>
        <time>2025-08-12T12:19:53.000Z</time>
      </trkpt>
      <trkpt lat="43.49224" lon="-0.8285">
        <ele>102</ele>
        <time>2025-08-12T12:19:57.000Z</time>
      </trkpt>
      <trkpt lat="43.49236" lon="-0.82856">
        <ele>102.59999847412</ele>
        <time>2025-08-12T12:20:03.000Z</time>
      </trkpt>
      <trkpt lat="43.49238" lon="-0.82857">
        <ele>102.80000305176</ele>
        <time>2025-08-12T12:20:04.000Z</time>
      </trkpt>
      <trkpt lat="43.49252" lon="-0.82865">
        <ele>103.59999847412</ele>
        <time>2025-08-12T12:20:11.000Z</time>
      </trkpt>
      <trkpt lat="43.49255" lon="-0.82865">
        <ele>103.59999847412</ele>
        <time>2025-08-12T12:20:12.000Z</time>
      </trkpt>
      <trkpt lat="43.49271" lon="-0.82873">
        <ele>104.59999847412</ele>
        <time>2025-08-12T12:20:20.000Z</time>
      </trkpt>
      <trkpt lat="43.49273" lon="-0.82875">
        <ele>104.59999847412</ele>
        <time>2025-08-12T12:20:21.000Z</time>
      </trkpt>
      <trkpt lat="43.49287" lon="-0.82884">
        <ele>105.40000152588</ele>
        <time>2025-08-12T12:20:29.000Z</time>
      </trkpt>
      <trkpt lat="43.49294" lon="-0.82888">
        <ele>105.59999847412</ele>
        <time>2025-08-12T12:20:33.000Z</time>
      </trkpt>
      <trkpt lat="43.49301" lon="-0.82893">
        <ele>106</ele>
        <time>2025-08-12T12:20:36.000Z</time>
      </trkpt>
      <trkpt lat="43.4932" lon="-0.82913">
        <ele>106.59999847412</ele>
        <time>2025-08-12T12:20:44.000Z</time>
      </trkpt>
      <trkpt lat="43.49339" lon="-0.82937">
        <ele>106.40000152588</ele>
        <time>2025-08-12T12:20:49.000Z</time>
      </trkpt>
      <trkpt lat="43.49368" lon="-0.82973">
        <ele>105.59999847412</ele>
        <time>2025-08-12T12:20:55.000Z</time>
      </trkpt>
      <trkpt lat="43.494" lon="-0.83005">
        <ele>104.59999847412</ele>
        <time>2025-08-12T12:21:00.000Z</time>
      </trkpt>
      <trkpt lat="43.49429" lon="-0.83021">
        <ele>103.59999847412</ele>
        <time>2025-08-12T12:21:04.000Z</time>
      </trkpt>
      <trkpt lat="43.49436" lon="-0.83025">
        <ele>103.40000152588</ele>
        <time>2025-08-12T12:21:05.000Z</time>
      </trkpt>
      <trkpt lat="43.49482" lon="-0.8305">
        <ele>102.80000305176</ele>
        <time>2025-08-12T12:21:12.000Z</time>
      </trkpt>
      <trkpt lat="43.49526" lon="-0.83076">
        <ele>102.80000305176</ele>
        <time>2025-08-12T12:21:20.000Z</time>
      </trkpt>
      <trkpt lat="43.49553" lon="-0.83095">
        <ele>102.59999847412</ele>
        <time>2025-08-12T12:21:25.000Z</time>
      </trkpt>
      <trkpt lat="43.49568" lon="-0.83108">
        <ele>102.40000152588</ele>
        <time>2025-08-12T12:21:28.000Z</time>
      </trkpt>
      <trkpt lat="43.49608" lon="-0.83155">
        <ele>101.80000305176</ele>
        <time>2025-08-12T12:21:36.000Z</time>
      </trkpt>
      <trkpt lat="43.4962" lon="-0.8317">
        <ele>101.40000152588</ele>
        <time>2025-08-12T12:21:38.000Z</time>
      </trkpt>
      <trkpt lat="43.49641" lon="-0.8319">
        <ele>100.59999847412</ele>
        <time>2025-08-12T12:21:41.000Z</time>
      </trkpt>
      <trkpt lat="43.49657" lon="-0.83202">
        <ele>100.19999694824</ele>
        <time>2025-08-12T12:21:43.000Z</time>
      </trkpt>
      <trkpt lat="43.49691" lon="-0.83218">
        <ele>99</ele>
        <time>2025-08-12T12:21:47.000Z</time>
      </trkpt>
      <trkpt lat="43.49717" lon="-0.83225">
        <ele>97.599998474121</ele>
        <time>2025-08-12T12:21:50.000Z</time>
      </trkpt>
      <trkpt lat="43.49734" lon="-0.83232">
        <ele>97</ele>
        <time>2025-08-12T12:21:52.000Z</time>
      </trkpt>
      <trkpt lat="43.49741" lon="-0.83236">
        <ele>96.599998474121</ele>
        <time>2025-08-12T12:21:53.000Z</time>
      </trkpt>
      <trkpt lat="43.49749" lon="-0.83242">
        <ele>96.400001525879</ele>
        <time>2025-08-12T12:21:54.000Z</time>
      </trkpt>
      <trkpt lat="43.49767" lon="-0.83263">
        <ele>95.400001525879</ele>
        <time>2025-08-12T12:21:57.000Z</time>
      </trkpt>
      <trkpt lat="43.49791" lon="-0.83292">
        <ele>94.400001525879</ele>
        <time>2025-08-12T12:22:01.000Z</time>
      </trkpt>
      <trkpt lat="43.49803" lon="-0.83305">
        <ele>93.599998474121</ele>
        <time>2025-08-12T12:22:03.000Z</time>
      </trkpt>
      <trkpt lat="43.49809" lon="-0.83313">
        <ele>93.400001525879</ele>
        <time>2025-08-12T12:22:04.000Z</time>
      </trkpt>
      <trkpt lat="43.49814" lon="-0.83321">
        <ele>93.199996948242</ele>
        <time>2025-08-12T12:22:05.000Z</time>
      </trkpt>
      <trkpt lat="43.49823" lon="-0.83337">
        <ele>93</ele>
        <time>2025-08-12T12:22:07.000Z</time>
      </trkpt>
      <trkpt lat="43.49838" lon="-0.83363">
        <ele>93</ele>
        <time>2025-08-12T12:22:11.000Z</time>
      </trkpt>
      <trkpt lat="43.49842" lon="-0.83367">
        <ele>93</ele>
        <time>2025-08-12T12:22:12.000Z</time>
      </trkpt>
      <trkpt lat="43.49853" lon="-0.83378">
        <ele>93.800003051758</ele>
        <time>2025-08-12T12:22:15.000Z</time>
      </trkpt>
      <trkpt lat="43.49859" lon="-0.83391">
        <ele>94.599998474121</ele>
        <time>2025-08-12T12:22:18.000Z</time>
      </trkpt>
      <trkpt lat="43.4986" lon="-0.83396">
        <ele>94.800003051758</ele>
        <time>2025-08-12T12:22:19.000Z</time>
      </trkpt>
      <trkpt lat="43.49861" lon="-0.834">
        <ele>95</ele>
        <time>2025-08-12T12:22:20.000Z</time>
      </trkpt>
      <trkpt lat="43.49864" lon="-0.83408">
        <ele>95.199996948242</ele>
        <time>2025-08-12T12:22:22.000Z</time>
      </trkpt>
      <trkpt lat="43.49866" lon="-0.83409">
        <ele>95.199996948242</ele>
        <time>2025-08-12T12:22:23.000Z</time>
      </trkpt>
      <trkpt lat="43.49867" lon="-0.83409">
        <ele>95.199996948242</ele>
        <time>2025-08-12T12:22:24.000Z</time>
      </trkpt>
      <trkpt lat="43.49869" lon="-0.83407">
        <ele>95.400001525879</ele>
        <time>2025-08-12T12:22:26.000Z</time>
      </trkpt>
      <trkpt lat="43.4987" lon="-0.83405">
        <ele>95.400001525879</ele>
        <time>2025-08-12T12:22:27.000Z</time>
      </trkpt>
      <trkpt lat="43.49871" lon="-0.83404">
        <ele>95.599998474121</ele>
        <time>2025-08-12T12:22:28.000Z</time>
      </trkpt>
      <trkpt lat="43.49874" lon="-0.83407">
        <ele>95.599998474121</ele>
        <time>2025-08-12T12:22:31.000Z</time>
      </trkpt>
      <trkpt lat="43.49874" lon="-0.8341">
        <ele>95.599998474121</ele>
        <time>2025-08-12T12:22:33.000Z</time>
      </trkpt>
      <trkpt lat="43.49874" lon="-0.83411">
        <ele>95.599998474121</ele>
        <time>2025-08-12T12:22:36.000Z</time>
      </trkpt>
      <trkpt lat="43.49871" lon="-0.83415">
        <ele>95.400001525879</ele>
        <time>2025-08-12T12:22:58.000Z</time>
      </trkpt>
      <trkpt lat="43.49868" lon="-0.83418">
        <ele>95.400001525879</ele>
        <time>2025-08-12T12:23:01.000Z</time>
      </trkpt>
      <trkpt lat="43.49866" lon="-0.83423">
        <ele>95.400001525879</ele>
        <time>2025-08-12T12:23:04.000Z</time>
      </trkpt>
      <trkpt lat="43.49865" lon="-0.83431">
        <ele>95.400001525879</ele>
        <time>2025-08-12T12:23:06.000Z</time>
      </trkpt>
      <trkpt lat="43.49859" lon="-0.83449">
        <ele>95.400001525879</ele>
        <time>2025-08-12T12:23:11.000Z</time>
      </trkpt>
      <trkpt lat="43.49847" lon="-0.83475">
        <ele>95.400001525879</ele>
        <time>2025-08-12T12:23:18.000Z</time>
      </trkpt>
      <trkpt lat="43.49831" lon="-0.83498">
        <ele>95.599998474121</ele>
        <time>2025-08-12T12:23:26.000Z</time>
      </trkpt>
      <trkpt lat="43.49814" lon="-0.83524">
        <ele>96.199996948242</ele>
        <time>2025-08-12T12:23:34.000Z</time>
      </trkpt>
      <trkpt lat="43.49809" lon="-0.83533">
        <ele>96.599998474121</ele>
        <time>2025-08-12T12:23:37.000Z</time>
      </trkpt>
      <trkpt lat="43.49803" lon="-0.83545">
        <ele>97</ele>
        <time>2025-08-12T12:23:41.000Z</time>
      </trkpt>
      <trkpt lat="43.49799" lon="-0.83557">
        <ele>97.800003051758</ele>
        <time>2025-08-12T12:23:44.000Z</time>
      </trkpt>
      <trkpt lat="43.49799" lon="-0.83572">
        <ele>98.199996948242</ele>
        <time>2025-08-12T12:23:47.000Z</time>
      </trkpt>
      <trkpt lat="43.4981" lon="-0.83596">
        <ele>98.199996948242</ele>
        <time>2025-08-12T12:23:52.000Z</time>
      </trkpt>
      <trkpt lat="43.49821" lon="-0.83616">
        <ele>97.800003051758</ele>
        <time>2025-08-12T12:23:56.000Z</time>
      </trkpt>
      <trkpt lat="43.49828" lon="-0.83627">
        <ele>97.599998474121</ele>
        <time>2025-08-12T12:23:58.000Z</time>
      </trkpt>
      <trkpt lat="43.49835" lon="-0.83639">
        <ele>97.400001525879</ele>
        <time>2025-08-12T12:24:00.000Z</time>
      </trkpt>
      <trkpt lat="43.49848" lon="-0.83654">
        <ele>97.199996948242</ele>
        <time>2025-08-12T12:24:03.000Z</time>
      </trkpt>
      <trkpt lat="43.49853" lon="-0.83656">
        <ele>97.199996948242</ele>
        <time>2025-08-12T12:24:04.000Z</time>
      </trkpt>
      <trkpt lat="43.49868" lon="-0.83663">
        <ele>97</ele>
        <time>2025-08-12T12:24:07.000Z</time>
      </trkpt>
      <trkpt lat="43.49874" lon="-0.83664">
        <ele>96.800003051758</ele>
        <time>2025-08-12T12:24:08.000Z</time>
      </trkpt>
      <trkpt lat="43.49891" lon="-0.83667">
        <ele>96.800003051758</ele>
        <time>2025-08-12T12:24:11.000Z</time>
      </trkpt>
      <trkpt lat="43.49944" lon="-0.83674">
        <ele>96</ele>
        <time>2025-08-12T12:24:20.000Z</time>
      </trkpt>
      <trkpt lat="43.4995" lon="-0.83676">
        <ele>95.800003051758</ele>
        <time>2025-08-12T12:24:21.000Z</time>
      </trkpt>
      <trkpt lat="43.49971" lon="-0.83686">
        <ele>95.599998474121</ele>
        <time>2025-08-12T12:24:25.000Z</time>
      </trkpt>
      <trkpt lat="43.50004" lon="-0.83714">
        <ele>95.400001525879</ele>
        <time>2025-08-12T12:24:32.000Z</time>
      </trkpt>
      <trkpt lat="43.50038" lon="-0.83741">
        <ele>95.400001525879</ele>
        <time>2025-08-12T12:24:40.000Z</time>
      </trkpt>
      <trkpt lat="43.50056" lon="-0.83754">
        <ele>95.800003051758</ele>
        <time>2025-08-12T12:24:45.000Z</time>
      </trkpt>
      <trkpt lat="43.50081" lon="-0.83771">
        <ele>96.599998474121</ele>
        <time>2025-08-12T12:24:52.000Z</time>
      </trkpt>
      <trkpt lat="43.50092" lon="-0.83778">
        <ele>96.800003051758</ele>
        <time>2025-08-12T12:24:55.000Z</time>
      </trkpt>
      <trkpt lat="43.50119" lon="-0.83796">
        <ele>97</ele>
        <time>2025-08-12T12:25:02.000Z</time>
      </trkpt>
      <trkpt lat="43.50152" lon="-0.83819">
        <ele>97.599998474121</ele>
        <time>2025-08-12T12:25:11.000Z</time>
      </trkpt>
      <trkpt lat="43.50185" lon="-0.83843">
        <ele>97.800003051758</ele>
        <time>2025-08-12T12:25:20.000Z</time>
      </trkpt>
      <trkpt lat="43.50226" lon="-0.83875">
        <ele>97.599998474121</ele>
        <time>2025-08-12T12:25:31.000Z</time>
      </trkpt>
      <trkpt lat="43.50268" lon="-0.83906">
        <ele>97.599998474121</ele>
        <time>2025-08-12T12:25:42.000Z</time>
      </trkpt>
      <trkpt lat="43.50286" lon="-0.83919">
        <ele>98</ele>
        <time>2025-08-12T12:25:47.000Z</time>
      </trkpt>
      <trkpt lat="43.50293" lon="-0.83925">
        <ele>98</ele>
        <time>2025-08-12T12:25:49.000Z</time>
      </trkpt>
      <trkpt lat="43.50299" lon="-0.83931">
        <ele>98.199996948242</ele>
        <time>2025-08-12T12:25:51.000Z</time>
      </trkpt>
      <trkpt lat="43.50314" lon="-0.83942">
        <ele>99.199996948242</ele>
        <time>2025-08-12T12:25:56.000Z</time>
      </trkpt>
      <trkpt lat="43.50316" lon="-0.83945">
        <ele>99.400001525879</ele>
        <time>2025-08-12T12:25:57.000Z</time>
      </trkpt>
      <trkpt lat="43.5033" lon="-0.83963">
        <ele>100.40000152588</ele>
        <time>2025-08-12T12:26:03.000Z</time>
      </trkpt>
      <trkpt lat="43.50332" lon="-0.83966">
        <ele>100.59999847412</ele>
        <time>2025-08-12T12:26:04.000Z</time>
      </trkpt>
      <trkpt lat="43.50346" lon="-0.83981">
        <ele>101.59999847412</ele>
        <time>2025-08-12T12:26:10.000Z</time>
      </trkpt>
      <trkpt lat="43.50353" lon="-0.83989">
        <ele>102</ele>
        <time>2025-08-12T12:26:13.000Z</time>
      </trkpt>
      <trkpt lat="43.50361" lon="-0.83997">
        <ele>102.59999847412</ele>
        <time>2025-08-12T12:26:16.000Z</time>
      </trkpt>
      <trkpt lat="43.50375" lon="-0.84012">
        <ele>103.40000152588</ele>
        <time>2025-08-12T12:26:22.000Z</time>
      </trkpt>
      <trkpt lat="43.50383" lon="-0.8402">
        <ele>103.59999847412</ele>
        <time>2025-08-12T12:26:25.000Z</time>
      </trkpt>
      <trkpt lat="43.50401" lon="-0.84038">
        <ele>104</ele>
        <time>2025-08-12T12:26:32.000Z</time>
      </trkpt>
      <trkpt lat="43.50429" lon="-0.84067">
        <ele>104</ele>
        <time>2025-08-12T12:26:42.000Z</time>
      </trkpt>
      <trkpt lat="43.50444" lon="-0.84087">
        <ele>104</ele>
        <time>2025-08-12T12:26:48.000Z</time>
      </trkpt>
      <trkpt lat="43.50456" lon="-0.84107">
        <ele>104.59999847412</ele>
        <time>2025-08-12T12:26:54.000Z</time>
      </trkpt>
      <trkpt lat="43.50458" lon="-0.84111">
        <ele>104.80000305176</ele>
        <time>2025-08-12T12:26:55.000Z</time>
      </trkpt>
      <trkpt lat="43.50467" lon="-0.84133">
        <ele>105</ele>
        <time>2025-08-12T12:27:01.000Z</time>
      </trkpt>
      <trkpt lat="43.50477" lon="-0.84156">
        <ele>105</ele>
        <time>2025-08-12T12:27:07.000Z</time>
      </trkpt>
      <trkpt lat="43.50493" lon="-0.84191">
        <ele>104.59999847412</ele>
        <time>2025-08-12T12:27:15.000Z</time>
      </trkpt>
      <trkpt lat="43.50506" lon="-0.84218">
        <ele>104.59999847412</ele>
        <time>2025-08-12T12:27:21.000Z</time>
      </trkpt>
      <trkpt lat="43.50519" lon="-0.84246">
        <ele>105</ele>
        <time>2025-08-12T12:27:28.000Z</time>
      </trkpt>
      <trkpt lat="43.50531" lon="-0.84275">
        <ele>105.80000305176</ele>
        <time>2025-08-12T12:27:36.000Z</time>
      </trkpt>
      <trkpt lat="43.50534" lon="-0.84285">
        <ele>105.80000305176</ele>
        <time>2025-08-12T12:27:39.000Z</time>
      </trkpt>
      <trkpt lat="43.50534" lon="-0.84289">
        <ele>105.80000305176</ele>
        <time>2025-08-12T12:27:40.000Z</time>
      </trkpt>
      <trkpt lat="43.50541" lon="-0.84312">
        <ele>105.80000305176</ele>
        <time>2025-08-12T12:27:46.000Z</time>
      </trkpt>
      <trkpt lat="43.50552" lon="-0.8434">
        <ele>105.80000305176</ele>
        <time>2025-08-12T12:27:52.000Z</time>
      </trkpt>
      <trkpt lat="43.50568" lon="-0.84384">
        <ele>105.40000152588</ele>
        <time>2025-08-12T12:28:00.000Z</time>
      </trkpt>
      <trkpt lat="43.5057" lon="-0.84389">
        <ele>105.40000152588</ele>
        <time>2025-08-12T12:28:01.000Z</time>
      </trkpt>
      <trkpt lat="43.50574" lon="-0.84401">
        <ele>105.40000152588</ele>
        <time>2025-08-12T12:28:03.000Z</time>
      </trkpt>
      <trkpt lat="43.50577" lon="-0.84412">
        <ele>105.40000152588</ele>
        <time>2025-08-12T12:28:05.000Z</time>
      </trkpt>
      <trkpt lat="43.50583" lon="-0.84441">
        <ele>105</ele>
        <time>2025-08-12T12:28:10.000Z</time>
      </trkpt>
      <trkpt lat="43.50582" lon="-0.84454">
        <ele>105</ele>
        <time>2025-08-12T12:28:12.000Z</time>
      </trkpt>
      <trkpt lat="43.50579" lon="-0.84477">
        <ele>104.80000305176</ele>
        <time>2025-08-12T12:28:15.000Z</time>
      </trkpt>
      <trkpt lat="43.50576" lon="-0.84492">
        <ele>104.80000305176</ele>
        <time>2025-08-12T12:28:17.000Z</time>
      </trkpt>
      <trkpt lat="43.50569" lon="-0.84541">
        <ele>104.19999694824</ele>
        <time>2025-08-12T12:28:23.000Z</time>
      </trkpt>
      <trkpt lat="43.5057" lon="-0.8455">
        <ele>104</ele>
        <time>2025-08-12T12:28:24.000Z</time>
      </trkpt>
      <trkpt lat="43.50575" lon="-0.8458">
        <ele>103.80000305176</ele>
        <time>2025-08-12T12:28:28.000Z</time>
      </trkpt>
      <trkpt lat="43.50577" lon="-0.84587">
        <ele>103.80000305176</ele>
        <time>2025-08-12T12:28:29.000Z</time>
      </trkpt>
      <trkpt lat="43.5059" lon="-0.84623">
        <ele>104</ele>
        <time>2025-08-12T12:28:34.000Z</time>
      </trkpt>
      <trkpt lat="43.50598" lon="-0.84646">
        <ele>103.80000305176</ele>
        <time>2025-08-12T12:28:37.000Z</time>
      </trkpt>
      <trkpt lat="43.50603" lon="-0.84671">
        <ele>103.40000152588</ele>
        <time>2025-08-12T12:28:40.000Z</time>
      </trkpt>
      <trkpt lat="43.50604" lon="-0.84705">
        <ele>102.80000305176</ele>
        <time>2025-08-12T12:28:44.000Z</time>
      </trkpt>
      <trkpt lat="43.50603" lon="-0.84723">
        <ele>102.40000152588</ele>
        <time>2025-08-12T12:28:46.000Z</time>
      </trkpt>
      <trkpt lat="43.506" lon="-0.84776">
        <ele>101.59999847412</ele>
        <time>2025-08-12T12:28:51.000Z</time>
      </trkpt>
      <trkpt lat="43.506" lon="-0.84813">
        <ele>100.59999847412</ele>
        <time>2025-08-12T12:28:54.000Z</time>
      </trkpt>
      <trkpt lat="43.50601" lon="-0.84849">
        <ele>99.599998474121</ele>
        <time>2025-08-12T12:28:57.000Z</time>
      </trkpt>
      <trkpt lat="43.50602" lon="-0.8486">
        <ele>99.199996948242</ele>
        <time>2025-08-12T12:28:58.000Z</time>
      </trkpt>
      <trkpt lat="43.50607" lon="-0.84893">
        <ele>98.199996948242</ele>
        <time>2025-08-12T12:29:01.000Z</time>
      </trkpt>
      <trkpt lat="43.50613" lon="-0.84923">
        <ele>97.400001525879</ele>
        <time>2025-08-12T12:29:04.000Z</time>
      </trkpt>
      <trkpt lat="43.50616" lon="-0.84933">
        <ele>97</ele>
        <time>2025-08-12T12:29:05.000Z</time>
      </trkpt>
      <trkpt lat="43.50619" lon="-0.84953">
        <ele>96.800003051758</ele>
        <time>2025-08-12T12:29:07.000Z</time>
      </trkpt>
      <trkpt lat="43.5062" lon="-0.84976">
        <ele>96.599998474121</ele>
        <time>2025-08-12T12:29:09.000Z</time>
      </trkpt>
      <trkpt lat="43.50616" lon="-0.8502">
        <ele>95.800003051758</ele>
        <time>2025-08-12T12:29:13.000Z</time>
      </trkpt>
      <trkpt lat="43.50614" lon="-0.85031">
        <ele>95.599998474121</ele>
        <time>2025-08-12T12:29:14.000Z</time>
      </trkpt>
      <trkpt lat="43.50609" lon="-0.85065">
        <ele>94.599998474121</ele>
        <time>2025-08-12T12:29:17.000Z</time>
      </trkpt>
      <trkpt lat="43.50604" lon="-0.85097">
        <ele>93.800003051758</ele>
        <time>2025-08-12T12:29:20.000Z</time>
      </trkpt>
      <trkpt lat="43.50603" lon="-0.85108">
        <ele>93.599998474121</ele>
        <time>2025-08-12T12:29:21.000Z</time>
      </trkpt>
      <trkpt lat="43.50604" lon="-0.85151">
        <ele>92.599998474121</ele>
        <time>2025-08-12T12:29:25.000Z</time>
      </trkpt>
      <trkpt lat="43.50604" lon="-0.85162">
        <ele>92.400001525879</ele>
        <time>2025-08-12T12:29:26.000Z</time>
      </trkpt>
      <trkpt lat="43.506" lon="-0.85214">
        <ele>91.800003051758</ele>
        <time>2025-08-12T12:29:31.000Z</time>
      </trkpt>
      <trkpt lat="43.50593" lon="-0.85266">
        <ele>90.800003051758</ele>
        <time>2025-08-12T12:29:36.000Z</time>
      </trkpt>
      <trkpt lat="43.50591" lon="-0.85286">
        <ele>90.599998474121</ele>
        <time>2025-08-12T12:29:38.000Z</time>
      </trkpt>
      <trkpt lat="43.50586" lon="-0.8532">
        <ele>90.599998474121</ele>
        <time>2025-08-12T12:29:42.000Z</time>
      </trkpt>
      <trkpt lat="43.50585" lon="-0.85344">
        <ele>90.599998474121</ele>
        <time>2025-08-12T12:29:45.000Z</time>
      </trkpt>
      <trkpt lat="43.50587" lon="-0.85362">
        <ele>90.599998474121</ele>
        <time>2025-08-12T12:29:47.000Z</time>
      </trkpt>
      <trkpt lat="43.50596" lon="-0.854">
        <ele>90.400001525879</ele>
        <time>2025-08-12T12:29:52.000Z</time>
      </trkpt>
      <trkpt lat="43.50599" lon="-0.8541">
        <ele>90.199996948242</ele>
        <time>2025-08-12T12:29:55.000Z</time>
      </trkpt>
      <trkpt lat="43.506" lon="-0.85412">
        <ele>89.800003051758</ele>
        <time>2025-08-12T12:29:56.000Z</time>
      </trkpt>
      <trkpt lat="43.50601" lon="-0.85412">
        <ele>89.599998474121</ele>
        <time>2025-08-12T12:29:57.000Z</time>
      </trkpt>
      <trkpt lat="43.50603" lon="-0.85414">
        <ele>89</ele>
        <time>2025-08-12T12:29:59.000Z</time>
      </trkpt>
      <trkpt lat="43.50604" lon="-0.85418">
        <ele>88.400001525879</ele>
        <time>2025-08-12T12:30:01.000Z</time>
      </trkpt>
      <trkpt lat="43.50601" lon="-0.85421">
        <ele>88.199996948242</ele>
        <time>2025-08-12T12:30:03.000Z</time>
      </trkpt>
      <trkpt lat="43.50589" lon="-0.8543">
        <ele>88.199996948242</ele>
        <time>2025-08-12T12:30:09.000Z</time>
      </trkpt>
      <trkpt lat="43.50572" lon="-0.85437">
        <ele>88.400001525879</ele>
        <time>2025-08-12T12:30:16.000Z</time>
      </trkpt>
      <trkpt lat="43.50553" lon="-0.85441">
        <ele>88.800003051758</ele>
        <time>2025-08-12T12:30:23.000Z</time>
      </trkpt>
      <trkpt lat="43.50534" lon="-0.85446">
        <ele>89.400001525879</ele>
        <time>2025-08-12T12:30:30.000Z</time>
      </trkpt>
      <trkpt lat="43.50519" lon="-0.85449">
        <ele>89.800003051758</ele>
        <time>2025-08-12T12:30:35.000Z</time>
      </trkpt>
      <trkpt lat="43.5051" lon="-0.85451">
        <ele>90</ele>
        <time>2025-08-12T12:30:38.000Z</time>
      </trkpt>
      <trkpt lat="43.50502" lon="-0.85456">
        <ele>90.400001525879</ele>
        <time>2025-08-12T12:30:41.000Z</time>
      </trkpt>
      <trkpt lat="43.505" lon="-0.85459">
        <ele>90.400001525879</ele>
        <time>2025-08-12T12:30:42.000Z</time>
      </trkpt>
      <trkpt lat="43.50486" lon="-0.85484">
        <ele>90.199996948242</ele>
        <time>2025-08-12T12:30:48.000Z</time>
      </trkpt>
      <trkpt lat="43.50466" lon="-0.85514">
        <ele>88.800003051758</ele>
        <time>2025-08-12T12:30:54.000Z</time>
      </trkpt>
      <trkpt lat="43.50462" lon="-0.85519">
        <ele>88.599998474121</ele>
        <time>2025-08-12T12:30:55.000Z</time>
      </trkpt>
      <trkpt lat="43.5044" lon="-0.85545">
        <ele>87.599998474121</ele>
        <time>2025-08-12T12:31:00.000Z</time>
      </trkpt>
      <trkpt lat="43.50422" lon="-0.85571">
        <ele>86.400001525879</ele>
        <time>2025-08-12T12:31:04.000Z</time>
      </trkpt>
      <trkpt lat="43.50414" lon="-0.85585">
        <ele>86</ele>
        <time>2025-08-12T12:31:06.000Z</time>
      </trkpt>
      <trkpt lat="43.50408" lon="-0.85595">
        <ele>85.400001525879</ele>
        <time>2025-08-12T12:31:08.000Z</time>
      </trkpt>
      <trkpt lat="43.50405" lon="-0.85599">
        <ele>84.599998474121</ele>
        <time>2025-08-12T12:31:09.000Z</time>
      </trkpt>
      <trkpt lat="43.50402" lon="-0.85604">
        <ele>84.400001525879</ele>
        <time>2025-08-12T12:31:10.000Z</time>
      </trkpt>
      <trkpt lat="43.50399" lon="-0.8561">
        <ele>83.800003051758</ele>
        <time>2025-08-12T12:31:11.000Z</time>
      </trkpt>
      <trkpt lat="43.50393" lon="-0.8562">
        <ele>83.400001525879</ele>
        <time>2025-08-12T12:31:13.000Z</time>
      </trkpt>
      <trkpt lat="43.50383" lon="-0.85637">
        <ele>83</ele>
        <time>2025-08-12T12:31:16.000Z</time>
      </trkpt>
      <trkpt lat="43.50379" lon="-0.85642">
        <ele>83</ele>
        <time>2025-08-12T12:31:17.000Z</time>
      </trkpt>
      <trkpt lat="43.50375" lon="-0.85648">
        <ele>82.800003051758</ele>
        <time>2025-08-12T12:31:18.000Z</time>
      </trkpt>
      <trkpt lat="43.50361" lon="-0.85671">
        <ele>82.400001525879</ele>
        <time>2025-08-12T12:31:22.000Z</time>
      </trkpt>
      <trkpt lat="43.50332" lon="-0.8572">
        <ele>82</ele>
        <time>2025-08-12T12:31:31.000Z</time>
      </trkpt>
      <trkpt lat="43.50312" lon="-0.85755">
        <ele>82</ele>
        <time>2025-08-12T12:31:39.000Z</time>
      </trkpt>
      <trkpt lat="43.50298" lon="-0.85779">
        <ele>82.400001525879</ele>
        <time>2025-08-12T12:31:45.000Z</time>
      </trkpt>
      <trkpt lat="43.50287" lon="-0.85799">
        <ele>82.599998474121</ele>
        <time>2025-08-12T12:31:50.000Z</time>
      </trkpt>
      <trkpt lat="43.50268" lon="-0.85823">
        <ele>83.199996948242</ele>
        <time>2025-08-12T12:31:57.000Z</time>
      </trkpt>
      <trkpt lat="43.50247" lon="-0.85842">
        <ele>83.599998474121</ele>
        <time>2025-08-12T12:32:04.000Z</time>
      </trkpt>
      <trkpt lat="43.50223" lon="-0.85859">
        <ele>83.400001525879</ele>
        <time>2025-08-12T12:32:11.000Z</time>
      </trkpt>
      <trkpt lat="43.50209" lon="-0.85871">
        <ele>83.400001525879</ele>
        <time>2025-08-12T12:32:16.000Z</time>
      </trkpt>
      <trkpt lat="43.50208" lon="-0.8589">
        <ele>83</ele>
        <time>2025-08-12T12:32:20.000Z</time>
      </trkpt>
      <trkpt lat="43.50211" lon="-0.85914">
        <ele>82.599998474121</ele>
        <time>2025-08-12T12:32:24.000Z</time>
      </trkpt>
      <trkpt lat="43.50213" lon="-0.85919">
        <ele>82.400001525879</ele>
        <time>2025-08-12T12:32:25.000Z</time>
      </trkpt>
      <trkpt lat="43.50226" lon="-0.85958">
        <ele>81.800003051758</ele>
        <time>2025-08-12T12:32:33.000Z</time>
      </trkpt>
      <trkpt lat="43.50232" lon="-0.85983">
        <ele>82</ele>
        <time>2025-08-12T12:32:40.000Z</time>
      </trkpt>
      <trkpt lat="43.50235" lon="-0.85995">
        <ele>82.199996948242</ele>
        <time>2025-08-12T12:32:43.000Z</time>
      </trkpt>
      <trkpt lat="43.50237" lon="-0.86014">
        <ele>82.199996948242</ele>
        <time>2025-08-12T12:32:47.000Z</time>
      </trkpt>
      <trkpt lat="43.50236" lon="-0.86045">
        <ele>82</ele>
        <time>2025-08-12T12:32:53.000Z</time>
      </trkpt>
      <trkpt lat="43.50234" lon="-0.86074">
        <ele>81.599998474121</ele>
        <time>2025-08-12T12:32:58.000Z</time>
      </trkpt>
      <trkpt lat="43.50234" lon="-0.86085">
        <ele>81.800003051758</ele>
        <time>2025-08-12T12:33:00.000Z</time>
      </trkpt>
      <trkpt lat="43.50233" lon="-0.86107">
        <ele>81.199996948242</ele>
        <time>2025-08-12T12:33:04.000Z</time>
      </trkpt>
      <trkpt lat="43.50232" lon="-0.86123">
        <ele>81.199996948242</ele>
        <time>2025-08-12T12:33:07.000Z</time>
      </trkpt>
      <trkpt lat="43.50231" lon="-0.86153">
        <ele>81</ele>
        <time>2025-08-12T12:33:13.000Z</time>
      </trkpt>
      <trkpt lat="43.50231" lon="-0.86158">
        <ele>80.800003051758</ele>
        <time>2025-08-12T12:33:14.000Z</time>
      </trkpt>
      <trkpt lat="43.50229" lon="-0.86188">
        <ele>80.599998474121</ele>
        <time>2025-08-12T12:33:20.000Z</time>
      </trkpt>
      <trkpt lat="43.50226" lon="-0.86234">
        <ele>80.400001525879</ele>
        <time>2025-08-12T12:33:28.000Z</time>
      </trkpt>
      <trkpt lat="43.50226" lon="-0.86257">
        <ele>80.400001525879</ele>
        <time>2025-08-12T12:33:32.000Z</time>
      </trkpt>
      <trkpt lat="43.50228" lon="-0.86274">
        <ele>80.400001525879</ele>
        <time>2025-08-12T12:33:35.000Z</time>
      </trkpt>
      <trkpt lat="43.50236" lon="-0.86296">
        <ele>80.400001525879</ele>
        <time>2025-08-12T12:33:39.000Z</time>
      </trkpt>
      <trkpt lat="43.50238" lon="-0.86302">
        <ele>80.400001525879</ele>
        <time>2025-08-12T12:33:40.000Z</time>
      </trkpt>
      <trkpt lat="43.50256" lon="-0.86352">
        <ele>80.400001525879</ele>
        <time>2025-08-12T12:33:49.000Z</time>
      </trkpt>
      <trkpt lat="43.5026" lon="-0.86362">
        <ele>80.400001525879</ele>
        <time>2025-08-12T12:33:51.000Z</time>
      </trkpt>
      <trkpt lat="43.50262" lon="-0.86373">
        <ele>80.599998474121</ele>
        <time>2025-08-12T12:33:53.000Z</time>
      </trkpt>
      <trkpt lat="43.50264" lon="-0.86385">
        <ele>80.599998474121</ele>
        <time>2025-08-12T12:33:55.000Z</time>
      </trkpt>
      <trkpt lat="43.50269" lon="-0.8642">
        <ele>80.599998474121</ele>
        <time>2025-08-12T12:34:01.000Z</time>
      </trkpt>
      <trkpt lat="43.50269" lon="-0.86426">
        <ele>80.599998474121</ele>
        <time>2025-08-12T12:34:02.000Z</time>
      </trkpt>
      <trkpt lat="43.50269" lon="-0.86432">
        <ele>80.599998474121</ele>
        <time>2025-08-12T12:34:03.000Z</time>
      </trkpt>
      <trkpt lat="43.5027" lon="-0.86464">
        <ele>80.599998474121</ele>
        <time>2025-08-12T12:34:08.000Z</time>
      </trkpt>
      <trkpt lat="43.50272" lon="-0.86515">
        <ele>80.400001525879</ele>
        <time>2025-08-12T12:34:16.000Z</time>
      </trkpt>
      <trkpt lat="43.50274" lon="-0.86562">
        <ele>80.199996948242</ele>
        <time>2025-08-12T12:34:23.000Z</time>
      </trkpt>
      <trkpt lat="43.50273" lon="-0.86627">
        <ele>80.400001525879</ele>
        <time>2025-08-12T12:34:33.000Z</time>
      </trkpt>
      <trkpt lat="43.50272" lon="-0.86667">
        <ele>80</ele>
        <time>2025-08-12T12:34:39.000Z</time>
      </trkpt>
      <trkpt lat="43.50271" lon="-0.86681">
        <ele>80</ele>
        <time>2025-08-12T12:34:41.000Z</time>
      </trkpt>
      <trkpt lat="43.50269" lon="-0.86722">
        <ele>79.800003051758</ele>
        <time>2025-08-12T12:34:46.000Z</time>
      </trkpt>
      <trkpt lat="43.50269" lon="-0.86741">
        <ele>79.599998474121</ele>
        <time>2025-08-12T12:34:48.000Z</time>
      </trkpt>
      <trkpt lat="43.5027" lon="-0.86767">
        <ele>79.199996948242</ele>
        <time>2025-08-12T12:34:51.000Z</time>
      </trkpt>
      <trkpt lat="43.50271" lon="-0.86775">
        <ele>79</ele>
        <time>2025-08-12T12:34:52.000Z</time>
      </trkpt>
      <trkpt lat="43.50273" lon="-0.86783">
        <ele>78.800003051758</ele>
        <time>2025-08-12T12:34:53.000Z</time>
      </trkpt>
      <trkpt lat="43.50275" lon="-0.8679">
        <ele>78.800003051758</ele>
        <time>2025-08-12T12:34:54.000Z</time>
      </trkpt>
      <trkpt lat="43.50281" lon="-0.86808">
        <ele>78.800003051758</ele>
        <time>2025-08-12T12:34:57.000Z</time>
      </trkpt>
      <trkpt lat="43.5029" lon="-0.86844">
        <ele>79</ele>
        <time>2025-08-12T12:35:04.000Z</time>
      </trkpt>
      <trkpt lat="43.50298" lon="-0.86889">
        <ele>79.400001525879</ele>
        <time>2025-08-12T12:35:12.000Z</time>
      </trkpt>
      <trkpt lat="43.50301" lon="-0.86941">
        <ele>79.199996948242</ele>
        <time>2025-08-12T12:35:20.000Z</time>
      </trkpt>
      <trkpt lat="43.50305" lon="-0.86994">
        <ele>78.599998474121</ele>
        <time>2025-08-12T12:35:27.000Z</time>
      </trkpt>
      <trkpt lat="43.50312" lon="-0.87046">
        <ele>78.199996948242</ele>
        <time>2025-08-12T12:35:34.000Z</time>
      </trkpt>
      <trkpt lat="43.50316" lon="-0.87086">
        <ele>78</ele>
        <time>2025-08-12T12:35:40.000Z</time>
      </trkpt>
      <trkpt lat="43.50315" lon="-0.87141">
        <ele>78.400001525879</ele>
        <time>2025-08-12T12:35:49.000Z</time>
      </trkpt>
      <trkpt lat="43.50313" lon="-0.87152">
        <ele>78.599998474121</ele>
        <time>2025-08-12T12:35:51.000Z</time>
      </trkpt>
      <trkpt lat="43.50311" lon="-0.8717">
        <ele>78.800003051758</ele>
        <time>2025-08-12T12:35:54.000Z</time>
      </trkpt>
      <trkpt lat="43.50311" lon="-0.87176">
        <ele>78.800003051758</ele>
        <time>2025-08-12T12:35:55.000Z</time>
      </trkpt>
      <trkpt lat="43.50312" lon="-0.87189">
        <ele>78.800003051758</ele>
        <time>2025-08-12T12:35:57.000Z</time>
      </trkpt>
      <trkpt lat="43.50314" lon="-0.87222">
        <ele>78.800003051758</ele>
        <time>2025-08-12T12:36:02.000Z</time>
      </trkpt>
      <trkpt lat="43.50316" lon="-0.87269">
        <ele>78.400001525879</ele>
        <time>2025-08-12T12:36:08.000Z</time>
      </trkpt>
      <trkpt lat="43.5032" lon="-0.87286">
        <ele>78.199996948242</ele>
        <time>2025-08-12T12:36:10.000Z</time>
      </trkpt>
      <trkpt lat="43.50322" lon="-0.87294">
        <ele>78</ele>
        <time>2025-08-12T12:36:11.000Z</time>
      </trkpt>
      <trkpt lat="43.50326" lon="-0.87302">
        <ele>78</ele>
        <time>2025-08-12T12:36:12.000Z</time>
      </trkpt>
      <trkpt lat="43.50345" lon="-0.87339">
        <ele>77.400001525879</ele>
        <time>2025-08-12T12:36:18.000Z</time>
      </trkpt>
      <trkpt lat="43.50356" lon="-0.8736">
        <ele>77.599998474121</ele>
        <time>2025-08-12T12:36:23.000Z</time>
      </trkpt>
      <trkpt lat="43.50367" lon="-0.87384">
        <ele>78.800003051758</ele>
        <time>2025-08-12T12:36:29.000Z</time>
      </trkpt>
      <trkpt lat="43.50373" lon="-0.87397">
        <ele>79</ele>
        <time>2025-08-12T12:36:32.000Z</time>
      </trkpt>
      <trkpt lat="43.50383" lon="-0.87415">
        <ele>79.199996948242</ele>
        <time>2025-08-12T12:36:36.000Z</time>
      </trkpt>
      <trkpt lat="43.50398" lon="-0.87445">
        <ele>79.400001525879</ele>
        <time>2025-08-12T12:36:43.000Z</time>
      </trkpt>
      <trkpt lat="43.50413" lon="-0.87478">
        <ele>79.400001525879</ele>
        <time>2025-08-12T12:36:51.000Z</time>
      </trkpt>
      <trkpt lat="43.50423" lon="-0.87513">
        <ele>79.199996948242</ele>
        <time>2025-08-12T12:36:58.000Z</time>
      </trkpt>
      <trkpt lat="43.50432" lon="-0.87543">
        <ele>79</ele>
        <time>2025-08-12T12:37:03.000Z</time>
      </trkpt>
      <trkpt lat="43.50449" lon="-0.87599">
        <ele>78.400001525879</ele>
        <time>2025-08-12T12:37:11.000Z</time>
      </trkpt>
      <trkpt lat="43.50458" lon="-0.87627">
        <ele>78.199996948242</ele>
        <time>2025-08-12T12:37:15.000Z</time>
      </trkpt>
      <trkpt lat="43.5047" lon="-0.8767">
        <ele>78.199996948242</ele>
        <time>2025-08-12T12:37:21.000Z</time>
      </trkpt>
      <trkpt lat="43.50494" lon="-0.87739">
        <ele>78.199996948242</ele>
        <time>2025-08-12T12:37:31.000Z</time>
      </trkpt>
      <trkpt lat="43.50496" lon="-0.87745">
        <ele>78.199996948242</ele>
        <time>2025-08-12T12:37:32.000Z</time>
      </trkpt>
      <trkpt lat="43.5052" lon="-0.878">
        <ele>78.199996948242</ele>
        <time>2025-08-12T12:37:41.000Z</time>
      </trkpt>
      <trkpt lat="43.50554" lon="-0.87845">
        <ele>78.199996948242</ele>
        <time>2025-08-12T12:37:50.000Z</time>
      </trkpt>
      <trkpt lat="43.50593" lon="-0.87896">
        <ele>78</ele>
        <time>2025-08-12T12:38:00.000Z</time>
      </trkpt>
      <trkpt lat="43.50603" lon="-0.87917">
        <ele>78</ele>
        <time>2025-08-12T12:38:03.000Z</time>
      </trkpt>
      <trkpt lat="43.50608" lon="-0.87932">
        <ele>77.800003051758</ele>
        <time>2025-08-12T12:38:05.000Z</time>
      </trkpt>
      <trkpt lat="43.50615" lon="-0.87963">
        <ele>77.400001525879</ele>
        <time>2025-08-12T12:38:09.000Z</time>
      </trkpt>
      <trkpt lat="43.50624" lon="-0.87993">
        <ele>77.199996948242</ele>
        <time>2025-08-12T12:38:13.000Z</time>
      </trkpt>
      <trkpt lat="43.50643" lon="-0.8803">
        <ele>77.400001525879</ele>
        <time>2025-08-12T12:38:19.000Z</time>
      </trkpt>
      <trkpt lat="43.50675" lon="-0.88067">
        <ele>78</ele>
        <time>2025-08-12T12:38:27.000Z</time>
      </trkpt>
      <trkpt lat="43.50703" lon="-0.88103">
        <ele>78.199996948242</ele>
        <time>2025-08-12T12:38:34.000Z</time>
      </trkpt>
      <trkpt lat="43.50712" lon="-0.88121">
        <ele>78.199996948242</ele>
        <time>2025-08-12T12:38:37.000Z</time>
      </trkpt>
      <trkpt lat="43.5072" lon="-0.88141">
        <ele>78.199996948242</ele>
        <time>2025-08-12T12:38:40.000Z</time>
      </trkpt>
      <trkpt lat="43.50729" lon="-0.88193">
        <ele>78</ele>
        <time>2025-08-12T12:38:47.000Z</time>
      </trkpt>
      <trkpt lat="43.50729" lon="-0.88253">
        <ele>77.599998474121</ele>
        <time>2025-08-12T12:38:55.000Z</time>
      </trkpt>
      <trkpt lat="43.50727" lon="-0.88311">
        <ele>77</ele>
        <time>2025-08-12T12:39:02.000Z</time>
      </trkpt>
      <trkpt lat="43.50732" lon="-0.88342">
        <ele>76.599998474121</ele>
        <time>2025-08-12T12:39:06.000Z</time>
      </trkpt>
      <trkpt lat="43.50735" lon="-0.88348">
        <ele>76.400001525879</ele>
        <time>2025-08-12T12:39:07.000Z</time>
      </trkpt>
      <trkpt lat="43.50744" lon="-0.88371">
        <ele>76.599998474121</ele>
        <time>2025-08-12T12:39:11.000Z</time>
      </trkpt>
      <trkpt lat="43.50749" lon="-0.88381">
        <ele>76.400001525879</ele>
        <time>2025-08-12T12:39:13.000Z</time>
      </trkpt>
      <trkpt lat="43.50763" lon="-0.88409">
        <ele>76.599998474121</ele>
        <time>2025-08-12T12:39:19.000Z</time>
      </trkpt>
      <trkpt lat="43.50772" lon="-0.88428">
        <ele>76.599998474121</ele>
        <time>2025-08-12T12:39:23.000Z</time>
      </trkpt>
      <trkpt lat="43.5078" lon="-0.8844">
        <ele>76.599998474121</ele>
        <time>2025-08-12T12:39:26.000Z</time>
      </trkpt>
      <trkpt lat="43.50804" lon="-0.88477">
        <ele>76</ele>
        <time>2025-08-12T12:39:35.000Z</time>
      </trkpt>
      <trkpt lat="43.50819" lon="-0.88496">
        <ele>75.800003051758</ele>
        <time>2025-08-12T12:39:40.000Z</time>
      </trkpt>
      <trkpt lat="43.50822" lon="-0.88499">
        <ele>75.599998474121</ele>
        <time>2025-08-12T12:39:41.000Z</time>
      </trkpt>
      <trkpt lat="43.50833" lon="-0.8851">
        <ele>75.599998474121</ele>
        <time>2025-08-12T12:39:44.000Z</time>
      </trkpt>
      <trkpt lat="43.50837" lon="-0.88514">
        <ele>75.599998474121</ele>
        <time>2025-08-12T12:39:45.000Z</time>
      </trkpt>
      <trkpt lat="43.5086" lon="-0.88534">
        <ele>75.400001525879</ele>
        <time>2025-08-12T12:39:51.000Z</time>
      </trkpt>
      <trkpt lat="43.50872" lon="-0.88544">
        <ele>75.400001525879</ele>
        <time>2025-08-12T12:39:54.000Z</time>
      </trkpt>
      <trkpt lat="43.50887" lon="-0.88559">
        <ele>75.400001525879</ele>
        <time>2025-08-12T12:39:58.000Z</time>
      </trkpt>
      <trkpt lat="43.50914" lon="-0.8859">
        <ele>75.800003051758</ele>
        <time>2025-08-12T12:40:06.000Z</time>
      </trkpt>
      <trkpt lat="43.50947" lon="-0.88628">
        <ele>76.199996948242</ele>
        <time>2025-08-12T12:40:15.000Z</time>
      </trkpt>
      <trkpt lat="43.50977" lon="-0.88657">
        <ele>76.199996948242</ele>
        <time>2025-08-12T12:40:21.000Z</time>
      </trkpt>
      <trkpt lat="43.51015" lon="-0.88692">
        <ele>75.599998474121</ele>
        <time>2025-08-12T12:40:28.000Z</time>
      </trkpt>
      <trkpt lat="43.51055" lon="-0.88717">
        <ele>75</ele>
        <time>2025-08-12T12:40:36.000Z</time>
      </trkpt>
      <trkpt lat="43.51066" lon="-0.88723">
        <ele>74.800003051758</ele>
        <time>2025-08-12T12:40:39.000Z</time>
      </trkpt>
      <trkpt lat="43.5107" lon="-0.88725">
        <ele>74.800003051758</ele>
        <time>2025-08-12T12:40:40.000Z</time>
      </trkpt>
      <trkpt lat="43.51078" lon="-0.88728">
        <ele>74.599998474121</ele>
        <time>2025-08-12T12:40:42.000Z</time>
      </trkpt>
      <trkpt lat="43.51095" lon="-0.88736">
        <ele>73.599998474121</ele>
        <time>2025-08-12T12:40:46.000Z</time>
      </trkpt>
      <trkpt lat="43.51118" lon="-0.88748">
        <ele>72.599998474121</ele>
        <time>2025-08-12T12:40:51.000Z</time>
      </trkpt>
      <trkpt lat="43.51122" lon="-0.8875">
        <ele>72.400001525879</ele>
        <time>2025-08-12T12:40:52.000Z</time>
      </trkpt>
      <trkpt lat="43.51132" lon="-0.88755">
        <ele>72</ele>
        <time>2025-08-12T12:40:55.000Z</time>
      </trkpt>
      <trkpt lat="43.51134" lon="-0.88757">
        <ele>71.800003051758</ele>
        <time>2025-08-12T12:40:56.000Z</time>
      </trkpt>
      <trkpt lat="43.5114" lon="-0.88767">
        <ele>71.599998474121</ele>
        <time>2025-08-12T12:40:58.000Z</time>
      </trkpt>
      <trkpt lat="43.51141" lon="-0.88767">
        <ele>71.400001525879</ele>
        <time>2025-08-12T12:41:00.000Z</time>
      </trkpt>
      <trkpt lat="43.51141" lon="-0.88767">
        <ele>71.400001525879</ele>
        <time>2025-08-12T12:41:01.000Z</time>
      </trkpt>
      <trkpt lat="43.51147" lon="-0.88769">
        <ele>70.599998474121</ele>
        <time>2025-08-12T12:43:29.000Z</time>
      </trkpt>
      <trkpt lat="43.51151" lon="-0.8877">
        <ele>70.599998474121</ele>
        <time>2025-08-12T12:43:31.000Z</time>
      </trkpt>
      <trkpt lat="43.51159" lon="-0.88773">
        <ele>70.400001525879</ele>
        <time>2025-08-12T12:43:37.000Z</time>
      </trkpt>
      <trkpt lat="43.5117" lon="-0.88779">
        <ele>70.400001525879</ele>
        <time>2025-08-12T12:43:44.000Z</time>
      </trkpt>
      <trkpt lat="43.51181" lon="-0.88791">
        <ele>70.400001525879</ele>
        <time>2025-08-12T12:43:50.000Z</time>
      </trkpt>
      <trkpt lat="43.51195" lon="-0.88818">
        <ele>70.400001525879</ele>
        <time>2025-08-12T12:43:58.000Z</time>
      </trkpt>
      <trkpt lat="43.512" lon="-0.88841">
        <ele>70.400001525879</ele>
        <time>2025-08-12T12:44:04.000Z</time>
      </trkpt>
      <trkpt lat="43.51206" lon="-0.88874">
        <ele>70.400001525879</ele>
        <time>2025-08-12T12:44:12.000Z</time>
      </trkpt>
      <trkpt lat="43.51209" lon="-0.88897">
        <ele>70.199996948242</ele>
        <time>2025-08-12T12:44:18.000Z</time>
      </trkpt>
      <trkpt lat="43.51212" lon="-0.88927">
        <ele>69.800003051758</ele>
        <time>2025-08-12T12:44:25.000Z</time>
      </trkpt>
      <trkpt lat="43.51216" lon="-0.88948">
        <ele>69.599998474121</ele>
        <time>2025-08-12T12:44:30.000Z</time>
      </trkpt>
      <trkpt lat="43.51218" lon="-0.88961">
        <ele>69.599998474121</ele>
        <time>2025-08-12T12:44:33.000Z</time>
      </trkpt>
      <trkpt lat="43.51222" lon="-0.88986">
        <ele>69.199996948242</ele>
        <time>2025-08-12T12:44:39.000Z</time>
      </trkpt>
      <trkpt lat="43.51228" lon="-0.89023">
        <ele>69.199996948242</ele>
        <time>2025-08-12T12:44:48.000Z</time>
      </trkpt>
      <trkpt lat="43.51232" lon="-0.89062">
        <ele>69</ele>
        <time>2025-08-12T12:44:56.000Z</time>
      </trkpt>
      <trkpt lat="43.51236" lon="-0.89086">
        <ele>68.800003051758</ele>
        <time>2025-08-12T12:45:01.000Z</time>
      </trkpt>
      <trkpt lat="43.51239" lon="-0.89103">
        <ele>68.800003051758</ele>
        <time>2025-08-12T12:45:05.000Z</time>
      </trkpt>
      <trkpt lat="43.51242" lon="-0.89118">
        <ele>68.800003051758</ele>
        <time>2025-08-12T12:45:10.000Z</time>
      </trkpt>
      <trkpt lat="43.51242" lon="-0.89118">
        <ele>68.800003051758</ele>
        <time>2025-08-12T12:45:11.000Z</time>
      </trkpt>
      <trkpt lat="43.51246" lon="-0.89115">
        <ele>68.800003051758</ele>
        <time>2025-08-12T12:45:17.000Z</time>
      </trkpt>
      <trkpt lat="43.51246" lon="-0.89115">
        <ele>68.800003051758</ele>
        <time>2025-08-12T12:45:18.000Z</time>
      </trkpt>
      <trkpt lat="43.51241" lon="-0.89118">
        <ele>68.800003051758</ele>
        <time>2025-08-12T12:45:52.000Z</time>
      </trkpt>
      <trkpt lat="43.51242" lon="-0.89124">
        <ele>68.800003051758</ele>
        <time>2025-08-12T12:45:55.000Z</time>
      </trkpt>
      <trkpt lat="43.51245" lon="-0.8914">
        <ele>68.599998474121</ele>
        <time>2025-08-12T12:46:03.000Z</time>
      </trkpt>
      <trkpt lat="43.51245" lon="-0.89141">
        <ele>68.599998474121</ele>
        <time>2025-08-12T12:46:04.000Z</time>
      </trkpt>
      <trkpt lat="43.51245" lon="-0.89141">
        <ele>68.599998474121</ele>
        <time>2025-08-12T12:46:06.000Z</time>
      </trkpt>
      <trkpt lat="43.51247" lon="-0.89157">
        <ele>68.599998474121</ele>
        <time>2025-08-12T12:46:23.000Z</time>
      </trkpt>
      <trkpt lat="43.51248" lon="-0.89161">
        <ele>68.599998474121</ele>
        <time>2025-08-12T12:46:24.000Z</time>
      </trkpt>
      <trkpt lat="43.51251" lon="-0.89183">
        <ele>68.599998474121</ele>
        <time>2025-08-12T12:46:30.000Z</time>
      </trkpt>
      <trkpt lat="43.51257" lon="-0.89217">
        <ele>68.400001525879</ele>
        <time>2025-08-12T12:46:37.000Z</time>
      </trkpt>
      <trkpt lat="43.51264" lon="-0.89269">
        <ele>68.599998474121</ele>
        <time>2025-08-12T12:46:47.000Z</time>
      </trkpt>
      <trkpt lat="43.51264" lon="-0.89274">
        <ele>68.800003051758</ele>
        <time>2025-08-12T12:46:48.000Z</time>
      </trkpt>
      <trkpt lat="43.51267" lon="-0.89309">
        <ele>68.800003051758</ele>
        <time>2025-08-12T12:46:55.000Z</time>
      </trkpt>
      <trkpt lat="43.5127" lon="-0.89358">
        <ele>69</ele>
        <time>2025-08-12T12:47:04.000Z</time>
      </trkpt>
      <trkpt lat="43.5127" lon="-0.89403">
        <ele>69</ele>
        <time>2025-08-12T12:47:12.000Z</time>
      </trkpt>
      <trkpt lat="43.51269" lon="-0.89445">
        <ele>69</ele>
        <time>2025-08-12T12:47:19.000Z</time>
      </trkpt>
      <trkpt lat="43.51267" lon="-0.895">
        <ele>69.199996948242</ele>
        <time>2025-08-12T12:47:28.000Z</time>
      </trkpt>
      <trkpt lat="43.51265" lon="-0.8953">
        <ele>68.800003051758</ele>
        <time>2025-08-12T12:47:33.000Z</time>
      </trkpt>
      <trkpt lat="43.51265" lon="-0.89536">
        <ele>69</ele>
        <time>2025-08-12T12:47:34.000Z</time>
      </trkpt>
      <trkpt lat="43.51264" lon="-0.89542">
        <ele>69</ele>
        <time>2025-08-12T12:47:35.000Z</time>
      </trkpt>
      <trkpt lat="43.51255" lon="-0.89577">
        <ele>69.199996948242</ele>
        <time>2025-08-12T12:47:41.000Z</time>
      </trkpt>
      <trkpt lat="43.51252" lon="-0.89588">
        <ele>69.199996948242</ele>
        <time>2025-08-12T12:47:43.000Z</time>
      </trkpt>
      <trkpt lat="43.51243" lon="-0.89609">
        <ele>69.199996948242</ele>
        <time>2025-08-12T12:47:47.000Z</time>
      </trkpt>
      <trkpt lat="43.51228" lon="-0.89645">
        <ele>69.199996948242</ele>
        <time>2025-08-12T12:47:54.000Z</time>
      </trkpt>
      <trkpt lat="43.51226" lon="-0.8965">
        <ele>69.199996948242</ele>
        <time>2025-08-12T12:47:55.000Z</time>
      </trkpt>
      <trkpt lat="43.5122" lon="-0.89658">
        <ele>69.199996948242</ele>
        <time>2025-08-12T12:47:57.000Z</time>
      </trkpt>
      <trkpt lat="43.51204" lon="-0.89676">
        <ele>69.199996948242</ele>
        <time>2025-08-12T12:48:02.000Z</time>
      </trkpt>
      <trkpt lat="43.51197" lon="-0.89682">
        <ele>69.199996948242</ele>
        <time>2025-08-12T12:48:04.000Z</time>
      </trkpt>
      <trkpt lat="43.5119" lon="-0.89687">
        <ele>69.400001525879</ele>
        <time>2025-08-12T12:48:06.000Z</time>
      </trkpt>
      <trkpt lat="43.51183" lon="-0.89689">
        <ele>69.400001525879</ele>
        <time>2025-08-12T12:48:08.000Z</time>
      </trkpt>
      <trkpt lat="43.51175" lon="-0.89691">
        <ele>69.400001525879</ele>
        <time>2025-08-12T12:48:10.000Z</time>
      </trkpt>
      <trkpt lat="43.51159" lon="-0.89693">
        <ele>69.599998474121</ele>
        <time>2025-08-12T12:48:14.000Z</time>
      </trkpt>
      <trkpt lat="43.51123" lon="-0.89705">
        <ele>69.800003051758</ele>
        <time>2025-08-12T12:48:23.000Z</time>
      </trkpt>
      <trkpt lat="43.5112" lon="-0.89708">
        <ele>69.800003051758</ele>
        <time>2025-08-12T12:48:24.000Z</time>
      </trkpt>
      <trkpt lat="43.51116" lon="-0.89711">
        <ele>69.599998474121</ele>
        <time>2025-08-12T12:48:25.000Z</time>
      </trkpt>
      <trkpt lat="43.51097" lon="-0.89734">
        <ele>69.599998474121</ele>
        <time>2025-08-12T12:48:31.000Z</time>
      </trkpt>
      <trkpt lat="43.51094" lon="-0.89737">
        <ele>69.599998474121</ele>
        <time>2025-08-12T12:48:32.000Z</time>
      </trkpt>
      <trkpt lat="43.51088" lon="-0.89752">
        <ele>70</ele>
        <time>2025-08-12T12:48:36.000Z</time>
      </trkpt>
      <trkpt lat="43.51085" lon="-0.8976">
        <ele>70.400001525879</ele>
        <time>2025-08-12T12:48:39.000Z</time>
      </trkpt>
      <trkpt lat="43.51081" lon="-0.89766">
        <ele>70.800003051758</ele>
        <time>2025-08-12T12:48:42.000Z</time>
      </trkpt>
      <trkpt lat="43.51078" lon="-0.89781">
        <ele>71.599998474121</ele>
        <time>2025-08-12T12:48:48.000Z</time>
      </trkpt>
      <trkpt lat="43.51076" lon="-0.89794">
        <ele>72.199996948242</ele>
        <time>2025-08-12T12:48:53.000Z</time>
      </trkpt>
      <trkpt lat="43.51075" lon="-0.898">
        <ele>72.599998474121</ele>
        <time>2025-08-12T12:48:55.000Z</time>
      </trkpt>
      <trkpt lat="43.51073" lon="-0.89812">
        <ele>73.199996948242</ele>
        <time>2025-08-12T12:48:59.000Z</time>
      </trkpt>
      <trkpt lat="43.51072" lon="-0.89822">
        <ele>73.800003051758</ele>
        <time>2025-08-12T12:49:02.000Z</time>
      </trkpt>
      <trkpt lat="43.51071" lon="-0.89836">
        <ele>74.800003051758</ele>
        <time>2025-08-12T12:49:07.000Z</time>
      </trkpt>
      <trkpt lat="43.51069" lon="-0.89852">
        <ele>76</ele>
        <time>2025-08-12T12:49:13.000Z</time>
      </trkpt>
      <trkpt lat="43.51068" lon="-0.89857">
        <ele>76.199996948242</ele>
        <time>2025-08-12T12:49:15.000Z</time>
      </trkpt>
      <trkpt lat="43.51066" lon="-0.89867">
        <ele>77</ele>
        <time>2025-08-12T12:49:19.000Z</time>
      </trkpt>
      <trkpt lat="43.51066" lon="-0.89875">
        <ele>77.599998474121</ele>
        <time>2025-08-12T12:49:22.000Z</time>
      </trkpt>
      <trkpt lat="43.51066" lon="-0.89888">
        <ele>78.199996948242</ele>
        <time>2025-08-12T12:49:26.000Z</time>
      </trkpt>
      <trkpt lat="43.51067" lon="-0.89898">
        <ele>78.599998474121</ele>
        <time>2025-08-12T12:49:29.000Z</time>
      </trkpt>
      <trkpt lat="43.51067" lon="-0.89915">
        <ele>79.400001525879</ele>
        <time>2025-08-12T12:49:34.000Z</time>
      </trkpt>
      <trkpt lat="43.51067" lon="-0.89922">
        <ele>79.599998474121</ele>
        <time>2025-08-12T12:49:36.000Z</time>
      </trkpt>
      <trkpt lat="43.51065" lon="-0.89961">
        <ele>80.199996948242</ele>
        <time>2025-08-12T12:49:46.000Z</time>
      </trkpt>
      <trkpt lat="43.51063" lon="-0.89973">
        <ele>80.199996948242</ele>
        <time>2025-08-12T12:49:49.000Z</time>
      </trkpt>
      <trkpt lat="43.5106" lon="-0.89991">
        <ele>80.400001525879</ele>
        <time>2025-08-12T12:49:53.000Z</time>
      </trkpt>
      <trkpt lat="43.51052" lon="-0.90042">
        <ele>80.800003051758</ele>
        <time>2025-08-12T12:50:04.000Z</time>
      </trkpt>
      <trkpt lat="43.51047" lon="-0.90085">
        <ele>81.400001525879</ele>
        <time>2025-08-12T12:50:13.000Z</time>
      </trkpt>
      <trkpt lat="43.51045" lon="-0.90094">
        <ele>81.599998474121</ele>
        <time>2025-08-12T12:50:15.000Z</time>
      </trkpt>
      <trkpt lat="43.51042" lon="-0.90127">
        <ele>81.599998474121</ele>
        <time>2025-08-12T12:50:22.000Z</time>
      </trkpt>
      <trkpt lat="43.51038" lon="-0.90149">
        <ele>81.599998474121</ele>
        <time>2025-08-12T12:50:27.000Z</time>
      </trkpt>
      <trkpt lat="43.51036" lon="-0.90163">
        <ele>82</ele>
        <time>2025-08-12T12:50:30.000Z</time>
      </trkpt>
      <trkpt lat="43.51026" lon="-0.90187">
        <ele>82</ele>
        <time>2025-08-12T12:50:36.000Z</time>
      </trkpt>
      <trkpt lat="43.51018" lon="-0.902">
        <ele>82.199996948242</ele>
        <time>2025-08-12T12:50:40.000Z</time>
      </trkpt>
      <trkpt lat="43.51017" lon="-0.90202">
        <ele>82.599998474121</ele>
        <time>2025-08-12T12:50:41.000Z</time>
      </trkpt>
      <trkpt lat="43.51014" lon="-0.90205">
        <ele>82.800003051758</ele>
        <time>2025-08-12T12:50:43.000Z</time>
      </trkpt>
      <trkpt lat="43.51013" lon="-0.90209">
        <ele>83</ele>
        <time>2025-08-12T12:50:45.000Z</time>
      </trkpt>
      <trkpt lat="43.51011" lon="-0.9021">
        <ele>83.199996948242</ele>
        <time>2025-08-12T12:50:46.000Z</time>
      </trkpt>
      <trkpt lat="43.5101" lon="-0.90212">
        <ele>83.400001525879</ele>
        <time>2025-08-12T12:50:47.000Z</time>
      </trkpt>
      <trkpt lat="43.51009" lon="-0.90217">
        <ele>83.800003051758</ele>
        <time>2025-08-12T12:50:49.000Z</time>
      </trkpt>
      <trkpt lat="43.51008" lon="-0.9022">
        <ele>84.199996948242</ele>
        <time>2025-08-12T12:50:51.000Z</time>
      </trkpt>
      <trkpt lat="43.51007" lon="-0.90226">
        <ele>84.400001525879</ele>
        <time>2025-08-12T12:50:53.000Z</time>
      </trkpt>
      <trkpt lat="43.51006" lon="-0.90228">
        <ele>84.599998474121</ele>
        <time>2025-08-12T12:50:54.000Z</time>
      </trkpt>
      <trkpt lat="43.51006" lon="-0.90233">
        <ele>85</ele>
        <time>2025-08-12T12:50:56.000Z</time>
      </trkpt>
      <trkpt lat="43.51005" lon="-0.90235">
        <ele>85.199996948242</ele>
        <time>2025-08-12T12:50:57.000Z</time>
      </trkpt>
      <trkpt lat="43.51003" lon="-0.90239">
        <ele>85.599998474121</ele>
        <time>2025-08-12T12:50:59.000Z</time>
      </trkpt>
      <trkpt lat="43.51002" lon="-0.90243">
        <ele>85.800003051758</ele>
        <time>2025-08-12T12:51:01.000Z</time>
      </trkpt>
      <trkpt lat="43.50999" lon="-0.90249">
        <ele>86.599998474121</ele>
        <time>2025-08-12T12:51:03.000Z</time>
      </trkpt>
      <trkpt lat="43.50992" lon="-0.90259">
        <ele>87.199996948242</ele>
        <time>2025-08-12T12:51:07.000Z</time>
      </trkpt>
      <trkpt lat="43.50986" lon="-0.90267">
        <ele>87.599998474121</ele>
        <time>2025-08-12T12:51:10.000Z</time>
      </trkpt>
      <trkpt lat="43.50979" lon="-0.90276">
        <ele>87.800003051758</ele>
        <time>2025-08-12T12:51:13.000Z</time>
      </trkpt>
      <trkpt lat="43.50968" lon="-0.90291">
        <ele>88.400001525879</ele>
        <time>2025-08-12T12:51:18.000Z</time>
      </trkpt>
      <trkpt lat="43.5096" lon="-0.90304">
        <ele>88.599998474121</ele>
        <time>2025-08-12T12:51:22.000Z</time>
      </trkpt>
      <trkpt lat="43.50946" lon="-0.90325">
        <ele>89</ele>
        <time>2025-08-12T12:51:28.000Z</time>
      </trkpt>
      <trkpt lat="43.50933" lon="-0.90345">
        <ele>89.400001525879</ele>
        <time>2025-08-12T12:51:34.000Z</time>
      </trkpt>
      <trkpt lat="43.50926" lon="-0.90354">
        <ele>89.800003051758</ele>
        <time>2025-08-12T12:51:37.000Z</time>
      </trkpt>
      <trkpt lat="43.50915" lon="-0.90373">
        <ele>90.199996948242</ele>
        <time>2025-08-12T12:51:42.000Z</time>
      </trkpt>
      <trkpt lat="43.50897" lon="-0.90399">
        <ele>90.400001525879</ele>
        <time>2025-08-12T12:51:50.000Z</time>
      </trkpt>
      <trkpt lat="43.50896" lon="-0.90409">
        <ele>90.400001525879</ele>
        <time>2025-08-12T12:51:53.000Z</time>
      </trkpt>
      <trkpt lat="43.50896" lon="-0.90411">
        <ele>90.400001525879</ele>
        <time>2025-08-12T12:51:54.000Z</time>
      </trkpt>
      <trkpt lat="43.50864" lon="-0.90457">
        <ele>91.400001525879</ele>
        <time>2025-08-12T12:52:08.000Z</time>
      </trkpt>
      <trkpt lat="43.50857" lon="-0.90463">
        <ele>91.599998474121</ele>
        <time>2025-08-12T12:52:10.000Z</time>
      </trkpt>
      <trkpt lat="43.50842" lon="-0.90484">
        <ele>91.800003051758</ele>
        <time>2025-08-12T12:52:17.000Z</time>
      </trkpt>
      <trkpt lat="43.5084" lon="-0.90487">
        <ele>91.800003051758</ele>
        <time>2025-08-12T12:52:18.000Z</time>
      </trkpt>
      <trkpt lat="43.50827" lon="-0.90508">
        <ele>92.199996948242</ele>
        <time>2025-08-12T12:52:24.000Z</time>
      </trkpt>
      <trkpt lat="43.50825" lon="-0.90511">
        <ele>92.199996948242</ele>
        <time>2025-08-12T12:52:25.000Z</time>
      </trkpt>
      <trkpt lat="43.50817" lon="-0.90526">
        <ele>92.599998474121</ele>
        <time>2025-08-12T12:52:29.000Z</time>
      </trkpt>
      <trkpt lat="43.50804" lon="-0.90545">
        <ele>92.800003051758</ele>
        <time>2025-08-12T12:52:35.000Z</time>
      </trkpt>
      <trkpt lat="43.50785" lon="-0.90577">
        <ele>93.199996948242</ele>
        <time>2025-08-12T12:52:43.000Z</time>
      </trkpt>
      <trkpt lat="43.50771" lon="-0.90598">
        <ele>93.400001525879</ele>
        <time>2025-08-12T12:52:49.000Z</time>
      </trkpt>
      <trkpt lat="43.50752" lon="-0.90625">
        <ele>93.400001525879</ele>
        <time>2025-08-12T12:52:57.000Z</time>
      </trkpt>
      <trkpt lat="43.50748" lon="-0.90631">
        <ele>93.400001525879</ele>
        <time>2025-08-12T12:52:59.000Z</time>
      </trkpt>
      <trkpt lat="43.50733" lon="-0.90649">
        <ele>93.599998474121</ele>
        <time>2025-08-12T12:53:05.000Z</time>
      </trkpt>
      <trkpt lat="43.50716" lon="-0.90663">
        <ele>93.400001525879</ele>
        <time>2025-08-12T12:53:09.000Z</time>
      </trkpt>
      <trkpt lat="43.50707" lon="-0.90671">
        <ele>93.199996948242</ele>
        <time>2025-08-12T12:53:11.000Z</time>
      </trkpt>
      <trkpt lat="43.50699" lon="-0.90682">
        <ele>92.400001525879</ele>
        <time>2025-08-12T12:53:14.000Z</time>
      </trkpt>
      <trkpt lat="43.50701" lon="-0.90688">
        <ele>91.800003051758</ele>
        <time>2025-08-12T12:53:16.000Z</time>
      </trkpt>
      <trkpt lat="43.50703" lon="-0.90691">
        <ele>91</ele>
        <time>2025-08-12T12:53:17.000Z</time>
      </trkpt>
      <trkpt lat="43.50706" lon="-0.90693">
        <ele>90.599998474121</ele>
        <time>2025-08-12T12:53:18.000Z</time>
      </trkpt>
      <trkpt lat="43.50708" lon="-0.90697">
        <ele>90.400001525879</ele>
        <time>2025-08-12T12:53:19.000Z</time>
      </trkpt>
      <trkpt lat="43.50709" lon="-0.90707">
        <ele>90</ele>
        <time>2025-08-12T12:53:21.000Z</time>
      </trkpt>
      <trkpt lat="43.50708" lon="-0.9071">
        <ele>89.800003051758</ele>
        <time>2025-08-12T12:53:22.000Z</time>
      </trkpt>
      <trkpt lat="43.50705" lon="-0.90714">
        <ele>89.800003051758</ele>
        <time>2025-08-12T12:53:24.000Z</time>
      </trkpt>
      <trkpt lat="43.50702" lon="-0.90717">
        <ele>89.599998474121</ele>
        <time>2025-08-12T12:53:26.000Z</time>
      </trkpt>
      <trkpt lat="43.50699" lon="-0.90719">
        <ele>89.800003051758</ele>
        <time>2025-08-12T12:53:28.000Z</time>
      </trkpt>
      <trkpt lat="43.50697" lon="-0.90721">
        <ele>90</ele>
        <time>2025-08-12T12:53:29.000Z</time>
      </trkpt>
      <trkpt lat="43.50694" lon="-0.90722">
        <ele>90.199996948242</ele>
        <time>2025-08-12T12:53:31.000Z</time>
      </trkpt>
      <trkpt lat="43.50692" lon="-0.90723">
        <ele>90.400001525879</ele>
        <time>2025-08-12T12:53:32.000Z</time>
      </trkpt>
      <trkpt lat="43.50687" lon="-0.90727">
        <ele>91</ele>
        <time>2025-08-12T12:53:35.000Z</time>
      </trkpt>
      <trkpt lat="43.50685" lon="-0.90729">
        <ele>91.400001525879</ele>
        <time>2025-08-12T12:53:37.000Z</time>
      </trkpt>
      <trkpt lat="43.50682" lon="-0.90731">
        <ele>91.599998474121</ele>
        <time>2025-08-12T12:53:39.000Z</time>
      </trkpt>
      <trkpt lat="43.50677" lon="-0.90734">
        <ele>92.199996948242</ele>
        <time>2025-08-12T12:53:42.000Z</time>
      </trkpt>
      <trkpt lat="43.50676" lon="-0.90736">
        <ele>92.199996948242</ele>
        <time>2025-08-12T12:53:43.000Z</time>
      </trkpt>
      <trkpt lat="43.50673" lon="-0.90737">
        <ele>92.400001525879</ele>
        <time>2025-08-12T12:53:45.000Z</time>
      </trkpt>
      <trkpt lat="43.5067" lon="-0.9074">
        <ele>92.800003051758</ele>
        <time>2025-08-12T12:53:47.000Z</time>
      </trkpt>
      <trkpt lat="43.50669" lon="-0.9074">
        <ele>92.800003051758</ele>
        <time>2025-08-12T12:53:48.000Z</time>
      </trkpt>
      <trkpt lat="43.50667" lon="-0.90741">
        <ele>93</ele>
        <time>2025-08-12T12:53:49.000Z</time>
      </trkpt>
      <trkpt lat="43.50664" lon="-0.90743">
        <ele>93.400001525879</ele>
        <time>2025-08-12T12:53:51.000Z</time>
      </trkpt>
      <trkpt lat="43.50658" lon="-0.90748">
        <ele>94</ele>
        <time>2025-08-12T12:53:55.000Z</time>
      </trkpt>
      <trkpt lat="43.50654" lon="-0.90751">
        <ele>94.199996948242</ele>
        <time>2025-08-12T12:53:57.000Z</time>
      </trkpt>
      <trkpt lat="43.50646" lon="-0.90758">
        <ele>95</ele>
        <time>2025-08-12T12:54:02.000Z</time>
      </trkpt>
      <trkpt lat="43.50644" lon="-0.9076">
        <ele>95.400001525879</ele>
        <time>2025-08-12T12:54:04.000Z</time>
      </trkpt>
      <trkpt lat="43.50634" lon="-0.9077">
        <ele>96.400001525879</ele>
        <time>2025-08-12T12:54:10.000Z</time>
      </trkpt>
      <trkpt lat="43.50632" lon="-0.9077">
        <ele>96.400001525879</ele>
        <time>2025-08-12T12:54:11.000Z</time>
      </trkpt>
      <trkpt lat="43.5062" lon="-0.90781">
        <ele>96.599998474121</ele>
        <time>2025-08-12T12:54:18.000Z</time>
      </trkpt>
      <trkpt lat="43.50607" lon="-0.90792">
        <ele>97</ele>
        <time>2025-08-12T12:54:24.000Z</time>
      </trkpt>
      <trkpt lat="43.50599" lon="-0.90799">
        <ele>97.199996948242</ele>
        <time>2025-08-12T12:54:28.000Z</time>
      </trkpt>
      <trkpt lat="43.50593" lon="-0.90803">
        <ele>97.400001525879</ele>
        <time>2025-08-12T12:54:31.000Z</time>
      </trkpt>
      <trkpt lat="43.50591" lon="-0.90805">
        <ele>97.400001525879</ele>
        <time>2025-08-12T12:54:32.000Z</time>
      </trkpt>
      <trkpt lat="43.50572" lon="-0.90817">
        <ele>98</ele>
        <time>2025-08-12T12:54:40.000Z</time>
      </trkpt>
      <trkpt lat="43.50554" lon="-0.90829">
        <ele>98.199996948242</ele>
        <time>2025-08-12T12:54:47.000Z</time>
      </trkpt>
      <trkpt lat="43.50543" lon="-0.90835">
        <ele>98.199996948242</ele>
        <time>2025-08-12T12:54:51.000Z</time>
      </trkpt>
      <trkpt lat="43.50535" lon="-0.90839">
        <ele>98.599998474121</ele>
        <time>2025-08-12T12:54:54.000Z</time>
      </trkpt>
      <trkpt lat="43.50512" lon="-0.90851">
        <ele>98.800003051758</ele>
        <time>2025-08-12T12:55:02.000Z</time>
      </trkpt>
      <trkpt lat="43.50492" lon="-0.90861">
        <ele>99.199996948242</ele>
        <time>2025-08-12T12:55:09.000Z</time>
      </trkpt>
      <trkpt lat="43.50486" lon="-0.90864">
        <ele>99.400001525879</ele>
        <time>2025-08-12T12:55:11.000Z</time>
      </trkpt>
      <trkpt lat="43.50462" lon="-0.90873">
        <ele>100</ele>
        <time>2025-08-12T12:55:19.000Z</time>
      </trkpt>
      <trkpt lat="43.5045" lon="-0.90878">
        <ele>100.19999694824</ele>
        <time>2025-08-12T12:55:23.000Z</time>
      </trkpt>
      <trkpt lat="43.50432" lon="-0.90883">
        <ele>100</ele>
        <time>2025-08-12T12:55:29.000Z</time>
      </trkpt>
      <trkpt lat="43.50409" lon="-0.90888">
        <ele>100.40000152588</ele>
        <time>2025-08-12T12:55:36.000Z</time>
      </trkpt>
      <trkpt lat="43.50402" lon="-0.90889">
        <ele>100.59999847412</ele>
        <time>2025-08-12T12:55:38.000Z</time>
      </trkpt>
      <trkpt lat="43.50379" lon="-0.9089">
        <ele>101.19999694824</ele>
        <time>2025-08-12T12:55:45.000Z</time>
      </trkpt>
      <trkpt lat="43.50355" lon="-0.90891">
        <ele>101.40000152588</ele>
        <time>2025-08-12T12:55:53.000Z</time>
      </trkpt>
      <trkpt lat="43.5035" lon="-0.90893">
        <ele>101.40000152588</ele>
        <time>2025-08-12T12:55:55.000Z</time>
      </trkpt>
      <trkpt lat="43.50349" lon="-0.90892">
        <ele>101.40000152588</ele>
        <time>2025-08-12T12:55:56.000Z</time>
      </trkpt>
      <trkpt lat="43.50347" lon="-0.90892">
        <ele>101.59999847412</ele>
        <time>2025-08-12T12:55:57.000Z</time>
      </trkpt>
      <trkpt lat="43.50334" lon="-0.90893">
        <ele>101.80000305176</ele>
        <time>2025-08-12T12:56:03.000Z</time>
      </trkpt>
      <trkpt lat="43.50317" lon="-0.90893">
        <ele>102</ele>
        <time>2025-08-12T12:56:11.000Z</time>
      </trkpt>
      <trkpt lat="43.50315" lon="-0.90893">
        <ele>102</ele>
        <time>2025-08-12T12:56:12.000Z</time>
      </trkpt>
      <trkpt lat="43.50303" lon="-0.9089">
        <ele>102.19999694824</ele>
        <time>2025-08-12T12:56:17.000Z</time>
      </trkpt>
      <trkpt lat="43.50297" lon="-0.90889">
        <ele>102.40000152588</ele>
        <time>2025-08-12T12:56:21.000Z</time>
      </trkpt>
      <trkpt lat="43.50295" lon="-0.90889">
        <ele>102.40000152588</ele>
        <time>2025-08-12T12:56:22.000Z</time>
      </trkpt>
      <trkpt lat="43.50281" lon="-0.90886">
        <ele>102.80000305176</ele>
        <time>2025-08-12T12:56:29.000Z</time>
      </trkpt>
      <trkpt lat="43.50262" lon="-0.90884">
        <ele>103</ele>
        <time>2025-08-12T12:56:36.000Z</time>
      </trkpt>
      <trkpt lat="43.5024" lon="-0.90878">
        <ele>103.19999694824</ele>
        <time>2025-08-12T12:56:44.000Z</time>
      </trkpt>
      <trkpt lat="43.50235" lon="-0.90877">
        <ele>103.40000152588</ele>
        <time>2025-08-12T12:56:46.000Z</time>
      </trkpt>
      <trkpt lat="43.50221" lon="-0.90874">
        <ele>103.59999847412</ele>
        <time>2025-08-12T12:56:50.000Z</time>
      </trkpt>
      <trkpt lat="43.502" lon="-0.90868">
        <ele>104</ele>
        <time>2025-08-12T12:56:57.000Z</time>
      </trkpt>
      <trkpt lat="43.50191" lon="-0.90862">
        <ele>104.19999694824</ele>
        <time>2025-08-12T12:57:00.000Z</time>
      </trkpt>
      <trkpt lat="43.50181" lon="-0.90859">
        <ele>104.40000152588</ele>
        <time>2025-08-12T12:57:03.000Z</time>
      </trkpt>
      <trkpt lat="43.50165" lon="-0.90851">
        <ele>104.59999847412</ele>
        <time>2025-08-12T12:57:09.000Z</time>
      </trkpt>
      <trkpt lat="43.50156" lon="-0.90848">
        <ele>104.80000305176</ele>
        <time>2025-08-12T12:57:14.000Z</time>
      </trkpt>
      <trkpt lat="43.5014" lon="-0.90841">
        <ele>105.19999694824</ele>
        <time>2025-08-12T12:57:20.000Z</time>
      </trkpt>
      <trkpt lat="43.5013" lon="-0.90835">
        <ele>105.40000152588</ele>
        <time>2025-08-12T12:57:24.000Z</time>
      </trkpt>
      <trkpt lat="43.50122" lon="-0.9083">
        <ele>105.59999847412</ele>
        <time>2025-08-12T12:57:27.000Z</time>
      </trkpt>
      <trkpt lat="43.501" lon="-0.90822">
        <ele>105.80000305176</ele>
        <time>2025-08-12T12:57:34.000Z</time>
      </trkpt>
      <trkpt lat="43.50077" lon="-0.90813">
        <ele>106.19999694824</ele>
        <time>2025-08-12T12:57:42.000Z</time>
      </trkpt>
      <trkpt lat="43.50075" lon="-0.90811">
        <ele>106.40000152588</ele>
        <time>2025-08-12T12:57:43.000Z</time>
      </trkpt>
      <trkpt lat="43.50072" lon="-0.9081">
        <ele>106.40000152588</ele>
        <time>2025-08-12T12:57:44.000Z</time>
      </trkpt>
      <trkpt lat="43.50062" lon="-0.90804">
        <ele>106.59999847412</ele>
        <time>2025-08-12T12:57:47.000Z</time>
      </trkpt>
      <trkpt lat="43.50043" lon="-0.90793">
        <ele>106.59999847412</ele>
        <time>2025-08-12T12:57:53.000Z</time>
      </trkpt>
      <trkpt lat="43.50016" lon="-0.9078">
        <ele>107</ele>
        <time>2025-08-12T12:58:02.000Z</time>
      </trkpt>
      <trkpt lat="43.49995" lon="-0.90773">
        <ele>107.40000152588</ele>
        <time>2025-08-12T12:58:09.000Z</time>
      </trkpt>
      <trkpt lat="43.49977" lon="-0.90762">
        <ele>107.80000305176</ele>
        <time>2025-08-12T12:58:15.000Z</time>
      </trkpt>
      <trkpt lat="43.49948" lon="-0.90749">
        <ele>108.40000152588</ele>
        <time>2025-08-12T12:58:25.000Z</time>
      </trkpt>
      <trkpt lat="43.49939" lon="-0.90745">
        <ele>108.40000152588</ele>
        <time>2025-08-12T12:58:28.000Z</time>
      </trkpt>
      <trkpt lat="43.49928" lon="-0.90742">
        <ele>108.80000305176</ele>
        <time>2025-08-12T12:58:32.000Z</time>
      </trkpt>
      <trkpt lat="43.49925" lon="-0.9074">
        <ele>109</ele>
        <time>2025-08-12T12:58:33.000Z</time>
      </trkpt>
      <trkpt lat="43.49903" lon="-0.90729">
        <ele>109.40000152588</ele>
        <time>2025-08-12T12:58:40.000Z</time>
      </trkpt>
      <trkpt lat="43.49899" lon="-0.90728">
        <ele>109.59999847412</ele>
        <time>2025-08-12T12:58:41.000Z</time>
      </trkpt>
      <trkpt lat="43.49876" lon="-0.90716">
        <ele>110</ele>
        <time>2025-08-12T12:58:48.000Z</time>
      </trkpt>
      <trkpt lat="43.49857" lon="-0.90706">
        <ele>110.19999694824</ele>
        <time>2025-08-12T12:58:54.000Z</time>
      </trkpt>
      <trkpt lat="43.49843" lon="-0.90698">
        <ele>110.19999694824</ele>
        <time>2025-08-12T12:58:59.000Z</time>
      </trkpt>
      <trkpt lat="43.49841" lon="-0.90697">
        <ele>110.40000152588</ele>
        <time>2025-08-12T12:59:00.000Z</time>
      </trkpt>
      <trkpt lat="43.49834" lon="-0.90695">
        <ele>110.80000305176</ele>
        <time>2025-08-12T12:59:04.000Z</time>
      </trkpt>
      <trkpt lat="43.49832" lon="-0.90694">
        <ele>110.80000305176</ele>
        <time>2025-08-12T12:59:06.000Z</time>
      </trkpt>
      <trkpt lat="43.49821" lon="-0.90691">
        <ele>111.19999694824</ele>
        <time>2025-08-12T12:59:12.000Z</time>
      </trkpt>
      <trkpt lat="43.49805" lon="-0.90682">
        <ele>111.40000152588</ele>
        <time>2025-08-12T12:59:18.000Z</time>
      </trkpt>
      <trkpt lat="43.49802" lon="-0.90681">
        <ele>111.40000152588</ele>
        <time>2025-08-12T12:59:19.000Z</time>
      </trkpt>
      <trkpt lat="43.4979" lon="-0.90676">
        <ele>111.80000305176</ele>
        <time>2025-08-12T12:59:24.000Z</time>
      </trkpt>
      <trkpt lat="43.49782" lon="-0.90672">
        <ele>112</ele>
        <time>2025-08-12T12:59:27.000Z</time>
      </trkpt>
      <trkpt lat="43.49767" lon="-0.90665">
        <ele>112.59999847412</ele>
        <time>2025-08-12T12:59:32.000Z</time>
      </trkpt>
      <trkpt lat="43.49758" lon="-0.9066">
        <ele>112.59999847412</ele>
        <time>2025-08-12T12:59:35.000Z</time>
      </trkpt>
      <trkpt lat="43.49734" lon="-0.90648">
        <ele>113</ele>
        <time>2025-08-12T12:59:44.000Z</time>
      </trkpt>
      <trkpt lat="43.49729" lon="-0.90647">
        <ele>113.40000152588</ele>
        <time>2025-08-12T12:59:47.000Z</time>
      </trkpt>
      <trkpt lat="43.49719" lon="-0.90643">
        <ele>113.59999847412</ele>
        <time>2025-08-12T12:59:52.000Z</time>
      </trkpt>
      <trkpt lat="43.49712" lon="-0.9064">
        <ele>113.59999847412</ele>
        <time>2025-08-12T12:59:55.000Z</time>
      </trkpt>
      <trkpt lat="43.49699" lon="-0.90636">
        <ele>113.80000305176</ele>
        <time>2025-08-12T13:00:00.000Z</time>
      </trkpt>
      <trkpt lat="43.49679" lon="-0.90631">
        <ele>114.19999694824</ele>
        <time>2025-08-12T13:00:07.000Z</time>
      </trkpt>
      <trkpt lat="43.49676" lon="-0.90631">
        <ele>114.40000152588</ele>
        <time>2025-08-12T13:00:08.000Z</time>
      </trkpt>
      <trkpt lat="43.49654" lon="-0.90629">
        <ele>114.80000305176</ele>
        <time>2025-08-12T13:00:16.000Z</time>
      </trkpt>
      <trkpt lat="43.49652" lon="-0.90629">
        <ele>114.80000305176</ele>
        <time>2025-08-12T13:00:17.000Z</time>
      </trkpt>
      <trkpt lat="43.4965" lon="-0.90629">
        <ele>115.19999694824</ele>
        <time>2025-08-12T13:00:20.000Z</time>
      </trkpt>
      <trkpt lat="43.49649" lon="-0.90628">
        <ele>115.19999694824</ele>
        <time>2025-08-12T13:00:21.000Z</time>
      </trkpt>
      <trkpt lat="43.48943" lon="-0.9114">
        <ele>121</ele>
        <time>2025-08-12T13:05:10.000Z</time>
      </trkpt>
      <trkpt lat="43.48942" lon="-0.91145">
        <ele>120.80000305176</ele>
        <time>2025-08-12T13:05:11.000Z</time>
      </trkpt>
      <trkpt lat="43.48934" lon="-0.9116">
        <ele>120.80000305176</ele>
        <time>2025-08-12T13:05:15.000Z</time>
      </trkpt>
      <trkpt lat="43.48915" lon="-0.91183">
        <ele>120.59999847412</ele>
        <time>2025-08-12T13:05:21.000Z</time>
      </trkpt>
      <trkpt lat="43.48902" lon="-0.91192">
        <ele>120.59999847412</ele>
        <time>2025-08-12T13:05:25.000Z</time>
      </trkpt>
      <trkpt lat="43.48881" lon="-0.91208">
        <ele>120.19999694824</ele>
        <time>2025-08-12T13:05:31.000Z</time>
      </trkpt>
      <trkpt lat="43.48875" lon="-0.91215">
        <ele>120.19999694824</ele>
        <time>2025-08-12T13:05:33.000Z</time>
      </trkpt>
      <trkpt lat="43.48858" lon="-0.91232">
        <ele>119.80000305176</ele>
        <time>2025-08-12T13:05:38.000Z</time>
      </trkpt>
      <trkpt lat="43.48824" lon="-0.91269">
        <ele>119.40000152588</ele>
        <time>2025-08-12T13:05:48.000Z</time>
      </trkpt>
      <trkpt lat="43.48821" lon="-0.91273">
        <ele>119.40000152588</ele>
        <time>2025-08-12T13:05:49.000Z</time>
      </trkpt>
      <trkpt lat="43.488" lon="-0.91296">
        <ele>119.19999694824</ele>
        <time>2025-08-12T13:05:55.000Z</time>
      </trkpt>
      <trkpt lat="43.48789" lon="-0.91308">
        <ele>118.80000305176</ele>
        <time>2025-08-12T13:05:58.000Z</time>
      </trkpt>
      <trkpt lat="43.48771" lon="-0.9133">
        <ele>118.40000152588</ele>
        <time>2025-08-12T13:06:03.000Z</time>
      </trkpt>
      <trkpt lat="43.48764" lon="-0.91339">
        <ele>118.40000152588</ele>
        <time>2025-08-12T13:06:05.000Z</time>
      </trkpt>
      <trkpt lat="43.48746" lon="-0.91362">
        <ele>118.19999694824</ele>
        <time>2025-08-12T13:06:10.000Z</time>
      </trkpt>
      <trkpt lat="43.48732" lon="-0.91381">
        <ele>117.80000305176</ele>
        <time>2025-08-12T13:06:14.000Z</time>
      </trkpt>
      <trkpt lat="43.48723" lon="-0.91395">
        <ele>117.40000152588</ele>
        <time>2025-08-12T13:06:17.000Z</time>
      </trkpt>
      <trkpt lat="43.4872" lon="-0.91399">
        <ele>117.19999694824</ele>
        <time>2025-08-12T13:06:18.000Z</time>
      </trkpt>
      <trkpt lat="43.48696" lon="-0.91429">
        <ele>116.80000305176</ele>
        <time>2025-08-12T13:06:25.000Z</time>
      </trkpt>
      <trkpt lat="43.48686" lon="-0.91443">
        <ele>116.59999847412</ele>
        <time>2025-08-12T13:06:28.000Z</time>
      </trkpt>
      <trkpt lat="43.48667" lon="-0.91467">
        <ele>116.19999694824</ele>
        <time>2025-08-12T13:06:33.000Z</time>
      </trkpt>
      <trkpt lat="43.4866" lon="-0.91476">
        <ele>116</ele>
        <time>2025-08-12T13:06:35.000Z</time>
      </trkpt>
      <trkpt lat="43.48646" lon="-0.91494">
        <ele>115.80000305176</ele>
        <time>2025-08-12T13:06:39.000Z</time>
      </trkpt>
      <trkpt lat="43.48643" lon="-0.91499">
        <ele>115.59999847412</ele>
        <time>2025-08-12T13:06:40.000Z</time>
      </trkpt>
      <trkpt lat="43.48637" lon="-0.9151">
        <ele>115.40000152588</ele>
        <time>2025-08-12T13:06:42.000Z</time>
      </trkpt>
      <trkpt lat="43.48618" lon="-0.91532">
        <ele>115.19999694824</ele>
        <time>2025-08-12T13:06:47.000Z</time>
      </trkpt>
      <trkpt lat="43.48582" lon="-0.91572">
        <ele>114.40000152588</ele>
        <time>2025-08-12T13:06:56.000Z</time>
      </trkpt>
      <trkpt lat="43.4855" lon="-0.91603">
        <ele>113.59999847412</ele>
        <time>2025-08-12T13:07:04.000Z</time>
      </trkpt>
      <trkpt lat="43.48547" lon="-0.91609">
        <ele>113.40000152588</ele>
        <time>2025-08-12T13:07:06.000Z</time>
      </trkpt>
      <trkpt lat="43.48546" lon="-0.91612">
        <ele>113.40000152588</ele>
        <time>2025-08-12T13:07:07.000Z</time>
      </trkpt>
      <trkpt lat="43.48546" lon="-0.91615">
        <ele>113.19999694824</ele>
        <time>2025-08-12T13:07:08.000Z</time>
      </trkpt>
      <trkpt lat="43.4854" lon="-0.91636">
        <ele>112.80000305176</ele>
        <time>2025-08-12T13:07:13.000Z</time>
      </trkpt>
      <trkpt lat="43.48536" lon="-0.91655">
        <ele>112.40000152588</ele>
        <time>2025-08-12T13:07:16.000Z</time>
      </trkpt>
      <trkpt lat="43.48533" lon="-0.9167">
        <ele>112</ele>
        <time>2025-08-12T13:07:18.000Z</time>
      </trkpt>
      <trkpt lat="43.48527" lon="-0.91695">
        <ele>111.19999694824</ele>
        <time>2025-08-12T13:07:22.000Z</time>
      </trkpt>
      <trkpt lat="43.48522" lon="-0.91705">
        <ele>111</ele>
        <time>2025-08-12T13:07:24.000Z</time>
      </trkpt>
      <trkpt lat="43.48513" lon="-0.91717">
        <ele>110.59999847412</ele>
        <time>2025-08-12T13:07:28.000Z</time>
      </trkpt>
      <trkpt lat="43.48495" lon="-0.91723">
        <ele>110.59999847412</ele>
        <time>2025-08-12T13:07:33.000Z</time>
      </trkpt>
      <trkpt lat="43.48462" lon="-0.91724">
        <ele>110</ele>
        <time>2025-08-12T13:07:41.000Z</time>
      </trkpt>
      <trkpt lat="43.48453" lon="-0.91725">
        <ele>109.80000305176</ele>
        <time>2025-08-12T13:07:43.000Z</time>
      </trkpt>
      <trkpt lat="43.48432" lon="-0.91726">
        <ele>109.19999694824</ele>
        <time>2025-08-12T13:07:47.000Z</time>
      </trkpt>
      <trkpt lat="43.48417" lon="-0.91727">
        <ele>108.59999847412</ele>
        <time>2025-08-12T13:07:50.000Z</time>
      </trkpt>
      <trkpt lat="43.48392" lon="-0.9173">
        <ele>108.19999694824</ele>
        <time>2025-08-12T13:07:55.000Z</time>
      </trkpt>
      <trkpt lat="43.48368" lon="-0.91737">
        <ele>107.59999847412</ele>
        <time>2025-08-12T13:08:01.000Z</time>
      </trkpt>
      <trkpt lat="43.48346" lon="-0.91744">
        <ele>107.19999694824</ele>
        <time>2025-08-12T13:08:08.000Z</time>
      </trkpt>
      <trkpt lat="43.48345" lon="-0.91743">
        <ele>107.19999694824</ele>
        <time>2025-08-12T13:08:09.000Z</time>
      </trkpt>
      <trkpt lat="43.48346" lon="-0.91741">
        <ele>107.19999694824</ele>
        <time>2025-08-12T13:08:10.000Z</time>
      </trkpt>
      <trkpt lat="43.48361" lon="-0.91735">
        <ele>107.19999694824</ele>
        <time>2025-08-12T13:08:15.000Z</time>
      </trkpt>
      <trkpt lat="43.48382" lon="-0.91731">
        <ele>107.19999694824</ele>
        <time>2025-08-12T13:08:21.000Z</time>
      </trkpt>
      <trkpt lat="43.48379" lon="-0.91733">
        <ele>107.19999694824</ele>
        <time>2025-08-12T13:08:23.000Z</time>
      </trkpt>
      <trkpt lat="43.48364" lon="-0.91737">
        <ele>107.19999694824</ele>
        <time>2025-08-12T13:08:28.000Z</time>
      </trkpt>
      <trkpt lat="43.48343" lon="-0.91746">
        <ele>107.19999694824</ele>
        <time>2025-08-12T13:08:34.000Z</time>
      </trkpt>
      <trkpt lat="43.48333" lon="-0.9175">
        <ele>106.80000305176</ele>
        <time>2025-08-12T13:08:39.000Z</time>
      </trkpt>
      <trkpt lat="43.48331" lon="-0.91751">
        <ele>106.59999847412</ele>
        <time>2025-08-12T13:08:43.000Z</time>
      </trkpt>
      <trkpt lat="43.48327" lon="-0.91752">
        <ele>106.59999847412</ele>
        <time>2025-08-12T13:08:51.000Z</time>
      </trkpt>
      <trkpt lat="43.48321" lon="-0.91753">
        <ele>106.59999847412</ele>
        <time>2025-08-12T13:08:53.000Z</time>
      </trkpt>
      <trkpt lat="43.48312" lon="-0.91756">
        <ele>106.59999847412</ele>
        <time>2025-08-12T13:08:56.000Z</time>
      </trkpt>
      <trkpt lat="43.48285" lon="-0.91764">
        <ele>106.19999694824</ele>
        <time>2025-08-12T13:09:03.000Z</time>
      </trkpt>
      <trkpt lat="43.48261" lon="-0.91775">
        <ele>106</ele>
        <time>2025-08-12T13:09:09.000Z</time>
      </trkpt>
      <trkpt lat="43.48252" lon="-0.91778">
        <ele>105.80000305176</ele>
        <time>2025-08-12T13:09:11.000Z</time>
      </trkpt>
      <trkpt lat="43.4823" lon="-0.91786">
        <ele>105.80000305176</ele>
        <time>2025-08-12T13:09:16.000Z</time>
      </trkpt>
      <trkpt lat="43.48194" lon="-0.91799">
        <ele>105.80000305176</ele>
        <time>2025-08-12T13:09:24.000Z</time>
      </trkpt>
      <trkpt lat="43.48167" lon="-0.91809">
        <ele>105.59999847412</ele>
        <time>2025-08-12T13:09:30.000Z</time>
      </trkpt>
      <trkpt lat="43.48162" lon="-0.91809">
        <ele>105.59999847412</ele>
        <time>2025-08-12T13:09:31.000Z</time>
      </trkpt>
      <trkpt lat="43.48152" lon="-0.91809">
        <ele>105.59999847412</ele>
        <time>2025-08-12T13:09:33.000Z</time>
      </trkpt>
      <trkpt lat="43.48142" lon="-0.91807">
        <ele>105.40000152588</ele>
        <time>2025-08-12T13:09:35.000Z</time>
      </trkpt>
      <trkpt lat="43.48127" lon="-0.91805">
        <ele>105.19999694824</ele>
        <time>2025-08-12T13:09:38.000Z</time>
      </trkpt>
      <trkpt lat="43.48096" lon="-0.91799">
        <ele>104.59999847412</ele>
        <time>2025-08-12T13:09:45.000Z</time>
      </trkpt>
      <trkpt lat="43.4809" lon="-0.91799">
        <ele>104.40000152588</ele>
        <time>2025-08-12T13:09:47.000Z</time>
      </trkpt>
      <trkpt lat="43.48071" lon="-0.918">
        <ele>103.80000305176</ele>
        <time>2025-08-12T13:09:52.000Z</time>
      </trkpt>
      <trkpt lat="43.48055" lon="-0.91802">
        <ele>103.40000152588</ele>
        <time>2025-08-12T13:09:56.000Z</time>
      </trkpt>
      <trkpt lat="43.48036" lon="-0.91805">
        <ele>103.19999694824</ele>
        <time>2025-08-12T13:10:00.000Z</time>
      </trkpt>
      <trkpt lat="43.47991" lon="-0.91812">
        <ele>102.40000152588</ele>
        <time>2025-08-12T13:10:09.000Z</time>
      </trkpt>
      <trkpt lat="43.47981" lon="-0.91814">
        <ele>102.40000152588</ele>
        <time>2025-08-12T13:10:11.000Z</time>
      </trkpt>
      <trkpt lat="43.47946" lon="-0.9182">
        <ele>101.80000305176</ele>
        <time>2025-08-12T13:10:18.000Z</time>
      </trkpt>
      <trkpt lat="43.47899" lon="-0.91827">
        <ele>101.40000152588</ele>
        <time>2025-08-12T13:10:28.000Z</time>
      </trkpt>
      <trkpt lat="43.47868" lon="-0.91833">
        <ele>101.40000152588</ele>
        <time>2025-08-12T13:10:35.000Z</time>
      </trkpt>
      <trkpt lat="43.47839" lon="-0.91838">
        <ele>101.40000152588</ele>
        <time>2025-08-12T13:10:42.000Z</time>
      </trkpt>
      <trkpt lat="43.47834" lon="-0.91839">
        <ele>101.40000152588</ele>
        <time>2025-08-12T13:10:43.000Z</time>
      </trkpt>
      <trkpt lat="43.47795" lon="-0.91844">
        <ele>101.80000305176</ele>
        <time>2025-08-12T13:10:52.000Z</time>
      </trkpt>
      <trkpt lat="43.47756" lon="-0.91848">
        <ele>101.59999847412</ele>
        <time>2025-08-12T13:11:00.000Z</time>
      </trkpt>
      <trkpt lat="43.4775" lon="-0.91848">
        <ele>101.59999847412</ele>
        <time>2025-08-12T13:11:01.000Z</time>
      </trkpt>
      <trkpt lat="43.47723" lon="-0.91849">
        <ele>101.19999694824</ele>
        <time>2025-08-12T13:11:06.000Z</time>
      </trkpt>
      <trkpt lat="43.47707" lon="-0.91848">
        <ele>100.80000305176</ele>
        <time>2025-08-12T13:11:09.000Z</time>
      </trkpt>
      <trkpt lat="43.47691" lon="-0.91844">
        <ele>100.40000152588</ele>
        <time>2025-08-12T13:11:12.000Z</time>
      </trkpt>
      <trkpt lat="43.47683" lon="-0.91839">
        <ele>100.19999694824</ele>
        <time>2025-08-12T13:11:14.000Z</time>
      </trkpt>
      <trkpt lat="43.47676" lon="-0.91831">
        <ele>100</ele>
        <time>2025-08-12T13:11:16.000Z</time>
      </trkpt>
      <trkpt lat="43.47672" lon="-0.91827">
        <ele>99.800003051758</ele>
        <time>2025-08-12T13:11:18.000Z</time>
      </trkpt>
      <trkpt lat="43.47668" lon="-0.91829">
        <ele>99.400001525879</ele>
        <time>2025-08-12T13:11:21.000Z</time>
      </trkpt>
      <trkpt lat="43.47668" lon="-0.91829">
        <ele>99.400001525879</ele>
        <time>2025-08-12T13:11:24.000Z</time>
      </trkpt>
      <trkpt lat="43.47667" lon="-0.91811">
        <ele>102.80000305176</ele>
        <time>2025-08-12T13:29:15.000Z</time>
      </trkpt>
      <trkpt lat="43.47659" lon="-0.91795">
        <ele>102.59999847412</ele>
        <time>2025-08-12T13:29:20.000Z</time>
      </trkpt>
      <trkpt lat="43.47645" lon="-0.91771">
        <ele>102.19999694824</ele>
        <time>2025-08-12T13:29:26.000Z</time>
      </trkpt>
      <trkpt lat="43.47635" lon="-0.91759">
        <ele>101.59999847412</ele>
        <time>2025-08-12T13:29:29.000Z</time>
      </trkpt>
      <trkpt lat="43.47629" lon="-0.9175">
        <ele>101.40000152588</ele>
        <time>2025-08-12T13:29:31.000Z</time>
      </trkpt>
      <trkpt lat="43.47624" lon="-0.91746">
        <ele>101.19999694824</ele>
        <time>2025-08-12T13:29:32.000Z</time>
      </trkpt>
      <trkpt lat="43.4762" lon="-0.91742">
        <ele>101.19999694824</ele>
        <time>2025-08-12T13:29:33.000Z</time>
      </trkpt>
      <trkpt lat="43.47609" lon="-0.91735">
        <ele>100.59999847412</ele>
        <time>2025-08-12T13:29:35.000Z</time>
      </trkpt>
      <trkpt lat="43.47603" lon="-0.91733">
        <ele>100.19999694824</ele>
        <time>2025-08-12T13:29:36.000Z</time>
      </trkpt>
      <trkpt lat="43.47584" lon="-0.91728">
        <ele>99.400001525879</ele>
        <time>2025-08-12T13:29:39.000Z</time>
      </trkpt>
      <trkpt lat="43.47566" lon="-0.91722">
        <ele>98.800003051758</ele>
        <time>2025-08-12T13:29:42.000Z</time>
      </trkpt>
      <trkpt lat="43.47554" lon="-0.91718">
        <ele>98.199996948242</ele>
        <time>2025-08-12T13:29:44.000Z</time>
      </trkpt>
      <trkpt lat="43.47516" lon="-0.91707">
        <ele>97.599998474121</ele>
        <time>2025-08-12T13:29:50.000Z</time>
      </trkpt>
      <trkpt lat="43.47498" lon="-0.91702">
        <ele>97.199996948242</ele>
        <time>2025-08-12T13:29:53.000Z</time>
      </trkpt>
      <trkpt lat="43.4747" lon="-0.91694">
        <ele>96.599998474121</ele>
        <time>2025-08-12T13:29:58.000Z</time>
      </trkpt>
      <trkpt lat="43.47456" lon="-0.91691">
        <ele>96.199996948242</ele>
        <time>2025-08-12T13:30:01.000Z</time>
      </trkpt>
      <trkpt lat="43.47451" lon="-0.91691">
        <ele>96.199996948242</ele>
        <time>2025-08-12T13:30:02.000Z</time>
      </trkpt>
      <trkpt lat="43.47447" lon="-0.91693">
        <ele>96</ele>
        <time>2025-08-12T13:30:03.000Z</time>
      </trkpt>
      <trkpt lat="43.4744" lon="-0.917">
        <ele>96</ele>
        <time>2025-08-12T13:30:05.000Z</time>
      </trkpt>
      <trkpt lat="43.47435" lon="-0.91711">
        <ele>95.800003051758</ele>
        <time>2025-08-12T13:30:07.000Z</time>
      </trkpt>
      <trkpt lat="43.47433" lon="-0.91722">
        <ele>95.800003051758</ele>
        <time>2025-08-12T13:30:09.000Z</time>
      </trkpt>
      <trkpt lat="43.47426" lon="-0.91769">
        <ele>95.599998474121</ele>
        <time>2025-08-12T13:30:16.000Z</time>
      </trkpt>
      <trkpt lat="43.47425" lon="-0.91776">
        <ele>95.400001525879</ele>
        <time>2025-08-12T13:30:17.000Z</time>
      </trkpt>
      <trkpt lat="43.47418" lon="-0.91815">
        <ele>95.199996948242</ele>
        <time>2025-08-12T13:30:23.000Z</time>
      </trkpt>
      <trkpt lat="43.47409" lon="-0.91874">
        <ele>94.800003051758</ele>
        <time>2025-08-12T13:30:31.000Z</time>
      </trkpt>
      <trkpt lat="43.47394" lon="-0.91944">
        <ele>94.199996948242</ele>
        <time>2025-08-12T13:30:41.000Z</time>
      </trkpt>
      <trkpt lat="43.47392" lon="-0.9195">
        <ele>94.199996948242</ele>
        <time>2025-08-12T13:30:42.000Z</time>
      </trkpt>
      <trkpt lat="43.4739" lon="-0.91956">
        <ele>94.199996948242</ele>
        <time>2025-08-12T13:30:43.000Z</time>
      </trkpt>
      <trkpt lat="43.47381" lon="-0.91973">
        <ele>94</ele>
        <time>2025-08-12T13:30:46.000Z</time>
      </trkpt>
      <trkpt lat="43.47359" lon="-0.92016">
        <ele>93.800003051758</ele>
        <time>2025-08-12T13:30:54.000Z</time>
      </trkpt>
      <trkpt lat="43.47348" lon="-0.92039">
        <ele>93.800003051758</ele>
        <time>2025-08-12T13:30:59.000Z</time>
      </trkpt>
      <trkpt lat="43.47325" lon="-0.92078">
        <ele>93.599998474121</ele>
        <time>2025-08-12T13:31:08.000Z</time>
      </trkpt>
      <trkpt lat="43.47315" lon="-0.921">
        <ele>93.599998474121</ele>
        <time>2025-08-12T13:31:13.000Z</time>
      </trkpt>
      <trkpt lat="43.47296" lon="-0.92135">
        <ele>94</ele>
        <time>2025-08-12T13:31:21.000Z</time>
      </trkpt>
      <trkpt lat="43.47281" lon="-0.92167">
        <ele>94</ele>
        <time>2025-08-12T13:31:28.000Z</time>
      </trkpt>
      <trkpt lat="43.47266" lon="-0.92198">
        <ele>94</ele>
        <time>2025-08-12T13:31:35.000Z</time>
      </trkpt>
      <trkpt lat="43.47238" lon="-0.92249">
        <ele>93.599998474121</ele>
        <time>2025-08-12T13:31:45.000Z</time>
      </trkpt>
      <trkpt lat="43.4722" lon="-0.92282">
        <ele>93</ele>
        <time>2025-08-12T13:31:51.000Z</time>
      </trkpt>
      <trkpt lat="43.47217" lon="-0.92288">
        <ele>93</ele>
        <time>2025-08-12T13:31:52.000Z</time>
      </trkpt>
      <trkpt lat="43.472" lon="-0.92326">
        <ele>92.199996948242</ele>
        <time>2025-08-12T13:31:58.000Z</time>
      </trkpt>
      <trkpt lat="43.47198" lon="-0.92334">
        <ele>92.199996948242</ele>
        <time>2025-08-12T13:31:59.000Z</time>
      </trkpt>
      <trkpt lat="43.47197" lon="-0.92343">
        <ele>92</ele>
        <time>2025-08-12T13:32:00.000Z</time>
      </trkpt>
      <trkpt lat="43.47196" lon="-0.92351">
        <ele>91.800003051758</ele>
        <time>2025-08-12T13:32:01.000Z</time>
      </trkpt>
      <trkpt lat="43.47195" lon="-0.92377">
        <ele>91.400001525879</ele>
        <time>2025-08-12T13:32:04.000Z</time>
      </trkpt>
      <trkpt lat="43.47195" lon="-0.92385">
        <ele>91</ele>
        <time>2025-08-12T13:32:05.000Z</time>
      </trkpt>
      <trkpt lat="43.47197" lon="-0.92405">
        <ele>89.599998474121</ele>
        <time>2025-08-12T13:32:09.000Z</time>
      </trkpt>
      <trkpt lat="43.47197" lon="-0.92405">
        <ele>88.800003051758</ele>
        <time>2025-08-12T13:32:11.000Z</time>
      </trkpt>
      <trkpt lat="43.47198" lon="-0.92412">
        <ele>87.400001525879</ele>
        <time>2025-08-12T13:32:33.000Z</time>
      </trkpt>
      <trkpt lat="43.47201" lon="-0.92437">
        <ele>87.400001525879</ele>
        <time>2025-08-12T13:32:38.000Z</time>
      </trkpt>
      <trkpt lat="43.47209" lon="-0.92457">
        <ele>87.400001525879</ele>
        <time>2025-08-12T13:32:42.000Z</time>
      </trkpt>
      <trkpt lat="43.47215" lon="-0.92468">
        <ele>87.199996948242</ele>
        <time>2025-08-12T13:32:45.000Z</time>
      </trkpt>
      <trkpt lat="43.47218" lon="-0.92474">
        <ele>87.199996948242</ele>
        <time>2025-08-12T13:32:49.000Z</time>
      </trkpt>
      <trkpt lat="43.47218" lon="-0.92474">
        <ele>87.199996948242</ele>
        <time>2025-08-12T13:32:50.000Z</time>
      </trkpt>
      <trkpt lat="43.47225" lon="-0.92483">
        <ele>87</ele>
        <time>2025-08-12T13:33:08.000Z</time>
      </trkpt>
      <trkpt lat="43.47227" lon="-0.92487">
        <ele>87.199996948242</ele>
        <time>2025-08-12T13:33:10.000Z</time>
      </trkpt>
      <trkpt lat="43.47231" lon="-0.92499">
        <ele>87.199996948242</ele>
        <time>2025-08-12T13:33:15.000Z</time>
      </trkpt>
      <trkpt lat="43.47231" lon="-0.92501">
        <ele>87.199996948242</ele>
        <time>2025-08-12T13:33:16.000Z</time>
      </trkpt>
      <trkpt lat="43.47235" lon="-0.92516">
        <ele>87.199996948242</ele>
        <time>2025-08-12T13:33:22.000Z</time>
      </trkpt>
      <trkpt lat="43.47245" lon="-0.92536">
        <ele>87.199996948242</ele>
        <time>2025-08-12T13:33:28.000Z</time>
      </trkpt>
      <trkpt lat="43.47251" lon="-0.9255">
        <ele>87</ele>
        <time>2025-08-12T13:33:34.000Z</time>
      </trkpt>
      <trkpt lat="43.47253" lon="-0.92549">
        <ele>87</ele>
        <time>2025-08-12T13:33:37.000Z</time>
      </trkpt>
      <trkpt lat="43.47253" lon="-0.92546">
        <ele>87</ele>
        <time>2025-08-12T13:33:38.000Z</time>
      </trkpt>
      <trkpt lat="43.47247" lon="-0.92544">
        <ele>87</ele>
        <time>2025-08-12T13:33:42.000Z</time>
      </trkpt>
      <trkpt lat="43.47243" lon="-0.92542">
        <ele>87</ele>
        <time>2025-08-12T13:33:46.000Z</time>
      </trkpt>
      <trkpt lat="43.47242" lon="-0.92541">
        <ele>87</ele>
        <time>2025-08-12T13:33:47.000Z</time>
      </trkpt>
      <trkpt lat="43.47241" lon="-0.9254">
        <ele>87</ele>
        <time>2025-08-12T13:33:48.000Z</time>
      </trkpt>
      <trkpt lat="43.47239" lon="-0.92535">
        <ele>87</ele>
        <time>2025-08-12T13:33:51.000Z</time>
      </trkpt>
      <trkpt lat="43.47238" lon="-0.92534">
        <ele>87</ele>
        <time>2025-08-12T13:33:52.000Z</time>
      </trkpt>
      <trkpt lat="43.47238" lon="-0.92533">
        <ele>86.800003051758</ele>
        <time>2025-08-12T13:33:55.000Z</time>
      </trkpt>
      <trkpt lat="43.47243" lon="-0.92542">
        <ele>86.199996948242</ele>
        <time>2025-08-12T13:36:07.000Z</time>
      </trkpt>
      <trkpt lat="43.47243" lon="-0.92542">
        <ele>86.199996948242</ele>
        <time>2025-08-12T13:36:08.000Z</time>
      </trkpt>
      <trkpt lat="43.47244" lon="-0.92541">
        <ele>86.199996948242</ele>
        <time>2025-08-12T13:36:11.000Z</time>
      </trkpt>
      <trkpt lat="43.47249" lon="-0.92544">
        <ele>86.199996948242</ele>
        <time>2025-08-12T13:36:28.000Z</time>
      </trkpt>
      <trkpt lat="43.47259" lon="-0.92557">
        <ele>86.199996948242</ele>
        <time>2025-08-12T13:36:34.000Z</time>
      </trkpt>
      <trkpt lat="43.4726" lon="-0.92558">
        <ele>86.199996948242</ele>
        <time>2025-08-12T13:36:38.000Z</time>
      </trkpt>
      <trkpt lat="43.47267" lon="-0.92565">
        <ele>89.400001525879</ele>
        <time>2025-08-12T13:57:38.000Z</time>
      </trkpt>
      <trkpt lat="43.47267" lon="-0.92567">
        <ele>89.400001525879</ele>
        <time>2025-08-12T13:57:39.000Z</time>
      </trkpt>
      <trkpt lat="43.47269" lon="-0.92571">
        <ele>89.400001525879</ele>
        <time>2025-08-12T13:57:41.000Z</time>
      </trkpt>
      <trkpt lat="43.47278" lon="-0.92582">
        <ele>89.599998474121</ele>
        <time>2025-08-12T13:57:47.000Z</time>
      </trkpt>
      <trkpt lat="43.47278" lon="-0.92583">
        <ele>89.599998474121</ele>
        <time>2025-08-12T13:57:48.000Z</time>
      </trkpt>
      <trkpt lat="43.47281" lon="-0.92587">
        <ele>89.800003051758</ele>
        <time>2025-08-12T13:57:51.000Z</time>
      </trkpt>
      <trkpt lat="43.47285" lon="-0.92591">
        <ele>89.800003051758</ele>
        <time>2025-08-12T13:57:54.000Z</time>
      </trkpt>
      <trkpt lat="43.47296" lon="-0.92602">
        <ele>89.800003051758</ele>
        <time>2025-08-12T13:58:02.000Z</time>
      </trkpt>
      <trkpt lat="43.47301" lon="-0.9261">
        <ele>90</ele>
        <time>2025-08-12T13:58:06.000Z</time>
      </trkpt>
      <trkpt lat="43.47301" lon="-0.92615">
        <ele>90.199996948242</ele>
        <time>2025-08-12T13:58:09.000Z</time>
      </trkpt>
      <trkpt lat="43.47297" lon="-0.92621">
        <ele>90.199996948242</ele>
        <time>2025-08-12T13:58:12.000Z</time>
      </trkpt>
      <trkpt lat="43.47291" lon="-0.92626">
        <ele>90.199996948242</ele>
        <time>2025-08-12T13:58:15.000Z</time>
      </trkpt>
      <trkpt lat="43.47277" lon="-0.92641">
        <ele>89.800003051758</ele>
        <time>2025-08-12T13:58:21.000Z</time>
      </trkpt>
      <trkpt lat="43.47262" lon="-0.92656">
        <ele>89.400001525879</ele>
        <time>2025-08-12T13:58:28.000Z</time>
      </trkpt>
      <trkpt lat="43.47262" lon="-0.92658">
        <ele>89.199996948242</ele>
        <time>2025-08-12T13:58:29.000Z</time>
      </trkpt>
      <trkpt lat="43.47263" lon="-0.92662">
        <ele>89.199996948242</ele>
        <time>2025-08-12T13:58:31.000Z</time>
      </trkpt>
      <trkpt lat="43.47266" lon="-0.92668">
        <ele>89.199996948242</ele>
        <time>2025-08-12T13:58:33.000Z</time>
      </trkpt>
      <trkpt lat="43.47271" lon="-0.92675">
        <ele>89.199996948242</ele>
        <time>2025-08-12T13:58:36.000Z</time>
      </trkpt>
      <trkpt lat="43.47276" lon="-0.92675">
        <ele>89.199996948242</ele>
        <time>2025-08-12T13:58:38.000Z</time>
      </trkpt>
      <trkpt lat="43.47294" lon="-0.92669">
        <ele>89.199996948242</ele>
        <time>2025-08-12T13:58:46.000Z</time>
      </trkpt>
      <trkpt lat="43.47301" lon="-0.92671">
        <ele>89.400001525879</ele>
        <time>2025-08-12T13:58:49.000Z</time>
      </trkpt>
      <trkpt lat="43.47304" lon="-0.92676">
        <ele>89.599998474121</ele>
        <time>2025-08-12T13:58:51.000Z</time>
      </trkpt>
      <trkpt lat="43.47309" lon="-0.92687">
        <ele>89.800003051758</ele>
        <time>2025-08-12T13:58:55.000Z</time>
      </trkpt>
      <trkpt lat="43.47312" lon="-0.92687">
        <ele>90</ele>
        <time>2025-08-12T13:58:56.000Z</time>
      </trkpt>
      <trkpt lat="43.47319" lon="-0.92683">
        <ele>90</ele>
        <time>2025-08-12T13:59:00.000Z</time>
      </trkpt>
      <trkpt lat="43.4732" lon="-0.92683">
        <ele>90.199996948242</ele>
        <time>2025-08-12T13:59:01.000Z</time>
      </trkpt>
      <trkpt lat="43.4732" lon="-0.92683">
        <ele>90.199996948242</ele>
        <time>2025-08-12T13:59:05.000Z</time>
      </trkpt>
      <trkpt lat="43.47316" lon="-0.92689">
        <ele>89.400001525879</ele>
        <time>2025-08-12T13:59:45.000Z</time>
      </trkpt>
      <trkpt lat="43.47311" lon="-0.92692">
        <ele>89.400001525879</ele>
        <time>2025-08-12T13:59:47.000Z</time>
      </trkpt>
      <trkpt lat="43.47299" lon="-0.927">
        <ele>89.400001525879</ele>
        <time>2025-08-12T13:59:52.000Z</time>
      </trkpt>
      <trkpt lat="43.47286" lon="-0.92711">
        <ele>89.400001525879</ele>
        <time>2025-08-12T13:59:57.000Z</time>
      </trkpt>
      <trkpt lat="43.47281" lon="-0.92712">
        <ele>89.400001525879</ele>
        <time>2025-08-12T13:59:59.000Z</time>
      </trkpt>
      <trkpt lat="43.47279" lon="-0.92709">
        <ele>89.199996948242</ele>
        <time>2025-08-12T14:00:00.000Z</time>
      </trkpt>
      <trkpt lat="43.47269" lon="-0.92688">
        <ele>89</ele>
        <time>2025-08-12T14:00:06.000Z</time>
      </trkpt>
      <trkpt lat="43.4726" lon="-0.92662">
        <ele>88.599998474121</ele>
        <time>2025-08-12T14:00:13.000Z</time>
      </trkpt>
      <trkpt lat="43.47258" lon="-0.92661">
        <ele>88.599998474121</ele>
        <time>2025-08-12T14:00:14.000Z</time>
      </trkpt>
      <trkpt lat="43.47252" lon="-0.92662">
        <ele>88.599998474121</ele>
        <time>2025-08-12T14:00:16.000Z</time>
      </trkpt>
      <trkpt lat="43.47231" lon="-0.92675">
        <ele>88.400001525879</ele>
        <time>2025-08-12T14:00:24.000Z</time>
      </trkpt>
      <trkpt lat="43.47224" lon="-0.92677">
        <ele>88.400001525879</ele>
        <time>2025-08-12T14:00:26.000Z</time>
      </trkpt>
      <trkpt lat="43.47211" lon="-0.92677">
        <ele>88.199996948242</ele>
        <time>2025-08-12T14:00:30.000Z</time>
      </trkpt>
      <trkpt lat="43.47181" lon="-0.92675">
        <ele>88</ele>
        <time>2025-08-12T14:00:38.000Z</time>
      </trkpt>
      <trkpt lat="43.47178" lon="-0.92676">
        <ele>88</ele>
        <time>2025-08-12T14:00:39.000Z</time>
      </trkpt>
      <trkpt lat="43.47175" lon="-0.92683">
        <ele>88</ele>
        <time>2025-08-12T14:00:41.000Z</time>
      </trkpt>
      <trkpt lat="43.47175" lon="-0.92704">
        <ele>88</ele>
        <time>2025-08-12T14:00:46.000Z</time>
      </trkpt>
      <trkpt lat="43.47174" lon="-0.92711">
        <ele>88</ele>
        <time>2025-08-12T14:00:48.000Z</time>
      </trkpt>
      <trkpt lat="43.47172" lon="-0.92713">
        <ele>88</ele>
        <time>2025-08-12T14:00:49.000Z</time>
      </trkpt>
      <trkpt lat="43.47169" lon="-0.92714">
        <ele>88</ele>
        <time>2025-08-12T14:00:50.000Z</time>
      </trkpt>
      <trkpt lat="43.4716" lon="-0.92719">
        <ele>88</ele>
        <time>2025-08-12T14:00:53.000Z</time>
      </trkpt>
      <trkpt lat="43.47148" lon="-0.92719">
        <ele>88</ele>
        <time>2025-08-12T14:00:57.000Z</time>
      </trkpt>
      <trkpt lat="43.47141" lon="-0.92718">
        <ele>88.199996948242</ele>
        <time>2025-08-12T14:01:00.000Z</time>
      </trkpt>
      <trkpt lat="43.47138" lon="-0.92719">
        <ele>88.199996948242</ele>
        <time>2025-08-12T14:01:01.000Z</time>
      </trkpt>
      <trkpt lat="43.4711" lon="-0.92735">
        <ele>88.400001525879</ele>
        <time>2025-08-12T14:01:10.000Z</time>
      </trkpt>
      <trkpt lat="43.471" lon="-0.92748">
        <ele>88.400001525879</ele>
        <time>2025-08-12T14:01:14.000Z</time>
      </trkpt>
      <trkpt lat="43.47092" lon="-0.92776">
        <ele>88.199996948242</ele>
        <time>2025-08-12T14:01:20.000Z</time>
      </trkpt>
      <trkpt lat="43.47076" lon="-0.92799">
        <ele>88.199996948242</ele>
        <time>2025-08-12T14:01:27.000Z</time>
      </trkpt>
      <trkpt lat="43.47066" lon="-0.92812">
        <ele>88.599998474121</ele>
        <time>2025-08-12T14:01:32.000Z</time>
      </trkpt>
      <trkpt lat="43.47055" lon="-0.92825">
        <ele>88.599998474121</ele>
        <time>2025-08-12T14:01:38.000Z</time>
      </trkpt>
      <trkpt lat="43.47041" lon="-0.92837">
        <ele>89</ele>
        <time>2025-08-12T14:01:44.000Z</time>
      </trkpt>
      <trkpt lat="43.47024" lon="-0.92829">
        <ele>89</ele>
        <time>2025-08-12T14:01:49.000Z</time>
      </trkpt>
      <trkpt lat="43.47013" lon="-0.92823">
        <ele>89</ele>
        <time>2025-08-12T14:01:52.000Z</time>
      </trkpt>
      <trkpt lat="43.47004" lon="-0.92817">
        <ele>89.400001525879</ele>
        <time>2025-08-12T14:01:55.000Z</time>
      </trkpt>
      <trkpt lat="43.46972" lon="-0.92802">
        <ele>89.400001525879</ele>
        <time>2025-08-12T14:02:03.000Z</time>
      </trkpt>
      <trkpt lat="43.46932" lon="-0.92776">
        <ele>89</ele>
        <time>2025-08-12T14:02:12.000Z</time>
      </trkpt>
      <trkpt lat="43.46909" lon="-0.92764">
        <ele>88.599998474121</ele>
        <time>2025-08-12T14:02:18.000Z</time>
      </trkpt>
      <trkpt lat="43.46891" lon="-0.92758">
        <ele>88.400001525879</ele>
        <time>2025-08-12T14:02:24.000Z</time>
      </trkpt>
      <trkpt lat="43.46872" lon="-0.92736">
        <ele>88.199996948242</ele>
        <time>2025-08-12T14:02:31.000Z</time>
      </trkpt>
      <trkpt lat="43.46852" lon="-0.92711">
        <ele>88.199996948242</ele>
        <time>2025-08-12T14:02:38.000Z</time>
      </trkpt>
      <trkpt lat="43.46843" lon="-0.92693">
        <ele>88.199996948242</ele>
        <time>2025-08-12T14:02:42.000Z</time>
      </trkpt>
      <trkpt lat="43.46839" lon="-0.92688">
        <ele>88.199996948242</ele>
        <time>2025-08-12T14:02:43.000Z</time>
      </trkpt>
      <trkpt lat="43.46809" lon="-0.92655">
        <ele>88.400001525879</ele>
        <time>2025-08-12T14:02:52.000Z</time>
      </trkpt>
      <trkpt lat="43.4678" lon="-0.92619">
        <ele>88.599998474121</ele>
        <time>2025-08-12T14:03:01.000Z</time>
      </trkpt>
      <trkpt lat="43.46774" lon="-0.92603">
        <ele>88.800003051758</ele>
        <time>2025-08-12T14:03:04.000Z</time>
      </trkpt>
      <trkpt lat="43.46774" lon="-0.92598">
        <ele>88.800003051758</ele>
        <time>2025-08-12T14:03:05.000Z</time>
      </trkpt>
      <trkpt lat="43.46773" lon="-0.92592">
        <ele>88.800003051758</ele>
        <time>2025-08-12T14:03:06.000Z</time>
      </trkpt>
      <trkpt lat="43.46767" lon="-0.92573">
        <ele>89.199996948242</ele>
        <time>2025-08-12T14:03:11.000Z</time>
      </trkpt>
      <trkpt lat="43.46766" lon="-0.92572">
        <ele>89.400001525879</ele>
        <time>2025-08-12T14:03:12.000Z</time>
      </trkpt>
      <trkpt lat="43.46762" lon="-0.92571">
        <ele>89.800003051758</ele>
        <time>2025-08-12T14:03:15.000Z</time>
      </trkpt>
      <trkpt lat="43.4676" lon="-0.92571">
        <ele>89.800003051758</ele>
        <time>2025-08-12T14:03:16.000Z</time>
      </trkpt>
      <trkpt lat="43.46751" lon="-0.92574">
        <ele>90</ele>
        <time>2025-08-12T14:03:19.000Z</time>
      </trkpt>
      <trkpt lat="43.46728" lon="-0.92578">
        <ele>90.199996948242</ele>
        <time>2025-08-12T14:03:25.000Z</time>
      </trkpt>
      <trkpt lat="43.46697" lon="-0.92581">
        <ele>90.599998474121</ele>
        <time>2025-08-12T14:03:33.000Z</time>
      </trkpt>
      <trkpt lat="43.46674" lon="-0.92579">
        <ele>90.599998474121</ele>
        <time>2025-08-12T14:03:39.000Z</time>
      </trkpt>
      <trkpt lat="43.46654" lon="-0.92573">
        <ele>90.599998474121</ele>
        <time>2025-08-12T14:03:44.000Z</time>
      </trkpt>
      <trkpt lat="43.46625" lon="-0.92551">
        <ele>90.800003051758</ele>
        <time>2025-08-12T14:03:52.000Z</time>
      </trkpt>
      <trkpt lat="43.46605" lon="-0.92532">
        <ele>91</ele>
        <time>2025-08-12T14:03:58.000Z</time>
      </trkpt>
      <trkpt lat="43.46595" lon="-0.92522">
        <ele>91.199996948242</ele>
        <time>2025-08-12T14:04:01.000Z</time>
      </trkpt>
      <trkpt lat="43.46591" lon="-0.92519">
        <ele>91.199996948242</ele>
        <time>2025-08-12T14:04:02.000Z</time>
      </trkpt>
      <trkpt lat="43.4656" lon="-0.92487">
        <ele>92</ele>
        <time>2025-08-12T14:04:11.000Z</time>
      </trkpt>
      <trkpt lat="43.46556" lon="-0.92484">
        <ele>92</ele>
        <time>2025-08-12T14:04:12.000Z</time>
      </trkpt>
      <trkpt lat="43.46552" lon="-0.92482">
        <ele>92</ele>
        <time>2025-08-12T14:04:13.000Z</time>
      </trkpt>
      <trkpt lat="43.46549" lon="-0.92478">
        <ele>92</ele>
        <time>2025-08-12T14:04:14.000Z</time>
      </trkpt>
      <trkpt lat="43.4654" lon="-0.92469">
        <ele>92.400001525879</ele>
        <time>2025-08-12T14:04:17.000Z</time>
      </trkpt>
      <trkpt lat="43.46514" lon="-0.92443">
        <ele>92.800003051758</ele>
        <time>2025-08-12T14:04:25.000Z</time>
      </trkpt>
      <trkpt lat="43.46491" lon="-0.92418">
        <ele>93</ele>
        <time>2025-08-12T14:04:32.000Z</time>
      </trkpt>
      <trkpt lat="43.46488" lon="-0.92414">
        <ele>93.199996948242</ele>
        <time>2025-08-12T14:04:33.000Z</time>
      </trkpt>
      <trkpt lat="43.46485" lon="-0.92411">
        <ele>93.199996948242</ele>
        <time>2025-08-12T14:04:34.000Z</time>
      </trkpt>
      <trkpt lat="43.46478" lon="-0.92405">
        <ele>93.199996948242</ele>
        <time>2025-08-12T14:04:36.000Z</time>
      </trkpt>
      <trkpt lat="43.4647" lon="-0.92394">
        <ele>93.400001525879</ele>
        <time>2025-08-12T14:04:39.000Z</time>
      </trkpt>
      <trkpt lat="43.46445" lon="-0.92367">
        <ele>93.800003051758</ele>
        <time>2025-08-12T14:04:48.000Z</time>
      </trkpt>
      <trkpt lat="43.46426" lon="-0.92348">
        <ele>94.199996948242</ele>
        <time>2025-08-12T14:04:55.000Z</time>
      </trkpt>
      <trkpt lat="43.4642" lon="-0.92342">
        <ele>94.199996948242</ele>
        <time>2025-08-12T14:04:57.000Z</time>
      </trkpt>
      <trkpt lat="43.46392" lon="-0.92314">
        <ele>94.599998474121</ele>
        <time>2025-08-12T14:05:07.000Z</time>
      </trkpt>
      <trkpt lat="43.46372" lon="-0.92297">
        <ele>95</ele>
        <time>2025-08-12T14:05:13.000Z</time>
      </trkpt>
      <trkpt lat="43.46365" lon="-0.9229">
        <ele>95.199996948242</ele>
        <time>2025-08-12T14:05:15.000Z</time>
      </trkpt>
      <trkpt lat="43.46345" lon="-0.92268">
        <ele>95.599998474121</ele>
        <time>2025-08-12T14:05:22.000Z</time>
      </trkpt>
      <trkpt lat="43.46308" lon="-0.92229">
        <ele>96</ele>
        <time>2025-08-12T14:05:33.000Z</time>
      </trkpt>
      <trkpt lat="43.46279" lon="-0.92198">
        <ele>96</ele>
        <time>2025-08-12T14:05:41.000Z</time>
      </trkpt>
      <trkpt lat="43.46239" lon="-0.92158">
        <ele>96</ele>
        <time>2025-08-12T14:05:51.000Z</time>
      </trkpt>
      <trkpt lat="43.46231" lon="-0.9215">
        <ele>96</ele>
        <time>2025-08-12T14:05:53.000Z</time>
      </trkpt>
      <trkpt lat="43.46213" lon="-0.92138">
        <ele>96</ele>
        <time>2025-08-12T14:05:57.000Z</time>
      </trkpt>
      <trkpt lat="43.46208" lon="-0.92135">
        <ele>96</ele>
        <time>2025-08-12T14:05:58.000Z</time>
      </trkpt>
      <trkpt lat="43.46202" lon="-0.92125">
        <ele>96</ele>
        <time>2025-08-12T14:06:00.000Z</time>
      </trkpt>
      <trkpt lat="43.462" lon="-0.9212">
        <ele>96</ele>
        <time>2025-08-12T14:06:01.000Z</time>
      </trkpt>
      <trkpt lat="43.46198" lon="-0.92107">
        <ele>96</ele>
        <time>2025-08-12T14:06:03.000Z</time>
      </trkpt>
      <trkpt lat="43.46192" lon="-0.92097">
        <ele>96.199996948242</ele>
        <time>2025-08-12T14:06:05.000Z</time>
      </trkpt>
      <trkpt lat="43.46181" lon="-0.9208">
        <ele>96.199996948242</ele>
        <time>2025-08-12T14:06:09.000Z</time>
      </trkpt>
      <trkpt lat="43.46179" lon="-0.92076">
        <ele>96.400001525879</ele>
        <time>2025-08-12T14:06:10.000Z</time>
      </trkpt>
      <trkpt lat="43.46174" lon="-0.92068">
        <ele>96.400001525879</ele>
        <time>2025-08-12T14:06:12.000Z</time>
      </trkpt>
      <trkpt lat="43.46153" lon="-0.92038">
        <ele>96.599998474121</ele>
        <time>2025-08-12T14:06:20.000Z</time>
      </trkpt>
      <trkpt lat="43.46126" lon="-0.92008">
        <ele>97</ele>
        <time>2025-08-12T14:06:29.000Z</time>
      </trkpt>
      <trkpt lat="43.46114" lon="-0.91994">
        <ele>97.400001525879</ele>
        <time>2025-08-12T14:06:34.000Z</time>
      </trkpt>
      <trkpt lat="43.46109" lon="-0.91989">
        <ele>97.599998474121</ele>
        <time>2025-08-12T14:06:36.000Z</time>
      </trkpt>
      <trkpt lat="43.46104" lon="-0.91984">
        <ele>97.800003051758</ele>
        <time>2025-08-12T14:06:38.000Z</time>
      </trkpt>
      <trkpt lat="43.46089" lon="-0.91967">
        <ele>98.400001525879</ele>
        <time>2025-08-12T14:06:44.000Z</time>
      </trkpt>
      <trkpt lat="43.46086" lon="-0.91964">
        <ele>98.599998474121</ele>
        <time>2025-08-12T14:06:45.000Z</time>
      </trkpt>
      <trkpt lat="43.46064" lon="-0.91932">
        <ele>98.800003051758</ele>
        <time>2025-08-12T14:06:54.000Z</time>
      </trkpt>
      <trkpt lat="43.46044" lon="-0.91898">
        <ele>99.199996948242</ele>
        <time>2025-08-12T14:07:02.000Z</time>
      </trkpt>
      <trkpt lat="43.46027" lon="-0.91875">
        <ele>99.599998474121</ele>
        <time>2025-08-12T14:07:09.000Z</time>
      </trkpt>
      <trkpt lat="43.46009" lon="-0.91856">
        <ele>100.40000152588</ele>
        <time>2025-08-12T14:07:18.000Z</time>
      </trkpt>
      <trkpt lat="43.46007" lon="-0.91854">
        <ele>100.80000305176</ele>
        <time>2025-08-12T14:07:19.000Z</time>
      </trkpt>
      <trkpt lat="43.45994" lon="-0.91844">
        <ele>102</ele>
        <time>2025-08-12T14:07:26.000Z</time>
      </trkpt>
      <trkpt lat="43.45985" lon="-0.91834">
        <ele>102.59999847412</ele>
        <time>2025-08-12T14:07:32.000Z</time>
      </trkpt>
      <trkpt lat="43.45983" lon="-0.91832">
        <ele>102.80000305176</ele>
        <time>2025-08-12T14:07:33.000Z</time>
      </trkpt>
      <trkpt lat="43.45975" lon="-0.91825">
        <ele>103.40000152588</ele>
        <time>2025-08-12T14:07:38.000Z</time>
      </trkpt>
      <trkpt lat="43.45971" lon="-0.91822">
        <ele>104</ele>
        <time>2025-08-12T14:07:40.000Z</time>
      </trkpt>
      <trkpt lat="43.45959" lon="-0.91813">
        <ele>104.19999694824</ele>
        <time>2025-08-12T14:07:45.000Z</time>
      </trkpt>
      <trkpt lat="43.45948" lon="-0.91803">
        <ele>104.19999694824</ele>
        <time>2025-08-12T14:07:48.000Z</time>
      </trkpt>
      <trkpt lat="43.45942" lon="-0.91795">
        <ele>104</ele>
        <time>2025-08-12T14:07:50.000Z</time>
      </trkpt>
      <trkpt lat="43.45918" lon="-0.91769">
        <ele>103</ele>
        <time>2025-08-12T14:07:55.000Z</time>
      </trkpt>
      <trkpt lat="43.45912" lon="-0.91764">
        <ele>102.59999847412</ele>
        <time>2025-08-12T14:07:56.000Z</time>
      </trkpt>
      <trkpt lat="43.459" lon="-0.91757">
        <ele>102</ele>
        <time>2025-08-12T14:07:58.000Z</time>
      </trkpt>
      <trkpt lat="43.45895" lon="-0.91756">
        <ele>101.59999847412</ele>
        <time>2025-08-12T14:07:59.000Z</time>
      </trkpt>
      <trkpt lat="43.45872" lon="-0.91752">
        <ele>100.80000305176</ele>
        <time>2025-08-12T14:08:04.000Z</time>
      </trkpt>
      <trkpt lat="43.45867" lon="-0.91749">
        <ele>100.40000152588</ele>
        <time>2025-08-12T14:08:05.000Z</time>
      </trkpt>
      <trkpt lat="43.45862" lon="-0.91747">
        <ele>100.19999694824</ele>
        <time>2025-08-12T14:08:06.000Z</time>
      </trkpt>
      <trkpt lat="43.45851" lon="-0.91739">
        <ele>99.800003051758</ele>
        <time>2025-08-12T14:08:08.000Z</time>
      </trkpt>
      <trkpt lat="43.4584" lon="-0.91729">
        <ele>99.400001525879</ele>
        <time>2025-08-12T14:08:10.000Z</time>
      </trkpt>
      <trkpt lat="43.45828" lon="-0.91716">
        <ele>98.800003051758</ele>
        <time>2025-08-12T14:08:13.000Z</time>
      </trkpt>
      <trkpt lat="43.45817" lon="-0.91706">
        <ele>98.800003051758</ele>
        <time>2025-08-12T14:08:18.000Z</time>
      </trkpt>
      <trkpt lat="43.45796" lon="-0.91688">
        <ele>99.400001525879</ele>
        <time>2025-08-12T14:08:26.000Z</time>
      </trkpt>
      <trkpt lat="43.45774" lon="-0.91685">
        <ele>99.400001525879</ele>
        <time>2025-08-12T14:08:32.000Z</time>
      </trkpt>
      <trkpt lat="43.45756" lon="-0.91682">
        <ele>99.599998474121</ele>
        <time>2025-08-12T14:08:37.000Z</time>
      </trkpt>
      <trkpt lat="43.45728" lon="-0.91671">
        <ele>99.599998474121</ele>
        <time>2025-08-12T14:08:45.000Z</time>
      </trkpt>
      <trkpt lat="43.457" lon="-0.91662">
        <ele>100</ele>
        <time>2025-08-12T14:08:53.000Z</time>
      </trkpt>
      <trkpt lat="43.4567" lon="-0.91659">
        <ele>99.800003051758</ele>
        <time>2025-08-12T14:09:00.000Z</time>
      </trkpt>
      <trkpt lat="43.45649" lon="-0.91654">
        <ele>99.599998474121</ele>
        <time>2025-08-12T14:09:05.000Z</time>
      </trkpt>
      <trkpt lat="43.45641" lon="-0.91651">
        <ele>99.599998474121</ele>
        <time>2025-08-12T14:09:07.000Z</time>
      </trkpt>
      <trkpt lat="43.45638" lon="-0.91648">
        <ele>99.800003051758</ele>
        <time>2025-08-12T14:09:08.000Z</time>
      </trkpt>
      <trkpt lat="43.45626" lon="-0.91637">
        <ele>100.19999694824</ele>
        <time>2025-08-12T14:09:12.000Z</time>
      </trkpt>
      <trkpt lat="43.45602" lon="-0.91601">
        <ele>100.40000152588</ele>
        <time>2025-08-12T14:09:21.000Z</time>
      </trkpt>
      <trkpt lat="43.4558" lon="-0.91575">
        <ele>100.59999847412</ele>
        <time>2025-08-12T14:09:28.000Z</time>
      </trkpt>
      <trkpt lat="43.45576" lon="-0.91573">
        <ele>100.59999847412</ele>
        <time>2025-08-12T14:09:29.000Z</time>
      </trkpt>
      <trkpt lat="43.45568" lon="-0.91569">
        <ele>100.59999847412</ele>
        <time>2025-08-12T14:09:31.000Z</time>
      </trkpt>
      <trkpt lat="43.45559" lon="-0.91567">
        <ele>100.80000305176</ele>
        <time>2025-08-12T14:09:33.000Z</time>
      </trkpt>
      <trkpt lat="43.45555" lon="-0.91566">
        <ele>100.80000305176</ele>
        <time>2025-08-12T14:09:34.000Z</time>
      </trkpt>
      <trkpt lat="43.4552" lon="-0.91563">
        <ele>100.80000305176</ele>
        <time>2025-08-12T14:09:41.000Z</time>
      </trkpt>
      <trkpt lat="43.45515" lon="-0.91562">
        <ele>100.80000305176</ele>
        <time>2025-08-12T14:09:43.000Z</time>
      </trkpt>
      <trkpt lat="43.45489" lon="-0.91557">
        <ele>101.19999694824</ele>
        <time>2025-08-12T14:09:49.000Z</time>
      </trkpt>
      <trkpt lat="43.45451" lon="-0.9154">
        <ele>101.59999847412</ele>
        <time>2025-08-12T14:09:57.000Z</time>
      </trkpt>
      <trkpt lat="43.45407" lon="-0.9152">
        <ele>101.59999847412</ele>
        <time>2025-08-12T14:10:06.000Z</time>
      </trkpt>
      <trkpt lat="43.45402" lon="-0.91519">
        <ele>101.59999847412</ele>
        <time>2025-08-12T14:10:07.000Z</time>
      </trkpt>
      <trkpt lat="43.45375" lon="-0.91508">
        <ele>102.40000152588</ele>
        <time>2025-08-12T14:10:14.000Z</time>
      </trkpt>
      <trkpt lat="43.45367" lon="-0.91506">
        <ele>103</ele>
        <time>2025-08-12T14:10:17.000Z</time>
      </trkpt>
      <trkpt lat="43.45356" lon="-0.91501">
        <ele>103.40000152588</ele>
        <time>2025-08-12T14:10:21.000Z</time>
      </trkpt>
      <trkpt lat="43.45346" lon="-0.91496">
        <ele>104.19999694824</ele>
        <time>2025-08-12T14:10:24.000Z</time>
      </trkpt>
      <trkpt lat="43.45338" lon="-0.91494">
        <ele>104.59999847412</ele>
        <time>2025-08-12T14:10:28.000Z</time>
      </trkpt>
      <trkpt lat="43.45321" lon="-0.91489">
        <ele>104.80000305176</ele>
        <time>2025-08-12T14:10:34.000Z</time>
      </trkpt>
      <trkpt lat="43.45293" lon="-0.9148">
        <ele>105</ele>
        <time>2025-08-12T14:10:43.000Z</time>
      </trkpt>
      <trkpt lat="43.45259" lon="-0.91474">
        <ele>104.80000305176</ele>
        <time>2025-08-12T14:10:51.000Z</time>
      </trkpt>
      <trkpt lat="43.45227" lon="-0.91475">
        <ele>104.59999847412</ele>
        <time>2025-08-12T14:11:00.000Z</time>
      </trkpt>
      <trkpt lat="43.4521" lon="-0.91475">
        <ele>104.59999847412</ele>
        <time>2025-08-12T14:11:05.000Z</time>
      </trkpt>
      <trkpt lat="43.45209" lon="-0.91475">
        <ele>104.59999847412</ele>
        <time>2025-08-12T14:11:06.000Z</time>
      </trkpt>
      <trkpt lat="43.45209" lon="-0.91475">
        <ele>104.59999847412</ele>
        <time>2025-08-12T14:11:08.000Z</time>
      </trkpt>
      <trkpt lat="43.45217" lon="-0.91477">
        <ele>105.40000152588</ele>
        <time>2025-08-12T14:13:18.000Z</time>
      </trkpt>
      <trkpt lat="43.45219" lon="-0.91478">
        <ele>105.59999847412</ele>
        <time>2025-08-12T14:13:19.000Z</time>
      </trkpt>
      <trkpt lat="43.45227" lon="-0.91478">
        <ele>105.59999847412</ele>
        <time>2025-08-12T14:13:23.000Z</time>
      </trkpt>
      <trkpt lat="43.45246" lon="-0.91474">
        <ele>105.59999847412</ele>
        <time>2025-08-12T14:13:29.000Z</time>
      </trkpt>
      <trkpt lat="43.4527" lon="-0.91474">
        <ele>105.40000152588</ele>
        <time>2025-08-12T14:13:35.000Z</time>
      </trkpt>
      <trkpt lat="43.45296" lon="-0.91479">
        <ele>105.40000152588</ele>
        <time>2025-08-12T14:13:42.000Z</time>
      </trkpt>
      <trkpt lat="43.45317" lon="-0.91486">
        <ele>105.80000305176</ele>
        <time>2025-08-12T14:13:48.000Z</time>
      </trkpt>
      <trkpt lat="43.45356" lon="-0.915">
        <ele>106.40000152588</ele>
        <time>2025-08-12T14:13:58.000Z</time>
      </trkpt>
      <trkpt lat="43.45391" lon="-0.91512">
        <ele>106.40000152588</ele>
        <time>2025-08-12T14:14:05.000Z</time>
      </trkpt>
      <trkpt lat="43.45436" lon="-0.9153">
        <ele>104.80000305176</ele>
        <time>2025-08-12T14:14:12.000Z</time>
      </trkpt>
      <trkpt lat="43.45446" lon="-0.91534">
        <ele>104.40000152588</ele>
        <time>2025-08-12T14:14:14.000Z</time>
      </trkpt>
      <trkpt lat="43.45477" lon="-0.91548">
        <ele>103.59999847412</ele>
        <time>2025-08-12T14:14:20.000Z</time>
      </trkpt>
      <trkpt lat="43.455" lon="-0.91555">
        <ele>103.59999847412</ele>
        <time>2025-08-12T14:14:25.000Z</time>
      </trkpt>
      <trkpt lat="43.45519" lon="-0.9156">
        <ele>103.59999847412</ele>
        <time>2025-08-12T14:14:29.000Z</time>
      </trkpt>
      <trkpt lat="43.45535" lon="-0.91561">
        <ele>103.59999847412</ele>
        <time>2025-08-12T14:14:32.000Z</time>
      </trkpt>
      <trkpt lat="43.4555" lon="-0.91562">
        <ele>103.40000152588</ele>
        <time>2025-08-12T14:14:35.000Z</time>
      </trkpt>
      <trkpt lat="43.45574" lon="-0.91568">
        <ele>103.40000152588</ele>
        <time>2025-08-12T14:14:40.000Z</time>
      </trkpt>
      <trkpt lat="43.45583" lon="-0.91573">
        <ele>103.40000152588</ele>
        <time>2025-08-12T14:14:42.000Z</time>
      </trkpt>
      <trkpt lat="43.45591" lon="-0.91579">
        <ele>103.40000152588</ele>
        <time>2025-08-12T14:14:44.000Z</time>
      </trkpt>
      <trkpt lat="43.45599" lon="-0.91589">
        <ele>103.19999694824</ele>
        <time>2025-08-12T14:14:46.000Z</time>
      </trkpt>
      <trkpt lat="43.45628" lon="-0.91636">
        <ele>102.80000305176</ele>
        <time>2025-08-12T14:14:55.000Z</time>
      </trkpt>
      <trkpt lat="43.45636" lon="-0.91643">
        <ele>102.80000305176</ele>
        <time>2025-08-12T14:14:57.000Z</time>
      </trkpt>
      <trkpt lat="43.4564" lon="-0.91647">
        <ele>102.59999847412</ele>
        <time>2025-08-12T14:14:58.000Z</time>
      </trkpt>
      <trkpt lat="43.4565" lon="-0.91652">
        <ele>102.40000152588</ele>
        <time>2025-08-12T14:15:00.000Z</time>
      </trkpt>
      <trkpt lat="43.45664" lon="-0.91655">
        <ele>102.19999694824</ele>
        <time>2025-08-12T14:15:03.000Z</time>
      </trkpt>
      <trkpt lat="43.45704" lon="-0.91659">
        <ele>102</ele>
        <time>2025-08-12T14:15:11.000Z</time>
      </trkpt>
      <trkpt lat="43.45732" lon="-0.91668">
        <ele>102.19999694824</ele>
        <time>2025-08-12T14:15:19.000Z</time>
      </trkpt>
      <trkpt lat="43.45757" lon="-0.91679">
        <ele>102.19999694824</ele>
        <time>2025-08-12T14:15:25.000Z</time>
      </trkpt>
      <trkpt lat="43.45771" lon="-0.91684">
        <ele>102.19999694824</ele>
        <time>2025-08-12T14:15:30.000Z</time>
      </trkpt>
      <trkpt lat="43.45783" lon="-0.91698">
        <ele>102</ele>
        <time>2025-08-12T14:15:36.000Z</time>
      </trkpt>
      <trkpt lat="43.45799" lon="-0.91714">
        <ele>102</ele>
        <time>2025-08-12T14:15:44.000Z</time>
      </trkpt>
      <trkpt lat="43.45815" lon="-0.91728">
        <ele>103</ele>
        <time>2025-08-12T14:15:53.000Z</time>
      </trkpt>
      <trkpt lat="43.45816" lon="-0.91729">
        <ele>103.19999694824</ele>
        <time>2025-08-12T14:15:54.000Z</time>
      </trkpt>
      <trkpt lat="43.4582" lon="-0.91733">
        <ele>103.59999847412</ele>
        <time>2025-08-12T14:15:58.000Z</time>
      </trkpt>
      <trkpt lat="43.4582" lon="-0.91733">
        <ele>103.80000305176</ele>
        <time>2025-08-12T14:16:00.000Z</time>
      </trkpt>
      <trkpt lat="43.45819" lon="-0.91742">
        <ele>104.19999694824</ele>
        <time>2025-08-12T14:16:13.000Z</time>
      </trkpt>
      <trkpt lat="43.45811" lon="-0.91767">
        <ele>104</ele>
        <time>2025-08-12T14:16:17.000Z</time>
      </trkpt>
      <trkpt lat="43.45806" lon="-0.91791">
        <ele>104</ele>
        <time>2025-08-12T14:16:20.000Z</time>
      </trkpt>
      <trkpt lat="43.45806" lon="-0.91791">
        <ele>104</ele>
        <time>2025-08-12T14:16:21.000Z</time>
      </trkpt>
      <trkpt lat="43.45785" lon="-0.91844">
        <ele>103</ele>
        <time>2025-08-12T14:16:26.000Z</time>
      </trkpt>
      <trkpt lat="43.45776" lon="-0.91867">
        <ele>102.40000152588</ele>
        <time>2025-08-12T14:16:29.000Z</time>
      </trkpt>
      <trkpt lat="43.45769" lon="-0.91883">
        <ele>102.19999694824</ele>
        <time>2025-08-12T14:16:31.000Z</time>
      </trkpt>
      <trkpt lat="43.4576" lon="-0.91906">
        <ele>101.80000305176</ele>
        <time>2025-08-12T14:16:34.000Z</time>
      </trkpt>
      <trkpt lat="43.45748" lon="-0.91935">
        <ele>101.59999847412</ele>
        <time>2025-08-12T14:16:38.000Z</time>
      </trkpt>
      <trkpt lat="43.4573" lon="-0.91977">
        <ele>101.80000305176</ele>
        <time>2025-08-12T14:16:45.000Z</time>
      </trkpt>
      <trkpt lat="43.45722" lon="-0.91997">
        <ele>102.19999694824</ele>
        <time>2025-08-12T14:16:49.000Z</time>
      </trkpt>
      <trkpt lat="43.45717" lon="-0.92007">
        <ele>102.40000152588</ele>
        <time>2025-08-12T14:16:51.000Z</time>
      </trkpt>
      <trkpt lat="43.45709" lon="-0.92026">
        <ele>103</ele>
        <time>2025-08-12T14:16:55.000Z</time>
      </trkpt>
      <trkpt lat="43.45697" lon="-0.9205">
        <ele>103.80000305176</ele>
        <time>2025-08-12T14:17:00.000Z</time>
      </trkpt>
      <trkpt lat="43.45695" lon="-0.92054">
        <ele>103.80000305176</ele>
        <time>2025-08-12T14:17:01.000Z</time>
      </trkpt>
      <trkpt lat="43.45688" lon="-0.92068">
        <ele>104.19999694824</ele>
        <time>2025-08-12T14:17:04.000Z</time>
      </trkpt>
      <trkpt lat="43.45681" lon="-0.92082">
        <ele>104.59999847412</ele>
        <time>2025-08-12T14:17:07.000Z</time>
      </trkpt>
      <trkpt lat="43.45673" lon="-0.92099">
        <ele>105.40000152588</ele>
        <time>2025-08-12T14:17:12.000Z</time>
      </trkpt>
      <trkpt lat="43.45663" lon="-0.92118">
        <ele>105.80000305176</ele>
        <time>2025-08-12T14:17:16.000Z</time>
      </trkpt>
      <trkpt lat="43.45654" lon="-0.92139">
        <ele>106.40000152588</ele>
        <time>2025-08-12T14:17:22.000Z</time>
      </trkpt>
      <trkpt lat="43.45649" lon="-0.92148">
        <ele>106.80000305176</ele>
        <time>2025-08-12T14:17:25.000Z</time>
      </trkpt>
      <trkpt lat="43.45637" lon="-0.92166">
        <ele>107.59999847412</ele>
        <time>2025-08-12T14:17:31.000Z</time>
      </trkpt>
      <trkpt lat="43.45632" lon="-0.92174">
        <ele>107.80000305176</ele>
        <time>2025-08-12T14:17:34.000Z</time>
      </trkpt>
      <trkpt lat="43.45624" lon="-0.92192">
        <ele>108.19999694824</ele>
        <time>2025-08-12T14:17:40.000Z</time>
      </trkpt>
      <trkpt lat="43.45621" lon="-0.92198">
        <ele>108.59999847412</ele>
        <time>2025-08-12T14:17:42.000Z</time>
      </trkpt>
      <trkpt lat="43.45608" lon="-0.92221">
        <ele>109.40000152588</ele>
        <time>2025-08-12T14:17:50.000Z</time>
      </trkpt>
      <trkpt lat="43.45607" lon="-0.92224">
        <ele>109.80000305176</ele>
        <time>2025-08-12T14:17:51.000Z</time>
      </trkpt>
      <trkpt lat="43.45597" lon="-0.92243">
        <ele>110.59999847412</ele>
        <time>2025-08-12T14:17:58.000Z</time>
      </trkpt>
      <trkpt lat="43.45595" lon="-0.92248">
        <ele>110.80000305176</ele>
        <time>2025-08-12T14:18:00.000Z</time>
      </trkpt>
      <trkpt lat="43.45589" lon="-0.92257">
        <ele>111.59999847412</ele>
        <time>2025-08-12T14:18:04.000Z</time>
      </trkpt>
      <trkpt lat="43.45584" lon="-0.92263">
        <ele>111.80000305176</ele>
        <time>2025-08-12T14:18:07.000Z</time>
      </trkpt>
      <trkpt lat="43.45578" lon="-0.92268">
        <ele>112.19999694824</ele>
        <time>2025-08-12T14:18:10.000Z</time>
      </trkpt>
      <trkpt lat="43.45571" lon="-0.92276">
        <ele>113</ele>
        <time>2025-08-12T14:18:14.000Z</time>
      </trkpt>
      <trkpt lat="43.45568" lon="-0.92278">
        <ele>113.19999694824</ele>
        <time>2025-08-12T14:18:16.000Z</time>
      </trkpt>
      <trkpt lat="43.45559" lon="-0.92288">
        <ele>114.19999694824</ele>
        <time>2025-08-12T14:18:22.000Z</time>
      </trkpt>
      <trkpt lat="43.45556" lon="-0.9229">
        <ele>114.40000152588</ele>
        <time>2025-08-12T14:18:24.000Z</time>
      </trkpt>
      <trkpt lat="43.45548" lon="-0.92295">
        <ele>115.40000152588</ele>
        <time>2025-08-12T14:18:29.000Z</time>
      </trkpt>
      <trkpt lat="43.45544" lon="-0.92297">
        <ele>115.59999847412</ele>
        <time>2025-08-12T14:18:31.000Z</time>
      </trkpt>
      <trkpt lat="43.45537" lon="-0.92302">
        <ele>116.40000152588</ele>
        <time>2025-08-12T14:18:36.000Z</time>
      </trkpt>
      <trkpt lat="43.45532" lon="-0.92304">
        <ele>116.80000305176</ele>
        <time>2025-08-12T14:18:39.000Z</time>
      </trkpt>
      <trkpt lat="43.45525" lon="-0.92307">
        <ele>117.59999847412</ele>
        <time>2025-08-12T14:18:43.000Z</time>
      </trkpt>
      <trkpt lat="43.45512" lon="-0.92309">
        <ele>118.40000152588</ele>
        <time>2025-08-12T14:18:50.000Z</time>
      </trkpt>
      <trkpt lat="43.4551" lon="-0.9231">
        <ele>118.59999847412</ele>
        <time>2025-08-12T14:18:51.000Z</time>
      </trkpt>
      <trkpt lat="43.45501" lon="-0.92311">
        <ele>119.19999694824</ele>
        <time>2025-08-12T14:18:56.000Z</time>
      </trkpt>
      <trkpt lat="43.45493" lon="-0.92311">
        <ele>119.80000305176</ele>
        <time>2025-08-12T14:19:00.000Z</time>
      </trkpt>
      <trkpt lat="43.45478" lon="-0.92309">
        <ele>120.59999847412</ele>
        <time>2025-08-12T14:19:08.000Z</time>
      </trkpt>
      <trkpt lat="43.45475" lon="-0.92309">
        <ele>120.80000305176</ele>
        <time>2025-08-12T14:19:10.000Z</time>
      </trkpt>
      <trkpt lat="43.45462" lon="-0.92306">
        <ele>121.80000305176</ele>
        <time>2025-08-12T14:19:18.000Z</time>
      </trkpt>
      <trkpt lat="43.45458" lon="-0.92305">
        <ele>122</ele>
        <time>2025-08-12T14:19:20.000Z</time>
      </trkpt>
      <trkpt lat="43.45449" lon="-0.92302">
        <ele>122.59999847412</ele>
        <time>2025-08-12T14:19:26.000Z</time>
      </trkpt>
      <trkpt lat="43.45444" lon="-0.923">
        <ele>123</ele>
        <time>2025-08-12T14:19:29.000Z</time>
      </trkpt>
      <trkpt lat="43.45435" lon="-0.92297">
        <ele>123.59999847412</ele>
        <time>2025-08-12T14:19:35.000Z</time>
      </trkpt>
      <trkpt lat="43.45429" lon="-0.92295">
        <ele>124</ele>
        <time>2025-08-12T14:19:39.000Z</time>
      </trkpt>
      <trkpt lat="43.45424" lon="-0.92293">
        <ele>124.40000152588</ele>
        <time>2025-08-12T14:19:42.000Z</time>
      </trkpt>
      <trkpt lat="43.45416" lon="-0.92289">
        <ele>125</ele>
        <time>2025-08-12T14:19:48.000Z</time>
      </trkpt>
      <trkpt lat="43.45414" lon="-0.92288">
        <ele>125.19999694824</ele>
        <time>2025-08-12T14:19:49.000Z</time>
      </trkpt>
      <trkpt lat="43.45403" lon="-0.92283">
        <ele>126</ele>
        <time>2025-08-12T14:19:56.000Z</time>
      </trkpt>
      <trkpt lat="43.45399" lon="-0.92282">
        <ele>126.19999694824</ele>
        <time>2025-08-12T14:19:58.000Z</time>
      </trkpt>
      <trkpt lat="43.45388" lon="-0.92276">
        <ele>127.19999694824</ele>
        <time>2025-08-12T14:20:05.000Z</time>
      </trkpt>
      <trkpt lat="43.45378" lon="-0.92269">
        <ele>128.19999694824</ele>
        <time>2025-08-12T14:20:12.000Z</time>
      </trkpt>
      <trkpt lat="43.45374" lon="-0.92265">
        <ele>128.80000305176</ele>
        <time>2025-08-12T14:20:15.000Z</time>
      </trkpt>
      <trkpt lat="43.45369" lon="-0.92262">
        <ele>129.19999694824</ele>
        <time>2025-08-12T14:20:18.000Z</time>
      </trkpt>
      <trkpt lat="43.4536" lon="-0.92255">
        <ele>129.80000305176</ele>
        <time>2025-08-12T14:20:24.000Z</time>
      </trkpt>
      <trkpt lat="43.45354" lon="-0.92249">
        <ele>130.39999389648</ele>
        <time>2025-08-12T14:20:28.000Z</time>
      </trkpt>
      <trkpt lat="43.45344" lon="-0.92241">
        <ele>131</ele>
        <time>2025-08-12T14:20:35.000Z</time>
      </trkpt>
      <trkpt lat="43.4534" lon="-0.92236">
        <ele>131.60000610352</ele>
        <time>2025-08-12T14:20:39.000Z</time>
      </trkpt>
      <trkpt lat="43.45338" lon="-0.92235">
        <ele>131.60000610352</ele>
        <time>2025-08-12T14:20:40.000Z</time>
      </trkpt>
      <trkpt lat="43.45324" lon="-0.92224">
        <ele>132.60000610352</ele>
        <time>2025-08-12T14:20:49.000Z</time>
      </trkpt>
      <trkpt lat="43.45322" lon="-0.92223">
        <ele>132.60000610352</ele>
        <time>2025-08-12T14:20:50.000Z</time>
      </trkpt>
      <trkpt lat="43.45316" lon="-0.92218">
        <ele>133.39999389648</ele>
        <time>2025-08-12T14:20:55.000Z</time>
      </trkpt>
      <trkpt lat="43.45315" lon="-0.92217">
        <ele>133.60000610352</ele>
        <time>2025-08-12T14:20:56.000Z</time>
      </trkpt>
      <trkpt lat="43.45314" lon="-0.92217">
        <ele>133.80000305176</ele>
        <time>2025-08-12T14:20:57.000Z</time>
      </trkpt>
      <trkpt lat="43.45303" lon="-0.92212">
        <ele>134.80000305176</ele>
        <time>2025-08-12T14:21:04.000Z</time>
      </trkpt>
      <trkpt lat="43.45296" lon="-0.92211">
        <ele>135.19999694824</ele>
        <time>2025-08-12T14:21:08.000Z</time>
      </trkpt>
      <trkpt lat="43.45291" lon="-0.92209">
        <ele>135.60000610352</ele>
        <time>2025-08-12T14:21:11.000Z</time>
      </trkpt>
      <trkpt lat="43.4529" lon="-0.92208">
        <ele>135.80000305176</ele>
        <time>2025-08-12T14:21:12.000Z</time>
      </trkpt>
      <trkpt lat="43.45275" lon="-0.92205">
        <ele>136.80000305176</ele>
        <time>2025-08-12T14:21:21.000Z</time>
      </trkpt>
      <trkpt lat="43.45273" lon="-0.92206">
        <ele>137</ele>
        <time>2025-08-12T14:21:22.000Z</time>
      </trkpt>
      <trkpt lat="43.45261" lon="-0.92206">
        <ele>137.80000305176</ele>
        <time>2025-08-12T14:21:28.000Z</time>
      </trkpt>
      <trkpt lat="43.45258" lon="-0.92206">
        <ele>138</ele>
        <time>2025-08-12T14:21:30.000Z</time>
      </trkpt>
      <trkpt lat="43.4525" lon="-0.92206">
        <ele>138.80000305176</ele>
        <time>2025-08-12T14:21:35.000Z</time>
      </trkpt>
      <trkpt lat="43.45247" lon="-0.92207">
        <ele>139.19999694824</ele>
        <time>2025-08-12T14:21:37.000Z</time>
      </trkpt>
      <trkpt lat="43.45237" lon="-0.9221">
        <ele>139.80000305176</ele>
        <time>2025-08-12T14:21:43.000Z</time>
      </trkpt>
      <trkpt lat="43.45233" lon="-0.92212">
        <ele>140.19999694824</ele>
        <time>2025-08-12T14:21:45.000Z</time>
      </trkpt>
      <trkpt lat="43.45221" lon="-0.92216">
        <ele>141</ele>
        <time>2025-08-12T14:21:52.000Z</time>
      </trkpt>
      <trkpt lat="43.45218" lon="-0.92217">
        <ele>141.39999389648</ele>
        <time>2025-08-12T14:21:54.000Z</time>
      </trkpt>
      <trkpt lat="43.4521" lon="-0.92221">
        <ele>141.80000305176</ele>
        <time>2025-08-12T14:21:59.000Z</time>
      </trkpt>
      <trkpt lat="43.45203" lon="-0.92224">
        <ele>142.60000610352</ele>
        <time>2025-08-12T14:22:03.000Z</time>
      </trkpt>
      <trkpt lat="43.45199" lon="-0.92226">
        <ele>142.80000305176</ele>
        <time>2025-08-12T14:22:06.000Z</time>
      </trkpt>
      <trkpt lat="43.45188" lon="-0.9223">
        <ele>143.60000610352</ele>
        <time>2025-08-12T14:22:13.000Z</time>
      </trkpt>
      <trkpt lat="43.45173" lon="-0.92237">
        <ele>144.60000610352</ele>
        <time>2025-08-12T14:22:22.000Z</time>
      </trkpt>
      <trkpt lat="43.4516" lon="-0.92244">
        <ele>145.39999389648</ele>
        <time>2025-08-12T14:22:30.000Z</time>
      </trkpt>
      <trkpt lat="43.45158" lon="-0.92245">
        <ele>145.60000610352</ele>
        <time>2025-08-12T14:22:31.000Z</time>
      </trkpt>
      <trkpt lat="43.45149" lon="-0.92248">
        <ele>146.80000305176</ele>
        <time>2025-08-12T14:22:38.000Z</time>
      </trkpt>
      <trkpt lat="43.45146" lon="-0.9225">
        <ele>147</ele>
        <time>2025-08-12T14:22:40.000Z</time>
      </trkpt>
      <trkpt lat="43.45135" lon="-0.92254">
        <ele>147.80000305176</ele>
        <time>2025-08-12T14:22:47.000Z</time>
      </trkpt>
      <trkpt lat="43.4513" lon="-0.92256">
        <ele>148</ele>
        <time>2025-08-12T14:22:50.000Z</time>
      </trkpt>
      <trkpt lat="43.45126" lon="-0.92257">
        <ele>148.39999389648</ele>
        <time>2025-08-12T14:22:52.000Z</time>
      </trkpt>
      <trkpt lat="43.45119" lon="-0.92252">
        <ele>149</ele>
        <time>2025-08-12T14:22:55.000Z</time>
      </trkpt>
      <trkpt lat="43.45112" lon="-0.92244">
        <ele>149.39999389648</ele>
        <time>2025-08-12T14:22:59.000Z</time>
      </trkpt>
      <trkpt lat="43.45113" lon="-0.92242">
        <ele>149.60000610352</ele>
        <time>2025-08-12T14:23:00.000Z</time>
      </trkpt>
      <trkpt lat="43.45114" lon="-0.92237">
        <ele>149.80000305176</ele>
        <time>2025-08-12T14:23:02.000Z</time>
      </trkpt>
      <trkpt lat="43.45115" lon="-0.92233">
        <ele>150</ele>
        <time>2025-08-12T14:23:04.000Z</time>
      </trkpt>
      <trkpt lat="43.45116" lon="-0.92229">
        <ele>150.19999694824</ele>
        <time>2025-08-12T14:23:06.000Z</time>
      </trkpt>
      <trkpt lat="43.45118" lon="-0.92224">
        <ele>150.60000610352</ele>
        <time>2025-08-12T14:23:08.000Z</time>
      </trkpt>
      <trkpt lat="43.4512" lon="-0.92221">
        <ele>151</ele>
        <time>2025-08-12T14:23:10.000Z</time>
      </trkpt>
      <trkpt lat="43.45121" lon="-0.92219">
        <ele>151.19999694824</ele>
        <time>2025-08-12T14:23:11.000Z</time>
      </trkpt>
      <trkpt lat="43.45122" lon="-0.92218">
        <ele>151.39999389648</ele>
        <time>2025-08-12T14:23:12.000Z</time>
      </trkpt>
      <trkpt lat="43.45123" lon="-0.92217">
        <ele>151.60000610352</ele>
        <time>2025-08-12T14:23:13.000Z</time>
      </trkpt>
      <trkpt lat="43.45125" lon="-0.92214">
        <ele>152</ele>
        <time>2025-08-12T14:23:15.000Z</time>
      </trkpt>
      <trkpt lat="43.45127" lon="-0.92213">
        <ele>152.19999694824</ele>
        <time>2025-08-12T14:23:16.000Z</time>
      </trkpt>
      <trkpt lat="43.45128" lon="-0.92212">
        <ele>152.19999694824</ele>
        <time>2025-08-12T14:23:17.000Z</time>
      </trkpt>
      <trkpt lat="43.4513" lon="-0.9221">
        <ele>152.80000305176</ele>
        <time>2025-08-12T14:23:19.000Z</time>
      </trkpt>
      <trkpt lat="43.45132" lon="-0.92209">
        <ele>153.19999694824</ele>
        <time>2025-08-12T14:23:21.000Z</time>
      </trkpt>
      <trkpt lat="43.45135" lon="-0.92205">
        <ele>153.39999389648</ele>
        <time>2025-08-12T14:23:23.000Z</time>
      </trkpt>
      <trkpt lat="43.4514" lon="-0.92202">
        <ele>153.60000610352</ele>
        <time>2025-08-12T14:23:26.000Z</time>
      </trkpt>
      <trkpt lat="43.45148" lon="-0.92192">
        <ele>153.80000305176</ele>
        <time>2025-08-12T14:23:33.000Z</time>
      </trkpt>
      <trkpt lat="43.45151" lon="-0.92189">
        <ele>154</ele>
        <time>2025-08-12T14:23:35.000Z</time>
      </trkpt>
      <trkpt lat="43.45158" lon="-0.92183">
        <ele>154</ele>
        <time>2025-08-12T14:23:39.000Z</time>
      </trkpt>
      <trkpt lat="43.45168" lon="-0.92171">
        <ele>153.80000305176</ele>
        <time>2025-08-12T14:23:46.000Z</time>
      </trkpt>
      <trkpt lat="43.45187" lon="-0.92151">
        <ele>154</ele>
        <time>2025-08-12T14:23:55.000Z</time>
      </trkpt>
      <trkpt lat="43.45201" lon="-0.92134">
        <ele>154</ele>
        <time>2025-08-12T14:24:03.000Z</time>
      </trkpt>
      <trkpt lat="43.45214" lon="-0.92116">
        <ele>154</ele>
        <time>2025-08-12T14:24:09.000Z</time>
      </trkpt>
      <trkpt lat="43.45227" lon="-0.92093">
        <ele>154.39999389648</ele>
        <time>2025-08-12T14:24:17.000Z</time>
      </trkpt>
      <trkpt lat="43.45232" lon="-0.92084">
        <ele>154.39999389648</ele>
        <time>2025-08-12T14:24:20.000Z</time>
      </trkpt>
      <trkpt lat="43.4524" lon="-0.9207">
        <ele>154.60000610352</ele>
        <time>2025-08-12T14:24:25.000Z</time>
      </trkpt>
      <trkpt lat="43.45251" lon="-0.92051">
        <ele>154.60000610352</ele>
        <time>2025-08-12T14:24:32.000Z</time>
      </trkpt>
      <trkpt lat="43.45256" lon="-0.92038">
        <ele>154.60000610352</ele>
        <time>2025-08-12T14:24:38.000Z</time>
      </trkpt>
      <trkpt lat="43.4526" lon="-0.92029">
        <ele>154.80000305176</ele>
        <time>2025-08-12T14:24:44.000Z</time>
      </trkpt>
      <trkpt lat="43.45261" lon="-0.92028">
        <ele>154.80000305176</ele>
        <time>2025-08-12T14:24:47.000Z</time>
      </trkpt>
      <trkpt lat="43.45263" lon="-0.92029">
        <ele>154.80000305176</ele>
        <time>2025-08-12T14:24:49.000Z</time>
      </trkpt>
      <trkpt lat="43.45271" lon="-0.92036">
        <ele>155</ele>
        <time>2025-08-12T14:24:56.000Z</time>
      </trkpt>
      <trkpt lat="43.45279" lon="-0.92042">
        <ele>155.19999694824</ele>
        <time>2025-08-12T14:25:05.000Z</time>
      </trkpt>
      <trkpt lat="43.45285" lon="-0.92045">
        <ele>154.80000305176</ele>
        <time>2025-08-12T14:25:12.000Z</time>
      </trkpt>
      <trkpt lat="43.45287" lon="-0.92045">
        <ele>154.80000305176</ele>
        <time>2025-08-12T14:25:16.000Z</time>
      </trkpt>
      <trkpt lat="43.45274" lon="-0.92001">
        <ele>117.80000305176</ele>
        <time>2025-08-13T06:05:50.000Z</time>
      </trkpt>
      <trkpt lat="43.45277" lon="-0.91995">
        <ele>108.40000152588</ele>
        <time>2025-08-13T06:05:54.000Z</time>
      </trkpt>
      <trkpt lat="43.4528" lon="-0.91992">
        <ele>108.40000152588</ele>
        <time>2025-08-13T06:05:56.000Z</time>
      </trkpt>
      <trkpt lat="43.45288" lon="-0.91976">
        <ele>108.19999694824</ele>
        <time>2025-08-13T06:06:02.000Z</time>
      </trkpt>
      <trkpt lat="43.45303" lon="-0.91957">
        <ele>107.59999847412</ele>
        <time>2025-08-13T06:06:08.000Z</time>
      </trkpt>
      <trkpt lat="43.45307" lon="-0.91952">
        <ele>107.19999694824</ele>
        <time>2025-08-13T06:06:10.000Z</time>
      </trkpt>
      <trkpt lat="43.45309" lon="-0.9194">
        <ele>106.19999694824</ele>
        <time>2025-08-13T06:06:13.000Z</time>
      </trkpt>
      <trkpt lat="43.45307" lon="-0.91932">
        <ele>105.80000305176</ele>
        <time>2025-08-13T06:06:15.000Z</time>
      </trkpt>
      <trkpt lat="43.453" lon="-0.91915">
        <ele>104.59999847412</ele>
        <time>2025-08-13T06:06:19.000Z</time>
      </trkpt>
      <trkpt lat="43.45298" lon="-0.91911">
        <ele>104.19999694824</ele>
        <time>2025-08-13T06:06:20.000Z</time>
      </trkpt>
      <trkpt lat="43.45296" lon="-0.91905">
        <ele>103.40000152588</ele>
        <time>2025-08-13T06:06:22.000Z</time>
      </trkpt>
      <trkpt lat="43.45294" lon="-0.91901">
        <ele>103.19999694824</ele>
        <time>2025-08-13T06:06:24.000Z</time>
      </trkpt>
      <trkpt lat="43.45291" lon="-0.91892">
        <ele>102.40000152588</ele>
        <time>2025-08-13T06:06:27.000Z</time>
      </trkpt>
      <trkpt lat="43.4529" lon="-0.91881">
        <ele>102.19999694824</ele>
        <time>2025-08-13T06:06:30.000Z</time>
      </trkpt>
      <trkpt lat="43.45289" lon="-0.91869">
        <ele>101.40000152588</ele>
        <time>2025-08-13T06:06:34.000Z</time>
      </trkpt>
      <trkpt lat="43.45289" lon="-0.91862">
        <ele>101</ele>
        <time>2025-08-13T06:06:36.000Z</time>
      </trkpt>
      <trkpt lat="43.45288" lon="-0.91851">
        <ele>100.19999694824</ele>
        <time>2025-08-13T06:06:39.000Z</time>
      </trkpt>
      <trkpt lat="43.45287" lon="-0.91843">
        <ele>99.800003051758</ele>
        <time>2025-08-13T06:06:41.000Z</time>
      </trkpt>
      <trkpt lat="43.45286" lon="-0.91835">
        <ele>99.400001525879</ele>
        <time>2025-08-13T06:06:43.000Z</time>
      </trkpt>
      <trkpt lat="43.45287" lon="-0.91828">
        <ele>98.800003051758</ele>
        <time>2025-08-13T06:06:45.000Z</time>
      </trkpt>
      <trkpt lat="43.45287" lon="-0.91818">
        <ele>97.800003051758</ele>
        <time>2025-08-13T06:06:48.000Z</time>
      </trkpt>
      <trkpt lat="43.45287" lon="-0.91812">
        <ele>97.400001525879</ele>
        <time>2025-08-13T06:06:50.000Z</time>
      </trkpt>
      <trkpt lat="43.45284" lon="-0.91802">
        <ele>96.599998474121</ele>
        <time>2025-08-13T06:06:53.000Z</time>
      </trkpt>
      <trkpt lat="43.45282" lon="-0.918">
        <ele>96.599998474121</ele>
        <time>2025-08-13T06:06:54.000Z</time>
      </trkpt>
      <trkpt lat="43.45273" lon="-0.91789">
        <ele>95.400001525879</ele>
        <time>2025-08-13T06:06:59.000Z</time>
      </trkpt>
      <trkpt lat="43.45267" lon="-0.91783">
        <ele>94.599998474121</ele>
        <time>2025-08-13T06:07:02.000Z</time>
      </trkpt>
      <trkpt lat="43.45259" lon="-0.91777">
        <ele>94.199996948242</ele>
        <time>2025-08-13T06:07:06.000Z</time>
      </trkpt>
      <trkpt lat="43.45255" lon="-0.91774">
        <ele>93.800003051758</ele>
        <time>2025-08-13T06:07:08.000Z</time>
      </trkpt>
      <trkpt lat="43.4525" lon="-0.9177">
        <ele>93</ele>
        <time>2025-08-13T06:07:11.000Z</time>
      </trkpt>
      <trkpt lat="43.45242" lon="-0.91766">
        <ele>91.800003051758</ele>
        <time>2025-08-13T06:07:15.000Z</time>
      </trkpt>
      <trkpt lat="43.45231" lon="-0.9176">
        <ele>90.400001525879</ele>
        <time>2025-08-13T06:07:20.000Z</time>
      </trkpt>
      <trkpt lat="43.45224" lon="-0.91754">
        <ele>89</ele>
        <time>2025-08-13T06:07:23.000Z</time>
      </trkpt>
      <trkpt lat="43.45222" lon="-0.91752">
        <ele>88.599998474121</ele>
        <time>2025-08-13T06:07:24.000Z</time>
      </trkpt>
      <trkpt lat="43.4522" lon="-0.9175">
        <ele>87.800003051758</ele>
        <time>2025-08-13T06:07:25.000Z</time>
      </trkpt>
      <trkpt lat="43.45216" lon="-0.91745">
        <ele>86.800003051758</ele>
        <time>2025-08-13T06:07:27.000Z</time>
      </trkpt>
      <trkpt lat="43.45213" lon="-0.91737">
        <ele>85.599998474121</ele>
        <time>2025-08-13T06:07:30.000Z</time>
      </trkpt>
      <trkpt lat="43.45211" lon="-0.91727">
        <ele>84.400001525879</ele>
        <time>2025-08-13T06:07:33.000Z</time>
      </trkpt>
      <trkpt lat="43.45211" lon="-0.9172">
        <ele>82.800003051758</ele>
        <time>2025-08-13T06:07:35.000Z</time>
      </trkpt>
      <trkpt lat="43.45212" lon="-0.91717">
        <ele>82.400001525879</ele>
        <time>2025-08-13T06:07:36.000Z</time>
      </trkpt>
      <trkpt lat="43.45213" lon="-0.91711">
        <ele>81.800003051758</ele>
        <time>2025-08-13T06:07:38.000Z</time>
      </trkpt>
      <trkpt lat="43.45215" lon="-0.91705">
        <ele>80.199996948242</ele>
        <time>2025-08-13T06:07:41.000Z</time>
      </trkpt>
      <trkpt lat="43.45216" lon="-0.91702">
        <ele>79.800003051758</ele>
        <time>2025-08-13T06:07:42.000Z</time>
      </trkpt>
      <trkpt lat="43.45218" lon="-0.91697">
        <ele>78.599998474121</ele>
        <time>2025-08-13T06:07:44.000Z</time>
      </trkpt>
      <trkpt lat="43.4522" lon="-0.91687">
        <ele>78</ele>
        <time>2025-08-13T06:07:47.000Z</time>
      </trkpt>
      <trkpt lat="43.45219" lon="-0.91684">
        <ele>77.599998474121</ele>
        <time>2025-08-13T06:07:48.000Z</time>
      </trkpt>
      <trkpt lat="43.45218" lon="-0.91681">
        <ele>77</ele>
        <time>2025-08-13T06:07:49.000Z</time>
      </trkpt>
      <trkpt lat="43.45217" lon="-0.91677">
        <ele>76.599998474121</ele>
        <time>2025-08-13T06:07:50.000Z</time>
      </trkpt>
      <trkpt lat="43.45212" lon="-0.91672">
        <ele>75.800003051758</ele>
        <time>2025-08-13T06:07:52.000Z</time>
      </trkpt>
      <trkpt lat="43.4521" lon="-0.9167">
        <ele>75.400001525879</ele>
        <time>2025-08-13T06:07:53.000Z</time>
      </trkpt>
      <trkpt lat="43.45205" lon="-0.91665">
        <ele>74.800003051758</ele>
        <time>2025-08-13T06:07:55.000Z</time>
      </trkpt>
      <trkpt lat="43.45197" lon="-0.91659">
        <ele>73.199996948242</ele>
        <time>2025-08-13T06:07:58.000Z</time>
      </trkpt>
      <trkpt lat="43.45195" lon="-0.91657">
        <ele>73</ele>
        <time>2025-08-13T06:07:59.000Z</time>
      </trkpt>
      <trkpt lat="43.4519" lon="-0.91652">
        <ele>72</ele>
        <time>2025-08-13T06:08:02.000Z</time>
      </trkpt>
      <trkpt lat="43.45185" lon="-0.91647">
        <ele>71.199996948242</ele>
        <time>2025-08-13T06:08:05.000Z</time>
      </trkpt>
      <trkpt lat="43.45183" lon="-0.91645">
        <ele>71</ele>
        <time>2025-08-13T06:08:06.000Z</time>
      </trkpt>
      <trkpt lat="43.45182" lon="-0.91643">
        <ele>70.599998474121</ele>
        <time>2025-08-13T06:08:07.000Z</time>
      </trkpt>
      <trkpt lat="43.45181" lon="-0.91638">
        <ele>70.199996948242</ele>
        <time>2025-08-13T06:08:09.000Z</time>
      </trkpt>
      <trkpt lat="43.45181" lon="-0.91635">
        <ele>70</ele>
        <time>2025-08-13T06:08:10.000Z</time>
      </trkpt>
      <trkpt lat="43.45186" lon="-0.91623">
        <ele>68.800003051758</ele>
        <time>2025-08-13T06:08:14.000Z</time>
      </trkpt>
      <trkpt lat="43.45188" lon="-0.91619">
        <ele>68.800003051758</ele>
        <time>2025-08-13T06:08:15.000Z</time>
      </trkpt>
      <trkpt lat="43.45197" lon="-0.91602">
        <ele>67.800003051758</ele>
        <time>2025-08-13T06:08:19.000Z</time>
      </trkpt>
      <trkpt lat="43.45203" lon="-0.91589">
        <ele>67.199996948242</ele>
        <time>2025-08-13T06:08:22.000Z</time>
      </trkpt>
      <trkpt lat="43.45206" lon="-0.9158">
        <ele>66.599998474121</ele>
        <time>2025-08-13T06:08:24.000Z</time>
      </trkpt>
      <trkpt lat="43.4521" lon="-0.91559">
        <ele>65.199996948242</ele>
        <time>2025-08-13T06:08:29.000Z</time>
      </trkpt>
      <trkpt lat="43.4521" lon="-0.9155">
        <ele>64</ele>
        <time>2025-08-13T06:08:31.000Z</time>
      </trkpt>
      <trkpt lat="43.45211" lon="-0.91525">
        <ele>63.200000762939</ele>
        <time>2025-08-13T06:08:36.000Z</time>
      </trkpt>
      <trkpt lat="43.45212" lon="-0.9152">
        <ele>62.400001525879</ele>
        <time>2025-08-13T06:08:37.000Z</time>
      </trkpt>
      <trkpt lat="43.45213" lon="-0.91504">
        <ele>61.200000762939</ele>
        <time>2025-08-13T06:08:40.000Z</time>
      </trkpt>
      <trkpt lat="43.45214" lon="-0.91484">
        <ele>60.400001525879</ele>
        <time>2025-08-13T06:08:44.000Z</time>
      </trkpt>
      <trkpt lat="43.45216" lon="-0.91477">
        <ele>60</ele>
        <time>2025-08-13T06:08:46.000Z</time>
      </trkpt>
      <trkpt lat="43.45221" lon="-0.91474">
        <ele>59.599998474121</ele>
        <time>2025-08-13T06:08:48.000Z</time>
      </trkpt>
      <trkpt lat="43.45224" lon="-0.91474">
        <ele>59.200000762939</ele>
        <time>2025-08-13T06:08:52.000Z</time>
      </trkpt>
      <trkpt lat="43.45224" lon="-0.91473">
        <ele>59.200000762939</ele>
        <time>2025-08-13T06:08:54.000Z</time>
      </trkpt>
      <trkpt lat="43.45229" lon="-0.91472">
        <ele>59</ele>
        <time>2025-08-13T06:09:47.000Z</time>
      </trkpt>
      <trkpt lat="43.45235" lon="-0.91471">
        <ele>59</ele>
        <time>2025-08-13T06:09:49.000Z</time>
      </trkpt>
      <trkpt lat="43.4526" lon="-0.91473">
        <ele>59.200000762939</ele>
        <time>2025-08-13T06:09:57.000Z</time>
      </trkpt>
      <trkpt lat="43.45284" lon="-0.91475">
        <ele>59.200000762939</ele>
        <time>2025-08-13T06:10:04.000Z</time>
      </trkpt>
      <trkpt lat="43.45315" lon="-0.91484">
        <ele>59.599998474121</ele>
        <time>2025-08-13T06:10:14.000Z</time>
      </trkpt>
      <trkpt lat="43.45341" lon="-0.91495">
        <ele>59.599998474121</ele>
        <time>2025-08-13T06:10:22.000Z</time>
      </trkpt>
      <trkpt lat="43.45375" lon="-0.91505">
        <ele>59.400001525879</ele>
        <time>2025-08-13T06:10:30.000Z</time>
      </trkpt>
      <trkpt lat="43.45406" lon="-0.91517">
        <ele>59</ele>
        <time>2025-08-13T06:10:35.000Z</time>
      </trkpt>
      <trkpt lat="43.45413" lon="-0.9152">
        <ele>58.799999237061</ele>
        <time>2025-08-13T06:10:36.000Z</time>
      </trkpt>
      <trkpt lat="43.45444" lon="-0.91532">
        <ele>57.599998474121</ele>
        <time>2025-08-13T06:10:41.000Z</time>
      </trkpt>
      <trkpt lat="43.45449" lon="-0.91535">
        <ele>57.599998474121</ele>
        <time>2025-08-13T06:10:42.000Z</time>
      </trkpt>
      <trkpt lat="43.45487" lon="-0.91552">
        <ele>56.599998474121</ele>
        <time>2025-08-13T06:10:49.000Z</time>
      </trkpt>
      <trkpt lat="43.45511" lon="-0.91558">
        <ele>56.599998474121</ele>
        <time>2025-08-13T06:10:54.000Z</time>
      </trkpt>
      <trkpt lat="43.45521" lon="-0.91559">
        <ele>56.599998474121</ele>
        <time>2025-08-13T06:10:56.000Z</time>
      </trkpt>
      <trkpt lat="43.4554" lon="-0.91561">
        <ele>56.599998474121</ele>
        <time>2025-08-13T06:11:00.000Z</time>
      </trkpt>
      <trkpt lat="43.45545" lon="-0.91561">
        <ele>56.599998474121</ele>
        <time>2025-08-13T06:11:01.000Z</time>
      </trkpt>
      <trkpt lat="43.45573" lon="-0.91568">
        <ele>56.400001525879</ele>
        <time>2025-08-13T06:11:07.000Z</time>
      </trkpt>
      <trkpt lat="43.45581" lon="-0.91574">
        <ele>56.400001525879</ele>
        <time>2025-08-13T06:11:09.000Z</time>
      </trkpt>
      <trkpt lat="43.45593" lon="-0.91584">
        <ele>56</ele>
        <time>2025-08-13T06:11:13.000Z</time>
      </trkpt>
      <trkpt lat="43.45609" lon="-0.91608">
        <ele>56</ele>
        <time>2025-08-13T06:11:19.000Z</time>
      </trkpt>
      <trkpt lat="43.45626" lon="-0.91634">
        <ele>55.799999237061</ele>
        <time>2025-08-13T06:11:25.000Z</time>
      </trkpt>
      <trkpt lat="43.45629" lon="-0.91638">
        <ele>55.799999237061</ele>
        <time>2025-08-13T06:11:26.000Z</time>
      </trkpt>
      <trkpt lat="43.45636" lon="-0.91645">
        <ele>55.599998474121</ele>
        <time>2025-08-13T06:11:28.000Z</time>
      </trkpt>
      <trkpt lat="43.45644" lon="-0.9165">
        <ele>55.599998474121</ele>
        <time>2025-08-13T06:11:30.000Z</time>
      </trkpt>
      <trkpt lat="43.45648" lon="-0.91651">
        <ele>55.599998474121</ele>
        <time>2025-08-13T06:11:31.000Z</time>
      </trkpt>
      <trkpt lat="43.45661" lon="-0.91655">
        <ele>55.400001525879</ele>
        <time>2025-08-13T06:11:34.000Z</time>
      </trkpt>
      <trkpt lat="43.4567" lon="-0.91656">
        <ele>55.200000762939</ele>
        <time>2025-08-13T06:11:36.000Z</time>
      </trkpt>
      <trkpt lat="43.45679" lon="-0.91656">
        <ele>55.200000762939</ele>
        <time>2025-08-13T06:11:38.000Z</time>
      </trkpt>
      <trkpt lat="43.45718" lon="-0.91666">
        <ele>55</ele>
        <time>2025-08-13T06:11:47.000Z</time>
      </trkpt>
      <trkpt lat="43.45722" lon="-0.91667">
        <ele>55</ele>
        <time>2025-08-13T06:11:48.000Z</time>
      </trkpt>
      <trkpt lat="43.45737" lon="-0.91672">
        <ele>55</ele>
        <time>2025-08-13T06:11:52.000Z</time>
      </trkpt>
      <trkpt lat="43.45745" lon="-0.91676">
        <ele>55.200000762939</ele>
        <time>2025-08-13T06:11:54.000Z</time>
      </trkpt>
      <trkpt lat="43.45759" lon="-0.91681">
        <ele>55.200000762939</ele>
        <time>2025-08-13T06:11:57.000Z</time>
      </trkpt>
      <trkpt lat="43.45773" lon="-0.91682">
        <ele>55.200000762939</ele>
        <time>2025-08-13T06:12:00.000Z</time>
      </trkpt>
      <trkpt lat="43.45782" lon="-0.91683">
        <ele>55.200000762939</ele>
        <time>2025-08-13T06:12:02.000Z</time>
      </trkpt>
      <trkpt lat="43.458" lon="-0.91689">
        <ele>55.200000762939</ele>
        <time>2025-08-13T06:12:06.000Z</time>
      </trkpt>
      <trkpt lat="43.4583" lon="-0.91714">
        <ele>55.200000762939</ele>
        <time>2025-08-13T06:12:13.000Z</time>
      </trkpt>
      <trkpt lat="43.45855" lon="-0.91737">
        <ele>54.599998474121</ele>
        <time>2025-08-13T06:12:18.000Z</time>
      </trkpt>
      <trkpt lat="43.4586" lon="-0.9174">
        <ele>54.400001525879</ele>
        <time>2025-08-13T06:12:19.000Z</time>
      </trkpt>
      <trkpt lat="43.45865" lon="-0.91742">
        <ele>54.400001525879</ele>
        <time>2025-08-13T06:12:20.000Z</time>
      </trkpt>
      <trkpt lat="43.45874" lon="-0.91746">
        <ele>54.200000762939</ele>
        <time>2025-08-13T06:12:22.000Z</time>
      </trkpt>
      <trkpt lat="43.45877" lon="-0.91747">
        <ele>54</ele>
        <time>2025-08-13T06:12:23.000Z</time>
      </trkpt>
      <trkpt lat="43.45888" lon="-0.91749">
        <ele>54</ele>
        <time>2025-08-13T06:12:27.000Z</time>
      </trkpt>
      <trkpt lat="43.45904" lon="-0.91756">
        <ele>55</ele>
        <time>2025-08-13T06:12:33.000Z</time>
      </trkpt>
      <trkpt lat="43.45915" lon="-0.91763">
        <ele>55.400001525879</ele>
        <time>2025-08-13T06:12:37.000Z</time>
      </trkpt>
      <trkpt lat="43.45927" lon="-0.91774">
        <ele>55.599998474121</ele>
        <time>2025-08-13T06:12:42.000Z</time>
      </trkpt>
      <trkpt lat="43.45935" lon="-0.91783">
        <ele>56</ele>
        <time>2025-08-13T06:12:47.000Z</time>
      </trkpt>
      <trkpt lat="43.45939" lon="-0.9179">
        <ele>56.599998474121</ele>
        <time>2025-08-13T06:12:51.000Z</time>
      </trkpt>
      <trkpt lat="43.45942" lon="-0.91793">
        <ele>56.799999237061</ele>
        <time>2025-08-13T06:12:53.000Z</time>
      </trkpt>
      <trkpt lat="43.45945" lon="-0.91796">
        <ele>57.200000762939</ele>
        <time>2025-08-13T06:12:55.000Z</time>
      </trkpt>
      <trkpt lat="43.45948" lon="-0.91799">
        <ele>57.599998474121</ele>
        <time>2025-08-13T06:12:57.000Z</time>
      </trkpt>
      <trkpt lat="43.45956" lon="-0.91808">
        <ele>58.200000762939</ele>
        <time>2025-08-13T06:13:02.000Z</time>
      </trkpt>
      <trkpt lat="43.45961" lon="-0.9181">
        <ele>58.400001525879</ele>
        <time>2025-08-13T06:13:04.000Z</time>
      </trkpt>
      <trkpt lat="43.45963" lon="-0.91811">
        <ele>58.799999237061</ele>
        <time>2025-08-13T06:13:05.000Z</time>
      </trkpt>
      <trkpt lat="43.45965" lon="-0.91813">
        <ele>59</ele>
        <time>2025-08-13T06:13:07.000Z</time>
      </trkpt>
      <trkpt lat="43.45973" lon="-0.91819">
        <ele>59.799999237061</ele>
        <time>2025-08-13T06:13:12.000Z</time>
      </trkpt>
      <trkpt lat="43.45978" lon="-0.91823">
        <ele>60</ele>
        <time>2025-08-13T06:13:14.000Z</time>
      </trkpt>
      <trkpt lat="43.4599" lon="-0.91838">
        <ele>60.200000762939</ele>
        <time>2025-08-13T06:13:18.000Z</time>
      </trkpt>
      <trkpt lat="43.45995" lon="-0.91842">
        <ele>60.200000762939</ele>
        <time>2025-08-13T06:13:19.000Z</time>
      </trkpt>
      <trkpt lat="43.46015" lon="-0.91862">
        <ele>59.400001525879</ele>
        <time>2025-08-13T06:13:23.000Z</time>
      </trkpt>
      <trkpt lat="43.46021" lon="-0.91869">
        <ele>59.200000762939</ele>
        <time>2025-08-13T06:13:24.000Z</time>
      </trkpt>
      <trkpt lat="43.46032" lon="-0.91883">
        <ele>58.599998474121</ele>
        <time>2025-08-13T06:13:26.000Z</time>
      </trkpt>
      <trkpt lat="43.46037" lon="-0.9189">
        <ele>58.599998474121</ele>
        <time>2025-08-13T06:13:27.000Z</time>
      </trkpt>
      <trkpt lat="43.46057" lon="-0.9192">
        <ele>57.200000762939</ele>
        <time>2025-08-13T06:13:31.000Z</time>
      </trkpt>
      <trkpt lat="43.46062" lon="-0.91928">
        <ele>57</ele>
        <time>2025-08-13T06:13:32.000Z</time>
      </trkpt>
      <trkpt lat="43.46079" lon="-0.91955">
        <ele>56</ele>
        <time>2025-08-13T06:13:36.000Z</time>
      </trkpt>
      <trkpt lat="43.46084" lon="-0.91961">
        <ele>56</ele>
        <time>2025-08-13T06:13:37.000Z</time>
      </trkpt>
      <trkpt lat="43.46088" lon="-0.91967">
        <ele>55.799999237061</ele>
        <time>2025-08-13T06:13:38.000Z</time>
      </trkpt>
      <trkpt lat="43.4611" lon="-0.91991">
        <ele>55.400001525879</ele>
        <time>2025-08-13T06:13:43.000Z</time>
      </trkpt>
      <trkpt lat="43.46128" lon="-0.92012">
        <ele>55</ele>
        <time>2025-08-13T06:13:47.000Z</time>
      </trkpt>
      <trkpt lat="43.46138" lon="-0.92023">
        <ele>54.599998474121</ele>
        <time>2025-08-13T06:13:49.000Z</time>
      </trkpt>
      <trkpt lat="43.46148" lon="-0.92034">
        <ele>54.200000762939</ele>
        <time>2025-08-13T06:13:51.000Z</time>
      </trkpt>
      <trkpt lat="43.46153" lon="-0.9204">
        <ele>54</ele>
        <time>2025-08-13T06:13:52.000Z</time>
      </trkpt>
      <trkpt lat="43.46182" lon="-0.92081">
        <ele>52.799999237061</ele>
        <time>2025-08-13T06:13:59.000Z</time>
      </trkpt>
      <trkpt lat="43.46206" lon="-0.92119">
        <ele>52.200000762939</ele>
        <time>2025-08-13T06:14:06.000Z</time>
      </trkpt>
      <trkpt lat="43.46208" lon="-0.92124">
        <ele>52.200000762939</ele>
        <time>2025-08-13T06:14:07.000Z</time>
      </trkpt>
      <trkpt lat="43.46216" lon="-0.92133">
        <ele>52</ele>
        <time>2025-08-13T06:14:10.000Z</time>
      </trkpt>
      <trkpt lat="43.46227" lon="-0.92139">
        <ele>51.799999237061</ele>
        <time>2025-08-13T06:14:13.000Z</time>
      </trkpt>
      <trkpt lat="43.46241" lon="-0.9215">
        <ele>51.599998474121</ele>
        <time>2025-08-13T06:14:17.000Z</time>
      </trkpt>
      <trkpt lat="43.46271" lon="-0.92181">
        <ele>51.599998474121</ele>
        <time>2025-08-13T06:14:26.000Z</time>
      </trkpt>
      <trkpt lat="43.4628" lon="-0.92191">
        <ele>51.599998474121</ele>
        <time>2025-08-13T06:14:29.000Z</time>
      </trkpt>
      <trkpt lat="43.46293" lon="-0.92204">
        <ele>51.400001525879</ele>
        <time>2025-08-13T06:14:33.000Z</time>
      </trkpt>
      <trkpt lat="43.46322" lon="-0.92233">
        <ele>51.400001525879</ele>
        <time>2025-08-13T06:14:42.000Z</time>
      </trkpt>
      <trkpt lat="43.46338" lon="-0.92251">
        <ele>51.400001525879</ele>
        <time>2025-08-13T06:14:47.000Z</time>
      </trkpt>
      <trkpt lat="43.46349" lon="-0.9226">
        <ele>51.400001525879</ele>
        <time>2025-08-13T06:14:50.000Z</time>
      </trkpt>
      <trkpt lat="43.46388" lon="-0.92301">
        <ele>51.200000762939</ele>
        <time>2025-08-13T06:15:01.000Z</time>
      </trkpt>
      <trkpt lat="43.46392" lon="-0.92305">
        <ele>51.200000762939</ele>
        <time>2025-08-13T06:15:02.000Z</time>
      </trkpt>
      <trkpt lat="43.46412" lon="-0.92326">
        <ele>51</ele>
        <time>2025-08-13T06:15:07.000Z</time>
      </trkpt>
      <trkpt lat="43.46437" lon="-0.92353">
        <ele>50.400001525879</ele>
        <time>2025-08-13T06:15:13.000Z</time>
      </trkpt>
      <trkpt lat="43.4645" lon="-0.92365">
        <ele>50.200000762939</ele>
        <time>2025-08-13T06:15:16.000Z</time>
      </trkpt>
      <trkpt lat="43.46484" lon="-0.92401">
        <ele>50</ele>
        <time>2025-08-13T06:15:24.000Z</time>
      </trkpt>
      <trkpt lat="43.46511" lon="-0.92429">
        <ele>49.400001525879</ele>
        <time>2025-08-13T06:15:30.000Z</time>
      </trkpt>
      <trkpt lat="43.46525" lon="-0.92443">
        <ele>49.200000762939</ele>
        <time>2025-08-13T06:15:33.000Z</time>
      </trkpt>
      <trkpt lat="43.46565" lon="-0.92485">
        <ele>48.400001525879</ele>
        <time>2025-08-13T06:15:42.000Z</time>
      </trkpt>
      <trkpt lat="43.4657" lon="-0.92489">
        <ele>48.200000762939</ele>
        <time>2025-08-13T06:15:43.000Z</time>
      </trkpt>
      <trkpt lat="43.46601" lon="-0.92519">
        <ele>47.599998474121</ele>
        <time>2025-08-13T06:15:50.000Z</time>
      </trkpt>
      <trkpt lat="43.46629" lon="-0.92546">
        <ele>47.200000762939</ele>
        <time>2025-08-13T06:15:56.000Z</time>
      </trkpt>
      <trkpt lat="43.46643" lon="-0.92558">
        <ele>46.799999237061</ele>
        <time>2025-08-13T06:15:59.000Z</time>
      </trkpt>
      <trkpt lat="43.46648" lon="-0.92562">
        <ele>46.799999237061</ele>
        <time>2025-08-13T06:16:00.000Z</time>
      </trkpt>
      <trkpt lat="43.46662" lon="-0.9257">
        <ele>46.599998474121</ele>
        <time>2025-08-13T06:16:03.000Z</time>
      </trkpt>
      <trkpt lat="43.46667" lon="-0.92572">
        <ele>46.400001525879</ele>
        <time>2025-08-13T06:16:04.000Z</time>
      </trkpt>
      <trkpt lat="43.46691" lon="-0.92577">
        <ele>46</ele>
        <time>2025-08-13T06:16:09.000Z</time>
      </trkpt>
      <trkpt lat="43.46701" lon="-0.92577">
        <ele>45.799999237061</ele>
        <time>2025-08-13T06:16:11.000Z</time>
      </trkpt>
      <trkpt lat="43.46741" lon="-0.92571">
        <ele>45.599998474121</ele>
        <time>2025-08-13T06:16:19.000Z</time>
      </trkpt>
      <trkpt lat="43.46763" lon="-0.92565">
        <ele>45.400001525879</ele>
        <time>2025-08-13T06:16:24.000Z</time>
      </trkpt>
      <trkpt lat="43.46772" lon="-0.92561">
        <ele>45.200000762939</ele>
        <time>2025-08-13T06:16:26.000Z</time>
      </trkpt>
      <trkpt lat="43.46811" lon="-0.92543">
        <ele>45.200000762939</ele>
        <time>2025-08-13T06:16:35.000Z</time>
      </trkpt>
      <trkpt lat="43.46826" lon="-0.92536">
        <ele>45</ele>
        <time>2025-08-13T06:16:39.000Z</time>
      </trkpt>
      <trkpt lat="43.46837" lon="-0.92529">
        <ele>45</ele>
        <time>2025-08-13T06:16:42.000Z</time>
      </trkpt>
      <trkpt lat="43.46859" lon="-0.92514">
        <ele>44.599998474121</ele>
        <time>2025-08-13T06:16:48.000Z</time>
      </trkpt>
      <trkpt lat="43.46884" lon="-0.9249">
        <ele>44.599998474121</ele>
        <time>2025-08-13T06:16:55.000Z</time>
      </trkpt>
      <trkpt lat="43.46887" lon="-0.92487">
        <ele>44.599998474121</ele>
        <time>2025-08-13T06:16:56.000Z</time>
      </trkpt>
      <trkpt lat="43.469" lon="-0.92469">
        <ele>44.599998474121</ele>
        <time>2025-08-13T06:17:00.000Z</time>
      </trkpt>
      <trkpt lat="43.46909" lon="-0.92458">
        <ele>44.400001525879</ele>
        <time>2025-08-13T06:17:03.000Z</time>
      </trkpt>
      <trkpt lat="43.46915" lon="-0.9245">
        <ele>44.599998474121</ele>
        <time>2025-08-13T06:17:05.000Z</time>
      </trkpt>
      <trkpt lat="43.4692" lon="-0.92442">
        <ele>44.599998474121</ele>
        <time>2025-08-13T06:17:07.000Z</time>
      </trkpt>
      <trkpt lat="43.46925" lon="-0.92435">
        <ele>44.599998474121</ele>
        <time>2025-08-13T06:17:09.000Z</time>
      </trkpt>
      <trkpt lat="43.46935" lon="-0.92426">
        <ele>44.599998474121</ele>
        <time>2025-08-13T06:17:13.000Z</time>
      </trkpt>
      <trkpt lat="43.46943" lon="-0.92426">
        <ele>44.799999237061</ele>
        <time>2025-08-13T06:17:17.000Z</time>
      </trkpt>
      <trkpt lat="43.46957" lon="-0.92428">
        <ele>45</ele>
        <time>2025-08-13T06:17:22.000Z</time>
      </trkpt>
      <trkpt lat="43.4696" lon="-0.92429">
        <ele>45</ele>
        <time>2025-08-13T06:17:23.000Z</time>
      </trkpt>
      <trkpt lat="43.46969" lon="-0.92429">
        <ele>45.200000762939</ele>
        <time>2025-08-13T06:17:26.000Z</time>
      </trkpt>
      <trkpt lat="43.46984" lon="-0.92431">
        <ele>45.599998474121</ele>
        <time>2025-08-13T06:17:31.000Z</time>
      </trkpt>
      <trkpt lat="43.47008" lon="-0.92433">
        <ele>45.799999237061</ele>
        <time>2025-08-13T06:17:38.000Z</time>
      </trkpt>
      <trkpt lat="43.47033" lon="-0.92431">
        <ele>46.200000762939</ele>
        <time>2025-08-13T06:17:44.000Z</time>
      </trkpt>
      <trkpt lat="43.47056" lon="-0.92433">
        <ele>46.200000762939</ele>
        <time>2025-08-13T06:17:50.000Z</time>
      </trkpt>
      <trkpt lat="43.47068" lon="-0.92436">
        <ele>46</ele>
        <time>2025-08-13T06:17:52.000Z</time>
      </trkpt>
      <trkpt lat="43.47078" lon="-0.92439">
        <ele>45.799999237061</ele>
        <time>2025-08-13T06:17:54.000Z</time>
      </trkpt>
      <trkpt lat="43.47103" lon="-0.92451">
        <ele>45.200000762939</ele>
        <time>2025-08-13T06:17:58.000Z</time>
      </trkpt>
      <trkpt lat="43.47111" lon="-0.92451">
        <ele>45</ele>
        <time>2025-08-13T06:17:59.000Z</time>
      </trkpt>
      <trkpt lat="43.47129" lon="-0.92441">
        <ele>44.799999237061</ele>
        <time>2025-08-13T06:18:03.000Z</time>
      </trkpt>
      <trkpt lat="43.47133" lon="-0.92442">
        <ele>44.599998474121</ele>
        <time>2025-08-13T06:18:04.000Z</time>
      </trkpt>
      <trkpt lat="43.47139" lon="-0.92439">
        <ele>44.599998474121</ele>
        <time>2025-08-13T06:18:06.000Z</time>
      </trkpt>
      <trkpt lat="43.4714" lon="-0.92437">
        <ele>44.599998474121</ele>
        <time>2025-08-13T06:18:07.000Z</time>
      </trkpt>
      <trkpt lat="43.47142" lon="-0.92436">
        <ele>44.400001525879</ele>
        <time>2025-08-13T06:18:08.000Z</time>
      </trkpt>
      <trkpt lat="43.47148" lon="-0.92433">
        <ele>44.400001525879</ele>
        <time>2025-08-13T06:18:11.000Z</time>
      </trkpt>
      <trkpt lat="43.47156" lon="-0.92421">
        <ele>44.400001525879</ele>
        <time>2025-08-13T06:18:15.000Z</time>
      </trkpt>
      <trkpt lat="43.47169" lon="-0.92413">
        <ele>44.200000762939</ele>
        <time>2025-08-13T06:18:19.000Z</time>
      </trkpt>
      <trkpt lat="43.47184" lon="-0.92411">
        <ele>44</ele>
        <time>2025-08-13T06:18:24.000Z</time>
      </trkpt>
      <trkpt lat="43.47192" lon="-0.92407">
        <ele>43.599998474121</ele>
        <time>2025-08-13T06:18:30.000Z</time>
      </trkpt>
      <trkpt lat="43.47192" lon="-0.92407">
        <ele>43.599998474121</ele>
        <time>2025-08-13T06:18:31.000Z</time>
      </trkpt>
      <trkpt lat="43.47193" lon="-0.92413">
        <ele>48.599998474121</ele>
        <time>2025-08-13T06:38:24.000Z</time>
      </trkpt>
      <trkpt lat="43.47195" lon="-0.92418">
        <ele>43.799999237061</ele>
        <time>2025-08-13T06:38:27.000Z</time>
      </trkpt>
      <trkpt lat="43.47198" lon="-0.92424">
        <ele>43.799999237061</ele>
        <time>2025-08-13T06:38:30.000Z</time>
      </trkpt>
      <trkpt lat="43.472" lon="-0.92425">
        <ele>43.599998474121</ele>
        <time>2025-08-13T06:38:32.000Z</time>
      </trkpt>
      <trkpt lat="43.47201" lon="-0.92428">
        <ele>43.599998474121</ele>
        <time>2025-08-13T06:38:33.000Z</time>
      </trkpt>
      <trkpt lat="43.47202" lon="-0.92436">
        <ele>43.599998474121</ele>
        <time>2025-08-13T06:38:36.000Z</time>
      </trkpt>
      <trkpt lat="43.47203" lon="-0.92442">
        <ele>43.599998474121</ele>
        <time>2025-08-13T06:38:38.000Z</time>
      </trkpt>
      <trkpt lat="43.47204" lon="-0.92453">
        <ele>43.400001525879</ele>
        <time>2025-08-13T06:38:42.000Z</time>
      </trkpt>
      <trkpt lat="43.47207" lon="-0.92459">
        <ele>43.400001525879</ele>
        <time>2025-08-13T06:38:45.000Z</time>
      </trkpt>
      <trkpt lat="43.47214" lon="-0.92469">
        <ele>43.400001525879</ele>
        <time>2025-08-13T06:38:50.000Z</time>
      </trkpt>
      <trkpt lat="43.47216" lon="-0.92471">
        <ele>43.400001525879</ele>
        <time>2025-08-13T06:38:51.000Z</time>
      </trkpt>
      <trkpt lat="43.47225" lon="-0.92487">
        <ele>43.200000762939</ele>
        <time>2025-08-13T06:38:58.000Z</time>
      </trkpt>
      <trkpt lat="43.4723" lon="-0.92502">
        <ele>43.400001525879</ele>
        <time>2025-08-13T06:39:04.000Z</time>
      </trkpt>
      <trkpt lat="43.47231" lon="-0.92504">
        <ele>43.400001525879</ele>
        <time>2025-08-13T06:39:05.000Z</time>
      </trkpt>
      <trkpt lat="43.47236" lon="-0.92509">
        <ele>43.599998474121</ele>
        <time>2025-08-13T06:39:08.000Z</time>
      </trkpt>
      <trkpt lat="43.47242" lon="-0.92525">
        <ele>43.400001525879</ele>
        <time>2025-08-13T06:39:14.000Z</time>
      </trkpt>
      <trkpt lat="43.47248" lon="-0.92537">
        <ele>43.400001525879</ele>
        <time>2025-08-13T06:39:19.000Z</time>
      </trkpt>
      <trkpt lat="43.47253" lon="-0.92547">
        <ele>43.200000762939</ele>
        <time>2025-08-13T06:39:24.000Z</time>
      </trkpt>
      <trkpt lat="43.47261" lon="-0.92555">
        <ele>43.200000762939</ele>
        <time>2025-08-13T06:39:29.000Z</time>
      </trkpt>
      <trkpt lat="43.47271" lon="-0.92568">
        <ele>43.200000762939</ele>
        <time>2025-08-13T06:39:35.000Z</time>
      </trkpt>
      <trkpt lat="43.47282" lon="-0.92588">
        <ele>43.400001525879</ele>
        <time>2025-08-13T06:39:42.000Z</time>
      </trkpt>
      <trkpt lat="43.47294" lon="-0.92604">
        <ele>43.400001525879</ele>
        <time>2025-08-13T06:39:49.000Z</time>
      </trkpt>
      <trkpt lat="43.473" lon="-0.92612">
        <ele>43.400001525879</ele>
        <time>2025-08-13T06:39:53.000Z</time>
      </trkpt>
      <trkpt lat="43.473" lon="-0.92614">
        <ele>43.400001525879</ele>
        <time>2025-08-13T06:39:55.000Z</time>
      </trkpt>
      <trkpt lat="43.473" lon="-0.92614">
        <ele>43.400001525879</ele>
        <time>2025-08-13T06:39:57.000Z</time>
      </trkpt>
      <trkpt lat="43.47303" lon="-0.92626">
        <ele>42.599998474121</ele>
        <time>2025-08-13T06:40:38.000Z</time>
      </trkpt>
      <trkpt lat="43.47304" lon="-0.92628">
        <ele>42.599998474121</ele>
        <time>2025-08-13T06:40:39.000Z</time>
      </trkpt>
      <trkpt lat="43.47307" lon="-0.9263">
        <ele>42.799999237061</ele>
        <time>2025-08-13T06:40:40.000Z</time>
      </trkpt>
      <trkpt lat="43.47311" lon="-0.92639">
        <ele>43</ele>
        <time>2025-08-13T06:40:43.000Z</time>
      </trkpt>
      <trkpt lat="43.47315" lon="-0.92645">
        <ele>43</ele>
        <time>2025-08-13T06:40:45.000Z</time>
      </trkpt>
      <trkpt lat="43.47323" lon="-0.92653">
        <ele>43.200000762939</ele>
        <time>2025-08-13T06:40:48.000Z</time>
      </trkpt>
      <trkpt lat="43.47333" lon="-0.92673">
        <ele>43.400001525879</ele>
        <time>2025-08-13T06:40:54.000Z</time>
      </trkpt>
      <trkpt lat="43.47348" lon="-0.92695">
        <ele>43.799999237061</ele>
        <time>2025-08-13T06:41:01.000Z</time>
      </trkpt>
      <trkpt lat="43.47362" lon="-0.92714">
        <ele>44</ele>
        <time>2025-08-13T06:41:08.000Z</time>
      </trkpt>
      <trkpt lat="43.47368" lon="-0.92727">
        <ele>44.400001525879</ele>
        <time>2025-08-13T06:41:13.000Z</time>
      </trkpt>
      <trkpt lat="43.4737" lon="-0.92731">
        <ele>44.400001525879</ele>
        <time>2025-08-13T06:41:16.000Z</time>
      </trkpt>
      <trkpt lat="43.47378" lon="-0.92741">
        <ele>45</ele>
        <time>2025-08-13T06:41:22.000Z</time>
      </trkpt>
      <trkpt lat="43.47382" lon="-0.9275">
        <ele>45.400001525879</ele>
        <time>2025-08-13T06:41:29.000Z</time>
      </trkpt>
      <trkpt lat="43.47382" lon="-0.9275">
        <ele>45.400001525879</ele>
        <time>2025-08-13T06:41:30.000Z</time>
      </trkpt>
      <trkpt lat="43.47387" lon="-0.9275">
        <ele>45.200000762939</ele>
        <time>2025-08-13T06:41:45.000Z</time>
      </trkpt>
      <trkpt lat="43.47392" lon="-0.92751">
        <ele>45</ele>
        <time>2025-08-13T06:41:47.000Z</time>
      </trkpt>
      <trkpt lat="43.47401" lon="-0.92766">
        <ele>45</ele>
        <time>2025-08-13T06:41:52.000Z</time>
      </trkpt>
      <trkpt lat="43.47409" lon="-0.92774">
        <ele>45.400001525879</ele>
        <time>2025-08-13T06:41:55.000Z</time>
      </trkpt>
      <trkpt lat="43.47412" lon="-0.92781">
        <ele>45.599998474121</ele>
        <time>2025-08-13T06:41:57.000Z</time>
      </trkpt>
      <trkpt lat="43.47412" lon="-0.92787">
        <ele>45.599998474121</ele>
        <time>2025-08-13T06:41:58.000Z</time>
      </trkpt>
      <trkpt lat="43.47408" lon="-0.92796">
        <ele>45.799999237061</ele>
        <time>2025-08-13T06:42:00.000Z</time>
      </trkpt>
      <trkpt lat="43.47396" lon="-0.92801">
        <ele>45.799999237061</ele>
        <time>2025-08-13T06:42:03.000Z</time>
      </trkpt>
      <trkpt lat="43.47392" lon="-0.92803">
        <ele>45.799999237061</ele>
        <time>2025-08-13T06:42:04.000Z</time>
      </trkpt>
      <trkpt lat="43.4738" lon="-0.92811">
        <ele>45.799999237061</ele>
        <time>2025-08-13T06:42:07.000Z</time>
      </trkpt>
      <trkpt lat="43.47376" lon="-0.92815">
        <ele>45.799999237061</ele>
        <time>2025-08-13T06:42:08.000Z</time>
      </trkpt>
      <trkpt lat="43.47371" lon="-0.92823">
        <ele>45.799999237061</ele>
        <time>2025-08-13T06:42:10.000Z</time>
      </trkpt>
      <trkpt lat="43.47361" lon="-0.92842">
        <ele>45.599998474121</ele>
        <time>2025-08-13T06:42:14.000Z</time>
      </trkpt>
      <trkpt lat="43.47344" lon="-0.92876">
        <ele>45.799999237061</ele>
        <time>2025-08-13T06:42:22.000Z</time>
      </trkpt>
      <trkpt lat="43.47333" lon="-0.92899">
        <ele>46</ele>
        <time>2025-08-13T06:42:27.000Z</time>
      </trkpt>
      <trkpt lat="43.47319" lon="-0.92928">
        <ele>46.200000762939</ele>
        <time>2025-08-13T06:42:34.000Z</time>
      </trkpt>
      <trkpt lat="43.47308" lon="-0.92952">
        <ele>46.400001525879</ele>
        <time>2025-08-13T06:42:40.000Z</time>
      </trkpt>
      <trkpt lat="43.47305" lon="-0.92957">
        <ele>46.400001525879</ele>
        <time>2025-08-13T06:42:41.000Z</time>
      </trkpt>
      <trkpt lat="43.47288" lon="-0.92986">
        <ele>46.799999237061</ele>
        <time>2025-08-13T06:42:48.000Z</time>
      </trkpt>
      <trkpt lat="43.47268" lon="-0.93014">
        <ele>47.200000762939</ele>
        <time>2025-08-13T06:42:56.000Z</time>
      </trkpt>
      <trkpt lat="43.47254" lon="-0.93032">
        <ele>47.400001525879</ele>
        <time>2025-08-13T06:43:01.000Z</time>
      </trkpt>
      <trkpt lat="43.47248" lon="-0.93039">
        <ele>47.599998474121</ele>
        <time>2025-08-13T06:43:03.000Z</time>
      </trkpt>
      <trkpt lat="43.47232" lon="-0.93059">
        <ele>48</ele>
        <time>2025-08-13T06:43:09.000Z</time>
      </trkpt>
      <trkpt lat="43.47218" lon="-0.93079">
        <ele>48</ele>
        <time>2025-08-13T06:43:15.000Z</time>
      </trkpt>
      <trkpt lat="43.47214" lon="-0.93099">
        <ele>48.400001525879</ele>
        <time>2025-08-13T06:43:20.000Z</time>
      </trkpt>
      <trkpt lat="43.47213" lon="-0.93107">
        <ele>48.599998474121</ele>
        <time>2025-08-13T06:43:22.000Z</time>
      </trkpt>
      <trkpt lat="43.47214" lon="-0.93116">
        <ele>48.799999237061</ele>
        <time>2025-08-13T06:43:24.000Z</time>
      </trkpt>
      <trkpt lat="43.47215" lon="-0.9312">
        <ele>48.799999237061</ele>
        <time>2025-08-13T06:43:25.000Z</time>
      </trkpt>
      <trkpt lat="43.4722" lon="-0.93138">
        <ele>49.400001525879</ele>
        <time>2025-08-13T06:43:30.000Z</time>
      </trkpt>
      <trkpt lat="43.47223" lon="-0.93144">
        <ele>49.599998474121</ele>
        <time>2025-08-13T06:43:32.000Z</time>
      </trkpt>
      <trkpt lat="43.47232" lon="-0.9316">
        <ele>50.799999237061</ele>
        <time>2025-08-13T06:43:38.000Z</time>
      </trkpt>
      <trkpt lat="43.47243" lon="-0.93174">
        <ele>51.799999237061</ele>
        <time>2025-08-13T06:43:44.000Z</time>
      </trkpt>
      <trkpt lat="43.47245" lon="-0.9318">
        <ele>52</ele>
        <time>2025-08-13T06:43:46.000Z</time>
      </trkpt>
      <trkpt lat="43.47241" lon="-0.93201">
        <ele>52.599998474121</ele>
        <time>2025-08-13T06:43:53.000Z</time>
      </trkpt>
      <trkpt lat="43.47236" lon="-0.9321">
        <ele>52.799999237061</ele>
        <time>2025-08-13T06:43:56.000Z</time>
      </trkpt>
      <trkpt lat="43.47228" lon="-0.93223">
        <ele>52.599998474121</ele>
        <time>2025-08-13T06:43:59.000Z</time>
      </trkpt>
      <trkpt lat="43.47209" lon="-0.93259">
        <ele>52.200000762939</ele>
        <time>2025-08-13T06:44:07.000Z</time>
      </trkpt>
      <trkpt lat="43.472" lon="-0.93275">
        <ele>51.799999237061</ele>
        <time>2025-08-13T06:44:10.000Z</time>
      </trkpt>
      <trkpt lat="43.47182" lon="-0.93307">
        <ele>51</ele>
        <time>2025-08-13T06:44:16.000Z</time>
      </trkpt>
      <trkpt lat="43.47179" lon="-0.93313">
        <ele>50.400001525879</ele>
        <time>2025-08-13T06:44:17.000Z</time>
      </trkpt>
      <trkpt lat="43.47177" lon="-0.93319">
        <ele>50.400001525879</ele>
        <time>2025-08-13T06:44:18.000Z</time>
      </trkpt>
      <trkpt lat="43.47165" lon="-0.93346">
        <ele>49.400001525879</ele>
        <time>2025-08-13T06:44:22.000Z</time>
      </trkpt>
      <trkpt lat="43.47148" lon="-0.93383">
        <ele>48.400001525879</ele>
        <time>2025-08-13T06:44:27.000Z</time>
      </trkpt>
      <trkpt lat="43.47145" lon="-0.9339">
        <ele>48.200000762939</ele>
        <time>2025-08-13T06:44:28.000Z</time>
      </trkpt>
      <trkpt lat="43.47131" lon="-0.93421">
        <ele>47.400001525879</ele>
        <time>2025-08-13T06:44:32.000Z</time>
      </trkpt>
      <trkpt lat="43.47125" lon="-0.93437">
        <ele>46.400001525879</ele>
        <time>2025-08-13T06:44:34.000Z</time>
      </trkpt>
      <trkpt lat="43.47121" lon="-0.93445">
        <ele>46.200000762939</ele>
        <time>2025-08-13T06:44:35.000Z</time>
      </trkpt>
      <trkpt lat="43.47117" lon="-0.93452">
        <ele>46</ele>
        <time>2025-08-13T06:44:36.000Z</time>
      </trkpt>
      <trkpt lat="43.47105" lon="-0.93458">
        <ele>45.400001525879</ele>
        <time>2025-08-13T06:44:38.000Z</time>
      </trkpt>
      <trkpt lat="43.47099" lon="-0.93456">
        <ele>45.200000762939</ele>
        <time>2025-08-13T06:44:39.000Z</time>
      </trkpt>
      <trkpt lat="43.47094" lon="-0.93454">
        <ele>44.599998474121</ele>
        <time>2025-08-13T06:44:40.000Z</time>
      </trkpt>
      <trkpt lat="43.47089" lon="-0.93451">
        <ele>44</ele>
        <time>2025-08-13T06:44:41.000Z</time>
      </trkpt>
      <trkpt lat="43.47084" lon="-0.93447">
        <ele>43.799999237061</ele>
        <time>2025-08-13T06:44:42.000Z</time>
      </trkpt>
      <trkpt lat="43.47076" lon="-0.93443">
        <ele>43.400001525879</ele>
        <time>2025-08-13T06:44:44.000Z</time>
      </trkpt>
      <trkpt lat="43.47071" lon="-0.93451">
        <ele>43.200000762939</ele>
        <time>2025-08-13T06:44:47.000Z</time>
      </trkpt>
      <trkpt lat="43.47065" lon="-0.93468">
        <ele>43.200000762939</ele>
        <time>2025-08-13T06:44:52.000Z</time>
      </trkpt>
      <trkpt lat="43.47056" lon="-0.93488">
        <ele>43.599998474121</ele>
        <time>2025-08-13T06:44:58.000Z</time>
      </trkpt>
      <trkpt lat="43.47051" lon="-0.93503">
        <ele>44</ele>
        <time>2025-08-13T06:45:03.000Z</time>
      </trkpt>
      <trkpt lat="43.47037" lon="-0.93529">
        <ele>45</ele>
        <time>2025-08-13T06:45:13.000Z</time>
      </trkpt>
      <trkpt lat="43.47034" lon="-0.93534">
        <ele>45.200000762939</ele>
        <time>2025-08-13T06:45:15.000Z</time>
      </trkpt>
      <trkpt lat="43.47025" lon="-0.93552">
        <ele>45.599998474121</ele>
        <time>2025-08-13T06:45:21.000Z</time>
      </trkpt>
      <trkpt lat="43.47014" lon="-0.93576">
        <ele>46</ele>
        <time>2025-08-13T06:45:28.000Z</time>
      </trkpt>
      <trkpt lat="43.47009" lon="-0.93583">
        <ele>46.200000762939</ele>
        <time>2025-08-13T06:45:30.000Z</time>
      </trkpt>
      <trkpt lat="43.47001" lon="-0.936">
        <ele>46.200000762939</ele>
        <time>2025-08-13T06:45:34.000Z</time>
      </trkpt>
      <trkpt lat="43.46987" lon="-0.93629">
        <ele>46.400001525879</ele>
        <time>2025-08-13T06:45:41.000Z</time>
      </trkpt>
      <trkpt lat="43.46968" lon="-0.9366">
        <ele>46.200000762939</ele>
        <time>2025-08-13T06:45:47.000Z</time>
      </trkpt>
      <trkpt lat="43.46956" lon="-0.93689">
        <ele>45.799999237061</ele>
        <time>2025-08-13T06:45:53.000Z</time>
      </trkpt>
      <trkpt lat="43.46931" lon="-0.93738">
        <ele>45.400001525879</ele>
        <time>2025-08-13T06:46:02.000Z</time>
      </trkpt>
      <trkpt lat="43.46927" lon="-0.93746">
        <ele>45.400001525879</ele>
        <time>2025-08-13T06:46:04.000Z</time>
      </trkpt>
      <trkpt lat="43.4692" lon="-0.93762">
        <ele>45.200000762939</ele>
        <time>2025-08-13T06:46:09.000Z</time>
      </trkpt>
      <trkpt lat="43.46908" lon="-0.93789">
        <ele>45</ele>
        <time>2025-08-13T06:46:15.000Z</time>
      </trkpt>
      <trkpt lat="43.46889" lon="-0.93824">
        <ele>44.799999237061</ele>
        <time>2025-08-13T06:46:22.000Z</time>
      </trkpt>
      <trkpt lat="43.46874" lon="-0.93854">
        <ele>44.799999237061</ele>
        <time>2025-08-13T06:46:28.000Z</time>
      </trkpt>
      <trkpt lat="43.46859" lon="-0.93888">
        <ele>44.799999237061</ele>
        <time>2025-08-13T06:46:34.000Z</time>
      </trkpt>
      <trkpt lat="43.46839" lon="-0.93936">
        <ele>44.599998474121</ele>
        <time>2025-08-13T06:46:41.000Z</time>
      </trkpt>
      <trkpt lat="43.46826" lon="-0.93966">
        <ele>44.599998474121</ele>
        <time>2025-08-13T06:46:45.000Z</time>
      </trkpt>
      <trkpt lat="43.46813" lon="-0.94013">
        <ele>44.200000762939</ele>
        <time>2025-08-13T06:46:52.000Z</time>
      </trkpt>
      <trkpt lat="43.46811" lon="-0.94033">
        <ele>43.799999237061</ele>
        <time>2025-08-13T06:46:55.000Z</time>
      </trkpt>
      <trkpt lat="43.46807" lon="-0.94043">
        <ele>43.599998474121</ele>
        <time>2025-08-13T06:46:56.000Z</time>
      </trkpt>
      <trkpt lat="43.46804" lon="-0.94058">
        <ele>43.400001525879</ele>
        <time>2025-08-13T06:46:58.000Z</time>
      </trkpt>
      <trkpt lat="43.46801" lon="-0.94073">
        <ele>43.200000762939</ele>
        <time>2025-08-13T06:47:00.000Z</time>
      </trkpt>
      <trkpt lat="43.46799" lon="-0.94081">
        <ele>43.200000762939</ele>
        <time>2025-08-13T06:47:01.000Z</time>
      </trkpt>
      <trkpt lat="43.46798" lon="-0.94088">
        <ele>43.200000762939</ele>
        <time>2025-08-13T06:47:02.000Z</time>
      </trkpt>
      <trkpt lat="43.46796" lon="-0.9411">
        <ele>43</ele>
        <time>2025-08-13T06:47:05.000Z</time>
      </trkpt>
      <trkpt lat="43.46792" lon="-0.94125">
        <ele>42.799999237061</ele>
        <time>2025-08-13T06:47:07.000Z</time>
      </trkpt>
      <trkpt lat="43.46791" lon="-0.94132">
        <ele>42.799999237061</ele>
        <time>2025-08-13T06:47:08.000Z</time>
      </trkpt>
      <trkpt lat="43.46787" lon="-0.94149">
        <ele>42.599998474121</ele>
        <time>2025-08-13T06:47:10.000Z</time>
      </trkpt>
      <trkpt lat="43.46784" lon="-0.94165">
        <ele>42.400001525879</ele>
        <time>2025-08-13T06:47:12.000Z</time>
      </trkpt>
      <trkpt lat="43.46784" lon="-0.94171">
        <ele>42.400001525879</ele>
        <time>2025-08-13T06:47:13.000Z</time>
      </trkpt>
      <trkpt lat="43.46779" lon="-0.94188">
        <ele>42.400001525879</ele>
        <time>2025-08-13T06:47:15.000Z</time>
      </trkpt>
      <trkpt lat="43.46772" lon="-0.94219">
        <ele>42.200000762939</ele>
        <time>2025-08-13T06:47:19.000Z</time>
      </trkpt>
      <trkpt lat="43.46765" lon="-0.94254">
        <ele>42.200000762939</ele>
        <time>2025-08-13T06:47:23.000Z</time>
      </trkpt>
      <trkpt lat="43.46762" lon="-0.94266">
        <ele>42.200000762939</ele>
        <time>2025-08-13T06:47:25.000Z</time>
      </trkpt>
      <trkpt lat="43.46759" lon="-0.94279">
        <ele>42</ele>
        <time>2025-08-13T06:47:27.000Z</time>
      </trkpt>
      <trkpt lat="43.46756" lon="-0.94291">
        <ele>42</ele>
        <time>2025-08-13T06:47:29.000Z</time>
      </trkpt>
      <trkpt lat="43.46751" lon="-0.94318">
        <ele>41.799999237061</ele>
        <time>2025-08-13T06:47:34.000Z</time>
      </trkpt>
      <trkpt lat="43.46741" lon="-0.94357">
        <ele>42</ele>
        <time>2025-08-13T06:47:40.000Z</time>
      </trkpt>
      <trkpt lat="43.46733" lon="-0.94392">
        <ele>42.200000762939</ele>
        <time>2025-08-13T06:47:45.000Z</time>
      </trkpt>
      <trkpt lat="43.46733" lon="-0.94397">
        <ele>42.200000762939</ele>
        <time>2025-08-13T06:47:46.000Z</time>
      </trkpt>
      <trkpt lat="43.46729" lon="-0.94411">
        <ele>42.200000762939</ele>
        <time>2025-08-13T06:47:48.000Z</time>
      </trkpt>
      <trkpt lat="43.46723" lon="-0.9444">
        <ele>42</ele>
        <time>2025-08-13T06:47:52.000Z</time>
      </trkpt>
      <trkpt lat="43.4672" lon="-0.94471">
        <ele>42</ele>
        <time>2025-08-13T06:47:57.000Z</time>
      </trkpt>
      <trkpt lat="43.46713" lon="-0.94488">
        <ele>42</ele>
        <time>2025-08-13T06:47:59.000Z</time>
      </trkpt>
      <trkpt lat="43.46709" lon="-0.9452">
        <ele>42</ele>
        <time>2025-08-13T06:48:04.000Z</time>
      </trkpt>
      <trkpt lat="43.467" lon="-0.94551">
        <ele>41.799999237061</ele>
        <time>2025-08-13T06:48:09.000Z</time>
      </trkpt>
      <trkpt lat="43.46692" lon="-0.9458">
        <ele>42</ele>
        <time>2025-08-13T06:48:14.000Z</time>
      </trkpt>
      <trkpt lat="43.46691" lon="-0.94587">
        <ele>42</ele>
        <time>2025-08-13T06:48:15.000Z</time>
      </trkpt>
      <trkpt lat="43.46683" lon="-0.9463">
        <ele>42</ele>
        <time>2025-08-13T06:48:22.000Z</time>
      </trkpt>
      <trkpt lat="43.46678" lon="-0.94654">
        <ele>41.799999237061</ele>
        <time>2025-08-13T06:48:26.000Z</time>
      </trkpt>
      <trkpt lat="43.46675" lon="-0.94671">
        <ele>41.799999237061</ele>
        <time>2025-08-13T06:48:29.000Z</time>
      </trkpt>
      <trkpt lat="43.46669" lon="-0.947">
        <ele>41.799999237061</ele>
        <time>2025-08-13T06:48:34.000Z</time>
      </trkpt>
      <trkpt lat="43.46666" lon="-0.94713">
        <ele>41.799999237061</ele>
        <time>2025-08-13T06:48:36.000Z</time>
      </trkpt>
      <trkpt lat="43.46658" lon="-0.9475">
        <ele>41.799999237061</ele>
        <time>2025-08-13T06:48:42.000Z</time>
      </trkpt>
      <trkpt lat="43.46655" lon="-0.94763">
        <ele>41.799999237061</ele>
        <time>2025-08-13T06:48:44.000Z</time>
      </trkpt>
      <trkpt lat="43.46645" lon="-0.94815">
        <ele>41.799999237061</ele>
        <time>2025-08-13T06:48:52.000Z</time>
      </trkpt>
      <trkpt lat="43.46636" lon="-0.94853">
        <ele>41.799999237061</ele>
        <time>2025-08-13T06:48:58.000Z</time>
      </trkpt>
      <trkpt lat="43.46629" lon="-0.94883">
        <ele>41.799999237061</ele>
        <time>2025-08-13T06:49:03.000Z</time>
      </trkpt>
      <trkpt lat="43.46627" lon="-0.94895">
        <ele>41.799999237061</ele>
        <time>2025-08-13T06:49:05.000Z</time>
      </trkpt>
      <trkpt lat="43.46626" lon="-0.94901">
        <ele>41.799999237061</ele>
        <time>2025-08-13T06:49:06.000Z</time>
      </trkpt>
      <trkpt lat="43.46621" lon="-0.94926">
        <ele>41.799999237061</ele>
        <time>2025-08-13T06:49:10.000Z</time>
      </trkpt>
      <trkpt lat="43.46615" lon="-0.94962">
        <ele>41.799999237061</ele>
        <time>2025-08-13T06:49:16.000Z</time>
      </trkpt>
      <trkpt lat="43.46614" lon="-0.94968">
        <ele>41.599998474121</ele>
        <time>2025-08-13T06:49:17.000Z</time>
      </trkpt>
      <trkpt lat="43.46609" lon="-0.94987">
        <ele>41.799999237061</ele>
        <time>2025-08-13T06:49:20.000Z</time>
      </trkpt>
      <trkpt lat="43.46604" lon="-0.9501">
        <ele>41.799999237061</ele>
        <time>2025-08-13T06:49:24.000Z</time>
      </trkpt>
      <trkpt lat="43.46599" lon="-0.95043">
        <ele>41.799999237061</ele>
        <time>2025-08-13T06:49:31.000Z</time>
      </trkpt>
      <trkpt lat="43.46595" lon="-0.95069">
        <ele>41.799999237061</ele>
        <time>2025-08-13T06:49:35.000Z</time>
      </trkpt>
      <trkpt lat="43.46592" lon="-0.95089">
        <ele>41.799999237061</ele>
        <time>2025-08-13T06:49:39.000Z</time>
      </trkpt>
      <trkpt lat="43.46579" lon="-0.95127">
        <ele>41.799999237061</ele>
        <time>2025-08-13T06:49:44.000Z</time>
      </trkpt>
      <trkpt lat="43.46576" lon="-0.95135">
        <ele>42</ele>
        <time>2025-08-13T06:49:45.000Z</time>
      </trkpt>
      <trkpt lat="43.4657" lon="-0.95159">
        <ele>42</ele>
        <time>2025-08-13T06:49:48.000Z</time>
      </trkpt>
      <trkpt lat="43.46565" lon="-0.95198">
        <ele>42.200000762939</ele>
        <time>2025-08-13T06:49:55.000Z</time>
      </trkpt>
      <trkpt lat="43.46561" lon="-0.95222">
        <ele>42.200000762939</ele>
        <time>2025-08-13T06:50:00.000Z</time>
      </trkpt>
      <trkpt lat="43.46557" lon="-0.95253">
        <ele>42.200000762939</ele>
        <time>2025-08-13T06:50:06.000Z</time>
      </trkpt>
      <trkpt lat="43.46557" lon="-0.95266">
        <ele>42</ele>
        <time>2025-08-13T06:50:09.000Z</time>
      </trkpt>
      <trkpt lat="43.46556" lon="-0.95281">
        <ele>42</ele>
        <time>2025-08-13T06:50:12.000Z</time>
      </trkpt>
      <trkpt lat="43.46554" lon="-0.95287">
        <ele>42</ele>
        <time>2025-08-13T06:50:13.000Z</time>
      </trkpt>
      <trkpt lat="43.46544" lon="-0.9532">
        <ele>42</ele>
        <time>2025-08-13T06:50:18.000Z</time>
      </trkpt>
      <trkpt lat="43.46545" lon="-0.9534">
        <ele>42</ele>
        <time>2025-08-13T06:50:22.000Z</time>
      </trkpt>
      <trkpt lat="43.4653" lon="-0.9539">
        <ele>41.599998474121</ele>
        <time>2025-08-13T06:50:28.000Z</time>
      </trkpt>
      <trkpt lat="43.46515" lon="-0.95432">
        <ele>41.599998474121</ele>
        <time>2025-08-13T06:50:33.000Z</time>
      </trkpt>
      <trkpt lat="43.46513" lon="-0.95454">
        <ele>41.200000762939</ele>
        <time>2025-08-13T06:50:37.000Z</time>
      </trkpt>
      <trkpt lat="43.46511" lon="-0.95463">
        <ele>41.200000762939</ele>
        <time>2025-08-13T06:50:38.000Z</time>
      </trkpt>
      <trkpt lat="43.46508" lon="-0.95472">
        <ele>41.200000762939</ele>
        <time>2025-08-13T06:50:39.000Z</time>
      </trkpt>
      <trkpt lat="43.46501" lon="-0.95518">
        <ele>41</ele>
        <time>2025-08-13T06:50:47.000Z</time>
      </trkpt>
      <trkpt lat="43.46499" lon="-0.95535">
        <ele>41</ele>
        <time>2025-08-13T06:50:50.000Z</time>
      </trkpt>
      <trkpt lat="43.46499" lon="-0.95539">
        <ele>41</ele>
        <time>2025-08-13T06:50:51.000Z</time>
      </trkpt>
      <trkpt lat="43.46493" lon="-0.95566">
        <ele>40.799999237061</ele>
        <time>2025-08-13T06:50:56.000Z</time>
      </trkpt>
      <trkpt lat="43.46488" lon="-0.95591">
        <ele>40.799999237061</ele>
        <time>2025-08-13T06:51:02.000Z</time>
      </trkpt>
      <trkpt lat="43.46479" lon="-0.95622">
        <ele>40.599998474121</ele>
        <time>2025-08-13T06:51:07.000Z</time>
      </trkpt>
      <trkpt lat="43.46471" lon="-0.95658">
        <ele>40.200000762939</ele>
        <time>2025-08-13T06:51:12.000Z</time>
      </trkpt>
      <trkpt lat="43.46469" lon="-0.95665">
        <ele>40.200000762939</ele>
        <time>2025-08-13T06:51:13.000Z</time>
      </trkpt>
      <trkpt lat="43.46464" lon="-0.95694">
        <ele>40</ele>
        <time>2025-08-13T06:51:18.000Z</time>
      </trkpt>
      <trkpt lat="43.46461" lon="-0.95704">
        <ele>40</ele>
        <time>2025-08-13T06:51:19.000Z</time>
      </trkpt>
      <trkpt lat="43.46458" lon="-0.95718">
        <ele>39.799999237061</ele>
        <time>2025-08-13T06:51:21.000Z</time>
      </trkpt>
      <trkpt lat="43.46447" lon="-0.95761">
        <ele>39.599998474121</ele>
        <time>2025-08-13T06:51:27.000Z</time>
      </trkpt>
      <trkpt lat="43.46444" lon="-0.95798">
        <ele>39.400001525879</ele>
        <time>2025-08-13T06:51:32.000Z</time>
      </trkpt>
      <trkpt lat="43.46444" lon="-0.95816">
        <ele>39.200000762939</ele>
        <time>2025-08-13T06:51:35.000Z</time>
      </trkpt>
      <trkpt lat="43.46437" lon="-0.95831">
        <ele>39</ele>
        <time>2025-08-13T06:51:37.000Z</time>
      </trkpt>
      <trkpt lat="43.46428" lon="-0.95857">
        <ele>38.599998474121</ele>
        <time>2025-08-13T06:51:41.000Z</time>
      </trkpt>
      <trkpt lat="43.46427" lon="-0.95865">
        <ele>38.799999237061</ele>
        <time>2025-08-13T06:51:42.000Z</time>
      </trkpt>
      <trkpt lat="43.4642" lon="-0.95893">
        <ele>38.400001525879</ele>
        <time>2025-08-13T06:51:45.000Z</time>
      </trkpt>
      <trkpt lat="43.46418" lon="-0.95906">
        <ele>38.400001525879</ele>
        <time>2025-08-13T06:51:47.000Z</time>
      </trkpt>
      <trkpt lat="43.46415" lon="-0.95913">
        <ele>38.400001525879</ele>
        <time>2025-08-13T06:51:48.000Z</time>
      </trkpt>
      <trkpt lat="43.46408" lon="-0.95942">
        <ele>38.200000762939</ele>
        <time>2025-08-13T06:51:52.000Z</time>
      </trkpt>
      <trkpt lat="43.46406" lon="-0.95949">
        <ele>38.200000762939</ele>
        <time>2025-08-13T06:51:53.000Z</time>
      </trkpt>
      <trkpt lat="43.46404" lon="-0.95956">
        <ele>38</ele>
        <time>2025-08-13T06:51:54.000Z</time>
      </trkpt>
      <trkpt lat="43.46401" lon="-0.95977">
        <ele>37.599998474121</ele>
        <time>2025-08-13T06:51:58.000Z</time>
      </trkpt>
      <trkpt lat="43.46396" lon="-0.95996">
        <ele>37.599998474121</ele>
        <time>2025-08-13T06:52:02.000Z</time>
      </trkpt>
      <trkpt lat="43.46393" lon="-0.96016">
        <ele>37.400001525879</ele>
        <time>2025-08-13T06:52:06.000Z</time>
      </trkpt>
      <trkpt lat="43.46385" lon="-0.96057">
        <ele>37.200000762939</ele>
        <time>2025-08-13T06:52:13.000Z</time>
      </trkpt>
      <trkpt lat="43.46381" lon="-0.96082">
        <ele>37</ele>
        <time>2025-08-13T06:52:18.000Z</time>
      </trkpt>
      <trkpt lat="43.46379" lon="-0.96088">
        <ele>36.799999237061</ele>
        <time>2025-08-13T06:52:19.000Z</time>
      </trkpt>
      <trkpt lat="43.4637" lon="-0.9612">
        <ele>36.599998474121</ele>
        <time>2025-08-13T06:52:24.000Z</time>
      </trkpt>
      <trkpt lat="43.4636" lon="-0.96157">
        <ele>36.400001525879</ele>
        <time>2025-08-13T06:52:31.000Z</time>
      </trkpt>
      <trkpt lat="43.46355" lon="-0.96183">
        <ele>36.400001525879</ele>
        <time>2025-08-13T06:52:36.000Z</time>
      </trkpt>
      <trkpt lat="43.46348" lon="-0.96211">
        <ele>36.400001525879</ele>
        <time>2025-08-13T06:52:41.000Z</time>
      </trkpt>
      <trkpt lat="43.46347" lon="-0.9623">
        <ele>36.599998474121</ele>
        <time>2025-08-13T06:52:45.000Z</time>
      </trkpt>
      <trkpt lat="43.46341" lon="-0.96265">
        <ele>37</ele>
        <time>2025-08-13T06:52:51.000Z</time>
      </trkpt>
      <trkpt lat="43.46341" lon="-0.96283">
        <ele>36.799999237061</ele>
        <time>2025-08-13T06:52:55.000Z</time>
      </trkpt>
      <trkpt lat="43.46339" lon="-0.96294">
        <ele>36.400001525879</ele>
        <time>2025-08-13T06:52:57.000Z</time>
      </trkpt>
      <trkpt lat="43.46318" lon="-0.96346">
        <ele>36.200000762939</ele>
        <time>2025-08-13T06:53:04.000Z</time>
      </trkpt>
      <trkpt lat="43.46315" lon="-0.96371">
        <ele>36</ele>
        <time>2025-08-13T06:53:09.000Z</time>
      </trkpt>
      <trkpt lat="43.46311" lon="-0.96402">
        <ele>36.200000762939</ele>
        <time>2025-08-13T06:53:15.000Z</time>
      </trkpt>
      <trkpt lat="43.46306" lon="-0.96433">
        <ele>36</ele>
        <time>2025-08-13T06:53:20.000Z</time>
      </trkpt>
      <trkpt lat="43.46305" lon="-0.96452">
        <ele>36</ele>
        <time>2025-08-13T06:53:23.000Z</time>
      </trkpt>
      <trkpt lat="43.463" lon="-0.9647">
        <ele>35.799999237061</ele>
        <time>2025-08-13T06:53:27.000Z</time>
      </trkpt>
      <trkpt lat="43.46285" lon="-0.96524">
        <ele>35.799999237061</ele>
        <time>2025-08-13T06:53:35.000Z</time>
      </trkpt>
      <trkpt lat="43.46286" lon="-0.96551">
        <ele>35.599998474121</ele>
        <time>2025-08-13T06:53:40.000Z</time>
      </trkpt>
      <trkpt lat="43.46275" lon="-0.96588">
        <ele>35.599998474121</ele>
        <time>2025-08-13T06:53:45.000Z</time>
      </trkpt>
      <trkpt lat="43.46275" lon="-0.96625">
        <ele>35.599998474121</ele>
        <time>2025-08-13T06:53:52.000Z</time>
      </trkpt>
      <trkpt lat="43.46271" lon="-0.96655">
        <ele>35.799999237061</ele>
        <time>2025-08-13T06:53:57.000Z</time>
      </trkpt>
      <trkpt lat="43.46273" lon="-0.96694">
        <ele>35.799999237061</ele>
        <time>2025-08-13T06:54:04.000Z</time>
      </trkpt>
      <trkpt lat="43.46275" lon="-0.96736">
        <ele>35.799999237061</ele>
        <time>2025-08-13T06:54:11.000Z</time>
      </trkpt>
      <trkpt lat="43.46284" lon="-0.96785">
        <ele>36</ele>
        <time>2025-08-13T06:54:20.000Z</time>
      </trkpt>
      <trkpt lat="43.46295" lon="-0.96825">
        <ele>36.200000762939</ele>
        <time>2025-08-13T06:54:28.000Z</time>
      </trkpt>
      <trkpt lat="43.46306" lon="-0.96858">
        <ele>36.200000762939</ele>
        <time>2025-08-13T06:54:34.000Z</time>
      </trkpt>
      <trkpt lat="43.46322" lon="-0.96886">
        <ele>36.200000762939</ele>
        <time>2025-08-13T06:54:40.000Z</time>
      </trkpt>
      <trkpt lat="43.46338" lon="-0.96924">
        <ele>36.200000762939</ele>
        <time>2025-08-13T06:54:47.000Z</time>
      </trkpt>
      <trkpt lat="43.46346" lon="-0.96951">
        <ele>36.200000762939</ele>
        <time>2025-08-13T06:54:52.000Z</time>
      </trkpt>
      <trkpt lat="43.46361" lon="-0.96972">
        <ele>36.200000762939</ele>
        <time>2025-08-13T06:54:57.000Z</time>
      </trkpt>
      <trkpt lat="43.46377" lon="-0.96997">
        <ele>36.599998474121</ele>
        <time>2025-08-13T06:55:04.000Z</time>
      </trkpt>
      <trkpt lat="43.46384" lon="-0.97014">
        <ele>36.599998474121</ele>
        <time>2025-08-13T06:55:08.000Z</time>
      </trkpt>
      <trkpt lat="43.46391" lon="-0.97027">
        <ele>36.799999237061</ele>
        <time>2025-08-13T06:55:11.000Z</time>
      </trkpt>
      <trkpt lat="43.46407" lon="-0.97067">
        <ele>37.200000762939</ele>
        <time>2025-08-13T06:55:19.000Z</time>
      </trkpt>
      <trkpt lat="43.46417" lon="-0.97104">
        <ele>37.400001525879</ele>
        <time>2025-08-13T06:55:26.000Z</time>
      </trkpt>
      <trkpt lat="43.46425" lon="-0.97117">
        <ele>37.599998474121</ele>
        <time>2025-08-13T06:55:29.000Z</time>
      </trkpt>
      <trkpt lat="43.46426" lon="-0.97128">
        <ele>37.599998474121</ele>
        <time>2025-08-13T06:55:31.000Z</time>
      </trkpt>
      <trkpt lat="43.46437" lon="-0.97156">
        <ele>37.599998474121</ele>
        <time>2025-08-13T06:55:36.000Z</time>
      </trkpt>
      <trkpt lat="43.46444" lon="-0.97189">
        <ele>37.400001525879</ele>
        <time>2025-08-13T06:55:42.000Z</time>
      </trkpt>
      <trkpt lat="43.4645" lon="-0.97219">
        <ele>37.400001525879</ele>
        <time>2025-08-13T06:55:48.000Z</time>
      </trkpt>
      <trkpt lat="43.46453" lon="-0.97256">
        <ele>37.200000762939</ele>
        <time>2025-08-13T06:55:54.000Z</time>
      </trkpt>
      <trkpt lat="43.46453" lon="-0.97302">
        <ele>36.799999237061</ele>
        <time>2025-08-13T06:56:01.000Z</time>
      </trkpt>
      <trkpt lat="43.46453" lon="-0.97317">
        <ele>36.599998474121</ele>
        <time>2025-08-13T06:56:03.000Z</time>
      </trkpt>
      <trkpt lat="43.4645" lon="-0.97348">
        <ele>36.400001525879</ele>
        <time>2025-08-13T06:56:07.000Z</time>
      </trkpt>
      <trkpt lat="43.46446" lon="-0.97383">
        <ele>36</ele>
        <time>2025-08-13T06:56:12.000Z</time>
      </trkpt>
      <trkpt lat="43.46435" lon="-0.97422">
        <ele>35.400001525879</ele>
        <time>2025-08-13T06:56:17.000Z</time>
      </trkpt>
      <trkpt lat="43.46433" lon="-0.97437">
        <ele>35.400001525879</ele>
        <time>2025-08-13T06:56:19.000Z</time>
      </trkpt>
      <trkpt lat="43.46431" lon="-0.97445">
        <ele>35.400001525879</ele>
        <time>2025-08-13T06:56:20.000Z</time>
      </trkpt>
      <trkpt lat="43.46428" lon="-0.97453">
        <ele>35.400001525879</ele>
        <time>2025-08-13T06:56:21.000Z</time>
      </trkpt>
      <trkpt lat="43.46423" lon="-0.97462">
        <ele>35.200000762939</ele>
        <time>2025-08-13T06:56:22.000Z</time>
      </trkpt>
      <trkpt lat="43.4642" lon="-0.97475">
        <ele>34.799999237061</ele>
        <time>2025-08-13T06:56:24.000Z</time>
      </trkpt>
      <trkpt lat="43.46414" lon="-0.9749">
        <ele>34.400001525879</ele>
        <time>2025-08-13T06:56:26.000Z</time>
      </trkpt>
      <trkpt lat="43.46411" lon="-0.97498">
        <ele>34.400001525879</ele>
        <time>2025-08-13T06:56:27.000Z</time>
      </trkpt>
      <trkpt lat="43.46408" lon="-0.97505">
        <ele>34.400001525879</ele>
        <time>2025-08-13T06:56:28.000Z</time>
      </trkpt>
      <trkpt lat="43.46397" lon="-0.97534">
        <ele>34</ele>
        <time>2025-08-13T06:56:33.000Z</time>
      </trkpt>
      <trkpt lat="43.46385" lon="-0.97559">
        <ele>33.599998474121</ele>
        <time>2025-08-13T06:56:37.000Z</time>
      </trkpt>
      <trkpt lat="43.46373" lon="-0.9758">
        <ele>33.200000762939</ele>
        <time>2025-08-13T06:56:40.000Z</time>
      </trkpt>
      <trkpt lat="43.46365" lon="-0.97594">
        <ele>33.200000762939</ele>
        <time>2025-08-13T06:56:42.000Z</time>
      </trkpt>
      <trkpt lat="43.46352" lon="-0.9762">
        <ele>32.799999237061</ele>
        <time>2025-08-13T06:56:46.000Z</time>
      </trkpt>
      <trkpt lat="43.4633" lon="-0.97666">
        <ele>32</ele>
        <time>2025-08-13T06:56:53.000Z</time>
      </trkpt>
      <trkpt lat="43.46326" lon="-0.97673">
        <ele>32</ele>
        <time>2025-08-13T06:56:54.000Z</time>
      </trkpt>
      <trkpt lat="43.46319" lon="-0.97685">
        <ele>31.799999237061</ele>
        <time>2025-08-13T06:56:56.000Z</time>
      </trkpt>
      <trkpt lat="43.46309" lon="-0.97704">
        <ele>31.60000038147</ele>
        <time>2025-08-13T06:56:59.000Z</time>
      </trkpt>
      <trkpt lat="43.46303" lon="-0.97715">
        <ele>31.60000038147</ele>
        <time>2025-08-13T06:57:01.000Z</time>
      </trkpt>
      <trkpt lat="43.46292" lon="-0.9774">
        <ele>31.39999961853</ele>
        <time>2025-08-13T06:57:05.000Z</time>
      </trkpt>
      <trkpt lat="43.46284" lon="-0.97754">
        <ele>31</ele>
        <time>2025-08-13T06:57:07.000Z</time>
      </trkpt>
      <trkpt lat="43.46273" lon="-0.97776">
        <ele>31</ele>
        <time>2025-08-13T06:57:10.000Z</time>
      </trkpt>
      <trkpt lat="43.46262" lon="-0.97798">
        <ele>30.799999237061</ele>
        <time>2025-08-13T06:57:13.000Z</time>
      </trkpt>
      <trkpt lat="43.46255" lon="-0.97814">
        <ele>30.39999961853</ele>
        <time>2025-08-13T06:57:16.000Z</time>
      </trkpt>
      <trkpt lat="43.4625" lon="-0.9782">
        <ele>30.39999961853</ele>
        <time>2025-08-13T06:57:17.000Z</time>
      </trkpt>
      <trkpt lat="43.46247" lon="-0.97825">
        <ele>30.200000762939</ele>
        <time>2025-08-13T06:57:18.000Z</time>
      </trkpt>
      <trkpt lat="43.46244" lon="-0.9783">
        <ele>30</ele>
        <time>2025-08-13T06:57:19.000Z</time>
      </trkpt>
      <trkpt lat="43.46231" lon="-0.97859">
        <ele>29.60000038147</ele>
        <time>2025-08-13T06:57:24.000Z</time>
      </trkpt>
      <trkpt lat="43.46206" lon="-0.97908">
        <ele>29.200000762939</ele>
        <time>2025-08-13T06:57:31.000Z</time>
      </trkpt>
      <trkpt lat="43.46203" lon="-0.97915">
        <ele>28.799999237061</ele>
        <time>2025-08-13T06:57:32.000Z</time>
      </trkpt>
      <trkpt lat="43.46183" lon="-0.97955">
        <ele>28.200000762939</ele>
        <time>2025-08-13T06:57:38.000Z</time>
      </trkpt>
      <trkpt lat="43.46177" lon="-0.9797">
        <ele>28</ele>
        <time>2025-08-13T06:57:40.000Z</time>
      </trkpt>
      <trkpt lat="43.46154" lon="-0.9801">
        <ele>27</ele>
        <time>2025-08-13T06:57:46.000Z</time>
      </trkpt>
      <trkpt lat="43.46138" lon="-0.98045">
        <ele>26.799999237061</ele>
        <time>2025-08-13T06:57:51.000Z</time>
      </trkpt>
      <trkpt lat="43.46135" lon="-0.98052">
        <ele>26.60000038147</ele>
        <time>2025-08-13T06:57:52.000Z</time>
      </trkpt>
      <trkpt lat="43.46131" lon="-0.98058">
        <ele>26.39999961853</ele>
        <time>2025-08-13T06:57:53.000Z</time>
      </trkpt>
      <trkpt lat="43.46106" lon="-0.98107">
        <ele>26</ele>
        <time>2025-08-13T06:58:00.000Z</time>
      </trkpt>
      <trkpt lat="43.46091" lon="-0.98139">
        <ele>25.60000038147</ele>
        <time>2025-08-13T06:58:05.000Z</time>
      </trkpt>
      <trkpt lat="43.46087" lon="-0.98145">
        <ele>25.60000038147</ele>
        <time>2025-08-13T06:58:06.000Z</time>
      </trkpt>
      <trkpt lat="43.4606" lon="-0.98197">
        <ele>25</ele>
        <time>2025-08-13T06:58:14.000Z</time>
      </trkpt>
      <trkpt lat="43.46047" lon="-0.98223">
        <ele>24.60000038147</ele>
        <time>2025-08-13T06:58:18.000Z</time>
      </trkpt>
      <trkpt lat="43.4603" lon="-0.98256">
        <ele>24.39999961853</ele>
        <time>2025-08-13T06:58:23.000Z</time>
      </trkpt>
      <trkpt lat="43.46005" lon="-0.98308">
        <ele>24.60000038147</ele>
        <time>2025-08-13T06:58:31.000Z</time>
      </trkpt>
      <trkpt lat="43.45979" lon="-0.98357">
        <ele>24.799999237061</ele>
        <time>2025-08-13T06:58:39.000Z</time>
      </trkpt>
      <trkpt lat="43.45957" lon="-0.984">
        <ele>24.39999961853</ele>
        <time>2025-08-13T06:58:46.000Z</time>
      </trkpt>
      <trkpt lat="43.45939" lon="-0.98435">
        <ele>24.39999961853</ele>
        <time>2025-08-13T06:58:52.000Z</time>
      </trkpt>
      <trkpt lat="43.45913" lon="-0.98487">
        <ele>24.200000762939</ele>
        <time>2025-08-13T06:59:01.000Z</time>
      </trkpt>
      <trkpt lat="43.45886" lon="-0.98538">
        <ele>24.200000762939</ele>
        <time>2025-08-13T06:59:10.000Z</time>
      </trkpt>
      <trkpt lat="43.45856" lon="-0.98596">
        <ele>24.200000762939</ele>
        <time>2025-08-13T06:59:20.000Z</time>
      </trkpt>
      <trkpt lat="43.45836" lon="-0.98635">
        <ele>24.200000762939</ele>
        <time>2025-08-13T06:59:27.000Z</time>
      </trkpt>
      <trkpt lat="43.45813" lon="-0.98681">
        <ele>24.200000762939</ele>
        <time>2025-08-13T06:59:35.000Z</time>
      </trkpt>
      <trkpt lat="43.45782" lon="-0.98742">
        <ele>24.200000762939</ele>
        <time>2025-08-13T06:59:46.000Z</time>
      </trkpt>
      <trkpt lat="43.45759" lon="-0.98786">
        <ele>24.200000762939</ele>
        <time>2025-08-13T06:59:54.000Z</time>
      </trkpt>
      <trkpt lat="43.45744" lon="-0.98816">
        <ele>24.200000762939</ele>
        <time>2025-08-13T07:00:00.000Z</time>
      </trkpt>
      <trkpt lat="43.45739" lon="-0.98826">
        <ele>24.200000762939</ele>
        <time>2025-08-13T07:00:02.000Z</time>
      </trkpt>
      <trkpt lat="43.45728" lon="-0.98844">
        <ele>24.39999961853</ele>
        <time>2025-08-13T07:00:07.000Z</time>
      </trkpt>
      <trkpt lat="43.45718" lon="-0.98868">
        <ele>24.39999961853</ele>
        <time>2025-08-13T07:00:12.000Z</time>
      </trkpt>
      <trkpt lat="43.4571" lon="-0.98882">
        <ele>24.39999961853</ele>
        <time>2025-08-13T07:00:15.000Z</time>
      </trkpt>
      <trkpt lat="43.45704" lon="-0.98896">
        <ele>24.200000762939</ele>
        <time>2025-08-13T07:00:18.000Z</time>
      </trkpt>
      <trkpt lat="43.4568" lon="-0.98942">
        <ele>24.39999961853</ele>
        <time>2025-08-13T07:00:27.000Z</time>
      </trkpt>
      <trkpt lat="43.45652" lon="-0.98997">
        <ele>24.60000038147</ele>
        <time>2025-08-13T07:00:38.000Z</time>
      </trkpt>
      <trkpt lat="43.45625" lon="-0.99053">
        <ele>24.60000038147</ele>
        <time>2025-08-13T07:00:49.000Z</time>
      </trkpt>
      <trkpt lat="43.45607" lon="-0.99087">
        <ele>24.799999237061</ele>
        <time>2025-08-13T07:00:56.000Z</time>
      </trkpt>
      <trkpt lat="43.45604" lon="-0.99091">
        <ele>24.799999237061</ele>
        <time>2025-08-13T07:00:57.000Z</time>
      </trkpt>
      <trkpt lat="43.45589" lon="-0.99114">
        <ele>24.799999237061</ele>
        <time>2025-08-13T07:01:02.000Z</time>
      </trkpt>
      <trkpt lat="43.4558" lon="-0.99127">
        <ele>25</ele>
        <time>2025-08-13T07:01:05.000Z</time>
      </trkpt>
      <trkpt lat="43.45574" lon="-0.99134">
        <ele>25.200000762939</ele>
        <time>2025-08-13T07:01:07.000Z</time>
      </trkpt>
      <trkpt lat="43.45556" lon="-0.99157">
        <ele>25.39999961853</ele>
        <time>2025-08-13T07:01:13.000Z</time>
      </trkpt>
      <trkpt lat="43.45547" lon="-0.99169">
        <ele>25.39999961853</ele>
        <time>2025-08-13T07:01:16.000Z</time>
      </trkpt>
      <trkpt lat="43.45541" lon="-0.99176">
        <ele>25.60000038147</ele>
        <time>2025-08-13T07:01:18.000Z</time>
      </trkpt>
      <trkpt lat="43.45519" lon="-0.99198">
        <ele>25.799999237061</ele>
        <time>2025-08-13T07:01:25.000Z</time>
      </trkpt>
      <trkpt lat="43.455" lon="-0.99214">
        <ele>26.200000762939</ele>
        <time>2025-08-13T07:01:31.000Z</time>
      </trkpt>
      <trkpt lat="43.45487" lon="-0.99223">
        <ele>26.60000038147</ele>
        <time>2025-08-13T07:01:35.000Z</time>
      </trkpt>
      <trkpt lat="43.45483" lon="-0.99228">
        <ele>26.799999237061</ele>
        <time>2025-08-13T07:01:37.000Z</time>
      </trkpt>
      <trkpt lat="43.45476" lon="-0.99231">
        <ele>26.799999237061</ele>
        <time>2025-08-13T07:01:39.000Z</time>
      </trkpt>
      <trkpt lat="43.45454" lon="-0.99244">
        <ele>27.39999961853</ele>
        <time>2025-08-13T07:01:46.000Z</time>
      </trkpt>
      <trkpt lat="43.45428" lon="-0.99258">
        <ele>27.60000038147</ele>
        <time>2025-08-13T07:01:55.000Z</time>
      </trkpt>
      <trkpt lat="43.45409" lon="-0.99266">
        <ele>28</ele>
        <time>2025-08-13T07:02:01.000Z</time>
      </trkpt>
      <trkpt lat="43.45382" lon="-0.99278">
        <ele>28.200000762939</ele>
        <time>2025-08-13T07:02:09.000Z</time>
      </trkpt>
      <trkpt lat="43.45372" lon="-0.99282">
        <ele>28.39999961853</ele>
        <time>2025-08-13T07:02:12.000Z</time>
      </trkpt>
      <trkpt lat="43.45347" lon="-0.99292">
        <ele>28.60000038147</ele>
        <time>2025-08-13T07:02:19.000Z</time>
      </trkpt>
      <trkpt lat="43.45313" lon="-0.99308">
        <ele>29.200000762939</ele>
        <time>2025-08-13T07:02:29.000Z</time>
      </trkpt>
      <trkpt lat="43.45283" lon="-0.9932">
        <ele>29.39999961853</ele>
        <time>2025-08-13T07:02:37.000Z</time>
      </trkpt>
      <trkpt lat="43.45272" lon="-0.99325">
        <ele>29.60000038147</ele>
        <time>2025-08-13T07:02:40.000Z</time>
      </trkpt>
      <trkpt lat="43.4526" lon="-0.99329">
        <ele>30</ele>
        <time>2025-08-13T07:02:44.000Z</time>
      </trkpt>
      <trkpt lat="43.4524" lon="-0.99338">
        <ele>30.39999961853</ele>
        <time>2025-08-13T07:02:50.000Z</time>
      </trkpt>
      <trkpt lat="43.4521" lon="-0.99349">
        <ele>30.60000038147</ele>
        <time>2025-08-13T07:02:58.000Z</time>
      </trkpt>
      <trkpt lat="43.45189" lon="-0.99359">
        <ele>30.799999237061</ele>
        <time>2025-08-13T07:03:03.000Z</time>
      </trkpt>
      <trkpt lat="43.45181" lon="-0.99363">
        <ele>30.799999237061</ele>
        <time>2025-08-13T07:03:06.000Z</time>
      </trkpt>
      <trkpt lat="43.45159" lon="-0.99371">
        <ele>31</ele>
        <time>2025-08-13T07:03:13.000Z</time>
      </trkpt>
      <trkpt lat="43.45148" lon="-0.99376">
        <ele>30.799999237061</ele>
        <time>2025-08-13T07:03:17.000Z</time>
      </trkpt>
      <trkpt lat="43.4514" lon="-0.9938">
        <ele>30.799999237061</ele>
        <time>2025-08-13T07:03:21.000Z</time>
      </trkpt>
      <trkpt lat="43.45135" lon="-0.99383">
        <ele>30.799999237061</ele>
        <time>2025-08-13T07:03:23.000Z</time>
      </trkpt>
      <trkpt lat="43.45126" lon="-0.99386">
        <ele>30.799999237061</ele>
        <time>2025-08-13T07:03:29.000Z</time>
      </trkpt>
      <trkpt lat="43.45108" lon="-0.99397">
        <ele>30.799999237061</ele>
        <time>2025-08-13T07:03:37.000Z</time>
      </trkpt>
      <trkpt lat="43.45106" lon="-0.99398">
        <ele>30.799999237061</ele>
        <time>2025-08-13T07:03:38.000Z</time>
      </trkpt>
      <trkpt lat="43.45104" lon="-0.99399">
        <ele>30.799999237061</ele>
        <time>2025-08-13T07:03:39.000Z</time>
      </trkpt>
      <trkpt lat="43.45092" lon="-0.99404">
        <ele>30.799999237061</ele>
        <time>2025-08-13T07:03:43.000Z</time>
      </trkpt>
      <trkpt lat="43.45082" lon="-0.99407">
        <ele>30.799999237061</ele>
        <time>2025-08-13T07:03:48.000Z</time>
      </trkpt>
      <trkpt lat="43.45065" lon="-0.99413">
        <ele>30.799999237061</ele>
        <time>2025-08-13T07:03:54.000Z</time>
      </trkpt>
      <trkpt lat="43.45057" lon="-0.99414">
        <ele>30.799999237061</ele>
        <time>2025-08-13T07:03:57.000Z</time>
      </trkpt>
      <trkpt lat="43.4505" lon="-0.99417">
        <ele>30.799999237061</ele>
        <time>2025-08-13T07:03:59.000Z</time>
      </trkpt>
      <trkpt lat="43.45046" lon="-0.9942">
        <ele>30.799999237061</ele>
        <time>2025-08-13T07:04:00.000Z</time>
      </trkpt>
      <trkpt lat="43.45042" lon="-0.99423">
        <ele>30.799999237061</ele>
        <time>2025-08-13T07:04:02.000Z</time>
      </trkpt>
      <trkpt lat="43.45031" lon="-0.99428">
        <ele>30.799999237061</ele>
        <time>2025-08-13T07:04:06.000Z</time>
      </trkpt>
      <trkpt lat="43.45011" lon="-0.99436">
        <ele>31</ele>
        <time>2025-08-13T07:04:12.000Z</time>
      </trkpt>
      <trkpt lat="43.44984" lon="-0.99446">
        <ele>31.200000762939</ele>
        <time>2025-08-13T07:04:19.000Z</time>
      </trkpt>
      <trkpt lat="43.44965" lon="-0.99453">
        <ele>31.200000762939</ele>
        <time>2025-08-13T07:04:26.000Z</time>
      </trkpt>
      <trkpt lat="43.44953" lon="-0.99457">
        <ele>31</ele>
        <time>2025-08-13T07:04:32.000Z</time>
      </trkpt>
      <trkpt lat="43.44952" lon="-0.99457">
        <ele>31</ele>
        <time>2025-08-13T07:04:35.000Z</time>
      </trkpt>
      <trkpt lat="43.44958" lon="-0.99458">
        <ele>31</ele>
        <time>2025-08-13T07:05:24.000Z</time>
      </trkpt>
      <trkpt lat="43.44968" lon="-0.99457">
        <ele>31</ele>
        <time>2025-08-13T07:05:31.000Z</time>
      </trkpt>
      <trkpt lat="43.44982" lon="-0.9945">
        <ele>30.799999237061</ele>
        <time>2025-08-13T07:05:39.000Z</time>
      </trkpt>
      <trkpt lat="43.44987" lon="-0.99449">
        <ele>30.799999237061</ele>
        <time>2025-08-13T07:05:43.000Z</time>
      </trkpt>
      <trkpt lat="43.44988" lon="-0.99449">
        <ele>30.799999237061</ele>
        <time>2025-08-13T07:05:45.000Z</time>
      </trkpt>
      <trkpt lat="43.44988" lon="-0.99449">
        <ele>30.799999237061</ele>
        <time>2025-08-13T07:05:46.000Z</time>
      </trkpt>
      <trkpt lat="43.44982" lon="-0.99442">
        <ele>30.200000762939</ele>
        <time>2025-08-13T07:07:34.000Z</time>
      </trkpt>
      <trkpt lat="43.44976" lon="-0.9944">
        <ele>30.200000762939</ele>
        <time>2025-08-13T07:07:36.000Z</time>
      </trkpt>
      <trkpt lat="43.44958" lon="-0.99436">
        <ele>29.799999237061</ele>
        <time>2025-08-13T07:07:41.000Z</time>
      </trkpt>
      <trkpt lat="43.44956" lon="-0.99434">
        <ele>29.200000762939</ele>
        <time>2025-08-13T07:07:42.000Z</time>
      </trkpt>
      <trkpt lat="43.44947" lon="-0.99434">
        <ele>28.200000762939</ele>
        <time>2025-08-13T07:07:45.000Z</time>
      </trkpt>
      <trkpt lat="43.44943" lon="-0.99434">
        <ele>28.200000762939</ele>
        <time>2025-08-13T07:07:46.000Z</time>
      </trkpt>
      <trkpt lat="43.44915" lon="-0.99439">
        <ele>27.39999961853</ele>
        <time>2025-08-13T07:07:54.000Z</time>
      </trkpt>
      <trkpt lat="43.44911" lon="-0.99439">
        <ele>27.39999961853</ele>
        <time>2025-08-13T07:07:55.000Z</time>
      </trkpt>
      <trkpt lat="43.44885" lon="-0.9944">
        <ele>27.39999961853</ele>
        <time>2025-08-13T07:08:02.000Z</time>
      </trkpt>
      <trkpt lat="43.44862" lon="-0.99436">
        <ele>27.60000038147</ele>
        <time>2025-08-13T07:08:08.000Z</time>
      </trkpt>
      <trkpt lat="43.44828" lon="-0.99429">
        <ele>27.60000038147</ele>
        <time>2025-08-13T07:08:17.000Z</time>
      </trkpt>
      <trkpt lat="43.44789" lon="-0.9942">
        <ele>27.60000038147</ele>
        <time>2025-08-13T07:08:28.000Z</time>
      </trkpt>
      <trkpt lat="43.44773" lon="-0.99418">
        <ele>28</ele>
        <time>2025-08-13T07:08:33.000Z</time>
      </trkpt>
      <trkpt lat="43.44771" lon="-0.99421">
        <ele>28</ele>
        <time>2025-08-13T07:08:34.000Z</time>
      </trkpt>
      <trkpt lat="43.44763" lon="-0.99446">
        <ele>28.200000762939</ele>
        <time>2025-08-13T07:08:40.000Z</time>
      </trkpt>
      <trkpt lat="43.4476" lon="-0.99467">
        <ele>28.200000762939</ele>
        <time>2025-08-13T07:08:45.000Z</time>
      </trkpt>
      <trkpt lat="43.44766" lon="-0.9949">
        <ele>28.39999961853</ele>
        <time>2025-08-13T07:08:50.000Z</time>
      </trkpt>
      <trkpt lat="43.44769" lon="-0.99502">
        <ele>28.60000038147</ele>
        <time>2025-08-13T07:08:54.000Z</time>
      </trkpt>
      <trkpt lat="43.44769" lon="-0.99504">
        <ele>28.799999237061</ele>
        <time>2025-08-13T07:08:55.000Z</time>
      </trkpt>
      <trkpt lat="43.44767" lon="-0.99508">
        <ele>29.200000762939</ele>
        <time>2025-08-13T07:08:57.000Z</time>
      </trkpt>
      <trkpt lat="43.44768" lon="-0.99511">
        <ele>29.60000038147</ele>
        <time>2025-08-13T07:08:59.000Z</time>
      </trkpt>
      <trkpt lat="43.44767" lon="-0.99517">
        <ele>30.200000762939</ele>
        <time>2025-08-13T07:09:03.000Z</time>
      </trkpt>
      <trkpt lat="43.44767" lon="-0.99523">
        <ele>31</ele>
        <time>2025-08-13T07:09:06.000Z</time>
      </trkpt>
      <trkpt lat="43.44765" lon="-0.99526">
        <ele>31.39999961853</ele>
        <time>2025-08-13T07:09:08.000Z</time>
      </trkpt>
      <trkpt lat="43.44766" lon="-0.99528">
        <ele>31.60000038147</ele>
        <time>2025-08-13T07:09:09.000Z</time>
      </trkpt>
      <trkpt lat="43.44766" lon="-0.99529">
        <ele>31.799999237061</ele>
        <time>2025-08-13T07:09:10.000Z</time>
      </trkpt>
      <trkpt lat="43.44765" lon="-0.99531">
        <ele>32.200000762939</ele>
        <time>2025-08-13T07:09:12.000Z</time>
      </trkpt>
      <trkpt lat="43.44765" lon="-0.99532">
        <ele>32.599998474121</ele>
        <time>2025-08-13T07:09:13.000Z</time>
      </trkpt>
      <trkpt lat="43.44765" lon="-0.99533">
        <ele>32.599998474121</ele>
        <time>2025-08-13T07:09:14.000Z</time>
      </trkpt>
      <trkpt lat="43.44763" lon="-0.99536">
        <ele>33</ele>
        <time>2025-08-13T07:09:16.000Z</time>
      </trkpt>
      <trkpt lat="43.44762" lon="-0.99543">
        <ele>33.599998474121</ele>
        <time>2025-08-13T07:09:20.000Z</time>
      </trkpt>
      <trkpt lat="43.44762" lon="-0.99546">
        <ele>33.799999237061</ele>
        <time>2025-08-13T07:09:21.000Z</time>
      </trkpt>
      <trkpt lat="43.44761" lon="-0.99548">
        <ele>34</ele>
        <time>2025-08-13T07:09:22.000Z</time>
      </trkpt>
      <trkpt lat="43.4476" lon="-0.99551">
        <ele>34.400001525879</ele>
        <time>2025-08-13T07:09:24.000Z</time>
      </trkpt>
      <trkpt lat="43.4476" lon="-0.99552">
        <ele>34.799999237061</ele>
        <time>2025-08-13T07:09:25.000Z</time>
      </trkpt>
      <trkpt lat="43.4476" lon="-0.99554">
        <ele>35</ele>
        <time>2025-08-13T07:09:26.000Z</time>
      </trkpt>
      <trkpt lat="43.4476" lon="-0.99562">
        <ele>35.799999237061</ele>
        <time>2025-08-13T07:09:30.000Z</time>
      </trkpt>
      <trkpt lat="43.4476" lon="-0.99564">
        <ele>35.799999237061</ele>
        <time>2025-08-13T07:09:31.000Z</time>
      </trkpt>
      <trkpt lat="43.44759" lon="-0.99566">
        <ele>36.400001525879</ele>
        <time>2025-08-13T07:09:34.000Z</time>
      </trkpt>
      <trkpt lat="43.44758" lon="-0.9957">
        <ele>37.200000762939</ele>
        <time>2025-08-13T07:09:37.000Z</time>
      </trkpt>
      <trkpt lat="43.44758" lon="-0.99572">
        <ele>37.200000762939</ele>
        <time>2025-08-13T07:09:38.000Z</time>
      </trkpt>
      <trkpt lat="43.44758" lon="-0.99575">
        <ele>37.599998474121</ele>
        <time>2025-08-13T07:09:39.000Z</time>
      </trkpt>
      <trkpt lat="43.44758" lon="-0.99579">
        <ele>37.799999237061</ele>
        <time>2025-08-13T07:09:41.000Z</time>
      </trkpt>
      <trkpt lat="43.44757" lon="-0.99584">
        <ele>38.200000762939</ele>
        <time>2025-08-13T07:09:43.000Z</time>
      </trkpt>
      <trkpt lat="43.44756" lon="-0.99588">
        <ele>38.400001525879</ele>
        <time>2025-08-13T07:09:44.000Z</time>
      </trkpt>
      <trkpt lat="43.44754" lon="-0.99607">
        <ele>39.599998474121</ele>
        <time>2025-08-13T07:09:50.000Z</time>
      </trkpt>
      <trkpt lat="43.44751" lon="-0.99627">
        <ele>40</ele>
        <time>2025-08-13T07:09:56.000Z</time>
      </trkpt>
      <trkpt lat="43.4475" lon="-0.99632">
        <ele>40.599998474121</ele>
        <time>2025-08-13T07:09:59.000Z</time>
      </trkpt>
      <trkpt lat="43.4475" lon="-0.99632">
        <ele>40.799999237061</ele>
        <time>2025-08-13T07:10:01.000Z</time>
      </trkpt>
      <trkpt lat="43.44749" lon="-0.99639">
        <ele>41.200000762939</ele>
        <time>2025-08-13T07:10:28.000Z</time>
      </trkpt>
      <trkpt lat="43.44748" lon="-0.99645">
        <ele>41.200000762939</ele>
        <time>2025-08-13T07:10:30.000Z</time>
      </trkpt>
      <trkpt lat="43.4475" lon="-0.99672">
        <ele>41.200000762939</ele>
        <time>2025-08-13T07:10:37.000Z</time>
      </trkpt>
      <trkpt lat="43.44755" lon="-0.99701">
        <ele>41.200000762939</ele>
        <time>2025-08-13T07:10:44.000Z</time>
      </trkpt>
      <trkpt lat="43.44759" lon="-0.99722">
        <ele>41.599998474121</ele>
        <time>2025-08-13T07:10:50.000Z</time>
      </trkpt>
      <trkpt lat="43.44758" lon="-0.99725">
        <ele>41.599998474121</ele>
        <time>2025-08-13T07:10:51.000Z</time>
      </trkpt>
      <trkpt lat="43.44752" lon="-0.99732">
        <ele>41.599998474121</ele>
        <time>2025-08-13T07:10:54.000Z</time>
      </trkpt>
      <trkpt lat="43.44742" lon="-0.99745">
        <ele>41.799999237061</ele>
        <time>2025-08-13T07:11:00.000Z</time>
      </trkpt>
      <trkpt lat="43.44733" lon="-0.99771">
        <ele>42.400001525879</ele>
        <time>2025-08-13T07:11:08.000Z</time>
      </trkpt>
      <trkpt lat="43.4473" lon="-0.99782">
        <ele>42.599998474121</ele>
        <time>2025-08-13T07:11:11.000Z</time>
      </trkpt>
      <trkpt lat="43.44724" lon="-0.99795">
        <ele>42.799999237061</ele>
        <time>2025-08-13T07:11:15.000Z</time>
      </trkpt>
      <trkpt lat="43.44714" lon="-0.9981">
        <ele>43</ele>
        <time>2025-08-13T07:11:20.000Z</time>
      </trkpt>
      <trkpt lat="43.44709" lon="-0.99812">
        <ele>43</ele>
        <time>2025-08-13T07:11:22.000Z</time>
      </trkpt>
      <trkpt lat="43.44707" lon="-0.99817">
        <ele>43.200000762939</ele>
        <time>2025-08-13T07:11:24.000Z</time>
      </trkpt>
      <trkpt lat="43.44708" lon="-0.99836">
        <ele>43.200000762939</ele>
        <time>2025-08-13T07:11:29.000Z</time>
      </trkpt>
      <trkpt lat="43.44704" lon="-0.99857">
        <ele>43.200000762939</ele>
        <time>2025-08-13T07:11:33.000Z</time>
      </trkpt>
      <trkpt lat="43.4469" lon="-0.99864">
        <ele>43.200000762939</ele>
        <time>2025-08-13T07:11:37.000Z</time>
      </trkpt>
      <trkpt lat="43.44674" lon="-0.99866">
        <ele>43.200000762939</ele>
        <time>2025-08-13T07:11:42.000Z</time>
      </trkpt>
      <trkpt lat="43.44656" lon="-0.99865">
        <ele>43.400001525879</ele>
        <time>2025-08-13T07:11:47.000Z</time>
      </trkpt>
      <trkpt lat="43.44638" lon="-0.99873">
        <ele>43.599998474121</ele>
        <time>2025-08-13T07:11:53.000Z</time>
      </trkpt>
      <trkpt lat="43.44636" lon="-0.99876">
        <ele>43.599998474121</ele>
        <time>2025-08-13T07:11:54.000Z</time>
      </trkpt>
      <trkpt lat="43.44622" lon="-0.99893">
        <ele>44.200000762939</ele>
        <time>2025-08-13T07:12:00.000Z</time>
      </trkpt>
      <trkpt lat="43.44618" lon="-0.99902">
        <ele>44.599998474121</ele>
        <time>2025-08-13T07:12:03.000Z</time>
      </trkpt>
      <trkpt lat="43.44616" lon="-0.99903">
        <ele>44.799999237061</ele>
        <time>2025-08-13T07:12:04.000Z</time>
      </trkpt>
      <trkpt lat="43.44615" lon="-0.99905">
        <ele>44.799999237061</ele>
        <time>2025-08-13T07:12:05.000Z</time>
      </trkpt>
      <trkpt lat="43.44612" lon="-0.99913">
        <ele>45.400001525879</ele>
        <time>2025-08-13T07:12:09.000Z</time>
      </trkpt>
      <trkpt lat="43.44611" lon="-0.99917">
        <ele>45.799999237061</ele>
        <time>2025-08-13T07:12:11.000Z</time>
      </trkpt>
      <trkpt lat="43.4461" lon="-0.99919">
        <ele>46</ele>
        <time>2025-08-13T07:12:12.000Z</time>
      </trkpt>
      <trkpt lat="43.44609" lon="-0.9992">
        <ele>46</ele>
        <time>2025-08-13T07:12:13.000Z</time>
      </trkpt>
      <trkpt lat="43.44606" lon="-0.99922">
        <ele>46.200000762939</ele>
        <time>2025-08-13T07:12:15.000Z</time>
      </trkpt>
      <trkpt lat="43.44606" lon="-0.99926">
        <ele>46.599998474121</ele>
        <time>2025-08-13T07:12:17.000Z</time>
      </trkpt>
      <trkpt lat="43.44605" lon="-0.99927">
        <ele>47</ele>
        <time>2025-08-13T07:12:18.000Z</time>
      </trkpt>
      <trkpt lat="43.44602" lon="-0.9993">
        <ele>47.200000762939</ele>
        <time>2025-08-13T07:12:20.000Z</time>
      </trkpt>
      <trkpt lat="43.44601" lon="-0.99932">
        <ele>47.200000762939</ele>
        <time>2025-08-13T07:12:21.000Z</time>
      </trkpt>
      <trkpt lat="43.44596" lon="-0.99935">
        <ele>47.599998474121</ele>
        <time>2025-08-13T07:12:24.000Z</time>
      </trkpt>
      <trkpt lat="43.44595" lon="-0.99938">
        <ele>48</ele>
        <time>2025-08-13T07:12:26.000Z</time>
      </trkpt>
      <trkpt lat="43.44593" lon="-0.99943">
        <ele>48.400001525879</ele>
        <time>2025-08-13T07:12:28.000Z</time>
      </trkpt>
      <trkpt lat="43.44593" lon="-0.99947">
        <ele>48.599998474121</ele>
        <time>2025-08-13T07:12:30.000Z</time>
      </trkpt>
      <trkpt lat="43.44591" lon="-0.99947">
        <ele>49</ele>
        <time>2025-08-13T07:12:32.000Z</time>
      </trkpt>
      <trkpt lat="43.44588" lon="-0.99947">
        <ele>49.200000762939</ele>
        <time>2025-08-13T07:12:34.000Z</time>
      </trkpt>
      <trkpt lat="43.44578" lon="-0.99941">
        <ele>49.599998474121</ele>
        <time>2025-08-13T07:12:39.000Z</time>
      </trkpt>
      <trkpt lat="43.44571" lon="-0.99938">
        <ele>50.200000762939</ele>
        <time>2025-08-13T07:12:43.000Z</time>
      </trkpt>
      <trkpt lat="43.44567" lon="-0.99936">
        <ele>50.599998474121</ele>
        <time>2025-08-13T07:12:45.000Z</time>
      </trkpt>
      <trkpt lat="43.44556" lon="-0.99926">
        <ele>51.200000762939</ele>
        <time>2025-08-13T07:12:51.000Z</time>
      </trkpt>
      <trkpt lat="43.44554" lon="-0.99925">
        <ele>51.400001525879</ele>
        <time>2025-08-13T07:12:52.000Z</time>
      </trkpt>
      <trkpt lat="43.44543" lon="-0.99921">
        <ele>51.599998474121</ele>
        <time>2025-08-13T07:12:57.000Z</time>
      </trkpt>
      <trkpt lat="43.44524" lon="-0.99913">
        <ele>52</ele>
        <time>2025-08-13T07:13:05.000Z</time>
      </trkpt>
      <trkpt lat="43.44509" lon="-0.99911">
        <ele>52.400001525879</ele>
        <time>2025-08-13T07:13:10.000Z</time>
      </trkpt>
      <trkpt lat="43.44499" lon="-0.99909">
        <ele>52.400001525879</ele>
        <time>2025-08-13T07:13:13.000Z</time>
      </trkpt>
      <trkpt lat="43.44479" lon="-0.9991">
        <ele>52.599998474121</ele>
        <time>2025-08-13T07:13:19.000Z</time>
      </trkpt>
      <trkpt lat="43.4446" lon="-0.99926">
        <ele>52.599998474121</ele>
        <time>2025-08-13T07:13:26.000Z</time>
      </trkpt>
      <trkpt lat="43.44452" lon="-0.99939">
        <ele>52.599998474121</ele>
        <time>2025-08-13T07:13:30.000Z</time>
      </trkpt>
      <trkpt lat="43.44444" lon="-0.9996">
        <ele>52.400001525879</ele>
        <time>2025-08-13T07:13:35.000Z</time>
      </trkpt>
      <trkpt lat="43.4443" lon="-0.99992">
        <ele>52.200000762939</ele>
        <time>2025-08-13T07:13:42.000Z</time>
      </trkpt>
      <trkpt lat="43.44418" lon="-1.00018">
        <ele>52.400001525879</ele>
        <time>2025-08-13T07:13:48.000Z</time>
      </trkpt>
      <trkpt lat="43.44403" lon="-1.00047">
        <ele>52.599998474121</ele>
        <time>2025-08-13T07:13:55.000Z</time>
      </trkpt>
      <trkpt lat="43.44393" lon="-1.00066">
        <ele>53</ele>
        <time>2025-08-13T07:14:00.000Z</time>
      </trkpt>
      <trkpt lat="43.44372" lon="-1.00101">
        <ele>53.200000762939</ele>
        <time>2025-08-13T07:14:09.000Z</time>
      </trkpt>
      <trkpt lat="43.44369" lon="-1.00109">
        <ele>53.400001525879</ele>
        <time>2025-08-13T07:14:11.000Z</time>
      </trkpt>
      <trkpt lat="43.4436" lon="-1.00136">
        <ele>53.599998474121</ele>
        <time>2025-08-13T07:14:17.000Z</time>
      </trkpt>
      <trkpt lat="43.44345" lon="-1.00172">
        <ele>53.799999237061</ele>
        <time>2025-08-13T07:14:25.000Z</time>
      </trkpt>
      <trkpt lat="43.44325" lon="-1.00196">
        <ele>54</ele>
        <time>2025-08-13T07:14:32.000Z</time>
      </trkpt>
      <trkpt lat="43.44307" lon="-1.00219">
        <ele>54.200000762939</ele>
        <time>2025-08-13T07:14:38.000Z</time>
      </trkpt>
      <trkpt lat="43.44302" lon="-1.00247">
        <ele>54.400001525879</ele>
        <time>2025-08-13T07:14:43.000Z</time>
      </trkpt>
      <trkpt lat="43.44301" lon="-1.00286">
        <ele>54.400001525879</ele>
        <time>2025-08-13T07:14:50.000Z</time>
      </trkpt>
      <trkpt lat="43.44298" lon="-1.00303">
        <ele>54.599998474121</ele>
        <time>2025-08-13T07:14:53.000Z</time>
      </trkpt>
      <trkpt lat="43.44295" lon="-1.00313">
        <ele>54.599998474121</ele>
        <time>2025-08-13T07:14:55.000Z</time>
      </trkpt>
      <trkpt lat="43.44295" lon="-1.00317">
        <ele>54.799999237061</ele>
        <time>2025-08-13T07:14:56.000Z</time>
      </trkpt>
      <trkpt lat="43.443" lon="-1.00329">
        <ele>55</ele>
        <time>2025-08-13T07:14:59.000Z</time>
      </trkpt>
      <trkpt lat="43.44328" lon="-1.00357">
        <ele>55.200000762939</ele>
        <time>2025-08-13T07:15:08.000Z</time>
      </trkpt>
      <trkpt lat="43.44343" lon="-1.00379">
        <ele>55.200000762939</ele>
        <time>2025-08-13T07:15:13.000Z</time>
      </trkpt>
      <trkpt lat="43.44343" lon="-1.00384">
        <ele>55</ele>
        <time>2025-08-13T07:15:14.000Z</time>
      </trkpt>
      <trkpt lat="43.44342" lon="-1.00389">
        <ele>55</ele>
        <time>2025-08-13T07:15:15.000Z</time>
      </trkpt>
      <trkpt lat="43.44338" lon="-1.00407">
        <ele>54.799999237061</ele>
        <time>2025-08-13T07:15:19.000Z</time>
      </trkpt>
      <trkpt lat="43.44331" lon="-1.00427">
        <ele>54.799999237061</ele>
        <time>2025-08-13T07:15:24.000Z</time>
      </trkpt>
      <trkpt lat="43.44323" lon="-1.00446">
        <ele>55.400001525879</ele>
        <time>2025-08-13T07:15:30.000Z</time>
      </trkpt>
      <trkpt lat="43.44321" lon="-1.00452">
        <ele>55.599998474121</ele>
        <time>2025-08-13T07:15:32.000Z</time>
      </trkpt>
      <trkpt lat="43.44317" lon="-1.00461">
        <ele>56</ele>
        <time>2025-08-13T07:15:36.000Z</time>
      </trkpt>
      <trkpt lat="43.44314" lon="-1.00468">
        <ele>56.599998474121</ele>
        <time>2025-08-13T07:15:39.000Z</time>
      </trkpt>
      <trkpt lat="43.44312" lon="-1.00472">
        <ele>56.799999237061</ele>
        <time>2025-08-13T07:15:41.000Z</time>
      </trkpt>
      <trkpt lat="43.44308" lon="-1.00481">
        <ele>57.599998474121</ele>
        <time>2025-08-13T07:15:45.000Z</time>
      </trkpt>
      <trkpt lat="43.44303" lon="-1.0049">
        <ele>58.400001525879</ele>
        <time>2025-08-13T07:15:49.000Z</time>
      </trkpt>
      <trkpt lat="43.443" lon="-1.00497">
        <ele>58.799999237061</ele>
        <time>2025-08-13T07:15:52.000Z</time>
      </trkpt>
      <trkpt lat="43.44296" lon="-1.00508">
        <ele>59.200000762939</ele>
        <time>2025-08-13T07:15:56.000Z</time>
      </trkpt>
      <trkpt lat="43.44288" lon="-1.00523">
        <ele>59.799999237061</ele>
        <time>2025-08-13T07:16:02.000Z</time>
      </trkpt>
      <trkpt lat="43.44282" lon="-1.00537">
        <ele>60.200000762939</ele>
        <time>2025-08-13T07:16:07.000Z</time>
      </trkpt>
      <trkpt lat="43.44274" lon="-1.00552">
        <ele>61</ele>
        <time>2025-08-13T07:16:13.000Z</time>
      </trkpt>
      <trkpt lat="43.44273" lon="-1.00555">
        <ele>61</ele>
        <time>2025-08-13T07:16:14.000Z</time>
      </trkpt>
      <trkpt lat="43.44262" lon="-1.00578">
        <ele>61.400001525879</ele>
        <time>2025-08-13T07:16:23.000Z</time>
      </trkpt>
      <trkpt lat="43.44256" lon="-1.00591">
        <ele>62</ele>
        <time>2025-08-13T07:16:28.000Z</time>
      </trkpt>
      <trkpt lat="43.44255" lon="-1.00593">
        <ele>62</ele>
        <time>2025-08-13T07:16:29.000Z</time>
      </trkpt>
      <trkpt lat="43.44241" lon="-1.00624">
        <ele>62.799999237061</ele>
        <time>2025-08-13T07:16:41.000Z</time>
      </trkpt>
      <trkpt lat="43.44237" lon="-1.00631">
        <ele>63.200000762939</ele>
        <time>2025-08-13T07:16:44.000Z</time>
      </trkpt>
      <trkpt lat="43.44231" lon="-1.00644">
        <ele>63.599998474121</ele>
        <time>2025-08-13T07:16:49.000Z</time>
      </trkpt>
      <trkpt lat="43.44226" lon="-1.00653">
        <ele>64</ele>
        <time>2025-08-13T07:16:53.000Z</time>
      </trkpt>
      <trkpt lat="43.44225" lon="-1.00655">
        <ele>64.199996948242</ele>
        <time>2025-08-13T07:16:54.000Z</time>
      </trkpt>
      <trkpt lat="43.44218" lon="-1.00669">
        <ele>64.800003051758</ele>
        <time>2025-08-13T07:17:00.000Z</time>
      </trkpt>
      <trkpt lat="43.44214" lon="-1.00679">
        <ele>65.199996948242</ele>
        <time>2025-08-13T07:17:04.000Z</time>
      </trkpt>
      <trkpt lat="43.44211" lon="-1.00683">
        <ele>65.599998474121</ele>
        <time>2025-08-13T07:17:06.000Z</time>
      </trkpt>
      <trkpt lat="43.44205" lon="-1.00694">
        <ele>66.199996948242</ele>
        <time>2025-08-13T07:17:11.000Z</time>
      </trkpt>
      <trkpt lat="43.44193" lon="-1.00708">
        <ele>67</ele>
        <time>2025-08-13T07:17:18.000Z</time>
      </trkpt>
      <trkpt lat="43.44189" lon="-1.00712">
        <ele>67.199996948242</ele>
        <time>2025-08-13T07:17:20.000Z</time>
      </trkpt>
      <trkpt lat="43.44184" lon="-1.00719">
        <ele>67.400001525879</ele>
        <time>2025-08-13T07:17:23.000Z</time>
      </trkpt>
      <trkpt lat="43.44175" lon="-1.00729">
        <ele>67.599998474121</ele>
        <time>2025-08-13T07:17:28.000Z</time>
      </trkpt>
      <trkpt lat="43.44162" lon="-1.00741">
        <ele>68.199996948242</ele>
        <time>2025-08-13T07:17:35.000Z</time>
      </trkpt>
      <trkpt lat="43.44159" lon="-1.00745">
        <ele>68.400001525879</ele>
        <time>2025-08-13T07:17:37.000Z</time>
      </trkpt>
      <trkpt lat="43.4415" lon="-1.00757">
        <ele>69.199996948242</ele>
        <time>2025-08-13T07:17:43.000Z</time>
      </trkpt>
      <trkpt lat="43.44146" lon="-1.00761">
        <ele>69.400001525879</ele>
        <time>2025-08-13T07:17:45.000Z</time>
      </trkpt>
      <trkpt lat="43.44138" lon="-1.00771">
        <ele>70.199996948242</ele>
        <time>2025-08-13T07:17:50.000Z</time>
      </trkpt>
      <trkpt lat="43.44128" lon="-1.0078">
        <ele>70.599998474121</ele>
        <time>2025-08-13T07:17:55.000Z</time>
      </trkpt>
      <trkpt lat="43.44121" lon="-1.00787">
        <ele>70.800003051758</ele>
        <time>2025-08-13T07:17:59.000Z</time>
      </trkpt>
      <trkpt lat="43.44111" lon="-1.00799">
        <ele>71.400001525879</ele>
        <time>2025-08-13T07:18:06.000Z</time>
      </trkpt>
      <trkpt lat="43.44107" lon="-1.00801">
        <ele>71.599998474121</ele>
        <time>2025-08-13T07:18:08.000Z</time>
      </trkpt>
      <trkpt lat="43.44099" lon="-1.00808">
        <ele>72.199996948242</ele>
        <time>2025-08-13T07:18:13.000Z</time>
      </trkpt>
      <trkpt lat="43.44093" lon="-1.00812">
        <ele>72.800003051758</ele>
        <time>2025-08-13T07:18:16.000Z</time>
      </trkpt>
      <trkpt lat="43.4408" lon="-1.00819">
        <ele>73.400001525879</ele>
        <time>2025-08-13T07:18:22.000Z</time>
      </trkpt>
      <trkpt lat="43.44074" lon="-1.00823">
        <ele>73.800003051758</ele>
        <time>2025-08-13T07:18:25.000Z</time>
      </trkpt>
      <trkpt lat="43.44064" lon="-1.00829">
        <ele>74.199996948242</ele>
        <time>2025-08-13T07:18:29.000Z</time>
      </trkpt>
      <trkpt lat="43.44044" lon="-1.00843">
        <ele>74</ele>
        <time>2025-08-13T07:18:34.000Z</time>
      </trkpt>
      <trkpt lat="43.4401" lon="-1.00865">
        <ele>72.800003051758</ele>
        <time>2025-08-13T07:18:40.000Z</time>
      </trkpt>
      <trkpt lat="43.43989" lon="-1.00879">
        <ele>72.199996948242</ele>
        <time>2025-08-13T07:18:43.000Z</time>
      </trkpt>
      <trkpt lat="43.43974" lon="-1.00888">
        <ele>71.400001525879</ele>
        <time>2025-08-13T07:18:45.000Z</time>
      </trkpt>
      <trkpt lat="43.43967" lon="-1.00891">
        <ele>70.800003051758</ele>
        <time>2025-08-13T07:18:46.000Z</time>
      </trkpt>
      <trkpt lat="43.43954" lon="-1.00893">
        <ele>70.199996948242</ele>
        <time>2025-08-13T07:18:48.000Z</time>
      </trkpt>
      <trkpt lat="43.43947" lon="-1.00894">
        <ele>70</ele>
        <time>2025-08-13T07:18:49.000Z</time>
      </trkpt>
      <trkpt lat="43.43937" lon="-1.00895">
        <ele>69.800003051758</ele>
        <time>2025-08-13T07:18:51.000Z</time>
      </trkpt>
      <trkpt lat="43.4393" lon="-1.00896">
        <ele>69.599998474121</ele>
        <time>2025-08-13T07:18:53.000Z</time>
      </trkpt>
      <trkpt lat="43.43928" lon="-1.00895">
        <ele>69.599998474121</ele>
        <time>2025-08-13T07:18:54.000Z</time>
      </trkpt>
      <trkpt lat="43.43924" lon="-1.00894">
        <ele>70</ele>
        <time>2025-08-13T07:18:56.000Z</time>
      </trkpt>
      <trkpt lat="43.43922" lon="-1.00897">
        <ele>70.400001525879</ele>
        <time>2025-08-13T07:18:58.000Z</time>
      </trkpt>
      <trkpt lat="43.4392" lon="-1.00897">
        <ele>70.800003051758</ele>
        <time>2025-08-13T07:19:00.000Z</time>
      </trkpt>
      <trkpt lat="43.43918" lon="-1.00899">
        <ele>71</ele>
        <time>2025-08-13T07:19:01.000Z</time>
      </trkpt>
      <trkpt lat="43.43916" lon="-1.00899">
        <ele>71.199996948242</ele>
        <time>2025-08-13T07:19:02.000Z</time>
      </trkpt>
      <trkpt lat="43.43914" lon="-1.00898">
        <ele>71.800003051758</ele>
        <time>2025-08-13T07:19:04.000Z</time>
      </trkpt>
      <trkpt lat="43.43912" lon="-1.00898">
        <ele>72</ele>
        <time>2025-08-13T07:19:05.000Z</time>
      </trkpt>
      <trkpt lat="43.43904" lon="-1.00897">
        <ele>72.800003051758</ele>
        <time>2025-08-13T07:19:10.000Z</time>
      </trkpt>
      <trkpt lat="43.43902" lon="-1.00898">
        <ele>73</ele>
        <time>2025-08-13T07:19:11.000Z</time>
      </trkpt>
      <trkpt lat="43.43901" lon="-1.00899">
        <ele>73.199996948242</ele>
        <time>2025-08-13T07:19:12.000Z</time>
      </trkpt>
      <trkpt lat="43.439" lon="-1.00899">
        <ele>73.199996948242</ele>
        <time>2025-08-13T07:19:13.000Z</time>
      </trkpt>
      <trkpt lat="43.43898" lon="-1.00899">
        <ele>73.599998474121</ele>
        <time>2025-08-13T07:19:14.000Z</time>
      </trkpt>
      <trkpt lat="43.43892" lon="-1.00898">
        <ele>74.199996948242</ele>
        <time>2025-08-13T07:19:18.000Z</time>
      </trkpt>
      <trkpt lat="43.4389" lon="-1.00899">
        <ele>74.400001525879</ele>
        <time>2025-08-13T07:19:19.000Z</time>
      </trkpt>
      <trkpt lat="43.4389" lon="-1.00902">
        <ele>74.599998474121</ele>
        <time>2025-08-13T07:19:20.000Z</time>
      </trkpt>
      <trkpt lat="43.43892" lon="-1.0091">
        <ele>74.800003051758</ele>
        <time>2025-08-13T07:19:23.000Z</time>
      </trkpt>
      <trkpt lat="43.43893" lon="-1.00916">
        <ele>75</ele>
        <time>2025-08-13T07:19:25.000Z</time>
      </trkpt>
      <trkpt lat="43.43894" lon="-1.00919">
        <ele>75.400001525879</ele>
        <time>2025-08-13T07:19:26.000Z</time>
      </trkpt>
      <trkpt lat="43.43903" lon="-1.00934">
        <ele>76.199996948242</ele>
        <time>2025-08-13T07:19:33.000Z</time>
      </trkpt>
      <trkpt lat="43.43906" lon="-1.00939">
        <ele>76.400001525879</ele>
        <time>2025-08-13T07:19:35.000Z</time>
      </trkpt>
      <trkpt lat="43.43918" lon="-1.00958">
        <ele>77</ele>
        <time>2025-08-13T07:19:43.000Z</time>
      </trkpt>
      <trkpt lat="43.43931" lon="-1.00976">
        <ele>77.400001525879</ele>
        <time>2025-08-13T07:19:51.000Z</time>
      </trkpt>
      <trkpt lat="43.43943" lon="-1.00998">
        <ele>77.400001525879</ele>
        <time>2025-08-13T07:19:59.000Z</time>
      </trkpt>
      <trkpt lat="43.43954" lon="-1.01017">
        <ele>77.400001525879</ele>
        <time>2025-08-13T07:20:06.000Z</time>
      </trkpt>
      <trkpt lat="43.43962" lon="-1.01035">
        <ele>77.400001525879</ele>
        <time>2025-08-13T07:20:11.000Z</time>
      </trkpt>
      <trkpt lat="43.4398" lon="-1.01072">
        <ele>77</ele>
        <time>2025-08-13T07:20:19.000Z</time>
      </trkpt>
      <trkpt lat="43.43993" lon="-1.011">
        <ele>76.400001525879</ele>
        <time>2025-08-13T07:20:24.000Z</time>
      </trkpt>
      <trkpt lat="43.43999" lon="-1.01112">
        <ele>76.199996948242</ele>
        <time>2025-08-13T07:20:26.000Z</time>
      </trkpt>
      <trkpt lat="43.44015" lon="-1.01141">
        <ele>75.800003051758</ele>
        <time>2025-08-13T07:20:31.000Z</time>
      </trkpt>
      <trkpt lat="43.44036" lon="-1.01184">
        <ele>75.199996948242</ele>
        <time>2025-08-13T07:20:39.000Z</time>
      </trkpt>
      <trkpt lat="43.44042" lon="-1.01195">
        <ele>75.199996948242</ele>
        <time>2025-08-13T07:20:41.000Z</time>
      </trkpt>
      <trkpt lat="43.44055" lon="-1.01222">
        <ele>74.599998474121</ele>
        <time>2025-08-13T07:20:46.000Z</time>
      </trkpt>
      <trkpt lat="43.44062" lon="-1.01232">
        <ele>74.400001525879</ele>
        <time>2025-08-13T07:20:48.000Z</time>
      </trkpt>
      <trkpt lat="43.44064" lon="-1.01236">
        <ele>74.199996948242</ele>
        <time>2025-08-13T07:20:49.000Z</time>
      </trkpt>
      <trkpt lat="43.44069" lon="-1.01245">
        <ele>74</ele>
        <time>2025-08-13T07:20:51.000Z</time>
      </trkpt>
      <trkpt lat="43.44072" lon="-1.01248">
        <ele>73.800003051758</ele>
        <time>2025-08-13T07:20:52.000Z</time>
      </trkpt>
      <trkpt lat="43.44082" lon="-1.01268">
        <ele>73.400001525879</ele>
        <time>2025-08-13T07:20:57.000Z</time>
      </trkpt>
      <trkpt lat="43.44088" lon="-1.0128">
        <ele>73</ele>
        <time>2025-08-13T07:20:59.000Z</time>
      </trkpt>
      <trkpt lat="43.44096" lon="-1.01293">
        <ele>72.599998474121</ele>
        <time>2025-08-13T07:21:01.000Z</time>
      </trkpt>
      <trkpt lat="43.44108" lon="-1.01306">
        <ele>71.800003051758</ele>
        <time>2025-08-13T07:21:03.000Z</time>
      </trkpt>
      <trkpt lat="43.44114" lon="-1.01311">
        <ele>71.400001525879</ele>
        <time>2025-08-13T07:21:04.000Z</time>
      </trkpt>
      <trkpt lat="43.4412" lon="-1.01315">
        <ele>70.400001525879</ele>
        <time>2025-08-13T07:21:05.000Z</time>
      </trkpt>
      <trkpt lat="43.44127" lon="-1.01317">
        <ele>69.400001525879</ele>
        <time>2025-08-13T07:21:06.000Z</time>
      </trkpt>
      <trkpt lat="43.4414" lon="-1.01315">
        <ele>67.800003051758</ele>
        <time>2025-08-13T07:21:08.000Z</time>
      </trkpt>
      <trkpt lat="43.44154" lon="-1.01317">
        <ele>66</ele>
        <time>2025-08-13T07:21:10.000Z</time>
      </trkpt>
      <trkpt lat="43.44161" lon="-1.01321">
        <ele>65.599998474121</ele>
        <time>2025-08-13T07:21:11.000Z</time>
      </trkpt>
      <trkpt lat="43.44169" lon="-1.01326">
        <ele>65</ele>
        <time>2025-08-13T07:21:12.000Z</time>
      </trkpt>
      <trkpt lat="43.44176" lon="-1.01332">
        <ele>63.799999237061</ele>
        <time>2025-08-13T07:21:13.000Z</time>
      </trkpt>
      <trkpt lat="43.44196" lon="-1.01349">
        <ele>62.599998474121</ele>
        <time>2025-08-13T07:21:16.000Z</time>
      </trkpt>
      <trkpt lat="43.44203" lon="-1.01354">
        <ele>61.599998474121</ele>
        <time>2025-08-13T07:21:17.000Z</time>
      </trkpt>
      <trkpt lat="43.44216" lon="-1.01365">
        <ele>60.400001525879</ele>
        <time>2025-08-13T07:21:19.000Z</time>
      </trkpt>
      <trkpt lat="43.44228" lon="-1.01376">
        <ele>59</ele>
        <time>2025-08-13T07:21:21.000Z</time>
      </trkpt>
      <trkpt lat="43.44233" lon="-1.01382">
        <ele>57.799999237061</ele>
        <time>2025-08-13T07:21:22.000Z</time>
      </trkpt>
      <trkpt lat="43.44244" lon="-1.01394">
        <ele>56.200000762939</ele>
        <time>2025-08-13T07:21:24.000Z</time>
      </trkpt>
      <trkpt lat="43.44257" lon="-1.01409">
        <ele>54.400001525879</ele>
        <time>2025-08-13T07:21:26.000Z</time>
      </trkpt>
      <trkpt lat="43.44264" lon="-1.01416">
        <ele>52.599998474121</ele>
        <time>2025-08-13T07:21:27.000Z</time>
      </trkpt>
      <trkpt lat="43.4427" lon="-1.01424">
        <ele>52</ele>
        <time>2025-08-13T07:21:28.000Z</time>
      </trkpt>
      <trkpt lat="43.44277" lon="-1.01431">
        <ele>50.799999237061</ele>
        <time>2025-08-13T07:21:29.000Z</time>
      </trkpt>
      <trkpt lat="43.44283" lon="-1.01438">
        <ele>49.400001525879</ele>
        <time>2025-08-13T07:21:30.000Z</time>
      </trkpt>
      <trkpt lat="43.44289" lon="-1.01446">
        <ele>47.400001525879</ele>
        <time>2025-08-13T07:21:31.000Z</time>
      </trkpt>
      <trkpt lat="43.44302" lon="-1.01462">
        <ele>45</ele>
        <time>2025-08-13T07:21:33.000Z</time>
      </trkpt>
      <trkpt lat="43.44309" lon="-1.01472">
        <ele>43.400001525879</ele>
        <time>2025-08-13T07:21:34.000Z</time>
      </trkpt>
      <trkpt lat="43.44324" lon="-1.01491">
        <ele>41.599998474121</ele>
        <time>2025-08-13T07:21:36.000Z</time>
      </trkpt>
      <trkpt lat="43.44339" lon="-1.01511">
        <ele>39.599998474121</ele>
        <time>2025-08-13T07:21:38.000Z</time>
      </trkpt>
      <trkpt lat="43.44347" lon="-1.01521">
        <ele>39.200000762939</ele>
        <time>2025-08-13T07:21:39.000Z</time>
      </trkpt>
      <trkpt lat="43.44355" lon="-1.01531">
        <ele>38.599998474121</ele>
        <time>2025-08-13T07:21:40.000Z</time>
      </trkpt>
      <trkpt lat="43.44369" lon="-1.01551">
        <ele>37.400001525879</ele>
        <time>2025-08-13T07:21:42.000Z</time>
      </trkpt>
      <trkpt lat="43.44383" lon="-1.01571">
        <ele>36.200000762939</ele>
        <time>2025-08-13T07:21:44.000Z</time>
      </trkpt>
      <trkpt lat="43.44395" lon="-1.01592">
        <ele>35.599998474121</ele>
        <time>2025-08-13T07:21:46.000Z</time>
      </trkpt>
      <trkpt lat="43.44406" lon="-1.01611">
        <ele>35</ele>
        <time>2025-08-13T07:21:48.000Z</time>
      </trkpt>
      <trkpt lat="43.44424" lon="-1.01635">
        <ele>34.400001525879</ele>
        <time>2025-08-13T07:21:51.000Z</time>
      </trkpt>
      <trkpt lat="43.44448" lon="-1.01664">
        <ele>34</ele>
        <time>2025-08-13T07:21:56.000Z</time>
      </trkpt>
      <trkpt lat="43.44452" lon="-1.01669">
        <ele>34</ele>
        <time>2025-08-13T07:21:57.000Z</time>
      </trkpt>
      <trkpt lat="43.44463" lon="-1.01691">
        <ele>34.400001525879</ele>
        <time>2025-08-13T07:22:01.000Z</time>
      </trkpt>
      <trkpt lat="43.44477" lon="-1.01728">
        <ele>34.799999237061</ele>
        <time>2025-08-13T07:22:08.000Z</time>
      </trkpt>
      <trkpt lat="43.44492" lon="-1.01776">
        <ele>35.200000762939</ele>
        <time>2025-08-13T07:22:17.000Z</time>
      </trkpt>
      <trkpt lat="43.44507" lon="-1.01807">
        <ele>35.200000762939</ele>
        <time>2025-08-13T07:22:24.000Z</time>
      </trkpt>
      <trkpt lat="43.44529" lon="-1.01829">
        <ele>35.599998474121</ele>
        <time>2025-08-13T07:22:31.000Z</time>
      </trkpt>
      <trkpt lat="43.44547" lon="-1.01845">
        <ele>35.799999237061</ele>
        <time>2025-08-13T07:22:37.000Z</time>
      </trkpt>
      <trkpt lat="43.44558" lon="-1.01861">
        <ele>36</ele>
        <time>2025-08-13T07:22:42.000Z</time>
      </trkpt>
      <trkpt lat="43.44563" lon="-1.01867">
        <ele>36.200000762939</ele>
        <time>2025-08-13T07:22:44.000Z</time>
      </trkpt>
      <trkpt lat="43.44577" lon="-1.01891">
        <ele>36.400001525879</ele>
        <time>2025-08-13T07:22:51.000Z</time>
      </trkpt>
      <trkpt lat="43.44592" lon="-1.01924">
        <ele>36.599998474121</ele>
        <time>2025-08-13T07:22:59.000Z</time>
      </trkpt>
      <trkpt lat="43.44599" lon="-1.01959">
        <ele>36.400001525879</ele>
        <time>2025-08-13T07:23:05.000Z</time>
      </trkpt>
      <trkpt lat="43.446" lon="-1.01972">
        <ele>36.200000762939</ele>
        <time>2025-08-13T07:23:07.000Z</time>
      </trkpt>
      <trkpt lat="43.44602" lon="-1.01984">
        <ele>36.200000762939</ele>
        <time>2025-08-13T07:23:09.000Z</time>
      </trkpt>
      <trkpt lat="43.44609" lon="-1.02033">
        <ele>35.200000762939</ele>
        <time>2025-08-13T07:23:16.000Z</time>
      </trkpt>
      <trkpt lat="43.44614" lon="-1.02045">
        <ele>35</ele>
        <time>2025-08-13T07:23:18.000Z</time>
      </trkpt>
      <trkpt lat="43.44618" lon="-1.02049">
        <ele>34.799999237061</ele>
        <time>2025-08-13T07:23:19.000Z</time>
      </trkpt>
      <trkpt lat="43.44623" lon="-1.02052">
        <ele>34.599998474121</ele>
        <time>2025-08-13T07:23:20.000Z</time>
      </trkpt>
      <trkpt lat="43.4464" lon="-1.02057">
        <ele>34</ele>
        <time>2025-08-13T07:23:23.000Z</time>
      </trkpt>
      <trkpt lat="43.44646" lon="-1.02059">
        <ele>33.799999237061</ele>
        <time>2025-08-13T07:23:24.000Z</time>
      </trkpt>
      <trkpt lat="43.44669" lon="-1.02073">
        <ele>33</ele>
        <time>2025-08-13T07:23:28.000Z</time>
      </trkpt>
      <trkpt lat="43.44675" lon="-1.02077">
        <ele>32.799999237061</ele>
        <time>2025-08-13T07:23:29.000Z</time>
      </trkpt>
      <trkpt lat="43.44709" lon="-1.02104">
        <ele>32</ele>
        <time>2025-08-13T07:23:35.000Z</time>
      </trkpt>
      <trkpt lat="43.44722" lon="-1.02113">
        <ele>31.60000038147</ele>
        <time>2025-08-13T07:23:37.000Z</time>
      </trkpt>
      <trkpt lat="43.44738" lon="-1.0212">
        <ele>31</ele>
        <time>2025-08-13T07:23:39.000Z</time>
      </trkpt>
      <trkpt lat="43.44754" lon="-1.02124">
        <ele>30</ele>
        <time>2025-08-13T07:23:41.000Z</time>
      </trkpt>
      <trkpt lat="43.44776" lon="-1.02129">
        <ele>28.60000038147</ele>
        <time>2025-08-13T07:23:44.000Z</time>
      </trkpt>
      <trkpt lat="43.44787" lon="-1.02133">
        <ele>28</ele>
        <time>2025-08-13T07:23:46.000Z</time>
      </trkpt>
      <trkpt lat="43.44798" lon="-1.02135">
        <ele>27.39999961853</ele>
        <time>2025-08-13T07:23:48.000Z</time>
      </trkpt>
      <trkpt lat="43.44819" lon="-1.02149">
        <ele>27</ele>
        <time>2025-08-13T07:23:53.000Z</time>
      </trkpt>
      <trkpt lat="43.44843" lon="-1.02176">
        <ele>27.200000762939</ele>
        <time>2025-08-13T07:24:00.000Z</time>
      </trkpt>
      <trkpt lat="43.44867" lon="-1.02199">
        <ele>27.60000038147</ele>
        <time>2025-08-13T07:24:07.000Z</time>
      </trkpt>
      <trkpt lat="43.44878" lon="-1.02209">
        <ele>27.799999237061</ele>
        <time>2025-08-13T07:24:10.000Z</time>
      </trkpt>
      <trkpt lat="43.44892" lon="-1.02219">
        <ele>28.200000762939</ele>
        <time>2025-08-13T07:24:14.000Z</time>
      </trkpt>
      <trkpt lat="43.44895" lon="-1.02221">
        <ele>28.200000762939</ele>
        <time>2025-08-13T07:24:15.000Z</time>
      </trkpt>
      <trkpt lat="43.44901" lon="-1.02224">
        <ele>28.39999961853</ele>
        <time>2025-08-13T07:24:17.000Z</time>
      </trkpt>
      <trkpt lat="43.4491" lon="-1.02226">
        <ele>28.799999237061</ele>
        <time>2025-08-13T07:24:20.000Z</time>
      </trkpt>
      <trkpt lat="43.44924" lon="-1.02229">
        <ele>29.60000038147</ele>
        <time>2025-08-13T07:24:25.000Z</time>
      </trkpt>
      <trkpt lat="43.44936" lon="-1.02228">
        <ele>30.60000038147</ele>
        <time>2025-08-13T07:24:30.000Z</time>
      </trkpt>
      <trkpt lat="43.44941" lon="-1.02228">
        <ele>30.799999237061</ele>
        <time>2025-08-13T07:24:32.000Z</time>
      </trkpt>
      <trkpt lat="43.44952" lon="-1.02229">
        <ele>31.60000038147</ele>
        <time>2025-08-13T07:24:37.000Z</time>
      </trkpt>
      <trkpt lat="43.44968" lon="-1.02228">
        <ele>32.599998474121</ele>
        <time>2025-08-13T07:24:44.000Z</time>
      </trkpt>
      <trkpt lat="43.44971" lon="-1.02228">
        <ele>32.799999237061</ele>
        <time>2025-08-13T07:24:45.000Z</time>
      </trkpt>
      <trkpt lat="43.44985" lon="-1.02228">
        <ele>33.799999237061</ele>
        <time>2025-08-13T07:24:51.000Z</time>
      </trkpt>
      <trkpt lat="43.44992" lon="-1.02227">
        <ele>34.400001525879</ele>
        <time>2025-08-13T07:24:54.000Z</time>
      </trkpt>
      <trkpt lat="43.45" lon="-1.02225">
        <ele>34.799999237061</ele>
        <time>2025-08-13T07:24:58.000Z</time>
      </trkpt>
      <trkpt lat="43.45006" lon="-1.02223">
        <ele>35.400001525879</ele>
        <time>2025-08-13T07:25:01.000Z</time>
      </trkpt>
      <trkpt lat="43.45013" lon="-1.0222">
        <ele>36</ele>
        <time>2025-08-13T07:25:05.000Z</time>
      </trkpt>
      <trkpt lat="43.45018" lon="-1.02216">
        <ele>36.799999237061</ele>
        <time>2025-08-13T07:25:08.000Z</time>
      </trkpt>
      <trkpt lat="43.4502" lon="-1.02213">
        <ele>37.200000762939</ele>
        <time>2025-08-13T07:25:10.000Z</time>
      </trkpt>
      <trkpt lat="43.45022" lon="-1.02212">
        <ele>37.200000762939</ele>
        <time>2025-08-13T07:25:11.000Z</time>
      </trkpt>
      <trkpt lat="43.45025" lon="-1.02209">
        <ele>37.599998474121</ele>
        <time>2025-08-13T07:25:13.000Z</time>
      </trkpt>
      <trkpt lat="43.45029" lon="-1.02205">
        <ele>38.200000762939</ele>
        <time>2025-08-13T07:25:16.000Z</time>
      </trkpt>
      <trkpt lat="43.4503" lon="-1.02203">
        <ele>38.400001525879</ele>
        <time>2025-08-13T07:25:17.000Z</time>
      </trkpt>
      <trkpt lat="43.45031" lon="-1.02201">
        <ele>38.400001525879</ele>
        <time>2025-08-13T07:25:18.000Z</time>
      </trkpt>
      <trkpt lat="43.45035" lon="-1.02194">
        <ele>39.200000762939</ele>
        <time>2025-08-13T07:25:22.000Z</time>
      </trkpt>
      <trkpt lat="43.45037" lon="-1.02191">
        <ele>39.400001525879</ele>
        <time>2025-08-13T07:25:24.000Z</time>
      </trkpt>
      <trkpt lat="43.45043" lon="-1.02179">
        <ele>40.400001525879</ele>
        <time>2025-08-13T07:25:30.000Z</time>
      </trkpt>
      <trkpt lat="43.45044" lon="-1.02177">
        <ele>40.599998474121</ele>
        <time>2025-08-13T07:25:31.000Z</time>
      </trkpt>
      <trkpt lat="43.45049" lon="-1.02169">
        <ele>41.599998474121</ele>
        <time>2025-08-13T07:25:36.000Z</time>
      </trkpt>
      <trkpt lat="43.4505" lon="-1.02168">
        <ele>41.599998474121</ele>
        <time>2025-08-13T07:25:37.000Z</time>
      </trkpt>
      <trkpt lat="43.45054" lon="-1.02157">
        <ele>42.599998474121</ele>
        <time>2025-08-13T07:25:43.000Z</time>
      </trkpt>
      <trkpt lat="43.45055" lon="-1.02156">
        <ele>42.599998474121</ele>
        <time>2025-08-13T07:25:44.000Z</time>
      </trkpt>
      <trkpt lat="43.45056" lon="-1.02153">
        <ele>43</ele>
        <time>2025-08-13T07:25:46.000Z</time>
      </trkpt>
      <trkpt lat="43.45059" lon="-1.02147">
        <ele>43.599998474121</ele>
        <time>2025-08-13T07:25:49.000Z</time>
      </trkpt>
      <trkpt lat="43.4506" lon="-1.02144">
        <ele>43.599998474121</ele>
        <time>2025-08-13T07:25:50.000Z</time>
      </trkpt>
      <trkpt lat="43.45067" lon="-1.0213">
        <ele>44.599998474121</ele>
        <time>2025-08-13T07:25:56.000Z</time>
      </trkpt>
      <trkpt lat="43.45069" lon="-1.02128">
        <ele>44.799999237061</ele>
        <time>2025-08-13T07:25:57.000Z</time>
      </trkpt>
      <trkpt lat="43.45078" lon="-1.02124">
        <ele>45.400001525879</ele>
        <time>2025-08-13T07:26:02.000Z</time>
      </trkpt>
      <trkpt lat="43.4508" lon="-1.02123">
        <ele>45.599998474121</ele>
        <time>2025-08-13T07:26:04.000Z</time>
      </trkpt>
      <trkpt lat="43.45082" lon="-1.02122">
        <ele>45.799999237061</ele>
        <time>2025-08-13T07:26:06.000Z</time>
      </trkpt>
      <trkpt lat="43.45082" lon="-1.02122">
        <ele>45.799999237061</ele>
        <time>2025-08-13T07:26:07.000Z</time>
      </trkpt>
      <trkpt lat="43.45086" lon="-1.02123">
        <ele>46</ele>
        <time>2025-08-13T07:26:31.000Z</time>
      </trkpt>
      <trkpt lat="43.45089" lon="-1.0212">
        <ele>46</ele>
        <time>2025-08-13T07:26:33.000Z</time>
      </trkpt>
      <trkpt lat="43.45099" lon="-1.0211">
        <ele>46.400001525879</ele>
        <time>2025-08-13T07:26:39.000Z</time>
      </trkpt>
      <trkpt lat="43.45101" lon="-1.02106">
        <ele>46.400001525879</ele>
        <time>2025-08-13T07:26:41.000Z</time>
      </trkpt>
      <trkpt lat="43.45104" lon="-1.02106">
        <ele>46.599998474121</ele>
        <time>2025-08-13T07:26:43.000Z</time>
      </trkpt>
      <trkpt lat="43.45106" lon="-1.02105">
        <ele>46.599998474121</ele>
        <time>2025-08-13T07:26:44.000Z</time>
      </trkpt>
      <trkpt lat="43.45107" lon="-1.02104">
        <ele>46.799999237061</ele>
        <time>2025-08-13T07:26:45.000Z</time>
      </trkpt>
      <trkpt lat="43.45108" lon="-1.02102">
        <ele>47</ele>
        <time>2025-08-13T07:26:46.000Z</time>
      </trkpt>
      <trkpt lat="43.45108" lon="-1.021">
        <ele>47</ele>
        <time>2025-08-13T07:26:47.000Z</time>
      </trkpt>
      <trkpt lat="43.45107" lon="-1.02097">
        <ele>47.200000762939</ele>
        <time>2025-08-13T07:26:48.000Z</time>
      </trkpt>
      <trkpt lat="43.45109" lon="-1.02095">
        <ele>47.599998474121</ele>
        <time>2025-08-13T07:26:50.000Z</time>
      </trkpt>
      <trkpt lat="43.45113" lon="-1.02096">
        <ele>47.799999237061</ele>
        <time>2025-08-13T07:26:52.000Z</time>
      </trkpt>
      <trkpt lat="43.45114" lon="-1.02094">
        <ele>47.799999237061</ele>
        <time>2025-08-13T07:26:53.000Z</time>
      </trkpt>
      <trkpt lat="43.45114" lon="-1.02091">
        <ele>48</ele>
        <time>2025-08-13T07:26:54.000Z</time>
      </trkpt>
      <trkpt lat="43.45115" lon="-1.02087">
        <ele>48</ele>
        <time>2025-08-13T07:26:56.000Z</time>
      </trkpt>
      <trkpt lat="43.45118" lon="-1.02086">
        <ele>48.200000762939</ele>
        <time>2025-08-13T07:26:58.000Z</time>
      </trkpt>
      <trkpt lat="43.4512" lon="-1.02085">
        <ele>48.599998474121</ele>
        <time>2025-08-13T07:26:59.000Z</time>
      </trkpt>
      <trkpt lat="43.45121" lon="-1.02081">
        <ele>49</ele>
        <time>2025-08-13T07:27:01.000Z</time>
      </trkpt>
      <trkpt lat="43.45121" lon="-1.02078">
        <ele>49.200000762939</ele>
        <time>2025-08-13T07:27:02.000Z</time>
      </trkpt>
      <trkpt lat="43.45121" lon="-1.02076">
        <ele>49.200000762939</ele>
        <time>2025-08-13T07:27:03.000Z</time>
      </trkpt>
      <trkpt lat="43.45126" lon="-1.02074">
        <ele>49.400001525879</ele>
        <time>2025-08-13T07:27:06.000Z</time>
      </trkpt>
      <trkpt lat="43.4513" lon="-1.02069">
        <ele>50</ele>
        <time>2025-08-13T07:27:09.000Z</time>
      </trkpt>
      <trkpt lat="43.45135" lon="-1.02065">
        <ele>50.400001525879</ele>
        <time>2025-08-13T07:27:12.000Z</time>
      </trkpt>
      <trkpt lat="43.45148" lon="-1.0206">
        <ele>51.200000762939</ele>
        <time>2025-08-13T07:27:18.000Z</time>
      </trkpt>
      <trkpt lat="43.45168" lon="-1.02059">
        <ele>51.799999237061</ele>
        <time>2025-08-13T07:27:26.000Z</time>
      </trkpt>
      <trkpt lat="43.45191" lon="-1.02055">
        <ele>52</ele>
        <time>2025-08-13T07:27:34.000Z</time>
      </trkpt>
      <trkpt lat="43.45206" lon="-1.02053">
        <ele>51.799999237061</ele>
        <time>2025-08-13T07:27:40.000Z</time>
      </trkpt>
      <trkpt lat="43.4522" lon="-1.02052">
        <ele>51.400001525879</ele>
        <time>2025-08-13T07:27:46.000Z</time>
      </trkpt>
      <trkpt lat="43.45223" lon="-1.02052">
        <ele>51.400001525879</ele>
        <time>2025-08-13T07:27:47.000Z</time>
      </trkpt>
      <trkpt lat="43.4523" lon="-1.02051">
        <ele>51.400001525879</ele>
        <time>2025-08-13T07:27:50.000Z</time>
      </trkpt>
      <trkpt lat="43.45242" lon="-1.02051">
        <ele>51</ele>
        <time>2025-08-13T07:27:55.000Z</time>
      </trkpt>
      <trkpt lat="43.45251" lon="-1.0205">
        <ele>50.799999237061</ele>
        <time>2025-08-13T07:27:58.000Z</time>
      </trkpt>
      <trkpt lat="43.45265" lon="-1.02049">
        <ele>50.599998474121</ele>
        <time>2025-08-13T07:28:03.000Z</time>
      </trkpt>
      <trkpt lat="43.45284" lon="-1.02053">
        <ele>50.200000762939</ele>
        <time>2025-08-13T07:28:11.000Z</time>
      </trkpt>
      <trkpt lat="43.45287" lon="-1.02053">
        <ele>50.200000762939</ele>
        <time>2025-08-13T07:28:12.000Z</time>
      </trkpt>
      <trkpt lat="43.45303" lon="-1.02053">
        <ele>50.200000762939</ele>
        <time>2025-08-13T07:28:18.000Z</time>
      </trkpt>
      <trkpt lat="43.45318" lon="-1.02061">
        <ele>50.400001525879</ele>
        <time>2025-08-13T07:28:24.000Z</time>
      </trkpt>
      <trkpt lat="43.45331" lon="-1.02068">
        <ele>50.799999237061</ele>
        <time>2025-08-13T07:28:29.000Z</time>
      </trkpt>
      <trkpt lat="43.45349" lon="-1.02079">
        <ele>51.200000762939</ele>
        <time>2025-08-13T07:28:36.000Z</time>
      </trkpt>
      <trkpt lat="43.45372" lon="-1.02092">
        <ele>51.599998474121</ele>
        <time>2025-08-13T07:28:44.000Z</time>
      </trkpt>
      <trkpt lat="43.45389" lon="-1.02102">
        <ele>51.799999237061</ele>
        <time>2025-08-13T07:28:50.000Z</time>
      </trkpt>
      <trkpt lat="43.45419" lon="-1.02117">
        <ele>51.799999237061</ele>
        <time>2025-08-13T07:28:59.000Z</time>
      </trkpt>
      <trkpt lat="43.45436" lon="-1.02129">
        <ele>51.799999237061</ele>
        <time>2025-08-13T07:29:04.000Z</time>
      </trkpt>
      <trkpt lat="43.45453" lon="-1.02154">
        <ele>51.799999237061</ele>
        <time>2025-08-13T07:29:10.000Z</time>
      </trkpt>
      <trkpt lat="43.45458" lon="-1.02163">
        <ele>51.799999237061</ele>
        <time>2025-08-13T07:29:12.000Z</time>
      </trkpt>
      <trkpt lat="43.45468" lon="-1.02181">
        <ele>51.799999237061</ele>
        <time>2025-08-13T07:29:16.000Z</time>
      </trkpt>
      <trkpt lat="43.45471" lon="-1.02186">
        <ele>51.799999237061</ele>
        <time>2025-08-13T07:29:17.000Z</time>
      </trkpt>
      <trkpt lat="43.45502" lon="-1.02239">
        <ele>52</ele>
        <time>2025-08-13T07:29:28.000Z</time>
      </trkpt>
      <trkpt lat="43.45526" lon="-1.02285">
        <ele>52</ele>
        <time>2025-08-13T07:29:37.000Z</time>
      </trkpt>
      <trkpt lat="43.45554" lon="-1.02336">
        <ele>52</ele>
        <time>2025-08-13T07:29:47.000Z</time>
      </trkpt>
      <trkpt lat="43.45577" lon="-1.02377">
        <ele>51.799999237061</ele>
        <time>2025-08-13T07:29:55.000Z</time>
      </trkpt>
      <trkpt lat="43.456" lon="-1.0242">
        <ele>51.599998474121</ele>
        <time>2025-08-13T07:30:03.000Z</time>
      </trkpt>
      <trkpt lat="43.45621" lon="-1.0246">
        <ele>51.400001525879</ele>
        <time>2025-08-13T07:30:10.000Z</time>
      </trkpt>
      <trkpt lat="43.45645" lon="-1.02524">
        <ele>51</ele>
        <time>2025-08-13T07:30:20.000Z</time>
      </trkpt>
      <trkpt lat="43.45662" lon="-1.02586">
        <ele>51</ele>
        <time>2025-08-13T07:30:29.000Z</time>
      </trkpt>
      <trkpt lat="43.45667" lon="-1.02642">
        <ele>50.599998474121</ele>
        <time>2025-08-13T07:30:36.000Z</time>
      </trkpt>
      <trkpt lat="43.4567" lon="-1.02705">
        <ele>49.799999237061</ele>
        <time>2025-08-13T07:30:43.000Z</time>
      </trkpt>
      <trkpt lat="43.45676" lon="-1.02715">
        <ele>49.400001525879</ele>
        <time>2025-08-13T07:30:45.000Z</time>
      </trkpt>
      <trkpt lat="43.45694" lon="-1.02718">
        <ele>49</ele>
        <time>2025-08-13T07:30:48.000Z</time>
      </trkpt>
      <trkpt lat="43.45709" lon="-1.02719">
        <ele>48.599998474121</ele>
        <time>2025-08-13T07:30:50.000Z</time>
      </trkpt>
      <trkpt lat="43.45733" lon="-1.0272">
        <ele>46.799999237061</ele>
        <time>2025-08-13T07:30:53.000Z</time>
      </trkpt>
      <trkpt lat="43.45741" lon="-1.0272">
        <ele>46.599998474121</ele>
        <time>2025-08-13T07:30:54.000Z</time>
      </trkpt>
      <trkpt lat="43.4575" lon="-1.02721">
        <ele>45.599998474121</ele>
        <time>2025-08-13T07:30:55.000Z</time>
      </trkpt>
      <trkpt lat="43.45768" lon="-1.02721">
        <ele>44.200000762939</ele>
        <time>2025-08-13T07:30:57.000Z</time>
      </trkpt>
      <trkpt lat="43.45786" lon="-1.02721">
        <ele>42.400001525879</ele>
        <time>2025-08-13T07:30:59.000Z</time>
      </trkpt>
      <trkpt lat="43.45795" lon="-1.0272">
        <ele>41</ele>
        <time>2025-08-13T07:31:00.000Z</time>
      </trkpt>
      <trkpt lat="43.45815" lon="-1.0272">
        <ele>38.799999237061</ele>
        <time>2025-08-13T07:31:02.000Z</time>
      </trkpt>
      <trkpt lat="43.45835" lon="-1.0272">
        <ele>36.599998474121</ele>
        <time>2025-08-13T07:31:04.000Z</time>
      </trkpt>
      <trkpt lat="43.45844" lon="-1.02722">
        <ele>35.599998474121</ele>
        <time>2025-08-13T07:31:05.000Z</time>
      </trkpt>
      <trkpt lat="43.45851" lon="-1.02728">
        <ele>34</ele>
        <time>2025-08-13T07:31:06.000Z</time>
      </trkpt>
      <trkpt lat="43.45858" lon="-1.02736">
        <ele>32.200000762939</ele>
        <time>2025-08-13T07:31:07.000Z</time>
      </trkpt>
      <trkpt lat="43.45872" lon="-1.02753">
        <ele>30</ele>
        <time>2025-08-13T07:31:09.000Z</time>
      </trkpt>
      <trkpt lat="43.45888" lon="-1.02768">
        <ele>28.39999961853</ele>
        <time>2025-08-13T07:31:11.000Z</time>
      </trkpt>
      <trkpt lat="43.45895" lon="-1.02771">
        <ele>28</ele>
        <time>2025-08-13T07:31:12.000Z</time>
      </trkpt>
      <trkpt lat="43.45911" lon="-1.02776">
        <ele>27.200000762939</ele>
        <time>2025-08-13T07:31:14.000Z</time>
      </trkpt>
      <trkpt lat="43.45918" lon="-1.02778">
        <ele>27</ele>
        <time>2025-08-13T07:31:15.000Z</time>
      </trkpt>
      <trkpt lat="43.45925" lon="-1.0278">
        <ele>26.799999237061</ele>
        <time>2025-08-13T07:31:16.000Z</time>
      </trkpt>
      <trkpt lat="43.4596" lon="-1.02787">
        <ele>26</ele>
        <time>2025-08-13T07:31:21.000Z</time>
      </trkpt>
      <trkpt lat="43.45978" lon="-1.02793">
        <ele>26</ele>
        <time>2025-08-13T07:31:24.000Z</time>
      </trkpt>
      <trkpt lat="43.46007" lon="-1.02801">
        <ele>26.200000762939</ele>
        <time>2025-08-13T07:31:29.000Z</time>
      </trkpt>
      <trkpt lat="43.46012" lon="-1.02802">
        <ele>26.200000762939</ele>
        <time>2025-08-13T07:31:30.000Z</time>
      </trkpt>
      <trkpt lat="43.46035" lon="-1.02803">
        <ele>27.200000762939</ele>
        <time>2025-08-13T07:31:35.000Z</time>
      </trkpt>
      <trkpt lat="43.46039" lon="-1.02803">
        <ele>27.39999961853</ele>
        <time>2025-08-13T07:31:36.000Z</time>
      </trkpt>
      <trkpt lat="43.46058" lon="-1.02802">
        <ele>28.39999961853</ele>
        <time>2025-08-13T07:31:41.000Z</time>
      </trkpt>
      <trkpt lat="43.46078" lon="-1.02802">
        <ele>29.39999961853</ele>
        <time>2025-08-13T07:31:47.000Z</time>
      </trkpt>
      <trkpt lat="43.46085" lon="-1.02801">
        <ele>29.799999237061</ele>
        <time>2025-08-13T07:31:49.000Z</time>
      </trkpt>
      <trkpt lat="43.46106" lon="-1.028">
        <ele>30.39999961853</ele>
        <time>2025-08-13T07:31:55.000Z</time>
      </trkpt>
      <trkpt lat="43.46115" lon="-1.02799">
        <ele>30.799999237061</ele>
        <time>2025-08-13T07:31:58.000Z</time>
      </trkpt>
      <trkpt lat="43.46132" lon="-1.02795">
        <ele>31.39999961853</ele>
        <time>2025-08-13T07:32:03.000Z</time>
      </trkpt>
      <trkpt lat="43.46146" lon="-1.02795">
        <ele>31.799999237061</ele>
        <time>2025-08-13T07:32:07.000Z</time>
      </trkpt>
      <trkpt lat="43.46168" lon="-1.02796">
        <ele>32.599998474121</ele>
        <time>2025-08-13T07:32:13.000Z</time>
      </trkpt>
      <trkpt lat="43.46172" lon="-1.02796">
        <ele>32.599998474121</ele>
        <time>2025-08-13T07:32:14.000Z</time>
      </trkpt>
      <trkpt lat="43.46199" lon="-1.02796">
        <ele>33.599998474121</ele>
        <time>2025-08-13T07:32:22.000Z</time>
      </trkpt>
      <trkpt lat="43.46203" lon="-1.02796">
        <ele>33.799999237061</ele>
        <time>2025-08-13T07:32:23.000Z</time>
      </trkpt>
      <trkpt lat="43.4623" lon="-1.02792">
        <ele>34.599998474121</ele>
        <time>2025-08-13T07:32:31.000Z</time>
      </trkpt>
      <trkpt lat="43.46237" lon="-1.02791">
        <ele>34.799999237061</ele>
        <time>2025-08-13T07:32:33.000Z</time>
      </trkpt>
      <trkpt lat="43.46258" lon="-1.02784">
        <ele>35.400001525879</ele>
        <time>2025-08-13T07:32:40.000Z</time>
      </trkpt>
      <trkpt lat="43.46271" lon="-1.0278">
        <ele>35.799999237061</ele>
        <time>2025-08-13T07:32:44.000Z</time>
      </trkpt>
      <trkpt lat="43.46283" lon="-1.0278">
        <ele>36.200000762939</ele>
        <time>2025-08-13T07:32:48.000Z</time>
      </trkpt>
      <trkpt lat="43.46297" lon="-1.02781">
        <ele>37</ele>
        <time>2025-08-13T07:32:53.000Z</time>
      </trkpt>
      <trkpt lat="43.46303" lon="-1.02783">
        <ele>37</ele>
        <time>2025-08-13T07:32:55.000Z</time>
      </trkpt>
      <trkpt lat="43.46318" lon="-1.02791">
        <ele>37.799999237061</ele>
        <time>2025-08-13T07:33:00.000Z</time>
      </trkpt>
      <trkpt lat="43.46326" lon="-1.02795">
        <ele>38.200000762939</ele>
        <time>2025-08-13T07:33:03.000Z</time>
      </trkpt>
      <trkpt lat="43.46343" lon="-1.02805">
        <ele>38.799999237061</ele>
        <time>2025-08-13T07:33:09.000Z</time>
      </trkpt>
      <trkpt lat="43.46349" lon="-1.02809">
        <ele>39</ele>
        <time>2025-08-13T07:33:11.000Z</time>
      </trkpt>
      <trkpt lat="43.46373" lon="-1.0282">
        <ele>39.400001525879</ele>
        <time>2025-08-13T07:33:19.000Z</time>
      </trkpt>
      <trkpt lat="43.46404" lon="-1.02826">
        <ele>40</ele>
        <time>2025-08-13T07:33:28.000Z</time>
      </trkpt>
      <trkpt lat="43.46411" lon="-1.02827">
        <ele>40</ele>
        <time>2025-08-13T07:33:30.000Z</time>
      </trkpt>
      <trkpt lat="43.46432" lon="-1.02834">
        <ele>40.400001525879</ele>
        <time>2025-08-13T07:33:36.000Z</time>
      </trkpt>
      <trkpt lat="43.46463" lon="-1.02846">
        <ele>40.799999237061</ele>
        <time>2025-08-13T07:33:45.000Z</time>
      </trkpt>
      <trkpt lat="43.46482" lon="-1.02859">
        <ele>41</ele>
        <time>2025-08-13T07:33:51.000Z</time>
      </trkpt>
      <trkpt lat="43.46496" lon="-1.02881">
        <ele>41.200000762939</ele>
        <time>2025-08-13T07:33:56.000Z</time>
      </trkpt>
      <trkpt lat="43.46496" lon="-1.02881">
        <ele>41.200000762939</ele>
        <time>2025-08-13T07:33:57.000Z</time>
      </trkpt>
      <trkpt lat="43.46514" lon="-1.02913">
        <ele>41.799999237061</ele>
        <time>2025-08-13T07:34:05.000Z</time>
      </trkpt>
      <trkpt lat="43.4653" lon="-1.02939">
        <ele>41.799999237061</ele>
        <time>2025-08-13T07:34:12.000Z</time>
      </trkpt>
      <trkpt lat="43.46553" lon="-1.02969">
        <ele>42</ele>
        <time>2025-08-13T07:34:21.000Z</time>
      </trkpt>
      <trkpt lat="43.46561" lon="-1.02979">
        <ele>42.200000762939</ele>
        <time>2025-08-13T07:34:24.000Z</time>
      </trkpt>
      <trkpt lat="43.46569" lon="-1.0299">
        <ele>42.400001525879</ele>
        <time>2025-08-13T07:34:27.000Z</time>
      </trkpt>
      <trkpt lat="43.46588" lon="-1.03013">
        <ele>42.400001525879</ele>
        <time>2025-08-13T07:34:33.000Z</time>
      </trkpt>
      <trkpt lat="43.46612" lon="-1.03043">
        <ele>42</ele>
        <time>2025-08-13T07:34:40.000Z</time>
      </trkpt>
      <trkpt lat="43.46635" lon="-1.03078">
        <ele>41.599998474121</ele>
        <time>2025-08-13T07:34:47.000Z</time>
      </trkpt>
      <trkpt lat="43.46643" lon="-1.03088">
        <ele>41.400001525879</ele>
        <time>2025-08-13T07:34:49.000Z</time>
      </trkpt>
      <trkpt lat="43.46656" lon="-1.03099">
        <ele>41.200000762939</ele>
        <time>2025-08-13T07:34:52.000Z</time>
      </trkpt>
      <trkpt lat="43.46661" lon="-1.03103">
        <ele>41.200000762939</ele>
        <time>2025-08-13T07:34:53.000Z</time>
      </trkpt>
      <trkpt lat="43.467" lon="-1.03129">
        <ele>40.599998474121</ele>
        <time>2025-08-13T07:35:01.000Z</time>
      </trkpt>
      <trkpt lat="43.46732" lon="-1.0316">
        <ele>40.200000762939</ele>
        <time>2025-08-13T07:35:08.000Z</time>
      </trkpt>
      <trkpt lat="43.46737" lon="-1.03164">
        <ele>40</ele>
        <time>2025-08-13T07:35:09.000Z</time>
      </trkpt>
      <trkpt lat="43.46745" lon="-1.03174">
        <ele>40</ele>
        <time>2025-08-13T07:35:11.000Z</time>
      </trkpt>
      <trkpt lat="43.46779" lon="-1.03198">
        <ele>39.799999237061</ele>
        <time>2025-08-13T07:35:18.000Z</time>
      </trkpt>
      <trkpt lat="43.46818" lon="-1.03228">
        <ele>39.599998474121</ele>
        <time>2025-08-13T07:35:26.000Z</time>
      </trkpt>
      <trkpt lat="43.46851" lon="-1.03249">
        <ele>39.400001525879</ele>
        <time>2025-08-13T07:35:33.000Z</time>
      </trkpt>
      <trkpt lat="43.46892" lon="-1.03257">
        <ele>39.599998474121</ele>
        <time>2025-08-13T07:35:40.000Z</time>
      </trkpt>
      <trkpt lat="43.46932" lon="-1.03269">
        <ele>39.599998474121</ele>
        <time>2025-08-13T07:35:48.000Z</time>
      </trkpt>
      <trkpt lat="43.46969" lon="-1.03288">
        <ele>39</ele>
        <time>2025-08-13T07:35:55.000Z</time>
      </trkpt>
      <trkpt lat="43.46975" lon="-1.03292">
        <ele>39</ele>
        <time>2025-08-13T07:35:56.000Z</time>
      </trkpt>
      <trkpt lat="43.47014" lon="-1.03321">
        <ele>38</ele>
        <time>2025-08-13T07:36:02.000Z</time>
      </trkpt>
      <trkpt lat="43.4702" lon="-1.03326">
        <ele>37.799999237061</ele>
        <time>2025-08-13T07:36:03.000Z</time>
      </trkpt>
      <trkpt lat="43.47039" lon="-1.03341">
        <ele>36.799999237061</ele>
        <time>2025-08-13T07:36:06.000Z</time>
      </trkpt>
      <trkpt lat="43.47054" lon="-1.03353">
        <ele>36.200000762939</ele>
        <time>2025-08-13T07:36:09.000Z</time>
      </trkpt>
      <trkpt lat="43.47071" lon="-1.03368">
        <ele>36.200000762939</ele>
        <time>2025-08-13T07:36:14.000Z</time>
      </trkpt>
      <trkpt lat="43.47084" lon="-1.03381">
        <ele>37</ele>
        <time>2025-08-13T07:36:20.000Z</time>
      </trkpt>
      <trkpt lat="43.47099" lon="-1.03403">
        <ele>37.799999237061</ele>
        <time>2025-08-13T07:36:28.000Z</time>
      </trkpt>
      <trkpt lat="43.47114" lon="-1.03421">
        <ele>38.799999237061</ele>
        <time>2025-08-13T07:36:35.000Z</time>
      </trkpt>
      <trkpt lat="43.47116" lon="-1.03424">
        <ele>38.799999237061</ele>
        <time>2025-08-13T07:36:36.000Z</time>
      </trkpt>
      <trkpt lat="43.47139" lon="-1.03452">
        <ele>39.799999237061</ele>
        <time>2025-08-13T07:36:45.000Z</time>
      </trkpt>
      <trkpt lat="43.47141" lon="-1.03455">
        <ele>39.799999237061</ele>
        <time>2025-08-13T07:36:46.000Z</time>
      </trkpt>
      <trkpt lat="43.47157" lon="-1.03476">
        <ele>40</ele>
        <time>2025-08-13T07:36:52.000Z</time>
      </trkpt>
      <trkpt lat="43.47184" lon="-1.03508">
        <ele>39.799999237061</ele>
        <time>2025-08-13T07:37:00.000Z</time>
      </trkpt>
      <trkpt lat="43.47211" lon="-1.03542">
        <ele>39</ele>
        <time>2025-08-13T07:37:07.000Z</time>
      </trkpt>
      <trkpt lat="43.47223" lon="-1.03557">
        <ele>38.799999237061</ele>
        <time>2025-08-13T07:37:10.000Z</time>
      </trkpt>
      <trkpt lat="43.47234" lon="-1.03574">
        <ele>38.400001525879</ele>
        <time>2025-08-13T07:37:13.000Z</time>
      </trkpt>
      <trkpt lat="43.47237" lon="-1.0358">
        <ele>38.400001525879</ele>
        <time>2025-08-13T07:37:14.000Z</time>
      </trkpt>
      <trkpt lat="43.47239" lon="-1.03587">
        <ele>38.200000762939</ele>
        <time>2025-08-13T07:37:15.000Z</time>
      </trkpt>
      <trkpt lat="43.47241" lon="-1.03603">
        <ele>38</ele>
        <time>2025-08-13T07:37:17.000Z</time>
      </trkpt>
      <trkpt lat="43.47241" lon="-1.03611">
        <ele>38</ele>
        <time>2025-08-13T07:37:18.000Z</time>
      </trkpt>
      <trkpt lat="43.47243" lon="-1.03633">
        <ele>37.799999237061</ele>
        <time>2025-08-13T07:37:21.000Z</time>
      </trkpt>
      <trkpt lat="43.47247" lon="-1.0366">
        <ele>37.599998474121</ele>
        <time>2025-08-13T07:37:25.000Z</time>
      </trkpt>
      <trkpt lat="43.47259" lon="-1.03708">
        <ele>38</ele>
        <time>2025-08-13T07:37:33.000Z</time>
      </trkpt>
      <trkpt lat="43.47269" lon="-1.03747">
        <ele>38.799999237061</ele>
        <time>2025-08-13T07:37:40.000Z</time>
      </trkpt>
      <trkpt lat="43.47271" lon="-1.03752">
        <ele>38.799999237061</ele>
        <time>2025-08-13T07:37:41.000Z</time>
      </trkpt>
      <trkpt lat="43.47274" lon="-1.03763">
        <ele>39.200000762939</ele>
        <time>2025-08-13T07:37:43.000Z</time>
      </trkpt>
      <trkpt lat="43.47286" lon="-1.03802">
        <ele>39.799999237061</ele>
        <time>2025-08-13T07:37:50.000Z</time>
      </trkpt>
      <trkpt lat="43.47289" lon="-1.03812">
        <ele>40</ele>
        <time>2025-08-13T07:37:52.000Z</time>
      </trkpt>
      <trkpt lat="43.47294" lon="-1.03833">
        <ele>40.400001525879</ele>
        <time>2025-08-13T07:37:56.000Z</time>
      </trkpt>
      <trkpt lat="43.47298" lon="-1.03848">
        <ele>40.599998474121</ele>
        <time>2025-08-13T07:37:59.000Z</time>
      </trkpt>
      <trkpt lat="43.47305" lon="-1.03863">
        <ele>41</ele>
        <time>2025-08-13T07:38:02.000Z</time>
      </trkpt>
      <trkpt lat="43.47315" lon="-1.03879">
        <ele>41.200000762939</ele>
        <time>2025-08-13T07:38:06.000Z</time>
      </trkpt>
      <trkpt lat="43.47334" lon="-1.0391">
        <ele>42</ele>
        <time>2025-08-13T07:38:14.000Z</time>
      </trkpt>
      <trkpt lat="43.47351" lon="-1.03939">
        <ele>42.599998474121</ele>
        <time>2025-08-13T07:38:21.000Z</time>
      </trkpt>
      <trkpt lat="43.47371" lon="-1.03972">
        <ele>42.799999237061</ele>
        <time>2025-08-13T07:38:29.000Z</time>
      </trkpt>
      <trkpt lat="43.474" lon="-1.04017">
        <ele>42.799999237061</ele>
        <time>2025-08-13T07:38:39.000Z</time>
      </trkpt>
      <trkpt lat="43.47427" lon="-1.04062">
        <ele>42.400001525879</ele>
        <time>2025-08-13T07:38:47.000Z</time>
      </trkpt>
      <trkpt lat="43.47455" lon="-1.04107">
        <ele>41.400001525879</ele>
        <time>2025-08-13T07:38:54.000Z</time>
      </trkpt>
      <trkpt lat="43.47462" lon="-1.04121">
        <ele>41</ele>
        <time>2025-08-13T07:38:56.000Z</time>
      </trkpt>
      <trkpt lat="43.47472" lon="-1.04143">
        <ele>40.400001525879</ele>
        <time>2025-08-13T07:38:59.000Z</time>
      </trkpt>
      <trkpt lat="43.47477" lon="-1.04159">
        <ele>40.200000762939</ele>
        <time>2025-08-13T07:39:01.000Z</time>
      </trkpt>
      <trkpt lat="43.47479" lon="-1.04175">
        <ele>40</ele>
        <time>2025-08-13T07:39:03.000Z</time>
      </trkpt>
      <trkpt lat="43.4748" lon="-1.042">
        <ele>39.400001525879</ele>
        <time>2025-08-13T07:39:06.000Z</time>
      </trkpt>
      <trkpt lat="43.47476" lon="-1.04241">
        <ele>38.799999237061</ele>
        <time>2025-08-13T07:39:11.000Z</time>
      </trkpt>
      <trkpt lat="43.47477" lon="-1.04266">
        <ele>38.599998474121</ele>
        <time>2025-08-13T07:39:14.000Z</time>
      </trkpt>
      <trkpt lat="43.47477" lon="-1.04321">
        <ele>38.200000762939</ele>
        <time>2025-08-13T07:39:21.000Z</time>
      </trkpt>
      <trkpt lat="43.47472" lon="-1.04373">
        <ele>38</ele>
        <time>2025-08-13T07:39:28.000Z</time>
      </trkpt>
      <trkpt lat="43.47472" lon="-1.04381">
        <ele>38</ele>
        <time>2025-08-13T07:39:29.000Z</time>
      </trkpt>
      <trkpt lat="43.47477" lon="-1.04414">
        <ele>38</ele>
        <time>2025-08-13T07:39:34.000Z</time>
      </trkpt>
      <trkpt lat="43.47488" lon="-1.04462">
        <ele>38.400001525879</ele>
        <time>2025-08-13T07:39:42.000Z</time>
      </trkpt>
      <trkpt lat="43.47503" lon="-1.04525">
        <ele>38.799999237061</ele>
        <time>2025-08-13T07:39:52.000Z</time>
      </trkpt>
      <trkpt lat="43.47517" lon="-1.04578">
        <ele>38.200000762939</ele>
        <time>2025-08-13T07:40:01.000Z</time>
      </trkpt>
      <trkpt lat="43.4753" lon="-1.04627">
        <ele>37.799999237061</ele>
        <time>2025-08-13T07:40:09.000Z</time>
      </trkpt>
      <trkpt lat="43.47548" lon="-1.04696">
        <ele>37.599998474121</ele>
        <time>2025-08-13T07:40:20.000Z</time>
      </trkpt>
      <trkpt lat="43.47569" lon="-1.04752">
        <ele>37.200000762939</ele>
        <time>2025-08-13T07:40:29.000Z</time>
      </trkpt>
      <trkpt lat="43.47577" lon="-1.04772">
        <ele>36.799999237061</ele>
        <time>2025-08-13T07:40:32.000Z</time>
      </trkpt>
      <trkpt lat="43.47596" lon="-1.04807">
        <ele>36</ele>
        <time>2025-08-13T07:40:37.000Z</time>
      </trkpt>
      <trkpt lat="43.47603" lon="-1.04821">
        <ele>35.599998474121</ele>
        <time>2025-08-13T07:40:39.000Z</time>
      </trkpt>
      <trkpt lat="43.47622" lon="-1.0485">
        <ele>34.599998474121</ele>
        <time>2025-08-13T07:40:44.000Z</time>
      </trkpt>
      <trkpt lat="43.4763" lon="-1.04859">
        <ele>34.400001525879</ele>
        <time>2025-08-13T07:40:46.000Z</time>
      </trkpt>
      <trkpt lat="43.47642" lon="-1.0487">
        <ele>34.200000762939</ele>
        <time>2025-08-13T07:40:49.000Z</time>
      </trkpt>
      <trkpt lat="43.47657" lon="-1.04885">
        <ele>34.200000762939</ele>
        <time>2025-08-13T07:40:53.000Z</time>
      </trkpt>
      <trkpt lat="43.47668" lon="-1.04899">
        <ele>34.200000762939</ele>
        <time>2025-08-13T07:40:56.000Z</time>
      </trkpt>
      <trkpt lat="43.47675" lon="-1.0491">
        <ele>34.200000762939</ele>
        <time>2025-08-13T07:40:58.000Z</time>
      </trkpt>
      <trkpt lat="43.4768" lon="-1.04922">
        <ele>34.200000762939</ele>
        <time>2025-08-13T07:41:00.000Z</time>
      </trkpt>
      <trkpt lat="43.47682" lon="-1.04929">
        <ele>34</ele>
        <time>2025-08-13T07:41:01.000Z</time>
      </trkpt>
      <trkpt lat="43.4769" lon="-1.04964">
        <ele>33.799999237061</ele>
        <time>2025-08-13T07:41:06.000Z</time>
      </trkpt>
      <trkpt lat="43.47692" lon="-1.0497">
        <ele>33.599998474121</ele>
        <time>2025-08-13T07:41:07.000Z</time>
      </trkpt>
      <trkpt lat="43.47701" lon="-1.05003">
        <ele>33.400001525879</ele>
        <time>2025-08-13T07:41:12.000Z</time>
      </trkpt>
      <trkpt lat="43.47709" lon="-1.0503">
        <ele>33.400001525879</ele>
        <time>2025-08-13T07:41:16.000Z</time>
      </trkpt>
      <trkpt lat="43.47728" lon="-1.05096">
        <ele>33.400001525879</ele>
        <time>2025-08-13T07:41:26.000Z</time>
      </trkpt>
      <trkpt lat="43.47744" lon="-1.05149">
        <ele>33.599998474121</ele>
        <time>2025-08-13T07:41:35.000Z</time>
      </trkpt>
      <trkpt lat="43.47753" lon="-1.05181">
        <ele>33.799999237061</ele>
        <time>2025-08-13T07:41:41.000Z</time>
      </trkpt>
      <trkpt lat="43.47757" lon="-1.05197">
        <ele>34.200000762939</ele>
        <time>2025-08-13T07:41:44.000Z</time>
      </trkpt>
      <trkpt lat="43.47758" lon="-1.05212">
        <ele>34.599998474121</ele>
        <time>2025-08-13T07:41:47.000Z</time>
      </trkpt>
      <trkpt lat="43.47758" lon="-1.05252">
        <ele>35.400001525879</ele>
        <time>2025-08-13T07:41:55.000Z</time>
      </trkpt>
      <trkpt lat="43.47759" lon="-1.05263">
        <ele>35.799999237061</ele>
        <time>2025-08-13T07:41:58.000Z</time>
      </trkpt>
      <trkpt lat="43.47761" lon="-1.0527">
        <ele>36.200000762939</ele>
        <time>2025-08-13T07:42:01.000Z</time>
      </trkpt>
      <trkpt lat="43.4776" lon="-1.05271">
        <ele>36.599998474121</ele>
        <time>2025-08-13T07:42:04.000Z</time>
      </trkpt>
      <trkpt lat="43.4776" lon="-1.05271">
        <ele>36.799999237061</ele>
        <time>2025-08-13T07:42:05.000Z</time>
      </trkpt>
      <trkpt lat="43.4776" lon="-1.05271">
        <ele>36.799999237061</ele>
        <time>2025-08-13T07:42:06.000Z</time>
      </trkpt>
      <trkpt lat="43.47761" lon="-1.0528">
        <ele>37.599998474121</ele>
        <time>2025-08-13T07:45:36.000Z</time>
      </trkpt>
      <trkpt lat="43.47763" lon="-1.05285">
        <ele>37.599998474121</ele>
        <time>2025-08-13T07:45:38.000Z</time>
      </trkpt>
      <trkpt lat="43.47764" lon="-1.0529">
        <ele>37.599998474121</ele>
        <time>2025-08-13T07:45:40.000Z</time>
      </trkpt>
      <trkpt lat="43.47765" lon="-1.05297">
        <ele>38</ele>
        <time>2025-08-13T07:45:43.000Z</time>
      </trkpt>
      <trkpt lat="43.47769" lon="-1.05314">
        <ele>39</ele>
        <time>2025-08-13T07:45:50.000Z</time>
      </trkpt>
      <trkpt lat="43.4777" lon="-1.05316">
        <ele>39</ele>
        <time>2025-08-13T07:45:51.000Z</time>
      </trkpt>
      <trkpt lat="43.47774" lon="-1.05324">
        <ele>39.799999237061</ele>
        <time>2025-08-13T07:45:56.000Z</time>
      </trkpt>
      <trkpt lat="43.47774" lon="-1.05326">
        <ele>40</ele>
        <time>2025-08-13T07:45:57.000Z</time>
      </trkpt>
      <trkpt lat="43.47775" lon="-1.05331">
        <ele>40.200000762939</ele>
        <time>2025-08-13T07:45:59.000Z</time>
      </trkpt>
      <trkpt lat="43.47776" lon="-1.05333">
        <ele>40.200000762939</ele>
        <time>2025-08-13T07:46:00.000Z</time>
      </trkpt>
      <trkpt lat="43.47777" lon="-1.05337">
        <ele>40.400001525879</ele>
        <time>2025-08-13T07:46:02.000Z</time>
      </trkpt>
      <trkpt lat="43.47778" lon="-1.05341">
        <ele>40.599998474121</ele>
        <time>2025-08-13T07:46:04.000Z</time>
      </trkpt>
      <trkpt lat="43.47781" lon="-1.0535">
        <ele>40.799999237061</ele>
        <time>2025-08-13T07:46:08.000Z</time>
      </trkpt>
      <trkpt lat="43.47782" lon="-1.05352">
        <ele>41</ele>
        <time>2025-08-13T07:46:09.000Z</time>
      </trkpt>
      <trkpt lat="43.47783" lon="-1.0536">
        <ele>41.200000762939</ele>
        <time>2025-08-13T07:46:12.000Z</time>
      </trkpt>
      <trkpt lat="43.47784" lon="-1.05363">
        <ele>41.200000762939</ele>
        <time>2025-08-13T07:46:13.000Z</time>
      </trkpt>
      <trkpt lat="43.47791" lon="-1.05389">
        <ele>41.799999237061</ele>
        <time>2025-08-13T07:46:21.000Z</time>
      </trkpt>
      <trkpt lat="43.47799" lon="-1.05414">
        <ele>42.200000762939</ele>
        <time>2025-08-13T07:46:29.000Z</time>
      </trkpt>
      <trkpt lat="43.47803" lon="-1.05435">
        <ele>42.400001525879</ele>
        <time>2025-08-13T07:46:35.000Z</time>
      </trkpt>
      <trkpt lat="43.47804" lon="-1.0546">
        <ele>42.599998474121</ele>
        <time>2025-08-13T07:46:42.000Z</time>
      </trkpt>
      <trkpt lat="43.47803" lon="-1.05489">
        <ele>43</ele>
        <time>2025-08-13T07:46:49.000Z</time>
      </trkpt>
      <trkpt lat="43.47803" lon="-1.05506">
        <ele>43.200000762939</ele>
        <time>2025-08-13T07:46:53.000Z</time>
      </trkpt>
      <trkpt lat="43.47803" lon="-1.05523">
        <ele>43.599998474121</ele>
        <time>2025-08-13T07:46:57.000Z</time>
      </trkpt>
      <trkpt lat="43.47809" lon="-1.05562">
        <ele>44.200000762939</ele>
        <time>2025-08-13T07:47:05.000Z</time>
      </trkpt>
      <trkpt lat="43.4782" lon="-1.05614">
        <ele>44.599998474121</ele>
        <time>2025-08-13T07:47:16.000Z</time>
      </trkpt>
      <trkpt lat="43.47823" lon="-1.05642">
        <ele>45.400001525879</ele>
        <time>2025-08-13T07:47:23.000Z</time>
      </trkpt>
      <trkpt lat="43.47823" lon="-1.0565">
        <ele>45.599998474121</ele>
        <time>2025-08-13T07:47:25.000Z</time>
      </trkpt>
      <trkpt lat="43.47824" lon="-1.05674">
        <ele>46.400001525879</ele>
        <time>2025-08-13T07:47:32.000Z</time>
      </trkpt>
      <trkpt lat="43.47824" lon="-1.05681">
        <ele>46.799999237061</ele>
        <time>2025-08-13T07:47:34.000Z</time>
      </trkpt>
      <trkpt lat="43.47824" lon="-1.05703">
        <ele>47.400001525879</ele>
        <time>2025-08-13T07:47:40.000Z</time>
      </trkpt>
      <trkpt lat="43.47825" lon="-1.0571">
        <ele>47.599998474121</ele>
        <time>2025-08-13T07:47:42.000Z</time>
      </trkpt>
      <trkpt lat="43.47827" lon="-1.05743">
        <ele>47.799999237061</ele>
        <time>2025-08-13T07:47:50.000Z</time>
      </trkpt>
      <trkpt lat="43.47827" lon="-1.05784">
        <ele>47.400001525879</ele>
        <time>2025-08-13T07:47:59.000Z</time>
      </trkpt>
      <trkpt lat="43.47828" lon="-1.05827">
        <ele>47.599998474121</ele>
        <time>2025-08-13T07:48:07.000Z</time>
      </trkpt>
      <trkpt lat="43.47827" lon="-1.05855">
        <ele>47.200000762939</ele>
        <time>2025-08-13T07:48:13.000Z</time>
      </trkpt>
      <trkpt lat="43.47826" lon="-1.05877">
        <ele>47.200000762939</ele>
        <time>2025-08-13T07:48:20.000Z</time>
      </trkpt>
      <trkpt lat="43.47823" lon="-1.05893">
        <ele>47</ele>
        <time>2025-08-13T07:48:26.000Z</time>
      </trkpt>
      <trkpt lat="43.4782" lon="-1.05911">
        <ele>46.599998474121</ele>
        <time>2025-08-13T07:48:34.000Z</time>
      </trkpt>
      <trkpt lat="43.47817" lon="-1.05923">
        <ele>46.400001525879</ele>
        <time>2025-08-13T07:48:41.000Z</time>
      </trkpt>
      <trkpt lat="43.47815" lon="-1.05936">
        <ele>46.200000762939</ele>
        <time>2025-08-13T07:48:46.000Z</time>
      </trkpt>
      <trkpt lat="43.47815" lon="-1.05957">
        <ele>45</ele>
        <time>2025-08-13T07:48:52.000Z</time>
      </trkpt>
      <trkpt lat="43.47816" lon="-1.05961">
        <ele>44.799999237061</ele>
        <time>2025-08-13T07:48:53.000Z</time>
      </trkpt>
      <trkpt lat="43.47818" lon="-1.05967">
        <ele>44</ele>
        <time>2025-08-13T07:48:56.000Z</time>
      </trkpt>
      <trkpt lat="43.47818" lon="-1.05969">
        <ele>43.799999237061</ele>
        <time>2025-08-13T07:48:57.000Z</time>
      </trkpt>
      <trkpt lat="43.47818" lon="-1.05971">
        <ele>43.599998474121</ele>
        <time>2025-08-13T07:48:58.000Z</time>
      </trkpt>
      <trkpt lat="43.47822" lon="-1.05986">
        <ele>43.400001525879</ele>
        <time>2025-08-13T07:49:04.000Z</time>
      </trkpt>
      <trkpt lat="43.47821" lon="-1.05989">
        <ele>43.400001525879</ele>
        <time>2025-08-13T07:49:05.000Z</time>
      </trkpt>
      <trkpt lat="43.4782" lon="-1.0599">
        <ele>43.200000762939</ele>
        <time>2025-08-13T07:49:06.000Z</time>
      </trkpt>
      <trkpt lat="43.47819" lon="-1.0599">
        <ele>43.200000762939</ele>
        <time>2025-08-13T07:49:09.000Z</time>
      </trkpt>
      <trkpt lat="43.47833" lon="-1.06018">
        <ele>43.400001525879</ele>
        <time>2025-08-13T07:49:44.000Z</time>
      </trkpt>
      <trkpt lat="43.47834" lon="-1.06027">
        <ele>43.799999237061</ele>
        <time>2025-08-13T07:49:47.000Z</time>
      </trkpt>
      <trkpt lat="43.47836" lon="-1.06034">
        <ele>44.799999237061</ele>
        <time>2025-08-13T07:49:50.000Z</time>
      </trkpt>
      <trkpt lat="43.4784" lon="-1.06039">
        <ele>45.400001525879</ele>
        <time>2025-08-13T07:49:53.000Z</time>
      </trkpt>
      <trkpt lat="43.47841" lon="-1.06041">
        <ele>45.400001525879</ele>
        <time>2025-08-13T07:49:54.000Z</time>
      </trkpt>
      <trkpt lat="43.47841" lon="-1.06047">
        <ele>46</ele>
        <time>2025-08-13T07:49:56.000Z</time>
      </trkpt>
      <trkpt lat="43.47844" lon="-1.06053">
        <ele>46.799999237061</ele>
        <time>2025-08-13T07:49:58.000Z</time>
      </trkpt>
      <trkpt lat="43.47845" lon="-1.06058">
        <ele>47</ele>
        <time>2025-08-13T07:50:00.000Z</time>
      </trkpt>
      <trkpt lat="43.47849" lon="-1.06071">
        <ele>47.599998474121</ele>
        <time>2025-08-13T07:50:05.000Z</time>
      </trkpt>
      <trkpt lat="43.47851" lon="-1.06075">
        <ele>48</ele>
        <time>2025-08-13T07:50:07.000Z</time>
      </trkpt>
      <trkpt lat="43.47852" lon="-1.0608">
        <ele>48.400001525879</ele>
        <time>2025-08-13T07:50:10.000Z</time>
      </trkpt>
      <trkpt lat="43.47862" lon="-1.06104">
        <ele>48.400001525879</ele>
        <time>2025-08-13T07:50:19.000Z</time>
      </trkpt>
      <trkpt lat="43.47873" lon="-1.06125">
        <ele>48.599998474121</ele>
        <time>2025-08-13T07:50:26.000Z</time>
      </trkpt>
      <trkpt lat="43.47891" lon="-1.06163">
        <ele>48.599998474121</ele>
        <time>2025-08-13T07:50:37.000Z</time>
      </trkpt>
      <trkpt lat="43.47906" lon="-1.06197">
        <ele>48.599998474121</ele>
        <time>2025-08-13T07:50:46.000Z</time>
      </trkpt>
      <trkpt lat="43.47912" lon="-1.06215">
        <ele>48.799999237061</ele>
        <time>2025-08-13T07:50:51.000Z</time>
      </trkpt>
      <trkpt lat="43.47922" lon="-1.06253">
        <ele>49</ele>
        <time>2025-08-13T07:51:00.000Z</time>
      </trkpt>
      <trkpt lat="43.47927" lon="-1.06279">
        <ele>48.799999237061</ele>
        <time>2025-08-13T07:51:06.000Z</time>
      </trkpt>
      <trkpt lat="43.47928" lon="-1.06291">
        <ele>48.799999237061</ele>
        <time>2025-08-13T07:51:09.000Z</time>
      </trkpt>
      <trkpt lat="43.47923" lon="-1.06298">
        <ele>48.799999237061</ele>
        <time>2025-08-13T07:51:11.000Z</time>
      </trkpt>
      <trkpt lat="43.47911" lon="-1.06299">
        <ele>48.599998474121</ele>
        <time>2025-08-13T07:51:15.000Z</time>
      </trkpt>
      <trkpt lat="43.47886" lon="-1.06291">
        <ele>48.799999237061</ele>
        <time>2025-08-13T07:51:23.000Z</time>
      </trkpt>
      <trkpt lat="43.47869" lon="-1.06288">
        <ele>49</ele>
        <time>2025-08-13T07:51:28.000Z</time>
      </trkpt>
      <trkpt lat="43.47847" lon="-1.06284">
        <ele>49.400001525879</ele>
        <time>2025-08-13T07:51:34.000Z</time>
      </trkpt>
      <trkpt lat="43.47816" lon="-1.06285">
        <ele>49.599998474121</ele>
        <time>2025-08-13T07:51:43.000Z</time>
      </trkpt>
      <trkpt lat="43.4779" lon="-1.06291">
        <ele>49.799999237061</ele>
        <time>2025-08-13T07:51:50.000Z</time>
      </trkpt>
      <trkpt lat="43.47755" lon="-1.06302">
        <ele>49.799999237061</ele>
        <time>2025-08-13T07:52:00.000Z</time>
      </trkpt>
      <trkpt lat="43.47723" lon="-1.06313">
        <ele>50</ele>
        <time>2025-08-13T07:52:09.000Z</time>
      </trkpt>
      <trkpt lat="43.4772" lon="-1.06314">
        <ele>50</ele>
        <time>2025-08-13T07:52:10.000Z</time>
      </trkpt>
      <trkpt lat="43.477" lon="-1.0632">
        <ele>50.400001525879</ele>
        <time>2025-08-13T07:52:16.000Z</time>
      </trkpt>
      <trkpt lat="43.47665" lon="-1.06329">
        <ele>50.599998474121</ele>
        <time>2025-08-13T07:52:26.000Z</time>
      </trkpt>
      <trkpt lat="43.47635" lon="-1.06338">
        <ele>51</ele>
        <time>2025-08-13T07:52:35.000Z</time>
      </trkpt>
      <trkpt lat="43.47628" lon="-1.06339">
        <ele>51.200000762939</ele>
        <time>2025-08-13T07:52:37.000Z</time>
      </trkpt>
      <trkpt lat="43.47598" lon="-1.06347">
        <ele>51.799999237061</ele>
        <time>2025-08-13T07:52:47.000Z</time>
      </trkpt>
      <trkpt lat="43.4759" lon="-1.0635">
        <ele>52.200000762939</ele>
        <time>2025-08-13T07:52:50.000Z</time>
      </trkpt>
      <trkpt lat="43.47576" lon="-1.06353">
        <ele>52.599998474121</ele>
        <time>2025-08-13T07:52:55.000Z</time>
      </trkpt>
      <trkpt lat="43.47558" lon="-1.06361">
        <ele>53.200000762939</ele>
        <time>2025-08-13T07:53:02.000Z</time>
      </trkpt>
      <trkpt lat="43.47548" lon="-1.06374">
        <ele>53.599998474121</ele>
        <time>2025-08-13T07:53:08.000Z</time>
      </trkpt>
      <trkpt lat="43.47548" lon="-1.06392">
        <ele>54.200000762939</ele>
        <time>2025-08-13T07:53:14.000Z</time>
      </trkpt>
      <trkpt lat="43.47548" lon="-1.06395">
        <ele>54.400001525879</ele>
        <time>2025-08-13T07:53:15.000Z</time>
      </trkpt>
      <trkpt lat="43.47549" lon="-1.0641">
        <ele>55.200000762939</ele>
        <time>2025-08-13T07:53:21.000Z</time>
      </trkpt>
      <trkpt lat="43.47549" lon="-1.06413">
        <ele>55.400001525879</ele>
        <time>2025-08-13T07:53:22.000Z</time>
      </trkpt>
      <trkpt lat="43.47549" lon="-1.06429">
        <ele>56.200000762939</ele>
        <time>2025-08-13T07:53:28.000Z</time>
      </trkpt>
      <trkpt lat="43.47549" lon="-1.06434">
        <ele>56.400001525879</ele>
        <time>2025-08-13T07:53:30.000Z</time>
      </trkpt>
      <trkpt lat="43.47552" lon="-1.06456">
        <ele>57.400001525879</ele>
        <time>2025-08-13T07:53:37.000Z</time>
      </trkpt>
      <trkpt lat="43.47552" lon="-1.06483">
        <ele>57.799999237061</ele>
        <time>2025-08-13T07:53:45.000Z</time>
      </trkpt>
      <trkpt lat="43.47552" lon="-1.06486">
        <ele>57.799999237061</ele>
        <time>2025-08-13T07:53:46.000Z</time>
      </trkpt>
      <trkpt lat="43.47556" lon="-1.06497">
        <ele>57.799999237061</ele>
        <time>2025-08-13T07:53:49.000Z</time>
      </trkpt>
      <trkpt lat="43.47577" lon="-1.06514">
        <ele>57.599998474121</ele>
        <time>2025-08-13T07:53:54.000Z</time>
      </trkpt>
      <trkpt lat="43.47606" lon="-1.06537">
        <ele>56.799999237061</ele>
        <time>2025-08-13T07:53:59.000Z</time>
      </trkpt>
      <trkpt lat="43.47625" lon="-1.06554">
        <ele>55.599998474121</ele>
        <time>2025-08-13T07:54:02.000Z</time>
      </trkpt>
      <trkpt lat="43.47644" lon="-1.06572">
        <ele>54.400001525879</ele>
        <time>2025-08-13T07:54:05.000Z</time>
      </trkpt>
      <trkpt lat="43.47651" lon="-1.06578">
        <ele>54</ele>
        <time>2025-08-13T07:54:06.000Z</time>
      </trkpt>
      <trkpt lat="43.4767" lon="-1.06596">
        <ele>53</ele>
        <time>2025-08-13T07:54:09.000Z</time>
      </trkpt>
      <trkpt lat="43.47701" lon="-1.06625">
        <ele>52</ele>
        <time>2025-08-13T07:54:14.000Z</time>
      </trkpt>
      <trkpt lat="43.47713" lon="-1.06638">
        <ele>51.599998474121</ele>
        <time>2025-08-13T07:54:16.000Z</time>
      </trkpt>
      <trkpt lat="43.47729" lon="-1.06657">
        <ele>50.599998474121</ele>
        <time>2025-08-13T07:54:19.000Z</time>
      </trkpt>
      <trkpt lat="43.47741" lon="-1.06678">
        <ele>50</ele>
        <time>2025-08-13T07:54:22.000Z</time>
      </trkpt>
      <trkpt lat="43.47748" lon="-1.06692">
        <ele>49.599998474121</ele>
        <time>2025-08-13T07:54:24.000Z</time>
      </trkpt>
      <trkpt lat="43.4776" lon="-1.06718">
        <ele>49</ele>
        <time>2025-08-13T07:54:28.000Z</time>
      </trkpt>
      <trkpt lat="43.47782" lon="-1.06754">
        <ele>48.799999237061</ele>
        <time>2025-08-13T07:54:35.000Z</time>
      </trkpt>
      <trkpt lat="43.47805" lon="-1.06782">
        <ele>48.400001525879</ele>
        <time>2025-08-13T07:54:42.000Z</time>
      </trkpt>
      <trkpt lat="43.47836" lon="-1.06827">
        <ele>48</ele>
        <time>2025-08-13T07:54:52.000Z</time>
      </trkpt>
      <trkpt lat="43.47855" lon="-1.06857">
        <ele>47.599998474121</ele>
        <time>2025-08-13T07:54:58.000Z</time>
      </trkpt>
      <trkpt lat="43.47858" lon="-1.06863">
        <ele>47.400001525879</ele>
        <time>2025-08-13T07:54:59.000Z</time>
      </trkpt>
      <trkpt lat="43.47861" lon="-1.06869">
        <ele>47.400001525879</ele>
        <time>2025-08-13T07:55:00.000Z</time>
      </trkpt>
      <trkpt lat="43.47872" lon="-1.06903">
        <ele>47.200000762939</ele>
        <time>2025-08-13T07:55:06.000Z</time>
      </trkpt>
      <trkpt lat="43.47883" lon="-1.06934">
        <ele>47.799999237061</ele>
        <time>2025-08-13T07:55:13.000Z</time>
      </trkpt>
      <trkpt lat="43.47897" lon="-1.06957">
        <ele>48.200000762939</ele>
        <time>2025-08-13T07:55:19.000Z</time>
      </trkpt>
      <trkpt lat="43.479" lon="-1.0696">
        <ele>48.400001525879</ele>
        <time>2025-08-13T07:55:20.000Z</time>
      </trkpt>
      <trkpt lat="43.47928" lon="-1.06994">
        <ele>48.799999237061</ele>
        <time>2025-08-13T07:55:30.000Z</time>
      </trkpt>
      <trkpt lat="43.47955" lon="-1.07027">
        <ele>49</ele>
        <time>2025-08-13T07:55:39.000Z</time>
      </trkpt>
      <trkpt lat="43.47981" lon="-1.07057">
        <ele>49</ele>
        <time>2025-08-13T07:55:48.000Z</time>
      </trkpt>
      <trkpt lat="43.47994" lon="-1.07074">
        <ele>49.200000762939</ele>
        <time>2025-08-13T07:55:53.000Z</time>
      </trkpt>
      <trkpt lat="43.47999" lon="-1.07097">
        <ele>49.200000762939</ele>
        <time>2025-08-13T07:55:58.000Z</time>
      </trkpt>
      <trkpt lat="43.48002" lon="-1.07118">
        <ele>49.400001525879</ele>
        <time>2025-08-13T07:56:02.000Z</time>
      </trkpt>
      <trkpt lat="43.48005" lon="-1.07139">
        <ele>49.599998474121</ele>
        <time>2025-08-13T07:56:06.000Z</time>
      </trkpt>
      <trkpt lat="43.48014" lon="-1.07197">
        <ele>50</ele>
        <time>2025-08-13T07:56:18.000Z</time>
      </trkpt>
      <trkpt lat="43.48019" lon="-1.07232">
        <ele>50.400001525879</ele>
        <time>2025-08-13T07:56:26.000Z</time>
      </trkpt>
      <trkpt lat="43.48019" lon="-1.07235">
        <ele>50.599998474121</ele>
        <time>2025-08-13T07:56:27.000Z</time>
      </trkpt>
      <trkpt lat="43.48022" lon="-1.07256">
        <ele>51.400001525879</ele>
        <time>2025-08-13T07:56:34.000Z</time>
      </trkpt>
      <trkpt lat="43.48023" lon="-1.07258">
        <ele>51.599998474121</ele>
        <time>2025-08-13T07:56:35.000Z</time>
      </trkpt>
      <trkpt lat="43.48025" lon="-1.07276">
        <ele>52.400001525879</ele>
        <time>2025-08-13T07:56:42.000Z</time>
      </trkpt>
      <trkpt lat="43.48026" lon="-1.0728">
        <ele>52.599998474121</ele>
        <time>2025-08-13T07:56:44.000Z</time>
      </trkpt>
      <trkpt lat="43.48028" lon="-1.07294">
        <ele>53.400001525879</ele>
        <time>2025-08-13T07:56:50.000Z</time>
      </trkpt>
      <trkpt lat="43.48029" lon="-1.07298">
        <ele>53.799999237061</ele>
        <time>2025-08-13T07:56:52.000Z</time>
      </trkpt>
      <trkpt lat="43.4803" lon="-1.07305">
        <ele>54.400001525879</ele>
        <time>2025-08-13T07:56:56.000Z</time>
      </trkpt>
      <trkpt lat="43.4803" lon="-1.07309">
        <ele>54.799999237061</ele>
        <time>2025-08-13T07:56:58.000Z</time>
      </trkpt>
      <trkpt lat="43.4803" lon="-1.07319">
        <ele>55.799999237061</ele>
        <time>2025-08-13T07:57:03.000Z</time>
      </trkpt>
      <trkpt lat="43.4803" lon="-1.07322">
        <ele>55.799999237061</ele>
        <time>2025-08-13T07:57:04.000Z</time>
      </trkpt>
      <trkpt lat="43.4803" lon="-1.07324">
        <ele>56</ele>
        <time>2025-08-13T07:57:05.000Z</time>
      </trkpt>
      <trkpt lat="43.48031" lon="-1.07326">
        <ele>56.200000762939</ele>
        <time>2025-08-13T07:57:06.000Z</time>
      </trkpt>
      <trkpt lat="43.48033" lon="-1.0733">
        <ele>56.400001525879</ele>
        <time>2025-08-13T07:57:08.000Z</time>
      </trkpt>
      <trkpt lat="43.48032" lon="-1.07334">
        <ele>56.599998474121</ele>
        <time>2025-08-13T07:57:10.000Z</time>
      </trkpt>
      <trkpt lat="43.48033" lon="-1.07337">
        <ele>57</ele>
        <time>2025-08-13T07:57:12.000Z</time>
      </trkpt>
      <trkpt lat="43.48035" lon="-1.07339">
        <ele>57</ele>
        <time>2025-08-13T07:57:13.000Z</time>
      </trkpt>
      <trkpt lat="43.48034" lon="-1.07341">
        <ele>57.200000762939</ele>
        <time>2025-08-13T07:57:14.000Z</time>
      </trkpt>
      <trkpt lat="43.48034" lon="-1.07344">
        <ele>57.200000762939</ele>
        <time>2025-08-13T07:57:15.000Z</time>
      </trkpt>
      <trkpt lat="43.48034" lon="-1.07346">
        <ele>57.400001525879</ele>
        <time>2025-08-13T07:57:16.000Z</time>
      </trkpt>
      <trkpt lat="43.48036" lon="-1.07352">
        <ele>57.599998474121</ele>
        <time>2025-08-13T07:57:19.000Z</time>
      </trkpt>
      <trkpt lat="43.48036" lon="-1.07359">
        <ele>58.200000762939</ele>
        <time>2025-08-13T07:57:22.000Z</time>
      </trkpt>
      <trkpt lat="43.48037" lon="-1.0736">
        <ele>58.400001525879</ele>
        <time>2025-08-13T07:57:23.000Z</time>
      </trkpt>
      <trkpt lat="43.48038" lon="-1.07362">
        <ele>58.599998474121</ele>
        <time>2025-08-13T07:57:24.000Z</time>
      </trkpt>
      <trkpt lat="43.48038" lon="-1.07372">
        <ele>59</ele>
        <time>2025-08-13T07:57:28.000Z</time>
      </trkpt>
      <trkpt lat="43.4804" lon="-1.07379">
        <ele>59.400001525879</ele>
        <time>2025-08-13T07:57:31.000Z</time>
      </trkpt>
      <trkpt lat="43.48043" lon="-1.07385">
        <ele>59.799999237061</ele>
        <time>2025-08-13T07:57:34.000Z</time>
      </trkpt>
      <trkpt lat="43.48044" lon="-1.07393">
        <ele>60.400001525879</ele>
        <time>2025-08-13T07:57:37.000Z</time>
      </trkpt>
      <trkpt lat="43.48045" lon="-1.07395">
        <ele>60.599998474121</ele>
        <time>2025-08-13T07:57:38.000Z</time>
      </trkpt>
      <trkpt lat="43.48047" lon="-1.07396">
        <ele>60.599998474121</ele>
        <time>2025-08-13T07:57:39.000Z</time>
      </trkpt>
      <trkpt lat="43.48049" lon="-1.0741">
        <ele>61.200000762939</ele>
        <time>2025-08-13T07:57:44.000Z</time>
      </trkpt>
      <trkpt lat="43.48052" lon="-1.07417">
        <ele>61.599998474121</ele>
        <time>2025-08-13T07:57:47.000Z</time>
      </trkpt>
      <trkpt lat="43.48056" lon="-1.07426">
        <ele>62</ele>
        <time>2025-08-13T07:57:51.000Z</time>
      </trkpt>
      <trkpt lat="43.48061" lon="-1.07438">
        <ele>62.799999237061</ele>
        <time>2025-08-13T07:57:57.000Z</time>
      </trkpt>
      <trkpt lat="43.48068" lon="-1.07453">
        <ele>63.599998474121</ele>
        <time>2025-08-13T07:58:04.000Z</time>
      </trkpt>
      <trkpt lat="43.48069" lon="-1.07455">
        <ele>63.799999237061</ele>
        <time>2025-08-13T07:58:05.000Z</time>
      </trkpt>
      <trkpt lat="43.48073" lon="-1.07467">
        <ele>64.599998474121</ele>
        <time>2025-08-13T07:58:10.000Z</time>
      </trkpt>
      <trkpt lat="43.48074" lon="-1.07471">
        <ele>65</ele>
        <time>2025-08-13T07:58:12.000Z</time>
      </trkpt>
      <trkpt lat="43.4808" lon="-1.07479">
        <ele>65.599998474121</ele>
        <time>2025-08-13T07:58:16.000Z</time>
      </trkpt>
      <trkpt lat="43.48085" lon="-1.07491">
        <ele>66</ele>
        <time>2025-08-13T07:58:21.000Z</time>
      </trkpt>
      <trkpt lat="43.48088" lon="-1.07497">
        <ele>66.599998474121</ele>
        <time>2025-08-13T07:58:24.000Z</time>
      </trkpt>
      <trkpt lat="43.48095" lon="-1.07505">
        <ele>67.199996948242</ele>
        <time>2025-08-13T07:58:30.000Z</time>
      </trkpt>
      <trkpt lat="43.48096" lon="-1.07507">
        <ele>67.199996948242</ele>
        <time>2025-08-13T07:58:31.000Z</time>
      </trkpt>
      <trkpt lat="43.48096" lon="-1.07509">
        <ele>67.400001525879</ele>
        <time>2025-08-13T07:58:35.000Z</time>
      </trkpt>
      <trkpt lat="43.48101" lon="-1.07515">
        <ele>67.800003051758</ele>
        <time>2025-08-13T07:58:42.000Z</time>
      </trkpt>
      <trkpt lat="43.48103" lon="-1.07519">
        <ele>68</ele>
        <time>2025-08-13T07:58:45.000Z</time>
      </trkpt>
      <trkpt lat="43.48104" lon="-1.07522">
        <ele>68.199996948242</ele>
        <time>2025-08-13T07:58:47.000Z</time>
      </trkpt>
      <trkpt lat="43.48106" lon="-1.07525">
        <ele>68.199996948242</ele>
        <time>2025-08-13T07:58:49.000Z</time>
      </trkpt>
      <trkpt lat="43.48107" lon="-1.07527">
        <ele>68.400001525879</ele>
        <time>2025-08-13T07:58:51.000Z</time>
      </trkpt>
      <trkpt lat="43.48109" lon="-1.07528">
        <ele>68.800003051758</ele>
        <time>2025-08-13T07:58:53.000Z</time>
      </trkpt>
      <trkpt lat="43.4811" lon="-1.07529">
        <ele>69</ele>
        <time>2025-08-13T07:58:54.000Z</time>
      </trkpt>
      <trkpt lat="43.48112" lon="-1.07532">
        <ele>69.199996948242</ele>
        <time>2025-08-13T07:58:56.000Z</time>
      </trkpt>
      <trkpt lat="43.48114" lon="-1.07535">
        <ele>69.400001525879</ele>
        <time>2025-08-13T07:58:58.000Z</time>
      </trkpt>
      <trkpt lat="43.48117" lon="-1.07537">
        <ele>69.599998474121</ele>
        <time>2025-08-13T07:59:00.000Z</time>
      </trkpt>
      <trkpt lat="43.48122" lon="-1.07543">
        <ele>70.199996948242</ele>
        <time>2025-08-13T07:59:04.000Z</time>
      </trkpt>
      <trkpt lat="43.48127" lon="-1.0755">
        <ele>70.599998474121</ele>
        <time>2025-08-13T07:59:08.000Z</time>
      </trkpt>
      <trkpt lat="43.48139" lon="-1.07566">
        <ele>71.199996948242</ele>
        <time>2025-08-13T07:59:17.000Z</time>
      </trkpt>
      <trkpt lat="43.48142" lon="-1.07567">
        <ele>71.199996948242</ele>
        <time>2025-08-13T07:59:19.000Z</time>
      </trkpt>
      <trkpt lat="43.4815" lon="-1.07573">
        <ele>72</ele>
        <time>2025-08-13T07:59:24.000Z</time>
      </trkpt>
      <trkpt lat="43.48155" lon="-1.07577">
        <ele>72.400001525879</ele>
        <time>2025-08-13T07:59:27.000Z</time>
      </trkpt>
      <trkpt lat="43.48165" lon="-1.07586">
        <ele>72.800003051758</ele>
        <time>2025-08-13T07:59:34.000Z</time>
      </trkpt>
      <trkpt lat="43.48172" lon="-1.07594">
        <ele>73.400001525879</ele>
        <time>2025-08-13T07:59:40.000Z</time>
      </trkpt>
      <trkpt lat="43.48174" lon="-1.07596">
        <ele>73.599998474121</ele>
        <time>2025-08-13T07:59:42.000Z</time>
      </trkpt>
      <trkpt lat="43.48181" lon="-1.07607">
        <ele>74</ele>
        <time>2025-08-13T07:59:48.000Z</time>
      </trkpt>
      <trkpt lat="43.48184" lon="-1.07611">
        <ele>74.400001525879</ele>
        <time>2025-08-13T07:59:51.000Z</time>
      </trkpt>
      <trkpt lat="43.48185" lon="-1.07613">
        <ele>74.400001525879</ele>
        <time>2025-08-13T07:59:52.000Z</time>
      </trkpt>
      <trkpt lat="43.48186" lon="-1.07615">
        <ele>74.400001525879</ele>
        <time>2025-08-13T07:59:53.000Z</time>
      </trkpt>
      <trkpt lat="43.48195" lon="-1.07633">
        <ele>75.199996948242</ele>
        <time>2025-08-13T08:00:02.000Z</time>
      </trkpt>
      <trkpt lat="43.48198" lon="-1.07638">
        <ele>75.599998474121</ele>
        <time>2025-08-13T08:00:05.000Z</time>
      </trkpt>
      <trkpt lat="43.48201" lon="-1.07644">
        <ele>75.800003051758</ele>
        <time>2025-08-13T08:00:09.000Z</time>
      </trkpt>
      <trkpt lat="43.4821" lon="-1.07663">
        <ele>76.599998474121</ele>
        <time>2025-08-13T08:00:19.000Z</time>
      </trkpt>
      <trkpt lat="43.48212" lon="-1.07667">
        <ele>76.599998474121</ele>
        <time>2025-08-13T08:00:21.000Z</time>
      </trkpt>
      <trkpt lat="43.48218" lon="-1.07682">
        <ele>77</ele>
        <time>2025-08-13T08:00:28.000Z</time>
      </trkpt>
      <trkpt lat="43.48224" lon="-1.07697">
        <ele>77.599998474121</ele>
        <time>2025-08-13T08:00:35.000Z</time>
      </trkpt>
      <trkpt lat="43.48229" lon="-1.07712">
        <ele>78</ele>
        <time>2025-08-13T08:00:42.000Z</time>
      </trkpt>
      <trkpt lat="43.48236" lon="-1.07734">
        <ele>78.599998474121</ele>
        <time>2025-08-13T08:00:50.000Z</time>
      </trkpt>
      <trkpt lat="43.48238" lon="-1.07739">
        <ele>78.599998474121</ele>
        <time>2025-08-13T08:00:52.000Z</time>
      </trkpt>
      <trkpt lat="43.48244" lon="-1.0776">
        <ele>79</ele>
        <time>2025-08-13T08:01:00.000Z</time>
      </trkpt>
      <trkpt lat="43.48252" lon="-1.07784">
        <ele>79.599998474121</ele>
        <time>2025-08-13T08:01:09.000Z</time>
      </trkpt>
      <trkpt lat="43.48259" lon="-1.07809">
        <ele>80.199996948242</ele>
        <time>2025-08-13T08:01:18.000Z</time>
      </trkpt>
      <trkpt lat="43.48263" lon="-1.0782">
        <ele>80.800003051758</ele>
        <time>2025-08-13T08:01:22.000Z</time>
      </trkpt>
      <trkpt lat="43.48269" lon="-1.0784">
        <ele>81.199996948242</ele>
        <time>2025-08-13T08:01:29.000Z</time>
      </trkpt>
      <trkpt lat="43.48277" lon="-1.07863">
        <ele>81.800003051758</ele>
        <time>2025-08-13T08:01:38.000Z</time>
      </trkpt>
      <trkpt lat="43.48278" lon="-1.07865">
        <ele>81.800003051758</ele>
        <time>2025-08-13T08:01:39.000Z</time>
      </trkpt>
      <trkpt lat="43.48286" lon="-1.07884">
        <ele>82.599998474121</ele>
        <time>2025-08-13T08:01:47.000Z</time>
      </trkpt>
      <trkpt lat="43.48288" lon="-1.07889">
        <ele>82.800003051758</ele>
        <time>2025-08-13T08:01:49.000Z</time>
      </trkpt>
      <trkpt lat="43.48297" lon="-1.07905">
        <ele>83.400001525879</ele>
        <time>2025-08-13T08:01:56.000Z</time>
      </trkpt>
      <trkpt lat="43.48304" lon="-1.07924">
        <ele>83.599998474121</ele>
        <time>2025-08-13T08:02:03.000Z</time>
      </trkpt>
      <trkpt lat="43.48305" lon="-1.07927">
        <ele>83.599998474121</ele>
        <time>2025-08-13T08:02:04.000Z</time>
      </trkpt>
      <trkpt lat="43.48312" lon="-1.07945">
        <ele>83.800003051758</ele>
        <time>2025-08-13T08:02:11.000Z</time>
      </trkpt>
      <trkpt lat="43.48313" lon="-1.07951">
        <ele>83.800003051758</ele>
        <time>2025-08-13T08:02:13.000Z</time>
      </trkpt>
      <trkpt lat="43.48315" lon="-1.07969">
        <ele>84.599998474121</ele>
        <time>2025-08-13T08:02:19.000Z</time>
      </trkpt>
      <trkpt lat="43.48316" lon="-1.07981">
        <ele>84.800003051758</ele>
        <time>2025-08-13T08:02:23.000Z</time>
      </trkpt>
      <trkpt lat="43.48317" lon="-1.07992">
        <ele>85</ele>
        <time>2025-08-13T08:02:27.000Z</time>
      </trkpt>
      <trkpt lat="43.4832" lon="-1.08018">
        <ele>85.599998474121</ele>
        <time>2025-08-13T08:02:35.000Z</time>
      </trkpt>
      <trkpt lat="43.4832" lon="-1.08021">
        <ele>85.800003051758</ele>
        <time>2025-08-13T08:02:36.000Z</time>
      </trkpt>
      <trkpt lat="43.48324" lon="-1.08049">
        <ele>86</ele>
        <time>2025-08-13T08:02:45.000Z</time>
      </trkpt>
      <trkpt lat="43.48328" lon="-1.08079">
        <ele>86.199996948242</ele>
        <time>2025-08-13T08:02:54.000Z</time>
      </trkpt>
      <trkpt lat="43.48332" lon="-1.08102">
        <ele>86.400001525879</ele>
        <time>2025-08-13T08:03:01.000Z</time>
      </trkpt>
      <trkpt lat="43.48338" lon="-1.08142">
        <ele>86.800003051758</ele>
        <time>2025-08-13T08:03:11.000Z</time>
      </trkpt>
      <trkpt lat="43.48343" lon="-1.08178">
        <ele>86.400001525879</ele>
        <time>2025-08-13T08:03:19.000Z</time>
      </trkpt>
      <trkpt lat="43.48343" lon="-1.08203">
        <ele>85.800003051758</ele>
        <time>2025-08-13T08:03:25.000Z</time>
      </trkpt>
      <trkpt lat="43.48343" lon="-1.08203">
        <ele>85.599998474121</ele>
        <time>2025-08-13T08:03:28.000Z</time>
      </trkpt>
      <trkpt lat="43.48344" lon="-1.08208">
        <ele>85.400001525879</ele>
        <time>2025-08-13T08:03:33.000Z</time>
      </trkpt>
      <trkpt lat="43.48346" lon="-1.08223">
        <ele>85</ele>
        <time>2025-08-13T08:03:38.000Z</time>
      </trkpt>
      <trkpt lat="43.48347" lon="-1.08255">
        <ele>85</ele>
        <time>2025-08-13T08:03:46.000Z</time>
      </trkpt>
      <trkpt lat="43.4835" lon="-1.08279">
        <ele>84.800003051758</ele>
        <time>2025-08-13T08:03:51.000Z</time>
      </trkpt>
      <trkpt lat="43.48351" lon="-1.08301">
        <ele>84.800003051758</ele>
        <time>2025-08-13T08:03:55.000Z</time>
      </trkpt>
      <trkpt lat="43.48352" lon="-1.08323">
        <ele>84.599998474121</ele>
        <time>2025-08-13T08:03:59.000Z</time>
      </trkpt>
      <trkpt lat="43.48355" lon="-1.08365">
        <ele>84.400001525879</ele>
        <time>2025-08-13T08:04:07.000Z</time>
      </trkpt>
      <trkpt lat="43.48354" lon="-1.08405">
        <ele>84.599998474121</ele>
        <time>2025-08-13T08:04:14.000Z</time>
      </trkpt>
      <trkpt lat="43.48354" lon="-1.08447">
        <ele>84.400001525879</ele>
        <time>2025-08-13T08:04:21.000Z</time>
      </trkpt>
      <trkpt lat="43.48359" lon="-1.08487">
        <ele>84.400001525879</ele>
        <time>2025-08-13T08:04:29.000Z</time>
      </trkpt>
      <trkpt lat="43.48355" lon="-1.08502">
        <ele>84.800003051758</ele>
        <time>2025-08-13T08:04:33.000Z</time>
      </trkpt>
      <trkpt lat="43.48348" lon="-1.08522">
        <ele>85.400001525879</ele>
        <time>2025-08-13T08:04:39.000Z</time>
      </trkpt>
      <trkpt lat="43.48341" lon="-1.08539">
        <ele>86</ele>
        <time>2025-08-13T08:04:44.000Z</time>
      </trkpt>
      <trkpt lat="43.48336" lon="-1.08554">
        <ele>86.199996948242</ele>
        <time>2025-08-13T08:04:48.000Z</time>
      </trkpt>
      <trkpt lat="43.48328" lon="-1.08576">
        <ele>86.599998474121</ele>
        <time>2025-08-13T08:04:54.000Z</time>
      </trkpt>
      <trkpt lat="43.48313" lon="-1.08618">
        <ele>87</ele>
        <time>2025-08-13T08:05:04.000Z</time>
      </trkpt>
      <trkpt lat="43.4831" lon="-1.08628">
        <ele>87</ele>
        <time>2025-08-13T08:05:06.000Z</time>
      </trkpt>
      <trkpt lat="43.48299" lon="-1.08656">
        <ele>87</ele>
        <time>2025-08-13T08:05:12.000Z</time>
      </trkpt>
      <trkpt lat="43.48286" lon="-1.08694">
        <ele>87</ele>
        <time>2025-08-13T08:05:20.000Z</time>
      </trkpt>
      <trkpt lat="43.48272" lon="-1.08728">
        <ele>87.400001525879</ele>
        <time>2025-08-13T08:05:28.000Z</time>
      </trkpt>
      <trkpt lat="43.48255" lon="-1.08768">
        <ele>87.800003051758</ele>
        <time>2025-08-13T08:05:38.000Z</time>
      </trkpt>
      <trkpt lat="43.48253" lon="-1.08772">
        <ele>87.800003051758</ele>
        <time>2025-08-13T08:05:39.000Z</time>
      </trkpt>
      <trkpt lat="43.48237" lon="-1.0881">
        <ele>88.400001525879</ele>
        <time>2025-08-13T08:05:49.000Z</time>
      </trkpt>
      <trkpt lat="43.48221" lon="-1.08842">
        <ele>88.599998474121</ele>
        <time>2025-08-13T08:05:57.000Z</time>
      </trkpt>
      <trkpt lat="43.48205" lon="-1.08876">
        <ele>88.400001525879</ele>
        <time>2025-08-13T08:06:05.000Z</time>
      </trkpt>
      <trkpt lat="43.48187" lon="-1.08913">
        <ele>88.199996948242</ele>
        <time>2025-08-13T08:06:13.000Z</time>
      </trkpt>
      <trkpt lat="43.48183" lon="-1.08923">
        <ele>88</ele>
        <time>2025-08-13T08:06:15.000Z</time>
      </trkpt>
      <trkpt lat="43.48169" lon="-1.0895">
        <ele>87.800003051758</ele>
        <time>2025-08-13T08:06:20.000Z</time>
      </trkpt>
      <trkpt lat="43.48153" lon="-1.08995">
        <ele>87.599998474121</ele>
        <time>2025-08-13T08:06:27.000Z</time>
      </trkpt>
      <trkpt lat="43.48139" lon="-1.09031">
        <ele>87.599998474121</ele>
        <time>2025-08-13T08:06:34.000Z</time>
      </trkpt>
      <trkpt lat="43.48128" lon="-1.09063">
        <ele>88.199996948242</ele>
        <time>2025-08-13T08:06:41.000Z</time>
      </trkpt>
      <trkpt lat="43.48116" lon="-1.091">
        <ele>88.800003051758</ele>
        <time>2025-08-13T08:06:50.000Z</time>
      </trkpt>
      <trkpt lat="43.48114" lon="-1.09104">
        <ele>88.800003051758</ele>
        <time>2025-08-13T08:06:51.000Z</time>
      </trkpt>
      <trkpt lat="43.481" lon="-1.09141">
        <ele>89.400001525879</ele>
        <time>2025-08-13T08:07:00.000Z</time>
      </trkpt>
      <trkpt lat="43.48091" lon="-1.09168">
        <ele>89.599998474121</ele>
        <time>2025-08-13T08:07:06.000Z</time>
      </trkpt>
      <trkpt lat="43.48076" lon="-1.09203">
        <ele>89.599998474121</ele>
        <time>2025-08-13T08:07:14.000Z</time>
      </trkpt>
      <trkpt lat="43.48058" lon="-1.09247">
        <ele>89.199996948242</ele>
        <time>2025-08-13T08:07:21.000Z</time>
      </trkpt>
      <trkpt lat="43.48055" lon="-1.09256">
        <ele>89.199996948242</ele>
        <time>2025-08-13T08:07:22.000Z</time>
      </trkpt>
      <trkpt lat="43.48048" lon="-1.09275">
        <ele>89.199996948242</ele>
        <time>2025-08-13T08:07:24.000Z</time>
      </trkpt>
      <trkpt lat="43.48044" lon="-1.09286">
        <ele>89</ele>
        <time>2025-08-13T08:07:25.000Z</time>
      </trkpt>
      <trkpt lat="43.48032" lon="-1.09323">
        <ele>87.800003051758</ele>
        <time>2025-08-13T08:07:28.000Z</time>
      </trkpt>
      <trkpt lat="43.48028" lon="-1.09336">
        <ele>87.400001525879</ele>
        <time>2025-08-13T08:07:29.000Z</time>
      </trkpt>
      <trkpt lat="43.48023" lon="-1.09349">
        <ele>86.599998474121</ele>
        <time>2025-08-13T08:07:30.000Z</time>
      </trkpt>
      <trkpt lat="43.48014" lon="-1.09376">
        <ele>85</ele>
        <time>2025-08-13T08:07:32.000Z</time>
      </trkpt>
      <trkpt lat="43.48006" lon="-1.09404">
        <ele>83.800003051758</ele>
        <time>2025-08-13T08:07:34.000Z</time>
      </trkpt>
      <trkpt lat="43.47996" lon="-1.0943">
        <ele>82.800003051758</ele>
        <time>2025-08-13T08:07:36.000Z</time>
      </trkpt>
      <trkpt lat="43.47992" lon="-1.09443">
        <ele>82</ele>
        <time>2025-08-13T08:07:37.000Z</time>
      </trkpt>
      <trkpt lat="43.47982" lon="-1.09469">
        <ele>81</ele>
        <time>2025-08-13T08:07:39.000Z</time>
      </trkpt>
      <trkpt lat="43.47969" lon="-1.09503">
        <ele>79.400001525879</ele>
        <time>2025-08-13T08:07:42.000Z</time>
      </trkpt>
      <trkpt lat="43.47965" lon="-1.09514">
        <ele>79.199996948242</ele>
        <time>2025-08-13T08:07:43.000Z</time>
      </trkpt>
      <trkpt lat="43.47952" lon="-1.0955">
        <ele>78</ele>
        <time>2025-08-13T08:07:47.000Z</time>
      </trkpt>
      <trkpt lat="43.47941" lon="-1.09581">
        <ele>77</ele>
        <time>2025-08-13T08:07:51.000Z</time>
      </trkpt>
      <trkpt lat="43.47935" lon="-1.09598">
        <ele>76.400001525879</ele>
        <time>2025-08-13T08:07:53.000Z</time>
      </trkpt>
      <trkpt lat="43.47921" lon="-1.09648">
        <ele>75.800003051758</ele>
        <time>2025-08-13T08:07:58.000Z</time>
      </trkpt>
      <trkpt lat="43.47915" lon="-1.09681">
        <ele>74</ele>
        <time>2025-08-13T08:08:01.000Z</time>
      </trkpt>
      <trkpt lat="43.47912" lon="-1.09703">
        <ele>72.599998474121</ele>
        <time>2025-08-13T08:08:03.000Z</time>
      </trkpt>
      <trkpt lat="43.47909" lon="-1.09726">
        <ele>71.199996948242</ele>
        <time>2025-08-13T08:08:05.000Z</time>
      </trkpt>
      <trkpt lat="43.47906" lon="-1.09747">
        <ele>69.800003051758</ele>
        <time>2025-08-13T08:08:07.000Z</time>
      </trkpt>
      <trkpt lat="43.47903" lon="-1.09764">
        <ele>68.400001525879</ele>
        <time>2025-08-13T08:08:09.000Z</time>
      </trkpt>
      <trkpt lat="43.47902" lon="-1.0977">
        <ele>67.199996948242</ele>
        <time>2025-08-13T08:08:10.000Z</time>
      </trkpt>
      <trkpt lat="43.47902" lon="-1.09776">
        <ele>66.599998474121</ele>
        <time>2025-08-13T08:08:11.000Z</time>
      </trkpt>
      <trkpt lat="43.47904" lon="-1.0978">
        <ele>65.199996948242</ele>
        <time>2025-08-13T08:08:12.000Z</time>
      </trkpt>
      <trkpt lat="43.47909" lon="-1.09787">
        <ele>63.400001525879</ele>
        <time>2025-08-13T08:08:14.000Z</time>
      </trkpt>
      <trkpt lat="43.47913" lon="-1.09788">
        <ele>62.599998474121</ele>
        <time>2025-08-13T08:08:15.000Z</time>
      </trkpt>
      <trkpt lat="43.4792" lon="-1.09787">
        <ele>62.200000762939</ele>
        <time>2025-08-13T08:08:17.000Z</time>
      </trkpt>
      <trkpt lat="43.47927" lon="-1.09784">
        <ele>62</ele>
        <time>2025-08-13T08:08:19.000Z</time>
      </trkpt>
      <trkpt lat="43.47936" lon="-1.09785">
        <ele>61.799999237061</ele>
        <time>2025-08-13T08:08:22.000Z</time>
      </trkpt>
      <trkpt lat="43.47939" lon="-1.09787">
        <ele>62</ele>
        <time>2025-08-13T08:08:23.000Z</time>
      </trkpt>
      <trkpt lat="43.47954" lon="-1.09796">
        <ele>62.799999237061</ele>
        <time>2025-08-13T08:08:29.000Z</time>
      </trkpt>
      <trkpt lat="43.47958" lon="-1.09797">
        <ele>63.200000762939</ele>
        <time>2025-08-13T08:08:31.000Z</time>
      </trkpt>
      <trkpt lat="43.47963" lon="-1.09801">
        <ele>63.799999237061</ele>
        <time>2025-08-13T08:08:34.000Z</time>
      </trkpt>
      <trkpt lat="43.47973" lon="-1.0981">
        <ele>64.199996948242</ele>
        <time>2025-08-13T08:08:39.000Z</time>
      </trkpt>
      <trkpt lat="43.47981" lon="-1.09819">
        <ele>64.800003051758</ele>
        <time>2025-08-13T08:08:43.000Z</time>
      </trkpt>
      <trkpt lat="43.48004" lon="-1.09834">
        <ele>65.199996948242</ele>
        <time>2025-08-13T08:08:52.000Z</time>
      </trkpt>
      <trkpt lat="43.48009" lon="-1.09836">
        <ele>65.199996948242</ele>
        <time>2025-08-13T08:08:54.000Z</time>
      </trkpt>
      <trkpt lat="43.48027" lon="-1.09841">
        <ele>65.199996948242</ele>
        <time>2025-08-13T08:09:01.000Z</time>
      </trkpt>
      <trkpt lat="43.48047" lon="-1.09848">
        <ele>65.800003051758</ele>
        <time>2025-08-13T08:09:09.000Z</time>
      </trkpt>
      <trkpt lat="43.48056" lon="-1.09854">
        <ele>66.199996948242</ele>
        <time>2025-08-13T08:09:13.000Z</time>
      </trkpt>
      <trkpt lat="43.48057" lon="-1.0986">
        <ele>66.199996948242</ele>
        <time>2025-08-13T08:09:15.000Z</time>
      </trkpt>
      <trkpt lat="43.48057" lon="-1.09865">
        <ele>66.400001525879</ele>
        <time>2025-08-13T08:09:17.000Z</time>
      </trkpt>
      <trkpt lat="43.48059" lon="-1.0987">
        <ele>66.400001525879</ele>
        <time>2025-08-13T08:09:19.000Z</time>
      </trkpt>
      <trkpt lat="43.48059" lon="-1.09874">
        <ele>66.599998474121</ele>
        <time>2025-08-13T08:09:21.000Z</time>
      </trkpt>
      <trkpt lat="43.48059" lon="-1.09878">
        <ele>66.800003051758</ele>
        <time>2025-08-13T08:09:23.000Z</time>
      </trkpt>
      <trkpt lat="43.48058" lon="-1.09882">
        <ele>67</ele>
        <time>2025-08-13T08:09:25.000Z</time>
      </trkpt>
      <trkpt lat="43.48058" lon="-1.09884">
        <ele>67.199996948242</ele>
        <time>2025-08-13T08:09:26.000Z</time>
      </trkpt>
      <trkpt lat="43.48058" lon="-1.09886">
        <ele>67.400001525879</ele>
        <time>2025-08-13T08:09:27.000Z</time>
      </trkpt>
      <trkpt lat="43.48057" lon="-1.0989">
        <ele>68</ele>
        <time>2025-08-13T08:09:30.000Z</time>
      </trkpt>
      <trkpt lat="43.48056" lon="-1.09894">
        <ele>68.199996948242</ele>
        <time>2025-08-13T08:09:32.000Z</time>
      </trkpt>
      <trkpt lat="43.48057" lon="-1.09896">
        <ele>68.199996948242</ele>
        <time>2025-08-13T08:09:33.000Z</time>
      </trkpt>
      <trkpt lat="43.48056" lon="-1.09899">
        <ele>68.199996948242</ele>
        <time>2025-08-13T08:09:34.000Z</time>
      </trkpt>
      <trkpt lat="43.48056" lon="-1.09901">
        <ele>68.400001525879</ele>
        <time>2025-08-13T08:09:35.000Z</time>
      </trkpt>
      <trkpt lat="43.48055" lon="-1.09905">
        <ele>68.800003051758</ele>
        <time>2025-08-13T08:09:37.000Z</time>
      </trkpt>
      <trkpt lat="43.48055" lon="-1.09906">
        <ele>68.800003051758</ele>
        <time>2025-08-13T08:09:38.000Z</time>
      </trkpt>
      <trkpt lat="43.48055" lon="-1.09908">
        <ele>69</ele>
        <time>2025-08-13T08:09:39.000Z</time>
      </trkpt>
      <trkpt lat="43.48054" lon="-1.09913">
        <ele>69.199996948242</ele>
        <time>2025-08-13T08:09:41.000Z</time>
      </trkpt>
      <trkpt lat="43.48053" lon="-1.09914">
        <ele>69.400001525879</ele>
        <time>2025-08-13T08:09:42.000Z</time>
      </trkpt>
      <trkpt lat="43.48053" lon="-1.09917">
        <ele>69.599998474121</ele>
        <time>2025-08-13T08:09:43.000Z</time>
      </trkpt>
      <trkpt lat="43.4805" lon="-1.09927">
        <ele>70.199996948242</ele>
        <time>2025-08-13T08:09:47.000Z</time>
      </trkpt>
      <trkpt lat="43.48047" lon="-1.09929">
        <ele>70.400001525879</ele>
        <time>2025-08-13T08:09:49.000Z</time>
      </trkpt>
      <trkpt lat="43.48047" lon="-1.09932">
        <ele>70.599998474121</ele>
        <time>2025-08-13T08:09:50.000Z</time>
      </trkpt>
      <trkpt lat="43.48046" lon="-1.09938">
        <ele>70.800003051758</ele>
        <time>2025-08-13T08:09:52.000Z</time>
      </trkpt>
      <trkpt lat="43.48045" lon="-1.09942">
        <ele>71.400001525879</ele>
        <time>2025-08-13T08:09:54.000Z</time>
      </trkpt>
      <trkpt lat="43.48044" lon="-1.09944">
        <ele>71.599998474121</ele>
        <time>2025-08-13T08:09:55.000Z</time>
      </trkpt>
      <trkpt lat="43.48044" lon="-1.09945">
        <ele>71.599998474121</ele>
        <time>2025-08-13T08:09:56.000Z</time>
      </trkpt>
      <trkpt lat="43.48042" lon="-1.09951">
        <ele>72</ele>
        <time>2025-08-13T08:09:59.000Z</time>
      </trkpt>
      <trkpt lat="43.4804" lon="-1.09954">
        <ele>72.400001525879</ele>
        <time>2025-08-13T08:10:01.000Z</time>
      </trkpt>
      <trkpt lat="43.4804" lon="-1.09956">
        <ele>72.800003051758</ele>
        <time>2025-08-13T08:10:02.000Z</time>
      </trkpt>
      <trkpt lat="43.4804" lon="-1.09959">
        <ele>73.199996948242</ele>
        <time>2025-08-13T08:10:04.000Z</time>
      </trkpt>
      <trkpt lat="43.48037" lon="-1.09965">
        <ele>73.800003051758</ele>
        <time>2025-08-13T08:10:07.000Z</time>
      </trkpt>
      <trkpt lat="43.48038" lon="-1.09966">
        <ele>73.800003051758</ele>
        <time>2025-08-13T08:10:08.000Z</time>
      </trkpt>
      <trkpt lat="43.48039" lon="-1.09969">
        <ele>74</ele>
        <time>2025-08-13T08:10:09.000Z</time>
      </trkpt>
      <trkpt lat="43.48046" lon="-1.09978">
        <ele>75</ele>
        <time>2025-08-13T08:10:14.000Z</time>
      </trkpt>
      <trkpt lat="43.48047" lon="-1.0998">
        <ele>75.199996948242</ele>
        <time>2025-08-13T08:10:15.000Z</time>
      </trkpt>
      <trkpt lat="43.48053" lon="-1.09988">
        <ele>76</ele>
        <time>2025-08-13T08:10:19.000Z</time>
      </trkpt>
      <trkpt lat="43.48055" lon="-1.09996">
        <ele>76.400001525879</ele>
        <time>2025-08-13T08:10:22.000Z</time>
      </trkpt>
      <trkpt lat="43.48063" lon="-1.10012">
        <ele>76.800003051758</ele>
        <time>2025-08-13T08:10:28.000Z</time>
      </trkpt>
      <trkpt lat="43.4807" lon="-1.10033">
        <ele>77</ele>
        <time>2025-08-13T08:10:35.000Z</time>
      </trkpt>
      <trkpt lat="43.48071" lon="-1.10036">
        <ele>77.199996948242</ele>
        <time>2025-08-13T08:10:36.000Z</time>
      </trkpt>
      <trkpt lat="43.48078" lon="-1.10058">
        <ele>77.400001525879</ele>
        <time>2025-08-13T08:10:43.000Z</time>
      </trkpt>
      <trkpt lat="43.48084" lon="-1.1008">
        <ele>78</ele>
        <time>2025-08-13T08:10:51.000Z</time>
      </trkpt>
      <trkpt lat="43.48086" lon="-1.10087">
        <ele>78.199996948242</ele>
        <time>2025-08-13T08:10:54.000Z</time>
      </trkpt>
      <trkpt lat="43.4809" lon="-1.10101">
        <ele>78.800003051758</ele>
        <time>2025-08-13T08:11:00.000Z</time>
      </trkpt>
      <trkpt lat="43.48094" lon="-1.10115">
        <ele>79.400001525879</ele>
        <time>2025-08-13T08:11:05.000Z</time>
      </trkpt>
      <trkpt lat="43.48097" lon="-1.10132">
        <ele>80</ele>
        <time>2025-08-13T08:11:11.000Z</time>
      </trkpt>
      <trkpt lat="43.48099" lon="-1.10138">
        <ele>80.400001525879</ele>
        <time>2025-08-13T08:11:13.000Z</time>
      </trkpt>
      <trkpt lat="43.48104" lon="-1.1015">
        <ele>81.199996948242</ele>
        <time>2025-08-13T08:11:18.000Z</time>
      </trkpt>
      <trkpt lat="43.48107" lon="-1.10158">
        <ele>81.400001525879</ele>
        <time>2025-08-13T08:11:21.000Z</time>
      </trkpt>
      <trkpt lat="43.48111" lon="-1.10171">
        <ele>81.800003051758</ele>
        <time>2025-08-13T08:11:26.000Z</time>
      </trkpt>
      <trkpt lat="43.48117" lon="-1.1019">
        <ele>82.199996948242</ele>
        <time>2025-08-13T08:11:33.000Z</time>
      </trkpt>
      <trkpt lat="43.48121" lon="-1.10201">
        <ele>82.599998474121</ele>
        <time>2025-08-13T08:11:37.000Z</time>
      </trkpt>
      <trkpt lat="43.48124" lon="-1.10208">
        <ele>82.800003051758</ele>
        <time>2025-08-13T08:11:40.000Z</time>
      </trkpt>
      <trkpt lat="43.48132" lon="-1.10229">
        <ele>83.599998474121</ele>
        <time>2025-08-13T08:11:48.000Z</time>
      </trkpt>
      <trkpt lat="43.48133" lon="-1.10232">
        <ele>83.599998474121</ele>
        <time>2025-08-13T08:11:49.000Z</time>
      </trkpt>
      <trkpt lat="43.48141" lon="-1.10251">
        <ele>84.199996948242</ele>
        <time>2025-08-13T08:11:56.000Z</time>
      </trkpt>
      <trkpt lat="43.48145" lon="-1.10266">
        <ele>84.599998474121</ele>
        <time>2025-08-13T08:12:03.000Z</time>
      </trkpt>
      <trkpt lat="43.48146" lon="-1.10269">
        <ele>84.599998474121</ele>
        <time>2025-08-13T08:12:04.000Z</time>
      </trkpt>
      <trkpt lat="43.48146" lon="-1.10272">
        <ele>84.599998474121</ele>
        <time>2025-08-13T08:12:06.000Z</time>
      </trkpt>
      <trkpt lat="43.48147" lon="-1.10276">
        <ele>84.599998474121</ele>
        <time>2025-08-13T08:12:08.000Z</time>
      </trkpt>
      <trkpt lat="43.48147" lon="-1.10279">
        <ele>84.599998474121</ele>
        <time>2025-08-13T08:12:09.000Z</time>
      </trkpt>
      <trkpt lat="43.48149" lon="-1.10287">
        <ele>84.800003051758</ele>
        <time>2025-08-13T08:12:13.000Z</time>
      </trkpt>
      <trkpt lat="43.48152" lon="-1.103">
        <ele>85.199996948242</ele>
        <time>2025-08-13T08:12:19.000Z</time>
      </trkpt>
      <trkpt lat="43.48155" lon="-1.10319">
        <ele>85.599998474121</ele>
        <time>2025-08-13T08:12:26.000Z</time>
      </trkpt>
      <trkpt lat="43.48157" lon="-1.10331">
        <ele>85.800003051758</ele>
        <time>2025-08-13T08:12:30.000Z</time>
      </trkpt>
      <trkpt lat="43.48156" lon="-1.10335">
        <ele>85.800003051758</ele>
        <time>2025-08-13T08:12:32.000Z</time>
      </trkpt>
      <trkpt lat="43.48153" lon="-1.1034">
        <ele>86</ele>
        <time>2025-08-13T08:12:34.000Z</time>
      </trkpt>
      <trkpt lat="43.48142" lon="-1.10357">
        <ele>86.199996948242</ele>
        <time>2025-08-13T08:12:41.000Z</time>
      </trkpt>
      <trkpt lat="43.48125" lon="-1.10385">
        <ele>86.599998474121</ele>
        <time>2025-08-13T08:12:50.000Z</time>
      </trkpt>
      <trkpt lat="43.4812" lon="-1.10391">
        <ele>86.800003051758</ele>
        <time>2025-08-13T08:12:52.000Z</time>
      </trkpt>
      <trkpt lat="43.48114" lon="-1.10404">
        <ele>86.800003051758</ele>
        <time>2025-08-13T08:12:56.000Z</time>
      </trkpt>
      <trkpt lat="43.48099" lon="-1.1043">
        <ele>87.800003051758</ele>
        <time>2025-08-13T08:13:05.000Z</time>
      </trkpt>
      <trkpt lat="43.48083" lon="-1.10454">
        <ele>88</ele>
        <time>2025-08-13T08:13:13.000Z</time>
      </trkpt>
      <trkpt lat="43.48075" lon="-1.10468">
        <ele>88.199996948242</ele>
        <time>2025-08-13T08:13:19.000Z</time>
      </trkpt>
      <trkpt lat="43.48074" lon="-1.10467">
        <ele>88.199996948242</ele>
        <time>2025-08-13T08:13:20.000Z</time>
      </trkpt>
      <trkpt lat="43.48074" lon="-1.10458">
        <ele>87.800003051758</ele>
        <time>2025-08-13T08:13:25.000Z</time>
      </trkpt>
      <trkpt lat="43.48081" lon="-1.10448">
        <ele>87.599998474121</ele>
        <time>2025-08-13T08:13:30.000Z</time>
      </trkpt>
      <trkpt lat="43.48092" lon="-1.10433">
        <ele>87.800003051758</ele>
        <time>2025-08-13T08:13:36.000Z</time>
      </trkpt>
      <trkpt lat="43.48094" lon="-1.10423">
        <ele>88</ele>
        <time>2025-08-13T08:13:39.000Z</time>
      </trkpt>
      <trkpt lat="43.48093" lon="-1.10421">
        <ele>88</ele>
        <time>2025-08-13T08:13:40.000Z</time>
      </trkpt>
      <trkpt lat="43.48081" lon="-1.10416">
        <ele>88.400001525879</ele>
        <time>2025-08-13T08:13:45.000Z</time>
      </trkpt>
      <trkpt lat="43.48079" lon="-1.10416">
        <ele>88.400001525879</ele>
        <time>2025-08-13T08:13:46.000Z</time>
      </trkpt>
      <trkpt lat="43.48077" lon="-1.10419">
        <ele>88.400001525879</ele>
        <time>2025-08-13T08:13:47.000Z</time>
      </trkpt>
      <trkpt lat="43.48078" lon="-1.10423">
        <ele>88.400001525879</ele>
        <time>2025-08-13T08:13:49.000Z</time>
      </trkpt>
      <trkpt lat="43.48079" lon="-1.10426">
        <ele>88.400001525879</ele>
        <time>2025-08-13T08:13:51.000Z</time>
      </trkpt>
      <trkpt lat="43.48079" lon="-1.10427">
        <ele>88.400001525879</ele>
        <time>2025-08-13T08:13:52.000Z</time>
      </trkpt>
      <trkpt lat="43.48079" lon="-1.10427">
        <ele>88.199996948242</ele>
        <time>2025-08-13T08:13:54.000Z</time>
      </trkpt>
      <trkpt lat="43.48071" lon="-1.10439">
        <ele>88.199996948242</ele>
        <time>2025-08-13T08:17:35.000Z</time>
      </trkpt>
      <trkpt lat="43.48069" lon="-1.10441">
        <ele>88.199996948242</ele>
        <time>2025-08-13T08:17:36.000Z</time>
      </trkpt>
      <trkpt lat="43.48066" lon="-1.10456">
        <ele>88.199996948242</ele>
        <time>2025-08-13T08:17:41.000Z</time>
      </trkpt>
      <trkpt lat="43.48065" lon="-1.10459">
        <ele>88.199996948242</ele>
        <time>2025-08-13T08:17:42.000Z</time>
      </trkpt>
      <trkpt lat="43.4806" lon="-1.10466">
        <ele>88.199996948242</ele>
        <time>2025-08-13T08:17:45.000Z</time>
      </trkpt>
      <trkpt lat="43.48061" lon="-1.10471">
        <ele>88</ele>
        <time>2025-08-13T08:17:48.000Z</time>
      </trkpt>
      <trkpt lat="43.48061" lon="-1.10471">
        <ele>88</ele>
        <time>2025-08-13T08:17:50.000Z</time>
      </trkpt>
      <trkpt lat="43.48062" lon="-1.10482">
        <ele>88</ele>
        <time>2025-08-13T08:17:56.000Z</time>
      </trkpt>
      <trkpt lat="43.48061" lon="-1.10485">
        <ele>87.800003051758</ele>
        <time>2025-08-13T08:17:57.000Z</time>
      </trkpt>
      <trkpt lat="43.48049" lon="-1.10499">
        <ele>87.800003051758</ele>
        <time>2025-08-13T08:18:02.000Z</time>
      </trkpt>
      <trkpt lat="43.48041" lon="-1.10514">
        <ele>87.599998474121</ele>
        <time>2025-08-13T08:18:05.000Z</time>
      </trkpt>
      <trkpt lat="43.48033" lon="-1.10525">
        <ele>87.400001525879</ele>
        <time>2025-08-13T08:18:07.000Z</time>
      </trkpt>
      <trkpt lat="43.48014" lon="-1.10551">
        <ele>86.800003051758</ele>
        <time>2025-08-13T08:18:11.000Z</time>
      </trkpt>
      <trkpt lat="43.48004" lon="-1.10566">
        <ele>86</ele>
        <time>2025-08-13T08:18:13.000Z</time>
      </trkpt>
      <trkpt lat="43.48" lon="-1.10574">
        <ele>85.400001525879</ele>
        <time>2025-08-13T08:18:14.000Z</time>
      </trkpt>
      <trkpt lat="43.47986" lon="-1.10598">
        <ele>83.800003051758</ele>
        <time>2025-08-13T08:18:17.000Z</time>
      </trkpt>
      <trkpt lat="43.47982" lon="-1.10607">
        <ele>83.400001525879</ele>
        <time>2025-08-13T08:18:18.000Z</time>
      </trkpt>
      <trkpt lat="43.47977" lon="-1.10616">
        <ele>82.599998474121</ele>
        <time>2025-08-13T08:18:19.000Z</time>
      </trkpt>
      <trkpt lat="43.47968" lon="-1.10633">
        <ele>81</ele>
        <time>2025-08-13T08:18:21.000Z</time>
      </trkpt>
      <trkpt lat="43.47959" lon="-1.10654">
        <ele>79.199996948242</ele>
        <time>2025-08-13T08:18:24.000Z</time>
      </trkpt>
      <trkpt lat="43.47956" lon="-1.10661">
        <ele>78.800003051758</ele>
        <time>2025-08-13T08:18:25.000Z</time>
      </trkpt>
      <trkpt lat="43.47952" lon="-1.10669">
        <ele>78</ele>
        <time>2025-08-13T08:18:26.000Z</time>
      </trkpt>
      <trkpt lat="43.47945" lon="-1.10685">
        <ele>76.199996948242</ele>
        <time>2025-08-13T08:18:28.000Z</time>
      </trkpt>
      <trkpt lat="43.47937" lon="-1.10702">
        <ele>75.199996948242</ele>
        <time>2025-08-13T08:18:30.000Z</time>
      </trkpt>
      <trkpt lat="43.47925" lon="-1.10726">
        <ele>73.599998474121</ele>
        <time>2025-08-13T08:18:33.000Z</time>
      </trkpt>
      <trkpt lat="43.47921" lon="-1.10733">
        <ele>73.199996948242</ele>
        <time>2025-08-13T08:18:34.000Z</time>
      </trkpt>
      <trkpt lat="43.47917" lon="-1.1074">
        <ele>72.400001525879</ele>
        <time>2025-08-13T08:18:35.000Z</time>
      </trkpt>
      <trkpt lat="43.47913" lon="-1.10747">
        <ele>72</ele>
        <time>2025-08-13T08:18:36.000Z</time>
      </trkpt>
      <trkpt lat="43.47905" lon="-1.1076">
        <ele>70.800003051758</ele>
        <time>2025-08-13T08:18:38.000Z</time>
      </trkpt>
      <trkpt lat="43.47897" lon="-1.10774">
        <ele>69.199996948242</ele>
        <time>2025-08-13T08:18:40.000Z</time>
      </trkpt>
      <trkpt lat="43.4789" lon="-1.10788">
        <ele>67.800003051758</ele>
        <time>2025-08-13T08:18:42.000Z</time>
      </trkpt>
      <trkpt lat="43.47882" lon="-1.10803">
        <ele>66.400001525879</ele>
        <time>2025-08-13T08:18:44.000Z</time>
      </trkpt>
      <trkpt lat="43.47874" lon="-1.10816">
        <ele>65</ele>
        <time>2025-08-13T08:18:46.000Z</time>
      </trkpt>
      <trkpt lat="43.47861" lon="-1.10836">
        <ele>63.400001525879</ele>
        <time>2025-08-13T08:18:49.000Z</time>
      </trkpt>
      <trkpt lat="43.47852" lon="-1.1085">
        <ele>62.400001525879</ele>
        <time>2025-08-13T08:18:51.000Z</time>
      </trkpt>
      <trkpt lat="43.47836" lon="-1.1087">
        <ele>61</ele>
        <time>2025-08-13T08:18:54.000Z</time>
      </trkpt>
      <trkpt lat="43.47831" lon="-1.10876">
        <ele>60.799999237061</ele>
        <time>2025-08-13T08:18:55.000Z</time>
      </trkpt>
      <trkpt lat="43.47825" lon="-1.1088">
        <ele>60.400001525879</ele>
        <time>2025-08-13T08:18:56.000Z</time>
      </trkpt>
      <trkpt lat="43.47818" lon="-1.10883">
        <ele>59.799999237061</ele>
        <time>2025-08-13T08:18:57.000Z</time>
      </trkpt>
      <trkpt lat="43.47811" lon="-1.10883">
        <ele>59.400001525879</ele>
        <time>2025-08-13T08:18:58.000Z</time>
      </trkpt>
      <trkpt lat="43.47791" lon="-1.1088">
        <ele>58.400001525879</ele>
        <time>2025-08-13T08:19:01.000Z</time>
      </trkpt>
      <trkpt lat="43.47775" lon="-1.10877">
        <ele>57.799999237061</ele>
        <time>2025-08-13T08:19:03.000Z</time>
      </trkpt>
      <trkpt lat="43.47767" lon="-1.10877">
        <ele>57.400001525879</ele>
        <time>2025-08-13T08:19:04.000Z</time>
      </trkpt>
      <trkpt lat="43.47751" lon="-1.10878">
        <ele>56.799999237061</ele>
        <time>2025-08-13T08:19:06.000Z</time>
      </trkpt>
      <trkpt lat="43.47743" lon="-1.10879">
        <ele>56.400001525879</ele>
        <time>2025-08-13T08:19:07.000Z</time>
      </trkpt>
      <trkpt lat="43.47735" lon="-1.10882">
        <ele>55.799999237061</ele>
        <time>2025-08-13T08:19:08.000Z</time>
      </trkpt>
      <trkpt lat="43.47727" lon="-1.10887">
        <ele>55.400001525879</ele>
        <time>2025-08-13T08:19:09.000Z</time>
      </trkpt>
      <trkpt lat="43.47719" lon="-1.10893">
        <ele>54.799999237061</ele>
        <time>2025-08-13T08:19:10.000Z</time>
      </trkpt>
      <trkpt lat="43.47712" lon="-1.10902">
        <ele>53.799999237061</ele>
        <time>2025-08-13T08:19:11.000Z</time>
      </trkpt>
      <trkpt lat="43.47706" lon="-1.10912">
        <ele>53.200000762939</ele>
        <time>2025-08-13T08:19:12.000Z</time>
      </trkpt>
      <trkpt lat="43.477" lon="-1.10923">
        <ele>52.200000762939</ele>
        <time>2025-08-13T08:19:13.000Z</time>
      </trkpt>
      <trkpt lat="43.47695" lon="-1.10936">
        <ele>51.599998474121</ele>
        <time>2025-08-13T08:19:14.000Z</time>
      </trkpt>
      <trkpt lat="43.47691" lon="-1.10949">
        <ele>50.400001525879</ele>
        <time>2025-08-13T08:19:15.000Z</time>
      </trkpt>
      <trkpt lat="43.47683" lon="-1.10975">
        <ele>49</ele>
        <time>2025-08-13T08:19:17.000Z</time>
      </trkpt>
      <trkpt lat="43.47675" lon="-1.11001">
        <ele>47.599998474121</ele>
        <time>2025-08-13T08:19:19.000Z</time>
      </trkpt>
      <trkpt lat="43.47668" lon="-1.11025">
        <ele>46.200000762939</ele>
        <time>2025-08-13T08:19:21.000Z</time>
      </trkpt>
      <trkpt lat="43.47663" lon="-1.11051">
        <ele>45</ele>
        <time>2025-08-13T08:19:23.000Z</time>
      </trkpt>
      <trkpt lat="43.4766" lon="-1.11064">
        <ele>44.400001525879</ele>
        <time>2025-08-13T08:19:24.000Z</time>
      </trkpt>
      <trkpt lat="43.47658" lon="-1.11079">
        <ele>43.599998474121</ele>
        <time>2025-08-13T08:19:25.000Z</time>
      </trkpt>
      <trkpt lat="43.47657" lon="-1.11107">
        <ele>42.400001525879</ele>
        <time>2025-08-13T08:19:27.000Z</time>
      </trkpt>
      <trkpt lat="43.47657" lon="-1.11122">
        <ele>42.200000762939</ele>
        <time>2025-08-13T08:19:28.000Z</time>
      </trkpt>
      <trkpt lat="43.47659" lon="-1.11136">
        <ele>41.200000762939</ele>
        <time>2025-08-13T08:19:29.000Z</time>
      </trkpt>
      <trkpt lat="43.47662" lon="-1.11165">
        <ele>40.200000762939</ele>
        <time>2025-08-13T08:19:31.000Z</time>
      </trkpt>
      <trkpt lat="43.47662" lon="-1.1118">
        <ele>39.400001525879</ele>
        <time>2025-08-13T08:19:32.000Z</time>
      </trkpt>
      <trkpt lat="43.47661" lon="-1.11194">
        <ele>39</ele>
        <time>2025-08-13T08:19:33.000Z</time>
      </trkpt>
      <trkpt lat="43.47657" lon="-1.11207">
        <ele>38</ele>
        <time>2025-08-13T08:19:34.000Z</time>
      </trkpt>
      <trkpt lat="43.47652" lon="-1.11219">
        <ele>37.400001525879</ele>
        <time>2025-08-13T08:19:35.000Z</time>
      </trkpt>
      <trkpt lat="43.47647" lon="-1.1123">
        <ele>36.599998474121</ele>
        <time>2025-08-13T08:19:36.000Z</time>
      </trkpt>
      <trkpt lat="43.47635" lon="-1.11254">
        <ele>35.200000762939</ele>
        <time>2025-08-13T08:19:39.000Z</time>
      </trkpt>
      <trkpt lat="43.47631" lon="-1.1126">
        <ele>35</ele>
        <time>2025-08-13T08:19:40.000Z</time>
      </trkpt>
      <trkpt lat="43.47623" lon="-1.11268">
        <ele>34</ele>
        <time>2025-08-13T08:19:42.000Z</time>
      </trkpt>
      <trkpt lat="43.47617" lon="-1.11271">
        <ele>33.400001525879</ele>
        <time>2025-08-13T08:19:43.000Z</time>
      </trkpt>
      <trkpt lat="43.47607" lon="-1.11276">
        <ele>32.599998474121</ele>
        <time>2025-08-13T08:19:45.000Z</time>
      </trkpt>
      <trkpt lat="43.47586" lon="-1.11293">
        <ele>31.60000038147</ele>
        <time>2025-08-13T08:19:49.000Z</time>
      </trkpt>
      <trkpt lat="43.47573" lon="-1.11302">
        <ele>31.200000762939</ele>
        <time>2025-08-13T08:19:51.000Z</time>
      </trkpt>
      <trkpt lat="43.47558" lon="-1.11309">
        <ele>30.39999961853</ele>
        <time>2025-08-13T08:19:53.000Z</time>
      </trkpt>
      <trkpt lat="43.47543" lon="-1.11312">
        <ele>29.799999237061</ele>
        <time>2025-08-13T08:19:55.000Z</time>
      </trkpt>
      <trkpt lat="43.47528" lon="-1.11311">
        <ele>29</ele>
        <time>2025-08-13T08:19:57.000Z</time>
      </trkpt>
      <trkpt lat="43.47522" lon="-1.1131">
        <ele>28.60000038147</ele>
        <time>2025-08-13T08:19:58.000Z</time>
      </trkpt>
      <trkpt lat="43.47507" lon="-1.11307">
        <ele>27.60000038147</ele>
        <time>2025-08-13T08:20:00.000Z</time>
      </trkpt>
      <trkpt lat="43.47497" lon="-1.11304">
        <ele>27</ele>
        <time>2025-08-13T08:20:02.000Z</time>
      </trkpt>
      <trkpt lat="43.47494" lon="-1.11304">
        <ele>27.200000762939</ele>
        <time>2025-08-13T08:20:03.000Z</time>
      </trkpt>
      <trkpt lat="43.47491" lon="-1.11305">
        <ele>26.60000038147</ele>
        <time>2025-08-13T08:20:04.000Z</time>
      </trkpt>
      <trkpt lat="43.47489" lon="-1.11307">
        <ele>26.39999961853</ele>
        <time>2025-08-13T08:20:05.000Z</time>
      </trkpt>
      <trkpt lat="43.47488" lon="-1.11309">
        <ele>26</ele>
        <time>2025-08-13T08:20:06.000Z</time>
      </trkpt>
      <trkpt lat="43.47488" lon="-1.11312">
        <ele>25.39999961853</ele>
        <time>2025-08-13T08:20:07.000Z</time>
      </trkpt>
      <trkpt lat="43.47492" lon="-1.1132">
        <ele>24.39999961853</ele>
        <time>2025-08-13T08:20:09.000Z</time>
      </trkpt>
      <trkpt lat="43.47495" lon="-1.11324">
        <ele>24.200000762939</ele>
        <time>2025-08-13T08:20:10.000Z</time>
      </trkpt>
      <trkpt lat="43.47504" lon="-1.11335">
        <ele>22.799999237061</ele>
        <time>2025-08-13T08:20:13.000Z</time>
      </trkpt>
      <trkpt lat="43.47507" lon="-1.1134">
        <ele>22.200000762939</ele>
        <time>2025-08-13T08:20:14.000Z</time>
      </trkpt>
      <trkpt lat="43.47513" lon="-1.11348">
        <ele>21.39999961853</ele>
        <time>2025-08-13T08:20:16.000Z</time>
      </trkpt>
      <trkpt lat="43.47524" lon="-1.11362">
        <ele>20.39999961853</ele>
        <time>2025-08-13T08:20:19.000Z</time>
      </trkpt>
      <trkpt lat="43.47528" lon="-1.11366">
        <ele>20</ele>
        <time>2025-08-13T08:20:20.000Z</time>
      </trkpt>
      <trkpt lat="43.47532" lon="-1.11371">
        <ele>19.39999961853</ele>
        <time>2025-08-13T08:20:21.000Z</time>
      </trkpt>
      <trkpt lat="43.4754" lon="-1.11381">
        <ele>18.799999237061</ele>
        <time>2025-08-13T08:20:23.000Z</time>
      </trkpt>
      <trkpt lat="43.47544" lon="-1.11387">
        <ele>18.39999961853</ele>
        <time>2025-08-13T08:20:24.000Z</time>
      </trkpt>
      <trkpt lat="43.47548" lon="-1.11393">
        <ele>17.799999237061</ele>
        <time>2025-08-13T08:20:25.000Z</time>
      </trkpt>
      <trkpt lat="43.47552" lon="-1.114">
        <ele>16.799999237061</ele>
        <time>2025-08-13T08:20:26.000Z</time>
      </trkpt>
      <trkpt lat="43.47557" lon="-1.11406">
        <ele>16.39999961853</ele>
        <time>2025-08-13T08:20:27.000Z</time>
      </trkpt>
      <trkpt lat="43.47567" lon="-1.1142">
        <ele>15.39999961853</ele>
        <time>2025-08-13T08:20:29.000Z</time>
      </trkpt>
      <trkpt lat="43.47576" lon="-1.11435">
        <ele>14.199999809265</ele>
        <time>2025-08-13T08:20:31.000Z</time>
      </trkpt>
      <trkpt lat="43.47582" lon="-1.11445">
        <ele>12.39999961853</ele>
        <time>2025-08-13T08:20:33.000Z</time>
      </trkpt>
      <trkpt lat="43.47585" lon="-1.1145">
        <ele>11.800000190735</ele>
        <time>2025-08-13T08:20:34.000Z</time>
      </trkpt>
      <trkpt lat="43.47589" lon="-1.11454">
        <ele>10.800000190735</ele>
        <time>2025-08-13T08:20:35.000Z</time>
      </trkpt>
      <trkpt lat="43.47599" lon="-1.11464">
        <ele>9.6000003814697</ele>
        <time>2025-08-13T08:20:37.000Z</time>
      </trkpt>
      <trkpt lat="43.47604" lon="-1.1147">
        <ele>9</ele>
        <time>2025-08-13T08:20:38.000Z</time>
      </trkpt>
      <trkpt lat="43.47609" lon="-1.11476">
        <ele>8.1999998092651</ele>
        <time>2025-08-13T08:20:39.000Z</time>
      </trkpt>
      <trkpt lat="43.47625" lon="-1.11493">
        <ele>6.5999999046326</ele>
        <time>2025-08-13T08:20:42.000Z</time>
      </trkpt>
      <trkpt lat="43.47631" lon="-1.11498">
        <ele>6.4000000953674</ele>
        <time>2025-08-13T08:20:43.000Z</time>
      </trkpt>
      <trkpt lat="43.47637" lon="-1.11502">
        <ele>5.8000001907349</ele>
        <time>2025-08-13T08:20:44.000Z</time>
      </trkpt>
      <trkpt lat="43.4765" lon="-1.11507">
        <ele>5.1999998092651</ele>
        <time>2025-08-13T08:20:46.000Z</time>
      </trkpt>
      <trkpt lat="43.47657" lon="-1.11509">
        <ele>5</ele>
        <time>2025-08-13T08:20:47.000Z</time>
      </trkpt>
      <trkpt lat="43.47686" lon="-1.11514">
        <ele>4.1999998092651</ele>
        <time>2025-08-13T08:20:52.000Z</time>
      </trkpt>
      <trkpt lat="43.47691" lon="-1.11515">
        <ele>4</ele>
        <time>2025-08-13T08:20:53.000Z</time>
      </trkpt>
      <trkpt lat="43.47721" lon="-1.11527">
        <ele>3.5999999046326</ele>
        <time>2025-08-13T08:20:59.000Z</time>
      </trkpt>
      <trkpt lat="43.47726" lon="-1.11528">
        <ele>3.5999999046326</ele>
        <time>2025-08-13T08:21:00.000Z</time>
      </trkpt>
      <trkpt lat="43.47765" lon="-1.11536">
        <ele>3.5999999046326</ele>
        <time>2025-08-13T08:21:08.000Z</time>
      </trkpt>
      <trkpt lat="43.4777" lon="-1.11537">
        <ele>3.5999999046326</ele>
        <time>2025-08-13T08:21:09.000Z</time>
      </trkpt>
      <trkpt lat="43.47796" lon="-1.11543">
        <ele>4</ele>
        <time>2025-08-13T08:21:14.000Z</time>
      </trkpt>
      <trkpt lat="43.47829" lon="-1.11552">
        <ele>4</ele>
        <time>2025-08-13T08:21:20.000Z</time>
      </trkpt>
      <trkpt lat="43.47835" lon="-1.11552">
        <ele>3.7999999523163</ele>
        <time>2025-08-13T08:21:21.000Z</time>
      </trkpt>
      <trkpt lat="43.47886" lon="-1.11558">
        <ele>3.4000000953674</ele>
        <time>2025-08-13T08:21:30.000Z</time>
      </trkpt>
      <trkpt lat="43.47908" lon="-1.11561">
        <ele>3.2000000476837</ele>
        <time>2025-08-13T08:21:34.000Z</time>
      </trkpt>
      <trkpt lat="43.4794" lon="-1.11564">
        <ele>3</ele>
        <time>2025-08-13T08:21:40.000Z</time>
      </trkpt>
      <trkpt lat="43.47962" lon="-1.11561">
        <ele>3</ele>
        <time>2025-08-13T08:21:44.000Z</time>
      </trkpt>
      <trkpt lat="43.47967" lon="-1.11558">
        <ele>2.7999999523163</ele>
        <time>2025-08-13T08:21:45.000Z</time>
      </trkpt>
      <trkpt lat="43.47971" lon="-1.11556">
        <ele>2.7999999523163</ele>
        <time>2025-08-13T08:21:46.000Z</time>
      </trkpt>
      <trkpt lat="43.47983" lon="-1.11544">
        <ele>2.7999999523163</ele>
        <time>2025-08-13T08:21:49.000Z</time>
      </trkpt>
      <trkpt lat="43.47988" lon="-1.11533">
        <ele>3</ele>
        <time>2025-08-13T08:21:51.000Z</time>
      </trkpt>
      <trkpt lat="43.47992" lon="-1.11523">
        <ele>3</ele>
        <time>2025-08-13T08:21:53.000Z</time>
      </trkpt>
      <trkpt lat="43.48" lon="-1.115">
        <ele>3.4000000953674</ele>
        <time>2025-08-13T08:21:59.000Z</time>
      </trkpt>
      <trkpt lat="43.48009" lon="-1.11493">
        <ele>4</ele>
        <time>2025-08-13T08:22:03.000Z</time>
      </trkpt>
      <trkpt lat="43.48012" lon="-1.11492">
        <ele>4.1999998092651</ele>
        <time>2025-08-13T08:22:04.000Z</time>
      </trkpt>
      <trkpt lat="43.48029" lon="-1.11488">
        <ele>4.8000001907349</ele>
        <time>2025-08-13T08:22:09.000Z</time>
      </trkpt>
      <trkpt lat="43.48052" lon="-1.11486">
        <ele>4.8000001907349</ele>
        <time>2025-08-13T08:22:15.000Z</time>
      </trkpt>
      <trkpt lat="43.48078" lon="-1.11482">
        <ele>4.8000001907349</ele>
        <time>2025-08-13T08:22:21.000Z</time>
      </trkpt>
      <trkpt lat="43.48115" lon="-1.11482">
        <ele>4.5999999046326</ele>
        <time>2025-08-13T08:22:29.000Z</time>
      </trkpt>
      <trkpt lat="43.4812" lon="-1.11483">
        <ele>4.5999999046326</ele>
        <time>2025-08-13T08:22:30.000Z</time>
      </trkpt>
      <trkpt lat="43.48152" lon="-1.1149">
        <ele>4.5999999046326</ele>
        <time>2025-08-13T08:22:37.000Z</time>
      </trkpt>
      <trkpt lat="43.48182" lon="-1.11497">
        <ele>4.8000001907349</ele>
        <time>2025-08-13T08:22:44.000Z</time>
      </trkpt>
      <trkpt lat="43.48186" lon="-1.11499">
        <ele>5</ele>
        <time>2025-08-13T08:22:45.000Z</time>
      </trkpt>
      <trkpt lat="43.48216" lon="-1.11504">
        <ele>5.1999998092651</ele>
        <time>2025-08-13T08:22:51.000Z</time>
      </trkpt>
      <trkpt lat="43.48223" lon="-1.11505">
        <ele>5.1999998092651</ele>
        <time>2025-08-13T08:22:52.000Z</time>
      </trkpt>
      <trkpt lat="43.48235" lon="-1.11509">
        <ele>5.1999998092651</ele>
        <time>2025-08-13T08:22:54.000Z</time>
      </trkpt>
      <trkpt lat="43.48245" lon="-1.11516">
        <ele>5</ele>
        <time>2025-08-13T08:22:56.000Z</time>
      </trkpt>
      <trkpt lat="43.48261" lon="-1.11531">
        <ele>4.8000001907349</ele>
        <time>2025-08-13T08:23:00.000Z</time>
      </trkpt>
      <trkpt lat="43.48276" lon="-1.11549">
        <ele>5</ele>
        <time>2025-08-13T08:23:04.000Z</time>
      </trkpt>
      <trkpt lat="43.48283" lon="-1.11559">
        <ele>5</ele>
        <time>2025-08-13T08:23:06.000Z</time>
      </trkpt>
      <trkpt lat="43.48289" lon="-1.11571">
        <ele>5</ele>
        <time>2025-08-13T08:23:08.000Z</time>
      </trkpt>
      <trkpt lat="43.48294" lon="-1.11589">
        <ele>5</ele>
        <time>2025-08-13T08:23:11.000Z</time>
      </trkpt>
      <trkpt lat="43.48297" lon="-1.11601">
        <ele>5</ele>
        <time>2025-08-13T08:23:13.000Z</time>
      </trkpt>
      <trkpt lat="43.48305" lon="-1.1162">
        <ele>5.1999998092651</ele>
        <time>2025-08-13T08:23:17.000Z</time>
      </trkpt>
      <trkpt lat="43.48319" lon="-1.1165">
        <ele>5.5999999046326</ele>
        <time>2025-08-13T08:23:23.000Z</time>
      </trkpt>
      <trkpt lat="43.48331" lon="-1.11671">
        <ele>5.8000001907349</ele>
        <time>2025-08-13T08:23:27.000Z</time>
      </trkpt>
      <trkpt lat="43.48337" lon="-1.1168">
        <ele>5.5999999046326</ele>
        <time>2025-08-13T08:23:29.000Z</time>
      </trkpt>
      <trkpt lat="43.48355" lon="-1.11711">
        <ele>5.1999998092651</ele>
        <time>2025-08-13T08:23:36.000Z</time>
      </trkpt>
      <trkpt lat="43.48373" lon="-1.11744">
        <ele>5.4000000953674</ele>
        <time>2025-08-13T08:23:43.000Z</time>
      </trkpt>
      <trkpt lat="43.48379" lon="-1.11753">
        <ele>5.4000000953674</ele>
        <time>2025-08-13T08:23:45.000Z</time>
      </trkpt>
      <trkpt lat="43.48406" lon="-1.11791">
        <ele>5.4000000953674</ele>
        <time>2025-08-13T08:23:53.000Z</time>
      </trkpt>
      <trkpt lat="43.48439" lon="-1.11832">
        <ele>5</ele>
        <time>2025-08-13T08:24:01.000Z</time>
      </trkpt>
      <trkpt lat="43.48479" lon="-1.11883">
        <ele>4.4000000953674</ele>
        <time>2025-08-13T08:24:11.000Z</time>
      </trkpt>
      <trkpt lat="43.48494" lon="-1.11903">
        <ele>4.1999998092651</ele>
        <time>2025-08-13T08:24:15.000Z</time>
      </trkpt>
      <trkpt lat="43.48501" lon="-1.11913">
        <ele>4</ele>
        <time>2025-08-13T08:24:17.000Z</time>
      </trkpt>
      <trkpt lat="43.48525" lon="-1.11946">
        <ele>4</ele>
        <time>2025-08-13T08:24:24.000Z</time>
      </trkpt>
      <trkpt lat="43.48534" lon="-1.11961">
        <ele>4.1999998092651</ele>
        <time>2025-08-13T08:24:27.000Z</time>
      </trkpt>
      <trkpt lat="43.48544" lon="-1.11975">
        <ele>4.1999998092651</ele>
        <time>2025-08-13T08:24:30.000Z</time>
      </trkpt>
      <trkpt lat="43.48571" lon="-1.12014">
        <ele>4.1999998092651</ele>
        <time>2025-08-13T08:24:38.000Z</time>
      </trkpt>
      <trkpt lat="43.48573" lon="-1.12019">
        <ele>4.1999998092651</ele>
        <time>2025-08-13T08:24:39.000Z</time>
      </trkpt>
      <trkpt lat="43.48575" lon="-1.12025">
        <ele>4.1999998092651</ele>
        <time>2025-08-13T08:24:40.000Z</time>
      </trkpt>
      <trkpt lat="43.48574" lon="-1.12039">
        <ele>4.1999998092651</ele>
        <time>2025-08-13T08:24:42.000Z</time>
      </trkpt>
      <trkpt lat="43.48571" lon="-1.12081">
        <ele>3.7999999523163</ele>
        <time>2025-08-13T08:24:47.000Z</time>
      </trkpt>
      <trkpt lat="43.48567" lon="-1.12107">
        <ele>3</ele>
        <time>2025-08-13T08:24:50.000Z</time>
      </trkpt>
      <trkpt lat="43.48563" lon="-1.12122">
        <ele>2.5999999046326</ele>
        <time>2025-08-13T08:24:52.000Z</time>
      </trkpt>
      <trkpt lat="43.48543" lon="-1.12192">
        <ele>2</ele>
        <time>2025-08-13T08:25:01.000Z</time>
      </trkpt>
      <trkpt lat="43.48531" lon="-1.12233">
        <ele>1.7999999523163</ele>
        <time>2025-08-13T08:25:07.000Z</time>
      </trkpt>
      <trkpt lat="43.48528" lon="-1.12247">
        <ele>1.7999999523163</ele>
        <time>2025-08-13T08:25:09.000Z</time>
      </trkpt>
      <trkpt lat="43.48529" lon="-1.12262">
        <ele>1.7999999523163</ele>
        <time>2025-08-13T08:25:11.000Z</time>
      </trkpt>
      <trkpt lat="43.48533" lon="-1.12274">
        <ele>1.7999999523163</ele>
        <time>2025-08-13T08:25:13.000Z</time>
      </trkpt>
      <trkpt lat="43.48536" lon="-1.1228">
        <ele>2</ele>
        <time>2025-08-13T08:25:14.000Z</time>
      </trkpt>
      <trkpt lat="43.48545" lon="-1.12297">
        <ele>2.2000000476837</ele>
        <time>2025-08-13T08:25:17.000Z</time>
      </trkpt>
      <trkpt lat="43.48551" lon="-1.12309">
        <ele>2.2000000476837</ele>
        <time>2025-08-13T08:25:19.000Z</time>
      </trkpt>
      <trkpt lat="43.48554" lon="-1.12314">
        <ele>2.2000000476837</ele>
        <time>2025-08-13T08:25:20.000Z</time>
      </trkpt>
      <trkpt lat="43.48558" lon="-1.12319">
        <ele>2.2000000476837</ele>
        <time>2025-08-13T08:25:21.000Z</time>
      </trkpt>
      <trkpt lat="43.48568" lon="-1.12343">
        <ele>2.2000000476837</ele>
        <time>2025-08-13T08:25:25.000Z</time>
      </trkpt>
      <trkpt lat="43.48577" lon="-1.12365">
        <ele>2.2000000476837</ele>
        <time>2025-08-13T08:25:29.000Z</time>
      </trkpt>
      <trkpt lat="43.48581" lon="-1.12384">
        <ele>2.2000000476837</ele>
        <time>2025-08-13T08:25:32.000Z</time>
      </trkpt>
      <trkpt lat="43.48589" lon="-1.12453">
        <ele>2</ele>
        <time>2025-08-13T08:25:43.000Z</time>
      </trkpt>
      <trkpt lat="43.4859" lon="-1.12459">
        <ele>2</ele>
        <time>2025-08-13T08:25:44.000Z</time>
      </trkpt>
      <trkpt lat="43.48592" lon="-1.12482">
        <ele>2</ele>
        <time>2025-08-13T08:25:48.000Z</time>
      </trkpt>
      <trkpt lat="43.48592" lon="-1.12496">
        <ele>2</ele>
        <time>2025-08-13T08:25:50.000Z</time>
      </trkpt>
      <trkpt lat="43.48592" lon="-1.12545">
        <ele>2</ele>
        <time>2025-08-13T08:25:57.000Z</time>
      </trkpt>
      <trkpt lat="43.48585" lon="-1.12619">
        <ele>2</ele>
        <time>2025-08-13T08:26:08.000Z</time>
      </trkpt>
      <trkpt lat="43.48585" lon="-1.12625">
        <ele>2</ele>
        <time>2025-08-13T08:26:09.000Z</time>
      </trkpt>
      <trkpt lat="43.48577" lon="-1.12692">
        <ele>1.7999999523163</ele>
        <time>2025-08-13T08:26:19.000Z</time>
      </trkpt>
      <trkpt lat="43.48575" lon="-1.12738">
        <ele>1.7999999523163</ele>
        <time>2025-08-13T08:26:26.000Z</time>
      </trkpt>
      <trkpt lat="43.48576" lon="-1.12745">
        <ele>1.7999999523163</ele>
        <time>2025-08-13T08:26:27.000Z</time>
      </trkpt>
      <trkpt lat="43.48577" lon="-1.1275">
        <ele>1.6000000238419</ele>
        <time>2025-08-13T08:26:28.000Z</time>
      </trkpt>
      <trkpt lat="43.48582" lon="-1.12763">
        <ele>1.6000000238419</ele>
        <time>2025-08-13T08:26:30.000Z</time>
      </trkpt>
      <trkpt lat="43.48585" lon="-1.12768">
        <ele>1.6000000238419</ele>
        <time>2025-08-13T08:26:31.000Z</time>
      </trkpt>
      <trkpt lat="43.48592" lon="-1.12778">
        <ele>1.6000000238419</ele>
        <time>2025-08-13T08:26:33.000Z</time>
      </trkpt>
      <trkpt lat="43.48601" lon="-1.12786">
        <ele>1.3999999761581</ele>
        <time>2025-08-13T08:26:35.000Z</time>
      </trkpt>
      <trkpt lat="43.48606" lon="-1.12789">
        <ele>1.3999999761581</ele>
        <time>2025-08-13T08:26:36.000Z</time>
      </trkpt>
      <trkpt lat="43.48643" lon="-1.12807">
        <ele>1.2000000476837</ele>
        <time>2025-08-13T08:26:44.000Z</time>
      </trkpt>
      <trkpt lat="43.48679" lon="-1.12834">
        <ele>1.2000000476837</ele>
        <time>2025-08-13T08:26:52.000Z</time>
      </trkpt>
      <trkpt lat="43.48704" lon="-1.12858">
        <ele>1</ele>
        <time>2025-08-13T08:26:58.000Z</time>
      </trkpt>
      <trkpt lat="43.48732" lon="-1.12873">
        <ele>1</ele>
        <time>2025-08-13T08:27:04.000Z</time>
      </trkpt>
      <trkpt lat="43.48779" lon="-1.12883">
        <ele>1</ele>
        <time>2025-08-13T08:27:14.000Z</time>
      </trkpt>
      <trkpt lat="43.48836" lon="-1.12891">
        <ele>1</ele>
        <time>2025-08-13T08:27:26.000Z</time>
      </trkpt>
      <trkpt lat="43.48883" lon="-1.12899">
        <ele>1</ele>
        <time>2025-08-13T08:27:36.000Z</time>
      </trkpt>
      <trkpt lat="43.48927" lon="-1.12907">
        <ele>1</ele>
        <time>2025-08-13T08:27:45.000Z</time>
      </trkpt>
      <trkpt lat="43.48961" lon="-1.129">
        <ele>1</ele>
        <time>2025-08-13T08:27:52.000Z</time>
      </trkpt>
      <trkpt lat="43.4901" lon="-1.12889">
        <ele>1</ele>
        <time>2025-08-13T08:28:02.000Z</time>
      </trkpt>
      <trkpt lat="43.49064" lon="-1.12881">
        <ele>1</ele>
        <time>2025-08-13T08:28:13.000Z</time>
      </trkpt>
      <trkpt lat="43.49114" lon="-1.12876">
        <ele>1.2000000476837</ele>
        <time>2025-08-13T08:28:23.000Z</time>
      </trkpt>
      <trkpt lat="43.49159" lon="-1.12886">
        <ele>1.2000000476837</ele>
        <time>2025-08-13T08:28:32.000Z</time>
      </trkpt>
      <trkpt lat="43.49206" lon="-1.12903">
        <ele>1.2000000476837</ele>
        <time>2025-08-13T08:28:42.000Z</time>
      </trkpt>
      <trkpt lat="43.49249" lon="-1.12921">
        <ele>1</ele>
        <time>2025-08-13T08:28:51.000Z</time>
      </trkpt>
      <trkpt lat="43.49272" lon="-1.12934">
        <ele>1</ele>
        <time>2025-08-13T08:28:56.000Z</time>
      </trkpt>
      <trkpt lat="43.49286" lon="-1.1294">
        <ele>0.80000001192093</ele>
        <time>2025-08-13T08:28:59.000Z</time>
      </trkpt>
      <trkpt lat="43.49327" lon="-1.12965">
        <ele>1</ele>
        <time>2025-08-13T08:29:08.000Z</time>
      </trkpt>
      <trkpt lat="43.49371" lon="-1.12992">
        <ele>1</ele>
        <time>2025-08-13T08:29:18.000Z</time>
      </trkpt>
      <trkpt lat="43.49424" lon="-1.13024">
        <ele>1</ele>
        <time>2025-08-13T08:29:30.000Z</time>
      </trkpt>
      <trkpt lat="43.49475" lon="-1.13052">
        <ele>1</ele>
        <time>2025-08-13T08:29:41.000Z</time>
      </trkpt>
      <trkpt lat="43.49497" lon="-1.13065">
        <ele>1</ele>
        <time>2025-08-13T08:29:46.000Z</time>
      </trkpt>
      <trkpt lat="43.49538" lon="-1.13091">
        <ele>1</ele>
        <time>2025-08-13T08:29:55.000Z</time>
      </trkpt>
      <trkpt lat="43.49574" lon="-1.13118">
        <ele>0.80000001192093</ele>
        <time>2025-08-13T08:30:03.000Z</time>
      </trkpt>
      <trkpt lat="43.49595" lon="-1.13135">
        <ele>0.80000001192093</ele>
        <time>2025-08-13T08:30:08.000Z</time>
      </trkpt>
      <trkpt lat="43.49608" lon="-1.13145">
        <ele>1</ele>
        <time>2025-08-13T08:30:11.000Z</time>
      </trkpt>
      <trkpt lat="43.49639" lon="-1.13165">
        <ele>1.2000000476837</ele>
        <time>2025-08-13T08:30:18.000Z</time>
      </trkpt>
      <trkpt lat="43.49673" lon="-1.13186">
        <ele>1.2000000476837</ele>
        <time>2025-08-13T08:30:26.000Z</time>
      </trkpt>
      <trkpt lat="43.49683" lon="-1.13193">
        <ele>0.80000001192093</ele>
        <time>2025-08-13T08:30:29.000Z</time>
      </trkpt>
      <trkpt lat="43.49689" lon="-1.13199">
        <ele>1</ele>
        <time>2025-08-13T08:30:31.000Z</time>
      </trkpt>
      <trkpt lat="43.49707" lon="-1.13208">
        <ele>1</ele>
        <time>2025-08-13T08:30:36.000Z</time>
      </trkpt>
      <trkpt lat="43.49745" lon="-1.13219">
        <ele>1</ele>
        <time>2025-08-13T08:30:46.000Z</time>
      </trkpt>
      <trkpt lat="43.49769" lon="-1.13226">
        <ele>1.2000000476837</ele>
        <time>2025-08-13T08:30:53.000Z</time>
      </trkpt>
      <trkpt lat="43.49796" lon="-1.13232">
        <ele>2</ele>
        <time>2025-08-13T08:31:01.000Z</time>
      </trkpt>
      <trkpt lat="43.49821" lon="-1.1324">
        <ele>2</ele>
        <time>2025-08-13T08:31:08.000Z</time>
      </trkpt>
      <trkpt lat="43.49858" lon="-1.13247">
        <ele>2.2000000476837</ele>
        <time>2025-08-13T08:31:17.000Z</time>
      </trkpt>
      <trkpt lat="43.499" lon="-1.1326">
        <ele>2.2000000476837</ele>
        <time>2025-08-13T08:31:27.000Z</time>
      </trkpt>
      <trkpt lat="43.49935" lon="-1.13269">
        <ele>2.2000000476837</ele>
        <time>2025-08-13T08:31:35.000Z</time>
      </trkpt>
      <trkpt lat="43.49948" lon="-1.13274">
        <ele>2.2000000476837</ele>
        <time>2025-08-13T08:31:38.000Z</time>
      </trkpt>
      <trkpt lat="43.4996" lon="-1.13283">
        <ele>2.2000000476837</ele>
        <time>2025-08-13T08:31:41.000Z</time>
      </trkpt>
      <trkpt lat="43.49967" lon="-1.13289">
        <ele>2.2000000476837</ele>
        <time>2025-08-13T08:31:43.000Z</time>
      </trkpt>
      <trkpt lat="43.49974" lon="-1.13296">
        <ele>2.2000000476837</ele>
        <time>2025-08-13T08:31:45.000Z</time>
      </trkpt>
      <trkpt lat="43.49977" lon="-1.133">
        <ele>2.2000000476837</ele>
        <time>2025-08-13T08:31:46.000Z</time>
      </trkpt>
      <trkpt lat="43.4998" lon="-1.13305">
        <ele>2.2000000476837</ele>
        <time>2025-08-13T08:31:47.000Z</time>
      </trkpt>
      <trkpt lat="43.49985" lon="-1.13314">
        <ele>2.4000000953674</ele>
        <time>2025-08-13T08:31:49.000Z</time>
      </trkpt>
      <trkpt lat="43.49993" lon="-1.13329">
        <ele>2.4000000953674</ele>
        <time>2025-08-13T08:31:52.000Z</time>
      </trkpt>
      <trkpt lat="43.49997" lon="-1.13339">
        <ele>2.4000000953674</ele>
        <time>2025-08-13T08:31:54.000Z</time>
      </trkpt>
      <trkpt lat="43.50007" lon="-1.13365">
        <ele>2.4000000953674</ele>
        <time>2025-08-13T08:31:59.000Z</time>
      </trkpt>
      <trkpt lat="43.50012" lon="-1.13392">
        <ele>2.4000000953674</ele>
        <time>2025-08-13T08:32:04.000Z</time>
      </trkpt>
      <trkpt lat="43.50013" lon="-1.13398">
        <ele>2.4000000953674</ele>
        <time>2025-08-13T08:32:05.000Z</time>
      </trkpt>
      <trkpt lat="43.50023" lon="-1.1345">
        <ele>2.4000000953674</ele>
        <time>2025-08-13T08:32:13.000Z</time>
      </trkpt>
      <trkpt lat="43.50032" lon="-1.13494">
        <ele>2.4000000953674</ele>
        <time>2025-08-13T08:32:20.000Z</time>
      </trkpt>
      <trkpt lat="43.50034" lon="-1.13506">
        <ele>2.4000000953674</ele>
        <time>2025-08-13T08:32:22.000Z</time>
      </trkpt>
      <trkpt lat="43.50035" lon="-1.13517">
        <ele>2.4000000953674</ele>
        <time>2025-08-13T08:32:24.000Z</time>
      </trkpt>
      <trkpt lat="43.50036" lon="-1.13534">
        <ele>2.4000000953674</ele>
        <time>2025-08-13T08:32:27.000Z</time>
      </trkpt>
      <trkpt lat="43.50044" lon="-1.13573">
        <ele>2.4000000953674</ele>
        <time>2025-08-13T08:32:33.000Z</time>
      </trkpt>
      <trkpt lat="43.50047" lon="-1.13592">
        <ele>2.5999999046326</ele>
        <time>2025-08-13T08:32:36.000Z</time>
      </trkpt>
      <trkpt lat="43.50049" lon="-1.1361">
        <ele>2.5999999046326</ele>
        <time>2025-08-13T08:32:39.000Z</time>
      </trkpt>
      <trkpt lat="43.50051" lon="-1.13622">
        <ele>2.5999999046326</ele>
        <time>2025-08-13T08:32:41.000Z</time>
      </trkpt>
      <trkpt lat="43.50054" lon="-1.13654">
        <ele>2.5999999046326</ele>
        <time>2025-08-13T08:32:46.000Z</time>
      </trkpt>
      <trkpt lat="43.50053" lon="-1.13698">
        <ele>2.5999999046326</ele>
        <time>2025-08-13T08:32:53.000Z</time>
      </trkpt>
      <trkpt lat="43.50051" lon="-1.1371">
        <ele>2.5999999046326</ele>
        <time>2025-08-13T08:32:55.000Z</time>
      </trkpt>
      <trkpt lat="43.50042" lon="-1.13733">
        <ele>2.5999999046326</ele>
        <time>2025-08-13T08:32:59.000Z</time>
      </trkpt>
      <trkpt lat="43.50026" lon="-1.13765">
        <ele>2.7999999523163</ele>
        <time>2025-08-13T08:33:05.000Z</time>
      </trkpt>
      <trkpt lat="43.50017" lon="-1.1378">
        <ele>2.7999999523163</ele>
        <time>2025-08-13T08:33:08.000Z</time>
      </trkpt>
      <trkpt lat="43.49982" lon="-1.1383">
        <ele>2.4000000953674</ele>
        <time>2025-08-13T08:33:19.000Z</time>
      </trkpt>
      <trkpt lat="43.49951" lon="-1.13866">
        <ele>2.5999999046326</ele>
        <time>2025-08-13T08:33:28.000Z</time>
      </trkpt>
      <trkpt lat="43.49908" lon="-1.13908">
        <ele>2.4000000953674</ele>
        <time>2025-08-13T08:33:40.000Z</time>
      </trkpt>
      <trkpt lat="43.49898" lon="-1.13919">
        <ele>2.4000000953674</ele>
        <time>2025-08-13T08:33:43.000Z</time>
      </trkpt>
      <trkpt lat="43.49885" lon="-1.13929">
        <ele>2.4000000953674</ele>
        <time>2025-08-13T08:33:46.000Z</time>
      </trkpt>
      <trkpt lat="43.49845" lon="-1.13953">
        <ele>2.5999999046326</ele>
        <time>2025-08-13T08:33:56.000Z</time>
      </trkpt>
      <trkpt lat="43.49802" lon="-1.13975">
        <ele>2.4000000953674</ele>
        <time>2025-08-13T08:34:06.000Z</time>
      </trkpt>
      <trkpt lat="43.49758" lon="-1.13994">
        <ele>2.5999999046326</ele>
        <time>2025-08-13T08:34:16.000Z</time>
      </trkpt>
      <trkpt lat="43.49717" lon="-1.14">
        <ele>2.5999999046326</ele>
        <time>2025-08-13T08:34:25.000Z</time>
      </trkpt>
      <trkpt lat="43.49677" lon="-1.14001">
        <ele>2.4000000953674</ele>
        <time>2025-08-13T08:34:34.000Z</time>
      </trkpt>
      <trkpt lat="43.49623" lon="-1.1399">
        <ele>2.7999999523163</ele>
        <time>2025-08-13T08:34:46.000Z</time>
      </trkpt>
      <trkpt lat="43.49593" lon="-1.13984">
        <ele>2.7999999523163</ele>
        <time>2025-08-13T08:34:53.000Z</time>
      </trkpt>
      <trkpt lat="43.49539" lon="-1.13973">
        <ele>2.7999999523163</ele>
        <time>2025-08-13T08:35:05.000Z</time>
      </trkpt>
      <trkpt lat="43.49502" lon="-1.13965">
        <ele>2.7999999523163</ele>
        <time>2025-08-13T08:35:13.000Z</time>
      </trkpt>
      <trkpt lat="43.49462" lon="-1.13955">
        <ele>2.5999999046326</ele>
        <time>2025-08-13T08:35:22.000Z</time>
      </trkpt>
      <trkpt lat="43.49458" lon="-1.13953">
        <ele>2.5999999046326</ele>
        <time>2025-08-13T08:35:23.000Z</time>
      </trkpt>
      <trkpt lat="43.4945" lon="-1.13949">
        <ele>2.5999999046326</ele>
        <time>2025-08-13T08:35:25.000Z</time>
      </trkpt>
      <trkpt lat="43.49433" lon="-1.13943">
        <ele>2.5999999046326</ele>
        <time>2025-08-13T08:35:29.000Z</time>
      </trkpt>
      <trkpt lat="43.49397" lon="-1.1393">
        <ele>2.5999999046326</ele>
        <time>2025-08-13T08:35:37.000Z</time>
      </trkpt>
      <trkpt lat="43.49356" lon="-1.13918">
        <ele>2.5999999046326</ele>
        <time>2025-08-13T08:35:46.000Z</time>
      </trkpt>
      <trkpt lat="43.49312" lon="-1.13909">
        <ele>2.5999999046326</ele>
        <time>2025-08-13T08:35:56.000Z</time>
      </trkpt>
      <trkpt lat="43.49257" lon="-1.13899">
        <ele>2.7999999523163</ele>
        <time>2025-08-13T08:36:08.000Z</time>
      </trkpt>
      <trkpt lat="43.49229" lon="-1.13895">
        <ele>2.5999999046326</ele>
        <time>2025-08-13T08:36:14.000Z</time>
      </trkpt>
      <trkpt lat="43.49224" lon="-1.13895">
        <ele>2.5999999046326</ele>
        <time>2025-08-13T08:36:15.000Z</time>
      </trkpt>
      <trkpt lat="43.49169" lon="-1.13896">
        <ele>2.7999999523163</ele>
        <time>2025-08-13T08:36:27.000Z</time>
      </trkpt>
      <trkpt lat="43.49123" lon="-1.13901">
        <ele>2.7999999523163</ele>
        <time>2025-08-13T08:36:37.000Z</time>
      </trkpt>
      <trkpt lat="43.49083" lon="-1.13908">
        <ele>2.7999999523163</ele>
        <time>2025-08-13T08:36:46.000Z</time>
      </trkpt>
      <trkpt lat="43.49041" lon="-1.13916">
        <ele>2.5999999046326</ele>
        <time>2025-08-13T08:36:55.000Z</time>
      </trkpt>
      <trkpt lat="43.49037" lon="-1.13917">
        <ele>2.5999999046326</ele>
        <time>2025-08-13T08:36:56.000Z</time>
      </trkpt>
      <trkpt lat="43.49011" lon="-1.13927">
        <ele>2.5999999046326</ele>
        <time>2025-08-13T08:37:02.000Z</time>
      </trkpt>
      <trkpt lat="43.48999" lon="-1.13935">
        <ele>2.5999999046326</ele>
        <time>2025-08-13T08:37:05.000Z</time>
      </trkpt>
      <trkpt lat="43.48982" lon="-1.1395">
        <ele>2.7999999523163</ele>
        <time>2025-08-13T08:37:10.000Z</time>
      </trkpt>
      <trkpt lat="43.48976" lon="-1.13958">
        <ele>2.7999999523163</ele>
        <time>2025-08-13T08:37:12.000Z</time>
      </trkpt>
      <trkpt lat="43.48971" lon="-1.13967">
        <ele>2.7999999523163</ele>
        <time>2025-08-13T08:37:14.000Z</time>
      </trkpt>
      <trkpt lat="43.48967" lon="-1.13978">
        <ele>3</ele>
        <time>2025-08-13T08:37:17.000Z</time>
      </trkpt>
      <trkpt lat="43.48958" lon="-1.13982">
        <ele>3.2000000476837</ele>
        <time>2025-08-13T08:37:21.000Z</time>
      </trkpt>
      <trkpt lat="43.4895" lon="-1.1397">
        <ele>3.5999999046326</ele>
        <time>2025-08-13T08:37:25.000Z</time>
      </trkpt>
      <trkpt lat="43.48941" lon="-1.13957">
        <ele>4.1999998092651</ele>
        <time>2025-08-13T08:37:29.000Z</time>
      </trkpt>
      <trkpt lat="43.48936" lon="-1.13951">
        <ele>4.5999999046326</ele>
        <time>2025-08-13T08:37:31.000Z</time>
      </trkpt>
      <trkpt lat="43.48922" lon="-1.13929">
        <ele>5.1999998092651</ele>
        <time>2025-08-13T08:37:38.000Z</time>
      </trkpt>
      <trkpt lat="43.48905" lon="-1.13905">
        <ele>5.1999998092651</ele>
        <time>2025-08-13T08:37:45.000Z</time>
      </trkpt>
      <trkpt lat="43.48901" lon="-1.139">
        <ele>5</ele>
        <time>2025-08-13T08:37:47.000Z</time>
      </trkpt>
      <trkpt lat="43.48898" lon="-1.13899">
        <ele>5</ele>
        <time>2025-08-13T08:37:49.000Z</time>
      </trkpt>
      <trkpt lat="43.48896" lon="-1.13898">
        <ele>4.4000000953674</ele>
        <time>2025-08-13T08:37:52.000Z</time>
      </trkpt>
      <trkpt lat="43.48894" lon="-1.139">
        <ele>3.7999999523163</ele>
        <time>2025-08-13T08:39:32.000Z</time>
      </trkpt>
      <trkpt lat="43.48897" lon="-1.13906">
        <ele>3.4000000953674</ele>
        <time>2025-08-13T08:39:36.000Z</time>
      </trkpt>
      <trkpt lat="43.48899" lon="-1.13913">
        <ele>3.4000000953674</ele>
        <time>2025-08-13T08:39:40.000Z</time>
      </trkpt>
      <trkpt lat="43.48901" lon="-1.13919">
        <ele>3.4000000953674</ele>
        <time>2025-08-13T08:39:45.000Z</time>
      </trkpt>
      <trkpt lat="43.489" lon="-1.13921">
        <ele>3.4000000953674</ele>
        <time>2025-08-13T08:39:47.000Z</time>
      </trkpt>
      <trkpt lat="43.48901" lon="-1.13924">
        <ele>3.2000000476837</ele>
        <time>2025-08-13T08:39:53.000Z</time>
      </trkpt>
      <trkpt lat="43.48898" lon="-1.13934">
        <ele>2.7999999523163</ele>
        <time>2025-08-13T08:45:05.000Z</time>
      </trkpt>
      <trkpt lat="43.48892" lon="-1.13956">
        <ele>2.5999999046326</ele>
        <time>2025-08-13T08:45:12.000Z</time>
      </trkpt>
      <trkpt lat="43.48883" lon="-1.13977">
        <ele>2.5999999046326</ele>
        <time>2025-08-13T08:45:17.000Z</time>
      </trkpt>
      <trkpt lat="43.48881" lon="-1.13981">
        <ele>2.5999999046326</ele>
        <time>2025-08-13T08:45:18.000Z</time>
      </trkpt>
      <trkpt lat="43.48868" lon="-1.14007">
        <ele>2.4000000953674</ele>
        <time>2025-08-13T08:45:24.000Z</time>
      </trkpt>
      <trkpt lat="43.4885" lon="-1.14043">
        <ele>2.4000000953674</ele>
        <time>2025-08-13T08:45:32.000Z</time>
      </trkpt>
      <trkpt lat="43.48833" lon="-1.14081">
        <ele>2.4000000953674</ele>
        <time>2025-08-13T08:45:40.000Z</time>
      </trkpt>
      <trkpt lat="43.48812" lon="-1.14136">
        <ele>2.4000000953674</ele>
        <time>2025-08-13T08:45:51.000Z</time>
      </trkpt>
      <trkpt lat="43.48794" lon="-1.14186">
        <ele>2.4000000953674</ele>
        <time>2025-08-13T08:46:01.000Z</time>
      </trkpt>
      <trkpt lat="43.4878" lon="-1.14233">
        <ele>2.5999999046326</ele>
        <time>2025-08-13T08:46:10.000Z</time>
      </trkpt>
      <trkpt lat="43.48767" lon="-1.14282">
        <ele>2.7999999523163</ele>
        <time>2025-08-13T08:46:19.000Z</time>
      </trkpt>
      <trkpt lat="43.48753" lon="-1.14332">
        <ele>2.7999999523163</ele>
        <time>2025-08-13T08:46:28.000Z</time>
      </trkpt>
      <trkpt lat="43.48744" lon="-1.14375">
        <ele>2.7999999523163</ele>
        <time>2025-08-13T08:46:37.000Z</time>
      </trkpt>
      <trkpt lat="43.48737" lon="-1.14411">
        <ele>2.7999999523163</ele>
        <time>2025-08-13T08:46:44.000Z</time>
      </trkpt>
      <trkpt lat="43.4873" lon="-1.14446">
        <ele>2.7999999523163</ele>
        <time>2025-08-13T08:46:51.000Z</time>
      </trkpt>
      <trkpt lat="43.48721" lon="-1.14503">
        <ele>2.4000000953674</ele>
        <time>2025-08-13T08:47:02.000Z</time>
      </trkpt>
      <trkpt lat="43.48719" lon="-1.1455">
        <ele>2.2000000476837</ele>
        <time>2025-08-13T08:47:11.000Z</time>
      </trkpt>
      <trkpt lat="43.48718" lon="-1.14576">
        <ele>2.2000000476837</ele>
        <time>2025-08-13T08:47:17.000Z</time>
      </trkpt>
      <trkpt lat="43.48717" lon="-1.1459">
        <ele>2.2000000476837</ele>
        <time>2025-08-13T08:47:22.000Z</time>
      </trkpt>
      <trkpt lat="43.48717" lon="-1.14604">
        <ele>2</ele>
        <time>2025-08-13T08:47:28.000Z</time>
      </trkpt>
      <trkpt lat="43.48718" lon="-1.14606">
        <ele>1.6000000238419</ele>
        <time>2025-08-13T08:47:30.000Z</time>
      </trkpt>
      <trkpt lat="43.48719" lon="-1.14609">
        <ele>1.2000000476837</ele>
        <time>2025-08-13T08:47:34.000Z</time>
      </trkpt>
      <trkpt lat="43.48719" lon="-1.14609">
        <ele>1.2000000476837</ele>
        <time>2025-08-13T08:47:35.000Z</time>
      </trkpt>
      <trkpt lat="43.48739" lon="-1.14697">
        <ele>2</ele>
        <time>2025-08-13T08:53:02.000Z</time>
      </trkpt>
      <trkpt lat="43.48742" lon="-1.14704">
        <ele>2</ele>
        <time>2025-08-13T08:53:05.000Z</time>
      </trkpt>
      <trkpt lat="43.48752" lon="-1.14727">
        <ele>2</ele>
        <time>2025-08-13T08:53:14.000Z</time>
      </trkpt>
      <trkpt lat="43.48761" lon="-1.14749">
        <ele>2</ele>
        <time>2025-08-13T08:53:22.000Z</time>
      </trkpt>
      <trkpt lat="43.48777" lon="-1.14776">
        <ele>2</ele>
        <time>2025-08-13T08:53:33.000Z</time>
      </trkpt>
      <trkpt lat="43.48792" lon="-1.148">
        <ele>2</ele>
        <time>2025-08-13T08:53:42.000Z</time>
      </trkpt>
      <trkpt lat="43.48809" lon="-1.14822">
        <ele>2</ele>
        <time>2025-08-13T08:53:50.000Z</time>
      </trkpt>
      <trkpt lat="43.4883" lon="-1.14843">
        <ele>2</ele>
        <time>2025-08-13T08:53:59.000Z</time>
      </trkpt>
      <trkpt lat="43.48853" lon="-1.1486">
        <ele>2</ele>
        <time>2025-08-13T08:54:07.000Z</time>
      </trkpt>
      <trkpt lat="43.48882" lon="-1.14878">
        <ele>2</ele>
        <time>2025-08-13T08:54:17.000Z</time>
      </trkpt>
      <trkpt lat="43.48904" lon="-1.14888">
        <ele>2</ele>
        <time>2025-08-13T08:54:25.000Z</time>
      </trkpt>
      <trkpt lat="43.48923" lon="-1.14897">
        <ele>2</ele>
        <time>2025-08-13T08:54:33.000Z</time>
      </trkpt>
      <trkpt lat="43.48943" lon="-1.14905">
        <ele>2</ele>
        <time>2025-08-13T08:54:41.000Z</time>
      </trkpt>
      <trkpt lat="43.48968" lon="-1.14913">
        <ele>1.7999999523163</ele>
        <time>2025-08-13T08:54:50.000Z</time>
      </trkpt>
      <trkpt lat="43.48986" lon="-1.14917">
        <ele>1.7999999523163</ele>
        <time>2025-08-13T08:54:58.000Z</time>
      </trkpt>
      <trkpt lat="43.4901" lon="-1.14922">
        <ele>1.7999999523163</ele>
        <time>2025-08-13T08:55:08.000Z</time>
      </trkpt>
      <trkpt lat="43.4904" lon="-1.14926">
        <ele>1.7999999523163</ele>
        <time>2025-08-13T08:55:18.000Z</time>
      </trkpt>
      <trkpt lat="43.49076" lon="-1.14926">
        <ele>2</ele>
        <time>2025-08-13T08:55:29.000Z</time>
      </trkpt>
      <trkpt lat="43.49101" lon="-1.14926">
        <ele>2</ele>
        <time>2025-08-13T08:55:36.000Z</time>
      </trkpt>
      <trkpt lat="43.49142" lon="-1.14925">
        <ele>1.7999999523163</ele>
        <time>2025-08-13T08:55:48.000Z</time>
      </trkpt>
      <trkpt lat="43.49177" lon="-1.14927">
        <ele>1.7999999523163</ele>
        <time>2025-08-13T08:55:58.000Z</time>
      </trkpt>
      <trkpt lat="43.49203" lon="-1.14927">
        <ele>1.7999999523163</ele>
        <time>2025-08-13T08:56:05.000Z</time>
      </trkpt>
      <trkpt lat="43.49241" lon="-1.1493">
        <ele>1.7999999523163</ele>
        <time>2025-08-13T08:56:16.000Z</time>
      </trkpt>
      <trkpt lat="43.4927" lon="-1.14932">
        <ele>1.7999999523163</ele>
        <time>2025-08-13T08:56:24.000Z</time>
      </trkpt>
      <trkpt lat="43.49302" lon="-1.14934">
        <ele>1.6000000238419</ele>
        <time>2025-08-13T08:56:33.000Z</time>
      </trkpt>
      <trkpt lat="43.4934" lon="-1.14937">
        <ele>2</ele>
        <time>2025-08-13T08:56:44.000Z</time>
      </trkpt>
      <trkpt lat="43.49369" lon="-1.14942">
        <ele>1.7999999523163</ele>
        <time>2025-08-13T08:56:52.000Z</time>
      </trkpt>
      <trkpt lat="43.49409" lon="-1.14953">
        <ele>1.6000000238419</ele>
        <time>2025-08-13T08:57:04.000Z</time>
      </trkpt>
      <trkpt lat="43.49442" lon="-1.14965">
        <ele>1.7999999523163</ele>
        <time>2025-08-13T08:57:13.000Z</time>
      </trkpt>
      <trkpt lat="43.49474" lon="-1.1498">
        <ele>1.7999999523163</ele>
        <time>2025-08-13T08:57:22.000Z</time>
      </trkpt>
      <trkpt lat="43.49507" lon="-1.14999">
        <ele>1.6000000238419</ele>
        <time>2025-08-13T08:57:32.000Z</time>
      </trkpt>
      <trkpt lat="43.49534" lon="-1.15024">
        <ele>1.6000000238419</ele>
        <time>2025-08-13T08:57:41.000Z</time>
      </trkpt>
      <trkpt lat="43.49567" lon="-1.15066">
        <ele>1.3999999761581</ele>
        <time>2025-08-13T08:57:53.000Z</time>
      </trkpt>
      <trkpt lat="43.49584" lon="-1.15092">
        <ele>1.3999999761581</ele>
        <time>2025-08-13T08:58:00.000Z</time>
      </trkpt>
      <trkpt lat="43.49591" lon="-1.15105">
        <ele>1.3999999761581</ele>
        <time>2025-08-13T08:58:03.000Z</time>
      </trkpt>
      <trkpt lat="43.49614" lon="-1.15152">
        <ele>1.3999999761581</ele>
        <time>2025-08-13T08:58:14.000Z</time>
      </trkpt>
      <trkpt lat="43.49632" lon="-1.15197">
        <ele>1.6000000238419</ele>
        <time>2025-08-13T08:58:24.000Z</time>
      </trkpt>
      <trkpt lat="43.49644" lon="-1.15239">
        <ele>1.3999999761581</ele>
        <time>2025-08-13T08:58:33.000Z</time>
      </trkpt>
      <trkpt lat="43.49655" lon="-1.15279">
        <ele>1.3999999761581</ele>
        <time>2025-08-13T08:58:41.000Z</time>
      </trkpt>
      <trkpt lat="43.49663" lon="-1.15328">
        <ele>1.2000000476837</ele>
        <time>2025-08-13T08:58:50.000Z</time>
      </trkpt>
      <trkpt lat="43.49671" lon="-1.15373">
        <ele>1</ele>
        <time>2025-08-13T08:58:59.000Z</time>
      </trkpt>
      <trkpt lat="43.49676" lon="-1.15421">
        <ele>0.80000001192093</ele>
        <time>2025-08-13T08:59:08.000Z</time>
      </trkpt>
      <trkpt lat="43.49679" lon="-1.15485">
        <ele>1</ele>
        <time>2025-08-13T08:59:20.000Z</time>
      </trkpt>
      <trkpt lat="43.49674" lon="-1.15532">
        <ele>1</ele>
        <time>2025-08-13T08:59:29.000Z</time>
      </trkpt>
      <trkpt lat="43.49669" lon="-1.15569">
        <ele>1</ele>
        <time>2025-08-13T08:59:37.000Z</time>
      </trkpt>
      <trkpt lat="43.49656" lon="-1.15616">
        <ele>1</ele>
        <time>2025-08-13T08:59:47.000Z</time>
      </trkpt>
      <trkpt lat="43.49642" lon="-1.15657">
        <ele>1.2000000476837</ele>
        <time>2025-08-13T08:59:56.000Z</time>
      </trkpt>
      <trkpt lat="43.49621" lon="-1.15701">
        <ele>1.2000000476837</ele>
        <time>2025-08-13T09:00:06.000Z</time>
      </trkpt>
      <trkpt lat="43.49596" lon="-1.1574">
        <ele>1</ele>
        <time>2025-08-13T09:00:16.000Z</time>
      </trkpt>
      <trkpt lat="43.49569" lon="-1.15779">
        <ele>1.2000000476837</ele>
        <time>2025-08-13T09:00:26.000Z</time>
      </trkpt>
      <trkpt lat="43.49529" lon="-1.15833">
        <ele>1</ele>
        <time>2025-08-13T09:00:40.000Z</time>
      </trkpt>
      <trkpt lat="43.49523" lon="-1.1584">
        <ele>1</ele>
        <time>2025-08-13T09:00:42.000Z</time>
      </trkpt>
      <trkpt lat="43.49504" lon="-1.15867">
        <ele>1.2000000476837</ele>
        <time>2025-08-13T09:00:49.000Z</time>
      </trkpt>
      <trkpt lat="43.49473" lon="-1.15902">
        <ele>1.2000000476837</ele>
        <time>2025-08-13T09:01:00.000Z</time>
      </trkpt>
      <trkpt lat="43.4945" lon="-1.15927">
        <ele>1.2000000476837</ele>
        <time>2025-08-13T09:01:08.000Z</time>
      </trkpt>
      <trkpt lat="43.49413" lon="-1.15965">
        <ele>1</ele>
        <time>2025-08-13T09:01:20.000Z</time>
      </trkpt>
      <trkpt lat="43.49374" lon="-1.16004">
        <ele>1</ele>
        <time>2025-08-13T09:01:32.000Z</time>
      </trkpt>
      <trkpt lat="43.49343" lon="-1.16036">
        <ele>1</ele>
        <time>2025-08-13T09:01:42.000Z</time>
      </trkpt>
      <trkpt lat="43.49311" lon="-1.16067">
        <ele>0.80000001192093</ele>
        <time>2025-08-13T09:01:52.000Z</time>
      </trkpt>
      <trkpt lat="43.49289" lon="-1.16084">
        <ele>0.80000001192093</ele>
        <time>2025-08-13T09:01:59.000Z</time>
      </trkpt>
      <trkpt lat="43.49268" lon="-1.16103">
        <ele>1.2000000476837</ele>
        <time>2025-08-13T09:02:06.000Z</time>
      </trkpt>
      <trkpt lat="43.49235" lon="-1.16136">
        <ele>1.3999999761581</ele>
        <time>2025-08-13T09:02:17.000Z</time>
      </trkpt>
      <trkpt lat="43.49204" lon="-1.16166">
        <ele>1</ele>
        <time>2025-08-13T09:02:27.000Z</time>
      </trkpt>
      <trkpt lat="43.49179" lon="-1.16191">
        <ele>0.80000001192093</ele>
        <time>2025-08-13T09:02:35.000Z</time>
      </trkpt>
      <trkpt lat="43.49159" lon="-1.16211">
        <ele>1</ele>
        <time>2025-08-13T09:02:42.000Z</time>
      </trkpt>
      <trkpt lat="43.49142" lon="-1.16235">
        <ele>0.80000001192093</ele>
        <time>2025-08-13T09:02:49.000Z</time>
      </trkpt>
      <trkpt lat="43.49121" lon="-1.16273">
        <ele>0.80000001192093</ele>
        <time>2025-08-13T09:02:59.000Z</time>
      </trkpt>
      <trkpt lat="43.4911" lon="-1.16298">
        <ele>0.80000001192093</ele>
        <time>2025-08-13T09:03:05.000Z</time>
      </trkpt>
      <trkpt lat="43.49093" lon="-1.1633">
        <ele>0.80000001192093</ele>
        <time>2025-08-13T09:03:12.000Z</time>
      </trkpt>
      <trkpt lat="43.49075" lon="-1.16378">
        <ele>1</ele>
        <time>2025-08-13T09:03:22.000Z</time>
      </trkpt>
      <trkpt lat="43.49067" lon="-1.16412">
        <ele>1</ele>
        <time>2025-08-13T09:03:29.000Z</time>
      </trkpt>
      <trkpt lat="43.49065" lon="-1.16444">
        <ele>1.2000000476837</ele>
        <time>2025-08-13T09:03:35.000Z</time>
      </trkpt>
      <trkpt lat="43.49057" lon="-1.16497">
        <ele>1.2000000476837</ele>
        <time>2025-08-13T09:03:45.000Z</time>
      </trkpt>
      <trkpt lat="43.49056" lon="-1.16531">
        <ele>1.2000000476837</ele>
        <time>2025-08-13T09:03:51.000Z</time>
      </trkpt>
      <trkpt lat="43.49062" lon="-1.16578">
        <ele>1.2000000476837</ele>
        <time>2025-08-13T09:03:59.000Z</time>
      </trkpt>
      <trkpt lat="43.49069" lon="-1.16612">
        <ele>1</ele>
        <time>2025-08-13T09:04:05.000Z</time>
      </trkpt>
      <trkpt lat="43.49072" lon="-1.16622">
        <ele>1</ele>
        <time>2025-08-13T09:04:07.000Z</time>
      </trkpt>
      <trkpt lat="43.49086" lon="-1.16658">
        <ele>1</ele>
        <time>2025-08-13T09:04:15.000Z</time>
      </trkpt>
      <trkpt lat="43.49092" lon="-1.16684">
        <ele>1</ele>
        <time>2025-08-13T09:04:20.000Z</time>
      </trkpt>
      <trkpt lat="43.49098" lon="-1.16711">
        <ele>1.2000000476837</ele>
        <time>2025-08-13T09:04:26.000Z</time>
      </trkpt>
      <trkpt lat="43.49113" lon="-1.1675">
        <ele>1.2000000476837</ele>
        <time>2025-08-13T09:04:33.000Z</time>
      </trkpt>
      <trkpt lat="43.49135" lon="-1.16788">
        <ele>1</ele>
        <time>2025-08-13T09:04:41.000Z</time>
      </trkpt>
      <trkpt lat="43.49159" lon="-1.16827">
        <ele>1</ele>
        <time>2025-08-13T09:04:50.000Z</time>
      </trkpt>
      <trkpt lat="43.49187" lon="-1.16871">
        <ele>1.2000000476837</ele>
        <time>2025-08-13T09:05:00.000Z</time>
      </trkpt>
      <trkpt lat="43.49216" lon="-1.16918">
        <ele>1</ele>
        <time>2025-08-13T09:05:11.000Z</time>
      </trkpt>
      <trkpt lat="43.49238" lon="-1.16947">
        <ele>1.2000000476837</ele>
        <time>2025-08-13T09:05:19.000Z</time>
      </trkpt>
      <trkpt lat="43.4927" lon="-1.16988">
        <ele>1.2000000476837</ele>
        <time>2025-08-13T09:05:30.000Z</time>
      </trkpt>
      <trkpt lat="43.49302" lon="-1.1702">
        <ele>1.2000000476837</ele>
        <time>2025-08-13T09:05:39.000Z</time>
      </trkpt>
      <trkpt lat="43.49333" lon="-1.17049">
        <ele>1</ele>
        <time>2025-08-13T09:05:48.000Z</time>
      </trkpt>
      <trkpt lat="43.49363" lon="-1.17068">
        <ele>1</ele>
        <time>2025-08-13T09:05:56.000Z</time>
      </trkpt>
      <trkpt lat="43.49392" lon="-1.17085">
        <ele>1</ele>
        <time>2025-08-13T09:06:04.000Z</time>
      </trkpt>
      <trkpt lat="43.49424" lon="-1.17094">
        <ele>0.80000001192093</ele>
        <time>2025-08-13T09:06:12.000Z</time>
      </trkpt>
      <trkpt lat="43.49457" lon="-1.17098">
        <ele>0.80000001192093</ele>
        <time>2025-08-13T09:06:20.000Z</time>
      </trkpt>
      <trkpt lat="43.49489" lon="-1.17098">
        <ele>0.80000001192093</ele>
        <time>2025-08-13T09:06:28.000Z</time>
      </trkpt>
      <trkpt lat="43.49532" lon="-1.17089">
        <ele>0.80000001192093</ele>
        <time>2025-08-13T09:06:38.000Z</time>
      </trkpt>
      <trkpt lat="43.49568" lon="-1.17078">
        <ele>0.80000001192093</ele>
        <time>2025-08-13T09:06:46.000Z</time>
      </trkpt>
      <trkpt lat="43.49573" lon="-1.17075">
        <ele>0.80000001192093</ele>
        <time>2025-08-13T09:06:47.000Z</time>
      </trkpt>
      <trkpt lat="43.49609" lon="-1.17063">
        <ele>0.60000002384186</ele>
        <time>2025-08-13T09:06:55.000Z</time>
      </trkpt>
      <trkpt lat="43.4963" lon="-1.17055">
        <ele>0.60000002384186</ele>
        <time>2025-08-13T09:07:00.000Z</time>
      </trkpt>
      <trkpt lat="43.49638" lon="-1.17051">
        <ele>0.60000002384186</ele>
        <time>2025-08-13T09:07:02.000Z</time>
      </trkpt>
      <trkpt lat="43.49674" lon="-1.17038">
        <ele>0.40000000596046</ele>
        <time>2025-08-13T09:07:11.000Z</time>
      </trkpt>
      <trkpt lat="43.49678" lon="-1.17036">
        <ele>0.40000000596046</ele>
        <time>2025-08-13T09:07:12.000Z</time>
      </trkpt>
      <trkpt lat="43.49697" lon="-1.17029">
        <ele>0.40000000596046</ele>
        <time>2025-08-13T09:07:17.000Z</time>
      </trkpt>
      <trkpt lat="43.49728" lon="-1.17013">
        <ele>0.40000000596046</ele>
        <time>2025-08-13T09:07:25.000Z</time>
      </trkpt>
      <trkpt lat="43.49759" lon="-1.16998">
        <ele>0.40000000596046</ele>
        <time>2025-08-13T09:07:33.000Z</time>
      </trkpt>
      <trkpt lat="43.49787" lon="-1.16984">
        <ele>0.40000000596046</ele>
        <time>2025-08-13T09:07:40.000Z</time>
      </trkpt>
      <trkpt lat="43.49818" lon="-1.1697">
        <ele>0.60000002384186</ele>
        <time>2025-08-13T09:07:48.000Z</time>
      </trkpt>
      <trkpt lat="43.49856" lon="-1.16949">
        <ele>0.80000001192093</ele>
        <time>2025-08-13T09:07:58.000Z</time>
      </trkpt>
      <trkpt lat="43.49875" lon="-1.16939">
        <ele>0.80000001192093</ele>
        <time>2025-08-13T09:08:03.000Z</time>
      </trkpt>
      <trkpt lat="43.49885" lon="-1.16933">
        <ele>0.80000001192093</ele>
        <time>2025-08-13T09:08:06.000Z</time>
      </trkpt>
      <trkpt lat="43.49918" lon="-1.1692">
        <ele>0.80000001192093</ele>
        <time>2025-08-13T09:08:15.000Z</time>
      </trkpt>
      <trkpt lat="43.49943" lon="-1.16908">
        <ele>0.80000001192093</ele>
        <time>2025-08-13T09:08:22.000Z</time>
      </trkpt>
      <trkpt lat="43.49988" lon="-1.16891">
        <ele>0.80000001192093</ele>
        <time>2025-08-13T09:08:33.000Z</time>
      </trkpt>
      <trkpt lat="43.50033" lon="-1.16876">
        <ele>0.60000002384186</ele>
        <time>2025-08-13T09:08:44.000Z</time>
      </trkpt>
      <trkpt lat="43.50075" lon="-1.1687">
        <ele>0.60000002384186</ele>
        <time>2025-08-13T09:08:54.000Z</time>
      </trkpt>
      <trkpt lat="43.50113" lon="-1.16873">
        <ele>0.60000002384186</ele>
        <time>2025-08-13T09:09:03.000Z</time>
      </trkpt>
      <trkpt lat="43.50141" lon="-1.16888">
        <ele>0.40000000596046</ele>
        <time>2025-08-13T09:09:10.000Z</time>
      </trkpt>
      <trkpt lat="43.50177" lon="-1.16917">
        <ele>0.40000000596046</ele>
        <time>2025-08-13T09:09:20.000Z</time>
      </trkpt>
      <trkpt lat="43.50209" lon="-1.16952">
        <ele>0.60000002384186</ele>
        <time>2025-08-13T09:09:30.000Z</time>
      </trkpt>
      <trkpt lat="43.50246" lon="-1.16998">
        <ele>0.20000000298023</ele>
        <time>2025-08-13T09:09:42.000Z</time>
      </trkpt>
      <trkpt lat="43.50271" lon="-1.1703">
        <ele>0.20000000298023</ele>
        <time>2025-08-13T09:09:50.000Z</time>
      </trkpt>
      <trkpt lat="43.50274" lon="-1.17034">
        <ele>0.20000000298023</ele>
        <time>2025-08-13T09:09:51.000Z</time>
      </trkpt>
      <trkpt lat="43.50296" lon="-1.17061">
        <ele>1.4</ele>
        <time>2025-08-13T09:09:58.000Z</time>
      </trkpt>
      <trkpt lat="43.50306" lon="-1.17073">
        <ele>1.6</ele>
        <time>2025-08-13T09:10:01.000Z</time>
      </trkpt>
      <trkpt lat="43.50336" lon="-1.17111">
        <ele>2.8</ele>
        <time>2025-08-13T09:10:11.000Z</time>
      </trkpt>
      <trkpt lat="43.50365" lon="-1.17142">
        <ele>0.20000000298023</ele>
        <time>2025-08-13T09:10:20.000Z</time>
      </trkpt>
      <trkpt lat="43.50393" lon="-1.17166">
        <ele>0.20000000298023</ele>
        <time>2025-08-13T09:10:28.000Z</time>
      </trkpt>
      <trkpt lat="43.50429" lon="-1.17192">
        <ele>0.40000000596046</ele>
        <time>2025-08-13T09:10:38.000Z</time>
      </trkpt>
      <trkpt lat="43.50459" lon="-1.17209">
        <ele>0.20000000298023</ele>
        <time>2025-08-13T09:10:47.000Z</time>
      </trkpt>
      <trkpt lat="43.50463" lon="-1.1721">
        <ele>0.40000000596046</ele>
        <time>2025-08-13T09:10:48.000Z</time>
      </trkpt>
      <trkpt lat="43.50506" lon="-1.17217">
        <ele>0.40000000596046</ele>
        <time>2025-08-13T09:10:58.000Z</time>
      </trkpt>
      <trkpt lat="43.50517" lon="-1.17217">
        <ele>0.40000000596046</ele>
        <time>2025-08-13T09:11:01.000Z</time>
      </trkpt>
      <trkpt lat="43.50526" lon="-1.17215">
        <ele>0.40000000596046</ele>
        <time>2025-08-13T09:11:03.000Z</time>
      </trkpt>
      <trkpt lat="43.50553" lon="-1.17198">
        <ele>0.40000000596046</ele>
        <time>2025-08-13T09:11:10.000Z</time>
      </trkpt>
      <trkpt lat="43.50563" lon="-1.17194">
        <ele>0.60000002384186</ele>
        <time>2025-08-13T09:11:13.000Z</time>
      </trkpt>
      <trkpt lat="43.5057" lon="-1.17194">
        <ele>0.60000002384186</ele>
        <time>2025-08-13T09:11:15.000Z</time>
      </trkpt>
      <trkpt lat="43.50587" lon="-1.17191">
        <ele>0.80000001192093</ele>
        <time>2025-08-13T09:11:20.000Z</time>
      </trkpt>
      <trkpt lat="43.50603" lon="-1.17165">
        <ele>1.2000000476837</ele>
        <time>2025-08-13T09:11:26.000Z</time>
      </trkpt>
      <trkpt lat="43.50609" lon="-1.17154">
        <ele>1.2000000476837</ele>
        <time>2025-08-13T09:11:28.000Z</time>
      </trkpt>
      <trkpt lat="43.50615" lon="-1.17143">
        <ele>1.2000000476837</ele>
        <time>2025-08-13T09:11:30.000Z</time>
      </trkpt>
      <trkpt lat="43.50618" lon="-1.17138">
        <ele>1.2000000476837</ele>
        <time>2025-08-13T09:11:31.000Z</time>
      </trkpt>
      <trkpt lat="43.50621" lon="-1.17132">
        <ele>1</ele>
        <time>2025-08-13T09:11:32.000Z</time>
      </trkpt>
      <trkpt lat="43.50629" lon="-1.17104">
        <ele>0.60000002384186</ele>
        <time>2025-08-13T09:11:37.000Z</time>
      </trkpt>
      <trkpt lat="43.5064" lon="-1.17063">
        <ele>0.20000000298023</ele>
        <time>2025-08-13T09:11:44.000Z</time>
      </trkpt>
      <trkpt lat="43.50652" lon="-1.17015">
        <ele>1.7</ele>
        <time>2025-08-13T09:11:53.000Z</time>
      </trkpt>
      <trkpt lat="43.5066" lon="-1.16984">
        <ele>2.5</ele>
        <time>2025-08-13T09:12:00.000Z</time>
      </trkpt>
      <trkpt lat="43.50669" lon="-1.16945">
        <ele>0.20000000298023</ele>
        <time>2025-08-13T09:12:09.000Z</time>
      </trkpt>
      <trkpt lat="43.50679" lon="-1.16901">
        <ele>0.40000000596046</ele>
        <time>2025-08-13T09:12:18.000Z</time>
      </trkpt>
      <trkpt lat="43.50693" lon="-1.16845">
        <ele>0.40000000596046</ele>
        <time>2025-08-13T09:12:29.000Z</time>
      </trkpt>
      <trkpt lat="43.50704" lon="-1.168">
        <ele>0.40000000596046</ele>
        <time>2025-08-13T09:12:38.000Z</time>
      </trkpt>
      <trkpt lat="43.50719" lon="-1.16757">
        <ele>0.40000000596046</ele>
        <time>2025-08-13T09:12:47.000Z</time>
      </trkpt>
      <trkpt lat="43.50738" lon="-1.16708">
        <ele>0.40000000596046</ele>
        <time>2025-08-13T09:12:57.000Z</time>
      </trkpt>
      <trkpt lat="43.50755" lon="-1.16664">
        <ele>0.40000000596046</ele>
        <time>2025-08-13T09:13:06.000Z</time>
      </trkpt>
      <trkpt lat="43.50777" lon="-1.16616">
        <ele>0.20000000298023</ele>
        <time>2025-08-13T09:13:16.000Z</time>
      </trkpt>
      <trkpt lat="43.50788" lon="-1.16598">
        <ele>0.20000000298023</ele>
        <time>2025-08-13T09:13:20.000Z</time>
      </trkpt>
      <trkpt lat="43.50799" lon="-1.16582">
        <ele>0.20000000298023</ele>
        <time>2025-08-13T09:13:24.000Z</time>
      </trkpt>
      <trkpt lat="43.50816" lon="-1.1656">
        <ele>0.20000000298023</ele>
        <time>2025-08-13T09:13:30.000Z</time>
      </trkpt>
      <trkpt lat="43.50823" lon="-1.16554">
        <ele>0.20000000298023</ele>
        <time>2025-08-13T09:13:32.000Z</time>
      </trkpt>
      <trkpt lat="43.50861" lon="-1.16514">
        <ele>0.20000000298023</ele>
        <time>2025-08-13T09:13:44.000Z</time>
      </trkpt>
      <trkpt lat="43.50905" lon="-1.16482">
        <ele>0.40000000596046</ele>
        <time>2025-08-13T09:13:56.000Z</time>
      </trkpt>
      <trkpt lat="43.50932" lon="-1.16467">
        <ele>0.40000000596046</ele>
        <time>2025-08-13T09:14:04.000Z</time>
      </trkpt>
      <trkpt lat="43.50957" lon="-1.16454">
        <ele>0.40000000596046</ele>
        <time>2025-08-13T09:14:11.000Z</time>
      </trkpt>
      <trkpt lat="43.50985" lon="-1.16441">
        <ele>0.80000001192093</ele>
        <time>2025-08-13T09:14:19.000Z</time>
      </trkpt>
      <trkpt lat="43.51007" lon="-1.1643">
        <ele>0.60000002384186</ele>
        <time>2025-08-13T09:14:25.000Z</time>
      </trkpt>
      <trkpt lat="43.51037" lon="-1.16417">
        <ele>0.20000000298023</ele>
        <time>2025-08-13T09:14:33.000Z</time>
      </trkpt>
      <trkpt lat="43.51064" lon="-1.1641">
        <ele>0.40000000596046</ele>
        <time>2025-08-13T09:14:40.000Z</time>
      </trkpt>
      <trkpt lat="43.511" lon="-1.16402">
        <ele>0.40000000596046</ele>
        <time>2025-08-13T09:14:49.000Z</time>
      </trkpt>
      <trkpt lat="43.51126" lon="-1.164">
        <ele>0.40000000596046</ele>
        <time>2025-08-13T09:14:56.000Z</time>
      </trkpt>
      <trkpt lat="43.51159" lon="-1.16402">
        <ele>0.60000002384186</ele>
        <time>2025-08-13T09:15:04.000Z</time>
      </trkpt>
      <trkpt lat="43.5119" lon="-1.16408">
        <ele>0.60000002384186</ele>
        <time>2025-08-13T09:15:12.000Z</time>
      </trkpt>
      <trkpt lat="43.51213" lon="-1.16416">
        <ele>0.60000002384186</ele>
        <time>2025-08-13T09:15:18.000Z</time>
      </trkpt>
      <trkpt lat="43.51249" lon="-1.16445">
        <ele>0.60000002384186</ele>
        <time>2025-08-13T09:15:28.000Z</time>
      </trkpt>
      <trkpt lat="43.51271" lon="-1.16476">
        <ele>0.60000002384186</ele>
        <time>2025-08-13T09:15:36.000Z</time>
      </trkpt>
      <trkpt lat="43.51292" lon="-1.1651">
        <ele>0.60000002384186</ele>
        <time>2025-08-13T09:15:44.000Z</time>
      </trkpt>
      <trkpt lat="43.51297" lon="-1.16519">
        <ele>0.60000002384186</ele>
        <time>2025-08-13T09:15:46.000Z</time>
      </trkpt>
      <trkpt lat="43.51321" lon="-1.16567">
        <ele>0.80000001192093</ele>
        <time>2025-08-13T09:15:56.000Z</time>
      </trkpt>
      <trkpt lat="43.51341" lon="-1.16612">
        <ele>0.60000002384186</ele>
        <time>2025-08-13T09:16:05.000Z</time>
      </trkpt>
      <trkpt lat="43.51355" lon="-1.16647">
        <ele>0.60000002384186</ele>
        <time>2025-08-13T09:16:12.000Z</time>
      </trkpt>
      <trkpt lat="43.51363" lon="-1.16667">
        <ele>0.60000002384186</ele>
        <time>2025-08-13T09:16:16.000Z</time>
      </trkpt>
      <trkpt lat="43.51371" lon="-1.16688">
        <ele>0.60000002384186</ele>
        <time>2025-08-13T09:16:20.000Z</time>
      </trkpt>
      <trkpt lat="43.51389" lon="-1.16741">
        <ele>0.80000001192093</ele>
        <time>2025-08-13T09:16:30.000Z</time>
      </trkpt>
      <trkpt lat="43.51393" lon="-1.16757">
        <ele>0.80000001192093</ele>
        <time>2025-08-13T09:16:33.000Z</time>
      </trkpt>
      <trkpt lat="43.51401" lon="-1.16785">
        <ele>0.80000001192093</ele>
        <time>2025-08-13T09:16:38.000Z</time>
      </trkpt>
      <trkpt lat="43.51413" lon="-1.16829">
        <ele>0.80000001192093</ele>
        <time>2025-08-13T09:16:46.000Z</time>
      </trkpt>
      <trkpt lat="43.51427" lon="-1.16873">
        <ele>0.60000002384186</ele>
        <time>2025-08-13T09:16:54.000Z</time>
      </trkpt>
      <trkpt lat="43.51428" lon="-1.16878">
        <ele>0.60000002384186</ele>
        <time>2025-08-13T09:16:55.000Z</time>
      </trkpt>
      <trkpt lat="43.51433" lon="-1.16894">
        <ele>0.60000002384186</ele>
        <time>2025-08-13T09:16:58.000Z</time>
      </trkpt>
      <trkpt lat="43.51437" lon="-1.16904">
        <ele>0.60000002384186</ele>
        <time>2025-08-13T09:17:00.000Z</time>
      </trkpt>
      <trkpt lat="43.51451" lon="-1.16946">
        <ele>0.60000002384186</ele>
        <time>2025-08-13T09:17:08.000Z</time>
      </trkpt>
      <trkpt lat="43.51456" lon="-1.1696">
        <ele>0.60000002384186</ele>
        <time>2025-08-13T09:17:11.000Z</time>
      </trkpt>
      <trkpt lat="43.51467" lon="-1.1699">
        <ele>0.60000002384186</ele>
        <time>2025-08-13T09:17:17.000Z</time>
      </trkpt>
      <trkpt lat="43.51485" lon="-1.17031">
        <ele>0.80000001192093</ele>
        <time>2025-08-13T09:17:25.000Z</time>
      </trkpt>
      <trkpt lat="43.51508" lon="-1.17082">
        <ele>1.2000000476837</ele>
        <time>2025-08-13T09:17:35.000Z</time>
      </trkpt>
      <trkpt lat="43.51532" lon="-1.17123">
        <ele>1.2000000476837</ele>
        <time>2025-08-13T09:17:44.000Z</time>
      </trkpt>
      <trkpt lat="43.51553" lon="-1.17157">
        <ele>1.2000000476837</ele>
        <time>2025-08-13T09:17:52.000Z</time>
      </trkpt>
      <trkpt lat="43.51562" lon="-1.17168">
        <ele>1.2000000476837</ele>
        <time>2025-08-13T09:17:55.000Z</time>
      </trkpt>
      <trkpt lat="43.51567" lon="-1.17177">
        <ele>1.2000000476837</ele>
        <time>2025-08-13T09:17:57.000Z</time>
      </trkpt>
      <trkpt lat="43.5157" lon="-1.17181">
        <ele>1.2000000476837</ele>
        <time>2025-08-13T09:17:58.000Z</time>
      </trkpt>
      <trkpt lat="43.51591" lon="-1.17208">
        <ele>0.80000001192093</ele>
        <time>2025-08-13T09:18:05.000Z</time>
      </trkpt>
      <trkpt lat="43.51614" lon="-1.17238">
        <ele>1.2000000476837</ele>
        <time>2025-08-13T09:18:12.000Z</time>
      </trkpt>
      <trkpt lat="43.51618" lon="-1.17242">
        <ele>1.2000000476837</ele>
        <time>2025-08-13T09:18:13.000Z</time>
      </trkpt>
      <trkpt lat="43.51626" lon="-1.17256">
        <ele>1.2000000476837</ele>
        <time>2025-08-13T09:18:16.000Z</time>
      </trkpt>
      <trkpt lat="43.51642" lon="-1.17277">
        <ele>1.2000000476837</ele>
        <time>2025-08-13T09:18:21.000Z</time>
      </trkpt>
      <trkpt lat="43.51655" lon="-1.17293">
        <ele>0.80000001192093</ele>
        <time>2025-08-13T09:18:25.000Z</time>
      </trkpt>
      <trkpt lat="43.51661" lon="-1.17302">
        <ele>0.80000001192093</ele>
        <time>2025-08-13T09:18:27.000Z</time>
      </trkpt>
      <trkpt lat="43.51664" lon="-1.17306">
        <ele>0.80000001192093</ele>
        <time>2025-08-13T09:18:28.000Z</time>
      </trkpt>
      <trkpt lat="43.51667" lon="-1.1731">
        <ele>0.80000001192093</ele>
        <time>2025-08-13T09:18:29.000Z</time>
      </trkpt>
      <trkpt lat="43.51682" lon="-1.17331">
        <ele>1</ele>
        <time>2025-08-13T09:18:34.000Z</time>
      </trkpt>
      <trkpt lat="43.51688" lon="-1.1734">
        <ele>1.2000000476837</ele>
        <time>2025-08-13T09:18:36.000Z</time>
      </trkpt>
      <trkpt lat="43.51695" lon="-1.17353">
        <ele>1.2000000476837</ele>
        <time>2025-08-13T09:18:39.000Z</time>
      </trkpt>
      <trkpt lat="43.51698" lon="-1.17357">
        <ele>1.2000000476837</ele>
        <time>2025-08-13T09:18:40.000Z</time>
      </trkpt>
      <trkpt lat="43.51716" lon="-1.17383">
        <ele>0.60000002384186</ele>
        <time>2025-08-13T09:18:46.000Z</time>
      </trkpt>
      <trkpt lat="43.51734" lon="-1.17411">
        <ele>0.60000002384186</ele>
        <time>2025-08-13T09:18:52.000Z</time>
      </trkpt>
      <trkpt lat="43.51754" lon="-1.17444">
        <ele>0.60000002384186</ele>
        <time>2025-08-13T09:18:59.000Z</time>
      </trkpt>
      <trkpt lat="43.51766" lon="-1.17463">
        <ele>0.60000002384186</ele>
        <time>2025-08-13T09:19:03.000Z</time>
      </trkpt>
      <trkpt lat="43.51773" lon="-1.17477">
        <ele>0.60000002384186</ele>
        <time>2025-08-13T09:19:06.000Z</time>
      </trkpt>
      <trkpt lat="43.51775" lon="-1.17482">
        <ele>0.60000002384186</ele>
        <time>2025-08-13T09:19:07.000Z</time>
      </trkpt>
      <trkpt lat="43.51788" lon="-1.17506">
        <ele>0.60000002384186</ele>
        <time>2025-08-13T09:19:12.000Z</time>
      </trkpt>
      <trkpt lat="43.51801" lon="-1.17538">
        <ele>0.80000001192093</ele>
        <time>2025-08-13T09:19:18.000Z</time>
      </trkpt>
      <trkpt lat="43.5182" lon="-1.17586">
        <ele>0.60000002384186</ele>
        <time>2025-08-13T09:19:27.000Z</time>
      </trkpt>
      <trkpt lat="43.51824" lon="-1.17597">
        <ele>0.80000001192093</ele>
        <time>2025-08-13T09:19:29.000Z</time>
      </trkpt>
      <trkpt lat="43.51834" lon="-1.17625">
        <ele>0.80000001192093</ele>
        <time>2025-08-13T09:19:34.000Z</time>
      </trkpt>
      <trkpt lat="43.51836" lon="-1.17631">
        <ele>0.80000001192093</ele>
        <time>2025-08-13T09:19:35.000Z</time>
      </trkpt>
      <trkpt lat="43.51844" lon="-1.17652">
        <ele>1</ele>
        <time>2025-08-13T09:19:39.000Z</time>
      </trkpt>
      <trkpt lat="43.51846" lon="-1.17657">
        <ele>1</ele>
        <time>2025-08-13T09:19:40.000Z</time>
      </trkpt>
      <trkpt lat="43.51866" lon="-1.17719">
        <ele>0.60000002384186</ele>
        <time>2025-08-13T09:19:51.000Z</time>
      </trkpt>
      <trkpt lat="43.51882" lon="-1.17771">
        <ele>0.60000002384186</ele>
        <time>2025-08-13T09:20:00.000Z</time>
      </trkpt>
      <trkpt lat="43.51897" lon="-1.17821">
        <ele>0.60000002384186</ele>
        <time>2025-08-13T09:20:09.000Z</time>
      </trkpt>
      <trkpt lat="43.51918" lon="-1.17881">
        <ele>0.80000001192093</ele>
        <time>2025-08-13T09:20:21.000Z</time>
      </trkpt>
      <trkpt lat="43.51932" lon="-1.17916">
        <ele>0.80000001192093</ele>
        <time>2025-08-13T09:20:28.000Z</time>
      </trkpt>
      <trkpt lat="43.51939" lon="-1.17931">
        <ele>0.80000001192093</ele>
        <time>2025-08-13T09:20:31.000Z</time>
      </trkpt>
      <trkpt lat="43.51948" lon="-1.17951">
        <ele>0.60000002384186</ele>
        <time>2025-08-13T09:20:35.000Z</time>
      </trkpt>
      <trkpt lat="43.51967" lon="-1.17991">
        <ele>0.60000002384186</ele>
        <time>2025-08-13T09:20:43.000Z</time>
      </trkpt>
      <trkpt lat="43.51989" lon="-1.18035">
        <ele>0.60000002384186</ele>
        <time>2025-08-13T09:20:52.000Z</time>
      </trkpt>
      <trkpt lat="43.52013" lon="-1.18073">
        <ele>0.80000001192093</ele>
        <time>2025-08-13T09:21:01.000Z</time>
      </trkpt>
      <trkpt lat="43.5204" lon="-1.1811">
        <ele>0.60000002384186</ele>
        <time>2025-08-13T09:21:10.000Z</time>
      </trkpt>
      <trkpt lat="43.52077" lon="-1.18152">
        <ele>0.80000001192093</ele>
        <time>2025-08-13T09:21:21.000Z</time>
      </trkpt>
      <trkpt lat="43.5211" lon="-1.18182">
        <ele>0.40000000596046</ele>
        <time>2025-08-13T09:21:30.000Z</time>
      </trkpt>
      <trkpt lat="43.52142" lon="-1.1821">
        <ele>0.40000000596046</ele>
        <time>2025-08-13T09:21:39.000Z</time>
      </trkpt>
      <trkpt lat="43.52195" lon="-1.18242">
        <ele>0.40000000596046</ele>
        <time>2025-08-13T09:21:52.000Z</time>
      </trkpt>
      <trkpt lat="43.52243" lon="-1.18267">
        <ele>0.60000002384186</ele>
        <time>2025-08-13T09:22:04.000Z</time>
      </trkpt>
      <trkpt lat="43.52287" lon="-1.18288">
        <ele>0.40000000596046</ele>
        <time>2025-08-13T09:22:15.000Z</time>
      </trkpt>
      <trkpt lat="43.52332" lon="-1.1831">
        <ele>0.60000002384186</ele>
        <time>2025-08-13T09:22:26.000Z</time>
      </trkpt>
      <trkpt lat="43.52385" lon="-1.18337">
        <ele>0.20000000298023</ele>
        <time>2025-08-13T09:22:39.000Z</time>
      </trkpt>
      <trkpt lat="43.5242" lon="-1.18355">
        <ele>0.40000000596046</ele>
        <time>2025-08-13T09:22:47.000Z</time>
      </trkpt>
      <trkpt lat="43.52444" lon="-1.18372">
        <ele>0.40000000596046</ele>
        <time>2025-08-13T09:22:53.000Z</time>
      </trkpt>
      <trkpt lat="43.52451" lon="-1.18378">
        <ele>0.40000000596046</ele>
        <time>2025-08-13T09:22:55.000Z</time>
      </trkpt>
      <trkpt lat="43.52483" lon="-1.18404">
        <ele>0.40000000596046</ele>
        <time>2025-08-13T09:23:03.000Z</time>
      </trkpt>
      <trkpt lat="43.52511" lon="-1.18429">
        <ele>0.40000000596046</ele>
        <time>2025-08-13T09:23:10.000Z</time>
      </trkpt>
      <trkpt lat="43.52543" lon="-1.18466">
        <ele>0.20000000298023</ele>
        <time>2025-08-13T09:23:19.000Z</time>
      </trkpt>
      <trkpt lat="43.52568" lon="-1.18512">
        <ele>0.20000000298023</ele>
        <time>2025-08-13T09:23:28.000Z</time>
      </trkpt>
      <trkpt lat="43.52584" lon="-1.18558">
        <ele>0.20000000298023</ele>
        <time>2025-08-13T09:23:36.000Z</time>
      </trkpt>
      <trkpt lat="43.52589" lon="-1.18581">
        <ele>0.20000000298023</ele>
        <time>2025-08-13T09:23:40.000Z</time>
      </trkpt>
      <trkpt lat="43.52591" lon="-1.18592">
        <ele>0.20000000298023</ele>
        <time>2025-08-13T09:23:42.000Z</time>
      </trkpt>
      <trkpt lat="43.52597" lon="-1.18633">
        <ele>1.5</ele>
        <time>2025-08-13T09:23:50.000Z</time>
      </trkpt>
      <trkpt lat="43.52598" lon="-1.18642">
        <ele>0.20000000298023</ele>
        <time>2025-08-13T09:23:54.000Z</time>
      </trkpt>
      <trkpt lat="43.52598" lon="-1.18642">
        <ele>0.20000000298023</ele>
        <time>2025-08-13T09:23:55.000Z</time>
      </trkpt>
      <trkpt lat="43.52597" lon="-1.18658">
        <ele>-0.20000000298023</ele>
        <time>2025-08-13T09:26:15.000Z</time>
      </trkpt>
      <trkpt lat="43.52598" lon="-1.18665">
        <ele>2</ele>
        <time>2025-08-13T09:26:17.000Z</time>
      </trkpt>
      <trkpt lat="43.52598" lon="-1.18697">
        <ele>0.20000000298023</ele>
        <time>2025-08-13T09:26:24.000Z</time>
      </trkpt>
      <trkpt lat="43.52599" lon="-1.18741">
        <ele>0.40000000596046</ele>
        <time>2025-08-13T09:26:32.000Z</time>
      </trkpt>
      <trkpt lat="43.52598" lon="-1.18789">
        <ele>0.20000000298023</ele>
        <time>2025-08-13T09:26:40.000Z</time>
      </trkpt>
      <trkpt lat="43.52595" lon="-1.18842">
        <ele>0.20000000298023</ele>
        <time>2025-08-13T09:26:49.000Z</time>
      </trkpt>
      <trkpt lat="43.52591" lon="-1.18911">
        <ele>0.20000000298023</ele>
        <time>2025-08-13T09:27:00.000Z</time>
      </trkpt>
      <trkpt lat="43.52586" lon="-1.1896">
        <ele>0.40000000596046</ele>
        <time>2025-08-13T09:27:08.000Z</time>
      </trkpt>
      <trkpt lat="43.52585" lon="-1.18966">
        <ele>0.40000000596046</ele>
        <time>2025-08-13T09:27:09.000Z</time>
      </trkpt>
      <trkpt lat="43.52573" lon="-1.19019">
        <ele>0.60000002384186</ele>
        <time>2025-08-13T09:27:18.000Z</time>
      </trkpt>
      <trkpt lat="43.52566" lon="-1.19066">
        <ele>0.40000000596046</ele>
        <time>2025-08-13T09:27:26.000Z</time>
      </trkpt>
      <trkpt lat="43.5256" lon="-1.19112">
        <ele>0.40000000596046</ele>
        <time>2025-08-13T09:27:34.000Z</time>
      </trkpt>
      <trkpt lat="43.5255" lon="-1.19169">
        <ele>0.20000000298023</ele>
        <time>2025-08-13T09:27:43.000Z</time>
      </trkpt>
      <trkpt lat="43.52537" lon="-1.19219">
        <ele>1.7</ele>
        <time>2025-08-13T09:27:51.000Z</time>
      </trkpt>
      <trkpt lat="43.52522" lon="-1.19264">
        <ele>0.20000000298023</ele>
        <time>2025-08-13T09:27:59.000Z</time>
      </trkpt>
      <trkpt lat="43.52508" lon="-1.1929">
        <ele>0.20000000298023</ele>
        <time>2025-08-13T09:28:05.000Z</time>
      </trkpt>
      <trkpt lat="43.52489" lon="-1.1932">
        <ele>2.1</ele>
        <time>2025-08-13T09:28:12.000Z</time>
      </trkpt>
      <trkpt lat="43.52473" lon="-1.19345">
        <ele>0.20000000298023</ele>
        <time>2025-08-13T09:28:18.000Z</time>
      </trkpt>
      <trkpt lat="43.52446" lon="-1.19385">
        <ele>0.20000000298023</ele>
        <time>2025-08-13T09:28:26.000Z</time>
      </trkpt>
      <trkpt lat="43.52426" lon="-1.19416">
        <ele>0.20000000298023</ele>
        <time>2025-08-13T09:28:32.000Z</time>
      </trkpt>
      <trkpt lat="43.52401" lon="-1.19448">
        <ele>0.20000000298023</ele>
        <time>2025-08-13T09:28:39.000Z</time>
      </trkpt>
      <trkpt lat="43.52379" lon="-1.1948">
        <ele>0.40000000596046</ele>
        <time>2025-08-13T09:28:46.000Z</time>
      </trkpt>
      <trkpt lat="43.52357" lon="-1.19512">
        <ele>0.40000000596046</ele>
        <time>2025-08-13T09:28:54.000Z</time>
      </trkpt>
      <trkpt lat="43.5233" lon="-1.19552">
        <ele>0.20000000298023</ele>
        <time>2025-08-13T09:29:04.000Z</time>
      </trkpt>
      <trkpt lat="43.52303" lon="-1.19595">
        <ele>2.3</ele>
        <time>2025-08-13T09:29:14.000Z</time>
      </trkpt>
      <trkpt lat="43.52279" lon="-1.19638">
        <ele>2.9</ele>
        <time>2025-08-13T09:29:24.000Z</time>
      </trkpt>
      <trkpt lat="43.52261" lon="-1.19673">
        <ele>2.5</ele>
        <time>2025-08-13T09:29:32.000Z</time>
      </trkpt>
      <trkpt lat="43.52253" lon="-1.19683">
        <ele>0.20000000298023</ele>
        <time>2025-08-13T09:29:36.000Z</time>
      </trkpt>
      <trkpt lat="43.5225" lon="-1.19691">
        <ele>0.80000001192093</ele>
        <time>2025-08-13T09:29:41.000Z</time>
      </trkpt>
      <trkpt lat="43.5224" lon="-1.1971">
        <ele>1</ele>
        <time>2025-08-13T09:29:46.000Z</time>
      </trkpt>
      <trkpt lat="43.52223" lon="-1.19743">
        <ele>0.60000002384186</ele>
        <time>2025-08-13T09:29:52.000Z</time>
      </trkpt>
      <trkpt lat="43.52215" lon="-1.19758">
        <ele>0.40000000596046</ele>
        <time>2025-08-13T09:29:55.000Z</time>
      </trkpt>
      <trkpt lat="43.52211" lon="-1.19767">
        <ele>0.20000000298023</ele>
        <time>2025-08-13T09:29:57.000Z</time>
      </trkpt>
      <trkpt lat="43.5221" lon="-1.19772">
        <ele>0.20000000298023</ele>
        <time>2025-08-13T09:29:58.000Z</time>
      </trkpt>
      <trkpt lat="43.52208" lon="-1.19801">
        <ele>3</ele>
        <time>2025-08-13T09:30:04.000Z</time>
      </trkpt>
      <trkpt lat="43.52208" lon="-1.19827">
        <ele>3.8</ele>
        <time>2025-08-13T09:30:09.000Z</time>
      </trkpt>
      <trkpt lat="43.52207" lon="-1.19858">
        <ele>3.9</ele>
        <time>2025-08-13T09:30:15.000Z</time>
      </trkpt>
      <trkpt lat="43.52211" lon="-1.19905">
        <ele>0.60000002384186</ele>
        <time>2025-08-13T09:30:25.000Z</time>
      </trkpt>
      <trkpt lat="43.52219" lon="-1.19944">
        <ele>0.80000001192093</ele>
        <time>2025-08-13T09:30:33.000Z</time>
      </trkpt>
      <trkpt lat="43.52231" lon="-1.19993">
        <ele>1</ele>
        <time>2025-08-13T09:30:43.000Z</time>
      </trkpt>
      <trkpt lat="43.52238" lon="-1.20025">
        <ele>1.3999999761581</ele>
        <time>2025-08-13T09:30:50.000Z</time>
      </trkpt>
      <trkpt lat="43.5224" lon="-1.20037">
        <ele>1.6000000238419</ele>
        <time>2025-08-13T09:30:53.000Z</time>
      </trkpt>
      <trkpt lat="43.52241" lon="-1.20041">
        <ele>1.7999999523163</ele>
        <time>2025-08-13T09:30:54.000Z</time>
      </trkpt>
      <trkpt lat="43.52249" lon="-1.20073">
        <ele>2.5999999046326</ele>
        <time>2025-08-13T09:31:02.000Z</time>
      </trkpt>
      <trkpt lat="43.52249" lon="-1.20076">
        <ele>2.5999999046326</ele>
        <time>2025-08-13T09:31:03.000Z</time>
      </trkpt>
      <trkpt lat="43.52251" lon="-1.2008">
        <ele>2.5999999046326</ele>
        <time>2025-08-13T09:31:07.000Z</time>
      </trkpt>
      <trkpt lat="43.52251" lon="-1.2008">
        <ele>2.5999999046326</ele>
        <time>2025-08-13T09:31:08.000Z</time>
      </trkpt>
      <trkpt lat="43.52252" lon="-1.20086">
        <ele>1.7999999523163</ele>
        <time>2025-08-13T09:32:04.000Z</time>
      </trkpt>
      <trkpt lat="43.52254" lon="-1.20092">
        <ele>1.7999999523163</ele>
        <time>2025-08-13T09:32:06.000Z</time>
      </trkpt>
      <trkpt lat="43.52259" lon="-1.20114">
        <ele>1.7999999523163</ele>
        <time>2025-08-13T09:32:11.000Z</time>
      </trkpt>
      <trkpt lat="43.52264" lon="-1.20149">
        <ele>1.3999999761581</ele>
        <time>2025-08-13T09:32:17.000Z</time>
      </trkpt>
      <trkpt lat="43.52265" lon="-1.20161">
        <ele>1.2000000476837</ele>
        <time>2025-08-13T09:32:19.000Z</time>
      </trkpt>
      <trkpt lat="43.52267" lon="-1.20188">
        <ele>0.60000002384186</ele>
        <time>2025-08-13T09:32:25.000Z</time>
      </trkpt>
      <trkpt lat="43.52268" lon="-1.20191">
        <ele>0.40000000596046</ele>
        <time>2025-08-13T09:32:27.000Z</time>
      </trkpt>
      <trkpt lat="43.52269" lon="-1.20191">
        <ele>0.40000000596046</ele>
        <time>2025-08-13T09:32:29.000Z</time>
      </trkpt>
      <trkpt lat="43.52269" lon="-1.20191">
        <ele>0.20000000298023</ele>
        <time>2025-08-13T09:32:30.000Z</time>
      </trkpt>
      <trkpt lat="43.5227" lon="-1.20202">
        <ele>4.4</ele>
        <time>2025-08-13T09:32:43.000Z</time>
      </trkpt>
      <trkpt lat="43.52271" lon="-1.20207">
        <ele>4.5</ele>
        <time>2025-08-13T09:32:44.000Z</time>
      </trkpt>
      <trkpt lat="43.52277" lon="-1.20239">
        <ele>4.1</ele>
        <time>2025-08-13T09:32:49.000Z</time>
      </trkpt>
      <trkpt lat="43.52281" lon="-1.20286">
        <ele>4.9</ele>
        <time>2025-08-13T09:32:56.000Z</time>
      </trkpt>
      <trkpt lat="43.52278" lon="-1.20336">
        <ele>5</ele>
        <time>2025-08-13T09:33:04.000Z</time>
      </trkpt>
      <trkpt lat="43.52285" lon="-1.20361">
        <ele>4.2</ele>
        <time>2025-08-13T09:33:09.000Z</time>
      </trkpt>
      <trkpt lat="43.52298" lon="-1.20384">
        <ele>4.5</ele>
        <time>2025-08-13T09:33:14.000Z</time>
      </trkpt>
      <trkpt lat="43.52312" lon="-1.2041">
        <ele>-0.20000000298023</ele>
        <time>2025-08-13T09:33:20.000Z</time>
      </trkpt>
      <trkpt lat="43.52331" lon="-1.20451">
        <ele>3.2</ele>
        <time>2025-08-13T09:33:29.000Z</time>
      </trkpt>
      <trkpt lat="43.52347" lon="-1.20494">
        <ele>-0.40000000596046</ele>
        <time>2025-08-13T09:33:38.000Z</time>
      </trkpt>
      <trkpt lat="43.52366" lon="-1.20547">
        <ele>-0.80000001192093</ele>
        <time>2025-08-13T09:33:48.000Z</time>
      </trkpt>
      <trkpt lat="43.52382" lon="-1.20591">
        <ele>-1</ele>
        <time>2025-08-13T09:33:56.000Z</time>
      </trkpt>
      <trkpt lat="43.52384" lon="-1.20596">
        <ele>-1.2000000476837</ele>
        <time>2025-08-13T09:33:57.000Z</time>
      </trkpt>
      <trkpt lat="43.52399" lon="-1.20638">
        <ele>-1.6000000238419</ele>
        <time>2025-08-13T09:34:05.000Z</time>
      </trkpt>
      <trkpt lat="43.52407" lon="-1.20658">
        <ele>-1.7999999523163</ele>
        <time>2025-08-13T09:34:09.000Z</time>
      </trkpt>
      <trkpt lat="43.52429" lon="-1.20698">
        <ele>-1.7999999523163</ele>
        <time>2025-08-13T09:34:18.000Z</time>
      </trkpt>
      <trkpt lat="43.52446" lon="-1.20727">
        <ele>-1.7999999523163</ele>
        <time>2025-08-13T09:34:25.000Z</time>
      </trkpt>
      <trkpt lat="43.52468" lon="-1.2077">
        <ele>-0.80000001192093</ele>
        <time>2025-08-13T09:34:35.000Z</time>
      </trkpt>
      <trkpt lat="43.52485" lon="-1.20808">
        <ele>-0.60000002384186</ele>
        <time>2025-08-13T09:34:44.000Z</time>
      </trkpt>
      <trkpt lat="43.52501" lon="-1.20845">
        <ele>-0.60000002384186</ele>
        <time>2025-08-13T09:34:52.000Z</time>
      </trkpt>
      <trkpt lat="43.52516" lon="-1.20876">
        <ele>-0.80000001192093</ele>
        <time>2025-08-13T09:34:59.000Z</time>
      </trkpt>
      <trkpt lat="43.52538" lon="-1.20922">
        <ele>-0.40000000596046</ele>
        <time>2025-08-13T09:35:09.000Z</time>
      </trkpt>
      <trkpt lat="43.5256" lon="-1.20963">
        <ele>-0.20000000298023</ele>
        <time>2025-08-13T09:35:18.000Z</time>
      </trkpt>
      <trkpt lat="43.52567" lon="-1.20976">
        <ele>-0.20000000298023</ele>
        <time>2025-08-13T09:35:21.000Z</time>
      </trkpt>
      <trkpt lat="43.52578" lon="-1.20993">
        <ele>-0.20000000298023</ele>
        <time>2025-08-13T09:35:25.000Z</time>
      </trkpt>
      <trkpt lat="43.52578" lon="-1.20997">
        <ele>-0.20000000298023</ele>
        <time>2025-08-13T09:35:26.000Z</time>
      </trkpt>
      <trkpt lat="43.52581" lon="-1.21014">
        <ele>-0.40000000596046</ele>
        <time>2025-08-13T09:35:30.000Z</time>
      </trkpt>
      <trkpt lat="43.5258" lon="-1.2102">
        <ele>-0.40000000596046</ele>
        <time>2025-08-13T09:35:32.000Z</time>
      </trkpt>
      <trkpt lat="43.52576" lon="-1.21026">
        <ele>-0.60000002384186</ele>
        <time>2025-08-13T09:35:34.000Z</time>
      </trkpt>
      <trkpt lat="43.52553" lon="-1.21057">
        <ele>-1.3999999761581</ele>
        <time>2025-08-13T09:35:42.000Z</time>
      </trkpt>
      <trkpt lat="43.52543" lon="-1.2107">
        <ele>-1.2000000476837</ele>
        <time>2025-08-13T09:35:45.000Z</time>
      </trkpt>
      <trkpt lat="43.52529" lon="-1.21089">
        <ele>-1.3999999761581</ele>
        <time>2025-08-13T09:35:49.000Z</time>
      </trkpt>
      <trkpt lat="43.52501" lon="-1.21129">
        <ele>-1.6000000238419</ele>
        <time>2025-08-13T09:35:57.000Z</time>
      </trkpt>
      <trkpt lat="43.52473" lon="-1.21174">
        <ele>-1.7999999523163</ele>
        <time>2025-08-13T09:36:06.000Z</time>
      </trkpt>
      <trkpt lat="43.52454" lon="-1.21206">
        <ele>-2</ele>
        <time>2025-08-13T09:36:13.000Z</time>
      </trkpt>
      <trkpt lat="43.52452" lon="-1.2121">
        <ele>-2.2000000476837</ele>
        <time>2025-08-13T09:36:14.000Z</time>
      </trkpt>
      <trkpt lat="43.52443" lon="-1.21222">
        <ele>-2</ele>
        <time>2025-08-13T09:36:17.000Z</time>
      </trkpt>
      <trkpt lat="43.52432" lon="-1.21241">
        <ele>-2</ele>
        <time>2025-08-13T09:36:21.000Z</time>
      </trkpt>
      <trkpt lat="43.52409" lon="-1.21277">
        <ele>-2</ele>
        <time>2025-08-13T09:36:29.000Z</time>
      </trkpt>
      <trkpt lat="43.52383" lon="-1.21317">
        <ele>-2</ele>
        <time>2025-08-13T09:36:38.000Z</time>
      </trkpt>
      <trkpt lat="43.5236" lon="-1.21352">
        <ele>-2</ele>
        <time>2025-08-13T09:36:46.000Z</time>
      </trkpt>
      <trkpt lat="43.52336" lon="-1.21389">
        <ele>-2</ele>
        <time>2025-08-13T09:36:54.000Z</time>
      </trkpt>
      <trkpt lat="43.52333" lon="-1.21393">
        <ele>-2</ele>
        <time>2025-08-13T09:36:55.000Z</time>
      </trkpt>
      <trkpt lat="43.5232" lon="-1.21413">
        <ele>-2</ele>
        <time>2025-08-13T09:36:59.000Z</time>
      </trkpt>
      <trkpt lat="43.52317" lon="-1.21417">
        <ele>-2</ele>
        <time>2025-08-13T09:37:00.000Z</time>
      </trkpt>
      <trkpt lat="43.52302" lon="-1.21444">
        <ele>-2.2000000476837</ele>
        <time>2025-08-13T09:37:06.000Z</time>
      </trkpt>
      <trkpt lat="43.52299" lon="-1.21452">
        <ele>-2.2000000476837</ele>
        <time>2025-08-13T09:37:08.000Z</time>
      </trkpt>
      <trkpt lat="43.523" lon="-1.21457">
        <ele>-2.4000000953674</ele>
        <time>2025-08-13T09:37:09.000Z</time>
      </trkpt>
      <trkpt lat="43.52315" lon="-1.21474">
        <ele>-2.5999999046326</ele>
        <time>2025-08-13T09:37:14.000Z</time>
      </trkpt>
      <trkpt lat="43.52338" lon="-1.21498">
        <ele>-3</ele>
        <time>2025-08-13T09:37:22.000Z</time>
      </trkpt>
      <trkpt lat="43.52355" lon="-1.21521">
        <ele>-3</ele>
        <time>2025-08-13T09:37:29.000Z</time>
      </trkpt>
      <trkpt lat="43.52382" lon="-1.21554">
        <ele>-3</ele>
        <time>2025-08-13T09:37:39.000Z</time>
      </trkpt>
      <trkpt lat="43.52409" lon="-1.21588">
        <ele>-3</ele>
        <time>2025-08-13T09:37:49.000Z</time>
      </trkpt>
      <trkpt lat="43.52428" lon="-1.21612">
        <ele>-3</ele>
        <time>2025-08-13T09:37:56.000Z</time>
      </trkpt>
      <trkpt lat="43.52446" lon="-1.21635">
        <ele>-3.2000000476837</ele>
        <time>2025-08-13T09:38:03.000Z</time>
      </trkpt>
      <trkpt lat="43.52452" lon="-1.21641">
        <ele>-3.2000000476837</ele>
        <time>2025-08-13T09:38:05.000Z</time>
      </trkpt>
      <trkpt lat="43.52465" lon="-1.21659">
        <ele>-3.4000000953674</ele>
        <time>2025-08-13T09:38:10.000Z</time>
      </trkpt>
      <trkpt lat="43.52489" lon="-1.21691">
        <ele>-3.4000000953674</ele>
        <time>2025-08-13T09:38:19.000Z</time>
      </trkpt>
      <trkpt lat="43.52512" lon="-1.21719">
        <ele>-3.5999999046326</ele>
        <time>2025-08-13T09:38:27.000Z</time>
      </trkpt>
      <trkpt lat="43.52537" lon="-1.21751">
        <ele>-3.5999999046326</ele>
        <time>2025-08-13T09:38:36.000Z</time>
      </trkpt>
      <trkpt lat="43.52553" lon="-1.21774">
        <ele>-3.5999999046326</ele>
        <time>2025-08-13T09:38:42.000Z</time>
      </trkpt>
      <trkpt lat="43.52552" lon="-1.2179">
        <ele>-3.5999999046326</ele>
        <time>2025-08-13T09:38:45.000Z</time>
      </trkpt>
      <trkpt lat="43.5254" lon="-1.21812">
        <ele>-3.5999999046326</ele>
        <time>2025-08-13T09:38:50.000Z</time>
      </trkpt>
      <trkpt lat="43.52512" lon="-1.21852">
        <ele>-3.4000000953674</ele>
        <time>2025-08-13T09:39:00.000Z</time>
      </trkpt>
      <trkpt lat="43.52501" lon="-1.21869">
        <ele>-3.4000000953674</ele>
        <time>2025-08-13T09:39:04.000Z</time>
      </trkpt>
      <trkpt lat="43.52494" lon="-1.21881">
        <ele>-3.4000000953674</ele>
        <time>2025-08-13T09:39:07.000Z</time>
      </trkpt>
      <trkpt lat="43.52479" lon="-1.21904">
        <ele>-3.2000000476837</ele>
        <time>2025-08-13T09:39:13.000Z</time>
      </trkpt>
      <trkpt lat="43.52458" lon="-1.21935">
        <ele>-3.4000000953674</ele>
        <time>2025-08-13T09:39:21.000Z</time>
      </trkpt>
      <trkpt lat="43.52421" lon="-1.21993">
        <ele>-3.4000000953674</ele>
        <time>2025-08-13T09:39:34.000Z</time>
      </trkpt>
      <trkpt lat="43.52395" lon="-1.22034">
        <ele>-3.5999999046326</ele>
        <time>2025-08-13T09:39:44.000Z</time>
      </trkpt>
      <trkpt lat="43.52392" lon="-1.22039">
        <ele>-3.5999999046326</ele>
        <time>2025-08-13T09:39:45.000Z</time>
      </trkpt>
      <trkpt lat="43.52376" lon="-1.22065">
        <ele>-3.5999999046326</ele>
        <time>2025-08-13T09:39:51.000Z</time>
      </trkpt>
      <trkpt lat="43.52359" lon="-1.2209">
        <ele>-3.4000000953674</ele>
        <time>2025-08-13T09:39:57.000Z</time>
      </trkpt>
      <trkpt lat="43.52354" lon="-1.22099">
        <ele>-3.4000000953674</ele>
        <time>2025-08-13T09:39:59.000Z</time>
      </trkpt>
      <trkpt lat="43.52322" lon="-1.22147">
        <ele>-3.2000000476837</ele>
        <time>2025-08-13T09:40:10.000Z</time>
      </trkpt>
      <trkpt lat="43.52298" lon="-1.22185">
        <ele>-3</ele>
        <time>2025-08-13T09:40:19.000Z</time>
      </trkpt>
      <trkpt lat="43.52261" lon="-1.22239">
        <ele>-3</ele>
        <time>2025-08-13T09:40:32.000Z</time>
      </trkpt>
      <trkpt lat="43.52238" lon="-1.22277">
        <ele>-2.7999999523163</ele>
        <time>2025-08-13T09:40:41.000Z</time>
      </trkpt>
      <trkpt lat="43.52211" lon="-1.22318">
        <ele>-3.2000000476837</ele>
        <time>2025-08-13T09:40:51.000Z</time>
      </trkpt>
      <trkpt lat="43.52183" lon="-1.22359">
        <ele>-3</ele>
        <time>2025-08-13T09:41:01.000Z</time>
      </trkpt>
      <trkpt lat="43.5216" lon="-1.22391">
        <ele>-3</ele>
        <time>2025-08-13T09:41:09.000Z</time>
      </trkpt>
      <trkpt lat="43.52129" lon="-1.22432">
        <ele>-3</ele>
        <time>2025-08-13T09:41:19.000Z</time>
      </trkpt>
      <trkpt lat="43.52096" lon="-1.22476">
        <ele>-3.4000000953674</ele>
        <time>2025-08-13T09:41:29.000Z</time>
      </trkpt>
      <trkpt lat="43.52072" lon="-1.22506">
        <ele>-3.5999999046326</ele>
        <time>2025-08-13T09:41:37.000Z</time>
      </trkpt>
      <trkpt lat="43.52058" lon="-1.22524">
        <ele>-3.5999999046326</ele>
        <time>2025-08-13T09:41:42.000Z</time>
      </trkpt>
      <trkpt lat="43.52049" lon="-1.22536">
        <ele>-3.5999999046326</ele>
        <time>2025-08-13T09:41:45.000Z</time>
      </trkpt>
      <trkpt lat="43.52032" lon="-1.22558">
        <ele>-3.5999999046326</ele>
        <time>2025-08-13T09:41:51.000Z</time>
      </trkpt>
      <trkpt lat="43.52021" lon="-1.22573">
        <ele>-3.5999999046326</ele>
        <time>2025-08-13T09:41:55.000Z</time>
      </trkpt>
      <trkpt lat="43.51998" lon="-1.22605">
        <ele>-3.7999999523163</ele>
        <time>2025-08-13T09:42:03.000Z</time>
      </trkpt>
      <trkpt lat="43.51963" lon="-1.22652">
        <ele>-3.7999999523163</ele>
        <time>2025-08-13T09:42:14.000Z</time>
      </trkpt>
      <trkpt lat="43.51939" lon="-1.22685">
        <ele>-3.5999999046326</ele>
        <time>2025-08-13T09:42:22.000Z</time>
      </trkpt>
      <trkpt lat="43.51909" lon="-1.22723">
        <ele>-3.5999999046326</ele>
        <time>2025-08-13T09:42:32.000Z</time>
      </trkpt>
      <trkpt lat="43.51873" lon="-1.22771">
        <ele>-3.2000000476837</ele>
        <time>2025-08-13T09:42:44.000Z</time>
      </trkpt>
      <trkpt lat="43.51849" lon="-1.22804">
        <ele>-3.2000000476837</ele>
        <time>2025-08-13T09:42:52.000Z</time>
      </trkpt>
      <trkpt lat="43.51832" lon="-1.22825">
        <ele>-3.2000000476837</ele>
        <time>2025-08-13T09:42:57.000Z</time>
      </trkpt>
      <trkpt lat="43.51822" lon="-1.22838">
        <ele>-3.2000000476837</ele>
        <time>2025-08-13T09:43:00.000Z</time>
      </trkpt>
      <trkpt lat="43.51802" lon="-1.22862">
        <ele>-3.2000000476837</ele>
        <time>2025-08-13T09:43:07.000Z</time>
      </trkpt>
      <trkpt lat="43.51801" lon="-1.22863">
        <ele>-3.4000000953674</ele>
        <time>2025-08-13T09:43:10.000Z</time>
      </trkpt>
      <trkpt lat="43.51801" lon="-1.22863">
        <ele>-3.4000000953674</ele>
        <time>2025-08-13T09:43:11.000Z</time>
      </trkpt>
      <trkpt lat="43.51798" lon="-1.22868">
        <ele>-3.4000000953674</ele>
        <time>2025-08-13T09:43:17.000Z</time>
      </trkpt>
      <trkpt lat="43.51794" lon="-1.22872">
        <ele>-3.4000000953674</ele>
        <time>2025-08-13T09:43:19.000Z</time>
      </trkpt>
      <trkpt lat="43.51783" lon="-1.2289">
        <ele>-3.4000000953674</ele>
        <time>2025-08-13T09:43:25.000Z</time>
      </trkpt>
      <trkpt lat="43.51766" lon="-1.22922">
        <ele>-3.4000000953674</ele>
        <time>2025-08-13T09:43:34.000Z</time>
      </trkpt>
      <trkpt lat="43.51753" lon="-1.22944">
        <ele>-3.2000000476837</ele>
        <time>2025-08-13T09:43:39.000Z</time>
      </trkpt>
      <trkpt lat="43.5175" lon="-1.22949">
        <ele>-3.2000000476837</ele>
        <time>2025-08-13T09:43:40.000Z</time>
      </trkpt>
      <trkpt lat="43.51724" lon="-1.23001">
        <ele>-3</ele>
        <time>2025-08-13T09:43:50.000Z</time>
      </trkpt>
      <trkpt lat="43.51696" lon="-1.23053">
        <ele>-3.4000000953674</ele>
        <time>2025-08-13T09:44:00.000Z</time>
      </trkpt>
      <trkpt lat="43.51672" lon="-1.23104">
        <ele>-3.5999999046326</ele>
        <time>2025-08-13T09:44:09.000Z</time>
      </trkpt>
      <trkpt lat="43.51647" lon="-1.23153">
        <ele>-3.5999999046326</ele>
        <time>2025-08-13T09:44:18.000Z</time>
      </trkpt>
      <trkpt lat="43.51616" lon="-1.23205">
        <ele>-3.5999999046326</ele>
        <time>2025-08-13T09:44:28.000Z</time>
      </trkpt>
      <trkpt lat="43.51599" lon="-1.23227">
        <ele>-3.5999999046326</ele>
        <time>2025-08-13T09:44:33.000Z</time>
      </trkpt>
      <trkpt lat="43.51589" lon="-1.2324">
        <ele>-3.5999999046326</ele>
        <time>2025-08-13T09:44:36.000Z</time>
      </trkpt>
      <trkpt lat="43.51564" lon="-1.23278">
        <ele>-3.5999999046326</ele>
        <time>2025-08-13T09:44:44.000Z</time>
      </trkpt>
      <trkpt lat="43.51551" lon="-1.23297">
        <ele>-3.5999999046326</ele>
        <time>2025-08-13T09:44:48.000Z</time>
      </trkpt>
      <trkpt lat="43.51534" lon="-1.23329">
        <ele>-3.5999999046326</ele>
        <time>2025-08-13T09:44:54.000Z</time>
      </trkpt>
      <trkpt lat="43.51507" lon="-1.2339">
        <ele>-3.5999999046326</ele>
        <time>2025-08-13T09:45:05.000Z</time>
      </trkpt>
      <trkpt lat="43.51486" lon="-1.23441">
        <ele>-3.4000000953674</ele>
        <time>2025-08-13T09:45:14.000Z</time>
      </trkpt>
      <trkpt lat="43.51463" lon="-1.23506">
        <ele>-3.4000000953674</ele>
        <time>2025-08-13T09:45:25.000Z</time>
      </trkpt>
      <trkpt lat="43.51449" lon="-1.23549">
        <ele>-3.4000000953674</ele>
        <time>2025-08-13T09:45:32.000Z</time>
      </trkpt>
      <trkpt lat="43.51445" lon="-1.23561">
        <ele>-3.4000000953674</ele>
        <time>2025-08-13T09:45:34.000Z</time>
      </trkpt>
      <trkpt lat="43.51415" lon="-1.23616">
        <ele>-3.4000000953674</ele>
        <time>2025-08-13T09:45:44.000Z</time>
      </trkpt>
      <trkpt lat="43.51378" lon="-1.23672">
        <ele>-3.7999999523163</ele>
        <time>2025-08-13T09:45:55.000Z</time>
      </trkpt>
      <trkpt lat="43.51375" lon="-1.23677">
        <ele>-3.7999999523163</ele>
        <time>2025-08-13T09:45:56.000Z</time>
      </trkpt>
      <trkpt lat="43.51341" lon="-1.23726">
        <ele>-3.7999999523163</ele>
        <time>2025-08-13T09:46:06.000Z</time>
      </trkpt>
      <trkpt lat="43.51306" lon="-1.23763">
        <ele>-3.7999999523163</ele>
        <time>2025-08-13T09:46:15.000Z</time>
      </trkpt>
      <trkpt lat="43.51275" lon="-1.23796">
        <ele>-4</ele>
        <time>2025-08-13T09:46:23.000Z</time>
      </trkpt>
      <trkpt lat="43.51249" lon="-1.23826">
        <ele>-4.1999998092651</ele>
        <time>2025-08-13T09:46:30.000Z</time>
      </trkpt>
      <trkpt lat="43.51213" lon="-1.23867">
        <ele>-4.1999998092651</ele>
        <time>2025-08-13T09:46:40.000Z</time>
      </trkpt>
      <trkpt lat="43.51203" lon="-1.2388">
        <ele>-4.1999998092651</ele>
        <time>2025-08-13T09:46:43.000Z</time>
      </trkpt>
      <trkpt lat="43.51192" lon="-1.23892">
        <ele>-4.1999998092651</ele>
        <time>2025-08-13T09:46:46.000Z</time>
      </trkpt>
      <trkpt lat="43.51188" lon="-1.23895">
        <ele>-4.1999998092651</ele>
        <time>2025-08-13T09:46:47.000Z</time>
      </trkpt>
      <trkpt lat="43.51184" lon="-1.23897">
        <ele>-4.1999998092651</ele>
        <time>2025-08-13T09:46:48.000Z</time>
      </trkpt>
      <trkpt lat="43.5117" lon="-1.23901">
        <ele>-4.1999998092651</ele>
        <time>2025-08-13T09:46:51.000Z</time>
      </trkpt>
      <trkpt lat="43.51166" lon="-1.23904">
        <ele>-4.1999998092651</ele>
        <time>2025-08-13T09:46:52.000Z</time>
      </trkpt>
      <trkpt lat="43.51163" lon="-1.23908">
        <ele>-4.1999998092651</ele>
        <time>2025-08-13T09:46:53.000Z</time>
      </trkpt>
      <trkpt lat="43.51155" lon="-1.23925">
        <ele>-4.1999998092651</ele>
        <time>2025-08-13T09:46:56.000Z</time>
      </trkpt>
      <trkpt lat="43.51131" lon="-1.23973">
        <ele>-4.4000000953674</ele>
        <time>2025-08-13T09:47:05.000Z</time>
      </trkpt>
      <trkpt lat="43.51106" lon="-1.24017">
        <ele>-4.4000000953674</ele>
        <time>2025-08-13T09:47:14.000Z</time>
      </trkpt>
      <trkpt lat="43.51088" lon="-1.24054">
        <ele>-4.4000000953674</ele>
        <time>2025-08-13T09:47:21.000Z</time>
      </trkpt>
      <trkpt lat="43.51063" lon="-1.24101">
        <ele>-4.4000000953674</ele>
        <time>2025-08-13T09:47:31.000Z</time>
      </trkpt>
      <trkpt lat="43.51048" lon="-1.24131">
        <ele>-4.1999998092651</ele>
        <time>2025-08-13T09:47:38.000Z</time>
      </trkpt>
      <trkpt lat="43.51029" lon="-1.24168">
        <ele>-4</ele>
        <time>2025-08-13T09:47:46.000Z</time>
      </trkpt>
      <trkpt lat="43.51006" lon="-1.2421">
        <ele>-3.7999999523163</ele>
        <time>2025-08-13T09:47:55.000Z</time>
      </trkpt>
      <trkpt lat="43.50988" lon="-1.24243">
        <ele>-3.7999999523163</ele>
        <time>2025-08-13T09:48:03.000Z</time>
      </trkpt>
      <trkpt lat="43.50964" lon="-1.2429">
        <ele>-3.5999999046326</ele>
        <time>2025-08-13T09:48:13.000Z</time>
      </trkpt>
      <trkpt lat="43.50941" lon="-1.24334">
        <ele>-3.7999999523163</ele>
        <time>2025-08-13T09:48:22.000Z</time>
      </trkpt>
      <trkpt lat="43.50919" lon="-1.24368">
        <ele>-3.7999999523163</ele>
        <time>2025-08-13T09:48:29.000Z</time>
      </trkpt>
      <trkpt lat="43.50895" lon="-1.24397">
        <ele>-3.5999999046326</ele>
        <time>2025-08-13T09:48:36.000Z</time>
      </trkpt>
      <trkpt lat="43.50867" lon="-1.24439">
        <ele>-3.5999999046326</ele>
        <time>2025-08-13T09:48:45.000Z</time>
      </trkpt>
      <trkpt lat="43.50843" lon="-1.24476">
        <ele>-3.2000000476837</ele>
        <time>2025-08-13T09:48:53.000Z</time>
      </trkpt>
      <trkpt lat="43.50818" lon="-1.24507">
        <ele>-3.4000000953674</ele>
        <time>2025-08-13T09:49:00.000Z</time>
      </trkpt>
      <trkpt lat="43.50814" lon="-1.24518">
        <ele>-3.4000000953674</ele>
        <time>2025-08-13T09:49:02.000Z</time>
      </trkpt>
      <trkpt lat="43.50813" lon="-1.24532">
        <ele>-3.4000000953674</ele>
        <time>2025-08-13T09:49:04.000Z</time>
      </trkpt>
      <trkpt lat="43.50813" lon="-1.24545">
        <ele>-3.4000000953674</ele>
        <time>2025-08-13T09:49:06.000Z</time>
      </trkpt>
      <trkpt lat="43.50815" lon="-1.24573">
        <ele>-3.4000000953674</ele>
        <time>2025-08-13T09:49:10.000Z</time>
      </trkpt>
      <trkpt lat="43.50817" lon="-1.24599">
        <ele>-3.4000000953674</ele>
        <time>2025-08-13T09:49:14.000Z</time>
      </trkpt>
      <trkpt lat="43.50823" lon="-1.24617">
        <ele>-3.5999999046326</ele>
        <time>2025-08-13T09:49:17.000Z</time>
      </trkpt>
      <trkpt lat="43.50828" lon="-1.24635">
        <ele>-3.5999999046326</ele>
        <time>2025-08-13T09:49:20.000Z</time>
      </trkpt>
      <trkpt lat="43.50828" lon="-1.24648">
        <ele>-3.5999999046326</ele>
        <time>2025-08-13T09:49:22.000Z</time>
      </trkpt>
      <trkpt lat="43.50825" lon="-1.24661">
        <ele>-3.4000000953674</ele>
        <time>2025-08-13T09:49:24.000Z</time>
      </trkpt>
      <trkpt lat="43.50821" lon="-1.24672">
        <ele>-3.4000000953674</ele>
        <time>2025-08-13T09:49:26.000Z</time>
      </trkpt>
      <trkpt lat="43.50815" lon="-1.24681">
        <ele>-3.4000000953674</ele>
        <time>2025-08-13T09:49:28.000Z</time>
      </trkpt>
      <trkpt lat="43.50794" lon="-1.24702">
        <ele>-3.2000000476837</ele>
        <time>2025-08-13T09:49:34.000Z</time>
      </trkpt>
      <trkpt lat="43.50787" lon="-1.24709">
        <ele>-3.2000000476837</ele>
        <time>2025-08-13T09:49:36.000Z</time>
      </trkpt>
      <trkpt lat="43.5078" lon="-1.24723">
        <ele>-3.2000000476837</ele>
        <time>2025-08-13T09:49:39.000Z</time>
      </trkpt>
      <trkpt lat="43.50772" lon="-1.24738">
        <ele>-3.4000000953674</ele>
        <time>2025-08-13T09:49:42.000Z</time>
      </trkpt>
      <trkpt lat="43.50765" lon="-1.24747">
        <ele>-3.4000000953674</ele>
        <time>2025-08-13T09:49:44.000Z</time>
      </trkpt>
      <trkpt lat="43.50761" lon="-1.2475">
        <ele>-3.4000000953674</ele>
        <time>2025-08-13T09:49:45.000Z</time>
      </trkpt>
      <trkpt lat="43.50757" lon="-1.24752">
        <ele>-3.4000000953674</ele>
        <time>2025-08-13T09:49:46.000Z</time>
      </trkpt>
      <trkpt lat="43.50743" lon="-1.24756">
        <ele>-3.4000000953674</ele>
        <time>2025-08-13T09:49:49.000Z</time>
      </trkpt>
      <trkpt lat="43.50738" lon="-1.24756">
        <ele>-3.5999999046326</ele>
        <time>2025-08-13T09:49:50.000Z</time>
      </trkpt>
      <trkpt lat="43.50705" lon="-1.24753">
        <ele>-3.4000000953674</ele>
        <time>2025-08-13T09:49:57.000Z</time>
      </trkpt>
      <trkpt lat="43.507" lon="-1.24754">
        <ele>-3.4000000953674</ele>
        <time>2025-08-13T09:49:58.000Z</time>
      </trkpt>
      <trkpt lat="43.50683" lon="-1.24763">
        <ele>-3.4000000953674</ele>
        <time>2025-08-13T09:50:02.000Z</time>
      </trkpt>
      <trkpt lat="43.50671" lon="-1.24776">
        <ele>-3.2000000476837</ele>
        <time>2025-08-13T09:50:05.000Z</time>
      </trkpt>
      <trkpt lat="43.50665" lon="-1.24786">
        <ele>-3.2000000476837</ele>
        <time>2025-08-13T09:50:07.000Z</time>
      </trkpt>
      <trkpt lat="43.50629" lon="-1.24845">
        <ele>-3.2000000476837</ele>
        <time>2025-08-13T09:50:18.000Z</time>
      </trkpt>
      <trkpt lat="43.50602" lon="-1.24876">
        <ele>-3.4000000953674</ele>
        <time>2025-08-13T09:50:25.000Z</time>
      </trkpt>
      <trkpt lat="43.50571" lon="-1.24896">
        <ele>-3.5999999046326</ele>
        <time>2025-08-13T09:50:32.000Z</time>
      </trkpt>
      <trkpt lat="43.50535" lon="-1.24914">
        <ele>-3.2000000476837</ele>
        <time>2025-08-13T09:50:40.000Z</time>
      </trkpt>
      <trkpt lat="43.50527" lon="-1.24924">
        <ele>-3.2000000476837</ele>
        <time>2025-08-13T09:50:42.000Z</time>
      </trkpt>
      <trkpt lat="43.50522" lon="-1.24937">
        <ele>-3.2000000476837</ele>
        <time>2025-08-13T09:50:44.000Z</time>
      </trkpt>
      <trkpt lat="43.50514" lon="-1.2498">
        <ele>-3.2000000476837</ele>
        <time>2025-08-13T09:50:50.000Z</time>
      </trkpt>
      <trkpt lat="43.50505" lon="-1.25022">
        <ele>-3.2000000476837</ele>
        <time>2025-08-13T09:50:57.000Z</time>
      </trkpt>
      <trkpt lat="43.50503" lon="-1.25035">
        <ele>-3.2000000476837</ele>
        <time>2025-08-13T09:51:00.000Z</time>
      </trkpt>
      <trkpt lat="43.50504" lon="-1.25039">
        <ele>-3.2000000476837</ele>
        <time>2025-08-13T09:51:01.000Z</time>
      </trkpt>
      <trkpt lat="43.50514" lon="-1.25058">
        <ele>-3</ele>
        <time>2025-08-13T09:51:06.000Z</time>
      </trkpt>
      <trkpt lat="43.50514" lon="-1.25086">
        <ele>-2.7999999523163</ele>
        <time>2025-08-13T09:51:11.000Z</time>
      </trkpt>
      <trkpt lat="43.50514" lon="-1.25098">
        <ele>-2.7999999523163</ele>
        <time>2025-08-13T09:51:13.000Z</time>
      </trkpt>
      <trkpt lat="43.50518" lon="-1.25125">
        <ele>-2.5999999046326</ele>
        <time>2025-08-13T09:51:18.000Z</time>
      </trkpt>
      <trkpt lat="43.50533" lon="-1.25162">
        <ele>-2.4000000953674</ele>
        <time>2025-08-13T09:51:26.000Z</time>
      </trkpt>
      <trkpt lat="43.50554" lon="-1.25209">
        <ele>-2.2000000476837</ele>
        <time>2025-08-13T09:51:35.000Z</time>
      </trkpt>
      <trkpt lat="43.50573" lon="-1.25254">
        <ele>-2.2000000476837</ele>
        <time>2025-08-13T09:51:43.000Z</time>
      </trkpt>
      <trkpt lat="43.50592" lon="-1.25298">
        <ele>-2</ele>
        <time>2025-08-13T09:51:51.000Z</time>
      </trkpt>
      <trkpt lat="43.50605" lon="-1.2533">
        <ele>-2</ele>
        <time>2025-08-13T09:51:57.000Z</time>
      </trkpt>
      <trkpt lat="43.50609" lon="-1.2534">
        <ele>-1.7999999523163</ele>
        <time>2025-08-13T09:51:59.000Z</time>
      </trkpt>
      <trkpt lat="43.50621" lon="-1.25366">
        <ele>-2</ele>
        <time>2025-08-13T09:52:04.000Z</time>
      </trkpt>
      <trkpt lat="43.50625" lon="-1.25376">
        <ele>-2</ele>
        <time>2025-08-13T09:52:06.000Z</time>
      </trkpt>
      <trkpt lat="43.50626" lon="-1.25382">
        <ele>-2</ele>
        <time>2025-08-13T09:52:07.000Z</time>
      </trkpt>
      <trkpt lat="43.50628" lon="-1.25393">
        <ele>-2</ele>
        <time>2025-08-13T09:52:09.000Z</time>
      </trkpt>
      <trkpt lat="43.50632" lon="-1.25404">
        <ele>-2</ele>
        <time>2025-08-13T09:52:11.000Z</time>
      </trkpt>
      <trkpt lat="43.50647" lon="-1.25447">
        <ele>-2</ele>
        <time>2025-08-13T09:52:18.000Z</time>
      </trkpt>
      <trkpt lat="43.50649" lon="-1.2546">
        <ele>-2</ele>
        <time>2025-08-13T09:52:20.000Z</time>
      </trkpt>
      <trkpt lat="43.50648" lon="-1.25473">
        <ele>-2</ele>
        <time>2025-08-13T09:52:22.000Z</time>
      </trkpt>
      <trkpt lat="43.50633" lon="-1.25517">
        <ele>-2.2000000476837</ele>
        <time>2025-08-13T09:52:29.000Z</time>
      </trkpt>
      <trkpt lat="43.50623" lon="-1.25525">
        <ele>-2.2000000476837</ele>
        <time>2025-08-13T09:52:32.000Z</time>
      </trkpt>
      <trkpt lat="43.50596" lon="-1.25535">
        <ele>-1.2000000476837</ele>
        <time>2025-08-13T09:52:39.000Z</time>
      </trkpt>
      <trkpt lat="43.50571" lon="-1.25535">
        <ele>-1</ele>
        <time>2025-08-13T09:52:45.000Z</time>
      </trkpt>
      <trkpt lat="43.50562" lon="-1.25533">
        <ele>-0.80000001192093</ele>
        <time>2025-08-13T09:52:47.000Z</time>
      </trkpt>
      <trkpt lat="43.50528" lon="-1.25517">
        <ele>-0.80000001192093</ele>
        <time>2025-08-13T09:52:55.000Z</time>
      </trkpt>
      <trkpt lat="43.50483" lon="-1.25484">
        <ele>-1</ele>
        <time>2025-08-13T09:53:06.000Z</time>
      </trkpt>
      <trkpt lat="43.50464" lon="-1.25475">
        <ele>-1</ele>
        <time>2025-08-13T09:53:10.000Z</time>
      </trkpt>
      <trkpt lat="43.50455" lon="-1.25475">
        <ele>-1</ele>
        <time>2025-08-13T09:53:12.000Z</time>
      </trkpt>
      <trkpt lat="43.50445" lon="-1.25479">
        <ele>-1</ele>
        <time>2025-08-13T09:53:14.000Z</time>
      </trkpt>
      <trkpt lat="43.50437" lon="-1.25486">
        <ele>-0.80000001192093</ele>
        <time>2025-08-13T09:53:16.000Z</time>
      </trkpt>
      <trkpt lat="43.5043" lon="-1.25497">
        <ele>-0.80000001192093</ele>
        <time>2025-08-13T09:53:18.000Z</time>
      </trkpt>
      <trkpt lat="43.50427" lon="-1.2551">
        <ele>-0.80000001192093</ele>
        <time>2025-08-13T09:53:20.000Z</time>
      </trkpt>
      <trkpt lat="43.50426" lon="-1.25531">
        <ele>-0.80000001192093</ele>
        <time>2025-08-13T09:53:23.000Z</time>
      </trkpt>
      <trkpt lat="43.50427" lon="-1.25546">
        <ele>-0.80000001192093</ele>
        <time>2025-08-13T09:53:25.000Z</time>
      </trkpt>
      <trkpt lat="43.50429" lon="-1.25561">
        <ele>-0.80000001192093</ele>
        <time>2025-08-13T09:53:27.000Z</time>
      </trkpt>
      <trkpt lat="43.50433" lon="-1.2559">
        <ele>-0.60000002384186</ele>
        <time>2025-08-13T09:53:31.000Z</time>
      </trkpt>
      <trkpt lat="43.50434" lon="-1.25605">
        <ele>-0.60000002384186</ele>
        <time>2025-08-13T09:53:33.000Z</time>
      </trkpt>
      <trkpt lat="43.50436" lon="-1.2564">
        <ele>-0.60000002384186</ele>
        <time>2025-08-13T09:53:38.000Z</time>
      </trkpt>
      <trkpt lat="43.50433" lon="-1.25696">
        <ele>-0.60000002384186</ele>
        <time>2025-08-13T09:53:46.000Z</time>
      </trkpt>
      <trkpt lat="43.50419" lon="-1.25769">
        <ele>-1</ele>
        <time>2025-08-13T09:53:57.000Z</time>
      </trkpt>
      <trkpt lat="43.50417" lon="-1.25788">
        <ele>-0.80000001192093</ele>
        <time>2025-08-13T09:54:00.000Z</time>
      </trkpt>
      <trkpt lat="43.50413" lon="-1.25806">
        <ele>-0.60000002384186</ele>
        <time>2025-08-13T09:54:03.000Z</time>
      </trkpt>
      <trkpt lat="43.50409" lon="-1.25823">
        <ele>-0.60000002384186</ele>
        <time>2025-08-13T09:54:06.000Z</time>
      </trkpt>
      <trkpt lat="43.50407" lon="-1.25833">
        <ele>-0.60000002384186</ele>
        <time>2025-08-13T09:54:08.000Z</time>
      </trkpt>
      <trkpt lat="43.50404" lon="-1.25844">
        <ele>-0.60000002384186</ele>
        <time>2025-08-13T09:54:10.000Z</time>
      </trkpt>
      <trkpt lat="43.50396" lon="-1.25886">
        <ele>-0.40000000596046</ele>
        <time>2025-08-13T09:54:17.000Z</time>
      </trkpt>
      <trkpt lat="43.50394" lon="-1.25891">
        <ele>-0.60000002384186</ele>
        <time>2025-08-13T09:54:18.000Z</time>
      </trkpt>
      <trkpt lat="43.50388" lon="-1.25914">
        <ele>-0.40000000596046</ele>
        <time>2025-08-13T09:54:22.000Z</time>
      </trkpt>
      <trkpt lat="43.50375" lon="-1.25955">
        <ele>-0.40000000596046</ele>
        <time>2025-08-13T09:54:29.000Z</time>
      </trkpt>
      <trkpt lat="43.50364" lon="-1.25984">
        <ele>-0.40000000596046</ele>
        <time>2025-08-13T09:54:34.000Z</time>
      </trkpt>
      <trkpt lat="43.50358" lon="-1.25994">
        <ele>-0.40000000596046</ele>
        <time>2025-08-13T09:54:36.000Z</time>
      </trkpt>
      <trkpt lat="43.50343" lon="-1.26032">
        <ele>-0.60000002384186</ele>
        <time>2025-08-13T09:54:42.000Z</time>
      </trkpt>
      <trkpt lat="43.50334" lon="-1.26048">
        <ele>-0.60000002384186</ele>
        <time>2025-08-13T09:54:45.000Z</time>
      </trkpt>
      <trkpt lat="43.50323" lon="-1.26069">
        <ele>-0.60000002384186</ele>
        <time>2025-08-13T09:54:49.000Z</time>
      </trkpt>
      <trkpt lat="43.50317" lon="-1.26079">
        <ele>-0.80000001192093</ele>
        <time>2025-08-13T09:54:51.000Z</time>
      </trkpt>
      <trkpt lat="43.50308" lon="-1.26094">
        <ele>-0.80000001192093</ele>
        <time>2025-08-13T09:54:54.000Z</time>
      </trkpt>
      <trkpt lat="43.5029" lon="-1.26129">
        <ele>-0.80000001192093</ele>
        <time>2025-08-13T09:55:00.000Z</time>
      </trkpt>
      <trkpt lat="43.50284" lon="-1.2614">
        <ele>-0.80000001192093</ele>
        <time>2025-08-13T09:55:02.000Z</time>
      </trkpt>
      <trkpt lat="43.50266" lon="-1.26185">
        <ele>-0.60000002384186</ele>
        <time>2025-08-13T09:55:09.000Z</time>
      </trkpt>
      <trkpt lat="43.50263" lon="-1.26191">
        <ele>-0.60000002384186</ele>
        <time>2025-08-13T09:55:10.000Z</time>
      </trkpt>
      <trkpt lat="43.50237" lon="-1.26244">
        <ele>-0.80000001192093</ele>
        <time>2025-08-13T09:55:19.000Z</time>
      </trkpt>
      <trkpt lat="43.50227" lon="-1.26259">
        <ele>-0.80000001192093</ele>
        <time>2025-08-13T09:55:22.000Z</time>
      </trkpt>
      <trkpt lat="43.50221" lon="-1.26269">
        <ele>-0.60000002384186</ele>
        <time>2025-08-13T09:55:24.000Z</time>
      </trkpt>
      <trkpt lat="43.50218" lon="-1.26274">
        <ele>-0.60000002384186</ele>
        <time>2025-08-13T09:55:25.000Z</time>
      </trkpt>
      <trkpt lat="43.50209" lon="-1.26289">
        <ele>-0.60000002384186</ele>
        <time>2025-08-13T09:55:28.000Z</time>
      </trkpt>
      <trkpt lat="43.50195" lon="-1.26313">
        <ele>-0.60000002384186</ele>
        <time>2025-08-13T09:55:32.000Z</time>
      </trkpt>
      <trkpt lat="43.50173" lon="-1.26354">
        <ele>-0.60000002384186</ele>
        <time>2025-08-13T09:55:39.000Z</time>
      </trkpt>
      <trkpt lat="43.50163" lon="-1.26371">
        <ele>-0.60000002384186</ele>
        <time>2025-08-13T09:55:42.000Z</time>
      </trkpt>
      <trkpt lat="43.50146" lon="-1.26407">
        <ele>-0.60000002384186</ele>
        <time>2025-08-13T09:55:48.000Z</time>
      </trkpt>
      <trkpt lat="43.50125" lon="-1.26448">
        <ele>-0.80000001192093</ele>
        <time>2025-08-13T09:55:55.000Z</time>
      </trkpt>
      <trkpt lat="43.50097" lon="-1.26499">
        <ele>-0.80000001192093</ele>
        <time>2025-08-13T09:56:04.000Z</time>
      </trkpt>
      <trkpt lat="43.50088" lon="-1.26514">
        <ele>-0.80000001192093</ele>
        <time>2025-08-13T09:56:07.000Z</time>
      </trkpt>
      <trkpt lat="43.50074" lon="-1.26536">
        <ele>-0.60000002384186</ele>
        <time>2025-08-13T09:56:11.000Z</time>
      </trkpt>
      <trkpt lat="43.50053" lon="-1.26567">
        <ele>-0.60000002384186</ele>
        <time>2025-08-13T09:56:17.000Z</time>
      </trkpt>
      <trkpt lat="43.50049" lon="-1.26572">
        <ele>-0.60000002384186</ele>
        <time>2025-08-13T09:56:18.000Z</time>
      </trkpt>
      <trkpt lat="43.50022" lon="-1.26614">
        <ele>-0.80000001192093</ele>
        <time>2025-08-13T09:56:26.000Z</time>
      </trkpt>
      <trkpt lat="43.49993" lon="-1.26655">
        <ele>-1</ele>
        <time>2025-08-13T09:56:35.000Z</time>
      </trkpt>
      <trkpt lat="43.49986" lon="-1.26663">
        <ele>-1</ele>
        <time>2025-08-13T09:56:37.000Z</time>
      </trkpt>
      <trkpt lat="43.49973" lon="-1.26687">
        <ele>-1.2000000476837</ele>
        <time>2025-08-13T09:56:41.000Z</time>
      </trkpt>
      <trkpt lat="43.49966" lon="-1.26699">
        <ele>-1.2000000476837</ele>
        <time>2025-08-13T09:56:43.000Z</time>
      </trkpt>
      <trkpt lat="43.49956" lon="-1.26717">
        <ele>-1.2000000476837</ele>
        <time>2025-08-13T09:56:46.000Z</time>
      </trkpt>
      <trkpt lat="43.49937" lon="-1.26753">
        <ele>-1.2000000476837</ele>
        <time>2025-08-13T09:56:52.000Z</time>
      </trkpt>
      <trkpt lat="43.49931" lon="-1.26763">
        <ele>-1.2000000476837</ele>
        <time>2025-08-13T09:56:54.000Z</time>
      </trkpt>
      <trkpt lat="43.4992" lon="-1.26782">
        <ele>-1.3999999761581</ele>
        <time>2025-08-13T09:56:57.000Z</time>
      </trkpt>
      <trkpt lat="43.49893" lon="-1.26824">
        <ele>-1.3999999761581</ele>
        <time>2025-08-13T09:57:05.000Z</time>
      </trkpt>
      <trkpt lat="43.49865" lon="-1.26869">
        <ele>-1.3999999761581</ele>
        <time>2025-08-13T09:57:14.000Z</time>
      </trkpt>
      <trkpt lat="43.49862" lon="-1.26873">
        <ele>-1.3999999761581</ele>
        <time>2025-08-13T09:57:15.000Z</time>
      </trkpt>
      <trkpt lat="43.49855" lon="-1.26884">
        <ele>-1.3999999761581</ele>
        <time>2025-08-13T09:57:17.000Z</time>
      </trkpt>
      <trkpt lat="43.49849" lon="-1.26894">
        <ele>-1.3999999761581</ele>
        <time>2025-08-13T09:57:19.000Z</time>
      </trkpt>
      <trkpt lat="43.49823" lon="-1.26939">
        <ele>-1.2000000476837</ele>
        <time>2025-08-13T09:57:27.000Z</time>
      </trkpt>
      <trkpt lat="43.49799" lon="-1.26991">
        <ele>-1.2000000476837</ele>
        <time>2025-08-13T09:57:36.000Z</time>
      </trkpt>
      <trkpt lat="43.49781" lon="-1.27049">
        <ele>-1.2000000476837</ele>
        <time>2025-08-13T09:57:45.000Z</time>
      </trkpt>
      <trkpt lat="43.49765" lon="-1.27108">
        <ele>-1.2000000476837</ele>
        <time>2025-08-13T09:57:54.000Z</time>
      </trkpt>
      <trkpt lat="43.49754" lon="-1.27149">
        <ele>-1.3999999761581</ele>
        <time>2025-08-13T09:58:00.000Z</time>
      </trkpt>
      <trkpt lat="43.49743" lon="-1.27204">
        <ele>-1.3999999761581</ele>
        <time>2025-08-13T09:58:08.000Z</time>
      </trkpt>
      <trkpt lat="43.49728" lon="-1.27265">
        <ele>-1</ele>
        <time>2025-08-13T09:58:17.000Z</time>
      </trkpt>
      <trkpt lat="43.49722" lon="-1.27328">
        <ele>-1.2000000476837</ele>
        <time>2025-08-13T09:58:26.000Z</time>
      </trkpt>
      <trkpt lat="43.49724" lon="-1.27384">
        <ele>-1.3999999761581</ele>
        <time>2025-08-13T09:58:34.000Z</time>
      </trkpt>
      <trkpt lat="43.49726" lon="-1.27404">
        <ele>-1.2000000476837</ele>
        <time>2025-08-13T09:58:37.000Z</time>
      </trkpt>
      <trkpt lat="43.49729" lon="-1.2744">
        <ele>-1</ele>
        <time>2025-08-13T09:58:42.000Z</time>
      </trkpt>
      <trkpt lat="43.49732" lon="-1.27482">
        <ele>-1</ele>
        <time>2025-08-13T09:58:48.000Z</time>
      </trkpt>
      <trkpt lat="43.49732" lon="-1.27495">
        <ele>-1</ele>
        <time>2025-08-13T09:58:50.000Z</time>
      </trkpt>
      <trkpt lat="43.49732" lon="-1.27545">
        <ele>-1.2000000476837</ele>
        <time>2025-08-13T09:58:57.000Z</time>
      </trkpt>
      <trkpt lat="43.49733" lon="-1.27567">
        <ele>-1</ele>
        <time>2025-08-13T09:59:00.000Z</time>
      </trkpt>
      <trkpt lat="43.49734" lon="-1.27588">
        <ele>-1</ele>
        <time>2025-08-13T09:59:03.000Z</time>
      </trkpt>
      <trkpt lat="43.49738" lon="-1.27669">
        <ele>-1.3999999761581</ele>
        <time>2025-08-13T09:59:14.000Z</time>
      </trkpt>
      <trkpt lat="43.49738" lon="-1.27683">
        <ele>-1.3999999761581</ele>
        <time>2025-08-13T09:59:16.000Z</time>
      </trkpt>
      <trkpt lat="43.49741" lon="-1.27733">
        <ele>-1.2000000476837</ele>
        <time>2025-08-13T09:59:23.000Z</time>
      </trkpt>
      <trkpt lat="43.49746" lon="-1.27799">
        <ele>-1.3999999761581</ele>
        <time>2025-08-13T09:59:32.000Z</time>
      </trkpt>
      <trkpt lat="43.49754" lon="-1.27857">
        <ele>-1.3999999761581</ele>
        <time>2025-08-13T09:59:40.000Z</time>
      </trkpt>
      <trkpt lat="43.49761" lon="-1.27936">
        <ele>-1.2000000476837</ele>
        <time>2025-08-13T09:59:51.000Z</time>
      </trkpt>
      <trkpt lat="43.49767" lon="-1.28007">
        <ele>-1.3999999761581</ele>
        <time>2025-08-13T10:00:01.000Z</time>
      </trkpt>
      <trkpt lat="43.49769" lon="-1.28029">
        <ele>-1.3999999761581</ele>
        <time>2025-08-13T10:00:04.000Z</time>
      </trkpt>
      <trkpt lat="43.49771" lon="-1.28063">
        <ele>-1.3999999761581</ele>
        <time>2025-08-13T10:00:09.000Z</time>
      </trkpt>
      <trkpt lat="43.49768" lon="-1.28118">
        <ele>-1.2000000476837</ele>
        <time>2025-08-13T10:00:17.000Z</time>
      </trkpt>
      <trkpt lat="43.49763" lon="-1.28173">
        <ele>-1.3999999761581</ele>
        <time>2025-08-13T10:00:25.000Z</time>
      </trkpt>
      <trkpt lat="43.49758" lon="-1.28223">
        <ele>-1.3999999761581</ele>
        <time>2025-08-13T10:00:33.000Z</time>
      </trkpt>
      <trkpt lat="43.49752" lon="-1.28277">
        <ele>-1.2000000476837</ele>
        <time>2025-08-13T10:00:42.000Z</time>
      </trkpt>
      <trkpt lat="43.49745" lon="-1.28326">
        <ele>-1.2000000476837</ele>
        <time>2025-08-13T10:00:50.000Z</time>
      </trkpt>
      <trkpt lat="43.49738" lon="-1.28368">
        <ele>-1.2000000476837</ele>
        <time>2025-08-13T10:00:58.000Z</time>
      </trkpt>
      <trkpt lat="43.49729" lon="-1.28412">
        <ele>-1.2000000476837</ele>
        <time>2025-08-13T10:01:06.000Z</time>
      </trkpt>
      <trkpt lat="43.49718" lon="-1.28466">
        <ele>-1.3999999761581</ele>
        <time>2025-08-13T10:01:15.000Z</time>
      </trkpt>
      <trkpt lat="43.49704" lon="-1.28527">
        <ele>-1.3999999761581</ele>
        <time>2025-08-13T10:01:25.000Z</time>
      </trkpt>
      <trkpt lat="43.49683" lon="-1.28588">
        <ele>-1.3999999761581</ele>
        <time>2025-08-13T10:01:35.000Z</time>
      </trkpt>
      <trkpt lat="43.49677" lon="-1.286">
        <ele>-1.3999999761581</ele>
        <time>2025-08-13T10:01:37.000Z</time>
      </trkpt>
      <trkpt lat="43.49664" lon="-1.28629">
        <ele>-1.3999999761581</ele>
        <time>2025-08-13T10:01:42.000Z</time>
      </trkpt>
      <trkpt lat="43.49641" lon="-1.28686">
        <ele>-1.2000000476837</ele>
        <time>2025-08-13T10:01:51.000Z</time>
      </trkpt>
      <trkpt lat="43.49619" lon="-1.28724">
        <ele>-1.3999999761581</ele>
        <time>2025-08-13T10:01:58.000Z</time>
      </trkpt>
      <trkpt lat="43.4961" lon="-1.28763">
        <ele>-1.6000000238419</ele>
        <time>2025-08-13T10:02:04.000Z</time>
      </trkpt>
      <trkpt lat="43.49604" lon="-1.28826">
        <ele>-1.6000000238419</ele>
        <time>2025-08-13T10:02:13.000Z</time>
      </trkpt>
      <trkpt lat="43.49605" lon="-1.28888">
        <ele>-1.3999999761581</ele>
        <time>2025-08-13T10:02:22.000Z</time>
      </trkpt>
      <trkpt lat="43.49606" lon="-1.28908">
        <ele>-1.2000000476837</ele>
        <time>2025-08-13T10:02:25.000Z</time>
      </trkpt>
      <trkpt lat="43.49607" lon="-1.28926">
        <ele>-1.2000000476837</ele>
        <time>2025-08-13T10:02:28.000Z</time>
      </trkpt>
      <trkpt lat="43.49607" lon="-1.28938">
        <ele>-1.2000000476837</ele>
        <time>2025-08-13T10:02:30.000Z</time>
      </trkpt>
      <trkpt lat="43.49607" lon="-1.28964">
        <ele>-1.2000000476837</ele>
        <time>2025-08-13T10:02:34.000Z</time>
      </trkpt>
      <trkpt lat="43.49607" lon="-1.2897">
        <ele>-1.2000000476837</ele>
        <time>2025-08-13T10:02:35.000Z</time>
      </trkpt>
      <trkpt lat="43.49608" lon="-1.28976">
        <ele>-1.2000000476837</ele>
        <time>2025-08-13T10:02:36.000Z</time>
      </trkpt>
      <trkpt lat="43.49614" lon="-1.29011">
        <ele>-1</ele>
        <time>2025-08-13T10:02:41.000Z</time>
      </trkpt>
      <trkpt lat="43.49616" lon="-1.29018">
        <ele>-1</ele>
        <time>2025-08-13T10:02:42.000Z</time>
      </trkpt>
      <trkpt lat="43.49624" lon="-1.29037">
        <ele>-0.80000001192093</ele>
        <time>2025-08-13T10:02:45.000Z</time>
      </trkpt>
      <trkpt lat="43.49626" lon="-1.29041">
        <ele>-0.80000001192093</ele>
        <time>2025-08-13T10:02:46.000Z</time>
      </trkpt>
      <trkpt lat="43.49636" lon="-1.29057">
        <ele>-0.80000001192093</ele>
        <time>2025-08-13T10:02:50.000Z</time>
      </trkpt>
      <trkpt lat="43.49643" lon="-1.29086">
        <ele>-1</ele>
        <time>2025-08-13T10:02:55.000Z</time>
      </trkpt>
      <trkpt lat="43.49647" lon="-1.29098">
        <ele>-1</ele>
        <time>2025-08-13T10:02:57.000Z</time>
      </trkpt>
      <trkpt lat="43.49654" lon="-1.29121">
        <ele>-1.2000000476837</ele>
        <time>2025-08-13T10:03:01.000Z</time>
      </trkpt>
      <trkpt lat="43.49657" lon="-1.29131">
        <ele>-1.3999999761581</ele>
        <time>2025-08-13T10:03:03.000Z</time>
      </trkpt>
      <trkpt lat="43.49666" lon="-1.29165">
        <ele>-1.3999999761581</ele>
        <time>2025-08-13T10:03:08.000Z</time>
      </trkpt>
      <trkpt lat="43.49682" lon="-1.29214">
        <ele>-1.2000000476837</ele>
        <time>2025-08-13T10:03:16.000Z</time>
      </trkpt>
      <trkpt lat="43.49685" lon="-1.29226">
        <ele>-1</ele>
        <time>2025-08-13T10:03:18.000Z</time>
      </trkpt>
      <trkpt lat="43.49694" lon="-1.29247">
        <ele>-1</ele>
        <time>2025-08-13T10:03:22.000Z</time>
      </trkpt>
      <trkpt lat="43.49701" lon="-1.29264">
        <ele>-1</ele>
        <time>2025-08-13T10:03:25.000Z</time>
      </trkpt>
      <trkpt lat="43.49709" lon="-1.29283">
        <ele>-1</ele>
        <time>2025-08-13T10:03:29.000Z</time>
      </trkpt>
      <trkpt lat="43.49715" lon="-1.29292">
        <ele>-1.2000000476837</ele>
        <time>2025-08-13T10:03:33.000Z</time>
      </trkpt>
      <trkpt lat="43.49715" lon="-1.29292">
        <ele>-1.2000000476837</ele>
        <time>2025-08-13T10:03:35.000Z</time>
      </trkpt>
      <trkpt lat="43.49719" lon="-1.293">
        <ele>-1.2000000476837</ele>
        <time>2025-08-13T10:03:41.000Z</time>
      </trkpt>
      <trkpt lat="43.4972" lon="-1.29304">
        <ele>-1.2000000476837</ele>
        <time>2025-08-13T10:03:42.000Z</time>
      </trkpt>
      <trkpt lat="43.49722" lon="-1.29327">
        <ele>-0.80000001192093</ele>
        <time>2025-08-13T10:03:48.000Z</time>
      </trkpt>
      <trkpt lat="43.49722" lon="-1.29346">
        <ele>-0.20000000298023</ele>
        <time>2025-08-13T10:03:53.000Z</time>
      </trkpt>
      <trkpt lat="43.49724" lon="-1.29361">
        <ele>0.20000000298023</ele>
        <time>2025-08-13T10:03:57.000Z</time>
      </trkpt>
      <trkpt lat="43.49724" lon="-1.29365">
        <ele>0.20000000298023</ele>
        <time>2025-08-13T10:03:58.000Z</time>
      </trkpt>
      <trkpt lat="43.49729" lon="-1.29393">
        <ele>0.60000002384186</ele>
        <time>2025-08-13T10:04:05.000Z</time>
      </trkpt>
      <trkpt lat="43.4973" lon="-1.29395">
        <ele>0.40000000596046</ele>
        <time>2025-08-13T10:04:08.000Z</time>
      </trkpt>
      <trkpt lat="43.49728" lon="-1.294">
        <ele>-0.60000002384186</ele>
        <time>2025-08-13T10:08:58.000Z</time>
      </trkpt>
      <trkpt lat="43.49726" lon="-1.29405">
        <ele>-0.60000002384186</ele>
        <time>2025-08-13T10:09:01.000Z</time>
      </trkpt>
      <trkpt lat="43.49724" lon="-1.29415">
        <ele>-0.40000000596046</ele>
        <time>2025-08-13T10:09:07.000Z</time>
      </trkpt>
      <trkpt lat="43.49723" lon="-1.29428">
        <ele>-0.20000000298023</ele>
        <time>2025-08-13T10:09:15.000Z</time>
      </trkpt>
      <trkpt lat="43.49718" lon="-1.29433">
        <ele>0.20000000298023</ele>
        <time>2025-08-13T10:09:22.000Z</time>
      </trkpt>
      <trkpt lat="43.49716" lon="-1.29436">
        <ele>0.60000002384186</ele>
        <time>2025-08-13T10:09:25.000Z</time>
      </trkpt>
      <trkpt lat="43.49713" lon="-1.29437">
        <ele>1.2000000476837</ele>
        <time>2025-08-13T10:09:30.000Z</time>
      </trkpt>
      <trkpt lat="43.49713" lon="-1.29437">
        <ele>1.3999999761581</ele>
        <time>2025-08-13T10:09:31.000Z</time>
      </trkpt>
      <trkpt lat="43.49656" lon="-1.29492">
        <ele>16</ele>
        <time>2025-08-13T10:11:25.000Z</time>
      </trkpt>
      <trkpt lat="43.49654" lon="-1.29492">
        <ele>16</ele>
        <time>2025-08-13T10:11:27.000Z</time>
      </trkpt>
      <trkpt lat="43.49653" lon="-1.29491">
        <ele>16</ele>
        <time>2025-08-13T10:11:28.000Z</time>
      </trkpt>
      <trkpt lat="43.49652" lon="-1.2949">
        <ele>16</ele>
        <time>2025-08-13T10:11:29.000Z</time>
      </trkpt>
      <trkpt lat="43.49649" lon="-1.29488">
        <ele>16.200000762939</ele>
        <time>2025-08-13T10:11:33.000Z</time>
      </trkpt>
      <trkpt lat="43.49648" lon="-1.29486">
        <ele>16.200000762939</ele>
        <time>2025-08-13T10:11:34.000Z</time>
      </trkpt>
      <trkpt lat="43.49641" lon="-1.29472">
        <ele>16.39999961853</ele>
        <time>2025-08-13T10:11:40.000Z</time>
      </trkpt>
      <trkpt lat="43.49635" lon="-1.29461">
        <ele>17</ele>
        <time>2025-08-13T10:11:45.000Z</time>
      </trkpt>
      <trkpt lat="43.49634" lon="-1.29456">
        <ele>17.39999961853</ele>
        <time>2025-08-13T10:11:47.000Z</time>
      </trkpt>
      <trkpt lat="43.49627" lon="-1.29434">
        <ele>18</ele>
        <time>2025-08-13T10:11:56.000Z</time>
      </trkpt>
      <trkpt lat="43.4962" lon="-1.29407">
        <ele>18.60000038147</ele>
        <time>2025-08-13T10:12:06.000Z</time>
      </trkpt>
      <trkpt lat="43.49616" lon="-1.294">
        <ele>19.200000762939</ele>
        <time>2025-08-13T10:12:09.000Z</time>
      </trkpt>
      <trkpt lat="43.49607" lon="-1.29395">
        <ele>20</ele>
        <time>2025-08-13T10:12:13.000Z</time>
      </trkpt>
      <trkpt lat="43.49603" lon="-1.29395">
        <ele>20.200000762939</ele>
        <time>2025-08-13T10:12:15.000Z</time>
      </trkpt>
      <trkpt lat="43.49589" lon="-1.29398">
        <ele>21.200000762939</ele>
        <time>2025-08-13T10:12:21.000Z</time>
      </trkpt>
      <trkpt lat="43.49587" lon="-1.29399">
        <ele>21.200000762939</ele>
        <time>2025-08-13T10:12:22.000Z</time>
      </trkpt>
      <trkpt lat="43.49572" lon="-1.29398">
        <ele>22.200000762939</ele>
        <time>2025-08-13T10:12:29.000Z</time>
      </trkpt>
      <trkpt lat="43.49561" lon="-1.29397">
        <ele>23</ele>
        <time>2025-08-13T10:12:36.000Z</time>
      </trkpt>
      <trkpt lat="43.49555" lon="-1.29394">
        <ele>23.200000762939</ele>
        <time>2025-08-13T10:12:40.000Z</time>
      </trkpt>
      <trkpt lat="43.49546" lon="-1.29389">
        <ele>23.799999237061</ele>
        <time>2025-08-13T10:12:45.000Z</time>
      </trkpt>
      <trkpt lat="43.49538" lon="-1.29384">
        <ele>24.39999961853</ele>
        <time>2025-08-13T10:12:51.000Z</time>
      </trkpt>
      <trkpt lat="43.49533" lon="-1.29381">
        <ele>24.60000038147</ele>
        <time>2025-08-13T10:12:54.000Z</time>
      </trkpt>
      <trkpt lat="43.49518" lon="-1.29371">
        <ele>25.39999961853</ele>
        <time>2025-08-13T10:13:02.000Z</time>
      </trkpt>
      <trkpt lat="43.49517" lon="-1.29369">
        <ele>25.60000038147</ele>
        <time>2025-08-13T10:13:03.000Z</time>
      </trkpt>
      <trkpt lat="43.49507" lon="-1.29361">
        <ele>26.200000762939</ele>
        <time>2025-08-13T10:13:09.000Z</time>
      </trkpt>
      <trkpt lat="43.49502" lon="-1.29358">
        <ele>26.60000038147</ele>
        <time>2025-08-13T10:13:12.000Z</time>
      </trkpt>
      <trkpt lat="43.49497" lon="-1.29355">
        <ele>26.799999237061</ele>
        <time>2025-08-13T10:13:15.000Z</time>
      </trkpt>
      <trkpt lat="43.49493" lon="-1.29352">
        <ele>27</ele>
        <time>2025-08-13T10:13:17.000Z</time>
      </trkpt>
      <trkpt lat="43.49482" lon="-1.29344">
        <ele>27.60000038147</ele>
        <time>2025-08-13T10:13:24.000Z</time>
      </trkpt>
      <trkpt lat="43.49472" lon="-1.29338">
        <ele>28.39999961853</ele>
        <time>2025-08-13T10:13:30.000Z</time>
      </trkpt>
      <trkpt lat="43.49468" lon="-1.29335">
        <ele>28.799999237061</ele>
        <time>2025-08-13T10:13:33.000Z</time>
      </trkpt>
      <trkpt lat="43.49463" lon="-1.29331">
        <ele>29.39999961853</ele>
        <time>2025-08-13T10:13:36.000Z</time>
      </trkpt>
      <trkpt lat="43.49454" lon="-1.29319">
        <ele>29.799999237061</ele>
        <time>2025-08-13T10:13:43.000Z</time>
      </trkpt>
      <trkpt lat="43.49453" lon="-1.29318">
        <ele>30</ele>
        <time>2025-08-13T10:13:44.000Z</time>
      </trkpt>
      <trkpt lat="43.49449" lon="-1.29305">
        <ele>30.60000038147</ele>
        <time>2025-08-13T10:13:49.000Z</time>
      </trkpt>
      <trkpt lat="43.49446" lon="-1.293">
        <ele>31</ele>
        <time>2025-08-13T10:13:52.000Z</time>
      </trkpt>
      <trkpt lat="43.49443" lon="-1.29293">
        <ele>31.200000762939</ele>
        <time>2025-08-13T10:13:55.000Z</time>
      </trkpt>
      <trkpt lat="43.49433" lon="-1.2929">
        <ele>31.60000038147</ele>
        <time>2025-08-13T10:14:01.000Z</time>
      </trkpt>
      <trkpt lat="43.49432" lon="-1.29288">
        <ele>31.60000038147</ele>
        <time>2025-08-13T10:14:02.000Z</time>
      </trkpt>
      <trkpt lat="43.49432" lon="-1.29285">
        <ele>31.60000038147</ele>
        <time>2025-08-13T10:14:03.000Z</time>
      </trkpt>
      <trkpt lat="43.49432" lon="-1.29283">
        <ele>31.799999237061</ele>
        <time>2025-08-13T10:14:04.000Z</time>
      </trkpt>
      <trkpt lat="43.49434" lon="-1.29272">
        <ele>32</ele>
        <time>2025-08-13T10:14:07.000Z</time>
      </trkpt>
      <trkpt lat="43.49432" lon="-1.29244">
        <ele>32.200000762939</ele>
        <time>2025-08-13T10:14:14.000Z</time>
      </trkpt>
      <trkpt lat="43.49421" lon="-1.29207">
        <ele>32.400001525879</ele>
        <time>2025-08-13T10:14:23.000Z</time>
      </trkpt>
      <trkpt lat="43.49412" lon="-1.29173">
        <ele>32.599998474121</ele>
        <time>2025-08-13T10:14:32.000Z</time>
      </trkpt>
      <trkpt lat="43.49411" lon="-1.29171">
        <ele>32.599998474121</ele>
        <time>2025-08-13T10:14:33.000Z</time>
      </trkpt>
      <trkpt lat="43.4941" lon="-1.29167">
        <ele>32.400001525879</ele>
        <time>2025-08-13T10:14:36.000Z</time>
      </trkpt>
      <trkpt lat="43.49409" lon="-1.29165">
        <ele>32.400001525879</ele>
        <time>2025-08-13T10:14:39.000Z</time>
      </trkpt>
      <trkpt lat="43.4941" lon="-1.29164">
        <ele>32.400001525879</ele>
        <time>2025-08-13T10:14:42.000Z</time>
      </trkpt>
      <trkpt lat="43.49409" lon="-1.29164">
        <ele>32.400001525879</ele>
        <time>2025-08-13T10:14:46.000Z</time>
      </trkpt>
      <trkpt lat="43.49409" lon="-1.29164">
        <ele>32.400001525879</ele>
        <time>2025-08-13T10:14:47.000Z</time>
      </trkpt>
      <trkpt lat="43.49441" lon="-1.29265">
        <ele>21.200000762939</ele>
        <time>2025-08-13T11:31:37.000Z</time>
      </trkpt>
      <trkpt lat="43.49444" lon="-1.29271">
        <ele>21.200000762939</ele>
        <time>2025-08-13T11:31:39.000Z</time>
      </trkpt>
      <trkpt lat="43.4945" lon="-1.29291">
        <ele>21</ele>
        <time>2025-08-13T11:31:44.000Z</time>
      </trkpt>
      <trkpt lat="43.4946" lon="-1.29314">
        <ele>20.60000038147</ele>
        <time>2025-08-13T11:31:48.000Z</time>
      </trkpt>
      <trkpt lat="43.49463" lon="-1.2932">
        <ele>20.39999961853</ele>
        <time>2025-08-13T11:31:49.000Z</time>
      </trkpt>
      <trkpt lat="43.49467" lon="-1.29326">
        <ele>20.200000762939</ele>
        <time>2025-08-13T11:31:50.000Z</time>
      </trkpt>
      <trkpt lat="43.49477" lon="-1.29334">
        <ele>19.799999237061</ele>
        <time>2025-08-13T11:31:52.000Z</time>
      </trkpt>
      <trkpt lat="43.49498" lon="-1.2935">
        <ele>18.39999961853</ele>
        <time>2025-08-13T11:31:56.000Z</time>
      </trkpt>
      <trkpt lat="43.49504" lon="-1.29354">
        <ele>18</ele>
        <time>2025-08-13T11:31:57.000Z</time>
      </trkpt>
      <trkpt lat="43.49516" lon="-1.29361">
        <ele>17.60000038147</ele>
        <time>2025-08-13T11:31:59.000Z</time>
      </trkpt>
      <trkpt lat="43.49527" lon="-1.29368">
        <ele>17</ele>
        <time>2025-08-13T11:32:01.000Z</time>
      </trkpt>
      <trkpt lat="43.49532" lon="-1.29371">
        <ele>17</ele>
        <time>2025-08-13T11:32:02.000Z</time>
      </trkpt>
      <trkpt lat="43.49549" lon="-1.29381">
        <ele>16</ele>
        <time>2025-08-13T11:32:05.000Z</time>
      </trkpt>
      <trkpt lat="43.49564" lon="-1.29389">
        <ele>14.60000038147</ele>
        <time>2025-08-13T11:32:08.000Z</time>
      </trkpt>
      <trkpt lat="43.4957" lon="-1.29391">
        <ele>14.39999961853</ele>
        <time>2025-08-13T11:32:09.000Z</time>
      </trkpt>
      <trkpt lat="43.4958" lon="-1.29395">
        <ele>13.800000190735</ele>
        <time>2025-08-13T11:32:11.000Z</time>
      </trkpt>
      <trkpt lat="43.49585" lon="-1.29395">
        <ele>13.60000038147</ele>
        <time>2025-08-13T11:32:12.000Z</time>
      </trkpt>
      <trkpt lat="43.49591" lon="-1.29393">
        <ele>13</ele>
        <time>2025-08-13T11:32:13.000Z</time>
      </trkpt>
      <trkpt lat="43.49603" lon="-1.29389">
        <ele>12.60000038147</ele>
        <time>2025-08-13T11:32:15.000Z</time>
      </trkpt>
      <trkpt lat="43.49608" lon="-1.29388">
        <ele>12.39999961853</ele>
        <time>2025-08-13T11:32:16.000Z</time>
      </trkpt>
      <trkpt lat="43.49613" lon="-1.2939">
        <ele>12</ele>
        <time>2025-08-13T11:32:17.000Z</time>
      </trkpt>
      <trkpt lat="43.49622" lon="-1.29399">
        <ele>11.39999961853</ele>
        <time>2025-08-13T11:32:19.000Z</time>
      </trkpt>
      <trkpt lat="43.49625" lon="-1.29406">
        <ele>11</ele>
        <time>2025-08-13T11:32:20.000Z</time>
      </trkpt>
      <trkpt lat="43.49628" lon="-1.29413">
        <ele>10.800000190735</ele>
        <time>2025-08-13T11:32:21.000Z</time>
      </trkpt>
      <trkpt lat="43.49635" lon="-1.29437">
        <ele>10</ele>
        <time>2025-08-13T11:32:24.000Z</time>
      </trkpt>
      <trkpt lat="43.49639" lon="-1.29452">
        <ele>9.1999998092651</ele>
        <time>2025-08-13T11:32:26.000Z</time>
      </trkpt>
      <trkpt lat="43.49641" lon="-1.29459">
        <ele>8.6000003814697</ele>
        <time>2025-08-13T11:32:27.000Z</time>
      </trkpt>
      <trkpt lat="43.4965" lon="-1.29479">
        <ele>7.8000001907349</ele>
        <time>2025-08-13T11:32:30.000Z</time>
      </trkpt>
      <trkpt lat="43.49653" lon="-1.29485">
        <ele>7.5999999046326</ele>
        <time>2025-08-13T11:32:31.000Z</time>
      </trkpt>
      <trkpt lat="43.49658" lon="-1.2949">
        <ele>7.4000000953674</ele>
        <time>2025-08-13T11:32:32.000Z</time>
      </trkpt>
      <trkpt lat="43.4968" lon="-1.29502">
        <ele>6.5999999046326</ele>
        <time>2025-08-13T11:32:36.000Z</time>
      </trkpt>
      <trkpt lat="43.49686" lon="-1.29504">
        <ele>6.1999998092651</ele>
        <time>2025-08-13T11:32:37.000Z</time>
      </trkpt>
      <trkpt lat="43.49691" lon="-1.29507">
        <ele>6</ele>
        <time>2025-08-13T11:32:38.000Z</time>
      </trkpt>
      <trkpt lat="43.49702" lon="-1.29516">
        <ele>5.5999999046326</ele>
        <time>2025-08-13T11:32:40.000Z</time>
      </trkpt>
      <trkpt lat="43.49707" lon="-1.29522">
        <ele>5.4000000953674</ele>
        <time>2025-08-13T11:32:41.000Z</time>
      </trkpt>
      <trkpt lat="43.49722" lon="-1.29541">
        <ele>4.5999999046326</ele>
        <time>2025-08-13T11:32:44.000Z</time>
      </trkpt>
      <trkpt lat="43.49733" lon="-1.29553">
        <ele>3.7999999523163</ele>
        <time>2025-08-13T11:32:46.000Z</time>
      </trkpt>
      <trkpt lat="43.49738" lon="-1.29558">
        <ele>3.5999999046326</ele>
        <time>2025-08-13T11:32:47.000Z</time>
      </trkpt>
      <trkpt lat="43.49759" lon="-1.29583">
        <ele>2.2000000476837</ele>
        <time>2025-08-13T11:32:51.000Z</time>
      </trkpt>
      <trkpt lat="43.49764" lon="-1.2959">
        <ele>2</ele>
        <time>2025-08-13T11:32:52.000Z</time>
      </trkpt>
      <trkpt lat="43.49779" lon="-1.29608">
        <ele>0.80000001192093</ele>
        <time>2025-08-13T11:32:55.000Z</time>
      </trkpt>
      <trkpt lat="43.49792" lon="-1.2962">
        <ele>-0.40000000596046</ele>
        <time>2025-08-13T11:32:58.000Z</time>
      </trkpt>
      <trkpt lat="43.49802" lon="-1.29621">
        <ele>-1.7999999523163</ele>
        <time>2025-08-13T11:33:01.000Z</time>
      </trkpt>
      <trkpt lat="43.49805" lon="-1.29619">
        <ele>-2.2000000476837</ele>
        <time>2025-08-13T11:33:02.000Z</time>
      </trkpt>
      <trkpt lat="43.4981" lon="-1.29611">
        <ele>-3</ele>
        <time>2025-08-13T11:33:04.000Z</time>
      </trkpt>
      <trkpt lat="43.49811" lon="-1.29606">
        <ele>-3.5999999046326</ele>
        <time>2025-08-13T11:33:05.000Z</time>
      </trkpt>
      <trkpt lat="43.49812" lon="-1.29601">
        <ele>-3.7999999523163</ele>
        <time>2025-08-13T11:33:06.000Z</time>
      </trkpt>
      <trkpt lat="43.49812" lon="-1.29596">
        <ele>-4</ele>
        <time>2025-08-13T11:33:07.000Z</time>
      </trkpt>
      <trkpt lat="43.49807" lon="-1.29572">
        <ele>-5.1999998092651</ele>
        <time>2025-08-13T11:33:12.000Z</time>
      </trkpt>
      <trkpt lat="43.49799" lon="-1.29556">
        <ele>-5.5999999046326</ele>
        <time>2025-08-13T11:33:15.000Z</time>
      </trkpt>
      <trkpt lat="43.49792" lon="-1.29545">
        <ele>-6</ele>
        <time>2025-08-13T11:33:17.000Z</time>
      </trkpt>
      <trkpt lat="43.49785" lon="-1.29532">
        <ele>-6.1999998092651</ele>
        <time>2025-08-13T11:33:19.000Z</time>
      </trkpt>
      <trkpt lat="43.49765" lon="-1.29499">
        <ele>-7.5999999046326</ele>
        <time>2025-08-13T11:33:24.000Z</time>
      </trkpt>
      <trkpt lat="43.49748" lon="-1.29471">
        <ele>-8.8000001907349</ele>
        <time>2025-08-13T11:33:28.000Z</time>
      </trkpt>
      <trkpt lat="43.49739" lon="-1.29458">
        <ele>-9.1999998092651</ele>
        <time>2025-08-13T11:33:30.000Z</time>
      </trkpt>
      <trkpt lat="43.49729" lon="-1.29442">
        <ele>-9.8000001907349</ele>
        <time>2025-08-13T11:33:33.000Z</time>
      </trkpt>
      <trkpt lat="43.49726" lon="-1.29436">
        <ele>-10</ele>
        <time>2025-08-13T11:33:34.000Z</time>
      </trkpt>
      <trkpt lat="43.49724" lon="-1.29431">
        <ele>-10.39999961853</ele>
        <time>2025-08-13T11:33:35.000Z</time>
      </trkpt>
      <trkpt lat="43.49722" lon="-1.2942">
        <ele>-10.800000190735</ele>
        <time>2025-08-13T11:33:37.000Z</time>
      </trkpt>
      <trkpt lat="43.49722" lon="-1.29414">
        <ele>-11.199999809265</ele>
        <time>2025-08-13T11:33:38.000Z</time>
      </trkpt>
      <trkpt lat="43.49722" lon="-1.29408">
        <ele>-11.199999809265</ele>
        <time>2025-08-13T11:33:39.000Z</time>
      </trkpt>
      <trkpt lat="43.49726" lon="-1.29396">
        <ele>-11.800000190735</ele>
        <time>2025-08-13T11:33:42.000Z</time>
      </trkpt>
      <trkpt lat="43.49731" lon="-1.29399">
        <ele>-12</ele>
        <time>2025-08-13T11:33:44.000Z</time>
      </trkpt>
      <trkpt lat="43.49733" lon="-1.29404">
        <ele>-12.199999809265</ele>
        <time>2025-08-13T11:33:45.000Z</time>
      </trkpt>
      <trkpt lat="43.49751" lon="-1.29432">
        <ele>-13</ele>
        <time>2025-08-13T11:33:51.000Z</time>
      </trkpt>
      <trkpt lat="43.49754" lon="-1.29436">
        <ele>-13.199999809265</ele>
        <time>2025-08-13T11:33:52.000Z</time>
      </trkpt>
      <trkpt lat="43.49777" lon="-1.29472">
        <ele>-13.800000190735</ele>
        <time>2025-08-13T11:34:00.000Z</time>
      </trkpt>
      <trkpt lat="43.49783" lon="-1.29481">
        <ele>-14.199999809265</ele>
        <time>2025-08-13T11:34:02.000Z</time>
      </trkpt>
      <trkpt lat="43.49805" lon="-1.29516">
        <ele>-14.199999809265</ele>
        <time>2025-08-13T11:34:11.000Z</time>
      </trkpt>
      <trkpt lat="43.49826" lon="-1.29546">
        <ele>-14.199999809265</ele>
        <time>2025-08-13T11:34:19.000Z</time>
      </trkpt>
      <trkpt lat="43.49842" lon="-1.29568">
        <ele>-14.199999809265</ele>
        <time>2025-08-13T11:34:25.000Z</time>
      </trkpt>
      <trkpt lat="43.49864" lon="-1.29598">
        <ele>-14.199999809265</ele>
        <time>2025-08-13T11:34:33.000Z</time>
      </trkpt>
      <trkpt lat="43.49872" lon="-1.29609">
        <ele>-14.39999961853</ele>
        <time>2025-08-13T11:34:36.000Z</time>
      </trkpt>
      <trkpt lat="43.49888" lon="-1.29632">
        <ele>-14.60000038147</ele>
        <time>2025-08-13T11:34:42.000Z</time>
      </trkpt>
      <trkpt lat="43.49896" lon="-1.29643">
        <ele>-14.60000038147</ele>
        <time>2025-08-13T11:34:45.000Z</time>
      </trkpt>
      <trkpt lat="43.49911" lon="-1.29665">
        <ele>-14.60000038147</ele>
        <time>2025-08-13T11:34:51.000Z</time>
      </trkpt>
      <trkpt lat="43.49933" lon="-1.29693">
        <ele>-14.60000038147</ele>
        <time>2025-08-13T11:34:59.000Z</time>
      </trkpt>
      <trkpt lat="43.49957" lon="-1.29726">
        <ele>-14.60000038147</ele>
        <time>2025-08-13T11:35:08.000Z</time>
      </trkpt>
      <trkpt lat="43.4998" lon="-1.29762">
        <ele>-14.60000038147</ele>
        <time>2025-08-13T11:35:17.000Z</time>
      </trkpt>
      <trkpt lat="43.49997" lon="-1.2979">
        <ele>-14.60000038147</ele>
        <time>2025-08-13T11:35:24.000Z</time>
      </trkpt>
      <trkpt lat="43.50025" lon="-1.29835">
        <ele>-14.800000190735</ele>
        <time>2025-08-13T11:35:35.000Z</time>
      </trkpt>
      <trkpt lat="43.50047" lon="-1.29882">
        <ele>-14.800000190735</ele>
        <time>2025-08-13T11:35:45.000Z</time>
      </trkpt>
      <trkpt lat="43.50066" lon="-1.29923">
        <ele>-14.800000190735</ele>
        <time>2025-08-13T11:35:54.000Z</time>
      </trkpt>
      <trkpt lat="43.50076" lon="-1.29957">
        <ele>-14.800000190735</ele>
        <time>2025-08-13T11:36:01.000Z</time>
      </trkpt>
      <trkpt lat="43.50082" lon="-1.30001">
        <ele>-14.800000190735</ele>
        <time>2025-08-13T11:36:09.000Z</time>
      </trkpt>
      <trkpt lat="43.50084" lon="-1.30017">
        <ele>-14.800000190735</ele>
        <time>2025-08-13T11:36:12.000Z</time>
      </trkpt>
      <trkpt lat="43.50086" lon="-1.30045">
        <ele>-14.800000190735</ele>
        <time>2025-08-13T11:36:17.000Z</time>
      </trkpt>
      <trkpt lat="43.50091" lon="-1.30095">
        <ele>-14.800000190735</ele>
        <time>2025-08-13T11:36:26.000Z</time>
      </trkpt>
      <trkpt lat="43.50092" lon="-1.30106">
        <ele>-14.800000190735</ele>
        <time>2025-08-13T11:36:28.000Z</time>
      </trkpt>
      <trkpt lat="43.50095" lon="-1.30128">
        <ele>-14.60000038147</ele>
        <time>2025-08-13T11:36:32.000Z</time>
      </trkpt>
      <trkpt lat="43.50099" lon="-1.30167">
        <ele>-14.60000038147</ele>
        <time>2025-08-13T11:36:39.000Z</time>
      </trkpt>
      <trkpt lat="43.50102" lon="-1.30204">
        <ele>-14.39999961853</ele>
        <time>2025-08-13T11:36:46.000Z</time>
      </trkpt>
      <trkpt lat="43.50104" lon="-1.30249">
        <ele>-14.800000190735</ele>
        <time>2025-08-13T11:36:54.000Z</time>
      </trkpt>
      <trkpt lat="43.50107" lon="-1.30293">
        <ele>-14.800000190735</ele>
        <time>2025-08-13T11:37:02.000Z</time>
      </trkpt>
      <trkpt lat="43.5011" lon="-1.30352">
        <ele>-15</ele>
        <time>2025-08-13T11:37:13.000Z</time>
      </trkpt>
      <trkpt lat="43.50111" lon="-1.30388">
        <ele>-15</ele>
        <time>2025-08-13T11:37:20.000Z</time>
      </trkpt>
      <trkpt lat="43.50113" lon="-1.30414">
        <ele>-14.800000190735</ele>
        <time>2025-08-13T11:37:25.000Z</time>
      </trkpt>
      <trkpt lat="43.50113" lon="-1.30429">
        <ele>-14.800000190735</ele>
        <time>2025-08-13T11:37:28.000Z</time>
      </trkpt>
      <trkpt lat="43.50114" lon="-1.30459">
        <ele>-14.800000190735</ele>
        <time>2025-08-13T11:37:34.000Z</time>
      </trkpt>
      <trkpt lat="43.50114" lon="-1.30509">
        <ele>-15.199999809265</ele>
        <time>2025-08-13T11:37:44.000Z</time>
      </trkpt>
      <trkpt lat="43.50116" lon="-1.30555">
        <ele>-15.39999961853</ele>
        <time>2025-08-13T11:37:53.000Z</time>
      </trkpt>
      <trkpt lat="43.50116" lon="-1.30615">
        <ele>-15.800000190735</ele>
        <time>2025-08-13T11:38:04.000Z</time>
      </trkpt>
      <trkpt lat="43.50115" lon="-1.30665">
        <ele>-15.60000038147</ele>
        <time>2025-08-13T11:38:13.000Z</time>
      </trkpt>
      <trkpt lat="43.50117" lon="-1.30699">
        <ele>-15.60000038147</ele>
        <time>2025-08-13T11:38:19.000Z</time>
      </trkpt>
      <trkpt lat="43.50116" lon="-1.30715">
        <ele>-15.60000038147</ele>
        <time>2025-08-13T11:38:22.000Z</time>
      </trkpt>
      <trkpt lat="43.50113" lon="-1.30747">
        <ele>-15.39999961853</ele>
        <time>2025-08-13T11:38:28.000Z</time>
      </trkpt>
      <trkpt lat="43.50108" lon="-1.30803">
        <ele>-15.800000190735</ele>
        <time>2025-08-13T11:38:38.000Z</time>
      </trkpt>
      <trkpt lat="43.50106" lon="-1.30846">
        <ele>-15.800000190735</ele>
        <time>2025-08-13T11:38:46.000Z</time>
      </trkpt>
      <trkpt lat="43.50105" lon="-1.30908">
        <ele>-16</ele>
        <time>2025-08-13T11:38:57.000Z</time>
      </trkpt>
      <trkpt lat="43.50106" lon="-1.30925">
        <ele>-16</ele>
        <time>2025-08-13T11:39:00.000Z</time>
      </trkpt>
      <trkpt lat="43.50104" lon="-1.30947">
        <ele>-16</ele>
        <time>2025-08-13T11:39:04.000Z</time>
      </trkpt>
      <trkpt lat="43.50104" lon="-1.30958">
        <ele>-16</ele>
        <time>2025-08-13T11:39:06.000Z</time>
      </trkpt>
      <trkpt lat="43.50106" lon="-1.30986">
        <ele>-16.200000762939</ele>
        <time>2025-08-13T11:39:11.000Z</time>
      </trkpt>
      <trkpt lat="43.50106" lon="-1.31003">
        <ele>-16.200000762939</ele>
        <time>2025-08-13T11:39:14.000Z</time>
      </trkpt>
      <trkpt lat="43.50106" lon="-1.31042">
        <ele>-16.200000762939</ele>
        <time>2025-08-13T11:39:21.000Z</time>
      </trkpt>
      <trkpt lat="43.50104" lon="-1.31067">
        <ele>-16</ele>
        <time>2025-08-13T11:39:26.000Z</time>
      </trkpt>
      <trkpt lat="43.50096" lon="-1.31072">
        <ele>-16.200000762939</ele>
        <time>2025-08-13T11:39:29.000Z</time>
      </trkpt>
      <trkpt lat="43.50078" lon="-1.31068">
        <ele>-16.39999961853</ele>
        <time>2025-08-13T11:39:34.000Z</time>
      </trkpt>
      <trkpt lat="43.50071" lon="-1.31065">
        <ele>-16.60000038147</ele>
        <time>2025-08-13T11:39:36.000Z</time>
      </trkpt>
      <trkpt lat="43.50046" lon="-1.31065">
        <ele>-16.60000038147</ele>
        <time>2025-08-13T11:39:43.000Z</time>
      </trkpt>
      <trkpt lat="43.5004" lon="-1.3108">
        <ele>-16.60000038147</ele>
        <time>2025-08-13T11:39:47.000Z</time>
      </trkpt>
      <trkpt lat="43.50038" lon="-1.31118">
        <ele>-16.60000038147</ele>
        <time>2025-08-13T11:39:55.000Z</time>
      </trkpt>
      <trkpt lat="43.50038" lon="-1.31143">
        <ele>-16.39999961853</ele>
        <time>2025-08-13T11:40:00.000Z</time>
      </trkpt>
      <trkpt lat="43.50037" lon="-1.31193">
        <ele>-16.799999237061</ele>
        <time>2025-08-13T11:40:10.000Z</time>
      </trkpt>
      <trkpt lat="43.50035" lon="-1.31234">
        <ele>-16.799999237061</ele>
        <time>2025-08-13T11:40:18.000Z</time>
      </trkpt>
      <trkpt lat="43.50032" lon="-1.31292">
        <ele>-16.60000038147</ele>
        <time>2025-08-13T11:40:30.000Z</time>
      </trkpt>
      <trkpt lat="43.50031" lon="-1.31332">
        <ele>-16.200000762939</ele>
        <time>2025-08-13T11:40:38.000Z</time>
      </trkpt>
      <trkpt lat="43.50033" lon="-1.31371">
        <ele>-16.200000762939</ele>
        <time>2025-08-13T11:40:46.000Z</time>
      </trkpt>
      <trkpt lat="43.50033" lon="-1.31405">
        <ele>-16.39999961853</ele>
        <time>2025-08-13T11:40:53.000Z</time>
      </trkpt>
      <trkpt lat="43.50041" lon="-1.31435">
        <ele>-16.39999961853</ele>
        <time>2025-08-13T11:41:00.000Z</time>
      </trkpt>
      <trkpt lat="43.50039" lon="-1.3144">
        <ele>-16.200000762939</ele>
        <time>2025-08-13T11:41:03.000Z</time>
      </trkpt>
      <trkpt lat="43.50039" lon="-1.3144">
        <ele>-16.200000762939</ele>
        <time>2025-08-13T11:41:04.000Z</time>
      </trkpt>
      <trkpt lat="43.50035" lon="-1.31443">
        <ele>-16.60000038147</ele>
        <time>2025-08-13T11:41:13.000Z</time>
      </trkpt>
      <trkpt lat="43.50032" lon="-1.31449">
        <ele>-16.60000038147</ele>
        <time>2025-08-13T11:41:15.000Z</time>
      </trkpt>
      <trkpt lat="43.50027" lon="-1.31469">
        <ele>-16.60000038147</ele>
        <time>2025-08-13T11:41:20.000Z</time>
      </trkpt>
      <trkpt lat="43.50028" lon="-1.31492">
        <ele>-16.60000038147</ele>
        <time>2025-08-13T11:41:25.000Z</time>
      </trkpt>
      <trkpt lat="43.50034" lon="-1.31527">
        <ele>-16.39999961853</ele>
        <time>2025-08-13T11:41:32.000Z</time>
      </trkpt>
      <trkpt lat="43.50039" lon="-1.3155">
        <ele>-16.200000762939</ele>
        <time>2025-08-13T11:41:37.000Z</time>
      </trkpt>
      <trkpt lat="43.50035" lon="-1.31569">
        <ele>-16.39999961853</ele>
        <time>2025-08-13T11:41:41.000Z</time>
      </trkpt>
      <trkpt lat="43.50021" lon="-1.31594">
        <ele>-16.39999961853</ele>
        <time>2025-08-13T11:41:47.000Z</time>
      </trkpt>
      <trkpt lat="43.49997" lon="-1.31636">
        <ele>-16.60000038147</ele>
        <time>2025-08-13T11:41:56.000Z</time>
      </trkpt>
      <trkpt lat="43.49991" lon="-1.31649">
        <ele>-16.60000038147</ele>
        <time>2025-08-13T11:41:59.000Z</time>
      </trkpt>
      <trkpt lat="43.4998" lon="-1.31667">
        <ele>-16.60000038147</ele>
        <time>2025-08-13T11:42:04.000Z</time>
      </trkpt>
      <trkpt lat="43.49953" lon="-1.31695">
        <ele>-16.60000038147</ele>
        <time>2025-08-13T11:42:13.000Z</time>
      </trkpt>
      <trkpt lat="43.49927" lon="-1.31721">
        <ele>-17</ele>
        <time>2025-08-13T11:42:20.000Z</time>
      </trkpt>
      <trkpt lat="43.49905" lon="-1.3176">
        <ele>-16.799999237061</ele>
        <time>2025-08-13T11:42:28.000Z</time>
      </trkpt>
      <trkpt lat="43.499" lon="-1.31771">
        <ele>-16.799999237061</ele>
        <time>2025-08-13T11:42:30.000Z</time>
      </trkpt>
      <trkpt lat="43.4989" lon="-1.31783">
        <ele>-17</ele>
        <time>2025-08-13T11:42:33.000Z</time>
      </trkpt>
      <trkpt lat="43.49888" lon="-1.31787">
        <ele>-17</ele>
        <time>2025-08-13T11:42:34.000Z</time>
      </trkpt>
      <trkpt lat="43.49876" lon="-1.31815">
        <ele>-16.799999237061</ele>
        <time>2025-08-13T11:42:40.000Z</time>
      </trkpt>
      <trkpt lat="43.49857" lon="-1.3186">
        <ele>-17</ele>
        <time>2025-08-13T11:42:49.000Z</time>
      </trkpt>
      <trkpt lat="43.49844" lon="-1.31885">
        <ele>-16.799999237061</ele>
        <time>2025-08-13T11:42:54.000Z</time>
      </trkpt>
      <trkpt lat="43.4984" lon="-1.31895">
        <ele>-16.799999237061</ele>
        <time>2025-08-13T11:42:56.000Z</time>
      </trkpt>
      <trkpt lat="43.49831" lon="-1.31935">
        <ele>-16.60000038147</ele>
        <time>2025-08-13T11:43:03.000Z</time>
      </trkpt>
      <trkpt lat="43.49829" lon="-1.31948">
        <ele>-16.60000038147</ele>
        <time>2025-08-13T11:43:05.000Z</time>
      </trkpt>
      <trkpt lat="43.49828" lon="-1.31961">
        <ele>-16.39999961853</ele>
        <time>2025-08-13T11:43:07.000Z</time>
      </trkpt>
      <trkpt lat="43.49829" lon="-1.31968">
        <ele>-16.39999961853</ele>
        <time>2025-08-13T11:43:08.000Z</time>
      </trkpt>
      <trkpt lat="43.49827" lon="-1.31975">
        <ele>-16.39999961853</ele>
        <time>2025-08-13T11:43:09.000Z</time>
      </trkpt>
      <trkpt lat="43.49818" lon="-1.32027">
        <ele>-16.39999961853</ele>
        <time>2025-08-13T11:43:18.000Z</time>
      </trkpt>
      <trkpt lat="43.49816" lon="-1.32043">
        <ele>-16.200000762939</ele>
        <time>2025-08-13T11:43:21.000Z</time>
      </trkpt>
      <trkpt lat="43.49815" lon="-1.32061">
        <ele>-16.200000762939</ele>
        <time>2025-08-13T11:43:24.000Z</time>
      </trkpt>
      <trkpt lat="43.49812" lon="-1.32106">
        <ele>-16.200000762939</ele>
        <time>2025-08-13T11:43:32.000Z</time>
      </trkpt>
      <trkpt lat="43.49814" lon="-1.32152">
        <ele>-16.60000038147</ele>
        <time>2025-08-13T11:43:39.000Z</time>
      </trkpt>
      <trkpt lat="43.49812" lon="-1.32165">
        <ele>-16.799999237061</ele>
        <time>2025-08-13T11:43:41.000Z</time>
      </trkpt>
      <trkpt lat="43.49811" lon="-1.32176">
        <ele>-16.799999237061</ele>
        <time>2025-08-13T11:43:43.000Z</time>
      </trkpt>
      <trkpt lat="43.4981" lon="-1.32236">
        <ele>-17</ele>
        <time>2025-08-13T11:43:52.000Z</time>
      </trkpt>
      <trkpt lat="43.4981" lon="-1.32241">
        <ele>-17</ele>
        <time>2025-08-13T11:43:53.000Z</time>
      </trkpt>
      <trkpt lat="43.49809" lon="-1.32247">
        <ele>-17</ele>
        <time>2025-08-13T11:43:54.000Z</time>
      </trkpt>
      <trkpt lat="43.49808" lon="-1.32279">
        <ele>-17</ele>
        <time>2025-08-13T11:44:00.000Z</time>
      </trkpt>
      <trkpt lat="43.49806" lon="-1.32317">
        <ele>-17</ele>
        <time>2025-08-13T11:44:07.000Z</time>
      </trkpt>
      <trkpt lat="43.49803" lon="-1.32359">
        <ele>-17</ele>
        <time>2025-08-13T11:44:15.000Z</time>
      </trkpt>
      <trkpt lat="43.49798" lon="-1.32393">
        <ele>-17.200000762939</ele>
        <time>2025-08-13T11:44:21.000Z</time>
      </trkpt>
      <trkpt lat="43.49794" lon="-1.32409">
        <ele>-17.200000762939</ele>
        <time>2025-08-13T11:44:24.000Z</time>
      </trkpt>
      <trkpt lat="43.49791" lon="-1.32441">
        <ele>-17.200000762939</ele>
        <time>2025-08-13T11:44:30.000Z</time>
      </trkpt>
      <trkpt lat="43.49793" lon="-1.32445">
        <ele>-17.39999961853</ele>
        <time>2025-08-13T11:44:31.000Z</time>
      </trkpt>
      <trkpt lat="43.49799" lon="-1.32451">
        <ele>-17.39999961853</ele>
        <time>2025-08-13T11:44:33.000Z</time>
      </trkpt>
      <trkpt lat="43.4981" lon="-1.32463">
        <ele>-17.39999961853</ele>
        <time>2025-08-13T11:44:38.000Z</time>
      </trkpt>
      <trkpt lat="43.49818" lon="-1.32497">
        <ele>-16.39999961853</ele>
        <time>2025-08-13T11:44:47.000Z</time>
      </trkpt>
      <trkpt lat="43.4982" lon="-1.32529">
        <ele>-16.39999961853</ele>
        <time>2025-08-13T11:44:54.000Z</time>
      </trkpt>
      <trkpt lat="43.49818" lon="-1.32564">
        <ele>-16.39999961853</ele>
        <time>2025-08-13T11:45:01.000Z</time>
      </trkpt>
      <trkpt lat="43.49817" lon="-1.32611">
        <ele>-16.799999237061</ele>
        <time>2025-08-13T11:45:10.000Z</time>
      </trkpt>
      <trkpt lat="43.49816" lon="-1.32655">
        <ele>-17</ele>
        <time>2025-08-13T11:45:18.000Z</time>
      </trkpt>
      <trkpt lat="43.49817" lon="-1.32709">
        <ele>-16.60000038147</ele>
        <time>2025-08-13T11:45:28.000Z</time>
      </trkpt>
      <trkpt lat="43.49818" lon="-1.32763">
        <ele>-17</ele>
        <time>2025-08-13T11:45:38.000Z</time>
      </trkpt>
      <trkpt lat="43.49817" lon="-1.32798">
        <ele>-17</ele>
        <time>2025-08-13T11:45:44.000Z</time>
      </trkpt>
      <trkpt lat="43.49813" lon="-1.32842">
        <ele>-17.200000762939</ele>
        <time>2025-08-13T11:45:51.000Z</time>
      </trkpt>
      <trkpt lat="43.49811" lon="-1.32887">
        <ele>-17.200000762939</ele>
        <time>2025-08-13T11:45:59.000Z</time>
      </trkpt>
      <trkpt lat="43.49807" lon="-1.32912">
        <ele>-17.200000762939</ele>
        <time>2025-08-13T11:46:04.000Z</time>
      </trkpt>
      <trkpt lat="43.49802" lon="-1.32948">
        <ele>-17.200000762939</ele>
        <time>2025-08-13T11:46:11.000Z</time>
      </trkpt>
      <trkpt lat="43.49797" lon="-1.32991">
        <ele>-17</ele>
        <time>2025-08-13T11:46:19.000Z</time>
      </trkpt>
      <trkpt lat="43.49793" lon="-1.33014">
        <ele>-17.200000762939</ele>
        <time>2025-08-13T11:46:23.000Z</time>
      </trkpt>
      <trkpt lat="43.49788" lon="-1.3305">
        <ele>-17.200000762939</ele>
        <time>2025-08-13T11:46:29.000Z</time>
      </trkpt>
      <trkpt lat="43.49782" lon="-1.33082">
        <ele>-17.39999961853</ele>
        <time>2025-08-13T11:46:35.000Z</time>
      </trkpt>
      <trkpt lat="43.49778" lon="-1.33123">
        <ele>-17.200000762939</ele>
        <time>2025-08-13T11:46:43.000Z</time>
      </trkpt>
      <trkpt lat="43.49774" lon="-1.33161">
        <ele>-17.200000762939</ele>
        <time>2025-08-13T11:46:50.000Z</time>
      </trkpt>
      <trkpt lat="43.49768" lon="-1.33184">
        <ele>-17.39999961853</ele>
        <time>2025-08-13T11:46:55.000Z</time>
      </trkpt>
      <trkpt lat="43.49763" lon="-1.33208">
        <ele>-17.200000762939</ele>
        <time>2025-08-13T11:47:00.000Z</time>
      </trkpt>
      <trkpt lat="43.49759" lon="-1.33236">
        <ele>-17</ele>
        <time>2025-08-13T11:47:06.000Z</time>
      </trkpt>
      <trkpt lat="43.49756" lon="-1.33264">
        <ele>-17</ele>
        <time>2025-08-13T11:47:12.000Z</time>
      </trkpt>
      <trkpt lat="43.49754" lon="-1.33306">
        <ele>-17</ele>
        <time>2025-08-13T11:47:19.000Z</time>
      </trkpt>
      <trkpt lat="43.49755" lon="-1.33312">
        <ele>-17</ele>
        <time>2025-08-13T11:47:20.000Z</time>
      </trkpt>
      <trkpt lat="43.49752" lon="-1.33343">
        <ele>-17.39999961853</ele>
        <time>2025-08-13T11:47:26.000Z</time>
      </trkpt>
      <trkpt lat="43.49753" lon="-1.33387">
        <ele>-17.60000038147</ele>
        <time>2025-08-13T11:47:33.000Z</time>
      </trkpt>
      <trkpt lat="43.49748" lon="-1.33414">
        <ele>-17.60000038147</ele>
        <time>2025-08-13T11:47:38.000Z</time>
      </trkpt>
      <trkpt lat="43.49747" lon="-1.33446">
        <ele>-17.60000038147</ele>
        <time>2025-08-13T11:47:44.000Z</time>
      </trkpt>
      <trkpt lat="43.49745" lon="-1.33477">
        <ele>-17.60000038147</ele>
        <time>2025-08-13T11:47:50.000Z</time>
      </trkpt>
      <trkpt lat="43.49748" lon="-1.33523">
        <ele>-17.60000038147</ele>
        <time>2025-08-13T11:47:59.000Z</time>
      </trkpt>
      <trkpt lat="43.49752" lon="-1.33558">
        <ele>-17.60000038147</ele>
        <time>2025-08-13T11:48:06.000Z</time>
      </trkpt>
      <trkpt lat="43.49751" lon="-1.33594">
        <ele>-17.60000038147</ele>
        <time>2025-08-13T11:48:13.000Z</time>
      </trkpt>
      <trkpt lat="43.49751" lon="-1.33624">
        <ele>-17.39999961853</ele>
        <time>2025-08-13T11:48:19.000Z</time>
      </trkpt>
      <trkpt lat="43.49752" lon="-1.33654">
        <ele>-17.200000762939</ele>
        <time>2025-08-13T11:48:24.000Z</time>
      </trkpt>
      <trkpt lat="43.49753" lon="-1.33696">
        <ele>-17.60000038147</ele>
        <time>2025-08-13T11:48:30.000Z</time>
      </trkpt>
      <trkpt lat="43.49754" lon="-1.33728">
        <ele>-17.799999237061</ele>
        <time>2025-08-13T11:48:35.000Z</time>
      </trkpt>
      <trkpt lat="43.49756" lon="-1.33785">
        <ele>-17.799999237061</ele>
        <time>2025-08-13T11:48:45.000Z</time>
      </trkpt>
      <trkpt lat="43.49758" lon="-1.33822">
        <ele>-17.799999237061</ele>
        <time>2025-08-13T11:48:52.000Z</time>
      </trkpt>
      <trkpt lat="43.4976" lon="-1.33859">
        <ele>-17.60000038147</ele>
        <time>2025-08-13T11:48:59.000Z</time>
      </trkpt>
      <trkpt lat="43.49762" lon="-1.33881">
        <ele>-17.799999237061</ele>
        <time>2025-08-13T11:49:04.000Z</time>
      </trkpt>
      <trkpt lat="43.49765" lon="-1.33902">
        <ele>-17.799999237061</ele>
        <time>2025-08-13T11:49:09.000Z</time>
      </trkpt>
      <trkpt lat="43.4977" lon="-1.33948">
        <ele>-17.799999237061</ele>
        <time>2025-08-13T11:49:17.000Z</time>
      </trkpt>
      <trkpt lat="43.49771" lon="-1.33983">
        <ele>-17.799999237061</ele>
        <time>2025-08-13T11:49:23.000Z</time>
      </trkpt>
      <trkpt lat="43.49777" lon="-1.34013">
        <ele>-17.799999237061</ele>
        <time>2025-08-13T11:49:29.000Z</time>
      </trkpt>
      <trkpt lat="43.4978" lon="-1.3404">
        <ele>-17.60000038147</ele>
        <time>2025-08-13T11:49:34.000Z</time>
      </trkpt>
      <trkpt lat="43.49784" lon="-1.34078">
        <ele>-17.39999961853</ele>
        <time>2025-08-13T11:49:40.000Z</time>
      </trkpt>
      <trkpt lat="43.49791" lon="-1.34121">
        <ele>-17.60000038147</ele>
        <time>2025-08-13T11:49:47.000Z</time>
      </trkpt>
      <trkpt lat="43.49798" lon="-1.34148">
        <ele>-17.60000038147</ele>
        <time>2025-08-13T11:49:53.000Z</time>
      </trkpt>
      <trkpt lat="43.49803" lon="-1.34166">
        <ele>-17.60000038147</ele>
        <time>2025-08-13T11:49:57.000Z</time>
      </trkpt>
      <trkpt lat="43.49803" lon="-1.34171">
        <ele>-17.60000038147</ele>
        <time>2025-08-13T11:49:58.000Z</time>
      </trkpt>
      <trkpt lat="43.49802" lon="-1.3418">
        <ele>-17.60000038147</ele>
        <time>2025-08-13T11:50:00.000Z</time>
      </trkpt>
      <trkpt lat="43.49803" lon="-1.34196">
        <ele>-17.60000038147</ele>
        <time>2025-08-13T11:50:03.000Z</time>
      </trkpt>
      <trkpt lat="43.49804" lon="-1.34209">
        <ele>-17.60000038147</ele>
        <time>2025-08-13T11:50:05.000Z</time>
      </trkpt>
      <trkpt lat="43.49805" lon="-1.34238">
        <ele>-18</ele>
        <time>2025-08-13T11:50:10.000Z</time>
      </trkpt>
      <trkpt lat="43.49806" lon="-1.34273">
        <ele>-17.799999237061</ele>
        <time>2025-08-13T11:50:16.000Z</time>
      </trkpt>
      <trkpt lat="43.49806" lon="-1.3431">
        <ele>-17.39999961853</ele>
        <time>2025-08-13T11:50:22.000Z</time>
      </trkpt>
      <trkpt lat="43.49808" lon="-1.34341">
        <ele>-17.60000038147</ele>
        <time>2025-08-13T11:50:28.000Z</time>
      </trkpt>
      <trkpt lat="43.49808" lon="-1.34387">
        <ele>-17.799999237061</ele>
        <time>2025-08-13T11:50:36.000Z</time>
      </trkpt>
      <trkpt lat="43.49807" lon="-1.34433">
        <ele>-17.60000038147</ele>
        <time>2025-08-13T11:50:44.000Z</time>
      </trkpt>
      <trkpt lat="43.49805" lon="-1.34476">
        <ele>-17.39999961853</ele>
        <time>2025-08-13T11:50:52.000Z</time>
      </trkpt>
      <trkpt lat="43.49804" lon="-1.34516">
        <ele>-17.39999961853</ele>
        <time>2025-08-13T11:50:59.000Z</time>
      </trkpt>
      <trkpt lat="43.49806" lon="-1.34568">
        <ele>-17.39999961853</ele>
        <time>2025-08-13T11:51:08.000Z</time>
      </trkpt>
      <trkpt lat="43.49806" lon="-1.34597">
        <ele>-17.60000038147</ele>
        <time>2025-08-13T11:51:13.000Z</time>
      </trkpt>
      <trkpt lat="43.49806" lon="-1.34629">
        <ele>-17.39999961853</ele>
        <time>2025-08-13T11:51:19.000Z</time>
      </trkpt>
      <trkpt lat="43.49807" lon="-1.34674">
        <ele>-17.60000038147</ele>
        <time>2025-08-13T11:51:27.000Z</time>
      </trkpt>
      <trkpt lat="43.49807" lon="-1.34708">
        <ele>-17.799999237061</ele>
        <time>2025-08-13T11:51:33.000Z</time>
      </trkpt>
      <trkpt lat="43.49808" lon="-1.34716">
        <ele>-17.799999237061</ele>
        <time>2025-08-13T11:51:34.000Z</time>
      </trkpt>
      <trkpt lat="43.49809" lon="-1.34742">
        <ele>-17.799999237061</ele>
        <time>2025-08-13T11:51:39.000Z</time>
      </trkpt>
      <trkpt lat="43.49807" lon="-1.34793">
        <ele>-17.60000038147</ele>
        <time>2025-08-13T11:51:48.000Z</time>
      </trkpt>
      <trkpt lat="43.49807" lon="-1.34824">
        <ele>-17.60000038147</ele>
        <time>2025-08-13T11:51:54.000Z</time>
      </trkpt>
      <trkpt lat="43.49807" lon="-1.34854">
        <ele>-17.39999961853</ele>
        <time>2025-08-13T11:52:01.000Z</time>
      </trkpt>
      <trkpt lat="43.49802" lon="-1.34872">
        <ele>-17</ele>
        <time>2025-08-13T11:52:06.000Z</time>
      </trkpt>
      <trkpt lat="43.49794" lon="-1.34896">
        <ele>-16.799999237061</ele>
        <time>2025-08-13T11:52:11.000Z</time>
      </trkpt>
      <trkpt lat="43.49794" lon="-1.34918">
        <ele>-17.39999961853</ele>
        <time>2025-08-13T11:52:15.000Z</time>
      </trkpt>
      <trkpt lat="43.49795" lon="-1.34922">
        <ele>-17.60000038147</ele>
        <time>2025-08-13T11:52:16.000Z</time>
      </trkpt>
      <trkpt lat="43.49795" lon="-1.34933">
        <ele>-17.799999237061</ele>
        <time>2025-08-13T11:52:18.000Z</time>
      </trkpt>
      <trkpt lat="43.49788" lon="-1.34951">
        <ele>-18.200000762939</ele>
        <time>2025-08-13T11:52:23.000Z</time>
      </trkpt>
      <trkpt lat="43.4978" lon="-1.34961">
        <ele>-18</ele>
        <time>2025-08-13T11:52:28.000Z</time>
      </trkpt>
      <trkpt lat="43.49773" lon="-1.3497">
        <ele>-17.60000038147</ele>
        <time>2025-08-13T11:52:33.000Z</time>
      </trkpt>
      <trkpt lat="43.49773" lon="-1.3497">
        <ele>-17.200000762939</ele>
        <time>2025-08-13T11:52:35.000Z</time>
      </trkpt>
      <trkpt lat="43.49763" lon="-1.34986">
        <ele>-16.39999961853</ele>
        <time>2025-08-13T11:52:59.000Z</time>
      </trkpt>
      <trkpt lat="43.49762" lon="-1.34987">
        <ele>-16.39999961853</ele>
        <time>2025-08-13T11:53:00.000Z</time>
      </trkpt>
      <trkpt lat="43.4975" lon="-1.35006">
        <ele>-16</ele>
        <time>2025-08-13T11:53:07.000Z</time>
      </trkpt>
      <trkpt lat="43.4974" lon="-1.35021">
        <ele>-16</ele>
        <time>2025-08-13T11:53:11.000Z</time>
      </trkpt>
      <trkpt lat="43.49737" lon="-1.35026">
        <ele>-16</ele>
        <time>2025-08-13T11:53:12.000Z</time>
      </trkpt>
      <trkpt lat="43.49719" lon="-1.35054">
        <ele>-16.60000038147</ele>
        <time>2025-08-13T11:53:17.000Z</time>
      </trkpt>
      <trkpt lat="43.49706" lon="-1.35073">
        <ele>-17.39999961853</ele>
        <time>2025-08-13T11:53:21.000Z</time>
      </trkpt>
      <trkpt lat="43.49694" lon="-1.35093">
        <ele>-17.799999237061</ele>
        <time>2025-08-13T11:53:25.000Z</time>
      </trkpt>
      <trkpt lat="43.49675" lon="-1.35126">
        <ele>-17.799999237061</ele>
        <time>2025-08-13T11:53:32.000Z</time>
      </trkpt>
      <trkpt lat="43.49672" lon="-1.35131">
        <ele>-17.799999237061</ele>
        <time>2025-08-13T11:53:33.000Z</time>
      </trkpt>
      <trkpt lat="43.49662" lon="-1.35151">
        <ele>-17.799999237061</ele>
        <time>2025-08-13T11:53:37.000Z</time>
      </trkpt>
      <trkpt lat="43.49642" lon="-1.35196">
        <ele>-17.799999237061</ele>
        <time>2025-08-13T11:53:46.000Z</time>
      </trkpt>
      <trkpt lat="43.49628" lon="-1.35227">
        <ele>-17.39999961853</ele>
        <time>2025-08-13T11:53:52.000Z</time>
      </trkpt>
      <trkpt lat="43.49621" lon="-1.35241">
        <ele>-17.200000762939</ele>
        <time>2025-08-13T11:53:55.000Z</time>
      </trkpt>
      <trkpt lat="43.49607" lon="-1.35284">
        <ele>-17</ele>
        <time>2025-08-13T11:54:03.000Z</time>
      </trkpt>
      <trkpt lat="43.49587" lon="-1.35345">
        <ele>-16.799999237061</ele>
        <time>2025-08-13T11:54:14.000Z</time>
      </trkpt>
      <trkpt lat="43.49578" lon="-1.35373">
        <ele>-16.60000038147</ele>
        <time>2025-08-13T11:54:19.000Z</time>
      </trkpt>
      <trkpt lat="43.49569" lon="-1.354">
        <ele>-16.60000038147</ele>
        <time>2025-08-13T11:54:24.000Z</time>
      </trkpt>
      <trkpt lat="43.49559" lon="-1.35432">
        <ele>-16.60000038147</ele>
        <time>2025-08-13T11:54:30.000Z</time>
      </trkpt>
      <trkpt lat="43.49556" lon="-1.35438">
        <ele>-17</ele>
        <time>2025-08-13T11:54:31.000Z</time>
      </trkpt>
      <trkpt lat="43.49537" lon="-1.35493">
        <ele>-16.799999237061</ele>
        <time>2025-08-13T11:54:41.000Z</time>
      </trkpt>
      <trkpt lat="43.49528" lon="-1.35539">
        <ele>-16.60000038147</ele>
        <time>2025-08-13T11:54:49.000Z</time>
      </trkpt>
      <trkpt lat="43.49527" lon="-1.35589">
        <ele>-17</ele>
        <time>2025-08-13T11:54:57.000Z</time>
      </trkpt>
      <trkpt lat="43.49533" lon="-1.35656">
        <ele>-16.799999237061</ele>
        <time>2025-08-13T11:55:08.000Z</time>
      </trkpt>
      <trkpt lat="43.49535" lon="-1.35669">
        <ele>-16.60000038147</ele>
        <time>2025-08-13T11:55:10.000Z</time>
      </trkpt>
      <trkpt lat="43.49539" lon="-1.35698">
        <ele>-16.60000038147</ele>
        <time>2025-08-13T11:55:15.000Z</time>
      </trkpt>
      <trkpt lat="43.49542" lon="-1.35737">
        <ele>-16.60000038147</ele>
        <time>2025-08-13T11:55:22.000Z</time>
      </trkpt>
      <trkpt lat="43.49547" lon="-1.35771">
        <ele>-16.60000038147</ele>
        <time>2025-08-13T11:55:29.000Z</time>
      </trkpt>
      <trkpt lat="43.49548" lon="-1.35811">
        <ele>-16.200000762939</ele>
        <time>2025-08-13T11:55:37.000Z</time>
      </trkpt>
      <trkpt lat="43.49548" lon="-1.35854">
        <ele>-16.200000762939</ele>
        <time>2025-08-13T11:55:46.000Z</time>
      </trkpt>
      <trkpt lat="43.49545" lon="-1.35906">
        <ele>-15.800000190735</ele>
        <time>2025-08-13T11:55:56.000Z</time>
      </trkpt>
      <trkpt lat="43.49539" lon="-1.35945">
        <ele>-15.60000038147</ele>
        <time>2025-08-13T11:56:04.000Z</time>
      </trkpt>
      <trkpt lat="43.49525" lon="-1.35989">
        <ele>-15.60000038147</ele>
        <time>2025-08-13T11:56:13.000Z</time>
      </trkpt>
      <trkpt lat="43.49509" lon="-1.36024">
        <ele>-15.800000190735</ele>
        <time>2025-08-13T11:56:20.000Z</time>
      </trkpt>
      <trkpt lat="43.49489" lon="-1.36069">
        <ele>-16.200000762939</ele>
        <time>2025-08-13T11:56:28.000Z</time>
      </trkpt>
      <trkpt lat="43.49464" lon="-1.36121">
        <ele>-16.60000038147</ele>
        <time>2025-08-13T11:56:37.000Z</time>
      </trkpt>
      <trkpt lat="43.49438" lon="-1.36181">
        <ele>-16.799999237061</ele>
        <time>2025-08-13T11:56:47.000Z</time>
      </trkpt>
      <trkpt lat="43.49435" lon="-1.36187">
        <ele>-16.799999237061</ele>
        <time>2025-08-13T11:56:48.000Z</time>
      </trkpt>
      <trkpt lat="43.49412" lon="-1.36255">
        <ele>-17</ele>
        <time>2025-08-13T11:56:59.000Z</time>
      </trkpt>
      <trkpt lat="43.49399" lon="-1.36296">
        <ele>-17.200000762939</ele>
        <time>2025-08-13T11:57:06.000Z</time>
      </trkpt>
      <trkpt lat="43.49382" lon="-1.36351">
        <ele>-17.200000762939</ele>
        <time>2025-08-13T11:57:15.000Z</time>
      </trkpt>
      <trkpt lat="43.49372" lon="-1.36405">
        <ele>-17.200000762939</ele>
        <time>2025-08-13T11:57:24.000Z</time>
      </trkpt>
      <trkpt lat="43.49362" lon="-1.36453">
        <ele>-17</ele>
        <time>2025-08-13T11:57:32.000Z</time>
      </trkpt>
      <trkpt lat="43.49359" lon="-1.36464">
        <ele>-17</ele>
        <time>2025-08-13T11:57:34.000Z</time>
      </trkpt>
      <trkpt lat="43.49357" lon="-1.36475">
        <ele>-17.200000762939</ele>
        <time>2025-08-13T11:57:36.000Z</time>
      </trkpt>
      <trkpt lat="43.49353" lon="-1.36484">
        <ele>-17</ele>
        <time>2025-08-13T11:57:38.000Z</time>
      </trkpt>
      <trkpt lat="43.49348" lon="-1.36492">
        <ele>-17</ele>
        <time>2025-08-13T11:57:40.000Z</time>
      </trkpt>
      <trkpt lat="43.49341" lon="-1.36498">
        <ele>-17</ele>
        <time>2025-08-13T11:57:42.000Z</time>
      </trkpt>
      <trkpt lat="43.49334" lon="-1.36505">
        <ele>-17.200000762939</ele>
        <time>2025-08-13T11:57:44.000Z</time>
      </trkpt>
      <trkpt lat="43.49329" lon="-1.36516">
        <ele>-17.200000762939</ele>
        <time>2025-08-13T11:57:46.000Z</time>
      </trkpt>
      <trkpt lat="43.4931" lon="-1.36572">
        <ele>-17.799999237061</ele>
        <time>2025-08-13T11:57:56.000Z</time>
      </trkpt>
      <trkpt lat="43.49298" lon="-1.36615">
        <ele>-18</ele>
        <time>2025-08-13T11:58:04.000Z</time>
      </trkpt>
      <trkpt lat="43.49282" lon="-1.36688">
        <ele>-18.39999961853</ele>
        <time>2025-08-13T11:58:16.000Z</time>
      </trkpt>
      <trkpt lat="43.49267" lon="-1.3675">
        <ele>-18</ele>
        <time>2025-08-13T11:58:27.000Z</time>
      </trkpt>
      <trkpt lat="43.49267" lon="-1.36762">
        <ele>-18</ele>
        <time>2025-08-13T11:58:29.000Z</time>
      </trkpt>
      <trkpt lat="43.4927" lon="-1.36767">
        <ele>-18.200000762939</ele>
        <time>2025-08-13T11:58:30.000Z</time>
      </trkpt>
      <trkpt lat="43.49274" lon="-1.36769">
        <ele>-18.200000762939</ele>
        <time>2025-08-13T11:58:31.000Z</time>
      </trkpt>
      <trkpt lat="43.49288" lon="-1.36773">
        <ele>-18.39999961853</ele>
        <time>2025-08-13T11:58:34.000Z</time>
      </trkpt>
      <trkpt lat="43.49329" lon="-1.36785">
        <ele>-18.799999237061</ele>
        <time>2025-08-13T11:58:43.000Z</time>
      </trkpt>
      <trkpt lat="43.49334" lon="-1.36791">
        <ele>-18.60000038147</ele>
        <time>2025-08-13T11:58:45.000Z</time>
      </trkpt>
      <trkpt lat="43.49335" lon="-1.36795">
        <ele>-18.39999961853</ele>
        <time>2025-08-13T11:58:46.000Z</time>
      </trkpt>
      <trkpt lat="43.49334" lon="-1.36821">
        <ele>-18.200000762939</ele>
        <time>2025-08-13T11:58:51.000Z</time>
      </trkpt>
      <trkpt lat="43.49331" lon="-1.36859">
        <ele>-18</ele>
        <time>2025-08-13T11:58:58.000Z</time>
      </trkpt>
      <trkpt lat="43.4933" lon="-1.36906">
        <ele>-17.799999237061</ele>
        <time>2025-08-13T11:59:07.000Z</time>
      </trkpt>
      <trkpt lat="43.49334" lon="-1.36941">
        <ele>-17.799999237061</ele>
        <time>2025-08-13T11:59:14.000Z</time>
      </trkpt>
      <trkpt lat="43.49346" lon="-1.36986">
        <ele>-17.799999237061</ele>
        <time>2025-08-13T11:59:23.000Z</time>
      </trkpt>
      <trkpt lat="43.49355" lon="-1.37035">
        <ele>-18</ele>
        <time>2025-08-13T11:59:32.000Z</time>
      </trkpt>
      <trkpt lat="43.49361" lon="-1.37062">
        <ele>-18</ele>
        <time>2025-08-13T11:59:37.000Z</time>
      </trkpt>
      <trkpt lat="43.49362" lon="-1.37073">
        <ele>-18</ele>
        <time>2025-08-13T11:59:39.000Z</time>
      </trkpt>
      <trkpt lat="43.49372" lon="-1.37116">
        <ele>-18.200000762939</ele>
        <time>2025-08-13T11:59:47.000Z</time>
      </trkpt>
      <trkpt lat="43.49379" lon="-1.3717">
        <ele>-18</ele>
        <time>2025-08-13T11:59:57.000Z</time>
      </trkpt>
      <trkpt lat="43.49384" lon="-1.37213">
        <ele>-18.200000762939</ele>
        <time>2025-08-13T12:00:05.000Z</time>
      </trkpt>
      <trkpt lat="43.49383" lon="-1.3724">
        <ele>-18.200000762939</ele>
        <time>2025-08-13T12:00:10.000Z</time>
      </trkpt>
      <trkpt lat="43.49382" lon="-1.37257">
        <ele>-18.200000762939</ele>
        <time>2025-08-13T12:00:13.000Z</time>
      </trkpt>
      <trkpt lat="43.49381" lon="-1.37306">
        <ele>-18.39999961853</ele>
        <time>2025-08-13T12:00:22.000Z</time>
      </trkpt>
      <trkpt lat="43.49378" lon="-1.37359">
        <ele>-18.39999961853</ele>
        <time>2025-08-13T12:00:32.000Z</time>
      </trkpt>
      <trkpt lat="43.49371" lon="-1.37406">
        <ele>-18.799999237061</ele>
        <time>2025-08-13T12:00:41.000Z</time>
      </trkpt>
      <trkpt lat="43.49369" lon="-1.37448">
        <ele>-18.799999237061</ele>
        <time>2025-08-13T12:00:49.000Z</time>
      </trkpt>
      <trkpt lat="43.49368" lon="-1.37491">
        <ele>-18.799999237061</ele>
        <time>2025-08-13T12:00:57.000Z</time>
      </trkpt>
      <trkpt lat="43.49368" lon="-1.37526">
        <ele>-18.39999961853</ele>
        <time>2025-08-13T12:01:04.000Z</time>
      </trkpt>
      <trkpt lat="43.49366" lon="-1.3754">
        <ele>-18.39999961853</ele>
        <time>2025-08-13T12:01:07.000Z</time>
      </trkpt>
      <trkpt lat="43.49364" lon="-1.37544">
        <ele>-18.39999961853</ele>
        <time>2025-08-13T12:01:08.000Z</time>
      </trkpt>
      <trkpt lat="43.49355" lon="-1.37547">
        <ele>-18.39999961853</ele>
        <time>2025-08-13T12:01:10.000Z</time>
      </trkpt>
      <trkpt lat="43.4935" lon="-1.37547">
        <ele>-18.60000038147</ele>
        <time>2025-08-13T12:01:11.000Z</time>
      </trkpt>
      <trkpt lat="43.4934" lon="-1.37549">
        <ele>-18.799999237061</ele>
        <time>2025-08-13T12:01:13.000Z</time>
      </trkpt>
      <trkpt lat="43.49322" lon="-1.37551">
        <ele>-19.200000762939</ele>
        <time>2025-08-13T12:01:17.000Z</time>
      </trkpt>
      <trkpt lat="43.49304" lon="-1.37553">
        <ele>-19.60000038147</ele>
        <time>2025-08-13T12:01:21.000Z</time>
      </trkpt>
      <trkpt lat="43.49296" lon="-1.37554">
        <ele>-19.799999237061</ele>
        <time>2025-08-13T12:01:23.000Z</time>
      </trkpt>
      <trkpt lat="43.4926" lon="-1.37559">
        <ele>-20.200000762939</ele>
        <time>2025-08-13T12:01:31.000Z</time>
      </trkpt>
      <trkpt lat="43.49213" lon="-1.37564">
        <ele>-20.39999961853</ele>
        <time>2025-08-13T12:01:42.000Z</time>
      </trkpt>
      <trkpt lat="43.49208" lon="-1.37569">
        <ele>-20.60000038147</ele>
        <time>2025-08-13T12:01:44.000Z</time>
      </trkpt>
      <trkpt lat="43.49206" lon="-1.37574">
        <ele>-20.60000038147</ele>
        <time>2025-08-13T12:01:45.000Z</time>
      </trkpt>
      <trkpt lat="43.49205" lon="-1.3758">
        <ele>-20.60000038147</ele>
        <time>2025-08-13T12:01:46.000Z</time>
      </trkpt>
      <trkpt lat="43.49203" lon="-1.37593">
        <ele>-20.60000038147</ele>
        <time>2025-08-13T12:01:49.000Z</time>
      </trkpt>
      <trkpt lat="43.49199" lon="-1.3762">
        <ele>-20.799999237061</ele>
        <time>2025-08-13T12:01:54.000Z</time>
      </trkpt>
      <trkpt lat="43.49197" lon="-1.37625">
        <ele>-20.799999237061</ele>
        <time>2025-08-13T12:01:55.000Z</time>
      </trkpt>
      <trkpt lat="43.49191" lon="-1.3763">
        <ele>-20.799999237061</ele>
        <time>2025-08-13T12:01:57.000Z</time>
      </trkpt>
      <trkpt lat="43.49185" lon="-1.37634">
        <ele>-20.799999237061</ele>
        <time>2025-08-13T12:01:59.000Z</time>
      </trkpt>
      <trkpt lat="43.49184" lon="-1.37638">
        <ele>-20.799999237061</ele>
        <time>2025-08-13T12:02:00.000Z</time>
      </trkpt>
      <trkpt lat="43.49192" lon="-1.37646">
        <ele>-20.799999237061</ele>
        <time>2025-08-13T12:02:03.000Z</time>
      </trkpt>
      <trkpt lat="43.49207" lon="-1.37661">
        <ele>-20.799999237061</ele>
        <time>2025-08-13T12:02:08.000Z</time>
      </trkpt>
      <trkpt lat="43.49209" lon="-1.37668">
        <ele>-20.60000038147</ele>
        <time>2025-08-13T12:02:09.000Z</time>
      </trkpt>
      <trkpt lat="43.49215" lon="-1.37692">
        <ele>-20.60000038147</ele>
        <time>2025-08-13T12:02:13.000Z</time>
      </trkpt>
      <trkpt lat="43.49219" lon="-1.3771">
        <ele>-20.39999961853</ele>
        <time>2025-08-13T12:02:16.000Z</time>
      </trkpt>
      <trkpt lat="43.49223" lon="-1.3772">
        <ele>-20.39999961853</ele>
        <time>2025-08-13T12:02:18.000Z</time>
      </trkpt>
      <trkpt lat="43.49225" lon="-1.37724">
        <ele>-20.39999961853</ele>
        <time>2025-08-13T12:02:19.000Z</time>
      </trkpt>
      <trkpt lat="43.49233" lon="-1.37746">
        <ele>-19.799999237061</ele>
        <time>2025-08-13T12:02:25.000Z</time>
      </trkpt>
      <trkpt lat="43.49241" lon="-1.37763">
        <ele>-18.799999237061</ele>
        <time>2025-08-13T12:02:31.000Z</time>
      </trkpt>
      <trkpt lat="43.49242" lon="-1.37767">
        <ele>-18.60000038147</ele>
        <time>2025-08-13T12:02:32.000Z</time>
      </trkpt>
      <trkpt lat="43.49255" lon="-1.37789">
        <ele>-18.39999961853</ele>
        <time>2025-08-13T12:02:38.000Z</time>
      </trkpt>
      <trkpt lat="43.49277" lon="-1.378">
        <ele>-19</ele>
        <time>2025-08-13T12:02:43.000Z</time>
      </trkpt>
      <trkpt lat="43.49281" lon="-1.37803">
        <ele>-19.200000762939</ele>
        <time>2025-08-13T12:02:44.000Z</time>
      </trkpt>
      <trkpt lat="43.49294" lon="-1.37807">
        <ele>-19.39999961853</ele>
        <time>2025-08-13T12:02:47.000Z</time>
      </trkpt>
      <trkpt lat="43.49303" lon="-1.37808">
        <ele>-19.39999961853</ele>
        <time>2025-08-13T12:02:49.000Z</time>
      </trkpt>
      <trkpt lat="43.4932" lon="-1.37807">
        <ele>-19.60000038147</ele>
        <time>2025-08-13T12:02:53.000Z</time>
      </trkpt>
      <trkpt lat="43.49328" lon="-1.37812">
        <ele>-19.799999237061</ele>
        <time>2025-08-13T12:02:55.000Z</time>
      </trkpt>
      <trkpt lat="43.49331" lon="-1.37823">
        <ele>-19.799999237061</ele>
        <time>2025-08-13T12:02:57.000Z</time>
      </trkpt>
      <trkpt lat="43.49332" lon="-1.3783">
        <ele>-19.799999237061</ele>
        <time>2025-08-13T12:02:58.000Z</time>
      </trkpt>
      <trkpt lat="43.49332" lon="-1.37843">
        <ele>-19.799999237061</ele>
        <time>2025-08-13T12:03:00.000Z</time>
      </trkpt>
      <trkpt lat="43.49332" lon="-1.37889">
        <ele>-20.200000762939</ele>
        <time>2025-08-13T12:03:07.000Z</time>
      </trkpt>
      <trkpt lat="43.49332" lon="-1.37916">
        <ele>-20.200000762939</ele>
        <time>2025-08-13T12:03:11.000Z</time>
      </trkpt>
      <trkpt lat="43.49332" lon="-1.37937">
        <ele>-20.39999961853</ele>
        <time>2025-08-13T12:03:14.000Z</time>
      </trkpt>
      <trkpt lat="43.49331" lon="-1.37983">
        <ele>-20.39999961853</ele>
        <time>2025-08-13T12:03:21.000Z</time>
      </trkpt>
      <trkpt lat="43.49331" lon="-1.38013">
        <ele>-20.39999961853</ele>
        <time>2025-08-13T12:03:26.000Z</time>
      </trkpt>
      <trkpt lat="43.49331" lon="-1.38025">
        <ele>-20.39999961853</ele>
        <time>2025-08-13T12:03:28.000Z</time>
      </trkpt>
      <trkpt lat="43.49332" lon="-1.3803">
        <ele>-20.200000762939</ele>
        <time>2025-08-13T12:03:29.000Z</time>
      </trkpt>
      <trkpt lat="43.49338" lon="-1.38076">
        <ele>-20.39999961853</ele>
        <time>2025-08-13T12:03:37.000Z</time>
      </trkpt>
      <trkpt lat="43.49345" lon="-1.38114">
        <ele>-20.39999961853</ele>
        <time>2025-08-13T12:03:44.000Z</time>
      </trkpt>
      <trkpt lat="43.49352" lon="-1.3816">
        <ele>-20.39999961853</ele>
        <time>2025-08-13T12:03:53.000Z</time>
      </trkpt>
      <trkpt lat="43.49357" lon="-1.38196">
        <ele>-20.39999961853</ele>
        <time>2025-08-13T12:04:00.000Z</time>
      </trkpt>
      <trkpt lat="43.49362" lon="-1.38227">
        <ele>-20.60000038147</ele>
        <time>2025-08-13T12:04:06.000Z</time>
      </trkpt>
      <trkpt lat="43.49364" lon="-1.38264">
        <ele>-20.39999961853</ele>
        <time>2025-08-13T12:04:13.000Z</time>
      </trkpt>
      <trkpt lat="43.49366" lon="-1.38295">
        <ele>-20.60000038147</ele>
        <time>2025-08-13T12:04:19.000Z</time>
      </trkpt>
      <trkpt lat="43.49367" lon="-1.38312">
        <ele>-20.60000038147</ele>
        <time>2025-08-13T12:04:22.000Z</time>
      </trkpt>
      <trkpt lat="43.4937" lon="-1.38356">
        <ele>-20.60000038147</ele>
        <time>2025-08-13T12:04:30.000Z</time>
      </trkpt>
      <trkpt lat="43.49379" lon="-1.38378">
        <ele>-20.60000038147</ele>
        <time>2025-08-13T12:04:35.000Z</time>
      </trkpt>
      <trkpt lat="43.49383" lon="-1.38411">
        <ele>-20.60000038147</ele>
        <time>2025-08-13T12:04:41.000Z</time>
      </trkpt>
      <trkpt lat="43.49385" lon="-1.38466">
        <ele>-20.60000038147</ele>
        <time>2025-08-13T12:04:51.000Z</time>
      </trkpt>
      <trkpt lat="43.49387" lon="-1.38506">
        <ele>-20.60000038147</ele>
        <time>2025-08-13T12:04:58.000Z</time>
      </trkpt>
      <trkpt lat="43.49384" lon="-1.38517">
        <ele>-20.799999237061</ele>
        <time>2025-08-13T12:05:00.000Z</time>
      </trkpt>
      <trkpt lat="43.49379" lon="-1.38527">
        <ele>-20.799999237061</ele>
        <time>2025-08-13T12:05:02.000Z</time>
      </trkpt>
      <trkpt lat="43.49376" lon="-1.38537">
        <ele>-21</ele>
        <time>2025-08-13T12:05:04.000Z</time>
      </trkpt>
      <trkpt lat="43.49376" lon="-1.38542">
        <ele>-21</ele>
        <time>2025-08-13T12:05:05.000Z</time>
      </trkpt>
      <trkpt lat="43.49377" lon="-1.3857">
        <ele>-21</ele>
        <time>2025-08-13T12:05:10.000Z</time>
      </trkpt>
      <trkpt lat="43.49378" lon="-1.38586">
        <ele>-21</ele>
        <time>2025-08-13T12:05:13.000Z</time>
      </trkpt>
      <trkpt lat="43.49379" lon="-1.38625">
        <ele>-21</ele>
        <time>2025-08-13T12:05:20.000Z</time>
      </trkpt>
      <trkpt lat="43.49381" lon="-1.38659">
        <ele>-21</ele>
        <time>2025-08-13T12:05:26.000Z</time>
      </trkpt>
      <trkpt lat="43.49382" lon="-1.38671">
        <ele>-21</ele>
        <time>2025-08-13T12:05:28.000Z</time>
      </trkpt>
      <trkpt lat="43.49382" lon="-1.38688">
        <ele>-21</ele>
        <time>2025-08-13T12:05:31.000Z</time>
      </trkpt>
      <trkpt lat="43.49383" lon="-1.38711">
        <ele>-21</ele>
        <time>2025-08-13T12:05:35.000Z</time>
      </trkpt>
      <trkpt lat="43.49385" lon="-1.38745">
        <ele>-21.200000762939</ele>
        <time>2025-08-13T12:05:41.000Z</time>
      </trkpt>
      <trkpt lat="43.49386" lon="-1.38762">
        <ele>-21.200000762939</ele>
        <time>2025-08-13T12:05:44.000Z</time>
      </trkpt>
      <trkpt lat="43.49388" lon="-1.38791">
        <ele>-21.200000762939</ele>
        <time>2025-08-13T12:05:49.000Z</time>
      </trkpt>
      <trkpt lat="43.49388" lon="-1.38803">
        <ele>-21.200000762939</ele>
        <time>2025-08-13T12:05:51.000Z</time>
      </trkpt>
      <trkpt lat="43.49385" lon="-1.38848">
        <ele>-21</ele>
        <time>2025-08-13T12:05:59.000Z</time>
      </trkpt>
      <trkpt lat="43.49377" lon="-1.38909">
        <ele>-21.39999961853</ele>
        <time>2025-08-13T12:06:10.000Z</time>
      </trkpt>
      <trkpt lat="43.49369" lon="-1.38959">
        <ele>-21.39999961853</ele>
        <time>2025-08-13T12:06:19.000Z</time>
      </trkpt>
      <trkpt lat="43.49362" lon="-1.39013">
        <ele>-21.39999961853</ele>
        <time>2025-08-13T12:06:29.000Z</time>
      </trkpt>
      <trkpt lat="43.49354" lon="-1.39068">
        <ele>-21.39999961853</ele>
        <time>2025-08-13T12:06:39.000Z</time>
      </trkpt>
      <trkpt lat="43.49349" lon="-1.39119">
        <ele>-21.200000762939</ele>
        <time>2025-08-13T12:06:48.000Z</time>
      </trkpt>
      <trkpt lat="43.49349" lon="-1.3913">
        <ele>-21</ele>
        <time>2025-08-13T12:06:50.000Z</time>
      </trkpt>
      <trkpt lat="43.49346" lon="-1.3914">
        <ele>-20.799999237061</ele>
        <time>2025-08-13T12:06:52.000Z</time>
      </trkpt>
      <trkpt lat="43.49343" lon="-1.39144">
        <ele>-20.799999237061</ele>
        <time>2025-08-13T12:06:53.000Z</time>
      </trkpt>
      <trkpt lat="43.49334" lon="-1.39152">
        <ele>-20.60000038147</ele>
        <time>2025-08-13T12:06:57.000Z</time>
      </trkpt>
      <trkpt lat="43.49327" lon="-1.39157">
        <ele>-20.200000762939</ele>
        <time>2025-08-13T12:07:01.000Z</time>
      </trkpt>
      <trkpt lat="43.49326" lon="-1.39158">
        <ele>-20.200000762939</ele>
        <time>2025-08-13T12:07:02.000Z</time>
      </trkpt>
      <trkpt lat="43.49319" lon="-1.39163">
        <ele>-19.200000762939</ele>
        <time>2025-08-13T12:07:05.000Z</time>
      </trkpt>
      <trkpt lat="43.49312" lon="-1.39169">
        <ele>-18.39999961853</ele>
        <time>2025-08-13T12:07:08.000Z</time>
      </trkpt>
      <trkpt lat="43.49307" lon="-1.39172">
        <ele>-18</ele>
        <time>2025-08-13T12:07:10.000Z</time>
      </trkpt>
      <trkpt lat="43.49296" lon="-1.39182">
        <ele>-17.200000762939</ele>
        <time>2025-08-13T12:07:15.000Z</time>
      </trkpt>
      <trkpt lat="43.4929" lon="-1.39189">
        <ele>-17.200000762939</ele>
        <time>2025-08-13T12:07:18.000Z</time>
      </trkpt>
      <trkpt lat="43.49291" lon="-1.39193">
        <ele>-17.200000762939</ele>
        <time>2025-08-13T12:07:19.000Z</time>
      </trkpt>
      <trkpt lat="43.49293" lon="-1.39198">
        <ele>-17.200000762939</ele>
        <time>2025-08-13T12:07:20.000Z</time>
      </trkpt>
      <trkpt lat="43.49297" lon="-1.39208">
        <ele>-17.39999961853</ele>
        <time>2025-08-13T12:07:22.000Z</time>
      </trkpt>
      <trkpt lat="43.49311" lon="-1.39241">
        <ele>-18.799999237061</ele>
        <time>2025-08-13T12:07:29.000Z</time>
      </trkpt>
      <trkpt lat="43.49324" lon="-1.39275">
        <ele>-18.799999237061</ele>
        <time>2025-08-13T12:07:36.000Z</time>
      </trkpt>
      <trkpt lat="43.49335" lon="-1.39301">
        <ele>-18.799999237061</ele>
        <time>2025-08-13T12:07:42.000Z</time>
      </trkpt>
      <trkpt lat="43.49351" lon="-1.39338">
        <ele>-19</ele>
        <time>2025-08-13T12:07:50.000Z</time>
      </trkpt>
      <trkpt lat="43.49368" lon="-1.39381">
        <ele>-19</ele>
        <time>2025-08-13T12:07:59.000Z</time>
      </trkpt>
      <trkpt lat="43.49384" lon="-1.39421">
        <ele>-19</ele>
        <time>2025-08-13T12:08:07.000Z</time>
      </trkpt>
      <trkpt lat="43.49386" lon="-1.39427">
        <ele>-19</ele>
        <time>2025-08-13T12:08:08.000Z</time>
      </trkpt>
      <trkpt lat="43.49399" lon="-1.39463">
        <ele>-19</ele>
        <time>2025-08-13T12:08:15.000Z</time>
      </trkpt>
      <trkpt lat="43.49405" lon="-1.3948">
        <ele>-19</ele>
        <time>2025-08-13T12:08:18.000Z</time>
      </trkpt>
      <trkpt lat="43.49416" lon="-1.395">
        <ele>-19</ele>
        <time>2025-08-13T12:08:22.000Z</time>
      </trkpt>
      <trkpt lat="43.49418" lon="-1.39505">
        <ele>-19</ele>
        <time>2025-08-13T12:08:23.000Z</time>
      </trkpt>
      <trkpt lat="43.49423" lon="-1.39516">
        <ele>-19.200000762939</ele>
        <time>2025-08-13T12:08:25.000Z</time>
      </trkpt>
      <trkpt lat="43.49432" lon="-1.39536">
        <ele>-19.200000762939</ele>
        <time>2025-08-13T12:08:29.000Z</time>
      </trkpt>
      <trkpt lat="43.49448" lon="-1.39576">
        <ele>-18.799999237061</ele>
        <time>2025-08-13T12:08:37.000Z</time>
      </trkpt>
      <trkpt lat="43.49449" lon="-1.39581">
        <ele>-18.799999237061</ele>
        <time>2025-08-13T12:08:38.000Z</time>
      </trkpt>
      <trkpt lat="43.49447" lon="-1.39591">
        <ele>-18.60000038147</ele>
        <time>2025-08-13T12:08:40.000Z</time>
      </trkpt>
      <trkpt lat="43.49444" lon="-1.39594">
        <ele>-18.799999237061</ele>
        <time>2025-08-13T12:08:41.000Z</time>
      </trkpt>
      <trkpt lat="43.49436" lon="-1.39598">
        <ele>-18.799999237061</ele>
        <time>2025-08-13T12:08:43.000Z</time>
      </trkpt>
      <trkpt lat="43.49431" lon="-1.39598">
        <ele>-18.799999237061</ele>
        <time>2025-08-13T12:08:44.000Z</time>
      </trkpt>
      <trkpt lat="43.49408" lon="-1.39591">
        <ele>-19.39999961853</ele>
        <time>2025-08-13T12:08:49.000Z</time>
      </trkpt>
      <trkpt lat="43.49372" lon="-1.39575">
        <ele>-19.60000038147</ele>
        <time>2025-08-13T12:08:57.000Z</time>
      </trkpt>
      <trkpt lat="43.49353" lon="-1.39569">
        <ele>-19.60000038147</ele>
        <time>2025-08-13T12:09:03.000Z</time>
      </trkpt>
      <trkpt lat="43.49352" lon="-1.3957">
        <ele>-19.60000038147</ele>
        <time>2025-08-13T12:09:06.000Z</time>
      </trkpt>
      <trkpt lat="43.49348" lon="-1.39569">
        <ele>-19.60000038147</ele>
        <time>2025-08-13T12:09:09.000Z</time>
      </trkpt>
      <trkpt lat="43.49344" lon="-1.39565">
        <ele>-19.39999961853</ele>
        <time>2025-08-13T12:09:11.000Z</time>
      </trkpt>
      <trkpt lat="43.49325" lon="-1.39556">
        <ele>-19.799999237061</ele>
        <time>2025-08-13T12:09:16.000Z</time>
      </trkpt>
      <trkpt lat="43.49287" lon="-1.39542">
        <ele>-20</ele>
        <time>2025-08-13T12:09:24.000Z</time>
      </trkpt>
      <trkpt lat="43.49246" lon="-1.39526">
        <ele>-20.200000762939</ele>
        <time>2025-08-13T12:09:32.000Z</time>
      </trkpt>
      <trkpt lat="43.49225" lon="-1.39517">
        <ele>-20.200000762939</ele>
        <time>2025-08-13T12:09:36.000Z</time>
      </trkpt>
      <trkpt lat="43.49215" lon="-1.39513">
        <ele>-20.200000762939</ele>
        <time>2025-08-13T12:09:38.000Z</time>
      </trkpt>
      <trkpt lat="43.4918" lon="-1.39494">
        <ele>-20.200000762939</ele>
        <time>2025-08-13T12:09:45.000Z</time>
      </trkpt>
      <trkpt lat="43.4915" lon="-1.39476">
        <ele>-20.200000762939</ele>
        <time>2025-08-13T12:09:51.000Z</time>
      </trkpt>
      <trkpt lat="43.49145" lon="-1.39475">
        <ele>-20.200000762939</ele>
        <time>2025-08-13T12:09:52.000Z</time>
      </trkpt>
      <trkpt lat="43.49129" lon="-1.39476">
        <ele>-20.200000762939</ele>
        <time>2025-08-13T12:09:55.000Z</time>
      </trkpt>
      <trkpt lat="43.49119" lon="-1.3948">
        <ele>-20.200000762939</ele>
        <time>2025-08-13T12:09:57.000Z</time>
      </trkpt>
      <trkpt lat="43.49109" lon="-1.39486">
        <ele>-20.200000762939</ele>
        <time>2025-08-13T12:09:59.000Z</time>
      </trkpt>
      <trkpt lat="43.49101" lon="-1.39494">
        <ele>-20.200000762939</ele>
        <time>2025-08-13T12:10:01.000Z</time>
      </trkpt>
      <trkpt lat="43.49098" lon="-1.395">
        <ele>-20.200000762939</ele>
        <time>2025-08-13T12:10:02.000Z</time>
      </trkpt>
      <trkpt lat="43.49092" lon="-1.39511">
        <ele>-20.200000762939</ele>
        <time>2025-08-13T12:10:04.000Z</time>
      </trkpt>
      <trkpt lat="43.49087" lon="-1.3953">
        <ele>-20.200000762939</ele>
        <time>2025-08-13T12:10:07.000Z</time>
      </trkpt>
      <trkpt lat="43.49085" lon="-1.39543">
        <ele>-20.200000762939</ele>
        <time>2025-08-13T12:10:09.000Z</time>
      </trkpt>
      <trkpt lat="43.49079" lon="-1.39561">
        <ele>-20</ele>
        <time>2025-08-13T12:10:12.000Z</time>
      </trkpt>
      <trkpt lat="43.49063" lon="-1.39608">
        <ele>-19.39999961853</ele>
        <time>2025-08-13T12:10:20.000Z</time>
      </trkpt>
      <trkpt lat="43.49059" lon="-1.39618">
        <ele>-19.39999961853</ele>
        <time>2025-08-13T12:10:22.000Z</time>
      </trkpt>
      <trkpt lat="43.49052" lon="-1.39641">
        <ele>-19.60000038147</ele>
        <time>2025-08-13T12:10:26.000Z</time>
      </trkpt>
      <trkpt lat="43.49043" lon="-1.39664">
        <ele>-19.799999237061</ele>
        <time>2025-08-13T12:10:30.000Z</time>
      </trkpt>
      <trkpt lat="43.49022" lon="-1.39713">
        <ele>-19.799999237061</ele>
        <time>2025-08-13T12:10:39.000Z</time>
      </trkpt>
      <trkpt lat="43.48996" lon="-1.39766">
        <ele>-19.799999237061</ele>
        <time>2025-08-13T12:10:49.000Z</time>
      </trkpt>
      <trkpt lat="43.48992" lon="-1.39782">
        <ele>-19.60000038147</ele>
        <time>2025-08-13T12:10:52.000Z</time>
      </trkpt>
      <trkpt lat="43.4899" lon="-1.39792">
        <ele>-19.39999961853</ele>
        <time>2025-08-13T12:10:54.000Z</time>
      </trkpt>
      <trkpt lat="43.48992" lon="-1.39805">
        <ele>-19.39999961853</ele>
        <time>2025-08-13T12:10:57.000Z</time>
      </trkpt>
      <trkpt lat="43.48993" lon="-1.39806">
        <ele>-19.39999961853</ele>
        <time>2025-08-13T12:10:58.000Z</time>
      </trkpt>
      <trkpt lat="43.49003" lon="-1.39817">
        <ele>-19.39999961853</ele>
        <time>2025-08-13T12:11:03.000Z</time>
      </trkpt>
      <trkpt lat="43.49022" lon="-1.39837">
        <ele>-19.60000038147</ele>
        <time>2025-08-13T12:11:10.000Z</time>
      </trkpt>
      <trkpt lat="43.49033" lon="-1.39848">
        <ele>-19.799999237061</ele>
        <time>2025-08-13T12:11:15.000Z</time>
      </trkpt>
      <trkpt lat="43.4905" lon="-1.39868">
        <ele>-19.60000038147</ele>
        <time>2025-08-13T12:11:23.000Z</time>
      </trkpt>
      <trkpt lat="43.49068" lon="-1.39886">
        <ele>-19.799999237061</ele>
        <time>2025-08-13T12:11:30.000Z</time>
      </trkpt>
      <trkpt lat="43.49092" lon="-1.39914">
        <ele>-20</ele>
        <time>2025-08-13T12:11:38.000Z</time>
      </trkpt>
      <trkpt lat="43.49122" lon="-1.39947">
        <ele>-20</ele>
        <time>2025-08-13T12:11:47.000Z</time>
      </trkpt>
      <trkpt lat="43.49145" lon="-1.39975">
        <ele>-20.200000762939</ele>
        <time>2025-08-13T12:11:54.000Z</time>
      </trkpt>
      <trkpt lat="43.49148" lon="-1.39979">
        <ele>-20.200000762939</ele>
        <time>2025-08-13T12:11:55.000Z</time>
      </trkpt>
      <trkpt lat="43.49149" lon="-1.39984">
        <ele>-20.200000762939</ele>
        <time>2025-08-13T12:11:56.000Z</time>
      </trkpt>
      <trkpt lat="43.4915" lon="-1.39996">
        <ele>-20.200000762939</ele>
        <time>2025-08-13T12:11:58.000Z</time>
      </trkpt>
      <trkpt lat="43.49147" lon="-1.40014">
        <ele>-20.200000762939</ele>
        <time>2025-08-13T12:12:01.000Z</time>
      </trkpt>
      <trkpt lat="43.49143" lon="-1.40025">
        <ele>-20</ele>
        <time>2025-08-13T12:12:03.000Z</time>
      </trkpt>
      <trkpt lat="43.49139" lon="-1.40041">
        <ele>-20</ele>
        <time>2025-08-13T12:12:06.000Z</time>
      </trkpt>
      <trkpt lat="43.49139" lon="-1.40056">
        <ele>-20</ele>
        <time>2025-08-13T12:12:09.000Z</time>
      </trkpt>
      <trkpt lat="43.49147" lon="-1.4006">
        <ele>-20</ele>
        <time>2025-08-13T12:12:12.000Z</time>
      </trkpt>
      <trkpt lat="43.49168" lon="-1.40062">
        <ele>-20.200000762939</ele>
        <time>2025-08-13T12:12:17.000Z</time>
      </trkpt>
      <trkpt lat="43.49199" lon="-1.40064">
        <ele>-20.200000762939</ele>
        <time>2025-08-13T12:12:24.000Z</time>
      </trkpt>
      <trkpt lat="43.49227" lon="-1.40068">
        <ele>-20</ele>
        <time>2025-08-13T12:12:31.000Z</time>
      </trkpt>
      <trkpt lat="43.49231" lon="-1.40069">
        <ele>-20</ele>
        <time>2025-08-13T12:12:32.000Z</time>
      </trkpt>
      <trkpt lat="43.49263" lon="-1.40085">
        <ele>-20</ele>
        <time>2025-08-13T12:12:40.000Z</time>
      </trkpt>
      <trkpt lat="43.49269" lon="-1.40093">
        <ele>-20</ele>
        <time>2025-08-13T12:12:42.000Z</time>
      </trkpt>
      <trkpt lat="43.49274" lon="-1.40108">
        <ele>-19.799999237061</ele>
        <time>2025-08-13T12:12:45.000Z</time>
      </trkpt>
      <trkpt lat="43.49288" lon="-1.40154">
        <ele>-19.799999237061</ele>
        <time>2025-08-13T12:12:53.000Z</time>
      </trkpt>
      <trkpt lat="43.49291" lon="-1.40166">
        <ele>-19.60000038147</ele>
        <time>2025-08-13T12:12:55.000Z</time>
      </trkpt>
      <trkpt lat="43.49291" lon="-1.40179">
        <ele>-19.60000038147</ele>
        <time>2025-08-13T12:12:57.000Z</time>
      </trkpt>
      <trkpt lat="43.49291" lon="-1.40185">
        <ele>-19.60000038147</ele>
        <time>2025-08-13T12:12:58.000Z</time>
      </trkpt>
      <trkpt lat="43.49281" lon="-1.40219">
        <ele>-19.799999237061</ele>
        <time>2025-08-13T12:13:04.000Z</time>
      </trkpt>
      <trkpt lat="43.49264" lon="-1.40257">
        <ele>-19.799999237061</ele>
        <time>2025-08-13T12:13:12.000Z</time>
      </trkpt>
      <trkpt lat="43.49256" lon="-1.40283">
        <ele>-20</ele>
        <time>2025-08-13T12:13:18.000Z</time>
      </trkpt>
      <trkpt lat="43.49258" lon="-1.403">
        <ele>-20</ele>
        <time>2025-08-13T12:13:21.000Z</time>
      </trkpt>
      <trkpt lat="43.49258" lon="-1.40307">
        <ele>-20.200000762939</ele>
        <time>2025-08-13T12:13:22.000Z</time>
      </trkpt>
      <trkpt lat="43.49253" lon="-1.40345">
        <ele>-20.39999961853</ele>
        <time>2025-08-13T12:13:28.000Z</time>
      </trkpt>
      <trkpt lat="43.49242" lon="-1.40399">
        <ele>-20.200000762939</ele>
        <time>2025-08-13T12:13:37.000Z</time>
      </trkpt>
      <trkpt lat="43.4924" lon="-1.40405">
        <ele>-20.39999961853</ele>
        <time>2025-08-13T12:13:38.000Z</time>
      </trkpt>
      <trkpt lat="43.49234" lon="-1.40423">
        <ele>-20.39999961853</ele>
        <time>2025-08-13T12:13:41.000Z</time>
      </trkpt>
      <trkpt lat="43.49228" lon="-1.40454">
        <ele>-20.39999961853</ele>
        <time>2025-08-13T12:13:46.000Z</time>
      </trkpt>
      <trkpt lat="43.49228" lon="-1.40492">
        <ele>-20.39999961853</ele>
        <time>2025-08-13T12:13:52.000Z</time>
      </trkpt>
      <trkpt lat="43.49232" lon="-1.40499">
        <ele>-20.39999961853</ele>
        <time>2025-08-13T12:13:54.000Z</time>
      </trkpt>
      <trkpt lat="43.49235" lon="-1.405">
        <ele>-20.39999961853</ele>
        <time>2025-08-13T12:13:55.000Z</time>
      </trkpt>
      <trkpt lat="43.49252" lon="-1.40498">
        <ele>-20.39999961853</ele>
        <time>2025-08-13T12:14:00.000Z</time>
      </trkpt>
      <trkpt lat="43.49274" lon="-1.40495">
        <ele>-20.39999961853</ele>
        <time>2025-08-13T12:14:06.000Z</time>
      </trkpt>
      <trkpt lat="43.49277" lon="-1.40496">
        <ele>-20.39999961853</ele>
        <time>2025-08-13T12:14:07.000Z</time>
      </trkpt>
      <trkpt lat="43.49281" lon="-1.40502">
        <ele>-20.39999961853</ele>
        <time>2025-08-13T12:14:09.000Z</time>
      </trkpt>
      <trkpt lat="43.49293" lon="-1.4051">
        <ele>-20.39999961853</ele>
        <time>2025-08-13T12:14:13.000Z</time>
      </trkpt>
      <trkpt lat="43.49315" lon="-1.40517">
        <ele>-20.39999961853</ele>
        <time>2025-08-13T12:14:19.000Z</time>
      </trkpt>
      <trkpt lat="43.49329" lon="-1.40542">
        <ele>-20.39999961853</ele>
        <time>2025-08-13T12:14:25.000Z</time>
      </trkpt>
      <trkpt lat="43.49336" lon="-1.40571">
        <ele>-20.39999961853</ele>
        <time>2025-08-13T12:14:31.000Z</time>
      </trkpt>
      <trkpt lat="43.49328" lon="-1.40596">
        <ele>-20.60000038147</ele>
        <time>2025-08-13T12:14:36.000Z</time>
      </trkpt>
      <trkpt lat="43.49311" lon="-1.40636">
        <ele>-20.39999961853</ele>
        <time>2025-08-13T12:14:44.000Z</time>
      </trkpt>
      <trkpt lat="43.49294" lon="-1.40674">
        <ele>-20.200000762939</ele>
        <time>2025-08-13T12:14:52.000Z</time>
      </trkpt>
      <trkpt lat="43.49292" lon="-1.40679">
        <ele>-20.200000762939</ele>
        <time>2025-08-13T12:14:53.000Z</time>
      </trkpt>
      <trkpt lat="43.49291" lon="-1.40691">
        <ele>-20.200000762939</ele>
        <time>2025-08-13T12:14:55.000Z</time>
      </trkpt>
      <trkpt lat="43.49292" lon="-1.40696">
        <ele>-20.200000762939</ele>
        <time>2025-08-13T12:14:56.000Z</time>
      </trkpt>
      <trkpt lat="43.49294" lon="-1.40701">
        <ele>-20.200000762939</ele>
        <time>2025-08-13T12:14:57.000Z</time>
      </trkpt>
      <trkpt lat="43.49299" lon="-1.40711">
        <ele>-20.200000762939</ele>
        <time>2025-08-13T12:14:59.000Z</time>
      </trkpt>
      <trkpt lat="43.49302" lon="-1.40715">
        <ele>-20.200000762939</ele>
        <time>2025-08-13T12:15:00.000Z</time>
      </trkpt>
      <trkpt lat="43.49326" lon="-1.40748">
        <ele>-20.39999961853</ele>
        <time>2025-08-13T12:15:08.000Z</time>
      </trkpt>
      <trkpt lat="43.49341" lon="-1.40755">
        <ele>-20.39999961853</ele>
        <time>2025-08-13T12:15:12.000Z</time>
      </trkpt>
      <trkpt lat="43.49387" lon="-1.40771">
        <ele>-20.60000038147</ele>
        <time>2025-08-13T12:15:23.000Z</time>
      </trkpt>
      <trkpt lat="43.494" lon="-1.40775">
        <ele>-20.200000762939</ele>
        <time>2025-08-13T12:15:26.000Z</time>
      </trkpt>
      <trkpt lat="43.49407" lon="-1.40782">
        <ele>-20</ele>
        <time>2025-08-13T12:15:28.000Z</time>
      </trkpt>
      <trkpt lat="43.4941" lon="-1.40786">
        <ele>-20</ele>
        <time>2025-08-13T12:15:29.000Z</time>
      </trkpt>
      <trkpt lat="43.49413" lon="-1.40791">
        <ele>-20.200000762939</ele>
        <time>2025-08-13T12:15:30.000Z</time>
      </trkpt>
      <trkpt lat="43.4942" lon="-1.40811">
        <ele>-20.200000762939</ele>
        <time>2025-08-13T12:15:34.000Z</time>
      </trkpt>
      <trkpt lat="43.49421" lon="-1.40817">
        <ele>-20.200000762939</ele>
        <time>2025-08-13T12:15:35.000Z</time>
      </trkpt>
      <trkpt lat="43.49422" lon="-1.40822">
        <ele>-20.200000762939</ele>
        <time>2025-08-13T12:15:36.000Z</time>
      </trkpt>
      <trkpt lat="43.49419" lon="-1.40832">
        <ele>-20</ele>
        <time>2025-08-13T12:15:38.000Z</time>
      </trkpt>
      <trkpt lat="43.49406" lon="-1.40843">
        <ele>-20.200000762939</ele>
        <time>2025-08-13T12:15:42.000Z</time>
      </trkpt>
      <trkpt lat="43.49392" lon="-1.40859">
        <ele>-20.60000038147</ele>
        <time>2025-08-13T12:15:46.000Z</time>
      </trkpt>
      <trkpt lat="43.49387" lon="-1.40868">
        <ele>-20.60000038147</ele>
        <time>2025-08-13T12:15:48.000Z</time>
      </trkpt>
      <trkpt lat="43.49362" lon="-1.4091">
        <ele>-20.60000038147</ele>
        <time>2025-08-13T12:15:57.000Z</time>
      </trkpt>
      <trkpt lat="43.49352" lon="-1.40928">
        <ele>-20.60000038147</ele>
        <time>2025-08-13T12:16:01.000Z</time>
      </trkpt>
      <trkpt lat="43.49343" lon="-1.40942">
        <ele>-20.60000038147</ele>
        <time>2025-08-13T12:16:04.000Z</time>
      </trkpt>
      <trkpt lat="43.49314" lon="-1.40986">
        <ele>-20.60000038147</ele>
        <time>2025-08-13T12:16:14.000Z</time>
      </trkpt>
      <trkpt lat="43.49291" lon="-1.41021">
        <ele>-20.60000038147</ele>
        <time>2025-08-13T12:16:22.000Z</time>
      </trkpt>
      <trkpt lat="43.49262" lon="-1.41065">
        <ele>-20.60000038147</ele>
        <time>2025-08-13T12:16:32.000Z</time>
      </trkpt>
      <trkpt lat="43.49239" lon="-1.41102">
        <ele>-20.60000038147</ele>
        <time>2025-08-13T12:16:40.000Z</time>
      </trkpt>
      <trkpt lat="43.49217" lon="-1.41156">
        <ele>-20.60000038147</ele>
        <time>2025-08-13T12:16:50.000Z</time>
      </trkpt>
      <trkpt lat="43.49195" lon="-1.41218">
        <ele>-20.39999961853</ele>
        <time>2025-08-13T12:17:02.000Z</time>
      </trkpt>
      <trkpt lat="43.49195" lon="-1.4123">
        <ele>-20.39999961853</ele>
        <time>2025-08-13T12:17:04.000Z</time>
      </trkpt>
      <trkpt lat="43.49197" lon="-1.41241">
        <ele>-20.39999961853</ele>
        <time>2025-08-13T12:17:06.000Z</time>
      </trkpt>
      <trkpt lat="43.49209" lon="-1.41301">
        <ele>-20.39999961853</ele>
        <time>2025-08-13T12:17:16.000Z</time>
      </trkpt>
      <trkpt lat="43.4921" lon="-1.41307">
        <ele>-20.39999961853</ele>
        <time>2025-08-13T12:17:17.000Z</time>
      </trkpt>
      <trkpt lat="43.49209" lon="-1.41345">
        <ele>-20.39999961853</ele>
        <time>2025-08-13T12:17:23.000Z</time>
      </trkpt>
      <trkpt lat="43.49202" lon="-1.41399">
        <ele>-20.200000762939</ele>
        <time>2025-08-13T12:17:32.000Z</time>
      </trkpt>
      <trkpt lat="43.49201" lon="-1.41411">
        <ele>-20.200000762939</ele>
        <time>2025-08-13T12:17:34.000Z</time>
      </trkpt>
      <trkpt lat="43.49198" lon="-1.41446">
        <ele>-20.200000762939</ele>
        <time>2025-08-13T12:17:40.000Z</time>
      </trkpt>
      <trkpt lat="43.49196" lon="-1.41459">
        <ele>-20.200000762939</ele>
        <time>2025-08-13T12:17:42.000Z</time>
      </trkpt>
      <trkpt lat="43.49193" lon="-1.41495">
        <ele>-20</ele>
        <time>2025-08-13T12:17:48.000Z</time>
      </trkpt>
      <trkpt lat="43.49191" lon="-1.41513">
        <ele>-20</ele>
        <time>2025-08-13T12:17:51.000Z</time>
      </trkpt>
      <trkpt lat="43.49189" lon="-1.41536">
        <ele>-20</ele>
        <time>2025-08-13T12:17:55.000Z</time>
      </trkpt>
      <trkpt lat="43.49184" lon="-1.41581">
        <ele>-20</ele>
        <time>2025-08-13T12:18:03.000Z</time>
      </trkpt>
      <trkpt lat="43.49181" lon="-1.41605">
        <ele>-20.200000762939</ele>
        <time>2025-08-13T12:18:07.000Z</time>
      </trkpt>
      <trkpt lat="43.49177" lon="-1.41628">
        <ele>-20.39999961853</ele>
        <time>2025-08-13T12:18:11.000Z</time>
      </trkpt>
      <trkpt lat="43.49176" lon="-1.4164">
        <ele>-20.39999961853</ele>
        <time>2025-08-13T12:18:13.000Z</time>
      </trkpt>
      <trkpt lat="43.49169" lon="-1.41663">
        <ele>-20.39999961853</ele>
        <time>2025-08-13T12:18:17.000Z</time>
      </trkpt>
      <trkpt lat="43.49159" lon="-1.41701">
        <ele>-20.60000038147</ele>
        <time>2025-08-13T12:18:24.000Z</time>
      </trkpt>
      <trkpt lat="43.49157" lon="-1.41712">
        <ele>-20.60000038147</ele>
        <time>2025-08-13T12:18:26.000Z</time>
      </trkpt>
      <trkpt lat="43.4915" lon="-1.41752">
        <ele>-20.60000038147</ele>
        <time>2025-08-13T12:18:33.000Z</time>
      </trkpt>
      <trkpt lat="43.49143" lon="-1.41786">
        <ele>-20.60000038147</ele>
        <time>2025-08-13T12:18:39.000Z</time>
      </trkpt>
      <trkpt lat="43.49141" lon="-1.41792">
        <ele>-20.60000038147</ele>
        <time>2025-08-13T12:18:40.000Z</time>
      </trkpt>
      <trkpt lat="43.49126" lon="-1.41834">
        <ele>-20.39999961853</ele>
        <time>2025-08-13T12:18:48.000Z</time>
      </trkpt>
      <trkpt lat="43.49114" lon="-1.41872">
        <ele>-20.39999961853</ele>
        <time>2025-08-13T12:18:55.000Z</time>
      </trkpt>
      <trkpt lat="43.49111" lon="-1.41884">
        <ele>-20.60000038147</ele>
        <time>2025-08-13T12:18:57.000Z</time>
      </trkpt>
      <trkpt lat="43.49107" lon="-1.41907">
        <ele>-20.60000038147</ele>
        <time>2025-08-13T12:19:01.000Z</time>
      </trkpt>
      <trkpt lat="43.49109" lon="-1.41917">
        <ele>-20.60000038147</ele>
        <time>2025-08-13T12:19:03.000Z</time>
      </trkpt>
      <trkpt lat="43.49115" lon="-1.41925">
        <ele>-20.60000038147</ele>
        <time>2025-08-13T12:19:05.000Z</time>
      </trkpt>
      <trkpt lat="43.49119" lon="-1.41935">
        <ele>-20.60000038147</ele>
        <time>2025-08-13T12:19:07.000Z</time>
      </trkpt>
      <trkpt lat="43.49128" lon="-1.41949">
        <ele>-20.60000038147</ele>
        <time>2025-08-13T12:19:10.000Z</time>
      </trkpt>
      <trkpt lat="43.49139" lon="-1.4197">
        <ele>-20.799999237061</ele>
        <time>2025-08-13T12:19:14.000Z</time>
      </trkpt>
      <trkpt lat="43.49156" lon="-1.42004">
        <ele>-21</ele>
        <time>2025-08-13T12:19:21.000Z</time>
      </trkpt>
      <trkpt lat="43.4916" lon="-1.42013">
        <ele>-21</ele>
        <time>2025-08-13T12:19:23.000Z</time>
      </trkpt>
      <trkpt lat="43.49165" lon="-1.42027">
        <ele>-21</ele>
        <time>2025-08-13T12:19:26.000Z</time>
      </trkpt>
      <trkpt lat="43.49165" lon="-1.42032">
        <ele>-21</ele>
        <time>2025-08-13T12:19:27.000Z</time>
      </trkpt>
      <trkpt lat="43.49169" lon="-1.42051">
        <ele>-21</ele>
        <time>2025-08-13T12:19:31.000Z</time>
      </trkpt>
      <trkpt lat="43.4918" lon="-1.42087">
        <ele>-20.799999237061</ele>
        <time>2025-08-13T12:19:39.000Z</time>
      </trkpt>
      <trkpt lat="43.49195" lon="-1.4215">
        <ele>-21</ele>
        <time>2025-08-13T12:19:50.000Z</time>
      </trkpt>
      <trkpt lat="43.49208" lon="-1.42202">
        <ele>-20.799999237061</ele>
        <time>2025-08-13T12:19:59.000Z</time>
      </trkpt>
      <trkpt lat="43.49219" lon="-1.42249">
        <ele>-21</ele>
        <time>2025-08-13T12:20:07.000Z</time>
      </trkpt>
      <trkpt lat="43.4923" lon="-1.42294">
        <ele>-21</ele>
        <time>2025-08-13T12:20:15.000Z</time>
      </trkpt>
      <trkpt lat="43.49239" lon="-1.42336">
        <ele>-21.200000762939</ele>
        <time>2025-08-13T12:20:23.000Z</time>
      </trkpt>
      <trkpt lat="43.49251" lon="-1.42387">
        <ele>-21.200000762939</ele>
        <time>2025-08-13T12:20:33.000Z</time>
      </trkpt>
      <trkpt lat="43.49256" lon="-1.42403">
        <ele>-21</ele>
        <time>2025-08-13T12:20:38.000Z</time>
      </trkpt>
      <trkpt lat="43.49249" lon="-1.4241">
        <ele>-20.60000038147</ele>
        <time>2025-08-13T12:20:43.000Z</time>
      </trkpt>
      <trkpt lat="43.49239" lon="-1.4242">
        <ele>-19.799999237061</ele>
        <time>2025-08-13T12:20:47.000Z</time>
      </trkpt>
      <trkpt lat="43.49237" lon="-1.42423">
        <ele>-19.39999961853</ele>
        <time>2025-08-13T12:20:48.000Z</time>
      </trkpt>
      <trkpt lat="43.49223" lon="-1.42434">
        <ele>-19</ele>
        <time>2025-08-13T12:20:53.000Z</time>
      </trkpt>
      <trkpt lat="43.49196" lon="-1.42442">
        <ele>-19.39999961853</ele>
        <time>2025-08-13T12:21:00.000Z</time>
      </trkpt>
      <trkpt lat="43.49167" lon="-1.42449">
        <ele>-19.60000038147</ele>
        <time>2025-08-13T12:21:08.000Z</time>
      </trkpt>
      <trkpt lat="43.49141" lon="-1.42462">
        <ele>-19.799999237061</ele>
        <time>2025-08-13T12:21:15.000Z</time>
      </trkpt>
      <trkpt lat="43.49125" lon="-1.4247">
        <ele>-19.799999237061</ele>
        <time>2025-08-13T12:21:19.000Z</time>
      </trkpt>
      <trkpt lat="43.49116" lon="-1.42472">
        <ele>-19.799999237061</ele>
        <time>2025-08-13T12:21:21.000Z</time>
      </trkpt>
      <trkpt lat="43.49099" lon="-1.42474">
        <ele>-19.799999237061</ele>
        <time>2025-08-13T12:21:25.000Z</time>
      </trkpt>
      <trkpt lat="43.49054" lon="-1.42478">
        <ele>-20.39999961853</ele>
        <time>2025-08-13T12:21:35.000Z</time>
      </trkpt>
      <trkpt lat="43.49014" lon="-1.42479">
        <ele>-20.200000762939</ele>
        <time>2025-08-13T12:21:44.000Z</time>
      </trkpt>
      <trkpt lat="43.49001" lon="-1.42479">
        <ele>-20.200000762939</ele>
        <time>2025-08-13T12:21:47.000Z</time>
      </trkpt>
      <trkpt lat="43.48993" lon="-1.42484">
        <ele>-20.200000762939</ele>
        <time>2025-08-13T12:21:49.000Z</time>
      </trkpt>
      <trkpt lat="43.48988" lon="-1.42494">
        <ele>-20</ele>
        <time>2025-08-13T12:21:51.000Z</time>
      </trkpt>
      <trkpt lat="43.48987" lon="-1.42501">
        <ele>-20</ele>
        <time>2025-08-13T12:21:52.000Z</time>
      </trkpt>
      <trkpt lat="43.48986" lon="-1.42507">
        <ele>-20</ele>
        <time>2025-08-13T12:21:53.000Z</time>
      </trkpt>
      <trkpt lat="43.48988" lon="-1.42539">
        <ele>-20</ele>
        <time>2025-08-13T12:21:58.000Z</time>
      </trkpt>
      <trkpt lat="43.48988" lon="-1.42564">
        <ele>-20</ele>
        <time>2025-08-13T12:22:02.000Z</time>
      </trkpt>
      <trkpt lat="43.48989" lon="-1.42588">
        <ele>-20</ele>
        <time>2025-08-13T12:22:06.000Z</time>
      </trkpt>
      <trkpt lat="43.48989" lon="-1.42637">
        <ele>-20</ele>
        <time>2025-08-13T12:22:14.000Z</time>
      </trkpt>
      <trkpt lat="43.48989" lon="-1.42649">
        <ele>-20.200000762939</ele>
        <time>2025-08-13T12:22:16.000Z</time>
      </trkpt>
      <trkpt lat="43.48989" lon="-1.42655">
        <ele>-20.200000762939</ele>
        <time>2025-08-13T12:22:17.000Z</time>
      </trkpt>
      <trkpt lat="43.4899" lon="-1.42697">
        <ele>-19.799999237061</ele>
        <time>2025-08-13T12:22:25.000Z</time>
      </trkpt>
      <trkpt lat="43.48987" lon="-1.42744">
        <ele>-19.799999237061</ele>
        <time>2025-08-13T12:22:34.000Z</time>
      </trkpt>
      <trkpt lat="43.48982" lon="-1.42782">
        <ele>-19.799999237061</ele>
        <time>2025-08-13T12:22:41.000Z</time>
      </trkpt>
      <trkpt lat="43.48976" lon="-1.42814">
        <ele>-19.799999237061</ele>
        <time>2025-08-13T12:22:47.000Z</time>
      </trkpt>
      <trkpt lat="43.48969" lon="-1.4285">
        <ele>-19.799999237061</ele>
        <time>2025-08-13T12:22:54.000Z</time>
      </trkpt>
      <trkpt lat="43.48963" lon="-1.42882">
        <ele>-19.39999961853</ele>
        <time>2025-08-13T12:23:00.000Z</time>
      </trkpt>
      <trkpt lat="43.48952" lon="-1.42931">
        <ele>-19.39999961853</ele>
        <time>2025-08-13T12:23:09.000Z</time>
      </trkpt>
      <trkpt lat="43.48941" lon="-1.42974">
        <ele>-19.60000038147</ele>
        <time>2025-08-13T12:23:17.000Z</time>
      </trkpt>
      <trkpt lat="43.48931" lon="-1.43012">
        <ele>-19.60000038147</ele>
        <time>2025-08-13T12:23:24.000Z</time>
      </trkpt>
      <trkpt lat="43.4893" lon="-1.43017">
        <ele>-19.60000038147</ele>
        <time>2025-08-13T12:23:25.000Z</time>
      </trkpt>
      <trkpt lat="43.4892" lon="-1.43065">
        <ele>-19.799999237061</ele>
        <time>2025-08-13T12:23:34.000Z</time>
      </trkpt>
      <trkpt lat="43.48908" lon="-1.43118">
        <ele>-19.39999961853</ele>
        <time>2025-08-13T12:23:44.000Z</time>
      </trkpt>
      <trkpt lat="43.489" lon="-1.43147">
        <ele>-19.200000762939</ele>
        <time>2025-08-13T12:23:50.000Z</time>
      </trkpt>
      <trkpt lat="43.48899" lon="-1.43152">
        <ele>-19.200000762939</ele>
        <time>2025-08-13T12:23:51.000Z</time>
      </trkpt>
      <trkpt lat="43.48894" lon="-1.43192">
        <ele>-19</ele>
        <time>2025-08-13T12:23:59.000Z</time>
      </trkpt>
      <trkpt lat="43.48893" lon="-1.43202">
        <ele>-18.799999237061</ele>
        <time>2025-08-13T12:24:02.000Z</time>
      </trkpt>
      <trkpt lat="43.48895" lon="-1.43204">
        <ele>-18.60000038147</ele>
        <time>2025-08-13T12:24:03.000Z</time>
      </trkpt>
      <trkpt lat="43.48912" lon="-1.43228">
        <ele>-18.200000762939</ele>
        <time>2025-08-13T12:24:10.000Z</time>
      </trkpt>
      <trkpt lat="43.48913" lon="-1.43231">
        <ele>-18</ele>
        <time>2025-08-13T12:24:11.000Z</time>
      </trkpt>
      <trkpt lat="43.48913" lon="-1.4324">
        <ele>-18</ele>
        <time>2025-08-13T12:24:13.000Z</time>
      </trkpt>
      <trkpt lat="43.48915" lon="-1.43264">
        <ele>-18.200000762939</ele>
        <time>2025-08-13T12:24:18.000Z</time>
      </trkpt>
      <trkpt lat="43.48907" lon="-1.43284">
        <ele>-18.200000762939</ele>
        <time>2025-08-13T12:24:23.000Z</time>
      </trkpt>
      <trkpt lat="43.48895" lon="-1.43312">
        <ele>-18.200000762939</ele>
        <time>2025-08-13T12:24:30.000Z</time>
      </trkpt>
      <trkpt lat="43.48883" lon="-1.43331">
        <ele>-18.200000762939</ele>
        <time>2025-08-13T12:24:36.000Z</time>
      </trkpt>
      <trkpt lat="43.48872" lon="-1.4335">
        <ele>-18.200000762939</ele>
        <time>2025-08-13T12:24:43.000Z</time>
      </trkpt>
      <trkpt lat="43.48858" lon="-1.4338">
        <ele>-18.39999961853</ele>
        <time>2025-08-13T12:24:52.000Z</time>
      </trkpt>
      <trkpt lat="43.48842" lon="-1.43415">
        <ele>-18.39999961853</ele>
        <time>2025-08-13T12:25:00.000Z</time>
      </trkpt>
      <trkpt lat="43.48828" lon="-1.43447">
        <ele>-18.39999961853</ele>
        <time>2025-08-13T12:25:07.000Z</time>
      </trkpt>
      <trkpt lat="43.48801" lon="-1.43507">
        <ele>-18.200000762939</ele>
        <time>2025-08-13T12:25:20.000Z</time>
      </trkpt>
      <trkpt lat="43.48784" lon="-1.43544">
        <ele>-18.39999961853</ele>
        <time>2025-08-13T12:25:28.000Z</time>
      </trkpt>
      <trkpt lat="43.48769" lon="-1.43581">
        <ele>-18.799999237061</ele>
        <time>2025-08-13T12:25:36.000Z</time>
      </trkpt>
      <trkpt lat="43.48756" lon="-1.43626">
        <ele>-19</ele>
        <time>2025-08-13T12:25:45.000Z</time>
      </trkpt>
      <trkpt lat="43.48739" lon="-1.43673">
        <ele>-19</ele>
        <time>2025-08-13T12:25:55.000Z</time>
      </trkpt>
      <trkpt lat="43.48733" lon="-1.43687">
        <ele>-19.200000762939</ele>
        <time>2025-08-13T12:25:58.000Z</time>
      </trkpt>
      <trkpt lat="43.48722" lon="-1.43711">
        <ele>-19.60000038147</ele>
        <time>2025-08-13T12:26:04.000Z</time>
      </trkpt>
      <trkpt lat="43.48704" lon="-1.4375">
        <ele>-19.799999237061</ele>
        <time>2025-08-13T12:26:13.000Z</time>
      </trkpt>
      <trkpt lat="43.48683" lon="-1.43789">
        <ele>-19.60000038147</ele>
        <time>2025-08-13T12:26:22.000Z</time>
      </trkpt>
      <trkpt lat="43.48657" lon="-1.43834">
        <ele>-19.39999961853</ele>
        <time>2025-08-13T12:26:32.000Z</time>
      </trkpt>
      <trkpt lat="43.48637" lon="-1.43883">
        <ele>-19.60000038147</ele>
        <time>2025-08-13T12:26:42.000Z</time>
      </trkpt>
      <trkpt lat="43.48624" lon="-1.43919">
        <ele>-19.60000038147</ele>
        <time>2025-08-13T12:26:49.000Z</time>
      </trkpt>
      <trkpt lat="43.48603" lon="-1.4397">
        <ele>-19.60000038147</ele>
        <time>2025-08-13T12:26:59.000Z</time>
      </trkpt>
      <trkpt lat="43.48587" lon="-1.44007">
        <ele>-19.39999961853</ele>
        <time>2025-08-13T12:27:07.000Z</time>
      </trkpt>
      <trkpt lat="43.48577" lon="-1.44034">
        <ele>-19.200000762939</ele>
        <time>2025-08-13T12:27:13.000Z</time>
      </trkpt>
      <trkpt lat="43.48559" lon="-1.44077">
        <ele>-19.60000038147</ele>
        <time>2025-08-13T12:27:22.000Z</time>
      </trkpt>
      <trkpt lat="43.48554" lon="-1.44086">
        <ele>-19.60000038147</ele>
        <time>2025-08-13T12:27:24.000Z</time>
      </trkpt>
      <trkpt lat="43.48533" lon="-1.44122">
        <ele>-19.799999237061</ele>
        <time>2025-08-13T12:27:32.000Z</time>
      </trkpt>
      <trkpt lat="43.48518" lon="-1.44155">
        <ele>-19.60000038147</ele>
        <time>2025-08-13T12:27:39.000Z</time>
      </trkpt>
      <trkpt lat="43.48501" lon="-1.44197">
        <ele>-19.799999237061</ele>
        <time>2025-08-13T12:27:47.000Z</time>
      </trkpt>
      <trkpt lat="43.48484" lon="-1.44237">
        <ele>-20</ele>
        <time>2025-08-13T12:27:55.000Z</time>
      </trkpt>
      <trkpt lat="43.48468" lon="-1.4428">
        <ele>-19.799999237061</ele>
        <time>2025-08-13T12:28:03.000Z</time>
      </trkpt>
      <trkpt lat="43.48467" lon="-1.44286">
        <ele>-19.799999237061</ele>
        <time>2025-08-13T12:28:04.000Z</time>
      </trkpt>
      <trkpt lat="43.48456" lon="-1.44316">
        <ele>-19.60000038147</ele>
        <time>2025-08-13T12:28:10.000Z</time>
      </trkpt>
      <trkpt lat="43.4844" lon="-1.44359">
        <ele>-19.39999961853</ele>
        <time>2025-08-13T12:28:19.000Z</time>
      </trkpt>
      <trkpt lat="43.4843" lon="-1.44396">
        <ele>-19.39999961853</ele>
        <time>2025-08-13T12:28:27.000Z</time>
      </trkpt>
      <trkpt lat="43.48425" lon="-1.44436">
        <ele>-19.39999961853</ele>
        <time>2025-08-13T12:28:35.000Z</time>
      </trkpt>
      <trkpt lat="43.48425" lon="-1.44479">
        <ele>-19.39999961853</ele>
        <time>2025-08-13T12:28:42.000Z</time>
      </trkpt>
      <trkpt lat="43.48425" lon="-1.4451">
        <ele>-19.39999961853</ele>
        <time>2025-08-13T12:28:47.000Z</time>
      </trkpt>
      <trkpt lat="43.48425" lon="-1.44516">
        <ele>-19.39999961853</ele>
        <time>2025-08-13T12:28:48.000Z</time>
      </trkpt>
      <trkpt lat="43.48427" lon="-1.44566">
        <ele>-20</ele>
        <time>2025-08-13T12:28:56.000Z</time>
      </trkpt>
      <trkpt lat="43.48428" lon="-1.44607">
        <ele>-20.200000762939</ele>
        <time>2025-08-13T12:29:03.000Z</time>
      </trkpt>
      <trkpt lat="43.48428" lon="-1.44631">
        <ele>-20.39999961853</ele>
        <time>2025-08-13T12:29:07.000Z</time>
      </trkpt>
      <trkpt lat="43.48428" lon="-1.44657">
        <ele>-20.60000038147</ele>
        <time>2025-08-13T12:29:12.000Z</time>
      </trkpt>
      <trkpt lat="43.48428" lon="-1.44673">
        <ele>-20.39999961853</ele>
        <time>2025-08-13T12:29:15.000Z</time>
      </trkpt>
      <trkpt lat="43.48429" lon="-1.44715">
        <ele>-20</ele>
        <time>2025-08-13T12:29:23.000Z</time>
      </trkpt>
      <trkpt lat="43.48431" lon="-1.44768">
        <ele>-19.799999237061</ele>
        <time>2025-08-13T12:29:33.000Z</time>
      </trkpt>
      <trkpt lat="43.4843" lon="-1.44793">
        <ele>-19.60000038147</ele>
        <time>2025-08-13T12:29:38.000Z</time>
      </trkpt>
      <trkpt lat="43.48427" lon="-1.44812">
        <ele>-19.39999961853</ele>
        <time>2025-08-13T12:29:42.000Z</time>
      </trkpt>
      <trkpt lat="43.48426" lon="-1.44818">
        <ele>-19.39999961853</ele>
        <time>2025-08-13T12:29:43.000Z</time>
      </trkpt>
      <trkpt lat="43.48426" lon="-1.44841">
        <ele>-19.799999237061</ele>
        <time>2025-08-13T12:29:47.000Z</time>
      </trkpt>
      <trkpt lat="43.48428" lon="-1.44879">
        <ele>-20.60000038147</ele>
        <time>2025-08-13T12:29:54.000Z</time>
      </trkpt>
      <trkpt lat="43.48427" lon="-1.44895">
        <ele>-20.799999237061</ele>
        <time>2025-08-13T12:29:57.000Z</time>
      </trkpt>
      <trkpt lat="43.48426" lon="-1.44937">
        <ele>-21.200000762939</ele>
        <time>2025-08-13T12:30:05.000Z</time>
      </trkpt>
      <trkpt lat="43.48424" lon="-1.44972">
        <ele>-21.39999961853</ele>
        <time>2025-08-13T12:30:12.000Z</time>
      </trkpt>
      <trkpt lat="43.48423" lon="-1.45011">
        <ele>-21.39999961853</ele>
        <time>2025-08-13T12:30:20.000Z</time>
      </trkpt>
      <trkpt lat="43.48417" lon="-1.45056">
        <ele>-21.39999961853</ele>
        <time>2025-08-13T12:30:29.000Z</time>
      </trkpt>
      <trkpt lat="43.4841" lon="-1.45092">
        <ele>-21.39999961853</ele>
        <time>2025-08-13T12:30:36.000Z</time>
      </trkpt>
      <trkpt lat="43.48403" lon="-1.45132">
        <ele>-21.39999961853</ele>
        <time>2025-08-13T12:30:44.000Z</time>
      </trkpt>
      <trkpt lat="43.48395" lon="-1.45173">
        <ele>-21.60000038147</ele>
        <time>2025-08-13T12:30:52.000Z</time>
      </trkpt>
      <trkpt lat="43.48388" lon="-1.45208">
        <ele>-21.60000038147</ele>
        <time>2025-08-13T12:30:59.000Z</time>
      </trkpt>
      <trkpt lat="43.48381" lon="-1.4525">
        <ele>-21.60000038147</ele>
        <time>2025-08-13T12:31:07.000Z</time>
      </trkpt>
      <trkpt lat="43.48374" lon="-1.45288">
        <ele>-21.60000038147</ele>
        <time>2025-08-13T12:31:14.000Z</time>
      </trkpt>
      <trkpt lat="43.48365" lon="-1.45343">
        <ele>-21.60000038147</ele>
        <time>2025-08-13T12:31:24.000Z</time>
      </trkpt>
      <trkpt lat="43.4836" lon="-1.45373">
        <ele>-21.60000038147</ele>
        <time>2025-08-13T12:31:30.000Z</time>
      </trkpt>
      <trkpt lat="43.4836" lon="-1.45405">
        <ele>-21.60000038147</ele>
        <time>2025-08-13T12:31:36.000Z</time>
      </trkpt>
      <trkpt lat="43.48362" lon="-1.45448">
        <ele>-21.39999961853</ele>
        <time>2025-08-13T12:31:44.000Z</time>
      </trkpt>
      <trkpt lat="43.48365" lon="-1.45495">
        <ele>-21.200000762939</ele>
        <time>2025-08-13T12:31:53.000Z</time>
      </trkpt>
      <trkpt lat="43.48372" lon="-1.45545">
        <ele>-20.799999237061</ele>
        <time>2025-08-13T12:32:02.000Z</time>
      </trkpt>
      <trkpt lat="43.48377" lon="-1.45568">
        <ele>-20.799999237061</ele>
        <time>2025-08-13T12:32:06.000Z</time>
      </trkpt>
      <trkpt lat="43.48381" lon="-1.45583">
        <ele>-20.799999237061</ele>
        <time>2025-08-13T12:32:09.000Z</time>
      </trkpt>
      <trkpt lat="43.48391" lon="-1.45627">
        <ele>-20.60000038147</ele>
        <time>2025-08-13T12:32:18.000Z</time>
      </trkpt>
      <trkpt lat="43.48402" lon="-1.45657">
        <ele>-20.200000762939</ele>
        <time>2025-08-13T12:32:25.000Z</time>
      </trkpt>
      <trkpt lat="43.48419" lon="-1.45683">
        <ele>-19.60000038147</ele>
        <time>2025-08-13T12:32:32.000Z</time>
      </trkpt>
      <trkpt lat="43.48426" lon="-1.45694">
        <ele>-19.200000762939</ele>
        <time>2025-08-13T12:32:35.000Z</time>
      </trkpt>
      <trkpt lat="43.48447" lon="-1.45741">
        <ele>-19.39999961853</ele>
        <time>2025-08-13T12:32:45.000Z</time>
      </trkpt>
      <trkpt lat="43.4846" lon="-1.45783">
        <ele>-19.60000038147</ele>
        <time>2025-08-13T12:32:54.000Z</time>
      </trkpt>
      <trkpt lat="43.48467" lon="-1.45814">
        <ele>-19.799999237061</ele>
        <time>2025-08-13T12:33:01.000Z</time>
      </trkpt>
      <trkpt lat="43.4848" lon="-1.45847">
        <ele>-20</ele>
        <time>2025-08-13T12:33:08.000Z</time>
      </trkpt>
      <trkpt lat="43.48493" lon="-1.45877">
        <ele>-20.39999961853</ele>
        <time>2025-08-13T12:33:14.000Z</time>
      </trkpt>
      <trkpt lat="43.48509" lon="-1.45909">
        <ele>-20.39999961853</ele>
        <time>2025-08-13T12:33:21.000Z</time>
      </trkpt>
      <trkpt lat="43.4853" lon="-1.45947">
        <ele>-19.60000038147</ele>
        <time>2025-08-13T12:33:30.000Z</time>
      </trkpt>
      <trkpt lat="43.48548" lon="-1.45994">
        <ele>-19.799999237061</ele>
        <time>2025-08-13T12:33:40.000Z</time>
      </trkpt>
      <trkpt lat="43.48563" lon="-1.4604">
        <ele>-20</ele>
        <time>2025-08-13T12:33:49.000Z</time>
      </trkpt>
      <trkpt lat="43.48565" lon="-1.46045">
        <ele>-20</ele>
        <time>2025-08-13T12:33:50.000Z</time>
      </trkpt>
      <trkpt lat="43.48574" lon="-1.46058">
        <ele>-20</ele>
        <time>2025-08-13T12:33:53.000Z</time>
      </trkpt>
      <trkpt lat="43.48581" lon="-1.46068">
        <ele>-20</ele>
        <time>2025-08-13T12:33:55.000Z</time>
      </trkpt>
      <trkpt lat="43.48606" lon="-1.46104">
        <ele>-20.799999237061</ele>
        <time>2025-08-13T12:34:03.000Z</time>
      </trkpt>
      <trkpt lat="43.48622" lon="-1.46126">
        <ele>-20.799999237061</ele>
        <time>2025-08-13T12:34:09.000Z</time>
      </trkpt>
      <trkpt lat="43.48635" lon="-1.46149">
        <ele>-20.39999961853</ele>
        <time>2025-08-13T12:34:15.000Z</time>
      </trkpt>
      <trkpt lat="43.48648" lon="-1.46179">
        <ele>-20</ele>
        <time>2025-08-13T12:34:22.000Z</time>
      </trkpt>
      <trkpt lat="43.48666" lon="-1.46214">
        <ele>-19.799999237061</ele>
        <time>2025-08-13T12:34:30.000Z</time>
      </trkpt>
      <trkpt lat="43.48694" lon="-1.46252">
        <ele>-20</ele>
        <time>2025-08-13T12:34:40.000Z</time>
      </trkpt>
      <trkpt lat="43.48715" lon="-1.46286">
        <ele>-19.799999237061</ele>
        <time>2025-08-13T12:34:48.000Z</time>
      </trkpt>
      <trkpt lat="43.48738" lon="-1.46312">
        <ele>-19.39999961853</ele>
        <time>2025-08-13T12:34:56.000Z</time>
      </trkpt>
      <trkpt lat="43.4876" lon="-1.46342">
        <ele>-19.39999961853</ele>
        <time>2025-08-13T12:35:04.000Z</time>
      </trkpt>
      <trkpt lat="43.4878" lon="-1.46377">
        <ele>-19.39999961853</ele>
        <time>2025-08-13T12:35:13.000Z</time>
      </trkpt>
      <trkpt lat="43.48792" lon="-1.46395">
        <ele>-19.39999961853</ele>
        <time>2025-08-13T12:35:19.000Z</time>
      </trkpt>
      <trkpt lat="43.48794" lon="-1.46409">
        <ele>-19.60000038147</ele>
        <time>2025-08-13T12:35:24.000Z</time>
      </trkpt>
      <trkpt lat="43.48804" lon="-1.4643">
        <ele>-20.39999961853</ele>
        <time>2025-08-13T12:35:31.000Z</time>
      </trkpt>
      <trkpt lat="43.48816" lon="-1.46455">
        <ele>-20.60000038147</ele>
        <time>2025-08-13T12:35:38.000Z</time>
      </trkpt>
      <trkpt lat="43.48827" lon="-1.46481">
        <ele>-20.39999961853</ele>
        <time>2025-08-13T12:35:45.000Z</time>
      </trkpt>
      <trkpt lat="43.48837" lon="-1.46501">
        <ele>-20.200000762939</ele>
        <time>2025-08-13T12:35:51.000Z</time>
      </trkpt>
      <trkpt lat="43.48843" lon="-1.46516">
        <ele>-20</ele>
        <time>2025-08-13T12:35:55.000Z</time>
      </trkpt>
      <trkpt lat="43.48851" lon="-1.46526">
        <ele>-19.799999237061</ele>
        <time>2025-08-13T12:36:00.000Z</time>
      </trkpt>
      <trkpt lat="43.48851" lon="-1.46529">
        <ele>-19.799999237061</ele>
        <time>2025-08-13T12:36:02.000Z</time>
      </trkpt>
      <trkpt lat="43.4885" lon="-1.46531">
        <ele>-19.799999237061</ele>
        <time>2025-08-13T12:36:05.000Z</time>
      </trkpt>
      <trkpt lat="43.4885" lon="-1.46531">
        <ele>-19.799999237061</ele>
        <time>2025-08-13T12:36:07.000Z</time>
      </trkpt>
      <trkpt lat="43.48846" lon="-1.46537">
        <ele>-19.799999237061</ele>
        <time>2025-08-13T12:36:30.000Z</time>
      </trkpt>
      <trkpt lat="43.48845" lon="-1.46538">
        <ele>-19.799999237061</ele>
        <time>2025-08-13T12:36:31.000Z</time>
      </trkpt>
      <trkpt lat="43.48844" lon="-1.46541">
        <ele>-19.60000038147</ele>
        <time>2025-08-13T12:36:33.000Z</time>
      </trkpt>
      <trkpt lat="43.48843" lon="-1.46542">
        <ele>-19.60000038147</ele>
        <time>2025-08-13T12:36:36.000Z</time>
      </trkpt>
      <trkpt lat="43.48843" lon="-1.46542">
        <ele>-19.60000038147</ele>
        <time>2025-08-13T12:36:37.000Z</time>
      </trkpt>
      <trkpt lat="43.4885" lon="-1.46533">
        <ele>-19.60000038147</ele>
        <time>2025-08-13T12:37:19.000Z</time>
      </trkpt>
      <trkpt lat="43.48852" lon="-1.46532">
        <ele>-19.60000038147</ele>
        <time>2025-08-13T12:37:21.000Z</time>
      </trkpt>
      <trkpt lat="43.48855" lon="-1.4653">
        <ele>-20</ele>
        <time>2025-08-13T12:37:26.000Z</time>
      </trkpt>
      <trkpt lat="43.48856" lon="-1.46531">
        <ele>-20</ele>
        <time>2025-08-13T12:37:27.000Z</time>
      </trkpt>
      <trkpt lat="43.48862" lon="-1.46541">
        <ele>-20</ele>
        <time>2025-08-13T12:37:33.000Z</time>
      </trkpt>
      <trkpt lat="43.48871" lon="-1.46555">
        <ele>-19.799999237061</ele>
        <time>2025-08-13T12:37:38.000Z</time>
      </trkpt>
      <trkpt lat="43.48882" lon="-1.46575">
        <ele>-19.60000038147</ele>
        <time>2025-08-13T12:37:44.000Z</time>
      </trkpt>
      <trkpt lat="43.48893" lon="-1.46588">
        <ele>-19.60000038147</ele>
        <time>2025-08-13T12:37:48.000Z</time>
      </trkpt>
      <trkpt lat="43.48895" lon="-1.46592">
        <ele>-19.60000038147</ele>
        <time>2025-08-13T12:37:49.000Z</time>
      </trkpt>
      <trkpt lat="43.48915" lon="-1.46627">
        <ele>-19.60000038147</ele>
        <time>2025-08-13T12:37:57.000Z</time>
      </trkpt>
      <trkpt lat="43.48939" lon="-1.46661">
        <ele>-19.39999961853</ele>
        <time>2025-08-13T12:38:06.000Z</time>
      </trkpt>
      <trkpt lat="43.48955" lon="-1.46676">
        <ele>-19.200000762939</ele>
        <time>2025-08-13T12:38:11.000Z</time>
      </trkpt>
      <trkpt lat="43.48967" lon="-1.46688">
        <ele>-19.200000762939</ele>
        <time>2025-08-13T12:38:15.000Z</time>
      </trkpt>
      <trkpt lat="43.48982" lon="-1.46701">
        <ele>-18.39999961853</ele>
        <time>2025-08-13T12:38:20.000Z</time>
      </trkpt>
      <trkpt lat="43.48985" lon="-1.46703">
        <ele>-18.39999961853</ele>
        <time>2025-08-13T12:38:21.000Z</time>
      </trkpt>
      <trkpt lat="43.49012" lon="-1.46722">
        <ele>-17.60000038147</ele>
        <time>2025-08-13T12:38:29.000Z</time>
      </trkpt>
      <trkpt lat="43.49021" lon="-1.46728">
        <ele>-17.39999961853</ele>
        <time>2025-08-13T12:38:32.000Z</time>
      </trkpt>
      <trkpt lat="43.49029" lon="-1.46735">
        <ele>-17.200000762939</ele>
        <time>2025-08-13T12:38:35.000Z</time>
      </trkpt>
      <trkpt lat="43.49053" lon="-1.46752">
        <ele>-16.799999237061</ele>
        <time>2025-08-13T12:38:43.000Z</time>
      </trkpt>
      <trkpt lat="43.49079" lon="-1.46772">
        <ele>-17</ele>
        <time>2025-08-13T12:38:51.000Z</time>
      </trkpt>
      <trkpt lat="43.49096" lon="-1.46798">
        <ele>-18</ele>
        <time>2025-08-13T12:38:57.000Z</time>
      </trkpt>
      <trkpt lat="43.49107" lon="-1.46823">
        <ele>-18.60000038147</ele>
        <time>2025-08-13T12:39:02.000Z</time>
      </trkpt>
      <trkpt lat="43.4912" lon="-1.46847">
        <ele>-18.799999237061</ele>
        <time>2025-08-13T12:39:07.000Z</time>
      </trkpt>
      <trkpt lat="43.49135" lon="-1.46877">
        <ele>-19</ele>
        <time>2025-08-13T12:39:14.000Z</time>
      </trkpt>
      <trkpt lat="43.49146" lon="-1.46901">
        <ele>-19.200000762939</ele>
        <time>2025-08-13T12:39:20.000Z</time>
      </trkpt>
      <trkpt lat="43.49154" lon="-1.46913">
        <ele>-19.39999961853</ele>
        <time>2025-08-13T12:39:24.000Z</time>
      </trkpt>
      <trkpt lat="43.49157" lon="-1.46915">
        <ele>-19.60000038147</ele>
        <time>2025-08-13T12:39:25.000Z</time>
      </trkpt>
      <trkpt lat="43.49161" lon="-1.46916">
        <ele>-19.60000038147</ele>
        <time>2025-08-13T12:39:26.000Z</time>
      </trkpt>
      <trkpt lat="43.49181" lon="-1.46924">
        <ele>-20.200000762939</ele>
        <time>2025-08-13T12:39:32.000Z</time>
      </trkpt>
      <trkpt lat="43.49201" lon="-1.46949">
        <ele>-20.39999961853</ele>
        <time>2025-08-13T12:39:39.000Z</time>
      </trkpt>
      <trkpt lat="43.4922" lon="-1.46988">
        <ele>-20.39999961853</ele>
        <time>2025-08-13T12:39:48.000Z</time>
      </trkpt>
      <trkpt lat="43.49233" lon="-1.47014">
        <ele>-20.60000038147</ele>
        <time>2025-08-13T12:39:54.000Z</time>
      </trkpt>
      <trkpt lat="43.49245" lon="-1.47039">
        <ele>-20.60000038147</ele>
        <time>2025-08-13T12:40:00.000Z</time>
      </trkpt>
      <trkpt lat="43.49267" lon="-1.47084">
        <ele>-20.60000038147</ele>
        <time>2025-08-13T12:40:11.000Z</time>
      </trkpt>
      <trkpt lat="43.49286" lon="-1.47124">
        <ele>-20.39999961853</ele>
        <time>2025-08-13T12:40:21.000Z</time>
      </trkpt>
      <trkpt lat="43.49295" lon="-1.4715">
        <ele>-20</ele>
        <time>2025-08-13T12:40:27.000Z</time>
      </trkpt>
      <trkpt lat="43.49308" lon="-1.47184">
        <ele>-20.200000762939</ele>
        <time>2025-08-13T12:40:35.000Z</time>
      </trkpt>
      <trkpt lat="43.49322" lon="-1.47224">
        <ele>-20.200000762939</ele>
        <time>2025-08-13T12:40:45.000Z</time>
      </trkpt>
      <trkpt lat="43.49317" lon="-1.47237">
        <ele>-20</ele>
        <time>2025-08-13T12:40:49.000Z</time>
      </trkpt>
      <trkpt lat="43.4931" lon="-1.47246">
        <ele>-20</ele>
        <time>2025-08-13T12:40:53.000Z</time>
      </trkpt>
      <trkpt lat="43.4931" lon="-1.47249">
        <ele>-19.799999237061</ele>
        <time>2025-08-13T12:40:54.000Z</time>
      </trkpt>
      <trkpt lat="43.49317" lon="-1.4726">
        <ele>-19.60000038147</ele>
        <time>2025-08-13T12:40:59.000Z</time>
      </trkpt>
      <trkpt lat="43.49323" lon="-1.4727">
        <ele>-19.200000762939</ele>
        <time>2025-08-13T12:41:05.000Z</time>
      </trkpt>
      <trkpt lat="43.49326" lon="-1.47275">
        <ele>-18.60000038147</ele>
        <time>2025-08-13T12:41:08.000Z</time>
      </trkpt>
      <trkpt lat="43.49327" lon="-1.47277">
        <ele>-18.200000762939</ele>
        <time>2025-08-13T12:41:10.000Z</time>
      </trkpt>
      <trkpt lat="43.49327" lon="-1.47277">
        <ele>-18.200000762939</ele>
        <time>2025-08-13T12:41:11.000Z</time>
      </trkpt>
      <trkpt lat="43.49327" lon="-1.47277">
        <ele>-18</ele>
        <time>2025-08-13T12:41:13.000Z</time>
      </trkpt>
      <trkpt lat="43.49328" lon="-1.47286">
        <ele>-18</ele>
        <time>2025-08-13T12:41:19.000Z</time>
      </trkpt>
      <trkpt lat="43.49329" lon="-1.47289">
        <ele>-18.200000762939</ele>
        <time>2025-08-13T12:41:20.000Z</time>
      </trkpt>
      <trkpt lat="43.49329" lon="-1.47296">
        <ele>-18.200000762939</ele>
        <time>2025-08-13T12:41:23.000Z</time>
      </trkpt>
      <trkpt lat="43.49328" lon="-1.47297">
        <ele>-18.39999961853</ele>
        <time>2025-08-13T12:41:25.000Z</time>
      </trkpt>
      <trkpt lat="43.49328" lon="-1.47297">
        <ele>-18.39999961853</ele>
        <time>2025-08-13T12:41:27.000Z</time>
      </trkpt>
      <trkpt lat="43.49329" lon="-1.47303">
        <ele>-19.39999961853</ele>
        <time>2025-08-13T12:42:11.000Z</time>
      </trkpt>
      <trkpt lat="43.49329" lon="-1.47305">
        <ele>-19.39999961853</ele>
        <time>2025-08-13T12:42:12.000Z</time>
      </trkpt>
      <trkpt lat="43.49331" lon="-1.47312">
        <ele>-19.39999961853</ele>
        <time>2025-08-13T12:42:15.000Z</time>
      </trkpt>
      <trkpt lat="43.49329" lon="-1.47316">
        <ele>-19.39999961853</ele>
        <time>2025-08-13T12:42:17.000Z</time>
      </trkpt>
      <trkpt lat="43.4933" lon="-1.47327">
        <ele>-19.39999961853</ele>
        <time>2025-08-13T12:42:20.000Z</time>
      </trkpt>
      <trkpt lat="43.49322" lon="-1.47337">
        <ele>-19</ele>
        <time>2025-08-13T12:42:24.000Z</time>
      </trkpt>
      <trkpt lat="43.493" lon="-1.47354">
        <ele>-18</ele>
        <time>2025-08-13T12:42:32.000Z</time>
      </trkpt>
      <trkpt lat="43.49274" lon="-1.47365">
        <ele>-19.39999961853</ele>
        <time>2025-08-13T12:42:40.000Z</time>
      </trkpt>
      <trkpt lat="43.49257" lon="-1.47387">
        <ele>-19.60000038147</ele>
        <time>2025-08-13T12:42:47.000Z</time>
      </trkpt>
      <trkpt lat="43.49251" lon="-1.47402">
        <ele>-19</ele>
        <time>2025-08-13T12:42:52.000Z</time>
      </trkpt>
      <trkpt lat="43.49244" lon="-1.47417">
        <ele>-19.200000762939</ele>
        <time>2025-08-13T12:42:59.000Z</time>
      </trkpt>
      <trkpt lat="43.49244" lon="-1.4743">
        <ele>-19.39999961853</ele>
        <time>2025-08-13T12:43:05.000Z</time>
      </trkpt>
      <trkpt lat="43.49255" lon="-1.47448">
        <ele>-19.60000038147</ele>
        <time>2025-08-13T12:43:11.000Z</time>
      </trkpt>
      <trkpt lat="43.49267" lon="-1.47452">
        <ele>-19.799999237061</ele>
        <time>2025-08-13T12:43:15.000Z</time>
      </trkpt>
      <trkpt lat="43.49269" lon="-1.47453">
        <ele>-19.799999237061</ele>
        <time>2025-08-13T12:43:16.000Z</time>
      </trkpt>
      <trkpt lat="43.49269" lon="-1.47458">
        <ele>-20</ele>
        <time>2025-08-13T12:43:18.000Z</time>
      </trkpt>
      <trkpt lat="43.49269" lon="-1.47461">
        <ele>-20.200000762939</ele>
        <time>2025-08-13T12:43:19.000Z</time>
      </trkpt>
      <trkpt lat="43.4927" lon="-1.47478">
        <ele>-20.39999961853</ele>
        <time>2025-08-13T12:43:26.000Z</time>
      </trkpt>
      <trkpt lat="43.4927" lon="-1.47479">
        <ele>-20.39999961853</ele>
        <time>2025-08-13T12:43:27.000Z</time>
      </trkpt>
      <trkpt lat="43.49271" lon="-1.47485">
        <ele>-20.39999961853</ele>
        <time>2025-08-13T12:43:30.000Z</time>
      </trkpt>
      <trkpt lat="43.49272" lon="-1.4749">
        <ele>-20.39999961853</ele>
        <time>2025-08-13T12:43:32.000Z</time>
      </trkpt>
      <trkpt lat="43.49277" lon="-1.47496">
        <ele>-20.60000038147</ele>
        <time>2025-08-13T12:43:35.000Z</time>
      </trkpt>
      <trkpt lat="43.49279" lon="-1.47499">
        <ele>-20.60000038147</ele>
        <time>2025-08-13T12:43:37.000Z</time>
      </trkpt>
      <trkpt lat="43.49279" lon="-1.475">
        <ele>-20.60000038147</ele>
        <time>2025-08-13T12:43:38.000Z</time>
      </trkpt>
      <trkpt lat="43.49273" lon="-1.47507">
        <ele>-20.799999237061</ele>
        <time>2025-08-13T12:43:43.000Z</time>
      </trkpt>
      <trkpt lat="43.49263" lon="-1.47525">
        <ele>-21.200000762939</ele>
        <time>2025-08-13T12:43:50.000Z</time>
      </trkpt>
      <trkpt lat="43.49262" lon="-1.47527">
        <ele>-21.200000762939</ele>
        <time>2025-08-13T12:43:51.000Z</time>
      </trkpt>
      <trkpt lat="43.4926" lon="-1.47534">
        <ele>-21.39999961853</ele>
        <time>2025-08-13T12:43:54.000Z</time>
      </trkpt>
      <trkpt lat="43.4926" lon="-1.47534">
        <ele>-21.39999961853</ele>
        <time>2025-08-13T12:43:57.000Z</time>
      </trkpt>
      <trkpt lat="43.49265" lon="-1.47538">
        <ele>-21.799999237061</ele>
        <time>2025-08-13T12:44:16.000Z</time>
      </trkpt>
      <trkpt lat="43.49266" lon="-1.4754">
        <ele>-21.799999237061</ele>
        <time>2025-08-13T12:44:17.000Z</time>
      </trkpt>
      <trkpt lat="43.49275" lon="-1.47551">
        <ele>-21.39999961853</ele>
        <time>2025-08-13T12:44:23.000Z</time>
      </trkpt>
      <trkpt lat="43.49279" lon="-1.47557">
        <ele>-21.200000762939</ele>
        <time>2025-08-13T12:44:26.000Z</time>
      </trkpt>
      <trkpt lat="43.4928" lon="-1.47558">
        <ele>-21.200000762939</ele>
        <time>2025-08-13T12:44:27.000Z</time>
      </trkpt>
      <trkpt lat="43.49281" lon="-1.4756">
        <ele>-21</ele>
        <time>2025-08-13T12:44:29.000Z</time>
      </trkpt>
      <trkpt lat="43.49282" lon="-1.47562">
        <ele>-21</ele>
        <time>2025-08-13T12:44:31.000Z</time>
      </trkpt>
      <trkpt lat="43.49287" lon="-1.47566">
        <ele>-20.60000038147</ele>
        <time>2025-08-13T12:44:35.000Z</time>
      </trkpt>
      <trkpt lat="43.49296" lon="-1.47573">
        <ele>-20.60000038147</ele>
        <time>2025-08-13T12:44:39.000Z</time>
      </trkpt>
      <trkpt lat="43.49298" lon="-1.47575">
        <ele>-20.60000038147</ele>
        <time>2025-08-13T12:44:40.000Z</time>
      </trkpt>
      <trkpt lat="43.49302" lon="-1.47581">
        <ele>-20.60000038147</ele>
        <time>2025-08-13T12:44:43.000Z</time>
      </trkpt>
      <trkpt lat="43.49305" lon="-1.47583">
        <ele>-20.60000038147</ele>
        <time>2025-08-13T12:44:45.000Z</time>
      </trkpt>
      <trkpt lat="43.49308" lon="-1.47587">
        <ele>-20.60000038147</ele>
        <time>2025-08-13T12:44:47.000Z</time>
      </trkpt>
      <trkpt lat="43.49311" lon="-1.4759">
        <ele>-20.60000038147</ele>
        <time>2025-08-13T12:44:49.000Z</time>
      </trkpt>
      <trkpt lat="43.49316" lon="-1.47596">
        <ele>-20.799999237061</ele>
        <time>2025-08-13T12:44:52.000Z</time>
      </trkpt>
      <trkpt lat="43.49319" lon="-1.47601">
        <ele>-20.799999237061</ele>
        <time>2025-08-13T12:44:54.000Z</time>
      </trkpt>
      <trkpt lat="43.49318" lon="-1.47603">
        <ele>-20.799999237061</ele>
        <time>2025-08-13T12:44:55.000Z</time>
      </trkpt>
      <trkpt lat="43.49316" lon="-1.47607">
        <ele>-20.799999237061</ele>
        <time>2025-08-13T12:44:57.000Z</time>
      </trkpt>
      <trkpt lat="43.49307" lon="-1.4762">
        <ele>-20.799999237061</ele>
        <time>2025-08-13T12:45:02.000Z</time>
      </trkpt>
      <trkpt lat="43.4929" lon="-1.47635">
        <ele>-21</ele>
        <time>2025-08-13T12:45:09.000Z</time>
      </trkpt>
      <trkpt lat="43.49278" lon="-1.47647">
        <ele>-21</ele>
        <time>2025-08-13T12:45:14.000Z</time>
      </trkpt>
      <trkpt lat="43.49257" lon="-1.47667">
        <ele>-21</ele>
        <time>2025-08-13T12:45:21.000Z</time>
      </trkpt>
      <trkpt lat="43.4923" lon="-1.47688">
        <ele>-20.39999961853</ele>
        <time>2025-08-13T12:45:29.000Z</time>
      </trkpt>
      <trkpt lat="43.49216" lon="-1.477">
        <ele>-20.200000762939</ele>
        <time>2025-08-13T12:45:34.000Z</time>
      </trkpt>
      <trkpt lat="43.49208" lon="-1.47706">
        <ele>-20</ele>
        <time>2025-08-13T12:45:37.000Z</time>
      </trkpt>
      <trkpt lat="43.49201" lon="-1.47714">
        <ele>-19.799999237061</ele>
        <time>2025-08-13T12:45:40.000Z</time>
      </trkpt>
      <trkpt lat="43.49186" lon="-1.47728">
        <ele>-19</ele>
        <time>2025-08-13T12:45:47.000Z</time>
      </trkpt>
      <trkpt lat="43.49184" lon="-1.4773">
        <ele>-18.799999237061</ele>
        <time>2025-08-13T12:45:48.000Z</time>
      </trkpt>
      <trkpt lat="43.49171" lon="-1.47736">
        <ele>-18</ele>
        <time>2025-08-13T12:45:54.000Z</time>
      </trkpt>
      <trkpt lat="43.49165" lon="-1.4774">
        <ele>-17.60000038147</ele>
        <time>2025-08-13T12:45:57.000Z</time>
      </trkpt>
      <trkpt lat="43.49156" lon="-1.4775">
        <ele>-16.799999237061</ele>
        <time>2025-08-13T12:46:02.000Z</time>
      </trkpt>
      <trkpt lat="43.49154" lon="-1.47751">
        <ele>-16.60000038147</ele>
        <time>2025-08-13T12:46:03.000Z</time>
      </trkpt>
      <trkpt lat="43.49147" lon="-1.47753">
        <ele>-16.200000762939</ele>
        <time>2025-08-13T12:46:06.000Z</time>
      </trkpt>
      <trkpt lat="43.49142" lon="-1.47755">
        <ele>-15.800000190735</ele>
        <time>2025-08-13T12:46:08.000Z</time>
      </trkpt>
      <trkpt lat="43.49138" lon="-1.47754">
        <ele>-15.39999961853</ele>
        <time>2025-08-13T12:46:11.000Z</time>
      </trkpt>
      <trkpt lat="43.49137" lon="-1.47755">
        <ele>-15.39999961853</ele>
        <time>2025-08-13T12:46:12.000Z</time>
      </trkpt>
      <trkpt lat="43.4913" lon="-1.47758">
        <ele>-14.60000038147</ele>
        <time>2025-08-13T12:46:16.000Z</time>
      </trkpt>
      <trkpt lat="43.49124" lon="-1.47761">
        <ele>-14</ele>
        <time>2025-08-13T12:46:20.000Z</time>
      </trkpt>
      <trkpt lat="43.49121" lon="-1.47762">
        <ele>-13.800000190735</ele>
        <time>2025-08-13T12:46:22.000Z</time>
      </trkpt>
      <trkpt lat="43.49118" lon="-1.47762">
        <ele>-13.800000190735</ele>
        <time>2025-08-13T12:46:24.000Z</time>
      </trkpt>
      <trkpt lat="43.49117" lon="-1.47763">
        <ele>-13.60000038147</ele>
        <time>2025-08-13T12:46:25.000Z</time>
      </trkpt>
      <trkpt lat="43.49114" lon="-1.47765">
        <ele>-13.39999961853</ele>
        <time>2025-08-13T12:46:27.000Z</time>
      </trkpt>
      <trkpt lat="43.49113" lon="-1.47767">
        <ele>-13.39999961853</ele>
        <time>2025-08-13T12:46:28.000Z</time>
      </trkpt>
      <trkpt lat="43.4911" lon="-1.47768">
        <ele>-13.199999809265</ele>
        <time>2025-08-13T12:46:30.000Z</time>
      </trkpt>
      <trkpt lat="43.49105" lon="-1.47771">
        <ele>-13</ele>
        <time>2025-08-13T12:46:32.000Z</time>
      </trkpt>
      <trkpt lat="43.49092" lon="-1.47772">
        <ele>-12.60000038147</ele>
        <time>2025-08-13T12:46:37.000Z</time>
      </trkpt>
      <trkpt lat="43.4909" lon="-1.47771">
        <ele>-12.60000038147</ele>
        <time>2025-08-13T12:46:38.000Z</time>
      </trkpt>
      <trkpt lat="43.4909" lon="-1.47772">
        <ele>-12.800000190735</ele>
        <time>2025-08-13T12:46:40.000Z</time>
      </trkpt>
      <trkpt lat="43.4909" lon="-1.47773">
        <ele>-12.800000190735</ele>
        <time>2025-08-13T12:46:42.000Z</time>
      </trkpt>
      <trkpt lat="43.4909" lon="-1.47773">
        <ele>-12.800000190735</ele>
        <time>2025-08-13T12:46:43.000Z</time>
      </trkpt>
      <trkpt lat="43.49085" lon="-1.47751">
        <ele>-12.800000190735</ele>
        <time>2025-08-13T12:46:59.000Z</time>
      </trkpt>
      <trkpt lat="43.49083" lon="-1.47744">
        <ele>-12.800000190735</ele>
        <time>2025-08-13T12:47:02.000Z</time>
      </trkpt>
      <trkpt lat="43.49081" lon="-1.47736">
        <ele>-12.800000190735</ele>
        <time>2025-08-13T12:47:09.000Z</time>
      </trkpt>
      <trkpt lat="43.49081" lon="-1.47734">
        <ele>-13</ele>
        <time>2025-08-13T12:47:10.000Z</time>
      </trkpt>
      <trkpt lat="43.49081" lon="-1.47731">
        <ele>-13</ele>
        <time>2025-08-13T12:47:12.000Z</time>
      </trkpt>
      <trkpt lat="43.4908" lon="-1.47729">
        <ele>-13</ele>
        <time>2025-08-13T12:47:13.000Z</time>
      </trkpt>
      <trkpt lat="43.49079" lon="-1.47719">
        <ele>-13</ele>
        <time>2025-08-13T12:47:18.000Z</time>
      </trkpt>
      <trkpt lat="43.49079" lon="-1.47717">
        <ele>-13</ele>
        <time>2025-08-13T12:47:19.000Z</time>
      </trkpt>
      <trkpt lat="43.49079" lon="-1.47715">
        <ele>-13.199999809265</ele>
        <time>2025-08-13T12:47:21.000Z</time>
      </trkpt>
      <trkpt lat="43.49078" lon="-1.4771">
        <ele>-13.39999961853</ele>
        <time>2025-08-13T12:47:24.000Z</time>
      </trkpt>
      <trkpt lat="43.49079" lon="-1.47706">
        <ele>-13.60000038147</ele>
        <time>2025-08-13T12:47:27.000Z</time>
      </trkpt>
      <trkpt lat="43.49079" lon="-1.47699">
        <ele>-13.60000038147</ele>
        <time>2025-08-13T12:47:30.000Z</time>
      </trkpt>
      <trkpt lat="43.4907" lon="-1.47684">
        <ele>-13.800000190735</ele>
        <time>2025-08-13T12:47:36.000Z</time>
      </trkpt>
      <trkpt lat="43.49065" lon="-1.47681">
        <ele>-13.800000190735</ele>
        <time>2025-08-13T12:47:39.000Z</time>
      </trkpt>
      <trkpt lat="43.4906" lon="-1.47676">
        <ele>-13.800000190735</ele>
        <time>2025-08-13T12:47:43.000Z</time>
      </trkpt>
      <trkpt lat="43.49056" lon="-1.47674">
        <ele>-14</ele>
        <time>2025-08-13T12:47:47.000Z</time>
      </trkpt>
      <trkpt lat="43.49035" lon="-1.47671">
        <ele>-13.60000038147</ele>
        <time>2025-08-13T12:48:57.000Z</time>
      </trkpt>
      <trkpt lat="43.49032" lon="-1.47671">
        <ele>-13.39999961853</ele>
        <time>2025-08-13T12:48:59.000Z</time>
      </trkpt>
      <trkpt lat="43.4903" lon="-1.47672">
        <ele>-13.199999809265</ele>
        <time>2025-08-13T12:49:01.000Z</time>
      </trkpt>
      <trkpt lat="43.49027" lon="-1.47672">
        <ele>-13</ele>
        <time>2025-08-13T12:49:04.000Z</time>
      </trkpt>
      <trkpt lat="43.49023" lon="-1.47673">
        <ele>-12.60000038147</ele>
        <time>2025-08-13T12:49:07.000Z</time>
      </trkpt>
      <trkpt lat="43.49023" lon="-1.47673">
        <ele>-12.60000038147</ele>
        <time>2025-08-13T12:49:08.000Z</time>
      </trkpt>
      <trkpt lat="43.49031" lon="-1.47668">
        <ele>-12.39999961853</ele>
        <time>2025-08-13T12:50:40.000Z</time>
      </trkpt>
      <trkpt lat="43.49036" lon="-1.47667">
        <ele>-12.60000038147</ele>
        <time>2025-08-13T12:50:42.000Z</time>
      </trkpt>
      <trkpt lat="43.49049" lon="-1.47668">
        <ele>-13</ele>
        <time>2025-08-13T12:50:47.000Z</time>
      </trkpt>
      <trkpt lat="43.49052" lon="-1.47667">
        <ele>-13</ele>
        <time>2025-08-13T12:50:48.000Z</time>
      </trkpt>
      <trkpt lat="43.49054" lon="-1.47662">
        <ele>-13.199999809265</ele>
        <time>2025-08-13T12:50:50.000Z</time>
      </trkpt>
      <trkpt lat="43.49052" lon="-1.47656">
        <ele>-13.39999961853</ele>
        <time>2025-08-13T12:50:53.000Z</time>
      </trkpt>
      <trkpt lat="43.49051" lon="-1.47653">
        <ele>-13.800000190735</ele>
        <time>2025-08-13T12:50:55.000Z</time>
      </trkpt>
      <trkpt lat="43.49051" lon="-1.47651">
        <ele>-14</ele>
        <time>2025-08-13T12:50:56.000Z</time>
      </trkpt>
      <trkpt lat="43.49051" lon="-1.47649">
        <ele>-14.39999961853</ele>
        <time>2025-08-13T12:50:58.000Z</time>
      </trkpt>
      <trkpt lat="43.49051" lon="-1.47649">
        <ele>-14.60000038147</ele>
        <time>2025-08-13T12:50:59.000Z</time>
      </trkpt>
      <trkpt lat="43.49051" lon="-1.47648">
        <ele>-14.800000190735</ele>
        <time>2025-08-13T12:51:00.000Z</time>
      </trkpt>
      <trkpt lat="43.49052" lon="-1.47643">
        <ele>-15</ele>
        <time>2025-08-13T12:51:02.000Z</time>
      </trkpt>
      <trkpt lat="43.49052" lon="-1.47639">
        <ele>-15.60000038147</ele>
        <time>2025-08-13T12:51:04.000Z</time>
      </trkpt>
      <trkpt lat="43.49052" lon="-1.47637">
        <ele>-15.800000190735</ele>
        <time>2025-08-13T12:51:05.000Z</time>
      </trkpt>
      <trkpt lat="43.49053" lon="-1.47636">
        <ele>-16.39999961853</ele>
        <time>2025-08-13T12:51:08.000Z</time>
      </trkpt>
      <trkpt lat="43.49052" lon="-1.47624">
        <ele>-16.799999237061</ele>
        <time>2025-08-13T12:51:14.000Z</time>
      </trkpt>
      <trkpt lat="43.49053" lon="-1.47621">
        <ele>-16.799999237061</ele>
        <time>2025-08-13T12:51:15.000Z</time>
      </trkpt>
      <trkpt lat="43.49053" lon="-1.47604">
        <ele>-17.60000038147</ele>
        <time>2025-08-13T12:51:21.000Z</time>
      </trkpt>
      <trkpt lat="43.49053" lon="-1.47603">
        <ele>-18</ele>
        <time>2025-08-13T12:51:22.000Z</time>
      </trkpt>
      <trkpt lat="43.49053" lon="-1.47603">
        <ele>-18.200000762939</ele>
        <time>2025-08-13T12:51:24.000Z</time>
      </trkpt>
      <trkpt lat="43.49056" lon="-1.4757">
        <ele>-19.799999237061</ele>
        <time>2025-08-13T12:51:49.000Z</time>
      </trkpt>
      <trkpt lat="43.49056" lon="-1.47568">
        <ele>-20.200000762939</ele>
        <time>2025-08-13T12:51:53.000Z</time>
      </trkpt>
      <trkpt lat="43.49056" lon="-1.47553">
        <ele>-20.799999237061</ele>
        <time>2025-08-13T12:52:00.000Z</time>
      </trkpt>
      <trkpt lat="43.49056" lon="-1.47552">
        <ele>-21</ele>
        <time>2025-08-13T12:52:03.000Z</time>
      </trkpt>
      <trkpt lat="43.49056" lon="-1.47552">
        <ele>-21</ele>
        <time>2025-08-13T12:52:06.000Z</time>
      </trkpt>
      <trkpt lat="43.49056" lon="-1.47539">
        <ele>-21.200000762939</ele>
        <time>2025-08-13T12:52:11.000Z</time>
      </trkpt>
      <trkpt lat="43.49059" lon="-1.47529">
        <ele>-21.200000762939</ele>
        <time>2025-08-13T12:52:16.000Z</time>
      </trkpt>
      <trkpt lat="43.4906" lon="-1.47515">
        <ele>-21.60000038147</ele>
        <time>2025-08-13T12:52:22.000Z</time>
      </trkpt>
      <trkpt lat="43.49061" lon="-1.47511">
        <ele>-21.60000038147</ele>
        <time>2025-08-13T12:52:27.000Z</time>
      </trkpt>
      <trkpt lat="43.49062" lon="-1.47506">
        <ele>-21.60000038147</ele>
        <time>2025-08-13T12:52:31.000Z</time>
      </trkpt>
      <trkpt lat="43.49063" lon="-1.47502">
        <ele>-21.60000038147</ele>
        <time>2025-08-13T12:52:34.000Z</time>
      </trkpt>
      <trkpt lat="43.49065" lon="-1.47497">
        <ele>-21.39999961853</ele>
        <time>2025-08-13T12:52:37.000Z</time>
      </trkpt>
      <trkpt lat="43.49066" lon="-1.4749">
        <ele>-21.200000762939</ele>
        <time>2025-08-13T12:52:41.000Z</time>
      </trkpt>
      <trkpt lat="43.49067" lon="-1.47487">
        <ele>-21.200000762939</ele>
        <time>2025-08-13T12:52:42.000Z</time>
      </trkpt>
      <trkpt lat="43.49068" lon="-1.47486">
        <ele>-21.200000762939</ele>
        <time>2025-08-13T12:52:43.000Z</time>
      </trkpt>
      <trkpt lat="43.49069" lon="-1.47484">
        <ele>-21.200000762939</ele>
        <time>2025-08-13T12:52:45.000Z</time>
      </trkpt>
      <trkpt lat="43.49072" lon="-1.4748">
        <ele>-21.200000762939</ele>
        <time>2025-08-13T12:52:47.000Z</time>
      </trkpt>
      <trkpt lat="43.49082" lon="-1.47477">
        <ele>-21.200000762939</ele>
        <time>2025-08-13T12:52:52.000Z</time>
      </trkpt>
      <trkpt lat="43.49097" lon="-1.47481">
        <ele>-21.200000762939</ele>
        <time>2025-08-13T12:52:57.000Z</time>
      </trkpt>
      <trkpt lat="43.49111" lon="-1.47476">
        <ele>-20.799999237061</ele>
        <time>2025-08-13T12:53:02.000Z</time>
      </trkpt>
      <trkpt lat="43.49124" lon="-1.47467">
        <ele>-20.799999237061</ele>
        <time>2025-08-13T12:53:07.000Z</time>
      </trkpt>
      <trkpt lat="43.4914" lon="-1.47458">
        <ele>-21</ele>
        <time>2025-08-13T12:53:12.000Z</time>
      </trkpt>
      <trkpt lat="43.49161" lon="-1.47443">
        <ele>-21.200000762939</ele>
        <time>2025-08-13T12:53:18.000Z</time>
      </trkpt>
      <trkpt lat="43.49182" lon="-1.4743">
        <ele>-21.39999961853</ele>
        <time>2025-08-13T12:53:24.000Z</time>
      </trkpt>
      <trkpt lat="43.49202" lon="-1.47433">
        <ele>-21.39999961853</ele>
        <time>2025-08-13T12:53:30.000Z</time>
      </trkpt>
      <trkpt lat="43.49216" lon="-1.4744">
        <ele>-21</ele>
        <time>2025-08-13T12:53:36.000Z</time>
      </trkpt>
      <trkpt lat="43.4922" lon="-1.47439">
        <ele>-20.799999237061</ele>
        <time>2025-08-13T12:53:39.000Z</time>
      </trkpt>
      <trkpt lat="43.49223" lon="-1.4744">
        <ele>-20.60000038147</ele>
        <time>2025-08-13T12:53:41.000Z</time>
      </trkpt>
      <trkpt lat="43.49228" lon="-1.47442">
        <ele>-20.60000038147</ele>
        <time>2025-08-13T12:53:44.000Z</time>
      </trkpt>
      <trkpt lat="43.49234" lon="-1.47446">
        <ele>-20.39999961853</ele>
        <time>2025-08-13T12:53:47.000Z</time>
      </trkpt>
      <trkpt lat="43.49236" lon="-1.47446">
        <ele>-20.39999961853</ele>
        <time>2025-08-13T12:53:48.000Z</time>
      </trkpt>
      <trkpt lat="43.49241" lon="-1.47445">
        <ele>-20.39999961853</ele>
        <time>2025-08-13T12:53:51.000Z</time>
      </trkpt>
      <trkpt lat="43.49241" lon="-1.47443">
        <ele>-20.39999961853</ele>
        <time>2025-08-13T12:53:52.000Z</time>
      </trkpt>
      <trkpt lat="43.49241" lon="-1.4743">
        <ele>-20.39999961853</ele>
        <time>2025-08-13T12:53:56.000Z</time>
      </trkpt>
      <trkpt lat="43.49249" lon="-1.47407">
        <ele>-19.799999237061</ele>
        <time>2025-08-13T12:54:02.000Z</time>
      </trkpt>
      <trkpt lat="43.4927" lon="-1.47369">
        <ele>-19.60000038147</ele>
        <time>2025-08-13T12:54:12.000Z</time>
      </trkpt>
      <trkpt lat="43.49293" lon="-1.47357">
        <ele>-19.60000038147</ele>
        <time>2025-08-13T12:54:19.000Z</time>
      </trkpt>
      <trkpt lat="43.49295" lon="-1.47356">
        <ele>-19.39999961853</ele>
        <time>2025-08-13T12:54:20.000Z</time>
      </trkpt>
      <trkpt lat="43.493" lon="-1.47352">
        <ele>-19.39999961853</ele>
        <time>2025-08-13T12:54:22.000Z</time>
      </trkpt>
      <trkpt lat="43.49305" lon="-1.47348">
        <ele>-19.39999961853</ele>
        <time>2025-08-13T12:54:24.000Z</time>
      </trkpt>
      <trkpt lat="43.49323" lon="-1.47337">
        <ele>-19.200000762939</ele>
        <time>2025-08-13T12:54:30.000Z</time>
      </trkpt>
      <trkpt lat="43.49338" lon="-1.47322">
        <ele>-19</ele>
        <time>2025-08-13T12:54:37.000Z</time>
      </trkpt>
      <trkpt lat="43.49341" lon="-1.47318">
        <ele>-19</ele>
        <time>2025-08-13T12:54:39.000Z</time>
      </trkpt>
      <trkpt lat="43.49341" lon="-1.47317">
        <ele>-19.39999961853</ele>
        <time>2025-08-13T12:54:41.000Z</time>
      </trkpt>
      <trkpt lat="43.49341" lon="-1.47317">
        <ele>-19.39999961853</ele>
        <time>2025-08-13T12:54:42.000Z</time>
      </trkpt>
      <trkpt lat="43.4933" lon="-1.47322">
        <ele>-19</ele>
        <time>2025-08-13T12:55:44.000Z</time>
      </trkpt>
      <trkpt lat="43.49329" lon="-1.47315">
        <ele>-19.200000762939</ele>
        <time>2025-08-13T12:55:46.000Z</time>
      </trkpt>
      <trkpt lat="43.49331" lon="-1.47294">
        <ele>-19.60000038147</ele>
        <time>2025-08-13T12:55:53.000Z</time>
      </trkpt>
      <trkpt lat="43.49331" lon="-1.47292">
        <ele>-19.60000038147</ele>
        <time>2025-08-13T12:55:54.000Z</time>
      </trkpt>
      <trkpt lat="43.4933" lon="-1.47285">
        <ele>-19.60000038147</ele>
        <time>2025-08-13T12:55:57.000Z</time>
      </trkpt>
      <trkpt lat="43.4933" lon="-1.47281">
        <ele>-19.60000038147</ele>
        <time>2025-08-13T12:56:00.000Z</time>
      </trkpt>
      <trkpt lat="43.49332" lon="-1.4728">
        <ele>-19.60000038147</ele>
        <time>2025-08-13T12:56:02.000Z</time>
      </trkpt>
      <trkpt lat="43.49346" lon="-1.47273">
        <ele>-19</ele>
        <time>2025-08-13T12:56:10.000Z</time>
      </trkpt>
      <trkpt lat="43.49357" lon="-1.47258">
        <ele>-18.200000762939</ele>
        <time>2025-08-13T12:56:15.000Z</time>
      </trkpt>
      <trkpt lat="43.49373" lon="-1.47238">
        <ele>-17.39999961853</ele>
        <time>2025-08-13T12:56:22.000Z</time>
      </trkpt>
      <trkpt lat="43.4938" lon="-1.47229">
        <ele>-17.200000762939</ele>
        <time>2025-08-13T12:56:25.000Z</time>
      </trkpt>
      <trkpt lat="43.49393" lon="-1.47212">
        <ele>-16.799999237061</ele>
        <time>2025-08-13T12:56:31.000Z</time>
      </trkpt>
      <trkpt lat="43.49416" lon="-1.47183">
        <ele>-16.200000762939</ele>
        <time>2025-08-13T12:56:41.000Z</time>
      </trkpt>
      <trkpt lat="43.49421" lon="-1.47178">
        <ele>-16</ele>
        <time>2025-08-13T12:56:43.000Z</time>
      </trkpt>
      <trkpt lat="43.49436" lon="-1.47159">
        <ele>-15.60000038147</ele>
        <time>2025-08-13T12:56:50.000Z</time>
      </trkpt>
      <trkpt lat="43.49459" lon="-1.47129">
        <ele>-15.39999961853</ele>
        <time>2025-08-13T12:56:59.000Z</time>
      </trkpt>
      <trkpt lat="43.49485" lon="-1.47097">
        <ele>-15.800000190735</ele>
        <time>2025-08-13T12:57:08.000Z</time>
      </trkpt>
      <trkpt lat="43.49498" lon="-1.47081">
        <ele>-16</ele>
        <time>2025-08-13T12:57:13.000Z</time>
      </trkpt>
      <trkpt lat="43.49518" lon="-1.47055">
        <ele>-16.60000038147</ele>
        <time>2025-08-13T12:57:20.000Z</time>
      </trkpt>
      <trkpt lat="43.49522" lon="-1.47049">
        <ele>-16.799999237061</ele>
        <time>2025-08-13T12:57:22.000Z</time>
      </trkpt>
      <trkpt lat="43.49528" lon="-1.47039">
        <ele>-17.60000038147</ele>
        <time>2025-08-13T12:57:25.000Z</time>
      </trkpt>
      <trkpt lat="43.49532" lon="-1.47033">
        <ele>-18</ele>
        <time>2025-08-13T12:57:27.000Z</time>
      </trkpt>
      <trkpt lat="43.49535" lon="-1.47023">
        <ele>-18.39999961853</ele>
        <time>2025-08-13T12:57:29.000Z</time>
      </trkpt>
      <trkpt lat="43.49534" lon="-1.47017">
        <ele>-18.60000038147</ele>
        <time>2025-08-13T12:57:30.000Z</time>
      </trkpt>
      <trkpt lat="43.4953" lon="-1.47006">
        <ele>-19.200000762939</ele>
        <time>2025-08-13T12:57:32.000Z</time>
      </trkpt>
      <trkpt lat="43.49525" lon="-1.46993">
        <ele>-19.39999961853</ele>
        <time>2025-08-13T12:57:35.000Z</time>
      </trkpt>
      <trkpt lat="43.49523" lon="-1.46991">
        <ele>-19.60000038147</ele>
        <time>2025-08-13T12:57:36.000Z</time>
      </trkpt>
      <trkpt lat="43.49518" lon="-1.46991">
        <ele>-20</ele>
        <time>2025-08-13T12:57:38.000Z</time>
      </trkpt>
      <trkpt lat="43.49516" lon="-1.46994">
        <ele>-20.200000762939</ele>
        <time>2025-08-13T12:57:39.000Z</time>
      </trkpt>
      <trkpt lat="43.49512" lon="-1.46999">
        <ele>-20.200000762939</ele>
        <time>2025-08-13T12:57:41.000Z</time>
      </trkpt>
      <trkpt lat="43.4951" lon="-1.47001">
        <ele>-20.200000762939</ele>
        <time>2025-08-13T12:57:42.000Z</time>
      </trkpt>
      <trkpt lat="43.49492" lon="-1.47018">
        <ele>-20.39999961853</ele>
        <time>2025-08-13T12:57:49.000Z</time>
      </trkpt>
      <trkpt lat="43.49489" lon="-1.47024">
        <ele>-20.39999961853</ele>
        <time>2025-08-13T12:57:51.000Z</time>
      </trkpt>
      <trkpt lat="43.4949" lon="-1.47032">
        <ele>-20.39999961853</ele>
        <time>2025-08-13T12:57:53.000Z</time>
      </trkpt>
      <trkpt lat="43.49506" lon="-1.47052">
        <ele>-20.60000038147</ele>
        <time>2025-08-13T12:57:59.000Z</time>
      </trkpt>
      <trkpt lat="43.49515" lon="-1.47065">
        <ele>-20.60000038147</ele>
        <time>2025-08-13T12:58:03.000Z</time>
      </trkpt>
      <trkpt lat="43.49518" lon="-1.47069">
        <ele>-20.39999961853</ele>
        <time>2025-08-13T12:58:04.000Z</time>
      </trkpt>
      <trkpt lat="43.49528" lon="-1.47095">
        <ele>-20.39999961853</ele>
        <time>2025-08-13T12:58:10.000Z</time>
      </trkpt>
      <trkpt lat="43.4954" lon="-1.47119">
        <ele>-21</ele>
        <time>2025-08-13T12:58:17.000Z</time>
      </trkpt>
      <trkpt lat="43.49546" lon="-1.47131">
        <ele>-21.200000762939</ele>
        <time>2025-08-13T12:58:20.000Z</time>
      </trkpt>
      <trkpt lat="43.49556" lon="-1.47154">
        <ele>-21.60000038147</ele>
        <time>2025-08-13T12:58:26.000Z</time>
      </trkpt>
      <trkpt lat="43.49563" lon="-1.47181">
        <ele>-21.60000038147</ele>
        <time>2025-08-13T12:58:32.000Z</time>
      </trkpt>
      <trkpt lat="43.49573" lon="-1.47214">
        <ele>-21.60000038147</ele>
        <time>2025-08-13T12:58:39.000Z</time>
      </trkpt>
      <trkpt lat="43.49583" lon="-1.47245">
        <ele>-21.200000762939</ele>
        <time>2025-08-13T12:58:46.000Z</time>
      </trkpt>
      <trkpt lat="43.49592" lon="-1.47275">
        <ele>-21.200000762939</ele>
        <time>2025-08-13T12:58:53.000Z</time>
      </trkpt>
      <trkpt lat="43.49601" lon="-1.47306">
        <ele>-21</ele>
        <time>2025-08-13T12:59:00.000Z</time>
      </trkpt>
      <trkpt lat="43.49607" lon="-1.47328">
        <ele>-21</ele>
        <time>2025-08-13T12:59:05.000Z</time>
      </trkpt>
      <trkpt lat="43.4962" lon="-1.47375">
        <ele>-20.39999961853</ele>
        <time>2025-08-13T12:59:15.000Z</time>
      </trkpt>
      <trkpt lat="43.49631" lon="-1.47412">
        <ele>-20.200000762939</ele>
        <time>2025-08-13T12:59:23.000Z</time>
      </trkpt>
      <trkpt lat="43.49635" lon="-1.47426">
        <ele>-20.200000762939</ele>
        <time>2025-08-13T12:59:26.000Z</time>
      </trkpt>
      <trkpt lat="43.49641" lon="-1.47449">
        <ele>-20.200000762939</ele>
        <time>2025-08-13T12:59:31.000Z</time>
      </trkpt>
      <trkpt lat="43.49651" lon="-1.4749">
        <ele>-20.39999961853</ele>
        <time>2025-08-13T12:59:40.000Z</time>
      </trkpt>
      <trkpt lat="43.49662" lon="-1.47528">
        <ele>-20.200000762939</ele>
        <time>2025-08-13T12:59:49.000Z</time>
      </trkpt>
      <trkpt lat="43.49671" lon="-1.47558">
        <ele>-20</ele>
        <time>2025-08-13T12:59:56.000Z</time>
      </trkpt>
      <trkpt lat="43.49683" lon="-1.47606">
        <ele>-20.200000762939</ele>
        <time>2025-08-13T13:00:07.000Z</time>
      </trkpt>
      <trkpt lat="43.49684" lon="-1.47611">
        <ele>-20.200000762939</ele>
        <time>2025-08-13T13:00:08.000Z</time>
      </trkpt>
      <trkpt lat="43.49692" lon="-1.47647">
        <ele>-19.799999237061</ele>
        <time>2025-08-13T13:00:16.000Z</time>
      </trkpt>
      <trkpt lat="43.49701" lon="-1.47683">
        <ele>-20.200000762939</ele>
        <time>2025-08-13T13:00:24.000Z</time>
      </trkpt>
      <trkpt lat="43.49711" lon="-1.47728">
        <ele>-20.39999961853</ele>
        <time>2025-08-13T13:00:34.000Z</time>
      </trkpt>
      <trkpt lat="43.49722" lon="-1.47768">
        <ele>-20.60000038147</ele>
        <time>2025-08-13T13:00:43.000Z</time>
      </trkpt>
      <trkpt lat="43.49728" lon="-1.478">
        <ele>-20.60000038147</ele>
        <time>2025-08-13T13:00:50.000Z</time>
      </trkpt>
      <trkpt lat="43.49738" lon="-1.47837">
        <ele>-21</ele>
        <time>2025-08-13T13:00:58.000Z</time>
      </trkpt>
      <trkpt lat="43.49752" lon="-1.47878">
        <ele>-20.799999237061</ele>
        <time>2025-08-13T13:01:07.000Z</time>
      </trkpt>
      <trkpt lat="43.49767" lon="-1.47918">
        <ele>-20.39999961853</ele>
        <time>2025-08-13T13:01:16.000Z</time>
      </trkpt>
      <trkpt lat="43.49781" lon="-1.4796">
        <ele>-20.799999237061</ele>
        <time>2025-08-13T13:01:25.000Z</time>
      </trkpt>
      <trkpt lat="43.49788" lon="-1.47982">
        <ele>-21.200000762939</ele>
        <time>2025-08-13T13:01:30.000Z</time>
      </trkpt>
      <trkpt lat="43.49799" lon="-1.48009">
        <ele>-21.60000038147</ele>
        <time>2025-08-13T13:01:36.000Z</time>
      </trkpt>
      <trkpt lat="43.49811" lon="-1.48043">
        <ele>-21.60000038147</ele>
        <time>2025-08-13T13:01:43.000Z</time>
      </trkpt>
      <trkpt lat="43.49813" lon="-1.48048">
        <ele>-21.60000038147</ele>
        <time>2025-08-13T13:01:44.000Z</time>
      </trkpt>
      <trkpt lat="43.49828" lon="-1.48084">
        <ele>-21.39999961853</ele>
        <time>2025-08-13T13:01:52.000Z</time>
      </trkpt>
      <trkpt lat="43.49843" lon="-1.48119">
        <ele>-21.200000762939</ele>
        <time>2025-08-13T13:02:00.000Z</time>
      </trkpt>
      <trkpt lat="43.49861" lon="-1.48152">
        <ele>-21.200000762939</ele>
        <time>2025-08-13T13:02:08.000Z</time>
      </trkpt>
      <trkpt lat="43.49871" lon="-1.48175">
        <ele>-21.39999961853</ele>
        <time>2025-08-13T13:02:13.000Z</time>
      </trkpt>
      <trkpt lat="43.49877" lon="-1.48185">
        <ele>-21.60000038147</ele>
        <time>2025-08-13T13:02:15.000Z</time>
      </trkpt>
      <trkpt lat="43.49881" lon="-1.48196">
        <ele>-22</ele>
        <time>2025-08-13T13:02:17.000Z</time>
      </trkpt>
      <trkpt lat="43.49885" lon="-1.48205">
        <ele>-22.200000762939</ele>
        <time>2025-08-13T13:02:19.000Z</time>
      </trkpt>
      <trkpt lat="43.49889" lon="-1.48213">
        <ele>-22.39999961853</ele>
        <time>2025-08-13T13:02:21.000Z</time>
      </trkpt>
      <trkpt lat="43.49897" lon="-1.48228">
        <ele>-22.60000038147</ele>
        <time>2025-08-13T13:02:26.000Z</time>
      </trkpt>
      <trkpt lat="43.499" lon="-1.48228">
        <ele>-22.60000038147</ele>
        <time>2025-08-13T13:02:27.000Z</time>
      </trkpt>
      <trkpt lat="43.49911" lon="-1.48219">
        <ele>-22.200000762939</ele>
        <time>2025-08-13T13:02:31.000Z</time>
      </trkpt>
      <trkpt lat="43.49933" lon="-1.48207">
        <ele>-22</ele>
        <time>2025-08-13T13:02:38.000Z</time>
      </trkpt>
      <trkpt lat="43.49939" lon="-1.48205">
        <ele>-21.799999237061</ele>
        <time>2025-08-13T13:02:40.000Z</time>
      </trkpt>
      <trkpt lat="43.49942" lon="-1.48199">
        <ele>-21.799999237061</ele>
        <time>2025-08-13T13:02:42.000Z</time>
      </trkpt>
      <trkpt lat="43.49942" lon="-1.48185">
        <ele>-21.60000038147</ele>
        <time>2025-08-13T13:02:47.000Z</time>
      </trkpt>
      <trkpt lat="43.49943" lon="-1.48172">
        <ele>-21</ele>
        <time>2025-08-13T13:02:50.000Z</time>
      </trkpt>
      <trkpt lat="43.49943" lon="-1.48164">
        <ele>-20.799999237061</ele>
        <time>2025-08-13T13:02:52.000Z</time>
      </trkpt>
      <trkpt lat="43.49944" lon="-1.48137">
        <ele>-20.60000038147</ele>
        <time>2025-08-13T13:02:57.000Z</time>
      </trkpt>
      <trkpt lat="43.49954" lon="-1.4811">
        <ele>-21</ele>
        <time>2025-08-13T13:03:03.000Z</time>
      </trkpt>
      <trkpt lat="43.49966" lon="-1.48086">
        <ele>-21</ele>
        <time>2025-08-13T13:03:09.000Z</time>
      </trkpt>
      <trkpt lat="43.49971" lon="-1.48069">
        <ele>-20.39999961853</ele>
        <time>2025-08-13T13:03:14.000Z</time>
      </trkpt>
      <trkpt lat="43.49982" lon="-1.48057">
        <ele>-19.60000038147</ele>
        <time>2025-08-13T13:03:19.000Z</time>
      </trkpt>
      <trkpt lat="43.49984" lon="-1.48055">
        <ele>-19.39999961853</ele>
        <time>2025-08-13T13:03:20.000Z</time>
      </trkpt>
      <trkpt lat="43.49991" lon="-1.48045">
        <ele>-18.60000038147</ele>
        <time>2025-08-13T13:03:23.000Z</time>
      </trkpt>
      <trkpt lat="43.50003" lon="-1.48029">
        <ele>-17.799999237061</ele>
        <time>2025-08-13T13:03:28.000Z</time>
      </trkpt>
      <trkpt lat="43.50008" lon="-1.48024">
        <ele>-17.60000038147</ele>
        <time>2025-08-13T13:03:30.000Z</time>
      </trkpt>
      <trkpt lat="43.50024" lon="-1.48007">
        <ele>-16.39999961853</ele>
        <time>2025-08-13T13:03:37.000Z</time>
      </trkpt>
      <trkpt lat="43.50026" lon="-1.48005">
        <ele>-16.200000762939</ele>
        <time>2025-08-13T13:03:38.000Z</time>
      </trkpt>
      <trkpt lat="43.50045" lon="-1.47988">
        <ele>-15.39999961853</ele>
        <time>2025-08-13T13:03:46.000Z</time>
      </trkpt>
      <trkpt lat="43.50055" lon="-1.47979">
        <ele>-15</ele>
        <time>2025-08-13T13:03:50.000Z</time>
      </trkpt>
      <trkpt lat="43.50077" lon="-1.47957">
        <ele>-14.39999961853</ele>
        <time>2025-08-13T13:03:59.000Z</time>
      </trkpt>
      <trkpt lat="43.50096" lon="-1.4794">
        <ele>-14.60000038147</ele>
        <time>2025-08-13T13:04:06.000Z</time>
      </trkpt>
      <trkpt lat="43.50115" lon="-1.47925">
        <ele>-14.800000190735</ele>
        <time>2025-08-13T13:04:11.000Z</time>
      </trkpt>
      <trkpt lat="43.50136" lon="-1.4791">
        <ele>-15.199999809265</ele>
        <time>2025-08-13T13:04:16.000Z</time>
      </trkpt>
      <trkpt lat="43.50145" lon="-1.47905">
        <ele>-15.39999961853</ele>
        <time>2025-08-13T13:04:18.000Z</time>
      </trkpt>
      <trkpt lat="43.50158" lon="-1.47897">
        <ele>-15.60000038147</ele>
        <time>2025-08-13T13:04:21.000Z</time>
      </trkpt>
      <trkpt lat="43.50166" lon="-1.47894">
        <ele>-15.800000190735</ele>
        <time>2025-08-13T13:04:23.000Z</time>
      </trkpt>
      <trkpt lat="43.5017" lon="-1.47893">
        <ele>-15.800000190735</ele>
        <time>2025-08-13T13:04:24.000Z</time>
      </trkpt>
      <trkpt lat="43.50175" lon="-1.47894">
        <ele>-16</ele>
        <time>2025-08-13T13:04:26.000Z</time>
      </trkpt>
      <trkpt lat="43.50177" lon="-1.47898">
        <ele>-16</ele>
        <time>2025-08-13T13:04:27.000Z</time>
      </trkpt>
      <trkpt lat="43.50177" lon="-1.47902">
        <ele>-16</ele>
        <time>2025-08-13T13:04:28.000Z</time>
      </trkpt>
      <trkpt lat="43.50172" lon="-1.4791">
        <ele>-16</ele>
        <time>2025-08-13T13:04:30.000Z</time>
      </trkpt>
      <trkpt lat="43.50169" lon="-1.47915">
        <ele>-16.200000762939</ele>
        <time>2025-08-13T13:04:31.000Z</time>
      </trkpt>
      <trkpt lat="43.50157" lon="-1.47926">
        <ele>-16.200000762939</ele>
        <time>2025-08-13T13:04:34.000Z</time>
      </trkpt>
      <trkpt lat="43.50152" lon="-1.47929">
        <ele>-16.39999961853</ele>
        <time>2025-08-13T13:04:35.000Z</time>
      </trkpt>
      <trkpt lat="43.50146" lon="-1.47931">
        <ele>-16.60000038147</ele>
        <time>2025-08-13T13:04:36.000Z</time>
      </trkpt>
      <trkpt lat="43.50135" lon="-1.47937">
        <ele>-17</ele>
        <time>2025-08-13T13:04:38.000Z</time>
      </trkpt>
      <trkpt lat="43.5013" lon="-1.47941">
        <ele>-17.39999961853</ele>
        <time>2025-08-13T13:04:39.000Z</time>
      </trkpt>
      <trkpt lat="43.50125" lon="-1.47945">
        <ele>-17.799999237061</ele>
        <time>2025-08-13T13:04:40.000Z</time>
      </trkpt>
      <trkpt lat="43.50112" lon="-1.47961">
        <ele>-18.60000038147</ele>
        <time>2025-08-13T13:04:43.000Z</time>
      </trkpt>
      <trkpt lat="43.50108" lon="-1.47967">
        <ele>-19</ele>
        <time>2025-08-13T13:04:44.000Z</time>
      </trkpt>
      <trkpt lat="43.50101" lon="-1.47977">
        <ele>-19.799999237061</ele>
        <time>2025-08-13T13:04:46.000Z</time>
      </trkpt>
      <trkpt lat="43.50098" lon="-1.47987">
        <ele>-20.200000762939</ele>
        <time>2025-08-13T13:04:48.000Z</time>
      </trkpt>
      <trkpt lat="43.50103" lon="-1.47994">
        <ele>-20.799999237061</ele>
        <time>2025-08-13T13:04:50.000Z</time>
      </trkpt>
      <trkpt lat="43.50106" lon="-1.47998">
        <ele>-21.200000762939</ele>
        <time>2025-08-13T13:04:51.000Z</time>
      </trkpt>
      <trkpt lat="43.50126" lon="-1.48025">
        <ele>-21.799999237061</ele>
        <time>2025-08-13T13:04:58.000Z</time>
      </trkpt>
      <trkpt lat="43.50134" lon="-1.48036">
        <ele>-21.799999237061</ele>
        <time>2025-08-13T13:05:01.000Z</time>
      </trkpt>
      <trkpt lat="43.50154" lon="-1.48063">
        <ele>-22.200000762939</ele>
        <time>2025-08-13T13:05:08.000Z</time>
      </trkpt>
      <trkpt lat="43.50175" lon="-1.48089">
        <ele>-22.200000762939</ele>
        <time>2025-08-13T13:05:15.000Z</time>
      </trkpt>
      <trkpt lat="43.50187" lon="-1.48094">
        <ele>-22.200000762939</ele>
        <time>2025-08-13T13:05:19.000Z</time>
      </trkpt>
      <trkpt lat="43.50191" lon="-1.48093">
        <ele>-22</ele>
        <time>2025-08-13T13:05:23.000Z</time>
      </trkpt>
      <trkpt lat="43.50191" lon="-1.48093">
        <ele>-21.799999237061</ele>
        <time>2025-08-13T13:05:24.000Z</time>
      </trkpt>
      <trkpt lat="43.50196" lon="-1.48094">
        <ele>-21.799999237061</ele>
        <time>2025-08-13T13:05:35.000Z</time>
      </trkpt>
      <trkpt lat="43.502" lon="-1.48099">
        <ele>-21.799999237061</ele>
        <time>2025-08-13T13:05:37.000Z</time>
      </trkpt>
      <trkpt lat="43.50206" lon="-1.48121">
        <ele>-22</ele>
        <time>2025-08-13T13:05:42.000Z</time>
      </trkpt>
      <trkpt lat="43.50223" lon="-1.48148">
        <ele>-22.200000762939</ele>
        <time>2025-08-13T13:05:49.000Z</time>
      </trkpt>
      <trkpt lat="43.50248" lon="-1.48183">
        <ele>-22.200000762939</ele>
        <time>2025-08-13T13:05:58.000Z</time>
      </trkpt>
      <trkpt lat="43.50268" lon="-1.4821">
        <ele>-22.39999961853</ele>
        <time>2025-08-13T13:06:05.000Z</time>
      </trkpt>
      <trkpt lat="43.50285" lon="-1.48232">
        <ele>-22.39999961853</ele>
        <time>2025-08-13T13:06:11.000Z</time>
      </trkpt>
      <trkpt lat="43.50308" lon="-1.48266">
        <ele>-22.200000762939</ele>
        <time>2025-08-13T13:06:20.000Z</time>
      </trkpt>
      <trkpt lat="43.50327" lon="-1.4829">
        <ele>-22</ele>
        <time>2025-08-13T13:06:27.000Z</time>
      </trkpt>
      <trkpt lat="43.50339" lon="-1.48304">
        <ele>-22</ele>
        <time>2025-08-13T13:06:31.000Z</time>
      </trkpt>
      <trkpt lat="43.50355" lon="-1.48331">
        <ele>-22.200000762939</ele>
        <time>2025-08-13T13:06:37.000Z</time>
      </trkpt>
      <trkpt lat="43.50358" lon="-1.48336">
        <ele>-22.200000762939</ele>
        <time>2025-08-13T13:06:38.000Z</time>
      </trkpt>
      <trkpt lat="43.50371" lon="-1.48352">
        <ele>-22.200000762939</ele>
        <time>2025-08-13T13:06:42.000Z</time>
      </trkpt>
      <trkpt lat="43.50377" lon="-1.48359">
        <ele>-22.200000762939</ele>
        <time>2025-08-13T13:06:44.000Z</time>
      </trkpt>
      <trkpt lat="43.50388" lon="-1.48376">
        <ele>-22.200000762939</ele>
        <time>2025-08-13T13:06:48.000Z</time>
      </trkpt>
      <trkpt lat="43.5041" lon="-1.48399">
        <ele>-22.39999961853</ele>
        <time>2025-08-13T13:06:55.000Z</time>
      </trkpt>
      <trkpt lat="43.50438" lon="-1.48426">
        <ele>-22.39999961853</ele>
        <time>2025-08-13T13:07:03.000Z</time>
      </trkpt>
      <trkpt lat="43.50452" lon="-1.48441">
        <ele>-22.200000762939</ele>
        <time>2025-08-13T13:07:09.000Z</time>
      </trkpt>
      <trkpt lat="43.50466" lon="-1.48451">
        <ele>-22.200000762939</ele>
        <time>2025-08-13T13:07:14.000Z</time>
      </trkpt>
      <trkpt lat="43.50493" lon="-1.48473">
        <ele>-22.200000762939</ele>
        <time>2025-08-13T13:07:22.000Z</time>
      </trkpt>
      <trkpt lat="43.50523" lon="-1.48496">
        <ele>-22.200000762939</ele>
        <time>2025-08-13T13:07:30.000Z</time>
      </trkpt>
      <trkpt lat="43.50565" lon="-1.48523">
        <ele>-22.200000762939</ele>
        <time>2025-08-13T13:07:40.000Z</time>
      </trkpt>
      <trkpt lat="43.50599" lon="-1.4854">
        <ele>-22</ele>
        <time>2025-08-13T13:07:48.000Z</time>
      </trkpt>
      <trkpt lat="43.50611" lon="-1.48545">
        <ele>-22</ele>
        <time>2025-08-13T13:07:51.000Z</time>
      </trkpt>
      <trkpt lat="43.50622" lon="-1.48552">
        <ele>-22</ele>
        <time>2025-08-13T13:07:54.000Z</time>
      </trkpt>
      <trkpt lat="43.50653" lon="-1.48564">
        <ele>-22.200000762939</ele>
        <time>2025-08-13T13:08:02.000Z</time>
      </trkpt>
      <trkpt lat="43.50673" lon="-1.48572">
        <ele>-22.39999961853</ele>
        <time>2025-08-13T13:08:07.000Z</time>
      </trkpt>
      <trkpt lat="43.5068" lon="-1.48577">
        <ele>-22.39999961853</ele>
        <time>2025-08-13T13:08:09.000Z</time>
      </trkpt>
      <trkpt lat="43.50683" lon="-1.48579">
        <ele>-22.39999961853</ele>
        <time>2025-08-13T13:08:10.000Z</time>
      </trkpt>
      <trkpt lat="43.50691" lon="-1.48583">
        <ele>-22.39999961853</ele>
        <time>2025-08-13T13:08:12.000Z</time>
      </trkpt>
      <trkpt lat="43.50703" lon="-1.48587">
        <ele>-22</ele>
        <time>2025-08-13T13:08:15.000Z</time>
      </trkpt>
      <trkpt lat="43.50729" lon="-1.48596">
        <ele>-21.799999237061</ele>
        <time>2025-08-13T13:08:22.000Z</time>
      </trkpt>
      <trkpt lat="43.50747" lon="-1.48603">
        <ele>-21.60000038147</ele>
        <time>2025-08-13T13:08:27.000Z</time>
      </trkpt>
      <trkpt lat="43.50773" lon="-1.48617">
        <ele>-22</ele>
        <time>2025-08-13T13:08:34.000Z</time>
      </trkpt>
      <trkpt lat="43.50802" lon="-1.4863">
        <ele>-22</ele>
        <time>2025-08-13T13:08:42.000Z</time>
      </trkpt>
      <trkpt lat="43.50828" lon="-1.48639">
        <ele>-22.200000762939</ele>
        <time>2025-08-13T13:08:50.000Z</time>
      </trkpt>
      <trkpt lat="43.50845" lon="-1.48647">
        <ele>-22.200000762939</ele>
        <time>2025-08-13T13:08:56.000Z</time>
      </trkpt>
      <trkpt lat="43.50865" lon="-1.48655">
        <ele>-21.799999237061</ele>
        <time>2025-08-13T13:09:02.000Z</time>
      </trkpt>
      <trkpt lat="43.50887" lon="-1.48665">
        <ele>-21.799999237061</ele>
        <time>2025-08-13T13:09:08.000Z</time>
      </trkpt>
      <trkpt lat="43.50922" lon="-1.48679">
        <ele>-22</ele>
        <time>2025-08-13T13:09:17.000Z</time>
      </trkpt>
      <trkpt lat="43.50965" lon="-1.48694">
        <ele>-22</ele>
        <time>2025-08-13T13:09:28.000Z</time>
      </trkpt>
      <trkpt lat="43.51" lon="-1.48705">
        <ele>-22</ele>
        <time>2025-08-13T13:09:37.000Z</time>
      </trkpt>
      <trkpt lat="43.51035" lon="-1.48714">
        <ele>-21.799999237061</ele>
        <time>2025-08-13T13:09:46.000Z</time>
      </trkpt>
      <trkpt lat="43.5106" lon="-1.48716">
        <ele>-21.799999237061</ele>
        <time>2025-08-13T13:09:53.000Z</time>
      </trkpt>
      <trkpt lat="43.51077" lon="-1.48715">
        <ele>-21.799999237061</ele>
        <time>2025-08-13T13:09:58.000Z</time>
      </trkpt>
      <trkpt lat="43.5108" lon="-1.48717">
        <ele>-21.799999237061</ele>
        <time>2025-08-13T13:09:59.000Z</time>
      </trkpt>
      <trkpt lat="43.51086" lon="-1.48721">
        <ele>-22</ele>
        <time>2025-08-13T13:10:01.000Z</time>
      </trkpt>
      <trkpt lat="43.51106" lon="-1.48722">
        <ele>-22.200000762939</ele>
        <time>2025-08-13T13:10:07.000Z</time>
      </trkpt>
      <trkpt lat="43.51126" lon="-1.48718">
        <ele>-22</ele>
        <time>2025-08-13T13:10:12.000Z</time>
      </trkpt>
      <trkpt lat="43.51152" lon="-1.48713">
        <ele>-22</ele>
        <time>2025-08-13T13:10:18.000Z</time>
      </trkpt>
      <trkpt lat="43.51159" lon="-1.48713">
        <ele>-22</ele>
        <time>2025-08-13T13:10:20.000Z</time>
      </trkpt>
      <trkpt lat="43.5117" lon="-1.48713">
        <ele>-21.799999237061</ele>
        <time>2025-08-13T13:10:25.000Z</time>
      </trkpt>
      <trkpt lat="43.51184" lon="-1.48722">
        <ele>-21.799999237061</ele>
        <time>2025-08-13T13:10:30.000Z</time>
      </trkpt>
      <trkpt lat="43.51187" lon="-1.48723">
        <ele>-21.799999237061</ele>
        <time>2025-08-13T13:10:31.000Z</time>
      </trkpt>
      <trkpt lat="43.51197" lon="-1.48722">
        <ele>-22</ele>
        <time>2025-08-13T13:10:34.000Z</time>
      </trkpt>
      <trkpt lat="43.51217" lon="-1.48718">
        <ele>-22</ele>
        <time>2025-08-13T13:10:39.000Z</time>
      </trkpt>
      <trkpt lat="43.51246" lon="-1.48714">
        <ele>-21.799999237061</ele>
        <time>2025-08-13T13:10:46.000Z</time>
      </trkpt>
      <trkpt lat="43.51275" lon="-1.4871">
        <ele>-21.60000038147</ele>
        <time>2025-08-13T13:10:54.000Z</time>
      </trkpt>
      <trkpt lat="43.51304" lon="-1.48704">
        <ele>-21.799999237061</ele>
        <time>2025-08-13T13:11:02.000Z</time>
      </trkpt>
      <trkpt lat="43.51316" lon="-1.48698">
        <ele>-22</ele>
        <time>2025-08-13T13:11:06.000Z</time>
      </trkpt>
      <trkpt lat="43.51329" lon="-1.48702">
        <ele>-22</ele>
        <time>2025-08-13T13:11:10.000Z</time>
      </trkpt>
      <trkpt lat="43.51353" lon="-1.48696">
        <ele>-22</ele>
        <time>2025-08-13T13:11:16.000Z</time>
      </trkpt>
      <trkpt lat="43.5137" lon="-1.48695">
        <ele>-22</ele>
        <time>2025-08-13T13:11:21.000Z</time>
      </trkpt>
      <trkpt lat="43.51372" lon="-1.48701">
        <ele>-22.200000762939</ele>
        <time>2025-08-13T13:11:24.000Z</time>
      </trkpt>
      <trkpt lat="43.51388" lon="-1.48699">
        <ele>-22.200000762939</ele>
        <time>2025-08-13T13:11:29.000Z</time>
      </trkpt>
      <trkpt lat="43.51421" lon="-1.48693">
        <ele>-22.39999961853</ele>
        <time>2025-08-13T13:11:38.000Z</time>
      </trkpt>
      <trkpt lat="43.51444" lon="-1.48688">
        <ele>-22.200000762939</ele>
        <time>2025-08-13T13:11:44.000Z</time>
      </trkpt>
      <trkpt lat="43.51456" lon="-1.48687">
        <ele>-22</ele>
        <time>2025-08-13T13:11:47.000Z</time>
      </trkpt>
      <trkpt lat="43.51496" lon="-1.4868">
        <ele>-22</ele>
        <time>2025-08-13T13:11:57.000Z</time>
      </trkpt>
      <trkpt lat="43.51534" lon="-1.48673">
        <ele>-22</ele>
        <time>2025-08-13T13:12:06.000Z</time>
      </trkpt>
      <trkpt lat="43.51581" lon="-1.48663">
        <ele>-21.799999237061</ele>
        <time>2025-08-13T13:12:17.000Z</time>
      </trkpt>
      <trkpt lat="43.51585" lon="-1.48663">
        <ele>-22</ele>
        <time>2025-08-13T13:12:18.000Z</time>
      </trkpt>
      <trkpt lat="43.51624" lon="-1.48656">
        <ele>-21.60000038147</ele>
        <time>2025-08-13T13:12:28.000Z</time>
      </trkpt>
      <trkpt lat="43.51666" lon="-1.48652">
        <ele>-21.799999237061</ele>
        <time>2025-08-13T13:12:38.000Z</time>
      </trkpt>
      <trkpt lat="43.51702" lon="-1.48649">
        <ele>-21</ele>
        <time>2025-08-13T13:12:47.000Z</time>
      </trkpt>
      <trkpt lat="43.51736" lon="-1.48646">
        <ele>-20.60000038147</ele>
        <time>2025-08-13T13:12:55.000Z</time>
      </trkpt>
      <trkpt lat="43.5177" lon="-1.48646">
        <ele>-20.39999961853</ele>
        <time>2025-08-13T13:13:03.000Z</time>
      </trkpt>
      <trkpt lat="43.51784" lon="-1.48646">
        <ele>-20.60000038147</ele>
        <time>2025-08-13T13:13:06.000Z</time>
      </trkpt>
      <trkpt lat="43.51806" lon="-1.48647">
        <ele>-20.60000038147</ele>
        <time>2025-08-13T13:13:11.000Z</time>
      </trkpt>
      <trkpt lat="43.51844" lon="-1.48651">
        <ele>-20.799999237061</ele>
        <time>2025-08-13T13:13:20.000Z</time>
      </trkpt>
      <trkpt lat="43.51884" lon="-1.48652">
        <ele>-21.200000762939</ele>
        <time>2025-08-13T13:13:29.000Z</time>
      </trkpt>
      <trkpt lat="43.519" lon="-1.48652">
        <ele>-21.39999961853</ele>
        <time>2025-08-13T13:13:33.000Z</time>
      </trkpt>
      <trkpt lat="43.51904" lon="-1.48651">
        <ele>-21.39999961853</ele>
        <time>2025-08-13T13:13:34.000Z</time>
      </trkpt>
      <trkpt lat="43.51908" lon="-1.48648">
        <ele>-21.39999961853</ele>
        <time>2025-08-13T13:13:35.000Z</time>
      </trkpt>
      <trkpt lat="43.51914" lon="-1.48644">
        <ele>-21.60000038147</ele>
        <time>2025-08-13T13:13:37.000Z</time>
      </trkpt>
      <trkpt lat="43.51926" lon="-1.48646">
        <ele>-21.60000038147</ele>
        <time>2025-08-13T13:13:40.000Z</time>
      </trkpt>
      <trkpt lat="43.51935" lon="-1.48649">
        <ele>-21.799999237061</ele>
        <time>2025-08-13T13:13:42.000Z</time>
      </trkpt>
      <trkpt lat="43.5194" lon="-1.4865">
        <ele>-21.799999237061</ele>
        <time>2025-08-13T13:13:43.000Z</time>
      </trkpt>
      <trkpt lat="43.51959" lon="-1.48661">
        <ele>-21.799999237061</ele>
        <time>2025-08-13T13:13:48.000Z</time>
      </trkpt>
      <trkpt lat="43.51963" lon="-1.48663">
        <ele>-21.799999237061</ele>
        <time>2025-08-13T13:13:49.000Z</time>
      </trkpt>
      <trkpt lat="43.51982" lon="-1.48674">
        <ele>-21.60000038147</ele>
        <time>2025-08-13T13:13:54.000Z</time>
      </trkpt>
      <trkpt lat="43.52004" lon="-1.48688">
        <ele>-21.200000762939</ele>
        <time>2025-08-13T13:14:01.000Z</time>
      </trkpt>
      <trkpt lat="43.52036" lon="-1.48708">
        <ele>-21.200000762939</ele>
        <time>2025-08-13T13:14:10.000Z</time>
      </trkpt>
      <trkpt lat="43.52055" lon="-1.48719">
        <ele>-21.200000762939</ele>
        <time>2025-08-13T13:14:15.000Z</time>
      </trkpt>
      <trkpt lat="43.52059" lon="-1.48722">
        <ele>-21.200000762939</ele>
        <time>2025-08-13T13:14:16.000Z</time>
      </trkpt>
      <trkpt lat="43.52082" lon="-1.48736">
        <ele>-21.200000762939</ele>
        <time>2025-08-13T13:14:23.000Z</time>
      </trkpt>
      <trkpt lat="43.52112" lon="-1.48751">
        <ele>-20.799999237061</ele>
        <time>2025-08-13T13:14:31.000Z</time>
      </trkpt>
      <trkpt lat="43.52129" lon="-1.48761">
        <ele>-21</ele>
        <time>2025-08-13T13:14:37.000Z</time>
      </trkpt>
      <trkpt lat="43.52144" lon="-1.48773">
        <ele>-21</ele>
        <time>2025-08-13T13:14:42.000Z</time>
      </trkpt>
      <trkpt lat="43.52159" lon="-1.48799">
        <ele>-21</ele>
        <time>2025-08-13T13:14:49.000Z</time>
      </trkpt>
      <trkpt lat="43.52169" lon="-1.4882">
        <ele>-21</ele>
        <time>2025-08-13T13:14:55.000Z</time>
      </trkpt>
      <trkpt lat="43.52181" lon="-1.48844">
        <ele>-20.799999237061</ele>
        <time>2025-08-13T13:15:01.000Z</time>
      </trkpt>
      <trkpt lat="43.52199" lon="-1.48882">
        <ele>-20.60000038147</ele>
        <time>2025-08-13T13:15:10.000Z</time>
      </trkpt>
      <trkpt lat="43.52211" lon="-1.48894">
        <ele>-20.60000038147</ele>
        <time>2025-08-13T13:15:15.000Z</time>
      </trkpt>
      <trkpt lat="43.52228" lon="-1.4891">
        <ele>-20.39999961853</ele>
        <time>2025-08-13T13:15:21.000Z</time>
      </trkpt>
      <trkpt lat="43.52254" lon="-1.48924">
        <ele>-20.799999237061</ele>
        <time>2025-08-13T13:15:29.000Z</time>
      </trkpt>
      <trkpt lat="43.52279" lon="-1.48936">
        <ele>-20.799999237061</ele>
        <time>2025-08-13T13:15:37.000Z</time>
      </trkpt>
      <trkpt lat="43.52306" lon="-1.48964">
        <ele>-20.39999961853</ele>
        <time>2025-08-13T13:15:46.000Z</time>
      </trkpt>
      <trkpt lat="43.52333" lon="-1.48991">
        <ele>-20.39999961853</ele>
        <time>2025-08-13T13:15:54.000Z</time>
      </trkpt>
      <trkpt lat="43.52337" lon="-1.48993">
        <ele>-20.39999961853</ele>
        <time>2025-08-13T13:15:55.000Z</time>
      </trkpt>
      <trkpt lat="43.52346" lon="-1.49002">
        <ele>-20.200000762939</ele>
        <time>2025-08-13T13:15:58.000Z</time>
      </trkpt>
      <trkpt lat="43.52353" lon="-1.49013">
        <ele>-20.39999961853</ele>
        <time>2025-08-13T13:16:01.000Z</time>
      </trkpt>
      <trkpt lat="43.52364" lon="-1.4903">
        <ele>-20.60000038147</ele>
        <time>2025-08-13T13:16:07.000Z</time>
      </trkpt>
      <trkpt lat="43.52366" lon="-1.49043">
        <ele>-20.60000038147</ele>
        <time>2025-08-13T13:16:11.000Z</time>
      </trkpt>
      <trkpt lat="43.52366" lon="-1.49051">
        <ele>-20.60000038147</ele>
        <time>2025-08-13T13:16:13.000Z</time>
      </trkpt>
      <trkpt lat="43.52371" lon="-1.49063">
        <ele>-20.60000038147</ele>
        <time>2025-08-13T13:16:16.000Z</time>
      </trkpt>
      <trkpt lat="43.52385" lon="-1.49084">
        <ele>-20.799999237061</ele>
        <time>2025-08-13T13:16:23.000Z</time>
      </trkpt>
      <trkpt lat="43.52387" lon="-1.49088">
        <ele>-20.799999237061</ele>
        <time>2025-08-13T13:16:26.000Z</time>
      </trkpt>
      <trkpt lat="43.52392" lon="-1.49088">
        <ele>-20.799999237061</ele>
        <time>2025-08-13T13:16:28.000Z</time>
      </trkpt>
      <trkpt lat="43.52394" lon="-1.49089">
        <ele>-21</ele>
        <time>2025-08-13T13:16:29.000Z</time>
      </trkpt>
      <trkpt lat="43.52401" lon="-1.49096">
        <ele>-21.200000762939</ele>
        <time>2025-08-13T13:16:32.000Z</time>
      </trkpt>
      <trkpt lat="43.52418" lon="-1.4911">
        <ele>-21</ele>
        <time>2025-08-13T13:16:38.000Z</time>
      </trkpt>
      <trkpt lat="43.52447" lon="-1.49123">
        <ele>-21</ele>
        <time>2025-08-13T13:16:47.000Z</time>
      </trkpt>
      <trkpt lat="43.52473" lon="-1.49139">
        <ele>-21.39999961853</ele>
        <time>2025-08-13T13:16:54.000Z</time>
      </trkpt>
      <trkpt lat="43.52484" lon="-1.49147">
        <ele>-21</ele>
        <time>2025-08-13T13:16:57.000Z</time>
      </trkpt>
      <trkpt lat="43.52496" lon="-1.49153">
        <ele>-21</ele>
        <time>2025-08-13T13:17:00.000Z</time>
      </trkpt>
      <trkpt lat="43.52507" lon="-1.49154">
        <ele>-21.39999961853</ele>
        <time>2025-08-13T13:17:03.000Z</time>
      </trkpt>
      <trkpt lat="43.52514" lon="-1.49152">
        <ele>-21.39999961853</ele>
        <time>2025-08-13T13:17:05.000Z</time>
      </trkpt>
      <trkpt lat="43.52535" lon="-1.49137">
        <ele>-21.39999961853</ele>
        <time>2025-08-13T13:17:12.000Z</time>
      </trkpt>
      <trkpt lat="43.52554" lon="-1.49127">
        <ele>-21.200000762939</ele>
        <time>2025-08-13T13:17:19.000Z</time>
      </trkpt>
      <trkpt lat="43.5258" lon="-1.49119">
        <ele>-21</ele>
        <time>2025-08-13T13:17:27.000Z</time>
      </trkpt>
      <trkpt lat="43.52601" lon="-1.49116">
        <ele>-21.200000762939</ele>
        <time>2025-08-13T13:17:34.000Z</time>
      </trkpt>
      <trkpt lat="43.52617" lon="-1.49112">
        <ele>-21.39999961853</ele>
        <time>2025-08-13T13:17:40.000Z</time>
      </trkpt>
      <trkpt lat="43.5264" lon="-1.49107">
        <ele>-21.39999961853</ele>
        <time>2025-08-13T13:17:47.000Z</time>
      </trkpt>
      <trkpt lat="43.5266" lon="-1.49102">
        <ele>-20.799999237061</ele>
        <time>2025-08-13T13:17:53.000Z</time>
      </trkpt>
      <trkpt lat="43.52682" lon="-1.49096">
        <ele>-21</ele>
        <time>2025-08-13T13:17:59.000Z</time>
      </trkpt>
      <trkpt lat="43.52705" lon="-1.49087">
        <ele>-21</ele>
        <time>2025-08-13T13:18:06.000Z</time>
      </trkpt>
      <trkpt lat="43.52724" lon="-1.4909">
        <ele>-21</ele>
        <time>2025-08-13T13:18:13.000Z</time>
      </trkpt>
      <trkpt lat="43.52752" lon="-1.49099">
        <ele>-20.39999961853</ele>
        <time>2025-08-13T13:18:21.000Z</time>
      </trkpt>
      <trkpt lat="43.52785" lon="-1.49103">
        <ele>-20.200000762939</ele>
        <time>2025-08-13T13:18:31.000Z</time>
      </trkpt>
      <trkpt lat="43.52794" lon="-1.49104">
        <ele>-19.799999237061</ele>
        <time>2025-08-13T13:18:34.000Z</time>
      </trkpt>
      <trkpt lat="43.52801" lon="-1.49104">
        <ele>-19.39999961853</ele>
        <time>2025-08-13T13:18:37.000Z</time>
      </trkpt>
      <trkpt lat="43.52805" lon="-1.49104">
        <ele>-19.39999961853</ele>
        <time>2025-08-13T13:18:40.000Z</time>
      </trkpt>
      <trkpt lat="43.52809" lon="-1.4911">
        <ele>-19.200000762939</ele>
        <time>2025-08-13T13:18:42.000Z</time>
      </trkpt>
      <trkpt lat="43.52813" lon="-1.49135">
        <ele>-19.200000762939</ele>
        <time>2025-08-13T13:18:47.000Z</time>
      </trkpt>
      <trkpt lat="43.5282" lon="-1.49183">
        <ele>-20</ele>
        <time>2025-08-13T13:18:56.000Z</time>
      </trkpt>
      <trkpt lat="43.52827" lon="-1.49201">
        <ele>-20</ele>
        <time>2025-08-13T13:19:00.000Z</time>
      </trkpt>
      <trkpt lat="43.5285" lon="-1.49198">
        <ele>-20.39999961853</ele>
        <time>2025-08-13T13:19:06.000Z</time>
      </trkpt>
      <trkpt lat="43.52875" lon="-1.49194">
        <ele>-20.799999237061</ele>
        <time>2025-08-13T13:19:12.000Z</time>
      </trkpt>
      <trkpt lat="43.52894" lon="-1.49193">
        <ele>-20.799999237061</ele>
        <time>2025-08-13T13:19:17.000Z</time>
      </trkpt>
      <trkpt lat="43.52902" lon="-1.49195">
        <ele>-20.799999237061</ele>
        <time>2025-08-13T13:19:19.000Z</time>
      </trkpt>
      <trkpt lat="43.52933" lon="-1.49204">
        <ele>-21</ele>
        <time>2025-08-13T13:19:26.000Z</time>
      </trkpt>
      <trkpt lat="43.52973" lon="-1.49214">
        <ele>-20.799999237061</ele>
        <time>2025-08-13T13:19:35.000Z</time>
      </trkpt>
      <trkpt lat="43.53007" lon="-1.49215">
        <ele>-20.39999961853</ele>
        <time>2025-08-13T13:19:43.000Z</time>
      </trkpt>
      <trkpt lat="43.53018" lon="-1.49211">
        <ele>-20.39999961853</ele>
        <time>2025-08-13T13:19:46.000Z</time>
      </trkpt>
      <trkpt lat="43.53033" lon="-1.49208">
        <ele>-20.39999961853</ele>
        <time>2025-08-13T13:19:50.000Z</time>
      </trkpt>
      <trkpt lat="43.53056" lon="-1.49194">
        <ele>-20.39999961853</ele>
        <time>2025-08-13T13:19:57.000Z</time>
      </trkpt>
      <trkpt lat="43.5307" lon="-1.49165">
        <ele>-19.60000038147</ele>
        <time>2025-08-13T13:20:03.000Z</time>
      </trkpt>
      <trkpt lat="43.53073" lon="-1.4916">
        <ele>-19.39999961853</ele>
        <time>2025-08-13T13:20:04.000Z</time>
      </trkpt>
      <trkpt lat="43.53085" lon="-1.49138">
        <ele>-18.799999237061</ele>
        <time>2025-08-13T13:20:09.000Z</time>
      </trkpt>
      <trkpt lat="43.53088" lon="-1.49135">
        <ele>-18.60000038147</ele>
        <time>2025-08-13T13:20:10.000Z</time>
      </trkpt>
      <trkpt lat="43.53092" lon="-1.49133">
        <ele>-18.39999961853</ele>
        <time>2025-08-13T13:20:11.000Z</time>
      </trkpt>
      <trkpt lat="43.531" lon="-1.49132">
        <ele>-18</ele>
        <time>2025-08-13T13:20:13.000Z</time>
      </trkpt>
      <trkpt lat="43.53104" lon="-1.49132">
        <ele>-18</ele>
        <time>2025-08-13T13:20:14.000Z</time>
      </trkpt>
      <trkpt lat="43.53116" lon="-1.49135">
        <ele>-17.39999961853</ele>
        <time>2025-08-13T13:20:18.000Z</time>
      </trkpt>
      <trkpt lat="43.5312" lon="-1.49135">
        <ele>-17.39999961853</ele>
        <time>2025-08-13T13:20:19.000Z</time>
      </trkpt>
      <trkpt lat="43.53131" lon="-1.49141">
        <ele>-16.39999961853</ele>
        <time>2025-08-13T13:20:24.000Z</time>
      </trkpt>
      <trkpt lat="43.53142" lon="-1.49163">
        <ele>-15.60000038147</ele>
        <time>2025-08-13T13:20:31.000Z</time>
      </trkpt>
      <trkpt lat="43.53144" lon="-1.49169">
        <ele>-15.39999961853</ele>
        <time>2025-08-13T13:20:33.000Z</time>
      </trkpt>
      <trkpt lat="43.53148" lon="-1.49185">
        <ele>-14.60000038147</ele>
        <time>2025-08-13T13:20:38.000Z</time>
      </trkpt>
      <trkpt lat="43.53151" lon="-1.49194">
        <ele>-14.199999809265</ele>
        <time>2025-08-13T13:20:40.000Z</time>
      </trkpt>
      <trkpt lat="43.53157" lon="-1.49213">
        <ele>-14.199999809265</ele>
        <time>2025-08-13T13:20:43.000Z</time>
      </trkpt>
      <trkpt lat="43.53165" lon="-1.49224">
        <ele>-14.199999809265</ele>
        <time>2025-08-13T13:20:45.000Z</time>
      </trkpt>
      <trkpt lat="43.5317" lon="-1.49226">
        <ele>-14.199999809265</ele>
        <time>2025-08-13T13:20:46.000Z</time>
      </trkpt>
      <trkpt lat="43.53176" lon="-1.49227">
        <ele>-14.60000038147</ele>
        <time>2025-08-13T13:20:47.000Z</time>
      </trkpt>
      <trkpt lat="43.53196" lon="-1.4923">
        <ele>-15.199999809265</ele>
        <time>2025-08-13T13:20:50.000Z</time>
      </trkpt>
      <trkpt lat="43.53202" lon="-1.4923">
        <ele>-15.39999961853</ele>
        <time>2025-08-13T13:20:51.000Z</time>
      </trkpt>
      <trkpt lat="43.53224" lon="-1.49232">
        <ele>-16.200000762939</ele>
        <time>2025-08-13T13:20:55.000Z</time>
      </trkpt>
      <trkpt lat="43.5323" lon="-1.49232">
        <ele>-16.39999961853</ele>
        <time>2025-08-13T13:20:56.000Z</time>
      </trkpt>
      <trkpt lat="43.53234" lon="-1.49232">
        <ele>-16.39999961853</ele>
        <time>2025-08-13T13:20:57.000Z</time>
      </trkpt>
      <trkpt lat="43.53244" lon="-1.49233">
        <ele>-16.60000038147</ele>
        <time>2025-08-13T13:20:59.000Z</time>
      </trkpt>
      <trkpt lat="43.53251" lon="-1.49238">
        <ele>-17</ele>
        <time>2025-08-13T13:21:01.000Z</time>
      </trkpt>
      <trkpt lat="43.5326" lon="-1.49253">
        <ele>-17.39999961853</ele>
        <time>2025-08-13T13:21:05.000Z</time>
      </trkpt>
      <trkpt lat="43.53264" lon="-1.49261">
        <ele>-17.39999961853</ele>
        <time>2025-08-13T13:21:07.000Z</time>
      </trkpt>
      <trkpt lat="43.53278" lon="-1.49276">
        <ele>-17.60000038147</ele>
        <time>2025-08-13T13:21:12.000Z</time>
      </trkpt>
      <trkpt lat="43.53292" lon="-1.49269">
        <ele>-17.799999237061</ele>
        <time>2025-08-13T13:21:16.000Z</time>
      </trkpt>
      <trkpt lat="43.53311" lon="-1.49246">
        <ele>-18.200000762939</ele>
        <time>2025-08-13T13:21:21.000Z</time>
      </trkpt>
      <trkpt lat="43.53315" lon="-1.4924">
        <ele>-18.39999961853</ele>
        <time>2025-08-13T13:21:22.000Z</time>
      </trkpt>
      <trkpt lat="43.53319" lon="-1.49234">
        <ele>-18.60000038147</ele>
        <time>2025-08-13T13:21:23.000Z</time>
      </trkpt>
      <trkpt lat="43.53333" lon="-1.49219">
        <ele>-19</ele>
        <time>2025-08-13T13:21:26.000Z</time>
      </trkpt>
      <trkpt lat="43.53353" lon="-1.492">
        <ele>-19.39999961853</ele>
        <time>2025-08-13T13:21:30.000Z</time>
      </trkpt>
      <trkpt lat="43.53372" lon="-1.49182">
        <ele>-19.799999237061</ele>
        <time>2025-08-13T13:21:34.000Z</time>
      </trkpt>
      <trkpt lat="43.53405" lon="-1.49151">
        <ele>-20</ele>
        <time>2025-08-13T13:21:41.000Z</time>
      </trkpt>
      <trkpt lat="43.53438" lon="-1.49118">
        <ele>-20</ele>
        <time>2025-08-13T13:21:49.000Z</time>
      </trkpt>
      <trkpt lat="43.53483" lon="-1.49077">
        <ele>-20.39999961853</ele>
        <time>2025-08-13T13:22:00.000Z</time>
      </trkpt>
      <trkpt lat="43.53487" lon="-1.49074">
        <ele>-20.39999961853</ele>
        <time>2025-08-13T13:22:01.000Z</time>
      </trkpt>
      <trkpt lat="43.53511" lon="-1.49051">
        <ele>-20.39999961853</ele>
        <time>2025-08-13T13:22:07.000Z</time>
      </trkpt>
      <trkpt lat="43.53526" lon="-1.49036">
        <ele>-20.39999961853</ele>
        <time>2025-08-13T13:22:11.000Z</time>
      </trkpt>
      <trkpt lat="43.53562" lon="-1.49003">
        <ele>-20.39999961853</ele>
        <time>2025-08-13T13:22:20.000Z</time>
      </trkpt>
      <trkpt lat="43.53571" lon="-1.48996">
        <ele>-20.39999961853</ele>
        <time>2025-08-13T13:22:22.000Z</time>
      </trkpt>
      <trkpt lat="43.53578" lon="-1.48987">
        <ele>-20.39999961853</ele>
        <time>2025-08-13T13:22:24.000Z</time>
      </trkpt>
      <trkpt lat="43.53581" lon="-1.48983">
        <ele>-20.39999961853</ele>
        <time>2025-08-13T13:22:25.000Z</time>
      </trkpt>
      <trkpt lat="43.53584" lon="-1.4898">
        <ele>-20.39999961853</ele>
        <time>2025-08-13T13:22:26.000Z</time>
      </trkpt>
      <trkpt lat="43.53592" lon="-1.48978">
        <ele>-20.39999961853</ele>
        <time>2025-08-13T13:22:28.000Z</time>
      </trkpt>
      <trkpt lat="43.536" lon="-1.48978">
        <ele>-20.39999961853</ele>
        <time>2025-08-13T13:22:30.000Z</time>
      </trkpt>
      <trkpt lat="43.53609" lon="-1.48975">
        <ele>-20.39999961853</ele>
        <time>2025-08-13T13:22:32.000Z</time>
      </trkpt>
      <trkpt lat="43.53613" lon="-1.48972">
        <ele>-20.39999961853</ele>
        <time>2025-08-13T13:22:33.000Z</time>
      </trkpt>
      <trkpt lat="43.53642" lon="-1.48945">
        <ele>-20.39999961853</ele>
        <time>2025-08-13T13:22:41.000Z</time>
      </trkpt>
      <trkpt lat="43.53649" lon="-1.4894">
        <ele>-20.39999961853</ele>
        <time>2025-08-13T13:22:43.000Z</time>
      </trkpt>
      <trkpt lat="43.53653" lon="-1.4894">
        <ele>-20.39999961853</ele>
        <time>2025-08-13T13:22:44.000Z</time>
      </trkpt>
      <trkpt lat="43.53658" lon="-1.48946">
        <ele>-20.200000762939</ele>
        <time>2025-08-13T13:22:46.000Z</time>
      </trkpt>
      <trkpt lat="43.53679" lon="-1.48986">
        <ele>-19.60000038147</ele>
        <time>2025-08-13T13:22:54.000Z</time>
      </trkpt>
      <trkpt lat="43.53691" lon="-1.4901">
        <ele>-19.60000038147</ele>
        <time>2025-08-13T13:22:59.000Z</time>
      </trkpt>
      <trkpt lat="43.53695" lon="-1.49018">
        <ele>-19.39999961853</ele>
        <time>2025-08-13T13:23:01.000Z</time>
      </trkpt>
      <trkpt lat="43.53713" lon="-1.49031">
        <ele>-19.200000762939</ele>
        <time>2025-08-13T13:23:06.000Z</time>
      </trkpt>
      <trkpt lat="43.53717" lon="-1.49031">
        <ele>-19.200000762939</ele>
        <time>2025-08-13T13:23:07.000Z</time>
      </trkpt>
      <trkpt lat="43.53726" lon="-1.49025">
        <ele>-19.200000762939</ele>
        <time>2025-08-13T13:23:09.000Z</time>
      </trkpt>
      <trkpt lat="43.53753" lon="-1.49001">
        <ele>-19.200000762939</ele>
        <time>2025-08-13T13:23:16.000Z</time>
      </trkpt>
      <trkpt lat="43.53788" lon="-1.48965">
        <ele>-19</ele>
        <time>2025-08-13T13:23:24.000Z</time>
      </trkpt>
      <trkpt lat="43.53821" lon="-1.48934">
        <ele>-19.200000762939</ele>
        <time>2025-08-13T13:23:32.000Z</time>
      </trkpt>
      <trkpt lat="43.53862" lon="-1.48894">
        <ele>-19.39999961853</ele>
        <time>2025-08-13T13:23:42.000Z</time>
      </trkpt>
      <trkpt lat="43.53874" lon="-1.4888">
        <ele>-19.200000762939</ele>
        <time>2025-08-13T13:23:45.000Z</time>
      </trkpt>
      <trkpt lat="43.53882" lon="-1.48872">
        <ele>-19.200000762939</ele>
        <time>2025-08-13T13:23:47.000Z</time>
      </trkpt>
      <trkpt lat="43.53922" lon="-1.48838">
        <ele>-19.200000762939</ele>
        <time>2025-08-13T13:23:56.000Z</time>
      </trkpt>
      <trkpt lat="43.5393" lon="-1.4883">
        <ele>-19.200000762939</ele>
        <time>2025-08-13T13:23:58.000Z</time>
      </trkpt>
      <trkpt lat="43.53936" lon="-1.48821">
        <ele>-19.39999961853</ele>
        <time>2025-08-13T13:24:00.000Z</time>
      </trkpt>
      <trkpt lat="43.53938" lon="-1.48814">
        <ele>-19.39999961853</ele>
        <time>2025-08-13T13:24:01.000Z</time>
      </trkpt>
      <trkpt lat="43.53938" lon="-1.48808">
        <ele>-19.60000038147</ele>
        <time>2025-08-13T13:24:02.000Z</time>
      </trkpt>
      <trkpt lat="43.53935" lon="-1.48796">
        <ele>-19.60000038147</ele>
        <time>2025-08-13T13:24:04.000Z</time>
      </trkpt>
      <trkpt lat="43.5392" lon="-1.48766">
        <ele>-19.799999237061</ele>
        <time>2025-08-13T13:24:10.000Z</time>
      </trkpt>
      <trkpt lat="43.53914" lon="-1.48758">
        <ele>-19.799999237061</ele>
        <time>2025-08-13T13:24:12.000Z</time>
      </trkpt>
      <trkpt lat="43.53905" lon="-1.48744">
        <ele>-19.799999237061</ele>
        <time>2025-08-13T13:24:16.000Z</time>
      </trkpt>
      <trkpt lat="43.53895" lon="-1.48719">
        <ele>-19.799999237061</ele>
        <time>2025-08-13T13:24:21.000Z</time>
      </trkpt>
      <trkpt lat="43.53883" lon="-1.48692">
        <ele>-19.799999237061</ele>
        <time>2025-08-13T13:24:26.000Z</time>
      </trkpt>
      <trkpt lat="43.53878" lon="-1.48683">
        <ele>-19.799999237061</ele>
        <time>2025-08-13T13:24:28.000Z</time>
      </trkpt>
      <trkpt lat="43.53864" lon="-1.48656">
        <ele>-19.39999961853</ele>
        <time>2025-08-13T13:24:34.000Z</time>
      </trkpt>
      <trkpt lat="43.5386" lon="-1.48647">
        <ele>-19.39999961853</ele>
        <time>2025-08-13T13:24:36.000Z</time>
      </trkpt>
      <trkpt lat="43.53859" lon="-1.48641">
        <ele>-19.39999961853</ele>
        <time>2025-08-13T13:24:38.000Z</time>
      </trkpt>
      <trkpt lat="43.5386" lon="-1.48637">
        <ele>-19.39999961853</ele>
        <time>2025-08-13T13:24:39.000Z</time>
      </trkpt>
      <trkpt lat="43.53872" lon="-1.48624">
        <ele>-19.39999961853</ele>
        <time>2025-08-13T13:24:43.000Z</time>
      </trkpt>
      <trkpt lat="43.53896" lon="-1.48601">
        <ele>-19.39999961853</ele>
        <time>2025-08-13T13:24:49.000Z</time>
      </trkpt>
      <trkpt lat="43.53936" lon="-1.48563">
        <ele>-19.60000038147</ele>
        <time>2025-08-13T13:24:58.000Z</time>
      </trkpt>
      <trkpt lat="43.53977" lon="-1.48524">
        <ele>-19.39999961853</ele>
        <time>2025-08-13T13:25:07.000Z</time>
      </trkpt>
      <trkpt lat="43.54019" lon="-1.48482">
        <ele>-19.200000762939</ele>
        <time>2025-08-13T13:25:17.000Z</time>
      </trkpt>
      <trkpt lat="43.54066" lon="-1.48437">
        <ele>-19.200000762939</ele>
        <time>2025-08-13T13:25:28.000Z</time>
      </trkpt>
      <trkpt lat="43.54077" lon="-1.48423">
        <ele>-19</ele>
        <time>2025-08-13T13:25:31.000Z</time>
      </trkpt>
      <trkpt lat="43.54086" lon="-1.48411">
        <ele>-18.799999237061</ele>
        <time>2025-08-13T13:25:34.000Z</time>
      </trkpt>
      <trkpt lat="43.54114" lon="-1.48395">
        <ele>-18.799999237061</ele>
        <time>2025-08-13T13:25:40.000Z</time>
      </trkpt>
      <trkpt lat="43.54119" lon="-1.48394">
        <ele>-18.799999237061</ele>
        <time>2025-08-13T13:25:41.000Z</time>
      </trkpt>
      <trkpt lat="43.54152" lon="-1.48394">
        <ele>-19.200000762939</ele>
        <time>2025-08-13T13:25:48.000Z</time>
      </trkpt>
      <trkpt lat="43.54196" lon="-1.48397">
        <ele>-18.799999237061</ele>
        <time>2025-08-13T13:25:57.000Z</time>
      </trkpt>
      <trkpt lat="43.54225" lon="-1.48397">
        <ele>-18.60000038147</ele>
        <time>2025-08-13T13:26:03.000Z</time>
      </trkpt>
      <trkpt lat="43.54234" lon="-1.484">
        <ele>-18.60000038147</ele>
        <time>2025-08-13T13:26:05.000Z</time>
      </trkpt>
      <trkpt lat="43.54256" lon="-1.48417">
        <ele>-18.39999961853</ele>
        <time>2025-08-13T13:26:11.000Z</time>
      </trkpt>
      <trkpt lat="43.54259" lon="-1.4842">
        <ele>-18.200000762939</ele>
        <time>2025-08-13T13:26:12.000Z</time>
      </trkpt>
      <trkpt lat="43.54289" lon="-1.48442">
        <ele>-17.39999961853</ele>
        <time>2025-08-13T13:26:20.000Z</time>
      </trkpt>
      <trkpt lat="43.54296" lon="-1.48449">
        <ele>-17.39999961853</ele>
        <time>2025-08-13T13:26:22.000Z</time>
      </trkpt>
      <trkpt lat="43.54333" lon="-1.4848">
        <ele>-17.200000762939</ele>
        <time>2025-08-13T13:26:32.000Z</time>
      </trkpt>
      <trkpt lat="43.5434" lon="-1.48486">
        <ele>-17.200000762939</ele>
        <time>2025-08-13T13:26:34.000Z</time>
      </trkpt>
      <trkpt lat="43.54358" lon="-1.48501">
        <ele>-17.39999961853</ele>
        <time>2025-08-13T13:26:39.000Z</time>
      </trkpt>
      <trkpt lat="43.54369" lon="-1.48509">
        <ele>-17.799999237061</ele>
        <time>2025-08-13T13:26:42.000Z</time>
      </trkpt>
      <trkpt lat="43.54385" lon="-1.48521">
        <ele>-18</ele>
        <time>2025-08-13T13:26:46.000Z</time>
      </trkpt>
      <trkpt lat="43.54415" lon="-1.48546">
        <ele>-18.200000762939</ele>
        <time>2025-08-13T13:26:53.000Z</time>
      </trkpt>
      <trkpt lat="43.5444" lon="-1.48565">
        <ele>-18.39999961853</ele>
        <time>2025-08-13T13:26:58.000Z</time>
      </trkpt>
      <trkpt lat="43.54445" lon="-1.48569">
        <ele>-18.60000038147</ele>
        <time>2025-08-13T13:26:59.000Z</time>
      </trkpt>
      <trkpt lat="43.54486" lon="-1.48604">
        <ele>-18.60000038147</ele>
        <time>2025-08-13T13:27:08.000Z</time>
      </trkpt>
      <trkpt lat="43.5451" lon="-1.48623">
        <ele>-18.39999961853</ele>
        <time>2025-08-13T13:27:14.000Z</time>
      </trkpt>
      <trkpt lat="43.54535" lon="-1.48643">
        <ele>-18</ele>
        <time>2025-08-13T13:27:21.000Z</time>
      </trkpt>
      <trkpt lat="43.54549" lon="-1.48654">
        <ele>-18</ele>
        <time>2025-08-13T13:27:25.000Z</time>
      </trkpt>
      <trkpt lat="43.54562" lon="-1.48666">
        <ele>-18</ele>
        <time>2025-08-13T13:27:29.000Z</time>
      </trkpt>
      <trkpt lat="43.54594" lon="-1.4869">
        <ele>-18.200000762939</ele>
        <time>2025-08-13T13:27:38.000Z</time>
      </trkpt>
      <trkpt lat="43.54627" lon="-1.48719">
        <ele>-18.200000762939</ele>
        <time>2025-08-13T13:27:47.000Z</time>
      </trkpt>
      <trkpt lat="43.54633" lon="-1.48723">
        <ele>-18.200000762939</ele>
        <time>2025-08-13T13:27:49.000Z</time>
      </trkpt>
      <trkpt lat="43.54641" lon="-1.48728">
        <ele>-18.200000762939</ele>
        <time>2025-08-13T13:27:51.000Z</time>
      </trkpt>
      <trkpt lat="43.54648" lon="-1.48734">
        <ele>-18.39999961853</ele>
        <time>2025-08-13T13:27:53.000Z</time>
      </trkpt>
      <trkpt lat="43.54671" lon="-1.48753">
        <ele>-18.60000038147</ele>
        <time>2025-08-13T13:28:00.000Z</time>
      </trkpt>
      <trkpt lat="43.54701" lon="-1.48777">
        <ele>-18.60000038147</ele>
        <time>2025-08-13T13:28:09.000Z</time>
      </trkpt>
      <trkpt lat="43.54733" lon="-1.48801">
        <ele>-18.60000038147</ele>
        <time>2025-08-13T13:28:17.000Z</time>
      </trkpt>
      <trkpt lat="43.5476" lon="-1.48823">
        <ele>-18.39999961853</ele>
        <time>2025-08-13T13:28:24.000Z</time>
      </trkpt>
      <trkpt lat="43.54768" lon="-1.4883">
        <ele>-18.39999961853</ele>
        <time>2025-08-13T13:28:26.000Z</time>
      </trkpt>
      <trkpt lat="43.5481" lon="-1.48864">
        <ele>-18.39999961853</ele>
        <time>2025-08-13T13:28:37.000Z</time>
      </trkpt>
      <trkpt lat="43.54822" lon="-1.48873">
        <ele>-18.200000762939</ele>
        <time>2025-08-13T13:28:40.000Z</time>
      </trkpt>
      <trkpt lat="43.54835" lon="-1.48884">
        <ele>-18</ele>
        <time>2025-08-13T13:28:44.000Z</time>
      </trkpt>
      <trkpt lat="43.54861" lon="-1.48906">
        <ele>-17.60000038147</ele>
        <time>2025-08-13T13:28:52.000Z</time>
      </trkpt>
      <trkpt lat="43.5488" lon="-1.48921">
        <ele>-17.39999961853</ele>
        <time>2025-08-13T13:28:58.000Z</time>
      </trkpt>
      <trkpt lat="43.54883" lon="-1.48923">
        <ele>-17.200000762939</ele>
        <time>2025-08-13T13:28:59.000Z</time>
      </trkpt>
      <trkpt lat="43.54908" lon="-1.48945">
        <ele>-17</ele>
        <time>2025-08-13T13:29:07.000Z</time>
      </trkpt>
      <trkpt lat="43.54931" lon="-1.48962">
        <ele>-17</ele>
        <time>2025-08-13T13:29:14.000Z</time>
      </trkpt>
      <trkpt lat="43.54953" lon="-1.48981">
        <ele>-17.39999961853</ele>
        <time>2025-08-13T13:29:21.000Z</time>
      </trkpt>
      <trkpt lat="43.54978" lon="-1.49002">
        <ele>-17.799999237061</ele>
        <time>2025-08-13T13:29:28.000Z</time>
      </trkpt>
      <trkpt lat="43.54999" lon="-1.4902">
        <ele>-17.799999237061</ele>
        <time>2025-08-13T13:29:33.000Z</time>
      </trkpt>
      <trkpt lat="43.55003" lon="-1.49023">
        <ele>-17.799999237061</ele>
        <time>2025-08-13T13:29:34.000Z</time>
      </trkpt>
      <trkpt lat="43.55011" lon="-1.4903">
        <ele>-17.799999237061</ele>
        <time>2025-08-13T13:29:36.000Z</time>
      </trkpt>
      <trkpt lat="43.55024" lon="-1.49038">
        <ele>-18</ele>
        <time>2025-08-13T13:29:39.000Z</time>
      </trkpt>
      <trkpt lat="43.55031" lon="-1.49045">
        <ele>-18</ele>
        <time>2025-08-13T13:29:41.000Z</time>
      </trkpt>
      <trkpt lat="43.55044" lon="-1.49055">
        <ele>-18.200000762939</ele>
        <time>2025-08-13T13:29:44.000Z</time>
      </trkpt>
      <trkpt lat="43.55056" lon="-1.49063">
        <ele>-18.200000762939</ele>
        <time>2025-08-13T13:29:47.000Z</time>
      </trkpt>
      <trkpt lat="43.55073" lon="-1.49077">
        <ele>-18.200000762939</ele>
        <time>2025-08-13T13:29:51.000Z</time>
      </trkpt>
      <trkpt lat="43.55077" lon="-1.49081">
        <ele>-18.200000762939</ele>
        <time>2025-08-13T13:29:52.000Z</time>
      </trkpt>
      <trkpt lat="43.55087" lon="-1.4909">
        <ele>-18.200000762939</ele>
        <time>2025-08-13T13:29:55.000Z</time>
      </trkpt>
      <trkpt lat="43.55092" lon="-1.49093">
        <ele>-18.39999961853</ele>
        <time>2025-08-13T13:29:56.000Z</time>
      </trkpt>
      <trkpt lat="43.55107" lon="-1.49106">
        <ele>-18.200000762939</ele>
        <time>2025-08-13T13:30:00.000Z</time>
      </trkpt>
      <trkpt lat="43.55117" lon="-1.49114">
        <ele>-18</ele>
        <time>2025-08-13T13:30:03.000Z</time>
      </trkpt>
      <trkpt lat="43.55134" lon="-1.49129">
        <ele>-17.39999961853</ele>
        <time>2025-08-13T13:30:09.000Z</time>
      </trkpt>
      <trkpt lat="43.55155" lon="-1.49146">
        <ele>-17</ele>
        <time>2025-08-13T13:30:15.000Z</time>
      </trkpt>
      <trkpt lat="43.55174" lon="-1.49161">
        <ele>-16.799999237061</ele>
        <time>2025-08-13T13:30:20.000Z</time>
      </trkpt>
      <trkpt lat="43.55176" lon="-1.49163">
        <ele>-16.799999237061</ele>
        <time>2025-08-13T13:30:21.000Z</time>
      </trkpt>
      <trkpt lat="43.55197" lon="-1.49179">
        <ele>-16.39999961853</ele>
        <time>2025-08-13T13:30:27.000Z</time>
      </trkpt>
      <trkpt lat="43.55206" lon="-1.49188">
        <ele>-16.39999961853</ele>
        <time>2025-08-13T13:30:30.000Z</time>
      </trkpt>
      <trkpt lat="43.55227" lon="-1.49206">
        <ele>-16.39999961853</ele>
        <time>2025-08-13T13:30:36.000Z</time>
      </trkpt>
      <trkpt lat="43.55233" lon="-1.49212">
        <ele>-16.39999961853</ele>
        <time>2025-08-13T13:30:38.000Z</time>
      </trkpt>
      <trkpt lat="43.5525" lon="-1.49225">
        <ele>-16.39999961853</ele>
        <time>2025-08-13T13:30:43.000Z</time>
      </trkpt>
      <trkpt lat="43.55274" lon="-1.49245">
        <ele>-16.60000038147</ele>
        <time>2025-08-13T13:30:49.000Z</time>
      </trkpt>
      <trkpt lat="43.55285" lon="-1.49255">
        <ele>-16.60000038147</ele>
        <time>2025-08-13T13:30:52.000Z</time>
      </trkpt>
      <trkpt lat="43.55298" lon="-1.49266">
        <ele>-16.60000038147</ele>
        <time>2025-08-13T13:30:55.000Z</time>
      </trkpt>
      <trkpt lat="43.55328" lon="-1.4929">
        <ele>-16.60000038147</ele>
        <time>2025-08-13T13:31:03.000Z</time>
      </trkpt>
      <trkpt lat="43.55332" lon="-1.49293">
        <ele>-16.60000038147</ele>
        <time>2025-08-13T13:31:04.000Z</time>
      </trkpt>
      <trkpt lat="43.55334" lon="-1.49296">
        <ele>-16.39999961853</ele>
        <time>2025-08-13T13:31:05.000Z</time>
      </trkpt>
      <trkpt lat="43.55352" lon="-1.49311">
        <ele>-16</ele>
        <time>2025-08-13T13:31:10.000Z</time>
      </trkpt>
      <trkpt lat="43.55369" lon="-1.49326">
        <ele>-15.39999961853</ele>
        <time>2025-08-13T13:31:15.000Z</time>
      </trkpt>
      <trkpt lat="43.55372" lon="-1.49329">
        <ele>-15.199999809265</ele>
        <time>2025-08-13T13:31:16.000Z</time>
      </trkpt>
      <trkpt lat="43.55396" lon="-1.49349">
        <ele>-15</ele>
        <time>2025-08-13T13:31:23.000Z</time>
      </trkpt>
      <trkpt lat="43.55414" lon="-1.49359">
        <ele>-15</ele>
        <time>2025-08-13T13:31:28.000Z</time>
      </trkpt>
      <trkpt lat="43.55426" lon="-1.49368">
        <ele>-15</ele>
        <time>2025-08-13T13:31:31.000Z</time>
      </trkpt>
      <trkpt lat="43.55434" lon="-1.49375">
        <ele>-15.199999809265</ele>
        <time>2025-08-13T13:31:33.000Z</time>
      </trkpt>
      <trkpt lat="43.5546" lon="-1.49398">
        <ele>-15.800000190735</ele>
        <time>2025-08-13T13:31:39.000Z</time>
      </trkpt>
      <trkpt lat="43.55492" lon="-1.49424">
        <ele>-16.39999961853</ele>
        <time>2025-08-13T13:31:46.000Z</time>
      </trkpt>
      <trkpt lat="43.55496" lon="-1.49428">
        <ele>-16.39999961853</ele>
        <time>2025-08-13T13:31:47.000Z</time>
      </trkpt>
      <trkpt lat="43.55518" lon="-1.49448">
        <ele>-17</ele>
        <time>2025-08-13T13:31:52.000Z</time>
      </trkpt>
      <trkpt lat="43.55538" lon="-1.49464">
        <ele>-17.39999961853</ele>
        <time>2025-08-13T13:31:56.000Z</time>
      </trkpt>
      <trkpt lat="43.55552" lon="-1.49476">
        <ele>-17.799999237061</ele>
        <time>2025-08-13T13:31:59.000Z</time>
      </trkpt>
      <trkpt lat="43.55584" lon="-1.49499">
        <ele>-18.39999961853</ele>
        <time>2025-08-13T13:32:06.000Z</time>
      </trkpt>
      <trkpt lat="43.55601" lon="-1.49512">
        <ele>-18.60000038147</ele>
        <time>2025-08-13T13:32:10.000Z</time>
      </trkpt>
      <trkpt lat="43.55618" lon="-1.49526">
        <ele>-18.60000038147</ele>
        <time>2025-08-13T13:32:14.000Z</time>
      </trkpt>
      <trkpt lat="43.55654" lon="-1.49554">
        <ele>-18.799999237061</ele>
        <time>2025-08-13T13:32:23.000Z</time>
      </trkpt>
      <trkpt lat="43.55658" lon="-1.49556">
        <ele>-18.799999237061</ele>
        <time>2025-08-13T13:32:24.000Z</time>
      </trkpt>
      <trkpt lat="43.55682" lon="-1.49562">
        <ele>-18.799999237061</ele>
        <time>2025-08-13T13:32:29.000Z</time>
      </trkpt>
      <trkpt lat="43.55695" lon="-1.49567">
        <ele>-18.799999237061</ele>
        <time>2025-08-13T13:32:32.000Z</time>
      </trkpt>
      <trkpt lat="43.55701" lon="-1.49573">
        <ele>-18.799999237061</ele>
        <time>2025-08-13T13:32:34.000Z</time>
      </trkpt>
      <trkpt lat="43.55707" lon="-1.4958">
        <ele>-18.799999237061</ele>
        <time>2025-08-13T13:32:36.000Z</time>
      </trkpt>
      <trkpt lat="43.5572" lon="-1.49595">
        <ele>-18.60000038147</ele>
        <time>2025-08-13T13:32:40.000Z</time>
      </trkpt>
      <trkpt lat="43.55741" lon="-1.4962">
        <ele>-19</ele>
        <time>2025-08-13T13:32:48.000Z</time>
      </trkpt>
      <trkpt lat="43.55759" lon="-1.49631">
        <ele>-19.200000762939</ele>
        <time>2025-08-13T13:32:53.000Z</time>
      </trkpt>
      <trkpt lat="43.55763" lon="-1.49632">
        <ele>-19.200000762939</ele>
        <time>2025-08-13T13:32:54.000Z</time>
      </trkpt>
      <trkpt lat="43.55773" lon="-1.49642">
        <ele>-19.39999961853</ele>
        <time>2025-08-13T13:32:57.000Z</time>
      </trkpt>
      <trkpt lat="43.55778" lon="-1.49662">
        <ele>-19.39999961853</ele>
        <time>2025-08-13T13:33:01.000Z</time>
      </trkpt>
      <trkpt lat="43.55783" lon="-1.49667">
        <ele>-19.39999961853</ele>
        <time>2025-08-13T13:33:03.000Z</time>
      </trkpt>
      <trkpt lat="43.55786" lon="-1.49666">
        <ele>-19.39999961853</ele>
        <time>2025-08-13T13:33:04.000Z</time>
      </trkpt>
      <trkpt lat="43.55799" lon="-1.49649">
        <ele>-19.39999961853</ele>
        <time>2025-08-13T13:33:08.000Z</time>
      </trkpt>
      <trkpt lat="43.55807" lon="-1.49642">
        <ele>-19.39999961853</ele>
        <time>2025-08-13T13:33:10.000Z</time>
      </trkpt>
      <trkpt lat="43.55815" lon="-1.49637">
        <ele>-19.200000762939</ele>
        <time>2025-08-13T13:33:12.000Z</time>
      </trkpt>
      <trkpt lat="43.55821" lon="-1.49634">
        <ele>-19.200000762939</ele>
        <time>2025-08-13T13:33:14.000Z</time>
      </trkpt>
      <trkpt lat="43.55825" lon="-1.49632">
        <ele>-19.200000762939</ele>
        <time>2025-08-13T13:33:15.000Z</time>
      </trkpt>
      <trkpt lat="43.5584" lon="-1.49624">
        <ele>-19</ele>
        <time>2025-08-13T13:33:19.000Z</time>
      </trkpt>
      <trkpt lat="43.55866" lon="-1.49601">
        <ele>-18.60000038147</ele>
        <time>2025-08-13T13:33:26.000Z</time>
      </trkpt>
      <trkpt lat="43.5587" lon="-1.49598">
        <ele>-18.60000038147</ele>
        <time>2025-08-13T13:33:27.000Z</time>
      </trkpt>
      <trkpt lat="43.55885" lon="-1.49582">
        <ele>-18.60000038147</ele>
        <time>2025-08-13T13:33:32.000Z</time>
      </trkpt>
      <trkpt lat="43.55888" lon="-1.49578">
        <ele>-18.60000038147</ele>
        <time>2025-08-13T13:33:33.000Z</time>
      </trkpt>
      <trkpt lat="43.55902" lon="-1.49565">
        <ele>-18.60000038147</ele>
        <time>2025-08-13T13:33:37.000Z</time>
      </trkpt>
      <trkpt lat="43.55916" lon="-1.49556">
        <ele>-18.60000038147</ele>
        <time>2025-08-13T13:33:40.000Z</time>
      </trkpt>
      <trkpt lat="43.55925" lon="-1.49549">
        <ele>-18.60000038147</ele>
        <time>2025-08-13T13:33:42.000Z</time>
      </trkpt>
      <trkpt lat="43.55961" lon="-1.49529">
        <ele>-18.799999237061</ele>
        <time>2025-08-13T13:33:50.000Z</time>
      </trkpt>
      <trkpt lat="43.55987" lon="-1.49513">
        <ele>-18.60000038147</ele>
        <time>2025-08-13T13:33:56.000Z</time>
      </trkpt>
      <trkpt lat="43.5602" lon="-1.49493">
        <ele>-19</ele>
        <time>2025-08-13T13:34:04.000Z</time>
      </trkpt>
      <trkpt lat="43.56027" lon="-1.49476">
        <ele>-19</ele>
        <time>2025-08-13T13:34:08.000Z</time>
      </trkpt>
      <trkpt lat="43.56026" lon="-1.49452">
        <ele>-19.39999961853</ele>
        <time>2025-08-13T13:34:13.000Z</time>
      </trkpt>
      <trkpt lat="43.5602" lon="-1.49421">
        <ele>-19.60000038147</ele>
        <time>2025-08-13T13:34:19.000Z</time>
      </trkpt>
      <trkpt lat="43.56013" lon="-1.49392">
        <ele>-20</ele>
        <time>2025-08-13T13:34:25.000Z</time>
      </trkpt>
      <trkpt lat="43.55999" lon="-1.49382">
        <ele>-20</ele>
        <time>2025-08-13T13:34:30.000Z</time>
      </trkpt>
      <trkpt lat="43.55977" lon="-1.49368">
        <ele>-19.60000038147</ele>
        <time>2025-08-13T13:34:36.000Z</time>
      </trkpt>
      <trkpt lat="43.55961" lon="-1.49346">
        <ele>-19.200000762939</ele>
        <time>2025-08-13T13:34:42.000Z</time>
      </trkpt>
      <trkpt lat="43.55949" lon="-1.49314">
        <ele>-19.200000762939</ele>
        <time>2025-08-13T13:34:48.000Z</time>
      </trkpt>
      <trkpt lat="43.55943" lon="-1.49298">
        <ele>-19.200000762939</ele>
        <time>2025-08-13T13:34:51.000Z</time>
      </trkpt>
      <trkpt lat="43.55937" lon="-1.49282">
        <ele>-19</ele>
        <time>2025-08-13T13:34:54.000Z</time>
      </trkpt>
      <trkpt lat="43.55935" lon="-1.49276">
        <ele>-19</ele>
        <time>2025-08-13T13:34:55.000Z</time>
      </trkpt>
      <trkpt lat="43.55929" lon="-1.49256">
        <ele>-19</ele>
        <time>2025-08-13T13:34:59.000Z</time>
      </trkpt>
      <trkpt lat="43.55915" lon="-1.49215">
        <ele>-19</ele>
        <time>2025-08-13T13:35:07.000Z</time>
      </trkpt>
      <trkpt lat="43.55903" lon="-1.49182">
        <ele>-19.200000762939</ele>
        <time>2025-08-13T13:35:14.000Z</time>
      </trkpt>
      <trkpt lat="43.55891" lon="-1.49145">
        <ele>-19.39999961853</ele>
        <time>2025-08-13T13:35:21.000Z</time>
      </trkpt>
      <trkpt lat="43.55876" lon="-1.49104">
        <ele>-19.200000762939</ele>
        <time>2025-08-13T13:35:29.000Z</time>
      </trkpt>
      <trkpt lat="43.55863" lon="-1.49064">
        <ele>-19.200000762939</ele>
        <time>2025-08-13T13:35:36.000Z</time>
      </trkpt>
      <trkpt lat="43.55852" lon="-1.49032">
        <ele>-19.200000762939</ele>
        <time>2025-08-13T13:35:42.000Z</time>
      </trkpt>
      <trkpt lat="43.5585" lon="-1.49027">
        <ele>-19.39999961853</ele>
        <time>2025-08-13T13:35:43.000Z</time>
      </trkpt>
      <trkpt lat="43.55843" lon="-1.49011">
        <ele>-19.39999961853</ele>
        <time>2025-08-13T13:35:46.000Z</time>
      </trkpt>
      <trkpt lat="43.55838" lon="-1.48995">
        <ele>-19.39999961853</ele>
        <time>2025-08-13T13:35:49.000Z</time>
      </trkpt>
      <trkpt lat="43.55829" lon="-1.48965">
        <ele>-19.39999961853</ele>
        <time>2025-08-13T13:35:55.000Z</time>
      </trkpt>
      <trkpt lat="43.55824" lon="-1.48955">
        <ele>-19.39999961853</ele>
        <time>2025-08-13T13:35:57.000Z</time>
      </trkpt>
      <trkpt lat="43.55819" lon="-1.48939">
        <ele>-19.39999961853</ele>
        <time>2025-08-13T13:36:00.000Z</time>
      </trkpt>
      <trkpt lat="43.55808" lon="-1.48908">
        <ele>-19.39999961853</ele>
        <time>2025-08-13T13:36:06.000Z</time>
      </trkpt>
      <trkpt lat="43.55797" lon="-1.48877">
        <ele>-19.200000762939</ele>
        <time>2025-08-13T13:36:12.000Z</time>
      </trkpt>
      <trkpt lat="43.55786" lon="-1.48842">
        <ele>-19.200000762939</ele>
        <time>2025-08-13T13:36:18.000Z</time>
      </trkpt>
      <trkpt lat="43.55777" lon="-1.48819">
        <ele>-19</ele>
        <time>2025-08-13T13:36:22.000Z</time>
      </trkpt>
      <trkpt lat="43.55773" lon="-1.48806">
        <ele>-19</ele>
        <time>2025-08-13T13:36:24.000Z</time>
      </trkpt>
      <trkpt lat="43.55772" lon="-1.488">
        <ele>-19</ele>
        <time>2025-08-13T13:36:25.000Z</time>
      </trkpt>
      <trkpt lat="43.5576" lon="-1.4877">
        <ele>-19.200000762939</ele>
        <time>2025-08-13T13:36:32.000Z</time>
      </trkpt>
      <trkpt lat="43.55754" lon="-1.48749">
        <ele>-19.200000762939</ele>
        <time>2025-08-13T13:36:38.000Z</time>
      </trkpt>
      <trkpt lat="43.5575" lon="-1.48734">
        <ele>-19.200000762939</ele>
        <time>2025-08-13T13:36:43.000Z</time>
      </trkpt>
      <trkpt lat="43.55746" lon="-1.48724">
        <ele>-19</ele>
        <time>2025-08-13T13:36:48.000Z</time>
      </trkpt>
      <trkpt lat="43.55745" lon="-1.48719">
        <ele>-18.799999237061</ele>
        <time>2025-08-13T13:36:50.000Z</time>
      </trkpt>
      <trkpt lat="43.55745" lon="-1.48717">
        <ele>-18.799999237061</ele>
        <time>2025-08-13T13:36:51.000Z</time>
      </trkpt>
      <trkpt lat="43.55746" lon="-1.48714">
        <ele>-18.799999237061</ele>
        <time>2025-08-13T13:36:53.000Z</time>
      </trkpt>
      <trkpt lat="43.55746" lon="-1.48712">
        <ele>-18.799999237061</ele>
        <time>2025-08-13T13:36:54.000Z</time>
      </trkpt>
      <trkpt lat="43.55744" lon="-1.48706">
        <ele>-18.799999237061</ele>
        <time>2025-08-13T13:36:57.000Z</time>
      </trkpt>
      <trkpt lat="43.55742" lon="-1.487">
        <ele>-18.799999237061</ele>
        <time>2025-08-13T13:37:00.000Z</time>
      </trkpt>
      <trkpt lat="43.55742" lon="-1.48694">
        <ele>-18.799999237061</ele>
        <time>2025-08-13T13:37:02.000Z</time>
      </trkpt>
      <trkpt lat="43.55742" lon="-1.48691">
        <ele>-18.799999237061</ele>
        <time>2025-08-13T13:37:03.000Z</time>
      </trkpt>
      <trkpt lat="43.55743" lon="-1.48672">
        <ele>-18.799999237061</ele>
        <time>2025-08-13T13:37:08.000Z</time>
      </trkpt>
      <trkpt lat="43.55745" lon="-1.48644">
        <ele>-18.39999961853</ele>
        <time>2025-08-13T13:37:14.000Z</time>
      </trkpt>
      <trkpt lat="43.5574" lon="-1.48634">
        <ele>-18.39999961853</ele>
        <time>2025-08-13T13:37:17.000Z</time>
      </trkpt>
      <trkpt lat="43.55738" lon="-1.48632">
        <ele>-18.39999961853</ele>
        <time>2025-08-13T13:37:18.000Z</time>
      </trkpt>
      <trkpt lat="43.55714" lon="-1.48616">
        <ele>-18.60000038147</ele>
        <time>2025-08-13T13:37:25.000Z</time>
      </trkpt>
      <trkpt lat="43.55699" lon="-1.48602">
        <ele>-18.200000762939</ele>
        <time>2025-08-13T13:37:30.000Z</time>
      </trkpt>
      <trkpt lat="43.55682" lon="-1.48587">
        <ele>-18.200000762939</ele>
        <time>2025-08-13T13:37:36.000Z</time>
      </trkpt>
      <trkpt lat="43.55666" lon="-1.48577">
        <ele>-18</ele>
        <time>2025-08-13T13:37:41.000Z</time>
      </trkpt>
      <trkpt lat="43.5566" lon="-1.48574">
        <ele>-18</ele>
        <time>2025-08-13T13:37:43.000Z</time>
      </trkpt>
      <trkpt lat="43.55639" lon="-1.48565">
        <ele>-17.799999237061</ele>
        <time>2025-08-13T13:37:49.000Z</time>
      </trkpt>
      <trkpt lat="43.55623" lon="-1.4854">
        <ele>-18</ele>
        <time>2025-08-13T13:37:55.000Z</time>
      </trkpt>
      <trkpt lat="43.55618" lon="-1.48517">
        <ele>-18.200000762939</ele>
        <time>2025-08-13T13:38:00.000Z</time>
      </trkpt>
      <trkpt lat="43.55611" lon="-1.48481">
        <ele>-18.200000762939</ele>
        <time>2025-08-13T13:38:07.000Z</time>
      </trkpt>
      <trkpt lat="43.55606" lon="-1.48446">
        <ele>-18.200000762939</ele>
        <time>2025-08-13T13:38:13.000Z</time>
      </trkpt>
      <trkpt lat="43.55597" lon="-1.48419">
        <ele>-18.39999961853</ele>
        <time>2025-08-13T13:38:19.000Z</time>
      </trkpt>
      <trkpt lat="43.55588" lon="-1.48394">
        <ele>-18.39999961853</ele>
        <time>2025-08-13T13:38:25.000Z</time>
      </trkpt>
      <trkpt lat="43.55581" lon="-1.4838">
        <ele>-18.200000762939</ele>
        <time>2025-08-13T13:38:29.000Z</time>
      </trkpt>
      <trkpt lat="43.55566" lon="-1.48348">
        <ele>-18</ele>
        <time>2025-08-13T13:38:36.000Z</time>
      </trkpt>
      <trkpt lat="43.55556" lon="-1.48319">
        <ele>-18</ele>
        <time>2025-08-13T13:38:41.000Z</time>
      </trkpt>
      <trkpt lat="43.55547" lon="-1.48291">
        <ele>-18</ele>
        <time>2025-08-13T13:38:46.000Z</time>
      </trkpt>
      <trkpt lat="43.55539" lon="-1.4825">
        <ele>-18.200000762939</ele>
        <time>2025-08-13T13:38:53.000Z</time>
      </trkpt>
      <trkpt lat="43.55536" lon="-1.48214">
        <ele>-18.200000762939</ele>
        <time>2025-08-13T13:38:59.000Z</time>
      </trkpt>
      <trkpt lat="43.55525" lon="-1.48183">
        <ele>-18.200000762939</ele>
        <time>2025-08-13T13:39:05.000Z</time>
      </trkpt>
      <trkpt lat="43.55519" lon="-1.48152">
        <ele>-18.200000762939</ele>
        <time>2025-08-13T13:39:11.000Z</time>
      </trkpt>
      <trkpt lat="43.5551" lon="-1.48114">
        <ele>-18.200000762939</ele>
        <time>2025-08-13T13:39:18.000Z</time>
      </trkpt>
      <trkpt lat="43.55501" lon="-1.48086">
        <ele>-18.200000762939</ele>
        <time>2025-08-13T13:39:24.000Z</time>
      </trkpt>
      <trkpt lat="43.55491" lon="-1.48064">
        <ele>-18</ele>
        <time>2025-08-13T13:39:29.000Z</time>
      </trkpt>
      <trkpt lat="43.55479" lon="-1.48037">
        <ele>-18</ele>
        <time>2025-08-13T13:39:35.000Z</time>
      </trkpt>
      <trkpt lat="43.55475" lon="-1.48031">
        <ele>-18</ele>
        <time>2025-08-13T13:39:36.000Z</time>
      </trkpt>
      <trkpt lat="43.55454" lon="-1.47993">
        <ele>-17.799999237061</ele>
        <time>2025-08-13T13:39:43.000Z</time>
      </trkpt>
      <trkpt lat="43.55445" lon="-1.47968">
        <ele>-17.799999237061</ele>
        <time>2025-08-13T13:39:48.000Z</time>
      </trkpt>
      <trkpt lat="43.55432" lon="-1.47937">
        <ele>-17.60000038147</ele>
        <time>2025-08-13T13:39:54.000Z</time>
      </trkpt>
      <trkpt lat="43.55422" lon="-1.47912">
        <ele>-18</ele>
        <time>2025-08-13T13:40:00.000Z</time>
      </trkpt>
      <trkpt lat="43.55414" lon="-1.47891">
        <ele>-18.200000762939</ele>
        <time>2025-08-13T13:40:05.000Z</time>
      </trkpt>
      <trkpt lat="43.55411" lon="-1.47883">
        <ele>-18.39999961853</ele>
        <time>2025-08-13T13:40:07.000Z</time>
      </trkpt>
      <trkpt lat="43.55406" lon="-1.47873">
        <ele>-18.39999961853</ele>
        <time>2025-08-13T13:40:09.000Z</time>
      </trkpt>
      <trkpt lat="43.55397" lon="-1.47851">
        <ele>-18.39999961853</ele>
        <time>2025-08-13T13:40:13.000Z</time>
      </trkpt>
      <trkpt lat="43.55395" lon="-1.47845">
        <ele>-18.39999961853</ele>
        <time>2025-08-13T13:40:14.000Z</time>
      </trkpt>
      <trkpt lat="43.55376" lon="-1.47806">
        <ele>-18.39999961853</ele>
        <time>2025-08-13T13:40:21.000Z</time>
      </trkpt>
      <trkpt lat="43.55365" lon="-1.47782">
        <ele>-18.39999961853</ele>
        <time>2025-08-13T13:40:26.000Z</time>
      </trkpt>
      <trkpt lat="43.55353" lon="-1.47759">
        <ele>-18.60000038147</ele>
        <time>2025-08-13T13:40:31.000Z</time>
      </trkpt>
      <trkpt lat="43.5534" lon="-1.47729">
        <ele>-18.60000038147</ele>
        <time>2025-08-13T13:40:36.000Z</time>
      </trkpt>
      <trkpt lat="43.5532" lon="-1.47696">
        <ele>-18.60000038147</ele>
        <time>2025-08-13T13:40:44.000Z</time>
      </trkpt>
      <trkpt lat="43.55298" lon="-1.47664">
        <ele>-18.60000038147</ele>
        <time>2025-08-13T13:40:51.000Z</time>
      </trkpt>
      <trkpt lat="43.55285" lon="-1.47651">
        <ele>-18.39999961853</ele>
        <time>2025-08-13T13:40:56.000Z</time>
      </trkpt>
      <trkpt lat="43.55267" lon="-1.4763">
        <ele>-18.39999961853</ele>
        <time>2025-08-13T13:41:02.000Z</time>
      </trkpt>
      <trkpt lat="43.55255" lon="-1.47619">
        <ele>-18.39999961853</ele>
        <time>2025-08-13T13:41:07.000Z</time>
      </trkpt>
      <trkpt lat="43.55244" lon="-1.47607">
        <ele>-18.60000038147</ele>
        <time>2025-08-13T13:41:11.000Z</time>
      </trkpt>
      <trkpt lat="43.55241" lon="-1.47606">
        <ele>-18.60000038147</ele>
        <time>2025-08-13T13:41:13.000Z</time>
      </trkpt>
      <trkpt lat="43.55232" lon="-1.476">
        <ele>-18.60000038147</ele>
        <time>2025-08-13T13:41:17.000Z</time>
      </trkpt>
      <trkpt lat="43.55229" lon="-1.47594">
        <ele>-18.60000038147</ele>
        <time>2025-08-13T13:41:19.000Z</time>
      </trkpt>
      <trkpt lat="43.55227" lon="-1.47585">
        <ele>-18.60000038147</ele>
        <time>2025-08-13T13:41:23.000Z</time>
      </trkpt>
      <trkpt lat="43.55228" lon="-1.47581">
        <ele>-18.60000038147</ele>
        <time>2025-08-13T13:41:24.000Z</time>
      </trkpt>
      <trkpt lat="43.55231" lon="-1.47554">
        <ele>-18.60000038147</ele>
        <time>2025-08-13T13:41:32.000Z</time>
      </trkpt>
      <trkpt lat="43.55235" lon="-1.47522">
        <ele>-18.60000038147</ele>
        <time>2025-08-13T13:41:40.000Z</time>
      </trkpt>
      <trkpt lat="43.55238" lon="-1.47484">
        <ele>-18.39999961853</ele>
        <time>2025-08-13T13:41:46.000Z</time>
      </trkpt>
      <trkpt lat="43.5524" lon="-1.47444">
        <ele>-17.799999237061</ele>
        <time>2025-08-13T13:41:52.000Z</time>
      </trkpt>
      <trkpt lat="43.55241" lon="-1.47421">
        <ele>-17.60000038147</ele>
        <time>2025-08-13T13:41:56.000Z</time>
      </trkpt>
      <trkpt lat="43.55242" lon="-1.47396">
        <ele>-17.39999961853</ele>
        <time>2025-08-13T13:42:00.000Z</time>
      </trkpt>
      <trkpt lat="43.55243" lon="-1.47354">
        <ele>-17.60000038147</ele>
        <time>2025-08-13T13:42:06.000Z</time>
      </trkpt>
      <trkpt lat="43.55253" lon="-1.47297">
        <ele>-18.60000038147</ele>
        <time>2025-08-13T13:42:13.000Z</time>
      </trkpt>
      <trkpt lat="43.55255" lon="-1.47289">
        <ele>-18.799999237061</ele>
        <time>2025-08-13T13:42:14.000Z</time>
      </trkpt>
      <trkpt lat="43.55266" lon="-1.47262">
        <ele>-19.39999961853</ele>
        <time>2025-08-13T13:42:18.000Z</time>
      </trkpt>
      <trkpt lat="43.5527" lon="-1.47256">
        <ele>-19.60000038147</ele>
        <time>2025-08-13T13:42:19.000Z</time>
      </trkpt>
      <trkpt lat="43.55278" lon="-1.47246">
        <ele>-20</ele>
        <time>2025-08-13T13:42:21.000Z</time>
      </trkpt>
      <trkpt lat="43.55286" lon="-1.47236">
        <ele>-20.200000762939</ele>
        <time>2025-08-13T13:42:23.000Z</time>
      </trkpt>
      <trkpt lat="43.55325" lon="-1.47199">
        <ele>-20.39999961853</ele>
        <time>2025-08-13T13:42:32.000Z</time>
      </trkpt>
      <trkpt lat="43.55333" lon="-1.47192">
        <ele>-20.60000038147</ele>
        <time>2025-08-13T13:42:34.000Z</time>
      </trkpt>
      <trkpt lat="43.55348" lon="-1.47176">
        <ele>-20.60000038147</ele>
        <time>2025-08-13T13:42:38.000Z</time>
      </trkpt>
      <trkpt lat="43.55393" lon="-1.47133">
        <ele>-20.799999237061</ele>
        <time>2025-08-13T13:42:48.000Z</time>
      </trkpt>
      <trkpt lat="43.55397" lon="-1.47129">
        <ele>-20.799999237061</ele>
        <time>2025-08-13T13:42:49.000Z</time>
      </trkpt>
      <trkpt lat="43.5543" lon="-1.47098">
        <ele>-20.799999237061</ele>
        <time>2025-08-13T13:42:56.000Z</time>
      </trkpt>
      <trkpt lat="43.55467" lon="-1.47062">
        <ele>-20.60000038147</ele>
        <time>2025-08-13T13:43:05.000Z</time>
      </trkpt>
      <trkpt lat="43.55492" lon="-1.4704">
        <ele>-20.60000038147</ele>
        <time>2025-08-13T13:43:11.000Z</time>
      </trkpt>
      <trkpt lat="43.555" lon="-1.47031">
        <ele>-20.60000038147</ele>
        <time>2025-08-13T13:43:13.000Z</time>
      </trkpt>
      <trkpt lat="43.55544" lon="-1.46989">
        <ele>-20.39999961853</ele>
        <time>2025-08-13T13:43:23.000Z</time>
      </trkpt>
      <trkpt lat="43.55585" lon="-1.4695">
        <ele>-20.60000038147</ele>
        <time>2025-08-13T13:43:32.000Z</time>
      </trkpt>
      <trkpt lat="43.55598" lon="-1.46938">
        <ele>-21</ele>
        <time>2025-08-13T13:43:35.000Z</time>
      </trkpt>
      <trkpt lat="43.55612" lon="-1.46925">
        <ele>-21</ele>
        <time>2025-08-13T13:43:38.000Z</time>
      </trkpt>
      <trkpt lat="43.55641" lon="-1.46897">
        <ele>-21.200000762939</ele>
        <time>2025-08-13T13:43:45.000Z</time>
      </trkpt>
      <trkpt lat="43.55658" lon="-1.46881">
        <ele>-21.39999961853</ele>
        <time>2025-08-13T13:43:49.000Z</time>
      </trkpt>
      <trkpt lat="43.55667" lon="-1.46871">
        <ele>-21.39999961853</ele>
        <time>2025-08-13T13:43:51.000Z</time>
      </trkpt>
      <trkpt lat="43.55707" lon="-1.46833">
        <ele>-21.60000038147</ele>
        <time>2025-08-13T13:44:00.000Z</time>
      </trkpt>
      <trkpt lat="43.55738" lon="-1.46805">
        <ele>-21</ele>
        <time>2025-08-13T13:44:07.000Z</time>
      </trkpt>
      <trkpt lat="43.55764" lon="-1.4678">
        <ele>-20.39999961853</ele>
        <time>2025-08-13T13:44:14.000Z</time>
      </trkpt>
      <trkpt lat="43.55795" lon="-1.4675">
        <ele>-20.200000762939</ele>
        <time>2025-08-13T13:44:23.000Z</time>
      </trkpt>
      <trkpt lat="43.55818" lon="-1.46728">
        <ele>-20.200000762939</ele>
        <time>2025-08-13T13:44:30.000Z</time>
      </trkpt>
      <trkpt lat="43.55828" lon="-1.46718">
        <ele>-20.39999961853</ele>
        <time>2025-08-13T13:44:33.000Z</time>
      </trkpt>
      <trkpt lat="43.55855" lon="-1.46692">
        <ele>-20.39999961853</ele>
        <time>2025-08-13T13:44:41.000Z</time>
      </trkpt>
      <trkpt lat="43.55886" lon="-1.46662">
        <ele>-20</ele>
        <time>2025-08-13T13:44:50.000Z</time>
      </trkpt>
      <trkpt lat="43.55898" lon="-1.46652">
        <ele>-19.799999237061</ele>
        <time>2025-08-13T13:44:53.000Z</time>
      </trkpt>
      <trkpt lat="43.55913" lon="-1.46638">
        <ele>-19.799999237061</ele>
        <time>2025-08-13T13:44:57.000Z</time>
      </trkpt>
      <trkpt lat="43.55946" lon="-1.46606">
        <ele>-19.60000038147</ele>
        <time>2025-08-13T13:45:06.000Z</time>
      </trkpt>
      <trkpt lat="43.55956" lon="-1.46598">
        <ele>-19.60000038147</ele>
        <time>2025-08-13T13:45:09.000Z</time>
      </trkpt>
      <trkpt lat="43.55962" lon="-1.46597">
        <ele>-19.799999237061</ele>
        <time>2025-08-13T13:45:11.000Z</time>
      </trkpt>
      <trkpt lat="43.55964" lon="-1.46599">
        <ele>-19.799999237061</ele>
        <time>2025-08-13T13:45:13.000Z</time>
      </trkpt>
      <trkpt lat="43.55966" lon="-1.466">
        <ele>-19.799999237061</ele>
        <time>2025-08-13T13:45:15.000Z</time>
      </trkpt>
      <trkpt lat="43.55969" lon="-1.466">
        <ele>-19.799999237061</ele>
        <time>2025-08-13T13:45:17.000Z</time>
      </trkpt>
      <trkpt lat="43.55972" lon="-1.46622">
        <ele>-19.799999237061</ele>
        <time>2025-08-13T13:45:22.000Z</time>
      </trkpt>
      <trkpt lat="43.55982" lon="-1.46649">
        <ele>-19.60000038147</ele>
        <time>2025-08-13T13:45:27.000Z</time>
      </trkpt>
      <trkpt lat="43.55984" lon="-1.46655">
        <ele>-19.39999961853</ele>
        <time>2025-08-13T13:45:28.000Z</time>
      </trkpt>
      <trkpt lat="43.55996" lon="-1.46687">
        <ele>-19.200000762939</ele>
        <time>2025-08-13T13:45:34.000Z</time>
      </trkpt>
      <trkpt lat="43.56003" lon="-1.46712">
        <ele>-19.39999961853</ele>
        <time>2025-08-13T13:45:38.000Z</time>
      </trkpt>
      <trkpt lat="43.56006" lon="-1.46726">
        <ele>-19.799999237061</ele>
        <time>2025-08-13T13:45:40.000Z</time>
      </trkpt>
      <trkpt lat="43.5601" lon="-1.46738">
        <ele>-19.799999237061</ele>
        <time>2025-08-13T13:45:42.000Z</time>
      </trkpt>
      <trkpt lat="43.56021" lon="-1.46764">
        <ele>-19.799999237061</ele>
        <time>2025-08-13T13:45:46.000Z</time>
      </trkpt>
      <trkpt lat="43.56032" lon="-1.46787">
        <ele>-19.799999237061</ele>
        <time>2025-08-13T13:45:50.000Z</time>
      </trkpt>
      <trkpt lat="43.56038" lon="-1.46804">
        <ele>-19.799999237061</ele>
        <time>2025-08-13T13:45:53.000Z</time>
      </trkpt>
      <trkpt lat="43.56042" lon="-1.4681">
        <ele>-19.799999237061</ele>
        <time>2025-08-13T13:45:54.000Z</time>
      </trkpt>
      <trkpt lat="43.56044" lon="-1.46814">
        <ele>-19.799999237061</ele>
        <time>2025-08-13T13:45:55.000Z</time>
      </trkpt>
      <trkpt lat="43.56052" lon="-1.46819">
        <ele>-19.60000038147</ele>
        <time>2025-08-13T13:45:57.000Z</time>
      </trkpt>
      <trkpt lat="43.56057" lon="-1.46819">
        <ele>-19.60000038147</ele>
        <time>2025-08-13T13:45:58.000Z</time>
      </trkpt>
      <trkpt lat="43.56061" lon="-1.46818">
        <ele>-19.60000038147</ele>
        <time>2025-08-13T13:45:59.000Z</time>
      </trkpt>
      <trkpt lat="43.56079" lon="-1.4681">
        <ele>-19.60000038147</ele>
        <time>2025-08-13T13:46:03.000Z</time>
      </trkpt>
      <trkpt lat="43.56084" lon="-1.46807">
        <ele>-19.60000038147</ele>
        <time>2025-08-13T13:46:04.000Z</time>
      </trkpt>
      <trkpt lat="43.56092" lon="-1.46801">
        <ele>-19.60000038147</ele>
        <time>2025-08-13T13:46:06.000Z</time>
      </trkpt>
      <trkpt lat="43.56105" lon="-1.46793">
        <ele>-19.60000038147</ele>
        <time>2025-08-13T13:46:09.000Z</time>
      </trkpt>
      <trkpt lat="43.56122" lon="-1.46782">
        <ele>-19.60000038147</ele>
        <time>2025-08-13T13:46:13.000Z</time>
      </trkpt>
      <trkpt lat="43.56131" lon="-1.46776">
        <ele>-19.799999237061</ele>
        <time>2025-08-13T13:46:15.000Z</time>
      </trkpt>
      <trkpt lat="43.56157" lon="-1.46761">
        <ele>-19.799999237061</ele>
        <time>2025-08-13T13:46:20.000Z</time>
      </trkpt>
      <trkpt lat="43.5619" lon="-1.46739">
        <ele>-20.200000762939</ele>
        <time>2025-08-13T13:46:27.000Z</time>
      </trkpt>
      <trkpt lat="43.56222" lon="-1.46718">
        <ele>-20</ele>
        <time>2025-08-13T13:46:34.000Z</time>
      </trkpt>
      <trkpt lat="43.56249" lon="-1.46703">
        <ele>-20</ele>
        <time>2025-08-13T13:46:40.000Z</time>
      </trkpt>
      <trkpt lat="43.56287" lon="-1.46679">
        <ele>-20</ele>
        <time>2025-08-13T13:46:48.000Z</time>
      </trkpt>
      <trkpt lat="43.56328" lon="-1.46655">
        <ele>-20.200000762939</ele>
        <time>2025-08-13T13:46:57.000Z</time>
      </trkpt>
      <trkpt lat="43.56347" lon="-1.46644">
        <ele>-20.200000762939</ele>
        <time>2025-08-13T13:47:01.000Z</time>
      </trkpt>
      <trkpt lat="43.5636" lon="-1.46638">
        <ele>-20</ele>
        <time>2025-08-13T13:47:04.000Z</time>
      </trkpt>
      <trkpt lat="43.56392" lon="-1.46619">
        <ele>-19.799999237061</ele>
        <time>2025-08-13T13:47:11.000Z</time>
      </trkpt>
      <trkpt lat="43.56411" lon="-1.4661">
        <ele>-19.60000038147</ele>
        <time>2025-08-13T13:47:15.000Z</time>
      </trkpt>
      <trkpt lat="43.56421" lon="-1.46604">
        <ele>-19.39999961853</ele>
        <time>2025-08-13T13:47:17.000Z</time>
      </trkpt>
      <trkpt lat="43.56425" lon="-1.46602">
        <ele>-19.39999961853</ele>
        <time>2025-08-13T13:47:18.000Z</time>
      </trkpt>
      <trkpt lat="43.56457" lon="-1.46581">
        <ele>-19.39999961853</ele>
        <time>2025-08-13T13:47:25.000Z</time>
      </trkpt>
      <trkpt lat="43.56461" lon="-1.46579">
        <ele>-19.39999961853</ele>
        <time>2025-08-13T13:47:26.000Z</time>
      </trkpt>
      <trkpt lat="43.56476" lon="-1.4658">
        <ele>-19.60000038147</ele>
        <time>2025-08-13T13:47:29.000Z</time>
      </trkpt>
      <trkpt lat="43.56487" lon="-1.46589">
        <ele>-19.60000038147</ele>
        <time>2025-08-13T13:47:31.000Z</time>
      </trkpt>
      <trkpt lat="43.5649" lon="-1.46594">
        <ele>-19.60000038147</ele>
        <time>2025-08-13T13:47:32.000Z</time>
      </trkpt>
      <trkpt lat="43.56492" lon="-1.466">
        <ele>-19.60000038147</ele>
        <time>2025-08-13T13:47:33.000Z</time>
      </trkpt>
      <trkpt lat="43.565" lon="-1.46623">
        <ele>-19.799999237061</ele>
        <time>2025-08-13T13:47:37.000Z</time>
      </trkpt>
      <trkpt lat="43.56516" lon="-1.46664">
        <ele>-19.799999237061</ele>
        <time>2025-08-13T13:47:44.000Z</time>
      </trkpt>
      <trkpt lat="43.56539" lon="-1.46722">
        <ele>-20</ele>
        <time>2025-08-13T13:47:54.000Z</time>
      </trkpt>
      <trkpt lat="43.56558" lon="-1.46763">
        <ele>-20.200000762939</ele>
        <time>2025-08-13T13:48:02.000Z</time>
      </trkpt>
      <trkpt lat="43.56584" lon="-1.46797">
        <ele>-20.200000762939</ele>
        <time>2025-08-13T13:48:10.000Z</time>
      </trkpt>
      <trkpt lat="43.56608" lon="-1.46828">
        <ele>-20.39999961853</ele>
        <time>2025-08-13T13:48:18.000Z</time>
      </trkpt>
      <trkpt lat="43.56611" lon="-1.46832">
        <ele>-20.39999961853</ele>
        <time>2025-08-13T13:48:19.000Z</time>
      </trkpt>
      <trkpt lat="43.56619" lon="-1.46844">
        <ele>-20.39999961853</ele>
        <time>2025-08-13T13:48:22.000Z</time>
      </trkpt>
      <trkpt lat="43.56627" lon="-1.46855">
        <ele>-20.39999961853</ele>
        <time>2025-08-13T13:48:25.000Z</time>
      </trkpt>
      <trkpt lat="43.56652" lon="-1.4689">
        <ele>-20.200000762939</ele>
        <time>2025-08-13T13:48:34.000Z</time>
      </trkpt>
      <trkpt lat="43.56677" lon="-1.46925">
        <ele>-20.39999961853</ele>
        <time>2025-08-13T13:48:43.000Z</time>
      </trkpt>
      <trkpt lat="43.56686" lon="-1.46936">
        <ele>-20.200000762939</ele>
        <time>2025-08-13T13:48:46.000Z</time>
      </trkpt>
      <trkpt lat="43.56695" lon="-1.46949">
        <ele>-20.200000762939</ele>
        <time>2025-08-13T13:48:49.000Z</time>
      </trkpt>
      <trkpt lat="43.5671" lon="-1.46969">
        <ele>-20.200000762939</ele>
        <time>2025-08-13T13:48:54.000Z</time>
      </trkpt>
      <trkpt lat="43.56716" lon="-1.46977">
        <ele>-20.39999961853</ele>
        <time>2025-08-13T13:48:56.000Z</time>
      </trkpt>
      <trkpt lat="43.56719" lon="-1.46981">
        <ele>-20.39999961853</ele>
        <time>2025-08-13T13:48:57.000Z</time>
      </trkpt>
      <trkpt lat="43.56734" lon="-1.47003">
        <ele>-20.39999961853</ele>
        <time>2025-08-13T13:49:02.000Z</time>
      </trkpt>
      <trkpt lat="43.56743" lon="-1.47014">
        <ele>-20.200000762939</ele>
        <time>2025-08-13T13:49:05.000Z</time>
      </trkpt>
      <trkpt lat="43.56756" lon="-1.47031">
        <ele>-20.200000762939</ele>
        <time>2025-08-13T13:49:09.000Z</time>
      </trkpt>
      <trkpt lat="43.56762" lon="-1.4704">
        <ele>-20.200000762939</ele>
        <time>2025-08-13T13:49:11.000Z</time>
      </trkpt>
      <trkpt lat="43.56765" lon="-1.47044">
        <ele>-20.200000762939</ele>
        <time>2025-08-13T13:49:12.000Z</time>
      </trkpt>
      <trkpt lat="43.56774" lon="-1.47055">
        <ele>-20.200000762939</ele>
        <time>2025-08-13T13:49:15.000Z</time>
      </trkpt>
      <trkpt lat="43.56788" lon="-1.47071">
        <ele>-20.200000762939</ele>
        <time>2025-08-13T13:49:19.000Z</time>
      </trkpt>
      <trkpt lat="43.56812" lon="-1.47103">
        <ele>-20</ele>
        <time>2025-08-13T13:49:27.000Z</time>
      </trkpt>
      <trkpt lat="43.56818" lon="-1.47112">
        <ele>-20</ele>
        <time>2025-08-13T13:49:29.000Z</time>
      </trkpt>
      <trkpt lat="43.56833" lon="-1.47129">
        <ele>-20</ele>
        <time>2025-08-13T13:49:33.000Z</time>
      </trkpt>
      <trkpt lat="43.56861" lon="-1.47166">
        <ele>-20</ele>
        <time>2025-08-13T13:49:41.000Z</time>
      </trkpt>
      <trkpt lat="43.56889" lon="-1.47203">
        <ele>-20</ele>
        <time>2025-08-13T13:49:49.000Z</time>
      </trkpt>
      <trkpt lat="43.56896" lon="-1.47211">
        <ele>-20</ele>
        <time>2025-08-13T13:49:51.000Z</time>
      </trkpt>
      <trkpt lat="43.56903" lon="-1.47213">
        <ele>-20.39999961853</ele>
        <time>2025-08-13T13:49:53.000Z</time>
      </trkpt>
      <trkpt lat="43.56916" lon="-1.47196">
        <ele>-20.799999237061</ele>
        <time>2025-08-13T13:49:57.000Z</time>
      </trkpt>
      <trkpt lat="43.5692" lon="-1.47191">
        <ele>-20.799999237061</ele>
        <time>2025-08-13T13:49:58.000Z</time>
      </trkpt>
      <trkpt lat="43.56937" lon="-1.4717">
        <ele>-20.799999237061</ele>
        <time>2025-08-13T13:50:03.000Z</time>
      </trkpt>
      <trkpt lat="43.5694" lon="-1.47166">
        <ele>-21</ele>
        <time>2025-08-13T13:50:04.000Z</time>
      </trkpt>
      <trkpt lat="43.56973" lon="-1.47125">
        <ele>-21.200000762939</ele>
        <time>2025-08-13T13:50:13.000Z</time>
      </trkpt>
      <trkpt lat="43.56984" lon="-1.47112">
        <ele>-21.200000762939</ele>
        <time>2025-08-13T13:50:16.000Z</time>
      </trkpt>
      <trkpt lat="43.56992" lon="-1.47107">
        <ele>-21.200000762939</ele>
        <time>2025-08-13T13:50:18.000Z</time>
      </trkpt>
      <trkpt lat="43.56997" lon="-1.47107">
        <ele>-21.200000762939</ele>
        <time>2025-08-13T13:50:19.000Z</time>
      </trkpt>
      <trkpt lat="43.57001" lon="-1.47108">
        <ele>-21.200000762939</ele>
        <time>2025-08-13T13:50:20.000Z</time>
      </trkpt>
      <trkpt lat="43.5701" lon="-1.47112">
        <ele>-21.200000762939</ele>
        <time>2025-08-13T13:50:22.000Z</time>
      </trkpt>
      <trkpt lat="43.57019" lon="-1.47119">
        <ele>-21</ele>
        <time>2025-08-13T13:50:24.000Z</time>
      </trkpt>
      <trkpt lat="43.5705" lon="-1.47145">
        <ele>-20.799999237061</ele>
        <time>2025-08-13T13:50:32.000Z</time>
      </trkpt>
      <trkpt lat="43.57054" lon="-1.47148">
        <ele>-20.799999237061</ele>
        <time>2025-08-13T13:50:33.000Z</time>
      </trkpt>
      <trkpt lat="43.57084" lon="-1.47173">
        <ele>-20.799999237061</ele>
        <time>2025-08-13T13:50:41.000Z</time>
      </trkpt>
      <trkpt lat="43.57113" lon="-1.47198">
        <ele>-21</ele>
        <time>2025-08-13T13:50:49.000Z</time>
      </trkpt>
      <trkpt lat="43.5712" lon="-1.47204">
        <ele>-21</ele>
        <time>2025-08-13T13:50:51.000Z</time>
      </trkpt>
      <trkpt lat="43.57125" lon="-1.47212">
        <ele>-20.799999237061</ele>
        <time>2025-08-13T13:50:53.000Z</time>
      </trkpt>
      <trkpt lat="43.57131" lon="-1.4722">
        <ele>-20.799999237061</ele>
        <time>2025-08-13T13:50:55.000Z</time>
      </trkpt>
      <trkpt lat="43.57141" lon="-1.47226">
        <ele>-20.799999237061</ele>
        <time>2025-08-13T13:50:58.000Z</time>
      </trkpt>
      <trkpt lat="43.57144" lon="-1.47224">
        <ele>-20.799999237061</ele>
        <time>2025-08-13T13:50:59.000Z</time>
      </trkpt>
      <trkpt lat="43.57156" lon="-1.47212">
        <ele>-20.39999961853</ele>
        <time>2025-08-13T13:51:04.000Z</time>
      </trkpt>
      <trkpt lat="43.57163" lon="-1.47205">
        <ele>-19.799999237061</ele>
        <time>2025-08-13T13:51:07.000Z</time>
      </trkpt>
      <trkpt lat="43.57173" lon="-1.47198">
        <ele>-19.60000038147</ele>
        <time>2025-08-13T13:51:10.000Z</time>
      </trkpt>
      <trkpt lat="43.57181" lon="-1.4719">
        <ele>-19.39999961853</ele>
        <time>2025-08-13T13:51:13.000Z</time>
      </trkpt>
      <trkpt lat="43.57182" lon="-1.4718">
        <ele>-19.39999961853</ele>
        <time>2025-08-13T13:51:15.000Z</time>
      </trkpt>
      <trkpt lat="43.57185" lon="-1.47172">
        <ele>-19.39999961853</ele>
        <time>2025-08-13T13:51:17.000Z</time>
      </trkpt>
      <trkpt lat="43.5719" lon="-1.47167">
        <ele>-19.39999961853</ele>
        <time>2025-08-13T13:51:19.000Z</time>
      </trkpt>
      <trkpt lat="43.57201" lon="-1.4716">
        <ele>-19.39999961853</ele>
        <time>2025-08-13T13:51:25.000Z</time>
      </trkpt>
      <trkpt lat="43.57209" lon="-1.47152">
        <ele>-19.39999961853</ele>
        <time>2025-08-13T13:51:29.000Z</time>
      </trkpt>
      <trkpt lat="43.57209" lon="-1.47148">
        <ele>-19.39999961853</ele>
        <time>2025-08-13T13:51:30.000Z</time>
      </trkpt>
      <trkpt lat="43.57205" lon="-1.47135">
        <ele>-19.60000038147</ele>
        <time>2025-08-13T13:51:36.000Z</time>
      </trkpt>
      <trkpt lat="43.57204" lon="-1.47135">
        <ele>-19.60000038147</ele>
        <time>2025-08-13T13:51:40.000Z</time>
      </trkpt>
      <trkpt lat="43.57197" lon="-1.47132">
        <ele>-20.39999961853</ele>
        <time>2025-08-13T13:54:53.000Z</time>
      </trkpt>
      <trkpt lat="43.57194" lon="-1.4713">
        <ele>-20.39999961853</ele>
        <time>2025-08-13T13:54:55.000Z</time>
      </trkpt>
      <trkpt lat="43.57191" lon="-1.47124">
        <ele>-20.200000762939</ele>
        <time>2025-08-13T13:54:58.000Z</time>
      </trkpt>
      <trkpt lat="43.57183" lon="-1.47106">
        <ele>-20.200000762939</ele>
        <time>2025-08-13T13:55:03.000Z</time>
      </trkpt>
      <trkpt lat="43.57173" lon="-1.47077">
        <ele>-20.200000762939</ele>
        <time>2025-08-13T13:55:10.000Z</time>
      </trkpt>
      <trkpt lat="43.5716" lon="-1.4704">
        <ele>-20.39999961853</ele>
        <time>2025-08-13T13:55:19.000Z</time>
      </trkpt>
      <trkpt lat="43.57152" lon="-1.47014">
        <ele>-20.60000038147</ele>
        <time>2025-08-13T13:55:25.000Z</time>
      </trkpt>
      <trkpt lat="43.57142" lon="-1.46986">
        <ele>-20.60000038147</ele>
        <time>2025-08-13T13:55:32.000Z</time>
      </trkpt>
      <trkpt lat="43.57133" lon="-1.46959">
        <ele>-20.39999961853</ele>
        <time>2025-08-13T13:55:39.000Z</time>
      </trkpt>
      <trkpt lat="43.57124" lon="-1.46933">
        <ele>-20.60000038147</ele>
        <time>2025-08-13T13:55:46.000Z</time>
      </trkpt>
      <trkpt lat="43.57116" lon="-1.46908">
        <ele>-20.60000038147</ele>
        <time>2025-08-13T13:55:54.000Z</time>
      </trkpt>
      <trkpt lat="43.57107" lon="-1.46881">
        <ele>-20.799999237061</ele>
        <time>2025-08-13T13:56:03.000Z</time>
      </trkpt>
      <trkpt lat="43.57096" lon="-1.46851">
        <ele>-20.60000038147</ele>
        <time>2025-08-13T13:56:11.000Z</time>
      </trkpt>
      <trkpt lat="43.57086" lon="-1.46822">
        <ele>-20.200000762939</ele>
        <time>2025-08-13T13:56:18.000Z</time>
      </trkpt>
      <trkpt lat="43.57079" lon="-1.46796">
        <ele>-19.799999237061</ele>
        <time>2025-08-13T13:56:24.000Z</time>
      </trkpt>
      <trkpt lat="43.57071" lon="-1.4677">
        <ele>-19.799999237061</ele>
        <time>2025-08-13T13:56:32.000Z</time>
      </trkpt>
      <trkpt lat="43.57064" lon="-1.46751">
        <ele>-20.200000762939</ele>
        <time>2025-08-13T13:56:39.000Z</time>
      </trkpt>
      <trkpt lat="43.57057" lon="-1.46732">
        <ele>-20.200000762939</ele>
        <time>2025-08-13T13:56:46.000Z</time>
      </trkpt>
      <trkpt lat="43.57051" lon="-1.4671">
        <ele>-20.200000762939</ele>
        <time>2025-08-13T13:56:51.000Z</time>
      </trkpt>
      <trkpt lat="43.5705" lon="-1.46697">
        <ele>-20.200000762939</ele>
        <time>2025-08-13T13:56:54.000Z</time>
      </trkpt>
      <trkpt lat="43.57053" lon="-1.46694">
        <ele>-20.200000762939</ele>
        <time>2025-08-13T13:56:55.000Z</time>
      </trkpt>
      <trkpt lat="43.57069" lon="-1.46676">
        <ele>-20.200000762939</ele>
        <time>2025-08-13T13:57:01.000Z</time>
      </trkpt>
      <trkpt lat="43.57081" lon="-1.46661">
        <ele>-20.200000762939</ele>
        <time>2025-08-13T13:57:07.000Z</time>
      </trkpt>
      <trkpt lat="43.57089" lon="-1.46648">
        <ele>-20</ele>
        <time>2025-08-13T13:57:12.000Z</time>
      </trkpt>
      <trkpt lat="43.57106" lon="-1.46627">
        <ele>-20</ele>
        <time>2025-08-13T13:57:19.000Z</time>
      </trkpt>
      <trkpt lat="43.57121" lon="-1.4661">
        <ele>-20.200000762939</ele>
        <time>2025-08-13T13:57:24.000Z</time>
      </trkpt>
      <trkpt lat="43.57139" lon="-1.46594">
        <ele>-20.39999961853</ele>
        <time>2025-08-13T13:57:29.000Z</time>
      </trkpt>
      <trkpt lat="43.5715" lon="-1.46587">
        <ele>-20.39999961853</ele>
        <time>2025-08-13T13:57:33.000Z</time>
      </trkpt>
      <trkpt lat="43.57154" lon="-1.46583">
        <ele>-20.39999961853</ele>
        <time>2025-08-13T13:57:34.000Z</time>
      </trkpt>
      <trkpt lat="43.57174" lon="-1.46559">
        <ele>-20</ele>
        <time>2025-08-13T13:57:42.000Z</time>
      </trkpt>
      <trkpt lat="43.57191" lon="-1.46537">
        <ele>-20.200000762939</ele>
        <time>2025-08-13T13:57:49.000Z</time>
      </trkpt>
      <trkpt lat="43.57201" lon="-1.46527">
        <ele>-20</ele>
        <time>2025-08-13T13:57:54.000Z</time>
      </trkpt>
      <trkpt lat="43.57217" lon="-1.46507">
        <ele>-19.60000038147</ele>
        <time>2025-08-13T13:58:01.000Z</time>
      </trkpt>
      <trkpt lat="43.57225" lon="-1.46501">
        <ele>-19</ele>
        <time>2025-08-13T13:58:05.000Z</time>
      </trkpt>
      <trkpt lat="43.5723" lon="-1.46498">
        <ele>-19</ele>
        <time>2025-08-13T13:58:07.000Z</time>
      </trkpt>
      <trkpt lat="43.57232" lon="-1.46494">
        <ele>-19</ele>
        <time>2025-08-13T13:58:08.000Z</time>
      </trkpt>
      <trkpt lat="43.57252" lon="-1.46472">
        <ele>-19.200000762939</ele>
        <time>2025-08-13T13:58:13.000Z</time>
      </trkpt>
      <trkpt lat="43.57258" lon="-1.46466">
        <ele>-19.39999961853</ele>
        <time>2025-08-13T13:58:15.000Z</time>
      </trkpt>
      <trkpt lat="43.57265" lon="-1.46453">
        <ele>-19.60000038147</ele>
        <time>2025-08-13T13:58:18.000Z</time>
      </trkpt>
      <trkpt lat="43.57276" lon="-1.4644">
        <ele>-19.60000038147</ele>
        <time>2025-08-13T13:58:23.000Z</time>
      </trkpt>
      <trkpt lat="43.57286" lon="-1.46425">
        <ele>-19.39999961853</ele>
        <time>2025-08-13T13:58:29.000Z</time>
      </trkpt>
      <trkpt lat="43.57288" lon="-1.46423">
        <ele>-19.39999961853</ele>
        <time>2025-08-13T13:58:30.000Z</time>
      </trkpt>
      <trkpt lat="43.57296" lon="-1.46419">
        <ele>-19.39999961853</ele>
        <time>2025-08-13T13:58:33.000Z</time>
      </trkpt>
      <trkpt lat="43.57312" lon="-1.46405">
        <ele>-19.39999961853</ele>
        <time>2025-08-13T13:58:38.000Z</time>
      </trkpt>
      <trkpt lat="43.57315" lon="-1.46402">
        <ele>-19.39999961853</ele>
        <time>2025-08-13T13:58:39.000Z</time>
      </trkpt>
      <trkpt lat="43.57325" lon="-1.46389">
        <ele>-19.39999961853</ele>
        <time>2025-08-13T13:58:42.000Z</time>
      </trkpt>
      <trkpt lat="43.57343" lon="-1.46362">
        <ele>-19.39999961853</ele>
        <time>2025-08-13T13:58:49.000Z</time>
      </trkpt>
      <trkpt lat="43.57363" lon="-1.4634">
        <ele>-19.39999961853</ele>
        <time>2025-08-13T13:58:54.000Z</time>
      </trkpt>
      <trkpt lat="43.57379" lon="-1.46321">
        <ele>-19.60000038147</ele>
        <time>2025-08-13T13:58:58.000Z</time>
      </trkpt>
      <trkpt lat="43.57401" lon="-1.46302">
        <ele>-19.60000038147</ele>
        <time>2025-08-13T13:59:03.000Z</time>
      </trkpt>
      <trkpt lat="43.57416" lon="-1.46282">
        <ele>-19.60000038147</ele>
        <time>2025-08-13T13:59:07.000Z</time>
      </trkpt>
      <trkpt lat="43.57424" lon="-1.46274">
        <ele>-19.39999961853</ele>
        <time>2025-08-13T13:59:09.000Z</time>
      </trkpt>
      <trkpt lat="43.57445" lon="-1.46258">
        <ele>-19.39999961853</ele>
        <time>2025-08-13T13:59:15.000Z</time>
      </trkpt>
      <trkpt lat="43.57468" lon="-1.46246">
        <ele>-19.60000038147</ele>
        <time>2025-08-13T13:59:21.000Z</time>
      </trkpt>
      <trkpt lat="43.57487" lon="-1.46226">
        <ele>-19.799999237061</ele>
        <time>2025-08-13T13:59:26.000Z</time>
      </trkpt>
      <trkpt lat="43.57497" lon="-1.4621">
        <ele>-19.799999237061</ele>
        <time>2025-08-13T13:59:29.000Z</time>
      </trkpt>
      <trkpt lat="43.57507" lon="-1.46194">
        <ele>-20</ele>
        <time>2025-08-13T13:59:32.000Z</time>
      </trkpt>
      <trkpt lat="43.5752" lon="-1.46175">
        <ele>-20.200000762939</ele>
        <time>2025-08-13T13:59:36.000Z</time>
      </trkpt>
      <trkpt lat="43.57526" lon="-1.46165">
        <ele>-20.200000762939</ele>
        <time>2025-08-13T13:59:38.000Z</time>
      </trkpt>
      <trkpt lat="43.5753" lon="-1.4616">
        <ele>-20.39999961853</ele>
        <time>2025-08-13T13:59:39.000Z</time>
      </trkpt>
      <trkpt lat="43.57545" lon="-1.46136">
        <ele>-20.39999961853</ele>
        <time>2025-08-13T13:59:44.000Z</time>
      </trkpt>
      <trkpt lat="43.57548" lon="-1.46131">
        <ele>-20.39999961853</ele>
        <time>2025-08-13T13:59:45.000Z</time>
      </trkpt>
      <trkpt lat="43.57555" lon="-1.46113">
        <ele>-20.39999961853</ele>
        <time>2025-08-13T13:59:48.000Z</time>
      </trkpt>
      <trkpt lat="43.57574" lon="-1.46082">
        <ele>-20.200000762939</ele>
        <time>2025-08-13T13:59:54.000Z</time>
      </trkpt>
      <trkpt lat="43.57578" lon="-1.46077">
        <ele>-20.200000762939</ele>
        <time>2025-08-13T13:59:55.000Z</time>
      </trkpt>
      <trkpt lat="43.57582" lon="-1.46073">
        <ele>-20.200000762939</ele>
        <time>2025-08-13T13:59:56.000Z</time>
      </trkpt>
      <trkpt lat="43.57596" lon="-1.46066">
        <ele>-20</ele>
        <time>2025-08-13T13:59:59.000Z</time>
      </trkpt>
      <trkpt lat="43.57628" lon="-1.46053">
        <ele>-20.200000762939</ele>
        <time>2025-08-13T14:00:06.000Z</time>
      </trkpt>
      <trkpt lat="43.57633" lon="-1.46052">
        <ele>-20.200000762939</ele>
        <time>2025-08-13T14:00:07.000Z</time>
      </trkpt>
      <trkpt lat="43.57657" lon="-1.46049">
        <ele>-20.200000762939</ele>
        <time>2025-08-13T14:00:12.000Z</time>
      </trkpt>
      <trkpt lat="43.57671" lon="-1.46047">
        <ele>-20.200000762939</ele>
        <time>2025-08-13T14:00:15.000Z</time>
      </trkpt>
      <trkpt lat="43.5769" lon="-1.46041">
        <ele>-20.200000762939</ele>
        <time>2025-08-13T14:00:19.000Z</time>
      </trkpt>
      <trkpt lat="43.57718" lon="-1.46029">
        <ele>-20.39999961853</ele>
        <time>2025-08-13T14:00:25.000Z</time>
      </trkpt>
      <trkpt lat="43.57726" lon="-1.46023">
        <ele>-20.39999961853</ele>
        <time>2025-08-13T14:00:27.000Z</time>
      </trkpt>
      <trkpt lat="43.57744" lon="-1.46008">
        <ele>-20.39999961853</ele>
        <time>2025-08-13T14:00:32.000Z</time>
      </trkpt>
      <trkpt lat="43.57748" lon="-1.46001">
        <ele>-20.39999961853</ele>
        <time>2025-08-13T14:00:34.000Z</time>
      </trkpt>
      <trkpt lat="43.57755" lon="-1.45989">
        <ele>-20.39999961853</ele>
        <time>2025-08-13T14:00:36.000Z</time>
      </trkpt>
      <trkpt lat="43.57758" lon="-1.45977">
        <ele>-20.39999961853</ele>
        <time>2025-08-13T14:00:38.000Z</time>
      </trkpt>
      <trkpt lat="43.57759" lon="-1.4597">
        <ele>-20.39999961853</ele>
        <time>2025-08-13T14:00:39.000Z</time>
      </trkpt>
      <trkpt lat="43.57763" lon="-1.45951">
        <ele>-20.39999961853</ele>
        <time>2025-08-13T14:00:42.000Z</time>
      </trkpt>
      <trkpt lat="43.57769" lon="-1.4594">
        <ele>-20.200000762939</ele>
        <time>2025-08-13T14:00:44.000Z</time>
      </trkpt>
      <trkpt lat="43.57772" lon="-1.45935">
        <ele>-20.200000762939</ele>
        <time>2025-08-13T14:00:45.000Z</time>
      </trkpt>
      <trkpt lat="43.57776" lon="-1.45931">
        <ele>-20.200000762939</ele>
        <time>2025-08-13T14:00:46.000Z</time>
      </trkpt>
      <trkpt lat="43.57783" lon="-1.45921">
        <ele>-20.200000762939</ele>
        <time>2025-08-13T14:00:48.000Z</time>
      </trkpt>
      <trkpt lat="43.57786" lon="-1.45915">
        <ele>-20.200000762939</ele>
        <time>2025-08-13T14:00:49.000Z</time>
      </trkpt>
      <trkpt lat="43.57794" lon="-1.45899">
        <ele>-20</ele>
        <time>2025-08-13T14:00:52.000Z</time>
      </trkpt>
      <trkpt lat="43.57801" lon="-1.45882">
        <ele>-20</ele>
        <time>2025-08-13T14:00:55.000Z</time>
      </trkpt>
      <trkpt lat="43.57805" lon="-1.4587">
        <ele>-20</ele>
        <time>2025-08-13T14:00:57.000Z</time>
      </trkpt>
      <trkpt lat="43.57819" lon="-1.45843">
        <ele>-20</ele>
        <time>2025-08-13T14:01:02.000Z</time>
      </trkpt>
      <trkpt lat="43.57829" lon="-1.45828">
        <ele>-20</ele>
        <time>2025-08-13T14:01:05.000Z</time>
      </trkpt>
      <trkpt lat="43.57845" lon="-1.45803">
        <ele>-20</ele>
        <time>2025-08-13T14:01:10.000Z</time>
      </trkpt>
      <trkpt lat="43.57852" lon="-1.45794">
        <ele>-20.200000762939</ele>
        <time>2025-08-13T14:01:12.000Z</time>
      </trkpt>
      <trkpt lat="43.57866" lon="-1.45779">
        <ele>-20.39999961853</ele>
        <time>2025-08-13T14:01:16.000Z</time>
      </trkpt>
      <trkpt lat="43.57869" lon="-1.45776">
        <ele>-20.60000038147</ele>
        <time>2025-08-13T14:01:19.000Z</time>
      </trkpt>
      <trkpt lat="43.57869" lon="-1.45776">
        <ele>-20.60000038147</ele>
        <time>2025-08-13T14:01:20.000Z</time>
      </trkpt>
      <trkpt lat="43.57877" lon="-1.45773">
        <ele>-22</ele>
        <time>2025-08-13T14:02:29.000Z</time>
      </trkpt>
      <trkpt lat="43.57881" lon="-1.4577">
        <ele>-22</ele>
        <time>2025-08-13T14:02:31.000Z</time>
      </trkpt>
      <trkpt lat="43.57901" lon="-1.45757">
        <ele>-21.799999237061</ele>
        <time>2025-08-13T14:02:37.000Z</time>
      </trkpt>
      <trkpt lat="43.57907" lon="-1.45751">
        <ele>-21.799999237061</ele>
        <time>2025-08-13T14:02:39.000Z</time>
      </trkpt>
      <trkpt lat="43.57918" lon="-1.45738">
        <ele>-21.799999237061</ele>
        <time>2025-08-13T14:02:43.000Z</time>
      </trkpt>
      <trkpt lat="43.57942" lon="-1.45721">
        <ele>-21.799999237061</ele>
        <time>2025-08-13T14:02:49.000Z</time>
      </trkpt>
      <trkpt lat="43.57961" lon="-1.4571">
        <ele>-21.39999961853</ele>
        <time>2025-08-13T14:02:54.000Z</time>
      </trkpt>
      <trkpt lat="43.57976" lon="-1.45703">
        <ele>-21</ele>
        <time>2025-08-13T14:02:58.000Z</time>
      </trkpt>
      <trkpt lat="43.57991" lon="-1.45699">
        <ele>-20.799999237061</ele>
        <time>2025-08-13T14:03:01.000Z</time>
      </trkpt>
      <trkpt lat="43.58031" lon="-1.4569">
        <ele>-20.60000038147</ele>
        <time>2025-08-13T14:03:09.000Z</time>
      </trkpt>
      <trkpt lat="43.58069" lon="-1.45679">
        <ele>-20.39999961853</ele>
        <time>2025-08-13T14:03:17.000Z</time>
      </trkpt>
      <trkpt lat="43.58074" lon="-1.45678">
        <ele>-20.39999961853</ele>
        <time>2025-08-13T14:03:18.000Z</time>
      </trkpt>
      <trkpt lat="43.58103" lon="-1.45672">
        <ele>-20.200000762939</ele>
        <time>2025-08-13T14:03:24.000Z</time>
      </trkpt>
      <trkpt lat="43.58112" lon="-1.45668">
        <ele>-20.200000762939</ele>
        <time>2025-08-13T14:03:26.000Z</time>
      </trkpt>
      <trkpt lat="43.58126" lon="-1.45666">
        <ele>-20.200000762939</ele>
        <time>2025-08-13T14:03:29.000Z</time>
      </trkpt>
      <trkpt lat="43.58152" lon="-1.45663">
        <ele>-20</ele>
        <time>2025-08-13T14:03:34.000Z</time>
      </trkpt>
      <trkpt lat="43.58162" lon="-1.45659">
        <ele>-20</ele>
        <time>2025-08-13T14:03:36.000Z</time>
      </trkpt>
      <trkpt lat="43.58182" lon="-1.45663">
        <ele>-20</ele>
        <time>2025-08-13T14:03:40.000Z</time>
      </trkpt>
      <trkpt lat="43.58218" lon="-1.45658">
        <ele>-20</ele>
        <time>2025-08-13T14:03:46.000Z</time>
      </trkpt>
      <trkpt lat="43.5826" lon="-1.45652">
        <ele>-20</ele>
        <time>2025-08-13T14:03:55.000Z</time>
      </trkpt>
      <trkpt lat="43.58308" lon="-1.45647">
        <ele>-20.200000762939</ele>
        <time>2025-08-13T14:04:05.000Z</time>
      </trkpt>
      <trkpt lat="43.5835" lon="-1.45642">
        <ele>-20.39999961853</ele>
        <time>2025-08-13T14:04:14.000Z</time>
      </trkpt>
      <trkpt lat="43.58381" lon="-1.45639">
        <ele>-20.39999961853</ele>
        <time>2025-08-13T14:04:21.000Z</time>
      </trkpt>
      <trkpt lat="43.58411" lon="-1.45635">
        <ele>-20.200000762939</ele>
        <time>2025-08-13T14:04:28.000Z</time>
      </trkpt>
      <trkpt lat="43.58455" lon="-1.45629">
        <ele>-20.200000762939</ele>
        <time>2025-08-13T14:04:37.000Z</time>
      </trkpt>
      <trkpt lat="43.58475" lon="-1.45628">
        <ele>-20.200000762939</ele>
        <time>2025-08-13T14:04:41.000Z</time>
      </trkpt>
      <trkpt lat="43.58483" lon="-1.45627">
        <ele>-20.200000762939</ele>
        <time>2025-08-13T14:04:43.000Z</time>
      </trkpt>
      <trkpt lat="43.58493" lon="-1.45627">
        <ele>-20.200000762939</ele>
        <time>2025-08-13T14:04:45.000Z</time>
      </trkpt>
      <trkpt lat="43.58507" lon="-1.45623">
        <ele>-20.200000762939</ele>
        <time>2025-08-13T14:04:48.000Z</time>
      </trkpt>
      <trkpt lat="43.58511" lon="-1.45621">
        <ele>-20.200000762939</ele>
        <time>2025-08-13T14:04:49.000Z</time>
      </trkpt>
      <trkpt lat="43.58519" lon="-1.45614">
        <ele>-20.200000762939</ele>
        <time>2025-08-13T14:04:51.000Z</time>
      </trkpt>
      <trkpt lat="43.58525" lon="-1.45604">
        <ele>-20.200000762939</ele>
        <time>2025-08-13T14:04:53.000Z</time>
      </trkpt>
      <trkpt lat="43.58528" lon="-1.45592">
        <ele>-20.200000762939</ele>
        <time>2025-08-13T14:04:55.000Z</time>
      </trkpt>
      <trkpt lat="43.58533" lon="-1.45585">
        <ele>-20.200000762939</ele>
        <time>2025-08-13T14:04:57.000Z</time>
      </trkpt>
      <trkpt lat="43.58543" lon="-1.45573">
        <ele>-20.200000762939</ele>
        <time>2025-08-13T14:05:00.000Z</time>
      </trkpt>
      <trkpt lat="43.58549" lon="-1.45566">
        <ele>-20</ele>
        <time>2025-08-13T14:05:02.000Z</time>
      </trkpt>
      <trkpt lat="43.58552" lon="-1.45567">
        <ele>-20</ele>
        <time>2025-08-13T14:05:03.000Z</time>
      </trkpt>
      <trkpt lat="43.58556" lon="-1.45574">
        <ele>-20</ele>
        <time>2025-08-13T14:05:05.000Z</time>
      </trkpt>
      <trkpt lat="43.58557" lon="-1.45578">
        <ele>-20</ele>
        <time>2025-08-13T14:05:06.000Z</time>
      </trkpt>
      <trkpt lat="43.58569" lon="-1.45604">
        <ele>-20.200000762939</ele>
        <time>2025-08-13T14:05:12.000Z</time>
      </trkpt>
      <trkpt lat="43.58584" lon="-1.45626">
        <ele>-20</ele>
        <time>2025-08-13T14:05:18.000Z</time>
      </trkpt>
      <trkpt lat="43.58602" lon="-1.4565">
        <ele>-19.60000038147</ele>
        <time>2025-08-13T14:05:24.000Z</time>
      </trkpt>
      <trkpt lat="43.58618" lon="-1.45668">
        <ele>-19.39999961853</ele>
        <time>2025-08-13T14:05:29.000Z</time>
      </trkpt>
      <trkpt lat="43.58624" lon="-1.45676">
        <ele>-19.39999961853</ele>
        <time>2025-08-13T14:05:31.000Z</time>
      </trkpt>
      <trkpt lat="43.58648" lon="-1.45703">
        <ele>-19.39999961853</ele>
        <time>2025-08-13T14:05:38.000Z</time>
      </trkpt>
      <trkpt lat="43.58655" lon="-1.45709">
        <ele>-19.39999961853</ele>
        <time>2025-08-13T14:05:40.000Z</time>
      </trkpt>
      <trkpt lat="43.58661" lon="-1.45715">
        <ele>-19.39999961853</ele>
        <time>2025-08-13T14:05:42.000Z</time>
      </trkpt>
      <trkpt lat="43.5868" lon="-1.45738">
        <ele>-19.200000762939</ele>
        <time>2025-08-13T14:05:47.000Z</time>
      </trkpt>
      <trkpt lat="43.58708" lon="-1.4577">
        <ele>-19.200000762939</ele>
        <time>2025-08-13T14:05:55.000Z</time>
      </trkpt>
      <trkpt lat="43.58734" lon="-1.45799">
        <ele>-19.39999961853</ele>
        <time>2025-08-13T14:06:02.000Z</time>
      </trkpt>
      <trkpt lat="43.58737" lon="-1.45803">
        <ele>-19.39999961853</ele>
        <time>2025-08-13T14:06:03.000Z</time>
      </trkpt>
      <trkpt lat="43.5877" lon="-1.4584">
        <ele>-19.60000038147</ele>
        <time>2025-08-13T14:06:11.000Z</time>
      </trkpt>
      <trkpt lat="43.58774" lon="-1.45843">
        <ele>-19.60000038147</ele>
        <time>2025-08-13T14:06:12.000Z</time>
      </trkpt>
      <trkpt lat="43.58788" lon="-1.45855">
        <ele>-19.60000038147</ele>
        <time>2025-08-13T14:06:16.000Z</time>
      </trkpt>
      <trkpt lat="43.58798" lon="-1.45864">
        <ele>-19.39999961853</ele>
        <time>2025-08-13T14:06:19.000Z</time>
      </trkpt>
      <trkpt lat="43.58804" lon="-1.45869">
        <ele>-19.39999961853</ele>
        <time>2025-08-13T14:06:21.000Z</time>
      </trkpt>
      <trkpt lat="43.58825" lon="-1.45886">
        <ele>-19.200000762939</ele>
        <time>2025-08-13T14:06:27.000Z</time>
      </trkpt>
      <trkpt lat="43.58855" lon="-1.45911">
        <ele>-19.200000762939</ele>
        <time>2025-08-13T14:06:35.000Z</time>
      </trkpt>
      <trkpt lat="43.58877" lon="-1.45929">
        <ele>-19</ele>
        <time>2025-08-13T14:06:40.000Z</time>
      </trkpt>
      <trkpt lat="43.58881" lon="-1.45931">
        <ele>-19</ele>
        <time>2025-08-13T14:06:41.000Z</time>
      </trkpt>
      <trkpt lat="43.58916" lon="-1.45953">
        <ele>-18.799999237061</ele>
        <time>2025-08-13T14:06:49.000Z</time>
      </trkpt>
      <trkpt lat="43.58924" lon="-1.45959">
        <ele>-19</ele>
        <time>2025-08-13T14:06:51.000Z</time>
      </trkpt>
      <trkpt lat="43.58933" lon="-1.45963">
        <ele>-19</ele>
        <time>2025-08-13T14:06:53.000Z</time>
      </trkpt>
      <trkpt lat="43.58949" lon="-1.45973">
        <ele>-19.200000762939</ele>
        <time>2025-08-13T14:06:57.000Z</time>
      </trkpt>
      <trkpt lat="43.58974" lon="-1.45987">
        <ele>-19.39999961853</ele>
        <time>2025-08-13T14:07:03.000Z</time>
      </trkpt>
      <trkpt lat="43.58978" lon="-1.45989">
        <ele>-19.39999961853</ele>
        <time>2025-08-13T14:07:04.000Z</time>
      </trkpt>
      <trkpt lat="43.59005" lon="-1.46">
        <ele>-19.39999961853</ele>
        <time>2025-08-13T14:07:10.000Z</time>
      </trkpt>
      <trkpt lat="43.5902" lon="-1.46009">
        <ele>-19.60000038147</ele>
        <time>2025-08-13T14:07:13.000Z</time>
      </trkpt>
      <trkpt lat="43.59035" lon="-1.46016">
        <ele>-19.60000038147</ele>
        <time>2025-08-13T14:07:16.000Z</time>
      </trkpt>
      <trkpt lat="43.59076" lon="-1.46034">
        <ele>-19.60000038147</ele>
        <time>2025-08-13T14:07:24.000Z</time>
      </trkpt>
      <trkpt lat="43.59105" lon="-1.4604">
        <ele>-19.60000038147</ele>
        <time>2025-08-13T14:07:30.000Z</time>
      </trkpt>
      <trkpt lat="43.59113" lon="-1.4604">
        <ele>-19.60000038147</ele>
        <time>2025-08-13T14:07:32.000Z</time>
      </trkpt>
      <trkpt lat="43.59129" lon="-1.46047">
        <ele>-19.60000038147</ele>
        <time>2025-08-13T14:07:35.000Z</time>
      </trkpt>
      <trkpt lat="43.59157" lon="-1.46057">
        <ele>-19.60000038147</ele>
        <time>2025-08-13T14:07:41.000Z</time>
      </trkpt>
      <trkpt lat="43.59167" lon="-1.46057">
        <ele>-19.60000038147</ele>
        <time>2025-08-13T14:07:43.000Z</time>
      </trkpt>
      <trkpt lat="43.59208" lon="-1.46062">
        <ele>-19.60000038147</ele>
        <time>2025-08-13T14:07:51.000Z</time>
      </trkpt>
      <trkpt lat="43.59256" lon="-1.46064">
        <ele>-19.39999961853</ele>
        <time>2025-08-13T14:08:01.000Z</time>
      </trkpt>
      <trkpt lat="43.59301" lon="-1.46068">
        <ele>-19.799999237061</ele>
        <time>2025-08-13T14:08:10.000Z</time>
      </trkpt>
      <trkpt lat="43.59326" lon="-1.46066">
        <ele>-19.200000762939</ele>
        <time>2025-08-13T14:08:16.000Z</time>
      </trkpt>
      <trkpt lat="43.59364" lon="-1.46065">
        <ele>-19.200000762939</ele>
        <time>2025-08-13T14:08:25.000Z</time>
      </trkpt>
      <trkpt lat="43.59373" lon="-1.46065">
        <ele>-19.200000762939</ele>
        <time>2025-08-13T14:08:27.000Z</time>
      </trkpt>
      <trkpt lat="43.59409" lon="-1.46063">
        <ele>-19.60000038147</ele>
        <time>2025-08-13T14:08:35.000Z</time>
      </trkpt>
      <trkpt lat="43.59447" lon="-1.46061">
        <ele>-19.60000038147</ele>
        <time>2025-08-13T14:08:43.000Z</time>
      </trkpt>
      <trkpt lat="43.59479" lon="-1.46056">
        <ele>-19.39999961853</ele>
        <time>2025-08-13T14:08:50.000Z</time>
      </trkpt>
      <trkpt lat="43.59516" lon="-1.46051">
        <ele>-19.39999961853</ele>
        <time>2025-08-13T14:08:58.000Z</time>
      </trkpt>
      <trkpt lat="43.59559" lon="-1.46045">
        <ele>-19.799999237061</ele>
        <time>2025-08-13T14:09:07.000Z</time>
      </trkpt>
      <trkpt lat="43.59563" lon="-1.46044">
        <ele>-19.799999237061</ele>
        <time>2025-08-13T14:09:08.000Z</time>
      </trkpt>
      <trkpt lat="43.5957" lon="-1.46038">
        <ele>-20</ele>
        <time>2025-08-13T14:09:10.000Z</time>
      </trkpt>
      <trkpt lat="43.59573" lon="-1.46034">
        <ele>-20</ele>
        <time>2025-08-13T14:09:11.000Z</time>
      </trkpt>
      <trkpt lat="43.59581" lon="-1.46023">
        <ele>-20.200000762939</ele>
        <time>2025-08-13T14:09:14.000Z</time>
      </trkpt>
      <trkpt lat="43.59587" lon="-1.46019">
        <ele>-20.39999961853</ele>
        <time>2025-08-13T14:09:16.000Z</time>
      </trkpt>
      <trkpt lat="43.5959" lon="-1.46018">
        <ele>-20.39999961853</ele>
        <time>2025-08-13T14:09:17.000Z</time>
      </trkpt>
      <trkpt lat="43.59595" lon="-1.46023">
        <ele>-20.60000038147</ele>
        <time>2025-08-13T14:09:19.000Z</time>
      </trkpt>
      <trkpt lat="43.59604" lon="-1.46025">
        <ele>-20.60000038147</ele>
        <time>2025-08-13T14:09:23.000Z</time>
      </trkpt>
      <trkpt lat="43.59611" lon="-1.46025">
        <ele>-20.39999961853</ele>
        <time>2025-08-13T14:09:29.000Z</time>
      </trkpt>
      <trkpt lat="43.59611" lon="-1.46025">
        <ele>-20.39999961853</ele>
        <time>2025-08-13T14:09:31.000Z</time>
      </trkpt>
      <trkpt lat="43.59615" lon="-1.46028">
        <ele>-20.60000038147</ele>
        <time>2025-08-13T14:11:38.000Z</time>
      </trkpt>
      <trkpt lat="43.59617" lon="-1.46028">
        <ele>-20.60000038147</ele>
        <time>2025-08-13T14:11:40.000Z</time>
      </trkpt>
      <trkpt lat="43.5962" lon="-1.46029">
        <ele>-20.60000038147</ele>
        <time>2025-08-13T14:11:44.000Z</time>
      </trkpt>
      <trkpt lat="43.59622" lon="-1.46028">
        <ele>-20.60000038147</ele>
        <time>2025-08-13T14:11:46.000Z</time>
      </trkpt>
      <trkpt lat="43.59622" lon="-1.46027">
        <ele>-20.60000038147</ele>
        <time>2025-08-13T14:11:47.000Z</time>
      </trkpt>
      <trkpt lat="43.59624" lon="-1.46026">
        <ele>-20.799999237061</ele>
        <time>2025-08-13T14:11:49.000Z</time>
      </trkpt>
      <trkpt lat="43.5963" lon="-1.46027">
        <ele>-20.799999237061</ele>
        <time>2025-08-13T14:11:53.000Z</time>
      </trkpt>
      <trkpt lat="43.59643" lon="-1.46024">
        <ele>-20.60000038147</ele>
        <time>2025-08-13T14:12:01.000Z</time>
      </trkpt>
      <trkpt lat="43.59662" lon="-1.46021">
        <ele>-20.60000038147</ele>
        <time>2025-08-13T14:12:08.000Z</time>
      </trkpt>
      <trkpt lat="43.59686" lon="-1.46019">
        <ele>-20.60000038147</ele>
        <time>2025-08-13T14:12:16.000Z</time>
      </trkpt>
      <trkpt lat="43.59701" lon="-1.46019">
        <ele>-20.200000762939</ele>
        <time>2025-08-13T14:12:22.000Z</time>
      </trkpt>
      <trkpt lat="43.59707" lon="-1.46019">
        <ele>-20.200000762939</ele>
        <time>2025-08-13T14:12:24.000Z</time>
      </trkpt>
      <trkpt lat="43.59719" lon="-1.46021">
        <ele>-20.200000762939</ele>
        <time>2025-08-13T14:12:28.000Z</time>
      </trkpt>
      <trkpt lat="43.59746" lon="-1.46023">
        <ele>-20.200000762939</ele>
        <time>2025-08-13T14:12:35.000Z</time>
      </trkpt>
      <trkpt lat="43.59773" lon="-1.46022">
        <ele>-20</ele>
        <time>2025-08-13T14:12:42.000Z</time>
      </trkpt>
      <trkpt lat="43.59801" lon="-1.46021">
        <ele>-19.799999237061</ele>
        <time>2025-08-13T14:12:49.000Z</time>
      </trkpt>
      <trkpt lat="43.59843" lon="-1.46013">
        <ele>-19.60000038147</ele>
        <time>2025-08-13T14:12:59.000Z</time>
      </trkpt>
      <trkpt lat="43.59876" lon="-1.46002">
        <ele>-19.39999961853</ele>
        <time>2025-08-13T14:13:06.000Z</time>
      </trkpt>
      <trkpt lat="43.59915" lon="-1.45987">
        <ele>-19.60000038147</ele>
        <time>2025-08-13T14:13:14.000Z</time>
      </trkpt>
      <trkpt lat="43.59965" lon="-1.45965">
        <ele>-19.60000038147</ele>
        <time>2025-08-13T14:13:25.000Z</time>
      </trkpt>
      <trkpt lat="43.59997" lon="-1.45944">
        <ele>-20</ele>
        <time>2025-08-13T14:13:32.000Z</time>
      </trkpt>
      <trkpt lat="43.6004" lon="-1.45913">
        <ele>-20.60000038147</ele>
        <time>2025-08-13T14:13:41.000Z</time>
      </trkpt>
      <trkpt lat="43.60054" lon="-1.45905">
        <ele>-20.39999961853</ele>
        <time>2025-08-13T14:13:44.000Z</time>
      </trkpt>
      <trkpt lat="43.60075" lon="-1.45892">
        <ele>-20</ele>
        <time>2025-08-13T14:13:49.000Z</time>
      </trkpt>
      <trkpt lat="43.6008" lon="-1.4589">
        <ele>-20</ele>
        <time>2025-08-13T14:13:50.000Z</time>
      </trkpt>
      <trkpt lat="43.60093" lon="-1.45883">
        <ele>-19.799999237061</ele>
        <time>2025-08-13T14:13:53.000Z</time>
      </trkpt>
      <trkpt lat="43.60097" lon="-1.4588">
        <ele>-19.799999237061</ele>
        <time>2025-08-13T14:13:54.000Z</time>
      </trkpt>
      <trkpt lat="43.60119" lon="-1.45862">
        <ele>-19.60000038147</ele>
        <time>2025-08-13T14:13:59.000Z</time>
      </trkpt>
      <trkpt lat="43.60132" lon="-1.45848">
        <ele>-19.39999961853</ele>
        <time>2025-08-13T14:14:02.000Z</time>
      </trkpt>
      <trkpt lat="43.60163" lon="-1.45814">
        <ele>-19.60000038147</ele>
        <time>2025-08-13T14:14:09.000Z</time>
      </trkpt>
      <trkpt lat="43.60187" lon="-1.45786">
        <ele>-19.799999237061</ele>
        <time>2025-08-13T14:14:15.000Z</time>
      </trkpt>
      <trkpt lat="43.60196" lon="-1.45776">
        <ele>-19.799999237061</ele>
        <time>2025-08-13T14:14:17.000Z</time>
      </trkpt>
      <trkpt lat="43.60206" lon="-1.45768">
        <ele>-19.799999237061</ele>
        <time>2025-08-13T14:14:19.000Z</time>
      </trkpt>
      <trkpt lat="43.60212" lon="-1.45764">
        <ele>-20</ele>
        <time>2025-08-13T14:14:20.000Z</time>
      </trkpt>
      <trkpt lat="43.60228" lon="-1.45753">
        <ele>-20.200000762939</ele>
        <time>2025-08-13T14:14:23.000Z</time>
      </trkpt>
      <trkpt lat="43.60244" lon="-1.45744">
        <ele>-20.39999961853</ele>
        <time>2025-08-13T14:14:26.000Z</time>
      </trkpt>
      <trkpt lat="43.60249" lon="-1.45741">
        <ele>-20.39999961853</ele>
        <time>2025-08-13T14:14:27.000Z</time>
      </trkpt>
      <trkpt lat="43.60265" lon="-1.45732">
        <ele>-20.60000038147</ele>
        <time>2025-08-13T14:14:30.000Z</time>
      </trkpt>
      <trkpt lat="43.60276" lon="-1.45726">
        <ele>-20.60000038147</ele>
        <time>2025-08-13T14:14:32.000Z</time>
      </trkpt>
      <trkpt lat="43.60298" lon="-1.45715">
        <ele>-20.60000038147</ele>
        <time>2025-08-13T14:14:36.000Z</time>
      </trkpt>
      <trkpt lat="43.60308" lon="-1.4571">
        <ele>-20.60000038147</ele>
        <time>2025-08-13T14:14:38.000Z</time>
      </trkpt>
      <trkpt lat="43.60323" lon="-1.45703">
        <ele>-20.60000038147</ele>
        <time>2025-08-13T14:14:41.000Z</time>
      </trkpt>
      <trkpt lat="43.60352" lon="-1.4569">
        <ele>-20.60000038147</ele>
        <time>2025-08-13T14:14:47.000Z</time>
      </trkpt>
      <trkpt lat="43.60375" lon="-1.45685">
        <ele>-20.799999237061</ele>
        <time>2025-08-13T14:14:53.000Z</time>
      </trkpt>
      <trkpt lat="43.60379" lon="-1.45684">
        <ele>-20.799999237061</ele>
        <time>2025-08-13T14:14:54.000Z</time>
      </trkpt>
      <trkpt lat="43.60398" lon="-1.45678">
        <ele>-20.799999237061</ele>
        <time>2025-08-13T14:14:59.000Z</time>
      </trkpt>
      <trkpt lat="43.60441" lon="-1.45663">
        <ele>-20.60000038147</ele>
        <time>2025-08-13T14:15:10.000Z</time>
      </trkpt>
      <trkpt lat="43.60472" lon="-1.45652">
        <ele>-20.60000038147</ele>
        <time>2025-08-13T14:15:18.000Z</time>
      </trkpt>
      <trkpt lat="43.60505" lon="-1.4563">
        <ele>-21.200000762939</ele>
        <time>2025-08-13T14:15:27.000Z</time>
      </trkpt>
      <trkpt lat="43.60509" lon="-1.45626">
        <ele>-21</ele>
        <time>2025-08-13T14:15:28.000Z</time>
      </trkpt>
      <trkpt lat="43.60524" lon="-1.45609">
        <ele>-21</ele>
        <time>2025-08-13T14:15:32.000Z</time>
      </trkpt>
      <trkpt lat="43.60533" lon="-1.45603">
        <ele>-21</ele>
        <time>2025-08-13T14:15:34.000Z</time>
      </trkpt>
      <trkpt lat="43.60552" lon="-1.45584">
        <ele>-21</ele>
        <time>2025-08-13T14:15:38.000Z</time>
      </trkpt>
      <trkpt lat="43.60567" lon="-1.45569">
        <ele>-21</ele>
        <time>2025-08-13T14:15:41.000Z</time>
      </trkpt>
      <trkpt lat="43.6058" lon="-1.45553">
        <ele>-21</ele>
        <time>2025-08-13T14:15:44.000Z</time>
      </trkpt>
      <trkpt lat="43.60583" lon="-1.45549">
        <ele>-21</ele>
        <time>2025-08-13T14:15:45.000Z</time>
      </trkpt>
      <trkpt lat="43.60594" lon="-1.45535">
        <ele>-21</ele>
        <time>2025-08-13T14:15:48.000Z</time>
      </trkpt>
      <trkpt lat="43.60619" lon="-1.45509">
        <ele>-21.39999961853</ele>
        <time>2025-08-13T14:15:54.000Z</time>
      </trkpt>
      <trkpt lat="43.60638" lon="-1.45492">
        <ele>-21.39999961853</ele>
        <time>2025-08-13T14:15:58.000Z</time>
      </trkpt>
      <trkpt lat="43.60648" lon="-1.45487">
        <ele>-21.200000762939</ele>
        <time>2025-08-13T14:16:00.000Z</time>
      </trkpt>
      <trkpt lat="43.6067" lon="-1.45478">
        <ele>-21.200000762939</ele>
        <time>2025-08-13T14:16:04.000Z</time>
      </trkpt>
      <trkpt lat="43.60688" lon="-1.45474">
        <ele>-21.200000762939</ele>
        <time>2025-08-13T14:16:07.000Z</time>
      </trkpt>
      <trkpt lat="43.60713" lon="-1.45468">
        <ele>-21.39999961853</ele>
        <time>2025-08-13T14:16:12.000Z</time>
      </trkpt>
      <trkpt lat="43.60718" lon="-1.45469">
        <ele>-21.39999961853</ele>
        <time>2025-08-13T14:16:13.000Z</time>
      </trkpt>
      <trkpt lat="43.60745" lon="-1.45473">
        <ele>-21.200000762939</ele>
        <time>2025-08-13T14:16:19.000Z</time>
      </trkpt>
      <trkpt lat="43.60754" lon="-1.45472">
        <ele>-21</ele>
        <time>2025-08-13T14:16:21.000Z</time>
      </trkpt>
      <trkpt lat="43.60774" lon="-1.45468">
        <ele>-20.799999237061</ele>
        <time>2025-08-13T14:16:25.000Z</time>
      </trkpt>
      <trkpt lat="43.60783" lon="-1.45465">
        <ele>-20.799999237061</ele>
        <time>2025-08-13T14:16:27.000Z</time>
      </trkpt>
      <trkpt lat="43.60793" lon="-1.45462">
        <ele>-20.60000038147</ele>
        <time>2025-08-13T14:16:29.000Z</time>
      </trkpt>
      <trkpt lat="43.60803" lon="-1.45459">
        <ele>-20.60000038147</ele>
        <time>2025-08-13T14:16:31.000Z</time>
      </trkpt>
      <trkpt lat="43.60847" lon="-1.45443">
        <ele>-20.799999237061</ele>
        <time>2025-08-13T14:16:39.000Z</time>
      </trkpt>
      <trkpt lat="43.60853" lon="-1.45441">
        <ele>-20.799999237061</ele>
        <time>2025-08-13T14:16:40.000Z</time>
      </trkpt>
      <trkpt lat="43.60893" lon="-1.45433">
        <ele>-20.799999237061</ele>
        <time>2025-08-13T14:16:47.000Z</time>
      </trkpt>
      <trkpt lat="43.60935" lon="-1.45434">
        <ele>-20.799999237061</ele>
        <time>2025-08-13T14:16:54.000Z</time>
      </trkpt>
      <trkpt lat="43.60957" lon="-1.45439">
        <ele>-21</ele>
        <time>2025-08-13T14:16:58.000Z</time>
      </trkpt>
      <trkpt lat="43.60967" lon="-1.45445">
        <ele>-21.200000762939</ele>
        <time>2025-08-13T14:17:00.000Z</time>
      </trkpt>
      <trkpt lat="43.60992" lon="-1.45464">
        <ele>-21.39999961853</ele>
        <time>2025-08-13T14:17:06.000Z</time>
      </trkpt>
      <trkpt lat="43.61001" lon="-1.45467">
        <ele>-21.39999961853</ele>
        <time>2025-08-13T14:17:08.000Z</time>
      </trkpt>
      <trkpt lat="43.6104" lon="-1.45471">
        <ele>-21.200000762939</ele>
        <time>2025-08-13T14:17:16.000Z</time>
      </trkpt>
      <trkpt lat="43.61065" lon="-1.45473">
        <ele>-21.200000762939</ele>
        <time>2025-08-13T14:17:21.000Z</time>
      </trkpt>
      <trkpt lat="43.61075" lon="-1.45473">
        <ele>-21</ele>
        <time>2025-08-13T14:17:23.000Z</time>
      </trkpt>
      <trkpt lat="43.61101" lon="-1.45466">
        <ele>-20.799999237061</ele>
        <time>2025-08-13T14:17:29.000Z</time>
      </trkpt>
      <trkpt lat="43.61127" lon="-1.45448">
        <ele>-20.60000038147</ele>
        <time>2025-08-13T14:17:35.000Z</time>
      </trkpt>
      <trkpt lat="43.6114" lon="-1.45437">
        <ele>-20.39999961853</ele>
        <time>2025-08-13T14:17:38.000Z</time>
      </trkpt>
      <trkpt lat="43.61157" lon="-1.4542">
        <ele>-20.39999961853</ele>
        <time>2025-08-13T14:17:42.000Z</time>
      </trkpt>
      <trkpt lat="43.6116" lon="-1.45413">
        <ele>-20.39999961853</ele>
        <time>2025-08-13T14:17:43.000Z</time>
      </trkpt>
      <trkpt lat="43.6118" lon="-1.4539">
        <ele>-20.39999961853</ele>
        <time>2025-08-13T14:17:47.000Z</time>
      </trkpt>
      <trkpt lat="43.6121" lon="-1.45356">
        <ele>-20.60000038147</ele>
        <time>2025-08-13T14:17:55.000Z</time>
      </trkpt>
      <trkpt lat="43.61237" lon="-1.45321">
        <ele>-20.799999237061</ele>
        <time>2025-08-13T14:18:02.000Z</time>
      </trkpt>
      <trkpt lat="43.61241" lon="-1.45315">
        <ele>-20.799999237061</ele>
        <time>2025-08-13T14:18:03.000Z</time>
      </trkpt>
      <trkpt lat="43.61247" lon="-1.45305">
        <ele>-21</ele>
        <time>2025-08-13T14:18:05.000Z</time>
      </trkpt>
      <trkpt lat="43.61251" lon="-1.45302">
        <ele>-21</ele>
        <time>2025-08-13T14:18:06.000Z</time>
      </trkpt>
      <trkpt lat="43.61255" lon="-1.45298">
        <ele>-21</ele>
        <time>2025-08-13T14:18:07.000Z</time>
      </trkpt>
      <trkpt lat="43.61267" lon="-1.45287">
        <ele>-21</ele>
        <time>2025-08-13T14:18:10.000Z</time>
      </trkpt>
      <trkpt lat="43.61271" lon="-1.45283">
        <ele>-21</ele>
        <time>2025-08-13T14:18:11.000Z</time>
      </trkpt>
      <trkpt lat="43.61291" lon="-1.45262">
        <ele>-20.799999237061</ele>
        <time>2025-08-13T14:18:16.000Z</time>
      </trkpt>
      <trkpt lat="43.61299" lon="-1.45253">
        <ele>-20.60000038147</ele>
        <time>2025-08-13T14:18:18.000Z</time>
      </trkpt>
      <trkpt lat="43.61323" lon="-1.45222">
        <ele>-20.799999237061</ele>
        <time>2025-08-13T14:18:24.000Z</time>
      </trkpt>
      <trkpt lat="43.61331" lon="-1.45214">
        <ele>-21</ele>
        <time>2025-08-13T14:18:26.000Z</time>
      </trkpt>
      <trkpt lat="43.61342" lon="-1.45203">
        <ele>-21</ele>
        <time>2025-08-13T14:18:29.000Z</time>
      </trkpt>
      <trkpt lat="43.61366" lon="-1.45176">
        <ele>-21.200000762939</ele>
        <time>2025-08-13T14:18:35.000Z</time>
      </trkpt>
      <trkpt lat="43.61374" lon="-1.45168">
        <ele>-21.200000762939</ele>
        <time>2025-08-13T14:18:37.000Z</time>
      </trkpt>
      <trkpt lat="43.61385" lon="-1.45153">
        <ele>-21.200000762939</ele>
        <time>2025-08-13T14:18:40.000Z</time>
      </trkpt>
      <trkpt lat="43.61408" lon="-1.45122">
        <ele>-21.39999961853</ele>
        <time>2025-08-13T14:18:46.000Z</time>
      </trkpt>
      <trkpt lat="43.61436" lon="-1.45078">
        <ele>-21.200000762939</ele>
        <time>2025-08-13T14:18:54.000Z</time>
      </trkpt>
      <trkpt lat="43.6144" lon="-1.45074">
        <ele>-21.200000762939</ele>
        <time>2025-08-13T14:18:55.000Z</time>
      </trkpt>
      <trkpt lat="43.61444" lon="-1.45069">
        <ele>-21.200000762939</ele>
        <time>2025-08-13T14:18:56.000Z</time>
      </trkpt>
      <trkpt lat="43.61451" lon="-1.45055">
        <ele>-21.200000762939</ele>
        <time>2025-08-13T14:18:58.000Z</time>
      </trkpt>
      <trkpt lat="43.61461" lon="-1.45037">
        <ele>-21.200000762939</ele>
        <time>2025-08-13T14:19:01.000Z</time>
      </trkpt>
      <trkpt lat="43.61464" lon="-1.45033">
        <ele>-21.200000762939</ele>
        <time>2025-08-13T14:19:02.000Z</time>
      </trkpt>
      <trkpt lat="43.61471" lon="-1.45023">
        <ele>-21.200000762939</ele>
        <time>2025-08-13T14:19:04.000Z</time>
      </trkpt>
      <trkpt lat="43.61477" lon="-1.45012">
        <ele>-21.39999961853</ele>
        <time>2025-08-13T14:19:06.000Z</time>
      </trkpt>
      <trkpt lat="43.61499" lon="-1.44968">
        <ele>-21.39999961853</ele>
        <time>2025-08-13T14:19:14.000Z</time>
      </trkpt>
      <trkpt lat="43.61517" lon="-1.44937">
        <ele>-21.200000762939</ele>
        <time>2025-08-13T14:19:20.000Z</time>
      </trkpt>
      <trkpt lat="43.61529" lon="-1.44914">
        <ele>-21.39999961853</ele>
        <time>2025-08-13T14:19:24.000Z</time>
      </trkpt>
      <trkpt lat="43.61532" lon="-1.44909">
        <ele>-21.39999961853</ele>
        <time>2025-08-13T14:19:25.000Z</time>
      </trkpt>
      <trkpt lat="43.61538" lon="-1.44897">
        <ele>-21.39999961853</ele>
        <time>2025-08-13T14:19:27.000Z</time>
      </trkpt>
      <trkpt lat="43.61561" lon="-1.44856">
        <ele>-21.39999961853</ele>
        <time>2025-08-13T14:19:34.000Z</time>
      </trkpt>
      <trkpt lat="43.61586" lon="-1.44805">
        <ele>-21.60000038147</ele>
        <time>2025-08-13T14:19:42.000Z</time>
      </trkpt>
      <trkpt lat="43.61602" lon="-1.44776">
        <ele>-21.60000038147</ele>
        <time>2025-08-13T14:19:47.000Z</time>
      </trkpt>
      <trkpt lat="43.61612" lon="-1.4476">
        <ele>-21.60000038147</ele>
        <time>2025-08-13T14:19:50.000Z</time>
      </trkpt>
      <trkpt lat="43.61619" lon="-1.44748">
        <ele>-21.60000038147</ele>
        <time>2025-08-13T14:19:52.000Z</time>
      </trkpt>
      <trkpt lat="43.61639" lon="-1.44709">
        <ele>-21.799999237061</ele>
        <time>2025-08-13T14:19:58.000Z</time>
      </trkpt>
      <trkpt lat="43.61645" lon="-1.44696">
        <ele>-21.799999237061</ele>
        <time>2025-08-13T14:20:00.000Z</time>
      </trkpt>
      <trkpt lat="43.61657" lon="-1.44662">
        <ele>-21.799999237061</ele>
        <time>2025-08-13T14:20:05.000Z</time>
      </trkpt>
      <trkpt lat="43.61677" lon="-1.44608">
        <ele>-21.60000038147</ele>
        <time>2025-08-13T14:20:13.000Z</time>
      </trkpt>
      <trkpt lat="43.61704" lon="-1.44554">
        <ele>-21.799999237061</ele>
        <time>2025-08-13T14:20:22.000Z</time>
      </trkpt>
      <trkpt lat="43.61707" lon="-1.44549">
        <ele>-21.799999237061</ele>
        <time>2025-08-13T14:20:23.000Z</time>
      </trkpt>
      <trkpt lat="43.61724" lon="-1.44533">
        <ele>-22</ele>
        <time>2025-08-13T14:20:27.000Z</time>
      </trkpt>
      <trkpt lat="43.61748" lon="-1.44517">
        <ele>-22</ele>
        <time>2025-08-13T14:20:32.000Z</time>
      </trkpt>
      <trkpt lat="43.61753" lon="-1.44515">
        <ele>-22</ele>
        <time>2025-08-13T14:20:33.000Z</time>
      </trkpt>
      <trkpt lat="43.61758" lon="-1.44515">
        <ele>-22</ele>
        <time>2025-08-13T14:20:34.000Z</time>
      </trkpt>
      <trkpt lat="43.61777" lon="-1.44511">
        <ele>-22</ele>
        <time>2025-08-13T14:20:38.000Z</time>
      </trkpt>
      <trkpt lat="43.61793" lon="-1.44506">
        <ele>-22</ele>
        <time>2025-08-13T14:20:41.000Z</time>
      </trkpt>
      <trkpt lat="43.61797" lon="-1.44504">
        <ele>-22</ele>
        <time>2025-08-13T14:20:42.000Z</time>
      </trkpt>
      <trkpt lat="43.61831" lon="-1.44479">
        <ele>-21.799999237061</ele>
        <time>2025-08-13T14:20:50.000Z</time>
      </trkpt>
      <trkpt lat="43.6184" lon="-1.44472">
        <ele>-21.799999237061</ele>
        <time>2025-08-13T14:20:52.000Z</time>
      </trkpt>
      <trkpt lat="43.61848" lon="-1.44465">
        <ele>-21.60000038147</ele>
        <time>2025-08-13T14:20:54.000Z</time>
      </trkpt>
      <trkpt lat="43.61852" lon="-1.44462">
        <ele>-21.60000038147</ele>
        <time>2025-08-13T14:20:55.000Z</time>
      </trkpt>
      <trkpt lat="43.61873" lon="-1.4445">
        <ele>-21.60000038147</ele>
        <time>2025-08-13T14:20:59.000Z</time>
      </trkpt>
      <trkpt lat="43.61877" lon="-1.44446">
        <ele>-21.60000038147</ele>
        <time>2025-08-13T14:21:00.000Z</time>
      </trkpt>
      <trkpt lat="43.61904" lon="-1.44425">
        <ele>-21.799999237061</ele>
        <time>2025-08-13T14:21:05.000Z</time>
      </trkpt>
      <trkpt lat="43.61916" lon="-1.44417">
        <ele>-21.799999237061</ele>
        <time>2025-08-13T14:21:07.000Z</time>
      </trkpt>
      <trkpt lat="43.61936" lon="-1.44408">
        <ele>-22</ele>
        <time>2025-08-13T14:21:10.000Z</time>
      </trkpt>
      <trkpt lat="43.61953" lon="-1.444">
        <ele>-22.200000762939</ele>
        <time>2025-08-13T14:21:13.000Z</time>
      </trkpt>
      <trkpt lat="43.61964" lon="-1.44395">
        <ele>-22.200000762939</ele>
        <time>2025-08-13T14:21:15.000Z</time>
      </trkpt>
      <trkpt lat="43.61969" lon="-1.44392">
        <ele>-22.200000762939</ele>
        <time>2025-08-13T14:21:16.000Z</time>
      </trkpt>
      <trkpt lat="43.62001" lon="-1.44373">
        <ele>-22.39999961853</ele>
        <time>2025-08-13T14:21:22.000Z</time>
      </trkpt>
      <trkpt lat="43.62016" lon="-1.44364">
        <ele>-22.200000762939</ele>
        <time>2025-08-13T14:21:25.000Z</time>
      </trkpt>
      <trkpt lat="43.62037" lon="-1.44354">
        <ele>-22</ele>
        <time>2025-08-13T14:21:29.000Z</time>
      </trkpt>
      <trkpt lat="43.62076" lon="-1.44334">
        <ele>-21.799999237061</ele>
        <time>2025-08-13T14:21:37.000Z</time>
      </trkpt>
      <trkpt lat="43.62096" lon="-1.44323">
        <ele>-21.799999237061</ele>
        <time>2025-08-13T14:21:41.000Z</time>
      </trkpt>
      <trkpt lat="43.62107" lon="-1.44318">
        <ele>-22</ele>
        <time>2025-08-13T14:21:43.000Z</time>
      </trkpt>
      <trkpt lat="43.62128" lon="-1.44308">
        <ele>-22.39999961853</ele>
        <time>2025-08-13T14:21:47.000Z</time>
      </trkpt>
      <trkpt lat="43.62139" lon="-1.44305">
        <ele>-22.200000762939</ele>
        <time>2025-08-13T14:21:49.000Z</time>
      </trkpt>
      <trkpt lat="43.62165" lon="-1.44294">
        <ele>-22.60000038147</ele>
        <time>2025-08-13T14:21:55.000Z</time>
      </trkpt>
      <trkpt lat="43.62173" lon="-1.4429">
        <ele>-22.39999961853</ele>
        <time>2025-08-13T14:21:59.000Z</time>
      </trkpt>
      <trkpt lat="43.62174" lon="-1.44288">
        <ele>-22.39999961853</ele>
        <time>2025-08-13T14:22:00.000Z</time>
      </trkpt>
      <trkpt lat="43.62174" lon="-1.44279">
        <ele>-22.200000762939</ele>
        <time>2025-08-13T14:22:03.000Z</time>
      </trkpt>
      <trkpt lat="43.62172" lon="-1.44252">
        <ele>-21.799999237061</ele>
        <time>2025-08-13T14:22:10.000Z</time>
      </trkpt>
      <trkpt lat="43.62169" lon="-1.44227">
        <ele>-21.60000038147</ele>
        <time>2025-08-13T14:22:15.000Z</time>
      </trkpt>
      <trkpt lat="43.62168" lon="-1.44189">
        <ele>-21.60000038147</ele>
        <time>2025-08-13T14:22:22.000Z</time>
      </trkpt>
      <trkpt lat="43.62173" lon="-1.44148">
        <ele>-22</ele>
        <time>2025-08-13T14:22:29.000Z</time>
      </trkpt>
      <trkpt lat="43.62174" lon="-1.44142">
        <ele>-22</ele>
        <time>2025-08-13T14:22:30.000Z</time>
      </trkpt>
      <trkpt lat="43.62179" lon="-1.44092">
        <ele>-22</ele>
        <time>2025-08-13T14:22:39.000Z</time>
      </trkpt>
      <trkpt lat="43.62179" lon="-1.44086">
        <ele>-22</ele>
        <time>2025-08-13T14:22:40.000Z</time>
      </trkpt>
      <trkpt lat="43.62176" lon="-1.44067">
        <ele>-22</ele>
        <time>2025-08-13T14:22:44.000Z</time>
      </trkpt>
      <trkpt lat="43.62165" lon="-1.44024">
        <ele>-21.799999237061</ele>
        <time>2025-08-13T14:22:52.000Z</time>
      </trkpt>
      <trkpt lat="43.62158" lon="-1.44011">
        <ele>-22</ele>
        <time>2025-08-13T14:22:55.000Z</time>
      </trkpt>
      <trkpt lat="43.62151" lon="-1.43999">
        <ele>-22</ele>
        <time>2025-08-13T14:22:58.000Z</time>
      </trkpt>
      <trkpt lat="43.62148" lon="-1.43989">
        <ele>-22</ele>
        <time>2025-08-13T14:23:00.000Z</time>
      </trkpt>
      <trkpt lat="43.62151" lon="-1.43983">
        <ele>-22</ele>
        <time>2025-08-13T14:23:02.000Z</time>
      </trkpt>
      <trkpt lat="43.62166" lon="-1.43977">
        <ele>-22</ele>
        <time>2025-08-13T14:23:06.000Z</time>
      </trkpt>
      <trkpt lat="43.62194" lon="-1.43959">
        <ele>-21.799999237061</ele>
        <time>2025-08-13T14:23:13.000Z</time>
      </trkpt>
      <trkpt lat="43.62198" lon="-1.43957">
        <ele>-21.799999237061</ele>
        <time>2025-08-13T14:23:14.000Z</time>
      </trkpt>
      <trkpt lat="43.62207" lon="-1.43952">
        <ele>-21.799999237061</ele>
        <time>2025-08-13T14:23:16.000Z</time>
      </trkpt>
      <trkpt lat="43.62224" lon="-1.43942">
        <ele>-21.799999237061</ele>
        <time>2025-08-13T14:23:20.000Z</time>
      </trkpt>
      <trkpt lat="43.62244" lon="-1.43928">
        <ele>-21.799999237061</ele>
        <time>2025-08-13T14:23:25.000Z</time>
      </trkpt>
      <trkpt lat="43.62248" lon="-1.43924">
        <ele>-21.799999237061</ele>
        <time>2025-08-13T14:23:26.000Z</time>
      </trkpt>
      <trkpt lat="43.62281" lon="-1.439">
        <ele>-21.799999237061</ele>
        <time>2025-08-13T14:23:34.000Z</time>
      </trkpt>
      <trkpt lat="43.62307" lon="-1.43881">
        <ele>-21.799999237061</ele>
        <time>2025-08-13T14:23:40.000Z</time>
      </trkpt>
      <trkpt lat="43.62318" lon="-1.43871">
        <ele>-21.799999237061</ele>
        <time>2025-08-13T14:23:43.000Z</time>
      </trkpt>
      <trkpt lat="43.62338" lon="-1.43855">
        <ele>-21.60000038147</ele>
        <time>2025-08-13T14:23:48.000Z</time>
      </trkpt>
      <trkpt lat="43.62342" lon="-1.43853">
        <ele>-21.60000038147</ele>
        <time>2025-08-13T14:23:49.000Z</time>
      </trkpt>
      <trkpt lat="43.62357" lon="-1.43841">
        <ele>-21.39999961853</ele>
        <time>2025-08-13T14:23:53.000Z</time>
      </trkpt>
      <trkpt lat="43.62368" lon="-1.43833">
        <ele>-21.39999961853</ele>
        <time>2025-08-13T14:23:56.000Z</time>
      </trkpt>
      <trkpt lat="43.62397" lon="-1.43811">
        <ele>-21.60000038147</ele>
        <time>2025-08-13T14:24:03.000Z</time>
      </trkpt>
      <trkpt lat="43.62406" lon="-1.43805">
        <ele>-21.60000038147</ele>
        <time>2025-08-13T14:24:05.000Z</time>
      </trkpt>
      <trkpt lat="43.62413" lon="-1.438">
        <ele>-21.60000038147</ele>
        <time>2025-08-13T14:24:07.000Z</time>
      </trkpt>
      <trkpt lat="43.62422" lon="-1.43794">
        <ele>-21.799999237061</ele>
        <time>2025-08-13T14:24:09.000Z</time>
      </trkpt>
      <trkpt lat="43.62437" lon="-1.43787">
        <ele>-21.799999237061</ele>
        <time>2025-08-13T14:24:12.000Z</time>
      </trkpt>
      <trkpt lat="43.6245" lon="-1.43778">
        <ele>-21.799999237061</ele>
        <time>2025-08-13T14:24:15.000Z</time>
      </trkpt>
      <trkpt lat="43.62455" lon="-1.43775">
        <ele>-21.799999237061</ele>
        <time>2025-08-13T14:24:16.000Z</time>
      </trkpt>
      <trkpt lat="43.62488" lon="-1.43752">
        <ele>-21.39999961853</ele>
        <time>2025-08-13T14:24:24.000Z</time>
      </trkpt>
      <trkpt lat="43.62495" lon="-1.43746">
        <ele>-21.39999961853</ele>
        <time>2025-08-13T14:24:26.000Z</time>
      </trkpt>
      <trkpt lat="43.62515" lon="-1.43733">
        <ele>-21.200000762939</ele>
        <time>2025-08-13T14:24:31.000Z</time>
      </trkpt>
      <trkpt lat="43.62553" lon="-1.43705">
        <ele>-21.39999961853</ele>
        <time>2025-08-13T14:24:40.000Z</time>
      </trkpt>
      <trkpt lat="43.6259" lon="-1.43679">
        <ele>-21.200000762939</ele>
        <time>2025-08-13T14:24:49.000Z</time>
      </trkpt>
      <trkpt lat="43.6262" lon="-1.4366">
        <ele>-21</ele>
        <time>2025-08-13T14:24:56.000Z</time>
      </trkpt>
      <trkpt lat="43.62651" lon="-1.43638">
        <ele>-21</ele>
        <time>2025-08-13T14:25:03.000Z</time>
      </trkpt>
      <trkpt lat="43.6268" lon="-1.43617">
        <ele>-20.799999237061</ele>
        <time>2025-08-13T14:25:10.000Z</time>
      </trkpt>
      <trkpt lat="43.62708" lon="-1.43599">
        <ele>-20.60000038147</ele>
        <time>2025-08-13T14:25:17.000Z</time>
      </trkpt>
      <trkpt lat="43.62725" lon="-1.43588">
        <ele>-20.60000038147</ele>
        <time>2025-08-13T14:25:21.000Z</time>
      </trkpt>
      <trkpt lat="43.62732" lon="-1.43582">
        <ele>-20.39999961853</ele>
        <time>2025-08-13T14:25:23.000Z</time>
      </trkpt>
      <trkpt lat="43.62736" lon="-1.43578">
        <ele>-20.39999961853</ele>
        <time>2025-08-13T14:25:24.000Z</time>
      </trkpt>
      <trkpt lat="43.62768" lon="-1.43555">
        <ele>-20.200000762939</ele>
        <time>2025-08-13T14:25:32.000Z</time>
      </trkpt>
      <trkpt lat="43.62781" lon="-1.43547">
        <ele>-20.200000762939</ele>
        <time>2025-08-13T14:25:35.000Z</time>
      </trkpt>
      <trkpt lat="43.62794" lon="-1.43537">
        <ele>-20.200000762939</ele>
        <time>2025-08-13T14:25:38.000Z</time>
      </trkpt>
      <trkpt lat="43.62798" lon="-1.43535">
        <ele>-20.200000762939</ele>
        <time>2025-08-13T14:25:39.000Z</time>
      </trkpt>
      <trkpt lat="43.62814" lon="-1.43525">
        <ele>-20.200000762939</ele>
        <time>2025-08-13T14:25:43.000Z</time>
      </trkpt>
      <trkpt lat="43.62849" lon="-1.43499">
        <ele>-20.200000762939</ele>
        <time>2025-08-13T14:25:51.000Z</time>
      </trkpt>
      <trkpt lat="43.62879" lon="-1.43477">
        <ele>-20.200000762939</ele>
        <time>2025-08-13T14:25:58.000Z</time>
      </trkpt>
      <trkpt lat="43.62883" lon="-1.43478">
        <ele>-20.200000762939</ele>
        <time>2025-08-13T14:25:59.000Z</time>
      </trkpt>
      <trkpt lat="43.62887" lon="-1.4348">
        <ele>-20.200000762939</ele>
        <time>2025-08-13T14:26:00.000Z</time>
      </trkpt>
      <trkpt lat="43.62892" lon="-1.4349">
        <ele>-20</ele>
        <time>2025-08-13T14:26:02.000Z</time>
      </trkpt>
      <trkpt lat="43.62894" lon="-1.43509">
        <ele>-20</ele>
        <time>2025-08-13T14:26:05.000Z</time>
      </trkpt>
      <trkpt lat="43.62897" lon="-1.43522">
        <ele>-20</ele>
        <time>2025-08-13T14:26:07.000Z</time>
      </trkpt>
      <trkpt lat="43.62903" lon="-1.43532">
        <ele>-19.799999237061</ele>
        <time>2025-08-13T14:26:09.000Z</time>
      </trkpt>
      <trkpt lat="43.62907" lon="-1.43535">
        <ele>-19.799999237061</ele>
        <time>2025-08-13T14:26:10.000Z</time>
      </trkpt>
      <trkpt lat="43.62925" lon="-1.43546">
        <ele>-19.799999237061</ele>
        <time>2025-08-13T14:26:14.000Z</time>
      </trkpt>
      <trkpt lat="43.62942" lon="-1.43555">
        <ele>-20</ele>
        <time>2025-08-13T14:26:17.000Z</time>
      </trkpt>
      <trkpt lat="43.62984" lon="-1.43582">
        <ele>-20.39999961853</ele>
        <time>2025-08-13T14:26:24.000Z</time>
      </trkpt>
      <trkpt lat="43.63035" lon="-1.43612">
        <ele>-21.200000762939</ele>
        <time>2025-08-13T14:26:33.000Z</time>
      </trkpt>
      <trkpt lat="43.63045" lon="-1.43617">
        <ele>-21.60000038147</ele>
        <time>2025-08-13T14:26:35.000Z</time>
      </trkpt>
      <trkpt lat="43.63049" lon="-1.43619">
        <ele>-21.799999237061</ele>
        <time>2025-08-13T14:26:36.000Z</time>
      </trkpt>
      <trkpt lat="43.63072" lon="-1.43633">
        <ele>-22</ele>
        <time>2025-08-13T14:26:41.000Z</time>
      </trkpt>
      <trkpt lat="43.63086" lon="-1.43642">
        <ele>-22</ele>
        <time>2025-08-13T14:26:44.000Z</time>
      </trkpt>
      <trkpt lat="43.63094" lon="-1.43647">
        <ele>-22</ele>
        <time>2025-08-13T14:26:46.000Z</time>
      </trkpt>
      <trkpt lat="43.63103" lon="-1.43653">
        <ele>-21.799999237061</ele>
        <time>2025-08-13T14:26:48.000Z</time>
      </trkpt>
      <trkpt lat="43.63136" lon="-1.43676">
        <ele>-21.799999237061</ele>
        <time>2025-08-13T14:26:54.000Z</time>
      </trkpt>
      <trkpt lat="43.63163" lon="-1.43701">
        <ele>-22.200000762939</ele>
        <time>2025-08-13T14:27:00.000Z</time>
      </trkpt>
      <trkpt lat="43.63206" lon="-1.43744">
        <ele>-22.200000762939</ele>
        <time>2025-08-13T14:27:10.000Z</time>
      </trkpt>
      <trkpt lat="43.63227" lon="-1.43767">
        <ele>-22.200000762939</ele>
        <time>2025-08-13T14:27:16.000Z</time>
      </trkpt>
      <trkpt lat="43.63253" lon="-1.43797">
        <ele>-22.60000038147</ele>
        <time>2025-08-13T14:27:23.000Z</time>
      </trkpt>
      <trkpt lat="43.63255" lon="-1.43802">
        <ele>-22.799999237061</ele>
        <time>2025-08-13T14:27:24.000Z</time>
      </trkpt>
      <trkpt lat="43.63258" lon="-1.43806">
        <ele>-22.799999237061</ele>
        <time>2025-08-13T14:27:25.000Z</time>
      </trkpt>
      <trkpt lat="43.63272" lon="-1.43824">
        <ele>-22.60000038147</ele>
        <time>2025-08-13T14:27:30.000Z</time>
      </trkpt>
      <trkpt lat="43.63283" lon="-1.43835">
        <ele>-22.39999961853</ele>
        <time>2025-08-13T14:27:34.000Z</time>
      </trkpt>
      <trkpt lat="43.63297" lon="-1.43847">
        <ele>-22.39999961853</ele>
        <time>2025-08-13T14:27:38.000Z</time>
      </trkpt>
      <trkpt lat="43.63304" lon="-1.43856">
        <ele>-22.39999961853</ele>
        <time>2025-08-13T14:27:40.000Z</time>
      </trkpt>
      <trkpt lat="43.63314" lon="-1.43867">
        <ele>-22.39999961853</ele>
        <time>2025-08-13T14:27:43.000Z</time>
      </trkpt>
      <trkpt lat="43.63325" lon="-1.43877">
        <ele>-22.39999961853</ele>
        <time>2025-08-13T14:27:46.000Z</time>
      </trkpt>
      <trkpt lat="43.6337" lon="-1.43896">
        <ele>-22.60000038147</ele>
        <time>2025-08-13T14:27:56.000Z</time>
      </trkpt>
      <trkpt lat="43.63388" lon="-1.43903">
        <ele>-22.60000038147</ele>
        <time>2025-08-13T14:28:00.000Z</time>
      </trkpt>
      <trkpt lat="43.63397" lon="-1.43905">
        <ele>-22.60000038147</ele>
        <time>2025-08-13T14:28:02.000Z</time>
      </trkpt>
      <trkpt lat="43.63402" lon="-1.43905">
        <ele>-22.799999237061</ele>
        <time>2025-08-13T14:28:03.000Z</time>
      </trkpt>
      <trkpt lat="43.63419" lon="-1.43906">
        <ele>-22.799999237061</ele>
        <time>2025-08-13T14:28:07.000Z</time>
      </trkpt>
      <trkpt lat="43.63437" lon="-1.43904">
        <ele>-23</ele>
        <time>2025-08-13T14:28:11.000Z</time>
      </trkpt>
      <trkpt lat="43.63469" lon="-1.43902">
        <ele>-23</ele>
        <time>2025-08-13T14:28:19.000Z</time>
      </trkpt>
      <trkpt lat="43.63483" lon="-1.439">
        <ele>-23</ele>
        <time>2025-08-13T14:28:22.000Z</time>
      </trkpt>
      <trkpt lat="43.63498" lon="-1.43896">
        <ele>-23</ele>
        <time>2025-08-13T14:28:25.000Z</time>
      </trkpt>
      <trkpt lat="43.63518" lon="-1.43891">
        <ele>-23</ele>
        <time>2025-08-13T14:28:29.000Z</time>
      </trkpt>
      <trkpt lat="43.63528" lon="-1.4389">
        <ele>-23</ele>
        <time>2025-08-13T14:28:31.000Z</time>
      </trkpt>
      <trkpt lat="43.63571" lon="-1.4388">
        <ele>-23</ele>
        <time>2025-08-13T14:28:40.000Z</time>
      </trkpt>
      <trkpt lat="43.63612" lon="-1.43868">
        <ele>-23</ele>
        <time>2025-08-13T14:28:49.000Z</time>
      </trkpt>
      <trkpt lat="43.63627" lon="-1.43863">
        <ele>-23</ele>
        <time>2025-08-13T14:28:52.000Z</time>
      </trkpt>
      <trkpt lat="43.63644" lon="-1.43853">
        <ele>-23</ele>
        <time>2025-08-13T14:28:56.000Z</time>
      </trkpt>
      <trkpt lat="43.63657" lon="-1.43845">
        <ele>-23</ele>
        <time>2025-08-13T14:28:59.000Z</time>
      </trkpt>
      <trkpt lat="43.63668" lon="-1.43834">
        <ele>-23</ele>
        <time>2025-08-13T14:29:02.000Z</time>
      </trkpt>
      <trkpt lat="43.63689" lon="-1.43824">
        <ele>-23</ele>
        <time>2025-08-13T14:29:08.000Z</time>
      </trkpt>
      <trkpt lat="43.63704" lon="-1.43829">
        <ele>-23</ele>
        <time>2025-08-13T14:29:13.000Z</time>
      </trkpt>
      <trkpt lat="43.6371" lon="-1.43834">
        <ele>-22.799999237061</ele>
        <time>2025-08-13T14:29:16.000Z</time>
      </trkpt>
      <trkpt lat="43.63712" lon="-1.43834">
        <ele>-22.799999237061</ele>
        <time>2025-08-13T14:29:17.000Z</time>
      </trkpt>
      <trkpt lat="43.63723" lon="-1.43829">
        <ele>-22.60000038147</ele>
        <time>2025-08-13T14:29:22.000Z</time>
      </trkpt>
      <trkpt lat="43.63733" lon="-1.43806">
        <ele>-22.60000038147</ele>
        <time>2025-08-13T14:29:28.000Z</time>
      </trkpt>
      <trkpt lat="43.63748" lon="-1.43775">
        <ele>-22.39999961853</ele>
        <time>2025-08-13T14:29:35.000Z</time>
      </trkpt>
      <trkpt lat="43.6377" lon="-1.43746">
        <ele>-22.39999961853</ele>
        <time>2025-08-13T14:29:42.000Z</time>
      </trkpt>
      <trkpt lat="43.63798" lon="-1.43713">
        <ele>-22.799999237061</ele>
        <time>2025-08-13T14:29:50.000Z</time>
      </trkpt>
      <trkpt lat="43.63829" lon="-1.43678">
        <ele>-22.799999237061</ele>
        <time>2025-08-13T14:29:59.000Z</time>
      </trkpt>
      <trkpt lat="43.63832" lon="-1.43675">
        <ele>-22.799999237061</ele>
        <time>2025-08-13T14:30:00.000Z</time>
      </trkpt>
      <trkpt lat="43.63846" lon="-1.43665">
        <ele>-22.60000038147</ele>
        <time>2025-08-13T14:30:04.000Z</time>
      </trkpt>
      <trkpt lat="43.63853" lon="-1.43664">
        <ele>-22.60000038147</ele>
        <time>2025-08-13T14:30:06.000Z</time>
      </trkpt>
      <trkpt lat="43.63871" lon="-1.4367">
        <ele>-22.39999961853</ele>
        <time>2025-08-13T14:30:11.000Z</time>
      </trkpt>
      <trkpt lat="43.63889" lon="-1.43686">
        <ele>-22.39999961853</ele>
        <time>2025-08-13T14:30:16.000Z</time>
      </trkpt>
      <trkpt lat="43.63913" lon="-1.4371">
        <ele>-22.200000762939</ele>
        <time>2025-08-13T14:30:24.000Z</time>
      </trkpt>
      <trkpt lat="43.63935" lon="-1.4373">
        <ele>-22.60000038147</ele>
        <time>2025-08-13T14:30:32.000Z</time>
      </trkpt>
      <trkpt lat="43.63948" lon="-1.43756">
        <ele>-22.60000038147</ele>
        <time>2025-08-13T14:30:39.000Z</time>
      </trkpt>
      <trkpt lat="43.63956" lon="-1.43802">
        <ele>-22.60000038147</ele>
        <time>2025-08-13T14:30:47.000Z</time>
      </trkpt>
      <trkpt lat="43.63963" lon="-1.43847">
        <ele>-22.799999237061</ele>
        <time>2025-08-13T14:30:55.000Z</time>
      </trkpt>
      <trkpt lat="43.63968" lon="-1.43876">
        <ele>-22.39999961853</ele>
        <time>2025-08-13T14:31:01.000Z</time>
      </trkpt>
      <trkpt lat="43.63977" lon="-1.43928">
        <ele>-22</ele>
        <time>2025-08-13T14:31:11.000Z</time>
      </trkpt>
      <trkpt lat="43.63981" lon="-1.43955">
        <ele>-22</ele>
        <time>2025-08-13T14:31:16.000Z</time>
      </trkpt>
      <trkpt lat="43.63985" lon="-1.43971">
        <ele>-22</ele>
        <time>2025-08-13T14:31:19.000Z</time>
      </trkpt>
      <trkpt lat="43.63988" lon="-1.43982">
        <ele>-22</ele>
        <time>2025-08-13T14:31:21.000Z</time>
      </trkpt>
      <trkpt lat="43.63996" lon="-1.43997">
        <ele>-22</ele>
        <time>2025-08-13T14:31:24.000Z</time>
      </trkpt>
      <trkpt lat="43.63999" lon="-1.44001">
        <ele>-22</ele>
        <time>2025-08-13T14:31:25.000Z</time>
      </trkpt>
      <trkpt lat="43.64011" lon="-1.44016">
        <ele>-21.799999237061</ele>
        <time>2025-08-13T14:31:29.000Z</time>
      </trkpt>
      <trkpt lat="43.64027" lon="-1.44039">
        <ele>-21.39999961853</ele>
        <time>2025-08-13T14:31:36.000Z</time>
      </trkpt>
      <trkpt lat="43.64044" lon="-1.44062">
        <ele>-20.799999237061</ele>
        <time>2025-08-13T14:31:44.000Z</time>
      </trkpt>
      <trkpt lat="43.64068" lon="-1.44094">
        <ele>-21</ele>
        <time>2025-08-13T14:31:53.000Z</time>
      </trkpt>
      <trkpt lat="43.64094" lon="-1.44129">
        <ele>-21</ele>
        <time>2025-08-13T14:32:02.000Z</time>
      </trkpt>
      <trkpt lat="43.64111" lon="-1.44159">
        <ele>-21.200000762939</ele>
        <time>2025-08-13T14:32:10.000Z</time>
      </trkpt>
      <trkpt lat="43.64119" lon="-1.44171">
        <ele>-21.200000762939</ele>
        <time>2025-08-13T14:32:15.000Z</time>
      </trkpt>
      <trkpt lat="43.6412" lon="-1.44172">
        <ele>-21</ele>
        <time>2025-08-13T14:32:20.000Z</time>
      </trkpt>
      <trkpt lat="43.64125" lon="-1.44173">
        <ele>-21</ele>
        <time>2025-08-13T14:32:54.000Z</time>
      </trkpt>
      <trkpt lat="43.6413" lon="-1.44171">
        <ele>-20.799999237061</ele>
        <time>2025-08-13T14:32:57.000Z</time>
      </trkpt>
      <trkpt lat="43.64131" lon="-1.4417">
        <ele>-21</ele>
        <time>2025-08-13T14:32:58.000Z</time>
      </trkpt>
      <trkpt lat="43.64131" lon="-1.44169">
        <ele>-21</ele>
        <time>2025-08-13T14:33:00.000Z</time>
      </trkpt>
      <trkpt lat="43.64132" lon="-1.44162">
        <ele>-21.200000762939</ele>
        <time>2025-08-13T14:33:05.000Z</time>
      </trkpt>
      <trkpt lat="43.64141" lon="-1.44155">
        <ele>-21</ele>
        <time>2025-08-13T14:33:09.000Z</time>
      </trkpt>
      <trkpt lat="43.64158" lon="-1.44157">
        <ele>-21</ele>
        <time>2025-08-13T14:33:14.000Z</time>
      </trkpt>
      <trkpt lat="43.64185" lon="-1.4416">
        <ele>-21.200000762939</ele>
        <time>2025-08-13T14:33:23.000Z</time>
      </trkpt>
      <trkpt lat="43.64208" lon="-1.44158">
        <ele>-21.200000762939</ele>
        <time>2025-08-13T14:33:30.000Z</time>
      </trkpt>
      <trkpt lat="43.64236" lon="-1.44152">
        <ele>-21.200000762939</ele>
        <time>2025-08-13T14:33:36.000Z</time>
      </trkpt>
      <trkpt lat="43.64256" lon="-1.44146">
        <ele>-21</ele>
        <time>2025-08-13T14:33:41.000Z</time>
      </trkpt>
      <trkpt lat="43.6426" lon="-1.44145">
        <ele>-20.799999237061</ele>
        <time>2025-08-13T14:33:42.000Z</time>
      </trkpt>
      <trkpt lat="43.64289" lon="-1.4414">
        <ele>-20.60000038147</ele>
        <time>2025-08-13T14:33:48.000Z</time>
      </trkpt>
      <trkpt lat="43.64326" lon="-1.44132">
        <ele>-20.39999961853</ele>
        <time>2025-08-13T14:33:56.000Z</time>
      </trkpt>
      <trkpt lat="43.64346" lon="-1.44127">
        <ele>-20.200000762939</ele>
        <time>2025-08-13T14:34:01.000Z</time>
      </trkpt>
      <trkpt lat="43.64353" lon="-1.44126">
        <ele>-20</ele>
        <time>2025-08-13T14:34:03.000Z</time>
      </trkpt>
      <trkpt lat="43.64371" lon="-1.44122">
        <ele>-19.39999961853</ele>
        <time>2025-08-13T14:34:09.000Z</time>
      </trkpt>
      <trkpt lat="43.64386" lon="-1.44119">
        <ele>-18.39999961853</ele>
        <time>2025-08-13T14:34:15.000Z</time>
      </trkpt>
      <trkpt lat="43.64391" lon="-1.44118">
        <ele>-18</ele>
        <time>2025-08-13T14:34:17.000Z</time>
      </trkpt>
      <trkpt lat="43.64403" lon="-1.44114">
        <ele>-17.200000762939</ele>
        <time>2025-08-13T14:34:22.000Z</time>
      </trkpt>
      <trkpt lat="43.64409" lon="-1.44113">
        <ele>-16.799999237061</ele>
        <time>2025-08-13T14:34:24.000Z</time>
      </trkpt>
      <trkpt lat="43.64426" lon="-1.44107">
        <ele>-16.200000762939</ele>
        <time>2025-08-13T14:34:30.000Z</time>
      </trkpt>
      <trkpt lat="43.64429" lon="-1.44106">
        <ele>-16</ele>
        <time>2025-08-13T14:34:31.000Z</time>
      </trkpt>
      <trkpt lat="43.6446" lon="-1.44094">
        <ele>-15.800000190735</ele>
        <time>2025-08-13T14:34:40.000Z</time>
      </trkpt>
      <trkpt lat="43.64488" lon="-1.44081">
        <ele>-16.200000762939</ele>
        <time>2025-08-13T14:34:45.000Z</time>
      </trkpt>
      <trkpt lat="43.64513" lon="-1.44069">
        <ele>-17.200000762939</ele>
        <time>2025-08-13T14:34:49.000Z</time>
      </trkpt>
      <trkpt lat="43.64531" lon="-1.4406">
        <ele>-18</ele>
        <time>2025-08-13T14:34:52.000Z</time>
      </trkpt>
      <trkpt lat="43.64543" lon="-1.44055">
        <ele>-18.39999961853</ele>
        <time>2025-08-13T14:34:54.000Z</time>
      </trkpt>
      <trkpt lat="43.64576" lon="-1.4404">
        <ele>-19.39999961853</ele>
        <time>2025-08-13T14:35:00.000Z</time>
      </trkpt>
      <trkpt lat="43.64581" lon="-1.44038">
        <ele>-19.39999961853</ele>
        <time>2025-08-13T14:35:01.000Z</time>
      </trkpt>
      <trkpt lat="43.64612" lon="-1.44024">
        <ele>-19.60000038147</ele>
        <time>2025-08-13T14:35:08.000Z</time>
      </trkpt>
      <trkpt lat="43.64616" lon="-1.44023">
        <ele>-19.60000038147</ele>
        <time>2025-08-13T14:35:09.000Z</time>
      </trkpt>
      <trkpt lat="43.64637" lon="-1.44015">
        <ele>-19.60000038147</ele>
        <time>2025-08-13T14:35:14.000Z</time>
      </trkpt>
      <trkpt lat="43.64641" lon="-1.44012">
        <ele>-19.39999961853</ele>
        <time>2025-08-13T14:35:15.000Z</time>
      </trkpt>
      <trkpt lat="43.64649" lon="-1.44007">
        <ele>-19.200000762939</ele>
        <time>2025-08-13T14:35:17.000Z</time>
      </trkpt>
      <trkpt lat="43.6466" lon="-1.43999">
        <ele>-19</ele>
        <time>2025-08-13T14:35:20.000Z</time>
      </trkpt>
      <trkpt lat="43.64689" lon="-1.43979">
        <ele>-19</ele>
        <time>2025-08-13T14:35:28.000Z</time>
      </trkpt>
      <trkpt lat="43.64707" lon="-1.43963">
        <ele>-19</ele>
        <time>2025-08-13T14:35:35.000Z</time>
      </trkpt>
      <trkpt lat="43.64705" lon="-1.43948">
        <ele>-19</ele>
        <time>2025-08-13T14:35:39.000Z</time>
      </trkpt>
      <trkpt lat="43.64695" lon="-1.4393">
        <ele>-19</ele>
        <time>2025-08-13T14:35:43.000Z</time>
      </trkpt>
      <trkpt lat="43.64673" lon="-1.43895">
        <ele>-19.39999961853</ele>
        <time>2025-08-13T14:35:49.000Z</time>
      </trkpt>
      <trkpt lat="43.6465" lon="-1.43855">
        <ele>-20.39999961853</ele>
        <time>2025-08-13T14:35:55.000Z</time>
      </trkpt>
      <trkpt lat="43.64642" lon="-1.43843">
        <ele>-20.799999237061</ele>
        <time>2025-08-13T14:35:57.000Z</time>
      </trkpt>
      <trkpt lat="43.64624" lon="-1.43813">
        <ele>-20.799999237061</ele>
        <time>2025-08-13T14:36:02.000Z</time>
      </trkpt>
      <trkpt lat="43.64617" lon="-1.43801">
        <ele>-21</ele>
        <time>2025-08-13T14:36:04.000Z</time>
      </trkpt>
      <trkpt lat="43.64614" lon="-1.43797">
        <ele>-21</ele>
        <time>2025-08-13T14:36:05.000Z</time>
      </trkpt>
      <trkpt lat="43.64607" lon="-1.43785">
        <ele>-21.200000762939</ele>
        <time>2025-08-13T14:36:07.000Z</time>
      </trkpt>
      <trkpt lat="43.646" lon="-1.43775">
        <ele>-21.200000762939</ele>
        <time>2025-08-13T14:36:09.000Z</time>
      </trkpt>
      <trkpt lat="43.64597" lon="-1.43769">
        <ele>-21.200000762939</ele>
        <time>2025-08-13T14:36:10.000Z</time>
      </trkpt>
      <trkpt lat="43.64591" lon="-1.43758">
        <ele>-21.39999961853</ele>
        <time>2025-08-13T14:36:12.000Z</time>
      </trkpt>
      <trkpt lat="43.64582" lon="-1.43741">
        <ele>-21.39999961853</ele>
        <time>2025-08-13T14:36:15.000Z</time>
      </trkpt>
      <trkpt lat="43.64556" lon="-1.43697">
        <ele>-21.39999961853</ele>
        <time>2025-08-13T14:36:24.000Z</time>
      </trkpt>
      <trkpt lat="43.64554" lon="-1.43693">
        <ele>-21.39999961853</ele>
        <time>2025-08-13T14:36:25.000Z</time>
      </trkpt>
      <trkpt lat="43.64529" lon="-1.43647">
        <ele>-21.39999961853</ele>
        <time>2025-08-13T14:36:34.000Z</time>
      </trkpt>
      <trkpt lat="43.64504" lon="-1.43604">
        <ele>-21.39999961853</ele>
        <time>2025-08-13T14:36:42.000Z</time>
      </trkpt>
      <trkpt lat="43.64477" lon="-1.43556">
        <ele>-21.39999961853</ele>
        <time>2025-08-13T14:36:51.000Z</time>
      </trkpt>
      <trkpt lat="43.64458" lon="-1.43516">
        <ele>-21.39999961853</ele>
        <time>2025-08-13T14:36:58.000Z</time>
      </trkpt>
      <trkpt lat="43.64454" lon="-1.43505">
        <ele>-21.60000038147</ele>
        <time>2025-08-13T14:37:00.000Z</time>
      </trkpt>
      <trkpt lat="43.64449" lon="-1.43489">
        <ele>-21.60000038147</ele>
        <time>2025-08-13T14:37:03.000Z</time>
      </trkpt>
      <trkpt lat="43.64434" lon="-1.43438">
        <ele>-21.60000038147</ele>
        <time>2025-08-13T14:37:12.000Z</time>
      </trkpt>
      <trkpt lat="43.64431" lon="-1.4342">
        <ele>-21.60000038147</ele>
        <time>2025-08-13T14:37:17.000Z</time>
      </trkpt>
      <trkpt lat="43.64425" lon="-1.43402">
        <ele>-21.39999961853</ele>
        <time>2025-08-13T14:37:22.000Z</time>
      </trkpt>
      <trkpt lat="43.64417" lon="-1.43368">
        <ele>-21.200000762939</ele>
        <time>2025-08-13T14:37:31.000Z</time>
      </trkpt>
      <trkpt lat="43.64413" lon="-1.43345">
        <ele>-20.60000038147</ele>
        <time>2025-08-13T14:37:38.000Z</time>
      </trkpt>
      <trkpt lat="43.64412" lon="-1.43337">
        <ele>-20.60000038147</ele>
        <time>2025-08-13T14:37:41.000Z</time>
      </trkpt>
      <trkpt lat="43.64413" lon="-1.43334">
        <ele>-20.39999961853</ele>
        <time>2025-08-13T14:37:43.000Z</time>
      </trkpt>
      <trkpt lat="43.64426" lon="-1.4333">
        <ele>-20.200000762939</ele>
        <time>2025-08-13T14:37:48.000Z</time>
      </trkpt>
      <trkpt lat="43.64431" lon="-1.4333">
        <ele>-20.200000762939</ele>
        <time>2025-08-13T14:37:49.000Z</time>
      </trkpt>
      <trkpt lat="43.64447" lon="-1.4333">
        <ele>-20.200000762939</ele>
        <time>2025-08-13T14:37:52.000Z</time>
      </trkpt>
      <trkpt lat="43.64464" lon="-1.43327">
        <ele>-20.39999961853</ele>
        <time>2025-08-13T14:37:55.000Z</time>
      </trkpt>
      <trkpt lat="43.6448" lon="-1.43329">
        <ele>-20.799999237061</ele>
        <time>2025-08-13T14:37:58.000Z</time>
      </trkpt>
      <trkpt lat="43.64496" lon="-1.43331">
        <ele>-21.200000762939</ele>
        <time>2025-08-13T14:38:01.000Z</time>
      </trkpt>
      <trkpt lat="43.6452" lon="-1.43333">
        <ele>-21.39999961853</ele>
        <time>2025-08-13T14:38:06.000Z</time>
      </trkpt>
      <trkpt lat="43.6454" lon="-1.43336">
        <ele>-21.39999961853</ele>
        <time>2025-08-13T14:38:10.000Z</time>
      </trkpt>
      <trkpt lat="43.64545" lon="-1.43336">
        <ele>-21.39999961853</ele>
        <time>2025-08-13T14:38:11.000Z</time>
      </trkpt>
      <trkpt lat="43.6456" lon="-1.43339">
        <ele>-21.60000038147</ele>
        <time>2025-08-13T14:38:14.000Z</time>
      </trkpt>
      <trkpt lat="43.64574" lon="-1.43344">
        <ele>-21.60000038147</ele>
        <time>2025-08-13T14:38:17.000Z</time>
      </trkpt>
      <trkpt lat="43.64607" lon="-1.43353">
        <ele>-21.60000038147</ele>
        <time>2025-08-13T14:38:24.000Z</time>
      </trkpt>
      <trkpt lat="43.64638" lon="-1.43375">
        <ele>-21.39999961853</ele>
        <time>2025-08-13T14:38:31.000Z</time>
      </trkpt>
      <trkpt lat="43.64662" lon="-1.43404">
        <ele>-21.39999961853</ele>
        <time>2025-08-13T14:38:38.000Z</time>
      </trkpt>
      <trkpt lat="43.64675" lon="-1.43421">
        <ele>-21.39999961853</ele>
        <time>2025-08-13T14:38:42.000Z</time>
      </trkpt>
      <trkpt lat="43.64677" lon="-1.43426">
        <ele>-21.39999961853</ele>
        <time>2025-08-13T14:38:43.000Z</time>
      </trkpt>
      <trkpt lat="43.64683" lon="-1.43435">
        <ele>-21.200000762939</ele>
        <time>2025-08-13T14:38:45.000Z</time>
      </trkpt>
      <trkpt lat="43.64701" lon="-1.43457">
        <ele>-21.200000762939</ele>
        <time>2025-08-13T14:38:50.000Z</time>
      </trkpt>
      <trkpt lat="43.64707" lon="-1.43466">
        <ele>-21.200000762939</ele>
        <time>2025-08-13T14:38:52.000Z</time>
      </trkpt>
      <trkpt lat="43.64708" lon="-1.43478">
        <ele>-21</ele>
        <time>2025-08-13T14:38:54.000Z</time>
      </trkpt>
      <trkpt lat="43.64706" lon="-1.43495">
        <ele>-21</ele>
        <time>2025-08-13T14:38:57.000Z</time>
      </trkpt>
      <trkpt lat="43.6471" lon="-1.43505">
        <ele>-21</ele>
        <time>2025-08-13T14:38:59.000Z</time>
      </trkpt>
      <trkpt lat="43.64719" lon="-1.43511">
        <ele>-21</ele>
        <time>2025-08-13T14:39:01.000Z</time>
      </trkpt>
      <trkpt lat="43.64728" lon="-1.43514">
        <ele>-21</ele>
        <time>2025-08-13T14:39:03.000Z</time>
      </trkpt>
      <trkpt lat="43.64764" lon="-1.43529">
        <ele>-20.799999237061</ele>
        <time>2025-08-13T14:39:11.000Z</time>
      </trkpt>
      <trkpt lat="43.64792" lon="-1.4354">
        <ele>-20.799999237061</ele>
        <time>2025-08-13T14:39:17.000Z</time>
      </trkpt>
      <trkpt lat="43.64824" lon="-1.4355">
        <ele>-21</ele>
        <time>2025-08-13T14:39:24.000Z</time>
      </trkpt>
      <trkpt lat="43.64857" lon="-1.43559">
        <ele>-21</ele>
        <time>2025-08-13T14:39:32.000Z</time>
      </trkpt>
      <trkpt lat="43.64867" lon="-1.43559">
        <ele>-21</ele>
        <time>2025-08-13T14:39:35.000Z</time>
      </trkpt>
      <trkpt lat="43.64869" lon="-1.43557">
        <ele>-20.799999237061</ele>
        <time>2025-08-13T14:39:36.000Z</time>
      </trkpt>
      <trkpt lat="43.64871" lon="-1.43555">
        <ele>-20.799999237061</ele>
        <time>2025-08-13T14:39:39.000Z</time>
      </trkpt>
      <trkpt lat="43.64876" lon="-1.4355">
        <ele>-20.799999237061</ele>
        <time>2025-08-13T14:40:46.000Z</time>
      </trkpt>
      <trkpt lat="43.64878" lon="-1.43548">
        <ele>-20.799999237061</ele>
        <time>2025-08-13T14:40:47.000Z</time>
      </trkpt>
      <trkpt lat="43.64879" lon="-1.43548">
        <ele>-20.799999237061</ele>
        <time>2025-08-13T14:40:48.000Z</time>
      </trkpt>
      <trkpt lat="43.64884" lon="-1.43548">
        <ele>-20.799999237061</ele>
        <time>2025-08-13T14:40:52.000Z</time>
      </trkpt>
      <trkpt lat="43.64885" lon="-1.43547">
        <ele>-20.799999237061</ele>
        <time>2025-08-13T14:40:53.000Z</time>
      </trkpt>
      <trkpt lat="43.64888" lon="-1.43532">
        <ele>-20.60000038147</ele>
        <time>2025-08-13T14:40:58.000Z</time>
      </trkpt>
      <trkpt lat="43.6489" lon="-1.4352">
        <ele>-20.60000038147</ele>
        <time>2025-08-13T14:41:01.000Z</time>
      </trkpt>
      <trkpt lat="43.64892" lon="-1.43517">
        <ele>-20.60000038147</ele>
        <time>2025-08-13T14:41:02.000Z</time>
      </trkpt>
      <trkpt lat="43.64894" lon="-1.43516">
        <ele>-20.60000038147</ele>
        <time>2025-08-13T14:41:03.000Z</time>
      </trkpt>
      <trkpt lat="43.64913" lon="-1.43518">
        <ele>-20.799999237061</ele>
        <time>2025-08-13T14:41:08.000Z</time>
      </trkpt>
      <trkpt lat="43.64931" lon="-1.4351">
        <ele>-20.60000038147</ele>
        <time>2025-08-13T14:41:13.000Z</time>
      </trkpt>
      <trkpt lat="43.64942" lon="-1.43488">
        <ele>-21</ele>
        <time>2025-08-13T14:41:18.000Z</time>
      </trkpt>
      <trkpt lat="43.64955" lon="-1.43466">
        <ele>-21</ele>
        <time>2025-08-13T14:41:24.000Z</time>
      </trkpt>
      <trkpt lat="43.64966" lon="-1.43442">
        <ele>-21</ele>
        <time>2025-08-13T14:41:30.000Z</time>
      </trkpt>
      <trkpt lat="43.64983" lon="-1.43425">
        <ele>-21</ele>
        <time>2025-08-13T14:41:36.000Z</time>
      </trkpt>
      <trkpt lat="43.64997" lon="-1.43422">
        <ele>-21</ele>
        <time>2025-08-13T14:41:40.000Z</time>
      </trkpt>
      <trkpt lat="43.65025" lon="-1.43434">
        <ele>-21</ele>
        <time>2025-08-13T14:41:48.000Z</time>
      </trkpt>
      <trkpt lat="43.65066" lon="-1.43453">
        <ele>-20.799999237061</ele>
        <time>2025-08-13T14:41:59.000Z</time>
      </trkpt>
      <trkpt lat="43.65082" lon="-1.43463">
        <ele>-20.799999237061</ele>
        <time>2025-08-13T14:42:03.000Z</time>
      </trkpt>
      <trkpt lat="43.65087" lon="-1.43465">
        <ele>-20.799999237061</ele>
        <time>2025-08-13T14:42:04.000Z</time>
      </trkpt>
      <trkpt lat="43.65095" lon="-1.43469">
        <ele>-20.799999237061</ele>
        <time>2025-08-13T14:42:06.000Z</time>
      </trkpt>
      <trkpt lat="43.65116" lon="-1.43477">
        <ele>-20.799999237061</ele>
        <time>2025-08-13T14:42:10.000Z</time>
      </trkpt>
      <trkpt lat="43.65141" lon="-1.43487">
        <ele>-20.60000038147</ele>
        <time>2025-08-13T14:42:16.000Z</time>
      </trkpt>
      <trkpt lat="43.65157" lon="-1.43488">
        <ele>-20.60000038147</ele>
        <time>2025-08-13T14:42:21.000Z</time>
      </trkpt>
      <trkpt lat="43.65167" lon="-1.43478">
        <ele>-20.60000038147</ele>
        <time>2025-08-13T14:42:25.000Z</time>
      </trkpt>
      <trkpt lat="43.65176" lon="-1.43472">
        <ele>-20.60000038147</ele>
        <time>2025-08-13T14:42:28.000Z</time>
      </trkpt>
      <trkpt lat="43.65182" lon="-1.43474">
        <ele>-20.60000038147</ele>
        <time>2025-08-13T14:42:30.000Z</time>
      </trkpt>
      <trkpt lat="43.65201" lon="-1.43477">
        <ele>-20.799999237061</ele>
        <time>2025-08-13T14:42:36.000Z</time>
      </trkpt>
      <trkpt lat="43.65219" lon="-1.43457">
        <ele>-20.799999237061</ele>
        <time>2025-08-13T14:42:42.000Z</time>
      </trkpt>
      <trkpt lat="43.65231" lon="-1.43436">
        <ele>-20.799999237061</ele>
        <time>2025-08-13T14:42:47.000Z</time>
      </trkpt>
      <trkpt lat="43.65228" lon="-1.43422">
        <ele>-20.799999237061</ele>
        <time>2025-08-13T14:42:50.000Z</time>
      </trkpt>
      <trkpt lat="43.65211" lon="-1.43398">
        <ele>-20.799999237061</ele>
        <time>2025-08-13T14:42:57.000Z</time>
      </trkpt>
      <trkpt lat="43.65209" lon="-1.43391">
        <ele>-20.799999237061</ele>
        <time>2025-08-13T14:42:59.000Z</time>
      </trkpt>
      <trkpt lat="43.65211" lon="-1.43387">
        <ele>-20.799999237061</ele>
        <time>2025-08-13T14:43:00.000Z</time>
      </trkpt>
      <trkpt lat="43.65219" lon="-1.43364">
        <ele>-20.799999237061</ele>
        <time>2025-08-13T14:43:06.000Z</time>
      </trkpt>
      <trkpt lat="43.65238" lon="-1.43315">
        <ele>-20.799999237061</ele>
        <time>2025-08-13T14:43:17.000Z</time>
      </trkpt>
      <trkpt lat="43.65257" lon="-1.43264">
        <ele>-20.39999961853</ele>
        <time>2025-08-13T14:43:27.000Z</time>
      </trkpt>
      <trkpt lat="43.65266" lon="-1.43244">
        <ele>-20.39999961853</ele>
        <time>2025-08-13T14:43:31.000Z</time>
      </trkpt>
      <trkpt lat="43.65268" lon="-1.43233">
        <ele>-20.39999961853</ele>
        <time>2025-08-13T14:43:33.000Z</time>
      </trkpt>
      <trkpt lat="43.65269" lon="-1.43226">
        <ele>-20.39999961853</ele>
        <time>2025-08-13T14:43:34.000Z</time>
      </trkpt>
      <trkpt lat="43.65269" lon="-1.4322">
        <ele>-20.39999961853</ele>
        <time>2025-08-13T14:43:35.000Z</time>
      </trkpt>
      <trkpt lat="43.65274" lon="-1.43194">
        <ele>-20.60000038147</ele>
        <time>2025-08-13T14:43:39.000Z</time>
      </trkpt>
      <trkpt lat="43.65285" lon="-1.43149">
        <ele>-20.799999237061</ele>
        <time>2025-08-13T14:43:46.000Z</time>
      </trkpt>
      <trkpt lat="43.65301" lon="-1.43091">
        <ele>-20.60000038147</ele>
        <time>2025-08-13T14:43:55.000Z</time>
      </trkpt>
      <trkpt lat="43.65309" lon="-1.43061">
        <ele>-20.60000038147</ele>
        <time>2025-08-13T14:44:00.000Z</time>
      </trkpt>
      <trkpt lat="43.65315" lon="-1.43053">
        <ele>-20.799999237061</ele>
        <time>2025-08-13T14:44:02.000Z</time>
      </trkpt>
      <trkpt lat="43.65332" lon="-1.43048">
        <ele>-20.60000038147</ele>
        <time>2025-08-13T14:44:06.000Z</time>
      </trkpt>
      <trkpt lat="43.65341" lon="-1.43044">
        <ele>-20.60000038147</ele>
        <time>2025-08-13T14:44:08.000Z</time>
      </trkpt>
      <trkpt lat="43.65348" lon="-1.43036">
        <ele>-20.39999961853</ele>
        <time>2025-08-13T14:44:10.000Z</time>
      </trkpt>
      <trkpt lat="43.65351" lon="-1.43032">
        <ele>-20.39999961853</ele>
        <time>2025-08-13T14:44:11.000Z</time>
      </trkpt>
      <trkpt lat="43.65363" lon="-1.43023">
        <ele>-20.200000762939</ele>
        <time>2025-08-13T14:44:14.000Z</time>
      </trkpt>
      <trkpt lat="43.65367" lon="-1.43021">
        <ele>-20.200000762939</ele>
        <time>2025-08-13T14:44:15.000Z</time>
      </trkpt>
      <trkpt lat="43.65371" lon="-1.43019">
        <ele>-20.200000762939</ele>
        <time>2025-08-13T14:44:16.000Z</time>
      </trkpt>
      <trkpt lat="43.65389" lon="-1.43017">
        <ele>-20</ele>
        <time>2025-08-13T14:44:20.000Z</time>
      </trkpt>
      <trkpt lat="43.65413" lon="-1.43016">
        <ele>-19.39999961853</ele>
        <time>2025-08-13T14:44:26.000Z</time>
      </trkpt>
      <trkpt lat="43.65418" lon="-1.43017">
        <ele>-19.200000762939</ele>
        <time>2025-08-13T14:44:27.000Z</time>
      </trkpt>
      <trkpt lat="43.65421" lon="-1.4302">
        <ele>-19.200000762939</ele>
        <time>2025-08-13T14:44:28.000Z</time>
      </trkpt>
      <trkpt lat="43.65425" lon="-1.4303">
        <ele>-19.200000762939</ele>
        <time>2025-08-13T14:44:30.000Z</time>
      </trkpt>
      <trkpt lat="43.65427" lon="-1.43057">
        <ele>-19.39999961853</ele>
        <time>2025-08-13T14:44:34.000Z</time>
      </trkpt>
      <trkpt lat="43.65426" lon="-1.43064">
        <ele>-19.39999961853</ele>
        <time>2025-08-13T14:44:35.000Z</time>
      </trkpt>
      <trkpt lat="43.65425" lon="-1.43092">
        <ele>-19.799999237061</ele>
        <time>2025-08-13T14:44:39.000Z</time>
      </trkpt>
      <trkpt lat="43.65422" lon="-1.43104">
        <ele>-20</ele>
        <time>2025-08-13T14:44:41.000Z</time>
      </trkpt>
      <trkpt lat="43.65419" lon="-1.43119">
        <ele>-20.200000762939</ele>
        <time>2025-08-13T14:44:44.000Z</time>
      </trkpt>
      <trkpt lat="43.65421" lon="-1.43122">
        <ele>-20.200000762939</ele>
        <time>2025-08-13T14:44:45.000Z</time>
      </trkpt>
      <trkpt lat="43.65424" lon="-1.43125">
        <ele>-20.39999961853</ele>
        <time>2025-08-13T14:44:46.000Z</time>
      </trkpt>
      <trkpt lat="43.65433" lon="-1.43137">
        <ele>-20.60000038147</ele>
        <time>2025-08-13T14:44:51.000Z</time>
      </trkpt>
      <trkpt lat="43.65431" lon="-1.4316">
        <ele>-20.799999237061</ele>
        <time>2025-08-13T14:44:57.000Z</time>
      </trkpt>
      <trkpt lat="43.65431" lon="-1.43164">
        <ele>-20.799999237061</ele>
        <time>2025-08-13T14:44:58.000Z</time>
      </trkpt>
      <trkpt lat="43.65435" lon="-1.43168">
        <ele>-21</ele>
        <time>2025-08-13T14:45:00.000Z</time>
      </trkpt>
      <trkpt lat="43.65438" lon="-1.4317">
        <ele>-21</ele>
        <time>2025-08-13T14:45:01.000Z</time>
      </trkpt>
      <trkpt lat="43.65444" lon="-1.43169">
        <ele>-21</ele>
        <time>2025-08-13T14:45:03.000Z</time>
      </trkpt>
      <trkpt lat="43.65458" lon="-1.43173">
        <ele>-21</ele>
        <time>2025-08-13T14:45:07.000Z</time>
      </trkpt>
      <trkpt lat="43.6546" lon="-1.43177">
        <ele>-21</ele>
        <time>2025-08-13T14:45:08.000Z</time>
      </trkpt>
      <trkpt lat="43.65473" lon="-1.4321">
        <ele>-21.200000762939</ele>
        <time>2025-08-13T14:45:15.000Z</time>
      </trkpt>
      <trkpt lat="43.65483" lon="-1.43222">
        <ele>-21</ele>
        <time>2025-08-13T14:45:19.000Z</time>
      </trkpt>
      <trkpt lat="43.65501" lon="-1.43232">
        <ele>-21.200000762939</ele>
        <time>2025-08-13T14:45:25.000Z</time>
      </trkpt>
      <trkpt lat="43.65528" lon="-1.43261">
        <ele>-21.200000762939</ele>
        <time>2025-08-13T14:45:34.000Z</time>
      </trkpt>
      <trkpt lat="43.65548" lon="-1.43288">
        <ele>-21.200000762939</ele>
        <time>2025-08-13T14:45:41.000Z</time>
      </trkpt>
      <trkpt lat="43.65573" lon="-1.43311">
        <ele>-21</ele>
        <time>2025-08-13T14:45:49.000Z</time>
      </trkpt>
      <trkpt lat="43.65599" lon="-1.43321">
        <ele>-21</ele>
        <time>2025-08-13T14:45:56.000Z</time>
      </trkpt>
      <trkpt lat="43.65629" lon="-1.43326">
        <ele>-21</ele>
        <time>2025-08-13T14:46:05.000Z</time>
      </trkpt>
      <trkpt lat="43.65652" lon="-1.43325">
        <ele>-21</ele>
        <time>2025-08-13T14:46:12.000Z</time>
      </trkpt>
      <trkpt lat="43.65677" lon="-1.43323">
        <ele>-21</ele>
        <time>2025-08-13T14:46:20.000Z</time>
      </trkpt>
      <trkpt lat="43.65693" lon="-1.4332">
        <ele>-21</ele>
        <time>2025-08-13T14:46:26.000Z</time>
      </trkpt>
      <trkpt lat="43.65711" lon="-1.43313">
        <ele>-20.799999237061</ele>
        <time>2025-08-13T14:46:31.000Z</time>
      </trkpt>
      <trkpt lat="43.65724" lon="-1.43306">
        <ele>-20.799999237061</ele>
        <time>2025-08-13T14:46:34.000Z</time>
      </trkpt>
      <trkpt lat="43.65733" lon="-1.43302">
        <ele>-20.60000038147</ele>
        <time>2025-08-13T14:46:36.000Z</time>
      </trkpt>
      <trkpt lat="43.65741" lon="-1.43297">
        <ele>-20.60000038147</ele>
        <time>2025-08-13T14:46:38.000Z</time>
      </trkpt>
      <trkpt lat="43.65748" lon="-1.4329">
        <ele>-20.60000038147</ele>
        <time>2025-08-13T14:46:40.000Z</time>
      </trkpt>
      <trkpt lat="43.65755" lon="-1.43283">
        <ele>-20.60000038147</ele>
        <time>2025-08-13T14:46:42.000Z</time>
      </trkpt>
      <trkpt lat="43.65785" lon="-1.4325">
        <ele>-20.799999237061</ele>
        <time>2025-08-13T14:46:51.000Z</time>
      </trkpt>
      <trkpt lat="43.65795" lon="-1.43238">
        <ele>-21</ele>
        <time>2025-08-13T14:46:54.000Z</time>
      </trkpt>
      <trkpt lat="43.65803" lon="-1.4323">
        <ele>-21</ele>
        <time>2025-08-13T14:46:56.000Z</time>
      </trkpt>
      <trkpt lat="43.65806" lon="-1.43226">
        <ele>-21</ele>
        <time>2025-08-13T14:46:57.000Z</time>
      </trkpt>
      <trkpt lat="43.65816" lon="-1.43214">
        <ele>-21</ele>
        <time>2025-08-13T14:47:00.000Z</time>
      </trkpt>
      <trkpt lat="43.65829" lon="-1.43202">
        <ele>-21</ele>
        <time>2025-08-13T14:47:04.000Z</time>
      </trkpt>
      <trkpt lat="43.65855" lon="-1.43188">
        <ele>-21</ele>
        <time>2025-08-13T14:47:10.000Z</time>
      </trkpt>
      <trkpt lat="43.65868" lon="-1.43182">
        <ele>-21</ele>
        <time>2025-08-13T14:47:13.000Z</time>
      </trkpt>
      <trkpt lat="43.65876" lon="-1.43177">
        <ele>-21</ele>
        <time>2025-08-13T14:47:15.000Z</time>
      </trkpt>
      <trkpt lat="43.65881" lon="-1.43174">
        <ele>-21</ele>
        <time>2025-08-13T14:47:16.000Z</time>
      </trkpt>
      <trkpt lat="43.65888" lon="-1.43169">
        <ele>-21.200000762939</ele>
        <time>2025-08-13T14:47:18.000Z</time>
      </trkpt>
      <trkpt lat="43.65892" lon="-1.43168">
        <ele>-21.200000762939</ele>
        <time>2025-08-13T14:47:19.000Z</time>
      </trkpt>
      <trkpt lat="43.65898" lon="-1.43163">
        <ele>-21.200000762939</ele>
        <time>2025-08-13T14:47:21.000Z</time>
      </trkpt>
      <trkpt lat="43.65918" lon="-1.4315">
        <ele>-21.200000762939</ele>
        <time>2025-08-13T14:47:27.000Z</time>
      </trkpt>
      <trkpt lat="43.6595" lon="-1.43135">
        <ele>-21</ele>
        <time>2025-08-13T14:47:36.000Z</time>
      </trkpt>
      <trkpt lat="43.65972" lon="-1.43127">
        <ele>-20.799999237061</ele>
        <time>2025-08-13T14:47:43.000Z</time>
      </trkpt>
      <trkpt lat="43.65992" lon="-1.43115">
        <ele>-20.200000762939</ele>
        <time>2025-08-13T14:47:50.000Z</time>
      </trkpt>
      <trkpt lat="43.66004" lon="-1.43117">
        <ele>-19.60000038147</ele>
        <time>2025-08-13T14:47:55.000Z</time>
      </trkpt>
      <trkpt lat="43.66007" lon="-1.4312">
        <ele>-19.39999961853</ele>
        <time>2025-08-13T14:47:57.000Z</time>
      </trkpt>
      <trkpt lat="43.66012" lon="-1.4312">
        <ele>-19.200000762939</ele>
        <time>2025-08-13T14:47:59.000Z</time>
      </trkpt>
      <trkpt lat="43.66016" lon="-1.43122">
        <ele>-19</ele>
        <time>2025-08-13T14:48:01.000Z</time>
      </trkpt>
      <trkpt lat="43.6602" lon="-1.43127">
        <ele>-18.799999237061</ele>
        <time>2025-08-13T14:48:03.000Z</time>
      </trkpt>
      <trkpt lat="43.6603" lon="-1.43144">
        <ele>-18</ele>
        <time>2025-08-13T14:48:09.000Z</time>
      </trkpt>
      <trkpt lat="43.66033" lon="-1.43149">
        <ele>-17.799999237061</ele>
        <time>2025-08-13T14:48:11.000Z</time>
      </trkpt>
      <trkpt lat="43.66046" lon="-1.43172">
        <ele>-17.200000762939</ele>
        <time>2025-08-13T14:48:18.000Z</time>
      </trkpt>
      <trkpt lat="43.66048" lon="-1.43175">
        <ele>-17</ele>
        <time>2025-08-13T14:48:19.000Z</time>
      </trkpt>
      <trkpt lat="43.66068" lon="-1.43208">
        <ele>-16.39999961853</ele>
        <time>2025-08-13T14:48:29.000Z</time>
      </trkpt>
      <trkpt lat="43.66082" lon="-1.43232">
        <ele>-16.200000762939</ele>
        <time>2025-08-13T14:48:35.000Z</time>
      </trkpt>
      <trkpt lat="43.66104" lon="-1.43267">
        <ele>-16.200000762939</ele>
        <time>2025-08-13T14:48:43.000Z</time>
      </trkpt>
      <trkpt lat="43.66119" lon="-1.43289">
        <ele>-16.200000762939</ele>
        <time>2025-08-13T14:48:49.000Z</time>
      </trkpt>
      <trkpt lat="43.66126" lon="-1.43309">
        <ele>-16.60000038147</ele>
        <time>2025-08-13T14:48:54.000Z</time>
      </trkpt>
      <trkpt lat="43.66126" lon="-1.43311">
        <ele>-16.60000038147</ele>
        <time>2025-08-13T14:48:55.000Z</time>
      </trkpt>
      <trkpt lat="43.66128" lon="-1.43311">
        <ele>-16.799999237061</ele>
        <time>2025-08-13T14:48:57.000Z</time>
      </trkpt>
      <trkpt lat="43.66126" lon="-1.43295">
        <ele>-17</ele>
        <time>2025-08-13T14:49:03.000Z</time>
      </trkpt>
      <trkpt lat="43.66126" lon="-1.43293">
        <ele>-17.200000762939</ele>
        <time>2025-08-13T14:49:04.000Z</time>
      </trkpt>
      <trkpt lat="43.66128" lon="-1.43284">
        <ele>-17.200000762939</ele>
        <time>2025-08-13T14:49:08.000Z</time>
      </trkpt>
      <trkpt lat="43.66132" lon="-1.43274">
        <ele>-17</ele>
        <time>2025-08-13T14:49:12.000Z</time>
      </trkpt>
      <trkpt lat="43.66135" lon="-1.43272">
        <ele>-17</ele>
        <time>2025-08-13T14:49:13.000Z</time>
      </trkpt>
      <trkpt lat="43.66153" lon="-1.43268">
        <ele>-16.799999237061</ele>
        <time>2025-08-13T14:49:19.000Z</time>
      </trkpt>
      <trkpt lat="43.66173" lon="-1.43266">
        <ele>-16.799999237061</ele>
        <time>2025-08-13T14:49:26.000Z</time>
      </trkpt>
      <trkpt lat="43.66189" lon="-1.43264">
        <ele>-17</ele>
        <time>2025-08-13T14:49:30.000Z</time>
      </trkpt>
      <trkpt lat="43.66193" lon="-1.43264">
        <ele>-17</ele>
        <time>2025-08-13T14:49:31.000Z</time>
      </trkpt>
      <trkpt lat="43.66213" lon="-1.43265">
        <ele>-17.39999961853</ele>
        <time>2025-08-13T14:49:37.000Z</time>
      </trkpt>
      <trkpt lat="43.66221" lon="-1.43264">
        <ele>-17.60000038147</ele>
        <time>2025-08-13T14:49:41.000Z</time>
      </trkpt>
      <trkpt lat="43.66236" lon="-1.4327">
        <ele>-18</ele>
        <time>2025-08-13T14:49:46.000Z</time>
      </trkpt>
      <trkpt lat="43.66255" lon="-1.43291">
        <ele>-18.60000038147</ele>
        <time>2025-08-13T14:49:53.000Z</time>
      </trkpt>
      <trkpt lat="43.66271" lon="-1.43322">
        <ele>-18.60000038147</ele>
        <time>2025-08-13T14:50:00.000Z</time>
      </trkpt>
      <trkpt lat="43.66283" lon="-1.43359">
        <ele>-18.200000762939</ele>
        <time>2025-08-13T14:50:07.000Z</time>
      </trkpt>
      <trkpt lat="43.66294" lon="-1.43386">
        <ele>-17.60000038147</ele>
        <time>2025-08-13T14:50:14.000Z</time>
      </trkpt>
      <trkpt lat="43.663" lon="-1.43395">
        <ele>-17</ele>
        <time>2025-08-13T14:50:17.000Z</time>
      </trkpt>
      <trkpt lat="43.66305" lon="-1.43401">
        <ele>-16.799999237061</ele>
        <time>2025-08-13T14:50:19.000Z</time>
      </trkpt>
      <trkpt lat="43.66317" lon="-1.43414">
        <ele>-16.200000762939</ele>
        <time>2025-08-13T14:50:24.000Z</time>
      </trkpt>
      <trkpt lat="43.66321" lon="-1.43419">
        <ele>-16</ele>
        <time>2025-08-13T14:50:26.000Z</time>
      </trkpt>
      <trkpt lat="43.66326" lon="-1.43425">
        <ele>-15.800000190735</ele>
        <time>2025-08-13T14:50:29.000Z</time>
      </trkpt>
      <trkpt lat="43.66336" lon="-1.43437">
        <ele>-15</ele>
        <time>2025-08-13T14:50:34.000Z</time>
      </trkpt>
      <trkpt lat="43.66338" lon="-1.43439">
        <ele>-14.800000190735</ele>
        <time>2025-08-13T14:50:35.000Z</time>
      </trkpt>
      <trkpt lat="43.66341" lon="-1.43445">
        <ele>-14.39999961853</ele>
        <time>2025-08-13T14:50:37.000Z</time>
      </trkpt>
      <trkpt lat="43.66342" lon="-1.43456">
        <ele>-14</ele>
        <time>2025-08-13T14:50:40.000Z</time>
      </trkpt>
      <trkpt lat="43.66343" lon="-1.43461">
        <ele>-13.800000190735</ele>
        <time>2025-08-13T14:50:41.000Z</time>
      </trkpt>
      <trkpt lat="43.66342" lon="-1.43493">
        <ele>-13</ele>
        <time>2025-08-13T14:50:48.000Z</time>
      </trkpt>
      <trkpt lat="43.66342" lon="-1.43526">
        <ele>-12.60000038147</ele>
        <time>2025-08-13T14:50:54.000Z</time>
      </trkpt>
      <trkpt lat="43.66342" lon="-1.4354">
        <ele>-12.800000190735</ele>
        <time>2025-08-13T14:50:56.000Z</time>
      </trkpt>
      <trkpt lat="43.66343" lon="-1.43565">
        <ele>-13</ele>
        <time>2025-08-13T14:50:59.000Z</time>
      </trkpt>
      <trkpt lat="43.66356" lon="-1.43614">
        <ele>-14</ele>
        <time>2025-08-13T14:51:04.000Z</time>
      </trkpt>
      <trkpt lat="43.66359" lon="-1.43623">
        <ele>-14</ele>
        <time>2025-08-13T14:51:05.000Z</time>
      </trkpt>
      <trkpt lat="43.66372" lon="-1.4365">
        <ele>-15.199999809265</ele>
        <time>2025-08-13T14:51:08.000Z</time>
      </trkpt>
      <trkpt lat="43.66376" lon="-1.43659">
        <ele>-15.60000038147</ele>
        <time>2025-08-13T14:51:09.000Z</time>
      </trkpt>
      <trkpt lat="43.66382" lon="-1.43666">
        <ele>-16.39999961853</ele>
        <time>2025-08-13T14:51:10.000Z</time>
      </trkpt>
      <trkpt lat="43.66399" lon="-1.43688">
        <ele>-17.60000038147</ele>
        <time>2025-08-13T14:51:13.000Z</time>
      </trkpt>
      <trkpt lat="43.66404" lon="-1.43695">
        <ele>-17.799999237061</ele>
        <time>2025-08-13T14:51:14.000Z</time>
      </trkpt>
      <trkpt lat="43.66427" lon="-1.43729">
        <ele>-18.799999237061</ele>
        <time>2025-08-13T14:51:19.000Z</time>
      </trkpt>
      <trkpt lat="43.66431" lon="-1.43735">
        <ele>-18.799999237061</ele>
        <time>2025-08-13T14:51:20.000Z</time>
      </trkpt>
      <trkpt lat="43.66441" lon="-1.43753">
        <ele>-19</ele>
        <time>2025-08-13T14:51:23.000Z</time>
      </trkpt>
      <trkpt lat="43.66447" lon="-1.43763">
        <ele>-19.200000762939</ele>
        <time>2025-08-13T14:51:25.000Z</time>
      </trkpt>
      <trkpt lat="43.66451" lon="-1.43772">
        <ele>-19.200000762939</ele>
        <time>2025-08-13T14:51:27.000Z</time>
      </trkpt>
      <trkpt lat="43.66454" lon="-1.43788">
        <ele>-19.200000762939</ele>
        <time>2025-08-13T14:51:30.000Z</time>
      </trkpt>
      <trkpt lat="43.66454" lon="-1.43814">
        <ele>-19.200000762939</ele>
        <time>2025-08-13T14:51:35.000Z</time>
      </trkpt>
      <trkpt lat="43.66449" lon="-1.43847">
        <ele>-18.799999237061</ele>
        <time>2025-08-13T14:51:40.000Z</time>
      </trkpt>
      <trkpt lat="43.66441" lon="-1.43892">
        <ele>-18.799999237061</ele>
        <time>2025-08-13T14:51:47.000Z</time>
      </trkpt>
      <trkpt lat="43.66439" lon="-1.43904">
        <ele>-18.799999237061</ele>
        <time>2025-08-13T14:51:49.000Z</time>
      </trkpt>
      <trkpt lat="43.66438" lon="-1.43916">
        <ele>-18.799999237061</ele>
        <time>2025-08-13T14:51:51.000Z</time>
      </trkpt>
      <trkpt lat="43.66438" lon="-1.43927">
        <ele>-18.799999237061</ele>
        <time>2025-08-13T14:51:53.000Z</time>
      </trkpt>
      <trkpt lat="43.6644" lon="-1.43956">
        <ele>-18.60000038147</ele>
        <time>2025-08-13T14:51:59.000Z</time>
      </trkpt>
      <trkpt lat="43.66446" lon="-1.43979">
        <ele>-18.39999961853</ele>
        <time>2025-08-13T14:52:04.000Z</time>
      </trkpt>
      <trkpt lat="43.66459" lon="-1.44004">
        <ele>-18</ele>
        <time>2025-08-13T14:52:10.000Z</time>
      </trkpt>
      <trkpt lat="43.66471" lon="-1.44008">
        <ele>-17.39999961853</ele>
        <time>2025-08-13T14:52:14.000Z</time>
      </trkpt>
      <trkpt lat="43.66499" lon="-1.44005">
        <ele>-17</ele>
        <time>2025-08-13T14:52:21.000Z</time>
      </trkpt>
      <trkpt lat="43.66533" lon="-1.44001">
        <ele>-17.200000762939</ele>
        <time>2025-08-13T14:52:28.000Z</time>
      </trkpt>
      <trkpt lat="43.66571" lon="-1.43994">
        <ele>-18</ele>
        <time>2025-08-13T14:52:35.000Z</time>
      </trkpt>
      <trkpt lat="43.66628" lon="-1.43985">
        <ele>-18.200000762939</ele>
        <time>2025-08-13T14:52:46.000Z</time>
      </trkpt>
      <trkpt lat="43.66633" lon="-1.43984">
        <ele>-18</ele>
        <time>2025-08-13T14:52:47.000Z</time>
      </trkpt>
      <trkpt lat="43.66683" lon="-1.43977">
        <ele>-17.60000038147</ele>
        <time>2025-08-13T14:52:58.000Z</time>
      </trkpt>
      <trkpt lat="43.66703" lon="-1.43972">
        <ele>-17.39999961853</ele>
        <time>2025-08-13T14:53:03.000Z</time>
      </trkpt>
      <trkpt lat="43.66711" lon="-1.43971">
        <ele>-17.200000762939</ele>
        <time>2025-08-13T14:53:05.000Z</time>
      </trkpt>
      <trkpt lat="43.66748" lon="-1.43968">
        <ele>-17.200000762939</ele>
        <time>2025-08-13T14:53:13.000Z</time>
      </trkpt>
      <trkpt lat="43.66791" lon="-1.43961">
        <ele>-17.39999961853</ele>
        <time>2025-08-13T14:53:21.000Z</time>
      </trkpt>
      <trkpt lat="43.66817" lon="-1.43958">
        <ele>-18.39999961853</ele>
        <time>2025-08-13T14:53:26.000Z</time>
      </trkpt>
      <trkpt lat="43.66837" lon="-1.43955">
        <ele>-18.799999237061</ele>
        <time>2025-08-13T14:53:30.000Z</time>
      </trkpt>
      <trkpt lat="43.66883" lon="-1.43951">
        <ele>-18.799999237061</ele>
        <time>2025-08-13T14:53:40.000Z</time>
      </trkpt>
      <trkpt lat="43.66928" lon="-1.43946">
        <ele>-18.200000762939</ele>
        <time>2025-08-13T14:53:50.000Z</time>
      </trkpt>
      <trkpt lat="43.66945" lon="-1.43944">
        <ele>-18.39999961853</ele>
        <time>2025-08-13T14:53:54.000Z</time>
      </trkpt>
      <trkpt lat="43.66962" lon="-1.43943">
        <ele>-18.39999961853</ele>
        <time>2025-08-13T14:53:58.000Z</time>
      </trkpt>
      <trkpt lat="43.66993" lon="-1.43938">
        <ele>-18.39999961853</ele>
        <time>2025-08-13T14:54:06.000Z</time>
      </trkpt>
      <trkpt lat="43.67022" lon="-1.43931">
        <ele>-18</ele>
        <time>2025-08-13T14:54:14.000Z</time>
      </trkpt>
      <trkpt lat="43.67042" lon="-1.43916">
        <ele>-18</ele>
        <time>2025-08-13T14:54:20.000Z</time>
      </trkpt>
      <trkpt lat="43.6705" lon="-1.4391">
        <ele>-18</ele>
        <time>2025-08-13T14:54:22.000Z</time>
      </trkpt>
      <trkpt lat="43.67059" lon="-1.43909">
        <ele>-18</ele>
        <time>2025-08-13T14:54:24.000Z</time>
      </trkpt>
      <trkpt lat="43.67068" lon="-1.43913">
        <ele>-18.200000762939</ele>
        <time>2025-08-13T14:54:26.000Z</time>
      </trkpt>
      <trkpt lat="43.67075" lon="-1.4392">
        <ele>-18.39999961853</ele>
        <time>2025-08-13T14:54:28.000Z</time>
      </trkpt>
      <trkpt lat="43.67095" lon="-1.43942">
        <ele>-18.39999961853</ele>
        <time>2025-08-13T14:54:35.000Z</time>
      </trkpt>
      <trkpt lat="43.67115" lon="-1.43939">
        <ele>-18</ele>
        <time>2025-08-13T14:54:40.000Z</time>
      </trkpt>
      <trkpt lat="43.67135" lon="-1.43931">
        <ele>-17.799999237061</ele>
        <time>2025-08-13T14:54:45.000Z</time>
      </trkpt>
      <trkpt lat="43.67139" lon="-1.4393">
        <ele>-18</ele>
        <time>2025-08-13T14:54:46.000Z</time>
      </trkpt>
      <trkpt lat="43.67167" lon="-1.43926">
        <ele>-18.200000762939</ele>
        <time>2025-08-13T14:54:52.000Z</time>
      </trkpt>
      <trkpt lat="43.67201" lon="-1.43921">
        <ele>-18.60000038147</ele>
        <time>2025-08-13T14:54:59.000Z</time>
      </trkpt>
      <trkpt lat="43.67234" lon="-1.43915">
        <ele>-18.60000038147</ele>
        <time>2025-08-13T14:55:06.000Z</time>
      </trkpt>
      <trkpt lat="43.67283" lon="-1.43909">
        <ele>-18.200000762939</ele>
        <time>2025-08-13T14:55:16.000Z</time>
      </trkpt>
      <trkpt lat="43.67329" lon="-1.43902">
        <ele>-18.39999961853</ele>
        <time>2025-08-13T14:55:25.000Z</time>
      </trkpt>
      <trkpt lat="43.6738" lon="-1.43893">
        <ele>-18.60000038147</ele>
        <time>2025-08-13T14:55:35.000Z</time>
      </trkpt>
      <trkpt lat="43.67419" lon="-1.43876">
        <ele>-18.799999237061</ele>
        <time>2025-08-13T14:55:43.000Z</time>
      </trkpt>
      <trkpt lat="43.67428" lon="-1.4387">
        <ele>-19</ele>
        <time>2025-08-13T14:55:45.000Z</time>
      </trkpt>
      <trkpt lat="43.67448" lon="-1.43849">
        <ele>-19</ele>
        <time>2025-08-13T14:55:50.000Z</time>
      </trkpt>
      <trkpt lat="43.67477" lon="-1.43819">
        <ele>-19</ele>
        <time>2025-08-13T14:55:58.000Z</time>
      </trkpt>
      <trkpt lat="43.67484" lon="-1.43811">
        <ele>-19</ele>
        <time>2025-08-13T14:56:00.000Z</time>
      </trkpt>
      <trkpt lat="43.67494" lon="-1.438">
        <ele>-18.799999237061</ele>
        <time>2025-08-13T14:56:03.000Z</time>
      </trkpt>
      <trkpt lat="43.67507" lon="-1.43784">
        <ele>-18.60000038147</ele>
        <time>2025-08-13T14:56:08.000Z</time>
      </trkpt>
      <trkpt lat="43.67512" lon="-1.4377">
        <ele>-18.39999961853</ele>
        <time>2025-08-13T14:56:11.000Z</time>
      </trkpt>
      <trkpt lat="43.67526" lon="-1.43762">
        <ele>-18.200000762939</ele>
        <time>2025-08-13T14:56:15.000Z</time>
      </trkpt>
      <trkpt lat="43.67549" lon="-1.43761">
        <ele>-17.60000038147</ele>
        <time>2025-08-13T14:56:21.000Z</time>
      </trkpt>
      <trkpt lat="43.67574" lon="-1.43755">
        <ele>-17</ele>
        <time>2025-08-13T14:56:28.000Z</time>
      </trkpt>
      <trkpt lat="43.67577" lon="-1.43753">
        <ele>-17</ele>
        <time>2025-08-13T14:56:29.000Z</time>
      </trkpt>
      <trkpt lat="43.67599" lon="-1.43755">
        <ele>-16.799999237061</ele>
        <time>2025-08-13T14:56:35.000Z</time>
      </trkpt>
      <trkpt lat="43.67632" lon="-1.43767">
        <ele>-16.799999237061</ele>
        <time>2025-08-13T14:56:42.000Z</time>
      </trkpt>
      <trkpt lat="43.67667" lon="-1.43778">
        <ele>-17.799999237061</ele>
        <time>2025-08-13T14:56:50.000Z</time>
      </trkpt>
      <trkpt lat="43.67679" lon="-1.43783">
        <ele>-18</ele>
        <time>2025-08-13T14:56:53.000Z</time>
      </trkpt>
      <trkpt lat="43.67697" lon="-1.4379">
        <ele>-18.39999961853</ele>
        <time>2025-08-13T14:56:58.000Z</time>
      </trkpt>
      <trkpt lat="43.6772" lon="-1.43799">
        <ele>-18.60000038147</ele>
        <time>2025-08-13T14:57:07.000Z</time>
      </trkpt>
      <trkpt lat="43.67731" lon="-1.43802">
        <ele>-18.60000038147</ele>
        <time>2025-08-13T14:57:13.000Z</time>
      </trkpt>
      <trkpt lat="43.67743" lon="-1.43806">
        <ele>-18.60000038147</ele>
        <time>2025-08-13T14:57:18.000Z</time>
      </trkpt>
      <trkpt lat="43.67761" lon="-1.43812">
        <ele>-18.60000038147</ele>
        <time>2025-08-13T14:57:23.000Z</time>
      </trkpt>
      <trkpt lat="43.67788" lon="-1.43821">
        <ele>-18.60000038147</ele>
        <time>2025-08-13T14:57:30.000Z</time>
      </trkpt>
      <trkpt lat="43.67827" lon="-1.43838">
        <ele>-18.60000038147</ele>
        <time>2025-08-13T14:57:40.000Z</time>
      </trkpt>
      <trkpt lat="43.67861" lon="-1.43849">
        <ele>-18.60000038147</ele>
        <time>2025-08-13T14:57:48.000Z</time>
      </trkpt>
      <trkpt lat="43.6789" lon="-1.43855">
        <ele>-18.200000762939</ele>
        <time>2025-08-13T14:57:56.000Z</time>
      </trkpt>
      <trkpt lat="43.67912" lon="-1.43858">
        <ele>-17.60000038147</ele>
        <time>2025-08-13T14:58:03.000Z</time>
      </trkpt>
      <trkpt lat="43.6792" lon="-1.43858">
        <ele>-16.799999237061</ele>
        <time>2025-08-13T14:58:06.000Z</time>
      </trkpt>
      <trkpt lat="43.67932" lon="-1.43857">
        <ele>-16.39999961853</ele>
        <time>2025-08-13T14:58:10.000Z</time>
      </trkpt>
      <trkpt lat="43.67946" lon="-1.43857">
        <ele>-15.800000190735</ele>
        <time>2025-08-13T14:58:15.000Z</time>
      </trkpt>
      <trkpt lat="43.67949" lon="-1.43857">
        <ele>-15.800000190735</ele>
        <time>2025-08-13T14:58:16.000Z</time>
      </trkpt>
      <trkpt lat="43.67966" lon="-1.4385">
        <ele>-15.199999809265</ele>
        <time>2025-08-13T14:58:23.000Z</time>
      </trkpt>
      <trkpt lat="43.6799" lon="-1.43842">
        <ele>-14.800000190735</ele>
        <time>2025-08-13T14:58:32.000Z</time>
      </trkpt>
      <trkpt lat="43.68014" lon="-1.43833">
        <ele>-15</ele>
        <time>2025-08-13T14:58:41.000Z</time>
      </trkpt>
      <trkpt lat="43.6803" lon="-1.43826">
        <ele>-15.199999809265</ele>
        <time>2025-08-13T14:58:45.000Z</time>
      </trkpt>
      <trkpt lat="43.68053" lon="-1.43814">
        <ele>-16</ele>
        <time>2025-08-13T14:58:51.000Z</time>
      </trkpt>
      <trkpt lat="43.68072" lon="-1.43798">
        <ele>-16.799999237061</ele>
        <time>2025-08-13T14:58:55.000Z</time>
      </trkpt>
      <trkpt lat="43.68094" lon="-1.43781">
        <ele>-18</ele>
        <time>2025-08-13T14:58:59.000Z</time>
      </trkpt>
      <trkpt lat="43.68109" lon="-1.43768">
        <ele>-18.39999961853</ele>
        <time>2025-08-13T14:59:02.000Z</time>
      </trkpt>
      <trkpt lat="43.68128" lon="-1.43751">
        <ele>-19</ele>
        <time>2025-08-13T14:59:06.000Z</time>
      </trkpt>
      <trkpt lat="43.6814" lon="-1.43738">
        <ele>-19.200000762939</ele>
        <time>2025-08-13T14:59:09.000Z</time>
      </trkpt>
      <trkpt lat="43.68151" lon="-1.43724">
        <ele>-19.39999961853</ele>
        <time>2025-08-13T14:59:12.000Z</time>
      </trkpt>
      <trkpt lat="43.68166" lon="-1.43705">
        <ele>-19.60000038147</ele>
        <time>2025-08-13T14:59:16.000Z</time>
      </trkpt>
      <trkpt lat="43.6819" lon="-1.43664">
        <ele>-19.799999237061</ele>
        <time>2025-08-13T14:59:24.000Z</time>
      </trkpt>
      <trkpt lat="43.68209" lon="-1.43611">
        <ele>-19.60000038147</ele>
        <time>2025-08-13T14:59:33.000Z</time>
      </trkpt>
      <trkpt lat="43.68219" lon="-1.43554">
        <ele>-19.60000038147</ele>
        <time>2025-08-13T14:59:41.000Z</time>
      </trkpt>
      <trkpt lat="43.6822" lon="-1.43547">
        <ele>-19.60000038147</ele>
        <time>2025-08-13T14:59:42.000Z</time>
      </trkpt>
      <trkpt lat="43.6822" lon="-1.43539">
        <ele>-19.60000038147</ele>
        <time>2025-08-13T14:59:43.000Z</time>
      </trkpt>
      <trkpt lat="43.68219" lon="-1.43523">
        <ele>-19.60000038147</ele>
        <time>2025-08-13T14:59:45.000Z</time>
      </trkpt>
      <trkpt lat="43.68221" lon="-1.43516">
        <ele>-19.60000038147</ele>
        <time>2025-08-13T14:59:46.000Z</time>
      </trkpt>
      <trkpt lat="43.68223" lon="-1.43509">
        <ele>-19.60000038147</ele>
        <time>2025-08-13T14:59:47.000Z</time>
      </trkpt>
      <trkpt lat="43.68232" lon="-1.4349">
        <ele>-19.60000038147</ele>
        <time>2025-08-13T14:59:50.000Z</time>
      </trkpt>
      <trkpt lat="43.68247" lon="-1.43459">
        <ele>-19.60000038147</ele>
        <time>2025-08-13T14:59:55.000Z</time>
      </trkpt>
      <trkpt lat="43.68254" lon="-1.43449">
        <ele>-19.39999961853</ele>
        <time>2025-08-13T14:59:57.000Z</time>
      </trkpt>
      <trkpt lat="43.68269" lon="-1.43424">
        <ele>-19.60000038147</ele>
        <time>2025-08-13T15:00:02.000Z</time>
      </trkpt>
      <trkpt lat="43.68285" lon="-1.43393">
        <ele>-19.60000038147</ele>
        <time>2025-08-13T15:00:08.000Z</time>
      </trkpt>
      <trkpt lat="43.68288" lon="-1.43387">
        <ele>-19.60000038147</ele>
        <time>2025-08-13T15:00:09.000Z</time>
      </trkpt>
      <trkpt lat="43.68297" lon="-1.43366">
        <ele>-19.60000038147</ele>
        <time>2025-08-13T15:00:13.000Z</time>
      </trkpt>
      <trkpt lat="43.68311" lon="-1.4333">
        <ele>-19.39999961853</ele>
        <time>2025-08-13T15:00:19.000Z</time>
      </trkpt>
      <trkpt lat="43.68312" lon="-1.43324">
        <ele>-19.39999961853</ele>
        <time>2025-08-13T15:00:20.000Z</time>
      </trkpt>
      <trkpt lat="43.68315" lon="-1.43313">
        <ele>-19.39999961853</ele>
        <time>2025-08-13T15:00:22.000Z</time>
      </trkpt>
      <trkpt lat="43.68315" lon="-1.43303">
        <ele>-19.39999961853</ele>
        <time>2025-08-13T15:00:24.000Z</time>
      </trkpt>
      <trkpt lat="43.68315" lon="-1.43292">
        <ele>-19.39999961853</ele>
        <time>2025-08-13T15:00:26.000Z</time>
      </trkpt>
      <trkpt lat="43.68315" lon="-1.43274">
        <ele>-19.200000762939</ele>
        <time>2025-08-13T15:00:29.000Z</time>
      </trkpt>
      <trkpt lat="43.68311" lon="-1.43223">
        <ele>-18.799999237061</ele>
        <time>2025-08-13T15:00:38.000Z</time>
      </trkpt>
      <trkpt lat="43.68307" lon="-1.43197">
        <ele>-18.200000762939</ele>
        <time>2025-08-13T15:00:44.000Z</time>
      </trkpt>
      <trkpt lat="43.68306" lon="-1.43188">
        <ele>-17.799999237061</ele>
        <time>2025-08-13T15:00:46.000Z</time>
      </trkpt>
      <trkpt lat="43.68305" lon="-1.43174">
        <ele>-17.39999961853</ele>
        <time>2025-08-13T15:00:49.000Z</time>
      </trkpt>
      <trkpt lat="43.68304" lon="-1.43159">
        <ele>-16.60000038147</ele>
        <time>2025-08-13T15:00:52.000Z</time>
      </trkpt>
      <trkpt lat="43.68305" lon="-1.43144">
        <ele>-16</ele>
        <time>2025-08-13T15:00:55.000Z</time>
      </trkpt>
      <trkpt lat="43.68315" lon="-1.43122">
        <ele>-15.800000190735</ele>
        <time>2025-08-13T15:00:59.000Z</time>
      </trkpt>
      <trkpt lat="43.6832" lon="-1.43111">
        <ele>-15.800000190735</ele>
        <time>2025-08-13T15:01:01.000Z</time>
      </trkpt>
      <trkpt lat="43.68328" lon="-1.4309">
        <ele>-15.800000190735</ele>
        <time>2025-08-13T15:01:05.000Z</time>
      </trkpt>
      <trkpt lat="43.68341" lon="-1.43057">
        <ele>-16</ele>
        <time>2025-08-13T15:01:12.000Z</time>
      </trkpt>
      <trkpt lat="43.68354" lon="-1.43032">
        <ele>-16.200000762939</ele>
        <time>2025-08-13T15:01:17.000Z</time>
      </trkpt>
      <trkpt lat="43.68356" lon="-1.43027">
        <ele>-16.39999961853</ele>
        <time>2025-08-13T15:01:18.000Z</time>
      </trkpt>
      <trkpt lat="43.68359" lon="-1.43014">
        <ele>-16.39999961853</ele>
        <time>2025-08-13T15:01:20.000Z</time>
      </trkpt>
      <trkpt lat="43.6836" lon="-1.43008">
        <ele>-16.60000038147</ele>
        <time>2025-08-13T15:01:21.000Z</time>
      </trkpt>
      <trkpt lat="43.68361" lon="-1.42995">
        <ele>-17</ele>
        <time>2025-08-13T15:01:23.000Z</time>
      </trkpt>
      <trkpt lat="43.6836" lon="-1.4298">
        <ele>-17.60000038147</ele>
        <time>2025-08-13T15:01:26.000Z</time>
      </trkpt>
      <trkpt lat="43.6836" lon="-1.42977">
        <ele>-17.799999237061</ele>
        <time>2025-08-13T15:01:27.000Z</time>
      </trkpt>
      <trkpt lat="43.6836" lon="-1.42973">
        <ele>-18.39999961853</ele>
        <time>2025-08-13T15:01:30.000Z</time>
      </trkpt>
      <trkpt lat="43.6836" lon="-1.42973">
        <ele>-18.799999237061</ele>
        <time>2025-08-13T15:01:32.000Z</time>
      </trkpt>
      <trkpt lat="43.68367" lon="-1.42974">
        <ele>-19.60000038147</ele>
        <time>2025-08-13T15:03:28.000Z</time>
      </trkpt>
      <trkpt lat="43.68371" lon="-1.42969">
        <ele>-19.39999961853</ele>
        <time>2025-08-13T15:03:30.000Z</time>
      </trkpt>
      <trkpt lat="43.68379" lon="-1.42946">
        <ele>-19.200000762939</ele>
        <time>2025-08-13T15:03:35.000Z</time>
      </trkpt>
      <trkpt lat="43.68391" lon="-1.42928">
        <ele>-19.200000762939</ele>
        <time>2025-08-13T15:03:40.000Z</time>
      </trkpt>
      <trkpt lat="43.68416" lon="-1.42914">
        <ele>-19.39999961853</ele>
        <time>2025-08-13T15:03:47.000Z</time>
      </trkpt>
      <trkpt lat="43.6845" lon="-1.42913">
        <ele>-19.200000762939</ele>
        <time>2025-08-13T15:03:56.000Z</time>
      </trkpt>
      <trkpt lat="43.68479" lon="-1.42913">
        <ele>-19</ele>
        <time>2025-08-13T15:04:04.000Z</time>
      </trkpt>
      <trkpt lat="43.68491" lon="-1.42916">
        <ele>-18.39999961853</ele>
        <time>2025-08-13T15:04:08.000Z</time>
      </trkpt>
      <trkpt lat="43.68497" lon="-1.42916">
        <ele>-18.200000762939</ele>
        <time>2025-08-13T15:04:10.000Z</time>
      </trkpt>
      <trkpt lat="43.68514" lon="-1.42915">
        <ele>-17.60000038147</ele>
        <time>2025-08-13T15:04:16.000Z</time>
      </trkpt>
      <trkpt lat="43.68516" lon="-1.42913">
        <ele>-17.39999961853</ele>
        <time>2025-08-13T15:04:17.000Z</time>
      </trkpt>
      <trkpt lat="43.68525" lon="-1.42907">
        <ele>-17</ele>
        <time>2025-08-13T15:04:21.000Z</time>
      </trkpt>
      <trkpt lat="43.68533" lon="-1.42907">
        <ele>-16.39999961853</ele>
        <time>2025-08-13T15:04:24.000Z</time>
      </trkpt>
      <trkpt lat="43.68551" lon="-1.42904">
        <ele>-15.39999961853</ele>
        <time>2025-08-13T15:04:31.000Z</time>
      </trkpt>
      <trkpt lat="43.68554" lon="-1.42904">
        <ele>-15.39999961853</ele>
        <time>2025-08-13T15:04:32.000Z</time>
      </trkpt>
      <trkpt lat="43.68578" lon="-1.42901">
        <ele>-14.60000038147</ele>
        <time>2025-08-13T15:04:40.000Z</time>
      </trkpt>
      <trkpt lat="43.68602" lon="-1.42898">
        <ele>-14.39999961853</ele>
        <time>2025-08-13T15:04:48.000Z</time>
      </trkpt>
      <trkpt lat="43.68605" lon="-1.42897">
        <ele>-14.39999961853</ele>
        <time>2025-08-13T15:04:49.000Z</time>
      </trkpt>
      <trkpt lat="43.6864" lon="-1.42893">
        <ele>-14</ele>
        <time>2025-08-13T15:04:58.000Z</time>
      </trkpt>
      <trkpt lat="43.68675" lon="-1.42879">
        <ele>-14.60000038147</ele>
        <time>2025-08-13T15:05:04.000Z</time>
      </trkpt>
      <trkpt lat="43.6871" lon="-1.42852">
        <ele>-15.60000038147</ele>
        <time>2025-08-13T15:05:10.000Z</time>
      </trkpt>
      <trkpt lat="43.68717" lon="-1.42846">
        <ele>-16</ele>
        <time>2025-08-13T15:05:11.000Z</time>
      </trkpt>
      <trkpt lat="43.68729" lon="-1.42833">
        <ele>-16.200000762939</ele>
        <time>2025-08-13T15:05:13.000Z</time>
      </trkpt>
      <trkpt lat="43.68732" lon="-1.42826">
        <ele>-16.39999961853</ele>
        <time>2025-08-13T15:05:14.000Z</time>
      </trkpt>
      <trkpt lat="43.68744" lon="-1.42808">
        <ele>-16.60000038147</ele>
        <time>2025-08-13T15:05:17.000Z</time>
      </trkpt>
      <trkpt lat="43.68749" lon="-1.42804">
        <ele>-16.799999237061</ele>
        <time>2025-08-13T15:05:18.000Z</time>
      </trkpt>
      <trkpt lat="43.68758" lon="-1.42796">
        <ele>-17.200000762939</ele>
        <time>2025-08-13T15:05:20.000Z</time>
      </trkpt>
      <trkpt lat="43.68769" lon="-1.42781">
        <ele>-17.39999961853</ele>
        <time>2025-08-13T15:05:23.000Z</time>
      </trkpt>
      <trkpt lat="43.6877" lon="-1.42775">
        <ele>-17.60000038147</ele>
        <time>2025-08-13T15:05:24.000Z</time>
      </trkpt>
      <trkpt lat="43.68772" lon="-1.42769">
        <ele>-17.60000038147</ele>
        <time>2025-08-13T15:05:25.000Z</time>
      </trkpt>
      <trkpt lat="43.6878" lon="-1.42755">
        <ele>-17.60000038147</ele>
        <time>2025-08-13T15:05:28.000Z</time>
      </trkpt>
      <trkpt lat="43.68791" lon="-1.42738">
        <ele>-17.39999961853</ele>
        <time>2025-08-13T15:05:33.000Z</time>
      </trkpt>
      <trkpt lat="43.68806" lon="-1.42718">
        <ele>-17.200000762939</ele>
        <time>2025-08-13T15:05:38.000Z</time>
      </trkpt>
      <trkpt lat="43.68809" lon="-1.42713">
        <ele>-17</ele>
        <time>2025-08-13T15:05:39.000Z</time>
      </trkpt>
      <trkpt lat="43.68817" lon="-1.427">
        <ele>-17</ele>
        <time>2025-08-13T15:05:42.000Z</time>
      </trkpt>
      <trkpt lat="43.68833" lon="-1.42674">
        <ele>-16.60000038147</ele>
        <time>2025-08-13T15:05:47.000Z</time>
      </trkpt>
      <trkpt lat="43.68836" lon="-1.42668">
        <ele>-16.60000038147</ele>
        <time>2025-08-13T15:05:48.000Z</time>
      </trkpt>
      <trkpt lat="43.68842" lon="-1.42657">
        <ele>-16.39999961853</ele>
        <time>2025-08-13T15:05:50.000Z</time>
      </trkpt>
      <trkpt lat="43.68847" lon="-1.42647">
        <ele>-16.200000762939</ele>
        <time>2025-08-13T15:05:52.000Z</time>
      </trkpt>
      <trkpt lat="43.6885" lon="-1.42642">
        <ele>-16</ele>
        <time>2025-08-13T15:05:53.000Z</time>
      </trkpt>
      <trkpt lat="43.68859" lon="-1.42632">
        <ele>-15.60000038147</ele>
        <time>2025-08-13T15:05:56.000Z</time>
      </trkpt>
      <trkpt lat="43.68863" lon="-1.42625">
        <ele>-15</ele>
        <time>2025-08-13T15:05:58.000Z</time>
      </trkpt>
      <trkpt lat="43.68871" lon="-1.42612">
        <ele>-14.60000038147</ele>
        <time>2025-08-13T15:06:02.000Z</time>
      </trkpt>
      <trkpt lat="43.68885" lon="-1.42595">
        <ele>-14</ele>
        <time>2025-08-13T15:06:07.000Z</time>
      </trkpt>
      <trkpt lat="43.68902" lon="-1.4258">
        <ele>-13.60000038147</ele>
        <time>2025-08-13T15:06:12.000Z</time>
      </trkpt>
      <trkpt lat="43.68909" lon="-1.42575">
        <ele>-13.39999961853</ele>
        <time>2025-08-13T15:06:14.000Z</time>
      </trkpt>
      <trkpt lat="43.68925" lon="-1.42567">
        <ele>-13.39999961853</ele>
        <time>2025-08-13T15:06:18.000Z</time>
      </trkpt>
      <trkpt lat="43.68959" lon="-1.42553">
        <ele>-13.800000190735</ele>
        <time>2025-08-13T15:06:25.000Z</time>
      </trkpt>
      <trkpt lat="43.68965" lon="-1.42552">
        <ele>-13.800000190735</ele>
        <time>2025-08-13T15:06:26.000Z</time>
      </trkpt>
      <trkpt lat="43.68981" lon="-1.4255">
        <ele>-13.800000190735</ele>
        <time>2025-08-13T15:06:29.000Z</time>
      </trkpt>
      <trkpt lat="43.69025" lon="-1.42549">
        <ele>-14.39999961853</ele>
        <time>2025-08-13T15:06:37.000Z</time>
      </trkpt>
      <trkpt lat="43.69037" lon="-1.42549">
        <ele>-14.39999961853</ele>
        <time>2025-08-13T15:06:39.000Z</time>
      </trkpt>
      <trkpt lat="43.6906" lon="-1.42547">
        <ele>-14.60000038147</ele>
        <time>2025-08-13T15:06:43.000Z</time>
      </trkpt>
      <trkpt lat="43.69068" lon="-1.42547">
        <ele>-14.60000038147</ele>
        <time>2025-08-13T15:06:45.000Z</time>
      </trkpt>
      <trkpt lat="43.6908" lon="-1.42555">
        <ele>-14.800000190735</ele>
        <time>2025-08-13T15:06:48.000Z</time>
      </trkpt>
      <trkpt lat="43.69097" lon="-1.42559">
        <ele>-15.199999809265</ele>
        <time>2025-08-13T15:06:52.000Z</time>
      </trkpt>
      <trkpt lat="43.69101" lon="-1.42559">
        <ele>-15.199999809265</ele>
        <time>2025-08-13T15:06:53.000Z</time>
      </trkpt>
      <trkpt lat="43.69105" lon="-1.42558">
        <ele>-15.39999961853</ele>
        <time>2025-08-13T15:06:54.000Z</time>
      </trkpt>
      <trkpt lat="43.69112" lon="-1.42554">
        <ele>-15.39999961853</ele>
        <time>2025-08-13T15:06:56.000Z</time>
      </trkpt>
      <trkpt lat="43.69133" lon="-1.42551">
        <ele>-15.39999961853</ele>
        <time>2025-08-13T15:07:01.000Z</time>
      </trkpt>
      <trkpt lat="43.69142" lon="-1.42549">
        <ele>-15.39999961853</ele>
        <time>2025-08-13T15:07:03.000Z</time>
      </trkpt>
      <trkpt lat="43.69156" lon="-1.4255">
        <ele>-15.60000038147</ele>
        <time>2025-08-13T15:07:06.000Z</time>
      </trkpt>
      <trkpt lat="43.69161" lon="-1.42551">
        <ele>-15.800000190735</ele>
        <time>2025-08-13T15:07:07.000Z</time>
      </trkpt>
      <trkpt lat="43.69194" lon="-1.42553">
        <ele>-16</ele>
        <time>2025-08-13T15:07:14.000Z</time>
      </trkpt>
      <trkpt lat="43.69214" lon="-1.42555">
        <ele>-16.200000762939</ele>
        <time>2025-08-13T15:07:18.000Z</time>
      </trkpt>
      <trkpt lat="43.69235" lon="-1.42557">
        <ele>-16.200000762939</ele>
        <time>2025-08-13T15:07:23.000Z</time>
      </trkpt>
      <trkpt lat="43.69249" lon="-1.42562">
        <ele>-16.200000762939</ele>
        <time>2025-08-13T15:07:26.000Z</time>
      </trkpt>
      <trkpt lat="43.69262" lon="-1.42573">
        <ele>-16.39999961853</ele>
        <time>2025-08-13T15:07:29.000Z</time>
      </trkpt>
      <trkpt lat="43.69269" lon="-1.42581">
        <ele>-16.39999961853</ele>
        <time>2025-08-13T15:07:31.000Z</time>
      </trkpt>
      <trkpt lat="43.69281" lon="-1.42599">
        <ele>-16.60000038147</ele>
        <time>2025-08-13T15:07:35.000Z</time>
      </trkpt>
      <trkpt lat="43.69295" lon="-1.4262">
        <ele>-16.60000038147</ele>
        <time>2025-08-13T15:07:40.000Z</time>
      </trkpt>
      <trkpt lat="43.693" lon="-1.42625">
        <ele>-16.60000038147</ele>
        <time>2025-08-13T15:07:42.000Z</time>
      </trkpt>
      <trkpt lat="43.69306" lon="-1.4263">
        <ele>-16.39999961853</ele>
        <time>2025-08-13T15:07:47.000Z</time>
      </trkpt>
      <trkpt lat="43.69306" lon="-1.42618">
        <ele>-17</ele>
        <time>2025-08-13T15:08:43.000Z</time>
      </trkpt>
      <trkpt lat="43.69309" lon="-1.4261">
        <ele>-17</ele>
        <time>2025-08-13T15:08:45.000Z</time>
      </trkpt>
      <trkpt lat="43.69316" lon="-1.42594">
        <ele>-17</ele>
        <time>2025-08-13T15:08:48.000Z</time>
      </trkpt>
      <trkpt lat="43.69321" lon="-1.42584">
        <ele>-17</ele>
        <time>2025-08-13T15:08:50.000Z</time>
      </trkpt>
      <trkpt lat="43.69331" lon="-1.42558">
        <ele>-17.200000762939</ele>
        <time>2025-08-13T15:08:56.000Z</time>
      </trkpt>
      <trkpt lat="43.69332" lon="-1.4255">
        <ele>-17.39999961853</ele>
        <time>2025-08-13T15:09:00.000Z</time>
      </trkpt>
      <trkpt lat="43.69333" lon="-1.42537">
        <ele>-17.60000038147</ele>
        <time>2025-08-13T15:09:03.000Z</time>
      </trkpt>
      <trkpt lat="43.69335" lon="-1.42533">
        <ele>-17.60000038147</ele>
        <time>2025-08-13T15:09:04.000Z</time>
      </trkpt>
      <trkpt lat="43.69337" lon="-1.42531">
        <ele>-17.60000038147</ele>
        <time>2025-08-13T15:09:05.000Z</time>
      </trkpt>
      <trkpt lat="43.69343" lon="-1.42531">
        <ele>-18</ele>
        <time>2025-08-13T15:09:07.000Z</time>
      </trkpt>
      <trkpt lat="43.69368" lon="-1.42535">
        <ele>-17.799999237061</ele>
        <time>2025-08-13T15:09:13.000Z</time>
      </trkpt>
      <trkpt lat="43.69373" lon="-1.42536">
        <ele>-17.60000038147</ele>
        <time>2025-08-13T15:09:14.000Z</time>
      </trkpt>
      <trkpt lat="43.69395" lon="-1.42539">
        <ele>-17.799999237061</ele>
        <time>2025-08-13T15:09:19.000Z</time>
      </trkpt>
      <trkpt lat="43.694" lon="-1.42539">
        <ele>-17.799999237061</ele>
        <time>2025-08-13T15:09:20.000Z</time>
      </trkpt>
      <trkpt lat="43.69417" lon="-1.42538">
        <ele>-17.799999237061</ele>
        <time>2025-08-13T15:09:24.000Z</time>
      </trkpt>
      <trkpt lat="43.69422" lon="-1.42539">
        <ele>-17.799999237061</ele>
        <time>2025-08-13T15:09:25.000Z</time>
      </trkpt>
      <trkpt lat="43.69427" lon="-1.42539">
        <ele>-17.799999237061</ele>
        <time>2025-08-13T15:09:26.000Z</time>
      </trkpt>
      <trkpt lat="43.69445" lon="-1.42541">
        <ele>-17.799999237061</ele>
        <time>2025-08-13T15:09:30.000Z</time>
      </trkpt>
      <trkpt lat="43.69464" lon="-1.42541">
        <ele>-17.60000038147</ele>
        <time>2025-08-13T15:09:34.000Z</time>
      </trkpt>
      <trkpt lat="43.69474" lon="-1.42541">
        <ele>-17.60000038147</ele>
        <time>2025-08-13T15:09:36.000Z</time>
      </trkpt>
      <trkpt lat="43.69483" lon="-1.42541">
        <ele>-17.60000038147</ele>
        <time>2025-08-13T15:09:38.000Z</time>
      </trkpt>
      <trkpt lat="43.69493" lon="-1.42542">
        <ele>-17.60000038147</ele>
        <time>2025-08-13T15:09:40.000Z</time>
      </trkpt>
      <trkpt lat="43.69502" lon="-1.42543">
        <ele>-17.60000038147</ele>
        <time>2025-08-13T15:09:42.000Z</time>
      </trkpt>
      <trkpt lat="43.69507" lon="-1.42543">
        <ele>-17.60000038147</ele>
        <time>2025-08-13T15:09:43.000Z</time>
      </trkpt>
      <trkpt lat="43.69536" lon="-1.42542">
        <ele>-17.39999961853</ele>
        <time>2025-08-13T15:09:49.000Z</time>
      </trkpt>
      <trkpt lat="43.69558" lon="-1.42543">
        <ele>-17.39999961853</ele>
        <time>2025-08-13T15:09:54.000Z</time>
      </trkpt>
      <trkpt lat="43.69594" lon="-1.42544">
        <ele>-17.39999961853</ele>
        <time>2025-08-13T15:10:01.000Z</time>
      </trkpt>
      <trkpt lat="43.69628" lon="-1.42543">
        <ele>-17.39999961853</ele>
        <time>2025-08-13T15:10:07.000Z</time>
      </trkpt>
      <trkpt lat="43.69654" lon="-1.42544">
        <ele>-17.39999961853</ele>
        <time>2025-08-13T15:10:12.000Z</time>
      </trkpt>
      <trkpt lat="43.69664" lon="-1.42544">
        <ele>-17.39999961853</ele>
        <time>2025-08-13T15:10:14.000Z</time>
      </trkpt>
      <trkpt lat="43.69685" lon="-1.42542">
        <ele>-17.39999961853</ele>
        <time>2025-08-13T15:10:18.000Z</time>
      </trkpt>
      <trkpt lat="43.69713" lon="-1.42531">
        <ele>-17.60000038147</ele>
        <time>2025-08-13T15:10:23.000Z</time>
      </trkpt>
      <trkpt lat="43.69742" lon="-1.4251">
        <ele>-17.799999237061</ele>
        <time>2025-08-13T15:10:29.000Z</time>
      </trkpt>
      <trkpt lat="43.69749" lon="-1.42502">
        <ele>-17.799999237061</ele>
        <time>2025-08-13T15:10:31.000Z</time>
      </trkpt>
      <trkpt lat="43.69761" lon="-1.42483">
        <ele>-17.60000038147</ele>
        <time>2025-08-13T15:10:35.000Z</time>
      </trkpt>
      <trkpt lat="43.69775" lon="-1.42459">
        <ele>-16.60000038147</ele>
        <time>2025-08-13T15:10:41.000Z</time>
      </trkpt>
      <trkpt lat="43.69779" lon="-1.42452">
        <ele>-16.200000762939</ele>
        <time>2025-08-13T15:10:43.000Z</time>
      </trkpt>
      <trkpt lat="43.69787" lon="-1.42438">
        <ele>-15.199999809265</ele>
        <time>2025-08-13T15:10:47.000Z</time>
      </trkpt>
      <trkpt lat="43.698" lon="-1.42413">
        <ele>-14.199999809265</ele>
        <time>2025-08-13T15:10:53.000Z</time>
      </trkpt>
      <trkpt lat="43.69802" lon="-1.42408">
        <ele>-14.199999809265</ele>
        <time>2025-08-13T15:10:54.000Z</time>
      </trkpt>
      <trkpt lat="43.69806" lon="-1.42389">
        <ele>-14</ele>
        <time>2025-08-13T15:10:57.000Z</time>
      </trkpt>
      <trkpt lat="43.69808" lon="-1.42383">
        <ele>-14</ele>
        <time>2025-08-13T15:10:58.000Z</time>
      </trkpt>
      <trkpt lat="43.6981" lon="-1.42378">
        <ele>-14</ele>
        <time>2025-08-13T15:10:59.000Z</time>
      </trkpt>
      <trkpt lat="43.69818" lon="-1.42348">
        <ele>-14</ele>
        <time>2025-08-13T15:11:04.000Z</time>
      </trkpt>
      <trkpt lat="43.69822" lon="-1.42331">
        <ele>-14</ele>
        <time>2025-08-13T15:11:07.000Z</time>
      </trkpt>
      <trkpt lat="43.69821" lon="-1.42319">
        <ele>-14</ele>
        <time>2025-08-13T15:11:09.000Z</time>
      </trkpt>
      <trkpt lat="43.69821" lon="-1.42306">
        <ele>-14.199999809265</ele>
        <time>2025-08-13T15:11:11.000Z</time>
      </trkpt>
      <trkpt lat="43.6982" lon="-1.42292">
        <ele>-14.199999809265</ele>
        <time>2025-08-13T15:11:13.000Z</time>
      </trkpt>
      <trkpt lat="43.69822" lon="-1.42275">
        <ele>-14.39999961853</ele>
        <time>2025-08-13T15:11:15.000Z</time>
      </trkpt>
      <trkpt lat="43.69825" lon="-1.42256">
        <ele>-14.800000190735</ele>
        <time>2025-08-13T15:11:17.000Z</time>
      </trkpt>
      <trkpt lat="43.69836" lon="-1.42227">
        <ele>-15.39999961853</ele>
        <time>2025-08-13T15:11:20.000Z</time>
      </trkpt>
      <trkpt lat="43.69842" lon="-1.42209">
        <ele>-16</ele>
        <time>2025-08-13T15:11:22.000Z</time>
      </trkpt>
      <trkpt lat="43.69845" lon="-1.422">
        <ele>-16.39999961853</ele>
        <time>2025-08-13T15:11:23.000Z</time>
      </trkpt>
      <trkpt lat="43.69851" lon="-1.42183">
        <ele>-16.799999237061</ele>
        <time>2025-08-13T15:11:25.000Z</time>
      </trkpt>
      <trkpt lat="43.69856" lon="-1.42168">
        <ele>-17.200000762939</ele>
        <time>2025-08-13T15:11:27.000Z</time>
      </trkpt>
      <trkpt lat="43.6986" lon="-1.4216">
        <ele>-17.200000762939</ele>
        <time>2025-08-13T15:11:28.000Z</time>
      </trkpt>
      <trkpt lat="43.69867" lon="-1.42146">
        <ele>-17.39999961853</ele>
        <time>2025-08-13T15:11:30.000Z</time>
      </trkpt>
      <trkpt lat="43.6987" lon="-1.42139">
        <ele>-17.39999961853</ele>
        <time>2025-08-13T15:11:31.000Z</time>
      </trkpt>
      <trkpt lat="43.69874" lon="-1.42132">
        <ele>-17.39999961853</ele>
        <time>2025-08-13T15:11:32.000Z</time>
      </trkpt>
      <trkpt lat="43.69881" lon="-1.42118">
        <ele>-17.60000038147</ele>
        <time>2025-08-13T15:11:35.000Z</time>
      </trkpt>
      <trkpt lat="43.69889" lon="-1.42107">
        <ele>-17.60000038147</ele>
        <time>2025-08-13T15:11:37.000Z</time>
      </trkpt>
      <trkpt lat="43.69901" lon="-1.42096">
        <ele>-17.60000038147</ele>
        <time>2025-08-13T15:11:39.000Z</time>
      </trkpt>
      <trkpt lat="43.69907" lon="-1.42091">
        <ele>-17.60000038147</ele>
        <time>2025-08-13T15:11:40.000Z</time>
      </trkpt>
      <trkpt lat="43.69915" lon="-1.42082">
        <ele>-17.60000038147</ele>
        <time>2025-08-13T15:11:42.000Z</time>
      </trkpt>
      <trkpt lat="43.6992" lon="-1.42078">
        <ele>-17.60000038147</ele>
        <time>2025-08-13T15:11:43.000Z</time>
      </trkpt>
      <trkpt lat="43.6994" lon="-1.42065">
        <ele>-17.60000038147</ele>
        <time>2025-08-13T15:11:47.000Z</time>
      </trkpt>
      <trkpt lat="43.69954" lon="-1.42061">
        <ele>-17.60000038147</ele>
        <time>2025-08-13T15:11:50.000Z</time>
      </trkpt>
      <trkpt lat="43.69962" lon="-1.42059">
        <ele>-17.39999961853</ele>
        <time>2025-08-13T15:11:52.000Z</time>
      </trkpt>
      <trkpt lat="43.69969" lon="-1.42056">
        <ele>-17</ele>
        <time>2025-08-13T15:11:54.000Z</time>
      </trkpt>
      <trkpt lat="43.69979" lon="-1.42053">
        <ele>-16.39999961853</ele>
        <time>2025-08-13T15:11:57.000Z</time>
      </trkpt>
      <trkpt lat="43.69986" lon="-1.42052">
        <ele>-16</ele>
        <time>2025-08-13T15:11:59.000Z</time>
      </trkpt>
      <trkpt lat="43.69996" lon="-1.42052">
        <ele>-15.199999809265</ele>
        <time>2025-08-13T15:12:02.000Z</time>
      </trkpt>
      <trkpt lat="43.70012" lon="-1.4205">
        <ele>-14.800000190735</ele>
        <time>2025-08-13T15:12:06.000Z</time>
      </trkpt>
      <trkpt lat="43.70047" lon="-1.42044">
        <ele>-14.60000038147</ele>
        <time>2025-08-13T15:12:15.000Z</time>
      </trkpt>
      <trkpt lat="43.70069" lon="-1.42037">
        <ele>-14.60000038147</ele>
        <time>2025-08-13T15:12:20.000Z</time>
      </trkpt>
      <trkpt lat="43.7008" lon="-1.42031">
        <ele>-14.60000038147</ele>
        <time>2025-08-13T15:12:22.000Z</time>
      </trkpt>
      <trkpt lat="43.70112" lon="-1.4202">
        <ele>-15.199999809265</ele>
        <time>2025-08-13T15:12:27.000Z</time>
      </trkpt>
      <trkpt lat="43.70126" lon="-1.42015">
        <ele>-15.800000190735</ele>
        <time>2025-08-13T15:12:29.000Z</time>
      </trkpt>
      <trkpt lat="43.70138" lon="-1.4201">
        <ele>-16.60000038147</ele>
        <time>2025-08-13T15:12:31.000Z</time>
      </trkpt>
      <trkpt lat="43.70142" lon="-1.42009">
        <ele>-16.799999237061</ele>
        <time>2025-08-13T15:12:32.000Z</time>
      </trkpt>
      <trkpt lat="43.70164" lon="-1.42004">
        <ele>-17.60000038147</ele>
        <time>2025-08-13T15:12:36.000Z</time>
      </trkpt>
      <trkpt lat="43.70182" lon="-1.42004">
        <ele>-17.799999237061</ele>
        <time>2025-08-13T15:12:39.000Z</time>
      </trkpt>
      <trkpt lat="43.70199" lon="-1.42001">
        <ele>-18</ele>
        <time>2025-08-13T15:12:42.000Z</time>
      </trkpt>
      <trkpt lat="43.70212" lon="-1.41997">
        <ele>-18.200000762939</ele>
        <time>2025-08-13T15:12:44.000Z</time>
      </trkpt>
      <trkpt lat="43.70236" lon="-1.41991">
        <ele>-18.39999961853</ele>
        <time>2025-08-13T15:12:48.000Z</time>
      </trkpt>
      <trkpt lat="43.70264" lon="-1.41983">
        <ele>-18.799999237061</ele>
        <time>2025-08-13T15:12:54.000Z</time>
      </trkpt>
      <trkpt lat="43.70271" lon="-1.41983">
        <ele>-18.799999237061</ele>
        <time>2025-08-13T15:12:56.000Z</time>
      </trkpt>
      <trkpt lat="43.70282" lon="-1.41985">
        <ele>-18.799999237061</ele>
        <time>2025-08-13T15:12:59.000Z</time>
      </trkpt>
      <trkpt lat="43.70308" lon="-1.41983">
        <ele>-19</ele>
        <time>2025-08-13T15:13:05.000Z</time>
      </trkpt>
      <trkpt lat="43.70337" lon="-1.41984">
        <ele>-19</ele>
        <time>2025-08-13T15:13:10.000Z</time>
      </trkpt>
      <trkpt lat="43.70378" lon="-1.41979">
        <ele>-19</ele>
        <time>2025-08-13T15:13:18.000Z</time>
      </trkpt>
      <trkpt lat="43.7039" lon="-1.41977">
        <ele>-19</ele>
        <time>2025-08-13T15:13:20.000Z</time>
      </trkpt>
      <trkpt lat="43.70402" lon="-1.41975">
        <ele>-19</ele>
        <time>2025-08-13T15:13:22.000Z</time>
      </trkpt>
      <trkpt lat="43.70406" lon="-1.41975">
        <ele>-19</ele>
        <time>2025-08-13T15:13:23.000Z</time>
      </trkpt>
      <trkpt lat="43.70428" lon="-1.41981">
        <ele>-18.799999237061</ele>
        <time>2025-08-13T15:13:27.000Z</time>
      </trkpt>
      <trkpt lat="43.70444" lon="-1.41983">
        <ele>-18.60000038147</ele>
        <time>2025-08-13T15:13:30.000Z</time>
      </trkpt>
      <trkpt lat="43.7045" lon="-1.41982">
        <ele>-18.60000038147</ele>
        <time>2025-08-13T15:13:31.000Z</time>
      </trkpt>
      <trkpt lat="43.70454" lon="-1.4198">
        <ele>-18.60000038147</ele>
        <time>2025-08-13T15:13:32.000Z</time>
      </trkpt>
      <trkpt lat="43.70465" lon="-1.41979">
        <ele>-18.60000038147</ele>
        <time>2025-08-13T15:13:34.000Z</time>
      </trkpt>
      <trkpt lat="43.7047" lon="-1.41976">
        <ele>-18.60000038147</ele>
        <time>2025-08-13T15:13:35.000Z</time>
      </trkpt>
      <trkpt lat="43.70481" lon="-1.41969">
        <ele>-18.60000038147</ele>
        <time>2025-08-13T15:13:37.000Z</time>
      </trkpt>
      <trkpt lat="43.70498" lon="-1.41955">
        <ele>-18.39999961853</ele>
        <time>2025-08-13T15:13:41.000Z</time>
      </trkpt>
      <trkpt lat="43.7052" lon="-1.41935">
        <ele>-18.60000038147</ele>
        <time>2025-08-13T15:13:46.000Z</time>
      </trkpt>
      <trkpt lat="43.70534" lon="-1.4192">
        <ele>-18.60000038147</ele>
        <time>2025-08-13T15:13:49.000Z</time>
      </trkpt>
      <trkpt lat="43.70545" lon="-1.41909">
        <ele>-18.799999237061</ele>
        <time>2025-08-13T15:13:52.000Z</time>
      </trkpt>
      <trkpt lat="43.70554" lon="-1.419">
        <ele>-18.799999237061</ele>
        <time>2025-08-13T15:13:54.000Z</time>
      </trkpt>
      <trkpt lat="43.70569" lon="-1.41886">
        <ele>-18.799999237061</ele>
        <time>2025-08-13T15:13:57.000Z</time>
      </trkpt>
      <trkpt lat="43.70576" lon="-1.41878">
        <ele>-18.799999237061</ele>
        <time>2025-08-13T15:13:59.000Z</time>
      </trkpt>
      <trkpt lat="43.70581" lon="-1.41872">
        <ele>-18.799999237061</ele>
        <time>2025-08-13T15:14:00.000Z</time>
      </trkpt>
      <trkpt lat="43.70585" lon="-1.41866">
        <ele>-18.799999237061</ele>
        <time>2025-08-13T15:14:01.000Z</time>
      </trkpt>
      <trkpt lat="43.70592" lon="-1.4186">
        <ele>-19</ele>
        <time>2025-08-13T15:14:04.000Z</time>
      </trkpt>
      <trkpt lat="43.70597" lon="-1.41854">
        <ele>-19</ele>
        <time>2025-08-13T15:14:09.000Z</time>
      </trkpt>
      <trkpt lat="43.70602" lon="-1.41843">
        <ele>-19</ele>
        <time>2025-08-13T15:14:14.000Z</time>
      </trkpt>
      <trkpt lat="43.70609" lon="-1.41825">
        <ele>-19.39999961853</ele>
        <time>2025-08-13T15:14:18.000Z</time>
      </trkpt>
      <trkpt lat="43.70613" lon="-1.41806">
        <ele>-19.200000762939</ele>
        <time>2025-08-13T15:14:22.000Z</time>
      </trkpt>
      <trkpt lat="43.70615" lon="-1.41787">
        <ele>-19.200000762939</ele>
        <time>2025-08-13T15:14:27.000Z</time>
      </trkpt>
      <trkpt lat="43.70616" lon="-1.41786">
        <ele>-19.200000762939</ele>
        <time>2025-08-13T15:14:28.000Z</time>
      </trkpt>
      <trkpt lat="43.70616" lon="-1.41786">
        <ele>-19.39999961853</ele>
        <time>2025-08-13T15:14:30.000Z</time>
      </trkpt>
      <trkpt lat="43.70616" lon="-1.41786">
        <ele>-19.39999961853</ele>
        <time>2025-08-13T15:14:32.000Z</time>
      </trkpt>
      <trkpt lat="43.7062" lon="-1.41784">
        <ele>-19.200000762939</ele>
        <time>2025-08-13T15:14:40.000Z</time>
      </trkpt>
      <trkpt lat="43.70625" lon="-1.41782">
        <ele>-19.200000762939</ele>
        <time>2025-08-13T15:14:42.000Z</time>
      </trkpt>
      <trkpt lat="43.70631" lon="-1.4178">
        <ele>-19.200000762939</ele>
        <time>2025-08-13T15:14:44.000Z</time>
      </trkpt>
      <trkpt lat="43.70637" lon="-1.41783">
        <ele>-19.200000762939</ele>
        <time>2025-08-13T15:14:46.000Z</time>
      </trkpt>
      <trkpt lat="43.70652" lon="-1.41789">
        <ele>-19.200000762939</ele>
        <time>2025-08-13T15:14:50.000Z</time>
      </trkpt>
      <trkpt lat="43.70668" lon="-1.41781">
        <ele>-19.200000762939</ele>
        <time>2025-08-13T15:14:55.000Z</time>
      </trkpt>
      <trkpt lat="43.70684" lon="-1.41768">
        <ele>-19</ele>
        <time>2025-08-13T15:15:01.000Z</time>
      </trkpt>
      <trkpt lat="43.70707" lon="-1.41743">
        <ele>-18.799999237061</ele>
        <time>2025-08-13T15:15:08.000Z</time>
      </trkpt>
      <trkpt lat="43.70719" lon="-1.41734">
        <ele>-18.39999961853</ele>
        <time>2025-08-13T15:15:12.000Z</time>
      </trkpt>
      <trkpt lat="43.70753" lon="-1.41712">
        <ele>-18.200000762939</ele>
        <time>2025-08-13T15:15:19.000Z</time>
      </trkpt>
      <trkpt lat="43.70765" lon="-1.41707">
        <ele>-18</ele>
        <time>2025-08-13T15:15:22.000Z</time>
      </trkpt>
      <trkpt lat="43.70772" lon="-1.41705">
        <ele>-18</ele>
        <time>2025-08-13T15:15:24.000Z</time>
      </trkpt>
      <trkpt lat="43.70775" lon="-1.41704">
        <ele>-17.799999237061</ele>
        <time>2025-08-13T15:15:25.000Z</time>
      </trkpt>
      <trkpt lat="43.70797" lon="-1.41703">
        <ele>-17.39999961853</ele>
        <time>2025-08-13T15:15:31.000Z</time>
      </trkpt>
      <trkpt lat="43.70808" lon="-1.41706">
        <ele>-17</ele>
        <time>2025-08-13T15:15:34.000Z</time>
      </trkpt>
      <trkpt lat="43.70827" lon="-1.41717">
        <ele>-16.60000038147</ele>
        <time>2025-08-13T15:15:39.000Z</time>
      </trkpt>
      <trkpt lat="43.70848" lon="-1.41732">
        <ele>-16</ele>
        <time>2025-08-13T15:15:45.000Z</time>
      </trkpt>
      <trkpt lat="43.70866" lon="-1.41755">
        <ele>-15.60000038147</ele>
        <time>2025-08-13T15:15:52.000Z</time>
      </trkpt>
      <trkpt lat="43.70882" lon="-1.41784">
        <ele>-15.39999961853</ele>
        <time>2025-08-13T15:15:58.000Z</time>
      </trkpt>
      <trkpt lat="43.70887" lon="-1.41794">
        <ele>-15.199999809265</ele>
        <time>2025-08-13T15:16:00.000Z</time>
      </trkpt>
      <trkpt lat="43.70912" lon="-1.41837">
        <ele>-15.199999809265</ele>
        <time>2025-08-13T15:16:09.000Z</time>
      </trkpt>
      <trkpt lat="43.70915" lon="-1.41842">
        <ele>-15.199999809265</ele>
        <time>2025-08-13T15:16:10.000Z</time>
      </trkpt>
      <trkpt lat="43.70938" lon="-1.41869">
        <ele>-15.39999961853</ele>
        <time>2025-08-13T15:16:16.000Z</time>
      </trkpt>
      <trkpt lat="43.70968" lon="-1.41893">
        <ele>-15.60000038147</ele>
        <time>2025-08-13T15:16:22.000Z</time>
      </trkpt>
      <trkpt lat="43.70986" lon="-1.41901">
        <ele>-16</ele>
        <time>2025-08-13T15:16:25.000Z</time>
      </trkpt>
      <trkpt lat="43.70998" lon="-1.41907">
        <ele>-16.39999961853</ele>
        <time>2025-08-13T15:16:27.000Z</time>
      </trkpt>
      <trkpt lat="43.7101" lon="-1.41912">
        <ele>-17</ele>
        <time>2025-08-13T15:16:29.000Z</time>
      </trkpt>
      <trkpt lat="43.71024" lon="-1.41912">
        <ele>-17.39999961853</ele>
        <time>2025-08-13T15:16:31.000Z</time>
      </trkpt>
      <trkpt lat="43.7103" lon="-1.41912">
        <ele>-17.39999961853</ele>
        <time>2025-08-13T15:16:32.000Z</time>
      </trkpt>
      <trkpt lat="43.71043" lon="-1.4191">
        <ele>-17.799999237061</ele>
        <time>2025-08-13T15:16:34.000Z</time>
      </trkpt>
      <trkpt lat="43.71061" lon="-1.41905">
        <ele>-18</ele>
        <time>2025-08-13T15:16:37.000Z</time>
      </trkpt>
      <trkpt lat="43.71077" lon="-1.41902">
        <ele>-18.200000762939</ele>
        <time>2025-08-13T15:16:40.000Z</time>
      </trkpt>
      <trkpt lat="43.71083" lon="-1.41903">
        <ele>-18.39999961853</ele>
        <time>2025-08-13T15:16:41.000Z</time>
      </trkpt>
      <trkpt lat="43.7109" lon="-1.41902">
        <ele>-18.39999961853</ele>
        <time>2025-08-13T15:16:42.000Z</time>
      </trkpt>
      <trkpt lat="43.71127" lon="-1.4189">
        <ele>-18.799999237061</ele>
        <time>2025-08-13T15:16:48.000Z</time>
      </trkpt>
      <trkpt lat="43.71166" lon="-1.41881">
        <ele>-18.799999237061</ele>
        <time>2025-08-13T15:16:55.000Z</time>
      </trkpt>
      <trkpt lat="43.71172" lon="-1.4188">
        <ele>-18.799999237061</ele>
        <time>2025-08-13T15:16:56.000Z</time>
      </trkpt>
      <trkpt lat="43.71191" lon="-1.41881">
        <ele>-18.60000038147</ele>
        <time>2025-08-13T15:17:00.000Z</time>
      </trkpt>
      <trkpt lat="43.71195" lon="-1.41882">
        <ele>-18.60000038147</ele>
        <time>2025-08-13T15:17:01.000Z</time>
      </trkpt>
      <trkpt lat="43.71213" lon="-1.41889">
        <ele>-18</ele>
        <time>2025-08-13T15:17:06.000Z</time>
      </trkpt>
      <trkpt lat="43.71228" lon="-1.419">
        <ele>-17.39999961853</ele>
        <time>2025-08-13T15:17:10.000Z</time>
      </trkpt>
      <trkpt lat="43.71243" lon="-1.41912">
        <ele>-16.60000038147</ele>
        <time>2025-08-13T15:17:14.000Z</time>
      </trkpt>
      <trkpt lat="43.71261" lon="-1.41929">
        <ele>-16.39999961853</ele>
        <time>2025-08-13T15:17:19.000Z</time>
      </trkpt>
      <trkpt lat="43.7127" lon="-1.41935">
        <ele>-16.200000762939</ele>
        <time>2025-08-13T15:17:21.000Z</time>
      </trkpt>
      <trkpt lat="43.71275" lon="-1.41937">
        <ele>-16.200000762939</ele>
        <time>2025-08-13T15:17:22.000Z</time>
      </trkpt>
      <trkpt lat="43.71288" lon="-1.41942">
        <ele>-16.200000762939</ele>
        <time>2025-08-13T15:17:25.000Z</time>
      </trkpt>
      <trkpt lat="43.713" lon="-1.41951">
        <ele>-16.200000762939</ele>
        <time>2025-08-13T15:17:27.000Z</time>
      </trkpt>
      <trkpt lat="43.71305" lon="-1.41958">
        <ele>-16.39999961853</ele>
        <time>2025-08-13T15:17:28.000Z</time>
      </trkpt>
      <trkpt lat="43.71315" lon="-1.41973">
        <ele>-16.60000038147</ele>
        <time>2025-08-13T15:17:30.000Z</time>
      </trkpt>
      <trkpt lat="43.71325" lon="-1.4199">
        <ele>-17.200000762939</ele>
        <time>2025-08-13T15:17:32.000Z</time>
      </trkpt>
      <trkpt lat="43.71337" lon="-1.42005">
        <ele>-17.60000038147</ele>
        <time>2025-08-13T15:17:34.000Z</time>
      </trkpt>
      <trkpt lat="43.71349" lon="-1.42018">
        <ele>-18.200000762939</ele>
        <time>2025-08-13T15:17:36.000Z</time>
      </trkpt>
      <trkpt lat="43.71354" lon="-1.42025">
        <ele>-18.60000038147</ele>
        <time>2025-08-13T15:17:37.000Z</time>
      </trkpt>
      <trkpt lat="43.71359" lon="-1.42032">
        <ele>-18.60000038147</ele>
        <time>2025-08-13T15:17:38.000Z</time>
      </trkpt>
      <trkpt lat="43.71381" lon="-1.42053">
        <ele>-18.799999237061</ele>
        <time>2025-08-13T15:17:42.000Z</time>
      </trkpt>
      <trkpt lat="43.71409" lon="-1.42077">
        <ele>-18.60000038147</ele>
        <time>2025-08-13T15:17:48.000Z</time>
      </trkpt>
      <trkpt lat="43.71447" lon="-1.421">
        <ele>-18</ele>
        <time>2025-08-13T15:17:56.000Z</time>
      </trkpt>
      <trkpt lat="43.71456" lon="-1.42103">
        <ele>-18</ele>
        <time>2025-08-13T15:17:58.000Z</time>
      </trkpt>
      <trkpt lat="43.71462" lon="-1.421">
        <ele>-18</ele>
        <time>2025-08-13T15:18:00.000Z</time>
      </trkpt>
      <trkpt lat="43.71467" lon="-1.4209">
        <ele>-18</ele>
        <time>2025-08-13T15:18:04.000Z</time>
      </trkpt>
      <trkpt lat="43.71466" lon="-1.42088">
        <ele>-17.799999237061</ele>
        <time>2025-08-13T15:18:05.000Z</time>
      </trkpt>
      <trkpt lat="43.71466" lon="-1.42086">
        <ele>-17.799999237061</ele>
        <time>2025-08-13T15:18:08.000Z</time>
      </trkpt>
      <trkpt lat="43.71466" lon="-1.42085">
        <ele>-17.799999237061</ele>
        <time>2025-08-13T15:18:11.000Z</time>
      </trkpt>
      <trkpt lat="43.71466" lon="-1.42085">
        <ele>-18</ele>
        <time>2025-08-13T15:18:14.000Z</time>
      </trkpt>
      <trkpt lat="43.71466" lon="-1.42097">
        <ele>-15.199999809265</ele>
        <time>2025-08-13T15:40:58.000Z</time>
      </trkpt>
      <trkpt lat="43.71466" lon="-1.42099">
        <ele>-15</ele>
        <time>2025-08-13T15:40:59.000Z</time>
      </trkpt>
      <trkpt lat="43.71468" lon="-1.42104">
        <ele>-15</ele>
        <time>2025-08-13T15:41:01.000Z</time>
      </trkpt>
      <trkpt lat="43.71474" lon="-1.42107">
        <ele>-15</ele>
        <time>2025-08-13T15:41:04.000Z</time>
      </trkpt>
      <trkpt lat="43.7149" lon="-1.42113">
        <ele>-15.39999961853</ele>
        <time>2025-08-13T15:41:10.000Z</time>
      </trkpt>
      <trkpt lat="43.71518" lon="-1.42111">
        <ele>-15.60000038147</ele>
        <time>2025-08-13T15:41:18.000Z</time>
      </trkpt>
      <trkpt lat="43.71545" lon="-1.4211">
        <ele>-15.39999961853</ele>
        <time>2025-08-13T15:41:24.000Z</time>
      </trkpt>
      <trkpt lat="43.71561" lon="-1.42107">
        <ele>-15.199999809265</ele>
        <time>2025-08-13T15:41:28.000Z</time>
      </trkpt>
      <trkpt lat="43.71573" lon="-1.42101">
        <ele>-15</ele>
        <time>2025-08-13T15:41:31.000Z</time>
      </trkpt>
      <trkpt lat="43.71581" lon="-1.42097">
        <ele>-15</ele>
        <time>2025-08-13T15:41:33.000Z</time>
      </trkpt>
      <trkpt lat="43.71605" lon="-1.42079">
        <ele>-15</ele>
        <time>2025-08-13T15:41:39.000Z</time>
      </trkpt>
      <trkpt lat="43.71615" lon="-1.4207">
        <ele>-14.800000190735</ele>
        <time>2025-08-13T15:41:42.000Z</time>
      </trkpt>
      <trkpt lat="43.71625" lon="-1.4206">
        <ele>-14.800000190735</ele>
        <time>2025-08-13T15:41:45.000Z</time>
      </trkpt>
      <trkpt lat="43.71634" lon="-1.42047">
        <ele>-14.800000190735</ele>
        <time>2025-08-13T15:41:48.000Z</time>
      </trkpt>
      <trkpt lat="43.71657" lon="-1.4201">
        <ele>-14.60000038147</ele>
        <time>2025-08-13T15:41:56.000Z</time>
      </trkpt>
      <trkpt lat="43.71659" lon="-1.42006">
        <ele>-14.39999961853</ele>
        <time>2025-08-13T15:41:57.000Z</time>
      </trkpt>
      <trkpt lat="43.71661" lon="-1.42001">
        <ele>-14.199999809265</ele>
        <time>2025-08-13T15:41:58.000Z</time>
      </trkpt>
      <trkpt lat="43.71674" lon="-1.41979">
        <ele>-14</ele>
        <time>2025-08-13T15:42:03.000Z</time>
      </trkpt>
      <trkpt lat="43.71676" lon="-1.41975">
        <ele>-13.800000190735</ele>
        <time>2025-08-13T15:42:04.000Z</time>
      </trkpt>
      <trkpt lat="43.71688" lon="-1.41956">
        <ele>-13.39999961853</ele>
        <time>2025-08-13T15:42:09.000Z</time>
      </trkpt>
      <trkpt lat="43.71695" lon="-1.41944">
        <ele>-12.800000190735</ele>
        <time>2025-08-13T15:42:12.000Z</time>
      </trkpt>
      <trkpt lat="43.71702" lon="-1.41933">
        <ele>-12.60000038147</ele>
        <time>2025-08-13T15:42:15.000Z</time>
      </trkpt>
      <trkpt lat="43.71708" lon="-1.41925">
        <ele>-11.800000190735</ele>
        <time>2025-08-13T15:42:18.000Z</time>
      </trkpt>
      <trkpt lat="43.71713" lon="-1.41916">
        <ele>-11.199999809265</ele>
        <time>2025-08-13T15:42:21.000Z</time>
      </trkpt>
      <trkpt lat="43.71717" lon="-1.41912">
        <ele>-10.800000190735</ele>
        <time>2025-08-13T15:42:23.000Z</time>
      </trkpt>
      <trkpt lat="43.71723" lon="-1.41904">
        <ele>-10.199999809265</ele>
        <time>2025-08-13T15:42:26.000Z</time>
      </trkpt>
      <trkpt lat="43.7173" lon="-1.41893">
        <ele>-9.6000003814697</ele>
        <time>2025-08-13T15:42:30.000Z</time>
      </trkpt>
      <trkpt lat="43.71735" lon="-1.41885">
        <ele>-9.3999996185303</ele>
        <time>2025-08-13T15:42:33.000Z</time>
      </trkpt>
      <trkpt lat="43.71748" lon="-1.41865">
        <ele>-9</ele>
        <time>2025-08-13T15:42:40.000Z</time>
      </trkpt>
      <trkpt lat="43.71767" lon="-1.41839">
        <ele>-9</ele>
        <time>2025-08-13T15:42:47.000Z</time>
      </trkpt>
      <trkpt lat="43.7177" lon="-1.41835">
        <ele>-9</ele>
        <time>2025-08-13T15:42:48.000Z</time>
      </trkpt>
      <trkpt lat="43.71785" lon="-1.41816">
        <ele>-9.1999998092651</ele>
        <time>2025-08-13T15:42:52.000Z</time>
      </trkpt>
      <trkpt lat="43.71813" lon="-1.41781">
        <ele>-10</ele>
        <time>2025-08-13T15:42:58.000Z</time>
      </trkpt>
      <trkpt lat="43.71829" lon="-1.41763">
        <ele>-11</ele>
        <time>2025-08-13T15:43:01.000Z</time>
      </trkpt>
      <trkpt lat="43.71851" lon="-1.41742">
        <ele>-11.800000190735</ele>
        <time>2025-08-13T15:43:05.000Z</time>
      </trkpt>
      <trkpt lat="43.71857" lon="-1.41737">
        <ele>-12</ele>
        <time>2025-08-13T15:43:06.000Z</time>
      </trkpt>
      <trkpt lat="43.71889" lon="-1.41703">
        <ele>-12.800000190735</ele>
        <time>2025-08-13T15:43:11.000Z</time>
      </trkpt>
      <trkpt lat="43.71896" lon="-1.41697">
        <ele>-13.60000038147</ele>
        <time>2025-08-13T15:43:12.000Z</time>
      </trkpt>
      <trkpt lat="43.71917" lon="-1.41681">
        <ele>-14.60000038147</ele>
        <time>2025-08-13T15:43:15.000Z</time>
      </trkpt>
      <trkpt lat="43.71931" lon="-1.41672">
        <ele>-15.199999809265</ele>
        <time>2025-08-13T15:43:17.000Z</time>
      </trkpt>
      <trkpt lat="43.71944" lon="-1.41661">
        <ele>-15.60000038147</ele>
        <time>2025-08-13T15:43:19.000Z</time>
      </trkpt>
      <trkpt lat="43.71955" lon="-1.41651">
        <ele>-16</ele>
        <time>2025-08-13T15:43:21.000Z</time>
      </trkpt>
      <trkpt lat="43.71967" lon="-1.41641">
        <ele>-16.200000762939</ele>
        <time>2025-08-13T15:43:23.000Z</time>
      </trkpt>
      <trkpt lat="43.71984" lon="-1.41626">
        <ele>-16.799999237061</ele>
        <time>2025-08-13T15:43:26.000Z</time>
      </trkpt>
      <trkpt lat="43.72006" lon="-1.4161">
        <ele>-17.200000762939</ele>
        <time>2025-08-13T15:43:30.000Z</time>
      </trkpt>
      <trkpt lat="43.7201" lon="-1.41608">
        <ele>-17.200000762939</ele>
        <time>2025-08-13T15:43:31.000Z</time>
      </trkpt>
      <trkpt lat="43.72033" lon="-1.41594">
        <ele>-17.39999961853</ele>
        <time>2025-08-13T15:43:35.000Z</time>
      </trkpt>
      <trkpt lat="43.7208" lon="-1.41564">
        <ele>-17.200000762939</ele>
        <time>2025-08-13T15:43:44.000Z</time>
      </trkpt>
      <trkpt lat="43.72114" lon="-1.41542">
        <ele>-17.200000762939</ele>
        <time>2025-08-13T15:43:51.000Z</time>
      </trkpt>
      <trkpt lat="43.72136" lon="-1.41527">
        <ele>-16.799999237061</ele>
        <time>2025-08-13T15:43:56.000Z</time>
      </trkpt>
      <trkpt lat="43.72141" lon="-1.41526">
        <ele>-16.60000038147</ele>
        <time>2025-08-13T15:43:57.000Z</time>
      </trkpt>
      <trkpt lat="43.72167" lon="-1.41514">
        <ele>-16.200000762939</ele>
        <time>2025-08-13T15:44:03.000Z</time>
      </trkpt>
      <trkpt lat="43.72189" lon="-1.41499">
        <ele>-16</ele>
        <time>2025-08-13T15:44:08.000Z</time>
      </trkpt>
      <trkpt lat="43.72197" lon="-1.41492">
        <ele>-16</ele>
        <time>2025-08-13T15:44:10.000Z</time>
      </trkpt>
      <trkpt lat="43.722" lon="-1.41489">
        <ele>-16</ele>
        <time>2025-08-13T15:44:11.000Z</time>
      </trkpt>
      <trkpt lat="43.72212" lon="-1.41479">
        <ele>-16</ele>
        <time>2025-08-13T15:44:14.000Z</time>
      </trkpt>
      <trkpt lat="43.72222" lon="-1.41472">
        <ele>-16.200000762939</ele>
        <time>2025-08-13T15:44:16.000Z</time>
      </trkpt>
      <trkpt lat="43.72237" lon="-1.41465">
        <ele>-16.39999961853</ele>
        <time>2025-08-13T15:44:19.000Z</time>
      </trkpt>
      <trkpt lat="43.72242" lon="-1.41463">
        <ele>-16.39999961853</ele>
        <time>2025-08-13T15:44:20.000Z</time>
      </trkpt>
      <trkpt lat="43.72247" lon="-1.4146">
        <ele>-16.60000038147</ele>
        <time>2025-08-13T15:44:21.000Z</time>
      </trkpt>
      <trkpt lat="43.72269" lon="-1.41448">
        <ele>-16.799999237061</ele>
        <time>2025-08-13T15:44:25.000Z</time>
      </trkpt>
      <trkpt lat="43.72291" lon="-1.41434">
        <ele>-17</ele>
        <time>2025-08-13T15:44:29.000Z</time>
      </trkpt>
      <trkpt lat="43.72308" lon="-1.41421">
        <ele>-17.200000762939</ele>
        <time>2025-08-13T15:44:32.000Z</time>
      </trkpt>
      <trkpt lat="43.72333" lon="-1.41401">
        <ele>-17.60000038147</ele>
        <time>2025-08-13T15:44:37.000Z</time>
      </trkpt>
      <trkpt lat="43.72341" lon="-1.41397">
        <ele>-17.60000038147</ele>
        <time>2025-08-13T15:44:39.000Z</time>
      </trkpt>
      <trkpt lat="43.72367" lon="-1.4138">
        <ele>-17.60000038147</ele>
        <time>2025-08-13T15:44:45.000Z</time>
      </trkpt>
      <trkpt lat="43.72385" lon="-1.4137">
        <ele>-17.39999961853</ele>
        <time>2025-08-13T15:44:49.000Z</time>
      </trkpt>
      <trkpt lat="43.72394" lon="-1.41366">
        <ele>-17.39999961853</ele>
        <time>2025-08-13T15:44:51.000Z</time>
      </trkpt>
      <trkpt lat="43.72433" lon="-1.41345">
        <ele>-17.60000038147</ele>
        <time>2025-08-13T15:44:59.000Z</time>
      </trkpt>
      <trkpt lat="43.72463" lon="-1.41326">
        <ele>-17.799999237061</ele>
        <time>2025-08-13T15:45:06.000Z</time>
      </trkpt>
      <trkpt lat="43.72494" lon="-1.41302">
        <ele>-17.60000038147</ele>
        <time>2025-08-13T15:45:14.000Z</time>
      </trkpt>
      <trkpt lat="43.72513" lon="-1.41289">
        <ele>-16.799999237061</ele>
        <time>2025-08-13T15:45:20.000Z</time>
      </trkpt>
      <trkpt lat="43.72533" lon="-1.41274">
        <ele>-16.39999961853</ele>
        <time>2025-08-13T15:45:25.000Z</time>
      </trkpt>
      <trkpt lat="43.72563" lon="-1.41258">
        <ele>-16.799999237061</ele>
        <time>2025-08-13T15:45:31.000Z</time>
      </trkpt>
      <trkpt lat="43.72578" lon="-1.41248">
        <ele>-17</ele>
        <time>2025-08-13T15:45:34.000Z</time>
      </trkpt>
      <trkpt lat="43.72596" lon="-1.41235">
        <ele>-17.200000762939</ele>
        <time>2025-08-13T15:45:38.000Z</time>
      </trkpt>
      <trkpt lat="43.72632" lon="-1.41213">
        <ele>-17.60000038147</ele>
        <time>2025-08-13T15:45:46.000Z</time>
      </trkpt>
      <trkpt lat="43.72651" lon="-1.41199">
        <ele>-16.799999237061</ele>
        <time>2025-08-13T15:45:52.000Z</time>
      </trkpt>
      <trkpt lat="43.72654" lon="-1.41196">
        <ele>-16.60000038147</ele>
        <time>2025-08-13T15:45:53.000Z</time>
      </trkpt>
      <trkpt lat="43.72667" lon="-1.41181">
        <ele>-16.200000762939</ele>
        <time>2025-08-13T15:45:58.000Z</time>
      </trkpt>
      <trkpt lat="43.72679" lon="-1.41173">
        <ele>-15.60000038147</ele>
        <time>2025-08-13T15:46:02.000Z</time>
      </trkpt>
      <trkpt lat="43.7269" lon="-1.41172">
        <ele>-15.199999809265</ele>
        <time>2025-08-13T15:46:05.000Z</time>
      </trkpt>
      <trkpt lat="43.72716" lon="-1.41165">
        <ele>-14.800000190735</ele>
        <time>2025-08-13T15:46:13.000Z</time>
      </trkpt>
      <trkpt lat="43.72739" lon="-1.4116">
        <ele>-14.60000038147</ele>
        <time>2025-08-13T15:46:18.000Z</time>
      </trkpt>
      <trkpt lat="43.72758" lon="-1.41155">
        <ele>-14.800000190735</ele>
        <time>2025-08-13T15:46:21.000Z</time>
      </trkpt>
      <trkpt lat="43.72772" lon="-1.41154">
        <ele>-15.39999961853</ele>
        <time>2025-08-13T15:46:23.000Z</time>
      </trkpt>
      <trkpt lat="43.72779" lon="-1.41154">
        <ele>-15.60000038147</ele>
        <time>2025-08-13T15:46:24.000Z</time>
      </trkpt>
      <trkpt lat="43.72799" lon="-1.41155">
        <ele>-16.60000038147</ele>
        <time>2025-08-13T15:46:27.000Z</time>
      </trkpt>
      <trkpt lat="43.72813" lon="-1.41156">
        <ele>-17</ele>
        <time>2025-08-13T15:46:29.000Z</time>
      </trkpt>
      <trkpt lat="43.72846" lon="-1.41158">
        <ele>-17.799999237061</ele>
        <time>2025-08-13T15:46:34.000Z</time>
      </trkpt>
      <trkpt lat="43.72852" lon="-1.41159">
        <ele>-17.799999237061</ele>
        <time>2025-08-13T15:46:35.000Z</time>
      </trkpt>
      <trkpt lat="43.72899" lon="-1.41179">
        <ele>-18.39999961853</ele>
        <time>2025-08-13T15:46:43.000Z</time>
      </trkpt>
      <trkpt lat="43.72925" lon="-1.41193">
        <ele>-18.39999961853</ele>
        <time>2025-08-13T15:46:48.000Z</time>
      </trkpt>
      <trkpt lat="43.72946" lon="-1.41205">
        <ele>-18.39999961853</ele>
        <time>2025-08-13T15:46:52.000Z</time>
      </trkpt>
      <trkpt lat="43.72961" lon="-1.41215">
        <ele>-18.39999961853</ele>
        <time>2025-08-13T15:46:55.000Z</time>
      </trkpt>
      <trkpt lat="43.73" lon="-1.41248">
        <ele>-18.39999961853</ele>
        <time>2025-08-13T15:47:03.000Z</time>
      </trkpt>
      <trkpt lat="43.73028" lon="-1.41272">
        <ele>-18.799999237061</ele>
        <time>2025-08-13T15:47:09.000Z</time>
      </trkpt>
      <trkpt lat="43.73059" lon="-1.41296">
        <ele>-18.60000038147</ele>
        <time>2025-08-13T15:47:16.000Z</time>
      </trkpt>
      <trkpt lat="43.73082" lon="-1.41305">
        <ele>-18.39999961853</ele>
        <time>2025-08-13T15:47:21.000Z</time>
      </trkpt>
      <trkpt lat="43.73092" lon="-1.41305">
        <ele>-18.39999961853</ele>
        <time>2025-08-13T15:47:23.000Z</time>
      </trkpt>
      <trkpt lat="43.73097" lon="-1.41304">
        <ele>-18.39999961853</ele>
        <time>2025-08-13T15:47:24.000Z</time>
      </trkpt>
      <trkpt lat="43.73111" lon="-1.413">
        <ele>-18.39999961853</ele>
        <time>2025-08-13T15:47:27.000Z</time>
      </trkpt>
      <trkpt lat="43.73117" lon="-1.41297">
        <ele>-18.39999961853</ele>
        <time>2025-08-13T15:47:28.000Z</time>
      </trkpt>
      <trkpt lat="43.73161" lon="-1.41276">
        <ele>-18.39999961853</ele>
        <time>2025-08-13T15:47:37.000Z</time>
      </trkpt>
      <trkpt lat="43.73206" lon="-1.41253">
        <ele>-18</ele>
        <time>2025-08-13T15:47:47.000Z</time>
      </trkpt>
      <trkpt lat="43.73245" lon="-1.41234">
        <ele>-17.200000762939</ele>
        <time>2025-08-13T15:47:56.000Z</time>
      </trkpt>
      <trkpt lat="43.73253" lon="-1.41231">
        <ele>-17</ele>
        <time>2025-08-13T15:47:58.000Z</time>
      </trkpt>
      <trkpt lat="43.73291" lon="-1.41213">
        <ele>-16.799999237061</ele>
        <time>2025-08-13T15:48:06.000Z</time>
      </trkpt>
      <trkpt lat="43.73329" lon="-1.41195">
        <ele>-17.200000762939</ele>
        <time>2025-08-13T15:48:13.000Z</time>
      </trkpt>
      <trkpt lat="43.73369" lon="-1.41175">
        <ele>-18</ele>
        <time>2025-08-13T15:48:20.000Z</time>
      </trkpt>
      <trkpt lat="43.73376" lon="-1.41171">
        <ele>-18.200000762939</ele>
        <time>2025-08-13T15:48:21.000Z</time>
      </trkpt>
      <trkpt lat="43.73392" lon="-1.41164">
        <ele>-18.60000038147</ele>
        <time>2025-08-13T15:48:24.000Z</time>
      </trkpt>
      <trkpt lat="43.73409" lon="-1.41157">
        <ele>-18.60000038147</ele>
        <time>2025-08-13T15:48:27.000Z</time>
      </trkpt>
      <trkpt lat="43.73447" lon="-1.41141">
        <ele>-19</ele>
        <time>2025-08-13T15:48:34.000Z</time>
      </trkpt>
      <trkpt lat="43.73472" lon="-1.41146">
        <ele>-19</ele>
        <time>2025-08-13T15:48:39.000Z</time>
      </trkpt>
      <trkpt lat="43.73485" lon="-1.41147">
        <ele>-19</ele>
        <time>2025-08-13T15:48:42.000Z</time>
      </trkpt>
      <trkpt lat="43.7349" lon="-1.41148">
        <ele>-19</ele>
        <time>2025-08-13T15:48:43.000Z</time>
      </trkpt>
      <trkpt lat="43.73494" lon="-1.4115">
        <ele>-19</ele>
        <time>2025-08-13T15:48:44.000Z</time>
      </trkpt>
      <trkpt lat="43.73509" lon="-1.41161">
        <ele>-19</ele>
        <time>2025-08-13T15:48:47.000Z</time>
      </trkpt>
      <trkpt lat="43.73514" lon="-1.41163">
        <ele>-19</ele>
        <time>2025-08-13T15:48:48.000Z</time>
      </trkpt>
      <trkpt lat="43.73555" lon="-1.4119">
        <ele>-19.200000762939</ele>
        <time>2025-08-13T15:48:57.000Z</time>
      </trkpt>
      <trkpt lat="43.7356" lon="-1.41193">
        <ele>-19.200000762939</ele>
        <time>2025-08-13T15:48:58.000Z</time>
      </trkpt>
      <trkpt lat="43.73569" lon="-1.412">
        <ele>-19.39999961853</ele>
        <time>2025-08-13T15:49:00.000Z</time>
      </trkpt>
      <trkpt lat="43.73577" lon="-1.41208">
        <ele>-19.39999961853</ele>
        <time>2025-08-13T15:49:02.000Z</time>
      </trkpt>
      <trkpt lat="43.7359" lon="-1.41216">
        <ele>-19.39999961853</ele>
        <time>2025-08-13T15:49:05.000Z</time>
      </trkpt>
      <trkpt lat="43.73598" lon="-1.4122">
        <ele>-19.39999961853</ele>
        <time>2025-08-13T15:49:07.000Z</time>
      </trkpt>
      <trkpt lat="43.7362" lon="-1.41229">
        <ele>-19.60000038147</ele>
        <time>2025-08-13T15:49:11.000Z</time>
      </trkpt>
      <trkpt lat="43.7363" lon="-1.4123">
        <ele>-19.60000038147</ele>
        <time>2025-08-13T15:49:13.000Z</time>
      </trkpt>
      <trkpt lat="43.73641" lon="-1.41229">
        <ele>-19.60000038147</ele>
        <time>2025-08-13T15:49:15.000Z</time>
      </trkpt>
      <trkpt lat="43.73655" lon="-1.41225">
        <ele>-19.60000038147</ele>
        <time>2025-08-13T15:49:18.000Z</time>
      </trkpt>
      <trkpt lat="43.73659" lon="-1.41223">
        <ele>-19.60000038147</ele>
        <time>2025-08-13T15:49:19.000Z</time>
      </trkpt>
      <trkpt lat="43.73663" lon="-1.4122">
        <ele>-19.60000038147</ele>
        <time>2025-08-13T15:49:20.000Z</time>
      </trkpt>
      <trkpt lat="43.73674" lon="-1.41211">
        <ele>-19.200000762939</ele>
        <time>2025-08-13T15:49:23.000Z</time>
      </trkpt>
      <trkpt lat="43.73681" lon="-1.41204">
        <ele>-19</ele>
        <time>2025-08-13T15:49:25.000Z</time>
      </trkpt>
      <trkpt lat="43.73712" lon="-1.4118">
        <ele>-19</ele>
        <time>2025-08-13T15:49:33.000Z</time>
      </trkpt>
      <trkpt lat="43.7373" lon="-1.41163">
        <ele>-19</ele>
        <time>2025-08-13T15:49:37.000Z</time>
      </trkpt>
      <trkpt lat="43.73735" lon="-1.4116">
        <ele>-19</ele>
        <time>2025-08-13T15:49:38.000Z</time>
      </trkpt>
      <trkpt lat="43.73766" lon="-1.41139">
        <ele>-19.60000038147</ele>
        <time>2025-08-13T15:49:44.000Z</time>
      </trkpt>
      <trkpt lat="43.73791" lon="-1.41115">
        <ele>-19.60000038147</ele>
        <time>2025-08-13T15:49:50.000Z</time>
      </trkpt>
      <trkpt lat="43.73818" lon="-1.41093">
        <ele>-19.799999237061</ele>
        <time>2025-08-13T15:49:56.000Z</time>
      </trkpt>
      <trkpt lat="43.73823" lon="-1.4109">
        <ele>-19.799999237061</ele>
        <time>2025-08-13T15:49:57.000Z</time>
      </trkpt>
      <trkpt lat="43.73861" lon="-1.41059">
        <ele>-19.799999237061</ele>
        <time>2025-08-13T15:50:05.000Z</time>
      </trkpt>
      <trkpt lat="43.73893" lon="-1.41033">
        <ele>-20</ele>
        <time>2025-08-13T15:50:12.000Z</time>
      </trkpt>
      <trkpt lat="43.73902" lon="-1.41026">
        <ele>-20</ele>
        <time>2025-08-13T15:50:14.000Z</time>
      </trkpt>
      <trkpt lat="43.73923" lon="-1.41009">
        <ele>-20</ele>
        <time>2025-08-13T15:50:19.000Z</time>
      </trkpt>
      <trkpt lat="43.73964" lon="-1.40978">
        <ele>-19.799999237061</ele>
        <time>2025-08-13T15:50:28.000Z</time>
      </trkpt>
      <trkpt lat="43.73991" lon="-1.40954">
        <ele>-19.799999237061</ele>
        <time>2025-08-13T15:50:34.000Z</time>
      </trkpt>
      <trkpt lat="43.74" lon="-1.40947">
        <ele>-19.799999237061</ele>
        <time>2025-08-13T15:50:36.000Z</time>
      </trkpt>
      <trkpt lat="43.74036" lon="-1.4092">
        <ele>-19.39999961853</ele>
        <time>2025-08-13T15:50:44.000Z</time>
      </trkpt>
      <trkpt lat="43.74074" lon="-1.40888">
        <ele>-19.60000038147</ele>
        <time>2025-08-13T15:50:52.000Z</time>
      </trkpt>
      <trkpt lat="43.74116" lon="-1.40852">
        <ele>-20</ele>
        <time>2025-08-13T15:51:01.000Z</time>
      </trkpt>
      <trkpt lat="43.74161" lon="-1.40815">
        <ele>-19.799999237061</ele>
        <time>2025-08-13T15:51:11.000Z</time>
      </trkpt>
      <trkpt lat="43.74199" lon="-1.40783">
        <ele>-19.799999237061</ele>
        <time>2025-08-13T15:51:20.000Z</time>
      </trkpt>
      <trkpt lat="43.7424" lon="-1.40752">
        <ele>-20.200000762939</ele>
        <time>2025-08-13T15:51:29.000Z</time>
      </trkpt>
      <trkpt lat="43.74288" lon="-1.40716">
        <ele>-20.39999961853</ele>
        <time>2025-08-13T15:51:39.000Z</time>
      </trkpt>
      <trkpt lat="43.74311" lon="-1.40697">
        <ele>-20.39999961853</ele>
        <time>2025-08-13T15:51:44.000Z</time>
      </trkpt>
      <trkpt lat="43.7432" lon="-1.40691">
        <ele>-20.60000038147</ele>
        <time>2025-08-13T15:51:46.000Z</time>
      </trkpt>
      <trkpt lat="43.74362" lon="-1.40653">
        <ele>-20.60000038147</ele>
        <time>2025-08-13T15:51:56.000Z</time>
      </trkpt>
      <trkpt lat="43.74367" lon="-1.40649">
        <ele>-20.799999237061</ele>
        <time>2025-08-13T15:51:57.000Z</time>
      </trkpt>
      <trkpt lat="43.74399" lon="-1.40624">
        <ele>-20.799999237061</ele>
        <time>2025-08-13T15:52:04.000Z</time>
      </trkpt>
      <trkpt lat="43.7442" lon="-1.40605">
        <ele>-20.799999237061</ele>
        <time>2025-08-13T15:52:09.000Z</time>
      </trkpt>
      <trkpt lat="43.74429" lon="-1.40598">
        <ele>-20.799999237061</ele>
        <time>2025-08-13T15:52:11.000Z</time>
      </trkpt>
      <trkpt lat="43.74469" lon="-1.40566">
        <ele>-20.799999237061</ele>
        <time>2025-08-13T15:52:20.000Z</time>
      </trkpt>
      <trkpt lat="43.74505" lon="-1.40535">
        <ele>-20.799999237061</ele>
        <time>2025-08-13T15:52:28.000Z</time>
      </trkpt>
      <trkpt lat="43.74545" lon="-1.40503">
        <ele>-21</ele>
        <time>2025-08-13T15:52:37.000Z</time>
      </trkpt>
      <trkpt lat="43.74574" lon="-1.40482">
        <ele>-21</ele>
        <time>2025-08-13T15:52:44.000Z</time>
      </trkpt>
      <trkpt lat="43.74583" lon="-1.40475">
        <ele>-21</ele>
        <time>2025-08-13T15:52:46.000Z</time>
      </trkpt>
      <trkpt lat="43.74608" lon="-1.40452">
        <ele>-21.200000762939</ele>
        <time>2025-08-13T15:52:52.000Z</time>
      </trkpt>
      <trkpt lat="43.74613" lon="-1.40447">
        <ele>-21.200000762939</ele>
        <time>2025-08-13T15:52:53.000Z</time>
      </trkpt>
      <trkpt lat="43.74646" lon="-1.40423">
        <ele>-21.39999961853</ele>
        <time>2025-08-13T15:53:00.000Z</time>
      </trkpt>
      <trkpt lat="43.74685" lon="-1.4039">
        <ele>-21.39999961853</ele>
        <time>2025-08-13T15:53:09.000Z</time>
      </trkpt>
      <trkpt lat="43.74716" lon="-1.40365">
        <ele>-21.39999961853</ele>
        <time>2025-08-13T15:53:17.000Z</time>
      </trkpt>
      <trkpt lat="43.74753" lon="-1.40337">
        <ele>-21.39999961853</ele>
        <time>2025-08-13T15:53:26.000Z</time>
      </trkpt>
      <trkpt lat="43.74783" lon="-1.4031">
        <ele>-21.39999961853</ele>
        <time>2025-08-13T15:53:34.000Z</time>
      </trkpt>
      <trkpt lat="43.74819" lon="-1.40284">
        <ele>-21.39999961853</ele>
        <time>2025-08-13T15:53:43.000Z</time>
      </trkpt>
      <trkpt lat="43.74843" lon="-1.40264">
        <ele>-21.39999961853</ele>
        <time>2025-08-13T15:53:50.000Z</time>
      </trkpt>
      <trkpt lat="43.74866" lon="-1.40248">
        <ele>-21.39999961853</ele>
        <time>2025-08-13T15:53:56.000Z</time>
      </trkpt>
      <trkpt lat="43.74892" lon="-1.40227">
        <ele>-21.39999961853</ele>
        <time>2025-08-13T15:54:02.000Z</time>
      </trkpt>
      <trkpt lat="43.74924" lon="-1.402">
        <ele>-21.60000038147</ele>
        <time>2025-08-13T15:54:10.000Z</time>
      </trkpt>
      <trkpt lat="43.74953" lon="-1.40177">
        <ele>-21.60000038147</ele>
        <time>2025-08-13T15:54:17.000Z</time>
      </trkpt>
      <trkpt lat="43.74978" lon="-1.40159">
        <ele>-21.60000038147</ele>
        <time>2025-08-13T15:54:23.000Z</time>
      </trkpt>
      <trkpt lat="43.74987" lon="-1.40153">
        <ele>-21.60000038147</ele>
        <time>2025-08-13T15:54:25.000Z</time>
      </trkpt>
      <trkpt lat="43.75023" lon="-1.40121">
        <ele>-21.60000038147</ele>
        <time>2025-08-13T15:54:34.000Z</time>
      </trkpt>
      <trkpt lat="43.75053" lon="-1.40096">
        <ele>-21.799999237061</ele>
        <time>2025-08-13T15:54:42.000Z</time>
      </trkpt>
      <trkpt lat="43.7508" lon="-1.4007">
        <ele>-21.799999237061</ele>
        <time>2025-08-13T15:54:50.000Z</time>
      </trkpt>
      <trkpt lat="43.75097" lon="-1.40058">
        <ele>-21.799999237061</ele>
        <time>2025-08-13T15:54:55.000Z</time>
      </trkpt>
      <trkpt lat="43.75101" lon="-1.40056">
        <ele>-21.799999237061</ele>
        <time>2025-08-13T15:54:56.000Z</time>
      </trkpt>
      <trkpt lat="43.75133" lon="-1.40028">
        <ele>-22</ele>
        <time>2025-08-13T15:55:05.000Z</time>
      </trkpt>
      <trkpt lat="43.75168" lon="-1.4">
        <ele>-22.200000762939</ele>
        <time>2025-08-13T15:55:13.000Z</time>
      </trkpt>
      <trkpt lat="43.7519" lon="-1.39983">
        <ele>-22.200000762939</ele>
        <time>2025-08-13T15:55:18.000Z</time>
      </trkpt>
      <trkpt lat="43.75198" lon="-1.39976">
        <ele>-22.200000762939</ele>
        <time>2025-08-13T15:55:20.000Z</time>
      </trkpt>
      <trkpt lat="43.75207" lon="-1.3997">
        <ele>-22.200000762939</ele>
        <time>2025-08-13T15:55:22.000Z</time>
      </trkpt>
      <trkpt lat="43.75224" lon="-1.39958">
        <ele>-22.39999961853</ele>
        <time>2025-08-13T15:55:26.000Z</time>
      </trkpt>
      <trkpt lat="43.75256" lon="-1.39932">
        <ele>-22.60000038147</ele>
        <time>2025-08-13T15:55:34.000Z</time>
      </trkpt>
      <trkpt lat="43.75271" lon="-1.3992">
        <ele>-22.60000038147</ele>
        <time>2025-08-13T15:55:38.000Z</time>
      </trkpt>
      <trkpt lat="43.75286" lon="-1.39906">
        <ele>-22.60000038147</ele>
        <time>2025-08-13T15:55:42.000Z</time>
      </trkpt>
      <trkpt lat="43.7531" lon="-1.39888">
        <ele>-22.60000038147</ele>
        <time>2025-08-13T15:55:48.000Z</time>
      </trkpt>
      <trkpt lat="43.75314" lon="-1.39884">
        <ele>-22.60000038147</ele>
        <time>2025-08-13T15:55:49.000Z</time>
      </trkpt>
      <trkpt lat="43.75334" lon="-1.39867">
        <ele>-22.799999237061</ele>
        <time>2025-08-13T15:55:54.000Z</time>
      </trkpt>
      <trkpt lat="43.75343" lon="-1.39861">
        <ele>-22.60000038147</ele>
        <time>2025-08-13T15:55:56.000Z</time>
      </trkpt>
      <trkpt lat="43.75374" lon="-1.39838">
        <ele>-22.799999237061</ele>
        <time>2025-08-13T15:56:03.000Z</time>
      </trkpt>
      <trkpt lat="43.75378" lon="-1.39835">
        <ele>-22.799999237061</ele>
        <time>2025-08-13T15:56:04.000Z</time>
      </trkpt>
      <trkpt lat="43.75401" lon="-1.39818">
        <ele>-22.799999237061</ele>
        <time>2025-08-13T15:56:09.000Z</time>
      </trkpt>
      <trkpt lat="43.75435" lon="-1.3979">
        <ele>-23.200000762939</ele>
        <time>2025-08-13T15:56:17.000Z</time>
      </trkpt>
      <trkpt lat="43.75466" lon="-1.39764">
        <ele>-23.200000762939</ele>
        <time>2025-08-13T15:56:25.000Z</time>
      </trkpt>
      <trkpt lat="43.75482" lon="-1.3975">
        <ele>-23.200000762939</ele>
        <time>2025-08-13T15:56:29.000Z</time>
      </trkpt>
      <trkpt lat="43.75495" lon="-1.39739">
        <ele>-23.200000762939</ele>
        <time>2025-08-13T15:56:32.000Z</time>
      </trkpt>
      <trkpt lat="43.75503" lon="-1.39733">
        <ele>-23.200000762939</ele>
        <time>2025-08-13T15:56:34.000Z</time>
      </trkpt>
      <trkpt lat="43.75514" lon="-1.39724">
        <ele>-23.200000762939</ele>
        <time>2025-08-13T15:56:37.000Z</time>
      </trkpt>
      <trkpt lat="43.75523" lon="-1.39718">
        <ele>-23.200000762939</ele>
        <time>2025-08-13T15:56:39.000Z</time>
      </trkpt>
      <trkpt lat="43.75557" lon="-1.39692">
        <ele>-23.60000038147</ele>
        <time>2025-08-13T15:56:47.000Z</time>
      </trkpt>
      <trkpt lat="43.75581" lon="-1.39668">
        <ele>-23.60000038147</ele>
        <time>2025-08-13T15:56:54.000Z</time>
      </trkpt>
      <trkpt lat="43.75603" lon="-1.39649">
        <ele>-23.39999961853</ele>
        <time>2025-08-13T15:57:00.000Z</time>
      </trkpt>
      <trkpt lat="43.75615" lon="-1.3964">
        <ele>-23.200000762939</ele>
        <time>2025-08-13T15:57:03.000Z</time>
      </trkpt>
      <trkpt lat="43.75648" lon="-1.39616">
        <ele>-23.200000762939</ele>
        <time>2025-08-13T15:57:11.000Z</time>
      </trkpt>
      <trkpt lat="43.75685" lon="-1.39585">
        <ele>-23.200000762939</ele>
        <time>2025-08-13T15:57:20.000Z</time>
      </trkpt>
      <trkpt lat="43.75724" lon="-1.39554">
        <ele>-23.200000762939</ele>
        <time>2025-08-13T15:57:29.000Z</time>
      </trkpt>
      <trkpt lat="43.75732" lon="-1.39546">
        <ele>-23.200000762939</ele>
        <time>2025-08-13T15:57:31.000Z</time>
      </trkpt>
      <trkpt lat="43.75749" lon="-1.39532">
        <ele>-23.200000762939</ele>
        <time>2025-08-13T15:57:35.000Z</time>
      </trkpt>
      <trkpt lat="43.75788" lon="-1.395">
        <ele>-23.200000762939</ele>
        <time>2025-08-13T15:57:44.000Z</time>
      </trkpt>
      <trkpt lat="43.75823" lon="-1.39472">
        <ele>-23.200000762939</ele>
        <time>2025-08-13T15:57:52.000Z</time>
      </trkpt>
      <trkpt lat="43.75858" lon="-1.39444">
        <ele>-23</ele>
        <time>2025-08-13T15:58:00.000Z</time>
      </trkpt>
      <trkpt lat="43.75892" lon="-1.39417">
        <ele>-23</ele>
        <time>2025-08-13T15:58:08.000Z</time>
      </trkpt>
      <trkpt lat="43.7591" lon="-1.39403">
        <ele>-22.799999237061</ele>
        <time>2025-08-13T15:58:13.000Z</time>
      </trkpt>
      <trkpt lat="43.75915" lon="-1.39401">
        <ele>-22.799999237061</ele>
        <time>2025-08-13T15:58:14.000Z</time>
      </trkpt>
      <trkpt lat="43.75923" lon="-1.39396">
        <ele>-22.799999237061</ele>
        <time>2025-08-13T15:58:16.000Z</time>
      </trkpt>
      <trkpt lat="43.75927" lon="-1.39393">
        <ele>-22.799999237061</ele>
        <time>2025-08-13T15:58:17.000Z</time>
      </trkpt>
      <trkpt lat="43.75957" lon="-1.39369">
        <ele>-22.799999237061</ele>
        <time>2025-08-13T15:58:24.000Z</time>
      </trkpt>
      <trkpt lat="43.75983" lon="-1.39348">
        <ele>-23</ele>
        <time>2025-08-13T15:58:30.000Z</time>
      </trkpt>
      <trkpt lat="43.75986" lon="-1.39344">
        <ele>-23</ele>
        <time>2025-08-13T15:58:31.000Z</time>
      </trkpt>
      <trkpt lat="43.75993" lon="-1.39338">
        <ele>-23</ele>
        <time>2025-08-13T15:58:33.000Z</time>
      </trkpt>
      <trkpt lat="43.76013" lon="-1.3932">
        <ele>-22.799999237061</ele>
        <time>2025-08-13T15:58:38.000Z</time>
      </trkpt>
      <trkpt lat="43.76042" lon="-1.39296">
        <ele>-22.799999237061</ele>
        <time>2025-08-13T15:58:45.000Z</time>
      </trkpt>
      <trkpt lat="43.76054" lon="-1.39287">
        <ele>-22.799999237061</ele>
        <time>2025-08-13T15:58:48.000Z</time>
      </trkpt>
      <trkpt lat="43.76062" lon="-1.39281">
        <ele>-22.799999237061</ele>
        <time>2025-08-13T15:58:50.000Z</time>
      </trkpt>
      <trkpt lat="43.76074" lon="-1.3927">
        <ele>-22.799999237061</ele>
        <time>2025-08-13T15:58:53.000Z</time>
      </trkpt>
      <trkpt lat="43.76094" lon="-1.39253">
        <ele>-22.799999237061</ele>
        <time>2025-08-13T15:58:58.000Z</time>
      </trkpt>
      <trkpt lat="43.76123" lon="-1.39232">
        <ele>-23</ele>
        <time>2025-08-13T15:59:04.000Z</time>
      </trkpt>
      <trkpt lat="43.76151" lon="-1.3921">
        <ele>-23.200000762939</ele>
        <time>2025-08-13T15:59:11.000Z</time>
      </trkpt>
      <trkpt lat="43.76185" lon="-1.39181">
        <ele>-23.200000762939</ele>
        <time>2025-08-13T15:59:19.000Z</time>
      </trkpt>
      <trkpt lat="43.76189" lon="-1.39178">
        <ele>-23.200000762939</ele>
        <time>2025-08-13T15:59:20.000Z</time>
      </trkpt>
      <trkpt lat="43.76205" lon="-1.39165">
        <ele>-23.200000762939</ele>
        <time>2025-08-13T15:59:24.000Z</time>
      </trkpt>
      <trkpt lat="43.76209" lon="-1.39161">
        <ele>-23.200000762939</ele>
        <time>2025-08-13T15:59:25.000Z</time>
      </trkpt>
      <trkpt lat="43.76236" lon="-1.39139">
        <ele>-23.39999961853</ele>
        <time>2025-08-13T15:59:32.000Z</time>
      </trkpt>
      <trkpt lat="43.76259" lon="-1.39117">
        <ele>-23.39999961853</ele>
        <time>2025-08-13T15:59:39.000Z</time>
      </trkpt>
      <trkpt lat="43.76274" lon="-1.39107">
        <ele>-23.39999961853</ele>
        <time>2025-08-13T15:59:44.000Z</time>
      </trkpt>
      <trkpt lat="43.76275" lon="-1.39108">
        <ele>-23.39999961853</ele>
        <time>2025-08-13T15:59:46.000Z</time>
      </trkpt>
      <trkpt lat="43.76276" lon="-1.39109">
        <ele>-23.200000762939</ele>
        <time>2025-08-13T15:59:48.000Z</time>
      </trkpt>
      <trkpt lat="43.76281" lon="-1.39116">
        <ele>-23.200000762939</ele>
        <time>2025-08-13T15:59:53.000Z</time>
      </trkpt>
      <trkpt lat="43.76291" lon="-1.39127">
        <ele>-23.200000762939</ele>
        <time>2025-08-13T15:59:58.000Z</time>
      </trkpt>
      <trkpt lat="43.76309" lon="-1.39136">
        <ele>-23.200000762939</ele>
        <time>2025-08-13T16:00:04.000Z</time>
      </trkpt>
      <trkpt lat="43.76341" lon="-1.39152">
        <ele>-23</ele>
        <time>2025-08-13T16:00:12.000Z</time>
      </trkpt>
      <trkpt lat="43.76353" lon="-1.39158">
        <ele>-23</ele>
        <time>2025-08-13T16:00:15.000Z</time>
      </trkpt>
      <trkpt lat="43.76367" lon="-1.39166">
        <ele>-23</ele>
        <time>2025-08-13T16:00:19.000Z</time>
      </trkpt>
      <trkpt lat="43.76372" lon="-1.39169">
        <ele>-23</ele>
        <time>2025-08-13T16:00:20.000Z</time>
      </trkpt>
      <trkpt lat="43.76408" lon="-1.39188">
        <ele>-23</ele>
        <time>2025-08-13T16:00:29.000Z</time>
      </trkpt>
      <trkpt lat="43.7644" lon="-1.39204">
        <ele>-23</ele>
        <time>2025-08-13T16:00:37.000Z</time>
      </trkpt>
      <trkpt lat="43.76466" lon="-1.39217">
        <ele>-23</ele>
        <time>2025-08-13T16:00:44.000Z</time>
      </trkpt>
      <trkpt lat="43.76478" lon="-1.39222">
        <ele>-23</ele>
        <time>2025-08-13T16:00:47.000Z</time>
      </trkpt>
      <trkpt lat="43.76498" lon="-1.39233">
        <ele>-23.200000762939</ele>
        <time>2025-08-13T16:00:51.000Z</time>
      </trkpt>
      <trkpt lat="43.76525" lon="-1.39246">
        <ele>-23.39999961853</ele>
        <time>2025-08-13T16:00:56.000Z</time>
      </trkpt>
      <trkpt lat="43.76531" lon="-1.39249">
        <ele>-23.60000038147</ele>
        <time>2025-08-13T16:00:57.000Z</time>
      </trkpt>
      <trkpt lat="43.76547" lon="-1.39258">
        <ele>-23.60000038147</ele>
        <time>2025-08-13T16:01:00.000Z</time>
      </trkpt>
      <trkpt lat="43.76581" lon="-1.39273">
        <ele>-23.799999237061</ele>
        <time>2025-08-13T16:01:07.000Z</time>
      </trkpt>
      <trkpt lat="43.76609" lon="-1.39287">
        <ele>-23.799999237061</ele>
        <time>2025-08-13T16:01:15.000Z</time>
      </trkpt>
      <trkpt lat="43.76631" lon="-1.39298">
        <ele>-24.200000762939</ele>
        <time>2025-08-13T16:01:22.000Z</time>
      </trkpt>
      <trkpt lat="43.76653" lon="-1.39308">
        <ele>-24.200000762939</ele>
        <time>2025-08-13T16:01:27.000Z</time>
      </trkpt>
      <trkpt lat="43.76661" lon="-1.39313">
        <ele>-24.200000762939</ele>
        <time>2025-08-13T16:01:29.000Z</time>
      </trkpt>
      <trkpt lat="43.7668" lon="-1.39324">
        <ele>-23.799999237061</ele>
        <time>2025-08-13T16:01:34.000Z</time>
      </trkpt>
      <trkpt lat="43.76688" lon="-1.39328">
        <ele>-23.799999237061</ele>
        <time>2025-08-13T16:01:36.000Z</time>
      </trkpt>
      <trkpt lat="43.76692" lon="-1.3933">
        <ele>-23.799999237061</ele>
        <time>2025-08-13T16:01:37.000Z</time>
      </trkpt>
      <trkpt lat="43.76696" lon="-1.39332">
        <ele>-23.60000038147</ele>
        <time>2025-08-13T16:01:38.000Z</time>
      </trkpt>
      <trkpt lat="43.76704" lon="-1.39335">
        <ele>-23.60000038147</ele>
        <time>2025-08-13T16:01:40.000Z</time>
      </trkpt>
      <trkpt lat="43.76712" lon="-1.3934">
        <ele>-23.60000038147</ele>
        <time>2025-08-13T16:01:42.000Z</time>
      </trkpt>
      <trkpt lat="43.76724" lon="-1.39347">
        <ele>-23.60000038147</ele>
        <time>2025-08-13T16:01:45.000Z</time>
      </trkpt>
      <trkpt lat="43.76732" lon="-1.3935">
        <ele>-23.39999961853</ele>
        <time>2025-08-13T16:01:47.000Z</time>
      </trkpt>
      <trkpt lat="43.76768" lon="-1.39359">
        <ele>-23.39999961853</ele>
        <time>2025-08-13T16:01:55.000Z</time>
      </trkpt>
      <trkpt lat="43.768" lon="-1.39364">
        <ele>-23.39999961853</ele>
        <time>2025-08-13T16:02:02.000Z</time>
      </trkpt>
      <trkpt lat="43.76812" lon="-1.39364">
        <ele>-23.200000762939</ele>
        <time>2025-08-13T16:02:05.000Z</time>
      </trkpt>
      <trkpt lat="43.76823" lon="-1.39365">
        <ele>-23.200000762939</ele>
        <time>2025-08-13T16:02:08.000Z</time>
      </trkpt>
      <trkpt lat="43.76841" lon="-1.39365">
        <ele>-23.200000762939</ele>
        <time>2025-08-13T16:02:13.000Z</time>
      </trkpt>
      <trkpt lat="43.76872" lon="-1.39357">
        <ele>-23</ele>
        <time>2025-08-13T16:02:20.000Z</time>
      </trkpt>
      <trkpt lat="43.76876" lon="-1.39355">
        <ele>-23</ele>
        <time>2025-08-13T16:02:21.000Z</time>
      </trkpt>
      <trkpt lat="43.76897" lon="-1.39348">
        <ele>-23</ele>
        <time>2025-08-13T16:02:26.000Z</time>
      </trkpt>
      <trkpt lat="43.76901" lon="-1.39346">
        <ele>-23</ele>
        <time>2025-08-13T16:02:27.000Z</time>
      </trkpt>
      <trkpt lat="43.7693" lon="-1.39335">
        <ele>-23</ele>
        <time>2025-08-13T16:02:34.000Z</time>
      </trkpt>
      <trkpt lat="43.76959" lon="-1.3932">
        <ele>-23</ele>
        <time>2025-08-13T16:02:40.000Z</time>
      </trkpt>
      <trkpt lat="43.76967" lon="-1.39315">
        <ele>-23</ele>
        <time>2025-08-13T16:02:42.000Z</time>
      </trkpt>
      <trkpt lat="43.76992" lon="-1.39301">
        <ele>-23.200000762939</ele>
        <time>2025-08-13T16:02:48.000Z</time>
      </trkpt>
      <trkpt lat="43.77018" lon="-1.39286">
        <ele>-23.39999961853</ele>
        <time>2025-08-13T16:02:54.000Z</time>
      </trkpt>
      <trkpt lat="43.77022" lon="-1.39284">
        <ele>-23.39999961853</ele>
        <time>2025-08-13T16:02:55.000Z</time>
      </trkpt>
      <trkpt lat="43.77027" lon="-1.39283">
        <ele>-23.39999961853</ele>
        <time>2025-08-13T16:02:56.000Z</time>
      </trkpt>
      <trkpt lat="43.77035" lon="-1.39286">
        <ele>-23.39999961853</ele>
        <time>2025-08-13T16:02:58.000Z</time>
      </trkpt>
      <trkpt lat="43.77042" lon="-1.39294">
        <ele>-23.60000038147</ele>
        <time>2025-08-13T16:03:00.000Z</time>
      </trkpt>
      <trkpt lat="43.77049" lon="-1.39302">
        <ele>-23.60000038147</ele>
        <time>2025-08-13T16:03:02.000Z</time>
      </trkpt>
      <trkpt lat="43.77053" lon="-1.39305">
        <ele>-23.60000038147</ele>
        <time>2025-08-13T16:03:03.000Z</time>
      </trkpt>
      <trkpt lat="43.77058" lon="-1.39307">
        <ele>-23.60000038147</ele>
        <time>2025-08-13T16:03:04.000Z</time>
      </trkpt>
      <trkpt lat="43.77078" lon="-1.39316">
        <ele>-23.799999237061</ele>
        <time>2025-08-13T16:03:09.000Z</time>
      </trkpt>
      <trkpt lat="43.77103" lon="-1.39329">
        <ele>-24</ele>
        <time>2025-08-13T16:03:14.000Z</time>
      </trkpt>
      <trkpt lat="43.77123" lon="-1.39335">
        <ele>-23.799999237061</ele>
        <time>2025-08-13T16:03:19.000Z</time>
      </trkpt>
      <trkpt lat="43.77128" lon="-1.39338">
        <ele>-23.799999237061</ele>
        <time>2025-08-13T16:03:20.000Z</time>
      </trkpt>
      <trkpt lat="43.77132" lon="-1.39342">
        <ele>-23.60000038147</ele>
        <time>2025-08-13T16:03:21.000Z</time>
      </trkpt>
      <trkpt lat="43.77142" lon="-1.39347">
        <ele>-23.60000038147</ele>
        <time>2025-08-13T16:03:23.000Z</time>
      </trkpt>
      <trkpt lat="43.77151" lon="-1.39351">
        <ele>-23.60000038147</ele>
        <time>2025-08-13T16:03:25.000Z</time>
      </trkpt>
      <trkpt lat="43.77181" lon="-1.39366">
        <ele>-23.60000038147</ele>
        <time>2025-08-13T16:03:31.000Z</time>
      </trkpt>
      <trkpt lat="43.77185" lon="-1.3937">
        <ele>-23.60000038147</ele>
        <time>2025-08-13T16:03:32.000Z</time>
      </trkpt>
      <trkpt lat="43.77198" lon="-1.39381">
        <ele>-23.39999961853</ele>
        <time>2025-08-13T16:03:35.000Z</time>
      </trkpt>
      <trkpt lat="43.77207" lon="-1.39385">
        <ele>-23.39999961853</ele>
        <time>2025-08-13T16:03:37.000Z</time>
      </trkpt>
      <trkpt lat="43.77237" lon="-1.39397">
        <ele>-23.60000038147</ele>
        <time>2025-08-13T16:03:42.000Z</time>
      </trkpt>
      <trkpt lat="43.77246" lon="-1.39402">
        <ele>-23.60000038147</ele>
        <time>2025-08-13T16:03:44.000Z</time>
      </trkpt>
      <trkpt lat="43.77282" lon="-1.39425">
        <ele>-23.799999237061</ele>
        <time>2025-08-13T16:03:52.000Z</time>
      </trkpt>
      <trkpt lat="43.77297" lon="-1.3943">
        <ele>-23.799999237061</ele>
        <time>2025-08-13T16:03:55.000Z</time>
      </trkpt>
      <trkpt lat="43.77311" lon="-1.39438">
        <ele>-24</ele>
        <time>2025-08-13T16:03:58.000Z</time>
      </trkpt>
      <trkpt lat="43.7732" lon="-1.39444">
        <ele>-24</ele>
        <time>2025-08-13T16:04:00.000Z</time>
      </trkpt>
      <trkpt lat="43.77331" lon="-1.39454">
        <ele>-24</ele>
        <time>2025-08-13T16:04:03.000Z</time>
      </trkpt>
      <trkpt lat="43.77354" lon="-1.39469">
        <ele>-24</ele>
        <time>2025-08-13T16:04:09.000Z</time>
      </trkpt>
      <trkpt lat="43.77369" lon="-1.39479">
        <ele>-24</ele>
        <time>2025-08-13T16:04:13.000Z</time>
      </trkpt>
      <trkpt lat="43.77376" lon="-1.39486">
        <ele>-24</ele>
        <time>2025-08-13T16:04:15.000Z</time>
      </trkpt>
      <trkpt lat="43.77385" lon="-1.39495">
        <ele>-24</ele>
        <time>2025-08-13T16:04:18.000Z</time>
      </trkpt>
      <trkpt lat="43.77393" lon="-1.39494">
        <ele>-24</ele>
        <time>2025-08-13T16:04:20.000Z</time>
      </trkpt>
      <trkpt lat="43.77403" lon="-1.39482">
        <ele>-24</ele>
        <time>2025-08-13T16:04:24.000Z</time>
      </trkpt>
      <trkpt lat="43.77408" lon="-1.3948">
        <ele>-24.200000762939</ele>
        <time>2025-08-13T16:04:26.000Z</time>
      </trkpt>
      <trkpt lat="43.77411" lon="-1.39474">
        <ele>-24.200000762939</ele>
        <time>2025-08-13T16:04:28.000Z</time>
      </trkpt>
      <trkpt lat="43.77412" lon="-1.39468">
        <ele>-24</ele>
        <time>2025-08-13T16:04:30.000Z</time>
      </trkpt>
      <trkpt lat="43.77411" lon="-1.39463">
        <ele>-24</ele>
        <time>2025-08-13T16:04:32.000Z</time>
      </trkpt>
      <trkpt lat="43.77412" lon="-1.39455">
        <ele>-24</ele>
        <time>2025-08-13T16:04:34.000Z</time>
      </trkpt>
      <trkpt lat="43.77417" lon="-1.39449">
        <ele>-24</ele>
        <time>2025-08-13T16:04:36.000Z</time>
      </trkpt>
      <trkpt lat="43.77425" lon="-1.39431">
        <ele>-24</ele>
        <time>2025-08-13T16:04:40.000Z</time>
      </trkpt>
      <trkpt lat="43.77427" lon="-1.39426">
        <ele>-24</ele>
        <time>2025-08-13T16:04:41.000Z</time>
      </trkpt>
      <trkpt lat="43.77436" lon="-1.39404">
        <ele>-24</ele>
        <time>2025-08-13T16:04:45.000Z</time>
      </trkpt>
      <trkpt lat="43.7744" lon="-1.39389">
        <ele>-24</ele>
        <time>2025-08-13T16:04:48.000Z</time>
      </trkpt>
      <trkpt lat="43.77442" lon="-1.39383">
        <ele>-24</ele>
        <time>2025-08-13T16:04:49.000Z</time>
      </trkpt>
      <trkpt lat="43.77447" lon="-1.39364">
        <ele>-24</ele>
        <time>2025-08-13T16:04:53.000Z</time>
      </trkpt>
      <trkpt lat="43.7745" lon="-1.39362">
        <ele>-24</ele>
        <time>2025-08-13T16:04:54.000Z</time>
      </trkpt>
      <trkpt lat="43.77453" lon="-1.39363">
        <ele>-24</ele>
        <time>2025-08-13T16:04:55.000Z</time>
      </trkpt>
      <trkpt lat="43.77462" lon="-1.39365">
        <ele>-23.799999237061</ele>
        <time>2025-08-13T16:04:57.000Z</time>
      </trkpt>
      <trkpt lat="43.77489" lon="-1.39377">
        <ele>-23.60000038147</ele>
        <time>2025-08-13T16:05:03.000Z</time>
      </trkpt>
      <trkpt lat="43.77497" lon="-1.39382">
        <ele>-23.39999961853</ele>
        <time>2025-08-13T16:05:05.000Z</time>
      </trkpt>
      <trkpt lat="43.77512" lon="-1.39391">
        <ele>-23.39999961853</ele>
        <time>2025-08-13T16:05:09.000Z</time>
      </trkpt>
      <trkpt lat="43.77533" lon="-1.39403">
        <ele>-23.39999961853</ele>
        <time>2025-08-13T16:05:15.000Z</time>
      </trkpt>
      <trkpt lat="43.77571" lon="-1.39424">
        <ele>-23.39999961853</ele>
        <time>2025-08-13T16:05:24.000Z</time>
      </trkpt>
      <trkpt lat="43.77596" lon="-1.39437">
        <ele>-23.60000038147</ele>
        <time>2025-08-13T16:05:30.000Z</time>
      </trkpt>
      <trkpt lat="43.77605" lon="-1.39442">
        <ele>-23.60000038147</ele>
        <time>2025-08-13T16:05:32.000Z</time>
      </trkpt>
      <trkpt lat="43.77621" lon="-1.39452">
        <ele>-23.60000038147</ele>
        <time>2025-08-13T16:05:36.000Z</time>
      </trkpt>
      <trkpt lat="43.77629" lon="-1.39457">
        <ele>-23.60000038147</ele>
        <time>2025-08-13T16:05:38.000Z</time>
      </trkpt>
      <trkpt lat="43.77634" lon="-1.39459">
        <ele>-23.60000038147</ele>
        <time>2025-08-13T16:05:39.000Z</time>
      </trkpt>
      <trkpt lat="43.77638" lon="-1.3946">
        <ele>-23.60000038147</ele>
        <time>2025-08-13T16:05:40.000Z</time>
      </trkpt>
      <trkpt lat="43.77656" lon="-1.39471">
        <ele>-23.39999961853</ele>
        <time>2025-08-13T16:05:44.000Z</time>
      </trkpt>
      <trkpt lat="43.77665" lon="-1.39476">
        <ele>-23.39999961853</ele>
        <time>2025-08-13T16:05:46.000Z</time>
      </trkpt>
      <trkpt lat="43.77682" lon="-1.39484">
        <ele>-23.39999961853</ele>
        <time>2025-08-13T16:05:50.000Z</time>
      </trkpt>
      <trkpt lat="43.77688" lon="-1.39486">
        <ele>-23.39999961853</ele>
        <time>2025-08-13T16:05:51.000Z</time>
      </trkpt>
      <trkpt lat="43.77711" lon="-1.395">
        <ele>-23.39999961853</ele>
        <time>2025-08-13T16:05:57.000Z</time>
      </trkpt>
      <trkpt lat="43.77723" lon="-1.39506">
        <ele>-23.39999961853</ele>
        <time>2025-08-13T16:05:59.000Z</time>
      </trkpt>
      <trkpt lat="43.77739" lon="-1.39516">
        <ele>-23.39999961853</ele>
        <time>2025-08-13T16:06:04.000Z</time>
      </trkpt>
      <trkpt lat="43.77758" lon="-1.39525">
        <ele>-23.200000762939</ele>
        <time>2025-08-13T16:06:09.000Z</time>
      </trkpt>
      <trkpt lat="43.77762" lon="-1.39528">
        <ele>-23</ele>
        <time>2025-08-13T16:06:10.000Z</time>
      </trkpt>
      <trkpt lat="43.77793" lon="-1.39546">
        <ele>-23</ele>
        <time>2025-08-13T16:06:18.000Z</time>
      </trkpt>
      <trkpt lat="43.77797" lon="-1.39548">
        <ele>-23</ele>
        <time>2025-08-13T16:06:19.000Z</time>
      </trkpt>
      <trkpt lat="43.77831" lon="-1.39568">
        <ele>-23</ele>
        <time>2025-08-13T16:06:27.000Z</time>
      </trkpt>
      <trkpt lat="43.77869" lon="-1.39587">
        <ele>-23.200000762939</ele>
        <time>2025-08-13T16:06:36.000Z</time>
      </trkpt>
      <trkpt lat="43.77908" lon="-1.39604">
        <ele>-23.39999961853</ele>
        <time>2025-08-13T16:06:45.000Z</time>
      </trkpt>
      <trkpt lat="43.77912" lon="-1.39606">
        <ele>-23.39999961853</ele>
        <time>2025-08-13T16:06:46.000Z</time>
      </trkpt>
      <trkpt lat="43.7793" lon="-1.39615">
        <ele>-23.60000038147</ele>
        <time>2025-08-13T16:06:51.000Z</time>
      </trkpt>
      <trkpt lat="43.77933" lon="-1.39616">
        <ele>-23.60000038147</ele>
        <time>2025-08-13T16:06:52.000Z</time>
      </trkpt>
      <trkpt lat="43.77936" lon="-1.39615">
        <ele>-23.60000038147</ele>
        <time>2025-08-13T16:06:53.000Z</time>
      </trkpt>
      <trkpt lat="43.77942" lon="-1.39616">
        <ele>-23.60000038147</ele>
        <time>2025-08-13T16:06:55.000Z</time>
      </trkpt>
      <trkpt lat="43.77977" lon="-1.39625">
        <ele>-23.39999961853</ele>
        <time>2025-08-13T16:07:02.000Z</time>
      </trkpt>
      <trkpt lat="43.78001" lon="-1.39626">
        <ele>-23.60000038147</ele>
        <time>2025-08-13T16:07:08.000Z</time>
      </trkpt>
      <trkpt lat="43.78006" lon="-1.39627">
        <ele>-23.799999237061</ele>
        <time>2025-08-13T16:07:09.000Z</time>
      </trkpt>
      <trkpt lat="43.7804" lon="-1.39628">
        <ele>-24</ele>
        <time>2025-08-13T16:07:16.000Z</time>
      </trkpt>
      <trkpt lat="43.78096" lon="-1.39629">
        <ele>-24.39999961853</ele>
        <time>2025-08-13T16:07:26.000Z</time>
      </trkpt>
      <trkpt lat="43.78107" lon="-1.39629">
        <ele>-24.39999961853</ele>
        <time>2025-08-13T16:07:28.000Z</time>
      </trkpt>
      <trkpt lat="43.78164" lon="-1.39629">
        <ele>-24.799999237061</ele>
        <time>2025-08-13T16:07:38.000Z</time>
      </trkpt>
      <trkpt lat="43.78186" lon="-1.39628">
        <ele>-25</ele>
        <time>2025-08-13T16:07:42.000Z</time>
      </trkpt>
      <trkpt lat="43.7822" lon="-1.39629">
        <ele>-25</ele>
        <time>2025-08-13T16:07:49.000Z</time>
      </trkpt>
      <trkpt lat="43.78254" lon="-1.3963">
        <ele>-24.799999237061</ele>
        <time>2025-08-13T16:07:56.000Z</time>
      </trkpt>
      <trkpt lat="43.78279" lon="-1.39629">
        <ele>-24.39999961853</ele>
        <time>2025-08-13T16:08:02.000Z</time>
      </trkpt>
      <trkpt lat="43.78283" lon="-1.39629">
        <ele>-24.39999961853</ele>
        <time>2025-08-13T16:08:03.000Z</time>
      </trkpt>
      <trkpt lat="43.7832" lon="-1.39628">
        <ele>-24.39999961853</ele>
        <time>2025-08-13T16:08:11.000Z</time>
      </trkpt>
      <trkpt lat="43.78364" lon="-1.39624">
        <ele>-24.39999961853</ele>
        <time>2025-08-13T16:08:20.000Z</time>
      </trkpt>
      <trkpt lat="43.78408" lon="-1.39611">
        <ele>-24.60000038147</ele>
        <time>2025-08-13T16:08:29.000Z</time>
      </trkpt>
      <trkpt lat="43.78452" lon="-1.39594">
        <ele>-24.60000038147</ele>
        <time>2025-08-13T16:08:38.000Z</time>
      </trkpt>
      <trkpt lat="43.78466" lon="-1.39588">
        <ele>-24.39999961853</ele>
        <time>2025-08-13T16:08:41.000Z</time>
      </trkpt>
      <trkpt lat="43.7848" lon="-1.39583">
        <ele>-24.60000038147</ele>
        <time>2025-08-13T16:08:44.000Z</time>
      </trkpt>
      <trkpt lat="43.78518" lon="-1.39569">
        <ele>-24.200000762939</ele>
        <time>2025-08-13T16:08:52.000Z</time>
      </trkpt>
      <trkpt lat="43.78567" lon="-1.39549">
        <ele>-24.200000762939</ele>
        <time>2025-08-13T16:09:02.000Z</time>
      </trkpt>
      <trkpt lat="43.78606" lon="-1.39532">
        <ele>-24</ele>
        <time>2025-08-13T16:09:10.000Z</time>
      </trkpt>
      <trkpt lat="43.78611" lon="-1.3953">
        <ele>-24</ele>
        <time>2025-08-13T16:09:11.000Z</time>
      </trkpt>
      <trkpt lat="43.78631" lon="-1.39524">
        <ele>-23.799999237061</ele>
        <time>2025-08-13T16:09:15.000Z</time>
      </trkpt>
      <trkpt lat="43.78681" lon="-1.395">
        <ele>-23.799999237061</ele>
        <time>2025-08-13T16:09:25.000Z</time>
      </trkpt>
      <trkpt lat="43.78726" lon="-1.39473">
        <ele>-23.799999237061</ele>
        <time>2025-08-13T16:09:34.000Z</time>
      </trkpt>
      <trkpt lat="43.78773" lon="-1.39435">
        <ele>-23.60000038147</ele>
        <time>2025-08-13T16:09:44.000Z</time>
      </trkpt>
      <trkpt lat="43.78782" lon="-1.39427">
        <ele>-23.60000038147</ele>
        <time>2025-08-13T16:09:46.000Z</time>
      </trkpt>
      <trkpt lat="43.78819" lon="-1.39389">
        <ele>-23.39999961853</ele>
        <time>2025-08-13T16:09:55.000Z</time>
      </trkpt>
      <trkpt lat="43.7885" lon="-1.39353">
        <ele>-23.200000762939</ele>
        <time>2025-08-13T16:10:03.000Z</time>
      </trkpt>
      <trkpt lat="43.78877" lon="-1.3932">
        <ele>-23.200000762939</ele>
        <time>2025-08-13T16:10:10.000Z</time>
      </trkpt>
      <trkpt lat="43.7888" lon="-1.39315">
        <ele>-23.200000762939</ele>
        <time>2025-08-13T16:10:11.000Z</time>
      </trkpt>
      <trkpt lat="43.78895" lon="-1.39297">
        <ele>-23.200000762939</ele>
        <time>2025-08-13T16:10:15.000Z</time>
      </trkpt>
      <trkpt lat="43.78901" lon="-1.39288">
        <ele>-23.200000762939</ele>
        <time>2025-08-13T16:10:17.000Z</time>
      </trkpt>
      <trkpt lat="43.78904" lon="-1.39285">
        <ele>-23.200000762939</ele>
        <time>2025-08-13T16:10:18.000Z</time>
      </trkpt>
      <trkpt lat="43.78918" lon="-1.39269">
        <ele>-23.200000762939</ele>
        <time>2025-08-13T16:10:22.000Z</time>
      </trkpt>
      <trkpt lat="43.78927" lon="-1.39256">
        <ele>-23.200000762939</ele>
        <time>2025-08-13T16:10:25.000Z</time>
      </trkpt>
      <trkpt lat="43.78934" lon="-1.39251">
        <ele>-23.200000762939</ele>
        <time>2025-08-13T16:10:27.000Z</time>
      </trkpt>
      <trkpt lat="43.7894" lon="-1.39242">
        <ele>-23.39999961853</ele>
        <time>2025-08-13T16:10:29.000Z</time>
      </trkpt>
      <trkpt lat="43.78976" lon="-1.39199">
        <ele>-23.60000038147</ele>
        <time>2025-08-13T16:10:38.000Z</time>
      </trkpt>
      <trkpt lat="43.79006" lon="-1.39164">
        <ele>-23.799999237061</ele>
        <time>2025-08-13T16:10:45.000Z</time>
      </trkpt>
      <trkpt lat="43.79042" lon="-1.39118">
        <ele>-24</ele>
        <time>2025-08-13T16:10:54.000Z</time>
      </trkpt>
      <trkpt lat="43.7908" lon="-1.39072">
        <ele>-24</ele>
        <time>2025-08-13T16:11:03.000Z</time>
      </trkpt>
      <trkpt lat="43.79119" lon="-1.39026">
        <ele>-24</ele>
        <time>2025-08-13T16:11:12.000Z</time>
      </trkpt>
      <trkpt lat="43.79153" lon="-1.38984">
        <ele>-24</ele>
        <time>2025-08-13T16:11:20.000Z</time>
      </trkpt>
      <trkpt lat="43.79192" lon="-1.3894">
        <ele>-24</ele>
        <time>2025-08-13T16:11:29.000Z</time>
      </trkpt>
      <trkpt lat="43.79234" lon="-1.38889">
        <ele>-23.799999237061</ele>
        <time>2025-08-13T16:11:39.000Z</time>
      </trkpt>
      <trkpt lat="43.79238" lon="-1.38884">
        <ele>-23.799999237061</ele>
        <time>2025-08-13T16:11:40.000Z</time>
      </trkpt>
      <trkpt lat="43.79262" lon="-1.38854">
        <ele>-23.799999237061</ele>
        <time>2025-08-13T16:11:46.000Z</time>
      </trkpt>
      <trkpt lat="43.79303" lon="-1.38804">
        <ele>-23.799999237061</ele>
        <time>2025-08-13T16:11:56.000Z</time>
      </trkpt>
      <trkpt lat="43.79307" lon="-1.38799">
        <ele>-23.60000038147</ele>
        <time>2025-08-13T16:11:57.000Z</time>
      </trkpt>
      <trkpt lat="43.79348" lon="-1.38749">
        <ele>-23.60000038147</ele>
        <time>2025-08-13T16:12:07.000Z</time>
      </trkpt>
      <trkpt lat="43.79352" lon="-1.38744">
        <ele>-23.60000038147</ele>
        <time>2025-08-13T16:12:08.000Z</time>
      </trkpt>
      <trkpt lat="43.79369" lon="-1.38724">
        <ele>-23.39999961853</ele>
        <time>2025-08-13T16:12:12.000Z</time>
      </trkpt>
      <trkpt lat="43.79378" lon="-1.38714">
        <ele>-23</ele>
        <time>2025-08-13T16:12:14.000Z</time>
      </trkpt>
      <trkpt lat="43.79391" lon="-1.38698">
        <ele>-22.799999237061</ele>
        <time>2025-08-13T16:12:17.000Z</time>
      </trkpt>
      <trkpt lat="43.79395" lon="-1.38693">
        <ele>-22.799999237061</ele>
        <time>2025-08-13T16:12:18.000Z</time>
      </trkpt>
      <trkpt lat="43.79404" lon="-1.38682">
        <ele>-22.799999237061</ele>
        <time>2025-08-13T16:12:20.000Z</time>
      </trkpt>
      <trkpt lat="43.79418" lon="-1.38666">
        <ele>-22.799999237061</ele>
        <time>2025-08-13T16:12:23.000Z</time>
      </trkpt>
      <trkpt lat="43.79436" lon="-1.38645">
        <ele>-22.799999237061</ele>
        <time>2025-08-13T16:12:27.000Z</time>
      </trkpt>
      <trkpt lat="43.7945" lon="-1.3863">
        <ele>-22.799999237061</ele>
        <time>2025-08-13T16:12:30.000Z</time>
      </trkpt>
      <trkpt lat="43.79481" lon="-1.38596">
        <ele>-22.60000038147</ele>
        <time>2025-08-13T16:12:37.000Z</time>
      </trkpt>
      <trkpt lat="43.79498" lon="-1.38573">
        <ele>-22.60000038147</ele>
        <time>2025-08-13T16:12:41.000Z</time>
      </trkpt>
      <trkpt lat="43.79511" lon="-1.38557">
        <ele>-22.799999237061</ele>
        <time>2025-08-13T16:12:44.000Z</time>
      </trkpt>
      <trkpt lat="43.79516" lon="-1.38553">
        <ele>-22.799999237061</ele>
        <time>2025-08-13T16:12:45.000Z</time>
      </trkpt>
      <trkpt lat="43.79529" lon="-1.38537">
        <ele>-22.799999237061</ele>
        <time>2025-08-13T16:12:48.000Z</time>
      </trkpt>
      <trkpt lat="43.79542" lon="-1.38521">
        <ele>-22.799999237061</ele>
        <time>2025-08-13T16:12:51.000Z</time>
      </trkpt>
      <trkpt lat="43.79551" lon="-1.3851">
        <ele>-22.799999237061</ele>
        <time>2025-08-13T16:12:53.000Z</time>
      </trkpt>
      <trkpt lat="43.79566" lon="-1.38491">
        <ele>-22.799999237061</ele>
        <time>2025-08-13T16:12:57.000Z</time>
      </trkpt>
      <trkpt lat="43.79571" lon="-1.38487">
        <ele>-22.799999237061</ele>
        <time>2025-08-13T16:12:58.000Z</time>
      </trkpt>
      <trkpt lat="43.796" lon="-1.38448">
        <ele>-22.799999237061</ele>
        <time>2025-08-13T16:13:05.000Z</time>
      </trkpt>
      <trkpt lat="43.79638" lon="-1.384">
        <ele>-22.60000038147</ele>
        <time>2025-08-13T16:13:14.000Z</time>
      </trkpt>
      <trkpt lat="43.79672" lon="-1.38359">
        <ele>-22.799999237061</ele>
        <time>2025-08-13T16:13:22.000Z</time>
      </trkpt>
      <trkpt lat="43.7969" lon="-1.38337">
        <ele>-22.799999237061</ele>
        <time>2025-08-13T16:13:27.000Z</time>
      </trkpt>
      <trkpt lat="43.79695" lon="-1.38332">
        <ele>-22.799999237061</ele>
        <time>2025-08-13T16:13:29.000Z</time>
      </trkpt>
      <trkpt lat="43.79711" lon="-1.38318">
        <ele>-22.799999237061</ele>
        <time>2025-08-13T16:13:33.000Z</time>
      </trkpt>
      <trkpt lat="43.79725" lon="-1.38308">
        <ele>-22.799999237061</ele>
        <time>2025-08-13T16:13:36.000Z</time>
      </trkpt>
      <trkpt lat="43.79736" lon="-1.383">
        <ele>-22.799999237061</ele>
        <time>2025-08-13T16:13:38.000Z</time>
      </trkpt>
      <trkpt lat="43.79746" lon="-1.38293">
        <ele>-22.799999237061</ele>
        <time>2025-08-13T16:13:40.000Z</time>
      </trkpt>
      <trkpt lat="43.79756" lon="-1.38287">
        <ele>-22.799999237061</ele>
        <time>2025-08-13T16:13:42.000Z</time>
      </trkpt>
      <trkpt lat="43.79761" lon="-1.38284">
        <ele>-22.799999237061</ele>
        <time>2025-08-13T16:13:43.000Z</time>
      </trkpt>
      <trkpt lat="43.79765" lon="-1.38281">
        <ele>-22.799999237061</ele>
        <time>2025-08-13T16:13:44.000Z</time>
      </trkpt>
      <trkpt lat="43.79774" lon="-1.38273">
        <ele>-22.799999237061</ele>
        <time>2025-08-13T16:13:46.000Z</time>
      </trkpt>
      <trkpt lat="43.79778" lon="-1.3827">
        <ele>-22.799999237061</ele>
        <time>2025-08-13T16:13:47.000Z</time>
      </trkpt>
      <trkpt lat="43.79814" lon="-1.38249">
        <ele>-22.799999237061</ele>
        <time>2025-08-13T16:13:54.000Z</time>
      </trkpt>
      <trkpt lat="43.79828" lon="-1.38241">
        <ele>-22.799999237061</ele>
        <time>2025-08-13T16:13:57.000Z</time>
      </trkpt>
      <trkpt lat="43.7985" lon="-1.38228">
        <ele>-22.799999237061</ele>
        <time>2025-08-13T16:14:01.000Z</time>
      </trkpt>
      <trkpt lat="43.79891" lon="-1.38204">
        <ele>-23.200000762939</ele>
        <time>2025-08-13T16:14:08.000Z</time>
      </trkpt>
      <trkpt lat="43.79945" lon="-1.38173">
        <ele>-23.60000038147</ele>
        <time>2025-08-13T16:14:17.000Z</time>
      </trkpt>
      <trkpt lat="43.79998" lon="-1.38143">
        <ele>-23.60000038147</ele>
        <time>2025-08-13T16:14:26.000Z</time>
      </trkpt>
      <trkpt lat="43.80052" lon="-1.38113">
        <ele>-23.60000038147</ele>
        <time>2025-08-13T16:14:35.000Z</time>
      </trkpt>
      <trkpt lat="43.80064" lon="-1.38106">
        <ele>-23.60000038147</ele>
        <time>2025-08-13T16:14:37.000Z</time>
      </trkpt>
      <trkpt lat="43.80116" lon="-1.38071">
        <ele>-23.60000038147</ele>
        <time>2025-08-13T16:14:46.000Z</time>
      </trkpt>
      <trkpt lat="43.80126" lon="-1.38062">
        <ele>-23.799999237061</ele>
        <time>2025-08-13T16:14:48.000Z</time>
      </trkpt>
      <trkpt lat="43.80144" lon="-1.38046">
        <ele>-23.799999237061</ele>
        <time>2025-08-13T16:14:52.000Z</time>
      </trkpt>
      <trkpt lat="43.80152" lon="-1.38037">
        <ele>-23.60000038147</ele>
        <time>2025-08-13T16:14:54.000Z</time>
      </trkpt>
      <trkpt lat="43.80197" lon="-1.37992">
        <ele>-23.39999961853</ele>
        <time>2025-08-13T16:15:03.000Z</time>
      </trkpt>
      <trkpt lat="43.80242" lon="-1.37947">
        <ele>-23.200000762939</ele>
        <time>2025-08-13T16:15:12.000Z</time>
      </trkpt>
      <trkpt lat="43.80281" lon="-1.37909">
        <ele>-23</ele>
        <time>2025-08-13T16:15:20.000Z</time>
      </trkpt>
      <trkpt lat="43.80299" lon="-1.37892">
        <ele>-23.200000762939</ele>
        <time>2025-08-13T16:15:24.000Z</time>
      </trkpt>
      <trkpt lat="43.80308" lon="-1.37883">
        <ele>-23.39999961853</ele>
        <time>2025-08-13T16:15:26.000Z</time>
      </trkpt>
      <trkpt lat="43.80346" lon="-1.37847">
        <ele>-23.39999961853</ele>
        <time>2025-08-13T16:15:34.000Z</time>
      </trkpt>
      <trkpt lat="43.80378" lon="-1.37815">
        <ele>-23.200000762939</ele>
        <time>2025-08-13T16:15:41.000Z</time>
      </trkpt>
      <trkpt lat="43.80409" lon="-1.37783">
        <ele>-22.60000038147</ele>
        <time>2025-08-13T16:15:48.000Z</time>
      </trkpt>
      <trkpt lat="43.80443" lon="-1.37751">
        <ele>-22.200000762939</ele>
        <time>2025-08-13T16:15:56.000Z</time>
      </trkpt>
      <trkpt lat="43.80459" lon="-1.37736">
        <ele>-22</ele>
        <time>2025-08-13T16:16:00.000Z</time>
      </trkpt>
      <trkpt lat="43.80471" lon="-1.37724">
        <ele>-22</ele>
        <time>2025-08-13T16:16:03.000Z</time>
      </trkpt>
      <trkpt lat="43.80496" lon="-1.37699">
        <ele>-21.60000038147</ele>
        <time>2025-08-13T16:16:09.000Z</time>
      </trkpt>
      <trkpt lat="43.805" lon="-1.37695">
        <ele>-21.60000038147</ele>
        <time>2025-08-13T16:16:10.000Z</time>
      </trkpt>
      <trkpt lat="43.80525" lon="-1.37671">
        <ele>-21.200000762939</ele>
        <time>2025-08-13T16:16:16.000Z</time>
      </trkpt>
      <trkpt lat="43.8055" lon="-1.37644">
        <ele>-21</ele>
        <time>2025-08-13T16:16:21.000Z</time>
      </trkpt>
      <trkpt lat="43.80555" lon="-1.37639">
        <ele>-21</ele>
        <time>2025-08-13T16:16:22.000Z</time>
      </trkpt>
      <trkpt lat="43.8056" lon="-1.37634">
        <ele>-20.799999237061</ele>
        <time>2025-08-13T16:16:23.000Z</time>
      </trkpt>
      <trkpt lat="43.80571" lon="-1.37622">
        <ele>-20.799999237061</ele>
        <time>2025-08-13T16:16:26.000Z</time>
      </trkpt>
      <trkpt lat="43.8058" lon="-1.37612">
        <ele>-20.799999237061</ele>
        <time>2025-08-13T16:16:28.000Z</time>
      </trkpt>
      <trkpt lat="43.80598" lon="-1.37596">
        <ele>-20.799999237061</ele>
        <time>2025-08-13T16:16:32.000Z</time>
      </trkpt>
      <trkpt lat="43.80626" lon="-1.3757">
        <ele>-20.39999961853</ele>
        <time>2025-08-13T16:16:38.000Z</time>
      </trkpt>
      <trkpt lat="43.80639" lon="-1.37557">
        <ele>-20.39999961853</ele>
        <time>2025-08-13T16:16:41.000Z</time>
      </trkpt>
      <trkpt lat="43.80653" lon="-1.37543">
        <ele>-20.39999961853</ele>
        <time>2025-08-13T16:16:44.000Z</time>
      </trkpt>
      <trkpt lat="43.8067" lon="-1.37526">
        <ele>-20.200000762939</ele>
        <time>2025-08-13T16:16:48.000Z</time>
      </trkpt>
      <trkpt lat="43.80673" lon="-1.37522">
        <ele>-20.200000762939</ele>
        <time>2025-08-13T16:16:49.000Z</time>
      </trkpt>
      <trkpt lat="43.80699" lon="-1.37497">
        <ele>-20.200000762939</ele>
        <time>2025-08-13T16:16:55.000Z</time>
      </trkpt>
      <trkpt lat="43.80721" lon="-1.37476">
        <ele>-20.200000762939</ele>
        <time>2025-08-13T16:17:00.000Z</time>
      </trkpt>
      <trkpt lat="43.80731" lon="-1.37468">
        <ele>-20.200000762939</ele>
        <time>2025-08-13T16:17:02.000Z</time>
      </trkpt>
      <trkpt lat="43.80739" lon="-1.37461">
        <ele>-20</ele>
        <time>2025-08-13T16:17:04.000Z</time>
      </trkpt>
      <trkpt lat="43.80751" lon="-1.37448">
        <ele>-19.799999237061</ele>
        <time>2025-08-13T16:17:07.000Z</time>
      </trkpt>
      <trkpt lat="43.80769" lon="-1.3743">
        <ele>-19.39999961853</ele>
        <time>2025-08-13T16:17:11.000Z</time>
      </trkpt>
      <trkpt lat="43.8078" lon="-1.3742">
        <ele>-19.200000762939</ele>
        <time>2025-08-13T16:17:14.000Z</time>
      </trkpt>
      <trkpt lat="43.80788" lon="-1.37411">
        <ele>-19.200000762939</ele>
        <time>2025-08-13T16:17:16.000Z</time>
      </trkpt>
      <trkpt lat="43.80823" lon="-1.37376">
        <ele>-19.200000762939</ele>
        <time>2025-08-13T16:17:23.000Z</time>
      </trkpt>
      <trkpt lat="43.80867" lon="-1.37329">
        <ele>-19.60000038147</ele>
        <time>2025-08-13T16:17:33.000Z</time>
      </trkpt>
      <trkpt lat="43.80907" lon="-1.37289">
        <ele>-19.39999961853</ele>
        <time>2025-08-13T16:17:42.000Z</time>
      </trkpt>
      <trkpt lat="43.80941" lon="-1.37256">
        <ele>-19.200000762939</ele>
        <time>2025-08-13T16:17:50.000Z</time>
      </trkpt>
      <trkpt lat="43.80946" lon="-1.37254">
        <ele>-19.200000762939</ele>
        <time>2025-08-13T16:17:51.000Z</time>
      </trkpt>
      <trkpt lat="43.80953" lon="-1.3725">
        <ele>-19.200000762939</ele>
        <time>2025-08-13T16:17:53.000Z</time>
      </trkpt>
      <trkpt lat="43.80956" lon="-1.37243">
        <ele>-19</ele>
        <time>2025-08-13T16:17:55.000Z</time>
      </trkpt>
      <trkpt lat="43.80959" lon="-1.37234">
        <ele>-18.799999237061</ele>
        <time>2025-08-13T16:17:57.000Z</time>
      </trkpt>
      <trkpt lat="43.80962" lon="-1.37232">
        <ele>-18.799999237061</ele>
        <time>2025-08-13T16:17:58.000Z</time>
      </trkpt>
      <trkpt lat="43.80985" lon="-1.37214">
        <ele>-18.60000038147</ele>
        <time>2025-08-13T16:18:04.000Z</time>
      </trkpt>
      <trkpt lat="43.80996" lon="-1.37203">
        <ele>-18.60000038147</ele>
        <time>2025-08-13T16:18:07.000Z</time>
      </trkpt>
      <trkpt lat="43.81004" lon="-1.37195">
        <ele>-18.60000038147</ele>
        <time>2025-08-13T16:18:09.000Z</time>
      </trkpt>
      <trkpt lat="43.81007" lon="-1.37192">
        <ele>-18.60000038147</ele>
        <time>2025-08-13T16:18:10.000Z</time>
      </trkpt>
      <trkpt lat="43.81038" lon="-1.37161">
        <ele>-18.39999961853</ele>
        <time>2025-08-13T16:18:18.000Z</time>
      </trkpt>
      <trkpt lat="43.81066" lon="-1.37134">
        <ele>-18</ele>
        <time>2025-08-13T16:18:25.000Z</time>
      </trkpt>
      <trkpt lat="43.81082" lon="-1.3712">
        <ele>-18</ele>
        <time>2025-08-13T16:18:29.000Z</time>
      </trkpt>
      <trkpt lat="43.81094" lon="-1.37108">
        <ele>-18.200000762939</ele>
        <time>2025-08-13T16:18:32.000Z</time>
      </trkpt>
      <trkpt lat="43.81113" lon="-1.3709">
        <ele>-18</ele>
        <time>2025-08-13T16:18:37.000Z</time>
      </trkpt>
      <trkpt lat="43.8112" lon="-1.37083">
        <ele>-18</ele>
        <time>2025-08-13T16:18:39.000Z</time>
      </trkpt>
      <trkpt lat="43.81123" lon="-1.37079">
        <ele>-18</ele>
        <time>2025-08-13T16:18:40.000Z</time>
      </trkpt>
      <trkpt lat="43.81155" lon="-1.37048">
        <ele>-18</ele>
        <time>2025-08-13T16:18:48.000Z</time>
      </trkpt>
      <trkpt lat="43.81187" lon="-1.37017">
        <ele>-17.799999237061</ele>
        <time>2025-08-13T16:18:56.000Z</time>
      </trkpt>
      <trkpt lat="43.81222" lon="-1.36982">
        <ele>-17.60000038147</ele>
        <time>2025-08-13T16:19:04.000Z</time>
      </trkpt>
      <trkpt lat="43.8124" lon="-1.36962">
        <ele>-17.39999961853</ele>
        <time>2025-08-13T16:19:08.000Z</time>
      </trkpt>
      <trkpt lat="43.81255" lon="-1.36948">
        <ele>-17.39999961853</ele>
        <time>2025-08-13T16:19:11.000Z</time>
      </trkpt>
      <trkpt lat="43.81281" lon="-1.36922">
        <ele>-17.200000762939</ele>
        <time>2025-08-13T16:19:16.000Z</time>
      </trkpt>
      <trkpt lat="43.81296" lon="-1.36906">
        <ele>-17</ele>
        <time>2025-08-13T16:19:19.000Z</time>
      </trkpt>
      <trkpt lat="43.81328" lon="-1.36879">
        <ele>-16.60000038147</ele>
        <time>2025-08-13T16:19:25.000Z</time>
      </trkpt>
      <trkpt lat="43.81358" lon="-1.36859">
        <ele>-16.39999961853</ele>
        <time>2025-08-13T16:19:31.000Z</time>
      </trkpt>
      <trkpt lat="43.81372" lon="-1.36851">
        <ele>-16.200000762939</ele>
        <time>2025-08-13T16:19:34.000Z</time>
      </trkpt>
      <trkpt lat="43.81393" lon="-1.36838">
        <ele>-16.200000762939</ele>
        <time>2025-08-13T16:19:38.000Z</time>
      </trkpt>
      <trkpt lat="43.81433" lon="-1.36824">
        <ele>-16</ele>
        <time>2025-08-13T16:19:45.000Z</time>
      </trkpt>
      <trkpt lat="43.81476" lon="-1.36814">
        <ele>-16</ele>
        <time>2025-08-13T16:19:53.000Z</time>
      </trkpt>
      <trkpt lat="43.81493" lon="-1.36808">
        <ele>-16</ele>
        <time>2025-08-13T16:19:57.000Z</time>
      </trkpt>
      <trkpt lat="43.81496" lon="-1.36808">
        <ele>-16</ele>
        <time>2025-08-13T16:19:58.000Z</time>
      </trkpt>
      <trkpt lat="43.81508" lon="-1.36811">
        <ele>-15.800000190735</ele>
        <time>2025-08-13T16:20:01.000Z</time>
      </trkpt>
      <trkpt lat="43.81512" lon="-1.3681">
        <ele>-15.60000038147</ele>
        <time>2025-08-13T16:20:02.000Z</time>
      </trkpt>
      <trkpt lat="43.8154" lon="-1.36806">
        <ele>-15.60000038147</ele>
        <time>2025-08-13T16:20:09.000Z</time>
      </trkpt>
      <trkpt lat="43.81564" lon="-1.36801">
        <ele>-15.39999961853</ele>
        <time>2025-08-13T16:20:14.000Z</time>
      </trkpt>
      <trkpt lat="43.81583" lon="-1.36799">
        <ele>-15.39999961853</ele>
        <time>2025-08-13T16:20:18.000Z</time>
      </trkpt>
      <trkpt lat="43.81595" lon="-1.36794">
        <ele>-15.39999961853</ele>
        <time>2025-08-13T16:20:20.000Z</time>
      </trkpt>
      <trkpt lat="43.81623" lon="-1.36791">
        <ele>-15.199999809265</ele>
        <time>2025-08-13T16:20:25.000Z</time>
      </trkpt>
      <trkpt lat="43.81645" lon="-1.36786">
        <ele>-15.199999809265</ele>
        <time>2025-08-13T16:20:29.000Z</time>
      </trkpt>
      <trkpt lat="43.81656" lon="-1.36783">
        <ele>-15.199999809265</ele>
        <time>2025-08-13T16:20:31.000Z</time>
      </trkpt>
      <trkpt lat="43.81662" lon="-1.36781">
        <ele>-15</ele>
        <time>2025-08-13T16:20:32.000Z</time>
      </trkpt>
      <trkpt lat="43.81679" lon="-1.36777">
        <ele>-15</ele>
        <time>2025-08-13T16:20:35.000Z</time>
      </trkpt>
      <trkpt lat="43.81691" lon="-1.36773">
        <ele>-15</ele>
        <time>2025-08-13T16:20:37.000Z</time>
      </trkpt>
      <trkpt lat="43.81702" lon="-1.36772">
        <ele>-15</ele>
        <time>2025-08-13T16:20:39.000Z</time>
      </trkpt>
      <trkpt lat="43.81727" lon="-1.3677">
        <ele>-15</ele>
        <time>2025-08-13T16:20:43.000Z</time>
      </trkpt>
      <trkpt lat="43.81752" lon="-1.36766">
        <ele>-14.800000190735</ele>
        <time>2025-08-13T16:20:48.000Z</time>
      </trkpt>
      <trkpt lat="43.81757" lon="-1.36767">
        <ele>-14.800000190735</ele>
        <time>2025-08-13T16:20:49.000Z</time>
      </trkpt>
      <trkpt lat="43.81782" lon="-1.36765">
        <ele>-15</ele>
        <time>2025-08-13T16:20:53.000Z</time>
      </trkpt>
      <trkpt lat="43.81828" lon="-1.36755">
        <ele>-15</ele>
        <time>2025-08-13T16:21:01.000Z</time>
      </trkpt>
      <trkpt lat="43.81883" lon="-1.36741">
        <ele>-15</ele>
        <time>2025-08-13T16:21:11.000Z</time>
      </trkpt>
      <trkpt lat="43.8192" lon="-1.36725">
        <ele>-15.199999809265</ele>
        <time>2025-08-13T16:21:18.000Z</time>
      </trkpt>
      <trkpt lat="43.8193" lon="-1.3672">
        <ele>-15.39999961853</ele>
        <time>2025-08-13T16:21:20.000Z</time>
      </trkpt>
      <trkpt lat="43.81969" lon="-1.36696">
        <ele>-15.39999961853</ele>
        <time>2025-08-13T16:21:28.000Z</time>
      </trkpt>
      <trkpt lat="43.8201" lon="-1.36673">
        <ele>-14.800000190735</ele>
        <time>2025-08-13T16:21:36.000Z</time>
      </trkpt>
      <trkpt lat="43.82037" lon="-1.36658">
        <ele>-14.800000190735</ele>
        <time>2025-08-13T16:21:42.000Z</time>
      </trkpt>
      <trkpt lat="43.82059" lon="-1.36646">
        <ele>-14.39999961853</ele>
        <time>2025-08-13T16:21:47.000Z</time>
      </trkpt>
      <trkpt lat="43.82068" lon="-1.3664">
        <ele>-14</ele>
        <time>2025-08-13T16:21:49.000Z</time>
      </trkpt>
      <trkpt lat="43.82106" lon="-1.36618">
        <ele>-13.60000038147</ele>
        <time>2025-08-13T16:21:57.000Z</time>
      </trkpt>
      <trkpt lat="43.82159" lon="-1.3659">
        <ele>-13</ele>
        <time>2025-08-13T16:22:08.000Z</time>
      </trkpt>
      <trkpt lat="43.822" lon="-1.36567">
        <ele>-13.199999809265</ele>
        <time>2025-08-13T16:22:16.000Z</time>
      </trkpt>
      <trkpt lat="43.82205" lon="-1.36565">
        <ele>-13.199999809265</ele>
        <time>2025-08-13T16:22:17.000Z</time>
      </trkpt>
      <trkpt lat="43.82209" lon="-1.36562">
        <ele>-13.39999961853</ele>
        <time>2025-08-13T16:22:18.000Z</time>
      </trkpt>
      <trkpt lat="43.82235" lon="-1.36548">
        <ele>-13.39999961853</ele>
        <time>2025-08-13T16:22:23.000Z</time>
      </trkpt>
      <trkpt lat="43.82271" lon="-1.36527">
        <ele>-13.39999961853</ele>
        <time>2025-08-13T16:22:30.000Z</time>
      </trkpt>
      <trkpt lat="43.82301" lon="-1.3651">
        <ele>-13.60000038147</ele>
        <time>2025-08-13T16:22:36.000Z</time>
      </trkpt>
      <trkpt lat="43.82328" lon="-1.36494">
        <ele>-13.60000038147</ele>
        <time>2025-08-13T16:22:42.000Z</time>
      </trkpt>
      <trkpt lat="43.82371" lon="-1.36469">
        <ele>-12.800000190735</ele>
        <time>2025-08-13T16:22:51.000Z</time>
      </trkpt>
      <trkpt lat="43.82407" lon="-1.36448">
        <ele>-12.199999809265</ele>
        <time>2025-08-13T16:22:59.000Z</time>
      </trkpt>
      <trkpt lat="43.82419" lon="-1.36441">
        <ele>-12.199999809265</ele>
        <time>2025-08-13T16:23:01.000Z</time>
      </trkpt>
      <trkpt lat="43.82456" lon="-1.36419">
        <ele>-12</ele>
        <time>2025-08-13T16:23:09.000Z</time>
      </trkpt>
      <trkpt lat="43.8249" lon="-1.36399">
        <ele>-11.800000190735</ele>
        <time>2025-08-13T16:23:16.000Z</time>
      </trkpt>
      <trkpt lat="43.82527" lon="-1.36378">
        <ele>-11.39999961853</ele>
        <time>2025-08-13T16:23:24.000Z</time>
      </trkpt>
      <trkpt lat="43.82533" lon="-1.36374">
        <ele>-11.39999961853</ele>
        <time>2025-08-13T16:23:25.000Z</time>
      </trkpt>
      <trkpt lat="43.82552" lon="-1.36363">
        <ele>-11.199999809265</ele>
        <time>2025-08-13T16:23:29.000Z</time>
      </trkpt>
      <trkpt lat="43.82579" lon="-1.36348">
        <ele>-11.199999809265</ele>
        <time>2025-08-13T16:23:35.000Z</time>
      </trkpt>
      <trkpt lat="43.82615" lon="-1.36327">
        <ele>-11.199999809265</ele>
        <time>2025-08-13T16:23:43.000Z</time>
      </trkpt>
      <trkpt lat="43.82639" lon="-1.36314">
        <ele>-11.199999809265</ele>
        <time>2025-08-13T16:23:49.000Z</time>
      </trkpt>
      <trkpt lat="43.82665" lon="-1.36299">
        <ele>-11</ele>
        <time>2025-08-13T16:23:55.000Z</time>
      </trkpt>
      <trkpt lat="43.82674" lon="-1.36293">
        <ele>-11</ele>
        <time>2025-08-13T16:23:57.000Z</time>
      </trkpt>
      <trkpt lat="43.82688" lon="-1.36285">
        <ele>-11</ele>
        <time>2025-08-13T16:24:00.000Z</time>
      </trkpt>
      <trkpt lat="43.82712" lon="-1.36272">
        <ele>-11.199999809265</ele>
        <time>2025-08-13T16:24:06.000Z</time>
      </trkpt>
      <trkpt lat="43.82727" lon="-1.36265">
        <ele>-11.39999961853</ele>
        <time>2025-08-13T16:24:09.000Z</time>
      </trkpt>
      <trkpt lat="43.82739" lon="-1.36256">
        <ele>-11.39999961853</ele>
        <time>2025-08-13T16:24:12.000Z</time>
      </trkpt>
      <trkpt lat="43.8275" lon="-1.36251">
        <ele>-11.39999961853</ele>
        <time>2025-08-13T16:24:15.000Z</time>
      </trkpt>
      <trkpt lat="43.82758" lon="-1.36247">
        <ele>-11.39999961853</ele>
        <time>2025-08-13T16:24:17.000Z</time>
      </trkpt>
      <trkpt lat="43.82766" lon="-1.36242">
        <ele>-11.39999961853</ele>
        <time>2025-08-13T16:24:19.000Z</time>
      </trkpt>
      <trkpt lat="43.82773" lon="-1.36239">
        <ele>-11.39999961853</ele>
        <time>2025-08-13T16:24:21.000Z</time>
      </trkpt>
      <trkpt lat="43.82792" lon="-1.36228">
        <ele>-11.199999809265</ele>
        <time>2025-08-13T16:24:26.000Z</time>
      </trkpt>
      <trkpt lat="43.82821" lon="-1.3621">
        <ele>-11.199999809265</ele>
        <time>2025-08-13T16:24:33.000Z</time>
      </trkpt>
      <trkpt lat="43.82857" lon="-1.36191">
        <ele>-11.39999961853</ele>
        <time>2025-08-13T16:24:42.000Z</time>
      </trkpt>
      <trkpt lat="43.82899" lon="-1.36165">
        <ele>-11.199999809265</ele>
        <time>2025-08-13T16:24:52.000Z</time>
      </trkpt>
      <trkpt lat="43.82903" lon="-1.36163">
        <ele>-11.199999809265</ele>
        <time>2025-08-13T16:24:53.000Z</time>
      </trkpt>
      <trkpt lat="43.82926" lon="-1.3615">
        <ele>-11.199999809265</ele>
        <time>2025-08-13T16:24:59.000Z</time>
      </trkpt>
      <trkpt lat="43.82935" lon="-1.36145">
        <ele>-11</ele>
        <time>2025-08-13T16:25:01.000Z</time>
      </trkpt>
      <trkpt lat="43.8295" lon="-1.36136">
        <ele>-11</ele>
        <time>2025-08-13T16:25:05.000Z</time>
      </trkpt>
      <trkpt lat="43.82958" lon="-1.36132">
        <ele>-11</ele>
        <time>2025-08-13T16:25:07.000Z</time>
      </trkpt>
      <trkpt lat="43.82978" lon="-1.36121">
        <ele>-11</ele>
        <time>2025-08-13T16:25:12.000Z</time>
      </trkpt>
      <trkpt lat="43.83013" lon="-1.36103">
        <ele>-10.800000190735</ele>
        <time>2025-08-13T16:25:20.000Z</time>
      </trkpt>
      <trkpt lat="43.83039" lon="-1.3609">
        <ele>-10.800000190735</ele>
        <time>2025-08-13T16:25:26.000Z</time>
      </trkpt>
      <trkpt lat="43.83048" lon="-1.36085">
        <ele>-10.60000038147</ele>
        <time>2025-08-13T16:25:28.000Z</time>
      </trkpt>
      <trkpt lat="43.83059" lon="-1.36078">
        <ele>-10.60000038147</ele>
        <time>2025-08-13T16:25:31.000Z</time>
      </trkpt>
      <trkpt lat="43.83076" lon="-1.36068">
        <ele>-10.60000038147</ele>
        <time>2025-08-13T16:25:35.000Z</time>
      </trkpt>
      <trkpt lat="43.83115" lon="-1.36046">
        <ele>-10.39999961853</ele>
        <time>2025-08-13T16:25:44.000Z</time>
      </trkpt>
      <trkpt lat="43.83124" lon="-1.36041">
        <ele>-10.199999809265</ele>
        <time>2025-08-13T16:25:46.000Z</time>
      </trkpt>
      <trkpt lat="43.83159" lon="-1.36022">
        <ele>-10</ele>
        <time>2025-08-13T16:25:54.000Z</time>
      </trkpt>
      <trkpt lat="43.83201" lon="-1.35997">
        <ele>-10</ele>
        <time>2025-08-13T16:26:03.000Z</time>
      </trkpt>
      <trkpt lat="43.83251" lon="-1.3597">
        <ele>-9.8000001907349</ele>
        <time>2025-08-13T16:26:14.000Z</time>
      </trkpt>
      <trkpt lat="43.83287" lon="-1.35955">
        <ele>-9.8000001907349</ele>
        <time>2025-08-13T16:26:21.000Z</time>
      </trkpt>
      <trkpt lat="43.83335" lon="-1.35945">
        <ele>-9.6000003814697</ele>
        <time>2025-08-13T16:26:31.000Z</time>
      </trkpt>
      <trkpt lat="43.83382" lon="-1.35942">
        <ele>-9.6000003814697</ele>
        <time>2025-08-13T16:26:40.000Z</time>
      </trkpt>
      <trkpt lat="43.83417" lon="-1.35943">
        <ele>-9.6000003814697</ele>
        <time>2025-08-13T16:26:47.000Z</time>
      </trkpt>
      <trkpt lat="43.83431" lon="-1.35944">
        <ele>-9.6000003814697</ele>
        <time>2025-08-13T16:26:50.000Z</time>
      </trkpt>
      <trkpt lat="43.83452" lon="-1.35945">
        <ele>-9.3999996185303</ele>
        <time>2025-08-13T16:26:54.000Z</time>
      </trkpt>
      <trkpt lat="43.83508" lon="-1.35948">
        <ele>-9.1999998092651</ele>
        <time>2025-08-13T16:27:04.000Z</time>
      </trkpt>
      <trkpt lat="43.83553" lon="-1.35951">
        <ele>-9.6000003814697</ele>
        <time>2025-08-13T16:27:12.000Z</time>
      </trkpt>
      <trkpt lat="43.83609" lon="-1.3595">
        <ele>-9.6000003814697</ele>
        <time>2025-08-13T16:27:22.000Z</time>
      </trkpt>
      <trkpt lat="43.83615" lon="-1.35949">
        <ele>-9.6000003814697</ele>
        <time>2025-08-13T16:27:23.000Z</time>
      </trkpt>
      <trkpt lat="43.8367" lon="-1.35936">
        <ele>-9.6000003814697</ele>
        <time>2025-08-13T16:27:33.000Z</time>
      </trkpt>
      <trkpt lat="43.83713" lon="-1.35921">
        <ele>-9.6000003814697</ele>
        <time>2025-08-13T16:27:41.000Z</time>
      </trkpt>
      <trkpt lat="43.83743" lon="-1.35905">
        <ele>-9.3999996185303</ele>
        <time>2025-08-13T16:27:47.000Z</time>
      </trkpt>
      <trkpt lat="43.83779" lon="-1.35886">
        <ele>-9.1999998092651</ele>
        <time>2025-08-13T16:27:54.000Z</time>
      </trkpt>
      <trkpt lat="43.83813" lon="-1.35866">
        <ele>-9</ele>
        <time>2025-08-13T16:28:01.000Z</time>
      </trkpt>
      <trkpt lat="43.83829" lon="-1.35856">
        <ele>-9</ele>
        <time>2025-08-13T16:28:05.000Z</time>
      </trkpt>
      <trkpt lat="43.83833" lon="-1.35855">
        <ele>-9.1999998092651</ele>
        <time>2025-08-13T16:28:06.000Z</time>
      </trkpt>
      <trkpt lat="43.83866" lon="-1.35836">
        <ele>-9</ele>
        <time>2025-08-13T16:28:13.000Z</time>
      </trkpt>
      <trkpt lat="43.8387" lon="-1.35833">
        <ele>-9</ele>
        <time>2025-08-13T16:28:14.000Z</time>
      </trkpt>
      <trkpt lat="43.83894" lon="-1.35814">
        <ele>-8.8000001907349</ele>
        <time>2025-08-13T16:28:19.000Z</time>
      </trkpt>
      <trkpt lat="43.83938" lon="-1.3579">
        <ele>-8.8000001907349</ele>
        <time>2025-08-13T16:28:28.000Z</time>
      </trkpt>
      <trkpt lat="43.83982" lon="-1.35765">
        <ele>-8.8000001907349</ele>
        <time>2025-08-13T16:28:37.000Z</time>
      </trkpt>
      <trkpt lat="43.84017" lon="-1.35746">
        <ele>-9</ele>
        <time>2025-08-13T16:28:44.000Z</time>
      </trkpt>
      <trkpt lat="43.84022" lon="-1.35742">
        <ele>-9</ele>
        <time>2025-08-13T16:28:45.000Z</time>
      </trkpt>
      <trkpt lat="43.84068" lon="-1.35715">
        <ele>-9</ele>
        <time>2025-08-13T16:28:54.000Z</time>
      </trkpt>
      <trkpt lat="43.84113" lon="-1.3569">
        <ele>-9.1999998092651</ele>
        <time>2025-08-13T16:29:03.000Z</time>
      </trkpt>
      <trkpt lat="43.84123" lon="-1.35685">
        <ele>-9.1999998092651</ele>
        <time>2025-08-13T16:29:05.000Z</time>
      </trkpt>
      <trkpt lat="43.84171" lon="-1.35658">
        <ele>-9</ele>
        <time>2025-08-13T16:29:14.000Z</time>
      </trkpt>
      <trkpt lat="43.84204" lon="-1.35637">
        <ele>-8.6000003814697</ele>
        <time>2025-08-13T16:29:20.000Z</time>
      </trkpt>
      <trkpt lat="43.8422" lon="-1.35627">
        <ele>-8.3999996185303</ele>
        <time>2025-08-13T16:29:23.000Z</time>
      </trkpt>
      <trkpt lat="43.84268" lon="-1.35599">
        <ele>-8.1999998092651</ele>
        <time>2025-08-13T16:29:32.000Z</time>
      </trkpt>
      <trkpt lat="43.8431" lon="-1.35575">
        <ele>-8.1999998092651</ele>
        <time>2025-08-13T16:29:40.000Z</time>
      </trkpt>
      <trkpt lat="43.84354" lon="-1.35548">
        <ele>-8.1999998092651</ele>
        <time>2025-08-13T16:29:49.000Z</time>
      </trkpt>
      <trkpt lat="43.84377" lon="-1.35536">
        <ele>-8.1999998092651</ele>
        <time>2025-08-13T16:29:54.000Z</time>
      </trkpt>
      <trkpt lat="43.84385" lon="-1.35534">
        <ele>-8.1999998092651</ele>
        <time>2025-08-13T16:29:56.000Z</time>
      </trkpt>
      <trkpt lat="43.84389" lon="-1.35532">
        <ele>-8.1999998092651</ele>
        <time>2025-08-13T16:29:59.000Z</time>
      </trkpt>
      <trkpt lat="43.84389" lon="-1.35532">
        <ele>-8.1999998092651</ele>
        <time>2025-08-13T16:30:01.000Z</time>
      </trkpt>
      <trkpt lat="43.84395" lon="-1.35526">
        <ele>-8.1999998092651</ele>
        <time>2025-08-13T16:30:13.000Z</time>
      </trkpt>
      <trkpt lat="43.84398" lon="-1.35523">
        <ele>-8.1999998092651</ele>
        <time>2025-08-13T16:30:14.000Z</time>
      </trkpt>
      <trkpt lat="43.84416" lon="-1.35511">
        <ele>-8.3999996185303</ele>
        <time>2025-08-13T16:30:19.000Z</time>
      </trkpt>
      <trkpt lat="43.84454" lon="-1.35488">
        <ele>-8.8000001907349</ele>
        <time>2025-08-13T16:30:27.000Z</time>
      </trkpt>
      <trkpt lat="43.845" lon="-1.3546">
        <ele>-8.8000001907349</ele>
        <time>2025-08-13T16:30:37.000Z</time>
      </trkpt>
      <trkpt lat="43.84548" lon="-1.35432">
        <ele>-8.6000003814697</ele>
        <time>2025-08-13T16:30:47.000Z</time>
      </trkpt>
      <trkpt lat="43.84582" lon="-1.35413">
        <ele>-8.6000003814697</ele>
        <time>2025-08-13T16:30:54.000Z</time>
      </trkpt>
      <trkpt lat="43.84625" lon="-1.35389">
        <ele>-8.6000003814697</ele>
        <time>2025-08-13T16:31:03.000Z</time>
      </trkpt>
      <trkpt lat="43.8467" lon="-1.35363">
        <ele>-8.6000003814697</ele>
        <time>2025-08-13T16:31:12.000Z</time>
      </trkpt>
      <trkpt lat="43.84706" lon="-1.35339">
        <ele>-8.6000003814697</ele>
        <time>2025-08-13T16:31:19.000Z</time>
      </trkpt>
      <trkpt lat="43.84754" lon="-1.35312">
        <ele>-8.6000003814697</ele>
        <time>2025-08-13T16:31:28.000Z</time>
      </trkpt>
      <trkpt lat="43.84779" lon="-1.35296">
        <ele>-8.3999996185303</ele>
        <time>2025-08-13T16:31:33.000Z</time>
      </trkpt>
      <trkpt lat="43.84789" lon="-1.3529">
        <ele>-8.3999996185303</ele>
        <time>2025-08-13T16:31:35.000Z</time>
      </trkpt>
      <trkpt lat="43.848" lon="-1.35285">
        <ele>-8.6000003814697</ele>
        <time>2025-08-13T16:31:37.000Z</time>
      </trkpt>
      <trkpt lat="43.84822" lon="-1.35271">
        <ele>-8.1999998092651</ele>
        <time>2025-08-13T16:31:41.000Z</time>
      </trkpt>
      <trkpt lat="43.84869" lon="-1.35244">
        <ele>-8.6000003814697</ele>
        <time>2025-08-13T16:31:50.000Z</time>
      </trkpt>
      <trkpt lat="43.849" lon="-1.35226">
        <ele>-8.3999996185303</ele>
        <time>2025-08-13T16:31:56.000Z</time>
      </trkpt>
      <trkpt lat="43.84943" lon="-1.35192">
        <ele>-8.3999996185303</ele>
        <time>2025-08-13T16:32:05.000Z</time>
      </trkpt>
      <trkpt lat="43.84957" lon="-1.3518">
        <ele>-8.3999996185303</ele>
        <time>2025-08-13T16:32:08.000Z</time>
      </trkpt>
      <trkpt lat="43.8497" lon="-1.35164">
        <ele>-8.3999996185303</ele>
        <time>2025-08-13T16:32:11.000Z</time>
      </trkpt>
      <trkpt lat="43.84995" lon="-1.35133">
        <ele>-8.3999996185303</ele>
        <time>2025-08-13T16:32:17.000Z</time>
      </trkpt>
      <trkpt lat="43.85019" lon="-1.351">
        <ele>-8.1999998092651</ele>
        <time>2025-08-13T16:32:23.000Z</time>
      </trkpt>
      <trkpt lat="43.85046" lon="-1.3505">
        <ele>-8.1999998092651</ele>
        <time>2025-08-13T16:32:31.000Z</time>
      </trkpt>
      <trkpt lat="43.85078" lon="-1.34988">
        <ele>-8.1999998092651</ele>
        <time>2025-08-13T16:32:42.000Z</time>
      </trkpt>
      <trkpt lat="43.85082" lon="-1.34978">
        <ele>-8</ele>
        <time>2025-08-13T16:32:44.000Z</time>
      </trkpt>
      <trkpt lat="43.85087" lon="-1.34968">
        <ele>-8.1999998092651</ele>
        <time>2025-08-13T16:32:46.000Z</time>
      </trkpt>
      <trkpt lat="43.85098" lon="-1.34949">
        <ele>-8</ele>
        <time>2025-08-13T16:32:50.000Z</time>
      </trkpt>
      <trkpt lat="43.85105" lon="-1.34933">
        <ele>-8.1999998092651</ele>
        <time>2025-08-13T16:32:53.000Z</time>
      </trkpt>
      <trkpt lat="43.85118" lon="-1.34909">
        <ele>-8</ele>
        <time>2025-08-13T16:32:57.000Z</time>
      </trkpt>
      <trkpt lat="43.85124" lon="-1.34898">
        <ele>-8</ele>
        <time>2025-08-13T16:32:59.000Z</time>
      </trkpt>
      <trkpt lat="43.85127" lon="-1.34893">
        <ele>-8</ele>
        <time>2025-08-13T16:33:00.000Z</time>
      </trkpt>
      <trkpt lat="43.85133" lon="-1.34882">
        <ele>-8</ele>
        <time>2025-08-13T16:33:02.000Z</time>
      </trkpt>
      <trkpt lat="43.85144" lon="-1.3486">
        <ele>-8</ele>
        <time>2025-08-13T16:33:06.000Z</time>
      </trkpt>
      <trkpt lat="43.85167" lon="-1.34814">
        <ele>-7.8000001907349</ele>
        <time>2025-08-13T16:33:14.000Z</time>
      </trkpt>
      <trkpt lat="43.85194" lon="-1.34758">
        <ele>-7.4000000953674</ele>
        <time>2025-08-13T16:33:23.000Z</time>
      </trkpt>
      <trkpt lat="43.85205" lon="-1.34734">
        <ele>-7.1999998092651</ele>
        <time>2025-08-13T16:33:27.000Z</time>
      </trkpt>
      <trkpt lat="43.8522" lon="-1.34707">
        <ele>-7.1999998092651</ele>
        <time>2025-08-13T16:33:32.000Z</time>
      </trkpt>
      <trkpt lat="43.85247" lon="-1.3465">
        <ele>-7</ele>
        <time>2025-08-13T16:33:42.000Z</time>
      </trkpt>
      <trkpt lat="43.85261" lon="-1.34622">
        <ele>-7</ele>
        <time>2025-08-13T16:33:47.000Z</time>
      </trkpt>
      <trkpt lat="43.85266" lon="-1.34612">
        <ele>-6.8000001907349</ele>
        <time>2025-08-13T16:33:49.000Z</time>
      </trkpt>
      <trkpt lat="43.85288" lon="-1.3457">
        <ele>-6.5999999046326</ele>
        <time>2025-08-13T16:33:56.000Z</time>
      </trkpt>
      <trkpt lat="43.8532" lon="-1.34508">
        <ele>-6.1999998092651</ele>
        <time>2025-08-13T16:34:06.000Z</time>
      </trkpt>
      <trkpt lat="43.85323" lon="-1.34502">
        <ele>-6.1999998092651</ele>
        <time>2025-08-13T16:34:07.000Z</time>
      </trkpt>
      <trkpt lat="43.85335" lon="-1.34479">
        <ele>-6.1999998092651</ele>
        <time>2025-08-13T16:34:11.000Z</time>
      </trkpt>
      <trkpt lat="43.85338" lon="-1.34473">
        <ele>-6</ele>
        <time>2025-08-13T16:34:12.000Z</time>
      </trkpt>
      <trkpt lat="43.85343" lon="-1.34463">
        <ele>-5.8000001907349</ele>
        <time>2025-08-13T16:34:14.000Z</time>
      </trkpt>
      <trkpt lat="43.85364" lon="-1.34423">
        <ele>-5.8000001907349</ele>
        <time>2025-08-13T16:34:21.000Z</time>
      </trkpt>
      <trkpt lat="43.85386" lon="-1.34378">
        <ele>-6</ele>
        <time>2025-08-13T16:34:29.000Z</time>
      </trkpt>
      <trkpt lat="43.85407" lon="-1.3434">
        <ele>-5.8000001907349</ele>
        <time>2025-08-13T16:34:36.000Z</time>
      </trkpt>
      <trkpt lat="43.8543" lon="-1.34298">
        <ele>-5.8000001907349</ele>
        <time>2025-08-13T16:34:44.000Z</time>
      </trkpt>
      <trkpt lat="43.85448" lon="-1.34259">
        <ele>-5.5999999046326</ele>
        <time>2025-08-13T16:34:51.000Z</time>
      </trkpt>
      <trkpt lat="43.85467" lon="-1.34221">
        <ele>-5.5999999046326</ele>
        <time>2025-08-13T16:34:58.000Z</time>
      </trkpt>
      <trkpt lat="43.85495" lon="-1.3417">
        <ele>-5.4000000953674</ele>
        <time>2025-08-13T16:35:08.000Z</time>
      </trkpt>
      <trkpt lat="43.85514" lon="-1.34135">
        <ele>-5</ele>
        <time>2025-08-13T16:35:15.000Z</time>
      </trkpt>
      <trkpt lat="43.85524" lon="-1.34113">
        <ele>-4.5999999046326</ele>
        <time>2025-08-13T16:35:19.000Z</time>
      </trkpt>
      <trkpt lat="43.85531" lon="-1.34096">
        <ele>-4.4000000953674</ele>
        <time>2025-08-13T16:35:22.000Z</time>
      </trkpt>
      <trkpt lat="43.85552" lon="-1.34057">
        <ele>-4</ele>
        <time>2025-08-13T16:35:30.000Z</time>
      </trkpt>
      <trkpt lat="43.85555" lon="-1.34051">
        <ele>-4</ele>
        <time>2025-08-13T16:35:31.000Z</time>
      </trkpt>
      <trkpt lat="43.85569" lon="-1.34029">
        <ele>-4</ele>
        <time>2025-08-13T16:35:36.000Z</time>
      </trkpt>
      <trkpt lat="43.85589" lon="-1.33995">
        <ele>-3.7999999523163</ele>
        <time>2025-08-13T16:35:43.000Z</time>
      </trkpt>
      <trkpt lat="43.85605" lon="-1.33971">
        <ele>-3.5999999046326</ele>
        <time>2025-08-13T16:35:49.000Z</time>
      </trkpt>
      <trkpt lat="43.85626" lon="-1.33942">
        <ele>-3.2000000476837</ele>
        <time>2025-08-13T16:35:56.000Z</time>
      </trkpt>
      <trkpt lat="43.85646" lon="-1.33911">
        <ele>-2.7999999523163</ele>
        <time>2025-08-13T16:36:03.000Z</time>
      </trkpt>
      <trkpt lat="43.85649" lon="-1.33907">
        <ele>-2.7999999523163</ele>
        <time>2025-08-13T16:36:04.000Z</time>
      </trkpt>
      <trkpt lat="43.8566" lon="-1.33889">
        <ele>-2.7999999523163</ele>
        <time>2025-08-13T16:36:08.000Z</time>
      </trkpt>
      <trkpt lat="43.85668" lon="-1.33877">
        <ele>-2.5999999046326</ele>
        <time>2025-08-13T16:36:11.000Z</time>
      </trkpt>
      <trkpt lat="43.85696" lon="-1.33832">
        <ele>-2.2000000476837</ele>
        <time>2025-08-13T16:36:21.000Z</time>
      </trkpt>
      <trkpt lat="43.85706" lon="-1.33821">
        <ele>-2.2000000476837</ele>
        <time>2025-08-13T16:36:24.000Z</time>
      </trkpt>
      <trkpt lat="43.85716" lon="-1.33807">
        <ele>-2.2000000476837</ele>
        <time>2025-08-13T16:36:27.000Z</time>
      </trkpt>
      <trkpt lat="43.85745" lon="-1.33765">
        <ele>-2.2000000476837</ele>
        <time>2025-08-13T16:36:35.000Z</time>
      </trkpt>
      <trkpt lat="43.85775" lon="-1.33719">
        <ele>-2.5999999046326</ele>
        <time>2025-08-13T16:36:43.000Z</time>
      </trkpt>
      <trkpt lat="43.85799" lon="-1.33686">
        <ele>-3.2000000476837</ele>
        <time>2025-08-13T16:36:50.000Z</time>
      </trkpt>
      <trkpt lat="43.85805" lon="-1.33677">
        <ele>-3.4000000953674</ele>
        <time>2025-08-13T16:36:52.000Z</time>
      </trkpt>
      <trkpt lat="43.85821" lon="-1.33652">
        <ele>-3.5999999046326</ele>
        <time>2025-08-13T16:36:56.000Z</time>
      </trkpt>
      <trkpt lat="43.85825" lon="-1.33646">
        <ele>-3.5999999046326</ele>
        <time>2025-08-13T16:36:57.000Z</time>
      </trkpt>
      <trkpt lat="43.85846" lon="-1.33614">
        <ele>-3.7999999523163</ele>
        <time>2025-08-13T16:37:02.000Z</time>
      </trkpt>
      <trkpt lat="43.85861" lon="-1.33585">
        <ele>-4.1999998092651</ele>
        <time>2025-08-13T16:37:06.000Z</time>
      </trkpt>
      <trkpt lat="43.85869" lon="-1.33571">
        <ele>-4.1999998092651</ele>
        <time>2025-08-13T16:37:08.000Z</time>
      </trkpt>
      <trkpt lat="43.85898" lon="-1.33511">
        <ele>-5.1999998092651</ele>
        <time>2025-08-13T16:37:16.000Z</time>
      </trkpt>
      <trkpt lat="43.85904" lon="-1.33496">
        <ele>-5.1999998092651</ele>
        <time>2025-08-13T16:37:18.000Z</time>
      </trkpt>
      <trkpt lat="43.85927" lon="-1.33426">
        <ele>-5.4000000953674</ele>
        <time>2025-08-13T16:37:27.000Z</time>
      </trkpt>
      <trkpt lat="43.85937" lon="-1.33388">
        <ele>-5.4000000953674</ele>
        <time>2025-08-13T16:37:32.000Z</time>
      </trkpt>
      <trkpt lat="43.85941" lon="-1.33373">
        <ele>-5.4000000953674</ele>
        <time>2025-08-13T16:37:34.000Z</time>
      </trkpt>
      <trkpt lat="43.85947" lon="-1.33351">
        <ele>-5.4000000953674</ele>
        <time>2025-08-13T16:37:37.000Z</time>
      </trkpt>
      <trkpt lat="43.8595" lon="-1.33328">
        <ele>-5.4000000953674</ele>
        <time>2025-08-13T16:37:40.000Z</time>
      </trkpt>
      <trkpt lat="43.85964" lon="-1.33269">
        <ele>-5.1999998092651</ele>
        <time>2025-08-13T16:37:48.000Z</time>
      </trkpt>
      <trkpt lat="43.85978" lon="-1.33209">
        <ele>-5.1999998092651</ele>
        <time>2025-08-13T16:37:57.000Z</time>
      </trkpt>
      <trkpt lat="43.85986" lon="-1.33178">
        <ele>-5</ele>
        <time>2025-08-13T16:38:02.000Z</time>
      </trkpt>
      <trkpt lat="43.8599" lon="-1.3316">
        <ele>-4.8000001907349</ele>
        <time>2025-08-13T16:38:05.000Z</time>
      </trkpt>
      <trkpt lat="43.86001" lon="-1.33118">
        <ele>-4.5999999046326</ele>
        <time>2025-08-13T16:38:12.000Z</time>
      </trkpt>
      <trkpt lat="43.86004" lon="-1.33107">
        <ele>-4.5999999046326</ele>
        <time>2025-08-13T16:38:14.000Z</time>
      </trkpt>
      <trkpt lat="43.86013" lon="-1.33078">
        <ele>-4.1999998092651</ele>
        <time>2025-08-13T16:38:19.000Z</time>
      </trkpt>
      <trkpt lat="43.86016" lon="-1.33065">
        <ele>-4.4000000953674</ele>
        <time>2025-08-13T16:38:21.000Z</time>
      </trkpt>
      <trkpt lat="43.86021" lon="-1.33047">
        <ele>-4.1999998092651</ele>
        <time>2025-08-13T16:38:24.000Z</time>
      </trkpt>
      <trkpt lat="43.86031" lon="-1.33023">
        <ele>-4</ele>
        <time>2025-08-13T16:38:28.000Z</time>
      </trkpt>
      <trkpt lat="43.86055" lon="-1.3297">
        <ele>-3.4000000953674</ele>
        <time>2025-08-13T16:38:37.000Z</time>
      </trkpt>
      <trkpt lat="43.86058" lon="-1.32964">
        <ele>-3.4000000953674</ele>
        <time>2025-08-13T16:38:38.000Z</time>
      </trkpt>
      <trkpt lat="43.8608" lon="-1.32922">
        <ele>-3.2000000476837</ele>
        <time>2025-08-13T16:38:45.000Z</time>
      </trkpt>
      <trkpt lat="43.86111" lon="-1.32874">
        <ele>-3.7999999523163</ele>
        <time>2025-08-13T16:38:53.000Z</time>
      </trkpt>
      <trkpt lat="43.86147" lon="-1.32828">
        <ele>-4.1999998092651</ele>
        <time>2025-08-13T16:39:01.000Z</time>
      </trkpt>
      <trkpt lat="43.86166" lon="-1.32804">
        <ele>-4.8000001907349</ele>
        <time>2025-08-13T16:39:05.000Z</time>
      </trkpt>
      <trkpt lat="43.86191" lon="-1.32775">
        <ele>-5</ele>
        <time>2025-08-13T16:39:10.000Z</time>
      </trkpt>
      <trkpt lat="43.86234" lon="-1.32723">
        <ele>-5.5999999046326</ele>
        <time>2025-08-13T16:39:19.000Z</time>
      </trkpt>
      <trkpt lat="43.86244" lon="-1.32711">
        <ele>-5.8000001907349</ele>
        <time>2025-08-13T16:39:21.000Z</time>
      </trkpt>
      <trkpt lat="43.86248" lon="-1.32706">
        <ele>-6</ele>
        <time>2025-08-13T16:39:22.000Z</time>
      </trkpt>
      <trkpt lat="43.86284" lon="-1.32663">
        <ele>-6.4000000953674</ele>
        <time>2025-08-13T16:39:30.000Z</time>
      </trkpt>
      <trkpt lat="43.86316" lon="-1.32627">
        <ele>-6.8000001907349</ele>
        <time>2025-08-13T16:39:37.000Z</time>
      </trkpt>
      <trkpt lat="43.86325" lon="-1.32617">
        <ele>-7</ele>
        <time>2025-08-13T16:39:39.000Z</time>
      </trkpt>
      <trkpt lat="43.8636" lon="-1.32576">
        <ele>-7.4000000953674</ele>
        <time>2025-08-13T16:39:47.000Z</time>
      </trkpt>
      <trkpt lat="43.86401" lon="-1.32527">
        <ele>-8</ele>
        <time>2025-08-13T16:39:57.000Z</time>
      </trkpt>
      <trkpt lat="43.86405" lon="-1.32522">
        <ele>-8</ele>
        <time>2025-08-13T16:39:58.000Z</time>
      </trkpt>
      <trkpt lat="43.86409" lon="-1.32516">
        <ele>-8</ele>
        <time>2025-08-13T16:39:59.000Z</time>
      </trkpt>
      <trkpt lat="43.8643" lon="-1.32487">
        <ele>-8.1999998092651</ele>
        <time>2025-08-13T16:40:05.000Z</time>
      </trkpt>
      <trkpt lat="43.86445" lon="-1.3246">
        <ele>-8.1999998092651</ele>
        <time>2025-08-13T16:40:10.000Z</time>
      </trkpt>
      <trkpt lat="43.86448" lon="-1.32455">
        <ele>-8.1999998092651</ele>
        <time>2025-08-13T16:40:11.000Z</time>
      </trkpt>
      <trkpt lat="43.86458" lon="-1.32436">
        <ele>-8.1999998092651</ele>
        <time>2025-08-13T16:40:16.000Z</time>
      </trkpt>
      <trkpt lat="43.8647" lon="-1.32412">
        <ele>-8.3999996185303</ele>
        <time>2025-08-13T16:40:22.000Z</time>
      </trkpt>
      <trkpt lat="43.86479" lon="-1.32378">
        <ele>-8.3999996185303</ele>
        <time>2025-08-13T16:40:28.000Z</time>
      </trkpt>
      <trkpt lat="43.86484" lon="-1.32365">
        <ele>-8.6000003814697</ele>
        <time>2025-08-13T16:40:30.000Z</time>
      </trkpt>
      <trkpt lat="43.86489" lon="-1.32354">
        <ele>-8.6000003814697</ele>
        <time>2025-08-13T16:40:32.000Z</time>
      </trkpt>
      <trkpt lat="43.86493" lon="-1.32334">
        <ele>-8.8000001907349</ele>
        <time>2025-08-13T16:40:35.000Z</time>
      </trkpt>
      <trkpt lat="43.86496" lon="-1.3232">
        <ele>-9</ele>
        <time>2025-08-13T16:40:37.000Z</time>
      </trkpt>
      <trkpt lat="43.86502" lon="-1.32301">
        <ele>-9</ele>
        <time>2025-08-13T16:40:40.000Z</time>
      </trkpt>
      <trkpt lat="43.86508" lon="-1.32282">
        <ele>-9</ele>
        <time>2025-08-13T16:40:43.000Z</time>
      </trkpt>
      <trkpt lat="43.86515" lon="-1.32242">
        <ele>-9</ele>
        <time>2025-08-13T16:40:50.000Z</time>
      </trkpt>
      <trkpt lat="43.86526" lon="-1.32205">
        <ele>-9</ele>
        <time>2025-08-13T16:40:57.000Z</time>
      </trkpt>
      <trkpt lat="43.8653" lon="-1.32183">
        <ele>-9</ele>
        <time>2025-08-13T16:41:01.000Z</time>
      </trkpt>
      <trkpt lat="43.86536" lon="-1.32149">
        <ele>-9</ele>
        <time>2025-08-13T16:41:07.000Z</time>
      </trkpt>
      <trkpt lat="43.86536" lon="-1.32143">
        <ele>-9</ele>
        <time>2025-08-13T16:41:08.000Z</time>
      </trkpt>
      <trkpt lat="43.86544" lon="-1.32104">
        <ele>-9.1999998092651</ele>
        <time>2025-08-13T16:41:13.000Z</time>
      </trkpt>
      <trkpt lat="43.86555" lon="-1.32059">
        <ele>-9.3999996185303</ele>
        <time>2025-08-13T16:41:19.000Z</time>
      </trkpt>
      <trkpt lat="43.86562" lon="-1.32029">
        <ele>-9.6000003814697</ele>
        <time>2025-08-13T16:41:24.000Z</time>
      </trkpt>
      <trkpt lat="43.8657" lon="-1.31998">
        <ele>-9.6000003814697</ele>
        <time>2025-08-13T16:41:30.000Z</time>
      </trkpt>
      <trkpt lat="43.86577" lon="-1.31967">
        <ele>-9.8000001907349</ele>
        <time>2025-08-13T16:41:35.000Z</time>
      </trkpt>
      <trkpt lat="43.86579" lon="-1.31958">
        <ele>-9.8000001907349</ele>
        <time>2025-08-13T16:41:36.000Z</time>
      </trkpt>
      <trkpt lat="43.86586" lon="-1.31924">
        <ele>-9.8000001907349</ele>
        <time>2025-08-13T16:41:40.000Z</time>
      </trkpt>
      <trkpt lat="43.86598" lon="-1.31868">
        <ele>-10.199999809265</ele>
        <time>2025-08-13T16:41:47.000Z</time>
      </trkpt>
      <trkpt lat="43.866" lon="-1.31862">
        <ele>-10.199999809265</ele>
        <time>2025-08-13T16:41:48.000Z</time>
      </trkpt>
      <trkpt lat="43.86612" lon="-1.31817">
        <ele>-10.39999961853</ele>
        <time>2025-08-13T16:41:54.000Z</time>
      </trkpt>
      <trkpt lat="43.86615" lon="-1.31804">
        <ele>-10.60000038147</ele>
        <time>2025-08-13T16:41:56.000Z</time>
      </trkpt>
      <trkpt lat="43.86616" lon="-1.31798">
        <ele>-10.60000038147</ele>
        <time>2025-08-13T16:41:57.000Z</time>
      </trkpt>
      <trkpt lat="43.86626" lon="-1.31756">
        <ele>-11</ele>
        <time>2025-08-13T16:42:03.000Z</time>
      </trkpt>
      <trkpt lat="43.86629" lon="-1.31743">
        <ele>-11.199999809265</ele>
        <time>2025-08-13T16:42:05.000Z</time>
      </trkpt>
      <trkpt lat="43.86636" lon="-1.31716">
        <ele>-11.199999809265</ele>
        <time>2025-08-13T16:42:09.000Z</time>
      </trkpt>
      <trkpt lat="43.86648" lon="-1.31659">
        <ele>-11.39999961853</ele>
        <time>2025-08-13T16:42:17.000Z</time>
      </trkpt>
      <trkpt lat="43.8666" lon="-1.31603">
        <ele>-11.39999961853</ele>
        <time>2025-08-13T16:42:25.000Z</time>
      </trkpt>
      <trkpt lat="43.86672" lon="-1.31545">
        <ele>-11.199999809265</ele>
        <time>2025-08-13T16:42:34.000Z</time>
      </trkpt>
      <trkpt lat="43.86688" lon="-1.31473">
        <ele>-11</ele>
        <time>2025-08-13T16:42:45.000Z</time>
      </trkpt>
      <trkpt lat="43.86701" lon="-1.31415">
        <ele>-11</ele>
        <time>2025-08-13T16:42:54.000Z</time>
      </trkpt>
      <trkpt lat="43.86716" lon="-1.31349">
        <ele>-10.800000190735</ele>
        <time>2025-08-13T16:43:04.000Z</time>
      </trkpt>
      <trkpt lat="43.86729" lon="-1.31294">
        <ele>-10.199999809265</ele>
        <time>2025-08-13T16:43:13.000Z</time>
      </trkpt>
      <trkpt lat="43.86733" lon="-1.31275">
        <ele>-10.199999809265</ele>
        <time>2025-08-13T16:43:16.000Z</time>
      </trkpt>
      <trkpt lat="43.86746" lon="-1.31219">
        <ele>-10</ele>
        <time>2025-08-13T16:43:25.000Z</time>
      </trkpt>
      <trkpt lat="43.86756" lon="-1.31178">
        <ele>-9.6000003814697</ele>
        <time>2025-08-13T16:43:33.000Z</time>
      </trkpt>
      <trkpt lat="43.86762" lon="-1.31157">
        <ele>-9</ele>
        <time>2025-08-13T16:43:37.000Z</time>
      </trkpt>
      <trkpt lat="43.8677" lon="-1.3113">
        <ele>-8.8000001907349</ele>
        <time>2025-08-13T16:43:42.000Z</time>
      </trkpt>
      <trkpt lat="43.86777" lon="-1.311">
        <ele>-8.6000003814697</ele>
        <time>2025-08-13T16:43:47.000Z</time>
      </trkpt>
      <trkpt lat="43.86786" lon="-1.3105">
        <ele>-8.6000003814697</ele>
        <time>2025-08-13T16:43:55.000Z</time>
      </trkpt>
      <trkpt lat="43.86797" lon="-1.31006">
        <ele>-8.6000003814697</ele>
        <time>2025-08-13T16:44:02.000Z</time>
      </trkpt>
      <trkpt lat="43.86814" lon="-1.30956">
        <ele>-9</ele>
        <time>2025-08-13T16:44:10.000Z</time>
      </trkpt>
      <trkpt lat="43.86841" lon="-1.30897">
        <ele>-9</ele>
        <time>2025-08-13T16:44:20.000Z</time>
      </trkpt>
      <trkpt lat="43.86867" lon="-1.30849">
        <ele>-9</ele>
        <time>2025-08-13T16:44:29.000Z</time>
      </trkpt>
      <trkpt lat="43.86884" lon="-1.3082">
        <ele>-9.1999998092651</ele>
        <time>2025-08-13T16:44:35.000Z</time>
      </trkpt>
      <trkpt lat="43.8689" lon="-1.3081">
        <ele>-9.1999998092651</ele>
        <time>2025-08-13T16:44:37.000Z</time>
      </trkpt>
      <trkpt lat="43.86911" lon="-1.30776">
        <ele>-9.3999996185303</ele>
        <time>2025-08-13T16:44:45.000Z</time>
      </trkpt>
      <trkpt lat="43.86914" lon="-1.30771">
        <ele>-9.3999996185303</ele>
        <time>2025-08-13T16:44:46.000Z</time>
      </trkpt>
      <trkpt lat="43.86922" lon="-1.30756">
        <ele>-9.3999996185303</ele>
        <time>2025-08-13T16:44:49.000Z</time>
      </trkpt>
      <trkpt lat="43.86928" lon="-1.30747">
        <ele>-9.3999996185303</ele>
        <time>2025-08-13T16:44:51.000Z</time>
      </trkpt>
      <trkpt lat="43.86958" lon="-1.30695">
        <ele>-9.1999998092651</ele>
        <time>2025-08-13T16:45:02.000Z</time>
      </trkpt>
      <trkpt lat="43.86985" lon="-1.30647">
        <ele>-9.1999998092651</ele>
        <time>2025-08-13T16:45:12.000Z</time>
      </trkpt>
      <trkpt lat="43.86993" lon="-1.30634">
        <ele>-9.3999996185303</ele>
        <time>2025-08-13T16:45:17.000Z</time>
      </trkpt>
      <trkpt lat="43.86993" lon="-1.30634">
        <ele>-9.3999996185303</ele>
        <time>2025-08-13T16:45:18.000Z</time>
      </trkpt>
      <trkpt lat="43.86995" lon="-1.3063">
        <ele>-9.6000003814697</ele>
        <time>2025-08-13T16:45:26.000Z</time>
      </trkpt>
      <trkpt lat="43.86995" lon="-1.3063">
        <ele>-9.6000003814697</ele>
        <time>2025-08-13T16:45:28.000Z</time>
      </trkpt>
      <trkpt lat="43.87001" lon="-1.30627">
        <ele>-9.6000003814697</ele>
        <time>2025-08-13T16:47:01.000Z</time>
      </trkpt>
      <trkpt lat="43.87003" lon="-1.30628">
        <ele>-9.6000003814697</ele>
        <time>2025-08-13T16:47:04.000Z</time>
      </trkpt>
      <trkpt lat="43.87003" lon="-1.30628">
        <ele>-9.6000003814697</ele>
        <time>2025-08-13T16:47:05.000Z</time>
      </trkpt>
      <trkpt lat="43.87007" lon="-1.30634">
        <ele>-9.8000001907349</ele>
        <time>2025-08-13T16:51:20.000Z</time>
      </trkpt>
      <trkpt lat="43.87009" lon="-1.30639">
        <ele>-10</ele>
        <time>2025-08-13T16:51:22.000Z</time>
      </trkpt>
      <trkpt lat="43.87017" lon="-1.30665">
        <ele>-10</ele>
        <time>2025-08-13T16:51:29.000Z</time>
      </trkpt>
      <trkpt lat="43.87027" lon="-1.30702">
        <ele>-10.199999809265</ele>
        <time>2025-08-13T16:51:37.000Z</time>
      </trkpt>
      <trkpt lat="43.87038" lon="-1.30718">
        <ele>-10.199999809265</ele>
        <time>2025-08-13T16:51:42.000Z</time>
      </trkpt>
      <trkpt lat="43.87055" lon="-1.3072">
        <ele>-10</ele>
        <time>2025-08-13T16:51:47.000Z</time>
      </trkpt>
      <trkpt lat="43.87075" lon="-1.30709">
        <ele>-10</ele>
        <time>2025-08-13T16:51:53.000Z</time>
      </trkpt>
      <trkpt lat="43.87102" lon="-1.30694">
        <ele>-10.199999809265</ele>
        <time>2025-08-13T16:52:01.000Z</time>
      </trkpt>
      <trkpt lat="43.87127" lon="-1.30679">
        <ele>-10</ele>
        <time>2025-08-13T16:52:08.000Z</time>
      </trkpt>
      <trkpt lat="43.87152" lon="-1.30664">
        <ele>-10</ele>
        <time>2025-08-13T16:52:14.000Z</time>
      </trkpt>
      <trkpt lat="43.87191" lon="-1.3064">
        <ele>-10.39999961853</ele>
        <time>2025-08-13T16:52:23.000Z</time>
      </trkpt>
      <trkpt lat="43.87208" lon="-1.30632">
        <ele>-10.800000190735</ele>
        <time>2025-08-13T16:52:27.000Z</time>
      </trkpt>
      <trkpt lat="43.87217" lon="-1.30629">
        <ele>-10.800000190735</ele>
        <time>2025-08-13T16:52:29.000Z</time>
      </trkpt>
      <trkpt lat="43.8723" lon="-1.30626">
        <ele>-10.800000190735</ele>
        <time>2025-08-13T16:52:32.000Z</time>
      </trkpt>
      <trkpt lat="43.87253" lon="-1.30631">
        <ele>-11</ele>
        <time>2025-08-13T16:52:37.000Z</time>
      </trkpt>
      <trkpt lat="43.87269" lon="-1.30635">
        <ele>-11</ele>
        <time>2025-08-13T16:52:40.000Z</time>
      </trkpt>
      <trkpt lat="43.87283" lon="-1.30644">
        <ele>-11</ele>
        <time>2025-08-13T16:52:43.000Z</time>
      </trkpt>
      <trkpt lat="43.87313" lon="-1.30665">
        <ele>-11.39999961853</ele>
        <time>2025-08-13T16:52:50.000Z</time>
      </trkpt>
      <trkpt lat="43.87322" lon="-1.30675">
        <ele>-11.199999809265</ele>
        <time>2025-08-13T16:52:54.000Z</time>
      </trkpt>
      <trkpt lat="43.87321" lon="-1.30687">
        <ele>-10.60000038147</ele>
        <time>2025-08-13T16:52:58.000Z</time>
      </trkpt>
      <trkpt lat="43.87322" lon="-1.30689">
        <ele>-10.60000038147</ele>
        <time>2025-08-13T16:52:59.000Z</time>
      </trkpt>
      <trkpt lat="43.87323" lon="-1.30689">
        <ele>-10.39999961853</ele>
        <time>2025-08-13T16:53:00.000Z</time>
      </trkpt>
      <trkpt lat="43.87328" lon="-1.30687">
        <ele>-10.39999961853</ele>
        <time>2025-08-13T16:53:03.000Z</time>
      </trkpt>
      <trkpt lat="43.8733" lon="-1.30687">
        <ele>-10.199999809265</ele>
        <time>2025-08-13T16:53:04.000Z</time>
      </trkpt>
      <trkpt lat="43.87332" lon="-1.30692">
        <ele>-10.199999809265</ele>
        <time>2025-08-13T16:53:06.000Z</time>
      </trkpt>
      <trkpt lat="43.87333" lon="-1.30695">
        <ele>-10</ele>
        <time>2025-08-13T16:53:07.000Z</time>
      </trkpt>
      <trkpt lat="43.87338" lon="-1.30698">
        <ele>-10</ele>
        <time>2025-08-13T16:53:10.000Z</time>
      </trkpt>
      <trkpt lat="43.87344" lon="-1.30704">
        <ele>-9.8000001907349</ele>
        <time>2025-08-13T16:53:13.000Z</time>
      </trkpt>
      <trkpt lat="43.87351" lon="-1.30716">
        <ele>-9.3999996185303</ele>
        <time>2025-08-13T16:53:18.000Z</time>
      </trkpt>
      <trkpt lat="43.87356" lon="-1.30729">
        <ele>-9</ele>
        <time>2025-08-13T16:53:24.000Z</time>
      </trkpt>
      <trkpt lat="43.87358" lon="-1.3073">
        <ele>-9</ele>
        <time>2025-08-13T16:53:27.000Z</time>
      </trkpt>
      <trkpt lat="43.87362" lon="-1.30731">
        <ele>-8.8000001907349</ele>
        <time>2025-08-13T16:53:29.000Z</time>
      </trkpt>
      <trkpt lat="43.87376" lon="-1.30733">
        <ele>-8.8000001907349</ele>
        <time>2025-08-13T16:53:35.000Z</time>
      </trkpt>
      <trkpt lat="43.87377" lon="-1.30733">
        <ele>-8.8000001907349</ele>
        <time>2025-08-13T16:53:38.000Z</time>
      </trkpt>
      <trkpt lat="43.87385" lon="-1.30729">
        <ele>-9</ele>
        <time>2025-08-13T16:53:47.000Z</time>
      </trkpt>
      <trkpt lat="43.87388" lon="-1.30724">
        <ele>-9</ele>
        <time>2025-08-13T16:53:49.000Z</time>
      </trkpt>
      <trkpt lat="43.87398" lon="-1.30707">
        <ele>-9.1999998092651</ele>
        <time>2025-08-13T16:53:56.000Z</time>
      </trkpt>
      <trkpt lat="43.874" lon="-1.30702">
        <ele>-9.3999996185303</ele>
        <time>2025-08-13T16:53:59.000Z</time>
      </trkpt>
      <trkpt lat="43.87404" lon="-1.307">
        <ele>-9.3999996185303</ele>
        <time>2025-08-13T16:54:02.000Z</time>
      </trkpt>
      <trkpt lat="43.87423" lon="-1.30696">
        <ele>-9.6000003814697</ele>
        <time>2025-08-13T16:54:09.000Z</time>
      </trkpt>
      <trkpt lat="43.87432" lon="-1.30694">
        <ele>-9.3999996185303</ele>
        <time>2025-08-13T16:54:11.000Z</time>
      </trkpt>
      <trkpt lat="43.87448" lon="-1.30687">
        <ele>-9.8000001907349</ele>
        <time>2025-08-13T16:54:14.000Z</time>
      </trkpt>
      <trkpt lat="43.87462" lon="-1.30679">
        <ele>-10.199999809265</ele>
        <time>2025-08-13T16:54:17.000Z</time>
      </trkpt>
      <trkpt lat="43.87474" lon="-1.30667">
        <ele>-10.39999961853</ele>
        <time>2025-08-13T16:54:20.000Z</time>
      </trkpt>
      <trkpt lat="43.87477" lon="-1.30663">
        <ele>-10.60000038147</ele>
        <time>2025-08-13T16:54:21.000Z</time>
      </trkpt>
      <trkpt lat="43.87481" lon="-1.30659">
        <ele>-10.60000038147</ele>
        <time>2025-08-13T16:54:22.000Z</time>
      </trkpt>
      <trkpt lat="43.87494" lon="-1.30647">
        <ele>-10.60000038147</ele>
        <time>2025-08-13T16:54:25.000Z</time>
      </trkpt>
      <trkpt lat="43.87524" lon="-1.30617">
        <ele>-10.60000038147</ele>
        <time>2025-08-13T16:54:33.000Z</time>
      </trkpt>
      <trkpt lat="43.8754" lon="-1.30598">
        <ele>-10</ele>
        <time>2025-08-13T16:54:39.000Z</time>
      </trkpt>
      <trkpt lat="43.87552" lon="-1.30581">
        <ele>-9.6000003814697</ele>
        <time>2025-08-13T16:54:44.000Z</time>
      </trkpt>
      <trkpt lat="43.87556" lon="-1.30574">
        <ele>-9.3999996185303</ele>
        <time>2025-08-13T16:54:46.000Z</time>
      </trkpt>
      <trkpt lat="43.87568" lon="-1.30557">
        <ele>-8.3999996185303</ele>
        <time>2025-08-13T16:54:52.000Z</time>
      </trkpt>
      <trkpt lat="43.87572" lon="-1.30551">
        <ele>-8.1999998092651</ele>
        <time>2025-08-13T16:54:54.000Z</time>
      </trkpt>
      <trkpt lat="43.87581" lon="-1.30539">
        <ele>-7.5999999046326</ele>
        <time>2025-08-13T16:54:59.000Z</time>
      </trkpt>
      <trkpt lat="43.87584" lon="-1.30536">
        <ele>-7.1999998092651</ele>
        <time>2025-08-13T16:55:01.000Z</time>
      </trkpt>
      <trkpt lat="43.8759" lon="-1.30524">
        <ele>-6.1999998092651</ele>
        <time>2025-08-13T16:55:06.000Z</time>
      </trkpt>
      <trkpt lat="43.87599" lon="-1.30514">
        <ele>-5.4000000953674</ele>
        <time>2025-08-13T16:55:12.000Z</time>
      </trkpt>
      <trkpt lat="43.87603" lon="-1.30511">
        <ele>-5</ele>
        <time>2025-08-13T16:55:14.000Z</time>
      </trkpt>
      <trkpt lat="43.87612" lon="-1.30502">
        <ele>-4.4000000953674</ele>
        <time>2025-08-13T16:55:19.000Z</time>
      </trkpt>
      <trkpt lat="43.8763" lon="-1.30484">
        <ele>-4.4000000953674</ele>
        <time>2025-08-13T16:55:26.000Z</time>
      </trkpt>
      <trkpt lat="43.87643" lon="-1.30469">
        <ele>-4.5999999046326</ele>
        <time>2025-08-13T16:55:30.000Z</time>
      </trkpt>
      <trkpt lat="43.87649" lon="-1.30461">
        <ele>-4.8000001907349</ele>
        <time>2025-08-13T16:55:32.000Z</time>
      </trkpt>
      <trkpt lat="43.87666" lon="-1.30437">
        <ele>-6.1999998092651</ele>
        <time>2025-08-13T16:55:37.000Z</time>
      </trkpt>
      <trkpt lat="43.87672" lon="-1.30427">
        <ele>-6.5999999046326</ele>
        <time>2025-08-13T16:55:39.000Z</time>
      </trkpt>
      <trkpt lat="43.87683" lon="-1.30412">
        <ele>-7.1999998092651</ele>
        <time>2025-08-13T16:55:42.000Z</time>
      </trkpt>
      <trkpt lat="43.87699" lon="-1.30392">
        <ele>-7.4000000953674</ele>
        <time>2025-08-13T16:55:47.000Z</time>
      </trkpt>
      <trkpt lat="43.87715" lon="-1.30375">
        <ele>-7.4000000953674</ele>
        <time>2025-08-13T16:55:53.000Z</time>
      </trkpt>
      <trkpt lat="43.87733" lon="-1.30351">
        <ele>-7</ele>
        <time>2025-08-13T16:55:59.000Z</time>
      </trkpt>
      <trkpt lat="43.87745" lon="-1.30321">
        <ele>-7.5999999046326</ele>
        <time>2025-08-13T16:56:04.000Z</time>
      </trkpt>
      <trkpt lat="43.8775" lon="-1.30311">
        <ele>-8</ele>
        <time>2025-08-13T16:56:06.000Z</time>
      </trkpt>
      <trkpt lat="43.87754" lon="-1.30304">
        <ele>-8.8000001907349</ele>
        <time>2025-08-13T16:56:08.000Z</time>
      </trkpt>
      <trkpt lat="43.87759" lon="-1.30293">
        <ele>-9.8000001907349</ele>
        <time>2025-08-13T16:56:11.000Z</time>
      </trkpt>
      <trkpt lat="43.87761" lon="-1.30291">
        <ele>-10</ele>
        <time>2025-08-13T16:56:12.000Z</time>
      </trkpt>
      <trkpt lat="43.87765" lon="-1.30284">
        <ele>-10.39999961853</ele>
        <time>2025-08-13T16:56:16.000Z</time>
      </trkpt>
      <trkpt lat="43.87765" lon="-1.30282">
        <ele>-10.60000038147</ele>
        <time>2025-08-13T16:56:17.000Z</time>
      </trkpt>
      <trkpt lat="43.87763" lon="-1.30274">
        <ele>-10.800000190735</ele>
        <time>2025-08-13T16:56:22.000Z</time>
      </trkpt>
      <trkpt lat="43.87763" lon="-1.30274">
        <ele>-10.800000190735</ele>
        <time>2025-08-13T16:56:23.000Z</time>
      </trkpt>
      <trkpt lat="43.87766" lon="-1.30262">
        <ele>-11.199999809265</ele>
        <time>2025-08-13T16:57:03.000Z</time>
      </trkpt>
      <trkpt lat="43.87768" lon="-1.30259">
        <ele>-11.39999961853</ele>
        <time>2025-08-13T16:57:06.000Z</time>
      </trkpt>
      <trkpt lat="43.87769" lon="-1.30259">
        <ele>-11.39999961853</ele>
        <time>2025-08-13T16:57:08.000Z</time>
      </trkpt>
      <trkpt lat="43.87775" lon="-1.30254">
        <ele>-11.60000038147</ele>
        <time>2025-08-13T16:57:38.000Z</time>
      </trkpt>
      <trkpt lat="43.8779" lon="-1.30246">
        <ele>-11.800000190735</ele>
        <time>2025-08-13T16:57:45.000Z</time>
      </trkpt>
      <trkpt lat="43.87791" lon="-1.30246">
        <ele>-11.800000190735</ele>
        <time>2025-08-13T16:57:46.000Z</time>
      </trkpt>
      <trkpt lat="43.87792" lon="-1.30246">
        <ele>-11.800000190735</ele>
        <time>2025-08-13T16:57:48.000Z</time>
      </trkpt>
      <trkpt lat="43.87795" lon="-1.30242">
        <ele>-12</ele>
        <time>2025-08-13T16:57:54.000Z</time>
      </trkpt>
      <trkpt lat="43.87806" lon="-1.30232">
        <ele>-12.199999809265</ele>
        <time>2025-08-13T16:57:59.000Z</time>
      </trkpt>
      <trkpt lat="43.87826" lon="-1.30224">
        <ele>-12.39999961853</ele>
        <time>2025-08-13T16:58:05.000Z</time>
      </trkpt>
      <trkpt lat="43.87851" lon="-1.30214">
        <ele>-12.60000038147</ele>
        <time>2025-08-13T16:58:11.000Z</time>
      </trkpt>
      <trkpt lat="43.87888" lon="-1.30198">
        <ele>-12.60000038147</ele>
        <time>2025-08-13T16:58:19.000Z</time>
      </trkpt>
      <trkpt lat="43.87923" lon="-1.3018">
        <ele>-12.60000038147</ele>
        <time>2025-08-13T16:58:27.000Z</time>
      </trkpt>
      <trkpt lat="43.87952" lon="-1.30168">
        <ele>-12.800000190735</ele>
        <time>2025-08-13T16:58:34.000Z</time>
      </trkpt>
      <trkpt lat="43.87963" lon="-1.30164">
        <ele>-12.800000190735</ele>
        <time>2025-08-13T16:58:37.000Z</time>
      </trkpt>
      <trkpt lat="43.8797" lon="-1.30162">
        <ele>-12.800000190735</ele>
        <time>2025-08-13T16:58:39.000Z</time>
      </trkpt>
      <trkpt lat="43.88004" lon="-1.30152">
        <ele>-12.800000190735</ele>
        <time>2025-08-13T16:58:48.000Z</time>
      </trkpt>
      <trkpt lat="43.8803" lon="-1.3014">
        <ele>-12.800000190735</ele>
        <time>2025-08-13T16:58:55.000Z</time>
      </trkpt>
      <trkpt lat="43.88046" lon="-1.30145">
        <ele>-13</ele>
        <time>2025-08-13T16:58:59.000Z</time>
      </trkpt>
      <trkpt lat="43.88087" lon="-1.30158">
        <ele>-13</ele>
        <time>2025-08-13T16:59:08.000Z</time>
      </trkpt>
      <trkpt lat="43.88127" lon="-1.3017">
        <ele>-13</ele>
        <time>2025-08-13T16:59:17.000Z</time>
      </trkpt>
      <trkpt lat="43.88132" lon="-1.30171">
        <ele>-13.199999809265</ele>
        <time>2025-08-13T16:59:18.000Z</time>
      </trkpt>
      <trkpt lat="43.88168" lon="-1.30172">
        <ele>-13.39999961853</ele>
        <time>2025-08-13T16:59:25.000Z</time>
      </trkpt>
      <trkpt lat="43.88206" lon="-1.30158">
        <ele>-13.800000190735</ele>
        <time>2025-08-13T16:59:32.000Z</time>
      </trkpt>
      <trkpt lat="43.88222" lon="-1.30149">
        <ele>-14.199999809265</ele>
        <time>2025-08-13T16:59:35.000Z</time>
      </trkpt>
      <trkpt lat="43.88243" lon="-1.30132">
        <ele>-14.60000038147</ele>
        <time>2025-08-13T16:59:39.000Z</time>
      </trkpt>
      <trkpt lat="43.88271" lon="-1.30104">
        <ele>-15.199999809265</ele>
        <time>2025-08-13T16:59:44.000Z</time>
      </trkpt>
      <trkpt lat="43.88276" lon="-1.30098">
        <ele>-15.199999809265</ele>
        <time>2025-08-13T16:59:45.000Z</time>
      </trkpt>
      <trkpt lat="43.8832" lon="-1.30049">
        <ele>-16.200000762939</ele>
        <time>2025-08-13T16:59:53.000Z</time>
      </trkpt>
      <trkpt lat="43.88325" lon="-1.30043">
        <ele>-16.39999961853</ele>
        <time>2025-08-13T16:59:54.000Z</time>
      </trkpt>
      <trkpt lat="43.88356" lon="-1.30009">
        <ele>-17.39999961853</ele>
        <time>2025-08-13T17:00:00.000Z</time>
      </trkpt>
      <trkpt lat="43.8837" lon="-1.29993">
        <ele>-17.39999961853</ele>
        <time>2025-08-13T17:00:03.000Z</time>
      </trkpt>
      <trkpt lat="43.88412" lon="-1.29945">
        <ele>-17.799999237061</ele>
        <time>2025-08-13T17:00:12.000Z</time>
      </trkpt>
      <trkpt lat="43.88421" lon="-1.29936">
        <ele>-18</ele>
        <time>2025-08-13T17:00:14.000Z</time>
      </trkpt>
      <trkpt lat="43.88454" lon="-1.29901">
        <ele>-17.799999237061</ele>
        <time>2025-08-13T17:00:22.000Z</time>
      </trkpt>
      <trkpt lat="43.88462" lon="-1.29892">
        <ele>-17.799999237061</ele>
        <time>2025-08-13T17:00:24.000Z</time>
      </trkpt>
      <trkpt lat="43.88476" lon="-1.2987">
        <ele>-17.60000038147</ele>
        <time>2025-08-13T17:00:28.000Z</time>
      </trkpt>
      <trkpt lat="43.88495" lon="-1.29823">
        <ele>-17.39999961853</ele>
        <time>2025-08-13T17:00:36.000Z</time>
      </trkpt>
      <trkpt lat="43.88497" lon="-1.29818">
        <ele>-17.39999961853</ele>
        <time>2025-08-13T17:00:37.000Z</time>
      </trkpt>
      <trkpt lat="43.88508" lon="-1.29796">
        <ele>-17.39999961853</ele>
        <time>2025-08-13T17:00:41.000Z</time>
      </trkpt>
      <trkpt lat="43.88518" lon="-1.2977">
        <ele>-17.60000038147</ele>
        <time>2025-08-13T17:00:47.000Z</time>
      </trkpt>
      <trkpt lat="43.8852" lon="-1.29766">
        <ele>-17.799999237061</ele>
        <time>2025-08-13T17:00:51.000Z</time>
      </trkpt>
      <trkpt lat="43.8852" lon="-1.29766">
        <ele>-17.799999237061</ele>
        <time>2025-08-13T17:00:52.000Z</time>
      </trkpt>
      <trkpt lat="43.88524" lon="-1.2976">
        <ele>-17.200000762939</ele>
        <time>2025-08-13T17:02:11.000Z</time>
      </trkpt>
      <trkpt lat="43.88527" lon="-1.29755">
        <ele>-17.200000762939</ele>
        <time>2025-08-13T17:02:13.000Z</time>
      </trkpt>
      <trkpt lat="43.88536" lon="-1.29735">
        <ele>-17</ele>
        <time>2025-08-13T17:02:18.000Z</time>
      </trkpt>
      <trkpt lat="43.88553" lon="-1.29702">
        <ele>-17</ele>
        <time>2025-08-13T17:02:25.000Z</time>
      </trkpt>
      <trkpt lat="43.88574" lon="-1.29658">
        <ele>-17.200000762939</ele>
        <time>2025-08-13T17:02:34.000Z</time>
      </trkpt>
      <trkpt lat="43.88591" lon="-1.29621">
        <ele>-17</ele>
        <time>2025-08-13T17:02:41.000Z</time>
      </trkpt>
      <trkpt lat="43.8861" lon="-1.29582">
        <ele>-16.799999237061</ele>
        <time>2025-08-13T17:02:49.000Z</time>
      </trkpt>
      <trkpt lat="43.88626" lon="-1.29558">
        <ele>-17</ele>
        <time>2025-08-13T17:02:55.000Z</time>
      </trkpt>
      <trkpt lat="43.88652" lon="-1.29519">
        <ele>-17</ele>
        <time>2025-08-13T17:03:03.000Z</time>
      </trkpt>
      <trkpt lat="43.8868" lon="-1.29474">
        <ele>-17</ele>
        <time>2025-08-13T17:03:12.000Z</time>
      </trkpt>
      <trkpt lat="43.88702" lon="-1.2944">
        <ele>-17</ele>
        <time>2025-08-13T17:03:20.000Z</time>
      </trkpt>
      <trkpt lat="43.88726" lon="-1.29412">
        <ele>-16.60000038147</ele>
        <time>2025-08-13T17:03:28.000Z</time>
      </trkpt>
      <trkpt lat="43.88751" lon="-1.2939">
        <ele>-16</ele>
        <time>2025-08-13T17:03:36.000Z</time>
      </trkpt>
      <trkpt lat="43.88756" lon="-1.29384">
        <ele>-16</ele>
        <time>2025-08-13T17:03:38.000Z</time>
      </trkpt>
      <trkpt lat="43.88761" lon="-1.29365">
        <ele>-16</ele>
        <time>2025-08-13T17:03:42.000Z</time>
      </trkpt>
      <trkpt lat="43.88764" lon="-1.2936">
        <ele>-16</ele>
        <time>2025-08-13T17:03:44.000Z</time>
      </trkpt>
      <trkpt lat="43.88767" lon="-1.29359">
        <ele>-16</ele>
        <time>2025-08-13T17:03:45.000Z</time>
      </trkpt>
      <trkpt lat="43.88788" lon="-1.29361">
        <ele>-16.200000762939</ele>
        <time>2025-08-13T17:03:52.000Z</time>
      </trkpt>
      <trkpt lat="43.88811" lon="-1.29351">
        <ele>-16</ele>
        <time>2025-08-13T17:03:58.000Z</time>
      </trkpt>
      <trkpt lat="43.88845" lon="-1.29339">
        <ele>-16.39999961853</ele>
        <time>2025-08-13T17:04:05.000Z</time>
      </trkpt>
      <trkpt lat="43.88896" lon="-1.29322">
        <ele>-16.60000038147</ele>
        <time>2025-08-13T17:04:15.000Z</time>
      </trkpt>
      <trkpt lat="43.88949" lon="-1.29303">
        <ele>-16.60000038147</ele>
        <time>2025-08-13T17:04:25.000Z</time>
      </trkpt>
      <trkpt lat="43.88955" lon="-1.29301">
        <ele>-16.799999237061</ele>
        <time>2025-08-13T17:04:26.000Z</time>
      </trkpt>
      <trkpt lat="43.89008" lon="-1.29283">
        <ele>-16.799999237061</ele>
        <time>2025-08-13T17:04:36.000Z</time>
      </trkpt>
      <trkpt lat="43.89013" lon="-1.29282">
        <ele>-16.799999237061</ele>
        <time>2025-08-13T17:04:37.000Z</time>
      </trkpt>
      <trkpt lat="43.89031" lon="-1.29276">
        <ele>-16.799999237061</ele>
        <time>2025-08-13T17:04:41.000Z</time>
      </trkpt>
      <trkpt lat="43.8904" lon="-1.29272">
        <ele>-17</ele>
        <time>2025-08-13T17:04:43.000Z</time>
      </trkpt>
      <trkpt lat="43.89044" lon="-1.29268">
        <ele>-17</ele>
        <time>2025-08-13T17:04:44.000Z</time>
      </trkpt>
      <trkpt lat="43.89055" lon="-1.29258">
        <ele>-17</ele>
        <time>2025-08-13T17:04:47.000Z</time>
      </trkpt>
      <trkpt lat="43.89062" lon="-1.29256">
        <ele>-17.200000762939</ele>
        <time>2025-08-13T17:04:49.000Z</time>
      </trkpt>
      <trkpt lat="43.89065" lon="-1.29261">
        <ele>-17.200000762939</ele>
        <time>2025-08-13T17:04:51.000Z</time>
      </trkpt>
      <trkpt lat="43.89066" lon="-1.29274">
        <ele>-17.200000762939</ele>
        <time>2025-08-13T17:04:56.000Z</time>
      </trkpt>
      <trkpt lat="43.89068" lon="-1.29277">
        <ele>-17.200000762939</ele>
        <time>2025-08-13T17:04:57.000Z</time>
      </trkpt>
      <trkpt lat="43.89073" lon="-1.2928">
        <ele>-17.200000762939</ele>
        <time>2025-08-13T17:04:59.000Z</time>
      </trkpt>
      <trkpt lat="43.89094" lon="-1.29272">
        <ele>-17.39999961853</ele>
        <time>2025-08-13T17:05:05.000Z</time>
      </trkpt>
      <trkpt lat="43.89119" lon="-1.29263">
        <ele>-17.60000038147</ele>
        <time>2025-08-13T17:05:13.000Z</time>
      </trkpt>
      <trkpt lat="43.89144" lon="-1.29255">
        <ele>-17.39999961853</ele>
        <time>2025-08-13T17:05:20.000Z</time>
      </trkpt>
      <trkpt lat="43.89168" lon="-1.29248">
        <ele>-17.39999961853</ele>
        <time>2025-08-13T17:05:26.000Z</time>
      </trkpt>
      <trkpt lat="43.89203" lon="-1.29237">
        <ele>-17.39999961853</ele>
        <time>2025-08-13T17:05:34.000Z</time>
      </trkpt>
      <trkpt lat="43.89213" lon="-1.29233">
        <ele>-17.200000762939</ele>
        <time>2025-08-13T17:05:38.000Z</time>
      </trkpt>
      <trkpt lat="43.89227" lon="-1.29228">
        <ele>-17.200000762939</ele>
        <time>2025-08-13T17:05:42.000Z</time>
      </trkpt>
      <trkpt lat="43.89259" lon="-1.29214">
        <ele>-17.200000762939</ele>
        <time>2025-08-13T17:05:49.000Z</time>
      </trkpt>
      <trkpt lat="43.89298" lon="-1.29202">
        <ele>-17.200000762939</ele>
        <time>2025-08-13T17:05:58.000Z</time>
      </trkpt>
      <trkpt lat="43.89327" lon="-1.29191">
        <ele>-17</ele>
        <time>2025-08-13T17:06:04.000Z</time>
      </trkpt>
      <trkpt lat="43.89366" lon="-1.29178">
        <ele>-17</ele>
        <time>2025-08-13T17:06:12.000Z</time>
      </trkpt>
      <trkpt lat="43.89407" lon="-1.29168">
        <ele>-16.799999237061</ele>
        <time>2025-08-13T17:06:20.000Z</time>
      </trkpt>
      <trkpt lat="43.89444" lon="-1.29166">
        <ele>-16.60000038147</ele>
        <time>2025-08-13T17:06:27.000Z</time>
      </trkpt>
      <trkpt lat="43.89471" lon="-1.29169">
        <ele>-16.799999237061</ele>
        <time>2025-08-13T17:06:33.000Z</time>
      </trkpt>
      <trkpt lat="43.89489" lon="-1.29172">
        <ele>-16.799999237061</ele>
        <time>2025-08-13T17:06:37.000Z</time>
      </trkpt>
      <trkpt lat="43.89498" lon="-1.29172">
        <ele>-16.799999237061</ele>
        <time>2025-08-13T17:06:39.000Z</time>
      </trkpt>
      <trkpt lat="43.89532" lon="-1.29178">
        <ele>-16.60000038147</ele>
        <time>2025-08-13T17:06:46.000Z</time>
      </trkpt>
      <trkpt lat="43.89551" lon="-1.29183">
        <ele>-16.60000038147</ele>
        <time>2025-08-13T17:06:50.000Z</time>
      </trkpt>
      <trkpt lat="43.89561" lon="-1.29185">
        <ele>-16.39999961853</ele>
        <time>2025-08-13T17:06:52.000Z</time>
      </trkpt>
      <trkpt lat="43.89588" lon="-1.2919">
        <ele>-16</ele>
        <time>2025-08-13T17:06:57.000Z</time>
      </trkpt>
      <trkpt lat="43.89597" lon="-1.29191">
        <ele>-16</ele>
        <time>2025-08-13T17:06:59.000Z</time>
      </trkpt>
      <trkpt lat="43.8961" lon="-1.29193">
        <ele>-16</ele>
        <time>2025-08-13T17:07:02.000Z</time>
      </trkpt>
      <trkpt lat="43.89614" lon="-1.29195">
        <ele>-15.800000190735</ele>
        <time>2025-08-13T17:07:03.000Z</time>
      </trkpt>
      <trkpt lat="43.89618" lon="-1.29197">
        <ele>-15.800000190735</ele>
        <time>2025-08-13T17:07:04.000Z</time>
      </trkpt>
      <trkpt lat="43.89646" lon="-1.29201">
        <ele>-15.60000038147</ele>
        <time>2025-08-13T17:07:09.000Z</time>
      </trkpt>
      <trkpt lat="43.89686" lon="-1.29205">
        <ele>-15.39999961853</ele>
        <time>2025-08-13T17:07:16.000Z</time>
      </trkpt>
      <trkpt lat="43.89725" lon="-1.29213">
        <ele>-15.199999809265</ele>
        <time>2025-08-13T17:07:24.000Z</time>
      </trkpt>
      <trkpt lat="43.89734" lon="-1.29216">
        <ele>-15</ele>
        <time>2025-08-13T17:07:26.000Z</time>
      </trkpt>
      <trkpt lat="43.89747" lon="-1.29218">
        <ele>-14.800000190735</ele>
        <time>2025-08-13T17:07:29.000Z</time>
      </trkpt>
      <trkpt lat="43.89752" lon="-1.29219">
        <ele>-14.800000190735</ele>
        <time>2025-08-13T17:07:30.000Z</time>
      </trkpt>
      <trkpt lat="43.89791" lon="-1.29224">
        <ele>-14.199999809265</ele>
        <time>2025-08-13T17:07:38.000Z</time>
      </trkpt>
      <trkpt lat="43.89834" lon="-1.2923">
        <ele>-14.39999961853</ele>
        <time>2025-08-13T17:07:45.000Z</time>
      </trkpt>
      <trkpt lat="43.89872" lon="-1.29229">
        <ele>-14.800000190735</ele>
        <time>2025-08-13T17:07:52.000Z</time>
      </trkpt>
      <trkpt lat="43.89888" lon="-1.29233">
        <ele>-14.800000190735</ele>
        <time>2025-08-13T17:07:55.000Z</time>
      </trkpt>
      <trkpt lat="43.89904" lon="-1.29235">
        <ele>-14.60000038147</ele>
        <time>2025-08-13T17:07:58.000Z</time>
      </trkpt>
      <trkpt lat="43.89909" lon="-1.29235">
        <ele>-14.60000038147</ele>
        <time>2025-08-13T17:07:59.000Z</time>
      </trkpt>
      <trkpt lat="43.89928" lon="-1.2924">
        <ele>-14.60000038147</ele>
        <time>2025-08-13T17:08:03.000Z</time>
      </trkpt>
      <trkpt lat="43.8997" lon="-1.29249">
        <ele>-14.199999809265</ele>
        <time>2025-08-13T17:08:11.000Z</time>
      </trkpt>
      <trkpt lat="43.90007" lon="-1.29253">
        <ele>-14.199999809265</ele>
        <time>2025-08-13T17:08:19.000Z</time>
      </trkpt>
      <trkpt lat="43.90021" lon="-1.29254">
        <ele>-14.199999809265</ele>
        <time>2025-08-13T17:08:22.000Z</time>
      </trkpt>
      <trkpt lat="43.9003" lon="-1.29257">
        <ele>-14.199999809265</ele>
        <time>2025-08-13T17:08:24.000Z</time>
      </trkpt>
      <trkpt lat="43.90039" lon="-1.29258">
        <ele>-14</ele>
        <time>2025-08-13T17:08:26.000Z</time>
      </trkpt>
      <trkpt lat="43.90062" lon="-1.2926">
        <ele>-13.800000190735</ele>
        <time>2025-08-13T17:08:31.000Z</time>
      </trkpt>
      <trkpt lat="43.90072" lon="-1.2926">
        <ele>-13.60000038147</ele>
        <time>2025-08-13T17:08:33.000Z</time>
      </trkpt>
      <trkpt lat="43.90081" lon="-1.2926">
        <ele>-13.60000038147</ele>
        <time>2025-08-13T17:08:35.000Z</time>
      </trkpt>
      <trkpt lat="43.90099" lon="-1.29264">
        <ele>-13.60000038147</ele>
        <time>2025-08-13T17:08:39.000Z</time>
      </trkpt>
      <trkpt lat="43.9013" lon="-1.2927">
        <ele>-13.39999961853</ele>
        <time>2025-08-13T17:08:46.000Z</time>
      </trkpt>
      <trkpt lat="43.90134" lon="-1.29271">
        <ele>-13.39999961853</ele>
        <time>2025-08-13T17:08:47.000Z</time>
      </trkpt>
      <trkpt lat="43.90147" lon="-1.29271">
        <ele>-13.199999809265</ele>
        <time>2025-08-13T17:08:50.000Z</time>
      </trkpt>
      <trkpt lat="43.90156" lon="-1.29272">
        <ele>-13.199999809265</ele>
        <time>2025-08-13T17:08:52.000Z</time>
      </trkpt>
      <trkpt lat="43.90161" lon="-1.29273">
        <ele>-13.199999809265</ele>
        <time>2025-08-13T17:08:53.000Z</time>
      </trkpt>
      <trkpt lat="43.90183" lon="-1.29275">
        <ele>-13</ele>
        <time>2025-08-13T17:08:58.000Z</time>
      </trkpt>
      <trkpt lat="43.90192" lon="-1.29276">
        <ele>-12.800000190735</ele>
        <time>2025-08-13T17:09:00.000Z</time>
      </trkpt>
      <trkpt lat="43.90198" lon="-1.29277">
        <ele>-12.800000190735</ele>
        <time>2025-08-13T17:09:03.000Z</time>
      </trkpt>
      <trkpt lat="43.90198" lon="-1.29277">
        <ele>-12.800000190735</ele>
        <time>2025-08-13T17:09:04.000Z</time>
      </trkpt>
      <trkpt lat="43.90205" lon="-1.29278">
        <ele>-12.60000038147</ele>
        <time>2025-08-13T17:09:49.000Z</time>
      </trkpt>
      <trkpt lat="43.9021" lon="-1.29277">
        <ele>-12.60000038147</ele>
        <time>2025-08-13T17:09:51.000Z</time>
      </trkpt>
      <trkpt lat="43.9023" lon="-1.29279">
        <ele>-12.800000190735</ele>
        <time>2025-08-13T17:09:57.000Z</time>
      </trkpt>
      <trkpt lat="43.90248" lon="-1.29281">
        <ele>-12.800000190735</ele>
        <time>2025-08-13T17:10:02.000Z</time>
      </trkpt>
      <trkpt lat="43.90274" lon="-1.29286">
        <ele>-12.60000038147</ele>
        <time>2025-08-13T17:10:09.000Z</time>
      </trkpt>
      <trkpt lat="43.90286" lon="-1.29288">
        <ele>-12.199999809265</ele>
        <time>2025-08-13T17:10:12.000Z</time>
      </trkpt>
      <trkpt lat="43.90299" lon="-1.29293">
        <ele>-12</ele>
        <time>2025-08-13T17:10:15.000Z</time>
      </trkpt>
      <trkpt lat="43.90307" lon="-1.29304">
        <ele>-11.60000038147</ele>
        <time>2025-08-13T17:10:19.000Z</time>
      </trkpt>
      <trkpt lat="43.90308" lon="-1.29306">
        <ele>-11.60000038147</ele>
        <time>2025-08-13T17:10:20.000Z</time>
      </trkpt>
      <trkpt lat="43.90313" lon="-1.29314">
        <ele>-11.39999961853</ele>
        <time>2025-08-13T17:10:24.000Z</time>
      </trkpt>
      <trkpt lat="43.90317" lon="-1.29322">
        <ele>-11.39999961853</ele>
        <time>2025-08-13T17:10:29.000Z</time>
      </trkpt>
      <trkpt lat="43.90322" lon="-1.29332">
        <ele>-11.60000038147</ele>
        <time>2025-08-13T17:10:45.000Z</time>
      </trkpt>
      <trkpt lat="43.90329" lon="-1.29347">
        <ele>-11.39999961853</ele>
        <time>2025-08-13T17:10:52.000Z</time>
      </trkpt>
      <trkpt lat="43.90333" lon="-1.29363">
        <ele>-11.60000038147</ele>
        <time>2025-08-13T17:10:59.000Z</time>
      </trkpt>
      <trkpt lat="43.90334" lon="-1.29372">
        <ele>-11.60000038147</ele>
        <time>2025-08-13T17:11:02.000Z</time>
      </trkpt>
      <trkpt lat="43.90337" lon="-1.29382">
        <ele>-11.60000038147</ele>
        <time>2025-08-13T17:11:05.000Z</time>
      </trkpt>
      <trkpt lat="43.90339" lon="-1.29398">
        <ele>-11.39999961853</ele>
        <time>2025-08-13T17:11:09.000Z</time>
      </trkpt>
      <trkpt lat="43.9034" lon="-1.2941">
        <ele>-11.60000038147</ele>
        <time>2025-08-13T17:11:12.000Z</time>
      </trkpt>
      <trkpt lat="43.90348" lon="-1.29441">
        <ele>-11.60000038147</ele>
        <time>2025-08-13T17:11:18.000Z</time>
      </trkpt>
      <trkpt lat="43.90356" lon="-1.29475">
        <ele>-11.39999961853</ele>
        <time>2025-08-13T17:11:24.000Z</time>
      </trkpt>
      <trkpt lat="43.90366" lon="-1.29509">
        <ele>-11.199999809265</ele>
        <time>2025-08-13T17:11:30.000Z</time>
      </trkpt>
      <trkpt lat="43.90374" lon="-1.29539">
        <ele>-11.199999809265</ele>
        <time>2025-08-13T17:11:35.000Z</time>
      </trkpt>
      <trkpt lat="43.9038" lon="-1.29584">
        <ele>-11.39999961853</ele>
        <time>2025-08-13T17:11:42.000Z</time>
      </trkpt>
      <trkpt lat="43.90386" lon="-1.29631">
        <ele>-11.39999961853</ele>
        <time>2025-08-13T17:11:49.000Z</time>
      </trkpt>
      <trkpt lat="43.90386" lon="-1.29638">
        <ele>-11.39999961853</ele>
        <time>2025-08-13T17:11:50.000Z</time>
      </trkpt>
      <trkpt lat="43.90387" lon="-1.29644">
        <ele>-11.39999961853</ele>
        <time>2025-08-13T17:11:51.000Z</time>
      </trkpt>
      <trkpt lat="43.90391" lon="-1.29669">
        <ele>-11.39999961853</ele>
        <time>2025-08-13T17:11:55.000Z</time>
      </trkpt>
      <trkpt lat="43.90394" lon="-1.29689">
        <ele>-11.60000038147</ele>
        <time>2025-08-13T17:11:58.000Z</time>
      </trkpt>
      <trkpt lat="43.90394" lon="-1.29727">
        <ele>-11.60000038147</ele>
        <time>2025-08-13T17:12:03.000Z</time>
      </trkpt>
      <trkpt lat="43.90395" lon="-1.29734">
        <ele>-11.800000190735</ele>
        <time>2025-08-13T17:12:04.000Z</time>
      </trkpt>
      <trkpt lat="43.90397" lon="-1.29762">
        <ele>-12</ele>
        <time>2025-08-13T17:12:08.000Z</time>
      </trkpt>
      <trkpt lat="43.90401" lon="-1.29829">
        <ele>-12.199999809265</ele>
        <time>2025-08-13T17:12:18.000Z</time>
      </trkpt>
      <trkpt lat="43.90404" lon="-1.29881">
        <ele>-12.60000038147</ele>
        <time>2025-08-13T17:12:26.000Z</time>
      </trkpt>
      <trkpt lat="43.90406" lon="-1.29933">
        <ele>-12.60000038147</ele>
        <time>2025-08-13T17:12:34.000Z</time>
      </trkpt>
      <trkpt lat="43.90409" lon="-1.29999">
        <ele>-12.800000190735</ele>
        <time>2025-08-13T17:12:44.000Z</time>
      </trkpt>
      <trkpt lat="43.9041" lon="-1.30006">
        <ele>-12.800000190735</ele>
        <time>2025-08-13T17:12:45.000Z</time>
      </trkpt>
      <trkpt lat="43.90409" lon="-1.30032">
        <ele>-13</ele>
        <time>2025-08-13T17:12:49.000Z</time>
      </trkpt>
      <trkpt lat="43.90407" lon="-1.30044">
        <ele>-13</ele>
        <time>2025-08-13T17:12:51.000Z</time>
      </trkpt>
      <trkpt lat="43.90406" lon="-1.3005">
        <ele>-13</ele>
        <time>2025-08-13T17:12:52.000Z</time>
      </trkpt>
      <trkpt lat="43.90401" lon="-1.30074">
        <ele>-13</ele>
        <time>2025-08-13T17:12:56.000Z</time>
      </trkpt>
      <trkpt lat="43.90397" lon="-1.30101">
        <ele>-13</ele>
        <time>2025-08-13T17:13:01.000Z</time>
      </trkpt>
      <trkpt lat="43.90393" lon="-1.30121">
        <ele>-13</ele>
        <time>2025-08-13T17:13:05.000Z</time>
      </trkpt>
      <trkpt lat="43.90391" lon="-1.30143">
        <ele>-13</ele>
        <time>2025-08-13T17:13:11.000Z</time>
      </trkpt>
      <trkpt lat="43.90388" lon="-1.30162">
        <ele>-13</ele>
        <time>2025-08-13T17:13:14.000Z</time>
      </trkpt>
      <trkpt lat="43.90384" lon="-1.30177">
        <ele>-13</ele>
        <time>2025-08-13T17:13:16.000Z</time>
      </trkpt>
      <trkpt lat="43.90382" lon="-1.3019">
        <ele>-12.800000190735</ele>
        <time>2025-08-13T17:13:18.000Z</time>
      </trkpt>
      <trkpt lat="43.90374" lon="-1.30211">
        <ele>-12.60000038147</ele>
        <time>2025-08-13T17:13:21.000Z</time>
      </trkpt>
      <trkpt lat="43.90368" lon="-1.30232">
        <ele>-12.60000038147</ele>
        <time>2025-08-13T17:13:24.000Z</time>
      </trkpt>
      <trkpt lat="43.90362" lon="-1.30242">
        <ele>-12.60000038147</ele>
        <time>2025-08-13T17:13:26.000Z</time>
      </trkpt>
      <trkpt lat="43.90354" lon="-1.30268">
        <ele>-12.60000038147</ele>
        <time>2025-08-13T17:13:30.000Z</time>
      </trkpt>
      <trkpt lat="43.90352" lon="-1.30274">
        <ele>-12.39999961853</ele>
        <time>2025-08-13T17:13:31.000Z</time>
      </trkpt>
      <trkpt lat="43.90348" lon="-1.30283">
        <ele>-12.39999961853</ele>
        <time>2025-08-13T17:13:33.000Z</time>
      </trkpt>
      <trkpt lat="43.90344" lon="-1.30296">
        <ele>-12.60000038147</ele>
        <time>2025-08-13T17:13:35.000Z</time>
      </trkpt>
      <trkpt lat="43.90342" lon="-1.30303">
        <ele>-12.60000038147</ele>
        <time>2025-08-13T17:13:36.000Z</time>
      </trkpt>
      <trkpt lat="43.90338" lon="-1.30316">
        <ele>-12.60000038147</ele>
        <time>2025-08-13T17:13:38.000Z</time>
      </trkpt>
      <trkpt lat="43.90335" lon="-1.3033">
        <ele>-12.800000190735</ele>
        <time>2025-08-13T17:13:40.000Z</time>
      </trkpt>
      <trkpt lat="43.90331" lon="-1.30356">
        <ele>-13.199999809265</ele>
        <time>2025-08-13T17:13:44.000Z</time>
      </trkpt>
      <trkpt lat="43.90333" lon="-1.30362">
        <ele>-13.39999961853</ele>
        <time>2025-08-13T17:13:45.000Z</time>
      </trkpt>
      <trkpt lat="43.90336" lon="-1.30384">
        <ele>-13.800000190735</ele>
        <time>2025-08-13T17:13:48.000Z</time>
      </trkpt>
      <trkpt lat="43.90338" lon="-1.30392">
        <ele>-14</ele>
        <time>2025-08-13T17:13:49.000Z</time>
      </trkpt>
      <trkpt lat="43.90341" lon="-1.30409">
        <ele>-14.39999961853</ele>
        <time>2025-08-13T17:13:51.000Z</time>
      </trkpt>
      <trkpt lat="43.90348" lon="-1.30439">
        <ele>-14.60000038147</ele>
        <time>2025-08-13T17:13:55.000Z</time>
      </trkpt>
      <trkpt lat="43.90349" lon="-1.30446">
        <ele>-14.800000190735</ele>
        <time>2025-08-13T17:13:56.000Z</time>
      </trkpt>
      <trkpt lat="43.90357" lon="-1.30472">
        <ele>-15</ele>
        <time>2025-08-13T17:14:00.000Z</time>
      </trkpt>
      <trkpt lat="43.9036" lon="-1.30479">
        <ele>-15</ele>
        <time>2025-08-13T17:14:01.000Z</time>
      </trkpt>
      <trkpt lat="43.90371" lon="-1.305">
        <ele>-15</ele>
        <time>2025-08-13T17:14:04.000Z</time>
      </trkpt>
      <trkpt lat="43.9039" lon="-1.30534">
        <ele>-15</ele>
        <time>2025-08-13T17:14:10.000Z</time>
      </trkpt>
      <trkpt lat="43.90393" lon="-1.3054">
        <ele>-15</ele>
        <time>2025-08-13T17:14:11.000Z</time>
      </trkpt>
      <trkpt lat="43.90395" lon="-1.30545">
        <ele>-15.199999809265</ele>
        <time>2025-08-13T17:14:12.000Z</time>
      </trkpt>
      <trkpt lat="43.90402" lon="-1.30568">
        <ele>-15.199999809265</ele>
        <time>2025-08-13T17:14:16.000Z</time>
      </trkpt>
      <trkpt lat="43.90403" lon="-1.30575">
        <ele>-15.199999809265</ele>
        <time>2025-08-13T17:14:17.000Z</time>
      </trkpt>
      <trkpt lat="43.90404" lon="-1.30582">
        <ele>-15.39999961853</ele>
        <time>2025-08-13T17:14:18.000Z</time>
      </trkpt>
      <trkpt lat="43.90405" lon="-1.30598">
        <ele>-15.800000190735</ele>
        <time>2025-08-13T17:14:20.000Z</time>
      </trkpt>
      <trkpt lat="43.90408" lon="-1.30605">
        <ele>-15.800000190735</ele>
        <time>2025-08-13T17:14:21.000Z</time>
      </trkpt>
      <trkpt lat="43.90414" lon="-1.30616">
        <ele>-16.200000762939</ele>
        <time>2025-08-13T17:14:23.000Z</time>
      </trkpt>
      <trkpt lat="43.90418" lon="-1.30628">
        <ele>-16.39999961853</ele>
        <time>2025-08-13T17:14:25.000Z</time>
      </trkpt>
      <trkpt lat="43.90424" lon="-1.30652">
        <ele>-16.39999961853</ele>
        <time>2025-08-13T17:14:29.000Z</time>
      </trkpt>
      <trkpt lat="43.90425" lon="-1.30663">
        <ele>-16.39999961853</ele>
        <time>2025-08-13T17:14:31.000Z</time>
      </trkpt>
      <trkpt lat="43.90425" lon="-1.30668">
        <ele>-16.39999961853</ele>
        <time>2025-08-13T17:14:32.000Z</time>
      </trkpt>
      <trkpt lat="43.90425" lon="-1.30673">
        <ele>-16.39999961853</ele>
        <time>2025-08-13T17:14:33.000Z</time>
      </trkpt>
      <trkpt lat="43.90426" lon="-1.30695">
        <ele>-16.200000762939</ele>
        <time>2025-08-13T17:14:37.000Z</time>
      </trkpt>
      <trkpt lat="43.90422" lon="-1.30731">
        <ele>-16</ele>
        <time>2025-08-13T17:14:44.000Z</time>
      </trkpt>
      <trkpt lat="43.90419" lon="-1.30775">
        <ele>-15.60000038147</ele>
        <time>2025-08-13T17:14:51.000Z</time>
      </trkpt>
      <trkpt lat="43.9042" lon="-1.308">
        <ele>-15.39999961853</ele>
        <time>2025-08-13T17:14:56.000Z</time>
      </trkpt>
      <trkpt lat="43.9042" lon="-1.30842">
        <ele>-15.39999961853</ele>
        <time>2025-08-13T17:15:04.000Z</time>
      </trkpt>
      <trkpt lat="43.90422" lon="-1.30846">
        <ele>-15.39999961853</ele>
        <time>2025-08-13T17:15:05.000Z</time>
      </trkpt>
      <trkpt lat="43.90426" lon="-1.3085">
        <ele>-15.39999961853</ele>
        <time>2025-08-13T17:15:07.000Z</time>
      </trkpt>
      <trkpt lat="43.90429" lon="-1.30853">
        <ele>-15.60000038147</ele>
        <time>2025-08-13T17:15:09.000Z</time>
      </trkpt>
      <trkpt lat="43.90432" lon="-1.30857">
        <ele>-15.60000038147</ele>
        <time>2025-08-13T17:15:11.000Z</time>
      </trkpt>
      <trkpt lat="43.90435" lon="-1.30862">
        <ele>-15.60000038147</ele>
        <time>2025-08-13T17:15:13.000Z</time>
      </trkpt>
      <trkpt lat="43.90436" lon="-1.30869">
        <ele>-15.60000038147</ele>
        <time>2025-08-13T17:15:15.000Z</time>
      </trkpt>
      <trkpt lat="43.90438" lon="-1.30892">
        <ele>-15.39999961853</ele>
        <time>2025-08-13T17:15:20.000Z</time>
      </trkpt>
      <trkpt lat="43.9044" lon="-1.3092">
        <ele>-15.199999809265</ele>
        <time>2025-08-13T17:15:25.000Z</time>
      </trkpt>
      <trkpt lat="43.90445" lon="-1.30956">
        <ele>-15.199999809265</ele>
        <time>2025-08-13T17:15:31.000Z</time>
      </trkpt>
      <trkpt lat="43.90455" lon="-1.30969">
        <ele>-15.199999809265</ele>
        <time>2025-08-13T17:15:35.000Z</time>
      </trkpt>
      <trkpt lat="43.90467" lon="-1.30979">
        <ele>-15.39999961853</ele>
        <time>2025-08-13T17:15:41.000Z</time>
      </trkpt>
      <trkpt lat="43.90471" lon="-1.30986">
        <ele>-15.60000038147</ele>
        <time>2025-08-13T17:15:45.000Z</time>
      </trkpt>
      <trkpt lat="43.90474" lon="-1.30987">
        <ele>-15.800000190735</ele>
        <time>2025-08-13T17:15:47.000Z</time>
      </trkpt>
      <trkpt lat="43.90475" lon="-1.30999">
        <ele>-15.800000190735</ele>
        <time>2025-08-13T17:15:51.000Z</time>
      </trkpt>
      <trkpt lat="43.90478" lon="-1.31001">
        <ele>-15.800000190735</ele>
        <time>2025-08-13T17:15:52.000Z</time>
      </trkpt>
      <trkpt lat="43.90489" lon="-1.31001">
        <ele>-15.800000190735</ele>
        <time>2025-08-13T17:15:56.000Z</time>
      </trkpt>
      <trkpt lat="43.90502" lon="-1.31005">
        <ele>-15.800000190735</ele>
        <time>2025-08-13T17:16:00.000Z</time>
      </trkpt>
      <trkpt lat="43.90507" lon="-1.31011">
        <ele>-15.800000190735</ele>
        <time>2025-08-13T17:16:02.000Z</time>
      </trkpt>
      <trkpt lat="43.90521" lon="-1.31041">
        <ele>-16</ele>
        <time>2025-08-13T17:16:09.000Z</time>
      </trkpt>
      <trkpt lat="43.90529" lon="-1.31059">
        <ele>-16</ele>
        <time>2025-08-13T17:16:14.000Z</time>
      </trkpt>
      <trkpt lat="43.90531" lon="-1.3106">
        <ele>-16</ele>
        <time>2025-08-13T17:16:20.000Z</time>
      </trkpt>
      <trkpt lat="43.90536" lon="-1.31068">
        <ele>-16</ele>
        <time>2025-08-13T17:19:55.000Z</time>
      </trkpt>
      <trkpt lat="43.90539" lon="-1.31073">
        <ele>-16</ele>
        <time>2025-08-13T17:19:57.000Z</time>
      </trkpt>
      <trkpt lat="43.90552" lon="-1.31091">
        <ele>-16</ele>
        <time>2025-08-13T17:20:02.000Z</time>
      </trkpt>
      <trkpt lat="43.90565" lon="-1.31112">
        <ele>-16.200000762939</ele>
        <time>2025-08-13T17:20:08.000Z</time>
      </trkpt>
      <trkpt lat="43.90576" lon="-1.31133">
        <ele>-15.800000190735</ele>
        <time>2025-08-13T17:20:14.000Z</time>
      </trkpt>
      <trkpt lat="43.90596" lon="-1.31162">
        <ele>-15.800000190735</ele>
        <time>2025-08-13T17:20:20.000Z</time>
      </trkpt>
      <trkpt lat="43.90612" lon="-1.31187">
        <ele>-15.39999961853</ele>
        <time>2025-08-13T17:20:26.000Z</time>
      </trkpt>
      <trkpt lat="43.90629" lon="-1.31218">
        <ele>-15.199999809265</ele>
        <time>2025-08-13T17:20:34.000Z</time>
      </trkpt>
      <trkpt lat="43.90642" lon="-1.31243">
        <ele>-15.199999809265</ele>
        <time>2025-08-13T17:20:40.000Z</time>
      </trkpt>
      <trkpt lat="43.90647" lon="-1.31276">
        <ele>-15.199999809265</ele>
        <time>2025-08-13T17:20:46.000Z</time>
      </trkpt>
      <trkpt lat="43.90655" lon="-1.3132">
        <ele>-15.39999961853</ele>
        <time>2025-08-13T17:20:54.000Z</time>
      </trkpt>
      <trkpt lat="43.90656" lon="-1.31338">
        <ele>-15.39999961853</ele>
        <time>2025-08-13T17:20:58.000Z</time>
      </trkpt>
      <trkpt lat="43.90659" lon="-1.31355">
        <ele>-15.39999961853</ele>
        <time>2025-08-13T17:21:03.000Z</time>
      </trkpt>
      <trkpt lat="43.90659" lon="-1.31358">
        <ele>-15.60000038147</ele>
        <time>2025-08-13T17:21:04.000Z</time>
      </trkpt>
      <trkpt lat="43.90664" lon="-1.31388">
        <ele>-15.39999961853</ele>
        <time>2025-08-13T17:21:11.000Z</time>
      </trkpt>
      <trkpt lat="43.90678" lon="-1.31428">
        <ele>-15.39999961853</ele>
        <time>2025-08-13T17:21:17.000Z</time>
      </trkpt>
      <trkpt lat="43.90682" lon="-1.31432">
        <ele>-15.39999961853</ele>
        <time>2025-08-13T17:21:18.000Z</time>
      </trkpt>
      <trkpt lat="43.90691" lon="-1.31438">
        <ele>-15.199999809265</ele>
        <time>2025-08-13T17:21:20.000Z</time>
      </trkpt>
      <trkpt lat="43.90712" lon="-1.3144">
        <ele>-15</ele>
        <time>2025-08-13T17:21:25.000Z</time>
      </trkpt>
      <trkpt lat="43.90727" lon="-1.31443">
        <ele>-15</ele>
        <time>2025-08-13T17:21:29.000Z</time>
      </trkpt>
      <trkpt lat="43.9075" lon="-1.31445">
        <ele>-15</ele>
        <time>2025-08-13T17:21:35.000Z</time>
      </trkpt>
      <trkpt lat="43.90777" lon="-1.3144">
        <ele>-14.60000038147</ele>
        <time>2025-08-13T17:21:41.000Z</time>
      </trkpt>
      <trkpt lat="43.90782" lon="-1.31439">
        <ele>-14.60000038147</ele>
        <time>2025-08-13T17:21:42.000Z</time>
      </trkpt>
      <trkpt lat="43.90812" lon="-1.31438">
        <ele>-14</ele>
        <time>2025-08-13T17:21:51.000Z</time>
      </trkpt>
      <trkpt lat="43.9084" lon="-1.31432">
        <ele>-14</ele>
        <time>2025-08-13T17:21:58.000Z</time>
      </trkpt>
      <trkpt lat="43.90873" lon="-1.3143">
        <ele>-13.800000190735</ele>
        <time>2025-08-13T17:22:05.000Z</time>
      </trkpt>
      <trkpt lat="43.90878" lon="-1.31433">
        <ele>-13.800000190735</ele>
        <time>2025-08-13T17:22:06.000Z</time>
      </trkpt>
      <trkpt lat="43.90892" lon="-1.31447">
        <ele>-13.800000190735</ele>
        <time>2025-08-13T17:22:09.000Z</time>
      </trkpt>
      <trkpt lat="43.90909" lon="-1.31474">
        <ele>-13.39999961853</ele>
        <time>2025-08-13T17:22:15.000Z</time>
      </trkpt>
      <trkpt lat="43.90913" lon="-1.31483">
        <ele>-13.39999961853</ele>
        <time>2025-08-13T17:22:17.000Z</time>
      </trkpt>
      <trkpt lat="43.90915" lon="-1.31499">
        <ele>-13.199999809265</ele>
        <time>2025-08-13T17:22:20.000Z</time>
      </trkpt>
      <trkpt lat="43.90914" lon="-1.31539">
        <ele>-13.199999809265</ele>
        <time>2025-08-13T17:22:27.000Z</time>
      </trkpt>
      <trkpt lat="43.9091" lon="-1.31563">
        <ele>-13</ele>
        <time>2025-08-13T17:22:32.000Z</time>
      </trkpt>
      <trkpt lat="43.90907" lon="-1.3159">
        <ele>-12.800000190735</ele>
        <time>2025-08-13T17:22:38.000Z</time>
      </trkpt>
      <trkpt lat="43.909" lon="-1.31619">
        <ele>-13</ele>
        <time>2025-08-13T17:22:44.000Z</time>
      </trkpt>
      <trkpt lat="43.909" lon="-1.31649">
        <ele>-13</ele>
        <time>2025-08-13T17:22:48.000Z</time>
      </trkpt>
      <trkpt lat="43.909" lon="-1.31656">
        <ele>-13</ele>
        <time>2025-08-13T17:22:49.000Z</time>
      </trkpt>
      <trkpt lat="43.90897" lon="-1.31691">
        <ele>-13</ele>
        <time>2025-08-13T17:22:55.000Z</time>
      </trkpt>
      <trkpt lat="43.90896" lon="-1.31697">
        <ele>-13</ele>
        <time>2025-08-13T17:22:56.000Z</time>
      </trkpt>
      <trkpt lat="43.90896" lon="-1.31716">
        <ele>-13</ele>
        <time>2025-08-13T17:22:59.000Z</time>
      </trkpt>
      <trkpt lat="43.90896" lon="-1.31761">
        <ele>-13.199999809265</ele>
        <time>2025-08-13T17:23:05.000Z</time>
      </trkpt>
      <trkpt lat="43.9089" lon="-1.31791">
        <ele>-13.199999809265</ele>
        <time>2025-08-13T17:23:10.000Z</time>
      </trkpt>
      <trkpt lat="43.90887" lon="-1.31809">
        <ele>-13.39999961853</ele>
        <time>2025-08-13T17:23:14.000Z</time>
      </trkpt>
      <trkpt lat="43.90889" lon="-1.31839">
        <ele>-13.39999961853</ele>
        <time>2025-08-13T17:23:19.000Z</time>
      </trkpt>
      <trkpt lat="43.90887" lon="-1.31862">
        <ele>-13.199999809265</ele>
        <time>2025-08-13T17:23:23.000Z</time>
      </trkpt>
      <trkpt lat="43.90884" lon="-1.3191">
        <ele>-13.199999809265</ele>
        <time>2025-08-13T17:23:30.000Z</time>
      </trkpt>
      <trkpt lat="43.90876" lon="-1.31933">
        <ele>-13.39999961853</ele>
        <time>2025-08-13T17:23:35.000Z</time>
      </trkpt>
      <trkpt lat="43.90876" lon="-1.3196">
        <ele>-13.60000038147</ele>
        <time>2025-08-13T17:23:41.000Z</time>
      </trkpt>
      <trkpt lat="43.90885" lon="-1.31965">
        <ele>-13.60000038147</ele>
        <time>2025-08-13T17:23:45.000Z</time>
      </trkpt>
      <trkpt lat="43.90906" lon="-1.31966">
        <ele>-13.199999809265</ele>
        <time>2025-08-13T17:23:52.000Z</time>
      </trkpt>
      <trkpt lat="43.90933" lon="-1.31963">
        <ele>-12.800000190735</ele>
        <time>2025-08-13T17:24:00.000Z</time>
      </trkpt>
      <trkpt lat="43.90958" lon="-1.31958">
        <ele>-12.60000038147</ele>
        <time>2025-08-13T17:24:07.000Z</time>
      </trkpt>
      <trkpt lat="43.90982" lon="-1.31954">
        <ele>-12.199999809265</ele>
        <time>2025-08-13T17:24:14.000Z</time>
      </trkpt>
      <trkpt lat="43.90989" lon="-1.31953">
        <ele>-12</ele>
        <time>2025-08-13T17:24:16.000Z</time>
      </trkpt>
      <trkpt lat="43.91023" lon="-1.31947">
        <ele>-11.800000190735</ele>
        <time>2025-08-13T17:24:25.000Z</time>
      </trkpt>
      <trkpt lat="43.91061" lon="-1.3194">
        <ele>-11.60000038147</ele>
        <time>2025-08-13T17:24:35.000Z</time>
      </trkpt>
      <trkpt lat="43.91116" lon="-1.3193">
        <ele>-11.39999961853</ele>
        <time>2025-08-13T17:24:49.000Z</time>
      </trkpt>
      <trkpt lat="43.9112" lon="-1.31929">
        <ele>-11.39999961853</ele>
        <time>2025-08-13T17:24:50.000Z</time>
      </trkpt>
      <trkpt lat="43.91143" lon="-1.31924">
        <ele>-11</ele>
        <time>2025-08-13T17:24:56.000Z</time>
      </trkpt>
      <trkpt lat="43.91154" lon="-1.31922">
        <ele>-10.800000190735</ele>
        <time>2025-08-13T17:24:59.000Z</time>
      </trkpt>
      <trkpt lat="43.9117" lon="-1.31919">
        <ele>-10.800000190735</ele>
        <time>2025-08-13T17:25:04.000Z</time>
      </trkpt>
      <trkpt lat="43.91171" lon="-1.31922">
        <ele>-10.800000190735</ele>
        <time>2025-08-13T17:25:05.000Z</time>
      </trkpt>
      <trkpt lat="43.91183" lon="-1.31941">
        <ele>-10.800000190735</ele>
        <time>2025-08-13T17:25:10.000Z</time>
      </trkpt>
      <trkpt lat="43.91198" lon="-1.31967">
        <ele>-10.60000038147</ele>
        <time>2025-08-13T17:25:17.000Z</time>
      </trkpt>
      <trkpt lat="43.91216" lon="-1.32002">
        <ele>-10.60000038147</ele>
        <time>2025-08-13T17:25:23.000Z</time>
      </trkpt>
      <trkpt lat="43.91223" lon="-1.32021">
        <ele>-10.39999961853</ele>
        <time>2025-08-13T17:25:27.000Z</time>
      </trkpt>
      <trkpt lat="43.91223" lon="-1.32027">
        <ele>-10.199999809265</ele>
        <time>2025-08-13T17:25:28.000Z</time>
      </trkpt>
      <trkpt lat="43.91225" lon="-1.32064">
        <ele>-10</ele>
        <time>2025-08-13T17:25:33.000Z</time>
      </trkpt>
      <trkpt lat="43.91224" lon="-1.32077">
        <ele>-10</ele>
        <time>2025-08-13T17:25:35.000Z</time>
      </trkpt>
      <trkpt lat="43.91221" lon="-1.32097">
        <ele>-9.8000001907349</ele>
        <time>2025-08-13T17:25:38.000Z</time>
      </trkpt>
      <trkpt lat="43.91216" lon="-1.32119">
        <ele>-9.8000001907349</ele>
        <time>2025-08-13T17:25:42.000Z</time>
      </trkpt>
      <trkpt lat="43.91217" lon="-1.32132">
        <ele>-9.8000001907349</ele>
        <time>2025-08-13T17:25:44.000Z</time>
      </trkpt>
      <trkpt lat="43.91219" lon="-1.32138">
        <ele>-9.8000001907349</ele>
        <time>2025-08-13T17:25:45.000Z</time>
      </trkpt>
      <trkpt lat="43.91222" lon="-1.32149">
        <ele>-9.8000001907349</ele>
        <time>2025-08-13T17:25:47.000Z</time>
      </trkpt>
      <trkpt lat="43.91223" lon="-1.32163">
        <ele>-9.8000001907349</ele>
        <time>2025-08-13T17:25:49.000Z</time>
      </trkpt>
      <trkpt lat="43.91224" lon="-1.32171">
        <ele>-9.8000001907349</ele>
        <time>2025-08-13T17:25:50.000Z</time>
      </trkpt>
      <trkpt lat="43.91225" lon="-1.32178">
        <ele>-9.8000001907349</ele>
        <time>2025-08-13T17:25:51.000Z</time>
      </trkpt>
      <trkpt lat="43.91228" lon="-1.32206">
        <ele>-9.8000001907349</ele>
        <time>2025-08-13T17:25:55.000Z</time>
      </trkpt>
      <trkpt lat="43.91228" lon="-1.32212">
        <ele>-9.8000001907349</ele>
        <time>2025-08-13T17:25:56.000Z</time>
      </trkpt>
      <trkpt lat="43.91228" lon="-1.32229">
        <ele>-9.8000001907349</ele>
        <time>2025-08-13T17:25:59.000Z</time>
      </trkpt>
      <trkpt lat="43.91229" lon="-1.3225">
        <ele>-9.8000001907349</ele>
        <time>2025-08-13T17:26:03.000Z</time>
      </trkpt>
      <trkpt lat="43.9124" lon="-1.32285">
        <ele>-9.8000001907349</ele>
        <time>2025-08-13T17:26:08.000Z</time>
      </trkpt>
      <trkpt lat="43.91239" lon="-1.32307">
        <ele>-9.8000001907349</ele>
        <time>2025-08-13T17:26:11.000Z</time>
      </trkpt>
      <trkpt lat="43.91239" lon="-1.32324">
        <ele>-9.6000003814697</ele>
        <time>2025-08-13T17:26:14.000Z</time>
      </trkpt>
      <trkpt lat="43.91245" lon="-1.32351">
        <ele>-9.3999996185303</ele>
        <time>2025-08-13T17:26:19.000Z</time>
      </trkpt>
      <trkpt lat="43.91259" lon="-1.32386">
        <ele>-9.3999996185303</ele>
        <time>2025-08-13T17:26:23.000Z</time>
      </trkpt>
      <trkpt lat="43.91275" lon="-1.32423">
        <ele>-9.1999998092651</ele>
        <time>2025-08-13T17:26:29.000Z</time>
      </trkpt>
      <trkpt lat="43.91286" lon="-1.32454">
        <ele>-9.3999996185303</ele>
        <time>2025-08-13T17:26:35.000Z</time>
      </trkpt>
      <trkpt lat="43.9129" lon="-1.32462">
        <ele>-9.3999996185303</ele>
        <time>2025-08-13T17:26:37.000Z</time>
      </trkpt>
      <trkpt lat="43.91299" lon="-1.32479">
        <ele>-9.3999996185303</ele>
        <time>2025-08-13T17:26:41.000Z</time>
      </trkpt>
      <trkpt lat="43.91294" lon="-1.32489">
        <ele>-9.3999996185303</ele>
        <time>2025-08-13T17:26:44.000Z</time>
      </trkpt>
      <trkpt lat="43.91284" lon="-1.32509">
        <ele>-9.1999998092651</ele>
        <time>2025-08-13T17:26:49.000Z</time>
      </trkpt>
      <trkpt lat="43.91273" lon="-1.3253">
        <ele>-9.1999998092651</ele>
        <time>2025-08-13T17:26:54.000Z</time>
      </trkpt>
      <trkpt lat="43.91262" lon="-1.32553">
        <ele>-9.6000003814697</ele>
        <time>2025-08-13T17:26:58.000Z</time>
      </trkpt>
      <trkpt lat="43.91263" lon="-1.32559">
        <ele>-9.6000003814697</ele>
        <time>2025-08-13T17:26:59.000Z</time>
      </trkpt>
      <trkpt lat="43.91262" lon="-1.32568">
        <ele>-9.8000001907349</ele>
        <time>2025-08-13T17:27:01.000Z</time>
      </trkpt>
      <trkpt lat="43.9126" lon="-1.32573">
        <ele>-10</ele>
        <time>2025-08-13T17:27:02.000Z</time>
      </trkpt>
      <trkpt lat="43.91252" lon="-1.32597">
        <ele>-10</ele>
        <time>2025-08-13T17:27:06.000Z</time>
      </trkpt>
      <trkpt lat="43.91249" lon="-1.32602">
        <ele>-10</ele>
        <time>2025-08-13T17:27:07.000Z</time>
      </trkpt>
      <trkpt lat="43.91238" lon="-1.32629">
        <ele>-10</ele>
        <time>2025-08-13T17:27:12.000Z</time>
      </trkpt>
      <trkpt lat="43.91236" lon="-1.32633">
        <ele>-9.8000001907349</ele>
        <time>2025-08-13T17:27:13.000Z</time>
      </trkpt>
      <trkpt lat="43.91226" lon="-1.32667">
        <ele>-9.1999998092651</ele>
        <time>2025-08-13T17:27:19.000Z</time>
      </trkpt>
      <trkpt lat="43.91218" lon="-1.32695">
        <ele>-9</ele>
        <time>2025-08-13T17:27:24.000Z</time>
      </trkpt>
      <trkpt lat="43.9121" lon="-1.32719">
        <ele>-9.1999998092651</ele>
        <time>2025-08-13T17:27:28.000Z</time>
      </trkpt>
      <trkpt lat="43.91203" lon="-1.32759">
        <ele>-9.1999998092651</ele>
        <time>2025-08-13T17:27:35.000Z</time>
      </trkpt>
      <trkpt lat="43.91203" lon="-1.32765">
        <ele>-9.1999998092651</ele>
        <time>2025-08-13T17:27:36.000Z</time>
      </trkpt>
      <trkpt lat="43.91205" lon="-1.328">
        <ele>-9.3999996185303</ele>
        <time>2025-08-13T17:27:42.000Z</time>
      </trkpt>
      <trkpt lat="43.91208" lon="-1.32833">
        <ele>-9.3999996185303</ele>
        <time>2025-08-13T17:27:48.000Z</time>
      </trkpt>
      <trkpt lat="43.91208" lon="-1.32839">
        <ele>-9.3999996185303</ele>
        <time>2025-08-13T17:27:49.000Z</time>
      </trkpt>
      <trkpt lat="43.91209" lon="-1.32844">
        <ele>-9.3999996185303</ele>
        <time>2025-08-13T17:27:50.000Z</time>
      </trkpt>
      <trkpt lat="43.91209" lon="-1.32861">
        <ele>-9.3999996185303</ele>
        <time>2025-08-13T17:27:53.000Z</time>
      </trkpt>
      <trkpt lat="43.91209" lon="-1.32867">
        <ele>-9.3999996185303</ele>
        <time>2025-08-13T17:27:54.000Z</time>
      </trkpt>
      <trkpt lat="43.91214" lon="-1.32914">
        <ele>-9.3999996185303</ele>
        <time>2025-08-13T17:28:02.000Z</time>
      </trkpt>
      <trkpt lat="43.91221" lon="-1.32972">
        <ele>-9.6000003814697</ele>
        <time>2025-08-13T17:28:11.000Z</time>
      </trkpt>
      <trkpt lat="43.91222" lon="-1.33012">
        <ele>-9.3999996185303</ele>
        <time>2025-08-13T17:28:18.000Z</time>
      </trkpt>
      <trkpt lat="43.9122" lon="-1.33044">
        <ele>-9</ele>
        <time>2025-08-13T17:28:24.000Z</time>
      </trkpt>
      <trkpt lat="43.9122" lon="-1.33057">
        <ele>-8.6000003814697</ele>
        <time>2025-08-13T17:28:28.000Z</time>
      </trkpt>
      <trkpt lat="43.91221" lon="-1.3306">
        <ele>-8.1999998092651</ele>
        <time>2025-08-13T17:28:29.000Z</time>
      </trkpt>
      <trkpt lat="43.91219" lon="-1.33075">
        <ele>-7.4000000953674</ele>
        <time>2025-08-13T17:28:33.000Z</time>
      </trkpt>
      <trkpt lat="43.91219" lon="-1.33086">
        <ele>-6.8000001907349</ele>
        <time>2025-08-13T17:28:36.000Z</time>
      </trkpt>
      <trkpt lat="43.9122" lon="-1.33094">
        <ele>-6.4000000953674</ele>
        <time>2025-08-13T17:28:39.000Z</time>
      </trkpt>
      <trkpt lat="43.91221" lon="-1.33103">
        <ele>-6</ele>
        <time>2025-08-13T17:28:42.000Z</time>
      </trkpt>
      <trkpt lat="43.91223" lon="-1.33114">
        <ele>-5.1999998092651</ele>
        <time>2025-08-13T17:28:46.000Z</time>
      </trkpt>
      <trkpt lat="43.91225" lon="-1.33126">
        <ele>-4.5999999046326</ele>
        <time>2025-08-13T17:28:51.000Z</time>
      </trkpt>
      <trkpt lat="43.91228" lon="-1.33135">
        <ele>-4</ele>
        <time>2025-08-13T17:28:54.000Z</time>
      </trkpt>
      <trkpt lat="43.9123" lon="-1.33143">
        <ele>-3.4000000953674</ele>
        <time>2025-08-13T17:28:57.000Z</time>
      </trkpt>
      <trkpt lat="43.91232" lon="-1.33151">
        <ele>-3</ele>
        <time>2025-08-13T17:29:00.000Z</time>
      </trkpt>
      <trkpt lat="43.91235" lon="-1.33162">
        <ele>-2.2000000476837</ele>
        <time>2025-08-13T17:29:04.000Z</time>
      </trkpt>
      <trkpt lat="43.91236" lon="-1.33167">
        <ele>-2</ele>
        <time>2025-08-13T17:29:06.000Z</time>
      </trkpt>
      <trkpt lat="43.91239" lon="-1.33177">
        <ele>-1.3999999761581</ele>
        <time>2025-08-13T17:29:09.000Z</time>
      </trkpt>
      <trkpt lat="43.91242" lon="-1.33188">
        <ele>-0.80000001192093</ele>
        <time>2025-08-13T17:29:13.000Z</time>
      </trkpt>
      <trkpt lat="43.91244" lon="-1.33196">
        <ele>-0.20000000298023</ele>
        <time>2025-08-13T17:29:16.000Z</time>
      </trkpt>
      <trkpt lat="43.91245" lon="-1.33199">
        <ele>25.2</ele>
        <time>2025-08-13T17:29:17.000Z</time>
      </trkpt>
      <trkpt lat="43.91246" lon="-1.33201">
        <ele>25.3</ele>
        <time>2025-08-13T17:29:18.000Z</time>
      </trkpt>
      <trkpt lat="43.91248" lon="-1.33207">
        <ele>0.40000000596046</ele>
        <time>2025-08-13T17:29:20.000Z</time>
      </trkpt>
      <trkpt lat="43.9125" lon="-1.33217">
        <ele>1</ele>
        <time>2025-08-13T17:29:24.000Z</time>
      </trkpt>
      <trkpt lat="43.9125" lon="-1.3322">
        <ele>1.2000000476837</ele>
        <time>2025-08-13T17:29:25.000Z</time>
      </trkpt>
      <trkpt lat="43.9125" lon="-1.33224">
        <ele>1.6000000238419</ele>
        <time>2025-08-13T17:29:27.000Z</time>
      </trkpt>
      <trkpt lat="43.91251" lon="-1.33227">
        <ele>2</ele>
        <time>2025-08-13T17:29:28.000Z</time>
      </trkpt>
      <trkpt lat="43.91251" lon="-1.33229">
        <ele>2.4000000953674</ele>
        <time>2025-08-13T17:29:30.000Z</time>
      </trkpt>
      <trkpt lat="43.91252" lon="-1.3323">
        <ele>3.2000000476837</ele>
        <time>2025-08-13T17:29:34.000Z</time>
      </trkpt>
      <trkpt lat="43.91253" lon="-1.33239">
        <ele>3.7999999523163</ele>
        <time>2025-08-13T17:29:41.000Z</time>
      </trkpt>
      <trkpt lat="43.91253" lon="-1.33246">
        <ele>4</ele>
        <time>2025-08-13T17:29:44.000Z</time>
      </trkpt>
      <trkpt lat="43.9125" lon="-1.33259">
        <ele>4.4000000953674</ele>
        <time>2025-08-13T17:29:50.000Z</time>
      </trkpt>
      <trkpt lat="43.91246" lon="-1.33272">
        <ele>4.8000001907349</ele>
        <time>2025-08-13T17:29:55.000Z</time>
      </trkpt>
      <trkpt lat="43.91243" lon="-1.33281">
        <ele>5.1999998092651</ele>
        <time>2025-08-13T17:29:59.000Z</time>
      </trkpt>
      <trkpt lat="43.91237" lon="-1.33293">
        <ele>5.8000001907349</ele>
        <time>2025-08-13T17:30:04.000Z</time>
      </trkpt>
      <trkpt lat="43.91231" lon="-1.33308">
        <ele>6.4000000953674</ele>
        <time>2025-08-13T17:30:10.000Z</time>
      </trkpt>
      <trkpt lat="43.9123" lon="-1.33319">
        <ele>6.8000001907349</ele>
        <time>2025-08-13T17:30:14.000Z</time>
      </trkpt>
      <trkpt lat="43.9123" lon="-1.33324">
        <ele>6.8000001907349</ele>
        <time>2025-08-13T17:30:16.000Z</time>
      </trkpt>
      <trkpt lat="43.91228" lon="-1.33344">
        <ele>7.1999998092651</ele>
        <time>2025-08-13T17:30:23.000Z</time>
      </trkpt>
      <trkpt lat="43.91227" lon="-1.33371">
        <ele>7.4000000953674</ele>
        <time>2025-08-13T17:30:31.000Z</time>
      </trkpt>
      <trkpt lat="43.91225" lon="-1.33397">
        <ele>7.8000001907349</ele>
        <time>2025-08-13T17:30:39.000Z</time>
      </trkpt>
      <trkpt lat="43.91224" lon="-1.33402">
        <ele>7.8000001907349</ele>
        <time>2025-08-13T17:30:41.000Z</time>
      </trkpt>
      <trkpt lat="43.91222" lon="-1.33415">
        <ele>8.1999998092651</ele>
        <time>2025-08-13T17:30:45.000Z</time>
      </trkpt>
      <trkpt lat="43.91221" lon="-1.33436">
        <ele>8.8000001907349</ele>
        <time>2025-08-13T17:30:51.000Z</time>
      </trkpt>
      <trkpt lat="43.91221" lon="-1.33444">
        <ele>9</ele>
        <time>2025-08-13T17:30:54.000Z</time>
      </trkpt>
      <trkpt lat="43.91224" lon="-1.33462">
        <ele>8.8000001907349</ele>
        <time>2025-08-13T17:31:00.000Z</time>
      </trkpt>
      <trkpt lat="43.91225" lon="-1.33496">
        <ele>8.6000003814697</ele>
        <time>2025-08-13T17:31:08.000Z</time>
      </trkpt>
      <trkpt lat="43.91225" lon="-1.33535">
        <ele>8.6000003814697</ele>
        <time>2025-08-13T17:31:15.000Z</time>
      </trkpt>
      <trkpt lat="43.91225" lon="-1.33574">
        <ele>8.3999996185303</ele>
        <time>2025-08-13T17:31:21.000Z</time>
      </trkpt>
      <trkpt lat="43.91226" lon="-1.33581">
        <ele>8.3999996185303</ele>
        <time>2025-08-13T17:31:22.000Z</time>
      </trkpt>
      <trkpt lat="43.91227" lon="-1.33604">
        <ele>8.3999996185303</ele>
        <time>2025-08-13T17:31:27.000Z</time>
      </trkpt>
      <trkpt lat="43.91224" lon="-1.33624">
        <ele>9.8000001907349</ele>
        <time>2025-08-13T17:31:32.000Z</time>
      </trkpt>
      <trkpt lat="43.91224" lon="-1.33628">
        <ele>10</ele>
        <time>2025-08-13T17:31:33.000Z</time>
      </trkpt>
      <trkpt lat="43.9122" lon="-1.33655">
        <ele>10.39999961853</ele>
        <time>2025-08-13T17:31:39.000Z</time>
      </trkpt>
      <trkpt lat="43.91217" lon="-1.33685">
        <ele>11</ele>
        <time>2025-08-13T17:31:46.000Z</time>
      </trkpt>
      <trkpt lat="43.9121" lon="-1.33715">
        <ele>11.800000190735</ele>
        <time>2025-08-13T17:31:53.000Z</time>
      </trkpt>
      <trkpt lat="43.91207" lon="-1.33724">
        <ele>12</ele>
        <time>2025-08-13T17:31:55.000Z</time>
      </trkpt>
      <trkpt lat="43.91201" lon="-1.33746">
        <ele>13</ele>
        <time>2025-08-13T17:32:00.000Z</time>
      </trkpt>
      <trkpt lat="43.912" lon="-1.3375">
        <ele>13.199999809265</ele>
        <time>2025-08-13T17:32:01.000Z</time>
      </trkpt>
      <trkpt lat="43.91188" lon="-1.33784">
        <ele>14.199999809265</ele>
        <time>2025-08-13T17:32:09.000Z</time>
      </trkpt>
      <trkpt lat="43.91175" lon="-1.33813">
        <ele>14.60000038147</ele>
        <time>2025-08-13T17:32:17.000Z</time>
      </trkpt>
      <trkpt lat="43.91166" lon="-1.33842">
        <ele>14.60000038147</ele>
        <time>2025-08-13T17:32:22.000Z</time>
      </trkpt>
      <trkpt lat="43.91159" lon="-1.33867">
        <ele>14.39999961853</ele>
        <time>2025-08-13T17:32:27.000Z</time>
      </trkpt>
      <trkpt lat="43.91154" lon="-1.33899">
        <ele>14.199999809265</ele>
        <time>2025-08-13T17:32:33.000Z</time>
      </trkpt>
      <trkpt lat="43.91152" lon="-1.33934">
        <ele>14.199999809265</ele>
        <time>2025-08-13T17:32:39.000Z</time>
      </trkpt>
      <trkpt lat="43.9115" lon="-1.33967">
        <ele>14.800000190735</ele>
        <time>2025-08-13T17:32:46.000Z</time>
      </trkpt>
      <trkpt lat="43.91152" lon="-1.33985">
        <ele>15.39999961853</ele>
        <time>2025-08-13T17:32:50.000Z</time>
      </trkpt>
      <trkpt lat="43.91154" lon="-1.33997">
        <ele>16</ele>
        <time>2025-08-13T17:32:53.000Z</time>
      </trkpt>
      <trkpt lat="43.91158" lon="-1.34011">
        <ele>16.39999961853</ele>
        <time>2025-08-13T17:32:57.000Z</time>
      </trkpt>
      <trkpt lat="43.91162" lon="-1.34024">
        <ele>17.200000762939</ele>
        <time>2025-08-13T17:33:01.000Z</time>
      </trkpt>
      <trkpt lat="43.91165" lon="-1.34031">
        <ele>17.39999961853</ele>
        <time>2025-08-13T17:33:03.000Z</time>
      </trkpt>
      <trkpt lat="43.91173" lon="-1.34051">
        <ele>18.200000762939</ele>
        <time>2025-08-13T17:33:09.000Z</time>
      </trkpt>
      <trkpt lat="43.91183" lon="-1.34075">
        <ele>18.200000762939</ele>
        <time>2025-08-13T17:33:14.000Z</time>
      </trkpt>
      <trkpt lat="43.91199" lon="-1.34113">
        <ele>17.799999237061</ele>
        <time>2025-08-13T17:33:21.000Z</time>
      </trkpt>
      <trkpt lat="43.91203" lon="-1.34125">
        <ele>17.39999961853</ele>
        <time>2025-08-13T17:33:23.000Z</time>
      </trkpt>
      <trkpt lat="43.91212" lon="-1.34149">
        <ele>16.799999237061</ele>
        <time>2025-08-13T17:33:27.000Z</time>
      </trkpt>
      <trkpt lat="43.91214" lon="-1.34163">
        <ele>16.60000038147</ele>
        <time>2025-08-13T17:33:29.000Z</time>
      </trkpt>
      <trkpt lat="43.91218" lon="-1.34177">
        <ele>16.39999961853</ele>
        <time>2025-08-13T17:33:31.000Z</time>
      </trkpt>
      <trkpt lat="43.91223" lon="-1.34202">
        <ele>16</ele>
        <time>2025-08-13T17:33:34.000Z</time>
      </trkpt>
      <trkpt lat="43.9123" lon="-1.34237">
        <ele>15.199999809265</ele>
        <time>2025-08-13T17:33:38.000Z</time>
      </trkpt>
      <trkpt lat="43.91234" lon="-1.34255">
        <ele>14.60000038147</ele>
        <time>2025-08-13T17:33:40.000Z</time>
      </trkpt>
      <trkpt lat="43.91237" lon="-1.34264">
        <ele>14.60000038147</ele>
        <time>2025-08-13T17:33:41.000Z</time>
      </trkpt>
      <trkpt lat="43.91241" lon="-1.34282">
        <ele>14</ele>
        <time>2025-08-13T17:33:43.000Z</time>
      </trkpt>
      <trkpt lat="43.91244" lon="-1.343">
        <ele>13.60000038147</ele>
        <time>2025-08-13T17:33:45.000Z</time>
      </trkpt>
      <trkpt lat="43.91251" lon="-1.34334">
        <ele>12.800000190735</ele>
        <time>2025-08-13T17:33:49.000Z</time>
      </trkpt>
      <trkpt lat="43.91256" lon="-1.34357">
        <ele>12.39999961853</ele>
        <time>2025-08-13T17:33:52.000Z</time>
      </trkpt>
      <trkpt lat="43.91264" lon="-1.34385">
        <ele>11.60000038147</ele>
        <time>2025-08-13T17:33:56.000Z</time>
      </trkpt>
      <trkpt lat="43.91266" lon="-1.34392">
        <ele>11.60000038147</ele>
        <time>2025-08-13T17:33:57.000Z</time>
      </trkpt>
      <trkpt lat="43.91267" lon="-1.34398">
        <ele>11.60000038147</ele>
        <time>2025-08-13T17:33:58.000Z</time>
      </trkpt>
      <trkpt lat="43.91271" lon="-1.34425">
        <ele>11.39999961853</ele>
        <time>2025-08-13T17:34:02.000Z</time>
      </trkpt>
      <trkpt lat="43.91272" lon="-1.34431">
        <ele>11.39999961853</ele>
        <time>2025-08-13T17:34:03.000Z</time>
      </trkpt>
      <trkpt lat="43.91274" lon="-1.34439">
        <ele>11.199999809265</ele>
        <time>2025-08-13T17:34:04.000Z</time>
      </trkpt>
      <trkpt lat="43.91277" lon="-1.34467">
        <ele>10.800000190735</ele>
        <time>2025-08-13T17:34:07.000Z</time>
      </trkpt>
      <trkpt lat="43.91277" lon="-1.34478">
        <ele>10.60000038147</ele>
        <time>2025-08-13T17:34:08.000Z</time>
      </trkpt>
      <trkpt lat="43.91278" lon="-1.345">
        <ele>10.199999809265</ele>
        <time>2025-08-13T17:34:10.000Z</time>
      </trkpt>
      <trkpt lat="43.91278" lon="-1.34523">
        <ele>9.6000003814697</ele>
        <time>2025-08-13T17:34:12.000Z</time>
      </trkpt>
      <trkpt lat="43.9128" lon="-1.34545">
        <ele>8.6000003814697</ele>
        <time>2025-08-13T17:34:14.000Z</time>
      </trkpt>
      <trkpt lat="43.91279" lon="-1.3458">
        <ele>7.4000000953674</ele>
        <time>2025-08-13T17:34:17.000Z</time>
      </trkpt>
      <trkpt lat="43.9128" lon="-1.3459">
        <ele>7.1999998092651</ele>
        <time>2025-08-13T17:34:18.000Z</time>
      </trkpt>
      <trkpt lat="43.91282" lon="-1.34611">
        <ele>6.1999998092651</ele>
        <time>2025-08-13T17:34:20.000Z</time>
      </trkpt>
      <trkpt lat="43.91281" lon="-1.34622">
        <ele>6</ele>
        <time>2025-08-13T17:34:21.000Z</time>
      </trkpt>
      <trkpt lat="43.91282" lon="-1.34651">
        <ele>5</ele>
        <time>2025-08-13T17:34:24.000Z</time>
      </trkpt>
      <trkpt lat="43.91281" lon="-1.34661">
        <ele>4.8000001907349</ele>
        <time>2025-08-13T17:34:25.000Z</time>
      </trkpt>
      <trkpt lat="43.91272" lon="-1.34708">
        <ele>4</ele>
        <time>2025-08-13T17:34:30.000Z</time>
      </trkpt>
      <trkpt lat="43.91272" lon="-1.34717">
        <ele>3.5999999046326</ele>
        <time>2025-08-13T17:34:31.000Z</time>
      </trkpt>
      <trkpt lat="43.9127" lon="-1.34752">
        <ele>2.7999999523163</ele>
        <time>2025-08-13T17:34:35.000Z</time>
      </trkpt>
      <trkpt lat="43.91267" lon="-1.3479">
        <ele>2.2000000476837</ele>
        <time>2025-08-13T17:34:39.000Z</time>
      </trkpt>
      <trkpt lat="43.91265" lon="-1.34806">
        <ele>1.7999999523163</ele>
        <time>2025-08-13T17:34:41.000Z</time>
      </trkpt>
      <trkpt lat="43.91262" lon="-1.34826">
        <ele>1.6000000238419</ele>
        <time>2025-08-13T17:34:44.000Z</time>
      </trkpt>
      <trkpt lat="43.91258" lon="-1.34845">
        <ele>1.3999999761581</ele>
        <time>2025-08-13T17:34:47.000Z</time>
      </trkpt>
      <trkpt lat="43.91256" lon="-1.34858">
        <ele>1.3999999761581</ele>
        <time>2025-08-13T17:34:49.000Z</time>
      </trkpt>
      <trkpt lat="43.91252" lon="-1.34874">
        <ele>1.6000000238419</ele>
        <time>2025-08-13T17:34:51.000Z</time>
      </trkpt>
      <trkpt lat="43.91249" lon="-1.34888">
        <ele>1.7999999523163</ele>
        <time>2025-08-13T17:34:53.000Z</time>
      </trkpt>
      <trkpt lat="43.91247" lon="-1.34904">
        <ele>1.7999999523163</ele>
        <time>2025-08-13T17:34:55.000Z</time>
      </trkpt>
      <trkpt lat="43.9124" lon="-1.34928">
        <ele>1.7999999523163</ele>
        <time>2025-08-13T17:34:58.000Z</time>
      </trkpt>
      <trkpt lat="43.91234" lon="-1.34945">
        <ele>1.6000000238419</ele>
        <time>2025-08-13T17:35:00.000Z</time>
      </trkpt>
      <trkpt lat="43.9123" lon="-1.34984">
        <ele>0.60000002384186</ele>
        <time>2025-08-13T17:35:04.000Z</time>
      </trkpt>
      <trkpt lat="43.9123" lon="-1.34993">
        <ele>0.40000000596046</ele>
        <time>2025-08-13T17:35:05.000Z</time>
      </trkpt>
      <trkpt lat="43.9123" lon="-1.35003">
        <ele>0.20000000298023</ele>
        <time>2025-08-13T17:35:06.000Z</time>
      </trkpt>
      <trkpt lat="43.91228" lon="-1.35034">
        <ele>-0.40000000596046</ele>
        <time>2025-08-13T17:35:09.000Z</time>
      </trkpt>
      <trkpt lat="43.91227" lon="-1.35045">
        <ele>-0.40000000596046</ele>
        <time>2025-08-13T17:35:10.000Z</time>
      </trkpt>
      <trkpt lat="43.91223" lon="-1.35094">
        <ele>-1.7999999523163</ele>
        <time>2025-08-13T17:35:15.000Z</time>
      </trkpt>
      <trkpt lat="43.91222" lon="-1.35104">
        <ele>-2</ele>
        <time>2025-08-13T17:35:16.000Z</time>
      </trkpt>
      <trkpt lat="43.91221" lon="-1.35122">
        <ele>-2.7999999523163</ele>
        <time>2025-08-13T17:35:18.000Z</time>
      </trkpt>
      <trkpt lat="43.91218" lon="-1.35155">
        <ele>-4</ele>
        <time>2025-08-13T17:35:22.000Z</time>
      </trkpt>
      <trkpt lat="43.9122" lon="-1.3518">
        <ele>-4.5999999046326</ele>
        <time>2025-08-13T17:35:25.000Z</time>
      </trkpt>
      <trkpt lat="43.91222" lon="-1.35189">
        <ele>-4.8000001907349</ele>
        <time>2025-08-13T17:35:26.000Z</time>
      </trkpt>
      <trkpt lat="43.91224" lon="-1.35197">
        <ele>-5.1999998092651</ele>
        <time>2025-08-13T17:35:27.000Z</time>
      </trkpt>
      <trkpt lat="43.91234" lon="-1.35212">
        <ele>-5.8000001907349</ele>
        <time>2025-08-13T17:35:29.000Z</time>
      </trkpt>
      <trkpt lat="43.91247" lon="-1.35226">
        <ele>-6.4000000953674</ele>
        <time>2025-08-13T17:35:31.000Z</time>
      </trkpt>
      <trkpt lat="43.91263" lon="-1.35238">
        <ele>-7</ele>
        <time>2025-08-13T17:35:33.000Z</time>
      </trkpt>
      <trkpt lat="43.91271" lon="-1.35243">
        <ele>-7.5999999046326</ele>
        <time>2025-08-13T17:35:34.000Z</time>
      </trkpt>
      <trkpt lat="43.91287" lon="-1.35253">
        <ele>-9</ele>
        <time>2025-08-13T17:35:36.000Z</time>
      </trkpt>
      <trkpt lat="43.91302" lon="-1.35263">
        <ele>-10.199999809265</ele>
        <time>2025-08-13T17:35:38.000Z</time>
      </trkpt>
      <trkpt lat="43.9131" lon="-1.35268">
        <ele>-10.800000190735</ele>
        <time>2025-08-13T17:35:39.000Z</time>
      </trkpt>
      <trkpt lat="43.91324" lon="-1.35276">
        <ele>-11.800000190735</ele>
        <time>2025-08-13T17:35:41.000Z</time>
      </trkpt>
      <trkpt lat="43.91343" lon="-1.35288">
        <ele>-12.39999961853</ele>
        <time>2025-08-13T17:35:44.000Z</time>
      </trkpt>
      <trkpt lat="43.91367" lon="-1.35301">
        <ele>-12.800000190735</ele>
        <time>2025-08-13T17:35:48.000Z</time>
      </trkpt>
      <trkpt lat="43.91377" lon="-1.35303">
        <ele>-12.800000190735</ele>
        <time>2025-08-13T17:35:50.000Z</time>
      </trkpt>
      <trkpt lat="43.91409" lon="-1.35302">
        <ele>-13</ele>
        <time>2025-08-13T17:35:56.000Z</time>
      </trkpt>
      <trkpt lat="43.91456" lon="-1.35296">
        <ele>-13</ele>
        <time>2025-08-13T17:36:05.000Z</time>
      </trkpt>
      <trkpt lat="43.91499" lon="-1.35289">
        <ele>-12.60000038147</ele>
        <time>2025-08-13T17:36:13.000Z</time>
      </trkpt>
      <trkpt lat="43.91505" lon="-1.35288">
        <ele>-12.60000038147</ele>
        <time>2025-08-13T17:36:14.000Z</time>
      </trkpt>
      <trkpt lat="43.91515" lon="-1.35289">
        <ele>-12.60000038147</ele>
        <time>2025-08-13T17:36:16.000Z</time>
      </trkpt>
      <trkpt lat="43.91525" lon="-1.35287">
        <ele>-12.60000038147</ele>
        <time>2025-08-13T17:36:18.000Z</time>
      </trkpt>
      <trkpt lat="43.91535" lon="-1.35285">
        <ele>-12.60000038147</ele>
        <time>2025-08-13T17:36:20.000Z</time>
      </trkpt>
      <trkpt lat="43.9155" lon="-1.35286">
        <ele>-12.60000038147</ele>
        <time>2025-08-13T17:36:23.000Z</time>
      </trkpt>
      <trkpt lat="43.91571" lon="-1.35284">
        <ele>-12.800000190735</ele>
        <time>2025-08-13T17:36:28.000Z</time>
      </trkpt>
      <trkpt lat="43.91596" lon="-1.35288">
        <ele>-12.60000038147</ele>
        <time>2025-08-13T17:36:34.000Z</time>
      </trkpt>
      <trkpt lat="43.91614" lon="-1.35288">
        <ele>-12.39999961853</ele>
        <time>2025-08-13T17:36:39.000Z</time>
      </trkpt>
      <trkpt lat="43.91618" lon="-1.35291">
        <ele>-12.199999809265</ele>
        <time>2025-08-13T17:36:40.000Z</time>
      </trkpt>
      <trkpt lat="43.91635" lon="-1.35303">
        <ele>-12</ele>
        <time>2025-08-13T17:36:43.000Z</time>
      </trkpt>
      <trkpt lat="43.91642" lon="-1.35308">
        <ele>-12</ele>
        <time>2025-08-13T17:36:44.000Z</time>
      </trkpt>
      <trkpt lat="43.91667" lon="-1.35324">
        <ele>-12.199999809265</ele>
        <time>2025-08-13T17:36:49.000Z</time>
      </trkpt>
      <trkpt lat="43.91679" lon="-1.35334">
        <ele>-12.60000038147</ele>
        <time>2025-08-13T17:36:52.000Z</time>
      </trkpt>
      <trkpt lat="43.91686" lon="-1.3534">
        <ele>-12.39999961853</ele>
        <time>2025-08-13T17:36:54.000Z</time>
      </trkpt>
      <trkpt lat="43.91707" lon="-1.35354">
        <ele>-12.60000038147</ele>
        <time>2025-08-13T17:37:00.000Z</time>
      </trkpt>
      <trkpt lat="43.91715" lon="-1.35359">
        <ele>-12.60000038147</ele>
        <time>2025-08-13T17:37:02.000Z</time>
      </trkpt>
      <trkpt lat="43.9172" lon="-1.35362">
        <ele>-12.60000038147</ele>
        <time>2025-08-13T17:37:03.000Z</time>
      </trkpt>
      <trkpt lat="43.9173" lon="-1.35369">
        <ele>-12.800000190735</ele>
        <time>2025-08-13T17:37:05.000Z</time>
      </trkpt>
      <trkpt lat="43.91739" lon="-1.35376">
        <ele>-12.800000190735</ele>
        <time>2025-08-13T17:37:07.000Z</time>
      </trkpt>
      <trkpt lat="43.91779" lon="-1.35401">
        <ele>-13.39999961853</ele>
        <time>2025-08-13T17:37:15.000Z</time>
      </trkpt>
      <trkpt lat="43.91807" lon="-1.35419">
        <ele>-13.60000038147</ele>
        <time>2025-08-13T17:37:21.000Z</time>
      </trkpt>
      <trkpt lat="43.91827" lon="-1.3543">
        <ele>-13.60000038147</ele>
        <time>2025-08-13T17:37:25.000Z</time>
      </trkpt>
      <trkpt lat="43.91836" lon="-1.35435">
        <ele>-13.199999809265</ele>
        <time>2025-08-13T17:37:27.000Z</time>
      </trkpt>
      <trkpt lat="43.91871" lon="-1.35455">
        <ele>-13.39999961853</ele>
        <time>2025-08-13T17:37:34.000Z</time>
      </trkpt>
      <trkpt lat="43.91899" lon="-1.35475">
        <ele>-13.39999961853</ele>
        <time>2025-08-13T17:37:40.000Z</time>
      </trkpt>
      <trkpt lat="43.91925" lon="-1.35494">
        <ele>-13.39999961853</ele>
        <time>2025-08-13T17:37:47.000Z</time>
      </trkpt>
      <trkpt lat="43.91929" lon="-1.35498">
        <ele>-13.39999961853</ele>
        <time>2025-08-13T17:37:48.000Z</time>
      </trkpt>
      <trkpt lat="43.91942" lon="-1.35508">
        <ele>-13.39999961853</ele>
        <time>2025-08-13T17:37:51.000Z</time>
      </trkpt>
      <trkpt lat="43.91946" lon="-1.35511">
        <ele>-13.39999961853</ele>
        <time>2025-08-13T17:37:52.000Z</time>
      </trkpt>
      <trkpt lat="43.91975" lon="-1.35536">
        <ele>-13.199999809265</ele>
        <time>2025-08-13T17:37:59.000Z</time>
      </trkpt>
      <trkpt lat="43.91986" lon="-1.35551">
        <ele>-13.39999961853</ele>
        <time>2025-08-13T17:38:02.000Z</time>
      </trkpt>
      <trkpt lat="43.91998" lon="-1.35563">
        <ele>-13.39999961853</ele>
        <time>2025-08-13T17:38:05.000Z</time>
      </trkpt>
      <trkpt lat="43.92026" lon="-1.35591">
        <ele>-13.800000190735</ele>
        <time>2025-08-13T17:38:12.000Z</time>
      </trkpt>
      <trkpt lat="43.92029" lon="-1.35592">
        <ele>-13.800000190735</ele>
        <time>2025-08-13T17:38:13.000Z</time>
      </trkpt>
      <trkpt lat="43.92034" lon="-1.35595">
        <ele>-14</ele>
        <time>2025-08-13T17:38:14.000Z</time>
      </trkpt>
      <trkpt lat="43.92063" lon="-1.35606">
        <ele>-14</ele>
        <time>2025-08-13T17:38:20.000Z</time>
      </trkpt>
      <trkpt lat="43.92072" lon="-1.35609">
        <ele>-14</ele>
        <time>2025-08-13T17:38:22.000Z</time>
      </trkpt>
      <trkpt lat="43.9209" lon="-1.35615">
        <ele>-14</ele>
        <time>2025-08-13T17:38:26.000Z</time>
      </trkpt>
      <trkpt lat="43.92121" lon="-1.35616">
        <ele>-14</ele>
        <time>2025-08-13T17:38:32.000Z</time>
      </trkpt>
      <trkpt lat="43.92126" lon="-1.35615">
        <ele>-14</ele>
        <time>2025-08-13T17:38:33.000Z</time>
      </trkpt>
      <trkpt lat="43.9214" lon="-1.35614">
        <ele>-14</ele>
        <time>2025-08-13T17:38:36.000Z</time>
      </trkpt>
      <trkpt lat="43.92154" lon="-1.35611">
        <ele>-14</ele>
        <time>2025-08-13T17:38:39.000Z</time>
      </trkpt>
      <trkpt lat="43.92162" lon="-1.35611">
        <ele>-14</ele>
        <time>2025-08-13T17:38:41.000Z</time>
      </trkpt>
      <trkpt lat="43.92179" lon="-1.35607">
        <ele>-13.800000190735</ele>
        <time>2025-08-13T17:38:45.000Z</time>
      </trkpt>
      <trkpt lat="43.922" lon="-1.35601">
        <ele>-13</ele>
        <time>2025-08-13T17:38:51.000Z</time>
      </trkpt>
      <trkpt lat="43.92232" lon="-1.35588">
        <ele>-12.60000038147</ele>
        <time>2025-08-13T17:38:59.000Z</time>
      </trkpt>
      <trkpt lat="43.92258" lon="-1.35574">
        <ele>-12.39999961853</ele>
        <time>2025-08-13T17:39:06.000Z</time>
      </trkpt>
      <trkpt lat="43.92289" lon="-1.35561">
        <ele>-12.60000038147</ele>
        <time>2025-08-13T17:39:13.000Z</time>
      </trkpt>
      <trkpt lat="43.92305" lon="-1.35555">
        <ele>-13</ele>
        <time>2025-08-13T17:39:17.000Z</time>
      </trkpt>
      <trkpt lat="43.9231" lon="-1.35552">
        <ele>-13</ele>
        <time>2025-08-13T17:39:18.000Z</time>
      </trkpt>
      <trkpt lat="43.92332" lon="-1.35541">
        <ele>-13.199999809265</ele>
        <time>2025-08-13T17:39:23.000Z</time>
      </trkpt>
      <trkpt lat="43.92358" lon="-1.35523">
        <ele>-13.199999809265</ele>
        <time>2025-08-13T17:39:30.000Z</time>
      </trkpt>
      <trkpt lat="43.92376" lon="-1.35514">
        <ele>-13.39999961853</ele>
        <time>2025-08-13T17:39:35.000Z</time>
      </trkpt>
      <trkpt lat="43.92402" lon="-1.35501">
        <ele>-13.39999961853</ele>
        <time>2025-08-13T17:39:40.000Z</time>
      </trkpt>
      <trkpt lat="43.92423" lon="-1.35485">
        <ele>-13.39999961853</ele>
        <time>2025-08-13T17:39:45.000Z</time>
      </trkpt>
      <trkpt lat="43.92446" lon="-1.35477">
        <ele>-13</ele>
        <time>2025-08-13T17:39:52.000Z</time>
      </trkpt>
      <trkpt lat="43.92463" lon="-1.35469">
        <ele>-12.39999961853</ele>
        <time>2025-08-13T17:39:58.000Z</time>
      </trkpt>
      <trkpt lat="43.92478" lon="-1.35461">
        <ele>-12</ele>
        <time>2025-08-13T17:40:02.000Z</time>
      </trkpt>
      <trkpt lat="43.92495" lon="-1.35449">
        <ele>-11.60000038147</ele>
        <time>2025-08-13T17:40:07.000Z</time>
      </trkpt>
      <trkpt lat="43.92515" lon="-1.3543">
        <ele>-11.199999809265</ele>
        <time>2025-08-13T17:40:13.000Z</time>
      </trkpt>
      <trkpt lat="43.92539" lon="-1.35403">
        <ele>-11</ele>
        <time>2025-08-13T17:40:20.000Z</time>
      </trkpt>
      <trkpt lat="43.92543" lon="-1.35398">
        <ele>-11</ele>
        <time>2025-08-13T17:40:21.000Z</time>
      </trkpt>
      <trkpt lat="43.92552" lon="-1.35385">
        <ele>-11</ele>
        <time>2025-08-13T17:40:24.000Z</time>
      </trkpt>
      <trkpt lat="43.92559" lon="-1.35376">
        <ele>-11</ele>
        <time>2025-08-13T17:40:26.000Z</time>
      </trkpt>
      <trkpt lat="43.92562" lon="-1.35372">
        <ele>-11</ele>
        <time>2025-08-13T17:40:27.000Z</time>
      </trkpt>
      <trkpt lat="43.92582" lon="-1.3534">
        <ele>-11.39999961853</ele>
        <time>2025-08-13T17:40:34.000Z</time>
      </trkpt>
      <trkpt lat="43.92604" lon="-1.35308">
        <ele>-11.60000038147</ele>
        <time>2025-08-13T17:40:40.000Z</time>
      </trkpt>
      <trkpt lat="43.92624" lon="-1.35279">
        <ele>-11.60000038147</ele>
        <time>2025-08-13T17:40:47.000Z</time>
      </trkpt>
      <trkpt lat="43.92652" lon="-1.35246">
        <ele>-11.60000038147</ele>
        <time>2025-08-13T17:40:55.000Z</time>
      </trkpt>
      <trkpt lat="43.92681" lon="-1.35218">
        <ele>-12</ele>
        <time>2025-08-13T17:41:02.000Z</time>
      </trkpt>
      <trkpt lat="43.92685" lon="-1.35215">
        <ele>-12</ele>
        <time>2025-08-13T17:41:03.000Z</time>
      </trkpt>
      <trkpt lat="43.92712" lon="-1.35191">
        <ele>-12</ele>
        <time>2025-08-13T17:41:10.000Z</time>
      </trkpt>
      <trkpt lat="43.9275" lon="-1.35165">
        <ele>-12</ele>
        <time>2025-08-13T17:41:19.000Z</time>
      </trkpt>
      <trkpt lat="43.92764" lon="-1.35163">
        <ele>-11.800000190735</ele>
        <time>2025-08-13T17:41:22.000Z</time>
      </trkpt>
      <trkpt lat="43.92772" lon="-1.35165">
        <ele>-11.800000190735</ele>
        <time>2025-08-13T17:41:24.000Z</time>
      </trkpt>
      <trkpt lat="43.92795" lon="-1.35165">
        <ele>-11.800000190735</ele>
        <time>2025-08-13T17:41:29.000Z</time>
      </trkpt>
      <trkpt lat="43.92815" lon="-1.35164">
        <ele>-11.60000038147</ele>
        <time>2025-08-13T17:41:33.000Z</time>
      </trkpt>
      <trkpt lat="43.92833" lon="-1.35165">
        <ele>-11.60000038147</ele>
        <time>2025-08-13T17:41:37.000Z</time>
      </trkpt>
      <trkpt lat="43.92856" lon="-1.35169">
        <ele>-11.60000038147</ele>
        <time>2025-08-13T17:41:42.000Z</time>
      </trkpt>
      <trkpt lat="43.92864" lon="-1.35173">
        <ele>-11.60000038147</ele>
        <time>2025-08-13T17:41:44.000Z</time>
      </trkpt>
      <trkpt lat="43.92892" lon="-1.35178">
        <ele>-11.199999809265</ele>
        <time>2025-08-13T17:41:51.000Z</time>
      </trkpt>
      <trkpt lat="43.92909" lon="-1.35183">
        <ele>-10.800000190735</ele>
        <time>2025-08-13T17:41:55.000Z</time>
      </trkpt>
      <trkpt lat="43.9292" lon="-1.35188">
        <ele>-10.800000190735</ele>
        <time>2025-08-13T17:41:58.000Z</time>
      </trkpt>
      <trkpt lat="43.92941" lon="-1.35196">
        <ele>-10.60000038147</ele>
        <time>2025-08-13T17:42:04.000Z</time>
      </trkpt>
      <trkpt lat="43.92968" lon="-1.35202">
        <ele>-10.60000038147</ele>
        <time>2025-08-13T17:42:11.000Z</time>
      </trkpt>
      <trkpt lat="43.92985" lon="-1.35206">
        <ele>-10.60000038147</ele>
        <time>2025-08-13T17:42:15.000Z</time>
      </trkpt>
      <trkpt lat="43.92996" lon="-1.3521">
        <ele>-11</ele>
        <time>2025-08-13T17:42:18.000Z</time>
      </trkpt>
      <trkpt lat="43.93019" lon="-1.35216">
        <ele>-11.199999809265</ele>
        <time>2025-08-13T17:42:24.000Z</time>
      </trkpt>
      <trkpt lat="43.93051" lon="-1.35228">
        <ele>-11.60000038147</ele>
        <time>2025-08-13T17:42:32.000Z</time>
      </trkpt>
      <trkpt lat="43.93078" lon="-1.35236">
        <ele>-11.60000038147</ele>
        <time>2025-08-13T17:42:38.000Z</time>
      </trkpt>
      <trkpt lat="43.93102" lon="-1.35241">
        <ele>-11.60000038147</ele>
        <time>2025-08-13T17:42:43.000Z</time>
      </trkpt>
      <trkpt lat="43.93128" lon="-1.35247">
        <ele>-11.39999961853</ele>
        <time>2025-08-13T17:42:49.000Z</time>
      </trkpt>
      <trkpt lat="43.93158" lon="-1.35254">
        <ele>-11.199999809265</ele>
        <time>2025-08-13T17:42:57.000Z</time>
      </trkpt>
      <trkpt lat="43.93188" lon="-1.35261">
        <ele>-11.199999809265</ele>
        <time>2025-08-13T17:43:04.000Z</time>
      </trkpt>
      <trkpt lat="43.93218" lon="-1.35267">
        <ele>-11.39999961853</ele>
        <time>2025-08-13T17:43:10.000Z</time>
      </trkpt>
      <trkpt lat="43.93263" lon="-1.35281">
        <ele>-11.60000038147</ele>
        <time>2025-08-13T17:43:19.000Z</time>
      </trkpt>
      <trkpt lat="43.93284" lon="-1.35288">
        <ele>-11.60000038147</ele>
        <time>2025-08-13T17:43:23.000Z</time>
      </trkpt>
      <trkpt lat="43.93289" lon="-1.35289">
        <ele>-11.800000190735</ele>
        <time>2025-08-13T17:43:24.000Z</time>
      </trkpt>
      <trkpt lat="43.93316" lon="-1.35298">
        <ele>-11.800000190735</ele>
        <time>2025-08-13T17:43:30.000Z</time>
      </trkpt>
      <trkpt lat="43.93322" lon="-1.35304">
        <ele>-11.800000190735</ele>
        <time>2025-08-13T17:43:32.000Z</time>
      </trkpt>
      <trkpt lat="43.93354" lon="-1.3533">
        <ele>-11.39999961853</ele>
        <time>2025-08-13T17:43:40.000Z</time>
      </trkpt>
      <trkpt lat="43.93388" lon="-1.3536">
        <ele>-11.199999809265</ele>
        <time>2025-08-13T17:43:49.000Z</time>
      </trkpt>
      <trkpt lat="43.93414" lon="-1.35384">
        <ele>-11.199999809265</ele>
        <time>2025-08-13T17:43:56.000Z</time>
      </trkpt>
      <trkpt lat="43.93422" lon="-1.35391">
        <ele>-11.39999961853</ele>
        <time>2025-08-13T17:43:58.000Z</time>
      </trkpt>
      <trkpt lat="43.9346" lon="-1.35426">
        <ele>-12</ele>
        <time>2025-08-13T17:44:07.000Z</time>
      </trkpt>
      <trkpt lat="43.93497" lon="-1.35459">
        <ele>-12.800000190735</ele>
        <time>2025-08-13T17:44:15.000Z</time>
      </trkpt>
      <trkpt lat="43.93506" lon="-1.35468">
        <ele>-12.800000190735</ele>
        <time>2025-08-13T17:44:17.000Z</time>
      </trkpt>
      <trkpt lat="43.93524" lon="-1.35485">
        <ele>-13</ele>
        <time>2025-08-13T17:44:21.000Z</time>
      </trkpt>
      <trkpt lat="43.93527" lon="-1.35491">
        <ele>-13</ele>
        <time>2025-08-13T17:44:22.000Z</time>
      </trkpt>
      <trkpt lat="43.93529" lon="-1.35497">
        <ele>-13.199999809265</ele>
        <time>2025-08-13T17:44:23.000Z</time>
      </trkpt>
      <trkpt lat="43.93531" lon="-1.35513">
        <ele>-13.199999809265</ele>
        <time>2025-08-13T17:44:25.000Z</time>
      </trkpt>
      <trkpt lat="43.93538" lon="-1.35564">
        <ele>-13.39999961853</ele>
        <time>2025-08-13T17:44:32.000Z</time>
      </trkpt>
      <trkpt lat="43.93543" lon="-1.35575">
        <ele>-13.39999961853</ele>
        <time>2025-08-13T17:44:34.000Z</time>
      </trkpt>
      <trkpt lat="43.93549" lon="-1.35583">
        <ele>-13.39999961853</ele>
        <time>2025-08-13T17:44:36.000Z</time>
      </trkpt>
      <trkpt lat="43.93553" lon="-1.35587">
        <ele>-13.39999961853</ele>
        <time>2025-08-13T17:44:37.000Z</time>
      </trkpt>
      <trkpt lat="43.93563" lon="-1.35594">
        <ele>-13.199999809265</ele>
        <time>2025-08-13T17:44:41.000Z</time>
      </trkpt>
      <trkpt lat="43.93588" lon="-1.35596">
        <ele>-13.39999961853</ele>
        <time>2025-08-13T17:44:48.000Z</time>
      </trkpt>
      <trkpt lat="43.93614" lon="-1.35596">
        <ele>-13.800000190735</ele>
        <time>2025-08-13T17:44:54.000Z</time>
      </trkpt>
      <trkpt lat="43.93645" lon="-1.35591">
        <ele>-13.39999961853</ele>
        <time>2025-08-13T17:45:01.000Z</time>
      </trkpt>
      <trkpt lat="43.93666" lon="-1.35579">
        <ele>-13</ele>
        <time>2025-08-13T17:45:06.000Z</time>
      </trkpt>
      <trkpt lat="43.93688" lon="-1.35567">
        <ele>-13</ele>
        <time>2025-08-13T17:45:12.000Z</time>
      </trkpt>
      <trkpt lat="43.93703" lon="-1.3556">
        <ele>-13</ele>
        <time>2025-08-13T17:45:16.000Z</time>
      </trkpt>
      <trkpt lat="43.93705" lon="-1.35554">
        <ele>-13</ele>
        <time>2025-08-13T17:45:17.000Z</time>
      </trkpt>
      <trkpt lat="43.93718" lon="-1.3554">
        <ele>-13</ele>
        <time>2025-08-13T17:45:21.000Z</time>
      </trkpt>
      <trkpt lat="43.93721" lon="-1.35538">
        <ele>-13</ele>
        <time>2025-08-13T17:45:22.000Z</time>
      </trkpt>
      <trkpt lat="43.93727" lon="-1.35536">
        <ele>-13.199999809265</ele>
        <time>2025-08-13T17:45:24.000Z</time>
      </trkpt>
      <trkpt lat="43.93747" lon="-1.35534">
        <ele>-13.39999961853</ele>
        <time>2025-08-13T17:45:29.000Z</time>
      </trkpt>
      <trkpt lat="43.93776" lon="-1.35533">
        <ele>-13.39999961853</ele>
        <time>2025-08-13T17:45:36.000Z</time>
      </trkpt>
      <trkpt lat="43.9381" lon="-1.35526">
        <ele>-13.199999809265</ele>
        <time>2025-08-13T17:45:44.000Z</time>
      </trkpt>
      <trkpt lat="43.93833" lon="-1.35538">
        <ele>-13</ele>
        <time>2025-08-13T17:45:49.000Z</time>
      </trkpt>
      <trkpt lat="43.93854" lon="-1.3555">
        <ele>-13</ele>
        <time>2025-08-13T17:45:55.000Z</time>
      </trkpt>
      <trkpt lat="43.93871" lon="-1.35551">
        <ele>-13.199999809265</ele>
        <time>2025-08-13T17:46:00.000Z</time>
      </trkpt>
      <trkpt lat="43.93887" lon="-1.35551">
        <ele>-13.39999961853</ele>
        <time>2025-08-13T17:46:04.000Z</time>
      </trkpt>
      <trkpt lat="43.93896" lon="-1.35544">
        <ele>-13.39999961853</ele>
        <time>2025-08-13T17:46:06.000Z</time>
      </trkpt>
      <trkpt lat="43.93898" lon="-1.35539">
        <ele>-13.39999961853</ele>
        <time>2025-08-13T17:46:07.000Z</time>
      </trkpt>
      <trkpt lat="43.93911" lon="-1.35527">
        <ele>-13.60000038147</ele>
        <time>2025-08-13T17:46:11.000Z</time>
      </trkpt>
      <trkpt lat="43.9393" lon="-1.3552">
        <ele>-13.39999961853</ele>
        <time>2025-08-13T17:46:16.000Z</time>
      </trkpt>
      <trkpt lat="43.93949" lon="-1.35505">
        <ele>-12.39999961853</ele>
        <time>2025-08-13T17:46:23.000Z</time>
      </trkpt>
      <trkpt lat="43.93968" lon="-1.35493">
        <ele>-12.39999961853</ele>
        <time>2025-08-13T17:46:29.000Z</time>
      </trkpt>
      <trkpt lat="43.93991" lon="-1.35467">
        <ele>-12.39999961853</ele>
        <time>2025-08-13T17:46:36.000Z</time>
      </trkpt>
      <trkpt lat="43.94008" lon="-1.35446">
        <ele>-12.60000038147</ele>
        <time>2025-08-13T17:46:42.000Z</time>
      </trkpt>
      <trkpt lat="43.94027" lon="-1.35439">
        <ele>-12.60000038147</ele>
        <time>2025-08-13T17:46:48.000Z</time>
      </trkpt>
      <trkpt lat="43.94046" lon="-1.35436">
        <ele>-12.39999961853</ele>
        <time>2025-08-13T17:46:54.000Z</time>
      </trkpt>
      <trkpt lat="43.94056" lon="-1.35433">
        <ele>-11.60000038147</ele>
        <time>2025-08-13T17:46:58.000Z</time>
      </trkpt>
      <trkpt lat="43.94061" lon="-1.35431">
        <ele>-11.39999961853</ele>
        <time>2025-08-13T17:47:00.000Z</time>
      </trkpt>
      <trkpt lat="43.94075" lon="-1.35426">
        <ele>-11.199999809265</ele>
        <time>2025-08-13T17:47:03.000Z</time>
      </trkpt>
      <trkpt lat="43.9408" lon="-1.35426">
        <ele>-11.199999809265</ele>
        <time>2025-08-13T17:47:04.000Z</time>
      </trkpt>
      <trkpt lat="43.94085" lon="-1.35425">
        <ele>-11.199999809265</ele>
        <time>2025-08-13T17:47:05.000Z</time>
      </trkpt>
      <trkpt lat="43.94105" lon="-1.35427">
        <ele>-11.60000038147</ele>
        <time>2025-08-13T17:47:09.000Z</time>
      </trkpt>
      <trkpt lat="43.94109" lon="-1.35427">
        <ele>-11.800000190735</ele>
        <time>2025-08-13T17:47:10.000Z</time>
      </trkpt>
      <trkpt lat="43.94137" lon="-1.35434">
        <ele>-11.800000190735</ele>
        <time>2025-08-13T17:47:16.000Z</time>
      </trkpt>
      <trkpt lat="43.94159" lon="-1.35443">
        <ele>-11.800000190735</ele>
        <time>2025-08-13T17:47:20.000Z</time>
      </trkpt>
      <trkpt lat="43.94188" lon="-1.35454">
        <ele>-12.800000190735</ele>
        <time>2025-08-13T17:47:25.000Z</time>
      </trkpt>
      <trkpt lat="43.94192" lon="-1.35456">
        <ele>-13</ele>
        <time>2025-08-13T17:47:26.000Z</time>
      </trkpt>
      <trkpt lat="43.9421" lon="-1.35461">
        <ele>-13.199999809265</ele>
        <time>2025-08-13T17:47:30.000Z</time>
      </trkpt>
      <trkpt lat="43.94218" lon="-1.35462">
        <ele>-13.199999809265</ele>
        <time>2025-08-13T17:47:32.000Z</time>
      </trkpt>
      <trkpt lat="43.94231" lon="-1.35464">
        <ele>-13.199999809265</ele>
        <time>2025-08-13T17:47:35.000Z</time>
      </trkpt>
      <trkpt lat="43.94252" lon="-1.35466">
        <ele>-13.199999809265</ele>
        <time>2025-08-13T17:47:40.000Z</time>
      </trkpt>
      <trkpt lat="43.94287" lon="-1.35468">
        <ele>-13.39999961853</ele>
        <time>2025-08-13T17:47:48.000Z</time>
      </trkpt>
      <trkpt lat="43.94316" lon="-1.35472">
        <ele>-13.60000038147</ele>
        <time>2025-08-13T17:47:55.000Z</time>
      </trkpt>
      <trkpt lat="43.94342" lon="-1.35472">
        <ele>-13.60000038147</ele>
        <time>2025-08-13T17:48:01.000Z</time>
      </trkpt>
      <trkpt lat="43.94365" lon="-1.35474">
        <ele>-13.60000038147</ele>
        <time>2025-08-13T17:48:06.000Z</time>
      </trkpt>
      <trkpt lat="43.94372" lon="-1.35475">
        <ele>-13.39999961853</ele>
        <time>2025-08-13T17:48:08.000Z</time>
      </trkpt>
      <trkpt lat="43.94384" lon="-1.35476">
        <ele>-13.39999961853</ele>
        <time>2025-08-13T17:48:11.000Z</time>
      </trkpt>
      <trkpt lat="43.94393" lon="-1.35476">
        <ele>-13.39999961853</ele>
        <time>2025-08-13T17:48:13.000Z</time>
      </trkpt>
      <trkpt lat="43.9442" lon="-1.35473">
        <ele>-13.199999809265</ele>
        <time>2025-08-13T17:48:20.000Z</time>
      </trkpt>
      <trkpt lat="43.9444" lon="-1.35461">
        <ele>-12.39999961853</ele>
        <time>2025-08-13T17:48:26.000Z</time>
      </trkpt>
      <trkpt lat="43.94459" lon="-1.35449">
        <ele>-11.60000038147</ele>
        <time>2025-08-13T17:48:33.000Z</time>
      </trkpt>
      <trkpt lat="43.94479" lon="-1.35434">
        <ele>-10.39999961853</ele>
        <time>2025-08-13T17:48:40.000Z</time>
      </trkpt>
      <trkpt lat="43.94484" lon="-1.35429">
        <ele>-10.199999809265</ele>
        <time>2025-08-13T17:48:42.000Z</time>
      </trkpt>
      <trkpt lat="43.94501" lon="-1.35412">
        <ele>-10</ele>
        <time>2025-08-13T17:48:47.000Z</time>
      </trkpt>
      <trkpt lat="43.9452" lon="-1.35389">
        <ele>-10</ele>
        <time>2025-08-13T17:48:51.000Z</time>
      </trkpt>
      <trkpt lat="43.9454" lon="-1.35366">
        <ele>-11.60000038147</ele>
        <time>2025-08-13T17:48:56.000Z</time>
      </trkpt>
      <trkpt lat="43.94553" lon="-1.35354">
        <ele>-12</ele>
        <time>2025-08-13T17:48:59.000Z</time>
      </trkpt>
      <trkpt lat="43.94576" lon="-1.35341">
        <ele>-12.60000038147</ele>
        <time>2025-08-13T17:49:04.000Z</time>
      </trkpt>
      <trkpt lat="43.94581" lon="-1.3534">
        <ele>-12.60000038147</ele>
        <time>2025-08-13T17:49:05.000Z</time>
      </trkpt>
      <trkpt lat="43.94618" lon="-1.35336">
        <ele>-12.800000190735</ele>
        <time>2025-08-13T17:49:12.000Z</time>
      </trkpt>
      <trkpt lat="43.94662" lon="-1.35332">
        <ele>-13.60000038147</ele>
        <time>2025-08-13T17:49:21.000Z</time>
      </trkpt>
      <trkpt lat="43.94684" lon="-1.3533">
        <ele>-13.60000038147</ele>
        <time>2025-08-13T17:49:27.000Z</time>
      </trkpt>
      <trkpt lat="43.94708" lon="-1.35328">
        <ele>-13.60000038147</ele>
        <time>2025-08-13T17:49:34.000Z</time>
      </trkpt>
      <trkpt lat="43.94727" lon="-1.35327">
        <ele>-13.199999809265</ele>
        <time>2025-08-13T17:49:40.000Z</time>
      </trkpt>
      <trkpt lat="43.94743" lon="-1.35326">
        <ele>-12.800000190735</ele>
        <time>2025-08-13T17:49:46.000Z</time>
      </trkpt>
      <trkpt lat="43.94749" lon="-1.35326">
        <ele>-12.60000038147</ele>
        <time>2025-08-13T17:49:48.000Z</time>
      </trkpt>
      <trkpt lat="43.94765" lon="-1.35325">
        <ele>-12.199999809265</ele>
        <time>2025-08-13T17:49:53.000Z</time>
      </trkpt>
      <trkpt lat="43.94793" lon="-1.35323">
        <ele>-11.800000190735</ele>
        <time>2025-08-13T17:50:00.000Z</time>
      </trkpt>
      <trkpt lat="43.94807" lon="-1.35325">
        <ele>-11.60000038147</ele>
        <time>2025-08-13T17:50:04.000Z</time>
      </trkpt>
      <trkpt lat="43.94817" lon="-1.35329">
        <ele>-11.60000038147</ele>
        <time>2025-08-13T17:50:07.000Z</time>
      </trkpt>
      <trkpt lat="43.94828" lon="-1.35334">
        <ele>-11.39999961853</ele>
        <time>2025-08-13T17:50:12.000Z</time>
      </trkpt>
      <trkpt lat="43.94835" lon="-1.35337">
        <ele>-10.800000190735</ele>
        <time>2025-08-13T17:50:16.000Z</time>
      </trkpt>
      <trkpt lat="43.94838" lon="-1.35339">
        <ele>-10.60000038147</ele>
        <time>2025-08-13T17:50:18.000Z</time>
      </trkpt>
      <trkpt lat="43.94842" lon="-1.3534">
        <ele>-10</ele>
        <time>2025-08-13T17:50:21.000Z</time>
      </trkpt>
      <trkpt lat="43.94845" lon="-1.35342">
        <ele>-9.8000001907349</ele>
        <time>2025-08-13T17:50:23.000Z</time>
      </trkpt>
      <trkpt lat="43.94848" lon="-1.35344">
        <ele>-9.3999996185303</ele>
        <time>2025-08-13T17:50:26.000Z</time>
      </trkpt>
      <trkpt lat="43.94852" lon="-1.35345">
        <ele>-9.1999998092651</ele>
        <time>2025-08-13T17:50:29.000Z</time>
      </trkpt>
      <trkpt lat="43.94859" lon="-1.3535">
        <ele>-8.3999996185303</ele>
        <time>2025-08-13T17:50:35.000Z</time>
      </trkpt>
      <trkpt lat="43.9486" lon="-1.35351">
        <ele>-8.1999998092651</ele>
        <time>2025-08-13T17:50:36.000Z</time>
      </trkpt>
      <trkpt lat="43.94876" lon="-1.35359">
        <ele>-7.5999999046326</ele>
        <time>2025-08-13T17:50:43.000Z</time>
      </trkpt>
      <trkpt lat="43.94893" lon="-1.35364">
        <ele>-7.5999999046326</ele>
        <time>2025-08-13T17:50:47.000Z</time>
      </trkpt>
      <trkpt lat="43.94917" lon="-1.35369">
        <ele>-8.1999998092651</ele>
        <time>2025-08-13T17:50:51.000Z</time>
      </trkpt>
      <trkpt lat="43.94938" lon="-1.35369">
        <ele>-9.1999998092651</ele>
        <time>2025-08-13T17:50:56.000Z</time>
      </trkpt>
      <trkpt lat="43.94949" lon="-1.35367">
        <ele>-9.3999996185303</ele>
        <time>2025-08-13T17:50:58.000Z</time>
      </trkpt>
      <trkpt lat="43.94955" lon="-1.35367">
        <ele>-9.6000003814697</ele>
        <time>2025-08-13T17:50:59.000Z</time>
      </trkpt>
      <trkpt lat="43.94968" lon="-1.35366">
        <ele>-9.6000003814697</ele>
        <time>2025-08-13T17:51:01.000Z</time>
      </trkpt>
      <trkpt lat="43.94996" lon="-1.35364">
        <ele>-11</ele>
        <time>2025-08-13T17:51:05.000Z</time>
      </trkpt>
      <trkpt lat="43.95011" lon="-1.35363">
        <ele>-11.60000038147</ele>
        <time>2025-08-13T17:51:07.000Z</time>
      </trkpt>
      <trkpt lat="43.95031" lon="-1.35362">
        <ele>-12.199999809265</ele>
        <time>2025-08-13T17:51:10.000Z</time>
      </trkpt>
      <trkpt lat="43.95044" lon="-1.35362">
        <ele>-12.60000038147</ele>
        <time>2025-08-13T17:51:12.000Z</time>
      </trkpt>
      <trkpt lat="43.95063" lon="-1.35361">
        <ele>-12.800000190735</ele>
        <time>2025-08-13T17:51:15.000Z</time>
      </trkpt>
      <trkpt lat="43.95075" lon="-1.3536">
        <ele>-13</ele>
        <time>2025-08-13T17:51:17.000Z</time>
      </trkpt>
      <trkpt lat="43.95092" lon="-1.35361">
        <ele>-13.199999809265</ele>
        <time>2025-08-13T17:51:20.000Z</time>
      </trkpt>
      <trkpt lat="43.95119" lon="-1.35359">
        <ele>-13.60000038147</ele>
        <time>2025-08-13T17:51:25.000Z</time>
      </trkpt>
      <trkpt lat="43.9514" lon="-1.35358">
        <ele>-13.800000190735</ele>
        <time>2025-08-13T17:51:30.000Z</time>
      </trkpt>
      <trkpt lat="43.95161" lon="-1.35358">
        <ele>-14</ele>
        <time>2025-08-13T17:51:36.000Z</time>
      </trkpt>
      <trkpt lat="43.9518" lon="-1.35358">
        <ele>-14</ele>
        <time>2025-08-13T17:51:42.000Z</time>
      </trkpt>
      <trkpt lat="43.95199" lon="-1.35356">
        <ele>-14</ele>
        <time>2025-08-13T17:51:48.000Z</time>
      </trkpt>
      <trkpt lat="43.95201" lon="-1.35356">
        <ele>-14</ele>
        <time>2025-08-13T17:51:52.000Z</time>
      </trkpt>
      <trkpt lat="43.95202" lon="-1.35366">
        <ele>-14.199999809265</ele>
        <time>2025-08-13T17:52:08.000Z</time>
      </trkpt>
      <trkpt lat="43.95203" lon="-1.3539">
        <ele>-14.199999809265</ele>
        <time>2025-08-13T17:52:15.000Z</time>
      </trkpt>
      <trkpt lat="43.95205" lon="-1.35412">
        <ele>-14</ele>
        <time>2025-08-13T17:52:21.000Z</time>
      </trkpt>
      <trkpt lat="43.95206" lon="-1.35437">
        <ele>-13.800000190735</ele>
        <time>2025-08-13T17:52:27.000Z</time>
      </trkpt>
      <trkpt lat="43.95208" lon="-1.35459">
        <ele>-13.199999809265</ele>
        <time>2025-08-13T17:52:32.000Z</time>
      </trkpt>
      <trkpt lat="43.95208" lon="-1.35463">
        <ele>-13.199999809265</ele>
        <time>2025-08-13T17:52:33.000Z</time>
      </trkpt>
      <trkpt lat="43.95209" lon="-1.35494">
        <ele>-13</ele>
        <time>2025-08-13T17:52:40.000Z</time>
      </trkpt>
      <trkpt lat="43.95209" lon="-1.35521">
        <ele>-12.800000190735</ele>
        <time>2025-08-13T17:52:46.000Z</time>
      </trkpt>
      <trkpt lat="43.9521" lon="-1.35555">
        <ele>-12.60000038147</ele>
        <time>2025-08-13T17:52:55.000Z</time>
      </trkpt>
      <trkpt lat="43.9521" lon="-1.35569">
        <ele>-12.199999809265</ele>
        <time>2025-08-13T17:52:59.000Z</time>
      </trkpt>
      <trkpt lat="43.95211" lon="-1.35586">
        <ele>-11.800000190735</ele>
        <time>2025-08-13T17:53:04.000Z</time>
      </trkpt>
      <trkpt lat="43.95211" lon="-1.35605">
        <ele>-11.39999961853</ele>
        <time>2025-08-13T17:53:10.000Z</time>
      </trkpt>
      <trkpt lat="43.95212" lon="-1.35615">
        <ele>-11.199999809265</ele>
        <time>2025-08-13T17:53:13.000Z</time>
      </trkpt>
      <trkpt lat="43.95212" lon="-1.35631">
        <ele>-10.60000038147</ele>
        <time>2025-08-13T17:53:18.000Z</time>
      </trkpt>
      <trkpt lat="43.95214" lon="-1.35654">
        <ele>-10</ele>
        <time>2025-08-13T17:53:25.000Z</time>
      </trkpt>
      <trkpt lat="43.95214" lon="-1.35658">
        <ele>-10</ele>
        <time>2025-08-13T17:53:26.000Z</time>
      </trkpt>
      <trkpt lat="43.95216" lon="-1.35678">
        <ele>-9.6000003814697</ele>
        <time>2025-08-13T17:53:32.000Z</time>
      </trkpt>
      <trkpt lat="43.95217" lon="-1.35697">
        <ele>-9</ele>
        <time>2025-08-13T17:53:38.000Z</time>
      </trkpt>
      <trkpt lat="43.95217" lon="-1.357">
        <ele>-8.8000001907349</ele>
        <time>2025-08-13T17:53:39.000Z</time>
      </trkpt>
      <trkpt lat="43.95217" lon="-1.3572">
        <ele>-8.1999998092651</ele>
        <time>2025-08-13T17:53:45.000Z</time>
      </trkpt>
      <trkpt lat="43.95218" lon="-1.35729">
        <ele>-8</ele>
        <time>2025-08-13T17:53:48.000Z</time>
      </trkpt>
      <trkpt lat="43.95218" lon="-1.35739">
        <ele>-7.8000001907349</ele>
        <time>2025-08-13T17:53:51.000Z</time>
      </trkpt>
      <trkpt lat="43.9522" lon="-1.35766">
        <ele>-7.1999998092651</ele>
        <time>2025-08-13T17:53:59.000Z</time>
      </trkpt>
      <trkpt lat="43.95214" lon="-1.35784">
        <ele>-7</ele>
        <time>2025-08-13T17:54:05.000Z</time>
      </trkpt>
      <trkpt lat="43.95209" lon="-1.35791">
        <ele>-7</ele>
        <time>2025-08-13T17:54:08.000Z</time>
      </trkpt>
      <trkpt lat="43.95205" lon="-1.35802">
        <ele>-6.5999999046326</ele>
        <time>2025-08-13T17:54:12.000Z</time>
      </trkpt>
      <trkpt lat="43.95205" lon="-1.35823">
        <ele>-6.5999999046326</ele>
        <time>2025-08-13T17:54:19.000Z</time>
      </trkpt>
      <trkpt lat="43.95212" lon="-1.35836">
        <ele>-6.8000001907349</ele>
        <time>2025-08-13T17:54:24.000Z</time>
      </trkpt>
      <trkpt lat="43.95222" lon="-1.35856">
        <ele>-7.1999998092651</ele>
        <time>2025-08-13T17:54:31.000Z</time>
      </trkpt>
      <trkpt lat="43.95223" lon="-1.35887">
        <ele>-7.4000000953674</ele>
        <time>2025-08-13T17:54:39.000Z</time>
      </trkpt>
      <trkpt lat="43.95223" lon="-1.35913">
        <ele>-7.5999999046326</ele>
        <time>2025-08-13T17:54:46.000Z</time>
      </trkpt>
      <trkpt lat="43.95225" lon="-1.3594">
        <ele>-7.8000001907349</ele>
        <time>2025-08-13T17:54:53.000Z</time>
      </trkpt>
      <trkpt lat="43.95225" lon="-1.35944">
        <ele>-7.8000001907349</ele>
        <time>2025-08-13T17:54:54.000Z</time>
      </trkpt>
      <trkpt lat="43.95226" lon="-1.35989">
        <ele>-8.1999998092651</ele>
        <time>2025-08-13T17:55:05.000Z</time>
      </trkpt>
      <trkpt lat="43.95228" lon="-1.36027">
        <ele>-8.8000001907349</ele>
        <time>2025-08-13T17:55:14.000Z</time>
      </trkpt>
      <trkpt lat="43.95228" lon="-1.36034">
        <ele>-9</ele>
        <time>2025-08-13T17:55:16.000Z</time>
      </trkpt>
      <trkpt lat="43.95228" lon="-1.36047">
        <ele>-9.1999998092651</ele>
        <time>2025-08-13T17:55:21.000Z</time>
      </trkpt>
      <trkpt lat="43.95229" lon="-1.36062">
        <ele>-9.1999998092651</ele>
        <time>2025-08-13T17:55:28.000Z</time>
      </trkpt>
      <trkpt lat="43.95236" lon="-1.3608">
        <ele>-9.3999996185303</ele>
        <time>2025-08-13T17:55:35.000Z</time>
      </trkpt>
      <trkpt lat="43.95237" lon="-1.36104">
        <ele>-9.6000003814697</ele>
        <time>2025-08-13T17:55:42.000Z</time>
      </trkpt>
      <trkpt lat="43.95238" lon="-1.36128">
        <ele>-9.6000003814697</ele>
        <time>2025-08-13T17:55:49.000Z</time>
      </trkpt>
      <trkpt lat="43.95241" lon="-1.36158">
        <ele>-9.3999996185303</ele>
        <time>2025-08-13T17:55:59.000Z</time>
      </trkpt>
      <trkpt lat="43.95244" lon="-1.36178">
        <ele>-9.1999998092651</ele>
        <time>2025-08-13T17:56:06.000Z</time>
      </trkpt>
      <trkpt lat="43.95245" lon="-1.36194">
        <ele>-8.8000001907349</ele>
        <time>2025-08-13T17:56:12.000Z</time>
      </trkpt>
      <trkpt lat="43.95248" lon="-1.3622">
        <ele>-8.3999996185303</ele>
        <time>2025-08-13T17:56:21.000Z</time>
      </trkpt>
      <trkpt lat="43.9525" lon="-1.36232">
        <ele>-8.1999998092651</ele>
        <time>2025-08-13T17:56:27.000Z</time>
      </trkpt>
      <trkpt lat="43.95255" lon="-1.36256">
        <ele>-7.8000001907349</ele>
        <time>2025-08-13T17:56:36.000Z</time>
      </trkpt>
      <trkpt lat="43.95257" lon="-1.36264">
        <ele>-8</ele>
        <time>2025-08-13T17:56:40.000Z</time>
      </trkpt>
      <trkpt lat="43.95259" lon="-1.36265">
        <ele>-8</ele>
        <time>2025-08-13T17:56:42.000Z</time>
      </trkpt>
      <trkpt lat="43.95272" lon="-1.36262">
        <ele>-8.1999998092651</ele>
        <time>2025-08-13T17:56:49.000Z</time>
      </trkpt>
      <trkpt lat="43.95279" lon="-1.3626">
        <ele>-8.1999998092651</ele>
        <time>2025-08-13T17:56:53.000Z</time>
      </trkpt>
      <trkpt lat="43.9528" lon="-1.36261">
        <ele>-8.1999998092651</ele>
        <time>2025-08-13T17:56:54.000Z</time>
      </trkpt>
      <trkpt lat="43.95274" lon="-1.36263">
        <ele>-8.1999998092651</ele>
        <time>2025-08-13T17:56:59.000Z</time>
      </trkpt>
      <trkpt lat="43.95261" lon="-1.36265">
        <ele>-8.1999998092651</ele>
        <time>2025-08-13T17:57:05.000Z</time>
      </trkpt>
      <trkpt lat="43.95256" lon="-1.36269">
        <ele>-8.1999998092651</ele>
        <time>2025-08-13T17:57:10.000Z</time>
      </trkpt>
      <trkpt lat="43.95256" lon="-1.36269">
        <ele>-8</ele>
        <time>2025-08-13T17:57:11.000Z</time>
      </trkpt>
      <trkpt lat="43.95261" lon="-1.36264">
        <ele>-8.6000003814697</ele>
        <time>2025-08-13T17:58:00.000Z</time>
      </trkpt>
      <trkpt lat="43.95266" lon="-1.36261">
        <ele>-8.6000003814697</ele>
        <time>2025-08-13T17:58:03.000Z</time>
      </trkpt>
      <trkpt lat="43.9528" lon="-1.36259">
        <ele>-8.6000003814697</ele>
        <time>2025-08-13T17:58:08.000Z</time>
      </trkpt>
      <trkpt lat="43.95305" lon="-1.36253">
        <ele>-8.6000003814697</ele>
        <time>2025-08-13T17:58:16.000Z</time>
      </trkpt>
      <trkpt lat="43.95334" lon="-1.36247">
        <ele>-8.6000003814697</ele>
        <time>2025-08-13T17:58:25.000Z</time>
      </trkpt>
      <trkpt lat="43.95363" lon="-1.36242">
        <ele>-9</ele>
        <time>2025-08-13T17:58:35.000Z</time>
      </trkpt>
      <trkpt lat="43.95364" lon="-1.36241">
        <ele>-9</ele>
        <time>2025-08-13T17:58:38.000Z</time>
      </trkpt>
      <trkpt lat="43.95368" lon="-1.36241">
        <ele>-9</ele>
        <time>2025-08-13T17:59:14.000Z</time>
      </trkpt>
      <trkpt lat="43.9538" lon="-1.36237">
        <ele>-9</ele>
        <time>2025-08-13T17:59:19.000Z</time>
      </trkpt>
      <trkpt lat="43.95387" lon="-1.36232">
        <ele>-9.1999998092651</ele>
        <time>2025-08-13T17:59:22.000Z</time>
      </trkpt>
      <trkpt lat="43.95388" lon="-1.3623">
        <ele>-9.1999998092651</ele>
        <time>2025-08-13T17:59:23.000Z</time>
      </trkpt>
      <trkpt lat="43.95388" lon="-1.36228">
        <ele>-9.1999998092651</ele>
        <time>2025-08-13T17:59:24.000Z</time>
      </trkpt>
      <trkpt lat="43.95388" lon="-1.36223">
        <ele>-9.1999998092651</ele>
        <time>2025-08-13T17:59:27.000Z</time>
      </trkpt>
      <trkpt lat="43.95387" lon="-1.36221">
        <ele>-9.1999998092651</ele>
        <time>2025-08-13T17:59:31.000Z</time>
      </trkpt>
      <trkpt lat="43.95379" lon="-1.36216">
        <ele>-9</ele>
        <time>2025-08-13T17:59:42.000Z</time>
      </trkpt>
      <trkpt lat="43.95379" lon="-1.36217">
        <ele>-9</ele>
        <time>2025-08-13T17:59:45.000Z</time>
      </trkpt>
    </trkseg>
  </trk>
</gpx>